<?xml version="1.0" encoding="UTF-8" standalone="no" ?>
<gpx xmlns="http://www.topografix.com/GPX/1/1" xmlns:xsi="http://www.w3.org/2001/XMLSchema-instance" xsi:schemaLocation="http://www.topografix.com/GPX/1/1 http://www.topografix.com/GPX/1/1/gpx.xsd" version="1.1" creator="VisuGPX - https://www.visugpx.com">
  <metadata>
    <name>Lac Cornu et lacs Noirs</name>
    <desc><![CDATA[Au départ du parking ezs Eaux Rousses aux Houches, très belle balade vers le lac Cornu (photo 1) et les lacs Noirs (photo 2), véritables havres de paix sauvages et reculés. Le parcours est très roulant jusqu'au km 10 puis la pente s'accentue véritablement.
Bonne balade]]></desc>
  </metadata>
  <trk>
    <name><![CDATA[nicolas_malabre_2026-08-04_06-07-01]]></name>
    <extensions>
      <line xmlns="http://www.topografix.com/GPX/gpx_style/0/2">
        <color>0000FF</color>
        <width>4</width>
      </line>
    </extensions>
    <trkseg>
      <trkpt lat="45.89773" lon="6.8024">
        <ele>1012</ele>
        <time>2026-08-04T04:07:02.278Z</time>
      </trkpt>
      <trkpt lat="45.89773" lon="6.8024">
        <ele>1012</ele>
        <time>2026-08-04T04:07:03.278Z</time>
      </trkpt>
      <trkpt lat="45.89774" lon="6.8024">
        <ele>1012</ele>
        <time>2026-08-04T04:07:04.278Z</time>
      </trkpt>
      <trkpt lat="45.89774" lon="6.8024">
        <ele>1012</ele>
        <time>2026-08-04T04:07:05.278Z</time>
      </trkpt>
      <trkpt lat="45.89774" lon="6.8024">
        <ele>1012</ele>
        <time>2026-08-04T04:07:06.278Z</time>
      </trkpt>
      <trkpt lat="45.89774" lon="6.8024">
        <ele>1012</ele>
        <time>2026-08-04T04:07:07.278Z</time>
      </trkpt>
      <trkpt lat="45.89774" lon="6.8024">
        <ele>1012</ele>
        <time>2026-08-04T04:07:08.278Z</time>
      </trkpt>
      <trkpt lat="45.89774" lon="6.8024">
        <ele>1011</ele>
        <time>2026-08-04T04:07:09.278Z</time>
      </trkpt>
      <trkpt lat="45.89776" lon="6.80241">
        <ele>1011</ele>
        <time>2026-08-04T04:07:10.278Z</time>
      </trkpt>
      <trkpt lat="45.89777" lon="6.80242">
        <ele>1011</ele>
        <time>2026-08-04T04:07:11.278Z</time>
      </trkpt>
      <trkpt lat="45.89779" lon="6.80243">
        <ele>1011</ele>
        <time>2026-08-04T04:07:12.278Z</time>
      </trkpt>
      <trkpt lat="45.89781" lon="6.80244">
        <ele>1011</ele>
        <time>2026-08-04T04:07:13.278Z</time>
      </trkpt>
      <trkpt lat="45.89782" lon="6.80245">
        <ele>1011</ele>
        <time>2026-08-04T04:07:14.278Z</time>
      </trkpt>
      <trkpt lat="45.89784" lon="6.80246">
        <ele>1011</ele>
        <time>2026-08-04T04:07:15.278Z</time>
      </trkpt>
      <trkpt lat="45.89785" lon="6.80246">
        <ele>1011</ele>
        <time>2026-08-04T04:07:16.278Z</time>
      </trkpt>
      <trkpt lat="45.89786" lon="6.80246">
        <ele>1010</ele>
        <time>2026-08-04T04:07:17.278Z</time>
      </trkpt>
      <trkpt lat="45.89785" lon="6.80245">
        <ele>1010</ele>
        <time>2026-08-04T04:07:18.278Z</time>
      </trkpt>
      <trkpt lat="45.89784" lon="6.80245">
        <ele>1010</ele>
        <time>2026-08-04T04:07:19.278Z</time>
      </trkpt>
      <trkpt lat="45.89782" lon="6.80245">
        <ele>1010</ele>
        <time>2026-08-04T04:07:20.278Z</time>
      </trkpt>
      <trkpt lat="45.89781" lon="6.80244">
        <ele>1010</ele>
        <time>2026-08-04T04:07:21.278Z</time>
      </trkpt>
      <trkpt lat="45.89778" lon="6.80243">
        <ele>1010</ele>
        <time>2026-08-04T04:07:22.278Z</time>
      </trkpt>
      <trkpt lat="45.89776" lon="6.80243">
        <ele>1010</ele>
        <time>2026-08-04T04:07:23.278Z</time>
      </trkpt>
      <trkpt lat="45.89775" lon="6.80242">
        <ele>1011</ele>
        <time>2026-08-04T04:07:24.278Z</time>
      </trkpt>
      <trkpt lat="45.89773" lon="6.80241">
        <ele>1011</ele>
        <time>2026-08-04T04:07:25.278Z</time>
      </trkpt>
      <trkpt lat="45.89773" lon="6.8024">
        <ele>1011</ele>
        <time>2026-08-04T04:07:26.278Z</time>
      </trkpt>
      <trkpt lat="45.89773" lon="6.80239">
        <ele>1011</ele>
        <time>2026-08-04T04:07:27.278Z</time>
      </trkpt>
      <trkpt lat="45.89775" lon="6.80238">
        <ele>1011</ele>
        <time>2026-08-04T04:07:28.278Z</time>
      </trkpt>
      <trkpt lat="45.89776" lon="6.80237">
        <ele>1011</ele>
        <time>2026-08-04T04:07:29.278Z</time>
      </trkpt>
      <trkpt lat="45.89777" lon="6.80237">
        <ele>1010</ele>
        <time>2026-08-04T04:07:30.278Z</time>
      </trkpt>
      <trkpt lat="45.89779" lon="6.80238">
        <ele>1010</ele>
        <time>2026-08-04T04:07:31.278Z</time>
      </trkpt>
      <trkpt lat="45.8978" lon="6.80239">
        <ele>1010</ele>
        <time>2026-08-04T04:07:32.278Z</time>
      </trkpt>
      <trkpt lat="45.89782" lon="6.80241">
        <ele>1009</ele>
        <time>2026-08-04T04:07:33.278Z</time>
      </trkpt>
      <trkpt lat="45.89783" lon="6.80244">
        <ele>1009</ele>
        <time>2026-08-04T04:07:34.278Z</time>
      </trkpt>
      <trkpt lat="45.89784" lon="6.80246">
        <ele>1009</ele>
        <time>2026-08-04T04:07:35.278Z</time>
      </trkpt>
      <trkpt lat="45.89785" lon="6.80248">
        <ele>1009</ele>
        <time>2026-08-04T04:07:36.278Z</time>
      </trkpt>
      <trkpt lat="45.89786" lon="6.8025">
        <ele>1010</ele>
        <time>2026-08-04T04:07:37.278Z</time>
      </trkpt>
      <trkpt lat="45.89787" lon="6.80252">
        <ele>1010</ele>
        <time>2026-08-04T04:07:38.278Z</time>
      </trkpt>
      <trkpt lat="45.89787" lon="6.80254">
        <ele>1011</ele>
        <time>2026-08-04T04:07:39.278Z</time>
      </trkpt>
      <trkpt lat="45.89788" lon="6.80255">
        <ele>1011</ele>
        <time>2026-08-04T04:07:40.278Z</time>
      </trkpt>
      <trkpt lat="45.89789" lon="6.80257">
        <ele>1012</ele>
        <time>2026-08-04T04:07:41.278Z</time>
      </trkpt>
      <trkpt lat="45.8979" lon="6.80258">
        <ele>1012</ele>
        <time>2026-08-04T04:07:42.278Z</time>
      </trkpt>
      <trkpt lat="45.89791" lon="6.8026">
        <ele>1012</ele>
        <time>2026-08-04T04:07:43.278Z</time>
      </trkpt>
      <trkpt lat="45.89792" lon="6.80261">
        <ele>1012</ele>
        <time>2026-08-04T04:07:44.278Z</time>
      </trkpt>
      <trkpt lat="45.89794" lon="6.80264">
        <ele>1012</ele>
        <time>2026-08-04T04:07:45.278Z</time>
      </trkpt>
      <trkpt lat="45.89795" lon="6.80265">
        <ele>1012</ele>
        <time>2026-08-04T04:07:46.278Z</time>
      </trkpt>
      <trkpt lat="45.89796" lon="6.80267">
        <ele>1012</ele>
        <time>2026-08-04T04:07:47.278Z</time>
      </trkpt>
      <trkpt lat="45.89797" lon="6.80269">
        <ele>1012</ele>
        <time>2026-08-04T04:07:48.278Z</time>
      </trkpt>
      <trkpt lat="45.89798" lon="6.80271">
        <ele>1011</ele>
        <time>2026-08-04T04:07:49.278Z</time>
      </trkpt>
      <trkpt lat="45.89799" lon="6.80272">
        <ele>1012</ele>
        <time>2026-08-04T04:07:50.278Z</time>
      </trkpt>
      <trkpt lat="45.898" lon="6.80273">
        <ele>1012</ele>
        <time>2026-08-04T04:07:51.278Z</time>
      </trkpt>
      <trkpt lat="45.89802" lon="6.80275">
        <ele>1012</ele>
        <time>2026-08-04T04:07:52.278Z</time>
      </trkpt>
      <trkpt lat="45.89804" lon="6.80277">
        <ele>1012</ele>
        <time>2026-08-04T04:07:53.278Z</time>
      </trkpt>
      <trkpt lat="45.89806" lon="6.80278">
        <ele>1012</ele>
        <time>2026-08-04T04:07:54.278Z</time>
      </trkpt>
      <trkpt lat="45.89807" lon="6.8028">
        <ele>1013</ele>
        <time>2026-08-04T04:07:55.278Z</time>
      </trkpt>
      <trkpt lat="45.89809" lon="6.80281">
        <ele>1013</ele>
        <time>2026-08-04T04:07:56.278Z</time>
      </trkpt>
      <trkpt lat="45.8981" lon="6.80282">
        <ele>1013</ele>
        <time>2026-08-04T04:07:57.278Z</time>
      </trkpt>
      <trkpt lat="45.89811" lon="6.80283">
        <ele>1014</ele>
        <time>2026-08-04T04:07:58.278Z</time>
      </trkpt>
      <trkpt lat="45.89812" lon="6.80284">
        <ele>1014</ele>
        <time>2026-08-04T04:07:59.278Z</time>
      </trkpt>
      <trkpt lat="45.89813" lon="6.80284">
        <ele>1014</ele>
        <time>2026-08-04T04:08:00.278Z</time>
      </trkpt>
      <trkpt lat="45.89814" lon="6.80285">
        <ele>1015</ele>
        <time>2026-08-04T04:08:01.278Z</time>
      </trkpt>
      <trkpt lat="45.89815" lon="6.80286">
        <ele>1015</ele>
        <time>2026-08-04T04:08:02.278Z</time>
      </trkpt>
      <trkpt lat="45.89815" lon="6.80287">
        <ele>1016</ele>
        <time>2026-08-04T04:08:03.278Z</time>
      </trkpt>
      <trkpt lat="45.89816" lon="6.80288">
        <ele>1016</ele>
        <time>2026-08-04T04:08:04.278Z</time>
      </trkpt>
      <trkpt lat="45.89819" lon="6.80289">
        <ele>1016</ele>
        <time>2026-08-04T04:08:05.278Z</time>
      </trkpt>
      <trkpt lat="45.8982" lon="6.8029">
        <ele>1017</ele>
        <time>2026-08-04T04:08:06.278Z</time>
      </trkpt>
      <trkpt lat="45.89822" lon="6.80292">
        <ele>1017</ele>
        <time>2026-08-04T04:08:07.278Z</time>
      </trkpt>
      <trkpt lat="45.89823" lon="6.80293">
        <ele>1018</ele>
        <time>2026-08-04T04:08:08.278Z</time>
      </trkpt>
      <trkpt lat="45.89824" lon="6.80293">
        <ele>1018</ele>
        <time>2026-08-04T04:08:09.278Z</time>
      </trkpt>
      <trkpt lat="45.89825" lon="6.80293">
        <ele>1019</ele>
        <time>2026-08-04T04:08:10.278Z</time>
      </trkpt>
      <trkpt lat="45.89826" lon="6.80294">
        <ele>1018</ele>
        <time>2026-08-04T04:08:11.278Z</time>
      </trkpt>
      <trkpt lat="45.89827" lon="6.80295">
        <ele>1018</ele>
        <time>2026-08-04T04:08:12.278Z</time>
      </trkpt>
      <trkpt lat="45.89828" lon="6.80296">
        <ele>1017</ele>
        <time>2026-08-04T04:08:13.278Z</time>
      </trkpt>
      <trkpt lat="45.89829" lon="6.80297">
        <ele>1016</ele>
        <time>2026-08-04T04:08:14.278Z</time>
      </trkpt>
      <trkpt lat="45.8983" lon="6.80298">
        <ele>1016</ele>
        <time>2026-08-04T04:08:15.278Z</time>
      </trkpt>
      <trkpt lat="45.89831" lon="6.80299">
        <ele>1015</ele>
        <time>2026-08-04T04:08:16.278Z</time>
      </trkpt>
      <trkpt lat="45.89832" lon="6.80299">
        <ele>1015</ele>
        <time>2026-08-04T04:08:17.278Z</time>
      </trkpt>
      <trkpt lat="45.89833" lon="6.803">
        <ele>1015</ele>
        <time>2026-08-04T04:08:18.278Z</time>
      </trkpt>
      <trkpt lat="45.89835" lon="6.80302">
        <ele>1015</ele>
        <time>2026-08-04T04:08:19.278Z</time>
      </trkpt>
      <trkpt lat="45.89837" lon="6.80305">
        <ele>1015</ele>
        <time>2026-08-04T04:08:20.278Z</time>
      </trkpt>
      <trkpt lat="45.89838" lon="6.80307">
        <ele>1015</ele>
        <time>2026-08-04T04:08:21.278Z</time>
      </trkpt>
      <trkpt lat="45.8984" lon="6.8031">
        <ele>1015</ele>
        <time>2026-08-04T04:08:22.278Z</time>
      </trkpt>
      <trkpt lat="45.89842" lon="6.80312">
        <ele>1015</ele>
        <time>2026-08-04T04:08:23.278Z</time>
      </trkpt>
      <trkpt lat="45.89843" lon="6.80313">
        <ele>1015</ele>
        <time>2026-08-04T04:08:24.278Z</time>
      </trkpt>
      <trkpt lat="45.89844" lon="6.80315">
        <ele>1015</ele>
        <time>2026-08-04T04:08:25.278Z</time>
      </trkpt>
      <trkpt lat="45.89845" lon="6.80318">
        <ele>1015</ele>
        <time>2026-08-04T04:08:26.278Z</time>
      </trkpt>
      <trkpt lat="45.89846" lon="6.8032">
        <ele>1015</ele>
        <time>2026-08-04T04:08:27.278Z</time>
      </trkpt>
      <trkpt lat="45.89847" lon="6.80322">
        <ele>1015</ele>
        <time>2026-08-04T04:08:28.278Z</time>
      </trkpt>
      <trkpt lat="45.89848" lon="6.80324">
        <ele>1015</ele>
        <time>2026-08-04T04:08:29.278Z</time>
      </trkpt>
      <trkpt lat="45.89849" lon="6.80325">
        <ele>1015</ele>
        <time>2026-08-04T04:08:30.278Z</time>
      </trkpt>
      <trkpt lat="45.8985" lon="6.80327">
        <ele>1015</ele>
        <time>2026-08-04T04:08:31.278Z</time>
      </trkpt>
      <trkpt lat="45.89851" lon="6.80329">
        <ele>1015</ele>
        <time>2026-08-04T04:08:32.278Z</time>
      </trkpt>
      <trkpt lat="45.89853" lon="6.80332">
        <ele>1015</ele>
        <time>2026-08-04T04:08:33.278Z</time>
      </trkpt>
      <trkpt lat="45.89854" lon="6.80335">
        <ele>1015</ele>
        <time>2026-08-04T04:08:34.278Z</time>
      </trkpt>
      <trkpt lat="45.89855" lon="6.80337">
        <ele>1015</ele>
        <time>2026-08-04T04:08:35.278Z</time>
      </trkpt>
      <trkpt lat="45.89856" lon="6.80338">
        <ele>1014</ele>
        <time>2026-08-04T04:08:36.278Z</time>
      </trkpt>
      <trkpt lat="45.89858" lon="6.80341">
        <ele>1014</ele>
        <time>2026-08-04T04:08:37.279Z</time>
      </trkpt>
      <trkpt lat="45.89858" lon="6.80342">
        <ele>1013</ele>
        <time>2026-08-04T04:08:38.278Z</time>
      </trkpt>
      <trkpt lat="45.89859" lon="6.80344">
        <ele>1013</ele>
        <time>2026-08-04T04:08:39.278Z</time>
      </trkpt>
      <trkpt lat="45.8986" lon="6.80346">
        <ele>1013</ele>
        <time>2026-08-04T04:08:40.278Z</time>
      </trkpt>
      <trkpt lat="45.89861" lon="6.80348">
        <ele>1013</ele>
        <time>2026-08-04T04:08:41.278Z</time>
      </trkpt>
      <trkpt lat="45.89862" lon="6.80351">
        <ele>1013</ele>
        <time>2026-08-04T04:08:42.278Z</time>
      </trkpt>
      <trkpt lat="45.89863" lon="6.80353">
        <ele>1013</ele>
        <time>2026-08-04T04:08:43.278Z</time>
      </trkpt>
      <trkpt lat="45.89865" lon="6.80355">
        <ele>1013</ele>
        <time>2026-08-04T04:08:44.278Z</time>
      </trkpt>
      <trkpt lat="45.89866" lon="6.80357">
        <ele>1013</ele>
        <time>2026-08-04T04:08:45.278Z</time>
      </trkpt>
      <trkpt lat="45.89868" lon="6.80359">
        <ele>1013</ele>
        <time>2026-08-04T04:08:46.278Z</time>
      </trkpt>
      <trkpt lat="45.89869" lon="6.8036">
        <ele>1013</ele>
        <time>2026-08-04T04:08:47.278Z</time>
      </trkpt>
      <trkpt lat="45.89871" lon="6.80362">
        <ele>1013</ele>
        <time>2026-08-04T04:08:48.278Z</time>
      </trkpt>
      <trkpt lat="45.89872" lon="6.80363">
        <ele>1013</ele>
        <time>2026-08-04T04:08:49.278Z</time>
      </trkpt>
      <trkpt lat="45.89874" lon="6.80365">
        <ele>1013</ele>
        <time>2026-08-04T04:08:50.278Z</time>
      </trkpt>
      <trkpt lat="45.89876" lon="6.80368">
        <ele>1013</ele>
        <time>2026-08-04T04:08:51.278Z</time>
      </trkpt>
      <trkpt lat="45.89877" lon="6.8037">
        <ele>1013</ele>
        <time>2026-08-04T04:08:52.278Z</time>
      </trkpt>
      <trkpt lat="45.89877" lon="6.80372">
        <ele>1013</ele>
        <time>2026-08-04T04:08:53.278Z</time>
      </trkpt>
      <trkpt lat="45.89878" lon="6.80374">
        <ele>1013</ele>
        <time>2026-08-04T04:08:54.278Z</time>
      </trkpt>
      <trkpt lat="45.89878" lon="6.80376">
        <ele>1013</ele>
        <time>2026-08-04T04:08:55.278Z</time>
      </trkpt>
      <trkpt lat="45.89879" lon="6.80377">
        <ele>1014</ele>
        <time>2026-08-04T04:08:56.278Z</time>
      </trkpt>
      <trkpt lat="45.89881" lon="6.80379">
        <ele>1014</ele>
        <time>2026-08-04T04:08:57.278Z</time>
      </trkpt>
      <trkpt lat="45.89882" lon="6.8038">
        <ele>1014</ele>
        <time>2026-08-04T04:08:58.278Z</time>
      </trkpt>
      <trkpt lat="45.89884" lon="6.80381">
        <ele>1014</ele>
        <time>2026-08-04T04:08:59.278Z</time>
      </trkpt>
      <trkpt lat="45.89886" lon="6.80382">
        <ele>1013</ele>
        <time>2026-08-04T04:09:00.278Z</time>
      </trkpt>
      <trkpt lat="45.89887" lon="6.80383">
        <ele>1013</ele>
        <time>2026-08-04T04:09:01.278Z</time>
      </trkpt>
      <trkpt lat="45.89889" lon="6.80386">
        <ele>1012</ele>
        <time>2026-08-04T04:09:02.278Z</time>
      </trkpt>
      <trkpt lat="45.8989" lon="6.80388">
        <ele>1012</ele>
        <time>2026-08-04T04:09:03.278Z</time>
      </trkpt>
      <trkpt lat="45.89892" lon="6.80391">
        <ele>1012</ele>
        <time>2026-08-04T04:09:04.278Z</time>
      </trkpt>
      <trkpt lat="45.89893" lon="6.80395">
        <ele>1011</ele>
        <time>2026-08-04T04:09:05.278Z</time>
      </trkpt>
      <trkpt lat="45.89894" lon="6.80399">
        <ele>1011</ele>
        <time>2026-08-04T04:09:06.278Z</time>
      </trkpt>
      <trkpt lat="45.89895" lon="6.80402">
        <ele>1011</ele>
        <time>2026-08-04T04:09:07.278Z</time>
      </trkpt>
      <trkpt lat="45.89896" lon="6.80404">
        <ele>1011</ele>
        <time>2026-08-04T04:09:08.278Z</time>
      </trkpt>
      <trkpt lat="45.89896" lon="6.80407">
        <ele>1011</ele>
        <time>2026-08-04T04:09:09.278Z</time>
      </trkpt>
      <trkpt lat="45.89897" lon="6.80409">
        <ele>1011</ele>
        <time>2026-08-04T04:09:10.278Z</time>
      </trkpt>
      <trkpt lat="45.89898" lon="6.80412">
        <ele>1011</ele>
        <time>2026-08-04T04:09:11.278Z</time>
      </trkpt>
      <trkpt lat="45.89898" lon="6.80414">
        <ele>1010</ele>
        <time>2026-08-04T04:09:12.278Z</time>
      </trkpt>
      <trkpt lat="45.89899" lon="6.80417">
        <ele>1010</ele>
        <time>2026-08-04T04:09:13.278Z</time>
      </trkpt>
      <trkpt lat="45.899" lon="6.80419">
        <ele>1009</ele>
        <time>2026-08-04T04:09:14.278Z</time>
      </trkpt>
      <trkpt lat="45.89901" lon="6.80422">
        <ele>1008</ele>
        <time>2026-08-04T04:09:15.278Z</time>
      </trkpt>
      <trkpt lat="45.89901" lon="6.80424">
        <ele>1008</ele>
        <time>2026-08-04T04:09:16.278Z</time>
      </trkpt>
      <trkpt lat="45.89902" lon="6.80427">
        <ele>1008</ele>
        <time>2026-08-04T04:09:17.278Z</time>
      </trkpt>
      <trkpt lat="45.89903" lon="6.8043">
        <ele>1008</ele>
        <time>2026-08-04T04:09:18.278Z</time>
      </trkpt>
      <trkpt lat="45.89903" lon="6.80432">
        <ele>1008</ele>
        <time>2026-08-04T04:09:19.278Z</time>
      </trkpt>
      <trkpt lat="45.89905" lon="6.80434">
        <ele>1008</ele>
        <time>2026-08-04T04:09:20.278Z</time>
      </trkpt>
      <trkpt lat="45.89906" lon="6.80436">
        <ele>1008</ele>
        <time>2026-08-04T04:09:21.278Z</time>
      </trkpt>
      <trkpt lat="45.89907" lon="6.80438">
        <ele>1009</ele>
        <time>2026-08-04T04:09:22.278Z</time>
      </trkpt>
      <trkpt lat="45.89908" lon="6.8044">
        <ele>1009</ele>
        <time>2026-08-04T04:09:23.278Z</time>
      </trkpt>
      <trkpt lat="45.89909" lon="6.80443">
        <ele>1009</ele>
        <time>2026-08-04T04:09:24.278Z</time>
      </trkpt>
      <trkpt lat="45.8991" lon="6.80445">
        <ele>1009</ele>
        <time>2026-08-04T04:09:25.278Z</time>
      </trkpt>
      <trkpt lat="45.89912" lon="6.80446">
        <ele>1009</ele>
        <time>2026-08-04T04:09:26.278Z</time>
      </trkpt>
      <trkpt lat="45.89913" lon="6.80447">
        <ele>1009</ele>
        <time>2026-08-04T04:09:27.278Z</time>
      </trkpt>
      <trkpt lat="45.89915" lon="6.80448">
        <ele>1009</ele>
        <time>2026-08-04T04:09:28.278Z</time>
      </trkpt>
      <trkpt lat="45.89916" lon="6.80449">
        <ele>1009</ele>
        <time>2026-08-04T04:09:29.278Z</time>
      </trkpt>
      <trkpt lat="45.89917" lon="6.80451">
        <ele>1010</ele>
        <time>2026-08-04T04:09:30.278Z</time>
      </trkpt>
      <trkpt lat="45.89918" lon="6.80453">
        <ele>1010</ele>
        <time>2026-08-04T04:09:31.278Z</time>
      </trkpt>
      <trkpt lat="45.89919" lon="6.80454">
        <ele>1010</ele>
        <time>2026-08-04T04:09:32.278Z</time>
      </trkpt>
      <trkpt lat="45.89921" lon="6.80456">
        <ele>1010</ele>
        <time>2026-08-04T04:09:33.278Z</time>
      </trkpt>
      <trkpt lat="45.89922" lon="6.80458">
        <ele>1010</ele>
        <time>2026-08-04T04:09:34.278Z</time>
      </trkpt>
      <trkpt lat="45.89923" lon="6.8046">
        <ele>1010</ele>
        <time>2026-08-04T04:09:35.278Z</time>
      </trkpt>
      <trkpt lat="45.89924" lon="6.80461">
        <ele>1010</ele>
        <time>2026-08-04T04:09:36.278Z</time>
      </trkpt>
      <trkpt lat="45.89926" lon="6.80462">
        <ele>1010</ele>
        <time>2026-08-04T04:09:37.278Z</time>
      </trkpt>
      <trkpt lat="45.89928" lon="6.80462">
        <ele>1010</ele>
        <time>2026-08-04T04:09:38.278Z</time>
      </trkpt>
      <trkpt lat="45.89929" lon="6.80463">
        <ele>1010</ele>
        <time>2026-08-04T04:09:39.278Z</time>
      </trkpt>
      <trkpt lat="45.89931" lon="6.80463">
        <ele>1009</ele>
        <time>2026-08-04T04:09:40.278Z</time>
      </trkpt>
      <trkpt lat="45.89932" lon="6.80464">
        <ele>1009</ele>
        <time>2026-08-04T04:09:41.278Z</time>
      </trkpt>
      <trkpt lat="45.89933" lon="6.80465">
        <ele>1009</ele>
        <time>2026-08-04T04:09:42.278Z</time>
      </trkpt>
      <trkpt lat="45.89934" lon="6.80465">
        <ele>1008</ele>
        <time>2026-08-04T04:09:43.278Z</time>
      </trkpt>
      <trkpt lat="45.89936" lon="6.80466">
        <ele>1008</ele>
        <time>2026-08-04T04:09:44.278Z</time>
      </trkpt>
      <trkpt lat="45.89937" lon="6.80468">
        <ele>1008</ele>
        <time>2026-08-04T04:09:45.278Z</time>
      </trkpt>
      <trkpt lat="45.89938" lon="6.8047">
        <ele>1008</ele>
        <time>2026-08-04T04:09:46.278Z</time>
      </trkpt>
      <trkpt lat="45.89939" lon="6.80472">
        <ele>1008</ele>
        <time>2026-08-04T04:09:47.278Z</time>
      </trkpt>
      <trkpt lat="45.8994" lon="6.80473">
        <ele>1008</ele>
        <time>2026-08-04T04:09:48.278Z</time>
      </trkpt>
      <trkpt lat="45.89942" lon="6.80475">
        <ele>1008</ele>
        <time>2026-08-04T04:09:49.278Z</time>
      </trkpt>
      <trkpt lat="45.89943" lon="6.80476">
        <ele>1008</ele>
        <time>2026-08-04T04:09:50.278Z</time>
      </trkpt>
      <trkpt lat="45.89944" lon="6.80477">
        <ele>1008</ele>
        <time>2026-08-04T04:09:51.278Z</time>
      </trkpt>
      <trkpt lat="45.89945" lon="6.80477">
        <ele>1008</ele>
        <time>2026-08-04T04:09:52.278Z</time>
      </trkpt>
      <trkpt lat="45.89946" lon="6.80479">
        <ele>1008</ele>
        <time>2026-08-04T04:09:53.278Z</time>
      </trkpt>
      <trkpt lat="45.89948" lon="6.8048">
        <ele>1008</ele>
        <time>2026-08-04T04:09:54.278Z</time>
      </trkpt>
      <trkpt lat="45.89949" lon="6.80482">
        <ele>1009</ele>
        <time>2026-08-04T04:09:55.278Z</time>
      </trkpt>
      <trkpt lat="45.8995" lon="6.80484">
        <ele>1009</ele>
        <time>2026-08-04T04:09:56.278Z</time>
      </trkpt>
      <trkpt lat="45.89952" lon="6.80486">
        <ele>1009</ele>
        <time>2026-08-04T04:09:57.278Z</time>
      </trkpt>
      <trkpt lat="45.89953" lon="6.80488">
        <ele>1009</ele>
        <time>2026-08-04T04:09:58.278Z</time>
      </trkpt>
      <trkpt lat="45.89954" lon="6.80489">
        <ele>1009</ele>
        <time>2026-08-04T04:09:59.278Z</time>
      </trkpt>
      <trkpt lat="45.89956" lon="6.80492">
        <ele>1009</ele>
        <time>2026-08-04T04:10:00.278Z</time>
      </trkpt>
      <trkpt lat="45.89957" lon="6.80493">
        <ele>1009</ele>
        <time>2026-08-04T04:10:01.278Z</time>
      </trkpt>
      <trkpt lat="45.89958" lon="6.80496">
        <ele>1009</ele>
        <time>2026-08-04T04:10:02.278Z</time>
      </trkpt>
      <trkpt lat="45.89959" lon="6.80498">
        <ele>1009</ele>
        <time>2026-08-04T04:10:03.278Z</time>
      </trkpt>
      <trkpt lat="45.8996" lon="6.80499">
        <ele>1009</ele>
        <time>2026-08-04T04:10:04.278Z</time>
      </trkpt>
      <trkpt lat="45.89962" lon="6.80501">
        <ele>1008</ele>
        <time>2026-08-04T04:10:05.278Z</time>
      </trkpt>
      <trkpt lat="45.89962" lon="6.80502">
        <ele>1008</ele>
        <time>2026-08-04T04:10:06.278Z</time>
      </trkpt>
      <trkpt lat="45.89964" lon="6.80505">
        <ele>1009</ele>
        <time>2026-08-04T04:10:07.278Z</time>
      </trkpt>
      <trkpt lat="45.89965" lon="6.80506">
        <ele>1009</ele>
        <time>2026-08-04T04:10:08.278Z</time>
      </trkpt>
      <trkpt lat="45.89966" lon="6.80508">
        <ele>1010</ele>
        <time>2026-08-04T04:10:09.278Z</time>
      </trkpt>
      <trkpt lat="45.89967" lon="6.8051">
        <ele>1010</ele>
        <time>2026-08-04T04:10:10.278Z</time>
      </trkpt>
      <trkpt lat="45.89969" lon="6.80512">
        <ele>1010</ele>
        <time>2026-08-04T04:10:11.278Z</time>
      </trkpt>
      <trkpt lat="45.8997" lon="6.80514">
        <ele>1010</ele>
        <time>2026-08-04T04:10:12.278Z</time>
      </trkpt>
      <trkpt lat="45.89971" lon="6.80517">
        <ele>1010</ele>
        <time>2026-08-04T04:10:13.278Z</time>
      </trkpt>
      <trkpt lat="45.89972" lon="6.80519">
        <ele>1009</ele>
        <time>2026-08-04T04:10:14.278Z</time>
      </trkpt>
      <trkpt lat="45.89972" lon="6.8052">
        <ele>1009</ele>
        <time>2026-08-04T04:10:15.278Z</time>
      </trkpt>
      <trkpt lat="45.89973" lon="6.80522">
        <ele>1009</ele>
        <time>2026-08-04T04:10:16.278Z</time>
      </trkpt>
      <trkpt lat="45.89974" lon="6.80524">
        <ele>1009</ele>
        <time>2026-08-04T04:10:17.278Z</time>
      </trkpt>
      <trkpt lat="45.89975" lon="6.80526">
        <ele>1009</ele>
        <time>2026-08-04T04:10:18.278Z</time>
      </trkpt>
      <trkpt lat="45.89976" lon="6.80528">
        <ele>1009</ele>
        <time>2026-08-04T04:10:19.278Z</time>
      </trkpt>
      <trkpt lat="45.89978" lon="6.8053">
        <ele>1009</ele>
        <time>2026-08-04T04:10:20.278Z</time>
      </trkpt>
      <trkpt lat="45.89979" lon="6.80532">
        <ele>1009</ele>
        <time>2026-08-04T04:10:21.278Z</time>
      </trkpt>
      <trkpt lat="45.8998" lon="6.80533">
        <ele>1010</ele>
        <time>2026-08-04T04:10:22.278Z</time>
      </trkpt>
      <trkpt lat="45.89982" lon="6.80534">
        <ele>1010</ele>
        <time>2026-08-04T04:10:23.278Z</time>
      </trkpt>
      <trkpt lat="45.89983" lon="6.80536">
        <ele>1010</ele>
        <time>2026-08-04T04:10:24.278Z</time>
      </trkpt>
      <trkpt lat="45.89984" lon="6.80538">
        <ele>1010</ele>
        <time>2026-08-04T04:10:25.278Z</time>
      </trkpt>
      <trkpt lat="45.89986" lon="6.80539">
        <ele>1010</ele>
        <time>2026-08-04T04:10:26.278Z</time>
      </trkpt>
      <trkpt lat="45.89987" lon="6.80541">
        <ele>1010</ele>
        <time>2026-08-04T04:10:27.278Z</time>
      </trkpt>
      <trkpt lat="45.89989" lon="6.80543">
        <ele>1010</ele>
        <time>2026-08-04T04:10:28.278Z</time>
      </trkpt>
      <trkpt lat="45.8999" lon="6.80544">
        <ele>1010</ele>
        <time>2026-08-04T04:10:29.278Z</time>
      </trkpt>
      <trkpt lat="45.89991" lon="6.80547">
        <ele>1010</ele>
        <time>2026-08-04T04:10:30.278Z</time>
      </trkpt>
      <trkpt lat="45.89993" lon="6.80549">
        <ele>1010</ele>
        <time>2026-08-04T04:10:31.278Z</time>
      </trkpt>
      <trkpt lat="45.89993" lon="6.80552">
        <ele>1010</ele>
        <time>2026-08-04T04:10:32.278Z</time>
      </trkpt>
      <trkpt lat="45.89994" lon="6.80555">
        <ele>1010</ele>
        <time>2026-08-04T04:10:33.278Z</time>
      </trkpt>
      <trkpt lat="45.89995" lon="6.80557">
        <ele>1010</ele>
        <time>2026-08-04T04:10:34.278Z</time>
      </trkpt>
      <trkpt lat="45.89995" lon="6.80559">
        <ele>1010</ele>
        <time>2026-08-04T04:10:35.278Z</time>
      </trkpt>
      <trkpt lat="45.89996" lon="6.8056">
        <ele>1010</ele>
        <time>2026-08-04T04:10:36.278Z</time>
      </trkpt>
      <trkpt lat="45.89997" lon="6.80562">
        <ele>1010</ele>
        <time>2026-08-04T04:10:37.278Z</time>
      </trkpt>
      <trkpt lat="45.89999" lon="6.80564">
        <ele>1010</ele>
        <time>2026-08-04T04:10:38.278Z</time>
      </trkpt>
      <trkpt lat="45.90001" lon="6.80567">
        <ele>1011</ele>
        <time>2026-08-04T04:10:39.278Z</time>
      </trkpt>
      <trkpt lat="45.90003" lon="6.8057">
        <ele>1011</ele>
        <time>2026-08-04T04:10:40.278Z</time>
      </trkpt>
      <trkpt lat="45.90004" lon="6.80571">
        <ele>1011</ele>
        <time>2026-08-04T04:10:41.278Z</time>
      </trkpt>
      <trkpt lat="45.90006" lon="6.80573">
        <ele>1012</ele>
        <time>2026-08-04T04:10:42.278Z</time>
      </trkpt>
      <trkpt lat="45.90007" lon="6.80575">
        <ele>1012</ele>
        <time>2026-08-04T04:10:43.278Z</time>
      </trkpt>
      <trkpt lat="45.90008" lon="6.80577">
        <ele>1013</ele>
        <time>2026-08-04T04:10:44.278Z</time>
      </trkpt>
      <trkpt lat="45.90009" lon="6.8058">
        <ele>1014</ele>
        <time>2026-08-04T04:10:45.278Z</time>
      </trkpt>
      <trkpt lat="45.90011" lon="6.80583">
        <ele>1014</ele>
        <time>2026-08-04T04:10:46.278Z</time>
      </trkpt>
      <trkpt lat="45.90012" lon="6.80586">
        <ele>1015</ele>
        <time>2026-08-04T04:10:47.278Z</time>
      </trkpt>
      <trkpt lat="45.90013" lon="6.80589">
        <ele>1015</ele>
        <time>2026-08-04T04:10:48.278Z</time>
      </trkpt>
      <trkpt lat="45.90013" lon="6.80592">
        <ele>1016</ele>
        <time>2026-08-04T04:10:49.278Z</time>
      </trkpt>
      <trkpt lat="45.90013" lon="6.80595">
        <ele>1017</ele>
        <time>2026-08-04T04:10:50.278Z</time>
      </trkpt>
      <trkpt lat="45.90014" lon="6.80598">
        <ele>1018</ele>
        <time>2026-08-04T04:10:51.278Z</time>
      </trkpt>
      <trkpt lat="45.90014" lon="6.80601">
        <ele>1019</ele>
        <time>2026-08-04T04:10:52.278Z</time>
      </trkpt>
      <trkpt lat="45.90014" lon="6.80604">
        <ele>1020</ele>
        <time>2026-08-04T04:10:53.278Z</time>
      </trkpt>
      <trkpt lat="45.90015" lon="6.80607">
        <ele>1020</ele>
        <time>2026-08-04T04:10:54.278Z</time>
      </trkpt>
      <trkpt lat="45.90016" lon="6.80609">
        <ele>1021</ele>
        <time>2026-08-04T04:10:55.278Z</time>
      </trkpt>
      <trkpt lat="45.90016" lon="6.80612">
        <ele>1021</ele>
        <time>2026-08-04T04:10:56.278Z</time>
      </trkpt>
      <trkpt lat="45.90017" lon="6.80614">
        <ele>1021</ele>
        <time>2026-08-04T04:10:57.278Z</time>
      </trkpt>
      <trkpt lat="45.90018" lon="6.80616">
        <ele>1022</ele>
        <time>2026-08-04T04:10:58.278Z</time>
      </trkpt>
      <trkpt lat="45.90018" lon="6.80618">
        <ele>1023</ele>
        <time>2026-08-04T04:10:59.278Z</time>
      </trkpt>
      <trkpt lat="45.9002" lon="6.8062">
        <ele>1023</ele>
        <time>2026-08-04T04:11:00.278Z</time>
      </trkpt>
      <trkpt lat="45.90021" lon="6.80622">
        <ele>1024</ele>
        <time>2026-08-04T04:11:01.278Z</time>
      </trkpt>
      <trkpt lat="45.90022" lon="6.80624">
        <ele>1024</ele>
        <time>2026-08-04T04:11:02.278Z</time>
      </trkpt>
      <trkpt lat="45.90022" lon="6.80626">
        <ele>1025</ele>
        <time>2026-08-04T04:11:03.278Z</time>
      </trkpt>
      <trkpt lat="45.90023" lon="6.80628">
        <ele>1026</ele>
        <time>2026-08-04T04:11:04.278Z</time>
      </trkpt>
      <trkpt lat="45.90024" lon="6.8063">
        <ele>1026</ele>
        <time>2026-08-04T04:11:05.278Z</time>
      </trkpt>
      <trkpt lat="45.90024" lon="6.80632">
        <ele>1027</ele>
        <time>2026-08-04T04:11:06.278Z</time>
      </trkpt>
      <trkpt lat="45.90025" lon="6.80635">
        <ele>1027</ele>
        <time>2026-08-04T04:11:07.278Z</time>
      </trkpt>
      <trkpt lat="45.90026" lon="6.80637">
        <ele>1028</ele>
        <time>2026-08-04T04:11:08.278Z</time>
      </trkpt>
      <trkpt lat="45.90025" lon="6.8064">
        <ele>1028</ele>
        <time>2026-08-04T04:11:09.278Z</time>
      </trkpt>
      <trkpt lat="45.90025" lon="6.80643">
        <ele>1028</ele>
        <time>2026-08-04T04:11:10.278Z</time>
      </trkpt>
      <trkpt lat="45.90025" lon="6.80645">
        <ele>1028</ele>
        <time>2026-08-04T04:11:11.278Z</time>
      </trkpt>
      <trkpt lat="45.90025" lon="6.80647">
        <ele>1028</ele>
        <time>2026-08-04T04:11:12.279Z</time>
      </trkpt>
      <trkpt lat="45.90026" lon="6.80649">
        <ele>1028</ele>
        <time>2026-08-04T04:11:13.278Z</time>
      </trkpt>
      <trkpt lat="45.90027" lon="6.80652">
        <ele>1028</ele>
        <time>2026-08-04T04:11:14.278Z</time>
      </trkpt>
      <trkpt lat="45.90027" lon="6.80655">
        <ele>1028</ele>
        <time>2026-08-04T04:11:15.278Z</time>
      </trkpt>
      <trkpt lat="45.90028" lon="6.80656">
        <ele>1028</ele>
        <time>2026-08-04T04:11:16.278Z</time>
      </trkpt>
      <trkpt lat="45.90029" lon="6.80658">
        <ele>1027</ele>
        <time>2026-08-04T04:11:17.278Z</time>
      </trkpt>
      <trkpt lat="45.90029" lon="6.8066">
        <ele>1027</ele>
        <time>2026-08-04T04:11:18.278Z</time>
      </trkpt>
      <trkpt lat="45.90031" lon="6.80662">
        <ele>1027</ele>
        <time>2026-08-04T04:11:19.278Z</time>
      </trkpt>
      <trkpt lat="45.90032" lon="6.80664">
        <ele>1026</ele>
        <time>2026-08-04T04:11:20.278Z</time>
      </trkpt>
      <trkpt lat="45.90034" lon="6.80666">
        <ele>1025</ele>
        <time>2026-08-04T04:11:21.278Z</time>
      </trkpt>
      <trkpt lat="45.90035" lon="6.80667">
        <ele>1025</ele>
        <time>2026-08-04T04:11:22.278Z</time>
      </trkpt>
      <trkpt lat="45.90035" lon="6.80669">
        <ele>1024</ele>
        <time>2026-08-04T04:11:23.278Z</time>
      </trkpt>
      <trkpt lat="45.90035" lon="6.80671">
        <ele>1024</ele>
        <time>2026-08-04T04:11:24.278Z</time>
      </trkpt>
      <trkpt lat="45.90036" lon="6.80673">
        <ele>1023</ele>
        <time>2026-08-04T04:11:25.278Z</time>
      </trkpt>
      <trkpt lat="45.90036" lon="6.80675">
        <ele>1022</ele>
        <time>2026-08-04T04:11:26.278Z</time>
      </trkpt>
      <trkpt lat="45.90037" lon="6.80676">
        <ele>1022</ele>
        <time>2026-08-04T04:11:27.278Z</time>
      </trkpt>
      <trkpt lat="45.90038" lon="6.80678">
        <ele>1021</ele>
        <time>2026-08-04T04:11:28.278Z</time>
      </trkpt>
      <trkpt lat="45.90039" lon="6.80679">
        <ele>1021</ele>
        <time>2026-08-04T04:11:29.278Z</time>
      </trkpt>
      <trkpt lat="45.90039" lon="6.8068">
        <ele>1020</ele>
        <time>2026-08-04T04:11:30.278Z</time>
      </trkpt>
      <trkpt lat="45.9004" lon="6.80682">
        <ele>1020</ele>
        <time>2026-08-04T04:11:31.278Z</time>
      </trkpt>
      <trkpt lat="45.90041" lon="6.80683">
        <ele>1020</ele>
        <time>2026-08-04T04:11:32.278Z</time>
      </trkpt>
      <trkpt lat="45.90042" lon="6.80684">
        <ele>1019</ele>
        <time>2026-08-04T04:11:33.278Z</time>
      </trkpt>
      <trkpt lat="45.90043" lon="6.80685">
        <ele>1019</ele>
        <time>2026-08-04T04:11:34.278Z</time>
      </trkpt>
      <trkpt lat="45.90043" lon="6.80686">
        <ele>1018</ele>
        <time>2026-08-04T04:11:35.278Z</time>
      </trkpt>
      <trkpt lat="45.90044" lon="6.80688">
        <ele>1018</ele>
        <time>2026-08-04T04:11:36.278Z</time>
      </trkpt>
      <trkpt lat="45.90045" lon="6.8069">
        <ele>1018</ele>
        <time>2026-08-04T04:11:37.278Z</time>
      </trkpt>
      <trkpt lat="45.90046" lon="6.80692">
        <ele>1017</ele>
        <time>2026-08-04T04:11:38.278Z</time>
      </trkpt>
      <trkpt lat="45.90047" lon="6.80694">
        <ele>1017</ele>
        <time>2026-08-04T04:11:39.278Z</time>
      </trkpt>
      <trkpt lat="45.90048" lon="6.80696">
        <ele>1017</ele>
        <time>2026-08-04T04:11:40.278Z</time>
      </trkpt>
      <trkpt lat="45.90049" lon="6.80698">
        <ele>1017</ele>
        <time>2026-08-04T04:11:41.278Z</time>
      </trkpt>
      <trkpt lat="45.9005" lon="6.807">
        <ele>1016</ele>
        <time>2026-08-04T04:11:42.278Z</time>
      </trkpt>
      <trkpt lat="45.90051" lon="6.80701">
        <ele>1016</ele>
        <time>2026-08-04T04:11:43.278Z</time>
      </trkpt>
      <trkpt lat="45.90052" lon="6.80702">
        <ele>1016</ele>
        <time>2026-08-04T04:11:44.278Z</time>
      </trkpt>
      <trkpt lat="45.90053" lon="6.80705">
        <ele>1016</ele>
        <time>2026-08-04T04:11:45.278Z</time>
      </trkpt>
      <trkpt lat="45.90054" lon="6.80706">
        <ele>1016</ele>
        <time>2026-08-04T04:11:46.278Z</time>
      </trkpt>
      <trkpt lat="45.90055" lon="6.80708">
        <ele>1016</ele>
        <time>2026-08-04T04:11:47.278Z</time>
      </trkpt>
      <trkpt lat="45.90056" lon="6.80712">
        <ele>1016</ele>
        <time>2026-08-04T04:11:48.278Z</time>
      </trkpt>
      <trkpt lat="45.90056" lon="6.80714">
        <ele>1016</ele>
        <time>2026-08-04T04:11:49.278Z</time>
      </trkpt>
      <trkpt lat="45.90058" lon="6.80716">
        <ele>1016</ele>
        <time>2026-08-04T04:11:50.278Z</time>
      </trkpt>
      <trkpt lat="45.90059" lon="6.80719">
        <ele>1017</ele>
        <time>2026-08-04T04:11:51.278Z</time>
      </trkpt>
      <trkpt lat="45.90061" lon="6.80721">
        <ele>1017</ele>
        <time>2026-08-04T04:11:52.278Z</time>
      </trkpt>
      <trkpt lat="45.90062" lon="6.80722">
        <ele>1017</ele>
        <time>2026-08-04T04:11:53.278Z</time>
      </trkpt>
      <trkpt lat="45.90063" lon="6.80725">
        <ele>1018</ele>
        <time>2026-08-04T04:11:54.278Z</time>
      </trkpt>
      <trkpt lat="45.90064" lon="6.80727">
        <ele>1018</ele>
        <time>2026-08-04T04:11:55.278Z</time>
      </trkpt>
      <trkpt lat="45.90065" lon="6.8073">
        <ele>1019</ele>
        <time>2026-08-04T04:11:56.278Z</time>
      </trkpt>
      <trkpt lat="45.90065" lon="6.80733">
        <ele>1020</ele>
        <time>2026-08-04T04:11:57.278Z</time>
      </trkpt>
      <trkpt lat="45.90065" lon="6.80736">
        <ele>1021</ele>
        <time>2026-08-04T04:11:58.278Z</time>
      </trkpt>
      <trkpt lat="45.90066" lon="6.80738">
        <ele>1021</ele>
        <time>2026-08-04T04:11:59.278Z</time>
      </trkpt>
      <trkpt lat="45.90067" lon="6.80741">
        <ele>1022</ele>
        <time>2026-08-04T04:12:00.278Z</time>
      </trkpt>
      <trkpt lat="45.90068" lon="6.80744">
        <ele>1023</ele>
        <time>2026-08-04T04:12:01.278Z</time>
      </trkpt>
      <trkpt lat="45.90068" lon="6.80747">
        <ele>1024</ele>
        <time>2026-08-04T04:12:02.278Z</time>
      </trkpt>
      <trkpt lat="45.90069" lon="6.8075">
        <ele>1025</ele>
        <time>2026-08-04T04:12:03.278Z</time>
      </trkpt>
      <trkpt lat="45.9007" lon="6.80752">
        <ele>1025</ele>
        <time>2026-08-04T04:12:04.278Z</time>
      </trkpt>
      <trkpt lat="45.9007" lon="6.80755">
        <ele>1026</ele>
        <time>2026-08-04T04:12:05.278Z</time>
      </trkpt>
      <trkpt lat="45.90071" lon="6.80756">
        <ele>1026</ele>
        <time>2026-08-04T04:12:06.278Z</time>
      </trkpt>
      <trkpt lat="45.90071" lon="6.80759">
        <ele>1027</ele>
        <time>2026-08-04T04:12:07.278Z</time>
      </trkpt>
      <trkpt lat="45.90072" lon="6.80761">
        <ele>1027</ele>
        <time>2026-08-04T04:12:08.278Z</time>
      </trkpt>
      <trkpt lat="45.90072" lon="6.80764">
        <ele>1027</ele>
        <time>2026-08-04T04:12:09.278Z</time>
      </trkpt>
      <trkpt lat="45.90073" lon="6.80766">
        <ele>1028</ele>
        <time>2026-08-04T04:12:10.278Z</time>
      </trkpt>
      <trkpt lat="45.90074" lon="6.80769">
        <ele>1028</ele>
        <time>2026-08-04T04:12:11.278Z</time>
      </trkpt>
      <trkpt lat="45.90074" lon="6.80773">
        <ele>1028</ele>
        <time>2026-08-04T04:12:12.278Z</time>
      </trkpt>
      <trkpt lat="45.90074" lon="6.80776">
        <ele>1029</ele>
        <time>2026-08-04T04:12:13.278Z</time>
      </trkpt>
      <trkpt lat="45.90075" lon="6.8078">
        <ele>1029</ele>
        <time>2026-08-04T04:12:14.278Z</time>
      </trkpt>
      <trkpt lat="45.90076" lon="6.80783">
        <ele>1029</ele>
        <time>2026-08-04T04:12:15.278Z</time>
      </trkpt>
      <trkpt lat="45.90076" lon="6.80785">
        <ele>1030</ele>
        <time>2026-08-04T04:12:16.278Z</time>
      </trkpt>
      <trkpt lat="45.90076" lon="6.80787">
        <ele>1030</ele>
        <time>2026-08-04T04:12:17.278Z</time>
      </trkpt>
      <trkpt lat="45.90076" lon="6.80789">
        <ele>1030</ele>
        <time>2026-08-04T04:12:18.278Z</time>
      </trkpt>
      <trkpt lat="45.90077" lon="6.8079">
        <ele>1030</ele>
        <time>2026-08-04T04:12:19.278Z</time>
      </trkpt>
      <trkpt lat="45.90078" lon="6.80792">
        <ele>1030</ele>
        <time>2026-08-04T04:12:20.278Z</time>
      </trkpt>
      <trkpt lat="45.90079" lon="6.80794">
        <ele>1031</ele>
        <time>2026-08-04T04:12:21.278Z</time>
      </trkpt>
      <trkpt lat="45.90079" lon="6.80795">
        <ele>1031</ele>
        <time>2026-08-04T04:12:22.278Z</time>
      </trkpt>
      <trkpt lat="45.9008" lon="6.80797">
        <ele>1031</ele>
        <time>2026-08-04T04:12:23.278Z</time>
      </trkpt>
      <trkpt lat="45.9008" lon="6.80799">
        <ele>1031</ele>
        <time>2026-08-04T04:12:24.278Z</time>
      </trkpt>
      <trkpt lat="45.90081" lon="6.80801">
        <ele>1031</ele>
        <time>2026-08-04T04:12:25.278Z</time>
      </trkpt>
      <trkpt lat="45.90082" lon="6.80803">
        <ele>1031</ele>
        <time>2026-08-04T04:12:26.278Z</time>
      </trkpt>
      <trkpt lat="45.90084" lon="6.80806">
        <ele>1031</ele>
        <time>2026-08-04T04:12:27.278Z</time>
      </trkpt>
      <trkpt lat="45.90086" lon="6.80809">
        <ele>1031</ele>
        <time>2026-08-04T04:12:28.278Z</time>
      </trkpt>
      <trkpt lat="45.90087" lon="6.8081">
        <ele>1031</ele>
        <time>2026-08-04T04:12:29.278Z</time>
      </trkpt>
      <trkpt lat="45.90087" lon="6.80812">
        <ele>1032</ele>
        <time>2026-08-04T04:12:30.278Z</time>
      </trkpt>
      <trkpt lat="45.90089" lon="6.80813">
        <ele>1032</ele>
        <time>2026-08-04T04:12:31.278Z</time>
      </trkpt>
      <trkpt lat="45.9009" lon="6.80815">
        <ele>1032</ele>
        <time>2026-08-04T04:12:32.278Z</time>
      </trkpt>
      <trkpt lat="45.90091" lon="6.80817">
        <ele>1033</ele>
        <time>2026-08-04T04:12:33.278Z</time>
      </trkpt>
      <trkpt lat="45.90092" lon="6.80819">
        <ele>1033</ele>
        <time>2026-08-04T04:12:34.278Z</time>
      </trkpt>
      <trkpt lat="45.90093" lon="6.80822">
        <ele>1033</ele>
        <time>2026-08-04T04:12:35.278Z</time>
      </trkpt>
      <trkpt lat="45.90094" lon="6.80825">
        <ele>1033</ele>
        <time>2026-08-04T04:12:36.278Z</time>
      </trkpt>
      <trkpt lat="45.90095" lon="6.80828">
        <ele>1033</ele>
        <time>2026-08-04T04:12:37.278Z</time>
      </trkpt>
      <trkpt lat="45.90095" lon="6.8083">
        <ele>1033</ele>
        <time>2026-08-04T04:12:38.278Z</time>
      </trkpt>
      <trkpt lat="45.90096" lon="6.80833">
        <ele>1034</ele>
        <time>2026-08-04T04:12:39.278Z</time>
      </trkpt>
      <trkpt lat="45.90096" lon="6.80835">
        <ele>1034</ele>
        <time>2026-08-04T04:12:40.278Z</time>
      </trkpt>
      <trkpt lat="45.90097" lon="6.80838">
        <ele>1034</ele>
        <time>2026-08-04T04:12:41.278Z</time>
      </trkpt>
      <trkpt lat="45.90097" lon="6.80841">
        <ele>1035</ele>
        <time>2026-08-04T04:12:42.278Z</time>
      </trkpt>
      <trkpt lat="45.90098" lon="6.80843">
        <ele>1035</ele>
        <time>2026-08-04T04:12:43.278Z</time>
      </trkpt>
      <trkpt lat="45.90098" lon="6.80846">
        <ele>1036</ele>
        <time>2026-08-04T04:12:44.278Z</time>
      </trkpt>
      <trkpt lat="45.90098" lon="6.80847">
        <ele>1036</ele>
        <time>2026-08-04T04:12:45.278Z</time>
      </trkpt>
      <trkpt lat="45.90098" lon="6.80849">
        <ele>1036</ele>
        <time>2026-08-04T04:12:46.278Z</time>
      </trkpt>
      <trkpt lat="45.90098" lon="6.8085">
        <ele>1037</ele>
        <time>2026-08-04T04:12:47.278Z</time>
      </trkpt>
      <trkpt lat="45.90098" lon="6.80852">
        <ele>1037</ele>
        <time>2026-08-04T04:12:48.278Z</time>
      </trkpt>
      <trkpt lat="45.90098" lon="6.80853">
        <ele>1037</ele>
        <time>2026-08-04T04:12:49.278Z</time>
      </trkpt>
      <trkpt lat="45.90098" lon="6.80854">
        <ele>1037</ele>
        <time>2026-08-04T04:12:50.278Z</time>
      </trkpt>
      <trkpt lat="45.90098" lon="6.80856">
        <ele>1037</ele>
        <time>2026-08-04T04:12:51.278Z</time>
      </trkpt>
      <trkpt lat="45.90098" lon="6.80858">
        <ele>1037</ele>
        <time>2026-08-04T04:12:52.278Z</time>
      </trkpt>
      <trkpt lat="45.90099" lon="6.8086">
        <ele>1037</ele>
        <time>2026-08-04T04:12:53.278Z</time>
      </trkpt>
      <trkpt lat="45.90099" lon="6.80863">
        <ele>1037</ele>
        <time>2026-08-04T04:12:54.278Z</time>
      </trkpt>
      <trkpt lat="45.90099" lon="6.80864">
        <ele>1037</ele>
        <time>2026-08-04T04:12:55.278Z</time>
      </trkpt>
      <trkpt lat="45.90099" lon="6.80866">
        <ele>1037</ele>
        <time>2026-08-04T04:12:56.278Z</time>
      </trkpt>
      <trkpt lat="45.90099" lon="6.80868">
        <ele>1037</ele>
        <time>2026-08-04T04:12:57.278Z</time>
      </trkpt>
      <trkpt lat="45.90099" lon="6.8087">
        <ele>1037</ele>
        <time>2026-08-04T04:12:58.278Z</time>
      </trkpt>
      <trkpt lat="45.90099" lon="6.80873">
        <ele>1037</ele>
        <time>2026-08-04T04:12:59.278Z</time>
      </trkpt>
      <trkpt lat="45.90099" lon="6.80876">
        <ele>1037</ele>
        <time>2026-08-04T04:13:00.278Z</time>
      </trkpt>
      <trkpt lat="45.901" lon="6.80879">
        <ele>1036</ele>
        <time>2026-08-04T04:13:01.278Z</time>
      </trkpt>
      <trkpt lat="45.901" lon="6.80882">
        <ele>1036</ele>
        <time>2026-08-04T04:13:02.278Z</time>
      </trkpt>
      <trkpt lat="45.901" lon="6.80885">
        <ele>1036</ele>
        <time>2026-08-04T04:13:03.278Z</time>
      </trkpt>
      <trkpt lat="45.90099" lon="6.80888">
        <ele>1036</ele>
        <time>2026-08-04T04:13:04.278Z</time>
      </trkpt>
      <trkpt lat="45.90099" lon="6.8089">
        <ele>1036</ele>
        <time>2026-08-04T04:13:05.278Z</time>
      </trkpt>
      <trkpt lat="45.90099" lon="6.80893">
        <ele>1037</ele>
        <time>2026-08-04T04:13:06.278Z</time>
      </trkpt>
      <trkpt lat="45.90099" lon="6.80895">
        <ele>1037</ele>
        <time>2026-08-04T04:13:07.278Z</time>
      </trkpt>
      <trkpt lat="45.90099" lon="6.80897">
        <ele>1036</ele>
        <time>2026-08-04T04:13:08.278Z</time>
      </trkpt>
      <trkpt lat="45.90099" lon="6.80899">
        <ele>1036</ele>
        <time>2026-08-04T04:13:09.278Z</time>
      </trkpt>
      <trkpt lat="45.901" lon="6.80901">
        <ele>1036</ele>
        <time>2026-08-04T04:13:10.278Z</time>
      </trkpt>
      <trkpt lat="45.901" lon="6.80903">
        <ele>1036</ele>
        <time>2026-08-04T04:13:11.278Z</time>
      </trkpt>
      <trkpt lat="45.90101" lon="6.80905">
        <ele>1036</ele>
        <time>2026-08-04T04:13:12.278Z</time>
      </trkpt>
      <trkpt lat="45.90101" lon="6.80907">
        <ele>1036</ele>
        <time>2026-08-04T04:13:13.278Z</time>
      </trkpt>
      <trkpt lat="45.90101" lon="6.80908">
        <ele>1037</ele>
        <time>2026-08-04T04:13:14.278Z</time>
      </trkpt>
      <trkpt lat="45.90102" lon="6.8091">
        <ele>1037</ele>
        <time>2026-08-04T04:13:15.278Z</time>
      </trkpt>
      <trkpt lat="45.90102" lon="6.80912">
        <ele>1037</ele>
        <time>2026-08-04T04:13:16.278Z</time>
      </trkpt>
      <trkpt lat="45.90102" lon="6.80913">
        <ele>1037</ele>
        <time>2026-08-04T04:13:17.278Z</time>
      </trkpt>
      <trkpt lat="45.90102" lon="6.80914">
        <ele>1038</ele>
        <time>2026-08-04T04:13:18.278Z</time>
      </trkpt>
      <trkpt lat="45.90101" lon="6.80915">
        <ele>1038</ele>
        <time>2026-08-04T04:13:19.278Z</time>
      </trkpt>
      <trkpt lat="45.90101" lon="6.80917">
        <ele>1037</ele>
        <time>2026-08-04T04:13:20.278Z</time>
      </trkpt>
      <trkpt lat="45.90101" lon="6.80917">
        <ele>1037</ele>
        <time>2026-08-04T04:13:21.278Z</time>
      </trkpt>
      <trkpt lat="45.90101" lon="6.80917">
        <ele>1037</ele>
        <time>2026-08-04T04:13:22.278Z</time>
      </trkpt>
      <trkpt lat="45.90101" lon="6.80917">
        <ele>1036</ele>
        <time>2026-08-04T04:13:23.278Z</time>
      </trkpt>
      <trkpt lat="45.901" lon="6.80918">
        <ele>1035</ele>
        <time>2026-08-04T04:13:24.278Z</time>
      </trkpt>
      <trkpt lat="45.901" lon="6.80918">
        <ele>1035</ele>
        <time>2026-08-04T04:13:25.278Z</time>
      </trkpt>
      <trkpt lat="45.90101" lon="6.80918">
        <ele>1034</ele>
        <time>2026-08-04T04:13:26.278Z</time>
      </trkpt>
      <trkpt lat="45.90101" lon="6.80918">
        <ele>1034</ele>
        <time>2026-08-04T04:13:27.278Z</time>
      </trkpt>
      <trkpt lat="45.90102" lon="6.80918">
        <ele>1033</ele>
        <time>2026-08-04T04:13:28.278Z</time>
      </trkpt>
      <trkpt lat="45.90103" lon="6.80918">
        <ele>1033</ele>
        <time>2026-08-04T04:13:29.278Z</time>
      </trkpt>
      <trkpt lat="45.90104" lon="6.80919">
        <ele>1032</ele>
        <time>2026-08-04T04:13:30.278Z</time>
      </trkpt>
      <trkpt lat="45.90105" lon="6.8092">
        <ele>1032</ele>
        <time>2026-08-04T04:13:31.278Z</time>
      </trkpt>
      <trkpt lat="45.90107" lon="6.80922">
        <ele>1032</ele>
        <time>2026-08-04T04:13:32.278Z</time>
      </trkpt>
      <trkpt lat="45.90109" lon="6.80922">
        <ele>1032</ele>
        <time>2026-08-04T04:13:33.278Z</time>
      </trkpt>
      <trkpt lat="45.9011" lon="6.80923">
        <ele>1032</ele>
        <time>2026-08-04T04:13:34.278Z</time>
      </trkpt>
      <trkpt lat="45.90111" lon="6.80923">
        <ele>1033</ele>
        <time>2026-08-04T04:13:35.278Z</time>
      </trkpt>
      <trkpt lat="45.90112" lon="6.80924">
        <ele>1033</ele>
        <time>2026-08-04T04:13:36.278Z</time>
      </trkpt>
      <trkpt lat="45.90113" lon="6.80925">
        <ele>1033</ele>
        <time>2026-08-04T04:13:37.278Z</time>
      </trkpt>
      <trkpt lat="45.90114" lon="6.80927">
        <ele>1033</ele>
        <time>2026-08-04T04:13:38.278Z</time>
      </trkpt>
      <trkpt lat="45.90115" lon="6.80929">
        <ele>1033</ele>
        <time>2026-08-04T04:13:39.278Z</time>
      </trkpt>
      <trkpt lat="45.90116" lon="6.8093">
        <ele>1034</ele>
        <time>2026-08-04T04:13:40.278Z</time>
      </trkpt>
      <trkpt lat="45.90117" lon="6.80932">
        <ele>1034</ele>
        <time>2026-08-04T04:13:41.278Z</time>
      </trkpt>
      <trkpt lat="45.90118" lon="6.80934">
        <ele>1034</ele>
        <time>2026-08-04T04:13:42.278Z</time>
      </trkpt>
      <trkpt lat="45.90119" lon="6.80937">
        <ele>1034</ele>
        <time>2026-08-04T04:13:43.278Z</time>
      </trkpt>
      <trkpt lat="45.9012" lon="6.80939">
        <ele>1035</ele>
        <time>2026-08-04T04:13:44.278Z</time>
      </trkpt>
      <trkpt lat="45.90121" lon="6.80941">
        <ele>1035</ele>
        <time>2026-08-04T04:13:45.278Z</time>
      </trkpt>
      <trkpt lat="45.90122" lon="6.80944">
        <ele>1035</ele>
        <time>2026-08-04T04:13:46.278Z</time>
      </trkpt>
      <trkpt lat="45.90122" lon="6.80946">
        <ele>1035</ele>
        <time>2026-08-04T04:13:47.278Z</time>
      </trkpt>
      <trkpt lat="45.90123" lon="6.80949">
        <ele>1036</ele>
        <time>2026-08-04T04:13:48.278Z</time>
      </trkpt>
      <trkpt lat="45.90123" lon="6.80952">
        <ele>1036</ele>
        <time>2026-08-04T04:13:49.278Z</time>
      </trkpt>
      <trkpt lat="45.90123" lon="6.80954">
        <ele>1036</ele>
        <time>2026-08-04T04:13:50.278Z</time>
      </trkpt>
      <trkpt lat="45.90124" lon="6.80957">
        <ele>1036</ele>
        <time>2026-08-04T04:13:51.278Z</time>
      </trkpt>
      <trkpt lat="45.90125" lon="6.80959">
        <ele>1036</ele>
        <time>2026-08-04T04:13:52.278Z</time>
      </trkpt>
      <trkpt lat="45.90126" lon="6.80962">
        <ele>1036</ele>
        <time>2026-08-04T04:13:53.278Z</time>
      </trkpt>
      <trkpt lat="45.90127" lon="6.80964">
        <ele>1035</ele>
        <time>2026-08-04T04:13:54.278Z</time>
      </trkpt>
      <trkpt lat="45.90128" lon="6.80966">
        <ele>1035</ele>
        <time>2026-08-04T04:13:55.278Z</time>
      </trkpt>
      <trkpt lat="45.90128" lon="6.80967">
        <ele>1035</ele>
        <time>2026-08-04T04:13:56.278Z</time>
      </trkpt>
      <trkpt lat="45.90129" lon="6.80969">
        <ele>1035</ele>
        <time>2026-08-04T04:13:57.278Z</time>
      </trkpt>
      <trkpt lat="45.9013" lon="6.80971">
        <ele>1036</ele>
        <time>2026-08-04T04:13:58.278Z</time>
      </trkpt>
      <trkpt lat="45.9013" lon="6.80973">
        <ele>1036</ele>
        <time>2026-08-04T04:13:59.278Z</time>
      </trkpt>
      <trkpt lat="45.90131" lon="6.80975">
        <ele>1037</ele>
        <time>2026-08-04T04:14:00.278Z</time>
      </trkpt>
      <trkpt lat="45.90131" lon="6.80977">
        <ele>1037</ele>
        <time>2026-08-04T04:14:01.278Z</time>
      </trkpt>
      <trkpt lat="45.90131" lon="6.8098">
        <ele>1037</ele>
        <time>2026-08-04T04:14:02.278Z</time>
      </trkpt>
      <trkpt lat="45.90132" lon="6.80982">
        <ele>1037</ele>
        <time>2026-08-04T04:14:03.278Z</time>
      </trkpt>
      <trkpt lat="45.90132" lon="6.80985">
        <ele>1037</ele>
        <time>2026-08-04T04:14:04.278Z</time>
      </trkpt>
      <trkpt lat="45.90133" lon="6.80988">
        <ele>1037</ele>
        <time>2026-08-04T04:14:05.278Z</time>
      </trkpt>
      <trkpt lat="45.90133" lon="6.8099">
        <ele>1038</ele>
        <time>2026-08-04T04:14:06.278Z</time>
      </trkpt>
      <trkpt lat="45.90134" lon="6.80992">
        <ele>1038</ele>
        <time>2026-08-04T04:14:07.278Z</time>
      </trkpt>
      <trkpt lat="45.90135" lon="6.80995">
        <ele>1038</ele>
        <time>2026-08-04T04:14:08.278Z</time>
      </trkpt>
      <trkpt lat="45.90136" lon="6.80998">
        <ele>1038</ele>
        <time>2026-08-04T04:14:09.278Z</time>
      </trkpt>
      <trkpt lat="45.90137" lon="6.81002">
        <ele>1038</ele>
        <time>2026-08-04T04:14:10.278Z</time>
      </trkpt>
      <trkpt lat="45.90138" lon="6.81004">
        <ele>1038</ele>
        <time>2026-08-04T04:14:11.278Z</time>
      </trkpt>
      <trkpt lat="45.90139" lon="6.81006">
        <ele>1038</ele>
        <time>2026-08-04T04:14:12.278Z</time>
      </trkpt>
      <trkpt lat="45.90139" lon="6.81007">
        <ele>1038</ele>
        <time>2026-08-04T04:14:13.278Z</time>
      </trkpt>
      <trkpt lat="45.90139" lon="6.81009">
        <ele>1038</ele>
        <time>2026-08-04T04:14:14.278Z</time>
      </trkpt>
      <trkpt lat="45.90139" lon="6.8101">
        <ele>1038</ele>
        <time>2026-08-04T04:14:15.278Z</time>
      </trkpt>
      <trkpt lat="45.9014" lon="6.81013">
        <ele>1038</ele>
        <time>2026-08-04T04:14:16.278Z</time>
      </trkpt>
      <trkpt lat="45.90141" lon="6.81015">
        <ele>1039</ele>
        <time>2026-08-04T04:14:17.278Z</time>
      </trkpt>
      <trkpt lat="45.90142" lon="6.81017">
        <ele>1039</ele>
        <time>2026-08-04T04:14:18.278Z</time>
      </trkpt>
      <trkpt lat="45.90142" lon="6.81019">
        <ele>1039</ele>
        <time>2026-08-04T04:14:19.278Z</time>
      </trkpt>
      <trkpt lat="45.90142" lon="6.81022">
        <ele>1039</ele>
        <time>2026-08-04T04:14:20.278Z</time>
      </trkpt>
      <trkpt lat="45.90142" lon="6.81025">
        <ele>1039</ele>
        <time>2026-08-04T04:14:21.278Z</time>
      </trkpt>
      <trkpt lat="45.90142" lon="6.81027">
        <ele>1039</ele>
        <time>2026-08-04T04:14:22.278Z</time>
      </trkpt>
      <trkpt lat="45.90142" lon="6.81029">
        <ele>1039</ele>
        <time>2026-08-04T04:14:23.278Z</time>
      </trkpt>
      <trkpt lat="45.90142" lon="6.81031">
        <ele>1040</ele>
        <time>2026-08-04T04:14:24.278Z</time>
      </trkpt>
      <trkpt lat="45.90142" lon="6.81033">
        <ele>1040</ele>
        <time>2026-08-04T04:14:25.278Z</time>
      </trkpt>
      <trkpt lat="45.90143" lon="6.81036">
        <ele>1040</ele>
        <time>2026-08-04T04:14:26.278Z</time>
      </trkpt>
      <trkpt lat="45.90143" lon="6.81038">
        <ele>1040</ele>
        <time>2026-08-04T04:14:27.278Z</time>
      </trkpt>
      <trkpt lat="45.90144" lon="6.8104">
        <ele>1040</ele>
        <time>2026-08-04T04:14:28.278Z</time>
      </trkpt>
      <trkpt lat="45.90145" lon="6.81043">
        <ele>1040</ele>
        <time>2026-08-04T04:14:29.278Z</time>
      </trkpt>
      <trkpt lat="45.90145" lon="6.81046">
        <ele>1040</ele>
        <time>2026-08-04T04:14:30.278Z</time>
      </trkpt>
      <trkpt lat="45.90146" lon="6.81048">
        <ele>1040</ele>
        <time>2026-08-04T04:14:31.278Z</time>
      </trkpt>
      <trkpt lat="45.90146" lon="6.8105">
        <ele>1040</ele>
        <time>2026-08-04T04:14:32.278Z</time>
      </trkpt>
      <trkpt lat="45.90147" lon="6.81051">
        <ele>1040</ele>
        <time>2026-08-04T04:14:33.278Z</time>
      </trkpt>
      <trkpt lat="45.90147" lon="6.81052">
        <ele>1040</ele>
        <time>2026-08-04T04:14:34.278Z</time>
      </trkpt>
      <trkpt lat="45.90148" lon="6.81054">
        <ele>1041</ele>
        <time>2026-08-04T04:14:35.278Z</time>
      </trkpt>
      <trkpt lat="45.90148" lon="6.81055">
        <ele>1041</ele>
        <time>2026-08-04T04:14:36.278Z</time>
      </trkpt>
      <trkpt lat="45.90148" lon="6.81057">
        <ele>1041</ele>
        <time>2026-08-04T04:14:37.278Z</time>
      </trkpt>
      <trkpt lat="45.90148" lon="6.81059">
        <ele>1041</ele>
        <time>2026-08-04T04:14:38.278Z</time>
      </trkpt>
      <trkpt lat="45.90148" lon="6.8106">
        <ele>1042</ele>
        <time>2026-08-04T04:14:39.278Z</time>
      </trkpt>
      <trkpt lat="45.90148" lon="6.81061">
        <ele>1042</ele>
        <time>2026-08-04T04:14:40.278Z</time>
      </trkpt>
      <trkpt lat="45.90149" lon="6.81063">
        <ele>1042</ele>
        <time>2026-08-04T04:14:41.278Z</time>
      </trkpt>
      <trkpt lat="45.9015" lon="6.81065">
        <ele>1042</ele>
        <time>2026-08-04T04:14:42.278Z</time>
      </trkpt>
      <trkpt lat="45.9015" lon="6.81068">
        <ele>1043</ele>
        <time>2026-08-04T04:14:43.278Z</time>
      </trkpt>
      <trkpt lat="45.90151" lon="6.8107">
        <ele>1043</ele>
        <time>2026-08-04T04:14:44.278Z</time>
      </trkpt>
      <trkpt lat="45.90151" lon="6.81071">
        <ele>1043</ele>
        <time>2026-08-04T04:14:45.278Z</time>
      </trkpt>
      <trkpt lat="45.90152" lon="6.81074">
        <ele>1044</ele>
        <time>2026-08-04T04:14:46.278Z</time>
      </trkpt>
      <trkpt lat="45.90154" lon="6.81076">
        <ele>1044</ele>
        <time>2026-08-04T04:14:47.278Z</time>
      </trkpt>
      <trkpt lat="45.90155" lon="6.81078">
        <ele>1044</ele>
        <time>2026-08-04T04:14:48.278Z</time>
      </trkpt>
      <trkpt lat="45.90156" lon="6.81081">
        <ele>1044</ele>
        <time>2026-08-04T04:14:49.278Z</time>
      </trkpt>
      <trkpt lat="45.90157" lon="6.81084">
        <ele>1044</ele>
        <time>2026-08-04T04:14:50.278Z</time>
      </trkpt>
      <trkpt lat="45.90157" lon="6.81086">
        <ele>1044</ele>
        <time>2026-08-04T04:14:51.278Z</time>
      </trkpt>
      <trkpt lat="45.90157" lon="6.81089">
        <ele>1044</ele>
        <time>2026-08-04T04:14:52.278Z</time>
      </trkpt>
      <trkpt lat="45.90158" lon="6.81091">
        <ele>1045</ele>
        <time>2026-08-04T04:14:53.278Z</time>
      </trkpt>
      <trkpt lat="45.90159" lon="6.81093">
        <ele>1045</ele>
        <time>2026-08-04T04:14:54.278Z</time>
      </trkpt>
      <trkpt lat="45.9016" lon="6.81096">
        <ele>1045</ele>
        <time>2026-08-04T04:14:55.278Z</time>
      </trkpt>
      <trkpt lat="45.90161" lon="6.81098">
        <ele>1045</ele>
        <time>2026-08-04T04:14:56.278Z</time>
      </trkpt>
      <trkpt lat="45.90161" lon="6.811">
        <ele>1045</ele>
        <time>2026-08-04T04:14:57.278Z</time>
      </trkpt>
      <trkpt lat="45.90161" lon="6.81102">
        <ele>1046</ele>
        <time>2026-08-04T04:14:58.278Z</time>
      </trkpt>
      <trkpt lat="45.90161" lon="6.81104">
        <ele>1046</ele>
        <time>2026-08-04T04:14:59.278Z</time>
      </trkpt>
      <trkpt lat="45.90162" lon="6.81107">
        <ele>1046</ele>
        <time>2026-08-04T04:15:00.278Z</time>
      </trkpt>
      <trkpt lat="45.90162" lon="6.8111">
        <ele>1047</ele>
        <time>2026-08-04T04:15:01.278Z</time>
      </trkpt>
      <trkpt lat="45.90163" lon="6.81112">
        <ele>1047</ele>
        <time>2026-08-04T04:15:02.278Z</time>
      </trkpt>
      <trkpt lat="45.90164" lon="6.81115">
        <ele>1047</ele>
        <time>2026-08-04T04:15:03.278Z</time>
      </trkpt>
      <trkpt lat="45.90165" lon="6.81117">
        <ele>1047</ele>
        <time>2026-08-04T04:15:04.278Z</time>
      </trkpt>
      <trkpt lat="45.90165" lon="6.81119">
        <ele>1047</ele>
        <time>2026-08-04T04:15:05.278Z</time>
      </trkpt>
      <trkpt lat="45.90165" lon="6.81123">
        <ele>1047</ele>
        <time>2026-08-04T04:15:06.278Z</time>
      </trkpt>
      <trkpt lat="45.90166" lon="6.81126">
        <ele>1047</ele>
        <time>2026-08-04T04:15:07.278Z</time>
      </trkpt>
      <trkpt lat="45.90166" lon="6.81128">
        <ele>1047</ele>
        <time>2026-08-04T04:15:08.278Z</time>
      </trkpt>
      <trkpt lat="45.90166" lon="6.81131">
        <ele>1047</ele>
        <time>2026-08-04T04:15:09.278Z</time>
      </trkpt>
      <trkpt lat="45.90167" lon="6.81133">
        <ele>1047</ele>
        <time>2026-08-04T04:15:10.278Z</time>
      </trkpt>
      <trkpt lat="45.90167" lon="6.81135">
        <ele>1047</ele>
        <time>2026-08-04T04:15:11.278Z</time>
      </trkpt>
      <trkpt lat="45.90168" lon="6.81137">
        <ele>1047</ele>
        <time>2026-08-04T04:15:12.278Z</time>
      </trkpt>
      <trkpt lat="45.90168" lon="6.81139">
        <ele>1047</ele>
        <time>2026-08-04T04:15:13.278Z</time>
      </trkpt>
      <trkpt lat="45.90169" lon="6.81141">
        <ele>1047</ele>
        <time>2026-08-04T04:15:14.278Z</time>
      </trkpt>
      <trkpt lat="45.90169" lon="6.81143">
        <ele>1047</ele>
        <time>2026-08-04T04:15:15.278Z</time>
      </trkpt>
      <trkpt lat="45.90169" lon="6.81146">
        <ele>1047</ele>
        <time>2026-08-04T04:15:16.278Z</time>
      </trkpt>
      <trkpt lat="45.90169" lon="6.81149">
        <ele>1047</ele>
        <time>2026-08-04T04:15:17.278Z</time>
      </trkpt>
      <trkpt lat="45.90169" lon="6.81152">
        <ele>1047</ele>
        <time>2026-08-04T04:15:18.278Z</time>
      </trkpt>
      <trkpt lat="45.90169" lon="6.81155">
        <ele>1047</ele>
        <time>2026-08-04T04:15:19.278Z</time>
      </trkpt>
      <trkpt lat="45.90168" lon="6.81158">
        <ele>1047</ele>
        <time>2026-08-04T04:15:20.278Z</time>
      </trkpt>
      <trkpt lat="45.90168" lon="6.8116">
        <ele>1047</ele>
        <time>2026-08-04T04:15:21.278Z</time>
      </trkpt>
      <trkpt lat="45.90169" lon="6.81163">
        <ele>1047</ele>
        <time>2026-08-04T04:15:22.278Z</time>
      </trkpt>
      <trkpt lat="45.90169" lon="6.81166">
        <ele>1047</ele>
        <time>2026-08-04T04:15:23.278Z</time>
      </trkpt>
      <trkpt lat="45.90169" lon="6.81169">
        <ele>1048</ele>
        <time>2026-08-04T04:15:24.278Z</time>
      </trkpt>
      <trkpt lat="45.90169" lon="6.81171">
        <ele>1048</ele>
        <time>2026-08-04T04:15:25.278Z</time>
      </trkpt>
      <trkpt lat="45.90169" lon="6.81174">
        <ele>1048</ele>
        <time>2026-08-04T04:15:26.278Z</time>
      </trkpt>
      <trkpt lat="45.90169" lon="6.81176">
        <ele>1048</ele>
        <time>2026-08-04T04:15:27.278Z</time>
      </trkpt>
      <trkpt lat="45.9017" lon="6.81179">
        <ele>1048</ele>
        <time>2026-08-04T04:15:28.278Z</time>
      </trkpt>
      <trkpt lat="45.90169" lon="6.81181">
        <ele>1048</ele>
        <time>2026-08-04T04:15:29.278Z</time>
      </trkpt>
      <trkpt lat="45.90169" lon="6.81183">
        <ele>1047</ele>
        <time>2026-08-04T04:15:30.278Z</time>
      </trkpt>
      <trkpt lat="45.90169" lon="6.81186">
        <ele>1047</ele>
        <time>2026-08-04T04:15:31.278Z</time>
      </trkpt>
      <trkpt lat="45.90169" lon="6.81189">
        <ele>1046</ele>
        <time>2026-08-04T04:15:32.278Z</time>
      </trkpt>
      <trkpt lat="45.90169" lon="6.81191">
        <ele>1046</ele>
        <time>2026-08-04T04:15:33.278Z</time>
      </trkpt>
      <trkpt lat="45.90169" lon="6.81194">
        <ele>1046</ele>
        <time>2026-08-04T04:15:34.278Z</time>
      </trkpt>
      <trkpt lat="45.90169" lon="6.81196">
        <ele>1046</ele>
        <time>2026-08-04T04:15:35.278Z</time>
      </trkpt>
      <trkpt lat="45.90169" lon="6.81199">
        <ele>1046</ele>
        <time>2026-08-04T04:15:36.278Z</time>
      </trkpt>
      <trkpt lat="45.90169" lon="6.81202">
        <ele>1046</ele>
        <time>2026-08-04T04:15:37.278Z</time>
      </trkpt>
      <trkpt lat="45.90169" lon="6.81204">
        <ele>1045</ele>
        <time>2026-08-04T04:15:38.278Z</time>
      </trkpt>
      <trkpt lat="45.9017" lon="6.81206">
        <ele>1045</ele>
        <time>2026-08-04T04:15:39.278Z</time>
      </trkpt>
      <trkpt lat="45.9017" lon="6.81208">
        <ele>1044</ele>
        <time>2026-08-04T04:15:40.278Z</time>
      </trkpt>
      <trkpt lat="45.9017" lon="6.81211">
        <ele>1044</ele>
        <time>2026-08-04T04:15:41.278Z</time>
      </trkpt>
      <trkpt lat="45.9017" lon="6.81212">
        <ele>1044</ele>
        <time>2026-08-04T04:15:42.278Z</time>
      </trkpt>
      <trkpt lat="45.9017" lon="6.81215">
        <ele>1043</ele>
        <time>2026-08-04T04:15:43.278Z</time>
      </trkpt>
      <trkpt lat="45.9017" lon="6.81219">
        <ele>1043</ele>
        <time>2026-08-04T04:15:44.278Z</time>
      </trkpt>
      <trkpt lat="45.90171" lon="6.81223">
        <ele>1043</ele>
        <time>2026-08-04T04:15:45.278Z</time>
      </trkpt>
      <trkpt lat="45.90172" lon="6.81226">
        <ele>1042</ele>
        <time>2026-08-04T04:15:46.278Z</time>
      </trkpt>
      <trkpt lat="45.90172" lon="6.81229">
        <ele>1042</ele>
        <time>2026-08-04T04:15:47.278Z</time>
      </trkpt>
      <trkpt lat="45.90173" lon="6.81232">
        <ele>1042</ele>
        <time>2026-08-04T04:15:48.278Z</time>
      </trkpt>
      <trkpt lat="45.90173" lon="6.81235">
        <ele>1042</ele>
        <time>2026-08-04T04:15:49.278Z</time>
      </trkpt>
      <trkpt lat="45.90174" lon="6.81238">
        <ele>1042</ele>
        <time>2026-08-04T04:15:50.278Z</time>
      </trkpt>
      <trkpt lat="45.90174" lon="6.8124">
        <ele>1041</ele>
        <time>2026-08-04T04:15:51.278Z</time>
      </trkpt>
      <trkpt lat="45.90174" lon="6.81243">
        <ele>1041</ele>
        <time>2026-08-04T04:15:52.278Z</time>
      </trkpt>
      <trkpt lat="45.90175" lon="6.81246">
        <ele>1041</ele>
        <time>2026-08-04T04:15:53.278Z</time>
      </trkpt>
      <trkpt lat="45.90175" lon="6.81248">
        <ele>1041</ele>
        <time>2026-08-04T04:15:54.278Z</time>
      </trkpt>
      <trkpt lat="45.90175" lon="6.81251">
        <ele>1041</ele>
        <time>2026-08-04T04:15:55.278Z</time>
      </trkpt>
      <trkpt lat="45.90175" lon="6.81253">
        <ele>1041</ele>
        <time>2026-08-04T04:15:56.278Z</time>
      </trkpt>
      <trkpt lat="45.90176" lon="6.81256">
        <ele>1041</ele>
        <time>2026-08-04T04:15:57.278Z</time>
      </trkpt>
      <trkpt lat="45.90176" lon="6.81259">
        <ele>1041</ele>
        <time>2026-08-04T04:15:58.278Z</time>
      </trkpt>
      <trkpt lat="45.90176" lon="6.81262">
        <ele>1041</ele>
        <time>2026-08-04T04:15:59.278Z</time>
      </trkpt>
      <trkpt lat="45.90176" lon="6.81265">
        <ele>1041</ele>
        <time>2026-08-04T04:16:00.278Z</time>
      </trkpt>
      <trkpt lat="45.90176" lon="6.81268">
        <ele>1041</ele>
        <time>2026-08-04T04:16:01.278Z</time>
      </trkpt>
      <trkpt lat="45.90176" lon="6.8127">
        <ele>1041</ele>
        <time>2026-08-04T04:16:02.278Z</time>
      </trkpt>
      <trkpt lat="45.90176" lon="6.81273">
        <ele>1040</ele>
        <time>2026-08-04T04:16:03.278Z</time>
      </trkpt>
      <trkpt lat="45.90176" lon="6.81275">
        <ele>1040</ele>
        <time>2026-08-04T04:16:04.278Z</time>
      </trkpt>
      <trkpt lat="45.90176" lon="6.81278">
        <ele>1039</ele>
        <time>2026-08-04T04:16:05.278Z</time>
      </trkpt>
      <trkpt lat="45.90176" lon="6.81281">
        <ele>1039</ele>
        <time>2026-08-04T04:16:06.278Z</time>
      </trkpt>
      <trkpt lat="45.90176" lon="6.81283">
        <ele>1039</ele>
        <time>2026-08-04T04:16:07.278Z</time>
      </trkpt>
      <trkpt lat="45.90176" lon="6.81286">
        <ele>1039</ele>
        <time>2026-08-04T04:16:08.278Z</time>
      </trkpt>
      <trkpt lat="45.90176" lon="6.8129">
        <ele>1039</ele>
        <time>2026-08-04T04:16:09.278Z</time>
      </trkpt>
      <trkpt lat="45.90177" lon="6.81293">
        <ele>1039</ele>
        <time>2026-08-04T04:16:10.278Z</time>
      </trkpt>
      <trkpt lat="45.90177" lon="6.81295">
        <ele>1039</ele>
        <time>2026-08-04T04:16:11.278Z</time>
      </trkpt>
      <trkpt lat="45.90178" lon="6.81299">
        <ele>1038</ele>
        <time>2026-08-04T04:16:12.278Z</time>
      </trkpt>
      <trkpt lat="45.90178" lon="6.81302">
        <ele>1038</ele>
        <time>2026-08-04T04:16:13.278Z</time>
      </trkpt>
      <trkpt lat="45.90179" lon="6.81305">
        <ele>1038</ele>
        <time>2026-08-04T04:16:14.278Z</time>
      </trkpt>
      <trkpt lat="45.9018" lon="6.81308">
        <ele>1037</ele>
        <time>2026-08-04T04:16:15.278Z</time>
      </trkpt>
      <trkpt lat="45.9018" lon="6.81311">
        <ele>1037</ele>
        <time>2026-08-04T04:16:16.278Z</time>
      </trkpt>
      <trkpt lat="45.90181" lon="6.81314">
        <ele>1037</ele>
        <time>2026-08-04T04:16:17.278Z</time>
      </trkpt>
      <trkpt lat="45.90181" lon="6.81318">
        <ele>1037</ele>
        <time>2026-08-04T04:16:18.278Z</time>
      </trkpt>
      <trkpt lat="45.90182" lon="6.81321">
        <ele>1037</ele>
        <time>2026-08-04T04:16:19.278Z</time>
      </trkpt>
      <trkpt lat="45.90183" lon="6.81324">
        <ele>1037</ele>
        <time>2026-08-04T04:16:20.278Z</time>
      </trkpt>
      <trkpt lat="45.90184" lon="6.81328">
        <ele>1037</ele>
        <time>2026-08-04T04:16:21.278Z</time>
      </trkpt>
      <trkpt lat="45.90184" lon="6.81332">
        <ele>1037</ele>
        <time>2026-08-04T04:16:22.278Z</time>
      </trkpt>
      <trkpt lat="45.90185" lon="6.81334">
        <ele>1036</ele>
        <time>2026-08-04T04:16:23.278Z</time>
      </trkpt>
      <trkpt lat="45.90185" lon="6.81338">
        <ele>1036</ele>
        <time>2026-08-04T04:16:24.278Z</time>
      </trkpt>
      <trkpt lat="45.90185" lon="6.81342">
        <ele>1037</ele>
        <time>2026-08-04T04:16:25.278Z</time>
      </trkpt>
      <trkpt lat="45.90183" lon="6.81345">
        <ele>1037</ele>
        <time>2026-08-04T04:16:26.278Z</time>
      </trkpt>
      <trkpt lat="45.90183" lon="6.81349">
        <ele>1037</ele>
        <time>2026-08-04T04:16:27.278Z</time>
      </trkpt>
      <trkpt lat="45.90183" lon="6.81352">
        <ele>1037</ele>
        <time>2026-08-04T04:16:28.278Z</time>
      </trkpt>
      <trkpt lat="45.90182" lon="6.81355">
        <ele>1038</ele>
        <time>2026-08-04T04:16:29.278Z</time>
      </trkpt>
      <trkpt lat="45.90181" lon="6.81357">
        <ele>1038</ele>
        <time>2026-08-04T04:16:30.278Z</time>
      </trkpt>
      <trkpt lat="45.90181" lon="6.8136">
        <ele>1039</ele>
        <time>2026-08-04T04:16:31.278Z</time>
      </trkpt>
      <trkpt lat="45.90182" lon="6.81362">
        <ele>1039</ele>
        <time>2026-08-04T04:16:32.278Z</time>
      </trkpt>
      <trkpt lat="45.90181" lon="6.81365">
        <ele>1039</ele>
        <time>2026-08-04T04:16:33.278Z</time>
      </trkpt>
      <trkpt lat="45.90181" lon="6.81368">
        <ele>1040</ele>
        <time>2026-08-04T04:16:34.278Z</time>
      </trkpt>
      <trkpt lat="45.9018" lon="6.81373">
        <ele>1040</ele>
        <time>2026-08-04T04:16:35.278Z</time>
      </trkpt>
      <trkpt lat="45.90179" lon="6.81374">
        <ele>1040</ele>
        <time>2026-08-04T04:16:36.278Z</time>
      </trkpt>
      <trkpt lat="45.9018" lon="6.81375">
        <ele>1040</ele>
        <time>2026-08-04T04:16:37.278Z</time>
      </trkpt>
      <trkpt lat="45.90181" lon="6.81377">
        <ele>1041</ele>
        <time>2026-08-04T04:16:38.278Z</time>
      </trkpt>
      <trkpt lat="45.90181" lon="6.81381">
        <ele>1041</ele>
        <time>2026-08-04T04:16:39.278Z</time>
      </trkpt>
      <trkpt lat="45.90181" lon="6.81383">
        <ele>1041</ele>
        <time>2026-08-04T04:16:40.278Z</time>
      </trkpt>
      <trkpt lat="45.90181" lon="6.81386">
        <ele>1041</ele>
        <time>2026-08-04T04:16:41.278Z</time>
      </trkpt>
      <trkpt lat="45.90181" lon="6.81388">
        <ele>1042</ele>
        <time>2026-08-04T04:16:42.278Z</time>
      </trkpt>
      <trkpt lat="45.90181" lon="6.81392">
        <ele>1042</ele>
        <time>2026-08-04T04:16:43.278Z</time>
      </trkpt>
      <trkpt lat="45.9018" lon="6.81394">
        <ele>1042</ele>
        <time>2026-08-04T04:16:44.278Z</time>
      </trkpt>
      <trkpt lat="45.9018" lon="6.81396">
        <ele>1042</ele>
        <time>2026-08-04T04:16:45.278Z</time>
      </trkpt>
      <trkpt lat="45.9018" lon="6.81399">
        <ele>1042</ele>
        <time>2026-08-04T04:16:46.278Z</time>
      </trkpt>
      <trkpt lat="45.9018" lon="6.81402">
        <ele>1043</ele>
        <time>2026-08-04T04:16:47.278Z</time>
      </trkpt>
      <trkpt lat="45.9018" lon="6.81404">
        <ele>1043</ele>
        <time>2026-08-04T04:16:48.278Z</time>
      </trkpt>
      <trkpt lat="45.90181" lon="6.81407">
        <ele>1043</ele>
        <time>2026-08-04T04:16:49.278Z</time>
      </trkpt>
      <trkpt lat="45.90181" lon="6.8141">
        <ele>1043</ele>
        <time>2026-08-04T04:16:50.278Z</time>
      </trkpt>
      <trkpt lat="45.90182" lon="6.81413">
        <ele>1044</ele>
        <time>2026-08-04T04:16:51.278Z</time>
      </trkpt>
      <trkpt lat="45.90182" lon="6.81417">
        <ele>1044</ele>
        <time>2026-08-04T04:16:52.278Z</time>
      </trkpt>
      <trkpt lat="45.90183" lon="6.81419">
        <ele>1044</ele>
        <time>2026-08-04T04:16:53.278Z</time>
      </trkpt>
      <trkpt lat="45.90182" lon="6.81422">
        <ele>1044</ele>
        <time>2026-08-04T04:16:54.278Z</time>
      </trkpt>
      <trkpt lat="45.90183" lon="6.81426">
        <ele>1044</ele>
        <time>2026-08-04T04:16:55.278Z</time>
      </trkpt>
      <trkpt lat="45.90182" lon="6.81429">
        <ele>1044</ele>
        <time>2026-08-04T04:16:56.278Z</time>
      </trkpt>
      <trkpt lat="45.90182" lon="6.81432">
        <ele>1044</ele>
        <time>2026-08-04T04:16:57.278Z</time>
      </trkpt>
      <trkpt lat="45.90182" lon="6.81435">
        <ele>1044</ele>
        <time>2026-08-04T04:16:58.278Z</time>
      </trkpt>
      <trkpt lat="45.90182" lon="6.81438">
        <ele>1044</ele>
        <time>2026-08-04T04:16:59.278Z</time>
      </trkpt>
      <trkpt lat="45.90182" lon="6.81442">
        <ele>1044</ele>
        <time>2026-08-04T04:17:00.278Z</time>
      </trkpt>
      <trkpt lat="45.90183" lon="6.81445">
        <ele>1044</ele>
        <time>2026-08-04T04:17:01.278Z</time>
      </trkpt>
      <trkpt lat="45.90183" lon="6.81449">
        <ele>1043</ele>
        <time>2026-08-04T04:17:02.278Z</time>
      </trkpt>
      <trkpt lat="45.90183" lon="6.81452">
        <ele>1043</ele>
        <time>2026-08-04T04:17:03.278Z</time>
      </trkpt>
      <trkpt lat="45.90184" lon="6.81455">
        <ele>1043</ele>
        <time>2026-08-04T04:17:04.278Z</time>
      </trkpt>
      <trkpt lat="45.90184" lon="6.81459">
        <ele>1042</ele>
        <time>2026-08-04T04:17:05.278Z</time>
      </trkpt>
      <trkpt lat="45.90183" lon="6.81462">
        <ele>1042</ele>
        <time>2026-08-04T04:17:06.278Z</time>
      </trkpt>
      <trkpt lat="45.90183" lon="6.81466">
        <ele>1042</ele>
        <time>2026-08-04T04:17:07.278Z</time>
      </trkpt>
      <trkpt lat="45.90183" lon="6.81469">
        <ele>1041</ele>
        <time>2026-08-04T04:17:08.278Z</time>
      </trkpt>
      <trkpt lat="45.90182" lon="6.81472">
        <ele>1041</ele>
        <time>2026-08-04T04:17:09.278Z</time>
      </trkpt>
      <trkpt lat="45.90183" lon="6.81476">
        <ele>1041</ele>
        <time>2026-08-04T04:17:10.278Z</time>
      </trkpt>
      <trkpt lat="45.90183" lon="6.81479">
        <ele>1041</ele>
        <time>2026-08-04T04:17:11.278Z</time>
      </trkpt>
      <trkpt lat="45.90183" lon="6.81482">
        <ele>1041</ele>
        <time>2026-08-04T04:17:12.278Z</time>
      </trkpt>
      <trkpt lat="45.90183" lon="6.81487">
        <ele>1040</ele>
        <time>2026-08-04T04:17:13.278Z</time>
      </trkpt>
      <trkpt lat="45.90183" lon="6.81489">
        <ele>1040</ele>
        <time>2026-08-04T04:17:14.278Z</time>
      </trkpt>
      <trkpt lat="45.90183" lon="6.81493">
        <ele>1040</ele>
        <time>2026-08-04T04:17:15.278Z</time>
      </trkpt>
      <trkpt lat="45.90183" lon="6.81496">
        <ele>1039</ele>
        <time>2026-08-04T04:17:16.278Z</time>
      </trkpt>
      <trkpt lat="45.90182" lon="6.81499">
        <ele>1039</ele>
        <time>2026-08-04T04:17:17.278Z</time>
      </trkpt>
      <trkpt lat="45.90182" lon="6.81503">
        <ele>1039</ele>
        <time>2026-08-04T04:17:18.278Z</time>
      </trkpt>
      <trkpt lat="45.90182" lon="6.81506">
        <ele>1039</ele>
        <time>2026-08-04T04:17:19.278Z</time>
      </trkpt>
      <trkpt lat="45.90182" lon="6.81509">
        <ele>1038</ele>
        <time>2026-08-04T04:17:20.278Z</time>
      </trkpt>
      <trkpt lat="45.90182" lon="6.81513">
        <ele>1038</ele>
        <time>2026-08-04T04:17:21.278Z</time>
      </trkpt>
      <trkpt lat="45.90182" lon="6.81516">
        <ele>1038</ele>
        <time>2026-08-04T04:17:22.278Z</time>
      </trkpt>
      <trkpt lat="45.90181" lon="6.8152">
        <ele>1037</ele>
        <time>2026-08-04T04:17:23.278Z</time>
      </trkpt>
      <trkpt lat="45.90181" lon="6.81523">
        <ele>1037</ele>
        <time>2026-08-04T04:17:24.278Z</time>
      </trkpt>
      <trkpt lat="45.90181" lon="6.81526">
        <ele>1037</ele>
        <time>2026-08-04T04:17:25.278Z</time>
      </trkpt>
      <trkpt lat="45.90181" lon="6.8153">
        <ele>1036</ele>
        <time>2026-08-04T04:17:26.278Z</time>
      </trkpt>
      <trkpt lat="45.90181" lon="6.81533">
        <ele>1036</ele>
        <time>2026-08-04T04:17:27.278Z</time>
      </trkpt>
      <trkpt lat="45.90181" lon="6.81536">
        <ele>1036</ele>
        <time>2026-08-04T04:17:28.278Z</time>
      </trkpt>
      <trkpt lat="45.90181" lon="6.81539">
        <ele>1036</ele>
        <time>2026-08-04T04:17:29.278Z</time>
      </trkpt>
      <trkpt lat="45.90181" lon="6.81543">
        <ele>1036</ele>
        <time>2026-08-04T04:17:30.278Z</time>
      </trkpt>
      <trkpt lat="45.90181" lon="6.81547">
        <ele>1036</ele>
        <time>2026-08-04T04:17:31.278Z</time>
      </trkpt>
      <trkpt lat="45.9018" lon="6.81549">
        <ele>1036</ele>
        <time>2026-08-04T04:17:32.278Z</time>
      </trkpt>
      <trkpt lat="45.9018" lon="6.81551">
        <ele>1036</ele>
        <time>2026-08-04T04:17:33.278Z</time>
      </trkpt>
      <trkpt lat="45.9018" lon="6.81554">
        <ele>1036</ele>
        <time>2026-08-04T04:17:34.278Z</time>
      </trkpt>
      <trkpt lat="45.90179" lon="6.81557">
        <ele>1036</ele>
        <time>2026-08-04T04:17:35.278Z</time>
      </trkpt>
      <trkpt lat="45.90179" lon="6.8156">
        <ele>1036</ele>
        <time>2026-08-04T04:17:36.278Z</time>
      </trkpt>
      <trkpt lat="45.90178" lon="6.81563">
        <ele>1036</ele>
        <time>2026-08-04T04:17:37.278Z</time>
      </trkpt>
      <trkpt lat="45.90178" lon="6.81567">
        <ele>1036</ele>
        <time>2026-08-04T04:17:38.278Z</time>
      </trkpt>
      <trkpt lat="45.90177" lon="6.81569">
        <ele>1036</ele>
        <time>2026-08-04T04:17:39.278Z</time>
      </trkpt>
      <trkpt lat="45.90176" lon="6.81571">
        <ele>1036</ele>
        <time>2026-08-04T04:17:40.278Z</time>
      </trkpt>
      <trkpt lat="45.90175" lon="6.81574">
        <ele>1036</ele>
        <time>2026-08-04T04:17:41.278Z</time>
      </trkpt>
      <trkpt lat="45.90173" lon="6.81576">
        <ele>1037</ele>
        <time>2026-08-04T04:17:42.278Z</time>
      </trkpt>
      <trkpt lat="45.90172" lon="6.81579">
        <ele>1037</ele>
        <time>2026-08-04T04:17:43.278Z</time>
      </trkpt>
      <trkpt lat="45.90171" lon="6.81582">
        <ele>1037</ele>
        <time>2026-08-04T04:17:44.278Z</time>
      </trkpt>
      <trkpt lat="45.90169" lon="6.81585">
        <ele>1037</ele>
        <time>2026-08-04T04:17:45.278Z</time>
      </trkpt>
      <trkpt lat="45.90167" lon="6.81587">
        <ele>1037</ele>
        <time>2026-08-04T04:17:46.278Z</time>
      </trkpt>
      <trkpt lat="45.90166" lon="6.8159">
        <ele>1037</ele>
        <time>2026-08-04T04:17:47.278Z</time>
      </trkpt>
      <trkpt lat="45.90164" lon="6.81592">
        <ele>1037</ele>
        <time>2026-08-04T04:17:48.278Z</time>
      </trkpt>
      <trkpt lat="45.90163" lon="6.81595">
        <ele>1037</ele>
        <time>2026-08-04T04:17:49.278Z</time>
      </trkpt>
      <trkpt lat="45.90162" lon="6.81596">
        <ele>1037</ele>
        <time>2026-08-04T04:17:50.278Z</time>
      </trkpt>
      <trkpt lat="45.90161" lon="6.816">
        <ele>1037</ele>
        <time>2026-08-04T04:17:51.278Z</time>
      </trkpt>
      <trkpt lat="45.9016" lon="6.81603">
        <ele>1037</ele>
        <time>2026-08-04T04:17:52.278Z</time>
      </trkpt>
      <trkpt lat="45.90158" lon="6.81606">
        <ele>1037</ele>
        <time>2026-08-04T04:17:53.278Z</time>
      </trkpt>
      <trkpt lat="45.90158" lon="6.81608">
        <ele>1037</ele>
        <time>2026-08-04T04:17:54.278Z</time>
      </trkpt>
      <trkpt lat="45.90157" lon="6.8161">
        <ele>1037</ele>
        <time>2026-08-04T04:17:55.278Z</time>
      </trkpt>
      <trkpt lat="45.90156" lon="6.81613">
        <ele>1036</ele>
        <time>2026-08-04T04:17:56.278Z</time>
      </trkpt>
      <trkpt lat="45.90155" lon="6.81616">
        <ele>1036</ele>
        <time>2026-08-04T04:17:57.278Z</time>
      </trkpt>
      <trkpt lat="45.90155" lon="6.81618">
        <ele>1035</ele>
        <time>2026-08-04T04:17:58.278Z</time>
      </trkpt>
      <trkpt lat="45.90154" lon="6.81619">
        <ele>1035</ele>
        <time>2026-08-04T04:17:59.278Z</time>
      </trkpt>
      <trkpt lat="45.90153" lon="6.81621">
        <ele>1035</ele>
        <time>2026-08-04T04:18:00.278Z</time>
      </trkpt>
      <trkpt lat="45.90153" lon="6.81624">
        <ele>1035</ele>
        <time>2026-08-04T04:18:01.278Z</time>
      </trkpt>
      <trkpt lat="45.90153" lon="6.81627">
        <ele>1035</ele>
        <time>2026-08-04T04:18:02.278Z</time>
      </trkpt>
      <trkpt lat="45.90153" lon="6.81629">
        <ele>1036</ele>
        <time>2026-08-04T04:18:03.278Z</time>
      </trkpt>
      <trkpt lat="45.90152" lon="6.81632">
        <ele>1036</ele>
        <time>2026-08-04T04:18:04.278Z</time>
      </trkpt>
      <trkpt lat="45.90151" lon="6.81635">
        <ele>1037</ele>
        <time>2026-08-04T04:18:05.278Z</time>
      </trkpt>
      <trkpt lat="45.90151" lon="6.8164">
        <ele>1037</ele>
        <time>2026-08-04T04:18:06.278Z</time>
      </trkpt>
      <trkpt lat="45.9015" lon="6.81643">
        <ele>1037</ele>
        <time>2026-08-04T04:18:07.278Z</time>
      </trkpt>
      <trkpt lat="45.90149" lon="6.81647">
        <ele>1038</ele>
        <time>2026-08-04T04:18:08.278Z</time>
      </trkpt>
      <trkpt lat="45.90148" lon="6.8165">
        <ele>1038</ele>
        <time>2026-08-04T04:18:09.278Z</time>
      </trkpt>
      <trkpt lat="45.90147" lon="6.81654">
        <ele>1039</ele>
        <time>2026-08-04T04:18:10.278Z</time>
      </trkpt>
      <trkpt lat="45.90147" lon="6.81657">
        <ele>1039</ele>
        <time>2026-08-04T04:18:11.278Z</time>
      </trkpt>
      <trkpt lat="45.90146" lon="6.8166">
        <ele>1039</ele>
        <time>2026-08-04T04:18:12.278Z</time>
      </trkpt>
      <trkpt lat="45.90145" lon="6.81662">
        <ele>1040</ele>
        <time>2026-08-04T04:18:13.278Z</time>
      </trkpt>
      <trkpt lat="45.90144" lon="6.81664">
        <ele>1040</ele>
        <time>2026-08-04T04:18:14.278Z</time>
      </trkpt>
      <trkpt lat="45.90144" lon="6.81666">
        <ele>1040</ele>
        <time>2026-08-04T04:18:15.278Z</time>
      </trkpt>
      <trkpt lat="45.90144" lon="6.81668">
        <ele>1040</ele>
        <time>2026-08-04T04:18:16.278Z</time>
      </trkpt>
      <trkpt lat="45.90144" lon="6.81671">
        <ele>1040</ele>
        <time>2026-08-04T04:18:17.278Z</time>
      </trkpt>
      <trkpt lat="45.90144" lon="6.81674">
        <ele>1040</ele>
        <time>2026-08-04T04:18:18.278Z</time>
      </trkpt>
      <trkpt lat="45.90143" lon="6.81677">
        <ele>1040</ele>
        <time>2026-08-04T04:18:19.278Z</time>
      </trkpt>
      <trkpt lat="45.90143" lon="6.81679">
        <ele>1040</ele>
        <time>2026-08-04T04:18:20.278Z</time>
      </trkpt>
      <trkpt lat="45.90142" lon="6.81681">
        <ele>1040</ele>
        <time>2026-08-04T04:18:21.278Z</time>
      </trkpt>
      <trkpt lat="45.90141" lon="6.81683">
        <ele>1040</ele>
        <time>2026-08-04T04:18:22.278Z</time>
      </trkpt>
      <trkpt lat="45.9014" lon="6.81685">
        <ele>1040</ele>
        <time>2026-08-04T04:18:23.278Z</time>
      </trkpt>
      <trkpt lat="45.90139" lon="6.81688">
        <ele>1040</ele>
        <time>2026-08-04T04:18:24.278Z</time>
      </trkpt>
      <trkpt lat="45.90139" lon="6.8169">
        <ele>1041</ele>
        <time>2026-08-04T04:18:25.278Z</time>
      </trkpt>
      <trkpt lat="45.90138" lon="6.81693">
        <ele>1041</ele>
        <time>2026-08-04T04:18:26.278Z</time>
      </trkpt>
      <trkpt lat="45.90138" lon="6.81696">
        <ele>1041</ele>
        <time>2026-08-04T04:18:27.278Z</time>
      </trkpt>
      <trkpt lat="45.90138" lon="6.817">
        <ele>1041</ele>
        <time>2026-08-04T04:18:28.278Z</time>
      </trkpt>
      <trkpt lat="45.90137" lon="6.81703">
        <ele>1041</ele>
        <time>2026-08-04T04:18:29.278Z</time>
      </trkpt>
      <trkpt lat="45.90137" lon="6.81705">
        <ele>1041</ele>
        <time>2026-08-04T04:18:30.278Z</time>
      </trkpt>
      <trkpt lat="45.90137" lon="6.81708">
        <ele>1041</ele>
        <time>2026-08-04T04:18:31.278Z</time>
      </trkpt>
      <trkpt lat="45.90136" lon="6.81712">
        <ele>1041</ele>
        <time>2026-08-04T04:18:32.278Z</time>
      </trkpt>
      <trkpt lat="45.90135" lon="6.81715">
        <ele>1041</ele>
        <time>2026-08-04T04:18:33.278Z</time>
      </trkpt>
      <trkpt lat="45.90134" lon="6.81718">
        <ele>1041</ele>
        <time>2026-08-04T04:18:34.278Z</time>
      </trkpt>
      <trkpt lat="45.90134" lon="6.81721">
        <ele>1041</ele>
        <time>2026-08-04T04:18:35.278Z</time>
      </trkpt>
      <trkpt lat="45.90133" lon="6.81723">
        <ele>1041</ele>
        <time>2026-08-04T04:18:36.278Z</time>
      </trkpt>
      <trkpt lat="45.90133" lon="6.81727">
        <ele>1041</ele>
        <time>2026-08-04T04:18:37.278Z</time>
      </trkpt>
      <trkpt lat="45.90132" lon="6.8173">
        <ele>1042</ele>
        <time>2026-08-04T04:18:38.278Z</time>
      </trkpt>
      <trkpt lat="45.90132" lon="6.81733">
        <ele>1042</ele>
        <time>2026-08-04T04:18:39.278Z</time>
      </trkpt>
      <trkpt lat="45.90131" lon="6.81737">
        <ele>1042</ele>
        <time>2026-08-04T04:18:40.278Z</time>
      </trkpt>
      <trkpt lat="45.90129" lon="6.8174">
        <ele>1042</ele>
        <time>2026-08-04T04:18:41.278Z</time>
      </trkpt>
      <trkpt lat="45.90128" lon="6.81743">
        <ele>1042</ele>
        <time>2026-08-04T04:18:42.278Z</time>
      </trkpt>
      <trkpt lat="45.90128" lon="6.81746">
        <ele>1042</ele>
        <time>2026-08-04T04:18:43.278Z</time>
      </trkpt>
      <trkpt lat="45.90127" lon="6.81749">
        <ele>1042</ele>
        <time>2026-08-04T04:18:44.278Z</time>
      </trkpt>
      <trkpt lat="45.90126" lon="6.81754">
        <ele>1042</ele>
        <time>2026-08-04T04:18:45.278Z</time>
      </trkpt>
      <trkpt lat="45.90126" lon="6.81758">
        <ele>1042</ele>
        <time>2026-08-04T04:18:46.278Z</time>
      </trkpt>
      <trkpt lat="45.90125" lon="6.8176">
        <ele>1042</ele>
        <time>2026-08-04T04:18:47.278Z</time>
      </trkpt>
      <trkpt lat="45.90124" lon="6.81763">
        <ele>1042</ele>
        <time>2026-08-04T04:18:48.278Z</time>
      </trkpt>
      <trkpt lat="45.90123" lon="6.81766">
        <ele>1041</ele>
        <time>2026-08-04T04:18:49.278Z</time>
      </trkpt>
      <trkpt lat="45.90122" lon="6.81769">
        <ele>1041</ele>
        <time>2026-08-04T04:18:50.278Z</time>
      </trkpt>
      <trkpt lat="45.90121" lon="6.81772">
        <ele>1040</ele>
        <time>2026-08-04T04:18:51.278Z</time>
      </trkpt>
      <trkpt lat="45.9012" lon="6.81775">
        <ele>1040</ele>
        <time>2026-08-04T04:18:52.278Z</time>
      </trkpt>
      <trkpt lat="45.90118" lon="6.81778">
        <ele>1040</ele>
        <time>2026-08-04T04:18:53.278Z</time>
      </trkpt>
      <trkpt lat="45.90117" lon="6.81782">
        <ele>1039</ele>
        <time>2026-08-04T04:18:54.278Z</time>
      </trkpt>
      <trkpt lat="45.90116" lon="6.81784">
        <ele>1039</ele>
        <time>2026-08-04T04:18:55.278Z</time>
      </trkpt>
      <trkpt lat="45.90115" lon="6.81787">
        <ele>1039</ele>
        <time>2026-08-04T04:18:56.278Z</time>
      </trkpt>
      <trkpt lat="45.90114" lon="6.81791">
        <ele>1038</ele>
        <time>2026-08-04T04:18:57.278Z</time>
      </trkpt>
      <trkpt lat="45.90113" lon="6.81795">
        <ele>1038</ele>
        <time>2026-08-04T04:18:58.278Z</time>
      </trkpt>
      <trkpt lat="45.90112" lon="6.81797">
        <ele>1038</ele>
        <time>2026-08-04T04:18:59.278Z</time>
      </trkpt>
      <trkpt lat="45.90111" lon="6.818">
        <ele>1038</ele>
        <time>2026-08-04T04:19:00.278Z</time>
      </trkpt>
      <trkpt lat="45.90109" lon="6.81803">
        <ele>1038</ele>
        <time>2026-08-04T04:19:01.278Z</time>
      </trkpt>
      <trkpt lat="45.90108" lon="6.81806">
        <ele>1038</ele>
        <time>2026-08-04T04:19:02.278Z</time>
      </trkpt>
      <trkpt lat="45.90106" lon="6.81808">
        <ele>1039</ele>
        <time>2026-08-04T04:19:03.278Z</time>
      </trkpt>
      <trkpt lat="45.90105" lon="6.8181">
        <ele>1039</ele>
        <time>2026-08-04T04:19:04.278Z</time>
      </trkpt>
      <trkpt lat="45.90104" lon="6.81813">
        <ele>1039</ele>
        <time>2026-08-04T04:19:05.278Z</time>
      </trkpt>
      <trkpt lat="45.90102" lon="6.81815">
        <ele>1040</ele>
        <time>2026-08-04T04:19:06.278Z</time>
      </trkpt>
      <trkpt lat="45.901" lon="6.81817">
        <ele>1040</ele>
        <time>2026-08-04T04:19:07.278Z</time>
      </trkpt>
      <trkpt lat="45.90099" lon="6.8182">
        <ele>1040</ele>
        <time>2026-08-04T04:19:08.278Z</time>
      </trkpt>
      <trkpt lat="45.90097" lon="6.81823">
        <ele>1039</ele>
        <time>2026-08-04T04:19:09.278Z</time>
      </trkpt>
      <trkpt lat="45.90095" lon="6.81825">
        <ele>1039</ele>
        <time>2026-08-04T04:19:10.278Z</time>
      </trkpt>
      <trkpt lat="45.90094" lon="6.81827">
        <ele>1038</ele>
        <time>2026-08-04T04:19:11.278Z</time>
      </trkpt>
      <trkpt lat="45.90092" lon="6.81828">
        <ele>1038</ele>
        <time>2026-08-04T04:19:12.278Z</time>
      </trkpt>
      <trkpt lat="45.90091" lon="6.81831">
        <ele>1038</ele>
        <time>2026-08-04T04:19:13.278Z</time>
      </trkpt>
      <trkpt lat="45.90089" lon="6.81833">
        <ele>1037</ele>
        <time>2026-08-04T04:19:14.278Z</time>
      </trkpt>
      <trkpt lat="45.90089" lon="6.81835">
        <ele>1037</ele>
        <time>2026-08-04T04:19:15.278Z</time>
      </trkpt>
      <trkpt lat="45.90088" lon="6.81838">
        <ele>1037</ele>
        <time>2026-08-04T04:19:16.278Z</time>
      </trkpt>
      <trkpt lat="45.90087" lon="6.8184">
        <ele>1036</ele>
        <time>2026-08-04T04:19:17.278Z</time>
      </trkpt>
      <trkpt lat="45.90087" lon="6.81843">
        <ele>1036</ele>
        <time>2026-08-04T04:19:18.278Z</time>
      </trkpt>
      <trkpt lat="45.90087" lon="6.81846">
        <ele>1036</ele>
        <time>2026-08-04T04:19:19.278Z</time>
      </trkpt>
      <trkpt lat="45.90087" lon="6.81848">
        <ele>1036</ele>
        <time>2026-08-04T04:19:20.278Z</time>
      </trkpt>
      <trkpt lat="45.90088" lon="6.8185">
        <ele>1036</ele>
        <time>2026-08-04T04:19:21.278Z</time>
      </trkpt>
      <trkpt lat="45.90088" lon="6.81852">
        <ele>1036</ele>
        <time>2026-08-04T04:19:22.278Z</time>
      </trkpt>
      <trkpt lat="45.90089" lon="6.81853">
        <ele>1036</ele>
        <time>2026-08-04T04:19:23.278Z</time>
      </trkpt>
      <trkpt lat="45.90089" lon="6.81854">
        <ele>1035</ele>
        <time>2026-08-04T04:19:24.278Z</time>
      </trkpt>
      <trkpt lat="45.9009" lon="6.81856">
        <ele>1035</ele>
        <time>2026-08-04T04:19:25.278Z</time>
      </trkpt>
      <trkpt lat="45.90091" lon="6.81856">
        <ele>1035</ele>
        <time>2026-08-04T04:19:26.278Z</time>
      </trkpt>
      <trkpt lat="45.90091" lon="6.81856">
        <ele>1035</ele>
        <time>2026-08-04T04:19:27.278Z</time>
      </trkpt>
      <trkpt lat="45.90092" lon="6.81857">
        <ele>1035</ele>
        <time>2026-08-04T04:19:28.278Z</time>
      </trkpt>
      <trkpt lat="45.90091" lon="6.81857">
        <ele>1036</ele>
        <time>2026-08-04T04:19:29.278Z</time>
      </trkpt>
      <trkpt lat="45.90091" lon="6.81857">
        <ele>1036</ele>
        <time>2026-08-04T04:19:30.278Z</time>
      </trkpt>
      <trkpt lat="45.90091" lon="6.81858">
        <ele>1037</ele>
        <time>2026-08-04T04:19:31.278Z</time>
      </trkpt>
      <trkpt lat="45.9009" lon="6.8186">
        <ele>1037</ele>
        <time>2026-08-04T04:19:32.278Z</time>
      </trkpt>
      <trkpt lat="45.9009" lon="6.81863">
        <ele>1038</ele>
        <time>2026-08-04T04:19:33.278Z</time>
      </trkpt>
      <trkpt lat="45.9009" lon="6.81865">
        <ele>1038</ele>
        <time>2026-08-04T04:19:34.278Z</time>
      </trkpt>
      <trkpt lat="45.9009" lon="6.81866">
        <ele>1038</ele>
        <time>2026-08-04T04:19:35.278Z</time>
      </trkpt>
      <trkpt lat="45.90089" lon="6.81869">
        <ele>1038</ele>
        <time>2026-08-04T04:19:36.278Z</time>
      </trkpt>
      <trkpt lat="45.90089" lon="6.81872">
        <ele>1039</ele>
        <time>2026-08-04T04:19:37.278Z</time>
      </trkpt>
      <trkpt lat="45.90088" lon="6.81876">
        <ele>1039</ele>
        <time>2026-08-04T04:19:38.278Z</time>
      </trkpt>
      <trkpt lat="45.90088" lon="6.81878">
        <ele>1039</ele>
        <time>2026-08-04T04:19:39.278Z</time>
      </trkpt>
      <trkpt lat="45.90088" lon="6.81882">
        <ele>1038</ele>
        <time>2026-08-04T04:19:40.278Z</time>
      </trkpt>
      <trkpt lat="45.90087" lon="6.81886">
        <ele>1038</ele>
        <time>2026-08-04T04:19:41.278Z</time>
      </trkpt>
      <trkpt lat="45.90087" lon="6.81889">
        <ele>1038</ele>
        <time>2026-08-04T04:19:42.278Z</time>
      </trkpt>
      <trkpt lat="45.90086" lon="6.81891">
        <ele>1037</ele>
        <time>2026-08-04T04:19:43.278Z</time>
      </trkpt>
      <trkpt lat="45.90085" lon="6.81894">
        <ele>1037</ele>
        <time>2026-08-04T04:19:44.278Z</time>
      </trkpt>
      <trkpt lat="45.90085" lon="6.81898">
        <ele>1036</ele>
        <time>2026-08-04T04:19:45.278Z</time>
      </trkpt>
      <trkpt lat="45.90084" lon="6.81901">
        <ele>1035</ele>
        <time>2026-08-04T04:19:46.278Z</time>
      </trkpt>
      <trkpt lat="45.90083" lon="6.81905">
        <ele>1035</ele>
        <time>2026-08-04T04:19:47.278Z</time>
      </trkpt>
      <trkpt lat="45.90082" lon="6.81907">
        <ele>1034</ele>
        <time>2026-08-04T04:19:48.278Z</time>
      </trkpt>
      <trkpt lat="45.90081" lon="6.8191">
        <ele>1034</ele>
        <time>2026-08-04T04:19:49.278Z</time>
      </trkpt>
      <trkpt lat="45.9008" lon="6.81912">
        <ele>1033</ele>
        <time>2026-08-04T04:19:50.278Z</time>
      </trkpt>
      <trkpt lat="45.90079" lon="6.81914">
        <ele>1033</ele>
        <time>2026-08-04T04:19:51.278Z</time>
      </trkpt>
      <trkpt lat="45.90079" lon="6.81916">
        <ele>1033</ele>
        <time>2026-08-04T04:19:52.278Z</time>
      </trkpt>
      <trkpt lat="45.90078" lon="6.81919">
        <ele>1033</ele>
        <time>2026-08-04T04:19:53.278Z</time>
      </trkpt>
      <trkpt lat="45.90078" lon="6.81921">
        <ele>1033</ele>
        <time>2026-08-04T04:19:54.278Z</time>
      </trkpt>
      <trkpt lat="45.90078" lon="6.81923">
        <ele>1032</ele>
        <time>2026-08-04T04:19:55.278Z</time>
      </trkpt>
      <trkpt lat="45.90078" lon="6.81926">
        <ele>1032</ele>
        <time>2026-08-04T04:19:56.278Z</time>
      </trkpt>
      <trkpt lat="45.90078" lon="6.81929">
        <ele>1031</ele>
        <time>2026-08-04T04:19:57.278Z</time>
      </trkpt>
      <trkpt lat="45.90078" lon="6.81932">
        <ele>1031</ele>
        <time>2026-08-04T04:19:58.279Z</time>
      </trkpt>
      <trkpt lat="45.90079" lon="6.81935">
        <ele>1031</ele>
        <time>2026-08-04T04:19:59.278Z</time>
      </trkpt>
      <trkpt lat="45.90079" lon="6.81938">
        <ele>1031</ele>
        <time>2026-08-04T04:20:00.278Z</time>
      </trkpt>
      <trkpt lat="45.9008" lon="6.8194">
        <ele>1030</ele>
        <time>2026-08-04T04:20:01.278Z</time>
      </trkpt>
      <trkpt lat="45.9008" lon="6.81944">
        <ele>1030</ele>
        <time>2026-08-04T04:20:02.278Z</time>
      </trkpt>
      <trkpt lat="45.90081" lon="6.81947">
        <ele>1029</ele>
        <time>2026-08-04T04:20:03.278Z</time>
      </trkpt>
      <trkpt lat="45.90083" lon="6.81949">
        <ele>1028</ele>
        <time>2026-08-04T04:20:04.278Z</time>
      </trkpt>
      <trkpt lat="45.90084" lon="6.81952">
        <ele>1028</ele>
        <time>2026-08-04T04:20:05.278Z</time>
      </trkpt>
      <trkpt lat="45.90084" lon="6.81955">
        <ele>1027</ele>
        <time>2026-08-04T04:20:06.278Z</time>
      </trkpt>
      <trkpt lat="45.90085" lon="6.81957">
        <ele>1027</ele>
        <time>2026-08-04T04:20:07.278Z</time>
      </trkpt>
      <trkpt lat="45.90085" lon="6.8196">
        <ele>1026</ele>
        <time>2026-08-04T04:20:08.278Z</time>
      </trkpt>
      <trkpt lat="45.90085" lon="6.81962">
        <ele>1026</ele>
        <time>2026-08-04T04:20:09.278Z</time>
      </trkpt>
      <trkpt lat="45.90086" lon="6.81964">
        <ele>1026</ele>
        <time>2026-08-04T04:20:10.278Z</time>
      </trkpt>
      <trkpt lat="45.90086" lon="6.81967">
        <ele>1026</ele>
        <time>2026-08-04T04:20:11.278Z</time>
      </trkpt>
      <trkpt lat="45.90086" lon="6.8197">
        <ele>1026</ele>
        <time>2026-08-04T04:20:12.278Z</time>
      </trkpt>
      <trkpt lat="45.90086" lon="6.81973">
        <ele>1026</ele>
        <time>2026-08-04T04:20:13.278Z</time>
      </trkpt>
      <trkpt lat="45.90087" lon="6.81976">
        <ele>1026</ele>
        <time>2026-08-04T04:20:14.278Z</time>
      </trkpt>
      <trkpt lat="45.90088" lon="6.8198">
        <ele>1026</ele>
        <time>2026-08-04T04:20:15.278Z</time>
      </trkpt>
      <trkpt lat="45.90088" lon="6.81982">
        <ele>1026</ele>
        <time>2026-08-04T04:20:16.278Z</time>
      </trkpt>
      <trkpt lat="45.90088" lon="6.81985">
        <ele>1025</ele>
        <time>2026-08-04T04:20:17.278Z</time>
      </trkpt>
      <trkpt lat="45.90089" lon="6.81988">
        <ele>1025</ele>
        <time>2026-08-04T04:20:18.278Z</time>
      </trkpt>
      <trkpt lat="45.90089" lon="6.8199">
        <ele>1024</ele>
        <time>2026-08-04T04:20:19.278Z</time>
      </trkpt>
      <trkpt lat="45.9009" lon="6.81993">
        <ele>1024</ele>
        <time>2026-08-04T04:20:20.278Z</time>
      </trkpt>
      <trkpt lat="45.9009" lon="6.81996">
        <ele>1024</ele>
        <time>2026-08-04T04:20:21.278Z</time>
      </trkpt>
      <trkpt lat="45.90091" lon="6.81999">
        <ele>1023</ele>
        <time>2026-08-04T04:20:22.278Z</time>
      </trkpt>
      <trkpt lat="45.90091" lon="6.82002">
        <ele>1023</ele>
        <time>2026-08-04T04:20:23.278Z</time>
      </trkpt>
      <trkpt lat="45.90092" lon="6.82005">
        <ele>1023</ele>
        <time>2026-08-04T04:20:24.278Z</time>
      </trkpt>
      <trkpt lat="45.90092" lon="6.82008">
        <ele>1022</ele>
        <time>2026-08-04T04:20:25.278Z</time>
      </trkpt>
      <trkpt lat="45.90092" lon="6.82011">
        <ele>1022</ele>
        <time>2026-08-04T04:20:26.278Z</time>
      </trkpt>
      <trkpt lat="45.90092" lon="6.82015">
        <ele>1022</ele>
        <time>2026-08-04T04:20:27.278Z</time>
      </trkpt>
      <trkpt lat="45.90091" lon="6.82019">
        <ele>1022</ele>
        <time>2026-08-04T04:20:28.278Z</time>
      </trkpt>
      <trkpt lat="45.9009" lon="6.82021">
        <ele>1022</ele>
        <time>2026-08-04T04:20:29.278Z</time>
      </trkpt>
      <trkpt lat="45.90089" lon="6.82025">
        <ele>1021</ele>
        <time>2026-08-04T04:20:30.278Z</time>
      </trkpt>
      <trkpt lat="45.90088" lon="6.82028">
        <ele>1021</ele>
        <time>2026-08-04T04:20:31.278Z</time>
      </trkpt>
      <trkpt lat="45.90087" lon="6.82031">
        <ele>1021</ele>
        <time>2026-08-04T04:20:32.278Z</time>
      </trkpt>
      <trkpt lat="45.90085" lon="6.82035">
        <ele>1021</ele>
        <time>2026-08-04T04:20:33.278Z</time>
      </trkpt>
      <trkpt lat="45.90084" lon="6.82039">
        <ele>1020</ele>
        <time>2026-08-04T04:20:34.278Z</time>
      </trkpt>
      <trkpt lat="45.90083" lon="6.82041">
        <ele>1020</ele>
        <time>2026-08-04T04:20:35.278Z</time>
      </trkpt>
      <trkpt lat="45.90083" lon="6.82045">
        <ele>1020</ele>
        <time>2026-08-04T04:20:36.278Z</time>
      </trkpt>
      <trkpt lat="45.90082" lon="6.82048">
        <ele>1020</ele>
        <time>2026-08-04T04:20:37.278Z</time>
      </trkpt>
      <trkpt lat="45.90081" lon="6.82051">
        <ele>1020</ele>
        <time>2026-08-04T04:20:38.278Z</time>
      </trkpt>
      <trkpt lat="45.9008" lon="6.82054">
        <ele>1019</ele>
        <time>2026-08-04T04:20:39.278Z</time>
      </trkpt>
      <trkpt lat="45.90079" lon="6.82057">
        <ele>1018</ele>
        <time>2026-08-04T04:20:40.278Z</time>
      </trkpt>
      <trkpt lat="45.90078" lon="6.8206">
        <ele>1018</ele>
        <time>2026-08-04T04:20:41.278Z</time>
      </trkpt>
      <trkpt lat="45.90077" lon="6.82064">
        <ele>1017</ele>
        <time>2026-08-04T04:20:42.278Z</time>
      </trkpt>
      <trkpt lat="45.90076" lon="6.82067">
        <ele>1017</ele>
        <time>2026-08-04T04:20:43.278Z</time>
      </trkpt>
      <trkpt lat="45.90075" lon="6.8207">
        <ele>1016</ele>
        <time>2026-08-04T04:20:44.278Z</time>
      </trkpt>
      <trkpt lat="45.90073" lon="6.82071">
        <ele>1016</ele>
        <time>2026-08-04T04:20:45.278Z</time>
      </trkpt>
      <trkpt lat="45.90072" lon="6.82073">
        <ele>1015</ele>
        <time>2026-08-04T04:20:46.278Z</time>
      </trkpt>
      <trkpt lat="45.9007" lon="6.82075">
        <ele>1015</ele>
        <time>2026-08-04T04:20:47.278Z</time>
      </trkpt>
      <trkpt lat="45.90069" lon="6.82078">
        <ele>1015</ele>
        <time>2026-08-04T04:20:48.278Z</time>
      </trkpt>
      <trkpt lat="45.90069" lon="6.8208">
        <ele>1014</ele>
        <time>2026-08-04T04:20:49.278Z</time>
      </trkpt>
      <trkpt lat="45.90068" lon="6.82082">
        <ele>1014</ele>
        <time>2026-08-04T04:20:50.278Z</time>
      </trkpt>
      <trkpt lat="45.90068" lon="6.82085">
        <ele>1014</ele>
        <time>2026-08-04T04:20:51.278Z</time>
      </trkpt>
      <trkpt lat="45.90068" lon="6.82088">
        <ele>1013</ele>
        <time>2026-08-04T04:20:52.278Z</time>
      </trkpt>
      <trkpt lat="45.90068" lon="6.82091">
        <ele>1013</ele>
        <time>2026-08-04T04:20:53.278Z</time>
      </trkpt>
      <trkpt lat="45.90067" lon="6.82094">
        <ele>1013</ele>
        <time>2026-08-04T04:20:54.278Z</time>
      </trkpt>
      <trkpt lat="45.90066" lon="6.82097">
        <ele>1013</ele>
        <time>2026-08-04T04:20:55.278Z</time>
      </trkpt>
      <trkpt lat="45.90065" lon="6.82101">
        <ele>1012</ele>
        <time>2026-08-04T04:20:56.278Z</time>
      </trkpt>
      <trkpt lat="45.90064" lon="6.82105">
        <ele>1012</ele>
        <time>2026-08-04T04:20:57.278Z</time>
      </trkpt>
      <trkpt lat="45.90064" lon="6.82108">
        <ele>1012</ele>
        <time>2026-08-04T04:20:58.278Z</time>
      </trkpt>
      <trkpt lat="45.90063" lon="6.82111">
        <ele>1012</ele>
        <time>2026-08-04T04:20:59.278Z</time>
      </trkpt>
      <trkpt lat="45.90063" lon="6.82115">
        <ele>1011</ele>
        <time>2026-08-04T04:21:00.278Z</time>
      </trkpt>
      <trkpt lat="45.90063" lon="6.82118">
        <ele>1011</ele>
        <time>2026-08-04T04:21:01.278Z</time>
      </trkpt>
      <trkpt lat="45.90061" lon="6.82122">
        <ele>1010</ele>
        <time>2026-08-04T04:21:02.278Z</time>
      </trkpt>
      <trkpt lat="45.9006" lon="6.82125">
        <ele>1010</ele>
        <time>2026-08-04T04:21:03.278Z</time>
      </trkpt>
      <trkpt lat="45.90059" lon="6.82129">
        <ele>1009</ele>
        <time>2026-08-04T04:21:04.278Z</time>
      </trkpt>
      <trkpt lat="45.90059" lon="6.82132">
        <ele>1009</ele>
        <time>2026-08-04T04:21:05.278Z</time>
      </trkpt>
      <trkpt lat="45.90059" lon="6.82134">
        <ele>1009</ele>
        <time>2026-08-04T04:21:06.278Z</time>
      </trkpt>
      <trkpt lat="45.90059" lon="6.82137">
        <ele>1009</ele>
        <time>2026-08-04T04:21:07.278Z</time>
      </trkpt>
      <trkpt lat="45.90059" lon="6.8214">
        <ele>1009</ele>
        <time>2026-08-04T04:21:08.278Z</time>
      </trkpt>
      <trkpt lat="45.90059" lon="6.82142">
        <ele>1009</ele>
        <time>2026-08-04T04:21:09.278Z</time>
      </trkpt>
      <trkpt lat="45.9006" lon="6.82146">
        <ele>1009</ele>
        <time>2026-08-04T04:21:10.278Z</time>
      </trkpt>
      <trkpt lat="45.90061" lon="6.82148">
        <ele>1008</ele>
        <time>2026-08-04T04:21:11.278Z</time>
      </trkpt>
      <trkpt lat="45.90062" lon="6.82151">
        <ele>1008</ele>
        <time>2026-08-04T04:21:12.278Z</time>
      </trkpt>
      <trkpt lat="45.90063" lon="6.82154">
        <ele>1008</ele>
        <time>2026-08-04T04:21:13.278Z</time>
      </trkpt>
      <trkpt lat="45.90064" lon="6.82157">
        <ele>1008</ele>
        <time>2026-08-04T04:21:14.278Z</time>
      </trkpt>
      <trkpt lat="45.90065" lon="6.82161">
        <ele>1008</ele>
        <time>2026-08-04T04:21:15.278Z</time>
      </trkpt>
      <trkpt lat="45.90065" lon="6.82163">
        <ele>1007</ele>
        <time>2026-08-04T04:21:16.278Z</time>
      </trkpt>
      <trkpt lat="45.90066" lon="6.82167">
        <ele>1007</ele>
        <time>2026-08-04T04:21:17.278Z</time>
      </trkpt>
      <trkpt lat="45.90066" lon="6.82169">
        <ele>1007</ele>
        <time>2026-08-04T04:21:18.278Z</time>
      </trkpt>
      <trkpt lat="45.90067" lon="6.82171">
        <ele>1006</ele>
        <time>2026-08-04T04:21:19.278Z</time>
      </trkpt>
      <trkpt lat="45.90068" lon="6.82174">
        <ele>1006</ele>
        <time>2026-08-04T04:21:20.278Z</time>
      </trkpt>
      <trkpt lat="45.90069" lon="6.82177">
        <ele>1006</ele>
        <time>2026-08-04T04:21:21.278Z</time>
      </trkpt>
      <trkpt lat="45.9007" lon="6.8218">
        <ele>1005</ele>
        <time>2026-08-04T04:21:22.278Z</time>
      </trkpt>
      <trkpt lat="45.90071" lon="6.82182">
        <ele>1005</ele>
        <time>2026-08-04T04:21:23.278Z</time>
      </trkpt>
      <trkpt lat="45.90072" lon="6.82186">
        <ele>1005</ele>
        <time>2026-08-04T04:21:24.278Z</time>
      </trkpt>
      <trkpt lat="45.90074" lon="6.82189">
        <ele>1005</ele>
        <time>2026-08-04T04:21:25.278Z</time>
      </trkpt>
      <trkpt lat="45.90075" lon="6.82192">
        <ele>1004</ele>
        <time>2026-08-04T04:21:26.278Z</time>
      </trkpt>
      <trkpt lat="45.90077" lon="6.82195">
        <ele>1004</ele>
        <time>2026-08-04T04:21:27.278Z</time>
      </trkpt>
      <trkpt lat="45.90079" lon="6.82198">
        <ele>1004</ele>
        <time>2026-08-04T04:21:28.278Z</time>
      </trkpt>
      <trkpt lat="45.9008" lon="6.82202">
        <ele>1003</ele>
        <time>2026-08-04T04:21:29.278Z</time>
      </trkpt>
      <trkpt lat="45.90081" lon="6.82205">
        <ele>1003</ele>
        <time>2026-08-04T04:21:30.278Z</time>
      </trkpt>
      <trkpt lat="45.9008" lon="6.8221">
        <ele>1003</ele>
        <time>2026-08-04T04:21:31.278Z</time>
      </trkpt>
      <trkpt lat="45.90081" lon="6.82213">
        <ele>1003</ele>
        <time>2026-08-04T04:21:32.278Z</time>
      </trkpt>
      <trkpt lat="45.90081" lon="6.82217">
        <ele>1003</ele>
        <time>2026-08-04T04:21:33.278Z</time>
      </trkpt>
      <trkpt lat="45.90081" lon="6.8222">
        <ele>1003</ele>
        <time>2026-08-04T04:21:34.278Z</time>
      </trkpt>
      <trkpt lat="45.90081" lon="6.82223">
        <ele>1003</ele>
        <time>2026-08-04T04:21:35.278Z</time>
      </trkpt>
      <trkpt lat="45.90081" lon="6.82227">
        <ele>1003</ele>
        <time>2026-08-04T04:21:36.278Z</time>
      </trkpt>
      <trkpt lat="45.90081" lon="6.8223">
        <ele>1003</ele>
        <time>2026-08-04T04:21:37.278Z</time>
      </trkpt>
      <trkpt lat="45.90082" lon="6.82233">
        <ele>1003</ele>
        <time>2026-08-04T04:21:38.278Z</time>
      </trkpt>
      <trkpt lat="45.90082" lon="6.82237">
        <ele>1003</ele>
        <time>2026-08-04T04:21:39.278Z</time>
      </trkpt>
      <trkpt lat="45.90084" lon="6.8224">
        <ele>1003</ele>
        <time>2026-08-04T04:21:40.278Z</time>
      </trkpt>
      <trkpt lat="45.90085" lon="6.82244">
        <ele>1003</ele>
        <time>2026-08-04T04:21:41.278Z</time>
      </trkpt>
      <trkpt lat="45.90085" lon="6.82247">
        <ele>1003</ele>
        <time>2026-08-04T04:21:42.278Z</time>
      </trkpt>
      <trkpt lat="45.90085" lon="6.82251">
        <ele>1003</ele>
        <time>2026-08-04T04:21:43.278Z</time>
      </trkpt>
      <trkpt lat="45.90086" lon="6.82254">
        <ele>1003</ele>
        <time>2026-08-04T04:21:44.278Z</time>
      </trkpt>
      <trkpt lat="45.90086" lon="6.82257">
        <ele>1003</ele>
        <time>2026-08-04T04:21:45.278Z</time>
      </trkpt>
      <trkpt lat="45.90086" lon="6.82259">
        <ele>1003</ele>
        <time>2026-08-04T04:21:46.278Z</time>
      </trkpt>
      <trkpt lat="45.90086" lon="6.82262">
        <ele>1004</ele>
        <time>2026-08-04T04:21:47.278Z</time>
      </trkpt>
      <trkpt lat="45.90087" lon="6.82265">
        <ele>1004</ele>
        <time>2026-08-04T04:21:48.278Z</time>
      </trkpt>
      <trkpt lat="45.90087" lon="6.82269">
        <ele>1003</ele>
        <time>2026-08-04T04:21:49.278Z</time>
      </trkpt>
      <trkpt lat="45.90087" lon="6.82272">
        <ele>1003</ele>
        <time>2026-08-04T04:21:50.278Z</time>
      </trkpt>
      <trkpt lat="45.90086" lon="6.82276">
        <ele>1003</ele>
        <time>2026-08-04T04:21:51.278Z</time>
      </trkpt>
      <trkpt lat="45.90086" lon="6.82279">
        <ele>1002</ele>
        <time>2026-08-04T04:21:52.278Z</time>
      </trkpt>
      <trkpt lat="45.90086" lon="6.82282">
        <ele>1002</ele>
        <time>2026-08-04T04:21:53.278Z</time>
      </trkpt>
      <trkpt lat="45.90086" lon="6.82285">
        <ele>1002</ele>
        <time>2026-08-04T04:21:54.278Z</time>
      </trkpt>
      <trkpt lat="45.90086" lon="6.82288">
        <ele>1002</ele>
        <time>2026-08-04T04:21:55.278Z</time>
      </trkpt>
      <trkpt lat="45.90087" lon="6.82291">
        <ele>1002</ele>
        <time>2026-08-04T04:21:56.278Z</time>
      </trkpt>
      <trkpt lat="45.90087" lon="6.82293">
        <ele>1002</ele>
        <time>2026-08-04T04:21:57.278Z</time>
      </trkpt>
      <trkpt lat="45.90088" lon="6.82296">
        <ele>1002</ele>
        <time>2026-08-04T04:21:58.278Z</time>
      </trkpt>
      <trkpt lat="45.90088" lon="6.82298">
        <ele>1002</ele>
        <time>2026-08-04T04:21:59.278Z</time>
      </trkpt>
      <trkpt lat="45.90088" lon="6.82301">
        <ele>1002</ele>
        <time>2026-08-04T04:22:00.278Z</time>
      </trkpt>
      <trkpt lat="45.90089" lon="6.82304">
        <ele>1003</ele>
        <time>2026-08-04T04:22:01.278Z</time>
      </trkpt>
      <trkpt lat="45.9009" lon="6.82307">
        <ele>1003</ele>
        <time>2026-08-04T04:22:02.278Z</time>
      </trkpt>
      <trkpt lat="45.90091" lon="6.8231">
        <ele>1002</ele>
        <time>2026-08-04T04:22:03.278Z</time>
      </trkpt>
      <trkpt lat="45.90092" lon="6.82314">
        <ele>1002</ele>
        <time>2026-08-04T04:22:04.278Z</time>
      </trkpt>
      <trkpt lat="45.90092" lon="6.82316">
        <ele>1002</ele>
        <time>2026-08-04T04:22:05.278Z</time>
      </trkpt>
      <trkpt lat="45.90093" lon="6.82318">
        <ele>1002</ele>
        <time>2026-08-04T04:22:06.278Z</time>
      </trkpt>
      <trkpt lat="45.90094" lon="6.82321">
        <ele>1002</ele>
        <time>2026-08-04T04:22:07.278Z</time>
      </trkpt>
      <trkpt lat="45.90094" lon="6.82324">
        <ele>1003</ele>
        <time>2026-08-04T04:22:08.278Z</time>
      </trkpt>
      <trkpt lat="45.90095" lon="6.82327">
        <ele>1003</ele>
        <time>2026-08-04T04:22:09.278Z</time>
      </trkpt>
      <trkpt lat="45.90095" lon="6.82329">
        <ele>1003</ele>
        <time>2026-08-04T04:22:10.278Z</time>
      </trkpt>
      <trkpt lat="45.90096" lon="6.82332">
        <ele>1003</ele>
        <time>2026-08-04T04:22:11.278Z</time>
      </trkpt>
      <trkpt lat="45.90096" lon="6.82334">
        <ele>1003</ele>
        <time>2026-08-04T04:22:12.278Z</time>
      </trkpt>
      <trkpt lat="45.90097" lon="6.82336">
        <ele>1003</ele>
        <time>2026-08-04T04:22:13.278Z</time>
      </trkpt>
      <trkpt lat="45.90097" lon="6.82339">
        <ele>1003</ele>
        <time>2026-08-04T04:22:14.278Z</time>
      </trkpt>
      <trkpt lat="45.90098" lon="6.82341">
        <ele>1003</ele>
        <time>2026-08-04T04:22:15.278Z</time>
      </trkpt>
      <trkpt lat="45.90099" lon="6.82343">
        <ele>1003</ele>
        <time>2026-08-04T04:22:16.278Z</time>
      </trkpt>
      <trkpt lat="45.90099" lon="6.82345">
        <ele>1003</ele>
        <time>2026-08-04T04:22:17.278Z</time>
      </trkpt>
      <trkpt lat="45.90099" lon="6.82347">
        <ele>1003</ele>
        <time>2026-08-04T04:22:18.278Z</time>
      </trkpt>
      <trkpt lat="45.901" lon="6.82349">
        <ele>1003</ele>
        <time>2026-08-04T04:22:19.278Z</time>
      </trkpt>
      <trkpt lat="45.901" lon="6.82353">
        <ele>1003</ele>
        <time>2026-08-04T04:22:20.278Z</time>
      </trkpt>
      <trkpt lat="45.90101" lon="6.82355">
        <ele>1003</ele>
        <time>2026-08-04T04:22:21.278Z</time>
      </trkpt>
      <trkpt lat="45.90102" lon="6.82359">
        <ele>1003</ele>
        <time>2026-08-04T04:22:22.278Z</time>
      </trkpt>
      <trkpt lat="45.90104" lon="6.82362">
        <ele>1003</ele>
        <time>2026-08-04T04:22:23.278Z</time>
      </trkpt>
      <trkpt lat="45.90106" lon="6.82366">
        <ele>1002</ele>
        <time>2026-08-04T04:22:24.278Z</time>
      </trkpt>
      <trkpt lat="45.90107" lon="6.82371">
        <ele>1002</ele>
        <time>2026-08-04T04:22:25.278Z</time>
      </trkpt>
      <trkpt lat="45.90107" lon="6.82374">
        <ele>1002</ele>
        <time>2026-08-04T04:22:26.278Z</time>
      </trkpt>
      <trkpt lat="45.90108" lon="6.82378">
        <ele>1002</ele>
        <time>2026-08-04T04:22:27.278Z</time>
      </trkpt>
      <trkpt lat="45.90109" lon="6.82382">
        <ele>1002</ele>
        <time>2026-08-04T04:22:28.278Z</time>
      </trkpt>
      <trkpt lat="45.9011" lon="6.82386">
        <ele>1001</ele>
        <time>2026-08-04T04:22:29.278Z</time>
      </trkpt>
      <trkpt lat="45.90111" lon="6.8239">
        <ele>1001</ele>
        <time>2026-08-04T04:22:30.278Z</time>
      </trkpt>
      <trkpt lat="45.90111" lon="6.82393">
        <ele>1001</ele>
        <time>2026-08-04T04:22:31.278Z</time>
      </trkpt>
      <trkpt lat="45.90112" lon="6.82397">
        <ele>1001</ele>
        <time>2026-08-04T04:22:32.278Z</time>
      </trkpt>
      <trkpt lat="45.90112" lon="6.824">
        <ele>1001</ele>
        <time>2026-08-04T04:22:33.278Z</time>
      </trkpt>
      <trkpt lat="45.90113" lon="6.82404">
        <ele>1001</ele>
        <time>2026-08-04T04:22:34.278Z</time>
      </trkpt>
      <trkpt lat="45.90113" lon="6.82407">
        <ele>1001</ele>
        <time>2026-08-04T04:22:35.278Z</time>
      </trkpt>
      <trkpt lat="45.90114" lon="6.82411">
        <ele>1001</ele>
        <time>2026-08-04T04:22:36.278Z</time>
      </trkpt>
      <trkpt lat="45.90115" lon="6.82416">
        <ele>1001</ele>
        <time>2026-08-04T04:22:37.278Z</time>
      </trkpt>
      <trkpt lat="45.90115" lon="6.82419">
        <ele>1001</ele>
        <time>2026-08-04T04:22:38.278Z</time>
      </trkpt>
      <trkpt lat="45.90116" lon="6.82422">
        <ele>1001</ele>
        <time>2026-08-04T04:22:39.278Z</time>
      </trkpt>
      <trkpt lat="45.90117" lon="6.82424">
        <ele>1001</ele>
        <time>2026-08-04T04:22:40.278Z</time>
      </trkpt>
      <trkpt lat="45.90118" lon="6.82427">
        <ele>1001</ele>
        <time>2026-08-04T04:22:41.278Z</time>
      </trkpt>
      <trkpt lat="45.90118" lon="6.82429">
        <ele>1002</ele>
        <time>2026-08-04T04:22:42.278Z</time>
      </trkpt>
      <trkpt lat="45.90119" lon="6.82432">
        <ele>1002</ele>
        <time>2026-08-04T04:22:43.278Z</time>
      </trkpt>
      <trkpt lat="45.90119" lon="6.82434">
        <ele>1002</ele>
        <time>2026-08-04T04:22:44.278Z</time>
      </trkpt>
      <trkpt lat="45.9012" lon="6.82438">
        <ele>1002</ele>
        <time>2026-08-04T04:22:45.278Z</time>
      </trkpt>
      <trkpt lat="45.9012" lon="6.82441">
        <ele>1002</ele>
        <time>2026-08-04T04:22:46.278Z</time>
      </trkpt>
      <trkpt lat="45.90121" lon="6.82445">
        <ele>1002</ele>
        <time>2026-08-04T04:22:47.278Z</time>
      </trkpt>
      <trkpt lat="45.90122" lon="6.82448">
        <ele>1002</ele>
        <time>2026-08-04T04:22:48.278Z</time>
      </trkpt>
      <trkpt lat="45.90122" lon="6.82451">
        <ele>1002</ele>
        <time>2026-08-04T04:22:49.278Z</time>
      </trkpt>
      <trkpt lat="45.90122" lon="6.82454">
        <ele>1002</ele>
        <time>2026-08-04T04:22:50.278Z</time>
      </trkpt>
      <trkpt lat="45.90123" lon="6.82457">
        <ele>1002</ele>
        <time>2026-08-04T04:22:51.278Z</time>
      </trkpt>
      <trkpt lat="45.90124" lon="6.82459">
        <ele>1001</ele>
        <time>2026-08-04T04:22:52.278Z</time>
      </trkpt>
      <trkpt lat="45.90125" lon="6.82461">
        <ele>1001</ele>
        <time>2026-08-04T04:22:53.278Z</time>
      </trkpt>
      <trkpt lat="45.90125" lon="6.82464">
        <ele>1001</ele>
        <time>2026-08-04T04:22:54.278Z</time>
      </trkpt>
      <trkpt lat="45.90126" lon="6.82467">
        <ele>1001</ele>
        <time>2026-08-04T04:22:55.278Z</time>
      </trkpt>
      <trkpt lat="45.90127" lon="6.82469">
        <ele>1001</ele>
        <time>2026-08-04T04:22:56.278Z</time>
      </trkpt>
      <trkpt lat="45.90128" lon="6.82471">
        <ele>1002</ele>
        <time>2026-08-04T04:22:57.278Z</time>
      </trkpt>
      <trkpt lat="45.90127" lon="6.82474">
        <ele>1002</ele>
        <time>2026-08-04T04:22:58.278Z</time>
      </trkpt>
      <trkpt lat="45.90127" lon="6.82478">
        <ele>1003</ele>
        <time>2026-08-04T04:22:59.278Z</time>
      </trkpt>
      <trkpt lat="45.90127" lon="6.82482">
        <ele>1003</ele>
        <time>2026-08-04T04:23:00.278Z</time>
      </trkpt>
      <trkpt lat="45.90127" lon="6.82485">
        <ele>1003</ele>
        <time>2026-08-04T04:23:01.278Z</time>
      </trkpt>
      <trkpt lat="45.90128" lon="6.82488">
        <ele>1003</ele>
        <time>2026-08-04T04:23:02.278Z</time>
      </trkpt>
      <trkpt lat="45.90128" lon="6.82491">
        <ele>1004</ele>
        <time>2026-08-04T04:23:03.278Z</time>
      </trkpt>
      <trkpt lat="45.90129" lon="6.82494">
        <ele>1004</ele>
        <time>2026-08-04T04:23:04.278Z</time>
      </trkpt>
      <trkpt lat="45.9013" lon="6.82496">
        <ele>1004</ele>
        <time>2026-08-04T04:23:05.278Z</time>
      </trkpt>
      <trkpt lat="45.9013" lon="6.82499">
        <ele>1004</ele>
        <time>2026-08-04T04:23:06.278Z</time>
      </trkpt>
      <trkpt lat="45.90131" lon="6.82502">
        <ele>1004</ele>
        <time>2026-08-04T04:23:07.278Z</time>
      </trkpt>
      <trkpt lat="45.90131" lon="6.82504">
        <ele>1005</ele>
        <time>2026-08-04T04:23:08.278Z</time>
      </trkpt>
      <trkpt lat="45.90131" lon="6.82505">
        <ele>1005</ele>
        <time>2026-08-04T04:23:09.278Z</time>
      </trkpt>
      <trkpt lat="45.90132" lon="6.82507">
        <ele>1005</ele>
        <time>2026-08-04T04:23:10.278Z</time>
      </trkpt>
      <trkpt lat="45.90132" lon="6.82508">
        <ele>1005</ele>
        <time>2026-08-04T04:23:11.278Z</time>
      </trkpt>
      <trkpt lat="45.90132" lon="6.82509">
        <ele>1005</ele>
        <time>2026-08-04T04:23:12.278Z</time>
      </trkpt>
      <trkpt lat="45.90133" lon="6.82509">
        <ele>1005</ele>
        <time>2026-08-04T04:23:13.278Z</time>
      </trkpt>
      <trkpt lat="45.90134" lon="6.82511">
        <ele>1005</ele>
        <time>2026-08-04T04:23:14.278Z</time>
      </trkpt>
      <trkpt lat="45.90135" lon="6.82512">
        <ele>1005</ele>
        <time>2026-08-04T04:23:15.278Z</time>
      </trkpt>
      <trkpt lat="45.90136" lon="6.82514">
        <ele>1005</ele>
        <time>2026-08-04T04:23:16.278Z</time>
      </trkpt>
      <trkpt lat="45.90138" lon="6.82515">
        <ele>1005</ele>
        <time>2026-08-04T04:23:17.278Z</time>
      </trkpt>
      <trkpt lat="45.90139" lon="6.82517">
        <ele>1006</ele>
        <time>2026-08-04T04:23:18.278Z</time>
      </trkpt>
      <trkpt lat="45.90141" lon="6.82519">
        <ele>1006</ele>
        <time>2026-08-04T04:23:19.278Z</time>
      </trkpt>
      <trkpt lat="45.90142" lon="6.8252">
        <ele>1007</ele>
        <time>2026-08-04T04:23:20.278Z</time>
      </trkpt>
      <trkpt lat="45.90144" lon="6.82522">
        <ele>1007</ele>
        <time>2026-08-04T04:23:21.278Z</time>
      </trkpt>
      <trkpt lat="45.90145" lon="6.82524">
        <ele>1007</ele>
        <time>2026-08-04T04:23:22.278Z</time>
      </trkpt>
      <trkpt lat="45.90147" lon="6.82528">
        <ele>1007</ele>
        <time>2026-08-04T04:23:23.278Z</time>
      </trkpt>
      <trkpt lat="45.90148" lon="6.82531">
        <ele>1007</ele>
        <time>2026-08-04T04:23:24.278Z</time>
      </trkpt>
      <trkpt lat="45.90149" lon="6.82535">
        <ele>1007</ele>
        <time>2026-08-04T04:23:25.278Z</time>
      </trkpt>
      <trkpt lat="45.9015" lon="6.82537">
        <ele>1007</ele>
        <time>2026-08-04T04:23:26.278Z</time>
      </trkpt>
      <trkpt lat="45.90151" lon="6.8254">
        <ele>1006</ele>
        <time>2026-08-04T04:23:27.278Z</time>
      </trkpt>
      <trkpt lat="45.90152" lon="6.82542">
        <ele>1006</ele>
        <time>2026-08-04T04:23:28.278Z</time>
      </trkpt>
      <trkpt lat="45.90152" lon="6.82544">
        <ele>1005</ele>
        <time>2026-08-04T04:23:29.278Z</time>
      </trkpt>
      <trkpt lat="45.90153" lon="6.82546">
        <ele>1005</ele>
        <time>2026-08-04T04:23:30.278Z</time>
      </trkpt>
      <trkpt lat="45.90155" lon="6.82549">
        <ele>1005</ele>
        <time>2026-08-04T04:23:31.278Z</time>
      </trkpt>
      <trkpt lat="45.90157" lon="6.82552">
        <ele>1005</ele>
        <time>2026-08-04T04:23:32.278Z</time>
      </trkpt>
      <trkpt lat="45.90158" lon="6.82555">
        <ele>1005</ele>
        <time>2026-08-04T04:23:33.278Z</time>
      </trkpt>
      <trkpt lat="45.9016" lon="6.82557">
        <ele>1005</ele>
        <time>2026-08-04T04:23:34.278Z</time>
      </trkpt>
      <trkpt lat="45.90161" lon="6.8256">
        <ele>1004</ele>
        <time>2026-08-04T04:23:35.278Z</time>
      </trkpt>
      <trkpt lat="45.90163" lon="6.82563">
        <ele>1004</ele>
        <time>2026-08-04T04:23:36.278Z</time>
      </trkpt>
      <trkpt lat="45.90164" lon="6.82566">
        <ele>1004</ele>
        <time>2026-08-04T04:23:37.278Z</time>
      </trkpt>
      <trkpt lat="45.90164" lon="6.82568">
        <ele>1004</ele>
        <time>2026-08-04T04:23:38.278Z</time>
      </trkpt>
      <trkpt lat="45.90164" lon="6.82571">
        <ele>1004</ele>
        <time>2026-08-04T04:23:39.278Z</time>
      </trkpt>
      <trkpt lat="45.90165" lon="6.82574">
        <ele>1004</ele>
        <time>2026-08-04T04:23:40.278Z</time>
      </trkpt>
      <trkpt lat="45.90165" lon="6.82577">
        <ele>1003</ele>
        <time>2026-08-04T04:23:41.278Z</time>
      </trkpt>
      <trkpt lat="45.90164" lon="6.8258">
        <ele>1003</ele>
        <time>2026-08-04T04:23:42.278Z</time>
      </trkpt>
      <trkpt lat="45.90164" lon="6.82583">
        <ele>1004</ele>
        <time>2026-08-04T04:23:43.278Z</time>
      </trkpt>
      <trkpt lat="45.90163" lon="6.82586">
        <ele>1004</ele>
        <time>2026-08-04T04:23:44.278Z</time>
      </trkpt>
      <trkpt lat="45.90162" lon="6.8259">
        <ele>1004</ele>
        <time>2026-08-04T04:23:45.278Z</time>
      </trkpt>
      <trkpt lat="45.90161" lon="6.82593">
        <ele>1005</ele>
        <time>2026-08-04T04:23:46.278Z</time>
      </trkpt>
      <trkpt lat="45.90161" lon="6.82597">
        <ele>1005</ele>
        <time>2026-08-04T04:23:47.278Z</time>
      </trkpt>
      <trkpt lat="45.9016" lon="6.82601">
        <ele>1005</ele>
        <time>2026-08-04T04:23:48.278Z</time>
      </trkpt>
      <trkpt lat="45.9016" lon="6.82604">
        <ele>1005</ele>
        <time>2026-08-04T04:23:49.278Z</time>
      </trkpt>
      <trkpt lat="45.9016" lon="6.82608">
        <ele>1004</ele>
        <time>2026-08-04T04:23:50.278Z</time>
      </trkpt>
      <trkpt lat="45.9016" lon="6.8261">
        <ele>1004</ele>
        <time>2026-08-04T04:23:51.278Z</time>
      </trkpt>
      <trkpt lat="45.9016" lon="6.82612">
        <ele>1004</ele>
        <time>2026-08-04T04:23:52.278Z</time>
      </trkpt>
      <trkpt lat="45.90161" lon="6.82614">
        <ele>1004</ele>
        <time>2026-08-04T04:23:53.278Z</time>
      </trkpt>
      <trkpt lat="45.90162" lon="6.82617">
        <ele>1003</ele>
        <time>2026-08-04T04:23:54.278Z</time>
      </trkpt>
      <trkpt lat="45.90164" lon="6.82619">
        <ele>1003</ele>
        <time>2026-08-04T04:23:55.278Z</time>
      </trkpt>
      <trkpt lat="45.90165" lon="6.82621">
        <ele>1003</ele>
        <time>2026-08-04T04:23:56.278Z</time>
      </trkpt>
      <trkpt lat="45.90166" lon="6.82623">
        <ele>1004</ele>
        <time>2026-08-04T04:23:57.278Z</time>
      </trkpt>
      <trkpt lat="45.90167" lon="6.82625">
        <ele>1004</ele>
        <time>2026-08-04T04:23:58.278Z</time>
      </trkpt>
      <trkpt lat="45.90168" lon="6.82627">
        <ele>1004</ele>
        <time>2026-08-04T04:23:59.278Z</time>
      </trkpt>
      <trkpt lat="45.90169" lon="6.8263">
        <ele>1004</ele>
        <time>2026-08-04T04:24:00.278Z</time>
      </trkpt>
      <trkpt lat="45.90171" lon="6.82632">
        <ele>1005</ele>
        <time>2026-08-04T04:24:01.278Z</time>
      </trkpt>
      <trkpt lat="45.90173" lon="6.82635">
        <ele>1004</ele>
        <time>2026-08-04T04:24:02.278Z</time>
      </trkpt>
      <trkpt lat="45.90174" lon="6.82638">
        <ele>1004</ele>
        <time>2026-08-04T04:24:03.278Z</time>
      </trkpt>
      <trkpt lat="45.90175" lon="6.8264">
        <ele>1004</ele>
        <time>2026-08-04T04:24:04.278Z</time>
      </trkpt>
      <trkpt lat="45.90177" lon="6.82642">
        <ele>1004</ele>
        <time>2026-08-04T04:24:05.278Z</time>
      </trkpt>
      <trkpt lat="45.90179" lon="6.82645">
        <ele>1003</ele>
        <time>2026-08-04T04:24:06.278Z</time>
      </trkpt>
      <trkpt lat="45.90181" lon="6.82647">
        <ele>1003</ele>
        <time>2026-08-04T04:24:07.278Z</time>
      </trkpt>
      <trkpt lat="45.90182" lon="6.82648">
        <ele>1003</ele>
        <time>2026-08-04T04:24:08.278Z</time>
      </trkpt>
      <trkpt lat="45.90183" lon="6.82648">
        <ele>1002</ele>
        <time>2026-08-04T04:24:09.278Z</time>
      </trkpt>
      <trkpt lat="45.90184" lon="6.82649">
        <ele>1002</ele>
        <time>2026-08-04T04:24:10.278Z</time>
      </trkpt>
      <trkpt lat="45.90185" lon="6.8265">
        <ele>1002</ele>
        <time>2026-08-04T04:24:11.278Z</time>
      </trkpt>
      <trkpt lat="45.90187" lon="6.82651">
        <ele>1003</ele>
        <time>2026-08-04T04:24:12.278Z</time>
      </trkpt>
      <trkpt lat="45.90189" lon="6.82652">
        <ele>1003</ele>
        <time>2026-08-04T04:24:13.278Z</time>
      </trkpt>
      <trkpt lat="45.9019" lon="6.82652">
        <ele>1004</ele>
        <time>2026-08-04T04:24:14.278Z</time>
      </trkpt>
      <trkpt lat="45.90193" lon="6.82653">
        <ele>1004</ele>
        <time>2026-08-04T04:24:15.278Z</time>
      </trkpt>
      <trkpt lat="45.90195" lon="6.82654">
        <ele>1005</ele>
        <time>2026-08-04T04:24:16.278Z</time>
      </trkpt>
      <trkpt lat="45.90198" lon="6.82654">
        <ele>1005</ele>
        <time>2026-08-04T04:24:17.278Z</time>
      </trkpt>
      <trkpt lat="45.902" lon="6.82656">
        <ele>1006</ele>
        <time>2026-08-04T04:24:18.278Z</time>
      </trkpt>
      <trkpt lat="45.90202" lon="6.82657">
        <ele>1006</ele>
        <time>2026-08-04T04:24:19.278Z</time>
      </trkpt>
      <trkpt lat="45.90204" lon="6.82658">
        <ele>1007</ele>
        <time>2026-08-04T04:24:20.278Z</time>
      </trkpt>
      <trkpt lat="45.90206" lon="6.82659">
        <ele>1008</ele>
        <time>2026-08-04T04:24:21.278Z</time>
      </trkpt>
      <trkpt lat="45.90207" lon="6.8266">
        <ele>1008</ele>
        <time>2026-08-04T04:24:22.278Z</time>
      </trkpt>
      <trkpt lat="45.90209" lon="6.82662">
        <ele>1008</ele>
        <time>2026-08-04T04:24:23.278Z</time>
      </trkpt>
      <trkpt lat="45.9021" lon="6.82664">
        <ele>1008</ele>
        <time>2026-08-04T04:24:24.278Z</time>
      </trkpt>
      <trkpt lat="45.90212" lon="6.82666">
        <ele>1008</ele>
        <time>2026-08-04T04:24:25.278Z</time>
      </trkpt>
      <trkpt lat="45.90214" lon="6.82669">
        <ele>1008</ele>
        <time>2026-08-04T04:24:26.278Z</time>
      </trkpt>
      <trkpt lat="45.90215" lon="6.82671">
        <ele>1007</ele>
        <time>2026-08-04T04:24:27.278Z</time>
      </trkpt>
      <trkpt lat="45.90217" lon="6.82674">
        <ele>1007</ele>
        <time>2026-08-04T04:24:28.278Z</time>
      </trkpt>
      <trkpt lat="45.90219" lon="6.82676">
        <ele>1006</ele>
        <time>2026-08-04T04:24:29.278Z</time>
      </trkpt>
      <trkpt lat="45.90221" lon="6.82678">
        <ele>1005</ele>
        <time>2026-08-04T04:24:30.278Z</time>
      </trkpt>
      <trkpt lat="45.90224" lon="6.8268">
        <ele>1005</ele>
        <time>2026-08-04T04:24:31.278Z</time>
      </trkpt>
      <trkpt lat="45.90226" lon="6.82681">
        <ele>1004</ele>
        <time>2026-08-04T04:24:32.278Z</time>
      </trkpt>
      <trkpt lat="45.90227" lon="6.82682">
        <ele>1004</ele>
        <time>2026-08-04T04:24:33.278Z</time>
      </trkpt>
      <trkpt lat="45.90229" lon="6.82682">
        <ele>1004</ele>
        <time>2026-08-04T04:24:34.278Z</time>
      </trkpt>
      <trkpt lat="45.90231" lon="6.82682">
        <ele>1004</ele>
        <time>2026-08-04T04:24:35.278Z</time>
      </trkpt>
      <trkpt lat="45.90233" lon="6.82682">
        <ele>1005</ele>
        <time>2026-08-04T04:24:36.278Z</time>
      </trkpt>
      <trkpt lat="45.90234" lon="6.82683">
        <ele>1005</ele>
        <time>2026-08-04T04:24:37.278Z</time>
      </trkpt>
      <trkpt lat="45.90236" lon="6.82684">
        <ele>1005</ele>
        <time>2026-08-04T04:24:38.278Z</time>
      </trkpt>
      <trkpt lat="45.90237" lon="6.82686">
        <ele>1005</ele>
        <time>2026-08-04T04:24:39.278Z</time>
      </trkpt>
      <trkpt lat="45.90238" lon="6.82687">
        <ele>1006</ele>
        <time>2026-08-04T04:24:40.278Z</time>
      </trkpt>
      <trkpt lat="45.90239" lon="6.82689">
        <ele>1006</ele>
        <time>2026-08-04T04:24:41.278Z</time>
      </trkpt>
      <trkpt lat="45.9024" lon="6.8269">
        <ele>1006</ele>
        <time>2026-08-04T04:24:42.278Z</time>
      </trkpt>
      <trkpt lat="45.90242" lon="6.8269">
        <ele>1006</ele>
        <time>2026-08-04T04:24:43.278Z</time>
      </trkpt>
      <trkpt lat="45.90244" lon="6.82691">
        <ele>1006</ele>
        <time>2026-08-04T04:24:44.278Z</time>
      </trkpt>
      <trkpt lat="45.90246" lon="6.82693">
        <ele>1006</ele>
        <time>2026-08-04T04:24:45.278Z</time>
      </trkpt>
      <trkpt lat="45.90247" lon="6.82695">
        <ele>1007</ele>
        <time>2026-08-04T04:24:46.278Z</time>
      </trkpt>
      <trkpt lat="45.9025" lon="6.82696">
        <ele>1007</ele>
        <time>2026-08-04T04:24:47.278Z</time>
      </trkpt>
      <trkpt lat="45.90251" lon="6.82698">
        <ele>1007</ele>
        <time>2026-08-04T04:24:48.278Z</time>
      </trkpt>
      <trkpt lat="45.90253" lon="6.82699">
        <ele>1007</ele>
        <time>2026-08-04T04:24:49.278Z</time>
      </trkpt>
      <trkpt lat="45.90254" lon="6.82702">
        <ele>1008</ele>
        <time>2026-08-04T04:24:50.278Z</time>
      </trkpt>
      <trkpt lat="45.90256" lon="6.82704">
        <ele>1008</ele>
        <time>2026-08-04T04:24:51.278Z</time>
      </trkpt>
      <trkpt lat="45.90258" lon="6.82707">
        <ele>1008</ele>
        <time>2026-08-04T04:24:52.278Z</time>
      </trkpt>
      <trkpt lat="45.90258" lon="6.82709">
        <ele>1008</ele>
        <time>2026-08-04T04:24:53.278Z</time>
      </trkpt>
      <trkpt lat="45.90259" lon="6.82711">
        <ele>1009</ele>
        <time>2026-08-04T04:24:54.278Z</time>
      </trkpt>
      <trkpt lat="45.9026" lon="6.82713">
        <ele>1009</ele>
        <time>2026-08-04T04:24:55.278Z</time>
      </trkpt>
      <trkpt lat="45.90262" lon="6.82715">
        <ele>1009</ele>
        <time>2026-08-04T04:24:56.278Z</time>
      </trkpt>
      <trkpt lat="45.90265" lon="6.82717">
        <ele>1009</ele>
        <time>2026-08-04T04:24:57.278Z</time>
      </trkpt>
      <trkpt lat="45.90267" lon="6.82721">
        <ele>1009</ele>
        <time>2026-08-04T04:24:58.278Z</time>
      </trkpt>
      <trkpt lat="45.90269" lon="6.82725">
        <ele>1009</ele>
        <time>2026-08-04T04:24:59.278Z</time>
      </trkpt>
      <trkpt lat="45.90271" lon="6.82729">
        <ele>1009</ele>
        <time>2026-08-04T04:25:00.278Z</time>
      </trkpt>
      <trkpt lat="45.90273" lon="6.82734">
        <ele>1009</ele>
        <time>2026-08-04T04:25:01.278Z</time>
      </trkpt>
      <trkpt lat="45.90274" lon="6.82737">
        <ele>1009</ele>
        <time>2026-08-04T04:25:02.278Z</time>
      </trkpt>
      <trkpt lat="45.90274" lon="6.82741">
        <ele>1008</ele>
        <time>2026-08-04T04:25:03.278Z</time>
      </trkpt>
      <trkpt lat="45.90275" lon="6.82744">
        <ele>1008</ele>
        <time>2026-08-04T04:25:04.278Z</time>
      </trkpt>
      <trkpt lat="45.90274" lon="6.82748">
        <ele>1008</ele>
        <time>2026-08-04T04:25:05.278Z</time>
      </trkpt>
      <trkpt lat="45.90273" lon="6.8275">
        <ele>1008</ele>
        <time>2026-08-04T04:25:06.278Z</time>
      </trkpt>
      <trkpt lat="45.90272" lon="6.82753">
        <ele>1007</ele>
        <time>2026-08-04T04:25:07.278Z</time>
      </trkpt>
      <trkpt lat="45.90271" lon="6.82756">
        <ele>1007</ele>
        <time>2026-08-04T04:25:08.278Z</time>
      </trkpt>
      <trkpt lat="45.90271" lon="6.82759">
        <ele>1006</ele>
        <time>2026-08-04T04:25:09.278Z</time>
      </trkpt>
      <trkpt lat="45.9027" lon="6.82763">
        <ele>1006</ele>
        <time>2026-08-04T04:25:10.278Z</time>
      </trkpt>
      <trkpt lat="45.90269" lon="6.82767">
        <ele>1005</ele>
        <time>2026-08-04T04:25:11.278Z</time>
      </trkpt>
      <trkpt lat="45.90268" lon="6.8277">
        <ele>1005</ele>
        <time>2026-08-04T04:25:12.278Z</time>
      </trkpt>
      <trkpt lat="45.90267" lon="6.82772">
        <ele>1005</ele>
        <time>2026-08-04T04:25:13.278Z</time>
      </trkpt>
      <trkpt lat="45.90266" lon="6.82775">
        <ele>1005</ele>
        <time>2026-08-04T04:25:14.278Z</time>
      </trkpt>
      <trkpt lat="45.90265" lon="6.82778">
        <ele>1005</ele>
        <time>2026-08-04T04:25:15.278Z</time>
      </trkpt>
      <trkpt lat="45.90264" lon="6.82783">
        <ele>1005</ele>
        <time>2026-08-04T04:25:16.278Z</time>
      </trkpt>
      <trkpt lat="45.90264" lon="6.82786">
        <ele>1004</ele>
        <time>2026-08-04T04:25:17.278Z</time>
      </trkpt>
      <trkpt lat="45.90264" lon="6.82788">
        <ele>1004</ele>
        <time>2026-08-04T04:25:18.278Z</time>
      </trkpt>
      <trkpt lat="45.90263" lon="6.82791">
        <ele>1004</ele>
        <time>2026-08-04T04:25:19.278Z</time>
      </trkpt>
      <trkpt lat="45.90262" lon="6.82795">
        <ele>1004</ele>
        <time>2026-08-04T04:25:20.278Z</time>
      </trkpt>
      <trkpt lat="45.90262" lon="6.82797">
        <ele>1004</ele>
        <time>2026-08-04T04:25:21.278Z</time>
      </trkpt>
      <trkpt lat="45.90262" lon="6.828">
        <ele>1004</ele>
        <time>2026-08-04T04:25:22.278Z</time>
      </trkpt>
      <trkpt lat="45.90262" lon="6.82801">
        <ele>1005</ele>
        <time>2026-08-04T04:25:23.278Z</time>
      </trkpt>
      <trkpt lat="45.90262" lon="6.82803">
        <ele>1005</ele>
        <time>2026-08-04T04:25:24.278Z</time>
      </trkpt>
      <trkpt lat="45.90262" lon="6.82804">
        <ele>1005</ele>
        <time>2026-08-04T04:25:25.278Z</time>
      </trkpt>
      <trkpt lat="45.90262" lon="6.82806">
        <ele>1005</ele>
        <time>2026-08-04T04:25:26.278Z</time>
      </trkpt>
      <trkpt lat="45.90263" lon="6.82809">
        <ele>1006</ele>
        <time>2026-08-04T04:25:27.278Z</time>
      </trkpt>
      <trkpt lat="45.90263" lon="6.82811">
        <ele>1006</ele>
        <time>2026-08-04T04:25:28.278Z</time>
      </trkpt>
      <trkpt lat="45.90264" lon="6.82815">
        <ele>1007</ele>
        <time>2026-08-04T04:25:29.278Z</time>
      </trkpt>
      <trkpt lat="45.90264" lon="6.82819">
        <ele>1007</ele>
        <time>2026-08-04T04:25:30.278Z</time>
      </trkpt>
      <trkpt lat="45.90265" lon="6.82823">
        <ele>1007</ele>
        <time>2026-08-04T04:25:31.278Z</time>
      </trkpt>
      <trkpt lat="45.90267" lon="6.82827">
        <ele>1007</ele>
        <time>2026-08-04T04:25:32.278Z</time>
      </trkpt>
      <trkpt lat="45.90268" lon="6.8283">
        <ele>1008</ele>
        <time>2026-08-04T04:25:33.278Z</time>
      </trkpt>
      <trkpt lat="45.90269" lon="6.82832">
        <ele>1008</ele>
        <time>2026-08-04T04:25:34.278Z</time>
      </trkpt>
      <trkpt lat="45.9027" lon="6.82835">
        <ele>1008</ele>
        <time>2026-08-04T04:25:35.278Z</time>
      </trkpt>
      <trkpt lat="45.90271" lon="6.82838">
        <ele>1008</ele>
        <time>2026-08-04T04:25:36.278Z</time>
      </trkpt>
      <trkpt lat="45.90272" lon="6.82841">
        <ele>1008</ele>
        <time>2026-08-04T04:25:37.278Z</time>
      </trkpt>
      <trkpt lat="45.90272" lon="6.82844">
        <ele>1008</ele>
        <time>2026-08-04T04:25:38.278Z</time>
      </trkpt>
      <trkpt lat="45.90273" lon="6.82846">
        <ele>1008</ele>
        <time>2026-08-04T04:25:39.278Z</time>
      </trkpt>
      <trkpt lat="45.90274" lon="6.82849">
        <ele>1008</ele>
        <time>2026-08-04T04:25:40.278Z</time>
      </trkpt>
      <trkpt lat="45.90275" lon="6.82851">
        <ele>1008</ele>
        <time>2026-08-04T04:25:41.278Z</time>
      </trkpt>
      <trkpt lat="45.90276" lon="6.82854">
        <ele>1008</ele>
        <time>2026-08-04T04:25:42.278Z</time>
      </trkpt>
      <trkpt lat="45.90277" lon="6.82857">
        <ele>1008</ele>
        <time>2026-08-04T04:25:43.278Z</time>
      </trkpt>
      <trkpt lat="45.90277" lon="6.8286">
        <ele>1008</ele>
        <time>2026-08-04T04:25:44.278Z</time>
      </trkpt>
      <trkpt lat="45.90278" lon="6.82862">
        <ele>1007</ele>
        <time>2026-08-04T04:25:45.278Z</time>
      </trkpt>
      <trkpt lat="45.90279" lon="6.82864">
        <ele>1006</ele>
        <time>2026-08-04T04:25:46.278Z</time>
      </trkpt>
      <trkpt lat="45.90279" lon="6.82866">
        <ele>1006</ele>
        <time>2026-08-04T04:25:47.278Z</time>
      </trkpt>
      <trkpt lat="45.9028" lon="6.82867">
        <ele>1005</ele>
        <time>2026-08-04T04:25:48.278Z</time>
      </trkpt>
      <trkpt lat="45.90281" lon="6.8287">
        <ele>1005</ele>
        <time>2026-08-04T04:25:49.278Z</time>
      </trkpt>
      <trkpt lat="45.90283" lon="6.82872">
        <ele>1005</ele>
        <time>2026-08-04T04:25:50.278Z</time>
      </trkpt>
      <trkpt lat="45.90284" lon="6.82873">
        <ele>1005</ele>
        <time>2026-08-04T04:25:51.278Z</time>
      </trkpt>
      <trkpt lat="45.90286" lon="6.82875">
        <ele>1006</ele>
        <time>2026-08-04T04:25:52.278Z</time>
      </trkpt>
      <trkpt lat="45.90287" lon="6.82876">
        <ele>1006</ele>
        <time>2026-08-04T04:25:53.278Z</time>
      </trkpt>
      <trkpt lat="45.90288" lon="6.82876">
        <ele>1007</ele>
        <time>2026-08-04T04:25:54.278Z</time>
      </trkpt>
      <trkpt lat="45.90289" lon="6.82877">
        <ele>1007</ele>
        <time>2026-08-04T04:25:55.278Z</time>
      </trkpt>
      <trkpt lat="45.90291" lon="6.82878">
        <ele>1008</ele>
        <time>2026-08-04T04:25:56.278Z</time>
      </trkpt>
      <trkpt lat="45.90292" lon="6.82879">
        <ele>1008</ele>
        <time>2026-08-04T04:25:57.278Z</time>
      </trkpt>
      <trkpt lat="45.90293" lon="6.8288">
        <ele>1008</ele>
        <time>2026-08-04T04:25:58.278Z</time>
      </trkpt>
      <trkpt lat="45.90295" lon="6.82881">
        <ele>1009</ele>
        <time>2026-08-04T04:25:59.278Z</time>
      </trkpt>
      <trkpt lat="45.90296" lon="6.82883">
        <ele>1009</ele>
        <time>2026-08-04T04:26:00.278Z</time>
      </trkpt>
      <trkpt lat="45.90298" lon="6.82885">
        <ele>1009</ele>
        <time>2026-08-04T04:26:01.278Z</time>
      </trkpt>
      <trkpt lat="45.903" lon="6.82888">
        <ele>1008</ele>
        <time>2026-08-04T04:26:02.278Z</time>
      </trkpt>
      <trkpt lat="45.90303" lon="6.82889">
        <ele>1009</ele>
        <time>2026-08-04T04:26:03.278Z</time>
      </trkpt>
      <trkpt lat="45.90305" lon="6.8289">
        <ele>1009</ele>
        <time>2026-08-04T04:26:04.278Z</time>
      </trkpt>
      <trkpt lat="45.90307" lon="6.82892">
        <ele>1009</ele>
        <time>2026-08-04T04:26:05.278Z</time>
      </trkpt>
      <trkpt lat="45.90309" lon="6.82893">
        <ele>1009</ele>
        <time>2026-08-04T04:26:06.278Z</time>
      </trkpt>
      <trkpt lat="45.9031" lon="6.82894">
        <ele>1010</ele>
        <time>2026-08-04T04:26:07.278Z</time>
      </trkpt>
      <trkpt lat="45.90312" lon="6.82895">
        <ele>1010</ele>
        <time>2026-08-04T04:26:08.278Z</time>
      </trkpt>
      <trkpt lat="45.90313" lon="6.82896">
        <ele>1010</ele>
        <time>2026-08-04T04:26:09.278Z</time>
      </trkpt>
      <trkpt lat="45.90315" lon="6.82898">
        <ele>1011</ele>
        <time>2026-08-04T04:26:10.278Z</time>
      </trkpt>
      <trkpt lat="45.90316" lon="6.829">
        <ele>1011</ele>
        <time>2026-08-04T04:26:11.278Z</time>
      </trkpt>
      <trkpt lat="45.90318" lon="6.82901">
        <ele>1012</ele>
        <time>2026-08-04T04:26:12.278Z</time>
      </trkpt>
      <trkpt lat="45.90319" lon="6.82902">
        <ele>1012</ele>
        <time>2026-08-04T04:26:13.278Z</time>
      </trkpt>
      <trkpt lat="45.9032" lon="6.82902">
        <ele>1012</ele>
        <time>2026-08-04T04:26:14.278Z</time>
      </trkpt>
      <trkpt lat="45.90322" lon="6.82903">
        <ele>1013</ele>
        <time>2026-08-04T04:26:15.278Z</time>
      </trkpt>
      <trkpt lat="45.90324" lon="6.82904">
        <ele>1013</ele>
        <time>2026-08-04T04:26:16.278Z</time>
      </trkpt>
      <trkpt lat="45.90325" lon="6.82904">
        <ele>1014</ele>
        <time>2026-08-04T04:26:17.278Z</time>
      </trkpt>
      <trkpt lat="45.90326" lon="6.82905">
        <ele>1014</ele>
        <time>2026-08-04T04:26:18.278Z</time>
      </trkpt>
      <trkpt lat="45.90327" lon="6.82905">
        <ele>1015</ele>
        <time>2026-08-04T04:26:19.278Z</time>
      </trkpt>
      <trkpt lat="45.90329" lon="6.82906">
        <ele>1015</ele>
        <time>2026-08-04T04:26:20.278Z</time>
      </trkpt>
      <trkpt lat="45.9033" lon="6.82906">
        <ele>1016</ele>
        <time>2026-08-04T04:26:21.278Z</time>
      </trkpt>
      <trkpt lat="45.90332" lon="6.82907">
        <ele>1017</ele>
        <time>2026-08-04T04:26:22.278Z</time>
      </trkpt>
      <trkpt lat="45.90333" lon="6.82908">
        <ele>1018</ele>
        <time>2026-08-04T04:26:23.278Z</time>
      </trkpt>
      <trkpt lat="45.90334" lon="6.8291">
        <ele>1018</ele>
        <time>2026-08-04T04:26:24.278Z</time>
      </trkpt>
      <trkpt lat="45.90336" lon="6.82912">
        <ele>1018</ele>
        <time>2026-08-04T04:26:25.278Z</time>
      </trkpt>
      <trkpt lat="45.90338" lon="6.82914">
        <ele>1018</ele>
        <time>2026-08-04T04:26:26.278Z</time>
      </trkpt>
      <trkpt lat="45.9034" lon="6.82916">
        <ele>1018</ele>
        <time>2026-08-04T04:26:27.278Z</time>
      </trkpt>
      <trkpt lat="45.90341" lon="6.82918">
        <ele>1017</ele>
        <time>2026-08-04T04:26:28.278Z</time>
      </trkpt>
      <trkpt lat="45.90343" lon="6.82921">
        <ele>1017</ele>
        <time>2026-08-04T04:26:29.278Z</time>
      </trkpt>
      <trkpt lat="45.90345" lon="6.82922">
        <ele>1016</ele>
        <time>2026-08-04T04:26:30.278Z</time>
      </trkpt>
      <trkpt lat="45.90346" lon="6.82924">
        <ele>1015</ele>
        <time>2026-08-04T04:26:31.278Z</time>
      </trkpt>
      <trkpt lat="45.90347" lon="6.82925">
        <ele>1015</ele>
        <time>2026-08-04T04:26:32.278Z</time>
      </trkpt>
      <trkpt lat="45.90349" lon="6.82927">
        <ele>1014</ele>
        <time>2026-08-04T04:26:33.278Z</time>
      </trkpt>
      <trkpt lat="45.90351" lon="6.82929">
        <ele>1014</ele>
        <time>2026-08-04T04:26:34.278Z</time>
      </trkpt>
      <trkpt lat="45.90353" lon="6.82932">
        <ele>1014</ele>
        <time>2026-08-04T04:26:35.278Z</time>
      </trkpt>
      <trkpt lat="45.90355" lon="6.82934">
        <ele>1014</ele>
        <time>2026-08-04T04:26:36.278Z</time>
      </trkpt>
      <trkpt lat="45.90356" lon="6.82936">
        <ele>1014</ele>
        <time>2026-08-04T04:26:37.278Z</time>
      </trkpt>
      <trkpt lat="45.90358" lon="6.82938">
        <ele>1014</ele>
        <time>2026-08-04T04:26:38.278Z</time>
      </trkpt>
      <trkpt lat="45.90359" lon="6.8294">
        <ele>1014</ele>
        <time>2026-08-04T04:26:39.278Z</time>
      </trkpt>
      <trkpt lat="45.9036" lon="6.82942">
        <ele>1014</ele>
        <time>2026-08-04T04:26:40.278Z</time>
      </trkpt>
      <trkpt lat="45.90361" lon="6.82944">
        <ele>1014</ele>
        <time>2026-08-04T04:26:41.278Z</time>
      </trkpt>
      <trkpt lat="45.90362" lon="6.82946">
        <ele>1014</ele>
        <time>2026-08-04T04:26:42.278Z</time>
      </trkpt>
      <trkpt lat="45.90364" lon="6.82948">
        <ele>1014</ele>
        <time>2026-08-04T04:26:43.278Z</time>
      </trkpt>
      <trkpt lat="45.90365" lon="6.8295">
        <ele>1014</ele>
        <time>2026-08-04T04:26:44.278Z</time>
      </trkpt>
      <trkpt lat="45.90366" lon="6.8295">
        <ele>1014</ele>
        <time>2026-08-04T04:26:45.278Z</time>
      </trkpt>
      <trkpt lat="45.90368" lon="6.82952">
        <ele>1014</ele>
        <time>2026-08-04T04:26:46.278Z</time>
      </trkpt>
      <trkpt lat="45.90369" lon="6.82953">
        <ele>1014</ele>
        <time>2026-08-04T04:26:47.278Z</time>
      </trkpt>
      <trkpt lat="45.9037" lon="6.82955">
        <ele>1014</ele>
        <time>2026-08-04T04:26:48.278Z</time>
      </trkpt>
      <trkpt lat="45.90371" lon="6.82957">
        <ele>1014</ele>
        <time>2026-08-04T04:26:49.278Z</time>
      </trkpt>
      <trkpt lat="45.90373" lon="6.82958">
        <ele>1014</ele>
        <time>2026-08-04T04:26:50.278Z</time>
      </trkpt>
      <trkpt lat="45.90375" lon="6.82959">
        <ele>1014</ele>
        <time>2026-08-04T04:26:51.278Z</time>
      </trkpt>
      <trkpt lat="45.90377" lon="6.82961">
        <ele>1015</ele>
        <time>2026-08-04T04:26:52.278Z</time>
      </trkpt>
      <trkpt lat="45.90378" lon="6.82963">
        <ele>1014</ele>
        <time>2026-08-04T04:26:53.278Z</time>
      </trkpt>
      <trkpt lat="45.90379" lon="6.82964">
        <ele>1014</ele>
        <time>2026-08-04T04:26:54.278Z</time>
      </trkpt>
      <trkpt lat="45.9038" lon="6.82965">
        <ele>1014</ele>
        <time>2026-08-04T04:26:55.278Z</time>
      </trkpt>
      <trkpt lat="45.90381" lon="6.82967">
        <ele>1014</ele>
        <time>2026-08-04T04:26:56.278Z</time>
      </trkpt>
      <trkpt lat="45.90383" lon="6.82969">
        <ele>1014</ele>
        <time>2026-08-04T04:26:57.278Z</time>
      </trkpt>
      <trkpt lat="45.90385" lon="6.8297">
        <ele>1013</ele>
        <time>2026-08-04T04:26:58.278Z</time>
      </trkpt>
      <trkpt lat="45.90386" lon="6.82973">
        <ele>1013</ele>
        <time>2026-08-04T04:26:59.278Z</time>
      </trkpt>
      <trkpt lat="45.90388" lon="6.82974">
        <ele>1013</ele>
        <time>2026-08-04T04:27:00.278Z</time>
      </trkpt>
      <trkpt lat="45.9039" lon="6.82976">
        <ele>1013</ele>
        <time>2026-08-04T04:27:01.278Z</time>
      </trkpt>
      <trkpt lat="45.90392" lon="6.82977">
        <ele>1013</ele>
        <time>2026-08-04T04:27:02.278Z</time>
      </trkpt>
      <trkpt lat="45.90394" lon="6.82978">
        <ele>1013</ele>
        <time>2026-08-04T04:27:03.278Z</time>
      </trkpt>
      <trkpt lat="45.90395" lon="6.8298">
        <ele>1014</ele>
        <time>2026-08-04T04:27:04.278Z</time>
      </trkpt>
      <trkpt lat="45.90396" lon="6.82982">
        <ele>1014</ele>
        <time>2026-08-04T04:27:05.278Z</time>
      </trkpt>
      <trkpt lat="45.90398" lon="6.82984">
        <ele>1015</ele>
        <time>2026-08-04T04:27:06.278Z</time>
      </trkpt>
      <trkpt lat="45.90399" lon="6.82986">
        <ele>1016</ele>
        <time>2026-08-04T04:27:07.278Z</time>
      </trkpt>
      <trkpt lat="45.90401" lon="6.82987">
        <ele>1016</ele>
        <time>2026-08-04T04:27:08.278Z</time>
      </trkpt>
      <trkpt lat="45.90403" lon="6.82989">
        <ele>1016</ele>
        <time>2026-08-04T04:27:09.278Z</time>
      </trkpt>
      <trkpt lat="45.90405" lon="6.82992">
        <ele>1016</ele>
        <time>2026-08-04T04:27:10.278Z</time>
      </trkpt>
      <trkpt lat="45.90407" lon="6.82994">
        <ele>1016</ele>
        <time>2026-08-04T04:27:11.278Z</time>
      </trkpt>
      <trkpt lat="45.90409" lon="6.82997">
        <ele>1016</ele>
        <time>2026-08-04T04:27:12.278Z</time>
      </trkpt>
      <trkpt lat="45.90411" lon="6.83">
        <ele>1016</ele>
        <time>2026-08-04T04:27:13.278Z</time>
      </trkpt>
      <trkpt lat="45.90413" lon="6.83003">
        <ele>1016</ele>
        <time>2026-08-04T04:27:14.278Z</time>
      </trkpt>
      <trkpt lat="45.90415" lon="6.83007">
        <ele>1016</ele>
        <time>2026-08-04T04:27:15.279Z</time>
      </trkpt>
      <trkpt lat="45.90416" lon="6.83009">
        <ele>1016</ele>
        <time>2026-08-04T04:27:16.278Z</time>
      </trkpt>
      <trkpt lat="45.90418" lon="6.83011">
        <ele>1015</ele>
        <time>2026-08-04T04:27:17.278Z</time>
      </trkpt>
      <trkpt lat="45.90419" lon="6.83013">
        <ele>1015</ele>
        <time>2026-08-04T04:27:18.278Z</time>
      </trkpt>
      <trkpt lat="45.90421" lon="6.83015">
        <ele>1015</ele>
        <time>2026-08-04T04:27:19.278Z</time>
      </trkpt>
      <trkpt lat="45.90422" lon="6.83016">
        <ele>1015</ele>
        <time>2026-08-04T04:27:20.278Z</time>
      </trkpt>
      <trkpt lat="45.90423" lon="6.83018">
        <ele>1015</ele>
        <time>2026-08-04T04:27:21.278Z</time>
      </trkpt>
      <trkpt lat="45.90425" lon="6.83021">
        <ele>1015</ele>
        <time>2026-08-04T04:27:22.278Z</time>
      </trkpt>
      <trkpt lat="45.90426" lon="6.83022">
        <ele>1015</ele>
        <time>2026-08-04T04:27:23.278Z</time>
      </trkpt>
      <trkpt lat="45.90428" lon="6.83026">
        <ele>1015</ele>
        <time>2026-08-04T04:27:24.278Z</time>
      </trkpt>
      <trkpt lat="45.90429" lon="6.83028">
        <ele>1016</ele>
        <time>2026-08-04T04:27:25.278Z</time>
      </trkpt>
      <trkpt lat="45.90431" lon="6.8303">
        <ele>1016</ele>
        <time>2026-08-04T04:27:26.278Z</time>
      </trkpt>
      <trkpt lat="45.90433" lon="6.83033">
        <ele>1016</ele>
        <time>2026-08-04T04:27:27.278Z</time>
      </trkpt>
      <trkpt lat="45.90434" lon="6.83035">
        <ele>1017</ele>
        <time>2026-08-04T04:27:28.278Z</time>
      </trkpt>
      <trkpt lat="45.90437" lon="6.83039">
        <ele>1017</ele>
        <time>2026-08-04T04:27:29.278Z</time>
      </trkpt>
      <trkpt lat="45.90439" lon="6.83041">
        <ele>1018</ele>
        <time>2026-08-04T04:27:30.278Z</time>
      </trkpt>
      <trkpt lat="45.90441" lon="6.83042">
        <ele>1018</ele>
        <time>2026-08-04T04:27:31.278Z</time>
      </trkpt>
      <trkpt lat="45.90443" lon="6.83044">
        <ele>1019</ele>
        <time>2026-08-04T04:27:32.278Z</time>
      </trkpt>
      <trkpt lat="45.90444" lon="6.83046">
        <ele>1019</ele>
        <time>2026-08-04T04:27:33.278Z</time>
      </trkpt>
      <trkpt lat="45.90446" lon="6.83049">
        <ele>1019</ele>
        <time>2026-08-04T04:27:34.278Z</time>
      </trkpt>
      <trkpt lat="45.90447" lon="6.83051">
        <ele>1019</ele>
        <time>2026-08-04T04:27:35.278Z</time>
      </trkpt>
      <trkpt lat="45.90448" lon="6.83053">
        <ele>1018</ele>
        <time>2026-08-04T04:27:36.278Z</time>
      </trkpt>
      <trkpt lat="45.9045" lon="6.83055">
        <ele>1018</ele>
        <time>2026-08-04T04:27:37.278Z</time>
      </trkpt>
      <trkpt lat="45.90451" lon="6.83057">
        <ele>1017</ele>
        <time>2026-08-04T04:27:38.278Z</time>
      </trkpt>
      <trkpt lat="45.90452" lon="6.83059">
        <ele>1017</ele>
        <time>2026-08-04T04:27:39.278Z</time>
      </trkpt>
      <trkpt lat="45.90454" lon="6.83061">
        <ele>1017</ele>
        <time>2026-08-04T04:27:40.278Z</time>
      </trkpt>
      <trkpt lat="45.90455" lon="6.83063">
        <ele>1016</ele>
        <time>2026-08-04T04:27:41.278Z</time>
      </trkpt>
      <trkpt lat="45.90456" lon="6.83065">
        <ele>1016</ele>
        <time>2026-08-04T04:27:42.278Z</time>
      </trkpt>
      <trkpt lat="45.90457" lon="6.83066">
        <ele>1016</ele>
        <time>2026-08-04T04:27:43.278Z</time>
      </trkpt>
      <trkpt lat="45.90458" lon="6.83068">
        <ele>1016</ele>
        <time>2026-08-04T04:27:44.278Z</time>
      </trkpt>
      <trkpt lat="45.90459" lon="6.8307">
        <ele>1016</ele>
        <time>2026-08-04T04:27:45.278Z</time>
      </trkpt>
      <trkpt lat="45.90459" lon="6.83071">
        <ele>1016</ele>
        <time>2026-08-04T04:27:46.278Z</time>
      </trkpt>
      <trkpt lat="45.9046" lon="6.83072">
        <ele>1015</ele>
        <time>2026-08-04T04:27:47.278Z</time>
      </trkpt>
      <trkpt lat="45.9046" lon="6.83074">
        <ele>1016</ele>
        <time>2026-08-04T04:27:48.278Z</time>
      </trkpt>
      <trkpt lat="45.90461" lon="6.83075">
        <ele>1016</ele>
        <time>2026-08-04T04:27:49.278Z</time>
      </trkpt>
      <trkpt lat="45.90461" lon="6.83077">
        <ele>1016</ele>
        <time>2026-08-04T04:27:50.278Z</time>
      </trkpt>
      <trkpt lat="45.90462" lon="6.83079">
        <ele>1016</ele>
        <time>2026-08-04T04:27:51.278Z</time>
      </trkpt>
      <trkpt lat="45.90463" lon="6.83081">
        <ele>1016</ele>
        <time>2026-08-04T04:27:52.278Z</time>
      </trkpt>
      <trkpt lat="45.90464" lon="6.83084">
        <ele>1015</ele>
        <time>2026-08-04T04:27:53.278Z</time>
      </trkpt>
      <trkpt lat="45.90466" lon="6.83086">
        <ele>1015</ele>
        <time>2026-08-04T04:27:54.278Z</time>
      </trkpt>
      <trkpt lat="45.90467" lon="6.83089">
        <ele>1015</ele>
        <time>2026-08-04T04:27:55.278Z</time>
      </trkpt>
      <trkpt lat="45.90469" lon="6.83091">
        <ele>1015</ele>
        <time>2026-08-04T04:27:56.278Z</time>
      </trkpt>
      <trkpt lat="45.9047" lon="6.83093">
        <ele>1015</ele>
        <time>2026-08-04T04:27:57.278Z</time>
      </trkpt>
      <trkpt lat="45.90472" lon="6.83095">
        <ele>1015</ele>
        <time>2026-08-04T04:27:58.278Z</time>
      </trkpt>
      <trkpt lat="45.90473" lon="6.83097">
        <ele>1016</ele>
        <time>2026-08-04T04:27:59.278Z</time>
      </trkpt>
      <trkpt lat="45.90474" lon="6.83099">
        <ele>1016</ele>
        <time>2026-08-04T04:28:00.278Z</time>
      </trkpt>
      <trkpt lat="45.90475" lon="6.831">
        <ele>1016</ele>
        <time>2026-08-04T04:28:01.278Z</time>
      </trkpt>
      <trkpt lat="45.90476" lon="6.83101">
        <ele>1016</ele>
        <time>2026-08-04T04:28:02.278Z</time>
      </trkpt>
      <trkpt lat="45.90478" lon="6.83103">
        <ele>1016</ele>
        <time>2026-08-04T04:28:03.278Z</time>
      </trkpt>
      <trkpt lat="45.90479" lon="6.83105">
        <ele>1016</ele>
        <time>2026-08-04T04:28:04.278Z</time>
      </trkpt>
      <trkpt lat="45.90481" lon="6.83108">
        <ele>1016</ele>
        <time>2026-08-04T04:28:05.278Z</time>
      </trkpt>
      <trkpt lat="45.90482" lon="6.8311">
        <ele>1015</ele>
        <time>2026-08-04T04:28:06.278Z</time>
      </trkpt>
      <trkpt lat="45.90485" lon="6.83114">
        <ele>1015</ele>
        <time>2026-08-04T04:28:07.278Z</time>
      </trkpt>
      <trkpt lat="45.90487" lon="6.83117">
        <ele>1015</ele>
        <time>2026-08-04T04:28:08.278Z</time>
      </trkpt>
      <trkpt lat="45.90488" lon="6.8312">
        <ele>1015</ele>
        <time>2026-08-04T04:28:09.278Z</time>
      </trkpt>
      <trkpt lat="45.90489" lon="6.83122">
        <ele>1016</ele>
        <time>2026-08-04T04:28:10.278Z</time>
      </trkpt>
      <trkpt lat="45.9049" lon="6.83124">
        <ele>1016</ele>
        <time>2026-08-04T04:28:11.278Z</time>
      </trkpt>
      <trkpt lat="45.90492" lon="6.83126">
        <ele>1016</ele>
        <time>2026-08-04T04:28:12.278Z</time>
      </trkpt>
      <trkpt lat="45.90493" lon="6.83128">
        <ele>1016</ele>
        <time>2026-08-04T04:28:13.278Z</time>
      </trkpt>
      <trkpt lat="45.90494" lon="6.83131">
        <ele>1017</ele>
        <time>2026-08-04T04:28:14.278Z</time>
      </trkpt>
      <trkpt lat="45.90495" lon="6.83135">
        <ele>1017</ele>
        <time>2026-08-04T04:28:15.278Z</time>
      </trkpt>
      <trkpt lat="45.90496" lon="6.83137">
        <ele>1017</ele>
        <time>2026-08-04T04:28:16.278Z</time>
      </trkpt>
      <trkpt lat="45.90497" lon="6.83141">
        <ele>1017</ele>
        <time>2026-08-04T04:28:17.278Z</time>
      </trkpt>
      <trkpt lat="45.90498" lon="6.83144">
        <ele>1018</ele>
        <time>2026-08-04T04:28:18.278Z</time>
      </trkpt>
      <trkpt lat="45.90499" lon="6.83147">
        <ele>1018</ele>
        <time>2026-08-04T04:28:19.278Z</time>
      </trkpt>
      <trkpt lat="45.905" lon="6.83149">
        <ele>1019</ele>
        <time>2026-08-04T04:28:20.278Z</time>
      </trkpt>
      <trkpt lat="45.90501" lon="6.83152">
        <ele>1019</ele>
        <time>2026-08-04T04:28:21.278Z</time>
      </trkpt>
      <trkpt lat="45.90502" lon="6.83154">
        <ele>1019</ele>
        <time>2026-08-04T04:28:22.278Z</time>
      </trkpt>
      <trkpt lat="45.90503" lon="6.83155">
        <ele>1020</ele>
        <time>2026-08-04T04:28:23.278Z</time>
      </trkpt>
      <trkpt lat="45.90503" lon="6.83155">
        <ele>1020</ele>
        <time>2026-08-04T04:28:24.278Z</time>
      </trkpt>
      <trkpt lat="45.90502" lon="6.83154">
        <ele>1020</ele>
        <time>2026-08-04T04:28:25.278Z</time>
      </trkpt>
      <trkpt lat="45.90502" lon="6.83154">
        <ele>1020</ele>
        <time>2026-08-04T04:28:26.278Z</time>
      </trkpt>
      <trkpt lat="45.90503" lon="6.83154">
        <ele>1020</ele>
        <time>2026-08-04T04:28:27.278Z</time>
      </trkpt>
      <trkpt lat="45.90503" lon="6.83154">
        <ele>1021</ele>
        <time>2026-08-04T04:28:28.278Z</time>
      </trkpt>
      <trkpt lat="45.90503" lon="6.83153">
        <ele>1021</ele>
        <time>2026-08-04T04:28:29.278Z</time>
      </trkpt>
      <trkpt lat="45.90504" lon="6.83153">
        <ele>1021</ele>
        <time>2026-08-04T04:28:30.278Z</time>
      </trkpt>
      <trkpt lat="45.90504" lon="6.83153">
        <ele>1021</ele>
        <time>2026-08-04T04:28:31.278Z</time>
      </trkpt>
      <trkpt lat="45.90504" lon="6.83153">
        <ele>1021</ele>
        <time>2026-08-04T04:28:32.278Z</time>
      </trkpt>
      <trkpt lat="45.90504" lon="6.83154">
        <ele>1021</ele>
        <time>2026-08-04T04:28:33.278Z</time>
      </trkpt>
      <trkpt lat="45.90504" lon="6.83155">
        <ele>1021</ele>
        <time>2026-08-04T04:28:34.278Z</time>
      </trkpt>
      <trkpt lat="45.90503" lon="6.83158">
        <ele>1021</ele>
        <time>2026-08-04T04:28:35.278Z</time>
      </trkpt>
      <trkpt lat="45.90503" lon="6.8316">
        <ele>1021</ele>
        <time>2026-08-04T04:28:36.278Z</time>
      </trkpt>
      <trkpt lat="45.90503" lon="6.83163">
        <ele>1021</ele>
        <time>2026-08-04T04:28:37.278Z</time>
      </trkpt>
      <trkpt lat="45.90503" lon="6.83167">
        <ele>1022</ele>
        <time>2026-08-04T04:28:38.278Z</time>
      </trkpt>
      <trkpt lat="45.90503" lon="6.83171">
        <ele>1022</ele>
        <time>2026-08-04T04:28:39.278Z</time>
      </trkpt>
      <trkpt lat="45.90504" lon="6.83175">
        <ele>1022</ele>
        <time>2026-08-04T04:28:40.278Z</time>
      </trkpt>
      <trkpt lat="45.90504" lon="6.83177">
        <ele>1022</ele>
        <time>2026-08-04T04:28:41.278Z</time>
      </trkpt>
      <trkpt lat="45.90505" lon="6.83182">
        <ele>1023</ele>
        <time>2026-08-04T04:28:42.278Z</time>
      </trkpt>
      <trkpt lat="45.90505" lon="6.83185">
        <ele>1023</ele>
        <time>2026-08-04T04:28:43.278Z</time>
      </trkpt>
      <trkpt lat="45.90506" lon="6.83188">
        <ele>1023</ele>
        <time>2026-08-04T04:28:44.278Z</time>
      </trkpt>
      <trkpt lat="45.90506" lon="6.83192">
        <ele>1023</ele>
        <time>2026-08-04T04:28:45.278Z</time>
      </trkpt>
      <trkpt lat="45.90506" lon="6.83195">
        <ele>1023</ele>
        <time>2026-08-04T04:28:46.278Z</time>
      </trkpt>
      <trkpt lat="45.90507" lon="6.83198">
        <ele>1023</ele>
        <time>2026-08-04T04:28:47.278Z</time>
      </trkpt>
      <trkpt lat="45.90508" lon="6.83201">
        <ele>1023</ele>
        <time>2026-08-04T04:28:48.278Z</time>
      </trkpt>
      <trkpt lat="45.9051" lon="6.83203">
        <ele>1023</ele>
        <time>2026-08-04T04:28:49.278Z</time>
      </trkpt>
      <trkpt lat="45.90512" lon="6.83206">
        <ele>1023</ele>
        <time>2026-08-04T04:28:50.278Z</time>
      </trkpt>
      <trkpt lat="45.90514" lon="6.83209">
        <ele>1023</ele>
        <time>2026-08-04T04:28:51.278Z</time>
      </trkpt>
      <trkpt lat="45.90515" lon="6.83211">
        <ele>1023</ele>
        <time>2026-08-04T04:28:52.278Z</time>
      </trkpt>
      <trkpt lat="45.90516" lon="6.83214">
        <ele>1023</ele>
        <time>2026-08-04T04:28:53.278Z</time>
      </trkpt>
      <trkpt lat="45.90517" lon="6.83217">
        <ele>1023</ele>
        <time>2026-08-04T04:28:54.278Z</time>
      </trkpt>
      <trkpt lat="45.90518" lon="6.83221">
        <ele>1023</ele>
        <time>2026-08-04T04:28:55.278Z</time>
      </trkpt>
      <trkpt lat="45.9052" lon="6.83224">
        <ele>1023</ele>
        <time>2026-08-04T04:28:56.278Z</time>
      </trkpt>
      <trkpt lat="45.9052" lon="6.83227">
        <ele>1023</ele>
        <time>2026-08-04T04:28:57.278Z</time>
      </trkpt>
      <trkpt lat="45.90521" lon="6.83229">
        <ele>1022</ele>
        <time>2026-08-04T04:28:58.278Z</time>
      </trkpt>
      <trkpt lat="45.90522" lon="6.83231">
        <ele>1022</ele>
        <time>2026-08-04T04:28:59.278Z</time>
      </trkpt>
      <trkpt lat="45.90522" lon="6.83232">
        <ele>1021</ele>
        <time>2026-08-04T04:29:00.278Z</time>
      </trkpt>
      <trkpt lat="45.90523" lon="6.83234">
        <ele>1021</ele>
        <time>2026-08-04T04:29:01.278Z</time>
      </trkpt>
      <trkpt lat="45.90523" lon="6.83237">
        <ele>1020</ele>
        <time>2026-08-04T04:29:02.278Z</time>
      </trkpt>
      <trkpt lat="45.90525" lon="6.83239">
        <ele>1019</ele>
        <time>2026-08-04T04:29:03.278Z</time>
      </trkpt>
      <trkpt lat="45.90525" lon="6.83241">
        <ele>1019</ele>
        <time>2026-08-04T04:29:04.278Z</time>
      </trkpt>
      <trkpt lat="45.90526" lon="6.83243">
        <ele>1018</ele>
        <time>2026-08-04T04:29:05.278Z</time>
      </trkpt>
      <trkpt lat="45.90527" lon="6.83246">
        <ele>1018</ele>
        <time>2026-08-04T04:29:06.278Z</time>
      </trkpt>
      <trkpt lat="45.90529" lon="6.83249">
        <ele>1018</ele>
        <time>2026-08-04T04:29:07.278Z</time>
      </trkpt>
      <trkpt lat="45.9053" lon="6.83251">
        <ele>1017</ele>
        <time>2026-08-04T04:29:08.278Z</time>
      </trkpt>
      <trkpt lat="45.90531" lon="6.83253">
        <ele>1017</ele>
        <time>2026-08-04T04:29:09.278Z</time>
      </trkpt>
      <trkpt lat="45.90533" lon="6.83255">
        <ele>1017</ele>
        <time>2026-08-04T04:29:10.278Z</time>
      </trkpt>
      <trkpt lat="45.90534" lon="6.83256">
        <ele>1016</ele>
        <time>2026-08-04T04:29:11.278Z</time>
      </trkpt>
      <trkpt lat="45.90534" lon="6.83258">
        <ele>1016</ele>
        <time>2026-08-04T04:29:12.278Z</time>
      </trkpt>
      <trkpt lat="45.90535" lon="6.8326">
        <ele>1015</ele>
        <time>2026-08-04T04:29:13.278Z</time>
      </trkpt>
      <trkpt lat="45.90537" lon="6.83263">
        <ele>1015</ele>
        <time>2026-08-04T04:29:14.278Z</time>
      </trkpt>
      <trkpt lat="45.90538" lon="6.83264">
        <ele>1014</ele>
        <time>2026-08-04T04:29:15.278Z</time>
      </trkpt>
      <trkpt lat="45.9054" lon="6.83265">
        <ele>1014</ele>
        <time>2026-08-04T04:29:16.278Z</time>
      </trkpt>
      <trkpt lat="45.90541" lon="6.83267">
        <ele>1013</ele>
        <time>2026-08-04T04:29:17.278Z</time>
      </trkpt>
      <trkpt lat="45.90542" lon="6.83268">
        <ele>1013</ele>
        <time>2026-08-04T04:29:18.278Z</time>
      </trkpt>
      <trkpt lat="45.90544" lon="6.8327">
        <ele>1013</ele>
        <time>2026-08-04T04:29:19.278Z</time>
      </trkpt>
      <trkpt lat="45.90545" lon="6.83272">
        <ele>1013</ele>
        <time>2026-08-04T04:29:20.278Z</time>
      </trkpt>
      <trkpt lat="45.90546" lon="6.83274">
        <ele>1013</ele>
        <time>2026-08-04T04:29:21.278Z</time>
      </trkpt>
      <trkpt lat="45.90547" lon="6.83277">
        <ele>1013</ele>
        <time>2026-08-04T04:29:22.278Z</time>
      </trkpt>
      <trkpt lat="45.90548" lon="6.83279">
        <ele>1013</ele>
        <time>2026-08-04T04:29:23.278Z</time>
      </trkpt>
      <trkpt lat="45.90548" lon="6.8328">
        <ele>1013</ele>
        <time>2026-08-04T04:29:24.278Z</time>
      </trkpt>
      <trkpt lat="45.90549" lon="6.83281">
        <ele>1013</ele>
        <time>2026-08-04T04:29:25.278Z</time>
      </trkpt>
      <trkpt lat="45.90549" lon="6.83282">
        <ele>1013</ele>
        <time>2026-08-04T04:29:26.278Z</time>
      </trkpt>
      <trkpt lat="45.9055" lon="6.83283">
        <ele>1013</ele>
        <time>2026-08-04T04:29:27.278Z</time>
      </trkpt>
      <trkpt lat="45.90551" lon="6.83284">
        <ele>1013</ele>
        <time>2026-08-04T04:29:28.278Z</time>
      </trkpt>
      <trkpt lat="45.90552" lon="6.83284">
        <ele>1014</ele>
        <time>2026-08-04T04:29:29.278Z</time>
      </trkpt>
      <trkpt lat="45.90552" lon="6.83285">
        <ele>1014</ele>
        <time>2026-08-04T04:29:30.278Z</time>
      </trkpt>
      <trkpt lat="45.90553" lon="6.83285">
        <ele>1014</ele>
        <time>2026-08-04T04:29:31.278Z</time>
      </trkpt>
      <trkpt lat="45.90554" lon="6.83285">
        <ele>1014</ele>
        <time>2026-08-04T04:29:32.278Z</time>
      </trkpt>
      <trkpt lat="45.90555" lon="6.83285">
        <ele>1014</ele>
        <time>2026-08-04T04:29:33.278Z</time>
      </trkpt>
      <trkpt lat="45.90556" lon="6.83286">
        <ele>1015</ele>
        <time>2026-08-04T04:29:34.278Z</time>
      </trkpt>
      <trkpt lat="45.90556" lon="6.83285">
        <ele>1015</ele>
        <time>2026-08-04T04:29:35.278Z</time>
      </trkpt>
      <trkpt lat="45.90556" lon="6.83286">
        <ele>1015</ele>
        <time>2026-08-04T04:29:36.278Z</time>
      </trkpt>
      <trkpt lat="45.90557" lon="6.83286">
        <ele>1015</ele>
        <time>2026-08-04T04:29:37.278Z</time>
      </trkpt>
      <trkpt lat="45.90557" lon="6.83287">
        <ele>1016</ele>
        <time>2026-08-04T04:29:38.278Z</time>
      </trkpt>
      <trkpt lat="45.90557" lon="6.83287">
        <ele>1016</ele>
        <time>2026-08-04T04:29:39.278Z</time>
      </trkpt>
      <trkpt lat="45.90557" lon="6.83286">
        <ele>1016</ele>
        <time>2026-08-04T04:29:40.278Z</time>
      </trkpt>
      <trkpt lat="45.90558" lon="6.83286">
        <ele>1016</ele>
        <time>2026-08-04T04:29:41.278Z</time>
      </trkpt>
      <trkpt lat="45.90558" lon="6.83286">
        <ele>1016</ele>
        <time>2026-08-04T04:29:42.278Z</time>
      </trkpt>
      <trkpt lat="45.90559" lon="6.83286">
        <ele>1017</ele>
        <time>2026-08-04T04:29:43.278Z</time>
      </trkpt>
      <trkpt lat="45.9056" lon="6.83286">
        <ele>1017</ele>
        <time>2026-08-04T04:29:44.278Z</time>
      </trkpt>
      <trkpt lat="45.90561" lon="6.83286">
        <ele>1017</ele>
        <time>2026-08-04T04:29:45.278Z</time>
      </trkpt>
      <trkpt lat="45.90562" lon="6.83287">
        <ele>1017</ele>
        <time>2026-08-04T04:29:46.278Z</time>
      </trkpt>
      <trkpt lat="45.90562" lon="6.83288">
        <ele>1017</ele>
        <time>2026-08-04T04:29:47.278Z</time>
      </trkpt>
      <trkpt lat="45.90563" lon="6.83289">
        <ele>1018</ele>
        <time>2026-08-04T04:29:48.278Z</time>
      </trkpt>
      <trkpt lat="45.90564" lon="6.83289">
        <ele>1019</ele>
        <time>2026-08-04T04:29:49.278Z</time>
      </trkpt>
      <trkpt lat="45.90565" lon="6.8329">
        <ele>1019</ele>
        <time>2026-08-04T04:29:50.278Z</time>
      </trkpt>
      <trkpt lat="45.90566" lon="6.83291">
        <ele>1020</ele>
        <time>2026-08-04T04:29:51.278Z</time>
      </trkpt>
      <trkpt lat="45.90567" lon="6.83292">
        <ele>1021</ele>
        <time>2026-08-04T04:29:52.278Z</time>
      </trkpt>
      <trkpt lat="45.90569" lon="6.83294">
        <ele>1021</ele>
        <time>2026-08-04T04:29:53.278Z</time>
      </trkpt>
      <trkpt lat="45.9057" lon="6.83295">
        <ele>1021</ele>
        <time>2026-08-04T04:29:54.278Z</time>
      </trkpt>
      <trkpt lat="45.90571" lon="6.83296">
        <ele>1022</ele>
        <time>2026-08-04T04:29:55.278Z</time>
      </trkpt>
      <trkpt lat="45.90572" lon="6.83297">
        <ele>1022</ele>
        <time>2026-08-04T04:29:56.278Z</time>
      </trkpt>
      <trkpt lat="45.90573" lon="6.83298">
        <ele>1023</ele>
        <time>2026-08-04T04:29:57.278Z</time>
      </trkpt>
      <trkpt lat="45.90573" lon="6.83298">
        <ele>1023</ele>
        <time>2026-08-04T04:29:58.278Z</time>
      </trkpt>
      <trkpt lat="45.90574" lon="6.83297">
        <ele>1024</ele>
        <time>2026-08-04T04:29:59.278Z</time>
      </trkpt>
      <trkpt lat="45.90575" lon="6.83298">
        <ele>1024</ele>
        <time>2026-08-04T04:30:00.278Z</time>
      </trkpt>
      <trkpt lat="45.90577" lon="6.83298">
        <ele>1024</ele>
        <time>2026-08-04T04:30:01.278Z</time>
      </trkpt>
      <trkpt lat="45.90578" lon="6.83299">
        <ele>1025</ele>
        <time>2026-08-04T04:30:02.278Z</time>
      </trkpt>
      <trkpt lat="45.90579" lon="6.833">
        <ele>1025</ele>
        <time>2026-08-04T04:30:03.278Z</time>
      </trkpt>
      <trkpt lat="45.9058" lon="6.83301">
        <ele>1025</ele>
        <time>2026-08-04T04:30:04.278Z</time>
      </trkpt>
      <trkpt lat="45.90583" lon="6.83302">
        <ele>1024</ele>
        <time>2026-08-04T04:30:05.278Z</time>
      </trkpt>
      <trkpt lat="45.90583" lon="6.83302">
        <ele>1024</ele>
        <time>2026-08-04T04:30:06.278Z</time>
      </trkpt>
      <trkpt lat="45.90583" lon="6.83303">
        <ele>1024</ele>
        <time>2026-08-04T04:30:07.278Z</time>
      </trkpt>
      <trkpt lat="45.90585" lon="6.83303">
        <ele>1024</ele>
        <time>2026-08-04T04:30:08.278Z</time>
      </trkpt>
      <trkpt lat="45.90586" lon="6.83303">
        <ele>1024</ele>
        <time>2026-08-04T04:30:09.278Z</time>
      </trkpt>
      <trkpt lat="45.90588" lon="6.83304">
        <ele>1024</ele>
        <time>2026-08-04T04:30:10.278Z</time>
      </trkpt>
      <trkpt lat="45.9059" lon="6.83305">
        <ele>1024</ele>
        <time>2026-08-04T04:30:11.278Z</time>
      </trkpt>
      <trkpt lat="45.9059" lon="6.83305">
        <ele>1024</ele>
        <time>2026-08-04T04:30:12.278Z</time>
      </trkpt>
      <trkpt lat="45.90591" lon="6.83306">
        <ele>1025</ele>
        <time>2026-08-04T04:30:13.278Z</time>
      </trkpt>
      <trkpt lat="45.90592" lon="6.83307">
        <ele>1025</ele>
        <time>2026-08-04T04:30:14.278Z</time>
      </trkpt>
      <trkpt lat="45.90593" lon="6.83307">
        <ele>1025</ele>
        <time>2026-08-04T04:30:15.278Z</time>
      </trkpt>
      <trkpt lat="45.90594" lon="6.83308">
        <ele>1026</ele>
        <time>2026-08-04T04:30:16.278Z</time>
      </trkpt>
      <trkpt lat="45.90595" lon="6.83308">
        <ele>1026</ele>
        <time>2026-08-04T04:30:17.278Z</time>
      </trkpt>
      <trkpt lat="45.90596" lon="6.83309">
        <ele>1026</ele>
        <time>2026-08-04T04:30:18.278Z</time>
      </trkpt>
      <trkpt lat="45.90597" lon="6.8331">
        <ele>1027</ele>
        <time>2026-08-04T04:30:19.278Z</time>
      </trkpt>
      <trkpt lat="45.90598" lon="6.83311">
        <ele>1027</ele>
        <time>2026-08-04T04:30:20.278Z</time>
      </trkpt>
      <trkpt lat="45.90599" lon="6.83313">
        <ele>1027</ele>
        <time>2026-08-04T04:30:21.278Z</time>
      </trkpt>
      <trkpt lat="45.906" lon="6.83313">
        <ele>1027</ele>
        <time>2026-08-04T04:30:22.278Z</time>
      </trkpt>
      <trkpt lat="45.90601" lon="6.83315">
        <ele>1027</ele>
        <time>2026-08-04T04:30:23.278Z</time>
      </trkpt>
      <trkpt lat="45.90602" lon="6.83316">
        <ele>1027</ele>
        <time>2026-08-04T04:30:24.278Z</time>
      </trkpt>
      <trkpt lat="45.90604" lon="6.83317">
        <ele>1027</ele>
        <time>2026-08-04T04:30:25.278Z</time>
      </trkpt>
      <trkpt lat="45.90605" lon="6.83318">
        <ele>1027</ele>
        <time>2026-08-04T04:30:26.278Z</time>
      </trkpt>
      <trkpt lat="45.90607" lon="6.83319">
        <ele>1027</ele>
        <time>2026-08-04T04:30:27.278Z</time>
      </trkpt>
      <trkpt lat="45.90609" lon="6.8332">
        <ele>1027</ele>
        <time>2026-08-04T04:30:28.278Z</time>
      </trkpt>
      <trkpt lat="45.90611" lon="6.83322">
        <ele>1027</ele>
        <time>2026-08-04T04:30:29.278Z</time>
      </trkpt>
      <trkpt lat="45.90611" lon="6.83325">
        <ele>1027</ele>
        <time>2026-08-04T04:30:30.278Z</time>
      </trkpt>
      <trkpt lat="45.90613" lon="6.83327">
        <ele>1027</ele>
        <time>2026-08-04T04:30:31.278Z</time>
      </trkpt>
      <trkpt lat="45.90614" lon="6.83329">
        <ele>1027</ele>
        <time>2026-08-04T04:30:32.278Z</time>
      </trkpt>
      <trkpt lat="45.90616" lon="6.83331">
        <ele>1027</ele>
        <time>2026-08-04T04:30:33.278Z</time>
      </trkpt>
      <trkpt lat="45.90617" lon="6.83334">
        <ele>1027</ele>
        <time>2026-08-04T04:30:34.278Z</time>
      </trkpt>
      <trkpt lat="45.90618" lon="6.83336">
        <ele>1027</ele>
        <time>2026-08-04T04:30:35.278Z</time>
      </trkpt>
      <trkpt lat="45.90619" lon="6.83338">
        <ele>1027</ele>
        <time>2026-08-04T04:30:36.278Z</time>
      </trkpt>
      <trkpt lat="45.9062" lon="6.83339">
        <ele>1027</ele>
        <time>2026-08-04T04:30:37.278Z</time>
      </trkpt>
      <trkpt lat="45.9062" lon="6.83341">
        <ele>1027</ele>
        <time>2026-08-04T04:30:38.278Z</time>
      </trkpt>
      <trkpt lat="45.90622" lon="6.83343">
        <ele>1028</ele>
        <time>2026-08-04T04:30:39.278Z</time>
      </trkpt>
      <trkpt lat="45.90623" lon="6.83344">
        <ele>1028</ele>
        <time>2026-08-04T04:30:40.278Z</time>
      </trkpt>
      <trkpt lat="45.90625" lon="6.83346">
        <ele>1028</ele>
        <time>2026-08-04T04:30:41.278Z</time>
      </trkpt>
      <trkpt lat="45.90627" lon="6.83348">
        <ele>1028</ele>
        <time>2026-08-04T04:30:42.278Z</time>
      </trkpt>
      <trkpt lat="45.90629" lon="6.83349">
        <ele>1029</ele>
        <time>2026-08-04T04:30:43.278Z</time>
      </trkpt>
      <trkpt lat="45.90631" lon="6.8335">
        <ele>1029</ele>
        <time>2026-08-04T04:30:44.278Z</time>
      </trkpt>
      <trkpt lat="45.90634" lon="6.83352">
        <ele>1029</ele>
        <time>2026-08-04T04:30:45.278Z</time>
      </trkpt>
      <trkpt lat="45.90636" lon="6.83353">
        <ele>1029</ele>
        <time>2026-08-04T04:30:46.278Z</time>
      </trkpt>
      <trkpt lat="45.90638" lon="6.83355">
        <ele>1029</ele>
        <time>2026-08-04T04:30:47.278Z</time>
      </trkpt>
      <trkpt lat="45.9064" lon="6.83357">
        <ele>1028</ele>
        <time>2026-08-04T04:30:48.278Z</time>
      </trkpt>
      <trkpt lat="45.90642" lon="6.83358">
        <ele>1028</ele>
        <time>2026-08-04T04:30:49.278Z</time>
      </trkpt>
      <trkpt lat="45.90644" lon="6.8336">
        <ele>1028</ele>
        <time>2026-08-04T04:30:50.278Z</time>
      </trkpt>
      <trkpt lat="45.90646" lon="6.83362">
        <ele>1028</ele>
        <time>2026-08-04T04:30:51.278Z</time>
      </trkpt>
      <trkpt lat="45.90647" lon="6.83365">
        <ele>1028</ele>
        <time>2026-08-04T04:30:52.278Z</time>
      </trkpt>
      <trkpt lat="45.90648" lon="6.83367">
        <ele>1028</ele>
        <time>2026-08-04T04:30:53.278Z</time>
      </trkpt>
      <trkpt lat="45.90648" lon="6.8337">
        <ele>1028</ele>
        <time>2026-08-04T04:30:54.278Z</time>
      </trkpt>
      <trkpt lat="45.90649" lon="6.83372">
        <ele>1028</ele>
        <time>2026-08-04T04:30:55.278Z</time>
      </trkpt>
      <trkpt lat="45.9065" lon="6.83375">
        <ele>1029</ele>
        <time>2026-08-04T04:30:56.278Z</time>
      </trkpt>
      <trkpt lat="45.9065" lon="6.83378">
        <ele>1029</ele>
        <time>2026-08-04T04:30:57.278Z</time>
      </trkpt>
      <trkpt lat="45.90651" lon="6.83381">
        <ele>1029</ele>
        <time>2026-08-04T04:30:58.278Z</time>
      </trkpt>
      <trkpt lat="45.90652" lon="6.83383">
        <ele>1030</ele>
        <time>2026-08-04T04:30:59.278Z</time>
      </trkpt>
      <trkpt lat="45.90652" lon="6.83385">
        <ele>1030</ele>
        <time>2026-08-04T04:31:00.278Z</time>
      </trkpt>
      <trkpt lat="45.90652" lon="6.83387">
        <ele>1031</ele>
        <time>2026-08-04T04:31:01.278Z</time>
      </trkpt>
      <trkpt lat="45.90651" lon="6.83389">
        <ele>1032</ele>
        <time>2026-08-04T04:31:02.278Z</time>
      </trkpt>
      <trkpt lat="45.90651" lon="6.83392">
        <ele>1032</ele>
        <time>2026-08-04T04:31:03.278Z</time>
      </trkpt>
      <trkpt lat="45.90651" lon="6.83395">
        <ele>1033</ele>
        <time>2026-08-04T04:31:04.278Z</time>
      </trkpt>
      <trkpt lat="45.90651" lon="6.834">
        <ele>1033</ele>
        <time>2026-08-04T04:31:05.278Z</time>
      </trkpt>
      <trkpt lat="45.90651" lon="6.83404">
        <ele>1033</ele>
        <time>2026-08-04T04:31:06.278Z</time>
      </trkpt>
      <trkpt lat="45.90652" lon="6.83407">
        <ele>1034</ele>
        <time>2026-08-04T04:31:07.278Z</time>
      </trkpt>
      <trkpt lat="45.90652" lon="6.83411">
        <ele>1034</ele>
        <time>2026-08-04T04:31:08.278Z</time>
      </trkpt>
      <trkpt lat="45.90653" lon="6.83415">
        <ele>1035</ele>
        <time>2026-08-04T04:31:09.278Z</time>
      </trkpt>
      <trkpt lat="45.90654" lon="6.83417">
        <ele>1035</ele>
        <time>2026-08-04T04:31:10.278Z</time>
      </trkpt>
      <trkpt lat="45.90654" lon="6.8342">
        <ele>1035</ele>
        <time>2026-08-04T04:31:11.278Z</time>
      </trkpt>
      <trkpt lat="45.90655" lon="6.83422">
        <ele>1035</ele>
        <time>2026-08-04T04:31:12.278Z</time>
      </trkpt>
      <trkpt lat="45.90655" lon="6.83426">
        <ele>1035</ele>
        <time>2026-08-04T04:31:13.278Z</time>
      </trkpt>
      <trkpt lat="45.90656" lon="6.8343">
        <ele>1034</ele>
        <time>2026-08-04T04:31:14.278Z</time>
      </trkpt>
      <trkpt lat="45.90657" lon="6.83434">
        <ele>1033</ele>
        <time>2026-08-04T04:31:15.278Z</time>
      </trkpt>
      <trkpt lat="45.90658" lon="6.83438">
        <ele>1032</ele>
        <time>2026-08-04T04:31:16.278Z</time>
      </trkpt>
      <trkpt lat="45.90659" lon="6.83441">
        <ele>1031</ele>
        <time>2026-08-04T04:31:17.278Z</time>
      </trkpt>
      <trkpt lat="45.9066" lon="6.83445">
        <ele>1030</ele>
        <time>2026-08-04T04:31:18.278Z</time>
      </trkpt>
      <trkpt lat="45.90661" lon="6.83448">
        <ele>1028</ele>
        <time>2026-08-04T04:31:19.278Z</time>
      </trkpt>
      <trkpt lat="45.90662" lon="6.8345">
        <ele>1027</ele>
        <time>2026-08-04T04:31:20.278Z</time>
      </trkpt>
      <trkpt lat="45.90664" lon="6.83454">
        <ele>1026</ele>
        <time>2026-08-04T04:31:21.278Z</time>
      </trkpt>
      <trkpt lat="45.90665" lon="6.83458">
        <ele>1025</ele>
        <time>2026-08-04T04:31:22.278Z</time>
      </trkpt>
      <trkpt lat="45.90666" lon="6.8346">
        <ele>1023</ele>
        <time>2026-08-04T04:31:23.278Z</time>
      </trkpt>
      <trkpt lat="45.90667" lon="6.83464">
        <ele>1022</ele>
        <time>2026-08-04T04:31:24.278Z</time>
      </trkpt>
      <trkpt lat="45.90669" lon="6.83466">
        <ele>1021</ele>
        <time>2026-08-04T04:31:25.278Z</time>
      </trkpt>
      <trkpt lat="45.9067" lon="6.83469">
        <ele>1021</ele>
        <time>2026-08-04T04:31:26.278Z</time>
      </trkpt>
      <trkpt lat="45.90671" lon="6.83472">
        <ele>1020</ele>
        <time>2026-08-04T04:31:27.278Z</time>
      </trkpt>
      <trkpt lat="45.90673" lon="6.83474">
        <ele>1019</ele>
        <time>2026-08-04T04:31:28.278Z</time>
      </trkpt>
      <trkpt lat="45.90675" lon="6.83476">
        <ele>1018</ele>
        <time>2026-08-04T04:31:29.278Z</time>
      </trkpt>
      <trkpt lat="45.90677" lon="6.83478">
        <ele>1018</ele>
        <time>2026-08-04T04:31:30.278Z</time>
      </trkpt>
      <trkpt lat="45.90678" lon="6.8348">
        <ele>1017</ele>
        <time>2026-08-04T04:31:31.278Z</time>
      </trkpt>
      <trkpt lat="45.9068" lon="6.83483">
        <ele>1017</ele>
        <time>2026-08-04T04:31:32.278Z</time>
      </trkpt>
      <trkpt lat="45.90681" lon="6.83485">
        <ele>1016</ele>
        <time>2026-08-04T04:31:33.278Z</time>
      </trkpt>
      <trkpt lat="45.90684" lon="6.83487">
        <ele>1015</ele>
        <time>2026-08-04T04:31:34.278Z</time>
      </trkpt>
      <trkpt lat="45.90686" lon="6.83489">
        <ele>1015</ele>
        <time>2026-08-04T04:31:35.278Z</time>
      </trkpt>
      <trkpt lat="45.90688" lon="6.83491">
        <ele>1014</ele>
        <time>2026-08-04T04:31:36.278Z</time>
      </trkpt>
      <trkpt lat="45.90689" lon="6.83493">
        <ele>1014</ele>
        <time>2026-08-04T04:31:37.278Z</time>
      </trkpt>
      <trkpt lat="45.90691" lon="6.83496">
        <ele>1013</ele>
        <time>2026-08-04T04:31:38.278Z</time>
      </trkpt>
      <trkpt lat="45.90693" lon="6.83499">
        <ele>1013</ele>
        <time>2026-08-04T04:31:39.278Z</time>
      </trkpt>
      <trkpt lat="45.90694" lon="6.83501">
        <ele>1013</ele>
        <time>2026-08-04T04:31:40.278Z</time>
      </trkpt>
      <trkpt lat="45.90695" lon="6.83503">
        <ele>1013</ele>
        <time>2026-08-04T04:31:41.278Z</time>
      </trkpt>
      <trkpt lat="45.90697" lon="6.83506">
        <ele>1012</ele>
        <time>2026-08-04T04:31:42.278Z</time>
      </trkpt>
      <trkpt lat="45.90699" lon="6.83508">
        <ele>1011</ele>
        <time>2026-08-04T04:31:43.278Z</time>
      </trkpt>
      <trkpt lat="45.907" lon="6.8351">
        <ele>1011</ele>
        <time>2026-08-04T04:31:44.278Z</time>
      </trkpt>
      <trkpt lat="45.90702" lon="6.83513">
        <ele>1010</ele>
        <time>2026-08-04T04:31:45.278Z</time>
      </trkpt>
      <trkpt lat="45.90704" lon="6.83515">
        <ele>1010</ele>
        <time>2026-08-04T04:31:46.278Z</time>
      </trkpt>
      <trkpt lat="45.90706" lon="6.83518">
        <ele>1010</ele>
        <time>2026-08-04T04:31:47.278Z</time>
      </trkpt>
      <trkpt lat="45.90707" lon="6.8352">
        <ele>1010</ele>
        <time>2026-08-04T04:31:48.278Z</time>
      </trkpt>
      <trkpt lat="45.90708" lon="6.83523">
        <ele>1010</ele>
        <time>2026-08-04T04:31:49.278Z</time>
      </trkpt>
      <trkpt lat="45.90709" lon="6.83526">
        <ele>1010</ele>
        <time>2026-08-04T04:31:50.278Z</time>
      </trkpt>
      <trkpt lat="45.9071" lon="6.83529">
        <ele>1009</ele>
        <time>2026-08-04T04:31:51.278Z</time>
      </trkpt>
      <trkpt lat="45.90712" lon="6.83532">
        <ele>1009</ele>
        <time>2026-08-04T04:31:52.278Z</time>
      </trkpt>
      <trkpt lat="45.90713" lon="6.83535">
        <ele>1009</ele>
        <time>2026-08-04T04:31:53.278Z</time>
      </trkpt>
      <trkpt lat="45.90714" lon="6.83537">
        <ele>1009</ele>
        <time>2026-08-04T04:31:54.278Z</time>
      </trkpt>
      <trkpt lat="45.90715" lon="6.8354">
        <ele>1009</ele>
        <time>2026-08-04T04:31:55.278Z</time>
      </trkpt>
      <trkpt lat="45.90717" lon="6.83542">
        <ele>1009</ele>
        <time>2026-08-04T04:31:56.278Z</time>
      </trkpt>
      <trkpt lat="45.90718" lon="6.83545">
        <ele>1009</ele>
        <time>2026-08-04T04:31:57.278Z</time>
      </trkpt>
      <trkpt lat="45.90719" lon="6.83547">
        <ele>1009</ele>
        <time>2026-08-04T04:31:58.278Z</time>
      </trkpt>
      <trkpt lat="45.9072" lon="6.8355">
        <ele>1010</ele>
        <time>2026-08-04T04:31:59.278Z</time>
      </trkpt>
      <trkpt lat="45.90721" lon="6.83551">
        <ele>1010</ele>
        <time>2026-08-04T04:32:00.278Z</time>
      </trkpt>
      <trkpt lat="45.90723" lon="6.83553">
        <ele>1010</ele>
        <time>2026-08-04T04:32:01.278Z</time>
      </trkpt>
      <trkpt lat="45.90725" lon="6.83553">
        <ele>1010</ele>
        <time>2026-08-04T04:32:02.278Z</time>
      </trkpt>
      <trkpt lat="45.90727" lon="6.83555">
        <ele>1011</ele>
        <time>2026-08-04T04:32:03.278Z</time>
      </trkpt>
      <trkpt lat="45.90729" lon="6.83555">
        <ele>1011</ele>
        <time>2026-08-04T04:32:04.278Z</time>
      </trkpt>
      <trkpt lat="45.90731" lon="6.83556">
        <ele>1011</ele>
        <time>2026-08-04T04:32:05.278Z</time>
      </trkpt>
      <trkpt lat="45.90733" lon="6.83557">
        <ele>1012</ele>
        <time>2026-08-04T04:32:06.278Z</time>
      </trkpt>
      <trkpt lat="45.90735" lon="6.83558">
        <ele>1012</ele>
        <time>2026-08-04T04:32:07.278Z</time>
      </trkpt>
      <trkpt lat="45.90737" lon="6.83559">
        <ele>1012</ele>
        <time>2026-08-04T04:32:08.278Z</time>
      </trkpt>
      <trkpt lat="45.90738" lon="6.83559">
        <ele>1013</ele>
        <time>2026-08-04T04:32:09.278Z</time>
      </trkpt>
      <trkpt lat="45.9074" lon="6.8356">
        <ele>1013</ele>
        <time>2026-08-04T04:32:10.278Z</time>
      </trkpt>
      <trkpt lat="45.90742" lon="6.8356">
        <ele>1014</ele>
        <time>2026-08-04T04:32:11.278Z</time>
      </trkpt>
      <trkpt lat="45.90743" lon="6.83561">
        <ele>1015</ele>
        <time>2026-08-04T04:32:12.278Z</time>
      </trkpt>
      <trkpt lat="45.90745" lon="6.83562">
        <ele>1016</ele>
        <time>2026-08-04T04:32:13.278Z</time>
      </trkpt>
      <trkpt lat="45.90747" lon="6.83563">
        <ele>1017</ele>
        <time>2026-08-04T04:32:14.278Z</time>
      </trkpt>
      <trkpt lat="45.9075" lon="6.83565">
        <ele>1018</ele>
        <time>2026-08-04T04:32:15.278Z</time>
      </trkpt>
      <trkpt lat="45.90752" lon="6.83567">
        <ele>1020</ele>
        <time>2026-08-04T04:32:16.278Z</time>
      </trkpt>
      <trkpt lat="45.90754" lon="6.8357">
        <ele>1020</ele>
        <time>2026-08-04T04:32:17.278Z</time>
      </trkpt>
      <trkpt lat="45.90754" lon="6.83571">
        <ele>1021</ele>
        <time>2026-08-04T04:32:18.278Z</time>
      </trkpt>
      <trkpt lat="45.90757" lon="6.83573">
        <ele>1022</ele>
        <time>2026-08-04T04:32:19.278Z</time>
      </trkpt>
      <trkpt lat="45.90758" lon="6.83574">
        <ele>1022</ele>
        <time>2026-08-04T04:32:20.278Z</time>
      </trkpt>
      <trkpt lat="45.9076" lon="6.83577">
        <ele>1023</ele>
        <time>2026-08-04T04:32:21.278Z</time>
      </trkpt>
      <trkpt lat="45.90762" lon="6.83579">
        <ele>1023</ele>
        <time>2026-08-04T04:32:22.278Z</time>
      </trkpt>
      <trkpt lat="45.90764" lon="6.83581">
        <ele>1023</ele>
        <time>2026-08-04T04:32:23.278Z</time>
      </trkpt>
      <trkpt lat="45.90766" lon="6.83584">
        <ele>1023</ele>
        <time>2026-08-04T04:32:24.278Z</time>
      </trkpt>
      <trkpt lat="45.90768" lon="6.83585">
        <ele>1023</ele>
        <time>2026-08-04T04:32:25.278Z</time>
      </trkpt>
      <trkpt lat="45.9077" lon="6.83588">
        <ele>1023</ele>
        <time>2026-08-04T04:32:26.278Z</time>
      </trkpt>
      <trkpt lat="45.90771" lon="6.83591">
        <ele>1023</ele>
        <time>2026-08-04T04:32:27.278Z</time>
      </trkpt>
      <trkpt lat="45.90772" lon="6.83594">
        <ele>1022</ele>
        <time>2026-08-04T04:32:28.278Z</time>
      </trkpt>
      <trkpt lat="45.90773" lon="6.83597">
        <ele>1022</ele>
        <time>2026-08-04T04:32:29.278Z</time>
      </trkpt>
      <trkpt lat="45.90773" lon="6.836">
        <ele>1022</ele>
        <time>2026-08-04T04:32:30.278Z</time>
      </trkpt>
      <trkpt lat="45.90774" lon="6.83603">
        <ele>1021</ele>
        <time>2026-08-04T04:32:31.278Z</time>
      </trkpt>
      <trkpt lat="45.90775" lon="6.83606">
        <ele>1021</ele>
        <time>2026-08-04T04:32:32.278Z</time>
      </trkpt>
      <trkpt lat="45.90775" lon="6.83609">
        <ele>1021</ele>
        <time>2026-08-04T04:32:33.278Z</time>
      </trkpt>
      <trkpt lat="45.90776" lon="6.83612">
        <ele>1020</ele>
        <time>2026-08-04T04:32:34.278Z</time>
      </trkpt>
      <trkpt lat="45.90776" lon="6.83617">
        <ele>1020</ele>
        <time>2026-08-04T04:32:35.278Z</time>
      </trkpt>
      <trkpt lat="45.90777" lon="6.83621">
        <ele>1020</ele>
        <time>2026-08-04T04:32:36.278Z</time>
      </trkpt>
      <trkpt lat="45.90778" lon="6.83625">
        <ele>1019</ele>
        <time>2026-08-04T04:32:37.278Z</time>
      </trkpt>
      <trkpt lat="45.90779" lon="6.83629">
        <ele>1019</ele>
        <time>2026-08-04T04:32:38.278Z</time>
      </trkpt>
      <trkpt lat="45.90779" lon="6.83632">
        <ele>1019</ele>
        <time>2026-08-04T04:32:39.278Z</time>
      </trkpt>
      <trkpt lat="45.90779" lon="6.83636">
        <ele>1019</ele>
        <time>2026-08-04T04:32:40.278Z</time>
      </trkpt>
      <trkpt lat="45.9078" lon="6.8364">
        <ele>1019</ele>
        <time>2026-08-04T04:32:41.278Z</time>
      </trkpt>
      <trkpt lat="45.90781" lon="6.83644">
        <ele>1019</ele>
        <time>2026-08-04T04:32:42.278Z</time>
      </trkpt>
      <trkpt lat="45.90781" lon="6.83648">
        <ele>1019</ele>
        <time>2026-08-04T04:32:43.278Z</time>
      </trkpt>
      <trkpt lat="45.90781" lon="6.83652">
        <ele>1019</ele>
        <time>2026-08-04T04:32:44.278Z</time>
      </trkpt>
      <trkpt lat="45.9078" lon="6.83656">
        <ele>1018</ele>
        <time>2026-08-04T04:32:45.278Z</time>
      </trkpt>
      <trkpt lat="45.9078" lon="6.83659">
        <ele>1018</ele>
        <time>2026-08-04T04:32:46.278Z</time>
      </trkpt>
      <trkpt lat="45.90779" lon="6.83663">
        <ele>1017</ele>
        <time>2026-08-04T04:32:47.278Z</time>
      </trkpt>
      <trkpt lat="45.90778" lon="6.83667">
        <ele>1017</ele>
        <time>2026-08-04T04:32:48.278Z</time>
      </trkpt>
      <trkpt lat="45.90777" lon="6.83671">
        <ele>1016</ele>
        <time>2026-08-04T04:32:49.278Z</time>
      </trkpt>
      <trkpt lat="45.90777" lon="6.83675">
        <ele>1016</ele>
        <time>2026-08-04T04:32:50.278Z</time>
      </trkpt>
      <trkpt lat="45.90776" lon="6.83679">
        <ele>1015</ele>
        <time>2026-08-04T04:32:51.278Z</time>
      </trkpt>
      <trkpt lat="45.90776" lon="6.83683">
        <ele>1015</ele>
        <time>2026-08-04T04:32:52.278Z</time>
      </trkpt>
      <trkpt lat="45.90776" lon="6.83687">
        <ele>1014</ele>
        <time>2026-08-04T04:32:53.278Z</time>
      </trkpt>
      <trkpt lat="45.90775" lon="6.83691">
        <ele>1014</ele>
        <time>2026-08-04T04:32:54.278Z</time>
      </trkpt>
      <trkpt lat="45.90775" lon="6.83695">
        <ele>1014</ele>
        <time>2026-08-04T04:32:55.278Z</time>
      </trkpt>
      <trkpt lat="45.90774" lon="6.83699">
        <ele>1014</ele>
        <time>2026-08-04T04:32:56.278Z</time>
      </trkpt>
      <trkpt lat="45.90774" lon="6.83702">
        <ele>1013</ele>
        <time>2026-08-04T04:32:57.278Z</time>
      </trkpt>
      <trkpt lat="45.90773" lon="6.83707">
        <ele>1013</ele>
        <time>2026-08-04T04:32:58.278Z</time>
      </trkpt>
      <trkpt lat="45.90772" lon="6.83712">
        <ele>1013</ele>
        <time>2026-08-04T04:32:59.278Z</time>
      </trkpt>
      <trkpt lat="45.90772" lon="6.83716">
        <ele>1012</ele>
        <time>2026-08-04T04:33:00.278Z</time>
      </trkpt>
      <trkpt lat="45.90773" lon="6.8372">
        <ele>1012</ele>
        <time>2026-08-04T04:33:01.278Z</time>
      </trkpt>
      <trkpt lat="45.90774" lon="6.83723">
        <ele>1013</ele>
        <time>2026-08-04T04:33:02.278Z</time>
      </trkpt>
      <trkpt lat="45.90774" lon="6.83727">
        <ele>1013</ele>
        <time>2026-08-04T04:33:03.278Z</time>
      </trkpt>
      <trkpt lat="45.90775" lon="6.8373">
        <ele>1013</ele>
        <time>2026-08-04T04:33:04.278Z</time>
      </trkpt>
      <trkpt lat="45.90776" lon="6.83732">
        <ele>1013</ele>
        <time>2026-08-04T04:33:05.278Z</time>
      </trkpt>
      <trkpt lat="45.90777" lon="6.83736">
        <ele>1013</ele>
        <time>2026-08-04T04:33:06.279Z</time>
      </trkpt>
      <trkpt lat="45.90777" lon="6.83738">
        <ele>1013</ele>
        <time>2026-08-04T04:33:07.278Z</time>
      </trkpt>
      <trkpt lat="45.90778" lon="6.83741">
        <ele>1013</ele>
        <time>2026-08-04T04:33:08.278Z</time>
      </trkpt>
      <trkpt lat="45.90778" lon="6.83744">
        <ele>1013</ele>
        <time>2026-08-04T04:33:09.278Z</time>
      </trkpt>
      <trkpt lat="45.90778" lon="6.83746">
        <ele>1013</ele>
        <time>2026-08-04T04:33:10.278Z</time>
      </trkpt>
      <trkpt lat="45.90778" lon="6.83749">
        <ele>1013</ele>
        <time>2026-08-04T04:33:11.278Z</time>
      </trkpt>
      <trkpt lat="45.90779" lon="6.83751">
        <ele>1012</ele>
        <time>2026-08-04T04:33:12.278Z</time>
      </trkpt>
      <trkpt lat="45.90779" lon="6.83752">
        <ele>1012</ele>
        <time>2026-08-04T04:33:13.278Z</time>
      </trkpt>
      <trkpt lat="45.9078" lon="6.83754">
        <ele>1012</ele>
        <time>2026-08-04T04:33:14.278Z</time>
      </trkpt>
      <trkpt lat="45.90781" lon="6.83755">
        <ele>1012</ele>
        <time>2026-08-04T04:33:15.278Z</time>
      </trkpt>
      <trkpt lat="45.90782" lon="6.83755">
        <ele>1012</ele>
        <time>2026-08-04T04:33:16.278Z</time>
      </trkpt>
      <trkpt lat="45.90783" lon="6.83756">
        <ele>1012</ele>
        <time>2026-08-04T04:33:17.278Z</time>
      </trkpt>
      <trkpt lat="45.90783" lon="6.83756">
        <ele>1012</ele>
        <time>2026-08-04T04:33:18.278Z</time>
      </trkpt>
      <trkpt lat="45.90783" lon="6.83757">
        <ele>1013</ele>
        <time>2026-08-04T04:33:19.278Z</time>
      </trkpt>
      <trkpt lat="45.90783" lon="6.83758">
        <ele>1013</ele>
        <time>2026-08-04T04:33:20.278Z</time>
      </trkpt>
      <trkpt lat="45.90783" lon="6.83758">
        <ele>1013</ele>
        <time>2026-08-04T04:33:21.278Z</time>
      </trkpt>
      <trkpt lat="45.90783" lon="6.83758">
        <ele>1012</ele>
        <time>2026-08-04T04:33:22.278Z</time>
      </trkpt>
      <trkpt lat="45.90783" lon="6.83757">
        <ele>1012</ele>
        <time>2026-08-04T04:33:23.278Z</time>
      </trkpt>
      <trkpt lat="45.90784" lon="6.83758">
        <ele>1012</ele>
        <time>2026-08-04T04:33:24.278Z</time>
      </trkpt>
      <trkpt lat="45.90786" lon="6.83758">
        <ele>1011</ele>
        <time>2026-08-04T04:33:25.278Z</time>
      </trkpt>
      <trkpt lat="45.90787" lon="6.83758">
        <ele>1011</ele>
        <time>2026-08-04T04:33:26.278Z</time>
      </trkpt>
      <trkpt lat="45.90788" lon="6.83758">
        <ele>1010</ele>
        <time>2026-08-04T04:33:27.278Z</time>
      </trkpt>
      <trkpt lat="45.9079" lon="6.83758">
        <ele>1010</ele>
        <time>2026-08-04T04:33:28.278Z</time>
      </trkpt>
      <trkpt lat="45.90791" lon="6.83759">
        <ele>1011</ele>
        <time>2026-08-04T04:33:29.278Z</time>
      </trkpt>
      <trkpt lat="45.90792" lon="6.83759">
        <ele>1011</ele>
        <time>2026-08-04T04:33:30.278Z</time>
      </trkpt>
      <trkpt lat="45.90793" lon="6.83759">
        <ele>1011</ele>
        <time>2026-08-04T04:33:31.278Z</time>
      </trkpt>
      <trkpt lat="45.90794" lon="6.8376">
        <ele>1011</ele>
        <time>2026-08-04T04:33:32.278Z</time>
      </trkpt>
      <trkpt lat="45.90795" lon="6.83761">
        <ele>1011</ele>
        <time>2026-08-04T04:33:33.278Z</time>
      </trkpt>
      <trkpt lat="45.90796" lon="6.83761">
        <ele>1011</ele>
        <time>2026-08-04T04:33:34.278Z</time>
      </trkpt>
      <trkpt lat="45.90797" lon="6.83762">
        <ele>1011</ele>
        <time>2026-08-04T04:33:35.278Z</time>
      </trkpt>
      <trkpt lat="45.90799" lon="6.83763">
        <ele>1012</ele>
        <time>2026-08-04T04:33:36.278Z</time>
      </trkpt>
      <trkpt lat="45.908" lon="6.83764">
        <ele>1012</ele>
        <time>2026-08-04T04:33:37.278Z</time>
      </trkpt>
      <trkpt lat="45.908" lon="6.83765">
        <ele>1012</ele>
        <time>2026-08-04T04:33:38.278Z</time>
      </trkpt>
      <trkpt lat="45.90801" lon="6.83767">
        <ele>1013</ele>
        <time>2026-08-04T04:33:39.278Z</time>
      </trkpt>
      <trkpt lat="45.90802" lon="6.83768">
        <ele>1013</ele>
        <time>2026-08-04T04:33:40.278Z</time>
      </trkpt>
      <trkpt lat="45.90802" lon="6.83769">
        <ele>1013</ele>
        <time>2026-08-04T04:33:41.278Z</time>
      </trkpt>
      <trkpt lat="45.90803" lon="6.8377">
        <ele>1013</ele>
        <time>2026-08-04T04:33:42.278Z</time>
      </trkpt>
      <trkpt lat="45.90804" lon="6.83771">
        <ele>1013</ele>
        <time>2026-08-04T04:33:43.278Z</time>
      </trkpt>
      <trkpt lat="45.90805" lon="6.83772">
        <ele>1013</ele>
        <time>2026-08-04T04:33:44.278Z</time>
      </trkpt>
      <trkpt lat="45.90806" lon="6.83775">
        <ele>1014</ele>
        <time>2026-08-04T04:33:45.278Z</time>
      </trkpt>
      <trkpt lat="45.90807" lon="6.83777">
        <ele>1014</ele>
        <time>2026-08-04T04:33:46.278Z</time>
      </trkpt>
      <trkpt lat="45.90807" lon="6.83779">
        <ele>1014</ele>
        <time>2026-08-04T04:33:47.278Z</time>
      </trkpt>
      <trkpt lat="45.90807" lon="6.8378">
        <ele>1015</ele>
        <time>2026-08-04T04:33:48.278Z</time>
      </trkpt>
      <trkpt lat="45.90808" lon="6.83781">
        <ele>1015</ele>
        <time>2026-08-04T04:33:49.278Z</time>
      </trkpt>
      <trkpt lat="45.90808" lon="6.83782">
        <ele>1015</ele>
        <time>2026-08-04T04:33:50.278Z</time>
      </trkpt>
      <trkpt lat="45.90807" lon="6.83785">
        <ele>1016</ele>
        <time>2026-08-04T04:33:51.278Z</time>
      </trkpt>
      <trkpt lat="45.90807" lon="6.83787">
        <ele>1016</ele>
        <time>2026-08-04T04:33:52.278Z</time>
      </trkpt>
      <trkpt lat="45.90807" lon="6.83788">
        <ele>1017</ele>
        <time>2026-08-04T04:33:53.278Z</time>
      </trkpt>
      <trkpt lat="45.90807" lon="6.83789">
        <ele>1017</ele>
        <time>2026-08-04T04:33:54.278Z</time>
      </trkpt>
      <trkpt lat="45.90808" lon="6.8379">
        <ele>1017</ele>
        <time>2026-08-04T04:33:55.278Z</time>
      </trkpt>
      <trkpt lat="45.90808" lon="6.83791">
        <ele>1018</ele>
        <time>2026-08-04T04:33:56.278Z</time>
      </trkpt>
      <trkpt lat="45.90809" lon="6.83791">
        <ele>1018</ele>
        <time>2026-08-04T04:33:57.278Z</time>
      </trkpt>
      <trkpt lat="45.9081" lon="6.83791">
        <ele>1018</ele>
        <time>2026-08-04T04:33:58.278Z</time>
      </trkpt>
      <trkpt lat="45.90811" lon="6.83791">
        <ele>1018</ele>
        <time>2026-08-04T04:33:59.278Z</time>
      </trkpt>
      <trkpt lat="45.90812" lon="6.83791">
        <ele>1018</ele>
        <time>2026-08-04T04:34:00.278Z</time>
      </trkpt>
      <trkpt lat="45.90813" lon="6.83792">
        <ele>1019</ele>
        <time>2026-08-04T04:34:01.278Z</time>
      </trkpt>
      <trkpt lat="45.90815" lon="6.83792">
        <ele>1019</ele>
        <time>2026-08-04T04:34:02.278Z</time>
      </trkpt>
      <trkpt lat="45.90816" lon="6.83792">
        <ele>1019</ele>
        <time>2026-08-04T04:34:03.278Z</time>
      </trkpt>
      <trkpt lat="45.90818" lon="6.83792">
        <ele>1019</ele>
        <time>2026-08-04T04:34:04.278Z</time>
      </trkpt>
      <trkpt lat="45.90819" lon="6.83793">
        <ele>1020</ele>
        <time>2026-08-04T04:34:05.278Z</time>
      </trkpt>
      <trkpt lat="45.9082" lon="6.83794">
        <ele>1020</ele>
        <time>2026-08-04T04:34:06.278Z</time>
      </trkpt>
      <trkpt lat="45.90821" lon="6.83795">
        <ele>1020</ele>
        <time>2026-08-04T04:34:07.278Z</time>
      </trkpt>
      <trkpt lat="45.90822" lon="6.83795">
        <ele>1021</ele>
        <time>2026-08-04T04:34:08.278Z</time>
      </trkpt>
      <trkpt lat="45.90823" lon="6.83796">
        <ele>1021</ele>
        <time>2026-08-04T04:34:09.278Z</time>
      </trkpt>
      <trkpt lat="45.90823" lon="6.83797">
        <ele>1021</ele>
        <time>2026-08-04T04:34:10.278Z</time>
      </trkpt>
      <trkpt lat="45.90824" lon="6.83798">
        <ele>1021</ele>
        <time>2026-08-04T04:34:11.278Z</time>
      </trkpt>
      <trkpt lat="45.90825" lon="6.83798">
        <ele>1021</ele>
        <time>2026-08-04T04:34:12.278Z</time>
      </trkpt>
      <trkpt lat="45.90826" lon="6.83799">
        <ele>1022</ele>
        <time>2026-08-04T04:34:13.278Z</time>
      </trkpt>
      <trkpt lat="45.90827" lon="6.83799">
        <ele>1022</ele>
        <time>2026-08-04T04:34:14.278Z</time>
      </trkpt>
      <trkpt lat="45.90828" lon="6.838">
        <ele>1023</ele>
        <time>2026-08-04T04:34:15.278Z</time>
      </trkpt>
      <trkpt lat="45.9083" lon="6.83801">
        <ele>1024</ele>
        <time>2026-08-04T04:34:16.278Z</time>
      </trkpt>
      <trkpt lat="45.9083" lon="6.83802">
        <ele>1024</ele>
        <time>2026-08-04T04:34:17.278Z</time>
      </trkpt>
      <trkpt lat="45.90831" lon="6.83804">
        <ele>1024</ele>
        <time>2026-08-04T04:34:18.278Z</time>
      </trkpt>
      <trkpt lat="45.90832" lon="6.83805">
        <ele>1025</ele>
        <time>2026-08-04T04:34:19.278Z</time>
      </trkpt>
      <trkpt lat="45.90833" lon="6.83807">
        <ele>1025</ele>
        <time>2026-08-04T04:34:20.278Z</time>
      </trkpt>
      <trkpt lat="45.90833" lon="6.83808">
        <ele>1026</ele>
        <time>2026-08-04T04:34:21.278Z</time>
      </trkpt>
      <trkpt lat="45.90834" lon="6.8381">
        <ele>1026</ele>
        <time>2026-08-04T04:34:22.278Z</time>
      </trkpt>
      <trkpt lat="45.90835" lon="6.83811">
        <ele>1026</ele>
        <time>2026-08-04T04:34:23.278Z</time>
      </trkpt>
      <trkpt lat="45.90836" lon="6.83812">
        <ele>1026</ele>
        <time>2026-08-04T04:34:24.278Z</time>
      </trkpt>
      <trkpt lat="45.90837" lon="6.83813">
        <ele>1026</ele>
        <time>2026-08-04T04:34:25.278Z</time>
      </trkpt>
      <trkpt lat="45.90838" lon="6.83814">
        <ele>1026</ele>
        <time>2026-08-04T04:34:26.278Z</time>
      </trkpt>
      <trkpt lat="45.90839" lon="6.83816">
        <ele>1026</ele>
        <time>2026-08-04T04:34:27.278Z</time>
      </trkpt>
      <trkpt lat="45.9084" lon="6.83817">
        <ele>1026</ele>
        <time>2026-08-04T04:34:28.278Z</time>
      </trkpt>
      <trkpt lat="45.9084" lon="6.83817">
        <ele>1026</ele>
        <time>2026-08-04T04:34:29.278Z</time>
      </trkpt>
      <trkpt lat="45.9084" lon="6.83818">
        <ele>1025</ele>
        <time>2026-08-04T04:34:30.278Z</time>
      </trkpt>
      <trkpt lat="45.90841" lon="6.83819">
        <ele>1025</ele>
        <time>2026-08-04T04:34:31.278Z</time>
      </trkpt>
      <trkpt lat="45.90841" lon="6.8382">
        <ele>1025</ele>
        <time>2026-08-04T04:34:32.278Z</time>
      </trkpt>
      <trkpt lat="45.90842" lon="6.83821">
        <ele>1025</ele>
        <time>2026-08-04T04:34:33.278Z</time>
      </trkpt>
      <trkpt lat="45.90842" lon="6.83822">
        <ele>1025</ele>
        <time>2026-08-04T04:34:34.278Z</time>
      </trkpt>
      <trkpt lat="45.90844" lon="6.83822">
        <ele>1026</ele>
        <time>2026-08-04T04:34:35.278Z</time>
      </trkpt>
      <trkpt lat="45.90845" lon="6.83822">
        <ele>1026</ele>
        <time>2026-08-04T04:34:36.278Z</time>
      </trkpt>
      <trkpt lat="45.90846" lon="6.83822">
        <ele>1026</ele>
        <time>2026-08-04T04:34:37.278Z</time>
      </trkpt>
      <trkpt lat="45.90847" lon="6.83822">
        <ele>1026</ele>
        <time>2026-08-04T04:34:38.278Z</time>
      </trkpt>
      <trkpt lat="45.90849" lon="6.83821">
        <ele>1027</ele>
        <time>2026-08-04T04:34:39.278Z</time>
      </trkpt>
      <trkpt lat="45.9085" lon="6.8382">
        <ele>1027</ele>
        <time>2026-08-04T04:34:40.278Z</time>
      </trkpt>
      <trkpt lat="45.90851" lon="6.83819">
        <ele>1027</ele>
        <time>2026-08-04T04:34:41.278Z</time>
      </trkpt>
      <trkpt lat="45.90852" lon="6.83818">
        <ele>1028</ele>
        <time>2026-08-04T04:34:42.278Z</time>
      </trkpt>
      <trkpt lat="45.90853" lon="6.83818">
        <ele>1029</ele>
        <time>2026-08-04T04:34:43.278Z</time>
      </trkpt>
      <trkpt lat="45.90854" lon="6.83817">
        <ele>1029</ele>
        <time>2026-08-04T04:34:44.278Z</time>
      </trkpt>
      <trkpt lat="45.90855" lon="6.83816">
        <ele>1030</ele>
        <time>2026-08-04T04:34:45.278Z</time>
      </trkpt>
      <trkpt lat="45.90855" lon="6.83815">
        <ele>1031</ele>
        <time>2026-08-04T04:34:46.278Z</time>
      </trkpt>
      <trkpt lat="45.90856" lon="6.83814">
        <ele>1031</ele>
        <time>2026-08-04T04:34:47.278Z</time>
      </trkpt>
      <trkpt lat="45.90857" lon="6.83813">
        <ele>1032</ele>
        <time>2026-08-04T04:34:48.278Z</time>
      </trkpt>
      <trkpt lat="45.90857" lon="6.83811">
        <ele>1032</ele>
        <time>2026-08-04T04:34:49.278Z</time>
      </trkpt>
      <trkpt lat="45.90857" lon="6.8381">
        <ele>1033</ele>
        <time>2026-08-04T04:34:50.278Z</time>
      </trkpt>
      <trkpt lat="45.90857" lon="6.83808">
        <ele>1033</ele>
        <time>2026-08-04T04:34:51.278Z</time>
      </trkpt>
      <trkpt lat="45.90857" lon="6.83807">
        <ele>1034</ele>
        <time>2026-08-04T04:34:52.278Z</time>
      </trkpt>
      <trkpt lat="45.90857" lon="6.83806">
        <ele>1034</ele>
        <time>2026-08-04T04:34:53.278Z</time>
      </trkpt>
      <trkpt lat="45.90857" lon="6.83805">
        <ele>1035</ele>
        <time>2026-08-04T04:34:54.278Z</time>
      </trkpt>
      <trkpt lat="45.90856" lon="6.83803">
        <ele>1035</ele>
        <time>2026-08-04T04:34:55.278Z</time>
      </trkpt>
      <trkpt lat="45.90856" lon="6.83801">
        <ele>1034</ele>
        <time>2026-08-04T04:34:56.278Z</time>
      </trkpt>
      <trkpt lat="45.90856" lon="6.83799">
        <ele>1034</ele>
        <time>2026-08-04T04:34:57.278Z</time>
      </trkpt>
      <trkpt lat="45.90857" lon="6.83797">
        <ele>1034</ele>
        <time>2026-08-04T04:34:58.278Z</time>
      </trkpt>
      <trkpt lat="45.90858" lon="6.83795">
        <ele>1034</ele>
        <time>2026-08-04T04:34:59.278Z</time>
      </trkpt>
      <trkpt lat="45.90859" lon="6.83794">
        <ele>1033</ele>
        <time>2026-08-04T04:35:00.278Z</time>
      </trkpt>
      <trkpt lat="45.90859" lon="6.83791">
        <ele>1033</ele>
        <time>2026-08-04T04:35:01.278Z</time>
      </trkpt>
      <trkpt lat="45.9086" lon="6.8379">
        <ele>1033</ele>
        <time>2026-08-04T04:35:02.278Z</time>
      </trkpt>
      <trkpt lat="45.90861" lon="6.83788">
        <ele>1033</ele>
        <time>2026-08-04T04:35:03.278Z</time>
      </trkpt>
      <trkpt lat="45.90861" lon="6.83788">
        <ele>1033</ele>
        <time>2026-08-04T04:35:04.278Z</time>
      </trkpt>
      <trkpt lat="45.90862" lon="6.83787">
        <ele>1033</ele>
        <time>2026-08-04T04:35:05.278Z</time>
      </trkpt>
      <trkpt lat="45.90862" lon="6.83786">
        <ele>1033</ele>
        <time>2026-08-04T04:35:06.278Z</time>
      </trkpt>
      <trkpt lat="45.90863" lon="6.83787">
        <ele>1034</ele>
        <time>2026-08-04T04:35:07.278Z</time>
      </trkpt>
      <trkpt lat="45.90864" lon="6.83787">
        <ele>1034</ele>
        <time>2026-08-04T04:35:08.278Z</time>
      </trkpt>
      <trkpt lat="45.90864" lon="6.83789">
        <ele>1034</ele>
        <time>2026-08-04T04:35:09.278Z</time>
      </trkpt>
      <trkpt lat="45.90864" lon="6.83789">
        <ele>1034</ele>
        <time>2026-08-04T04:35:10.278Z</time>
      </trkpt>
      <trkpt lat="45.90864" lon="6.8379">
        <ele>1034</ele>
        <time>2026-08-04T04:35:11.278Z</time>
      </trkpt>
      <trkpt lat="45.90865" lon="6.83791">
        <ele>1034</ele>
        <time>2026-08-04T04:35:12.278Z</time>
      </trkpt>
      <trkpt lat="45.90866" lon="6.83791">
        <ele>1034</ele>
        <time>2026-08-04T04:35:13.278Z</time>
      </trkpt>
      <trkpt lat="45.90867" lon="6.83792">
        <ele>1034</ele>
        <time>2026-08-04T04:35:14.278Z</time>
      </trkpt>
      <trkpt lat="45.90867" lon="6.83793">
        <ele>1035</ele>
        <time>2026-08-04T04:35:15.278Z</time>
      </trkpt>
      <trkpt lat="45.90868" lon="6.83794">
        <ele>1035</ele>
        <time>2026-08-04T04:35:16.278Z</time>
      </trkpt>
      <trkpt lat="45.90869" lon="6.83794">
        <ele>1035</ele>
        <time>2026-08-04T04:35:17.278Z</time>
      </trkpt>
      <trkpt lat="45.9087" lon="6.83794">
        <ele>1035</ele>
        <time>2026-08-04T04:35:18.278Z</time>
      </trkpt>
      <trkpt lat="45.90871" lon="6.83794">
        <ele>1036</ele>
        <time>2026-08-04T04:35:19.278Z</time>
      </trkpt>
      <trkpt lat="45.90872" lon="6.83794">
        <ele>1036</ele>
        <time>2026-08-04T04:35:20.278Z</time>
      </trkpt>
      <trkpt lat="45.90873" lon="6.83794">
        <ele>1036</ele>
        <time>2026-08-04T04:35:21.278Z</time>
      </trkpt>
      <trkpt lat="45.90873" lon="6.83794">
        <ele>1035</ele>
        <time>2026-08-04T04:35:22.278Z</time>
      </trkpt>
      <trkpt lat="45.90874" lon="6.83794">
        <ele>1036</ele>
        <time>2026-08-04T04:35:23.278Z</time>
      </trkpt>
      <trkpt lat="45.90874" lon="6.83794">
        <ele>1035</ele>
        <time>2026-08-04T04:35:24.278Z</time>
      </trkpt>
      <trkpt lat="45.90874" lon="6.83795">
        <ele>1035</ele>
        <time>2026-08-04T04:35:25.278Z</time>
      </trkpt>
      <trkpt lat="45.90875" lon="6.83795">
        <ele>1035</ele>
        <time>2026-08-04T04:35:26.278Z</time>
      </trkpt>
      <trkpt lat="45.90876" lon="6.83796">
        <ele>1035</ele>
        <time>2026-08-04T04:35:27.278Z</time>
      </trkpt>
      <trkpt lat="45.90877" lon="6.83796">
        <ele>1034</ele>
        <time>2026-08-04T04:35:28.278Z</time>
      </trkpt>
      <trkpt lat="45.90878" lon="6.83797">
        <ele>1034</ele>
        <time>2026-08-04T04:35:29.278Z</time>
      </trkpt>
      <trkpt lat="45.90879" lon="6.83798">
        <ele>1034</ele>
        <time>2026-08-04T04:35:30.278Z</time>
      </trkpt>
      <trkpt lat="45.90881" lon="6.83799">
        <ele>1033</ele>
        <time>2026-08-04T04:35:31.278Z</time>
      </trkpt>
      <trkpt lat="45.90883" lon="6.838">
        <ele>1033</ele>
        <time>2026-08-04T04:35:32.278Z</time>
      </trkpt>
      <trkpt lat="45.90884" lon="6.83802">
        <ele>1033</ele>
        <time>2026-08-04T04:35:33.278Z</time>
      </trkpt>
      <trkpt lat="45.90886" lon="6.83803">
        <ele>1032</ele>
        <time>2026-08-04T04:35:34.278Z</time>
      </trkpt>
      <trkpt lat="45.90887" lon="6.83804">
        <ele>1032</ele>
        <time>2026-08-04T04:35:35.278Z</time>
      </trkpt>
      <trkpt lat="45.90889" lon="6.83804">
        <ele>1031</ele>
        <time>2026-08-04T04:35:36.278Z</time>
      </trkpt>
      <trkpt lat="45.9089" lon="6.83805">
        <ele>1031</ele>
        <time>2026-08-04T04:35:37.278Z</time>
      </trkpt>
      <trkpt lat="45.90891" lon="6.83805">
        <ele>1031</ele>
        <time>2026-08-04T04:35:38.278Z</time>
      </trkpt>
      <trkpt lat="45.90893" lon="6.83805">
        <ele>1031</ele>
        <time>2026-08-04T04:35:39.278Z</time>
      </trkpt>
      <trkpt lat="45.90894" lon="6.83806">
        <ele>1031</ele>
        <time>2026-08-04T04:35:40.278Z</time>
      </trkpt>
      <trkpt lat="45.90895" lon="6.83807">
        <ele>1031</ele>
        <time>2026-08-04T04:35:41.278Z</time>
      </trkpt>
      <trkpt lat="45.90896" lon="6.83808">
        <ele>1031</ele>
        <time>2026-08-04T04:35:42.278Z</time>
      </trkpt>
      <trkpt lat="45.90896" lon="6.83809">
        <ele>1031</ele>
        <time>2026-08-04T04:35:43.278Z</time>
      </trkpt>
      <trkpt lat="45.90896" lon="6.83809">
        <ele>1032</ele>
        <time>2026-08-04T04:35:44.278Z</time>
      </trkpt>
      <trkpt lat="45.90896" lon="6.8381">
        <ele>1032</ele>
        <time>2026-08-04T04:35:45.278Z</time>
      </trkpt>
      <trkpt lat="45.90896" lon="6.8381">
        <ele>1032</ele>
        <time>2026-08-04T04:35:46.278Z</time>
      </trkpt>
      <trkpt lat="45.90896" lon="6.8381">
        <ele>1032</ele>
        <time>2026-08-04T04:35:47.278Z</time>
      </trkpt>
      <trkpt lat="45.90896" lon="6.8381">
        <ele>1032</ele>
        <time>2026-08-04T04:35:48.278Z</time>
      </trkpt>
      <trkpt lat="45.90896" lon="6.83811">
        <ele>1033</ele>
        <time>2026-08-04T04:35:49.278Z</time>
      </trkpt>
      <trkpt lat="45.90896" lon="6.8381">
        <ele>1033</ele>
        <time>2026-08-04T04:35:50.278Z</time>
      </trkpt>
      <trkpt lat="45.90896" lon="6.83811">
        <ele>1033</ele>
        <time>2026-08-04T04:35:51.278Z</time>
      </trkpt>
      <trkpt lat="45.90896" lon="6.83811">
        <ele>1033</ele>
        <time>2026-08-04T04:35:52.278Z</time>
      </trkpt>
      <trkpt lat="45.90897" lon="6.83812">
        <ele>1033</ele>
        <time>2026-08-04T04:35:53.278Z</time>
      </trkpt>
      <trkpt lat="45.90897" lon="6.83813">
        <ele>1033</ele>
        <time>2026-08-04T04:35:54.278Z</time>
      </trkpt>
      <trkpt lat="45.90897" lon="6.83814">
        <ele>1034</ele>
        <time>2026-08-04T04:35:55.278Z</time>
      </trkpt>
      <trkpt lat="45.90897" lon="6.83814">
        <ele>1034</ele>
        <time>2026-08-04T04:35:56.278Z</time>
      </trkpt>
      <trkpt lat="45.90898" lon="6.83815">
        <ele>1035</ele>
        <time>2026-08-04T04:35:57.278Z</time>
      </trkpt>
      <trkpt lat="45.90898" lon="6.83816">
        <ele>1036</ele>
        <time>2026-08-04T04:35:58.278Z</time>
      </trkpt>
      <trkpt lat="45.90898" lon="6.83818">
        <ele>1036</ele>
        <time>2026-08-04T04:35:59.278Z</time>
      </trkpt>
      <trkpt lat="45.90898" lon="6.83819">
        <ele>1037</ele>
        <time>2026-08-04T04:36:00.278Z</time>
      </trkpt>
      <trkpt lat="45.90899" lon="6.8382">
        <ele>1038</ele>
        <time>2026-08-04T04:36:01.278Z</time>
      </trkpt>
      <trkpt lat="45.909" lon="6.83822">
        <ele>1039</ele>
        <time>2026-08-04T04:36:02.278Z</time>
      </trkpt>
      <trkpt lat="45.90901" lon="6.83824">
        <ele>1040</ele>
        <time>2026-08-04T04:36:03.278Z</time>
      </trkpt>
      <trkpt lat="45.90902" lon="6.83826">
        <ele>1041</ele>
        <time>2026-08-04T04:36:04.278Z</time>
      </trkpt>
      <trkpt lat="45.90903" lon="6.83829">
        <ele>1042</ele>
        <time>2026-08-04T04:36:05.278Z</time>
      </trkpt>
      <trkpt lat="45.90905" lon="6.8383">
        <ele>1042</ele>
        <time>2026-08-04T04:36:06.278Z</time>
      </trkpt>
      <trkpt lat="45.90906" lon="6.83832">
        <ele>1042</ele>
        <time>2026-08-04T04:36:07.278Z</time>
      </trkpt>
      <trkpt lat="45.90906" lon="6.83834">
        <ele>1043</ele>
        <time>2026-08-04T04:36:08.278Z</time>
      </trkpt>
      <trkpt lat="45.90906" lon="6.83836">
        <ele>1043</ele>
        <time>2026-08-04T04:36:09.278Z</time>
      </trkpt>
      <trkpt lat="45.90906" lon="6.83838">
        <ele>1043</ele>
        <time>2026-08-04T04:36:10.278Z</time>
      </trkpt>
      <trkpt lat="45.90906" lon="6.83839">
        <ele>1044</ele>
        <time>2026-08-04T04:36:11.278Z</time>
      </trkpt>
      <trkpt lat="45.90906" lon="6.83839">
        <ele>1045</ele>
        <time>2026-08-04T04:36:12.278Z</time>
      </trkpt>
      <trkpt lat="45.90907" lon="6.83839">
        <ele>1046</ele>
        <time>2026-08-04T04:36:13.278Z</time>
      </trkpt>
      <trkpt lat="45.90907" lon="6.83838">
        <ele>1046</ele>
        <time>2026-08-04T04:36:14.278Z</time>
      </trkpt>
      <trkpt lat="45.90907" lon="6.83836">
        <ele>1047</ele>
        <time>2026-08-04T04:36:15.278Z</time>
      </trkpt>
      <trkpt lat="45.90908" lon="6.83835">
        <ele>1047</ele>
        <time>2026-08-04T04:36:16.278Z</time>
      </trkpt>
      <trkpt lat="45.90908" lon="6.83833">
        <ele>1048</ele>
        <time>2026-08-04T04:36:17.278Z</time>
      </trkpt>
      <trkpt lat="45.90909" lon="6.83833">
        <ele>1048</ele>
        <time>2026-08-04T04:36:18.278Z</time>
      </trkpt>
      <trkpt lat="45.90909" lon="6.83832">
        <ele>1047</ele>
        <time>2026-08-04T04:36:19.278Z</time>
      </trkpt>
      <trkpt lat="45.9091" lon="6.83832">
        <ele>1047</ele>
        <time>2026-08-04T04:36:20.278Z</time>
      </trkpt>
      <trkpt lat="45.9091" lon="6.8383">
        <ele>1047</ele>
        <time>2026-08-04T04:36:21.278Z</time>
      </trkpt>
      <trkpt lat="45.90911" lon="6.83828">
        <ele>1047</ele>
        <time>2026-08-04T04:36:22.278Z</time>
      </trkpt>
      <trkpt lat="45.90911" lon="6.83828">
        <ele>1046</ele>
        <time>2026-08-04T04:36:23.278Z</time>
      </trkpt>
      <trkpt lat="45.90912" lon="6.83826">
        <ele>1046</ele>
        <time>2026-08-04T04:36:24.278Z</time>
      </trkpt>
      <trkpt lat="45.90912" lon="6.83825">
        <ele>1046</ele>
        <time>2026-08-04T04:36:25.278Z</time>
      </trkpt>
      <trkpt lat="45.90913" lon="6.83824">
        <ele>1046</ele>
        <time>2026-08-04T04:36:26.278Z</time>
      </trkpt>
      <trkpt lat="45.90913" lon="6.83822">
        <ele>1046</ele>
        <time>2026-08-04T04:36:27.278Z</time>
      </trkpt>
      <trkpt lat="45.90914" lon="6.8382">
        <ele>1046</ele>
        <time>2026-08-04T04:36:28.278Z</time>
      </trkpt>
      <trkpt lat="45.90914" lon="6.83819">
        <ele>1046</ele>
        <time>2026-08-04T04:36:29.278Z</time>
      </trkpt>
      <trkpt lat="45.90914" lon="6.83816">
        <ele>1046</ele>
        <time>2026-08-04T04:36:30.278Z</time>
      </trkpt>
      <trkpt lat="45.90913" lon="6.83814">
        <ele>1046</ele>
        <time>2026-08-04T04:36:31.278Z</time>
      </trkpt>
      <trkpt lat="45.90913" lon="6.83812">
        <ele>1047</ele>
        <time>2026-08-04T04:36:32.278Z</time>
      </trkpt>
      <trkpt lat="45.90913" lon="6.8381">
        <ele>1047</ele>
        <time>2026-08-04T04:36:33.278Z</time>
      </trkpt>
      <trkpt lat="45.90912" lon="6.83808">
        <ele>1047</ele>
        <time>2026-08-04T04:36:34.278Z</time>
      </trkpt>
      <trkpt lat="45.90911" lon="6.83807">
        <ele>1048</ele>
        <time>2026-08-04T04:36:35.278Z</time>
      </trkpt>
      <trkpt lat="45.90911" lon="6.83805">
        <ele>1048</ele>
        <time>2026-08-04T04:36:36.278Z</time>
      </trkpt>
      <trkpt lat="45.9091" lon="6.83804">
        <ele>1048</ele>
        <time>2026-08-04T04:36:37.278Z</time>
      </trkpt>
      <trkpt lat="45.9091" lon="6.83801">
        <ele>1048</ele>
        <time>2026-08-04T04:36:38.278Z</time>
      </trkpt>
      <trkpt lat="45.90911" lon="6.83799">
        <ele>1047</ele>
        <time>2026-08-04T04:36:39.278Z</time>
      </trkpt>
      <trkpt lat="45.90911" lon="6.83797">
        <ele>1047</ele>
        <time>2026-08-04T04:36:40.278Z</time>
      </trkpt>
      <trkpt lat="45.90912" lon="6.83795">
        <ele>1047</ele>
        <time>2026-08-04T04:36:41.278Z</time>
      </trkpt>
      <trkpt lat="45.90912" lon="6.83793">
        <ele>1048</ele>
        <time>2026-08-04T04:36:42.278Z</time>
      </trkpt>
      <trkpt lat="45.90913" lon="6.83791">
        <ele>1048</ele>
        <time>2026-08-04T04:36:43.278Z</time>
      </trkpt>
      <trkpt lat="45.90914" lon="6.8379">
        <ele>1048</ele>
        <time>2026-08-04T04:36:44.278Z</time>
      </trkpt>
      <trkpt lat="45.90914" lon="6.83789">
        <ele>1048</ele>
        <time>2026-08-04T04:36:45.278Z</time>
      </trkpt>
      <trkpt lat="45.90915" lon="6.83788">
        <ele>1048</ele>
        <time>2026-08-04T04:36:46.278Z</time>
      </trkpt>
      <trkpt lat="45.90916" lon="6.83786">
        <ele>1049</ele>
        <time>2026-08-04T04:36:47.278Z</time>
      </trkpt>
      <trkpt lat="45.90916" lon="6.83785">
        <ele>1049</ele>
        <time>2026-08-04T04:36:48.278Z</time>
      </trkpt>
      <trkpt lat="45.90917" lon="6.83784">
        <ele>1050</ele>
        <time>2026-08-04T04:36:49.278Z</time>
      </trkpt>
      <trkpt lat="45.90918" lon="6.83782">
        <ele>1050</ele>
        <time>2026-08-04T04:36:50.278Z</time>
      </trkpt>
      <trkpt lat="45.90918" lon="6.83781">
        <ele>1050</ele>
        <time>2026-08-04T04:36:51.278Z</time>
      </trkpt>
      <trkpt lat="45.90919" lon="6.83782">
        <ele>1051</ele>
        <time>2026-08-04T04:36:52.278Z</time>
      </trkpt>
      <trkpt lat="45.9092" lon="6.83783">
        <ele>1051</ele>
        <time>2026-08-04T04:36:53.278Z</time>
      </trkpt>
      <trkpt lat="45.90921" lon="6.83783">
        <ele>1051</ele>
        <time>2026-08-04T04:36:54.278Z</time>
      </trkpt>
      <trkpt lat="45.90924" lon="6.83785">
        <ele>1051</ele>
        <time>2026-08-04T04:36:55.278Z</time>
      </trkpt>
      <trkpt lat="45.90925" lon="6.83786">
        <ele>1051</ele>
        <time>2026-08-04T04:36:56.278Z</time>
      </trkpt>
      <trkpt lat="45.90926" lon="6.83787">
        <ele>1051</ele>
        <time>2026-08-04T04:36:57.278Z</time>
      </trkpt>
      <trkpt lat="45.90927" lon="6.83787">
        <ele>1051</ele>
        <time>2026-08-04T04:36:58.278Z</time>
      </trkpt>
      <trkpt lat="45.90928" lon="6.83788">
        <ele>1051</ele>
        <time>2026-08-04T04:36:59.278Z</time>
      </trkpt>
      <trkpt lat="45.90929" lon="6.83789">
        <ele>1052</ele>
        <time>2026-08-04T04:37:00.278Z</time>
      </trkpt>
      <trkpt lat="45.90929" lon="6.83789">
        <ele>1052</ele>
        <time>2026-08-04T04:37:01.278Z</time>
      </trkpt>
      <trkpt lat="45.9093" lon="6.8379">
        <ele>1052</ele>
        <time>2026-08-04T04:37:02.278Z</time>
      </trkpt>
      <trkpt lat="45.90931" lon="6.8379">
        <ele>1052</ele>
        <time>2026-08-04T04:37:03.278Z</time>
      </trkpt>
      <trkpt lat="45.90933" lon="6.83791">
        <ele>1052</ele>
        <time>2026-08-04T04:37:04.278Z</time>
      </trkpt>
      <trkpt lat="45.90934" lon="6.83791">
        <ele>1053</ele>
        <time>2026-08-04T04:37:05.278Z</time>
      </trkpt>
      <trkpt lat="45.90936" lon="6.83792">
        <ele>1053</ele>
        <time>2026-08-04T04:37:06.278Z</time>
      </trkpt>
      <trkpt lat="45.90938" lon="6.83793">
        <ele>1053</ele>
        <time>2026-08-04T04:37:07.278Z</time>
      </trkpt>
      <trkpt lat="45.90939" lon="6.83795">
        <ele>1053</ele>
        <time>2026-08-04T04:37:08.278Z</time>
      </trkpt>
      <trkpt lat="45.9094" lon="6.83797">
        <ele>1053</ele>
        <time>2026-08-04T04:37:09.278Z</time>
      </trkpt>
      <trkpt lat="45.90941" lon="6.83799">
        <ele>1053</ele>
        <time>2026-08-04T04:37:10.278Z</time>
      </trkpt>
      <trkpt lat="45.90941" lon="6.838">
        <ele>1053</ele>
        <time>2026-08-04T04:37:11.278Z</time>
      </trkpt>
      <trkpt lat="45.90942" lon="6.83801">
        <ele>1053</ele>
        <time>2026-08-04T04:37:12.278Z</time>
      </trkpt>
      <trkpt lat="45.90944" lon="6.83801">
        <ele>1053</ele>
        <time>2026-08-04T04:37:13.278Z</time>
      </trkpt>
      <trkpt lat="45.90946" lon="6.83803">
        <ele>1054</ele>
        <time>2026-08-04T04:37:14.278Z</time>
      </trkpt>
      <trkpt lat="45.90947" lon="6.83804">
        <ele>1055</ele>
        <time>2026-08-04T04:37:15.278Z</time>
      </trkpt>
      <trkpt lat="45.90948" lon="6.83804">
        <ele>1056</ele>
        <time>2026-08-04T04:37:16.278Z</time>
      </trkpt>
      <trkpt lat="45.90948" lon="6.83805">
        <ele>1057</ele>
        <time>2026-08-04T04:37:17.278Z</time>
      </trkpt>
      <trkpt lat="45.90948" lon="6.83805">
        <ele>1057</ele>
        <time>2026-08-04T04:37:18.278Z</time>
      </trkpt>
      <trkpt lat="45.90948" lon="6.83805">
        <ele>1058</ele>
        <time>2026-08-04T04:37:19.278Z</time>
      </trkpt>
      <trkpt lat="45.90949" lon="6.83805">
        <ele>1059</ele>
        <time>2026-08-04T04:37:20.278Z</time>
      </trkpt>
      <trkpt lat="45.9095" lon="6.83806">
        <ele>1059</ele>
        <time>2026-08-04T04:37:21.278Z</time>
      </trkpt>
      <trkpt lat="45.90951" lon="6.83806">
        <ele>1059</ele>
        <time>2026-08-04T04:37:22.278Z</time>
      </trkpt>
      <trkpt lat="45.90952" lon="6.83807">
        <ele>1060</ele>
        <time>2026-08-04T04:37:23.278Z</time>
      </trkpt>
      <trkpt lat="45.90953" lon="6.83808">
        <ele>1060</ele>
        <time>2026-08-04T04:37:24.278Z</time>
      </trkpt>
      <trkpt lat="45.90954" lon="6.83809">
        <ele>1060</ele>
        <time>2026-08-04T04:37:25.278Z</time>
      </trkpt>
      <trkpt lat="45.90955" lon="6.83809">
        <ele>1060</ele>
        <time>2026-08-04T04:37:26.278Z</time>
      </trkpt>
      <trkpt lat="45.90956" lon="6.8381">
        <ele>1061</ele>
        <time>2026-08-04T04:37:27.278Z</time>
      </trkpt>
      <trkpt lat="45.90956" lon="6.83811">
        <ele>1061</ele>
        <time>2026-08-04T04:37:28.278Z</time>
      </trkpt>
      <trkpt lat="45.90956" lon="6.83812">
        <ele>1061</ele>
        <time>2026-08-04T04:37:29.278Z</time>
      </trkpt>
      <trkpt lat="45.90957" lon="6.83813">
        <ele>1062</ele>
        <time>2026-08-04T04:37:30.278Z</time>
      </trkpt>
      <trkpt lat="45.90958" lon="6.83814">
        <ele>1062</ele>
        <time>2026-08-04T04:37:31.278Z</time>
      </trkpt>
      <trkpt lat="45.9096" lon="6.83815">
        <ele>1061</ele>
        <time>2026-08-04T04:37:32.278Z</time>
      </trkpt>
      <trkpt lat="45.9096" lon="6.83815">
        <ele>1061</ele>
        <time>2026-08-04T04:37:33.278Z</time>
      </trkpt>
      <trkpt lat="45.90962" lon="6.83816">
        <ele>1061</ele>
        <time>2026-08-04T04:37:34.278Z</time>
      </trkpt>
      <trkpt lat="45.90963" lon="6.83817">
        <ele>1061</ele>
        <time>2026-08-04T04:37:35.278Z</time>
      </trkpt>
      <trkpt lat="45.90962" lon="6.83819">
        <ele>1061</ele>
        <time>2026-08-04T04:37:36.278Z</time>
      </trkpt>
      <trkpt lat="45.90962" lon="6.83819">
        <ele>1060</ele>
        <time>2026-08-04T04:37:37.278Z</time>
      </trkpt>
      <trkpt lat="45.90963" lon="6.83819">
        <ele>1060</ele>
        <time>2026-08-04T04:37:38.278Z</time>
      </trkpt>
      <trkpt lat="45.90963" lon="6.8382">
        <ele>1060</ele>
        <time>2026-08-04T04:37:39.278Z</time>
      </trkpt>
      <trkpt lat="45.90964" lon="6.8382">
        <ele>1060</ele>
        <time>2026-08-04T04:37:40.278Z</time>
      </trkpt>
      <trkpt lat="45.90965" lon="6.83822">
        <ele>1060</ele>
        <time>2026-08-04T04:37:41.278Z</time>
      </trkpt>
      <trkpt lat="45.90966" lon="6.83823">
        <ele>1059</ele>
        <time>2026-08-04T04:37:42.278Z</time>
      </trkpt>
      <trkpt lat="45.90967" lon="6.83825">
        <ele>1059</ele>
        <time>2026-08-04T04:37:43.278Z</time>
      </trkpt>
      <trkpt lat="45.90967" lon="6.83826">
        <ele>1059</ele>
        <time>2026-08-04T04:37:44.278Z</time>
      </trkpt>
      <trkpt lat="45.90968" lon="6.83827">
        <ele>1059</ele>
        <time>2026-08-04T04:37:45.278Z</time>
      </trkpt>
      <trkpt lat="45.90968" lon="6.83827">
        <ele>1059</ele>
        <time>2026-08-04T04:37:46.278Z</time>
      </trkpt>
      <trkpt lat="45.90968" lon="6.83828">
        <ele>1060</ele>
        <time>2026-08-04T04:37:47.278Z</time>
      </trkpt>
      <trkpt lat="45.90967" lon="6.83828">
        <ele>1061</ele>
        <time>2026-08-04T04:37:48.278Z</time>
      </trkpt>
      <trkpt lat="45.90968" lon="6.83829">
        <ele>1061</ele>
        <time>2026-08-04T04:37:49.278Z</time>
      </trkpt>
      <trkpt lat="45.90968" lon="6.8383">
        <ele>1062</ele>
        <time>2026-08-04T04:37:50.278Z</time>
      </trkpt>
      <trkpt lat="45.9097" lon="6.83831">
        <ele>1062</ele>
        <time>2026-08-04T04:37:51.278Z</time>
      </trkpt>
      <trkpt lat="45.90971" lon="6.83831">
        <ele>1062</ele>
        <time>2026-08-04T04:37:52.278Z</time>
      </trkpt>
      <trkpt lat="45.90972" lon="6.83832">
        <ele>1063</ele>
        <time>2026-08-04T04:37:53.278Z</time>
      </trkpt>
      <trkpt lat="45.90973" lon="6.83833">
        <ele>1063</ele>
        <time>2026-08-04T04:37:54.278Z</time>
      </trkpt>
      <trkpt lat="45.90974" lon="6.83833">
        <ele>1063</ele>
        <time>2026-08-04T04:37:55.278Z</time>
      </trkpt>
      <trkpt lat="45.90975" lon="6.83835">
        <ele>1063</ele>
        <time>2026-08-04T04:37:56.278Z</time>
      </trkpt>
      <trkpt lat="45.90976" lon="6.83836">
        <ele>1064</ele>
        <time>2026-08-04T04:37:57.278Z</time>
      </trkpt>
      <trkpt lat="45.90978" lon="6.83838">
        <ele>1064</ele>
        <time>2026-08-04T04:37:58.278Z</time>
      </trkpt>
      <trkpt lat="45.90979" lon="6.83839">
        <ele>1064</ele>
        <time>2026-08-04T04:37:59.278Z</time>
      </trkpt>
      <trkpt lat="45.90981" lon="6.83841">
        <ele>1065</ele>
        <time>2026-08-04T04:38:00.278Z</time>
      </trkpt>
      <trkpt lat="45.90982" lon="6.83842">
        <ele>1065</ele>
        <time>2026-08-04T04:38:01.278Z</time>
      </trkpt>
      <trkpt lat="45.90983" lon="6.83843">
        <ele>1066</ele>
        <time>2026-08-04T04:38:02.278Z</time>
      </trkpt>
      <trkpt lat="45.90984" lon="6.83844">
        <ele>1066</ele>
        <time>2026-08-04T04:38:03.278Z</time>
      </trkpt>
      <trkpt lat="45.90985" lon="6.83844">
        <ele>1067</ele>
        <time>2026-08-04T04:38:04.278Z</time>
      </trkpt>
      <trkpt lat="45.90986" lon="6.83845">
        <ele>1067</ele>
        <time>2026-08-04T04:38:05.278Z</time>
      </trkpt>
      <trkpt lat="45.90988" lon="6.83846">
        <ele>1067</ele>
        <time>2026-08-04T04:38:06.278Z</time>
      </trkpt>
      <trkpt lat="45.90989" lon="6.83846">
        <ele>1067</ele>
        <time>2026-08-04T04:38:07.278Z</time>
      </trkpt>
      <trkpt lat="45.90989" lon="6.83847">
        <ele>1067</ele>
        <time>2026-08-04T04:38:08.278Z</time>
      </trkpt>
      <trkpt lat="45.9099" lon="6.83848">
        <ele>1067</ele>
        <time>2026-08-04T04:38:09.278Z</time>
      </trkpt>
      <trkpt lat="45.90991" lon="6.83848">
        <ele>1067</ele>
        <time>2026-08-04T04:38:10.278Z</time>
      </trkpt>
      <trkpt lat="45.90992" lon="6.83848">
        <ele>1067</ele>
        <time>2026-08-04T04:38:11.278Z</time>
      </trkpt>
      <trkpt lat="45.90993" lon="6.83849">
        <ele>1067</ele>
        <time>2026-08-04T04:38:12.278Z</time>
      </trkpt>
      <trkpt lat="45.90994" lon="6.8385">
        <ele>1068</ele>
        <time>2026-08-04T04:38:13.278Z</time>
      </trkpt>
      <trkpt lat="45.90996" lon="6.83851">
        <ele>1068</ele>
        <time>2026-08-04T04:38:14.278Z</time>
      </trkpt>
      <trkpt lat="45.90997" lon="6.83851">
        <ele>1068</ele>
        <time>2026-08-04T04:38:15.278Z</time>
      </trkpt>
      <trkpt lat="45.90998" lon="6.83852">
        <ele>1068</ele>
        <time>2026-08-04T04:38:16.278Z</time>
      </trkpt>
      <trkpt lat="45.90999" lon="6.83852">
        <ele>1068</ele>
        <time>2026-08-04T04:38:17.278Z</time>
      </trkpt>
      <trkpt lat="45.91" lon="6.83853">
        <ele>1069</ele>
        <time>2026-08-04T04:38:18.278Z</time>
      </trkpt>
      <trkpt lat="45.91001" lon="6.83853">
        <ele>1069</ele>
        <time>2026-08-04T04:38:19.278Z</time>
      </trkpt>
      <trkpt lat="45.91003" lon="6.83854">
        <ele>1069</ele>
        <time>2026-08-04T04:38:20.278Z</time>
      </trkpt>
      <trkpt lat="45.91003" lon="6.83855">
        <ele>1069</ele>
        <time>2026-08-04T04:38:21.278Z</time>
      </trkpt>
      <trkpt lat="45.91004" lon="6.83856">
        <ele>1069</ele>
        <time>2026-08-04T04:38:22.278Z</time>
      </trkpt>
      <trkpt lat="45.91005" lon="6.83858">
        <ele>1069</ele>
        <time>2026-08-04T04:38:23.278Z</time>
      </trkpt>
      <trkpt lat="45.91006" lon="6.83859">
        <ele>1069</ele>
        <time>2026-08-04T04:38:24.278Z</time>
      </trkpt>
      <trkpt lat="45.91007" lon="6.8386">
        <ele>1069</ele>
        <time>2026-08-04T04:38:25.278Z</time>
      </trkpt>
      <trkpt lat="45.91007" lon="6.83861">
        <ele>1070</ele>
        <time>2026-08-04T04:38:26.278Z</time>
      </trkpt>
      <trkpt lat="45.91007" lon="6.83862">
        <ele>1070</ele>
        <time>2026-08-04T04:38:27.278Z</time>
      </trkpt>
      <trkpt lat="45.91008" lon="6.83863">
        <ele>1071</ele>
        <time>2026-08-04T04:38:28.278Z</time>
      </trkpt>
      <trkpt lat="45.91009" lon="6.83864">
        <ele>1071</ele>
        <time>2026-08-04T04:38:29.278Z</time>
      </trkpt>
      <trkpt lat="45.91009" lon="6.83865">
        <ele>1072</ele>
        <time>2026-08-04T04:38:30.278Z</time>
      </trkpt>
      <trkpt lat="45.9101" lon="6.83865">
        <ele>1072</ele>
        <time>2026-08-04T04:38:31.278Z</time>
      </trkpt>
      <trkpt lat="45.91009" lon="6.83864">
        <ele>1072</ele>
        <time>2026-08-04T04:38:32.278Z</time>
      </trkpt>
      <trkpt lat="45.91009" lon="6.83863">
        <ele>1073</ele>
        <time>2026-08-04T04:38:33.278Z</time>
      </trkpt>
      <trkpt lat="45.91009" lon="6.83862">
        <ele>1073</ele>
        <time>2026-08-04T04:38:34.278Z</time>
      </trkpt>
      <trkpt lat="45.91009" lon="6.8386">
        <ele>1074</ele>
        <time>2026-08-04T04:38:35.278Z</time>
      </trkpt>
      <trkpt lat="45.91009" lon="6.83858">
        <ele>1074</ele>
        <time>2026-08-04T04:38:36.278Z</time>
      </trkpt>
      <trkpt lat="45.91009" lon="6.83857">
        <ele>1075</ele>
        <time>2026-08-04T04:38:37.278Z</time>
      </trkpt>
      <trkpt lat="45.91009" lon="6.83855">
        <ele>1075</ele>
        <time>2026-08-04T04:38:38.278Z</time>
      </trkpt>
      <trkpt lat="45.91009" lon="6.83853">
        <ele>1076</ele>
        <time>2026-08-04T04:38:39.278Z</time>
      </trkpt>
      <trkpt lat="45.91009" lon="6.83851">
        <ele>1077</ele>
        <time>2026-08-04T04:38:40.278Z</time>
      </trkpt>
      <trkpt lat="45.91009" lon="6.83849">
        <ele>1077</ele>
        <time>2026-08-04T04:38:41.278Z</time>
      </trkpt>
      <trkpt lat="45.91009" lon="6.83847">
        <ele>1078</ele>
        <time>2026-08-04T04:38:42.278Z</time>
      </trkpt>
      <trkpt lat="45.91009" lon="6.83846">
        <ele>1079</ele>
        <time>2026-08-04T04:38:43.278Z</time>
      </trkpt>
      <trkpt lat="45.91007" lon="6.83846">
        <ele>1079</ele>
        <time>2026-08-04T04:38:44.278Z</time>
      </trkpt>
      <trkpt lat="45.91007" lon="6.83845">
        <ele>1080</ele>
        <time>2026-08-04T04:38:45.278Z</time>
      </trkpt>
      <trkpt lat="45.91007" lon="6.83844">
        <ele>1080</ele>
        <time>2026-08-04T04:38:46.278Z</time>
      </trkpt>
      <trkpt lat="45.91007" lon="6.83843">
        <ele>1081</ele>
        <time>2026-08-04T04:38:47.278Z</time>
      </trkpt>
      <trkpt lat="45.91006" lon="6.83842">
        <ele>1081</ele>
        <time>2026-08-04T04:38:48.278Z</time>
      </trkpt>
      <trkpt lat="45.91006" lon="6.83841">
        <ele>1081</ele>
        <time>2026-08-04T04:38:49.278Z</time>
      </trkpt>
      <trkpt lat="45.91006" lon="6.83841">
        <ele>1081</ele>
        <time>2026-08-04T04:38:50.278Z</time>
      </trkpt>
      <trkpt lat="45.91006" lon="6.83841">
        <ele>1081</ele>
        <time>2026-08-04T04:38:51.278Z</time>
      </trkpt>
      <trkpt lat="45.91006" lon="6.8384">
        <ele>1081</ele>
        <time>2026-08-04T04:38:52.278Z</time>
      </trkpt>
      <trkpt lat="45.91005" lon="6.83839">
        <ele>1080</ele>
        <time>2026-08-04T04:38:53.278Z</time>
      </trkpt>
      <trkpt lat="45.91005" lon="6.83838">
        <ele>1080</ele>
        <time>2026-08-04T04:38:54.278Z</time>
      </trkpt>
      <trkpt lat="45.91005" lon="6.83836">
        <ele>1079</ele>
        <time>2026-08-04T04:38:55.278Z</time>
      </trkpt>
      <trkpt lat="45.91004" lon="6.83835">
        <ele>1079</ele>
        <time>2026-08-04T04:38:56.278Z</time>
      </trkpt>
      <trkpt lat="45.91004" lon="6.83834">
        <ele>1079</ele>
        <time>2026-08-04T04:38:57.278Z</time>
      </trkpt>
      <trkpt lat="45.91004" lon="6.83832">
        <ele>1079</ele>
        <time>2026-08-04T04:38:58.278Z</time>
      </trkpt>
      <trkpt lat="45.91004" lon="6.83831">
        <ele>1079</ele>
        <time>2026-08-04T04:38:59.278Z</time>
      </trkpt>
      <trkpt lat="45.91003" lon="6.83829">
        <ele>1079</ele>
        <time>2026-08-04T04:39:00.278Z</time>
      </trkpt>
      <trkpt lat="45.91003" lon="6.83828">
        <ele>1080</ele>
        <time>2026-08-04T04:39:01.278Z</time>
      </trkpt>
      <trkpt lat="45.91002" lon="6.83826">
        <ele>1081</ele>
        <time>2026-08-04T04:39:02.278Z</time>
      </trkpt>
      <trkpt lat="45.91002" lon="6.83825">
        <ele>1081</ele>
        <time>2026-08-04T04:39:03.278Z</time>
      </trkpt>
      <trkpt lat="45.91002" lon="6.83823">
        <ele>1082</ele>
        <time>2026-08-04T04:39:04.278Z</time>
      </trkpt>
      <trkpt lat="45.91002" lon="6.83821">
        <ele>1082</ele>
        <time>2026-08-04T04:39:05.278Z</time>
      </trkpt>
      <trkpt lat="45.91002" lon="6.83819">
        <ele>1083</ele>
        <time>2026-08-04T04:39:06.278Z</time>
      </trkpt>
      <trkpt lat="45.91001" lon="6.83817">
        <ele>1083</ele>
        <time>2026-08-04T04:39:07.278Z</time>
      </trkpt>
      <trkpt lat="45.91001" lon="6.83816">
        <ele>1083</ele>
        <time>2026-08-04T04:39:08.278Z</time>
      </trkpt>
      <trkpt lat="45.91001" lon="6.83814">
        <ele>1084</ele>
        <time>2026-08-04T04:39:09.278Z</time>
      </trkpt>
      <trkpt lat="45.91" lon="6.83813">
        <ele>1084</ele>
        <time>2026-08-04T04:39:10.278Z</time>
      </trkpt>
      <trkpt lat="45.91" lon="6.83812">
        <ele>1084</ele>
        <time>2026-08-04T04:39:11.278Z</time>
      </trkpt>
      <trkpt lat="45.91" lon="6.8381">
        <ele>1084</ele>
        <time>2026-08-04T04:39:12.278Z</time>
      </trkpt>
      <trkpt lat="45.91" lon="6.83808">
        <ele>1084</ele>
        <time>2026-08-04T04:39:13.278Z</time>
      </trkpt>
      <trkpt lat="45.91" lon="6.83807">
        <ele>1085</ele>
        <time>2026-08-04T04:39:14.278Z</time>
      </trkpt>
      <trkpt lat="45.91" lon="6.83806">
        <ele>1085</ele>
        <time>2026-08-04T04:39:15.278Z</time>
      </trkpt>
      <trkpt lat="45.91" lon="6.83804">
        <ele>1085</ele>
        <time>2026-08-04T04:39:16.278Z</time>
      </trkpt>
      <trkpt lat="45.91" lon="6.83804">
        <ele>1085</ele>
        <time>2026-08-04T04:39:17.278Z</time>
      </trkpt>
      <trkpt lat="45.91" lon="6.83802">
        <ele>1085</ele>
        <time>2026-08-04T04:39:18.278Z</time>
      </trkpt>
      <trkpt lat="45.91" lon="6.83801">
        <ele>1085</ele>
        <time>2026-08-04T04:39:19.278Z</time>
      </trkpt>
      <trkpt lat="45.91001" lon="6.83799">
        <ele>1085</ele>
        <time>2026-08-04T04:39:20.278Z</time>
      </trkpt>
      <trkpt lat="45.91001" lon="6.83797">
        <ele>1085</ele>
        <time>2026-08-04T04:39:21.278Z</time>
      </trkpt>
      <trkpt lat="45.91001" lon="6.83796">
        <ele>1085</ele>
        <time>2026-08-04T04:39:22.278Z</time>
      </trkpt>
      <trkpt lat="45.91001" lon="6.83794">
        <ele>1085</ele>
        <time>2026-08-04T04:39:23.278Z</time>
      </trkpt>
      <trkpt lat="45.91002" lon="6.83792">
        <ele>1085</ele>
        <time>2026-08-04T04:39:24.278Z</time>
      </trkpt>
      <trkpt lat="45.91002" lon="6.83791">
        <ele>1085</ele>
        <time>2026-08-04T04:39:25.278Z</time>
      </trkpt>
      <trkpt lat="45.91002" lon="6.8379">
        <ele>1085</ele>
        <time>2026-08-04T04:39:26.278Z</time>
      </trkpt>
      <trkpt lat="45.91003" lon="6.83788">
        <ele>1086</ele>
        <time>2026-08-04T04:39:27.278Z</time>
      </trkpt>
      <trkpt lat="45.91003" lon="6.83787">
        <ele>1086</ele>
        <time>2026-08-04T04:39:28.278Z</time>
      </trkpt>
      <trkpt lat="45.91004" lon="6.83785">
        <ele>1086</ele>
        <time>2026-08-04T04:39:29.278Z</time>
      </trkpt>
      <trkpt lat="45.91004" lon="6.83784">
        <ele>1086</ele>
        <time>2026-08-04T04:39:30.278Z</time>
      </trkpt>
      <trkpt lat="45.91005" lon="6.83783">
        <ele>1086</ele>
        <time>2026-08-04T04:39:31.278Z</time>
      </trkpt>
      <trkpt lat="45.91005" lon="6.83782">
        <ele>1086</ele>
        <time>2026-08-04T04:39:32.278Z</time>
      </trkpt>
      <trkpt lat="45.91006" lon="6.83781">
        <ele>1085</ele>
        <time>2026-08-04T04:39:33.278Z</time>
      </trkpt>
      <trkpt lat="45.91006" lon="6.8378">
        <ele>1085</ele>
        <time>2026-08-04T04:39:34.278Z</time>
      </trkpt>
      <trkpt lat="45.91006" lon="6.83779">
        <ele>1086</ele>
        <time>2026-08-04T04:39:35.278Z</time>
      </trkpt>
      <trkpt lat="45.91006" lon="6.83778">
        <ele>1085</ele>
        <time>2026-08-04T04:39:36.278Z</time>
      </trkpt>
      <trkpt lat="45.91006" lon="6.83776">
        <ele>1085</ele>
        <time>2026-08-04T04:39:37.278Z</time>
      </trkpt>
      <trkpt lat="45.91006" lon="6.83775">
        <ele>1085</ele>
        <time>2026-08-04T04:39:38.278Z</time>
      </trkpt>
      <trkpt lat="45.91007" lon="6.83775">
        <ele>1085</ele>
        <time>2026-08-04T04:39:39.278Z</time>
      </trkpt>
      <trkpt lat="45.91007" lon="6.83773">
        <ele>1085</ele>
        <time>2026-08-04T04:39:40.278Z</time>
      </trkpt>
      <trkpt lat="45.91007" lon="6.83772">
        <ele>1085</ele>
        <time>2026-08-04T04:39:41.278Z</time>
      </trkpt>
      <trkpt lat="45.91008" lon="6.83771">
        <ele>1085</ele>
        <time>2026-08-04T04:39:42.278Z</time>
      </trkpt>
      <trkpt lat="45.91008" lon="6.83769">
        <ele>1085</ele>
        <time>2026-08-04T04:39:43.278Z</time>
      </trkpt>
      <trkpt lat="45.91008" lon="6.83768">
        <ele>1085</ele>
        <time>2026-08-04T04:39:44.278Z</time>
      </trkpt>
      <trkpt lat="45.91008" lon="6.83767">
        <ele>1086</ele>
        <time>2026-08-04T04:39:45.278Z</time>
      </trkpt>
      <trkpt lat="45.91008" lon="6.83766">
        <ele>1086</ele>
        <time>2026-08-04T04:39:46.278Z</time>
      </trkpt>
      <trkpt lat="45.91009" lon="6.83765">
        <ele>1086</ele>
        <time>2026-08-04T04:39:47.278Z</time>
      </trkpt>
      <trkpt lat="45.91009" lon="6.83764">
        <ele>1087</ele>
        <time>2026-08-04T04:39:48.278Z</time>
      </trkpt>
      <trkpt lat="45.91009" lon="6.83763">
        <ele>1087</ele>
        <time>2026-08-04T04:39:49.278Z</time>
      </trkpt>
      <trkpt lat="45.9101" lon="6.83762">
        <ele>1087</ele>
        <time>2026-08-04T04:39:50.278Z</time>
      </trkpt>
      <trkpt lat="45.9101" lon="6.83761">
        <ele>1087</ele>
        <time>2026-08-04T04:39:51.278Z</time>
      </trkpt>
      <trkpt lat="45.91011" lon="6.8376">
        <ele>1087</ele>
        <time>2026-08-04T04:39:52.278Z</time>
      </trkpt>
      <trkpt lat="45.91011" lon="6.83759">
        <ele>1087</ele>
        <time>2026-08-04T04:39:53.278Z</time>
      </trkpt>
      <trkpt lat="45.91012" lon="6.83758">
        <ele>1088</ele>
        <time>2026-08-04T04:39:54.278Z</time>
      </trkpt>
      <trkpt lat="45.91013" lon="6.83756">
        <ele>1088</ele>
        <time>2026-08-04T04:39:55.278Z</time>
      </trkpt>
      <trkpt lat="45.91014" lon="6.83756">
        <ele>1088</ele>
        <time>2026-08-04T04:39:56.278Z</time>
      </trkpt>
      <trkpt lat="45.91015" lon="6.83757">
        <ele>1089</ele>
        <time>2026-08-04T04:39:57.278Z</time>
      </trkpt>
      <trkpt lat="45.91016" lon="6.83759">
        <ele>1089</ele>
        <time>2026-08-04T04:39:58.278Z</time>
      </trkpt>
      <trkpt lat="45.91017" lon="6.83761">
        <ele>1090</ele>
        <time>2026-08-04T04:39:59.278Z</time>
      </trkpt>
      <trkpt lat="45.91019" lon="6.83763">
        <ele>1090</ele>
        <time>2026-08-04T04:40:00.278Z</time>
      </trkpt>
      <trkpt lat="45.9102" lon="6.83764">
        <ele>1091</ele>
        <time>2026-08-04T04:40:01.278Z</time>
      </trkpt>
      <trkpt lat="45.91021" lon="6.83765">
        <ele>1091</ele>
        <time>2026-08-04T04:40:02.278Z</time>
      </trkpt>
      <trkpt lat="45.91022" lon="6.83766">
        <ele>1092</ele>
        <time>2026-08-04T04:40:03.278Z</time>
      </trkpt>
      <trkpt lat="45.91022" lon="6.83768">
        <ele>1092</ele>
        <time>2026-08-04T04:40:04.278Z</time>
      </trkpt>
      <trkpt lat="45.91023" lon="6.83769">
        <ele>1092</ele>
        <time>2026-08-04T04:40:05.278Z</time>
      </trkpt>
      <trkpt lat="45.91023" lon="6.83771">
        <ele>1093</ele>
        <time>2026-08-04T04:40:06.278Z</time>
      </trkpt>
      <trkpt lat="45.91024" lon="6.83772">
        <ele>1093</ele>
        <time>2026-08-04T04:40:07.278Z</time>
      </trkpt>
      <trkpt lat="45.91024" lon="6.83772">
        <ele>1093</ele>
        <time>2026-08-04T04:40:08.278Z</time>
      </trkpt>
      <trkpt lat="45.91024" lon="6.83772">
        <ele>1093</ele>
        <time>2026-08-04T04:40:09.278Z</time>
      </trkpt>
      <trkpt lat="45.91024" lon="6.83773">
        <ele>1094</ele>
        <time>2026-08-04T04:40:10.278Z</time>
      </trkpt>
      <trkpt lat="45.91024" lon="6.83772">
        <ele>1094</ele>
        <time>2026-08-04T04:40:11.278Z</time>
      </trkpt>
      <trkpt lat="45.91024" lon="6.83772">
        <ele>1094</ele>
        <time>2026-08-04T04:40:12.278Z</time>
      </trkpt>
      <trkpt lat="45.91024" lon="6.83772">
        <ele>1095</ele>
        <time>2026-08-04T04:40:13.278Z</time>
      </trkpt>
      <trkpt lat="45.91024" lon="6.83771">
        <ele>1095</ele>
        <time>2026-08-04T04:40:14.278Z</time>
      </trkpt>
      <trkpt lat="45.91025" lon="6.83771">
        <ele>1096</ele>
        <time>2026-08-04T04:40:15.278Z</time>
      </trkpt>
      <trkpt lat="45.91025" lon="6.8377">
        <ele>1096</ele>
        <time>2026-08-04T04:40:16.278Z</time>
      </trkpt>
      <trkpt lat="45.91025" lon="6.8377">
        <ele>1096</ele>
        <time>2026-08-04T04:40:17.278Z</time>
      </trkpt>
      <trkpt lat="45.91025" lon="6.8377">
        <ele>1096</ele>
        <time>2026-08-04T04:40:18.278Z</time>
      </trkpt>
      <trkpt lat="45.91025" lon="6.8377">
        <ele>1096</ele>
        <time>2026-08-04T04:40:19.278Z</time>
      </trkpt>
      <trkpt lat="45.91025" lon="6.8377">
        <ele>1097</ele>
        <time>2026-08-04T04:40:20.278Z</time>
      </trkpt>
      <trkpt lat="45.91025" lon="6.8377">
        <ele>1098</ele>
        <time>2026-08-04T04:40:21.278Z</time>
      </trkpt>
      <trkpt lat="45.91025" lon="6.8377">
        <ele>1098</ele>
        <time>2026-08-04T04:40:22.278Z</time>
      </trkpt>
      <trkpt lat="45.91025" lon="6.8377">
        <ele>1099</ele>
        <time>2026-08-04T04:40:23.278Z</time>
      </trkpt>
      <trkpt lat="45.91025" lon="6.8377">
        <ele>1099</ele>
        <time>2026-08-04T04:40:24.278Z</time>
      </trkpt>
      <trkpt lat="45.91025" lon="6.8377">
        <ele>1100</ele>
        <time>2026-08-04T04:40:25.278Z</time>
      </trkpt>
      <trkpt lat="45.91025" lon="6.8377">
        <ele>1100</ele>
        <time>2026-08-04T04:40:26.278Z</time>
      </trkpt>
      <trkpt lat="45.91025" lon="6.8377">
        <ele>1100</ele>
        <time>2026-08-04T04:40:27.278Z</time>
      </trkpt>
      <trkpt lat="45.91025" lon="6.83771">
        <ele>1100</ele>
        <time>2026-08-04T04:40:28.278Z</time>
      </trkpt>
      <trkpt lat="45.91025" lon="6.83773">
        <ele>1100</ele>
        <time>2026-08-04T04:40:29.278Z</time>
      </trkpt>
      <trkpt lat="45.91026" lon="6.83774">
        <ele>1100</ele>
        <time>2026-08-04T04:40:30.278Z</time>
      </trkpt>
      <trkpt lat="45.91027" lon="6.83776">
        <ele>1100</ele>
        <time>2026-08-04T04:40:31.278Z</time>
      </trkpt>
      <trkpt lat="45.91027" lon="6.83777">
        <ele>1100</ele>
        <time>2026-08-04T04:40:32.278Z</time>
      </trkpt>
      <trkpt lat="45.91028" lon="6.83777">
        <ele>1100</ele>
        <time>2026-08-04T04:40:33.278Z</time>
      </trkpt>
      <trkpt lat="45.91028" lon="6.83778">
        <ele>1099</ele>
        <time>2026-08-04T04:40:34.278Z</time>
      </trkpt>
      <trkpt lat="45.91029" lon="6.83779">
        <ele>1099</ele>
        <time>2026-08-04T04:40:35.278Z</time>
      </trkpt>
      <trkpt lat="45.9103" lon="6.8378">
        <ele>1099</ele>
        <time>2026-08-04T04:40:36.278Z</time>
      </trkpt>
      <trkpt lat="45.91031" lon="6.83782">
        <ele>1099</ele>
        <time>2026-08-04T04:40:37.278Z</time>
      </trkpt>
      <trkpt lat="45.91032" lon="6.83783">
        <ele>1099</ele>
        <time>2026-08-04T04:40:38.278Z</time>
      </trkpt>
      <trkpt lat="45.91033" lon="6.83784">
        <ele>1098</ele>
        <time>2026-08-04T04:40:39.278Z</time>
      </trkpt>
      <trkpt lat="45.91033" lon="6.83785">
        <ele>1098</ele>
        <time>2026-08-04T04:40:40.278Z</time>
      </trkpt>
      <trkpt lat="45.91034" lon="6.83786">
        <ele>1098</ele>
        <time>2026-08-04T04:40:41.278Z</time>
      </trkpt>
      <trkpt lat="45.91035" lon="6.83788">
        <ele>1098</ele>
        <time>2026-08-04T04:40:42.278Z</time>
      </trkpt>
      <trkpt lat="45.91036" lon="6.83789">
        <ele>1098</ele>
        <time>2026-08-04T04:40:43.278Z</time>
      </trkpt>
      <trkpt lat="45.91037" lon="6.8379">
        <ele>1098</ele>
        <time>2026-08-04T04:40:44.278Z</time>
      </trkpt>
      <trkpt lat="45.91037" lon="6.83791">
        <ele>1098</ele>
        <time>2026-08-04T04:40:45.278Z</time>
      </trkpt>
      <trkpt lat="45.91038" lon="6.83793">
        <ele>1098</ele>
        <time>2026-08-04T04:40:46.278Z</time>
      </trkpt>
      <trkpt lat="45.91038" lon="6.83794">
        <ele>1098</ele>
        <time>2026-08-04T04:40:47.278Z</time>
      </trkpt>
      <trkpt lat="45.91039" lon="6.83795">
        <ele>1098</ele>
        <time>2026-08-04T04:40:48.278Z</time>
      </trkpt>
      <trkpt lat="45.91039" lon="6.83796">
        <ele>1099</ele>
        <time>2026-08-04T04:40:49.278Z</time>
      </trkpt>
      <trkpt lat="45.9104" lon="6.83797">
        <ele>1098</ele>
        <time>2026-08-04T04:40:50.278Z</time>
      </trkpt>
      <trkpt lat="45.91041" lon="6.83797">
        <ele>1098</ele>
        <time>2026-08-04T04:40:51.278Z</time>
      </trkpt>
      <trkpt lat="45.91041" lon="6.83797">
        <ele>1098</ele>
        <time>2026-08-04T04:40:52.278Z</time>
      </trkpt>
      <trkpt lat="45.91042" lon="6.83798">
        <ele>1098</ele>
        <time>2026-08-04T04:40:53.278Z</time>
      </trkpt>
      <trkpt lat="45.91043" lon="6.83799">
        <ele>1099</ele>
        <time>2026-08-04T04:40:54.278Z</time>
      </trkpt>
      <trkpt lat="45.91043" lon="6.83799">
        <ele>1099</ele>
        <time>2026-08-04T04:40:55.278Z</time>
      </trkpt>
      <trkpt lat="45.91044" lon="6.83799">
        <ele>1099</ele>
        <time>2026-08-04T04:40:56.278Z</time>
      </trkpt>
      <trkpt lat="45.91044" lon="6.838">
        <ele>1099</ele>
        <time>2026-08-04T04:40:57.278Z</time>
      </trkpt>
      <trkpt lat="45.91045" lon="6.838">
        <ele>1100</ele>
        <time>2026-08-04T04:40:58.278Z</time>
      </trkpt>
      <trkpt lat="45.91046" lon="6.838">
        <ele>1100</ele>
        <time>2026-08-04T04:40:59.278Z</time>
      </trkpt>
      <trkpt lat="45.91047" lon="6.83801">
        <ele>1101</ele>
        <time>2026-08-04T04:41:00.278Z</time>
      </trkpt>
      <trkpt lat="45.91048" lon="6.83802">
        <ele>1101</ele>
        <time>2026-08-04T04:41:01.278Z</time>
      </trkpt>
      <trkpt lat="45.91049" lon="6.83802">
        <ele>1101</ele>
        <time>2026-08-04T04:41:02.278Z</time>
      </trkpt>
      <trkpt lat="45.9105" lon="6.83802">
        <ele>1101</ele>
        <time>2026-08-04T04:41:03.278Z</time>
      </trkpt>
      <trkpt lat="45.91051" lon="6.83803">
        <ele>1102</ele>
        <time>2026-08-04T04:41:04.278Z</time>
      </trkpt>
      <trkpt lat="45.91052" lon="6.83803">
        <ele>1102</ele>
        <time>2026-08-04T04:41:05.278Z</time>
      </trkpt>
      <trkpt lat="45.91053" lon="6.83803">
        <ele>1102</ele>
        <time>2026-08-04T04:41:06.278Z</time>
      </trkpt>
      <trkpt lat="45.91053" lon="6.83804">
        <ele>1102</ele>
        <time>2026-08-04T04:41:07.278Z</time>
      </trkpt>
      <trkpt lat="45.91054" lon="6.83804">
        <ele>1102</ele>
        <time>2026-08-04T04:41:08.278Z</time>
      </trkpt>
      <trkpt lat="45.91055" lon="6.83805">
        <ele>1102</ele>
        <time>2026-08-04T04:41:09.278Z</time>
      </trkpt>
      <trkpt lat="45.91056" lon="6.83805">
        <ele>1102</ele>
        <time>2026-08-04T04:41:10.278Z</time>
      </trkpt>
      <trkpt lat="45.91057" lon="6.83806">
        <ele>1102</ele>
        <time>2026-08-04T04:41:11.278Z</time>
      </trkpt>
      <trkpt lat="45.91059" lon="6.83807">
        <ele>1102</ele>
        <time>2026-08-04T04:41:12.278Z</time>
      </trkpt>
      <trkpt lat="45.9106" lon="6.83808">
        <ele>1102</ele>
        <time>2026-08-04T04:41:13.278Z</time>
      </trkpt>
      <trkpt lat="45.91061" lon="6.83809">
        <ele>1102</ele>
        <time>2026-08-04T04:41:14.278Z</time>
      </trkpt>
      <trkpt lat="45.91063" lon="6.83811">
        <ele>1102</ele>
        <time>2026-08-04T04:41:15.278Z</time>
      </trkpt>
      <trkpt lat="45.91065" lon="6.83812">
        <ele>1102</ele>
        <time>2026-08-04T04:41:16.278Z</time>
      </trkpt>
      <trkpt lat="45.91067" lon="6.83813">
        <ele>1102</ele>
        <time>2026-08-04T04:41:17.278Z</time>
      </trkpt>
      <trkpt lat="45.91067" lon="6.83814">
        <ele>1102</ele>
        <time>2026-08-04T04:41:18.278Z</time>
      </trkpt>
      <trkpt lat="45.91067" lon="6.83814">
        <ele>1103</ele>
        <time>2026-08-04T04:41:19.278Z</time>
      </trkpt>
      <trkpt lat="45.91067" lon="6.83815">
        <ele>1103</ele>
        <time>2026-08-04T04:41:20.278Z</time>
      </trkpt>
      <trkpt lat="45.91067" lon="6.83816">
        <ele>1103</ele>
        <time>2026-08-04T04:41:21.278Z</time>
      </trkpt>
      <trkpt lat="45.91068" lon="6.83817">
        <ele>1103</ele>
        <time>2026-08-04T04:41:22.278Z</time>
      </trkpt>
      <trkpt lat="45.91069" lon="6.83818">
        <ele>1102</ele>
        <time>2026-08-04T04:41:23.278Z</time>
      </trkpt>
      <trkpt lat="45.91069" lon="6.83819">
        <ele>1102</ele>
        <time>2026-08-04T04:41:24.278Z</time>
      </trkpt>
      <trkpt lat="45.91069" lon="6.83819">
        <ele>1102</ele>
        <time>2026-08-04T04:41:25.278Z</time>
      </trkpt>
      <trkpt lat="45.91069" lon="6.83819">
        <ele>1102</ele>
        <time>2026-08-04T04:41:26.278Z</time>
      </trkpt>
      <trkpt lat="45.9107" lon="6.83819">
        <ele>1102</ele>
        <time>2026-08-04T04:41:27.278Z</time>
      </trkpt>
      <trkpt lat="45.91069" lon="6.83819">
        <ele>1102</ele>
        <time>2026-08-04T04:41:28.278Z</time>
      </trkpt>
      <trkpt lat="45.9107" lon="6.8382">
        <ele>1101</ele>
        <time>2026-08-04T04:41:29.278Z</time>
      </trkpt>
      <trkpt lat="45.9107" lon="6.8382">
        <ele>1101</ele>
        <time>2026-08-04T04:41:30.278Z</time>
      </trkpt>
      <trkpt lat="45.91071" lon="6.8382">
        <ele>1101</ele>
        <time>2026-08-04T04:41:31.278Z</time>
      </trkpt>
      <trkpt lat="45.91071" lon="6.83821">
        <ele>1101</ele>
        <time>2026-08-04T04:41:32.278Z</time>
      </trkpt>
      <trkpt lat="45.91072" lon="6.83821">
        <ele>1101</ele>
        <time>2026-08-04T04:41:33.278Z</time>
      </trkpt>
      <trkpt lat="45.91073" lon="6.83821">
        <ele>1101</ele>
        <time>2026-08-04T04:41:34.278Z</time>
      </trkpt>
      <trkpt lat="45.91073" lon="6.83822">
        <ele>1101</ele>
        <time>2026-08-04T04:41:35.278Z</time>
      </trkpt>
      <trkpt lat="45.91074" lon="6.83823">
        <ele>1102</ele>
        <time>2026-08-04T04:41:36.278Z</time>
      </trkpt>
      <trkpt lat="45.91075" lon="6.83823">
        <ele>1102</ele>
        <time>2026-08-04T04:41:37.278Z</time>
      </trkpt>
      <trkpt lat="45.91076" lon="6.83824">
        <ele>1102</ele>
        <time>2026-08-04T04:41:38.278Z</time>
      </trkpt>
      <trkpt lat="45.91076" lon="6.83824">
        <ele>1102</ele>
        <time>2026-08-04T04:41:39.278Z</time>
      </trkpt>
      <trkpt lat="45.91077" lon="6.83824">
        <ele>1102</ele>
        <time>2026-08-04T04:41:40.278Z</time>
      </trkpt>
      <trkpt lat="45.91078" lon="6.83825">
        <ele>1102</ele>
        <time>2026-08-04T04:41:41.278Z</time>
      </trkpt>
      <trkpt lat="45.91078" lon="6.83825">
        <ele>1103</ele>
        <time>2026-08-04T04:41:42.278Z</time>
      </trkpt>
      <trkpt lat="45.91078" lon="6.83825">
        <ele>1103</ele>
        <time>2026-08-04T04:41:43.278Z</time>
      </trkpt>
      <trkpt lat="45.91079" lon="6.83825">
        <ele>1104</ele>
        <time>2026-08-04T04:41:44.278Z</time>
      </trkpt>
      <trkpt lat="45.9108" lon="6.83825">
        <ele>1104</ele>
        <time>2026-08-04T04:41:45.278Z</time>
      </trkpt>
      <trkpt lat="45.91081" lon="6.83825">
        <ele>1105</ele>
        <time>2026-08-04T04:41:46.278Z</time>
      </trkpt>
      <trkpt lat="45.91082" lon="6.83824">
        <ele>1106</ele>
        <time>2026-08-04T04:41:47.278Z</time>
      </trkpt>
      <trkpt lat="45.91083" lon="6.83823">
        <ele>1107</ele>
        <time>2026-08-04T04:41:48.278Z</time>
      </trkpt>
      <trkpt lat="45.91084" lon="6.83822">
        <ele>1108</ele>
        <time>2026-08-04T04:41:49.278Z</time>
      </trkpt>
      <trkpt lat="45.91084" lon="6.83822">
        <ele>1108</ele>
        <time>2026-08-04T04:41:50.278Z</time>
      </trkpt>
      <trkpt lat="45.91085" lon="6.83823">
        <ele>1109</ele>
        <time>2026-08-04T04:41:51.278Z</time>
      </trkpt>
      <trkpt lat="45.91085" lon="6.83824">
        <ele>1109</ele>
        <time>2026-08-04T04:41:52.278Z</time>
      </trkpt>
      <trkpt lat="45.91086" lon="6.83824">
        <ele>1110</ele>
        <time>2026-08-04T04:41:53.278Z</time>
      </trkpt>
      <trkpt lat="45.91086" lon="6.83824">
        <ele>1110</ele>
        <time>2026-08-04T04:41:54.278Z</time>
      </trkpt>
      <trkpt lat="45.91087" lon="6.83825">
        <ele>1109</ele>
        <time>2026-08-04T04:41:55.278Z</time>
      </trkpt>
      <trkpt lat="45.91088" lon="6.83826">
        <ele>1109</ele>
        <time>2026-08-04T04:41:56.278Z</time>
      </trkpt>
      <trkpt lat="45.91088" lon="6.83827">
        <ele>1109</ele>
        <time>2026-08-04T04:41:57.278Z</time>
      </trkpt>
      <trkpt lat="45.9109" lon="6.83827">
        <ele>1109</ele>
        <time>2026-08-04T04:41:58.278Z</time>
      </trkpt>
      <trkpt lat="45.91091" lon="6.83827">
        <ele>1108</ele>
        <time>2026-08-04T04:41:59.278Z</time>
      </trkpt>
      <trkpt lat="45.91092" lon="6.83828">
        <ele>1108</ele>
        <time>2026-08-04T04:42:00.278Z</time>
      </trkpt>
      <trkpt lat="45.91093" lon="6.83828">
        <ele>1108</ele>
        <time>2026-08-04T04:42:01.278Z</time>
      </trkpt>
      <trkpt lat="45.91095" lon="6.83828">
        <ele>1108</ele>
        <time>2026-08-04T04:42:02.278Z</time>
      </trkpt>
      <trkpt lat="45.91096" lon="6.83829">
        <ele>1109</ele>
        <time>2026-08-04T04:42:03.278Z</time>
      </trkpt>
      <trkpt lat="45.91097" lon="6.8383">
        <ele>1109</ele>
        <time>2026-08-04T04:42:04.278Z</time>
      </trkpt>
      <trkpt lat="45.91098" lon="6.83831">
        <ele>1110</ele>
        <time>2026-08-04T04:42:05.278Z</time>
      </trkpt>
      <trkpt lat="45.91099" lon="6.83831">
        <ele>1110</ele>
        <time>2026-08-04T04:42:06.278Z</time>
      </trkpt>
      <trkpt lat="45.91101" lon="6.83832">
        <ele>1111</ele>
        <time>2026-08-04T04:42:07.278Z</time>
      </trkpt>
      <trkpt lat="45.91102" lon="6.83832">
        <ele>1112</ele>
        <time>2026-08-04T04:42:08.278Z</time>
      </trkpt>
      <trkpt lat="45.91103" lon="6.83833">
        <ele>1113</ele>
        <time>2026-08-04T04:42:09.278Z</time>
      </trkpt>
      <trkpt lat="45.91104" lon="6.83833">
        <ele>1114</ele>
        <time>2026-08-04T04:42:10.278Z</time>
      </trkpt>
      <trkpt lat="45.91104" lon="6.83833">
        <ele>1115</ele>
        <time>2026-08-04T04:42:11.278Z</time>
      </trkpt>
      <trkpt lat="45.91105" lon="6.83834">
        <ele>1115</ele>
        <time>2026-08-04T04:42:12.278Z</time>
      </trkpt>
      <trkpt lat="45.91106" lon="6.83835">
        <ele>1116</ele>
        <time>2026-08-04T04:42:13.278Z</time>
      </trkpt>
      <trkpt lat="45.91107" lon="6.83836">
        <ele>1117</ele>
        <time>2026-08-04T04:42:14.278Z</time>
      </trkpt>
      <trkpt lat="45.91108" lon="6.83836">
        <ele>1117</ele>
        <time>2026-08-04T04:42:15.278Z</time>
      </trkpt>
      <trkpt lat="45.91109" lon="6.83838">
        <ele>1118</ele>
        <time>2026-08-04T04:42:16.278Z</time>
      </trkpt>
      <trkpt lat="45.9111" lon="6.83839">
        <ele>1118</ele>
        <time>2026-08-04T04:42:17.278Z</time>
      </trkpt>
      <trkpt lat="45.91111" lon="6.8384">
        <ele>1119</ele>
        <time>2026-08-04T04:42:18.278Z</time>
      </trkpt>
      <trkpt lat="45.91113" lon="6.83841">
        <ele>1119</ele>
        <time>2026-08-04T04:42:19.278Z</time>
      </trkpt>
      <trkpt lat="45.91115" lon="6.83843">
        <ele>1120</ele>
        <time>2026-08-04T04:42:20.278Z</time>
      </trkpt>
      <trkpt lat="45.91117" lon="6.83843">
        <ele>1120</ele>
        <time>2026-08-04T04:42:21.278Z</time>
      </trkpt>
      <trkpt lat="45.91119" lon="6.83845">
        <ele>1120</ele>
        <time>2026-08-04T04:42:22.278Z</time>
      </trkpt>
      <trkpt lat="45.91121" lon="6.83846">
        <ele>1120</ele>
        <time>2026-08-04T04:42:23.278Z</time>
      </trkpt>
      <trkpt lat="45.91122" lon="6.83848">
        <ele>1120</ele>
        <time>2026-08-04T04:42:24.278Z</time>
      </trkpt>
      <trkpt lat="45.91124" lon="6.83849">
        <ele>1120</ele>
        <time>2026-08-04T04:42:25.278Z</time>
      </trkpt>
      <trkpt lat="45.91125" lon="6.8385">
        <ele>1120</ele>
        <time>2026-08-04T04:42:26.278Z</time>
      </trkpt>
      <trkpt lat="45.91126" lon="6.83851">
        <ele>1119</ele>
        <time>2026-08-04T04:42:27.278Z</time>
      </trkpt>
      <trkpt lat="45.91127" lon="6.83851">
        <ele>1119</ele>
        <time>2026-08-04T04:42:28.278Z</time>
      </trkpt>
      <trkpt lat="45.91128" lon="6.83852">
        <ele>1119</ele>
        <time>2026-08-04T04:42:29.278Z</time>
      </trkpt>
      <trkpt lat="45.91129" lon="6.83853">
        <ele>1119</ele>
        <time>2026-08-04T04:42:30.278Z</time>
      </trkpt>
      <trkpt lat="45.9113" lon="6.83854">
        <ele>1119</ele>
        <time>2026-08-04T04:42:31.278Z</time>
      </trkpt>
      <trkpt lat="45.91131" lon="6.83855">
        <ele>1119</ele>
        <time>2026-08-04T04:42:32.278Z</time>
      </trkpt>
      <trkpt lat="45.91132" lon="6.83856">
        <ele>1120</ele>
        <time>2026-08-04T04:42:33.278Z</time>
      </trkpt>
      <trkpt lat="45.91133" lon="6.83856">
        <ele>1120</ele>
        <time>2026-08-04T04:42:34.278Z</time>
      </trkpt>
      <trkpt lat="45.91134" lon="6.83856">
        <ele>1120</ele>
        <time>2026-08-04T04:42:35.278Z</time>
      </trkpt>
      <trkpt lat="45.91134" lon="6.83855">
        <ele>1121</ele>
        <time>2026-08-04T04:42:36.278Z</time>
      </trkpt>
      <trkpt lat="45.91134" lon="6.83854">
        <ele>1122</ele>
        <time>2026-08-04T04:42:37.278Z</time>
      </trkpt>
      <trkpt lat="45.91133" lon="6.83853">
        <ele>1122</ele>
        <time>2026-08-04T04:42:38.278Z</time>
      </trkpt>
      <trkpt lat="45.91133" lon="6.83852">
        <ele>1123</ele>
        <time>2026-08-04T04:42:39.278Z</time>
      </trkpt>
      <trkpt lat="45.91132" lon="6.83851">
        <ele>1123</ele>
        <time>2026-08-04T04:42:40.278Z</time>
      </trkpt>
      <trkpt lat="45.91132" lon="6.8385">
        <ele>1123</ele>
        <time>2026-08-04T04:42:41.278Z</time>
      </trkpt>
      <trkpt lat="45.91131" lon="6.83849">
        <ele>1123</ele>
        <time>2026-08-04T04:42:42.278Z</time>
      </trkpt>
      <trkpt lat="45.91131" lon="6.83847">
        <ele>1123</ele>
        <time>2026-08-04T04:42:43.278Z</time>
      </trkpt>
      <trkpt lat="45.91131" lon="6.83846">
        <ele>1123</ele>
        <time>2026-08-04T04:42:44.278Z</time>
      </trkpt>
      <trkpt lat="45.91131" lon="6.83845">
        <ele>1124</ele>
        <time>2026-08-04T04:42:45.278Z</time>
      </trkpt>
      <trkpt lat="45.91132" lon="6.83844">
        <ele>1124</ele>
        <time>2026-08-04T04:42:46.278Z</time>
      </trkpt>
      <trkpt lat="45.91133" lon="6.83844">
        <ele>1123</ele>
        <time>2026-08-04T04:42:47.278Z</time>
      </trkpt>
      <trkpt lat="45.91134" lon="6.83845">
        <ele>1123</ele>
        <time>2026-08-04T04:42:48.278Z</time>
      </trkpt>
      <trkpt lat="45.91135" lon="6.83845">
        <ele>1123</ele>
        <time>2026-08-04T04:42:49.278Z</time>
      </trkpt>
      <trkpt lat="45.91136" lon="6.83846">
        <ele>1123</ele>
        <time>2026-08-04T04:42:50.278Z</time>
      </trkpt>
      <trkpt lat="45.91137" lon="6.83847">
        <ele>1123</ele>
        <time>2026-08-04T04:42:51.278Z</time>
      </trkpt>
      <trkpt lat="45.91137" lon="6.83847">
        <ele>1123</ele>
        <time>2026-08-04T04:42:52.278Z</time>
      </trkpt>
      <trkpt lat="45.91138" lon="6.83847">
        <ele>1123</ele>
        <time>2026-08-04T04:42:53.278Z</time>
      </trkpt>
      <trkpt lat="45.91139" lon="6.83848">
        <ele>1123</ele>
        <time>2026-08-04T04:42:54.278Z</time>
      </trkpt>
      <trkpt lat="45.9114" lon="6.83849">
        <ele>1123</ele>
        <time>2026-08-04T04:42:55.278Z</time>
      </trkpt>
      <trkpt lat="45.91141" lon="6.8385">
        <ele>1123</ele>
        <time>2026-08-04T04:42:56.278Z</time>
      </trkpt>
      <trkpt lat="45.91142" lon="6.8385">
        <ele>1124</ele>
        <time>2026-08-04T04:42:57.278Z</time>
      </trkpt>
      <trkpt lat="45.91143" lon="6.83851">
        <ele>1124</ele>
        <time>2026-08-04T04:42:58.278Z</time>
      </trkpt>
      <trkpt lat="45.91144" lon="6.83852">
        <ele>1124</ele>
        <time>2026-08-04T04:42:59.278Z</time>
      </trkpt>
      <trkpt lat="45.91145" lon="6.83853">
        <ele>1124</ele>
        <time>2026-08-04T04:43:00.278Z</time>
      </trkpt>
      <trkpt lat="45.91145" lon="6.83854">
        <ele>1125</ele>
        <time>2026-08-04T04:43:01.278Z</time>
      </trkpt>
      <trkpt lat="45.91145" lon="6.83855">
        <ele>1125</ele>
        <time>2026-08-04T04:43:02.278Z</time>
      </trkpt>
      <trkpt lat="45.91146" lon="6.83857">
        <ele>1125</ele>
        <time>2026-08-04T04:43:03.278Z</time>
      </trkpt>
      <trkpt lat="45.91147" lon="6.83858">
        <ele>1126</ele>
        <time>2026-08-04T04:43:04.278Z</time>
      </trkpt>
      <trkpt lat="45.91147" lon="6.8386">
        <ele>1126</ele>
        <time>2026-08-04T04:43:05.278Z</time>
      </trkpt>
      <trkpt lat="45.91148" lon="6.83861">
        <ele>1126</ele>
        <time>2026-08-04T04:43:06.278Z</time>
      </trkpt>
      <trkpt lat="45.9115" lon="6.83862">
        <ele>1126</ele>
        <time>2026-08-04T04:43:07.278Z</time>
      </trkpt>
      <trkpt lat="45.91151" lon="6.83862">
        <ele>1126</ele>
        <time>2026-08-04T04:43:08.278Z</time>
      </trkpt>
      <trkpt lat="45.91152" lon="6.83863">
        <ele>1125</ele>
        <time>2026-08-04T04:43:09.278Z</time>
      </trkpt>
      <trkpt lat="45.91152" lon="6.83864">
        <ele>1125</ele>
        <time>2026-08-04T04:43:10.278Z</time>
      </trkpt>
      <trkpt lat="45.91152" lon="6.83865">
        <ele>1125</ele>
        <time>2026-08-04T04:43:11.278Z</time>
      </trkpt>
      <trkpt lat="45.91152" lon="6.83865">
        <ele>1124</ele>
        <time>2026-08-04T04:43:12.278Z</time>
      </trkpt>
      <trkpt lat="45.91152" lon="6.83865">
        <ele>1124</ele>
        <time>2026-08-04T04:43:13.278Z</time>
      </trkpt>
      <trkpt lat="45.91152" lon="6.83865">
        <ele>1125</ele>
        <time>2026-08-04T04:43:14.278Z</time>
      </trkpt>
      <trkpt lat="45.91152" lon="6.83865">
        <ele>1125</ele>
        <time>2026-08-04T04:43:15.278Z</time>
      </trkpt>
      <trkpt lat="45.91152" lon="6.83865">
        <ele>1126</ele>
        <time>2026-08-04T04:43:16.278Z</time>
      </trkpt>
      <trkpt lat="45.91152" lon="6.83865">
        <ele>1126</ele>
        <time>2026-08-04T04:43:17.278Z</time>
      </trkpt>
      <trkpt lat="45.91153" lon="6.83865">
        <ele>1127</ele>
        <time>2026-08-04T04:43:18.278Z</time>
      </trkpt>
      <trkpt lat="45.91153" lon="6.83864">
        <ele>1127</ele>
        <time>2026-08-04T04:43:19.278Z</time>
      </trkpt>
      <trkpt lat="45.91152" lon="6.83863">
        <ele>1127</ele>
        <time>2026-08-04T04:43:20.278Z</time>
      </trkpt>
      <trkpt lat="45.91152" lon="6.83862">
        <ele>1128</ele>
        <time>2026-08-04T04:43:21.278Z</time>
      </trkpt>
      <trkpt lat="45.91152" lon="6.83861">
        <ele>1128</ele>
        <time>2026-08-04T04:43:22.278Z</time>
      </trkpt>
      <trkpt lat="45.91152" lon="6.8386">
        <ele>1129</ele>
        <time>2026-08-04T04:43:23.278Z</time>
      </trkpt>
      <trkpt lat="45.91152" lon="6.83858">
        <ele>1130</ele>
        <time>2026-08-04T04:43:24.278Z</time>
      </trkpt>
      <trkpt lat="45.91152" lon="6.83857">
        <ele>1130</ele>
        <time>2026-08-04T04:43:25.278Z</time>
      </trkpt>
      <trkpt lat="45.91152" lon="6.83857">
        <ele>1131</ele>
        <time>2026-08-04T04:43:26.278Z</time>
      </trkpt>
      <trkpt lat="45.91151" lon="6.83856">
        <ele>1132</ele>
        <time>2026-08-04T04:43:27.278Z</time>
      </trkpt>
      <trkpt lat="45.91151" lon="6.83856">
        <ele>1132</ele>
        <time>2026-08-04T04:43:28.278Z</time>
      </trkpt>
      <trkpt lat="45.91151" lon="6.83855">
        <ele>1133</ele>
        <time>2026-08-04T04:43:29.278Z</time>
      </trkpt>
      <trkpt lat="45.9115" lon="6.83854">
        <ele>1134</ele>
        <time>2026-08-04T04:43:30.278Z</time>
      </trkpt>
      <trkpt lat="45.91149" lon="6.83854">
        <ele>1135</ele>
        <time>2026-08-04T04:43:31.278Z</time>
      </trkpt>
      <trkpt lat="45.91149" lon="6.83852">
        <ele>1136</ele>
        <time>2026-08-04T04:43:32.278Z</time>
      </trkpt>
      <trkpt lat="45.91149" lon="6.83849">
        <ele>1136</ele>
        <time>2026-08-04T04:43:33.278Z</time>
      </trkpt>
      <trkpt lat="45.91149" lon="6.83847">
        <ele>1137</ele>
        <time>2026-08-04T04:43:34.278Z</time>
      </trkpt>
      <trkpt lat="45.91149" lon="6.83845">
        <ele>1138</ele>
        <time>2026-08-04T04:43:35.278Z</time>
      </trkpt>
      <trkpt lat="45.91149" lon="6.83844">
        <ele>1139</ele>
        <time>2026-08-04T04:43:36.278Z</time>
      </trkpt>
      <trkpt lat="45.91149" lon="6.83843">
        <ele>1140</ele>
        <time>2026-08-04T04:43:37.278Z</time>
      </trkpt>
      <trkpt lat="45.9115" lon="6.83844">
        <ele>1141</ele>
        <time>2026-08-04T04:43:38.278Z</time>
      </trkpt>
      <trkpt lat="45.91151" lon="6.83844">
        <ele>1141</ele>
        <time>2026-08-04T04:43:39.278Z</time>
      </trkpt>
      <trkpt lat="45.91152" lon="6.83846">
        <ele>1141</ele>
        <time>2026-08-04T04:43:40.278Z</time>
      </trkpt>
      <trkpt lat="45.91154" lon="6.83847">
        <ele>1141</ele>
        <time>2026-08-04T04:43:41.278Z</time>
      </trkpt>
      <trkpt lat="45.91155" lon="6.83848">
        <ele>1142</ele>
        <time>2026-08-04T04:43:42.278Z</time>
      </trkpt>
      <trkpt lat="45.91157" lon="6.83849">
        <ele>1142</ele>
        <time>2026-08-04T04:43:43.278Z</time>
      </trkpt>
      <trkpt lat="45.91158" lon="6.8385">
        <ele>1142</ele>
        <time>2026-08-04T04:43:44.278Z</time>
      </trkpt>
      <trkpt lat="45.91158" lon="6.83851">
        <ele>1142</ele>
        <time>2026-08-04T04:43:45.278Z</time>
      </trkpt>
      <trkpt lat="45.91159" lon="6.83851">
        <ele>1142</ele>
        <time>2026-08-04T04:43:46.278Z</time>
      </trkpt>
      <trkpt lat="45.91159" lon="6.83852">
        <ele>1142</ele>
        <time>2026-08-04T04:43:47.278Z</time>
      </trkpt>
      <trkpt lat="45.9116" lon="6.83853">
        <ele>1142</ele>
        <time>2026-08-04T04:43:48.278Z</time>
      </trkpt>
      <trkpt lat="45.91161" lon="6.83853">
        <ele>1142</ele>
        <time>2026-08-04T04:43:49.278Z</time>
      </trkpt>
      <trkpt lat="45.91162" lon="6.83854">
        <ele>1142</ele>
        <time>2026-08-04T04:43:50.278Z</time>
      </trkpt>
      <trkpt lat="45.91163" lon="6.83855">
        <ele>1141</ele>
        <time>2026-08-04T04:43:51.278Z</time>
      </trkpt>
      <trkpt lat="45.91163" lon="6.83855">
        <ele>1141</ele>
        <time>2026-08-04T04:43:52.278Z</time>
      </trkpt>
      <trkpt lat="45.91164" lon="6.83856">
        <ele>1141</ele>
        <time>2026-08-04T04:43:53.278Z</time>
      </trkpt>
      <trkpt lat="45.91165" lon="6.83856">
        <ele>1141</ele>
        <time>2026-08-04T04:43:54.278Z</time>
      </trkpt>
      <trkpt lat="45.91167" lon="6.83856">
        <ele>1140</ele>
        <time>2026-08-04T04:43:55.278Z</time>
      </trkpt>
      <trkpt lat="45.91167" lon="6.83856">
        <ele>1140</ele>
        <time>2026-08-04T04:43:56.278Z</time>
      </trkpt>
      <trkpt lat="45.91168" lon="6.83856">
        <ele>1140</ele>
        <time>2026-08-04T04:43:57.278Z</time>
      </trkpt>
      <trkpt lat="45.91169" lon="6.83856">
        <ele>1140</ele>
        <time>2026-08-04T04:43:58.278Z</time>
      </trkpt>
      <trkpt lat="45.91171" lon="6.83857">
        <ele>1140</ele>
        <time>2026-08-04T04:43:59.278Z</time>
      </trkpt>
      <trkpt lat="45.91172" lon="6.83858">
        <ele>1140</ele>
        <time>2026-08-04T04:44:00.278Z</time>
      </trkpt>
      <trkpt lat="45.91172" lon="6.83859">
        <ele>1140</ele>
        <time>2026-08-04T04:44:01.278Z</time>
      </trkpt>
      <trkpt lat="45.91173" lon="6.83859">
        <ele>1140</ele>
        <time>2026-08-04T04:44:02.278Z</time>
      </trkpt>
      <trkpt lat="45.91174" lon="6.83859">
        <ele>1140</ele>
        <time>2026-08-04T04:44:03.278Z</time>
      </trkpt>
      <trkpt lat="45.91175" lon="6.8386">
        <ele>1140</ele>
        <time>2026-08-04T04:44:04.278Z</time>
      </trkpt>
      <trkpt lat="45.91176" lon="6.83861">
        <ele>1140</ele>
        <time>2026-08-04T04:44:05.278Z</time>
      </trkpt>
      <trkpt lat="45.91176" lon="6.83861">
        <ele>1140</ele>
        <time>2026-08-04T04:44:06.278Z</time>
      </trkpt>
      <trkpt lat="45.91177" lon="6.83862">
        <ele>1140</ele>
        <time>2026-08-04T04:44:07.278Z</time>
      </trkpt>
      <trkpt lat="45.91177" lon="6.83863">
        <ele>1140</ele>
        <time>2026-08-04T04:44:08.278Z</time>
      </trkpt>
      <trkpt lat="45.91177" lon="6.83864">
        <ele>1141</ele>
        <time>2026-08-04T04:44:09.278Z</time>
      </trkpt>
      <trkpt lat="45.91177" lon="6.83865">
        <ele>1140</ele>
        <time>2026-08-04T04:44:10.278Z</time>
      </trkpt>
      <trkpt lat="45.91178" lon="6.83866">
        <ele>1140</ele>
        <time>2026-08-04T04:44:11.278Z</time>
      </trkpt>
      <trkpt lat="45.91179" lon="6.83866">
        <ele>1140</ele>
        <time>2026-08-04T04:44:12.278Z</time>
      </trkpt>
      <trkpt lat="45.9118" lon="6.83866">
        <ele>1140</ele>
        <time>2026-08-04T04:44:13.278Z</time>
      </trkpt>
      <trkpt lat="45.91181" lon="6.83866">
        <ele>1139</ele>
        <time>2026-08-04T04:44:14.278Z</time>
      </trkpt>
      <trkpt lat="45.91182" lon="6.83867">
        <ele>1139</ele>
        <time>2026-08-04T04:44:15.278Z</time>
      </trkpt>
      <trkpt lat="45.91183" lon="6.83868">
        <ele>1140</ele>
        <time>2026-08-04T04:44:16.278Z</time>
      </trkpt>
      <trkpt lat="45.91184" lon="6.83868">
        <ele>1140</ele>
        <time>2026-08-04T04:44:17.278Z</time>
      </trkpt>
      <trkpt lat="45.91185" lon="6.83869">
        <ele>1140</ele>
        <time>2026-08-04T04:44:18.278Z</time>
      </trkpt>
      <trkpt lat="45.91186" lon="6.83869">
        <ele>1140</ele>
        <time>2026-08-04T04:44:19.278Z</time>
      </trkpt>
      <trkpt lat="45.91187" lon="6.83868">
        <ele>1140</ele>
        <time>2026-08-04T04:44:20.278Z</time>
      </trkpt>
      <trkpt lat="45.91187" lon="6.83867">
        <ele>1141</ele>
        <time>2026-08-04T04:44:21.278Z</time>
      </trkpt>
      <trkpt lat="45.91187" lon="6.83867">
        <ele>1141</ele>
        <time>2026-08-04T04:44:22.278Z</time>
      </trkpt>
      <trkpt lat="45.91187" lon="6.83865">
        <ele>1142</ele>
        <time>2026-08-04T04:44:23.278Z</time>
      </trkpt>
      <trkpt lat="45.91187" lon="6.83864">
        <ele>1143</ele>
        <time>2026-08-04T04:44:24.278Z</time>
      </trkpt>
      <trkpt lat="45.91186" lon="6.83863">
        <ele>1144</ele>
        <time>2026-08-04T04:44:25.278Z</time>
      </trkpt>
      <trkpt lat="45.91186" lon="6.83862">
        <ele>1144</ele>
        <time>2026-08-04T04:44:26.278Z</time>
      </trkpt>
      <trkpt lat="45.91186" lon="6.8386">
        <ele>1145</ele>
        <time>2026-08-04T04:44:27.278Z</time>
      </trkpt>
      <trkpt lat="45.91186" lon="6.83859">
        <ele>1145</ele>
        <time>2026-08-04T04:44:28.278Z</time>
      </trkpt>
      <trkpt lat="45.91186" lon="6.83857">
        <ele>1145</ele>
        <time>2026-08-04T04:44:29.278Z</time>
      </trkpt>
      <trkpt lat="45.91186" lon="6.83854">
        <ele>1145</ele>
        <time>2026-08-04T04:44:30.278Z</time>
      </trkpt>
      <trkpt lat="45.91186" lon="6.83852">
        <ele>1146</ele>
        <time>2026-08-04T04:44:31.278Z</time>
      </trkpt>
      <trkpt lat="45.91186" lon="6.8385">
        <ele>1147</ele>
        <time>2026-08-04T04:44:32.278Z</time>
      </trkpt>
      <trkpt lat="45.91187" lon="6.83849">
        <ele>1147</ele>
        <time>2026-08-04T04:44:33.278Z</time>
      </trkpt>
      <trkpt lat="45.91187" lon="6.83847">
        <ele>1148</ele>
        <time>2026-08-04T04:44:34.278Z</time>
      </trkpt>
      <trkpt lat="45.91187" lon="6.83846">
        <ele>1149</ele>
        <time>2026-08-04T04:44:35.278Z</time>
      </trkpt>
      <trkpt lat="45.91188" lon="6.83846">
        <ele>1150</ele>
        <time>2026-08-04T04:44:36.278Z</time>
      </trkpt>
      <trkpt lat="45.91188" lon="6.83845">
        <ele>1151</ele>
        <time>2026-08-04T04:44:37.278Z</time>
      </trkpt>
      <trkpt lat="45.91188" lon="6.83844">
        <ele>1152</ele>
        <time>2026-08-04T04:44:38.278Z</time>
      </trkpt>
      <trkpt lat="45.91188" lon="6.83844">
        <ele>1153</ele>
        <time>2026-08-04T04:44:39.278Z</time>
      </trkpt>
      <trkpt lat="45.91188" lon="6.83842">
        <ele>1154</ele>
        <time>2026-08-04T04:44:40.278Z</time>
      </trkpt>
      <trkpt lat="45.91187" lon="6.83841">
        <ele>1155</ele>
        <time>2026-08-04T04:44:41.278Z</time>
      </trkpt>
      <trkpt lat="45.91187" lon="6.8384">
        <ele>1155</ele>
        <time>2026-08-04T04:44:42.278Z</time>
      </trkpt>
      <trkpt lat="45.91188" lon="6.83838">
        <ele>1156</ele>
        <time>2026-08-04T04:44:43.278Z</time>
      </trkpt>
      <trkpt lat="45.91188" lon="6.83837">
        <ele>1156</ele>
        <time>2026-08-04T04:44:44.278Z</time>
      </trkpt>
      <trkpt lat="45.91188" lon="6.83836">
        <ele>1156</ele>
        <time>2026-08-04T04:44:45.278Z</time>
      </trkpt>
      <trkpt lat="45.91189" lon="6.83835">
        <ele>1157</ele>
        <time>2026-08-04T04:44:46.278Z</time>
      </trkpt>
      <trkpt lat="45.9119" lon="6.83834">
        <ele>1157</ele>
        <time>2026-08-04T04:44:47.278Z</time>
      </trkpt>
      <trkpt lat="45.91191" lon="6.83833">
        <ele>1157</ele>
        <time>2026-08-04T04:44:48.278Z</time>
      </trkpt>
      <trkpt lat="45.91193" lon="6.83833">
        <ele>1157</ele>
        <time>2026-08-04T04:44:49.278Z</time>
      </trkpt>
      <trkpt lat="45.91194" lon="6.83833">
        <ele>1157</ele>
        <time>2026-08-04T04:44:50.278Z</time>
      </trkpt>
      <trkpt lat="45.91195" lon="6.83834">
        <ele>1157</ele>
        <time>2026-08-04T04:44:51.278Z</time>
      </trkpt>
      <trkpt lat="45.91196" lon="6.83835">
        <ele>1157</ele>
        <time>2026-08-04T04:44:52.278Z</time>
      </trkpt>
      <trkpt lat="45.91198" lon="6.83835">
        <ele>1158</ele>
        <time>2026-08-04T04:44:53.278Z</time>
      </trkpt>
      <trkpt lat="45.91199" lon="6.83835">
        <ele>1158</ele>
        <time>2026-08-04T04:44:54.278Z</time>
      </trkpt>
      <trkpt lat="45.912" lon="6.83837">
        <ele>1158</ele>
        <time>2026-08-04T04:44:55.278Z</time>
      </trkpt>
      <trkpt lat="45.91201" lon="6.83838">
        <ele>1158</ele>
        <time>2026-08-04T04:44:56.278Z</time>
      </trkpt>
      <trkpt lat="45.91202" lon="6.83839">
        <ele>1158</ele>
        <time>2026-08-04T04:44:57.278Z</time>
      </trkpt>
      <trkpt lat="45.91203" lon="6.83839">
        <ele>1159</ele>
        <time>2026-08-04T04:44:58.278Z</time>
      </trkpt>
      <trkpt lat="45.91203" lon="6.83841">
        <ele>1159</ele>
        <time>2026-08-04T04:44:59.278Z</time>
      </trkpt>
      <trkpt lat="45.91203" lon="6.83842">
        <ele>1159</ele>
        <time>2026-08-04T04:45:00.278Z</time>
      </trkpt>
      <trkpt lat="45.91204" lon="6.83843">
        <ele>1160</ele>
        <time>2026-08-04T04:45:01.278Z</time>
      </trkpt>
      <trkpt lat="45.91204" lon="6.83845">
        <ele>1160</ele>
        <time>2026-08-04T04:45:02.278Z</time>
      </trkpt>
      <trkpt lat="45.91205" lon="6.83846">
        <ele>1161</ele>
        <time>2026-08-04T04:45:03.278Z</time>
      </trkpt>
      <trkpt lat="45.91205" lon="6.83847">
        <ele>1161</ele>
        <time>2026-08-04T04:45:04.278Z</time>
      </trkpt>
      <trkpt lat="45.91206" lon="6.83849">
        <ele>1161</ele>
        <time>2026-08-04T04:45:05.278Z</time>
      </trkpt>
      <trkpt lat="45.91207" lon="6.8385">
        <ele>1162</ele>
        <time>2026-08-04T04:45:06.278Z</time>
      </trkpt>
      <trkpt lat="45.91208" lon="6.8385">
        <ele>1162</ele>
        <time>2026-08-04T04:45:07.278Z</time>
      </trkpt>
      <trkpt lat="45.91208" lon="6.83852">
        <ele>1162</ele>
        <time>2026-08-04T04:45:08.278Z</time>
      </trkpt>
      <trkpt lat="45.91209" lon="6.83852">
        <ele>1161</ele>
        <time>2026-08-04T04:45:09.278Z</time>
      </trkpt>
      <trkpt lat="45.9121" lon="6.83854">
        <ele>1161</ele>
        <time>2026-08-04T04:45:10.278Z</time>
      </trkpt>
      <trkpt lat="45.9121" lon="6.83855">
        <ele>1160</ele>
        <time>2026-08-04T04:45:11.278Z</time>
      </trkpt>
      <trkpt lat="45.91211" lon="6.83856">
        <ele>1160</ele>
        <time>2026-08-04T04:45:12.278Z</time>
      </trkpt>
      <trkpt lat="45.91211" lon="6.83857">
        <ele>1160</ele>
        <time>2026-08-04T04:45:13.278Z</time>
      </trkpt>
      <trkpt lat="45.91211" lon="6.83859">
        <ele>1159</ele>
        <time>2026-08-04T04:45:14.278Z</time>
      </trkpt>
      <trkpt lat="45.91212" lon="6.8386">
        <ele>1159</ele>
        <time>2026-08-04T04:45:15.278Z</time>
      </trkpt>
      <trkpt lat="45.91213" lon="6.83862">
        <ele>1159</ele>
        <time>2026-08-04T04:45:16.278Z</time>
      </trkpt>
      <trkpt lat="45.91213" lon="6.83863">
        <ele>1159</ele>
        <time>2026-08-04T04:45:17.278Z</time>
      </trkpt>
      <trkpt lat="45.91213" lon="6.83864">
        <ele>1158</ele>
        <time>2026-08-04T04:45:18.278Z</time>
      </trkpt>
      <trkpt lat="45.91214" lon="6.83866">
        <ele>1157</ele>
        <time>2026-08-04T04:45:19.278Z</time>
      </trkpt>
      <trkpt lat="45.91214" lon="6.83867">
        <ele>1157</ele>
        <time>2026-08-04T04:45:20.278Z</time>
      </trkpt>
      <trkpt lat="45.91215" lon="6.83868">
        <ele>1157</ele>
        <time>2026-08-04T04:45:21.278Z</time>
      </trkpt>
      <trkpt lat="45.91215" lon="6.8387">
        <ele>1157</ele>
        <time>2026-08-04T04:45:22.278Z</time>
      </trkpt>
      <trkpt lat="45.91215" lon="6.83871">
        <ele>1157</ele>
        <time>2026-08-04T04:45:23.278Z</time>
      </trkpt>
      <trkpt lat="45.91215" lon="6.83873">
        <ele>1157</ele>
        <time>2026-08-04T04:45:24.278Z</time>
      </trkpt>
      <trkpt lat="45.91216" lon="6.83874">
        <ele>1157</ele>
        <time>2026-08-04T04:45:25.278Z</time>
      </trkpt>
      <trkpt lat="45.91217" lon="6.83875">
        <ele>1157</ele>
        <time>2026-08-04T04:45:26.278Z</time>
      </trkpt>
      <trkpt lat="45.91217" lon="6.83876">
        <ele>1158</ele>
        <time>2026-08-04T04:45:27.278Z</time>
      </trkpt>
      <trkpt lat="45.91218" lon="6.83877">
        <ele>1158</ele>
        <time>2026-08-04T04:45:28.278Z</time>
      </trkpt>
      <trkpt lat="45.91219" lon="6.83877">
        <ele>1159</ele>
        <time>2026-08-04T04:45:29.278Z</time>
      </trkpt>
      <trkpt lat="45.91219" lon="6.83878">
        <ele>1159</ele>
        <time>2026-08-04T04:45:30.278Z</time>
      </trkpt>
      <trkpt lat="45.91219" lon="6.83878">
        <ele>1159</ele>
        <time>2026-08-04T04:45:31.278Z</time>
      </trkpt>
      <trkpt lat="45.91219" lon="6.83878">
        <ele>1159</ele>
        <time>2026-08-04T04:45:32.278Z</time>
      </trkpt>
      <trkpt lat="45.91218" lon="6.83877">
        <ele>1159</ele>
        <time>2026-08-04T04:45:33.278Z</time>
      </trkpt>
      <trkpt lat="45.91218" lon="6.83876">
        <ele>1159</ele>
        <time>2026-08-04T04:45:34.278Z</time>
      </trkpt>
      <trkpt lat="45.91217" lon="6.83875">
        <ele>1159</ele>
        <time>2026-08-04T04:45:35.278Z</time>
      </trkpt>
      <trkpt lat="45.91217" lon="6.83873">
        <ele>1158</ele>
        <time>2026-08-04T04:45:36.278Z</time>
      </trkpt>
      <trkpt lat="45.91217" lon="6.83871">
        <ele>1158</ele>
        <time>2026-08-04T04:45:37.278Z</time>
      </trkpt>
      <trkpt lat="45.91217" lon="6.83869">
        <ele>1158</ele>
        <time>2026-08-04T04:45:38.278Z</time>
      </trkpt>
      <trkpt lat="45.91217" lon="6.83867">
        <ele>1157</ele>
        <time>2026-08-04T04:45:39.278Z</time>
      </trkpt>
      <trkpt lat="45.91217" lon="6.83865">
        <ele>1157</ele>
        <time>2026-08-04T04:45:40.278Z</time>
      </trkpt>
      <trkpt lat="45.91217" lon="6.83863">
        <ele>1157</ele>
        <time>2026-08-04T04:45:41.278Z</time>
      </trkpt>
      <trkpt lat="45.91217" lon="6.83861">
        <ele>1157</ele>
        <time>2026-08-04T04:45:42.278Z</time>
      </trkpt>
      <trkpt lat="45.91217" lon="6.83858">
        <ele>1158</ele>
        <time>2026-08-04T04:45:43.278Z</time>
      </trkpt>
      <trkpt lat="45.91217" lon="6.83856">
        <ele>1158</ele>
        <time>2026-08-04T04:45:44.278Z</time>
      </trkpt>
      <trkpt lat="45.91216" lon="6.83854">
        <ele>1159</ele>
        <time>2026-08-04T04:45:45.278Z</time>
      </trkpt>
      <trkpt lat="45.91215" lon="6.83852">
        <ele>1159</ele>
        <time>2026-08-04T04:45:46.278Z</time>
      </trkpt>
      <trkpt lat="45.91215" lon="6.8385">
        <ele>1159</ele>
        <time>2026-08-04T04:45:47.278Z</time>
      </trkpt>
      <trkpt lat="45.91215" lon="6.83848">
        <ele>1160</ele>
        <time>2026-08-04T04:45:48.278Z</time>
      </trkpt>
      <trkpt lat="45.91215" lon="6.83846">
        <ele>1161</ele>
        <time>2026-08-04T04:45:49.278Z</time>
      </trkpt>
      <trkpt lat="45.91215" lon="6.83845">
        <ele>1161</ele>
        <time>2026-08-04T04:45:50.278Z</time>
      </trkpt>
      <trkpt lat="45.91216" lon="6.83843">
        <ele>1162</ele>
        <time>2026-08-04T04:45:51.278Z</time>
      </trkpt>
      <trkpt lat="45.91217" lon="6.83841">
        <ele>1162</ele>
        <time>2026-08-04T04:45:52.278Z</time>
      </trkpt>
      <trkpt lat="45.91217" lon="6.8384">
        <ele>1162</ele>
        <time>2026-08-04T04:45:53.278Z</time>
      </trkpt>
      <trkpt lat="45.91218" lon="6.83838">
        <ele>1163</ele>
        <time>2026-08-04T04:45:54.278Z</time>
      </trkpt>
      <trkpt lat="45.91218" lon="6.83837">
        <ele>1163</ele>
        <time>2026-08-04T04:45:55.278Z</time>
      </trkpt>
      <trkpt lat="45.91219" lon="6.83835">
        <ele>1163</ele>
        <time>2026-08-04T04:45:56.278Z</time>
      </trkpt>
      <trkpt lat="45.91219" lon="6.83834">
        <ele>1163</ele>
        <time>2026-08-04T04:45:57.278Z</time>
      </trkpt>
      <trkpt lat="45.9122" lon="6.83833">
        <ele>1163</ele>
        <time>2026-08-04T04:45:58.278Z</time>
      </trkpt>
      <trkpt lat="45.91221" lon="6.83832">
        <ele>1164</ele>
        <time>2026-08-04T04:45:59.278Z</time>
      </trkpt>
      <trkpt lat="45.91221" lon="6.83832">
        <ele>1164</ele>
        <time>2026-08-04T04:46:00.278Z</time>
      </trkpt>
      <trkpt lat="45.91221" lon="6.83833">
        <ele>1164</ele>
        <time>2026-08-04T04:46:01.278Z</time>
      </trkpt>
      <trkpt lat="45.91221" lon="6.83834">
        <ele>1164</ele>
        <time>2026-08-04T04:46:02.278Z</time>
      </trkpt>
      <trkpt lat="45.91222" lon="6.83836">
        <ele>1165</ele>
        <time>2026-08-04T04:46:03.278Z</time>
      </trkpt>
      <trkpt lat="45.91222" lon="6.83838">
        <ele>1165</ele>
        <time>2026-08-04T04:46:04.278Z</time>
      </trkpt>
      <trkpt lat="45.91222" lon="6.8384">
        <ele>1165</ele>
        <time>2026-08-04T04:46:05.278Z</time>
      </trkpt>
      <trkpt lat="45.91223" lon="6.83842">
        <ele>1165</ele>
        <time>2026-08-04T04:46:06.278Z</time>
      </trkpt>
      <trkpt lat="45.91224" lon="6.83843">
        <ele>1165</ele>
        <time>2026-08-04T04:46:07.278Z</time>
      </trkpt>
      <trkpt lat="45.91224" lon="6.83843">
        <ele>1165</ele>
        <time>2026-08-04T04:46:08.278Z</time>
      </trkpt>
      <trkpt lat="45.91225" lon="6.83844">
        <ele>1165</ele>
        <time>2026-08-04T04:46:09.278Z</time>
      </trkpt>
      <trkpt lat="45.91227" lon="6.83845">
        <ele>1165</ele>
        <time>2026-08-04T04:46:10.278Z</time>
      </trkpt>
      <trkpt lat="45.91227" lon="6.83846">
        <ele>1165</ele>
        <time>2026-08-04T04:46:11.278Z</time>
      </trkpt>
      <trkpt lat="45.91228" lon="6.83847">
        <ele>1165</ele>
        <time>2026-08-04T04:46:12.278Z</time>
      </trkpt>
      <trkpt lat="45.91229" lon="6.83849">
        <ele>1165</ele>
        <time>2026-08-04T04:46:13.278Z</time>
      </trkpt>
      <trkpt lat="45.91229" lon="6.8385">
        <ele>1165</ele>
        <time>2026-08-04T04:46:14.278Z</time>
      </trkpt>
      <trkpt lat="45.9123" lon="6.83852">
        <ele>1165</ele>
        <time>2026-08-04T04:46:15.278Z</time>
      </trkpt>
      <trkpt lat="45.9123" lon="6.83854">
        <ele>1165</ele>
        <time>2026-08-04T04:46:16.278Z</time>
      </trkpt>
      <trkpt lat="45.91231" lon="6.83855">
        <ele>1164</ele>
        <time>2026-08-04T04:46:17.278Z</time>
      </trkpt>
      <trkpt lat="45.91232" lon="6.83857">
        <ele>1164</ele>
        <time>2026-08-04T04:46:18.278Z</time>
      </trkpt>
      <trkpt lat="45.91233" lon="6.83859">
        <ele>1164</ele>
        <time>2026-08-04T04:46:19.278Z</time>
      </trkpt>
      <trkpt lat="45.91234" lon="6.8386">
        <ele>1164</ele>
        <time>2026-08-04T04:46:20.278Z</time>
      </trkpt>
      <trkpt lat="45.91234" lon="6.8386">
        <ele>1164</ele>
        <time>2026-08-04T04:46:21.278Z</time>
      </trkpt>
      <trkpt lat="45.91235" lon="6.83861">
        <ele>1164</ele>
        <time>2026-08-04T04:46:22.278Z</time>
      </trkpt>
      <trkpt lat="45.91236" lon="6.83861">
        <ele>1164</ele>
        <time>2026-08-04T04:46:23.278Z</time>
      </trkpt>
      <trkpt lat="45.91236" lon="6.83861">
        <ele>1164</ele>
        <time>2026-08-04T04:46:24.278Z</time>
      </trkpt>
      <trkpt lat="45.91236" lon="6.8386">
        <ele>1164</ele>
        <time>2026-08-04T04:46:25.278Z</time>
      </trkpt>
      <trkpt lat="45.91236" lon="6.8386">
        <ele>1164</ele>
        <time>2026-08-04T04:46:26.278Z</time>
      </trkpt>
      <trkpt lat="45.91236" lon="6.83858">
        <ele>1164</ele>
        <time>2026-08-04T04:46:27.278Z</time>
      </trkpt>
      <trkpt lat="45.91236" lon="6.83857">
        <ele>1164</ele>
        <time>2026-08-04T04:46:28.278Z</time>
      </trkpt>
      <trkpt lat="45.91236" lon="6.83856">
        <ele>1164</ele>
        <time>2026-08-04T04:46:29.278Z</time>
      </trkpt>
      <trkpt lat="45.91236" lon="6.83854">
        <ele>1164</ele>
        <time>2026-08-04T04:46:30.278Z</time>
      </trkpt>
      <trkpt lat="45.91236" lon="6.83853">
        <ele>1164</ele>
        <time>2026-08-04T04:46:31.278Z</time>
      </trkpt>
      <trkpt lat="45.91236" lon="6.83852">
        <ele>1165</ele>
        <time>2026-08-04T04:46:32.278Z</time>
      </trkpt>
      <trkpt lat="45.91235" lon="6.8385">
        <ele>1165</ele>
        <time>2026-08-04T04:46:33.278Z</time>
      </trkpt>
      <trkpt lat="45.91235" lon="6.83847">
        <ele>1165</ele>
        <time>2026-08-04T04:46:34.278Z</time>
      </trkpt>
      <trkpt lat="45.91235" lon="6.83846">
        <ele>1165</ele>
        <time>2026-08-04T04:46:35.278Z</time>
      </trkpt>
      <trkpt lat="45.91235" lon="6.83844">
        <ele>1165</ele>
        <time>2026-08-04T04:46:36.278Z</time>
      </trkpt>
      <trkpt lat="45.91236" lon="6.83842">
        <ele>1164</ele>
        <time>2026-08-04T04:46:37.278Z</time>
      </trkpt>
      <trkpt lat="45.91235" lon="6.83841">
        <ele>1164</ele>
        <time>2026-08-04T04:46:38.278Z</time>
      </trkpt>
      <trkpt lat="45.91235" lon="6.83839">
        <ele>1165</ele>
        <time>2026-08-04T04:46:39.278Z</time>
      </trkpt>
      <trkpt lat="45.91235" lon="6.83838">
        <ele>1165</ele>
        <time>2026-08-04T04:46:40.278Z</time>
      </trkpt>
      <trkpt lat="45.91235" lon="6.83837">
        <ele>1165</ele>
        <time>2026-08-04T04:46:41.278Z</time>
      </trkpt>
      <trkpt lat="45.91235" lon="6.83835">
        <ele>1166</ele>
        <time>2026-08-04T04:46:42.278Z</time>
      </trkpt>
      <trkpt lat="45.91235" lon="6.83834">
        <ele>1167</ele>
        <time>2026-08-04T04:46:43.278Z</time>
      </trkpt>
      <trkpt lat="45.91235" lon="6.83832">
        <ele>1168</ele>
        <time>2026-08-04T04:46:44.278Z</time>
      </trkpt>
      <trkpt lat="45.91234" lon="6.83831">
        <ele>1168</ele>
        <time>2026-08-04T04:46:45.278Z</time>
      </trkpt>
      <trkpt lat="45.91234" lon="6.8383">
        <ele>1168</ele>
        <time>2026-08-04T04:46:46.278Z</time>
      </trkpt>
      <trkpt lat="45.91234" lon="6.83828">
        <ele>1169</ele>
        <time>2026-08-04T04:46:47.278Z</time>
      </trkpt>
      <trkpt lat="45.91234" lon="6.83827">
        <ele>1169</ele>
        <time>2026-08-04T04:46:48.278Z</time>
      </trkpt>
      <trkpt lat="45.91233" lon="6.83826">
        <ele>1170</ele>
        <time>2026-08-04T04:46:49.278Z</time>
      </trkpt>
      <trkpt lat="45.91233" lon="6.83825">
        <ele>1170</ele>
        <time>2026-08-04T04:46:50.278Z</time>
      </trkpt>
      <trkpt lat="45.91233" lon="6.83824">
        <ele>1170</ele>
        <time>2026-08-04T04:46:51.278Z</time>
      </trkpt>
      <trkpt lat="45.91232" lon="6.83822">
        <ele>1170</ele>
        <time>2026-08-04T04:46:52.278Z</time>
      </trkpt>
      <trkpt lat="45.91232" lon="6.83822">
        <ele>1171</ele>
        <time>2026-08-04T04:46:53.278Z</time>
      </trkpt>
      <trkpt lat="45.91231" lon="6.83821">
        <ele>1171</ele>
        <time>2026-08-04T04:46:54.278Z</time>
      </trkpt>
      <trkpt lat="45.9123" lon="6.83819">
        <ele>1171</ele>
        <time>2026-08-04T04:46:55.278Z</time>
      </trkpt>
      <trkpt lat="45.9123" lon="6.83818">
        <ele>1172</ele>
        <time>2026-08-04T04:46:56.278Z</time>
      </trkpt>
      <trkpt lat="45.9123" lon="6.83816">
        <ele>1173</ele>
        <time>2026-08-04T04:46:57.278Z</time>
      </trkpt>
      <trkpt lat="45.9123" lon="6.83815">
        <ele>1174</ele>
        <time>2026-08-04T04:46:58.278Z</time>
      </trkpt>
      <trkpt lat="45.9123" lon="6.83813">
        <ele>1175</ele>
        <time>2026-08-04T04:46:59.278Z</time>
      </trkpt>
      <trkpt lat="45.9123" lon="6.83811">
        <ele>1175</ele>
        <time>2026-08-04T04:47:00.278Z</time>
      </trkpt>
      <trkpt lat="45.91229" lon="6.83809">
        <ele>1176</ele>
        <time>2026-08-04T04:47:01.278Z</time>
      </trkpt>
      <trkpt lat="45.91228" lon="6.83809">
        <ele>1176</ele>
        <time>2026-08-04T04:47:02.278Z</time>
      </trkpt>
      <trkpt lat="45.91228" lon="6.83806">
        <ele>1176</ele>
        <time>2026-08-04T04:47:03.278Z</time>
      </trkpt>
      <trkpt lat="45.91228" lon="6.83805">
        <ele>1176</ele>
        <time>2026-08-04T04:47:04.278Z</time>
      </trkpt>
      <trkpt lat="45.91228" lon="6.83803">
        <ele>1176</ele>
        <time>2026-08-04T04:47:05.278Z</time>
      </trkpt>
      <trkpt lat="45.91228" lon="6.83802">
        <ele>1176</ele>
        <time>2026-08-04T04:47:06.278Z</time>
      </trkpt>
      <trkpt lat="45.91229" lon="6.83802">
        <ele>1176</ele>
        <time>2026-08-04T04:47:07.278Z</time>
      </trkpt>
      <trkpt lat="45.91229" lon="6.83802">
        <ele>1176</ele>
        <time>2026-08-04T04:47:08.278Z</time>
      </trkpt>
      <trkpt lat="45.91228" lon="6.838">
        <ele>1176</ele>
        <time>2026-08-04T04:47:09.278Z</time>
      </trkpt>
      <trkpt lat="45.91227" lon="6.83799">
        <ele>1177</ele>
        <time>2026-08-04T04:47:10.278Z</time>
      </trkpt>
      <trkpt lat="45.91227" lon="6.83797">
        <ele>1177</ele>
        <time>2026-08-04T04:47:11.278Z</time>
      </trkpt>
      <trkpt lat="45.91226" lon="6.83796">
        <ele>1178</ele>
        <time>2026-08-04T04:47:12.278Z</time>
      </trkpt>
      <trkpt lat="45.91225" lon="6.83796">
        <ele>1178</ele>
        <time>2026-08-04T04:47:13.278Z</time>
      </trkpt>
      <trkpt lat="45.91224" lon="6.83795">
        <ele>1178</ele>
        <time>2026-08-04T04:47:14.278Z</time>
      </trkpt>
      <trkpt lat="45.91224" lon="6.83794">
        <ele>1179</ele>
        <time>2026-08-04T04:47:15.278Z</time>
      </trkpt>
      <trkpt lat="45.91224" lon="6.83793">
        <ele>1179</ele>
        <time>2026-08-04T04:47:16.278Z</time>
      </trkpt>
      <trkpt lat="45.91224" lon="6.83792">
        <ele>1180</ele>
        <time>2026-08-04T04:47:17.278Z</time>
      </trkpt>
      <trkpt lat="45.91224" lon="6.83791">
        <ele>1180</ele>
        <time>2026-08-04T04:47:18.278Z</time>
      </trkpt>
      <trkpt lat="45.91223" lon="6.8379">
        <ele>1181</ele>
        <time>2026-08-04T04:47:19.278Z</time>
      </trkpt>
      <trkpt lat="45.91223" lon="6.8379">
        <ele>1181</ele>
        <time>2026-08-04T04:47:20.278Z</time>
      </trkpt>
      <trkpt lat="45.91222" lon="6.83789">
        <ele>1181</ele>
        <time>2026-08-04T04:47:21.278Z</time>
      </trkpt>
      <trkpt lat="45.91222" lon="6.83788">
        <ele>1181</ele>
        <time>2026-08-04T04:47:22.278Z</time>
      </trkpt>
      <trkpt lat="45.91221" lon="6.83787">
        <ele>1181</ele>
        <time>2026-08-04T04:47:23.278Z</time>
      </trkpt>
      <trkpt lat="45.9122" lon="6.83786">
        <ele>1181</ele>
        <time>2026-08-04T04:47:24.278Z</time>
      </trkpt>
      <trkpt lat="45.91219" lon="6.83784">
        <ele>1181</ele>
        <time>2026-08-04T04:47:25.278Z</time>
      </trkpt>
      <trkpt lat="45.91218" lon="6.83783">
        <ele>1181</ele>
        <time>2026-08-04T04:47:26.278Z</time>
      </trkpt>
      <trkpt lat="45.91218" lon="6.8378">
        <ele>1182</ele>
        <time>2026-08-04T04:47:27.278Z</time>
      </trkpt>
      <trkpt lat="45.91218" lon="6.83779">
        <ele>1182</ele>
        <time>2026-08-04T04:47:28.278Z</time>
      </trkpt>
      <trkpt lat="45.91217" lon="6.83777">
        <ele>1182</ele>
        <time>2026-08-04T04:47:29.278Z</time>
      </trkpt>
      <trkpt lat="45.91217" lon="6.83776">
        <ele>1182</ele>
        <time>2026-08-04T04:47:30.278Z</time>
      </trkpt>
      <trkpt lat="45.91217" lon="6.83774">
        <ele>1182</ele>
        <time>2026-08-04T04:47:31.278Z</time>
      </trkpt>
      <trkpt lat="45.91217" lon="6.83772">
        <ele>1182</ele>
        <time>2026-08-04T04:47:32.278Z</time>
      </trkpt>
      <trkpt lat="45.91217" lon="6.83771">
        <ele>1183</ele>
        <time>2026-08-04T04:47:33.278Z</time>
      </trkpt>
      <trkpt lat="45.91217" lon="6.83769">
        <ele>1183</ele>
        <time>2026-08-04T04:47:34.278Z</time>
      </trkpt>
      <trkpt lat="45.91217" lon="6.83768">
        <ele>1183</ele>
        <time>2026-08-04T04:47:35.278Z</time>
      </trkpt>
      <trkpt lat="45.91217" lon="6.83766">
        <ele>1184</ele>
        <time>2026-08-04T04:47:36.278Z</time>
      </trkpt>
      <trkpt lat="45.91216" lon="6.83764">
        <ele>1184</ele>
        <time>2026-08-04T04:47:37.278Z</time>
      </trkpt>
      <trkpt lat="45.91216" lon="6.83763">
        <ele>1185</ele>
        <time>2026-08-04T04:47:38.278Z</time>
      </trkpt>
      <trkpt lat="45.91216" lon="6.83761">
        <ele>1186</ele>
        <time>2026-08-04T04:47:39.278Z</time>
      </trkpt>
      <trkpt lat="45.91216" lon="6.8376">
        <ele>1186</ele>
        <time>2026-08-04T04:47:40.278Z</time>
      </trkpt>
      <trkpt lat="45.91217" lon="6.83759">
        <ele>1187</ele>
        <time>2026-08-04T04:47:41.278Z</time>
      </trkpt>
      <trkpt lat="45.91217" lon="6.83758">
        <ele>1187</ele>
        <time>2026-08-04T04:47:42.278Z</time>
      </trkpt>
      <trkpt lat="45.91218" lon="6.83757">
        <ele>1188</ele>
        <time>2026-08-04T04:47:43.278Z</time>
      </trkpt>
      <trkpt lat="45.91219" lon="6.83757">
        <ele>1188</ele>
        <time>2026-08-04T04:47:44.278Z</time>
      </trkpt>
      <trkpt lat="45.91219" lon="6.83757">
        <ele>1188</ele>
        <time>2026-08-04T04:47:45.278Z</time>
      </trkpt>
      <trkpt lat="45.9122" lon="6.83756">
        <ele>1188</ele>
        <time>2026-08-04T04:47:46.278Z</time>
      </trkpt>
      <trkpt lat="45.9122" lon="6.83757">
        <ele>1187</ele>
        <time>2026-08-04T04:47:47.278Z</time>
      </trkpt>
      <trkpt lat="45.91221" lon="6.83757">
        <ele>1186</ele>
        <time>2026-08-04T04:47:48.278Z</time>
      </trkpt>
      <trkpt lat="45.91221" lon="6.83758">
        <ele>1185</ele>
        <time>2026-08-04T04:47:49.278Z</time>
      </trkpt>
      <trkpt lat="45.91223" lon="6.83759">
        <ele>1185</ele>
        <time>2026-08-04T04:47:50.278Z</time>
      </trkpt>
      <trkpt lat="45.91224" lon="6.8376">
        <ele>1184</ele>
        <time>2026-08-04T04:47:51.278Z</time>
      </trkpt>
      <trkpt lat="45.91225" lon="6.83761">
        <ele>1183</ele>
        <time>2026-08-04T04:47:52.278Z</time>
      </trkpt>
      <trkpt lat="45.91227" lon="6.83762">
        <ele>1183</ele>
        <time>2026-08-04T04:47:53.278Z</time>
      </trkpt>
      <trkpt lat="45.91228" lon="6.83763">
        <ele>1182</ele>
        <time>2026-08-04T04:47:54.278Z</time>
      </trkpt>
      <trkpt lat="45.91229" lon="6.83764">
        <ele>1182</ele>
        <time>2026-08-04T04:47:55.278Z</time>
      </trkpt>
      <trkpt lat="45.9123" lon="6.83765">
        <ele>1181</ele>
        <time>2026-08-04T04:47:56.278Z</time>
      </trkpt>
      <trkpt lat="45.91231" lon="6.83765">
        <ele>1181</ele>
        <time>2026-08-04T04:47:57.278Z</time>
      </trkpt>
      <trkpt lat="45.91231" lon="6.83765">
        <ele>1181</ele>
        <time>2026-08-04T04:47:58.278Z</time>
      </trkpt>
      <trkpt lat="45.91231" lon="6.83765">
        <ele>1181</ele>
        <time>2026-08-04T04:47:59.278Z</time>
      </trkpt>
      <trkpt lat="45.91232" lon="6.83766">
        <ele>1180</ele>
        <time>2026-08-04T04:48:00.278Z</time>
      </trkpt>
      <trkpt lat="45.91232" lon="6.83766">
        <ele>1180</ele>
        <time>2026-08-04T04:48:01.278Z</time>
      </trkpt>
      <trkpt lat="45.91233" lon="6.83765">
        <ele>1181</ele>
        <time>2026-08-04T04:48:02.278Z</time>
      </trkpt>
      <trkpt lat="45.91234" lon="6.83766">
        <ele>1181</ele>
        <time>2026-08-04T04:48:03.278Z</time>
      </trkpt>
      <trkpt lat="45.91234" lon="6.83766">
        <ele>1182</ele>
        <time>2026-08-04T04:48:04.278Z</time>
      </trkpt>
      <trkpt lat="45.91235" lon="6.83766">
        <ele>1182</ele>
        <time>2026-08-04T04:48:05.278Z</time>
      </trkpt>
      <trkpt lat="45.91236" lon="6.83767">
        <ele>1183</ele>
        <time>2026-08-04T04:48:06.278Z</time>
      </trkpt>
      <trkpt lat="45.91238" lon="6.83768">
        <ele>1184</ele>
        <time>2026-08-04T04:48:07.278Z</time>
      </trkpt>
      <trkpt lat="45.91239" lon="6.83769">
        <ele>1185</ele>
        <time>2026-08-04T04:48:08.278Z</time>
      </trkpt>
      <trkpt lat="45.91241" lon="6.8377">
        <ele>1185</ele>
        <time>2026-08-04T04:48:09.278Z</time>
      </trkpt>
      <trkpt lat="45.91242" lon="6.83772">
        <ele>1186</ele>
        <time>2026-08-04T04:48:10.278Z</time>
      </trkpt>
      <trkpt lat="45.91244" lon="6.83773">
        <ele>1187</ele>
        <time>2026-08-04T04:48:11.278Z</time>
      </trkpt>
      <trkpt lat="45.91245" lon="6.83774">
        <ele>1187</ele>
        <time>2026-08-04T04:48:12.278Z</time>
      </trkpt>
      <trkpt lat="45.91246" lon="6.83775">
        <ele>1187</ele>
        <time>2026-08-04T04:48:13.278Z</time>
      </trkpt>
      <trkpt lat="45.91246" lon="6.83776">
        <ele>1188</ele>
        <time>2026-08-04T04:48:14.278Z</time>
      </trkpt>
      <trkpt lat="45.91247" lon="6.83777">
        <ele>1188</ele>
        <time>2026-08-04T04:48:15.278Z</time>
      </trkpt>
      <trkpt lat="45.91248" lon="6.83779">
        <ele>1188</ele>
        <time>2026-08-04T04:48:16.278Z</time>
      </trkpt>
      <trkpt lat="45.91249" lon="6.83781">
        <ele>1188</ele>
        <time>2026-08-04T04:48:17.278Z</time>
      </trkpt>
      <trkpt lat="45.9125" lon="6.83784">
        <ele>1189</ele>
        <time>2026-08-04T04:48:18.278Z</time>
      </trkpt>
      <trkpt lat="45.91251" lon="6.83786">
        <ele>1189</ele>
        <time>2026-08-04T04:48:19.278Z</time>
      </trkpt>
      <trkpt lat="45.91253" lon="6.83788">
        <ele>1189</ele>
        <time>2026-08-04T04:48:20.278Z</time>
      </trkpt>
      <trkpt lat="45.91255" lon="6.83788">
        <ele>1190</ele>
        <time>2026-08-04T04:48:21.278Z</time>
      </trkpt>
      <trkpt lat="45.91256" lon="6.83788">
        <ele>1190</ele>
        <time>2026-08-04T04:48:22.278Z</time>
      </trkpt>
      <trkpt lat="45.91257" lon="6.83789">
        <ele>1190</ele>
        <time>2026-08-04T04:48:23.278Z</time>
      </trkpt>
      <trkpt lat="45.91258" lon="6.83791">
        <ele>1190</ele>
        <time>2026-08-04T04:48:24.278Z</time>
      </trkpt>
      <trkpt lat="45.91258" lon="6.83793">
        <ele>1191</ele>
        <time>2026-08-04T04:48:25.278Z</time>
      </trkpt>
      <trkpt lat="45.91259" lon="6.83793">
        <ele>1191</ele>
        <time>2026-08-04T04:48:26.278Z</time>
      </trkpt>
      <trkpt lat="45.91258" lon="6.83796">
        <ele>1191</ele>
        <time>2026-08-04T04:48:27.278Z</time>
      </trkpt>
      <trkpt lat="45.91259" lon="6.83796">
        <ele>1192</ele>
        <time>2026-08-04T04:48:28.278Z</time>
      </trkpt>
      <trkpt lat="45.91259" lon="6.83796">
        <ele>1192</ele>
        <time>2026-08-04T04:48:29.278Z</time>
      </trkpt>
      <trkpt lat="45.91259" lon="6.83796">
        <ele>1192</ele>
        <time>2026-08-04T04:48:30.278Z</time>
      </trkpt>
      <trkpt lat="45.91259" lon="6.83796">
        <ele>1193</ele>
        <time>2026-08-04T04:48:31.278Z</time>
      </trkpt>
      <trkpt lat="45.91259" lon="6.83796">
        <ele>1193</ele>
        <time>2026-08-04T04:48:32.278Z</time>
      </trkpt>
      <trkpt lat="45.91259" lon="6.83796">
        <ele>1193</ele>
        <time>2026-08-04T04:48:33.278Z</time>
      </trkpt>
      <trkpt lat="45.91259" lon="6.83796">
        <ele>1193</ele>
        <time>2026-08-04T04:48:34.278Z</time>
      </trkpt>
      <trkpt lat="45.91259" lon="6.83796">
        <ele>1194</ele>
        <time>2026-08-04T04:48:35.278Z</time>
      </trkpt>
      <trkpt lat="45.91259" lon="6.83796">
        <ele>1194</ele>
        <time>2026-08-04T04:48:36.278Z</time>
      </trkpt>
      <trkpt lat="45.9126" lon="6.83796">
        <ele>1195</ele>
        <time>2026-08-04T04:48:37.278Z</time>
      </trkpt>
      <trkpt lat="45.9126" lon="6.83797">
        <ele>1195</ele>
        <time>2026-08-04T04:48:38.278Z</time>
      </trkpt>
      <trkpt lat="45.91261" lon="6.83798">
        <ele>1195</ele>
        <time>2026-08-04T04:48:39.278Z</time>
      </trkpt>
      <trkpt lat="45.91262" lon="6.83799">
        <ele>1196</ele>
        <time>2026-08-04T04:48:40.278Z</time>
      </trkpt>
      <trkpt lat="45.91263" lon="6.838">
        <ele>1196</ele>
        <time>2026-08-04T04:48:41.278Z</time>
      </trkpt>
      <trkpt lat="45.91263" lon="6.83801">
        <ele>1196</ele>
        <time>2026-08-04T04:48:42.278Z</time>
      </trkpt>
      <trkpt lat="45.91264" lon="6.83802">
        <ele>1196</ele>
        <time>2026-08-04T04:48:43.278Z</time>
      </trkpt>
      <trkpt lat="45.91264" lon="6.83803">
        <ele>1196</ele>
        <time>2026-08-04T04:48:44.278Z</time>
      </trkpt>
      <trkpt lat="45.91265" lon="6.83804">
        <ele>1196</ele>
        <time>2026-08-04T04:48:45.278Z</time>
      </trkpt>
      <trkpt lat="45.91266" lon="6.83804">
        <ele>1197</ele>
        <time>2026-08-04T04:48:46.278Z</time>
      </trkpt>
      <trkpt lat="45.91267" lon="6.83804">
        <ele>1197</ele>
        <time>2026-08-04T04:48:47.278Z</time>
      </trkpt>
      <trkpt lat="45.91268" lon="6.83804">
        <ele>1197</ele>
        <time>2026-08-04T04:48:48.278Z</time>
      </trkpt>
      <trkpt lat="45.91269" lon="6.83804">
        <ele>1196</ele>
        <time>2026-08-04T04:48:49.278Z</time>
      </trkpt>
      <trkpt lat="45.9127" lon="6.83803">
        <ele>1196</ele>
        <time>2026-08-04T04:48:50.278Z</time>
      </trkpt>
      <trkpt lat="45.91271" lon="6.83803">
        <ele>1196</ele>
        <time>2026-08-04T04:48:51.278Z</time>
      </trkpt>
      <trkpt lat="45.91272" lon="6.83803">
        <ele>1196</ele>
        <time>2026-08-04T04:48:52.278Z</time>
      </trkpt>
      <trkpt lat="45.91273" lon="6.83802">
        <ele>1195</ele>
        <time>2026-08-04T04:48:53.278Z</time>
      </trkpt>
      <trkpt lat="45.91273" lon="6.83802">
        <ele>1195</ele>
        <time>2026-08-04T04:48:54.278Z</time>
      </trkpt>
      <trkpt lat="45.91274" lon="6.83803">
        <ele>1195</ele>
        <time>2026-08-04T04:48:55.278Z</time>
      </trkpt>
      <trkpt lat="45.91275" lon="6.83803">
        <ele>1194</ele>
        <time>2026-08-04T04:48:56.278Z</time>
      </trkpt>
      <trkpt lat="45.91276" lon="6.83802">
        <ele>1194</ele>
        <time>2026-08-04T04:48:57.278Z</time>
      </trkpt>
      <trkpt lat="45.91277" lon="6.83801">
        <ele>1194</ele>
        <time>2026-08-04T04:48:58.278Z</time>
      </trkpt>
      <trkpt lat="45.91278" lon="6.83801">
        <ele>1195</ele>
        <time>2026-08-04T04:48:59.278Z</time>
      </trkpt>
      <trkpt lat="45.91279" lon="6.838">
        <ele>1195</ele>
        <time>2026-08-04T04:49:00.278Z</time>
      </trkpt>
      <trkpt lat="45.9128" lon="6.83799">
        <ele>1195</ele>
        <time>2026-08-04T04:49:01.278Z</time>
      </trkpt>
      <trkpt lat="45.91281" lon="6.83799">
        <ele>1195</ele>
        <time>2026-08-04T04:49:02.278Z</time>
      </trkpt>
      <trkpt lat="45.91282" lon="6.838">
        <ele>1195</ele>
        <time>2026-08-04T04:49:03.278Z</time>
      </trkpt>
      <trkpt lat="45.91283" lon="6.83801">
        <ele>1195</ele>
        <time>2026-08-04T04:49:04.278Z</time>
      </trkpt>
      <trkpt lat="45.91284" lon="6.83801">
        <ele>1195</ele>
        <time>2026-08-04T04:49:05.278Z</time>
      </trkpt>
      <trkpt lat="45.91285" lon="6.83802">
        <ele>1195</ele>
        <time>2026-08-04T04:49:06.278Z</time>
      </trkpt>
      <trkpt lat="45.91286" lon="6.83803">
        <ele>1194</ele>
        <time>2026-08-04T04:49:07.278Z</time>
      </trkpt>
      <trkpt lat="45.91287" lon="6.83804">
        <ele>1194</ele>
        <time>2026-08-04T04:49:08.278Z</time>
      </trkpt>
      <trkpt lat="45.91287" lon="6.83805">
        <ele>1194</ele>
        <time>2026-08-04T04:49:09.278Z</time>
      </trkpt>
      <trkpt lat="45.91288" lon="6.83805">
        <ele>1194</ele>
        <time>2026-08-04T04:49:10.278Z</time>
      </trkpt>
      <trkpt lat="45.91289" lon="6.83805">
        <ele>1194</ele>
        <time>2026-08-04T04:49:11.278Z</time>
      </trkpt>
      <trkpt lat="45.91289" lon="6.83804">
        <ele>1194</ele>
        <time>2026-08-04T04:49:12.278Z</time>
      </trkpt>
      <trkpt lat="45.9129" lon="6.83805">
        <ele>1195</ele>
        <time>2026-08-04T04:49:13.278Z</time>
      </trkpt>
      <trkpt lat="45.91291" lon="6.83806">
        <ele>1195</ele>
        <time>2026-08-04T04:49:14.278Z</time>
      </trkpt>
      <trkpt lat="45.91292" lon="6.83806">
        <ele>1195</ele>
        <time>2026-08-04T04:49:15.278Z</time>
      </trkpt>
      <trkpt lat="45.91292" lon="6.83806">
        <ele>1196</ele>
        <time>2026-08-04T04:49:16.278Z</time>
      </trkpt>
      <trkpt lat="45.91292" lon="6.83806">
        <ele>1196</ele>
        <time>2026-08-04T04:49:17.278Z</time>
      </trkpt>
      <trkpt lat="45.91292" lon="6.83806">
        <ele>1196</ele>
        <time>2026-08-04T04:49:18.278Z</time>
      </trkpt>
      <trkpt lat="45.91292" lon="6.83806">
        <ele>1196</ele>
        <time>2026-08-04T04:49:19.278Z</time>
      </trkpt>
      <trkpt lat="45.91292" lon="6.83806">
        <ele>1195</ele>
        <time>2026-08-04T04:49:20.278Z</time>
      </trkpt>
      <trkpt lat="45.91292" lon="6.83806">
        <ele>1195</ele>
        <time>2026-08-04T04:49:21.278Z</time>
      </trkpt>
      <trkpt lat="45.91292" lon="6.83806">
        <ele>1195</ele>
        <time>2026-08-04T04:49:22.278Z</time>
      </trkpt>
      <trkpt lat="45.91292" lon="6.83806">
        <ele>1195</ele>
        <time>2026-08-04T04:49:23.278Z</time>
      </trkpt>
      <trkpt lat="45.91292" lon="6.83806">
        <ele>1195</ele>
        <time>2026-08-04T04:49:24.278Z</time>
      </trkpt>
      <trkpt lat="45.91291" lon="6.83807">
        <ele>1195</ele>
        <time>2026-08-04T04:49:25.278Z</time>
      </trkpt>
      <trkpt lat="45.91291" lon="6.83808">
        <ele>1196</ele>
        <time>2026-08-04T04:49:26.278Z</time>
      </trkpt>
      <trkpt lat="45.91291" lon="6.83808">
        <ele>1196</ele>
        <time>2026-08-04T04:49:27.278Z</time>
      </trkpt>
      <trkpt lat="45.91291" lon="6.83808">
        <ele>1197</ele>
        <time>2026-08-04T04:49:28.278Z</time>
      </trkpt>
      <trkpt lat="45.91291" lon="6.83808">
        <ele>1197</ele>
        <time>2026-08-04T04:49:29.278Z</time>
      </trkpt>
      <trkpt lat="45.91291" lon="6.83808">
        <ele>1198</ele>
        <time>2026-08-04T04:49:30.278Z</time>
      </trkpt>
      <trkpt lat="45.91291" lon="6.83808">
        <ele>1198</ele>
        <time>2026-08-04T04:49:31.278Z</time>
      </trkpt>
      <trkpt lat="45.91291" lon="6.83808">
        <ele>1198</ele>
        <time>2026-08-04T04:49:32.278Z</time>
      </trkpt>
      <trkpt lat="45.91291" lon="6.83808">
        <ele>1198</ele>
        <time>2026-08-04T04:49:33.278Z</time>
      </trkpt>
      <trkpt lat="45.91291" lon="6.83808">
        <ele>1199</ele>
        <time>2026-08-04T04:49:34.278Z</time>
      </trkpt>
      <trkpt lat="45.91291" lon="6.83808">
        <ele>1199</ele>
        <time>2026-08-04T04:49:35.278Z</time>
      </trkpt>
      <trkpt lat="45.91291" lon="6.83808">
        <ele>1199</ele>
        <time>2026-08-04T04:49:36.278Z</time>
      </trkpt>
      <trkpt lat="45.91291" lon="6.83808">
        <ele>1200</ele>
        <time>2026-08-04T04:49:37.278Z</time>
      </trkpt>
      <trkpt lat="45.91291" lon="6.83808">
        <ele>1200</ele>
        <time>2026-08-04T04:49:38.278Z</time>
      </trkpt>
      <trkpt lat="45.91291" lon="6.83808">
        <ele>1200</ele>
        <time>2026-08-04T04:49:39.278Z</time>
      </trkpt>
      <trkpt lat="45.9129" lon="6.83807">
        <ele>1200</ele>
        <time>2026-08-04T04:49:40.278Z</time>
      </trkpt>
      <trkpt lat="45.9129" lon="6.83806">
        <ele>1200</ele>
        <time>2026-08-04T04:49:41.278Z</time>
      </trkpt>
      <trkpt lat="45.91291" lon="6.83805">
        <ele>1201</ele>
        <time>2026-08-04T04:49:42.278Z</time>
      </trkpt>
      <trkpt lat="45.91291" lon="6.83803">
        <ele>1201</ele>
        <time>2026-08-04T04:49:43.278Z</time>
      </trkpt>
      <trkpt lat="45.91291" lon="6.83802">
        <ele>1201</ele>
        <time>2026-08-04T04:49:44.278Z</time>
      </trkpt>
      <trkpt lat="45.91291" lon="6.838">
        <ele>1201</ele>
        <time>2026-08-04T04:49:45.278Z</time>
      </trkpt>
      <trkpt lat="45.91291" lon="6.83799">
        <ele>1201</ele>
        <time>2026-08-04T04:49:46.278Z</time>
      </trkpt>
      <trkpt lat="45.9129" lon="6.83798">
        <ele>1202</ele>
        <time>2026-08-04T04:49:47.278Z</time>
      </trkpt>
      <trkpt lat="45.9129" lon="6.83798">
        <ele>1202</ele>
        <time>2026-08-04T04:49:48.278Z</time>
      </trkpt>
      <trkpt lat="45.9129" lon="6.83797">
        <ele>1203</ele>
        <time>2026-08-04T04:49:49.278Z</time>
      </trkpt>
      <trkpt lat="45.91291" lon="6.83797">
        <ele>1203</ele>
        <time>2026-08-04T04:49:50.278Z</time>
      </trkpt>
      <trkpt lat="45.91291" lon="6.83797">
        <ele>1204</ele>
        <time>2026-08-04T04:49:51.278Z</time>
      </trkpt>
      <trkpt lat="45.91291" lon="6.83797">
        <ele>1204</ele>
        <time>2026-08-04T04:49:52.278Z</time>
      </trkpt>
      <trkpt lat="45.91291" lon="6.83797">
        <ele>1204</ele>
        <time>2026-08-04T04:49:53.278Z</time>
      </trkpt>
      <trkpt lat="45.91291" lon="6.83797">
        <ele>1204</ele>
        <time>2026-08-04T04:49:54.278Z</time>
      </trkpt>
      <trkpt lat="45.91291" lon="6.83797">
        <ele>1204</ele>
        <time>2026-08-04T04:49:55.278Z</time>
      </trkpt>
      <trkpt lat="45.91291" lon="6.83797">
        <ele>1204</ele>
        <time>2026-08-04T04:49:56.278Z</time>
      </trkpt>
      <trkpt lat="45.9129" lon="6.83797">
        <ele>1203</ele>
        <time>2026-08-04T04:49:57.278Z</time>
      </trkpt>
      <trkpt lat="45.9129" lon="6.83797">
        <ele>1203</ele>
        <time>2026-08-04T04:49:58.278Z</time>
      </trkpt>
      <trkpt lat="45.9129" lon="6.83797">
        <ele>1203</ele>
        <time>2026-08-04T04:49:59.278Z</time>
      </trkpt>
      <trkpt lat="45.91289" lon="6.83796">
        <ele>1202</ele>
        <time>2026-08-04T04:50:00.278Z</time>
      </trkpt>
      <trkpt lat="45.91289" lon="6.83796">
        <ele>1202</ele>
        <time>2026-08-04T04:50:01.278Z</time>
      </trkpt>
      <trkpt lat="45.91288" lon="6.83795">
        <ele>1202</ele>
        <time>2026-08-04T04:50:02.278Z</time>
      </trkpt>
      <trkpt lat="45.91288" lon="6.83796">
        <ele>1202</ele>
        <time>2026-08-04T04:50:03.278Z</time>
      </trkpt>
      <trkpt lat="45.91288" lon="6.83794">
        <ele>1202</ele>
        <time>2026-08-04T04:50:04.278Z</time>
      </trkpt>
      <trkpt lat="45.91288" lon="6.83794">
        <ele>1202</ele>
        <time>2026-08-04T04:50:05.278Z</time>
      </trkpt>
      <trkpt lat="45.91288" lon="6.83794">
        <ele>1202</ele>
        <time>2026-08-04T04:50:06.278Z</time>
      </trkpt>
      <trkpt lat="45.91288" lon="6.83794">
        <ele>1202</ele>
        <time>2026-08-04T04:50:07.278Z</time>
      </trkpt>
      <trkpt lat="45.91288" lon="6.83794">
        <ele>1202</ele>
        <time>2026-08-04T04:50:08.278Z</time>
      </trkpt>
      <trkpt lat="45.91288" lon="6.83794">
        <ele>1202</ele>
        <time>2026-08-04T04:50:09.278Z</time>
      </trkpt>
      <trkpt lat="45.91288" lon="6.83794">
        <ele>1202</ele>
        <time>2026-08-04T04:50:10.278Z</time>
      </trkpt>
      <trkpt lat="45.91288" lon="6.83794">
        <ele>1202</ele>
        <time>2026-08-04T04:50:11.278Z</time>
      </trkpt>
      <trkpt lat="45.91288" lon="6.83794">
        <ele>1202</ele>
        <time>2026-08-04T04:50:12.278Z</time>
      </trkpt>
      <trkpt lat="45.91288" lon="6.83794">
        <ele>1202</ele>
        <time>2026-08-04T04:50:13.278Z</time>
      </trkpt>
      <trkpt lat="45.91288" lon="6.83794">
        <ele>1202</ele>
        <time>2026-08-04T04:50:14.278Z</time>
      </trkpt>
      <trkpt lat="45.91288" lon="6.83794">
        <ele>1202</ele>
        <time>2026-08-04T04:50:15.278Z</time>
      </trkpt>
      <trkpt lat="45.91288" lon="6.83794">
        <ele>1202</ele>
        <time>2026-08-04T04:50:16.278Z</time>
      </trkpt>
      <trkpt lat="45.91288" lon="6.83794">
        <ele>1202</ele>
        <time>2026-08-04T04:50:17.278Z</time>
      </trkpt>
      <trkpt lat="45.91288" lon="6.83794">
        <ele>1202</ele>
        <time>2026-08-04T04:50:18.278Z</time>
      </trkpt>
      <trkpt lat="45.91288" lon="6.83794">
        <ele>1202</ele>
        <time>2026-08-04T04:50:19.278Z</time>
      </trkpt>
      <trkpt lat="45.91288" lon="6.83794">
        <ele>1202</ele>
        <time>2026-08-04T04:50:20.278Z</time>
      </trkpt>
      <trkpt lat="45.91288" lon="6.83794">
        <ele>1202</ele>
        <time>2026-08-04T04:50:21.278Z</time>
      </trkpt>
      <trkpt lat="45.91288" lon="6.83794">
        <ele>1202</ele>
        <time>2026-08-04T04:50:22.278Z</time>
      </trkpt>
      <trkpt lat="45.91288" lon="6.83794">
        <ele>1202</ele>
        <time>2026-08-04T04:50:23.278Z</time>
      </trkpt>
      <trkpt lat="45.91288" lon="6.83794">
        <ele>1202</ele>
        <time>2026-08-04T04:50:24.278Z</time>
      </trkpt>
      <trkpt lat="45.91287" lon="6.83794">
        <ele>1202</ele>
        <time>2026-08-04T04:50:25.278Z</time>
      </trkpt>
      <trkpt lat="45.91287" lon="6.83794">
        <ele>1201</ele>
        <time>2026-08-04T04:50:26.278Z</time>
      </trkpt>
      <trkpt lat="45.91287" lon="6.83794">
        <ele>1201</ele>
        <time>2026-08-04T04:50:27.278Z</time>
      </trkpt>
      <trkpt lat="45.91287" lon="6.83794">
        <ele>1201</ele>
        <time>2026-08-04T04:50:28.278Z</time>
      </trkpt>
      <trkpt lat="45.91287" lon="6.83794">
        <ele>1202</ele>
        <time>2026-08-04T04:50:29.278Z</time>
      </trkpt>
      <trkpt lat="45.91287" lon="6.83794">
        <ele>1202</ele>
        <time>2026-08-04T04:50:30.278Z</time>
      </trkpt>
      <trkpt lat="45.91287" lon="6.83794">
        <ele>1202</ele>
        <time>2026-08-04T04:50:31.278Z</time>
      </trkpt>
      <trkpt lat="45.91287" lon="6.83794">
        <ele>1203</ele>
        <time>2026-08-04T04:50:32.278Z</time>
      </trkpt>
      <trkpt lat="45.91287" lon="6.83794">
        <ele>1203</ele>
        <time>2026-08-04T04:50:33.278Z</time>
      </trkpt>
      <trkpt lat="45.91287" lon="6.83794">
        <ele>1203</ele>
        <time>2026-08-04T04:50:34.278Z</time>
      </trkpt>
      <trkpt lat="45.91287" lon="6.83794">
        <ele>1204</ele>
        <time>2026-08-04T04:50:35.278Z</time>
      </trkpt>
      <trkpt lat="45.91287" lon="6.83794">
        <ele>1204</ele>
        <time>2026-08-04T04:50:36.278Z</time>
      </trkpt>
      <trkpt lat="45.91287" lon="6.83794">
        <ele>1204</ele>
        <time>2026-08-04T04:50:37.278Z</time>
      </trkpt>
      <trkpt lat="45.91287" lon="6.83794">
        <ele>1204</ele>
        <time>2026-08-04T04:50:38.278Z</time>
      </trkpt>
      <trkpt lat="45.91287" lon="6.83794">
        <ele>1204</ele>
        <time>2026-08-04T04:50:39.278Z</time>
      </trkpt>
      <trkpt lat="45.91287" lon="6.83794">
        <ele>1205</ele>
        <time>2026-08-04T04:50:40.278Z</time>
      </trkpt>
      <trkpt lat="45.91287" lon="6.83794">
        <ele>1205</ele>
        <time>2026-08-04T04:50:41.278Z</time>
      </trkpt>
      <trkpt lat="45.91287" lon="6.83794">
        <ele>1205</ele>
        <time>2026-08-04T04:50:42.278Z</time>
      </trkpt>
      <trkpt lat="45.91287" lon="6.83794">
        <ele>1205</ele>
        <time>2026-08-04T04:50:43.278Z</time>
      </trkpt>
      <trkpt lat="45.91287" lon="6.83794">
        <ele>1205</ele>
        <time>2026-08-04T04:50:44.278Z</time>
      </trkpt>
      <trkpt lat="45.91287" lon="6.83794">
        <ele>1205</ele>
        <time>2026-08-04T04:50:45.278Z</time>
      </trkpt>
      <trkpt lat="45.91287" lon="6.83794">
        <ele>1205</ele>
        <time>2026-08-04T04:50:46.278Z</time>
      </trkpt>
      <trkpt lat="45.91287" lon="6.83794">
        <ele>1205</ele>
        <time>2026-08-04T04:50:47.278Z</time>
      </trkpt>
      <trkpt lat="45.91287" lon="6.83794">
        <ele>1205</ele>
        <time>2026-08-04T04:50:48.278Z</time>
      </trkpt>
      <trkpt lat="45.91287" lon="6.83794">
        <ele>1205</ele>
        <time>2026-08-04T04:50:49.278Z</time>
      </trkpt>
      <trkpt lat="45.91287" lon="6.83794">
        <ele>1205</ele>
        <time>2026-08-04T04:50:50.278Z</time>
      </trkpt>
      <trkpt lat="45.91287" lon="6.83794">
        <ele>1205</ele>
        <time>2026-08-04T04:50:51.278Z</time>
      </trkpt>
      <trkpt lat="45.91287" lon="6.83794">
        <ele>1205</ele>
        <time>2026-08-04T04:50:52.278Z</time>
      </trkpt>
      <trkpt lat="45.91287" lon="6.83794">
        <ele>1205</ele>
        <time>2026-08-04T04:50:53.278Z</time>
      </trkpt>
      <trkpt lat="45.91287" lon="6.83794">
        <ele>1205</ele>
        <time>2026-08-04T04:50:54.278Z</time>
      </trkpt>
      <trkpt lat="45.91287" lon="6.83794">
        <ele>1205</ele>
        <time>2026-08-04T04:50:55.278Z</time>
      </trkpt>
      <trkpt lat="45.91287" lon="6.83794">
        <ele>1205</ele>
        <time>2026-08-04T04:50:56.278Z</time>
      </trkpt>
      <trkpt lat="45.91287" lon="6.83794">
        <ele>1205</ele>
        <time>2026-08-04T04:50:57.278Z</time>
      </trkpt>
      <trkpt lat="45.91287" lon="6.83794">
        <ele>1205</ele>
        <time>2026-08-04T04:50:58.278Z</time>
      </trkpt>
      <trkpt lat="45.91287" lon="6.83794">
        <ele>1205</ele>
        <time>2026-08-04T04:50:59.278Z</time>
      </trkpt>
      <trkpt lat="45.91287" lon="6.83794">
        <ele>1205</ele>
        <time>2026-08-04T04:51:00.279Z</time>
      </trkpt>
      <trkpt lat="45.91287" lon="6.83794">
        <ele>1205</ele>
        <time>2026-08-04T04:51:01.278Z</time>
      </trkpt>
      <trkpt lat="45.91287" lon="6.83794">
        <ele>1205</ele>
        <time>2026-08-04T04:51:02.278Z</time>
      </trkpt>
      <trkpt lat="45.91287" lon="6.83794">
        <ele>1205</ele>
        <time>2026-08-04T04:51:03.278Z</time>
      </trkpt>
      <trkpt lat="45.91287" lon="6.83794">
        <ele>1205</ele>
        <time>2026-08-04T04:51:04.278Z</time>
      </trkpt>
      <trkpt lat="45.91287" lon="6.83794">
        <ele>1205</ele>
        <time>2026-08-04T04:51:05.278Z</time>
      </trkpt>
      <trkpt lat="45.91287" lon="6.83794">
        <ele>1205</ele>
        <time>2026-08-04T04:51:06.278Z</time>
      </trkpt>
      <trkpt lat="45.91287" lon="6.83794">
        <ele>1205</ele>
        <time>2026-08-04T04:51:07.278Z</time>
      </trkpt>
      <trkpt lat="45.91287" lon="6.83794">
        <ele>1205</ele>
        <time>2026-08-04T04:51:08.278Z</time>
      </trkpt>
      <trkpt lat="45.91287" lon="6.83794">
        <ele>1205</ele>
        <time>2026-08-04T04:51:09.278Z</time>
      </trkpt>
      <trkpt lat="45.91287" lon="6.83794">
        <ele>1205</ele>
        <time>2026-08-04T04:51:10.278Z</time>
      </trkpt>
      <trkpt lat="45.91287" lon="6.83794">
        <ele>1205</ele>
        <time>2026-08-04T04:51:11.278Z</time>
      </trkpt>
      <trkpt lat="45.91287" lon="6.83794">
        <ele>1205</ele>
        <time>2026-08-04T04:51:12.278Z</time>
      </trkpt>
      <trkpt lat="45.91287" lon="6.83794">
        <ele>1205</ele>
        <time>2026-08-04T04:51:13.278Z</time>
      </trkpt>
      <trkpt lat="45.91287" lon="6.83794">
        <ele>1205</ele>
        <time>2026-08-04T04:51:14.278Z</time>
      </trkpt>
      <trkpt lat="45.91287" lon="6.83794">
        <ele>1205</ele>
        <time>2026-08-04T04:51:15.278Z</time>
      </trkpt>
      <trkpt lat="45.91287" lon="6.83794">
        <ele>1205</ele>
        <time>2026-08-04T04:51:16.278Z</time>
      </trkpt>
      <trkpt lat="45.91287" lon="6.83794">
        <ele>1205</ele>
        <time>2026-08-04T04:51:17.278Z</time>
      </trkpt>
      <trkpt lat="45.91287" lon="6.83793">
        <ele>1205</ele>
        <time>2026-08-04T04:51:18.278Z</time>
      </trkpt>
      <trkpt lat="45.91287" lon="6.83793">
        <ele>1205</ele>
        <time>2026-08-04T04:51:19.279Z</time>
      </trkpt>
      <trkpt lat="45.91287" lon="6.83792">
        <ele>1205</ele>
        <time>2026-08-04T04:51:20.278Z</time>
      </trkpt>
      <trkpt lat="45.91287" lon="6.83792">
        <ele>1205</ele>
        <time>2026-08-04T04:51:21.278Z</time>
      </trkpt>
      <trkpt lat="45.91287" lon="6.83792">
        <ele>1205</ele>
        <time>2026-08-04T04:51:22.278Z</time>
      </trkpt>
      <trkpt lat="45.91287" lon="6.83791">
        <ele>1205</ele>
        <time>2026-08-04T04:51:23.278Z</time>
      </trkpt>
      <trkpt lat="45.91287" lon="6.83791">
        <ele>1205</ele>
        <time>2026-08-04T04:51:24.278Z</time>
      </trkpt>
      <trkpt lat="45.91287" lon="6.83791">
        <ele>1205</ele>
        <time>2026-08-04T04:51:25.278Z</time>
      </trkpt>
      <trkpt lat="45.91287" lon="6.83791">
        <ele>1205</ele>
        <time>2026-08-04T04:51:26.278Z</time>
      </trkpt>
      <trkpt lat="45.91287" lon="6.83791">
        <ele>1205</ele>
        <time>2026-08-04T04:51:27.278Z</time>
      </trkpt>
      <trkpt lat="45.91287" lon="6.83791">
        <ele>1205</ele>
        <time>2026-08-04T04:51:28.278Z</time>
      </trkpt>
      <trkpt lat="45.91287" lon="6.83791">
        <ele>1205</ele>
        <time>2026-08-04T04:51:29.278Z</time>
      </trkpt>
      <trkpt lat="45.91287" lon="6.83791">
        <ele>1205</ele>
        <time>2026-08-04T04:51:30.278Z</time>
      </trkpt>
      <trkpt lat="45.91287" lon="6.83791">
        <ele>1205</ele>
        <time>2026-08-04T04:51:31.278Z</time>
      </trkpt>
      <trkpt lat="45.91287" lon="6.83791">
        <ele>1205</ele>
        <time>2026-08-04T04:51:32.278Z</time>
      </trkpt>
      <trkpt lat="45.91287" lon="6.83791">
        <ele>1205</ele>
        <time>2026-08-04T04:51:33.278Z</time>
      </trkpt>
      <trkpt lat="45.91287" lon="6.83791">
        <ele>1205</ele>
        <time>2026-08-04T04:51:34.278Z</time>
      </trkpt>
      <trkpt lat="45.91287" lon="6.83791">
        <ele>1205</ele>
        <time>2026-08-04T04:51:35.278Z</time>
      </trkpt>
      <trkpt lat="45.91287" lon="6.83791">
        <ele>1205</ele>
        <time>2026-08-04T04:51:36.278Z</time>
      </trkpt>
      <trkpt lat="45.91287" lon="6.83791">
        <ele>1205</ele>
        <time>2026-08-04T04:51:37.278Z</time>
      </trkpt>
      <trkpt lat="45.91287" lon="6.83791">
        <ele>1205</ele>
        <time>2026-08-04T04:51:38.278Z</time>
      </trkpt>
      <trkpt lat="45.91287" lon="6.83791">
        <ele>1205</ele>
        <time>2026-08-04T04:51:39.278Z</time>
      </trkpt>
      <trkpt lat="45.91287" lon="6.83791">
        <ele>1205</ele>
        <time>2026-08-04T04:51:40.278Z</time>
      </trkpt>
      <trkpt lat="45.91287" lon="6.83791">
        <ele>1205</ele>
        <time>2026-08-04T04:51:41.278Z</time>
      </trkpt>
      <trkpt lat="45.91287" lon="6.83791">
        <ele>1205</ele>
        <time>2026-08-04T04:51:42.278Z</time>
      </trkpt>
      <trkpt lat="45.91287" lon="6.83791">
        <ele>1205</ele>
        <time>2026-08-04T04:51:43.278Z</time>
      </trkpt>
      <trkpt lat="45.91287" lon="6.83791">
        <ele>1205</ele>
        <time>2026-08-04T04:51:44.278Z</time>
      </trkpt>
      <trkpt lat="45.91287" lon="6.83791">
        <ele>1205</ele>
        <time>2026-08-04T04:51:45.278Z</time>
      </trkpt>
      <trkpt lat="45.91287" lon="6.83791">
        <ele>1205</ele>
        <time>2026-08-04T04:51:46.278Z</time>
      </trkpt>
      <trkpt lat="45.91287" lon="6.83791">
        <ele>1205</ele>
        <time>2026-08-04T04:51:47.278Z</time>
      </trkpt>
      <trkpt lat="45.91287" lon="6.83791">
        <ele>1205</ele>
        <time>2026-08-04T04:51:48.278Z</time>
      </trkpt>
      <trkpt lat="45.91287" lon="6.83791">
        <ele>1205</ele>
        <time>2026-08-04T04:51:49.278Z</time>
      </trkpt>
      <trkpt lat="45.91287" lon="6.83791">
        <ele>1205</ele>
        <time>2026-08-04T04:51:50.278Z</time>
      </trkpt>
      <trkpt lat="45.91287" lon="6.83791">
        <ele>1205</ele>
        <time>2026-08-04T04:51:51.278Z</time>
      </trkpt>
      <trkpt lat="45.91287" lon="6.83792">
        <ele>1205</ele>
        <time>2026-08-04T04:51:52.278Z</time>
      </trkpt>
      <trkpt lat="45.91287" lon="6.83792">
        <ele>1205</ele>
        <time>2026-08-04T04:51:53.278Z</time>
      </trkpt>
      <trkpt lat="45.91287" lon="6.83792">
        <ele>1205</ele>
        <time>2026-08-04T04:51:54.278Z</time>
      </trkpt>
      <trkpt lat="45.91287" lon="6.83792">
        <ele>1205</ele>
        <time>2026-08-04T04:51:55.278Z</time>
      </trkpt>
      <trkpt lat="45.91287" lon="6.83792">
        <ele>1205</ele>
        <time>2026-08-04T04:51:56.278Z</time>
      </trkpt>
      <trkpt lat="45.91286" lon="6.8379">
        <ele>1205</ele>
        <time>2026-08-04T04:51:57.278Z</time>
      </trkpt>
      <trkpt lat="45.91286" lon="6.83788">
        <ele>1205</ele>
        <time>2026-08-04T04:51:58.278Z</time>
      </trkpt>
      <trkpt lat="45.91286" lon="6.83787">
        <ele>1205</ele>
        <time>2026-08-04T04:51:59.278Z</time>
      </trkpt>
      <trkpt lat="45.91285" lon="6.83786">
        <ele>1205</ele>
        <time>2026-08-04T04:52:00.278Z</time>
      </trkpt>
      <trkpt lat="45.91285" lon="6.83784">
        <ele>1205</ele>
        <time>2026-08-04T04:52:01.278Z</time>
      </trkpt>
      <trkpt lat="45.91285" lon="6.83782">
        <ele>1205</ele>
        <time>2026-08-04T04:52:02.278Z</time>
      </trkpt>
      <trkpt lat="45.91284" lon="6.83781">
        <ele>1205</ele>
        <time>2026-08-04T04:52:03.278Z</time>
      </trkpt>
      <trkpt lat="45.91284" lon="6.8378">
        <ele>1205</ele>
        <time>2026-08-04T04:52:04.278Z</time>
      </trkpt>
      <trkpt lat="45.91284" lon="6.83779">
        <ele>1206</ele>
        <time>2026-08-04T04:52:05.278Z</time>
      </trkpt>
      <trkpt lat="45.91283" lon="6.83778">
        <ele>1206</ele>
        <time>2026-08-04T04:52:06.278Z</time>
      </trkpt>
      <trkpt lat="45.91283" lon="6.83777">
        <ele>1206</ele>
        <time>2026-08-04T04:52:07.278Z</time>
      </trkpt>
      <trkpt lat="45.91282" lon="6.83777">
        <ele>1206</ele>
        <time>2026-08-04T04:52:08.278Z</time>
      </trkpt>
      <trkpt lat="45.91281" lon="6.83776">
        <ele>1206</ele>
        <time>2026-08-04T04:52:09.278Z</time>
      </trkpt>
      <trkpt lat="45.9128" lon="6.83776">
        <ele>1206</ele>
        <time>2026-08-04T04:52:10.278Z</time>
      </trkpt>
      <trkpt lat="45.91279" lon="6.83775">
        <ele>1206</ele>
        <time>2026-08-04T04:52:11.278Z</time>
      </trkpt>
      <trkpt lat="45.91278" lon="6.83774">
        <ele>1206</ele>
        <time>2026-08-04T04:52:12.278Z</time>
      </trkpt>
      <trkpt lat="45.91278" lon="6.83774">
        <ele>1206</ele>
        <time>2026-08-04T04:52:13.278Z</time>
      </trkpt>
      <trkpt lat="45.91277" lon="6.83772">
        <ele>1206</ele>
        <time>2026-08-04T04:52:14.278Z</time>
      </trkpt>
      <trkpt lat="45.91277" lon="6.83771">
        <ele>1206</ele>
        <time>2026-08-04T04:52:15.278Z</time>
      </trkpt>
      <trkpt lat="45.91276" lon="6.8377">
        <ele>1206</ele>
        <time>2026-08-04T04:52:16.278Z</time>
      </trkpt>
      <trkpt lat="45.91276" lon="6.83769">
        <ele>1207</ele>
        <time>2026-08-04T04:52:17.278Z</time>
      </trkpt>
      <trkpt lat="45.91275" lon="6.83768">
        <ele>1207</ele>
        <time>2026-08-04T04:52:18.278Z</time>
      </trkpt>
      <trkpt lat="45.91275" lon="6.83767">
        <ele>1207</ele>
        <time>2026-08-04T04:52:19.278Z</time>
      </trkpt>
      <trkpt lat="45.91274" lon="6.83766">
        <ele>1208</ele>
        <time>2026-08-04T04:52:20.278Z</time>
      </trkpt>
      <trkpt lat="45.91274" lon="6.83764">
        <ele>1208</ele>
        <time>2026-08-04T04:52:21.278Z</time>
      </trkpt>
      <trkpt lat="45.91274" lon="6.83762">
        <ele>1208</ele>
        <time>2026-08-04T04:52:22.278Z</time>
      </trkpt>
      <trkpt lat="45.91274" lon="6.8376">
        <ele>1208</ele>
        <time>2026-08-04T04:52:23.278Z</time>
      </trkpt>
      <trkpt lat="45.91273" lon="6.83759">
        <ele>1209</ele>
        <time>2026-08-04T04:52:24.278Z</time>
      </trkpt>
      <trkpt lat="45.91273" lon="6.83757">
        <ele>1209</ele>
        <time>2026-08-04T04:52:25.278Z</time>
      </trkpt>
      <trkpt lat="45.91273" lon="6.83756">
        <ele>1209</ele>
        <time>2026-08-04T04:52:26.278Z</time>
      </trkpt>
      <trkpt lat="45.91272" lon="6.83755">
        <ele>1210</ele>
        <time>2026-08-04T04:52:27.278Z</time>
      </trkpt>
      <trkpt lat="45.91271" lon="6.83753">
        <ele>1211</ele>
        <time>2026-08-04T04:52:28.278Z</time>
      </trkpt>
      <trkpt lat="45.91271" lon="6.83752">
        <ele>1212</ele>
        <time>2026-08-04T04:52:29.278Z</time>
      </trkpt>
      <trkpt lat="45.91271" lon="6.83749">
        <ele>1213</ele>
        <time>2026-08-04T04:52:30.278Z</time>
      </trkpt>
      <trkpt lat="45.9127" lon="6.83747">
        <ele>1214</ele>
        <time>2026-08-04T04:52:31.278Z</time>
      </trkpt>
      <trkpt lat="45.9127" lon="6.83745">
        <ele>1214</ele>
        <time>2026-08-04T04:52:32.278Z</time>
      </trkpt>
      <trkpt lat="45.9127" lon="6.83743">
        <ele>1214</ele>
        <time>2026-08-04T04:52:33.278Z</time>
      </trkpt>
      <trkpt lat="45.9127" lon="6.83741">
        <ele>1215</ele>
        <time>2026-08-04T04:52:34.278Z</time>
      </trkpt>
      <trkpt lat="45.91269" lon="6.8374">
        <ele>1215</ele>
        <time>2026-08-04T04:52:35.278Z</time>
      </trkpt>
      <trkpt lat="45.91269" lon="6.83738">
        <ele>1215</ele>
        <time>2026-08-04T04:52:36.278Z</time>
      </trkpt>
      <trkpt lat="45.91269" lon="6.83738">
        <ele>1216</ele>
        <time>2026-08-04T04:52:37.278Z</time>
      </trkpt>
      <trkpt lat="45.91269" lon="6.83738">
        <ele>1216</ele>
        <time>2026-08-04T04:52:38.278Z</time>
      </trkpt>
      <trkpt lat="45.91269" lon="6.83738">
        <ele>1216</ele>
        <time>2026-08-04T04:52:39.278Z</time>
      </trkpt>
      <trkpt lat="45.91269" lon="6.83738">
        <ele>1215</ele>
        <time>2026-08-04T04:52:40.278Z</time>
      </trkpt>
      <trkpt lat="45.91269" lon="6.83738">
        <ele>1215</ele>
        <time>2026-08-04T04:52:41.278Z</time>
      </trkpt>
      <trkpt lat="45.91269" lon="6.83738">
        <ele>1214</ele>
        <time>2026-08-04T04:52:42.278Z</time>
      </trkpt>
      <trkpt lat="45.91269" lon="6.83738">
        <ele>1214</ele>
        <time>2026-08-04T04:52:43.278Z</time>
      </trkpt>
      <trkpt lat="45.91269" lon="6.83738">
        <ele>1214</ele>
        <time>2026-08-04T04:52:44.278Z</time>
      </trkpt>
      <trkpt lat="45.91269" lon="6.83739">
        <ele>1213</ele>
        <time>2026-08-04T04:52:45.278Z</time>
      </trkpt>
      <trkpt lat="45.91268" lon="6.83739">
        <ele>1213</ele>
        <time>2026-08-04T04:52:46.278Z</time>
      </trkpt>
      <trkpt lat="45.91268" lon="6.83739">
        <ele>1213</ele>
        <time>2026-08-04T04:52:47.278Z</time>
      </trkpt>
      <trkpt lat="45.91268" lon="6.83739">
        <ele>1214</ele>
        <time>2026-08-04T04:52:48.278Z</time>
      </trkpt>
      <trkpt lat="45.91268" lon="6.83739">
        <ele>1214</ele>
        <time>2026-08-04T04:52:49.278Z</time>
      </trkpt>
      <trkpt lat="45.91268" lon="6.83739">
        <ele>1214</ele>
        <time>2026-08-04T04:52:50.278Z</time>
      </trkpt>
      <trkpt lat="45.91268" lon="6.83739">
        <ele>1214</ele>
        <time>2026-08-04T04:52:51.278Z</time>
      </trkpt>
      <trkpt lat="45.91269" lon="6.83741">
        <ele>1214</ele>
        <time>2026-08-04T04:52:52.278Z</time>
      </trkpt>
      <trkpt lat="45.91269" lon="6.83744">
        <ele>1213</ele>
        <time>2026-08-04T04:52:53.278Z</time>
      </trkpt>
      <trkpt lat="45.9127" lon="6.83747">
        <ele>1213</ele>
        <time>2026-08-04T04:52:54.278Z</time>
      </trkpt>
      <trkpt lat="45.91271" lon="6.83749">
        <ele>1213</ele>
        <time>2026-08-04T04:52:55.278Z</time>
      </trkpt>
      <trkpt lat="45.91271" lon="6.83753">
        <ele>1213</ele>
        <time>2026-08-04T04:52:56.278Z</time>
      </trkpt>
      <trkpt lat="45.91272" lon="6.83756">
        <ele>1212</ele>
        <time>2026-08-04T04:52:57.278Z</time>
      </trkpt>
      <trkpt lat="45.91272" lon="6.83758">
        <ele>1211</ele>
        <time>2026-08-04T04:52:58.278Z</time>
      </trkpt>
      <trkpt lat="45.91273" lon="6.8376">
        <ele>1211</ele>
        <time>2026-08-04T04:52:59.278Z</time>
      </trkpt>
      <trkpt lat="45.91273" lon="6.83761">
        <ele>1211</ele>
        <time>2026-08-04T04:53:00.278Z</time>
      </trkpt>
      <trkpt lat="45.91273" lon="6.83762">
        <ele>1210</ele>
        <time>2026-08-04T04:53:01.278Z</time>
      </trkpt>
      <trkpt lat="45.91273" lon="6.83762">
        <ele>1210</ele>
        <time>2026-08-04T04:53:02.278Z</time>
      </trkpt>
      <trkpt lat="45.91273" lon="6.83762">
        <ele>1209</ele>
        <time>2026-08-04T04:53:03.278Z</time>
      </trkpt>
      <trkpt lat="45.91273" lon="6.83762">
        <ele>1208</ele>
        <time>2026-08-04T04:53:04.278Z</time>
      </trkpt>
      <trkpt lat="45.91273" lon="6.83762">
        <ele>1208</ele>
        <time>2026-08-04T04:53:05.278Z</time>
      </trkpt>
      <trkpt lat="45.91273" lon="6.83761">
        <ele>1207</ele>
        <time>2026-08-04T04:53:06.278Z</time>
      </trkpt>
      <trkpt lat="45.91273" lon="6.83762">
        <ele>1207</ele>
        <time>2026-08-04T04:53:07.278Z</time>
      </trkpt>
      <trkpt lat="45.91273" lon="6.83761">
        <ele>1206</ele>
        <time>2026-08-04T04:53:08.278Z</time>
      </trkpt>
      <trkpt lat="45.91272" lon="6.83761">
        <ele>1206</ele>
        <time>2026-08-04T04:53:09.278Z</time>
      </trkpt>
      <trkpt lat="45.91272" lon="6.8376">
        <ele>1206</ele>
        <time>2026-08-04T04:53:10.278Z</time>
      </trkpt>
      <trkpt lat="45.91272" lon="6.83759">
        <ele>1205</ele>
        <time>2026-08-04T04:53:11.278Z</time>
      </trkpt>
      <trkpt lat="45.91271" lon="6.83757">
        <ele>1205</ele>
        <time>2026-08-04T04:53:12.278Z</time>
      </trkpt>
      <trkpt lat="45.91271" lon="6.83756">
        <ele>1205</ele>
        <time>2026-08-04T04:53:13.278Z</time>
      </trkpt>
      <trkpt lat="45.91271" lon="6.83754">
        <ele>1205</ele>
        <time>2026-08-04T04:53:14.278Z</time>
      </trkpt>
      <trkpt lat="45.91271" lon="6.83753">
        <ele>1205</ele>
        <time>2026-08-04T04:53:15.278Z</time>
      </trkpt>
      <trkpt lat="45.91271" lon="6.83751">
        <ele>1206</ele>
        <time>2026-08-04T04:53:16.278Z</time>
      </trkpt>
      <trkpt lat="45.91271" lon="6.8375">
        <ele>1206</ele>
        <time>2026-08-04T04:53:17.278Z</time>
      </trkpt>
      <trkpt lat="45.91271" lon="6.83748">
        <ele>1207</ele>
        <time>2026-08-04T04:53:18.278Z</time>
      </trkpt>
      <trkpt lat="45.91271" lon="6.83747">
        <ele>1207</ele>
        <time>2026-08-04T04:53:19.278Z</time>
      </trkpt>
      <trkpt lat="45.91271" lon="6.83745">
        <ele>1208</ele>
        <time>2026-08-04T04:53:20.278Z</time>
      </trkpt>
      <trkpt lat="45.91271" lon="6.83744">
        <ele>1208</ele>
        <time>2026-08-04T04:53:21.278Z</time>
      </trkpt>
      <trkpt lat="45.9127" lon="6.83742">
        <ele>1208</ele>
        <time>2026-08-04T04:53:22.278Z</time>
      </trkpt>
      <trkpt lat="45.9127" lon="6.83741">
        <ele>1208</ele>
        <time>2026-08-04T04:53:23.278Z</time>
      </trkpt>
      <trkpt lat="45.91269" lon="6.83739">
        <ele>1208</ele>
        <time>2026-08-04T04:53:24.278Z</time>
      </trkpt>
      <trkpt lat="45.91269" lon="6.83738">
        <ele>1208</ele>
        <time>2026-08-04T04:53:25.278Z</time>
      </trkpt>
      <trkpt lat="45.91269" lon="6.83737">
        <ele>1209</ele>
        <time>2026-08-04T04:53:26.278Z</time>
      </trkpt>
      <trkpt lat="45.91269" lon="6.83735">
        <ele>1209</ele>
        <time>2026-08-04T04:53:27.278Z</time>
      </trkpt>
      <trkpt lat="45.91269" lon="6.83733">
        <ele>1209</ele>
        <time>2026-08-04T04:53:28.278Z</time>
      </trkpt>
      <trkpt lat="45.91269" lon="6.83732">
        <ele>1210</ele>
        <time>2026-08-04T04:53:29.278Z</time>
      </trkpt>
      <trkpt lat="45.91269" lon="6.8373">
        <ele>1210</ele>
        <time>2026-08-04T04:53:30.278Z</time>
      </trkpt>
      <trkpt lat="45.91269" lon="6.83729">
        <ele>1210</ele>
        <time>2026-08-04T04:53:31.278Z</time>
      </trkpt>
      <trkpt lat="45.91269" lon="6.83728">
        <ele>1210</ele>
        <time>2026-08-04T04:53:32.278Z</time>
      </trkpt>
      <trkpt lat="45.91268" lon="6.83726">
        <ele>1211</ele>
        <time>2026-08-04T04:53:33.278Z</time>
      </trkpt>
      <trkpt lat="45.91268" lon="6.83726">
        <ele>1211</ele>
        <time>2026-08-04T04:53:34.278Z</time>
      </trkpt>
      <trkpt lat="45.91267" lon="6.83725">
        <ele>1212</ele>
        <time>2026-08-04T04:53:35.278Z</time>
      </trkpt>
      <trkpt lat="45.91267" lon="6.83724">
        <ele>1212</ele>
        <time>2026-08-04T04:53:36.278Z</time>
      </trkpt>
      <trkpt lat="45.91267" lon="6.83723">
        <ele>1213</ele>
        <time>2026-08-04T04:53:37.278Z</time>
      </trkpt>
      <trkpt lat="45.91267" lon="6.83722">
        <ele>1213</ele>
        <time>2026-08-04T04:53:38.278Z</time>
      </trkpt>
      <trkpt lat="45.91267" lon="6.83722">
        <ele>1214</ele>
        <time>2026-08-04T04:53:39.278Z</time>
      </trkpt>
      <trkpt lat="45.91267" lon="6.83721">
        <ele>1214</ele>
        <time>2026-08-04T04:53:40.278Z</time>
      </trkpt>
      <trkpt lat="45.91267" lon="6.8372">
        <ele>1214</ele>
        <time>2026-08-04T04:53:41.278Z</time>
      </trkpt>
      <trkpt lat="45.91266" lon="6.8372">
        <ele>1214</ele>
        <time>2026-08-04T04:53:42.278Z</time>
      </trkpt>
      <trkpt lat="45.91266" lon="6.8372">
        <ele>1215</ele>
        <time>2026-08-04T04:53:43.278Z</time>
      </trkpt>
      <trkpt lat="45.91266" lon="6.83719">
        <ele>1215</ele>
        <time>2026-08-04T04:53:44.278Z</time>
      </trkpt>
      <trkpt lat="45.91267" lon="6.83719">
        <ele>1215</ele>
        <time>2026-08-04T04:53:45.278Z</time>
      </trkpt>
      <trkpt lat="45.91267" lon="6.83719">
        <ele>1216</ele>
        <time>2026-08-04T04:53:46.278Z</time>
      </trkpt>
      <trkpt lat="45.91267" lon="6.83719">
        <ele>1216</ele>
        <time>2026-08-04T04:53:47.278Z</time>
      </trkpt>
      <trkpt lat="45.91268" lon="6.83719">
        <ele>1215</ele>
        <time>2026-08-04T04:53:48.278Z</time>
      </trkpt>
      <trkpt lat="45.91268" lon="6.8372">
        <ele>1215</ele>
        <time>2026-08-04T04:53:49.278Z</time>
      </trkpt>
      <trkpt lat="45.91268" lon="6.83721">
        <ele>1215</ele>
        <time>2026-08-04T04:53:50.278Z</time>
      </trkpt>
      <trkpt lat="45.91268" lon="6.83722">
        <ele>1215</ele>
        <time>2026-08-04T04:53:51.278Z</time>
      </trkpt>
      <trkpt lat="45.91268" lon="6.83724">
        <ele>1215</ele>
        <time>2026-08-04T04:53:52.278Z</time>
      </trkpt>
      <trkpt lat="45.91268" lon="6.83726">
        <ele>1215</ele>
        <time>2026-08-04T04:53:53.278Z</time>
      </trkpt>
      <trkpt lat="45.91268" lon="6.83728">
        <ele>1215</ele>
        <time>2026-08-04T04:53:54.278Z</time>
      </trkpt>
      <trkpt lat="45.91268" lon="6.83729">
        <ele>1215</ele>
        <time>2026-08-04T04:53:55.278Z</time>
      </trkpt>
      <trkpt lat="45.91269" lon="6.83731">
        <ele>1215</ele>
        <time>2026-08-04T04:53:56.278Z</time>
      </trkpt>
      <trkpt lat="45.91269" lon="6.83734">
        <ele>1214</ele>
        <time>2026-08-04T04:53:57.278Z</time>
      </trkpt>
      <trkpt lat="45.91269" lon="6.83736">
        <ele>1214</ele>
        <time>2026-08-04T04:53:58.278Z</time>
      </trkpt>
      <trkpt lat="45.91269" lon="6.83737">
        <ele>1214</ele>
        <time>2026-08-04T04:53:59.278Z</time>
      </trkpt>
      <trkpt lat="45.91269" lon="6.83738">
        <ele>1214</ele>
        <time>2026-08-04T04:54:00.278Z</time>
      </trkpt>
      <trkpt lat="45.91269" lon="6.8374">
        <ele>1214</ele>
        <time>2026-08-04T04:54:01.278Z</time>
      </trkpt>
      <trkpt lat="45.91269" lon="6.83742">
        <ele>1213</ele>
        <time>2026-08-04T04:54:02.278Z</time>
      </trkpt>
      <trkpt lat="45.91269" lon="6.83744">
        <ele>1213</ele>
        <time>2026-08-04T04:54:03.278Z</time>
      </trkpt>
      <trkpt lat="45.91269" lon="6.83745">
        <ele>1213</ele>
        <time>2026-08-04T04:54:04.278Z</time>
      </trkpt>
      <trkpt lat="45.9127" lon="6.83747">
        <ele>1213</ele>
        <time>2026-08-04T04:54:05.278Z</time>
      </trkpt>
      <trkpt lat="45.9127" lon="6.83749">
        <ele>1213</ele>
        <time>2026-08-04T04:54:06.278Z</time>
      </trkpt>
      <trkpt lat="45.91271" lon="6.83751">
        <ele>1212</ele>
        <time>2026-08-04T04:54:07.278Z</time>
      </trkpt>
      <trkpt lat="45.91272" lon="6.83752">
        <ele>1212</ele>
        <time>2026-08-04T04:54:08.278Z</time>
      </trkpt>
      <trkpt lat="45.91273" lon="6.83755">
        <ele>1211</ele>
        <time>2026-08-04T04:54:09.278Z</time>
      </trkpt>
      <trkpt lat="45.91274" lon="6.83757">
        <ele>1211</ele>
        <time>2026-08-04T04:54:10.278Z</time>
      </trkpt>
      <trkpt lat="45.91275" lon="6.83759">
        <ele>1210</ele>
        <time>2026-08-04T04:54:11.278Z</time>
      </trkpt>
      <trkpt lat="45.91276" lon="6.83761">
        <ele>1210</ele>
        <time>2026-08-04T04:54:12.278Z</time>
      </trkpt>
      <trkpt lat="45.91277" lon="6.83763">
        <ele>1209</ele>
        <time>2026-08-04T04:54:13.278Z</time>
      </trkpt>
      <trkpt lat="45.91278" lon="6.83765">
        <ele>1209</ele>
        <time>2026-08-04T04:54:14.278Z</time>
      </trkpt>
      <trkpt lat="45.91278" lon="6.83766">
        <ele>1208</ele>
        <time>2026-08-04T04:54:15.278Z</time>
      </trkpt>
      <trkpt lat="45.91279" lon="6.83766">
        <ele>1208</ele>
        <time>2026-08-04T04:54:16.278Z</time>
      </trkpt>
      <trkpt lat="45.91281" lon="6.83767">
        <ele>1208</ele>
        <time>2026-08-04T04:54:17.278Z</time>
      </trkpt>
      <trkpt lat="45.91283" lon="6.83768">
        <ele>1207</ele>
        <time>2026-08-04T04:54:18.278Z</time>
      </trkpt>
      <trkpt lat="45.91284" lon="6.8377">
        <ele>1207</ele>
        <time>2026-08-04T04:54:19.278Z</time>
      </trkpt>
      <trkpt lat="45.91285" lon="6.83771">
        <ele>1206</ele>
        <time>2026-08-04T04:54:20.278Z</time>
      </trkpt>
      <trkpt lat="45.91285" lon="6.83771">
        <ele>1206</ele>
        <time>2026-08-04T04:54:21.278Z</time>
      </trkpt>
      <trkpt lat="45.91286" lon="6.83772">
        <ele>1206</ele>
        <time>2026-08-04T04:54:22.278Z</time>
      </trkpt>
      <trkpt lat="45.91286" lon="6.83773">
        <ele>1206</ele>
        <time>2026-08-04T04:54:23.278Z</time>
      </trkpt>
      <trkpt lat="45.91287" lon="6.83774">
        <ele>1206</ele>
        <time>2026-08-04T04:54:24.278Z</time>
      </trkpt>
      <trkpt lat="45.91287" lon="6.83775">
        <ele>1205</ele>
        <time>2026-08-04T04:54:25.278Z</time>
      </trkpt>
      <trkpt lat="45.91287" lon="6.83776">
        <ele>1205</ele>
        <time>2026-08-04T04:54:26.278Z</time>
      </trkpt>
      <trkpt lat="45.91287" lon="6.83777">
        <ele>1204</ele>
        <time>2026-08-04T04:54:27.278Z</time>
      </trkpt>
      <trkpt lat="45.91287" lon="6.83779">
        <ele>1204</ele>
        <time>2026-08-04T04:54:28.278Z</time>
      </trkpt>
      <trkpt lat="45.91288" lon="6.8378">
        <ele>1204</ele>
        <time>2026-08-04T04:54:29.278Z</time>
      </trkpt>
      <trkpt lat="45.91288" lon="6.83781">
        <ele>1203</ele>
        <time>2026-08-04T04:54:30.278Z</time>
      </trkpt>
      <trkpt lat="45.91289" lon="6.83781">
        <ele>1203</ele>
        <time>2026-08-04T04:54:31.278Z</time>
      </trkpt>
      <trkpt lat="45.91289" lon="6.83782">
        <ele>1203</ele>
        <time>2026-08-04T04:54:32.278Z</time>
      </trkpt>
      <trkpt lat="45.9129" lon="6.83783">
        <ele>1203</ele>
        <time>2026-08-04T04:54:33.278Z</time>
      </trkpt>
      <trkpt lat="45.9129" lon="6.83784">
        <ele>1203</ele>
        <time>2026-08-04T04:54:34.278Z</time>
      </trkpt>
      <trkpt lat="45.91289" lon="6.83785">
        <ele>1202</ele>
        <time>2026-08-04T04:54:35.278Z</time>
      </trkpt>
      <trkpt lat="45.9129" lon="6.83787">
        <ele>1202</ele>
        <time>2026-08-04T04:54:36.278Z</time>
      </trkpt>
      <trkpt lat="45.9129" lon="6.83789">
        <ele>1202</ele>
        <time>2026-08-04T04:54:37.278Z</time>
      </trkpt>
      <trkpt lat="45.9129" lon="6.8379">
        <ele>1202</ele>
        <time>2026-08-04T04:54:38.278Z</time>
      </trkpt>
      <trkpt lat="45.91291" lon="6.83791">
        <ele>1202</ele>
        <time>2026-08-04T04:54:39.278Z</time>
      </trkpt>
      <trkpt lat="45.91291" lon="6.83793">
        <ele>1202</ele>
        <time>2026-08-04T04:54:40.278Z</time>
      </trkpt>
      <trkpt lat="45.91291" lon="6.83795">
        <ele>1201</ele>
        <time>2026-08-04T04:54:41.278Z</time>
      </trkpt>
      <trkpt lat="45.91291" lon="6.83796">
        <ele>1201</ele>
        <time>2026-08-04T04:54:42.278Z</time>
      </trkpt>
      <trkpt lat="45.91291" lon="6.83798">
        <ele>1200</ele>
        <time>2026-08-04T04:54:43.278Z</time>
      </trkpt>
      <trkpt lat="45.91291" lon="6.83799">
        <ele>1200</ele>
        <time>2026-08-04T04:54:44.278Z</time>
      </trkpt>
      <trkpt lat="45.91291" lon="6.83801">
        <ele>1199</ele>
        <time>2026-08-04T04:54:45.278Z</time>
      </trkpt>
      <trkpt lat="45.91292" lon="6.83802">
        <ele>1199</ele>
        <time>2026-08-04T04:54:46.278Z</time>
      </trkpt>
      <trkpt lat="45.91293" lon="6.83805">
        <ele>1198</ele>
        <time>2026-08-04T04:54:47.278Z</time>
      </trkpt>
      <trkpt lat="45.91294" lon="6.83806">
        <ele>1198</ele>
        <time>2026-08-04T04:54:48.278Z</time>
      </trkpt>
      <trkpt lat="45.91295" lon="6.83807">
        <ele>1197</ele>
        <time>2026-08-04T04:54:49.278Z</time>
      </trkpt>
      <trkpt lat="45.91295" lon="6.83808">
        <ele>1197</ele>
        <time>2026-08-04T04:54:50.278Z</time>
      </trkpt>
      <trkpt lat="45.91296" lon="6.83809">
        <ele>1197</ele>
        <time>2026-08-04T04:54:51.278Z</time>
      </trkpt>
      <trkpt lat="45.91296" lon="6.8381">
        <ele>1196</ele>
        <time>2026-08-04T04:54:52.278Z</time>
      </trkpt>
      <trkpt lat="45.91296" lon="6.83811">
        <ele>1196</ele>
        <time>2026-08-04T04:54:53.278Z</time>
      </trkpt>
      <trkpt lat="45.91296" lon="6.83811">
        <ele>1196</ele>
        <time>2026-08-04T04:54:54.278Z</time>
      </trkpt>
      <trkpt lat="45.91296" lon="6.83812">
        <ele>1196</ele>
        <time>2026-08-04T04:54:55.278Z</time>
      </trkpt>
      <trkpt lat="45.91296" lon="6.83812">
        <ele>1197</ele>
        <time>2026-08-04T04:54:56.278Z</time>
      </trkpt>
      <trkpt lat="45.91297" lon="6.83812">
        <ele>1197</ele>
        <time>2026-08-04T04:54:57.278Z</time>
      </trkpt>
      <trkpt lat="45.91297" lon="6.83812">
        <ele>1197</ele>
        <time>2026-08-04T04:54:58.278Z</time>
      </trkpt>
      <trkpt lat="45.91297" lon="6.83812">
        <ele>1198</ele>
        <time>2026-08-04T04:54:59.278Z</time>
      </trkpt>
      <trkpt lat="45.91297" lon="6.83812">
        <ele>1198</ele>
        <time>2026-08-04T04:55:00.278Z</time>
      </trkpt>
      <trkpt lat="45.91297" lon="6.83811">
        <ele>1198</ele>
        <time>2026-08-04T04:55:01.278Z</time>
      </trkpt>
      <trkpt lat="45.91297" lon="6.83811">
        <ele>1198</ele>
        <time>2026-08-04T04:55:02.278Z</time>
      </trkpt>
      <trkpt lat="45.91296" lon="6.83811">
        <ele>1198</ele>
        <time>2026-08-04T04:55:03.278Z</time>
      </trkpt>
      <trkpt lat="45.91297" lon="6.8381">
        <ele>1198</ele>
        <time>2026-08-04T04:55:04.278Z</time>
      </trkpt>
      <trkpt lat="45.91297" lon="6.83809">
        <ele>1198</ele>
        <time>2026-08-04T04:55:05.278Z</time>
      </trkpt>
      <trkpt lat="45.91297" lon="6.83809">
        <ele>1198</ele>
        <time>2026-08-04T04:55:06.278Z</time>
      </trkpt>
      <trkpt lat="45.91297" lon="6.83809">
        <ele>1198</ele>
        <time>2026-08-04T04:55:07.278Z</time>
      </trkpt>
      <trkpt lat="45.91297" lon="6.83809">
        <ele>1198</ele>
        <time>2026-08-04T04:55:08.278Z</time>
      </trkpt>
      <trkpt lat="45.91297" lon="6.83809">
        <ele>1199</ele>
        <time>2026-08-04T04:55:09.278Z</time>
      </trkpt>
      <trkpt lat="45.91297" lon="6.83809">
        <ele>1199</ele>
        <time>2026-08-04T04:55:10.278Z</time>
      </trkpt>
      <trkpt lat="45.91297" lon="6.83809">
        <ele>1199</ele>
        <time>2026-08-04T04:55:11.278Z</time>
      </trkpt>
      <trkpt lat="45.91297" lon="6.83809">
        <ele>1199</ele>
        <time>2026-08-04T04:55:12.278Z</time>
      </trkpt>
      <trkpt lat="45.91297" lon="6.83809">
        <ele>1199</ele>
        <time>2026-08-04T04:55:13.278Z</time>
      </trkpt>
      <trkpt lat="45.91297" lon="6.83809">
        <ele>1200</ele>
        <time>2026-08-04T04:55:14.278Z</time>
      </trkpt>
      <trkpt lat="45.91297" lon="6.83809">
        <ele>1200</ele>
        <time>2026-08-04T04:55:15.278Z</time>
      </trkpt>
      <trkpt lat="45.91297" lon="6.83809">
        <ele>1199</ele>
        <time>2026-08-04T04:55:16.278Z</time>
      </trkpt>
      <trkpt lat="45.91297" lon="6.83809">
        <ele>1199</ele>
        <time>2026-08-04T04:55:17.278Z</time>
      </trkpt>
      <trkpt lat="45.91297" lon="6.83809">
        <ele>1199</ele>
        <time>2026-08-04T04:55:18.278Z</time>
      </trkpt>
      <trkpt lat="45.91297" lon="6.83809">
        <ele>1199</ele>
        <time>2026-08-04T04:55:19.278Z</time>
      </trkpt>
      <trkpt lat="45.91297" lon="6.83809">
        <ele>1199</ele>
        <time>2026-08-04T04:55:20.278Z</time>
      </trkpt>
      <trkpt lat="45.91297" lon="6.83809">
        <ele>1199</ele>
        <time>2026-08-04T04:55:21.278Z</time>
      </trkpt>
      <trkpt lat="45.91297" lon="6.83809">
        <ele>1198</ele>
        <time>2026-08-04T04:55:22.278Z</time>
      </trkpt>
      <trkpt lat="45.91297" lon="6.83809">
        <ele>1198</ele>
        <time>2026-08-04T04:55:23.278Z</time>
      </trkpt>
      <trkpt lat="45.91297" lon="6.83809">
        <ele>1198</ele>
        <time>2026-08-04T04:55:24.278Z</time>
      </trkpt>
      <trkpt lat="45.91297" lon="6.83809">
        <ele>1198</ele>
        <time>2026-08-04T04:55:25.278Z</time>
      </trkpt>
      <trkpt lat="45.91296" lon="6.83808">
        <ele>1198</ele>
        <time>2026-08-04T04:55:26.278Z</time>
      </trkpt>
      <trkpt lat="45.91295" lon="6.83808">
        <ele>1198</ele>
        <time>2026-08-04T04:55:27.278Z</time>
      </trkpt>
      <trkpt lat="45.91295" lon="6.83807">
        <ele>1198</ele>
        <time>2026-08-04T04:55:28.278Z</time>
      </trkpt>
      <trkpt lat="45.91294" lon="6.83807">
        <ele>1198</ele>
        <time>2026-08-04T04:55:29.278Z</time>
      </trkpt>
      <trkpt lat="45.91294" lon="6.83806">
        <ele>1198</ele>
        <time>2026-08-04T04:55:30.278Z</time>
      </trkpt>
      <trkpt lat="45.91293" lon="6.83804">
        <ele>1197</ele>
        <time>2026-08-04T04:55:31.278Z</time>
      </trkpt>
      <trkpt lat="45.91293" lon="6.83804">
        <ele>1197</ele>
        <time>2026-08-04T04:55:32.278Z</time>
      </trkpt>
      <trkpt lat="45.91292" lon="6.83803">
        <ele>1197</ele>
        <time>2026-08-04T04:55:33.278Z</time>
      </trkpt>
      <trkpt lat="45.91292" lon="6.83803">
        <ele>1197</ele>
        <time>2026-08-04T04:55:34.278Z</time>
      </trkpt>
      <trkpt lat="45.91292" lon="6.83803">
        <ele>1196</ele>
        <time>2026-08-04T04:55:35.278Z</time>
      </trkpt>
      <trkpt lat="45.91292" lon="6.83803">
        <ele>1196</ele>
        <time>2026-08-04T04:55:36.278Z</time>
      </trkpt>
      <trkpt lat="45.91292" lon="6.83803">
        <ele>1196</ele>
        <time>2026-08-04T04:55:37.278Z</time>
      </trkpt>
      <trkpt lat="45.91292" lon="6.83803">
        <ele>1196</ele>
        <time>2026-08-04T04:55:38.278Z</time>
      </trkpt>
      <trkpt lat="45.91292" lon="6.83803">
        <ele>1195</ele>
        <time>2026-08-04T04:55:39.278Z</time>
      </trkpt>
      <trkpt lat="45.91293" lon="6.83804">
        <ele>1195</ele>
        <time>2026-08-04T04:55:40.278Z</time>
      </trkpt>
      <trkpt lat="45.91293" lon="6.83805">
        <ele>1195</ele>
        <time>2026-08-04T04:55:41.278Z</time>
      </trkpt>
      <trkpt lat="45.91293" lon="6.83806">
        <ele>1195</ele>
        <time>2026-08-04T04:55:42.278Z</time>
      </trkpt>
      <trkpt lat="45.91293" lon="6.83806">
        <ele>1195</ele>
        <time>2026-08-04T04:55:43.278Z</time>
      </trkpt>
      <trkpt lat="45.91293" lon="6.83807">
        <ele>1195</ele>
        <time>2026-08-04T04:55:44.278Z</time>
      </trkpt>
      <trkpt lat="45.91293" lon="6.83807">
        <ele>1195</ele>
        <time>2026-08-04T04:55:45.278Z</time>
      </trkpt>
      <trkpt lat="45.91293" lon="6.83807">
        <ele>1195</ele>
        <time>2026-08-04T04:55:46.278Z</time>
      </trkpt>
      <trkpt lat="45.91294" lon="6.83807">
        <ele>1195</ele>
        <time>2026-08-04T04:55:47.278Z</time>
      </trkpt>
      <trkpt lat="45.91295" lon="6.83808">
        <ele>1195</ele>
        <time>2026-08-04T04:55:48.278Z</time>
      </trkpt>
      <trkpt lat="45.91295" lon="6.83808">
        <ele>1195</ele>
        <time>2026-08-04T04:55:49.278Z</time>
      </trkpt>
      <trkpt lat="45.91296" lon="6.83808">
        <ele>1195</ele>
        <time>2026-08-04T04:55:50.278Z</time>
      </trkpt>
      <trkpt lat="45.91297" lon="6.83809">
        <ele>1195</ele>
        <time>2026-08-04T04:55:51.278Z</time>
      </trkpt>
      <trkpt lat="45.91297" lon="6.8381">
        <ele>1194</ele>
        <time>2026-08-04T04:55:52.278Z</time>
      </trkpt>
      <trkpt lat="45.91297" lon="6.83811">
        <ele>1194</ele>
        <time>2026-08-04T04:55:53.278Z</time>
      </trkpt>
      <trkpt lat="45.91297" lon="6.83811">
        <ele>1194</ele>
        <time>2026-08-04T04:55:54.278Z</time>
      </trkpt>
      <trkpt lat="45.91297" lon="6.83812">
        <ele>1195</ele>
        <time>2026-08-04T04:55:55.278Z</time>
      </trkpt>
      <trkpt lat="45.91298" lon="6.83812">
        <ele>1195</ele>
        <time>2026-08-04T04:55:56.278Z</time>
      </trkpt>
      <trkpt lat="45.91298" lon="6.83812">
        <ele>1194</ele>
        <time>2026-08-04T04:55:57.278Z</time>
      </trkpt>
      <trkpt lat="45.91298" lon="6.83812">
        <ele>1194</ele>
        <time>2026-08-04T04:55:58.278Z</time>
      </trkpt>
      <trkpt lat="45.91298" lon="6.83812">
        <ele>1194</ele>
        <time>2026-08-04T04:55:59.278Z</time>
      </trkpt>
      <trkpt lat="45.91298" lon="6.83812">
        <ele>1194</ele>
        <time>2026-08-04T04:56:00.278Z</time>
      </trkpt>
      <trkpt lat="45.91299" lon="6.83812">
        <ele>1194</ele>
        <time>2026-08-04T04:56:01.278Z</time>
      </trkpt>
      <trkpt lat="45.91299" lon="6.83812">
        <ele>1193</ele>
        <time>2026-08-04T04:56:02.278Z</time>
      </trkpt>
      <trkpt lat="45.91299" lon="6.83812">
        <ele>1193</ele>
        <time>2026-08-04T04:56:03.278Z</time>
      </trkpt>
      <trkpt lat="45.91299" lon="6.83812">
        <ele>1193</ele>
        <time>2026-08-04T04:56:04.278Z</time>
      </trkpt>
      <trkpt lat="45.91298" lon="6.83812">
        <ele>1193</ele>
        <time>2026-08-04T04:56:05.278Z</time>
      </trkpt>
      <trkpt lat="45.91298" lon="6.83812">
        <ele>1192</ele>
        <time>2026-08-04T04:56:06.278Z</time>
      </trkpt>
      <trkpt lat="45.91298" lon="6.83812">
        <ele>1192</ele>
        <time>2026-08-04T04:56:07.278Z</time>
      </trkpt>
      <trkpt lat="45.91298" lon="6.83812">
        <ele>1192</ele>
        <time>2026-08-04T04:56:08.278Z</time>
      </trkpt>
      <trkpt lat="45.91298" lon="6.83812">
        <ele>1192</ele>
        <time>2026-08-04T04:56:09.278Z</time>
      </trkpt>
      <trkpt lat="45.91298" lon="6.83812">
        <ele>1192</ele>
        <time>2026-08-04T04:56:10.278Z</time>
      </trkpt>
      <trkpt lat="45.91298" lon="6.83812">
        <ele>1192</ele>
        <time>2026-08-04T04:56:11.278Z</time>
      </trkpt>
      <trkpt lat="45.91298" lon="6.83812">
        <ele>1192</ele>
        <time>2026-08-04T04:56:12.278Z</time>
      </trkpt>
      <trkpt lat="45.91298" lon="6.83812">
        <ele>1192</ele>
        <time>2026-08-04T04:56:13.278Z</time>
      </trkpt>
      <trkpt lat="45.91298" lon="6.83812">
        <ele>1192</ele>
        <time>2026-08-04T04:56:14.278Z</time>
      </trkpt>
      <trkpt lat="45.91298" lon="6.83812">
        <ele>1192</ele>
        <time>2026-08-04T04:56:15.278Z</time>
      </trkpt>
      <trkpt lat="45.91298" lon="6.83812">
        <ele>1192</ele>
        <time>2026-08-04T04:56:16.278Z</time>
      </trkpt>
      <trkpt lat="45.91298" lon="6.83812">
        <ele>1192</ele>
        <time>2026-08-04T04:56:17.278Z</time>
      </trkpt>
      <trkpt lat="45.91298" lon="6.83812">
        <ele>1192</ele>
        <time>2026-08-04T04:56:18.278Z</time>
      </trkpt>
      <trkpt lat="45.91298" lon="6.83812">
        <ele>1192</ele>
        <time>2026-08-04T04:56:19.278Z</time>
      </trkpt>
      <trkpt lat="45.91298" lon="6.83812">
        <ele>1191</ele>
        <time>2026-08-04T04:56:20.278Z</time>
      </trkpt>
      <trkpt lat="45.91298" lon="6.83812">
        <ele>1191</ele>
        <time>2026-08-04T04:56:21.278Z</time>
      </trkpt>
      <trkpt lat="45.91298" lon="6.83812">
        <ele>1191</ele>
        <time>2026-08-04T04:56:22.278Z</time>
      </trkpt>
      <trkpt lat="45.91298" lon="6.83812">
        <ele>1191</ele>
        <time>2026-08-04T04:56:23.278Z</time>
      </trkpt>
      <trkpt lat="45.91298" lon="6.83812">
        <ele>1191</ele>
        <time>2026-08-04T04:56:24.278Z</time>
      </trkpt>
      <trkpt lat="45.91298" lon="6.83812">
        <ele>1191</ele>
        <time>2026-08-04T04:56:25.278Z</time>
      </trkpt>
      <trkpt lat="45.91298" lon="6.83812">
        <ele>1191</ele>
        <time>2026-08-04T04:56:26.278Z</time>
      </trkpt>
      <trkpt lat="45.91298" lon="6.83812">
        <ele>1191</ele>
        <time>2026-08-04T04:56:27.278Z</time>
      </trkpt>
      <trkpt lat="45.91298" lon="6.83812">
        <ele>1191</ele>
        <time>2026-08-04T04:56:28.278Z</time>
      </trkpt>
      <trkpt lat="45.91298" lon="6.83812">
        <ele>1191</ele>
        <time>2026-08-04T04:56:29.278Z</time>
      </trkpt>
      <trkpt lat="45.91298" lon="6.83811">
        <ele>1191</ele>
        <time>2026-08-04T04:56:30.278Z</time>
      </trkpt>
      <trkpt lat="45.91298" lon="6.83811">
        <ele>1191</ele>
        <time>2026-08-04T04:56:31.278Z</time>
      </trkpt>
      <trkpt lat="45.91298" lon="6.83811">
        <ele>1191</ele>
        <time>2026-08-04T04:56:32.278Z</time>
      </trkpt>
      <trkpt lat="45.91298" lon="6.83811">
        <ele>1192</ele>
        <time>2026-08-04T04:56:33.278Z</time>
      </trkpt>
      <trkpt lat="45.91298" lon="6.83811">
        <ele>1192</ele>
        <time>2026-08-04T04:56:34.278Z</time>
      </trkpt>
      <trkpt lat="45.91298" lon="6.83811">
        <ele>1192</ele>
        <time>2026-08-04T04:56:35.278Z</time>
      </trkpt>
      <trkpt lat="45.91298" lon="6.83811">
        <ele>1193</ele>
        <time>2026-08-04T04:56:36.278Z</time>
      </trkpt>
      <trkpt lat="45.91298" lon="6.83811">
        <ele>1193</ele>
        <time>2026-08-04T04:56:37.278Z</time>
      </trkpt>
      <trkpt lat="45.91298" lon="6.83811">
        <ele>1194</ele>
        <time>2026-08-04T04:56:38.278Z</time>
      </trkpt>
      <trkpt lat="45.91298" lon="6.83811">
        <ele>1194</ele>
        <time>2026-08-04T04:56:39.278Z</time>
      </trkpt>
      <trkpt lat="45.91298" lon="6.83811">
        <ele>1194</ele>
        <time>2026-08-04T04:56:40.278Z</time>
      </trkpt>
      <trkpt lat="45.91298" lon="6.83811">
        <ele>1195</ele>
        <time>2026-08-04T04:56:41.278Z</time>
      </trkpt>
      <trkpt lat="45.91298" lon="6.83811">
        <ele>1195</ele>
        <time>2026-08-04T04:56:42.278Z</time>
      </trkpt>
      <trkpt lat="45.91298" lon="6.83811">
        <ele>1195</ele>
        <time>2026-08-04T04:56:43.278Z</time>
      </trkpt>
      <trkpt lat="45.91298" lon="6.8381">
        <ele>1195</ele>
        <time>2026-08-04T04:56:44.278Z</time>
      </trkpt>
      <trkpt lat="45.91298" lon="6.8381">
        <ele>1196</ele>
        <time>2026-08-04T04:56:45.278Z</time>
      </trkpt>
      <trkpt lat="45.91298" lon="6.8381">
        <ele>1196</ele>
        <time>2026-08-04T04:56:46.278Z</time>
      </trkpt>
      <trkpt lat="45.91298" lon="6.8381">
        <ele>1196</ele>
        <time>2026-08-04T04:56:47.278Z</time>
      </trkpt>
      <trkpt lat="45.91298" lon="6.8381">
        <ele>1196</ele>
        <time>2026-08-04T04:56:48.278Z</time>
      </trkpt>
      <trkpt lat="45.91298" lon="6.8381">
        <ele>1196</ele>
        <time>2026-08-04T04:56:49.278Z</time>
      </trkpt>
      <trkpt lat="45.91298" lon="6.8381">
        <ele>1196</ele>
        <time>2026-08-04T04:56:50.278Z</time>
      </trkpt>
      <trkpt lat="45.91298" lon="6.8381">
        <ele>1197</ele>
        <time>2026-08-04T04:56:51.278Z</time>
      </trkpt>
      <trkpt lat="45.91298" lon="6.8381">
        <ele>1197</ele>
        <time>2026-08-04T04:56:52.278Z</time>
      </trkpt>
      <trkpt lat="45.91298" lon="6.8381">
        <ele>1197</ele>
        <time>2026-08-04T04:56:53.278Z</time>
      </trkpt>
      <trkpt lat="45.91298" lon="6.8381">
        <ele>1197</ele>
        <time>2026-08-04T04:56:54.278Z</time>
      </trkpt>
      <trkpt lat="45.91298" lon="6.8381">
        <ele>1197</ele>
        <time>2026-08-04T04:56:55.278Z</time>
      </trkpt>
      <trkpt lat="45.91298" lon="6.8381">
        <ele>1197</ele>
        <time>2026-08-04T04:56:56.278Z</time>
      </trkpt>
      <trkpt lat="45.91298" lon="6.8381">
        <ele>1197</ele>
        <time>2026-08-04T04:56:57.278Z</time>
      </trkpt>
      <trkpt lat="45.91298" lon="6.8381">
        <ele>1197</ele>
        <time>2026-08-04T04:56:58.278Z</time>
      </trkpt>
      <trkpt lat="45.91298" lon="6.8381">
        <ele>1197</ele>
        <time>2026-08-04T04:56:59.278Z</time>
      </trkpt>
      <trkpt lat="45.91298" lon="6.8381">
        <ele>1198</ele>
        <time>2026-08-04T04:57:00.278Z</time>
      </trkpt>
      <trkpt lat="45.91298" lon="6.8381">
        <ele>1198</ele>
        <time>2026-08-04T04:57:01.278Z</time>
      </trkpt>
      <trkpt lat="45.91298" lon="6.8381">
        <ele>1198</ele>
        <time>2026-08-04T04:57:02.278Z</time>
      </trkpt>
      <trkpt lat="45.91297" lon="6.83811">
        <ele>1198</ele>
        <time>2026-08-04T04:57:03.278Z</time>
      </trkpt>
      <trkpt lat="45.91297" lon="6.83811">
        <ele>1198</ele>
        <time>2026-08-04T04:57:04.278Z</time>
      </trkpt>
      <trkpt lat="45.91297" lon="6.83812">
        <ele>1198</ele>
        <time>2026-08-04T04:57:05.278Z</time>
      </trkpt>
      <trkpt lat="45.91296" lon="6.83812">
        <ele>1198</ele>
        <time>2026-08-04T04:57:06.278Z</time>
      </trkpt>
      <trkpt lat="45.91295" lon="6.83812">
        <ele>1198</ele>
        <time>2026-08-04T04:57:07.278Z</time>
      </trkpt>
      <trkpt lat="45.91294" lon="6.83812">
        <ele>1198</ele>
        <time>2026-08-04T04:57:08.278Z</time>
      </trkpt>
      <trkpt lat="45.91292" lon="6.83811">
        <ele>1198</ele>
        <time>2026-08-04T04:57:09.278Z</time>
      </trkpt>
      <trkpt lat="45.91291" lon="6.8381">
        <ele>1198</ele>
        <time>2026-08-04T04:57:10.278Z</time>
      </trkpt>
      <trkpt lat="45.91289" lon="6.83809">
        <ele>1198</ele>
        <time>2026-08-04T04:57:11.278Z</time>
      </trkpt>
      <trkpt lat="45.91288" lon="6.83808">
        <ele>1199</ele>
        <time>2026-08-04T04:57:12.278Z</time>
      </trkpt>
      <trkpt lat="45.91286" lon="6.83807">
        <ele>1199</ele>
        <time>2026-08-04T04:57:13.278Z</time>
      </trkpt>
      <trkpt lat="45.91285" lon="6.83807">
        <ele>1199</ele>
        <time>2026-08-04T04:57:14.278Z</time>
      </trkpt>
      <trkpt lat="45.91283" lon="6.83806">
        <ele>1199</ele>
        <time>2026-08-04T04:57:15.278Z</time>
      </trkpt>
      <trkpt lat="45.91282" lon="6.83805">
        <ele>1199</ele>
        <time>2026-08-04T04:57:16.278Z</time>
      </trkpt>
      <trkpt lat="45.9128" lon="6.83804">
        <ele>1199</ele>
        <time>2026-08-04T04:57:17.278Z</time>
      </trkpt>
      <trkpt lat="45.91278" lon="6.83804">
        <ele>1199</ele>
        <time>2026-08-04T04:57:18.278Z</time>
      </trkpt>
      <trkpt lat="45.91277" lon="6.83804">
        <ele>1199</ele>
        <time>2026-08-04T04:57:19.278Z</time>
      </trkpt>
      <trkpt lat="45.91276" lon="6.83804">
        <ele>1199</ele>
        <time>2026-08-04T04:57:20.278Z</time>
      </trkpt>
      <trkpt lat="45.91275" lon="6.83805">
        <ele>1199</ele>
        <time>2026-08-04T04:57:21.278Z</time>
      </trkpt>
      <trkpt lat="45.91273" lon="6.83805">
        <ele>1200</ele>
        <time>2026-08-04T04:57:22.278Z</time>
      </trkpt>
      <trkpt lat="45.91272" lon="6.83806">
        <ele>1200</ele>
        <time>2026-08-04T04:57:23.278Z</time>
      </trkpt>
      <trkpt lat="45.9127" lon="6.83805">
        <ele>1200</ele>
        <time>2026-08-04T04:57:24.278Z</time>
      </trkpt>
      <trkpt lat="45.91268" lon="6.83805">
        <ele>1200</ele>
        <time>2026-08-04T04:57:25.278Z</time>
      </trkpt>
      <trkpt lat="45.91267" lon="6.83805">
        <ele>1200</ele>
        <time>2026-08-04T04:57:26.278Z</time>
      </trkpt>
      <trkpt lat="45.91266" lon="6.83804">
        <ele>1200</ele>
        <time>2026-08-04T04:57:27.278Z</time>
      </trkpt>
      <trkpt lat="45.91264" lon="6.83803">
        <ele>1200</ele>
        <time>2026-08-04T04:57:28.278Z</time>
      </trkpt>
      <trkpt lat="45.91263" lon="6.83802">
        <ele>1200</ele>
        <time>2026-08-04T04:57:29.278Z</time>
      </trkpt>
      <trkpt lat="45.91261" lon="6.83801">
        <ele>1200</ele>
        <time>2026-08-04T04:57:30.278Z</time>
      </trkpt>
      <trkpt lat="45.9126" lon="6.838">
        <ele>1200</ele>
        <time>2026-08-04T04:57:31.278Z</time>
      </trkpt>
      <trkpt lat="45.91259" lon="6.838">
        <ele>1200</ele>
        <time>2026-08-04T04:57:32.278Z</time>
      </trkpt>
      <trkpt lat="45.91258" lon="6.83799">
        <ele>1200</ele>
        <time>2026-08-04T04:57:33.278Z</time>
      </trkpt>
      <trkpt lat="45.91257" lon="6.83797">
        <ele>1200</ele>
        <time>2026-08-04T04:57:34.278Z</time>
      </trkpt>
      <trkpt lat="45.91257" lon="6.83795">
        <ele>1200</ele>
        <time>2026-08-04T04:57:35.278Z</time>
      </trkpt>
      <trkpt lat="45.91256" lon="6.83795">
        <ele>1200</ele>
        <time>2026-08-04T04:57:36.278Z</time>
      </trkpt>
      <trkpt lat="45.91255" lon="6.83794">
        <ele>1200</ele>
        <time>2026-08-04T04:57:37.278Z</time>
      </trkpt>
      <trkpt lat="45.91254" lon="6.83794">
        <ele>1200</ele>
        <time>2026-08-04T04:57:38.278Z</time>
      </trkpt>
      <trkpt lat="45.91253" lon="6.83794">
        <ele>1199</ele>
        <time>2026-08-04T04:57:39.278Z</time>
      </trkpt>
      <trkpt lat="45.91252" lon="6.83793">
        <ele>1199</ele>
        <time>2026-08-04T04:57:40.278Z</time>
      </trkpt>
      <trkpt lat="45.9125" lon="6.83793">
        <ele>1200</ele>
        <time>2026-08-04T04:57:41.278Z</time>
      </trkpt>
      <trkpt lat="45.9125" lon="6.83792">
        <ele>1200</ele>
        <time>2026-08-04T04:57:42.278Z</time>
      </trkpt>
      <trkpt lat="45.91249" lon="6.83792">
        <ele>1200</ele>
        <time>2026-08-04T04:57:43.278Z</time>
      </trkpt>
      <trkpt lat="45.91249" lon="6.83792">
        <ele>1200</ele>
        <time>2026-08-04T04:57:44.278Z</time>
      </trkpt>
      <trkpt lat="45.91249" lon="6.83792">
        <ele>1200</ele>
        <time>2026-08-04T04:57:45.278Z</time>
      </trkpt>
      <trkpt lat="45.91249" lon="6.83792">
        <ele>1200</ele>
        <time>2026-08-04T04:57:46.278Z</time>
      </trkpt>
      <trkpt lat="45.91249" lon="6.83792">
        <ele>1200</ele>
        <time>2026-08-04T04:57:47.278Z</time>
      </trkpt>
      <trkpt lat="45.91249" lon="6.83792">
        <ele>1200</ele>
        <time>2026-08-04T04:57:48.278Z</time>
      </trkpt>
      <trkpt lat="45.91249" lon="6.83792">
        <ele>1200</ele>
        <time>2026-08-04T04:57:49.278Z</time>
      </trkpt>
      <trkpt lat="45.91249" lon="6.83793">
        <ele>1200</ele>
        <time>2026-08-04T04:57:50.278Z</time>
      </trkpt>
      <trkpt lat="45.91249" lon="6.83793">
        <ele>1199</ele>
        <time>2026-08-04T04:57:51.278Z</time>
      </trkpt>
      <trkpt lat="45.91249" lon="6.83793">
        <ele>1199</ele>
        <time>2026-08-04T04:57:52.278Z</time>
      </trkpt>
      <trkpt lat="45.91249" lon="6.83793">
        <ele>1199</ele>
        <time>2026-08-04T04:57:53.278Z</time>
      </trkpt>
      <trkpt lat="45.91249" lon="6.83793">
        <ele>1199</ele>
        <time>2026-08-04T04:57:54.278Z</time>
      </trkpt>
      <trkpt lat="45.91249" lon="6.83793">
        <ele>1199</ele>
        <time>2026-08-04T04:57:55.278Z</time>
      </trkpt>
      <trkpt lat="45.91249" lon="6.83793">
        <ele>1199</ele>
        <time>2026-08-04T04:57:56.278Z</time>
      </trkpt>
      <trkpt lat="45.91249" lon="6.83793">
        <ele>1199</ele>
        <time>2026-08-04T04:57:57.278Z</time>
      </trkpt>
      <trkpt lat="45.91249" lon="6.83793">
        <ele>1199</ele>
        <time>2026-08-04T04:57:58.278Z</time>
      </trkpt>
      <trkpt lat="45.91248" lon="6.83792">
        <ele>1199</ele>
        <time>2026-08-04T04:57:59.278Z</time>
      </trkpt>
      <trkpt lat="45.91247" lon="6.83791">
        <ele>1198</ele>
        <time>2026-08-04T04:58:00.278Z</time>
      </trkpt>
      <trkpt lat="45.91246" lon="6.8379">
        <ele>1197</ele>
        <time>2026-08-04T04:58:01.278Z</time>
      </trkpt>
      <trkpt lat="45.91245" lon="6.8379">
        <ele>1197</ele>
        <time>2026-08-04T04:58:02.278Z</time>
      </trkpt>
      <trkpt lat="45.91243" lon="6.83789">
        <ele>1197</ele>
        <time>2026-08-04T04:58:03.278Z</time>
      </trkpt>
      <trkpt lat="45.91242" lon="6.83789">
        <ele>1196</ele>
        <time>2026-08-04T04:58:04.278Z</time>
      </trkpt>
      <trkpt lat="45.9124" lon="6.83788">
        <ele>1195</ele>
        <time>2026-08-04T04:58:05.278Z</time>
      </trkpt>
      <trkpt lat="45.91239" lon="6.83787">
        <ele>1195</ele>
        <time>2026-08-04T04:58:06.278Z</time>
      </trkpt>
      <trkpt lat="45.91237" lon="6.83786">
        <ele>1195</ele>
        <time>2026-08-04T04:58:07.278Z</time>
      </trkpt>
      <trkpt lat="45.91236" lon="6.83785">
        <ele>1195</ele>
        <time>2026-08-04T04:58:08.278Z</time>
      </trkpt>
      <trkpt lat="45.91234" lon="6.83785">
        <ele>1194</ele>
        <time>2026-08-04T04:58:09.278Z</time>
      </trkpt>
      <trkpt lat="45.91233" lon="6.83783">
        <ele>1194</ele>
        <time>2026-08-04T04:58:10.278Z</time>
      </trkpt>
      <trkpt lat="45.91232" lon="6.83782">
        <ele>1193</ele>
        <time>2026-08-04T04:58:11.278Z</time>
      </trkpt>
      <trkpt lat="45.9123" lon="6.8378">
        <ele>1193</ele>
        <time>2026-08-04T04:58:12.278Z</time>
      </trkpt>
      <trkpt lat="45.91229" lon="6.83779">
        <ele>1193</ele>
        <time>2026-08-04T04:58:13.278Z</time>
      </trkpt>
      <trkpt lat="45.91227" lon="6.83777">
        <ele>1192</ele>
        <time>2026-08-04T04:58:14.278Z</time>
      </trkpt>
      <trkpt lat="45.91226" lon="6.83776">
        <ele>1192</ele>
        <time>2026-08-04T04:58:15.278Z</time>
      </trkpt>
      <trkpt lat="45.91224" lon="6.83774">
        <ele>1192</ele>
        <time>2026-08-04T04:58:16.278Z</time>
      </trkpt>
      <trkpt lat="45.91223" lon="6.83772">
        <ele>1191</ele>
        <time>2026-08-04T04:58:17.278Z</time>
      </trkpt>
      <trkpt lat="45.91222" lon="6.8377">
        <ele>1191</ele>
        <time>2026-08-04T04:58:18.278Z</time>
      </trkpt>
      <trkpt lat="45.91222" lon="6.83768">
        <ele>1190</ele>
        <time>2026-08-04T04:58:19.278Z</time>
      </trkpt>
      <trkpt lat="45.91221" lon="6.83766">
        <ele>1190</ele>
        <time>2026-08-04T04:58:20.278Z</time>
      </trkpt>
      <trkpt lat="45.9122" lon="6.83765">
        <ele>1190</ele>
        <time>2026-08-04T04:58:21.278Z</time>
      </trkpt>
      <trkpt lat="45.9122" lon="6.83764">
        <ele>1190</ele>
        <time>2026-08-04T04:58:22.278Z</time>
      </trkpt>
      <trkpt lat="45.91219" lon="6.83763">
        <ele>1190</ele>
        <time>2026-08-04T04:58:23.278Z</time>
      </trkpt>
      <trkpt lat="45.91219" lon="6.83763">
        <ele>1190</ele>
        <time>2026-08-04T04:58:24.278Z</time>
      </trkpt>
      <trkpt lat="45.91218" lon="6.83764">
        <ele>1189</ele>
        <time>2026-08-04T04:58:25.278Z</time>
      </trkpt>
      <trkpt lat="45.91218" lon="6.83766">
        <ele>1189</ele>
        <time>2026-08-04T04:58:26.278Z</time>
      </trkpt>
      <trkpt lat="45.91218" lon="6.83768">
        <ele>1189</ele>
        <time>2026-08-04T04:58:27.278Z</time>
      </trkpt>
      <trkpt lat="45.91219" lon="6.8377">
        <ele>1189</ele>
        <time>2026-08-04T04:58:28.278Z</time>
      </trkpt>
      <trkpt lat="45.91219" lon="6.83772">
        <ele>1189</ele>
        <time>2026-08-04T04:58:29.278Z</time>
      </trkpt>
      <trkpt lat="45.91219" lon="6.83775">
        <ele>1188</ele>
        <time>2026-08-04T04:58:30.278Z</time>
      </trkpt>
      <trkpt lat="45.91221" lon="6.83776">
        <ele>1188</ele>
        <time>2026-08-04T04:58:31.278Z</time>
      </trkpt>
      <trkpt lat="45.91221" lon="6.83777">
        <ele>1188</ele>
        <time>2026-08-04T04:58:32.278Z</time>
      </trkpt>
      <trkpt lat="45.91222" lon="6.83779">
        <ele>1188</ele>
        <time>2026-08-04T04:58:33.278Z</time>
      </trkpt>
      <trkpt lat="45.91223" lon="6.8378">
        <ele>1187</ele>
        <time>2026-08-04T04:58:34.278Z</time>
      </trkpt>
      <trkpt lat="45.91223" lon="6.83781">
        <ele>1187</ele>
        <time>2026-08-04T04:58:35.278Z</time>
      </trkpt>
      <trkpt lat="45.91223" lon="6.83781">
        <ele>1187</ele>
        <time>2026-08-04T04:58:36.278Z</time>
      </trkpt>
      <trkpt lat="45.91223" lon="6.83782">
        <ele>1187</ele>
        <time>2026-08-04T04:58:37.278Z</time>
      </trkpt>
      <trkpt lat="45.91224" lon="6.83783">
        <ele>1187</ele>
        <time>2026-08-04T04:58:38.278Z</time>
      </trkpt>
      <trkpt lat="45.91224" lon="6.83785">
        <ele>1187</ele>
        <time>2026-08-04T04:58:39.278Z</time>
      </trkpt>
      <trkpt lat="45.91224" lon="6.83787">
        <ele>1187</ele>
        <time>2026-08-04T04:58:40.278Z</time>
      </trkpt>
      <trkpt lat="45.91224" lon="6.83789">
        <ele>1187</ele>
        <time>2026-08-04T04:58:41.278Z</time>
      </trkpt>
      <trkpt lat="45.91225" lon="6.83791">
        <ele>1187</ele>
        <time>2026-08-04T04:58:42.278Z</time>
      </trkpt>
      <trkpt lat="45.91225" lon="6.83793">
        <ele>1187</ele>
        <time>2026-08-04T04:58:43.278Z</time>
      </trkpt>
      <trkpt lat="45.91225" lon="6.83795">
        <ele>1187</ele>
        <time>2026-08-04T04:58:44.278Z</time>
      </trkpt>
      <trkpt lat="45.91226" lon="6.83797">
        <ele>1188</ele>
        <time>2026-08-04T04:58:45.278Z</time>
      </trkpt>
      <trkpt lat="45.91226" lon="6.83799">
        <ele>1187</ele>
        <time>2026-08-04T04:58:46.278Z</time>
      </trkpt>
      <trkpt lat="45.91227" lon="6.83801">
        <ele>1187</ele>
        <time>2026-08-04T04:58:47.278Z</time>
      </trkpt>
      <trkpt lat="45.91227" lon="6.83803">
        <ele>1186</ele>
        <time>2026-08-04T04:58:48.278Z</time>
      </trkpt>
      <trkpt lat="45.91228" lon="6.83806">
        <ele>1186</ele>
        <time>2026-08-04T04:58:49.278Z</time>
      </trkpt>
      <trkpt lat="45.91228" lon="6.83809">
        <ele>1185</ele>
        <time>2026-08-04T04:58:50.278Z</time>
      </trkpt>
      <trkpt lat="45.91229" lon="6.83811">
        <ele>1184</ele>
        <time>2026-08-04T04:58:51.278Z</time>
      </trkpt>
      <trkpt lat="45.9123" lon="6.83813">
        <ele>1184</ele>
        <time>2026-08-04T04:58:52.278Z</time>
      </trkpt>
      <trkpt lat="45.91231" lon="6.83816">
        <ele>1183</ele>
        <time>2026-08-04T04:58:53.278Z</time>
      </trkpt>
      <trkpt lat="45.91232" lon="6.83818">
        <ele>1182</ele>
        <time>2026-08-04T04:58:54.278Z</time>
      </trkpt>
      <trkpt lat="45.91233" lon="6.8382">
        <ele>1182</ele>
        <time>2026-08-04T04:58:55.278Z</time>
      </trkpt>
      <trkpt lat="45.91233" lon="6.83823">
        <ele>1181</ele>
        <time>2026-08-04T04:58:56.278Z</time>
      </trkpt>
      <trkpt lat="45.91233" lon="6.83825">
        <ele>1180</ele>
        <time>2026-08-04T04:58:57.278Z</time>
      </trkpt>
      <trkpt lat="45.91233" lon="6.83827">
        <ele>1180</ele>
        <time>2026-08-04T04:58:58.278Z</time>
      </trkpt>
      <trkpt lat="45.91233" lon="6.83829">
        <ele>1179</ele>
        <time>2026-08-04T04:58:59.278Z</time>
      </trkpt>
      <trkpt lat="45.91233" lon="6.83832">
        <ele>1179</ele>
        <time>2026-08-04T04:59:00.278Z</time>
      </trkpt>
      <trkpt lat="45.91233" lon="6.83834">
        <ele>1179</ele>
        <time>2026-08-04T04:59:01.278Z</time>
      </trkpt>
      <trkpt lat="45.91233" lon="6.83836">
        <ele>1178</ele>
        <time>2026-08-04T04:59:02.278Z</time>
      </trkpt>
      <trkpt lat="45.91232" lon="6.83838">
        <ele>1178</ele>
        <time>2026-08-04T04:59:03.278Z</time>
      </trkpt>
      <trkpt lat="45.91232" lon="6.8384">
        <ele>1177</ele>
        <time>2026-08-04T04:59:04.278Z</time>
      </trkpt>
      <trkpt lat="45.91232" lon="6.83842">
        <ele>1176</ele>
        <time>2026-08-04T04:59:05.278Z</time>
      </trkpt>
      <trkpt lat="45.91233" lon="6.83845">
        <ele>1176</ele>
        <time>2026-08-04T04:59:06.278Z</time>
      </trkpt>
      <trkpt lat="45.91232" lon="6.83847">
        <ele>1175</ele>
        <time>2026-08-04T04:59:07.278Z</time>
      </trkpt>
      <trkpt lat="45.91232" lon="6.83849">
        <ele>1175</ele>
        <time>2026-08-04T04:59:08.278Z</time>
      </trkpt>
      <trkpt lat="45.91232" lon="6.8385">
        <ele>1174</ele>
        <time>2026-08-04T04:59:09.278Z</time>
      </trkpt>
      <trkpt lat="45.91233" lon="6.83852">
        <ele>1174</ele>
        <time>2026-08-04T04:59:10.278Z</time>
      </trkpt>
      <trkpt lat="45.91233" lon="6.83853">
        <ele>1173</ele>
        <time>2026-08-04T04:59:11.278Z</time>
      </trkpt>
      <trkpt lat="45.91233" lon="6.83853">
        <ele>1172</ele>
        <time>2026-08-04T04:59:12.278Z</time>
      </trkpt>
      <trkpt lat="45.91233" lon="6.83854">
        <ele>1172</ele>
        <time>2026-08-04T04:59:13.278Z</time>
      </trkpt>
      <trkpt lat="45.91233" lon="6.83855">
        <ele>1171</ele>
        <time>2026-08-04T04:59:14.278Z</time>
      </trkpt>
      <trkpt lat="45.91233" lon="6.83856">
        <ele>1171</ele>
        <time>2026-08-04T04:59:15.278Z</time>
      </trkpt>
      <trkpt lat="45.91234" lon="6.83857">
        <ele>1171</ele>
        <time>2026-08-04T04:59:16.278Z</time>
      </trkpt>
      <trkpt lat="45.91234" lon="6.83859">
        <ele>1171</ele>
        <time>2026-08-04T04:59:17.278Z</time>
      </trkpt>
      <trkpt lat="45.91234" lon="6.8386">
        <ele>1171</ele>
        <time>2026-08-04T04:59:18.278Z</time>
      </trkpt>
      <trkpt lat="45.91234" lon="6.83861">
        <ele>1171</ele>
        <time>2026-08-04T04:59:19.278Z</time>
      </trkpt>
      <trkpt lat="45.91234" lon="6.83862">
        <ele>1170</ele>
        <time>2026-08-04T04:59:20.278Z</time>
      </trkpt>
      <trkpt lat="45.91234" lon="6.83862">
        <ele>1170</ele>
        <time>2026-08-04T04:59:21.278Z</time>
      </trkpt>
      <trkpt lat="45.91234" lon="6.83862">
        <ele>1170</ele>
        <time>2026-08-04T04:59:22.278Z</time>
      </trkpt>
      <trkpt lat="45.91234" lon="6.83863">
        <ele>1169</ele>
        <time>2026-08-04T04:59:23.278Z</time>
      </trkpt>
      <trkpt lat="45.91234" lon="6.83865">
        <ele>1169</ele>
        <time>2026-08-04T04:59:24.278Z</time>
      </trkpt>
      <trkpt lat="45.91234" lon="6.83866">
        <ele>1169</ele>
        <time>2026-08-04T04:59:25.278Z</time>
      </trkpt>
      <trkpt lat="45.91234" lon="6.83867">
        <ele>1169</ele>
        <time>2026-08-04T04:59:26.278Z</time>
      </trkpt>
      <trkpt lat="45.91234" lon="6.83867">
        <ele>1169</ele>
        <time>2026-08-04T04:59:27.278Z</time>
      </trkpt>
      <trkpt lat="45.91234" lon="6.83868">
        <ele>1169</ele>
        <time>2026-08-04T04:59:28.278Z</time>
      </trkpt>
      <trkpt lat="45.91233" lon="6.83869">
        <ele>1168</ele>
        <time>2026-08-04T04:59:29.278Z</time>
      </trkpt>
      <trkpt lat="45.91233" lon="6.83869">
        <ele>1168</ele>
        <time>2026-08-04T04:59:30.278Z</time>
      </trkpt>
      <trkpt lat="45.91233" lon="6.83869">
        <ele>1168</ele>
        <time>2026-08-04T04:59:31.278Z</time>
      </trkpt>
      <trkpt lat="45.91233" lon="6.83869">
        <ele>1168</ele>
        <time>2026-08-04T04:59:32.278Z</time>
      </trkpt>
      <trkpt lat="45.91233" lon="6.83869">
        <ele>1168</ele>
        <time>2026-08-04T04:59:33.278Z</time>
      </trkpt>
      <trkpt lat="45.91233" lon="6.83869">
        <ele>1168</ele>
        <time>2026-08-04T04:59:34.278Z</time>
      </trkpt>
      <trkpt lat="45.91233" lon="6.83869">
        <ele>1168</ele>
        <time>2026-08-04T04:59:35.278Z</time>
      </trkpt>
      <trkpt lat="45.91233" lon="6.83869">
        <ele>1168</ele>
        <time>2026-08-04T04:59:36.278Z</time>
      </trkpt>
      <trkpt lat="45.91233" lon="6.83868">
        <ele>1167</ele>
        <time>2026-08-04T04:59:37.278Z</time>
      </trkpt>
      <trkpt lat="45.91233" lon="6.83868">
        <ele>1167</ele>
        <time>2026-08-04T04:59:38.278Z</time>
      </trkpt>
      <trkpt lat="45.91232" lon="6.83868">
        <ele>1166</ele>
        <time>2026-08-04T04:59:39.278Z</time>
      </trkpt>
      <trkpt lat="45.91232" lon="6.83868">
        <ele>1166</ele>
        <time>2026-08-04T04:59:40.278Z</time>
      </trkpt>
      <trkpt lat="45.91232" lon="6.83867">
        <ele>1166</ele>
        <time>2026-08-04T04:59:41.278Z</time>
      </trkpt>
      <trkpt lat="45.91232" lon="6.83866">
        <ele>1165</ele>
        <time>2026-08-04T04:59:42.278Z</time>
      </trkpt>
      <trkpt lat="45.91232" lon="6.83865">
        <ele>1165</ele>
        <time>2026-08-04T04:59:43.278Z</time>
      </trkpt>
      <trkpt lat="45.91232" lon="6.83864">
        <ele>1165</ele>
        <time>2026-08-04T04:59:44.278Z</time>
      </trkpt>
      <trkpt lat="45.91232" lon="6.83863">
        <ele>1165</ele>
        <time>2026-08-04T04:59:45.278Z</time>
      </trkpt>
      <trkpt lat="45.91232" lon="6.83862">
        <ele>1165</ele>
        <time>2026-08-04T04:59:46.278Z</time>
      </trkpt>
      <trkpt lat="45.91231" lon="6.83861">
        <ele>1165</ele>
        <time>2026-08-04T04:59:47.278Z</time>
      </trkpt>
      <trkpt lat="45.91231" lon="6.83859">
        <ele>1165</ele>
        <time>2026-08-04T04:59:48.278Z</time>
      </trkpt>
      <trkpt lat="45.9123" lon="6.83856">
        <ele>1165</ele>
        <time>2026-08-04T04:59:49.278Z</time>
      </trkpt>
      <trkpt lat="45.91229" lon="6.83854">
        <ele>1165</ele>
        <time>2026-08-04T04:59:50.278Z</time>
      </trkpt>
      <trkpt lat="45.91229" lon="6.83852">
        <ele>1164</ele>
        <time>2026-08-04T04:59:51.278Z</time>
      </trkpt>
      <trkpt lat="45.91228" lon="6.83851">
        <ele>1164</ele>
        <time>2026-08-04T04:59:52.278Z</time>
      </trkpt>
      <trkpt lat="45.91227" lon="6.8385">
        <ele>1164</ele>
        <time>2026-08-04T04:59:53.278Z</time>
      </trkpt>
      <trkpt lat="45.91226" lon="6.83849">
        <ele>1164</ele>
        <time>2026-08-04T04:59:54.278Z</time>
      </trkpt>
      <trkpt lat="45.91225" lon="6.83848">
        <ele>1164</ele>
        <time>2026-08-04T04:59:55.278Z</time>
      </trkpt>
      <trkpt lat="45.91224" lon="6.83846">
        <ele>1164</ele>
        <time>2026-08-04T04:59:56.278Z</time>
      </trkpt>
      <trkpt lat="45.91223" lon="6.83845">
        <ele>1164</ele>
        <time>2026-08-04T04:59:57.278Z</time>
      </trkpt>
      <trkpt lat="45.91222" lon="6.83843">
        <ele>1164</ele>
        <time>2026-08-04T04:59:58.278Z</time>
      </trkpt>
      <trkpt lat="45.91222" lon="6.83842">
        <ele>1165</ele>
        <time>2026-08-04T04:59:59.278Z</time>
      </trkpt>
      <trkpt lat="45.91222" lon="6.83841">
        <ele>1165</ele>
        <time>2026-08-04T05:00:00.278Z</time>
      </trkpt>
      <trkpt lat="45.91221" lon="6.8384">
        <ele>1165</ele>
        <time>2026-08-04T05:00:01.278Z</time>
      </trkpt>
      <trkpt lat="45.9122" lon="6.8384">
        <ele>1166</ele>
        <time>2026-08-04T05:00:02.278Z</time>
      </trkpt>
      <trkpt lat="45.91219" lon="6.8384">
        <ele>1167</ele>
        <time>2026-08-04T05:00:03.278Z</time>
      </trkpt>
      <trkpt lat="45.91219" lon="6.83841">
        <ele>1167</ele>
        <time>2026-08-04T05:00:04.278Z</time>
      </trkpt>
      <trkpt lat="45.91219" lon="6.83842">
        <ele>1167</ele>
        <time>2026-08-04T05:00:05.278Z</time>
      </trkpt>
      <trkpt lat="45.91218" lon="6.83844">
        <ele>1167</ele>
        <time>2026-08-04T05:00:06.278Z</time>
      </trkpt>
      <trkpt lat="45.91218" lon="6.83847">
        <ele>1167</ele>
        <time>2026-08-04T05:00:07.278Z</time>
      </trkpt>
      <trkpt lat="45.91218" lon="6.8385">
        <ele>1168</ele>
        <time>2026-08-04T05:00:08.278Z</time>
      </trkpt>
      <trkpt lat="45.91218" lon="6.83852">
        <ele>1168</ele>
        <time>2026-08-04T05:00:09.278Z</time>
      </trkpt>
      <trkpt lat="45.91218" lon="6.83853">
        <ele>1168</ele>
        <time>2026-08-04T05:00:10.278Z</time>
      </trkpt>
      <trkpt lat="45.91219" lon="6.83855">
        <ele>1168</ele>
        <time>2026-08-04T05:00:11.278Z</time>
      </trkpt>
      <trkpt lat="45.91219" lon="6.83857">
        <ele>1168</ele>
        <time>2026-08-04T05:00:12.278Z</time>
      </trkpt>
      <trkpt lat="45.91218" lon="6.8386">
        <ele>1168</ele>
        <time>2026-08-04T05:00:13.278Z</time>
      </trkpt>
      <trkpt lat="45.91218" lon="6.83861">
        <ele>1168</ele>
        <time>2026-08-04T05:00:14.278Z</time>
      </trkpt>
      <trkpt lat="45.91218" lon="6.83864">
        <ele>1168</ele>
        <time>2026-08-04T05:00:15.278Z</time>
      </trkpt>
      <trkpt lat="45.91218" lon="6.83865">
        <ele>1168</ele>
        <time>2026-08-04T05:00:16.278Z</time>
      </trkpt>
      <trkpt lat="45.91217" lon="6.83867">
        <ele>1168</ele>
        <time>2026-08-04T05:00:17.278Z</time>
      </trkpt>
      <trkpt lat="45.91217" lon="6.83869">
        <ele>1168</ele>
        <time>2026-08-04T05:00:18.278Z</time>
      </trkpt>
      <trkpt lat="45.91217" lon="6.83871">
        <ele>1167</ele>
        <time>2026-08-04T05:00:19.278Z</time>
      </trkpt>
      <trkpt lat="45.91217" lon="6.83873">
        <ele>1167</ele>
        <time>2026-08-04T05:00:20.278Z</time>
      </trkpt>
      <trkpt lat="45.91218" lon="6.83875">
        <ele>1167</ele>
        <time>2026-08-04T05:00:21.278Z</time>
      </trkpt>
      <trkpt lat="45.91219" lon="6.83876">
        <ele>1166</ele>
        <time>2026-08-04T05:00:22.278Z</time>
      </trkpt>
      <trkpt lat="45.9122" lon="6.83877">
        <ele>1166</ele>
        <time>2026-08-04T05:00:23.278Z</time>
      </trkpt>
      <trkpt lat="45.9122" lon="6.83878">
        <ele>1165</ele>
        <time>2026-08-04T05:00:24.278Z</time>
      </trkpt>
      <trkpt lat="45.91221" lon="6.83878">
        <ele>1164</ele>
        <time>2026-08-04T05:00:25.278Z</time>
      </trkpt>
      <trkpt lat="45.91222" lon="6.83878">
        <ele>1164</ele>
        <time>2026-08-04T05:00:26.278Z</time>
      </trkpt>
      <trkpt lat="45.91224" lon="6.83878">
        <ele>1163</ele>
        <time>2026-08-04T05:00:27.278Z</time>
      </trkpt>
      <trkpt lat="45.91226" lon="6.83879">
        <ele>1163</ele>
        <time>2026-08-04T05:00:28.278Z</time>
      </trkpt>
      <trkpt lat="45.91228" lon="6.83881">
        <ele>1162</ele>
        <time>2026-08-04T05:00:29.278Z</time>
      </trkpt>
      <trkpt lat="45.91229" lon="6.83883">
        <ele>1161</ele>
        <time>2026-08-04T05:00:30.278Z</time>
      </trkpt>
      <trkpt lat="45.91229" lon="6.83886">
        <ele>1161</ele>
        <time>2026-08-04T05:00:31.278Z</time>
      </trkpt>
      <trkpt lat="45.91229" lon="6.83889">
        <ele>1160</ele>
        <time>2026-08-04T05:00:32.278Z</time>
      </trkpt>
      <trkpt lat="45.91229" lon="6.8389">
        <ele>1160</ele>
        <time>2026-08-04T05:00:33.278Z</time>
      </trkpt>
      <trkpt lat="45.91228" lon="6.83892">
        <ele>1159</ele>
        <time>2026-08-04T05:00:34.278Z</time>
      </trkpt>
      <trkpt lat="45.91227" lon="6.83893">
        <ele>1159</ele>
        <time>2026-08-04T05:00:35.278Z</time>
      </trkpt>
      <trkpt lat="45.91227" lon="6.83894">
        <ele>1158</ele>
        <time>2026-08-04T05:00:36.278Z</time>
      </trkpt>
      <trkpt lat="45.91227" lon="6.83896">
        <ele>1158</ele>
        <time>2026-08-04T05:00:37.278Z</time>
      </trkpt>
      <trkpt lat="45.91227" lon="6.83897">
        <ele>1157</ele>
        <time>2026-08-04T05:00:38.278Z</time>
      </trkpt>
      <trkpt lat="45.91227" lon="6.83897">
        <ele>1156</ele>
        <time>2026-08-04T05:00:39.278Z</time>
      </trkpt>
      <trkpt lat="45.91227" lon="6.83899">
        <ele>1156</ele>
        <time>2026-08-04T05:00:40.278Z</time>
      </trkpt>
      <trkpt lat="45.91227" lon="6.839">
        <ele>1155</ele>
        <time>2026-08-04T05:00:41.278Z</time>
      </trkpt>
      <trkpt lat="45.91227" lon="6.83902">
        <ele>1155</ele>
        <time>2026-08-04T05:00:42.278Z</time>
      </trkpt>
      <trkpt lat="45.91227" lon="6.83904">
        <ele>1155</ele>
        <time>2026-08-04T05:00:43.278Z</time>
      </trkpt>
      <trkpt lat="45.91227" lon="6.83907">
        <ele>1154</ele>
        <time>2026-08-04T05:00:44.278Z</time>
      </trkpt>
      <trkpt lat="45.91227" lon="6.83909">
        <ele>1154</ele>
        <time>2026-08-04T05:00:45.278Z</time>
      </trkpt>
      <trkpt lat="45.91228" lon="6.83912">
        <ele>1154</ele>
        <time>2026-08-04T05:00:46.278Z</time>
      </trkpt>
      <trkpt lat="45.91229" lon="6.83914">
        <ele>1153</ele>
        <time>2026-08-04T05:00:47.278Z</time>
      </trkpt>
      <trkpt lat="45.91229" lon="6.83916">
        <ele>1153</ele>
        <time>2026-08-04T05:00:48.278Z</time>
      </trkpt>
      <trkpt lat="45.9123" lon="6.83918">
        <ele>1152</ele>
        <time>2026-08-04T05:00:49.278Z</time>
      </trkpt>
      <trkpt lat="45.91231" lon="6.83921">
        <ele>1152</ele>
        <time>2026-08-04T05:00:50.278Z</time>
      </trkpt>
      <trkpt lat="45.91231" lon="6.83923">
        <ele>1151</ele>
        <time>2026-08-04T05:00:51.278Z</time>
      </trkpt>
      <trkpt lat="45.91231" lon="6.83926">
        <ele>1151</ele>
        <time>2026-08-04T05:00:52.278Z</time>
      </trkpt>
      <trkpt lat="45.9123" lon="6.83928">
        <ele>1151</ele>
        <time>2026-08-04T05:00:53.278Z</time>
      </trkpt>
      <trkpt lat="45.9123" lon="6.8393">
        <ele>1151</ele>
        <time>2026-08-04T05:00:54.278Z</time>
      </trkpt>
      <trkpt lat="45.91231" lon="6.83932">
        <ele>1151</ele>
        <time>2026-08-04T05:00:55.278Z</time>
      </trkpt>
      <trkpt lat="45.91231" lon="6.83934">
        <ele>1152</ele>
        <time>2026-08-04T05:00:56.278Z</time>
      </trkpt>
      <trkpt lat="45.9123" lon="6.83935">
        <ele>1152</ele>
        <time>2026-08-04T05:00:57.278Z</time>
      </trkpt>
      <trkpt lat="45.9123" lon="6.83937">
        <ele>1152</ele>
        <time>2026-08-04T05:00:58.278Z</time>
      </trkpt>
      <trkpt lat="45.91231" lon="6.83938">
        <ele>1152</ele>
        <time>2026-08-04T05:00:59.278Z</time>
      </trkpt>
      <trkpt lat="45.91231" lon="6.8394">
        <ele>1152</ele>
        <time>2026-08-04T05:01:00.278Z</time>
      </trkpt>
      <trkpt lat="45.9123" lon="6.83941">
        <ele>1153</ele>
        <time>2026-08-04T05:01:01.278Z</time>
      </trkpt>
      <trkpt lat="45.9123" lon="6.83943">
        <ele>1153</ele>
        <time>2026-08-04T05:01:02.278Z</time>
      </trkpt>
      <trkpt lat="45.91229" lon="6.83945">
        <ele>1153</ele>
        <time>2026-08-04T05:01:03.278Z</time>
      </trkpt>
      <trkpt lat="45.9123" lon="6.83947">
        <ele>1152</ele>
        <time>2026-08-04T05:01:04.278Z</time>
      </trkpt>
      <trkpt lat="45.91231" lon="6.83949">
        <ele>1152</ele>
        <time>2026-08-04T05:01:05.278Z</time>
      </trkpt>
      <trkpt lat="45.91232" lon="6.83952">
        <ele>1151</ele>
        <time>2026-08-04T05:01:06.278Z</time>
      </trkpt>
      <trkpt lat="45.91233" lon="6.83954">
        <ele>1151</ele>
        <time>2026-08-04T05:01:07.278Z</time>
      </trkpt>
      <trkpt lat="45.91234" lon="6.83956">
        <ele>1151</ele>
        <time>2026-08-04T05:01:08.278Z</time>
      </trkpt>
      <trkpt lat="45.91236" lon="6.83958">
        <ele>1150</ele>
        <time>2026-08-04T05:01:09.278Z</time>
      </trkpt>
      <trkpt lat="45.91237" lon="6.83959">
        <ele>1150</ele>
        <time>2026-08-04T05:01:10.278Z</time>
      </trkpt>
      <trkpt lat="45.91238" lon="6.8396">
        <ele>1150</ele>
        <time>2026-08-04T05:01:11.278Z</time>
      </trkpt>
      <trkpt lat="45.91239" lon="6.83962">
        <ele>1149</ele>
        <time>2026-08-04T05:01:12.278Z</time>
      </trkpt>
      <trkpt lat="45.9124" lon="6.83964">
        <ele>1149</ele>
        <time>2026-08-04T05:01:13.278Z</time>
      </trkpt>
      <trkpt lat="45.91241" lon="6.83966">
        <ele>1149</ele>
        <time>2026-08-04T05:01:14.278Z</time>
      </trkpt>
      <trkpt lat="45.91243" lon="6.83968">
        <ele>1149</ele>
        <time>2026-08-04T05:01:15.278Z</time>
      </trkpt>
      <trkpt lat="45.91244" lon="6.83968">
        <ele>1149</ele>
        <time>2026-08-04T05:01:16.278Z</time>
      </trkpt>
      <trkpt lat="45.91246" lon="6.83968">
        <ele>1149</ele>
        <time>2026-08-04T05:01:17.278Z</time>
      </trkpt>
      <trkpt lat="45.91247" lon="6.83969">
        <ele>1149</ele>
        <time>2026-08-04T05:01:18.278Z</time>
      </trkpt>
      <trkpt lat="45.91248" lon="6.8397">
        <ele>1150</ele>
        <time>2026-08-04T05:01:19.278Z</time>
      </trkpt>
      <trkpt lat="45.91249" lon="6.83972">
        <ele>1150</ele>
        <time>2026-08-04T05:01:20.278Z</time>
      </trkpt>
      <trkpt lat="45.9125" lon="6.83974">
        <ele>1150</ele>
        <time>2026-08-04T05:01:21.278Z</time>
      </trkpt>
      <trkpt lat="45.9125" lon="6.83975">
        <ele>1149</ele>
        <time>2026-08-04T05:01:22.278Z</time>
      </trkpt>
      <trkpt lat="45.91251" lon="6.83976">
        <ele>1149</ele>
        <time>2026-08-04T05:01:23.278Z</time>
      </trkpt>
      <trkpt lat="45.91252" lon="6.83977">
        <ele>1149</ele>
        <time>2026-08-04T05:01:24.278Z</time>
      </trkpt>
      <trkpt lat="45.91252" lon="6.83978">
        <ele>1150</ele>
        <time>2026-08-04T05:01:25.278Z</time>
      </trkpt>
      <trkpt lat="45.91252" lon="6.83979">
        <ele>1150</ele>
        <time>2026-08-04T05:01:26.278Z</time>
      </trkpt>
      <trkpt lat="45.91254" lon="6.8398">
        <ele>1150</ele>
        <time>2026-08-04T05:01:27.278Z</time>
      </trkpt>
      <trkpt lat="45.91256" lon="6.83982">
        <ele>1150</ele>
        <time>2026-08-04T05:01:28.278Z</time>
      </trkpt>
      <trkpt lat="45.91258" lon="6.83984">
        <ele>1150</ele>
        <time>2026-08-04T05:01:29.278Z</time>
      </trkpt>
      <trkpt lat="45.91261" lon="6.83986">
        <ele>1150</ele>
        <time>2026-08-04T05:01:30.278Z</time>
      </trkpt>
      <trkpt lat="45.91262" lon="6.83988">
        <ele>1150</ele>
        <time>2026-08-04T05:01:31.278Z</time>
      </trkpt>
      <trkpt lat="45.91264" lon="6.83989">
        <ele>1150</ele>
        <time>2026-08-04T05:01:32.278Z</time>
      </trkpt>
      <trkpt lat="45.91266" lon="6.83992">
        <ele>1150</ele>
        <time>2026-08-04T05:01:33.278Z</time>
      </trkpt>
      <trkpt lat="45.91268" lon="6.83994">
        <ele>1150</ele>
        <time>2026-08-04T05:01:34.278Z</time>
      </trkpt>
      <trkpt lat="45.91269" lon="6.83996">
        <ele>1150</ele>
        <time>2026-08-04T05:01:35.278Z</time>
      </trkpt>
      <trkpt lat="45.9127" lon="6.83998">
        <ele>1149</ele>
        <time>2026-08-04T05:01:36.278Z</time>
      </trkpt>
      <trkpt lat="45.9127" lon="6.83999">
        <ele>1149</ele>
        <time>2026-08-04T05:01:37.278Z</time>
      </trkpt>
      <trkpt lat="45.9127" lon="6.84">
        <ele>1149</ele>
        <time>2026-08-04T05:01:38.278Z</time>
      </trkpt>
      <trkpt lat="45.91271" lon="6.84001">
        <ele>1149</ele>
        <time>2026-08-04T05:01:39.278Z</time>
      </trkpt>
      <trkpt lat="45.91271" lon="6.84003">
        <ele>1148</ele>
        <time>2026-08-04T05:01:40.278Z</time>
      </trkpt>
      <trkpt lat="45.91272" lon="6.84004">
        <ele>1148</ele>
        <time>2026-08-04T05:01:41.278Z</time>
      </trkpt>
      <trkpt lat="45.91272" lon="6.84006">
        <ele>1148</ele>
        <time>2026-08-04T05:01:42.278Z</time>
      </trkpt>
      <trkpt lat="45.91273" lon="6.84007">
        <ele>1148</ele>
        <time>2026-08-04T05:01:43.278Z</time>
      </trkpt>
      <trkpt lat="45.91274" lon="6.84009">
        <ele>1148</ele>
        <time>2026-08-04T05:01:44.278Z</time>
      </trkpt>
      <trkpt lat="45.91274" lon="6.8401">
        <ele>1147</ele>
        <time>2026-08-04T05:01:45.278Z</time>
      </trkpt>
      <trkpt lat="45.91273" lon="6.84012">
        <ele>1146</ele>
        <time>2026-08-04T05:01:46.278Z</time>
      </trkpt>
      <trkpt lat="45.91273" lon="6.84013">
        <ele>1145</ele>
        <time>2026-08-04T05:01:47.278Z</time>
      </trkpt>
      <trkpt lat="45.91273" lon="6.84015">
        <ele>1145</ele>
        <time>2026-08-04T05:01:48.278Z</time>
      </trkpt>
      <trkpt lat="45.91273" lon="6.84017">
        <ele>1144</ele>
        <time>2026-08-04T05:01:49.278Z</time>
      </trkpt>
      <trkpt lat="45.91273" lon="6.84019">
        <ele>1144</ele>
        <time>2026-08-04T05:01:50.278Z</time>
      </trkpt>
      <trkpt lat="45.91274" lon="6.84021">
        <ele>1144</ele>
        <time>2026-08-04T05:01:51.278Z</time>
      </trkpt>
      <trkpt lat="45.91274" lon="6.84023">
        <ele>1143</ele>
        <time>2026-08-04T05:01:52.278Z</time>
      </trkpt>
      <trkpt lat="45.91275" lon="6.84025">
        <ele>1142</ele>
        <time>2026-08-04T05:01:53.278Z</time>
      </trkpt>
      <trkpt lat="45.91276" lon="6.84027">
        <ele>1141</ele>
        <time>2026-08-04T05:01:54.278Z</time>
      </trkpt>
      <trkpt lat="45.91277" lon="6.84028">
        <ele>1141</ele>
        <time>2026-08-04T05:01:55.278Z</time>
      </trkpt>
      <trkpt lat="45.91278" lon="6.8403">
        <ele>1140</ele>
        <time>2026-08-04T05:01:56.278Z</time>
      </trkpt>
      <trkpt lat="45.91279" lon="6.84031">
        <ele>1140</ele>
        <time>2026-08-04T05:01:57.278Z</time>
      </trkpt>
      <trkpt lat="45.9128" lon="6.84032">
        <ele>1140</ele>
        <time>2026-08-04T05:01:58.278Z</time>
      </trkpt>
      <trkpt lat="45.91282" lon="6.84034">
        <ele>1140</ele>
        <time>2026-08-04T05:01:59.278Z</time>
      </trkpt>
      <trkpt lat="45.91285" lon="6.84036">
        <ele>1139</ele>
        <time>2026-08-04T05:02:00.278Z</time>
      </trkpt>
      <trkpt lat="45.91286" lon="6.84037">
        <ele>1139</ele>
        <time>2026-08-04T05:02:01.278Z</time>
      </trkpt>
      <trkpt lat="45.91288" lon="6.84038">
        <ele>1138</ele>
        <time>2026-08-04T05:02:02.278Z</time>
      </trkpt>
      <trkpt lat="45.91289" lon="6.84039">
        <ele>1138</ele>
        <time>2026-08-04T05:02:03.278Z</time>
      </trkpt>
      <trkpt lat="45.9129" lon="6.8404">
        <ele>1138</ele>
        <time>2026-08-04T05:02:04.278Z</time>
      </trkpt>
      <trkpt lat="45.91291" lon="6.84041">
        <ele>1138</ele>
        <time>2026-08-04T05:02:05.278Z</time>
      </trkpt>
      <trkpt lat="45.91293" lon="6.84042">
        <ele>1138</ele>
        <time>2026-08-04T05:02:06.278Z</time>
      </trkpt>
      <trkpt lat="45.91295" lon="6.84044">
        <ele>1137</ele>
        <time>2026-08-04T05:02:07.278Z</time>
      </trkpt>
      <trkpt lat="45.91296" lon="6.84045">
        <ele>1137</ele>
        <time>2026-08-04T05:02:08.278Z</time>
      </trkpt>
      <trkpt lat="45.91298" lon="6.84046">
        <ele>1137</ele>
        <time>2026-08-04T05:02:09.278Z</time>
      </trkpt>
      <trkpt lat="45.91299" lon="6.84048">
        <ele>1137</ele>
        <time>2026-08-04T05:02:10.278Z</time>
      </trkpt>
      <trkpt lat="45.913" lon="6.8405">
        <ele>1137</ele>
        <time>2026-08-04T05:02:11.278Z</time>
      </trkpt>
      <trkpt lat="45.91302" lon="6.84051">
        <ele>1137</ele>
        <time>2026-08-04T05:02:12.278Z</time>
      </trkpt>
      <trkpt lat="45.91304" lon="6.84052">
        <ele>1136</ele>
        <time>2026-08-04T05:02:13.278Z</time>
      </trkpt>
      <trkpt lat="45.91305" lon="6.84053">
        <ele>1136</ele>
        <time>2026-08-04T05:02:14.278Z</time>
      </trkpt>
      <trkpt lat="45.91306" lon="6.84054">
        <ele>1135</ele>
        <time>2026-08-04T05:02:15.278Z</time>
      </trkpt>
      <trkpt lat="45.91307" lon="6.84055">
        <ele>1135</ele>
        <time>2026-08-04T05:02:16.278Z</time>
      </trkpt>
      <trkpt lat="45.91308" lon="6.84057">
        <ele>1135</ele>
        <time>2026-08-04T05:02:17.278Z</time>
      </trkpt>
      <trkpt lat="45.91308" lon="6.84057">
        <ele>1134</ele>
        <time>2026-08-04T05:02:18.278Z</time>
      </trkpt>
      <trkpt lat="45.91308" lon="6.84058">
        <ele>1134</ele>
        <time>2026-08-04T05:02:19.278Z</time>
      </trkpt>
      <trkpt lat="45.91308" lon="6.84058">
        <ele>1134</ele>
        <time>2026-08-04T05:02:20.278Z</time>
      </trkpt>
      <trkpt lat="45.91308" lon="6.84058">
        <ele>1134</ele>
        <time>2026-08-04T05:02:21.278Z</time>
      </trkpt>
      <trkpt lat="45.91308" lon="6.84058">
        <ele>1134</ele>
        <time>2026-08-04T05:02:22.278Z</time>
      </trkpt>
      <trkpt lat="45.91308" lon="6.84058">
        <ele>1135</ele>
        <time>2026-08-04T05:02:23.278Z</time>
      </trkpt>
      <trkpt lat="45.91308" lon="6.84061">
        <ele>1135</ele>
        <time>2026-08-04T05:02:24.278Z</time>
      </trkpt>
      <trkpt lat="45.91309" lon="6.84064">
        <ele>1135</ele>
        <time>2026-08-04T05:02:25.278Z</time>
      </trkpt>
      <trkpt lat="45.91309" lon="6.84066">
        <ele>1136</ele>
        <time>2026-08-04T05:02:26.278Z</time>
      </trkpt>
      <trkpt lat="45.91309" lon="6.84068">
        <ele>1136</ele>
        <time>2026-08-04T05:02:27.278Z</time>
      </trkpt>
      <trkpt lat="45.91308" lon="6.8407">
        <ele>1137</ele>
        <time>2026-08-04T05:02:28.278Z</time>
      </trkpt>
      <trkpt lat="45.91307" lon="6.84072">
        <ele>1138</ele>
        <time>2026-08-04T05:02:29.278Z</time>
      </trkpt>
      <trkpt lat="45.91307" lon="6.84074">
        <ele>1138</ele>
        <time>2026-08-04T05:02:30.278Z</time>
      </trkpt>
      <trkpt lat="45.91307" lon="6.84075">
        <ele>1139</ele>
        <time>2026-08-04T05:02:31.278Z</time>
      </trkpt>
      <trkpt lat="45.91307" lon="6.84076">
        <ele>1139</ele>
        <time>2026-08-04T05:02:32.278Z</time>
      </trkpt>
      <trkpt lat="45.91307" lon="6.84077">
        <ele>1139</ele>
        <time>2026-08-04T05:02:33.278Z</time>
      </trkpt>
      <trkpt lat="45.91307" lon="6.84078">
        <ele>1139</ele>
        <time>2026-08-04T05:02:34.278Z</time>
      </trkpt>
      <trkpt lat="45.91306" lon="6.84079">
        <ele>1139</ele>
        <time>2026-08-04T05:02:35.278Z</time>
      </trkpt>
      <trkpt lat="45.91306" lon="6.8408">
        <ele>1139</ele>
        <time>2026-08-04T05:02:36.278Z</time>
      </trkpt>
      <trkpt lat="45.91305" lon="6.84081">
        <ele>1138</ele>
        <time>2026-08-04T05:02:37.278Z</time>
      </trkpt>
      <trkpt lat="45.91304" lon="6.84082">
        <ele>1138</ele>
        <time>2026-08-04T05:02:38.278Z</time>
      </trkpt>
      <trkpt lat="45.91304" lon="6.84083">
        <ele>1138</ele>
        <time>2026-08-04T05:02:39.278Z</time>
      </trkpt>
      <trkpt lat="45.91303" lon="6.84084">
        <ele>1138</ele>
        <time>2026-08-04T05:02:40.278Z</time>
      </trkpt>
      <trkpt lat="45.91302" lon="6.84086">
        <ele>1138</ele>
        <time>2026-08-04T05:02:41.278Z</time>
      </trkpt>
      <trkpt lat="45.91301" lon="6.84087">
        <ele>1138</ele>
        <time>2026-08-04T05:02:42.278Z</time>
      </trkpt>
      <trkpt lat="45.91299" lon="6.84088">
        <ele>1137</ele>
        <time>2026-08-04T05:02:43.278Z</time>
      </trkpt>
      <trkpt lat="45.91297" lon="6.8409">
        <ele>1137</ele>
        <time>2026-08-04T05:02:44.278Z</time>
      </trkpt>
      <trkpt lat="45.91295" lon="6.84091">
        <ele>1136</ele>
        <time>2026-08-04T05:02:45.278Z</time>
      </trkpt>
      <trkpt lat="45.91293" lon="6.84092">
        <ele>1136</ele>
        <time>2026-08-04T05:02:46.278Z</time>
      </trkpt>
      <trkpt lat="45.91292" lon="6.84093">
        <ele>1136</ele>
        <time>2026-08-04T05:02:47.278Z</time>
      </trkpt>
      <trkpt lat="45.9129" lon="6.84093">
        <ele>1135</ele>
        <time>2026-08-04T05:02:48.278Z</time>
      </trkpt>
      <trkpt lat="45.9129" lon="6.84094">
        <ele>1135</ele>
        <time>2026-08-04T05:02:49.278Z</time>
      </trkpt>
      <trkpt lat="45.91289" lon="6.84094">
        <ele>1134</ele>
        <time>2026-08-04T05:02:50.278Z</time>
      </trkpt>
      <trkpt lat="45.91288" lon="6.84095">
        <ele>1133</ele>
        <time>2026-08-04T05:02:51.278Z</time>
      </trkpt>
      <trkpt lat="45.91286" lon="6.84095">
        <ele>1132</ele>
        <time>2026-08-04T05:02:52.278Z</time>
      </trkpt>
      <trkpt lat="45.91285" lon="6.84096">
        <ele>1132</ele>
        <time>2026-08-04T05:02:53.278Z</time>
      </trkpt>
      <trkpt lat="45.91284" lon="6.84097">
        <ele>1131</ele>
        <time>2026-08-04T05:02:54.278Z</time>
      </trkpt>
      <trkpt lat="45.91283" lon="6.84098">
        <ele>1131</ele>
        <time>2026-08-04T05:02:55.278Z</time>
      </trkpt>
      <trkpt lat="45.91283" lon="6.84098">
        <ele>1131</ele>
        <time>2026-08-04T05:02:56.278Z</time>
      </trkpt>
      <trkpt lat="45.91283" lon="6.84097">
        <ele>1131</ele>
        <time>2026-08-04T05:02:57.278Z</time>
      </trkpt>
      <trkpt lat="45.91284" lon="6.84097">
        <ele>1131</ele>
        <time>2026-08-04T05:02:58.278Z</time>
      </trkpt>
      <trkpt lat="45.91284" lon="6.84097">
        <ele>1131</ele>
        <time>2026-08-04T05:02:59.278Z</time>
      </trkpt>
      <trkpt lat="45.91285" lon="6.84097">
        <ele>1131</ele>
        <time>2026-08-04T05:03:00.278Z</time>
      </trkpt>
      <trkpt lat="45.91286" lon="6.84097">
        <ele>1131</ele>
        <time>2026-08-04T05:03:01.278Z</time>
      </trkpt>
      <trkpt lat="45.91286" lon="6.84097">
        <ele>1131</ele>
        <time>2026-08-04T05:03:02.278Z</time>
      </trkpt>
      <trkpt lat="45.91287" lon="6.84097">
        <ele>1131</ele>
        <time>2026-08-04T05:03:03.278Z</time>
      </trkpt>
      <trkpt lat="45.91288" lon="6.84097">
        <ele>1130</ele>
        <time>2026-08-04T05:03:04.278Z</time>
      </trkpt>
      <trkpt lat="45.91289" lon="6.84098">
        <ele>1130</ele>
        <time>2026-08-04T05:03:05.278Z</time>
      </trkpt>
      <trkpt lat="45.9129" lon="6.84099">
        <ele>1129</ele>
        <time>2026-08-04T05:03:06.278Z</time>
      </trkpt>
      <trkpt lat="45.91291" lon="6.841">
        <ele>1128</ele>
        <time>2026-08-04T05:03:07.278Z</time>
      </trkpt>
      <trkpt lat="45.91292" lon="6.84102">
        <ele>1128</ele>
        <time>2026-08-04T05:03:08.278Z</time>
      </trkpt>
      <trkpt lat="45.91293" lon="6.84102">
        <ele>1127</ele>
        <time>2026-08-04T05:03:09.278Z</time>
      </trkpt>
      <trkpt lat="45.91294" lon="6.84103">
        <ele>1127</ele>
        <time>2026-08-04T05:03:10.278Z</time>
      </trkpt>
      <trkpt lat="45.91296" lon="6.84104">
        <ele>1127</ele>
        <time>2026-08-04T05:03:11.278Z</time>
      </trkpt>
      <trkpt lat="45.91297" lon="6.84106">
        <ele>1127</ele>
        <time>2026-08-04T05:03:12.278Z</time>
      </trkpt>
      <trkpt lat="45.91298" lon="6.84108">
        <ele>1126</ele>
        <time>2026-08-04T05:03:13.278Z</time>
      </trkpt>
      <trkpt lat="45.91299" lon="6.84109">
        <ele>1126</ele>
        <time>2026-08-04T05:03:14.278Z</time>
      </trkpt>
      <trkpt lat="45.91299" lon="6.8411">
        <ele>1126</ele>
        <time>2026-08-04T05:03:15.278Z</time>
      </trkpt>
      <trkpt lat="45.913" lon="6.8411">
        <ele>1125</ele>
        <time>2026-08-04T05:03:16.278Z</time>
      </trkpt>
      <trkpt lat="45.91301" lon="6.84111">
        <ele>1125</ele>
        <time>2026-08-04T05:03:17.278Z</time>
      </trkpt>
      <trkpt lat="45.91302" lon="6.84112">
        <ele>1125</ele>
        <time>2026-08-04T05:03:18.278Z</time>
      </trkpt>
      <trkpt lat="45.91303" lon="6.84113">
        <ele>1125</ele>
        <time>2026-08-04T05:03:19.278Z</time>
      </trkpt>
      <trkpt lat="45.91304" lon="6.84115">
        <ele>1125</ele>
        <time>2026-08-04T05:03:20.278Z</time>
      </trkpt>
      <trkpt lat="45.91305" lon="6.84117">
        <ele>1124</ele>
        <time>2026-08-04T05:03:21.278Z</time>
      </trkpt>
      <trkpt lat="45.91306" lon="6.84119">
        <ele>1124</ele>
        <time>2026-08-04T05:03:22.278Z</time>
      </trkpt>
      <trkpt lat="45.91308" lon="6.84121">
        <ele>1124</ele>
        <time>2026-08-04T05:03:23.278Z</time>
      </trkpt>
      <trkpt lat="45.9131" lon="6.84121">
        <ele>1123</ele>
        <time>2026-08-04T05:03:24.278Z</time>
      </trkpt>
      <trkpt lat="45.91311" lon="6.84122">
        <ele>1122</ele>
        <time>2026-08-04T05:03:25.278Z</time>
      </trkpt>
      <trkpt lat="45.91313" lon="6.84123">
        <ele>1122</ele>
        <time>2026-08-04T05:03:26.278Z</time>
      </trkpt>
      <trkpt lat="45.91314" lon="6.84124">
        <ele>1121</ele>
        <time>2026-08-04T05:03:27.278Z</time>
      </trkpt>
      <trkpt lat="45.91316" lon="6.84125">
        <ele>1120</ele>
        <time>2026-08-04T05:03:28.278Z</time>
      </trkpt>
      <trkpt lat="45.91316" lon="6.84126">
        <ele>1120</ele>
        <time>2026-08-04T05:03:29.278Z</time>
      </trkpt>
      <trkpt lat="45.91318" lon="6.84126">
        <ele>1120</ele>
        <time>2026-08-04T05:03:30.278Z</time>
      </trkpt>
      <trkpt lat="45.91318" lon="6.84127">
        <ele>1119</ele>
        <time>2026-08-04T05:03:31.278Z</time>
      </trkpt>
      <trkpt lat="45.9132" lon="6.84127">
        <ele>1119</ele>
        <time>2026-08-04T05:03:32.278Z</time>
      </trkpt>
      <trkpt lat="45.91321" lon="6.84127">
        <ele>1119</ele>
        <time>2026-08-04T05:03:33.278Z</time>
      </trkpt>
      <trkpt lat="45.91323" lon="6.84126">
        <ele>1119</ele>
        <time>2026-08-04T05:03:34.278Z</time>
      </trkpt>
      <trkpt lat="45.91324" lon="6.84126">
        <ele>1120</ele>
        <time>2026-08-04T05:03:35.278Z</time>
      </trkpt>
      <trkpt lat="45.91325" lon="6.84125">
        <ele>1120</ele>
        <time>2026-08-04T05:03:36.278Z</time>
      </trkpt>
      <trkpt lat="45.91327" lon="6.84125">
        <ele>1121</ele>
        <time>2026-08-04T05:03:37.278Z</time>
      </trkpt>
      <trkpt lat="45.91327" lon="6.84125">
        <ele>1122</ele>
        <time>2026-08-04T05:03:38.278Z</time>
      </trkpt>
      <trkpt lat="45.91328" lon="6.84125">
        <ele>1122</ele>
        <time>2026-08-04T05:03:39.278Z</time>
      </trkpt>
      <trkpt lat="45.91329" lon="6.84124">
        <ele>1123</ele>
        <time>2026-08-04T05:03:40.278Z</time>
      </trkpt>
      <trkpt lat="45.9133" lon="6.84124">
        <ele>1124</ele>
        <time>2026-08-04T05:03:41.278Z</time>
      </trkpt>
      <trkpt lat="45.91331" lon="6.84124">
        <ele>1124</ele>
        <time>2026-08-04T05:03:42.278Z</time>
      </trkpt>
      <trkpt lat="45.91332" lon="6.84124">
        <ele>1125</ele>
        <time>2026-08-04T05:03:43.278Z</time>
      </trkpt>
      <trkpt lat="45.91332" lon="6.84123">
        <ele>1125</ele>
        <time>2026-08-04T05:03:44.278Z</time>
      </trkpt>
      <trkpt lat="45.91333" lon="6.84123">
        <ele>1125</ele>
        <time>2026-08-04T05:03:45.278Z</time>
      </trkpt>
      <trkpt lat="45.91334" lon="6.84123">
        <ele>1126</ele>
        <time>2026-08-04T05:03:46.278Z</time>
      </trkpt>
      <trkpt lat="45.91335" lon="6.84123">
        <ele>1126</ele>
        <time>2026-08-04T05:03:47.278Z</time>
      </trkpt>
      <trkpt lat="45.91336" lon="6.84124">
        <ele>1126</ele>
        <time>2026-08-04T05:03:48.278Z</time>
      </trkpt>
      <trkpt lat="45.91337" lon="6.84124">
        <ele>1126</ele>
        <time>2026-08-04T05:03:49.278Z</time>
      </trkpt>
      <trkpt lat="45.91338" lon="6.84125">
        <ele>1126</ele>
        <time>2026-08-04T05:03:50.278Z</time>
      </trkpt>
      <trkpt lat="45.91339" lon="6.84126">
        <ele>1126</ele>
        <time>2026-08-04T05:03:51.278Z</time>
      </trkpt>
      <trkpt lat="45.9134" lon="6.84126">
        <ele>1126</ele>
        <time>2026-08-04T05:03:52.278Z</time>
      </trkpt>
      <trkpt lat="45.9134" lon="6.84126">
        <ele>1127</ele>
        <time>2026-08-04T05:03:53.278Z</time>
      </trkpt>
      <trkpt lat="45.9134" lon="6.84125">
        <ele>1127</ele>
        <time>2026-08-04T05:03:54.278Z</time>
      </trkpt>
      <trkpt lat="45.91341" lon="6.84124">
        <ele>1128</ele>
        <time>2026-08-04T05:03:55.278Z</time>
      </trkpt>
      <trkpt lat="45.91341" lon="6.84124">
        <ele>1129</ele>
        <time>2026-08-04T05:03:56.278Z</time>
      </trkpt>
      <trkpt lat="45.91342" lon="6.84123">
        <ele>1130</ele>
        <time>2026-08-04T05:03:57.278Z</time>
      </trkpt>
      <trkpt lat="45.91344" lon="6.84123">
        <ele>1131</ele>
        <time>2026-08-04T05:03:58.278Z</time>
      </trkpt>
      <trkpt lat="45.91345" lon="6.84122">
        <ele>1131</ele>
        <time>2026-08-04T05:03:59.278Z</time>
      </trkpt>
      <trkpt lat="45.91346" lon="6.84121">
        <ele>1132</ele>
        <time>2026-08-04T05:04:00.278Z</time>
      </trkpt>
      <trkpt lat="45.91347" lon="6.84121">
        <ele>1133</ele>
        <time>2026-08-04T05:04:01.278Z</time>
      </trkpt>
      <trkpt lat="45.91348" lon="6.84121">
        <ele>1133</ele>
        <time>2026-08-04T05:04:02.278Z</time>
      </trkpt>
      <trkpt lat="45.9135" lon="6.84121">
        <ele>1134</ele>
        <time>2026-08-04T05:04:03.278Z</time>
      </trkpt>
      <trkpt lat="45.91351" lon="6.84121">
        <ele>1134</ele>
        <time>2026-08-04T05:04:04.278Z</time>
      </trkpt>
      <trkpt lat="45.91351" lon="6.84121">
        <ele>1135</ele>
        <time>2026-08-04T05:04:05.278Z</time>
      </trkpt>
      <trkpt lat="45.91352" lon="6.84121">
        <ele>1134</ele>
        <time>2026-08-04T05:04:06.278Z</time>
      </trkpt>
      <trkpt lat="45.91354" lon="6.84121">
        <ele>1134</ele>
        <time>2026-08-04T05:04:07.278Z</time>
      </trkpt>
      <trkpt lat="45.91355" lon="6.84122">
        <ele>1134</ele>
        <time>2026-08-04T05:04:08.278Z</time>
      </trkpt>
      <trkpt lat="45.91356" lon="6.84123">
        <ele>1134</ele>
        <time>2026-08-04T05:04:09.278Z</time>
      </trkpt>
      <trkpt lat="45.91357" lon="6.84125">
        <ele>1134</ele>
        <time>2026-08-04T05:04:10.278Z</time>
      </trkpt>
      <trkpt lat="45.91357" lon="6.84126">
        <ele>1134</ele>
        <time>2026-08-04T05:04:11.278Z</time>
      </trkpt>
      <trkpt lat="45.91357" lon="6.84127">
        <ele>1134</ele>
        <time>2026-08-04T05:04:12.278Z</time>
      </trkpt>
      <trkpt lat="45.91357" lon="6.84127">
        <ele>1134</ele>
        <time>2026-08-04T05:04:13.278Z</time>
      </trkpt>
      <trkpt lat="45.91357" lon="6.84127">
        <ele>1134</ele>
        <time>2026-08-04T05:04:14.278Z</time>
      </trkpt>
      <trkpt lat="45.91357" lon="6.84128">
        <ele>1134</ele>
        <time>2026-08-04T05:04:15.278Z</time>
      </trkpt>
      <trkpt lat="45.91358" lon="6.84129">
        <ele>1133</ele>
        <time>2026-08-04T05:04:16.278Z</time>
      </trkpt>
      <trkpt lat="45.91359" lon="6.84131">
        <ele>1133</ele>
        <time>2026-08-04T05:04:17.278Z</time>
      </trkpt>
      <trkpt lat="45.91359" lon="6.84133">
        <ele>1133</ele>
        <time>2026-08-04T05:04:18.278Z</time>
      </trkpt>
      <trkpt lat="45.9136" lon="6.84135">
        <ele>1133</ele>
        <time>2026-08-04T05:04:19.278Z</time>
      </trkpt>
      <trkpt lat="45.91361" lon="6.84136">
        <ele>1133</ele>
        <time>2026-08-04T05:04:20.278Z</time>
      </trkpt>
      <trkpt lat="45.91362" lon="6.84137">
        <ele>1133</ele>
        <time>2026-08-04T05:04:21.278Z</time>
      </trkpt>
      <trkpt lat="45.91363" lon="6.84139">
        <ele>1133</ele>
        <time>2026-08-04T05:04:22.278Z</time>
      </trkpt>
      <trkpt lat="45.91363" lon="6.84139">
        <ele>1132</ele>
        <time>2026-08-04T05:04:23.278Z</time>
      </trkpt>
      <trkpt lat="45.91363" lon="6.8414">
        <ele>1132</ele>
        <time>2026-08-04T05:04:24.278Z</time>
      </trkpt>
      <trkpt lat="45.91364" lon="6.84142">
        <ele>1132</ele>
        <time>2026-08-04T05:04:25.278Z</time>
      </trkpt>
      <trkpt lat="45.91364" lon="6.84143">
        <ele>1132</ele>
        <time>2026-08-04T05:04:26.278Z</time>
      </trkpt>
      <trkpt lat="45.91365" lon="6.84145">
        <ele>1132</ele>
        <time>2026-08-04T05:04:27.278Z</time>
      </trkpt>
      <trkpt lat="45.91366" lon="6.84146">
        <ele>1132</ele>
        <time>2026-08-04T05:04:28.278Z</time>
      </trkpt>
      <trkpt lat="45.91366" lon="6.84148">
        <ele>1132</ele>
        <time>2026-08-04T05:04:29.278Z</time>
      </trkpt>
      <trkpt lat="45.91367" lon="6.84149">
        <ele>1132</ele>
        <time>2026-08-04T05:04:30.278Z</time>
      </trkpt>
      <trkpt lat="45.91367" lon="6.84151">
        <ele>1132</ele>
        <time>2026-08-04T05:04:31.278Z</time>
      </trkpt>
      <trkpt lat="45.91368" lon="6.84153">
        <ele>1132</ele>
        <time>2026-08-04T05:04:32.278Z</time>
      </trkpt>
      <trkpt lat="45.91369" lon="6.84155">
        <ele>1132</ele>
        <time>2026-08-04T05:04:33.278Z</time>
      </trkpt>
      <trkpt lat="45.9137" lon="6.84156">
        <ele>1132</ele>
        <time>2026-08-04T05:04:34.278Z</time>
      </trkpt>
      <trkpt lat="45.91371" lon="6.84158">
        <ele>1132</ele>
        <time>2026-08-04T05:04:35.278Z</time>
      </trkpt>
      <trkpt lat="45.91372" lon="6.8416">
        <ele>1132</ele>
        <time>2026-08-04T05:04:36.278Z</time>
      </trkpt>
      <trkpt lat="45.91373" lon="6.84161">
        <ele>1132</ele>
        <time>2026-08-04T05:04:37.278Z</time>
      </trkpt>
      <trkpt lat="45.91374" lon="6.84161">
        <ele>1132</ele>
        <time>2026-08-04T05:04:38.278Z</time>
      </trkpt>
      <trkpt lat="45.91375" lon="6.84163">
        <ele>1132</ele>
        <time>2026-08-04T05:04:39.278Z</time>
      </trkpt>
      <trkpt lat="45.91376" lon="6.84164">
        <ele>1132</ele>
        <time>2026-08-04T05:04:40.278Z</time>
      </trkpt>
      <trkpt lat="45.91376" lon="6.84166">
        <ele>1132</ele>
        <time>2026-08-04T05:04:41.278Z</time>
      </trkpt>
      <trkpt lat="45.91378" lon="6.84167">
        <ele>1132</ele>
        <time>2026-08-04T05:04:42.278Z</time>
      </trkpt>
      <trkpt lat="45.91379" lon="6.84168">
        <ele>1132</ele>
        <time>2026-08-04T05:04:43.278Z</time>
      </trkpt>
      <trkpt lat="45.91381" lon="6.84169">
        <ele>1132</ele>
        <time>2026-08-04T05:04:44.278Z</time>
      </trkpt>
      <trkpt lat="45.91381" lon="6.8417">
        <ele>1132</ele>
        <time>2026-08-04T05:04:45.278Z</time>
      </trkpt>
      <trkpt lat="45.91382" lon="6.84173">
        <ele>1132</ele>
        <time>2026-08-04T05:04:46.278Z</time>
      </trkpt>
      <trkpt lat="45.91383" lon="6.84174">
        <ele>1132</ele>
        <time>2026-08-04T05:04:47.278Z</time>
      </trkpt>
      <trkpt lat="45.91383" lon="6.84176">
        <ele>1132</ele>
        <time>2026-08-04T05:04:48.278Z</time>
      </trkpt>
      <trkpt lat="45.91383" lon="6.84177">
        <ele>1132</ele>
        <time>2026-08-04T05:04:49.278Z</time>
      </trkpt>
      <trkpt lat="45.91385" lon="6.84179">
        <ele>1132</ele>
        <time>2026-08-04T05:04:50.278Z</time>
      </trkpt>
      <trkpt lat="45.91386" lon="6.8418">
        <ele>1132</ele>
        <time>2026-08-04T05:04:51.278Z</time>
      </trkpt>
      <trkpt lat="45.91386" lon="6.84181">
        <ele>1132</ele>
        <time>2026-08-04T05:04:52.278Z</time>
      </trkpt>
      <trkpt lat="45.91387" lon="6.84182">
        <ele>1132</ele>
        <time>2026-08-04T05:04:53.278Z</time>
      </trkpt>
      <trkpt lat="45.91387" lon="6.84183">
        <ele>1132</ele>
        <time>2026-08-04T05:04:54.278Z</time>
      </trkpt>
      <trkpt lat="45.91388" lon="6.84184">
        <ele>1132</ele>
        <time>2026-08-04T05:04:55.278Z</time>
      </trkpt>
      <trkpt lat="45.91389" lon="6.84186">
        <ele>1132</ele>
        <time>2026-08-04T05:04:56.278Z</time>
      </trkpt>
      <trkpt lat="45.91389" lon="6.84188">
        <ele>1132</ele>
        <time>2026-08-04T05:04:57.278Z</time>
      </trkpt>
      <trkpt lat="45.9139" lon="6.84189">
        <ele>1131</ele>
        <time>2026-08-04T05:04:58.278Z</time>
      </trkpt>
      <trkpt lat="45.91391" lon="6.8419">
        <ele>1131</ele>
        <time>2026-08-04T05:04:59.278Z</time>
      </trkpt>
      <trkpt lat="45.91392" lon="6.84191">
        <ele>1131</ele>
        <time>2026-08-04T05:05:00.278Z</time>
      </trkpt>
      <trkpt lat="45.91392" lon="6.84191">
        <ele>1131</ele>
        <time>2026-08-04T05:05:01.278Z</time>
      </trkpt>
      <trkpt lat="45.91394" lon="6.84193">
        <ele>1132</ele>
        <time>2026-08-04T05:05:02.278Z</time>
      </trkpt>
      <trkpt lat="45.91395" lon="6.84195">
        <ele>1132</ele>
        <time>2026-08-04T05:05:03.278Z</time>
      </trkpt>
      <trkpt lat="45.91396" lon="6.84196">
        <ele>1132</ele>
        <time>2026-08-04T05:05:04.278Z</time>
      </trkpt>
      <trkpt lat="45.91397" lon="6.84198">
        <ele>1132</ele>
        <time>2026-08-04T05:05:05.278Z</time>
      </trkpt>
      <trkpt lat="45.91398" lon="6.84199">
        <ele>1132</ele>
        <time>2026-08-04T05:05:06.278Z</time>
      </trkpt>
      <trkpt lat="45.91399" lon="6.84201">
        <ele>1132</ele>
        <time>2026-08-04T05:05:07.278Z</time>
      </trkpt>
      <trkpt lat="45.914" lon="6.84202">
        <ele>1132</ele>
        <time>2026-08-04T05:05:08.278Z</time>
      </trkpt>
      <trkpt lat="45.914" lon="6.84204">
        <ele>1132</ele>
        <time>2026-08-04T05:05:09.278Z</time>
      </trkpt>
      <trkpt lat="45.914" lon="6.84206">
        <ele>1132</ele>
        <time>2026-08-04T05:05:10.278Z</time>
      </trkpt>
      <trkpt lat="45.91401" lon="6.84208">
        <ele>1132</ele>
        <time>2026-08-04T05:05:11.278Z</time>
      </trkpt>
      <trkpt lat="45.91402" lon="6.8421">
        <ele>1132</ele>
        <time>2026-08-04T05:05:12.278Z</time>
      </trkpt>
      <trkpt lat="45.91403" lon="6.84211">
        <ele>1132</ele>
        <time>2026-08-04T05:05:13.278Z</time>
      </trkpt>
      <trkpt lat="45.91403" lon="6.84211">
        <ele>1132</ele>
        <time>2026-08-04T05:05:14.278Z</time>
      </trkpt>
      <trkpt lat="45.91404" lon="6.84212">
        <ele>1132</ele>
        <time>2026-08-04T05:05:15.278Z</time>
      </trkpt>
      <trkpt lat="45.91404" lon="6.84214">
        <ele>1132</ele>
        <time>2026-08-04T05:05:16.278Z</time>
      </trkpt>
      <trkpt lat="45.91405" lon="6.84215">
        <ele>1132</ele>
        <time>2026-08-04T05:05:17.278Z</time>
      </trkpt>
      <trkpt lat="45.91406" lon="6.84217">
        <ele>1132</ele>
        <time>2026-08-04T05:05:18.278Z</time>
      </trkpt>
      <trkpt lat="45.91406" lon="6.84217">
        <ele>1132</ele>
        <time>2026-08-04T05:05:19.278Z</time>
      </trkpt>
      <trkpt lat="45.91406" lon="6.84218">
        <ele>1132</ele>
        <time>2026-08-04T05:05:20.278Z</time>
      </trkpt>
      <trkpt lat="45.91405" lon="6.84218">
        <ele>1132</ele>
        <time>2026-08-04T05:05:21.278Z</time>
      </trkpt>
      <trkpt lat="45.91405" lon="6.84218">
        <ele>1132</ele>
        <time>2026-08-04T05:05:22.278Z</time>
      </trkpt>
      <trkpt lat="45.91405" lon="6.84218">
        <ele>1132</ele>
        <time>2026-08-04T05:05:23.278Z</time>
      </trkpt>
      <trkpt lat="45.91405" lon="6.84218">
        <ele>1132</ele>
        <time>2026-08-04T05:05:24.278Z</time>
      </trkpt>
      <trkpt lat="45.91405" lon="6.84218">
        <ele>1133</ele>
        <time>2026-08-04T05:05:25.278Z</time>
      </trkpt>
      <trkpt lat="45.91405" lon="6.84216">
        <ele>1133</ele>
        <time>2026-08-04T05:05:26.278Z</time>
      </trkpt>
      <trkpt lat="45.91405" lon="6.84214">
        <ele>1133</ele>
        <time>2026-08-04T05:05:27.278Z</time>
      </trkpt>
      <trkpt lat="45.91405" lon="6.84213">
        <ele>1134</ele>
        <time>2026-08-04T05:05:28.278Z</time>
      </trkpt>
      <trkpt lat="45.91406" lon="6.84212">
        <ele>1134</ele>
        <time>2026-08-04T05:05:29.278Z</time>
      </trkpt>
      <trkpt lat="45.91406" lon="6.8421">
        <ele>1135</ele>
        <time>2026-08-04T05:05:30.278Z</time>
      </trkpt>
      <trkpt lat="45.91406" lon="6.84208">
        <ele>1136</ele>
        <time>2026-08-04T05:05:31.278Z</time>
      </trkpt>
      <trkpt lat="45.91405" lon="6.84204">
        <ele>1136</ele>
        <time>2026-08-04T05:05:32.278Z</time>
      </trkpt>
      <trkpt lat="45.91404" lon="6.84201">
        <ele>1137</ele>
        <time>2026-08-04T05:05:33.278Z</time>
      </trkpt>
      <trkpt lat="45.91405" lon="6.842">
        <ele>1137</ele>
        <time>2026-08-04T05:05:34.278Z</time>
      </trkpt>
      <trkpt lat="45.91405" lon="6.84198">
        <ele>1138</ele>
        <time>2026-08-04T05:05:35.278Z</time>
      </trkpt>
      <trkpt lat="45.91404" lon="6.84197">
        <ele>1138</ele>
        <time>2026-08-04T05:05:36.278Z</time>
      </trkpt>
      <trkpt lat="45.91404" lon="6.84196">
        <ele>1138</ele>
        <time>2026-08-04T05:05:37.278Z</time>
      </trkpt>
      <trkpt lat="45.91404" lon="6.84195">
        <ele>1138</ele>
        <time>2026-08-04T05:05:38.278Z</time>
      </trkpt>
      <trkpt lat="45.91404" lon="6.84194">
        <ele>1138</ele>
        <time>2026-08-04T05:05:39.278Z</time>
      </trkpt>
      <trkpt lat="45.91404" lon="6.84193">
        <ele>1138</ele>
        <time>2026-08-04T05:05:40.278Z</time>
      </trkpt>
      <trkpt lat="45.91404" lon="6.84192">
        <ele>1138</ele>
        <time>2026-08-04T05:05:41.278Z</time>
      </trkpt>
      <trkpt lat="45.91404" lon="6.84191">
        <ele>1139</ele>
        <time>2026-08-04T05:05:42.278Z</time>
      </trkpt>
      <trkpt lat="45.91404" lon="6.8419">
        <ele>1139</ele>
        <time>2026-08-04T05:05:43.278Z</time>
      </trkpt>
      <trkpt lat="45.91403" lon="6.84189">
        <ele>1140</ele>
        <time>2026-08-04T05:05:44.278Z</time>
      </trkpt>
      <trkpt lat="45.91403" lon="6.84188">
        <ele>1140</ele>
        <time>2026-08-04T05:05:45.278Z</time>
      </trkpt>
      <trkpt lat="45.91403" lon="6.84187">
        <ele>1140</ele>
        <time>2026-08-04T05:05:46.278Z</time>
      </trkpt>
      <trkpt lat="45.91404" lon="6.84186">
        <ele>1140</ele>
        <time>2026-08-04T05:05:47.278Z</time>
      </trkpt>
      <trkpt lat="45.91404" lon="6.84185">
        <ele>1140</ele>
        <time>2026-08-04T05:05:48.278Z</time>
      </trkpt>
      <trkpt lat="45.91404" lon="6.84184">
        <ele>1141</ele>
        <time>2026-08-04T05:05:49.278Z</time>
      </trkpt>
      <trkpt lat="45.91404" lon="6.84183">
        <ele>1141</ele>
        <time>2026-08-04T05:05:50.278Z</time>
      </trkpt>
      <trkpt lat="45.91404" lon="6.84181">
        <ele>1141</ele>
        <time>2026-08-04T05:05:51.278Z</time>
      </trkpt>
      <trkpt lat="45.91405" lon="6.84181">
        <ele>1141</ele>
        <time>2026-08-04T05:05:52.278Z</time>
      </trkpt>
      <trkpt lat="45.91405" lon="6.8418">
        <ele>1141</ele>
        <time>2026-08-04T05:05:53.278Z</time>
      </trkpt>
      <trkpt lat="45.91405" lon="6.84178">
        <ele>1141</ele>
        <time>2026-08-04T05:05:54.278Z</time>
      </trkpt>
      <trkpt lat="45.91405" lon="6.84177">
        <ele>1141</ele>
        <time>2026-08-04T05:05:55.278Z</time>
      </trkpt>
      <trkpt lat="45.91405" lon="6.84176">
        <ele>1141</ele>
        <time>2026-08-04T05:05:56.278Z</time>
      </trkpt>
      <trkpt lat="45.91406" lon="6.84175">
        <ele>1141</ele>
        <time>2026-08-04T05:05:57.278Z</time>
      </trkpt>
      <trkpt lat="45.91405" lon="6.84174">
        <ele>1141</ele>
        <time>2026-08-04T05:05:58.278Z</time>
      </trkpt>
      <trkpt lat="45.91405" lon="6.84173">
        <ele>1142</ele>
        <time>2026-08-04T05:05:59.278Z</time>
      </trkpt>
      <trkpt lat="45.91406" lon="6.84172">
        <ele>1142</ele>
        <time>2026-08-04T05:06:00.278Z</time>
      </trkpt>
      <trkpt lat="45.91406" lon="6.84172">
        <ele>1142</ele>
        <time>2026-08-04T05:06:01.278Z</time>
      </trkpt>
      <trkpt lat="45.91405" lon="6.8417">
        <ele>1142</ele>
        <time>2026-08-04T05:06:02.278Z</time>
      </trkpt>
      <trkpt lat="45.91405" lon="6.84169">
        <ele>1143</ele>
        <time>2026-08-04T05:06:03.278Z</time>
      </trkpt>
      <trkpt lat="45.91406" lon="6.84168">
        <ele>1143</ele>
        <time>2026-08-04T05:06:04.278Z</time>
      </trkpt>
      <trkpt lat="45.91406" lon="6.84166">
        <ele>1143</ele>
        <time>2026-08-04T05:06:05.278Z</time>
      </trkpt>
      <trkpt lat="45.91407" lon="6.84165">
        <ele>1143</ele>
        <time>2026-08-04T05:06:06.278Z</time>
      </trkpt>
      <trkpt lat="45.91408" lon="6.84164">
        <ele>1143</ele>
        <time>2026-08-04T05:06:07.278Z</time>
      </trkpt>
      <trkpt lat="45.91408" lon="6.84162">
        <ele>1143</ele>
        <time>2026-08-04T05:06:08.278Z</time>
      </trkpt>
      <trkpt lat="45.91409" lon="6.84162">
        <ele>1143</ele>
        <time>2026-08-04T05:06:09.278Z</time>
      </trkpt>
      <trkpt lat="45.91408" lon="6.8416">
        <ele>1143</ele>
        <time>2026-08-04T05:06:10.278Z</time>
      </trkpt>
      <trkpt lat="45.91408" lon="6.84158">
        <ele>1144</ele>
        <time>2026-08-04T05:06:11.278Z</time>
      </trkpt>
      <trkpt lat="45.91409" lon="6.84157">
        <ele>1144</ele>
        <time>2026-08-04T05:06:12.278Z</time>
      </trkpt>
      <trkpt lat="45.9141" lon="6.84156">
        <ele>1144</ele>
        <time>2026-08-04T05:06:13.278Z</time>
      </trkpt>
      <trkpt lat="45.9141" lon="6.84156">
        <ele>1144</ele>
        <time>2026-08-04T05:06:14.278Z</time>
      </trkpt>
      <trkpt lat="45.9141" lon="6.84156">
        <ele>1144</ele>
        <time>2026-08-04T05:06:15.278Z</time>
      </trkpt>
      <trkpt lat="45.9141" lon="6.84157">
        <ele>1144</ele>
        <time>2026-08-04T05:06:16.278Z</time>
      </trkpt>
      <trkpt lat="45.91411" lon="6.84158">
        <ele>1144</ele>
        <time>2026-08-04T05:06:17.278Z</time>
      </trkpt>
      <trkpt lat="45.91412" lon="6.84159">
        <ele>1144</ele>
        <time>2026-08-04T05:06:18.278Z</time>
      </trkpt>
      <trkpt lat="45.91413" lon="6.8416">
        <ele>1144</ele>
        <time>2026-08-04T05:06:19.278Z</time>
      </trkpt>
      <trkpt lat="45.91415" lon="6.84161">
        <ele>1145</ele>
        <time>2026-08-04T05:06:20.278Z</time>
      </trkpt>
      <trkpt lat="45.91416" lon="6.84162">
        <ele>1146</ele>
        <time>2026-08-04T05:06:21.278Z</time>
      </trkpt>
      <trkpt lat="45.91417" lon="6.84163">
        <ele>1146</ele>
        <time>2026-08-04T05:06:22.278Z</time>
      </trkpt>
      <trkpt lat="45.91418" lon="6.84164">
        <ele>1146</ele>
        <time>2026-08-04T05:06:23.278Z</time>
      </trkpt>
      <trkpt lat="45.91418" lon="6.84165">
        <ele>1147</ele>
        <time>2026-08-04T05:06:24.278Z</time>
      </trkpt>
      <trkpt lat="45.91419" lon="6.84166">
        <ele>1147</ele>
        <time>2026-08-04T05:06:25.278Z</time>
      </trkpt>
      <trkpt lat="45.9142" lon="6.84167">
        <ele>1148</ele>
        <time>2026-08-04T05:06:26.278Z</time>
      </trkpt>
      <trkpt lat="45.9142" lon="6.84167">
        <ele>1148</ele>
        <time>2026-08-04T05:06:27.278Z</time>
      </trkpt>
      <trkpt lat="45.91421" lon="6.84168">
        <ele>1148</ele>
        <time>2026-08-04T05:06:28.278Z</time>
      </trkpt>
      <trkpt lat="45.91422" lon="6.84168">
        <ele>1148</ele>
        <time>2026-08-04T05:06:29.278Z</time>
      </trkpt>
      <trkpt lat="45.91422" lon="6.84168">
        <ele>1148</ele>
        <time>2026-08-04T05:06:30.278Z</time>
      </trkpt>
      <trkpt lat="45.91423" lon="6.84168">
        <ele>1148</ele>
        <time>2026-08-04T05:06:31.278Z</time>
      </trkpt>
      <trkpt lat="45.91423" lon="6.84168">
        <ele>1149</ele>
        <time>2026-08-04T05:06:32.278Z</time>
      </trkpt>
      <trkpt lat="45.91424" lon="6.84169">
        <ele>1149</ele>
        <time>2026-08-04T05:06:33.278Z</time>
      </trkpt>
      <trkpt lat="45.91425" lon="6.84169">
        <ele>1150</ele>
        <time>2026-08-04T05:06:34.278Z</time>
      </trkpt>
      <trkpt lat="45.91426" lon="6.8417">
        <ele>1150</ele>
        <time>2026-08-04T05:06:35.278Z</time>
      </trkpt>
      <trkpt lat="45.91427" lon="6.8417">
        <ele>1151</ele>
        <time>2026-08-04T05:06:36.278Z</time>
      </trkpt>
      <trkpt lat="45.91428" lon="6.8417">
        <ele>1151</ele>
        <time>2026-08-04T05:06:37.278Z</time>
      </trkpt>
      <trkpt lat="45.91429" lon="6.8417">
        <ele>1151</ele>
        <time>2026-08-04T05:06:38.278Z</time>
      </trkpt>
      <trkpt lat="45.91431" lon="6.8417">
        <ele>1152</ele>
        <time>2026-08-04T05:06:39.279Z</time>
      </trkpt>
      <trkpt lat="45.91432" lon="6.84171">
        <ele>1152</ele>
        <time>2026-08-04T05:06:40.278Z</time>
      </trkpt>
      <trkpt lat="45.91433" lon="6.84171">
        <ele>1152</ele>
        <time>2026-08-04T05:06:41.278Z</time>
      </trkpt>
      <trkpt lat="45.91433" lon="6.84171">
        <ele>1152</ele>
        <time>2026-08-04T05:06:42.278Z</time>
      </trkpt>
      <trkpt lat="45.91433" lon="6.84172">
        <ele>1152</ele>
        <time>2026-08-04T05:06:43.278Z</time>
      </trkpt>
      <trkpt lat="45.91433" lon="6.84172">
        <ele>1152</ele>
        <time>2026-08-04T05:06:44.278Z</time>
      </trkpt>
      <trkpt lat="45.91433" lon="6.84172">
        <ele>1153</ele>
        <time>2026-08-04T05:06:45.278Z</time>
      </trkpt>
      <trkpt lat="45.91433" lon="6.84172">
        <ele>1153</ele>
        <time>2026-08-04T05:06:46.278Z</time>
      </trkpt>
      <trkpt lat="45.91432" lon="6.84172">
        <ele>1153</ele>
        <time>2026-08-04T05:06:47.278Z</time>
      </trkpt>
      <trkpt lat="45.91432" lon="6.84172">
        <ele>1153</ele>
        <time>2026-08-04T05:06:48.278Z</time>
      </trkpt>
      <trkpt lat="45.91431" lon="6.84171">
        <ele>1153</ele>
        <time>2026-08-04T05:06:49.278Z</time>
      </trkpt>
      <trkpt lat="45.91431" lon="6.84169">
        <ele>1153</ele>
        <time>2026-08-04T05:06:50.278Z</time>
      </trkpt>
      <trkpt lat="45.91431" lon="6.84166">
        <ele>1153</ele>
        <time>2026-08-04T05:06:51.278Z</time>
      </trkpt>
      <trkpt lat="45.91431" lon="6.84164">
        <ele>1153</ele>
        <time>2026-08-04T05:06:52.278Z</time>
      </trkpt>
      <trkpt lat="45.9143" lon="6.84162">
        <ele>1153</ele>
        <time>2026-08-04T05:06:53.278Z</time>
      </trkpt>
      <trkpt lat="45.91429" lon="6.84161">
        <ele>1153</ele>
        <time>2026-08-04T05:06:54.278Z</time>
      </trkpt>
      <trkpt lat="45.91429" lon="6.84159">
        <ele>1153</ele>
        <time>2026-08-04T05:06:55.278Z</time>
      </trkpt>
      <trkpt lat="45.91429" lon="6.84157">
        <ele>1153</ele>
        <time>2026-08-04T05:06:56.278Z</time>
      </trkpt>
      <trkpt lat="45.91428" lon="6.84155">
        <ele>1153</ele>
        <time>2026-08-04T05:06:57.278Z</time>
      </trkpt>
      <trkpt lat="45.91428" lon="6.84153">
        <ele>1153</ele>
        <time>2026-08-04T05:06:58.278Z</time>
      </trkpt>
      <trkpt lat="45.91428" lon="6.84152">
        <ele>1153</ele>
        <time>2026-08-04T05:06:59.278Z</time>
      </trkpt>
      <trkpt lat="45.91428" lon="6.84151">
        <ele>1154</ele>
        <time>2026-08-04T05:07:00.278Z</time>
      </trkpt>
      <trkpt lat="45.91429" lon="6.84149">
        <ele>1154</ele>
        <time>2026-08-04T05:07:01.278Z</time>
      </trkpt>
      <trkpt lat="45.91429" lon="6.84148">
        <ele>1154</ele>
        <time>2026-08-04T05:07:02.278Z</time>
      </trkpt>
      <trkpt lat="45.9143" lon="6.84147">
        <ele>1155</ele>
        <time>2026-08-04T05:07:03.278Z</time>
      </trkpt>
      <trkpt lat="45.9143" lon="6.84146">
        <ele>1155</ele>
        <time>2026-08-04T05:07:04.278Z</time>
      </trkpt>
      <trkpt lat="45.9143" lon="6.84145">
        <ele>1156</ele>
        <time>2026-08-04T05:07:05.278Z</time>
      </trkpt>
      <trkpt lat="45.9143" lon="6.84144">
        <ele>1157</ele>
        <time>2026-08-04T05:07:06.278Z</time>
      </trkpt>
      <trkpt lat="45.9143" lon="6.84143">
        <ele>1157</ele>
        <time>2026-08-04T05:07:07.278Z</time>
      </trkpt>
      <trkpt lat="45.9143" lon="6.84142">
        <ele>1158</ele>
        <time>2026-08-04T05:07:08.278Z</time>
      </trkpt>
      <trkpt lat="45.9143" lon="6.84142">
        <ele>1158</ele>
        <time>2026-08-04T05:07:09.278Z</time>
      </trkpt>
      <trkpt lat="45.91431" lon="6.84141">
        <ele>1159</ele>
        <time>2026-08-04T05:07:10.278Z</time>
      </trkpt>
      <trkpt lat="45.91431" lon="6.8414">
        <ele>1159</ele>
        <time>2026-08-04T05:07:11.278Z</time>
      </trkpt>
      <trkpt lat="45.91432" lon="6.8414">
        <ele>1159</ele>
        <time>2026-08-04T05:07:12.278Z</time>
      </trkpt>
      <trkpt lat="45.91433" lon="6.84141">
        <ele>1160</ele>
        <time>2026-08-04T05:07:13.278Z</time>
      </trkpt>
      <trkpt lat="45.91434" lon="6.84143">
        <ele>1160</ele>
        <time>2026-08-04T05:07:14.278Z</time>
      </trkpt>
      <trkpt lat="45.91435" lon="6.84144">
        <ele>1161</ele>
        <time>2026-08-04T05:07:15.278Z</time>
      </trkpt>
      <trkpt lat="45.91437" lon="6.84146">
        <ele>1161</ele>
        <time>2026-08-04T05:07:16.278Z</time>
      </trkpt>
      <trkpt lat="45.91436" lon="6.84148">
        <ele>1161</ele>
        <time>2026-08-04T05:07:17.278Z</time>
      </trkpt>
      <trkpt lat="45.91437" lon="6.8415">
        <ele>1162</ele>
        <time>2026-08-04T05:07:18.278Z</time>
      </trkpt>
      <trkpt lat="45.91437" lon="6.84151">
        <ele>1163</ele>
        <time>2026-08-04T05:07:19.278Z</time>
      </trkpt>
      <trkpt lat="45.91437" lon="6.84152">
        <ele>1163</ele>
        <time>2026-08-04T05:07:20.278Z</time>
      </trkpt>
      <trkpt lat="45.91438" lon="6.84153">
        <ele>1164</ele>
        <time>2026-08-04T05:07:21.278Z</time>
      </trkpt>
      <trkpt lat="45.91439" lon="6.84155">
        <ele>1165</ele>
        <time>2026-08-04T05:07:22.278Z</time>
      </trkpt>
      <trkpt lat="45.9144" lon="6.84156">
        <ele>1166</ele>
        <time>2026-08-04T05:07:23.278Z</time>
      </trkpt>
      <trkpt lat="45.91441" lon="6.84157">
        <ele>1167</ele>
        <time>2026-08-04T05:07:24.278Z</time>
      </trkpt>
      <trkpt lat="45.91441" lon="6.84157">
        <ele>1167</ele>
        <time>2026-08-04T05:07:25.278Z</time>
      </trkpt>
      <trkpt lat="45.91442" lon="6.84156">
        <ele>1168</ele>
        <time>2026-08-04T05:07:26.278Z</time>
      </trkpt>
      <trkpt lat="45.91442" lon="6.84156">
        <ele>1168</ele>
        <time>2026-08-04T05:07:27.278Z</time>
      </trkpt>
      <trkpt lat="45.91441" lon="6.84155">
        <ele>1168</ele>
        <time>2026-08-04T05:07:28.278Z</time>
      </trkpt>
      <trkpt lat="45.9144" lon="6.84155">
        <ele>1168</ele>
        <time>2026-08-04T05:07:29.278Z</time>
      </trkpt>
      <trkpt lat="45.91439" lon="6.84154">
        <ele>1169</ele>
        <time>2026-08-04T05:07:30.278Z</time>
      </trkpt>
      <trkpt lat="45.91439" lon="6.84154">
        <ele>1169</ele>
        <time>2026-08-04T05:07:31.278Z</time>
      </trkpt>
      <trkpt lat="45.91438" lon="6.84152">
        <ele>1169</ele>
        <time>2026-08-04T05:07:32.278Z</time>
      </trkpt>
      <trkpt lat="45.91438" lon="6.84151">
        <ele>1170</ele>
        <time>2026-08-04T05:07:33.278Z</time>
      </trkpt>
      <trkpt lat="45.91438" lon="6.84149">
        <ele>1170</ele>
        <time>2026-08-04T05:07:34.278Z</time>
      </trkpt>
      <trkpt lat="45.91438" lon="6.84147">
        <ele>1170</ele>
        <time>2026-08-04T05:07:35.278Z</time>
      </trkpt>
      <trkpt lat="45.91438" lon="6.84145">
        <ele>1170</ele>
        <time>2026-08-04T05:07:36.278Z</time>
      </trkpt>
      <trkpt lat="45.91438" lon="6.84145">
        <ele>1171</ele>
        <time>2026-08-04T05:07:37.278Z</time>
      </trkpt>
      <trkpt lat="45.91438" lon="6.84143">
        <ele>1171</ele>
        <time>2026-08-04T05:07:38.278Z</time>
      </trkpt>
      <trkpt lat="45.91439" lon="6.84142">
        <ele>1171</ele>
        <time>2026-08-04T05:07:39.278Z</time>
      </trkpt>
      <trkpt lat="45.91439" lon="6.8414">
        <ele>1172</ele>
        <time>2026-08-04T05:07:40.278Z</time>
      </trkpt>
      <trkpt lat="45.91438" lon="6.84138">
        <ele>1172</ele>
        <time>2026-08-04T05:07:41.278Z</time>
      </trkpt>
      <trkpt lat="45.91438" lon="6.84138">
        <ele>1173</ele>
        <time>2026-08-04T05:07:42.278Z</time>
      </trkpt>
      <trkpt lat="45.91438" lon="6.84136">
        <ele>1173</ele>
        <time>2026-08-04T05:07:43.278Z</time>
      </trkpt>
      <trkpt lat="45.91439" lon="6.84135">
        <ele>1173</ele>
        <time>2026-08-04T05:07:44.278Z</time>
      </trkpt>
      <trkpt lat="45.91438" lon="6.84135">
        <ele>1173</ele>
        <time>2026-08-04T05:07:45.278Z</time>
      </trkpt>
      <trkpt lat="45.91438" lon="6.84134">
        <ele>1173</ele>
        <time>2026-08-04T05:07:46.278Z</time>
      </trkpt>
      <trkpt lat="45.91438" lon="6.84134">
        <ele>1173</ele>
        <time>2026-08-04T05:07:47.278Z</time>
      </trkpt>
      <trkpt lat="45.91438" lon="6.84133">
        <ele>1173</ele>
        <time>2026-08-04T05:07:48.278Z</time>
      </trkpt>
      <trkpt lat="45.91438" lon="6.84131">
        <ele>1174</ele>
        <time>2026-08-04T05:07:49.278Z</time>
      </trkpt>
      <trkpt lat="45.91439" lon="6.84129">
        <ele>1174</ele>
        <time>2026-08-04T05:07:50.278Z</time>
      </trkpt>
      <trkpt lat="45.91439" lon="6.84128">
        <ele>1174</ele>
        <time>2026-08-04T05:07:51.278Z</time>
      </trkpt>
      <trkpt lat="45.91439" lon="6.84127">
        <ele>1174</ele>
        <time>2026-08-04T05:07:52.278Z</time>
      </trkpt>
      <trkpt lat="45.9144" lon="6.84126">
        <ele>1174</ele>
        <time>2026-08-04T05:07:53.278Z</time>
      </trkpt>
      <trkpt lat="45.91439" lon="6.84125">
        <ele>1174</ele>
        <time>2026-08-04T05:07:54.278Z</time>
      </trkpt>
      <trkpt lat="45.91439" lon="6.84123">
        <ele>1175</ele>
        <time>2026-08-04T05:07:55.278Z</time>
      </trkpt>
      <trkpt lat="45.91439" lon="6.84121">
        <ele>1175</ele>
        <time>2026-08-04T05:07:56.278Z</time>
      </trkpt>
      <trkpt lat="45.91439" lon="6.8412">
        <ele>1175</ele>
        <time>2026-08-04T05:07:57.278Z</time>
      </trkpt>
      <trkpt lat="45.91439" lon="6.84118">
        <ele>1176</ele>
        <time>2026-08-04T05:07:58.278Z</time>
      </trkpt>
      <trkpt lat="45.9144" lon="6.84117">
        <ele>1176</ele>
        <time>2026-08-04T05:07:59.278Z</time>
      </trkpt>
      <trkpt lat="45.9144" lon="6.84116">
        <ele>1176</ele>
        <time>2026-08-04T05:08:00.278Z</time>
      </trkpt>
      <trkpt lat="45.9144" lon="6.84114">
        <ele>1177</ele>
        <time>2026-08-04T05:08:01.278Z</time>
      </trkpt>
      <trkpt lat="45.9144" lon="6.84112">
        <ele>1177</ele>
        <time>2026-08-04T05:08:02.278Z</time>
      </trkpt>
      <trkpt lat="45.91441" lon="6.8411">
        <ele>1177</ele>
        <time>2026-08-04T05:08:03.278Z</time>
      </trkpt>
      <trkpt lat="45.91441" lon="6.84109">
        <ele>1177</ele>
        <time>2026-08-04T05:08:04.278Z</time>
      </trkpt>
      <trkpt lat="45.91441" lon="6.84108">
        <ele>1178</ele>
        <time>2026-08-04T05:08:05.278Z</time>
      </trkpt>
      <trkpt lat="45.91441" lon="6.84107">
        <ele>1178</ele>
        <time>2026-08-04T05:08:06.278Z</time>
      </trkpt>
      <trkpt lat="45.91441" lon="6.84106">
        <ele>1178</ele>
        <time>2026-08-04T05:08:07.278Z</time>
      </trkpt>
      <trkpt lat="45.91441" lon="6.84105">
        <ele>1179</ele>
        <time>2026-08-04T05:08:08.278Z</time>
      </trkpt>
      <trkpt lat="45.91441" lon="6.84105">
        <ele>1179</ele>
        <time>2026-08-04T05:08:09.278Z</time>
      </trkpt>
      <trkpt lat="45.91441" lon="6.84104">
        <ele>1180</ele>
        <time>2026-08-04T05:08:10.278Z</time>
      </trkpt>
      <trkpt lat="45.91441" lon="6.84103">
        <ele>1180</ele>
        <time>2026-08-04T05:08:11.278Z</time>
      </trkpt>
      <trkpt lat="45.91441" lon="6.84101">
        <ele>1181</ele>
        <time>2026-08-04T05:08:12.278Z</time>
      </trkpt>
      <trkpt lat="45.91441" lon="6.841">
        <ele>1182</ele>
        <time>2026-08-04T05:08:13.278Z</time>
      </trkpt>
      <trkpt lat="45.91442" lon="6.84098">
        <ele>1182</ele>
        <time>2026-08-04T05:08:14.278Z</time>
      </trkpt>
      <trkpt lat="45.91442" lon="6.84097">
        <ele>1183</ele>
        <time>2026-08-04T05:08:15.278Z</time>
      </trkpt>
      <trkpt lat="45.91442" lon="6.84096">
        <ele>1183</ele>
        <time>2026-08-04T05:08:16.278Z</time>
      </trkpt>
      <trkpt lat="45.91442" lon="6.84095">
        <ele>1184</ele>
        <time>2026-08-04T05:08:17.278Z</time>
      </trkpt>
      <trkpt lat="45.91442" lon="6.84094">
        <ele>1185</ele>
        <time>2026-08-04T05:08:18.278Z</time>
      </trkpt>
      <trkpt lat="45.91443" lon="6.84093">
        <ele>1185</ele>
        <time>2026-08-04T05:08:19.278Z</time>
      </trkpt>
      <trkpt lat="45.91444" lon="6.84093">
        <ele>1185</ele>
        <time>2026-08-04T05:08:20.278Z</time>
      </trkpt>
      <trkpt lat="45.91446" lon="6.84094">
        <ele>1186</ele>
        <time>2026-08-04T05:08:21.278Z</time>
      </trkpt>
      <trkpt lat="45.91447" lon="6.84096">
        <ele>1186</ele>
        <time>2026-08-04T05:08:22.278Z</time>
      </trkpt>
      <trkpt lat="45.91448" lon="6.84098">
        <ele>1186</ele>
        <time>2026-08-04T05:08:23.278Z</time>
      </trkpt>
      <trkpt lat="45.91449" lon="6.84099">
        <ele>1186</ele>
        <time>2026-08-04T05:08:24.278Z</time>
      </trkpt>
      <trkpt lat="45.9145" lon="6.841">
        <ele>1186</ele>
        <time>2026-08-04T05:08:25.278Z</time>
      </trkpt>
      <trkpt lat="45.91451" lon="6.84102">
        <ele>1187</ele>
        <time>2026-08-04T05:08:26.278Z</time>
      </trkpt>
      <trkpt lat="45.91453" lon="6.84103">
        <ele>1187</ele>
        <time>2026-08-04T05:08:27.278Z</time>
      </trkpt>
      <trkpt lat="45.91453" lon="6.84105">
        <ele>1187</ele>
        <time>2026-08-04T05:08:28.278Z</time>
      </trkpt>
      <trkpt lat="45.91454" lon="6.84107">
        <ele>1187</ele>
        <time>2026-08-04T05:08:29.278Z</time>
      </trkpt>
      <trkpt lat="45.91454" lon="6.84108">
        <ele>1188</ele>
        <time>2026-08-04T05:08:30.278Z</time>
      </trkpt>
      <trkpt lat="45.91454" lon="6.8411">
        <ele>1188</ele>
        <time>2026-08-04T05:08:31.278Z</time>
      </trkpt>
      <trkpt lat="45.91455" lon="6.84112">
        <ele>1188</ele>
        <time>2026-08-04T05:08:32.278Z</time>
      </trkpt>
      <trkpt lat="45.91455" lon="6.84114">
        <ele>1188</ele>
        <time>2026-08-04T05:08:33.278Z</time>
      </trkpt>
      <trkpt lat="45.91456" lon="6.84114">
        <ele>1189</ele>
        <time>2026-08-04T05:08:34.278Z</time>
      </trkpt>
      <trkpt lat="45.91456" lon="6.84115">
        <ele>1189</ele>
        <time>2026-08-04T05:08:35.278Z</time>
      </trkpt>
      <trkpt lat="45.91456" lon="6.84116">
        <ele>1189</ele>
        <time>2026-08-04T05:08:36.278Z</time>
      </trkpt>
      <trkpt lat="45.91456" lon="6.84117">
        <ele>1189</ele>
        <time>2026-08-04T05:08:37.278Z</time>
      </trkpt>
      <trkpt lat="45.91457" lon="6.84119">
        <ele>1189</ele>
        <time>2026-08-04T05:08:38.278Z</time>
      </trkpt>
      <trkpt lat="45.91457" lon="6.84121">
        <ele>1189</ele>
        <time>2026-08-04T05:08:39.278Z</time>
      </trkpt>
      <trkpt lat="45.91458" lon="6.84122">
        <ele>1190</ele>
        <time>2026-08-04T05:08:40.278Z</time>
      </trkpt>
      <trkpt lat="45.91459" lon="6.84123">
        <ele>1190</ele>
        <time>2026-08-04T05:08:41.278Z</time>
      </trkpt>
      <trkpt lat="45.91459" lon="6.84124">
        <ele>1190</ele>
        <time>2026-08-04T05:08:42.278Z</time>
      </trkpt>
      <trkpt lat="45.9146" lon="6.84125">
        <ele>1190</ele>
        <time>2026-08-04T05:08:43.278Z</time>
      </trkpt>
      <trkpt lat="45.91461" lon="6.84126">
        <ele>1190</ele>
        <time>2026-08-04T05:08:44.278Z</time>
      </trkpt>
      <trkpt lat="45.91462" lon="6.84128">
        <ele>1190</ele>
        <time>2026-08-04T05:08:45.278Z</time>
      </trkpt>
      <trkpt lat="45.91463" lon="6.84129">
        <ele>1190</ele>
        <time>2026-08-04T05:08:46.278Z</time>
      </trkpt>
      <trkpt lat="45.91464" lon="6.8413">
        <ele>1190</ele>
        <time>2026-08-04T05:08:47.278Z</time>
      </trkpt>
      <trkpt lat="45.91465" lon="6.84131">
        <ele>1190</ele>
        <time>2026-08-04T05:08:48.278Z</time>
      </trkpt>
      <trkpt lat="45.91467" lon="6.84133">
        <ele>1190</ele>
        <time>2026-08-04T05:08:49.278Z</time>
      </trkpt>
      <trkpt lat="45.91467" lon="6.84133">
        <ele>1189</ele>
        <time>2026-08-04T05:08:50.278Z</time>
      </trkpt>
      <trkpt lat="45.91468" lon="6.84134">
        <ele>1189</ele>
        <time>2026-08-04T05:08:51.278Z</time>
      </trkpt>
      <trkpt lat="45.91469" lon="6.84134">
        <ele>1189</ele>
        <time>2026-08-04T05:08:52.278Z</time>
      </trkpt>
      <trkpt lat="45.91469" lon="6.84135">
        <ele>1188</ele>
        <time>2026-08-04T05:08:53.278Z</time>
      </trkpt>
      <trkpt lat="45.9147" lon="6.84136">
        <ele>1187</ele>
        <time>2026-08-04T05:08:54.278Z</time>
      </trkpt>
      <trkpt lat="45.91471" lon="6.84137">
        <ele>1187</ele>
        <time>2026-08-04T05:08:55.278Z</time>
      </trkpt>
      <trkpt lat="45.91471" lon="6.84138">
        <ele>1187</ele>
        <time>2026-08-04T05:08:56.278Z</time>
      </trkpt>
      <trkpt lat="45.91472" lon="6.84139">
        <ele>1187</ele>
        <time>2026-08-04T05:08:57.278Z</time>
      </trkpt>
      <trkpt lat="45.91472" lon="6.84139">
        <ele>1187</ele>
        <time>2026-08-04T05:08:58.278Z</time>
      </trkpt>
      <trkpt lat="45.91473" lon="6.84139">
        <ele>1187</ele>
        <time>2026-08-04T05:08:59.278Z</time>
      </trkpt>
      <trkpt lat="45.91474" lon="6.84139">
        <ele>1187</ele>
        <time>2026-08-04T05:09:00.278Z</time>
      </trkpt>
      <trkpt lat="45.91475" lon="6.84139">
        <ele>1186</ele>
        <time>2026-08-04T05:09:01.278Z</time>
      </trkpt>
      <trkpt lat="45.91475" lon="6.84138">
        <ele>1186</ele>
        <time>2026-08-04T05:09:02.278Z</time>
      </trkpt>
      <trkpt lat="45.91475" lon="6.84137">
        <ele>1186</ele>
        <time>2026-08-04T05:09:03.278Z</time>
      </trkpt>
      <trkpt lat="45.91475" lon="6.84136">
        <ele>1186</ele>
        <time>2026-08-04T05:09:04.278Z</time>
      </trkpt>
      <trkpt lat="45.91475" lon="6.84134">
        <ele>1186</ele>
        <time>2026-08-04T05:09:05.278Z</time>
      </trkpt>
      <trkpt lat="45.91475" lon="6.84133">
        <ele>1187</ele>
        <time>2026-08-04T05:09:06.278Z</time>
      </trkpt>
      <trkpt lat="45.91475" lon="6.84132">
        <ele>1187</ele>
        <time>2026-08-04T05:09:07.278Z</time>
      </trkpt>
      <trkpt lat="45.91475" lon="6.84131">
        <ele>1187</ele>
        <time>2026-08-04T05:09:08.278Z</time>
      </trkpt>
      <trkpt lat="45.91475" lon="6.8413">
        <ele>1187</ele>
        <time>2026-08-04T05:09:09.278Z</time>
      </trkpt>
      <trkpt lat="45.91475" lon="6.84129">
        <ele>1187</ele>
        <time>2026-08-04T05:09:10.278Z</time>
      </trkpt>
      <trkpt lat="45.91475" lon="6.84127">
        <ele>1187</ele>
        <time>2026-08-04T05:09:11.278Z</time>
      </trkpt>
      <trkpt lat="45.91474" lon="6.84126">
        <ele>1187</ele>
        <time>2026-08-04T05:09:12.278Z</time>
      </trkpt>
      <trkpt lat="45.91473" lon="6.84124">
        <ele>1187</ele>
        <time>2026-08-04T05:09:13.278Z</time>
      </trkpt>
      <trkpt lat="45.91473" lon="6.84122">
        <ele>1188</ele>
        <time>2026-08-04T05:09:14.278Z</time>
      </trkpt>
      <trkpt lat="45.91473" lon="6.8412">
        <ele>1188</ele>
        <time>2026-08-04T05:09:15.278Z</time>
      </trkpt>
      <trkpt lat="45.91473" lon="6.84118">
        <ele>1189</ele>
        <time>2026-08-04T05:09:16.278Z</time>
      </trkpt>
      <trkpt lat="45.91472" lon="6.84117">
        <ele>1190</ele>
        <time>2026-08-04T05:09:17.278Z</time>
      </trkpt>
      <trkpt lat="45.91472" lon="6.84116">
        <ele>1190</ele>
        <time>2026-08-04T05:09:18.278Z</time>
      </trkpt>
      <trkpt lat="45.91472" lon="6.84115">
        <ele>1191</ele>
        <time>2026-08-04T05:09:19.278Z</time>
      </trkpt>
      <trkpt lat="45.91472" lon="6.84115">
        <ele>1192</ele>
        <time>2026-08-04T05:09:20.278Z</time>
      </trkpt>
      <trkpt lat="45.91471" lon="6.84113">
        <ele>1192</ele>
        <time>2026-08-04T05:09:21.278Z</time>
      </trkpt>
      <trkpt lat="45.91471" lon="6.84112">
        <ele>1193</ele>
        <time>2026-08-04T05:09:22.278Z</time>
      </trkpt>
      <trkpt lat="45.91471" lon="6.84111">
        <ele>1193</ele>
        <time>2026-08-04T05:09:23.278Z</time>
      </trkpt>
      <trkpt lat="45.91471" lon="6.8411">
        <ele>1193</ele>
        <time>2026-08-04T05:09:24.278Z</time>
      </trkpt>
      <trkpt lat="45.91472" lon="6.84108">
        <ele>1193</ele>
        <time>2026-08-04T05:09:25.278Z</time>
      </trkpt>
      <trkpt lat="45.91472" lon="6.84106">
        <ele>1193</ele>
        <time>2026-08-04T05:09:26.278Z</time>
      </trkpt>
      <trkpt lat="45.91472" lon="6.84106">
        <ele>1193</ele>
        <time>2026-08-04T05:09:27.278Z</time>
      </trkpt>
      <trkpt lat="45.91472" lon="6.84105">
        <ele>1193</ele>
        <time>2026-08-04T05:09:28.278Z</time>
      </trkpt>
      <trkpt lat="45.91471" lon="6.84104">
        <ele>1194</ele>
        <time>2026-08-04T05:09:29.278Z</time>
      </trkpt>
      <trkpt lat="45.91471" lon="6.84103">
        <ele>1194</ele>
        <time>2026-08-04T05:09:30.278Z</time>
      </trkpt>
      <trkpt lat="45.91471" lon="6.84102">
        <ele>1195</ele>
        <time>2026-08-04T05:09:31.278Z</time>
      </trkpt>
      <trkpt lat="45.91471" lon="6.84101">
        <ele>1196</ele>
        <time>2026-08-04T05:09:32.278Z</time>
      </trkpt>
      <trkpt lat="45.91471" lon="6.84099">
        <ele>1197</ele>
        <time>2026-08-04T05:09:33.278Z</time>
      </trkpt>
      <trkpt lat="45.9147" lon="6.84097">
        <ele>1198</ele>
        <time>2026-08-04T05:09:34.278Z</time>
      </trkpt>
      <trkpt lat="45.9147" lon="6.84096">
        <ele>1198</ele>
        <time>2026-08-04T05:09:35.278Z</time>
      </trkpt>
      <trkpt lat="45.9147" lon="6.84095">
        <ele>1199</ele>
        <time>2026-08-04T05:09:36.278Z</time>
      </trkpt>
      <trkpt lat="45.9147" lon="6.84093">
        <ele>1200</ele>
        <time>2026-08-04T05:09:37.278Z</time>
      </trkpt>
      <trkpt lat="45.9147" lon="6.84092">
        <ele>1200</ele>
        <time>2026-08-04T05:09:38.278Z</time>
      </trkpt>
      <trkpt lat="45.91471" lon="6.84091">
        <ele>1201</ele>
        <time>2026-08-04T05:09:39.278Z</time>
      </trkpt>
      <trkpt lat="45.91471" lon="6.84089">
        <ele>1201</ele>
        <time>2026-08-04T05:09:40.278Z</time>
      </trkpt>
      <trkpt lat="45.91471" lon="6.84088">
        <ele>1202</ele>
        <time>2026-08-04T05:09:41.278Z</time>
      </trkpt>
      <trkpt lat="45.91471" lon="6.84088">
        <ele>1202</ele>
        <time>2026-08-04T05:09:42.278Z</time>
      </trkpt>
      <trkpt lat="45.9147" lon="6.84088">
        <ele>1202</ele>
        <time>2026-08-04T05:09:43.278Z</time>
      </trkpt>
      <trkpt lat="45.9147" lon="6.84087">
        <ele>1203</ele>
        <time>2026-08-04T05:09:44.278Z</time>
      </trkpt>
      <trkpt lat="45.9147" lon="6.84086">
        <ele>1203</ele>
        <time>2026-08-04T05:09:45.278Z</time>
      </trkpt>
      <trkpt lat="45.9147" lon="6.84086">
        <ele>1204</ele>
        <time>2026-08-04T05:09:46.278Z</time>
      </trkpt>
      <trkpt lat="45.91471" lon="6.84085">
        <ele>1204</ele>
        <time>2026-08-04T05:09:47.278Z</time>
      </trkpt>
      <trkpt lat="45.91471" lon="6.84086">
        <ele>1205</ele>
        <time>2026-08-04T05:09:48.278Z</time>
      </trkpt>
      <trkpt lat="45.91472" lon="6.84087">
        <ele>1205</ele>
        <time>2026-08-04T05:09:49.278Z</time>
      </trkpt>
      <trkpt lat="45.91473" lon="6.84088">
        <ele>1205</ele>
        <time>2026-08-04T05:09:50.278Z</time>
      </trkpt>
      <trkpt lat="45.91474" lon="6.84089">
        <ele>1205</ele>
        <time>2026-08-04T05:09:51.278Z</time>
      </trkpt>
      <trkpt lat="45.91475" lon="6.8409">
        <ele>1206</ele>
        <time>2026-08-04T05:09:52.278Z</time>
      </trkpt>
      <trkpt lat="45.91475" lon="6.8409">
        <ele>1206</ele>
        <time>2026-08-04T05:09:53.278Z</time>
      </trkpt>
      <trkpt lat="45.91475" lon="6.8409">
        <ele>1206</ele>
        <time>2026-08-04T05:09:54.278Z</time>
      </trkpt>
      <trkpt lat="45.91475" lon="6.84091">
        <ele>1207</ele>
        <time>2026-08-04T05:09:55.278Z</time>
      </trkpt>
      <trkpt lat="45.91474" lon="6.84092">
        <ele>1207</ele>
        <time>2026-08-04T05:09:56.278Z</time>
      </trkpt>
      <trkpt lat="45.91474" lon="6.84093">
        <ele>1207</ele>
        <time>2026-08-04T05:09:57.278Z</time>
      </trkpt>
      <trkpt lat="45.91475" lon="6.84095">
        <ele>1207</ele>
        <time>2026-08-04T05:09:58.278Z</time>
      </trkpt>
      <trkpt lat="45.91475" lon="6.84096">
        <ele>1208</ele>
        <time>2026-08-04T05:09:59.278Z</time>
      </trkpt>
      <trkpt lat="45.91475" lon="6.84098">
        <ele>1208</ele>
        <time>2026-08-04T05:10:00.278Z</time>
      </trkpt>
      <trkpt lat="45.91476" lon="6.84099">
        <ele>1208</ele>
        <time>2026-08-04T05:10:01.278Z</time>
      </trkpt>
      <trkpt lat="45.91476" lon="6.84101">
        <ele>1208</ele>
        <time>2026-08-04T05:10:02.278Z</time>
      </trkpt>
      <trkpt lat="45.91477" lon="6.84102">
        <ele>1208</ele>
        <time>2026-08-04T05:10:03.278Z</time>
      </trkpt>
      <trkpt lat="45.91478" lon="6.84103">
        <ele>1208</ele>
        <time>2026-08-04T05:10:04.278Z</time>
      </trkpt>
      <trkpt lat="45.91478" lon="6.84105">
        <ele>1208</ele>
        <time>2026-08-04T05:10:05.278Z</time>
      </trkpt>
      <trkpt lat="45.91479" lon="6.84107">
        <ele>1208</ele>
        <time>2026-08-04T05:10:06.278Z</time>
      </trkpt>
      <trkpt lat="45.9148" lon="6.84108">
        <ele>1207</ele>
        <time>2026-08-04T05:10:07.278Z</time>
      </trkpt>
      <trkpt lat="45.91482" lon="6.84109">
        <ele>1207</ele>
        <time>2026-08-04T05:10:08.278Z</time>
      </trkpt>
      <trkpt lat="45.91483" lon="6.84111">
        <ele>1206</ele>
        <time>2026-08-04T05:10:09.278Z</time>
      </trkpt>
      <trkpt lat="45.91484" lon="6.84114">
        <ele>1206</ele>
        <time>2026-08-04T05:10:10.278Z</time>
      </trkpt>
      <trkpt lat="45.91486" lon="6.84117">
        <ele>1205</ele>
        <time>2026-08-04T05:10:11.278Z</time>
      </trkpt>
      <trkpt lat="45.91487" lon="6.84119">
        <ele>1205</ele>
        <time>2026-08-04T05:10:12.278Z</time>
      </trkpt>
      <trkpt lat="45.91488" lon="6.84121">
        <ele>1204</ele>
        <time>2026-08-04T05:10:13.278Z</time>
      </trkpt>
      <trkpt lat="45.91489" lon="6.84122">
        <ele>1204</ele>
        <time>2026-08-04T05:10:14.278Z</time>
      </trkpt>
      <trkpt lat="45.9149" lon="6.84123">
        <ele>1203</ele>
        <time>2026-08-04T05:10:15.278Z</time>
      </trkpt>
      <trkpt lat="45.91491" lon="6.84124">
        <ele>1203</ele>
        <time>2026-08-04T05:10:16.278Z</time>
      </trkpt>
      <trkpt lat="45.91493" lon="6.84125">
        <ele>1203</ele>
        <time>2026-08-04T05:10:17.278Z</time>
      </trkpt>
      <trkpt lat="45.91494" lon="6.84126">
        <ele>1202</ele>
        <time>2026-08-04T05:10:18.278Z</time>
      </trkpt>
      <trkpt lat="45.91495" lon="6.84126">
        <ele>1202</ele>
        <time>2026-08-04T05:10:19.278Z</time>
      </trkpt>
      <trkpt lat="45.91497" lon="6.84127">
        <ele>1202</ele>
        <time>2026-08-04T05:10:20.278Z</time>
      </trkpt>
      <trkpt lat="45.91499" lon="6.84127">
        <ele>1201</ele>
        <time>2026-08-04T05:10:21.278Z</time>
      </trkpt>
      <trkpt lat="45.915" lon="6.84128">
        <ele>1201</ele>
        <time>2026-08-04T05:10:22.278Z</time>
      </trkpt>
      <trkpt lat="45.915" lon="6.84129">
        <ele>1201</ele>
        <time>2026-08-04T05:10:23.278Z</time>
      </trkpt>
      <trkpt lat="45.91501" lon="6.84129">
        <ele>1201</ele>
        <time>2026-08-04T05:10:24.278Z</time>
      </trkpt>
      <trkpt lat="45.91502" lon="6.84131">
        <ele>1201</ele>
        <time>2026-08-04T05:10:25.278Z</time>
      </trkpt>
      <trkpt lat="45.91504" lon="6.84132">
        <ele>1202</ele>
        <time>2026-08-04T05:10:26.278Z</time>
      </trkpt>
      <trkpt lat="45.91506" lon="6.84133">
        <ele>1202</ele>
        <time>2026-08-04T05:10:27.278Z</time>
      </trkpt>
      <trkpt lat="45.91507" lon="6.84134">
        <ele>1202</ele>
        <time>2026-08-04T05:10:28.278Z</time>
      </trkpt>
      <trkpt lat="45.91508" lon="6.84134">
        <ele>1203</ele>
        <time>2026-08-04T05:10:29.278Z</time>
      </trkpt>
      <trkpt lat="45.91509" lon="6.84136">
        <ele>1203</ele>
        <time>2026-08-04T05:10:30.278Z</time>
      </trkpt>
      <trkpt lat="45.91509" lon="6.84137">
        <ele>1203</ele>
        <time>2026-08-04T05:10:31.278Z</time>
      </trkpt>
      <trkpt lat="45.9151" lon="6.8414">
        <ele>1204</ele>
        <time>2026-08-04T05:10:32.278Z</time>
      </trkpt>
      <trkpt lat="45.91511" lon="6.84142">
        <ele>1204</ele>
        <time>2026-08-04T05:10:33.278Z</time>
      </trkpt>
      <trkpt lat="45.91511" lon="6.84145">
        <ele>1204</ele>
        <time>2026-08-04T05:10:34.278Z</time>
      </trkpt>
      <trkpt lat="45.91512" lon="6.84148">
        <ele>1204</ele>
        <time>2026-08-04T05:10:35.278Z</time>
      </trkpt>
      <trkpt lat="45.91512" lon="6.8415">
        <ele>1205</ele>
        <time>2026-08-04T05:10:36.278Z</time>
      </trkpt>
      <trkpt lat="45.91511" lon="6.84152">
        <ele>1205</ele>
        <time>2026-08-04T05:10:37.278Z</time>
      </trkpt>
      <trkpt lat="45.91511" lon="6.84154">
        <ele>1205</ele>
        <time>2026-08-04T05:10:38.278Z</time>
      </trkpt>
      <trkpt lat="45.9151" lon="6.84155">
        <ele>1205</ele>
        <time>2026-08-04T05:10:39.278Z</time>
      </trkpt>
      <trkpt lat="45.9151" lon="6.84157">
        <ele>1205</ele>
        <time>2026-08-04T05:10:40.278Z</time>
      </trkpt>
      <trkpt lat="45.91509" lon="6.84157">
        <ele>1205</ele>
        <time>2026-08-04T05:10:41.278Z</time>
      </trkpt>
      <trkpt lat="45.91509" lon="6.84157">
        <ele>1205</ele>
        <time>2026-08-04T05:10:42.278Z</time>
      </trkpt>
      <trkpt lat="45.9151" lon="6.84158">
        <ele>1205</ele>
        <time>2026-08-04T05:10:43.278Z</time>
      </trkpt>
      <trkpt lat="45.9151" lon="6.84158">
        <ele>1205</ele>
        <time>2026-08-04T05:10:44.278Z</time>
      </trkpt>
      <trkpt lat="45.91511" lon="6.84158">
        <ele>1205</ele>
        <time>2026-08-04T05:10:45.278Z</time>
      </trkpt>
      <trkpt lat="45.91511" lon="6.84158">
        <ele>1205</ele>
        <time>2026-08-04T05:10:46.278Z</time>
      </trkpt>
      <trkpt lat="45.91511" lon="6.84159">
        <ele>1205</ele>
        <time>2026-08-04T05:10:47.278Z</time>
      </trkpt>
      <trkpt lat="45.9151" lon="6.84159">
        <ele>1205</ele>
        <time>2026-08-04T05:10:48.278Z</time>
      </trkpt>
      <trkpt lat="45.91509" lon="6.8416">
        <ele>1205</ele>
        <time>2026-08-04T05:10:49.278Z</time>
      </trkpt>
      <trkpt lat="45.91509" lon="6.84161">
        <ele>1205</ele>
        <time>2026-08-04T05:10:50.278Z</time>
      </trkpt>
      <trkpt lat="45.91508" lon="6.84162">
        <ele>1206</ele>
        <time>2026-08-04T05:10:51.278Z</time>
      </trkpt>
      <trkpt lat="45.91507" lon="6.84164">
        <ele>1206</ele>
        <time>2026-08-04T05:10:52.278Z</time>
      </trkpt>
      <trkpt lat="45.91506" lon="6.84166">
        <ele>1206</ele>
        <time>2026-08-04T05:10:53.278Z</time>
      </trkpt>
      <trkpt lat="45.91505" lon="6.8417">
        <ele>1206</ele>
        <time>2026-08-04T05:10:54.278Z</time>
      </trkpt>
      <trkpt lat="45.91505" lon="6.84173">
        <ele>1206</ele>
        <time>2026-08-04T05:10:55.278Z</time>
      </trkpt>
      <trkpt lat="45.91505" lon="6.84176">
        <ele>1206</ele>
        <time>2026-08-04T05:10:56.278Z</time>
      </trkpt>
      <trkpt lat="45.91505" lon="6.84179">
        <ele>1205</ele>
        <time>2026-08-04T05:10:57.278Z</time>
      </trkpt>
      <trkpt lat="45.91506" lon="6.84182">
        <ele>1204</ele>
        <time>2026-08-04T05:10:58.278Z</time>
      </trkpt>
      <trkpt lat="45.91506" lon="6.84184">
        <ele>1204</ele>
        <time>2026-08-04T05:10:59.278Z</time>
      </trkpt>
      <trkpt lat="45.91506" lon="6.84187">
        <ele>1204</ele>
        <time>2026-08-04T05:11:00.278Z</time>
      </trkpt>
      <trkpt lat="45.91507" lon="6.8419">
        <ele>1204</ele>
        <time>2026-08-04T05:11:01.278Z</time>
      </trkpt>
      <trkpt lat="45.91508" lon="6.84193">
        <ele>1204</ele>
        <time>2026-08-04T05:11:02.278Z</time>
      </trkpt>
      <trkpt lat="45.91508" lon="6.84196">
        <ele>1203</ele>
        <time>2026-08-04T05:11:03.278Z</time>
      </trkpt>
      <trkpt lat="45.91508" lon="6.84199">
        <ele>1203</ele>
        <time>2026-08-04T05:11:04.278Z</time>
      </trkpt>
      <trkpt lat="45.91508" lon="6.84202">
        <ele>1204</ele>
        <time>2026-08-04T05:11:05.278Z</time>
      </trkpt>
      <trkpt lat="45.91507" lon="6.84204">
        <ele>1204</ele>
        <time>2026-08-04T05:11:06.278Z</time>
      </trkpt>
      <trkpt lat="45.91505" lon="6.84207">
        <ele>1204</ele>
        <time>2026-08-04T05:11:07.278Z</time>
      </trkpt>
      <trkpt lat="45.91504" lon="6.84209">
        <ele>1204</ele>
        <time>2026-08-04T05:11:08.278Z</time>
      </trkpt>
      <trkpt lat="45.91504" lon="6.84212">
        <ele>1204</ele>
        <time>2026-08-04T05:11:09.278Z</time>
      </trkpt>
      <trkpt lat="45.91503" lon="6.84215">
        <ele>1205</ele>
        <time>2026-08-04T05:11:10.278Z</time>
      </trkpt>
      <trkpt lat="45.91503" lon="6.84218">
        <ele>1205</ele>
        <time>2026-08-04T05:11:11.278Z</time>
      </trkpt>
      <trkpt lat="45.91503" lon="6.84222">
        <ele>1206</ele>
        <time>2026-08-04T05:11:12.278Z</time>
      </trkpt>
      <trkpt lat="45.91504" lon="6.84225">
        <ele>1207</ele>
        <time>2026-08-04T05:11:13.278Z</time>
      </trkpt>
      <trkpt lat="45.91504" lon="6.84229">
        <ele>1207</ele>
        <time>2026-08-04T05:11:14.278Z</time>
      </trkpt>
      <trkpt lat="45.91504" lon="6.84232">
        <ele>1208</ele>
        <time>2026-08-04T05:11:15.278Z</time>
      </trkpt>
      <trkpt lat="45.91504" lon="6.84235">
        <ele>1209</ele>
        <time>2026-08-04T05:11:16.278Z</time>
      </trkpt>
      <trkpt lat="45.91503" lon="6.84238">
        <ele>1210</ele>
        <time>2026-08-04T05:11:17.278Z</time>
      </trkpt>
      <trkpt lat="45.91502" lon="6.8424">
        <ele>1210</ele>
        <time>2026-08-04T05:11:18.278Z</time>
      </trkpt>
      <trkpt lat="45.91501" lon="6.84243">
        <ele>1211</ele>
        <time>2026-08-04T05:11:19.278Z</time>
      </trkpt>
      <trkpt lat="45.91501" lon="6.84246">
        <ele>1210</ele>
        <time>2026-08-04T05:11:20.278Z</time>
      </trkpt>
      <trkpt lat="45.91502" lon="6.8425">
        <ele>1210</ele>
        <time>2026-08-04T05:11:21.278Z</time>
      </trkpt>
      <trkpt lat="45.91503" lon="6.84254">
        <ele>1210</ele>
        <time>2026-08-04T05:11:22.278Z</time>
      </trkpt>
      <trkpt lat="45.91504" lon="6.84256">
        <ele>1209</ele>
        <time>2026-08-04T05:11:23.278Z</time>
      </trkpt>
      <trkpt lat="45.91506" lon="6.84258">
        <ele>1209</ele>
        <time>2026-08-04T05:11:24.278Z</time>
      </trkpt>
      <trkpt lat="45.91506" lon="6.8426">
        <ele>1209</ele>
        <time>2026-08-04T05:11:25.278Z</time>
      </trkpt>
      <trkpt lat="45.91508" lon="6.84262">
        <ele>1209</ele>
        <time>2026-08-04T05:11:26.278Z</time>
      </trkpt>
      <trkpt lat="45.9151" lon="6.84264">
        <ele>1209</ele>
        <time>2026-08-04T05:11:27.278Z</time>
      </trkpt>
      <trkpt lat="45.91511" lon="6.84265">
        <ele>1209</ele>
        <time>2026-08-04T05:11:28.278Z</time>
      </trkpt>
      <trkpt lat="45.91513" lon="6.84267">
        <ele>1209</ele>
        <time>2026-08-04T05:11:29.278Z</time>
      </trkpt>
      <trkpt lat="45.91515" lon="6.84268">
        <ele>1209</ele>
        <time>2026-08-04T05:11:30.278Z</time>
      </trkpt>
      <trkpt lat="45.91516" lon="6.84269">
        <ele>1209</ele>
        <time>2026-08-04T05:11:31.278Z</time>
      </trkpt>
      <trkpt lat="45.91517" lon="6.8427">
        <ele>1209</ele>
        <time>2026-08-04T05:11:32.278Z</time>
      </trkpt>
      <trkpt lat="45.91518" lon="6.84272">
        <ele>1209</ele>
        <time>2026-08-04T05:11:33.278Z</time>
      </trkpt>
      <trkpt lat="45.91519" lon="6.84273">
        <ele>1210</ele>
        <time>2026-08-04T05:11:34.278Z</time>
      </trkpt>
      <trkpt lat="45.91519" lon="6.84274">
        <ele>1210</ele>
        <time>2026-08-04T05:11:35.278Z</time>
      </trkpt>
      <trkpt lat="45.91519" lon="6.84275">
        <ele>1210</ele>
        <time>2026-08-04T05:11:36.278Z</time>
      </trkpt>
      <trkpt lat="45.91519" lon="6.84275">
        <ele>1210</ele>
        <time>2026-08-04T05:11:37.278Z</time>
      </trkpt>
      <trkpt lat="45.91519" lon="6.84275">
        <ele>1211</ele>
        <time>2026-08-04T05:11:38.278Z</time>
      </trkpt>
      <trkpt lat="45.91519" lon="6.84275">
        <ele>1211</ele>
        <time>2026-08-04T05:11:39.278Z</time>
      </trkpt>
      <trkpt lat="45.9152" lon="6.84275">
        <ele>1211</ele>
        <time>2026-08-04T05:11:40.278Z</time>
      </trkpt>
      <trkpt lat="45.91521" lon="6.84277">
        <ele>1211</ele>
        <time>2026-08-04T05:11:41.278Z</time>
      </trkpt>
      <trkpt lat="45.91523" lon="6.84277">
        <ele>1211</ele>
        <time>2026-08-04T05:11:42.278Z</time>
      </trkpt>
      <trkpt lat="45.91523" lon="6.84278">
        <ele>1211</ele>
        <time>2026-08-04T05:11:43.278Z</time>
      </trkpt>
      <trkpt lat="45.91523" lon="6.84278">
        <ele>1211</ele>
        <time>2026-08-04T05:11:44.278Z</time>
      </trkpt>
      <trkpt lat="45.91524" lon="6.84279">
        <ele>1211</ele>
        <time>2026-08-04T05:11:45.278Z</time>
      </trkpt>
      <trkpt lat="45.91524" lon="6.84279">
        <ele>1211</ele>
        <time>2026-08-04T05:11:46.278Z</time>
      </trkpt>
      <trkpt lat="45.91524" lon="6.8428">
        <ele>1212</ele>
        <time>2026-08-04T05:11:47.278Z</time>
      </trkpt>
      <trkpt lat="45.91525" lon="6.8428">
        <ele>1212</ele>
        <time>2026-08-04T05:11:48.278Z</time>
      </trkpt>
      <trkpt lat="45.91526" lon="6.8428">
        <ele>1213</ele>
        <time>2026-08-04T05:11:49.278Z</time>
      </trkpt>
      <trkpt lat="45.91527" lon="6.84281">
        <ele>1213</ele>
        <time>2026-08-04T05:11:50.278Z</time>
      </trkpt>
      <trkpt lat="45.91529" lon="6.84281">
        <ele>1213</ele>
        <time>2026-08-04T05:11:51.278Z</time>
      </trkpt>
      <trkpt lat="45.91531" lon="6.84283">
        <ele>1213</ele>
        <time>2026-08-04T05:11:52.278Z</time>
      </trkpt>
      <trkpt lat="45.91532" lon="6.84284">
        <ele>1213</ele>
        <time>2026-08-04T05:11:53.278Z</time>
      </trkpt>
      <trkpt lat="45.91534" lon="6.84284">
        <ele>1213</ele>
        <time>2026-08-04T05:11:54.278Z</time>
      </trkpt>
      <trkpt lat="45.91535" lon="6.84285">
        <ele>1213</ele>
        <time>2026-08-04T05:11:55.278Z</time>
      </trkpt>
      <trkpt lat="45.91537" lon="6.84286">
        <ele>1213</ele>
        <time>2026-08-04T05:11:56.278Z</time>
      </trkpt>
      <trkpt lat="45.91538" lon="6.84287">
        <ele>1213</ele>
        <time>2026-08-04T05:11:57.278Z</time>
      </trkpt>
      <trkpt lat="45.91539" lon="6.84288">
        <ele>1213</ele>
        <time>2026-08-04T05:11:58.278Z</time>
      </trkpt>
      <trkpt lat="45.9154" lon="6.84289">
        <ele>1214</ele>
        <time>2026-08-04T05:11:59.279Z</time>
      </trkpt>
      <trkpt lat="45.91541" lon="6.8429">
        <ele>1214</ele>
        <time>2026-08-04T05:12:00.278Z</time>
      </trkpt>
      <trkpt lat="45.91542" lon="6.84291">
        <ele>1214</ele>
        <time>2026-08-04T05:12:01.278Z</time>
      </trkpt>
      <trkpt lat="45.91542" lon="6.84293">
        <ele>1214</ele>
        <time>2026-08-04T05:12:02.278Z</time>
      </trkpt>
      <trkpt lat="45.91543" lon="6.84296">
        <ele>1214</ele>
        <time>2026-08-04T05:12:03.278Z</time>
      </trkpt>
      <trkpt lat="45.91544" lon="6.84298">
        <ele>1215</ele>
        <time>2026-08-04T05:12:04.278Z</time>
      </trkpt>
      <trkpt lat="45.91545" lon="6.84301">
        <ele>1215</ele>
        <time>2026-08-04T05:12:05.278Z</time>
      </trkpt>
      <trkpt lat="45.91547" lon="6.84302">
        <ele>1215</ele>
        <time>2026-08-04T05:12:06.278Z</time>
      </trkpt>
      <trkpt lat="45.91548" lon="6.84303">
        <ele>1215</ele>
        <time>2026-08-04T05:12:07.278Z</time>
      </trkpt>
      <trkpt lat="45.91549" lon="6.84303">
        <ele>1215</ele>
        <time>2026-08-04T05:12:08.278Z</time>
      </trkpt>
      <trkpt lat="45.91551" lon="6.84305">
        <ele>1215</ele>
        <time>2026-08-04T05:12:09.278Z</time>
      </trkpt>
      <trkpt lat="45.91552" lon="6.84307">
        <ele>1215</ele>
        <time>2026-08-04T05:12:10.278Z</time>
      </trkpt>
      <trkpt lat="45.91553" lon="6.8431">
        <ele>1216</ele>
        <time>2026-08-04T05:12:11.278Z</time>
      </trkpt>
      <trkpt lat="45.91554" lon="6.84313">
        <ele>1216</ele>
        <time>2026-08-04T05:12:12.278Z</time>
      </trkpt>
      <trkpt lat="45.91555" lon="6.84316">
        <ele>1216</ele>
        <time>2026-08-04T05:12:13.278Z</time>
      </trkpt>
      <trkpt lat="45.91556" lon="6.84319">
        <ele>1216</ele>
        <time>2026-08-04T05:12:14.278Z</time>
      </trkpt>
      <trkpt lat="45.91557" lon="6.84321">
        <ele>1215</ele>
        <time>2026-08-04T05:12:15.278Z</time>
      </trkpt>
      <trkpt lat="45.91558" lon="6.84324">
        <ele>1215</ele>
        <time>2026-08-04T05:12:16.278Z</time>
      </trkpt>
      <trkpt lat="45.91559" lon="6.84326">
        <ele>1214</ele>
        <time>2026-08-04T05:12:17.278Z</time>
      </trkpt>
      <trkpt lat="45.9156" lon="6.84328">
        <ele>1214</ele>
        <time>2026-08-04T05:12:18.278Z</time>
      </trkpt>
      <trkpt lat="45.91561" lon="6.8433">
        <ele>1213</ele>
        <time>2026-08-04T05:12:19.278Z</time>
      </trkpt>
      <trkpt lat="45.91562" lon="6.84331">
        <ele>1213</ele>
        <time>2026-08-04T05:12:20.278Z</time>
      </trkpt>
      <trkpt lat="45.91564" lon="6.84334">
        <ele>1213</ele>
        <time>2026-08-04T05:12:21.278Z</time>
      </trkpt>
      <trkpt lat="45.91565" lon="6.84338">
        <ele>1213</ele>
        <time>2026-08-04T05:12:22.278Z</time>
      </trkpt>
      <trkpt lat="45.91566" lon="6.84341">
        <ele>1213</ele>
        <time>2026-08-04T05:12:23.278Z</time>
      </trkpt>
      <trkpt lat="45.91568" lon="6.84343">
        <ele>1212</ele>
        <time>2026-08-04T05:12:24.278Z</time>
      </trkpt>
      <trkpt lat="45.9157" lon="6.84347">
        <ele>1212</ele>
        <time>2026-08-04T05:12:25.278Z</time>
      </trkpt>
      <trkpt lat="45.91571" lon="6.8435">
        <ele>1211</ele>
        <time>2026-08-04T05:12:26.278Z</time>
      </trkpt>
      <trkpt lat="45.91573" lon="6.84353">
        <ele>1211</ele>
        <time>2026-08-04T05:12:27.278Z</time>
      </trkpt>
      <trkpt lat="45.91575" lon="6.84357">
        <ele>1211</ele>
        <time>2026-08-04T05:12:28.278Z</time>
      </trkpt>
      <trkpt lat="45.91576" lon="6.84361">
        <ele>1210</ele>
        <time>2026-08-04T05:12:29.278Z</time>
      </trkpt>
      <trkpt lat="45.91578" lon="6.84365">
        <ele>1210</ele>
        <time>2026-08-04T05:12:30.278Z</time>
      </trkpt>
      <trkpt lat="45.91579" lon="6.84369">
        <ele>1210</ele>
        <time>2026-08-04T05:12:31.278Z</time>
      </trkpt>
      <trkpt lat="45.91581" lon="6.84372">
        <ele>1210</ele>
        <time>2026-08-04T05:12:32.278Z</time>
      </trkpt>
      <trkpt lat="45.91582" lon="6.84375">
        <ele>1210</ele>
        <time>2026-08-04T05:12:33.278Z</time>
      </trkpt>
      <trkpt lat="45.91584" lon="6.84378">
        <ele>1210</ele>
        <time>2026-08-04T05:12:34.278Z</time>
      </trkpt>
      <trkpt lat="45.91585" lon="6.8438">
        <ele>1210</ele>
        <time>2026-08-04T05:12:35.278Z</time>
      </trkpt>
      <trkpt lat="45.91586" lon="6.84383">
        <ele>1210</ele>
        <time>2026-08-04T05:12:36.278Z</time>
      </trkpt>
      <trkpt lat="45.91586" lon="6.84385">
        <ele>1210</ele>
        <time>2026-08-04T05:12:37.278Z</time>
      </trkpt>
      <trkpt lat="45.91587" lon="6.84387">
        <ele>1210</ele>
        <time>2026-08-04T05:12:38.278Z</time>
      </trkpt>
      <trkpt lat="45.91587" lon="6.84388">
        <ele>1210</ele>
        <time>2026-08-04T05:12:39.278Z</time>
      </trkpt>
      <trkpt lat="45.91588" lon="6.8439">
        <ele>1210</ele>
        <time>2026-08-04T05:12:40.278Z</time>
      </trkpt>
      <trkpt lat="45.91589" lon="6.84392">
        <ele>1211</ele>
        <time>2026-08-04T05:12:41.278Z</time>
      </trkpt>
      <trkpt lat="45.91589" lon="6.84395">
        <ele>1211</ele>
        <time>2026-08-04T05:12:42.278Z</time>
      </trkpt>
      <trkpt lat="45.91589" lon="6.84398">
        <ele>1212</ele>
        <time>2026-08-04T05:12:43.278Z</time>
      </trkpt>
      <trkpt lat="45.91589" lon="6.84402">
        <ele>1212</ele>
        <time>2026-08-04T05:12:44.278Z</time>
      </trkpt>
      <trkpt lat="45.9159" lon="6.84405">
        <ele>1213</ele>
        <time>2026-08-04T05:12:45.278Z</time>
      </trkpt>
      <trkpt lat="45.9159" lon="6.84407">
        <ele>1213</ele>
        <time>2026-08-04T05:12:46.278Z</time>
      </trkpt>
      <trkpt lat="45.9159" lon="6.8441">
        <ele>1214</ele>
        <time>2026-08-04T05:12:47.278Z</time>
      </trkpt>
      <trkpt lat="45.9159" lon="6.84413">
        <ele>1214</ele>
        <time>2026-08-04T05:12:48.278Z</time>
      </trkpt>
      <trkpt lat="45.91591" lon="6.84416">
        <ele>1214</ele>
        <time>2026-08-04T05:12:49.278Z</time>
      </trkpt>
      <trkpt lat="45.91592" lon="6.8442">
        <ele>1215</ele>
        <time>2026-08-04T05:12:50.278Z</time>
      </trkpt>
      <trkpt lat="45.91593" lon="6.84423">
        <ele>1215</ele>
        <time>2026-08-04T05:12:51.278Z</time>
      </trkpt>
      <trkpt lat="45.91594" lon="6.84427">
        <ele>1215</ele>
        <time>2026-08-04T05:12:52.278Z</time>
      </trkpt>
      <trkpt lat="45.91595" lon="6.84429">
        <ele>1215</ele>
        <time>2026-08-04T05:12:53.278Z</time>
      </trkpt>
      <trkpt lat="45.91596" lon="6.84433">
        <ele>1215</ele>
        <time>2026-08-04T05:12:54.278Z</time>
      </trkpt>
      <trkpt lat="45.91598" lon="6.84435">
        <ele>1215</ele>
        <time>2026-08-04T05:12:55.278Z</time>
      </trkpt>
      <trkpt lat="45.91599" lon="6.84437">
        <ele>1214</ele>
        <time>2026-08-04T05:12:56.278Z</time>
      </trkpt>
      <trkpt lat="45.91601" lon="6.84439">
        <ele>1213</ele>
        <time>2026-08-04T05:12:57.278Z</time>
      </trkpt>
      <trkpt lat="45.91603" lon="6.84441">
        <ele>1213</ele>
        <time>2026-08-04T05:12:58.278Z</time>
      </trkpt>
      <trkpt lat="45.91605" lon="6.84444">
        <ele>1212</ele>
        <time>2026-08-04T05:12:59.278Z</time>
      </trkpt>
      <trkpt lat="45.91607" lon="6.84448">
        <ele>1212</ele>
        <time>2026-08-04T05:13:00.278Z</time>
      </trkpt>
      <trkpt lat="45.91607" lon="6.84451">
        <ele>1212</ele>
        <time>2026-08-04T05:13:01.278Z</time>
      </trkpt>
      <trkpt lat="45.91608" lon="6.84453">
        <ele>1212</ele>
        <time>2026-08-04T05:13:02.278Z</time>
      </trkpt>
      <trkpt lat="45.91609" lon="6.84455">
        <ele>1212</ele>
        <time>2026-08-04T05:13:03.278Z</time>
      </trkpt>
      <trkpt lat="45.9161" lon="6.84458">
        <ele>1211</ele>
        <time>2026-08-04T05:13:04.278Z</time>
      </trkpt>
      <trkpt lat="45.91611" lon="6.8446">
        <ele>1211</ele>
        <time>2026-08-04T05:13:05.278Z</time>
      </trkpt>
      <trkpt lat="45.91613" lon="6.84462">
        <ele>1210</ele>
        <time>2026-08-04T05:13:06.278Z</time>
      </trkpt>
      <trkpt lat="45.91614" lon="6.84464">
        <ele>1210</ele>
        <time>2026-08-04T05:13:07.278Z</time>
      </trkpt>
      <trkpt lat="45.91615" lon="6.84467">
        <ele>1209</ele>
        <time>2026-08-04T05:13:08.278Z</time>
      </trkpt>
      <trkpt lat="45.91616" lon="6.84469">
        <ele>1209</ele>
        <time>2026-08-04T05:13:09.278Z</time>
      </trkpt>
      <trkpt lat="45.91618" lon="6.84471">
        <ele>1208</ele>
        <time>2026-08-04T05:13:10.278Z</time>
      </trkpt>
      <trkpt lat="45.91619" lon="6.84473">
        <ele>1208</ele>
        <time>2026-08-04T05:13:11.278Z</time>
      </trkpt>
      <trkpt lat="45.9162" lon="6.84473">
        <ele>1207</ele>
        <time>2026-08-04T05:13:12.278Z</time>
      </trkpt>
      <trkpt lat="45.91621" lon="6.84474">
        <ele>1207</ele>
        <time>2026-08-04T05:13:13.278Z</time>
      </trkpt>
      <trkpt lat="45.91621" lon="6.84475">
        <ele>1207</ele>
        <time>2026-08-04T05:13:14.278Z</time>
      </trkpt>
      <trkpt lat="45.91621" lon="6.84476">
        <ele>1207</ele>
        <time>2026-08-04T05:13:15.278Z</time>
      </trkpt>
      <trkpt lat="45.91621" lon="6.84476">
        <ele>1206</ele>
        <time>2026-08-04T05:13:16.278Z</time>
      </trkpt>
      <trkpt lat="45.91621" lon="6.84476">
        <ele>1206</ele>
        <time>2026-08-04T05:13:17.278Z</time>
      </trkpt>
      <trkpt lat="45.91621" lon="6.84476">
        <ele>1206</ele>
        <time>2026-08-04T05:13:18.278Z</time>
      </trkpt>
      <trkpt lat="45.9162" lon="6.84476">
        <ele>1205</ele>
        <time>2026-08-04T05:13:19.278Z</time>
      </trkpt>
      <trkpt lat="45.9162" lon="6.84477">
        <ele>1205</ele>
        <time>2026-08-04T05:13:20.278Z</time>
      </trkpt>
      <trkpt lat="45.91619" lon="6.84477">
        <ele>1204</ele>
        <time>2026-08-04T05:13:21.278Z</time>
      </trkpt>
      <trkpt lat="45.91619" lon="6.84478">
        <ele>1204</ele>
        <time>2026-08-04T05:13:22.278Z</time>
      </trkpt>
      <trkpt lat="45.91619" lon="6.84477">
        <ele>1203</ele>
        <time>2026-08-04T05:13:23.278Z</time>
      </trkpt>
      <trkpt lat="45.91619" lon="6.84478">
        <ele>1203</ele>
        <time>2026-08-04T05:13:24.278Z</time>
      </trkpt>
      <trkpt lat="45.91619" lon="6.84478">
        <ele>1203</ele>
        <time>2026-08-04T05:13:25.278Z</time>
      </trkpt>
      <trkpt lat="45.91619" lon="6.84478">
        <ele>1202</ele>
        <time>2026-08-04T05:13:26.278Z</time>
      </trkpt>
      <trkpt lat="45.91619" lon="6.84477">
        <ele>1202</ele>
        <time>2026-08-04T05:13:27.278Z</time>
      </trkpt>
      <trkpt lat="45.91619" lon="6.84477">
        <ele>1202</ele>
        <time>2026-08-04T05:13:28.278Z</time>
      </trkpt>
      <trkpt lat="45.91619" lon="6.84477">
        <ele>1201</ele>
        <time>2026-08-04T05:13:29.278Z</time>
      </trkpt>
      <trkpt lat="45.91619" lon="6.84477">
        <ele>1201</ele>
        <time>2026-08-04T05:13:30.278Z</time>
      </trkpt>
      <trkpt lat="45.91619" lon="6.84477">
        <ele>1201</ele>
        <time>2026-08-04T05:13:31.278Z</time>
      </trkpt>
      <trkpt lat="45.91618" lon="6.84478">
        <ele>1201</ele>
        <time>2026-08-04T05:13:32.278Z</time>
      </trkpt>
      <trkpt lat="45.91617" lon="6.84477">
        <ele>1201</ele>
        <time>2026-08-04T05:13:33.278Z</time>
      </trkpt>
      <trkpt lat="45.91616" lon="6.84476">
        <ele>1200</ele>
        <time>2026-08-04T05:13:34.278Z</time>
      </trkpt>
      <trkpt lat="45.91614" lon="6.84475">
        <ele>1200</ele>
        <time>2026-08-04T05:13:35.278Z</time>
      </trkpt>
      <trkpt lat="45.91613" lon="6.84473">
        <ele>1200</ele>
        <time>2026-08-04T05:13:36.278Z</time>
      </trkpt>
      <trkpt lat="45.91611" lon="6.84471">
        <ele>1199</ele>
        <time>2026-08-04T05:13:37.278Z</time>
      </trkpt>
      <trkpt lat="45.9161" lon="6.8447">
        <ele>1199</ele>
        <time>2026-08-04T05:13:38.278Z</time>
      </trkpt>
      <trkpt lat="45.91608" lon="6.84468">
        <ele>1199</ele>
        <time>2026-08-04T05:13:39.278Z</time>
      </trkpt>
      <trkpt lat="45.91606" lon="6.84466">
        <ele>1198</ele>
        <time>2026-08-04T05:13:40.278Z</time>
      </trkpt>
      <trkpt lat="45.91605" lon="6.84465">
        <ele>1198</ele>
        <time>2026-08-04T05:13:41.278Z</time>
      </trkpt>
      <trkpt lat="45.91603" lon="6.84463">
        <ele>1198</ele>
        <time>2026-08-04T05:13:42.278Z</time>
      </trkpt>
      <trkpt lat="45.91602" lon="6.84461">
        <ele>1198</ele>
        <time>2026-08-04T05:13:43.278Z</time>
      </trkpt>
      <trkpt lat="45.91601" lon="6.8446">
        <ele>1198</ele>
        <time>2026-08-04T05:13:44.278Z</time>
      </trkpt>
      <trkpt lat="45.91599" lon="6.84459">
        <ele>1197</ele>
        <time>2026-08-04T05:13:45.278Z</time>
      </trkpt>
      <trkpt lat="45.91598" lon="6.84458">
        <ele>1197</ele>
        <time>2026-08-04T05:13:46.278Z</time>
      </trkpt>
      <trkpt lat="45.91596" lon="6.84458">
        <ele>1197</ele>
        <time>2026-08-04T05:13:47.278Z</time>
      </trkpt>
      <trkpt lat="45.91595" lon="6.84459">
        <ele>1196</ele>
        <time>2026-08-04T05:13:48.278Z</time>
      </trkpt>
      <trkpt lat="45.91594" lon="6.8446">
        <ele>1196</ele>
        <time>2026-08-04T05:13:49.278Z</time>
      </trkpt>
      <trkpt lat="45.91593" lon="6.84459">
        <ele>1196</ele>
        <time>2026-08-04T05:13:50.278Z</time>
      </trkpt>
      <trkpt lat="45.91593" lon="6.84459">
        <ele>1195</ele>
        <time>2026-08-04T05:13:51.278Z</time>
      </trkpt>
      <trkpt lat="45.91593" lon="6.8446">
        <ele>1195</ele>
        <time>2026-08-04T05:13:52.278Z</time>
      </trkpt>
      <trkpt lat="45.91592" lon="6.8446">
        <ele>1195</ele>
        <time>2026-08-04T05:13:53.278Z</time>
      </trkpt>
      <trkpt lat="45.91592" lon="6.8446">
        <ele>1194</ele>
        <time>2026-08-04T05:13:54.278Z</time>
      </trkpt>
      <trkpt lat="45.91591" lon="6.8446">
        <ele>1194</ele>
        <time>2026-08-04T05:13:55.278Z</time>
      </trkpt>
      <trkpt lat="45.9159" lon="6.84459">
        <ele>1193</ele>
        <time>2026-08-04T05:13:56.278Z</time>
      </trkpt>
      <trkpt lat="45.91589" lon="6.84458">
        <ele>1193</ele>
        <time>2026-08-04T05:13:57.278Z</time>
      </trkpt>
      <trkpt lat="45.91588" lon="6.84456">
        <ele>1193</ele>
        <time>2026-08-04T05:13:58.278Z</time>
      </trkpt>
      <trkpt lat="45.91587" lon="6.84455">
        <ele>1193</ele>
        <time>2026-08-04T05:13:59.278Z</time>
      </trkpt>
      <trkpt lat="45.91586" lon="6.84453">
        <ele>1194</ele>
        <time>2026-08-04T05:14:00.278Z</time>
      </trkpt>
      <trkpt lat="45.91585" lon="6.84453">
        <ele>1194</ele>
        <time>2026-08-04T05:14:01.278Z</time>
      </trkpt>
      <trkpt lat="45.91584" lon="6.84452">
        <ele>1193</ele>
        <time>2026-08-04T05:14:02.278Z</time>
      </trkpt>
      <trkpt lat="45.91583" lon="6.84451">
        <ele>1193</ele>
        <time>2026-08-04T05:14:03.278Z</time>
      </trkpt>
      <trkpt lat="45.91581" lon="6.8445">
        <ele>1193</ele>
        <time>2026-08-04T05:14:04.278Z</time>
      </trkpt>
      <trkpt lat="45.9158" lon="6.84449">
        <ele>1193</ele>
        <time>2026-08-04T05:14:05.278Z</time>
      </trkpt>
      <trkpt lat="45.91578" lon="6.84449">
        <ele>1193</ele>
        <time>2026-08-04T05:14:06.278Z</time>
      </trkpt>
      <trkpt lat="45.91575" lon="6.84448">
        <ele>1193</ele>
        <time>2026-08-04T05:14:07.278Z</time>
      </trkpt>
      <trkpt lat="45.91573" lon="6.84447">
        <ele>1193</ele>
        <time>2026-08-04T05:14:08.278Z</time>
      </trkpt>
      <trkpt lat="45.91571" lon="6.84445">
        <ele>1192</ele>
        <time>2026-08-04T05:14:09.278Z</time>
      </trkpt>
      <trkpt lat="45.91569" lon="6.84443">
        <ele>1193</ele>
        <time>2026-08-04T05:14:10.278Z</time>
      </trkpt>
      <trkpt lat="45.91568" lon="6.84441">
        <ele>1192</ele>
        <time>2026-08-04T05:14:11.278Z</time>
      </trkpt>
      <trkpt lat="45.91568" lon="6.84438">
        <ele>1192</ele>
        <time>2026-08-04T05:14:12.278Z</time>
      </trkpt>
      <trkpt lat="45.91568" lon="6.84435">
        <ele>1192</ele>
        <time>2026-08-04T05:14:13.278Z</time>
      </trkpt>
      <trkpt lat="45.91567" lon="6.84433">
        <ele>1192</ele>
        <time>2026-08-04T05:14:14.278Z</time>
      </trkpt>
      <trkpt lat="45.91567" lon="6.84432">
        <ele>1192</ele>
        <time>2026-08-04T05:14:15.278Z</time>
      </trkpt>
      <trkpt lat="45.91567" lon="6.84432">
        <ele>1192</ele>
        <time>2026-08-04T05:14:16.278Z</time>
      </trkpt>
      <trkpt lat="45.91567" lon="6.84432">
        <ele>1192</ele>
        <time>2026-08-04T05:14:17.278Z</time>
      </trkpt>
      <trkpt lat="45.91567" lon="6.84431">
        <ele>1191</ele>
        <time>2026-08-04T05:14:18.278Z</time>
      </trkpt>
      <trkpt lat="45.91567" lon="6.84431">
        <ele>1191</ele>
        <time>2026-08-04T05:14:19.278Z</time>
      </trkpt>
      <trkpt lat="45.91567" lon="6.84431">
        <ele>1191</ele>
        <time>2026-08-04T05:14:20.278Z</time>
      </trkpt>
      <trkpt lat="45.91567" lon="6.84431">
        <ele>1192</ele>
        <time>2026-08-04T05:14:21.278Z</time>
      </trkpt>
      <trkpt lat="45.91567" lon="6.84431">
        <ele>1193</ele>
        <time>2026-08-04T05:14:22.278Z</time>
      </trkpt>
      <trkpt lat="45.91567" lon="6.84431">
        <ele>1194</ele>
        <time>2026-08-04T05:14:23.278Z</time>
      </trkpt>
      <trkpt lat="45.91567" lon="6.84431">
        <ele>1195</ele>
        <time>2026-08-04T05:14:24.278Z</time>
      </trkpt>
      <trkpt lat="45.91566" lon="6.84433">
        <ele>1195</ele>
        <time>2026-08-04T05:14:25.278Z</time>
      </trkpt>
      <trkpt lat="45.91566" lon="6.84432">
        <ele>1196</ele>
        <time>2026-08-04T05:14:26.278Z</time>
      </trkpt>
      <trkpt lat="45.91566" lon="6.84432">
        <ele>1196</ele>
        <time>2026-08-04T05:14:27.278Z</time>
      </trkpt>
      <trkpt lat="45.91566" lon="6.84432">
        <ele>1196</ele>
        <time>2026-08-04T05:14:28.278Z</time>
      </trkpt>
      <trkpt lat="45.91566" lon="6.84432">
        <ele>1197</ele>
        <time>2026-08-04T05:14:29.278Z</time>
      </trkpt>
      <trkpt lat="45.91566" lon="6.84432">
        <ele>1197</ele>
        <time>2026-08-04T05:14:30.278Z</time>
      </trkpt>
      <trkpt lat="45.91566" lon="6.84432">
        <ele>1197</ele>
        <time>2026-08-04T05:14:31.278Z</time>
      </trkpt>
      <trkpt lat="45.91566" lon="6.84431">
        <ele>1197</ele>
        <time>2026-08-04T05:14:32.278Z</time>
      </trkpt>
      <trkpt lat="45.91566" lon="6.84431">
        <ele>1197</ele>
        <time>2026-08-04T05:14:33.278Z</time>
      </trkpt>
      <trkpt lat="45.91566" lon="6.84431">
        <ele>1196</ele>
        <time>2026-08-04T05:14:34.278Z</time>
      </trkpt>
      <trkpt lat="45.91566" lon="6.84431">
        <ele>1196</ele>
        <time>2026-08-04T05:14:35.278Z</time>
      </trkpt>
      <trkpt lat="45.91566" lon="6.84431">
        <ele>1196</ele>
        <time>2026-08-04T05:14:36.278Z</time>
      </trkpt>
      <trkpt lat="45.91566" lon="6.84431">
        <ele>1196</ele>
        <time>2026-08-04T05:14:37.278Z</time>
      </trkpt>
      <trkpt lat="45.91566" lon="6.84431">
        <ele>1196</ele>
        <time>2026-08-04T05:14:38.278Z</time>
      </trkpt>
      <trkpt lat="45.91566" lon="6.84431">
        <ele>1196</ele>
        <time>2026-08-04T05:14:39.278Z</time>
      </trkpt>
      <trkpt lat="45.91566" lon="6.84432">
        <ele>1196</ele>
        <time>2026-08-04T05:14:40.278Z</time>
      </trkpt>
      <trkpt lat="45.91567" lon="6.84432">
        <ele>1196</ele>
        <time>2026-08-04T05:14:41.278Z</time>
      </trkpt>
      <trkpt lat="45.91569" lon="6.84433">
        <ele>1196</ele>
        <time>2026-08-04T05:14:42.278Z</time>
      </trkpt>
      <trkpt lat="45.91571" lon="6.84434">
        <ele>1196</ele>
        <time>2026-08-04T05:14:43.278Z</time>
      </trkpt>
      <trkpt lat="45.91573" lon="6.84436">
        <ele>1196</ele>
        <time>2026-08-04T05:14:44.278Z</time>
      </trkpt>
      <trkpt lat="45.91574" lon="6.84438">
        <ele>1196</ele>
        <time>2026-08-04T05:14:45.278Z</time>
      </trkpt>
      <trkpt lat="45.91575" lon="6.84441">
        <ele>1196</ele>
        <time>2026-08-04T05:14:46.278Z</time>
      </trkpt>
      <trkpt lat="45.91577" lon="6.84444">
        <ele>1196</ele>
        <time>2026-08-04T05:14:47.278Z</time>
      </trkpt>
      <trkpt lat="45.91578" lon="6.84448">
        <ele>1196</ele>
        <time>2026-08-04T05:14:48.278Z</time>
      </trkpt>
      <trkpt lat="45.91579" lon="6.84452">
        <ele>1196</ele>
        <time>2026-08-04T05:14:49.278Z</time>
      </trkpt>
      <trkpt lat="45.91579" lon="6.84456">
        <ele>1196</ele>
        <time>2026-08-04T05:14:50.278Z</time>
      </trkpt>
      <trkpt lat="45.91579" lon="6.84458">
        <ele>1196</ele>
        <time>2026-08-04T05:14:51.278Z</time>
      </trkpt>
      <trkpt lat="45.91579" lon="6.84461">
        <ele>1196</ele>
        <time>2026-08-04T05:14:52.278Z</time>
      </trkpt>
      <trkpt lat="45.9158" lon="6.84463">
        <ele>1197</ele>
        <time>2026-08-04T05:14:53.278Z</time>
      </trkpt>
      <trkpt lat="45.91581" lon="6.84465">
        <ele>1197</ele>
        <time>2026-08-04T05:14:54.278Z</time>
      </trkpt>
      <trkpt lat="45.91582" lon="6.84467">
        <ele>1197</ele>
        <time>2026-08-04T05:14:55.278Z</time>
      </trkpt>
      <trkpt lat="45.91583" lon="6.84469">
        <ele>1197</ele>
        <time>2026-08-04T05:14:56.278Z</time>
      </trkpt>
      <trkpt lat="45.91585" lon="6.84471">
        <ele>1197</ele>
        <time>2026-08-04T05:14:57.278Z</time>
      </trkpt>
      <trkpt lat="45.91586" lon="6.84474">
        <ele>1197</ele>
        <time>2026-08-04T05:14:58.278Z</time>
      </trkpt>
      <trkpt lat="45.91588" lon="6.84477">
        <ele>1197</ele>
        <time>2026-08-04T05:14:59.278Z</time>
      </trkpt>
      <trkpt lat="45.91589" lon="6.8448">
        <ele>1197</ele>
        <time>2026-08-04T05:15:00.278Z</time>
      </trkpt>
      <trkpt lat="45.91591" lon="6.84483">
        <ele>1197</ele>
        <time>2026-08-04T05:15:01.278Z</time>
      </trkpt>
      <trkpt lat="45.91592" lon="6.84485">
        <ele>1197</ele>
        <time>2026-08-04T05:15:02.278Z</time>
      </trkpt>
      <trkpt lat="45.91594" lon="6.84486">
        <ele>1197</ele>
        <time>2026-08-04T05:15:03.278Z</time>
      </trkpt>
      <trkpt lat="45.91597" lon="6.84488">
        <ele>1196</ele>
        <time>2026-08-04T05:15:04.278Z</time>
      </trkpt>
      <trkpt lat="45.91599" lon="6.8449">
        <ele>1195</ele>
        <time>2026-08-04T05:15:05.278Z</time>
      </trkpt>
      <trkpt lat="45.916" lon="6.84492">
        <ele>1194</ele>
        <time>2026-08-04T05:15:06.278Z</time>
      </trkpt>
      <trkpt lat="45.91602" lon="6.84494">
        <ele>1192</ele>
        <time>2026-08-04T05:15:07.278Z</time>
      </trkpt>
      <trkpt lat="45.91603" lon="6.84496">
        <ele>1192</ele>
        <time>2026-08-04T05:15:08.278Z</time>
      </trkpt>
      <trkpt lat="45.91604" lon="6.84498">
        <ele>1191</ele>
        <time>2026-08-04T05:15:09.278Z</time>
      </trkpt>
      <trkpt lat="45.91606" lon="6.84501">
        <ele>1190</ele>
        <time>2026-08-04T05:15:10.278Z</time>
      </trkpt>
      <trkpt lat="45.91607" lon="6.84503">
        <ele>1189</ele>
        <time>2026-08-04T05:15:11.278Z</time>
      </trkpt>
      <trkpt lat="45.91608" lon="6.84505">
        <ele>1189</ele>
        <time>2026-08-04T05:15:12.278Z</time>
      </trkpt>
      <trkpt lat="45.91609" lon="6.84507">
        <ele>1188</ele>
        <time>2026-08-04T05:15:13.278Z</time>
      </trkpt>
      <trkpt lat="45.9161" lon="6.8451">
        <ele>1188</ele>
        <time>2026-08-04T05:15:14.278Z</time>
      </trkpt>
      <trkpt lat="45.91612" lon="6.84512">
        <ele>1188</ele>
        <time>2026-08-04T05:15:15.278Z</time>
      </trkpt>
      <trkpt lat="45.91614" lon="6.84515">
        <ele>1188</ele>
        <time>2026-08-04T05:15:16.278Z</time>
      </trkpt>
      <trkpt lat="45.91616" lon="6.84517">
        <ele>1187</ele>
        <time>2026-08-04T05:15:17.278Z</time>
      </trkpt>
      <trkpt lat="45.91617" lon="6.84521">
        <ele>1187</ele>
        <time>2026-08-04T05:15:18.278Z</time>
      </trkpt>
      <trkpt lat="45.91619" lon="6.84524">
        <ele>1187</ele>
        <time>2026-08-04T05:15:19.278Z</time>
      </trkpt>
      <trkpt lat="45.91621" lon="6.84527">
        <ele>1187</ele>
        <time>2026-08-04T05:15:20.278Z</time>
      </trkpt>
      <trkpt lat="45.91623" lon="6.84531">
        <ele>1187</ele>
        <time>2026-08-04T05:15:21.278Z</time>
      </trkpt>
      <trkpt lat="45.91625" lon="6.84534">
        <ele>1187</ele>
        <time>2026-08-04T05:15:22.278Z</time>
      </trkpt>
      <trkpt lat="45.91626" lon="6.84537">
        <ele>1187</ele>
        <time>2026-08-04T05:15:23.278Z</time>
      </trkpt>
      <trkpt lat="45.91629" lon="6.84541">
        <ele>1187</ele>
        <time>2026-08-04T05:15:24.278Z</time>
      </trkpt>
      <trkpt lat="45.9163" lon="6.84543">
        <ele>1187</ele>
        <time>2026-08-04T05:15:25.278Z</time>
      </trkpt>
      <trkpt lat="45.91632" lon="6.84546">
        <ele>1187</ele>
        <time>2026-08-04T05:15:26.278Z</time>
      </trkpt>
      <trkpt lat="45.91633" lon="6.84548">
        <ele>1187</ele>
        <time>2026-08-04T05:15:27.278Z</time>
      </trkpt>
      <trkpt lat="45.91634" lon="6.84551">
        <ele>1187</ele>
        <time>2026-08-04T05:15:28.278Z</time>
      </trkpt>
      <trkpt lat="45.91636" lon="6.84553">
        <ele>1186</ele>
        <time>2026-08-04T05:15:29.278Z</time>
      </trkpt>
      <trkpt lat="45.91636" lon="6.84554">
        <ele>1186</ele>
        <time>2026-08-04T05:15:30.278Z</time>
      </trkpt>
      <trkpt lat="45.91637" lon="6.84557">
        <ele>1186</ele>
        <time>2026-08-04T05:15:31.278Z</time>
      </trkpt>
      <trkpt lat="45.91638" lon="6.84559">
        <ele>1186</ele>
        <time>2026-08-04T05:15:32.278Z</time>
      </trkpt>
      <trkpt lat="45.91639" lon="6.84562">
        <ele>1186</ele>
        <time>2026-08-04T05:15:33.278Z</time>
      </trkpt>
      <trkpt lat="45.9164" lon="6.84564">
        <ele>1186</ele>
        <time>2026-08-04T05:15:34.278Z</time>
      </trkpt>
      <trkpt lat="45.91642" lon="6.84566">
        <ele>1185</ele>
        <time>2026-08-04T05:15:35.278Z</time>
      </trkpt>
      <trkpt lat="45.91643" lon="6.84568">
        <ele>1185</ele>
        <time>2026-08-04T05:15:36.278Z</time>
      </trkpt>
      <trkpt lat="45.91644" lon="6.8457">
        <ele>1185</ele>
        <time>2026-08-04T05:15:37.278Z</time>
      </trkpt>
      <trkpt lat="45.91645" lon="6.84572">
        <ele>1185</ele>
        <time>2026-08-04T05:15:38.278Z</time>
      </trkpt>
      <trkpt lat="45.91646" lon="6.84575">
        <ele>1184</ele>
        <time>2026-08-04T05:15:39.278Z</time>
      </trkpt>
      <trkpt lat="45.91648" lon="6.84578">
        <ele>1184</ele>
        <time>2026-08-04T05:15:40.278Z</time>
      </trkpt>
      <trkpt lat="45.9165" lon="6.84582">
        <ele>1184</ele>
        <time>2026-08-04T05:15:41.278Z</time>
      </trkpt>
      <trkpt lat="45.91651" lon="6.84585">
        <ele>1183</ele>
        <time>2026-08-04T05:15:42.278Z</time>
      </trkpt>
      <trkpt lat="45.91653" lon="6.84587">
        <ele>1183</ele>
        <time>2026-08-04T05:15:43.278Z</time>
      </trkpt>
      <trkpt lat="45.91654" lon="6.84591">
        <ele>1183</ele>
        <time>2026-08-04T05:15:44.278Z</time>
      </trkpt>
      <trkpt lat="45.91655" lon="6.84594">
        <ele>1183</ele>
        <time>2026-08-04T05:15:45.278Z</time>
      </trkpt>
      <trkpt lat="45.91657" lon="6.84596">
        <ele>1182</ele>
        <time>2026-08-04T05:15:46.278Z</time>
      </trkpt>
      <trkpt lat="45.91659" lon="6.84599">
        <ele>1182</ele>
        <time>2026-08-04T05:15:47.278Z</time>
      </trkpt>
      <trkpt lat="45.91661" lon="6.84602">
        <ele>1183</ele>
        <time>2026-08-04T05:15:48.278Z</time>
      </trkpt>
      <trkpt lat="45.91662" lon="6.84605">
        <ele>1183</ele>
        <time>2026-08-04T05:15:49.278Z</time>
      </trkpt>
      <trkpt lat="45.91662" lon="6.84608">
        <ele>1183</ele>
        <time>2026-08-04T05:15:50.278Z</time>
      </trkpt>
      <trkpt lat="45.91662" lon="6.84611">
        <ele>1183</ele>
        <time>2026-08-04T05:15:51.278Z</time>
      </trkpt>
      <trkpt lat="45.91662" lon="6.84615">
        <ele>1183</ele>
        <time>2026-08-04T05:15:52.278Z</time>
      </trkpt>
      <trkpt lat="45.91662" lon="6.84618">
        <ele>1183</ele>
        <time>2026-08-04T05:15:53.278Z</time>
      </trkpt>
      <trkpt lat="45.91662" lon="6.84621">
        <ele>1183</ele>
        <time>2026-08-04T05:15:54.278Z</time>
      </trkpt>
      <trkpt lat="45.91663" lon="6.84624">
        <ele>1184</ele>
        <time>2026-08-04T05:15:55.278Z</time>
      </trkpt>
      <trkpt lat="45.91663" lon="6.84626">
        <ele>1184</ele>
        <time>2026-08-04T05:15:56.278Z</time>
      </trkpt>
      <trkpt lat="45.91664" lon="6.84629">
        <ele>1185</ele>
        <time>2026-08-04T05:15:57.278Z</time>
      </trkpt>
      <trkpt lat="45.91665" lon="6.84632">
        <ele>1185</ele>
        <time>2026-08-04T05:15:58.278Z</time>
      </trkpt>
      <trkpt lat="45.91665" lon="6.84635">
        <ele>1186</ele>
        <time>2026-08-04T05:15:59.278Z</time>
      </trkpt>
      <trkpt lat="45.91666" lon="6.84638">
        <ele>1186</ele>
        <time>2026-08-04T05:16:00.278Z</time>
      </trkpt>
      <trkpt lat="45.91667" lon="6.8464">
        <ele>1186</ele>
        <time>2026-08-04T05:16:01.278Z</time>
      </trkpt>
      <trkpt lat="45.91667" lon="6.84642">
        <ele>1186</ele>
        <time>2026-08-04T05:16:02.278Z</time>
      </trkpt>
      <trkpt lat="45.91668" lon="6.84644">
        <ele>1187</ele>
        <time>2026-08-04T05:16:03.278Z</time>
      </trkpt>
      <trkpt lat="45.91669" lon="6.84645">
        <ele>1187</ele>
        <time>2026-08-04T05:16:04.278Z</time>
      </trkpt>
      <trkpt lat="45.91671" lon="6.84647">
        <ele>1187</ele>
        <time>2026-08-04T05:16:05.278Z</time>
      </trkpt>
      <trkpt lat="45.91673" lon="6.84649">
        <ele>1188</ele>
        <time>2026-08-04T05:16:06.278Z</time>
      </trkpt>
      <trkpt lat="45.91675" lon="6.84651">
        <ele>1188</ele>
        <time>2026-08-04T05:16:07.278Z</time>
      </trkpt>
      <trkpt lat="45.91676" lon="6.84653">
        <ele>1188</ele>
        <time>2026-08-04T05:16:08.278Z</time>
      </trkpt>
      <trkpt lat="45.91678" lon="6.84654">
        <ele>1188</ele>
        <time>2026-08-04T05:16:09.278Z</time>
      </trkpt>
      <trkpt lat="45.9168" lon="6.84653">
        <ele>1188</ele>
        <time>2026-08-04T05:16:10.278Z</time>
      </trkpt>
      <trkpt lat="45.91681" lon="6.84654">
        <ele>1188</ele>
        <time>2026-08-04T05:16:11.278Z</time>
      </trkpt>
      <trkpt lat="45.91683" lon="6.84655">
        <ele>1188</ele>
        <time>2026-08-04T05:16:12.278Z</time>
      </trkpt>
      <trkpt lat="45.91684" lon="6.84657">
        <ele>1188</ele>
        <time>2026-08-04T05:16:13.278Z</time>
      </trkpt>
      <trkpt lat="45.91686" lon="6.84659">
        <ele>1188</ele>
        <time>2026-08-04T05:16:14.278Z</time>
      </trkpt>
      <trkpt lat="45.91687" lon="6.84661">
        <ele>1188</ele>
        <time>2026-08-04T05:16:15.278Z</time>
      </trkpt>
      <trkpt lat="45.91689" lon="6.84662">
        <ele>1188</ele>
        <time>2026-08-04T05:16:16.278Z</time>
      </trkpt>
      <trkpt lat="45.9169" lon="6.84663">
        <ele>1187</ele>
        <time>2026-08-04T05:16:17.278Z</time>
      </trkpt>
      <trkpt lat="45.91692" lon="6.84665">
        <ele>1187</ele>
        <time>2026-08-04T05:16:18.278Z</time>
      </trkpt>
      <trkpt lat="45.91693" lon="6.84666">
        <ele>1188</ele>
        <time>2026-08-04T05:16:19.278Z</time>
      </trkpt>
      <trkpt lat="45.91694" lon="6.84667">
        <ele>1188</ele>
        <time>2026-08-04T05:16:20.278Z</time>
      </trkpt>
      <trkpt lat="45.91695" lon="6.84668">
        <ele>1188</ele>
        <time>2026-08-04T05:16:21.278Z</time>
      </trkpt>
      <trkpt lat="45.91696" lon="6.84671">
        <ele>1189</ele>
        <time>2026-08-04T05:16:22.278Z</time>
      </trkpt>
      <trkpt lat="45.91698" lon="6.84674">
        <ele>1189</ele>
        <time>2026-08-04T05:16:23.278Z</time>
      </trkpt>
      <trkpt lat="45.91699" lon="6.84676">
        <ele>1190</ele>
        <time>2026-08-04T05:16:24.278Z</time>
      </trkpt>
      <trkpt lat="45.91701" lon="6.84679">
        <ele>1190</ele>
        <time>2026-08-04T05:16:25.278Z</time>
      </trkpt>
      <trkpt lat="45.91703" lon="6.84682">
        <ele>1190</ele>
        <time>2026-08-04T05:16:26.278Z</time>
      </trkpt>
      <trkpt lat="45.91704" lon="6.84685">
        <ele>1191</ele>
        <time>2026-08-04T05:16:27.278Z</time>
      </trkpt>
      <trkpt lat="45.91704" lon="6.84689">
        <ele>1191</ele>
        <time>2026-08-04T05:16:28.278Z</time>
      </trkpt>
      <trkpt lat="45.91705" lon="6.84691">
        <ele>1192</ele>
        <time>2026-08-04T05:16:29.278Z</time>
      </trkpt>
      <trkpt lat="45.91706" lon="6.84694">
        <ele>1192</ele>
        <time>2026-08-04T05:16:30.278Z</time>
      </trkpt>
      <trkpt lat="45.91707" lon="6.84697">
        <ele>1192</ele>
        <time>2026-08-04T05:16:31.278Z</time>
      </trkpt>
      <trkpt lat="45.91708" lon="6.847">
        <ele>1192</ele>
        <time>2026-08-04T05:16:32.278Z</time>
      </trkpt>
      <trkpt lat="45.91708" lon="6.84703">
        <ele>1192</ele>
        <time>2026-08-04T05:16:33.278Z</time>
      </trkpt>
      <trkpt lat="45.91708" lon="6.84705">
        <ele>1192</ele>
        <time>2026-08-04T05:16:34.278Z</time>
      </trkpt>
      <trkpt lat="45.91709" lon="6.84708">
        <ele>1192</ele>
        <time>2026-08-04T05:16:35.278Z</time>
      </trkpt>
      <trkpt lat="45.9171" lon="6.8471">
        <ele>1192</ele>
        <time>2026-08-04T05:16:36.278Z</time>
      </trkpt>
      <trkpt lat="45.91711" lon="6.84711">
        <ele>1191</ele>
        <time>2026-08-04T05:16:37.278Z</time>
      </trkpt>
      <trkpt lat="45.91712" lon="6.84713">
        <ele>1191</ele>
        <time>2026-08-04T05:16:38.278Z</time>
      </trkpt>
      <trkpt lat="45.91713" lon="6.84715">
        <ele>1191</ele>
        <time>2026-08-04T05:16:39.278Z</time>
      </trkpt>
      <trkpt lat="45.91714" lon="6.84715">
        <ele>1191</ele>
        <time>2026-08-04T05:16:40.278Z</time>
      </trkpt>
      <trkpt lat="45.91714" lon="6.84716">
        <ele>1191</ele>
        <time>2026-08-04T05:16:41.278Z</time>
      </trkpt>
      <trkpt lat="45.91715" lon="6.84716">
        <ele>1190</ele>
        <time>2026-08-04T05:16:42.278Z</time>
      </trkpt>
      <trkpt lat="45.91715" lon="6.84717">
        <ele>1190</ele>
        <time>2026-08-04T05:16:43.278Z</time>
      </trkpt>
      <trkpt lat="45.91715" lon="6.84718">
        <ele>1190</ele>
        <time>2026-08-04T05:16:44.278Z</time>
      </trkpt>
      <trkpt lat="45.91716" lon="6.8472">
        <ele>1189</ele>
        <time>2026-08-04T05:16:45.278Z</time>
      </trkpt>
      <trkpt lat="45.91716" lon="6.84721">
        <ele>1189</ele>
        <time>2026-08-04T05:16:46.278Z</time>
      </trkpt>
      <trkpt lat="45.91717" lon="6.84722">
        <ele>1188</ele>
        <time>2026-08-04T05:16:47.278Z</time>
      </trkpt>
      <trkpt lat="45.91718" lon="6.84723">
        <ele>1188</ele>
        <time>2026-08-04T05:16:48.278Z</time>
      </trkpt>
      <trkpt lat="45.91719" lon="6.84724">
        <ele>1188</ele>
        <time>2026-08-04T05:16:49.278Z</time>
      </trkpt>
      <trkpt lat="45.91719" lon="6.84726">
        <ele>1187</ele>
        <time>2026-08-04T05:16:50.278Z</time>
      </trkpt>
      <trkpt lat="45.9172" lon="6.84727">
        <ele>1188</ele>
        <time>2026-08-04T05:16:51.278Z</time>
      </trkpt>
      <trkpt lat="45.91721" lon="6.84729">
        <ele>1188</ele>
        <time>2026-08-04T05:16:52.278Z</time>
      </trkpt>
      <trkpt lat="45.91722" lon="6.8473">
        <ele>1188</ele>
        <time>2026-08-04T05:16:53.278Z</time>
      </trkpt>
      <trkpt lat="45.91723" lon="6.84731">
        <ele>1189</ele>
        <time>2026-08-04T05:16:54.278Z</time>
      </trkpt>
      <trkpt lat="45.91724" lon="6.84732">
        <ele>1189</ele>
        <time>2026-08-04T05:16:55.278Z</time>
      </trkpt>
      <trkpt lat="45.91726" lon="6.84734">
        <ele>1189</ele>
        <time>2026-08-04T05:16:56.278Z</time>
      </trkpt>
      <trkpt lat="45.91727" lon="6.84734">
        <ele>1190</ele>
        <time>2026-08-04T05:16:57.278Z</time>
      </trkpt>
      <trkpt lat="45.91729" lon="6.84735">
        <ele>1190</ele>
        <time>2026-08-04T05:16:58.278Z</time>
      </trkpt>
      <trkpt lat="45.9173" lon="6.84736">
        <ele>1190</ele>
        <time>2026-08-04T05:16:59.278Z</time>
      </trkpt>
      <trkpt lat="45.91731" lon="6.84737">
        <ele>1190</ele>
        <time>2026-08-04T05:17:00.278Z</time>
      </trkpt>
      <trkpt lat="45.91733" lon="6.84737">
        <ele>1191</ele>
        <time>2026-08-04T05:17:01.278Z</time>
      </trkpt>
      <trkpt lat="45.91734" lon="6.84737">
        <ele>1191</ele>
        <time>2026-08-04T05:17:02.278Z</time>
      </trkpt>
      <trkpt lat="45.91736" lon="6.84737">
        <ele>1192</ele>
        <time>2026-08-04T05:17:03.278Z</time>
      </trkpt>
      <trkpt lat="45.91737" lon="6.84737">
        <ele>1192</ele>
        <time>2026-08-04T05:17:04.278Z</time>
      </trkpt>
      <trkpt lat="45.9174" lon="6.84738">
        <ele>1193</ele>
        <time>2026-08-04T05:17:05.278Z</time>
      </trkpt>
      <trkpt lat="45.91741" lon="6.84738">
        <ele>1193</ele>
        <time>2026-08-04T05:17:06.278Z</time>
      </trkpt>
      <trkpt lat="45.91742" lon="6.84738">
        <ele>1194</ele>
        <time>2026-08-04T05:17:07.278Z</time>
      </trkpt>
      <trkpt lat="45.91743" lon="6.84738">
        <ele>1195</ele>
        <time>2026-08-04T05:17:08.278Z</time>
      </trkpt>
      <trkpt lat="45.91744" lon="6.84739">
        <ele>1196</ele>
        <time>2026-08-04T05:17:09.278Z</time>
      </trkpt>
      <trkpt lat="45.91745" lon="6.84739">
        <ele>1197</ele>
        <time>2026-08-04T05:17:10.278Z</time>
      </trkpt>
      <trkpt lat="45.91747" lon="6.84738">
        <ele>1197</ele>
        <time>2026-08-04T05:17:11.278Z</time>
      </trkpt>
      <trkpt lat="45.91748" lon="6.84738">
        <ele>1198</ele>
        <time>2026-08-04T05:17:12.278Z</time>
      </trkpt>
      <trkpt lat="45.91749" lon="6.84739">
        <ele>1198</ele>
        <time>2026-08-04T05:17:13.278Z</time>
      </trkpt>
      <trkpt lat="45.9175" lon="6.8474">
        <ele>1198</ele>
        <time>2026-08-04T05:17:14.278Z</time>
      </trkpt>
      <trkpt lat="45.9175" lon="6.84741">
        <ele>1199</ele>
        <time>2026-08-04T05:17:15.278Z</time>
      </trkpt>
      <trkpt lat="45.91751" lon="6.84742">
        <ele>1199</ele>
        <time>2026-08-04T05:17:16.278Z</time>
      </trkpt>
      <trkpt lat="45.91752" lon="6.84743">
        <ele>1200</ele>
        <time>2026-08-04T05:17:17.278Z</time>
      </trkpt>
      <trkpt lat="45.91752" lon="6.84743">
        <ele>1200</ele>
        <time>2026-08-04T05:17:18.278Z</time>
      </trkpt>
      <trkpt lat="45.91753" lon="6.84744">
        <ele>1201</ele>
        <time>2026-08-04T05:17:19.278Z</time>
      </trkpt>
      <trkpt lat="45.91754" lon="6.84746">
        <ele>1201</ele>
        <time>2026-08-04T05:17:20.278Z</time>
      </trkpt>
      <trkpt lat="45.91755" lon="6.84748">
        <ele>1201</ele>
        <time>2026-08-04T05:17:21.278Z</time>
      </trkpt>
      <trkpt lat="45.91757" lon="6.84751">
        <ele>1202</ele>
        <time>2026-08-04T05:17:22.278Z</time>
      </trkpt>
      <trkpt lat="45.91758" lon="6.84753">
        <ele>1202</ele>
        <time>2026-08-04T05:17:23.278Z</time>
      </trkpt>
      <trkpt lat="45.91759" lon="6.84755">
        <ele>1203</ele>
        <time>2026-08-04T05:17:24.278Z</time>
      </trkpt>
      <trkpt lat="45.9176" lon="6.84756">
        <ele>1203</ele>
        <time>2026-08-04T05:17:25.278Z</time>
      </trkpt>
      <trkpt lat="45.91761" lon="6.84758">
        <ele>1203</ele>
        <time>2026-08-04T05:17:26.278Z</time>
      </trkpt>
      <trkpt lat="45.91762" lon="6.8476">
        <ele>1204</ele>
        <time>2026-08-04T05:17:27.278Z</time>
      </trkpt>
      <trkpt lat="45.91763" lon="6.84761">
        <ele>1204</ele>
        <time>2026-08-04T05:17:28.278Z</time>
      </trkpt>
      <trkpt lat="45.91764" lon="6.84764">
        <ele>1204</ele>
        <time>2026-08-04T05:17:29.278Z</time>
      </trkpt>
      <trkpt lat="45.91764" lon="6.84767">
        <ele>1204</ele>
        <time>2026-08-04T05:17:30.278Z</time>
      </trkpt>
      <trkpt lat="45.91764" lon="6.8477">
        <ele>1204</ele>
        <time>2026-08-04T05:17:31.278Z</time>
      </trkpt>
      <trkpt lat="45.91764" lon="6.84772">
        <ele>1204</ele>
        <time>2026-08-04T05:17:32.278Z</time>
      </trkpt>
      <trkpt lat="45.91765" lon="6.84776">
        <ele>1204</ele>
        <time>2026-08-04T05:17:33.278Z</time>
      </trkpt>
      <trkpt lat="45.91767" lon="6.8478">
        <ele>1204</ele>
        <time>2026-08-04T05:17:34.278Z</time>
      </trkpt>
      <trkpt lat="45.91767" lon="6.84781">
        <ele>1204</ele>
        <time>2026-08-04T05:17:35.278Z</time>
      </trkpt>
      <trkpt lat="45.91768" lon="6.84784">
        <ele>1204</ele>
        <time>2026-08-04T05:17:36.278Z</time>
      </trkpt>
      <trkpt lat="45.91769" lon="6.84785">
        <ele>1204</ele>
        <time>2026-08-04T05:17:37.278Z</time>
      </trkpt>
      <trkpt lat="45.91772" lon="6.84786">
        <ele>1204</ele>
        <time>2026-08-04T05:17:38.278Z</time>
      </trkpt>
      <trkpt lat="45.91773" lon="6.84788">
        <ele>1204</ele>
        <time>2026-08-04T05:17:39.278Z</time>
      </trkpt>
      <trkpt lat="45.91775" lon="6.8479">
        <ele>1204</ele>
        <time>2026-08-04T05:17:40.278Z</time>
      </trkpt>
      <trkpt lat="45.91775" lon="6.84792">
        <ele>1204</ele>
        <time>2026-08-04T05:17:41.278Z</time>
      </trkpt>
      <trkpt lat="45.91776" lon="6.84795">
        <ele>1204</ele>
        <time>2026-08-04T05:17:42.278Z</time>
      </trkpt>
      <trkpt lat="45.91777" lon="6.84798">
        <ele>1204</ele>
        <time>2026-08-04T05:17:43.278Z</time>
      </trkpt>
      <trkpt lat="45.91778" lon="6.84801">
        <ele>1204</ele>
        <time>2026-08-04T05:17:44.278Z</time>
      </trkpt>
      <trkpt lat="45.91779" lon="6.84803">
        <ele>1204</ele>
        <time>2026-08-04T05:17:45.278Z</time>
      </trkpt>
      <trkpt lat="45.91779" lon="6.84806">
        <ele>1204</ele>
        <time>2026-08-04T05:17:46.278Z</time>
      </trkpt>
      <trkpt lat="45.91781" lon="6.84808">
        <ele>1204</ele>
        <time>2026-08-04T05:17:47.278Z</time>
      </trkpt>
      <trkpt lat="45.91782" lon="6.8481">
        <ele>1205</ele>
        <time>2026-08-04T05:17:48.278Z</time>
      </trkpt>
      <trkpt lat="45.91782" lon="6.84812">
        <ele>1205</ele>
        <time>2026-08-04T05:17:49.278Z</time>
      </trkpt>
      <trkpt lat="45.91782" lon="6.84813">
        <ele>1205</ele>
        <time>2026-08-04T05:17:50.278Z</time>
      </trkpt>
      <trkpt lat="45.91782" lon="6.84813">
        <ele>1205</ele>
        <time>2026-08-04T05:17:51.278Z</time>
      </trkpt>
      <trkpt lat="45.91781" lon="6.84812">
        <ele>1205</ele>
        <time>2026-08-04T05:17:52.278Z</time>
      </trkpt>
      <trkpt lat="45.9178" lon="6.84813">
        <ele>1205</ele>
        <time>2026-08-04T05:17:53.278Z</time>
      </trkpt>
      <trkpt lat="45.91779" lon="6.84815">
        <ele>1205</ele>
        <time>2026-08-04T05:17:54.278Z</time>
      </trkpt>
      <trkpt lat="45.91778" lon="6.84816">
        <ele>1205</ele>
        <time>2026-08-04T05:17:55.278Z</time>
      </trkpt>
      <trkpt lat="45.91777" lon="6.84818">
        <ele>1205</ele>
        <time>2026-08-04T05:17:56.278Z</time>
      </trkpt>
      <trkpt lat="45.91776" lon="6.84818">
        <ele>1205</ele>
        <time>2026-08-04T05:17:57.278Z</time>
      </trkpt>
      <trkpt lat="45.91773" lon="6.8482">
        <ele>1205</ele>
        <time>2026-08-04T05:17:58.278Z</time>
      </trkpt>
      <trkpt lat="45.91773" lon="6.84822">
        <ele>1205</ele>
        <time>2026-08-04T05:17:59.278Z</time>
      </trkpt>
      <trkpt lat="45.91773" lon="6.84824">
        <ele>1206</ele>
        <time>2026-08-04T05:18:00.278Z</time>
      </trkpt>
      <trkpt lat="45.91774" lon="6.84825">
        <ele>1206</ele>
        <time>2026-08-04T05:18:01.278Z</time>
      </trkpt>
      <trkpt lat="45.91775" lon="6.84827">
        <ele>1206</ele>
        <time>2026-08-04T05:18:02.278Z</time>
      </trkpt>
      <trkpt lat="45.91776" lon="6.84827">
        <ele>1206</ele>
        <time>2026-08-04T05:18:03.278Z</time>
      </trkpt>
      <trkpt lat="45.91776" lon="6.84829">
        <ele>1206</ele>
        <time>2026-08-04T05:18:04.278Z</time>
      </trkpt>
      <trkpt lat="45.91776" lon="6.84827">
        <ele>1206</ele>
        <time>2026-08-04T05:18:05.278Z</time>
      </trkpt>
      <trkpt lat="45.91775" lon="6.84824">
        <ele>1206</ele>
        <time>2026-08-04T05:18:06.278Z</time>
      </trkpt>
      <trkpt lat="45.91775" lon="6.84823">
        <ele>1206</ele>
        <time>2026-08-04T05:18:07.278Z</time>
      </trkpt>
      <trkpt lat="45.91777" lon="6.84822">
        <ele>1206</ele>
        <time>2026-08-04T05:18:08.278Z</time>
      </trkpt>
      <trkpt lat="45.91778" lon="6.84819">
        <ele>1206</ele>
        <time>2026-08-04T05:18:09.278Z</time>
      </trkpt>
      <trkpt lat="45.91781" lon="6.84817">
        <ele>1206</ele>
        <time>2026-08-04T05:18:10.278Z</time>
      </trkpt>
      <trkpt lat="45.91783" lon="6.84817">
        <ele>1206</ele>
        <time>2026-08-04T05:18:11.278Z</time>
      </trkpt>
      <trkpt lat="45.91784" lon="6.84816">
        <ele>1206</ele>
        <time>2026-08-04T05:18:12.278Z</time>
      </trkpt>
      <trkpt lat="45.91786" lon="6.84815">
        <ele>1207</ele>
        <time>2026-08-04T05:18:13.278Z</time>
      </trkpt>
      <trkpt lat="45.91788" lon="6.84814">
        <ele>1207</ele>
        <time>2026-08-04T05:18:14.278Z</time>
      </trkpt>
      <trkpt lat="45.91789" lon="6.84814">
        <ele>1207</ele>
        <time>2026-08-04T05:18:15.278Z</time>
      </trkpt>
      <trkpt lat="45.91789" lon="6.84813">
        <ele>1208</ele>
        <time>2026-08-04T05:18:16.278Z</time>
      </trkpt>
      <trkpt lat="45.9179" lon="6.84812">
        <ele>1208</ele>
        <time>2026-08-04T05:18:17.278Z</time>
      </trkpt>
      <trkpt lat="45.91791" lon="6.84812">
        <ele>1208</ele>
        <time>2026-08-04T05:18:18.278Z</time>
      </trkpt>
      <trkpt lat="45.91792" lon="6.84811">
        <ele>1208</ele>
        <time>2026-08-04T05:18:19.278Z</time>
      </trkpt>
      <trkpt lat="45.91793" lon="6.84809">
        <ele>1209</ele>
        <time>2026-08-04T05:18:20.278Z</time>
      </trkpt>
      <trkpt lat="45.91795" lon="6.84807">
        <ele>1209</ele>
        <time>2026-08-04T05:18:21.278Z</time>
      </trkpt>
      <trkpt lat="45.91797" lon="6.84805">
        <ele>1209</ele>
        <time>2026-08-04T05:18:22.278Z</time>
      </trkpt>
      <trkpt lat="45.91798" lon="6.84802">
        <ele>1210</ele>
        <time>2026-08-04T05:18:23.278Z</time>
      </trkpt>
      <trkpt lat="45.918" lon="6.84801">
        <ele>1210</ele>
        <time>2026-08-04T05:18:24.278Z</time>
      </trkpt>
      <trkpt lat="45.91801" lon="6.84801">
        <ele>1211</ele>
        <time>2026-08-04T05:18:25.278Z</time>
      </trkpt>
      <trkpt lat="45.91803" lon="6.84801">
        <ele>1211</ele>
        <time>2026-08-04T05:18:26.278Z</time>
      </trkpt>
      <trkpt lat="45.91805" lon="6.84802">
        <ele>1212</ele>
        <time>2026-08-04T05:18:27.278Z</time>
      </trkpt>
      <trkpt lat="45.91806" lon="6.84803">
        <ele>1212</ele>
        <time>2026-08-04T05:18:28.278Z</time>
      </trkpt>
      <trkpt lat="45.91807" lon="6.84805">
        <ele>1212</ele>
        <time>2026-08-04T05:18:29.278Z</time>
      </trkpt>
      <trkpt lat="45.91808" lon="6.84807">
        <ele>1212</ele>
        <time>2026-08-04T05:18:30.278Z</time>
      </trkpt>
      <trkpt lat="45.91809" lon="6.84809">
        <ele>1213</ele>
        <time>2026-08-04T05:18:31.278Z</time>
      </trkpt>
      <trkpt lat="45.9181" lon="6.84812">
        <ele>1213</ele>
        <time>2026-08-04T05:18:32.278Z</time>
      </trkpt>
      <trkpt lat="45.91812" lon="6.84813">
        <ele>1212</ele>
        <time>2026-08-04T05:18:33.278Z</time>
      </trkpt>
      <trkpt lat="45.91814" lon="6.84815">
        <ele>1212</ele>
        <time>2026-08-04T05:18:34.278Z</time>
      </trkpt>
      <trkpt lat="45.91815" lon="6.84818">
        <ele>1212</ele>
        <time>2026-08-04T05:18:35.278Z</time>
      </trkpt>
      <trkpt lat="45.91817" lon="6.8482">
        <ele>1212</ele>
        <time>2026-08-04T05:18:36.278Z</time>
      </trkpt>
      <trkpt lat="45.91818" lon="6.84822">
        <ele>1211</ele>
        <time>2026-08-04T05:18:37.278Z</time>
      </trkpt>
      <trkpt lat="45.91819" lon="6.84825">
        <ele>1211</ele>
        <time>2026-08-04T05:18:38.278Z</time>
      </trkpt>
      <trkpt lat="45.9182" lon="6.84827">
        <ele>1211</ele>
        <time>2026-08-04T05:18:39.278Z</time>
      </trkpt>
      <trkpt lat="45.91821" lon="6.84829">
        <ele>1211</ele>
        <time>2026-08-04T05:18:40.278Z</time>
      </trkpt>
      <trkpt lat="45.91821" lon="6.84832">
        <ele>1211</ele>
        <time>2026-08-04T05:18:41.278Z</time>
      </trkpt>
      <trkpt lat="45.91822" lon="6.84834">
        <ele>1210</ele>
        <time>2026-08-04T05:18:42.278Z</time>
      </trkpt>
      <trkpt lat="45.91823" lon="6.84837">
        <ele>1210</ele>
        <time>2026-08-04T05:18:43.278Z</time>
      </trkpt>
      <trkpt lat="45.91823" lon="6.8484">
        <ele>1210</ele>
        <time>2026-08-04T05:18:44.278Z</time>
      </trkpt>
      <trkpt lat="45.91824" lon="6.84843">
        <ele>1210</ele>
        <time>2026-08-04T05:18:45.278Z</time>
      </trkpt>
      <trkpt lat="45.91824" lon="6.84845">
        <ele>1210</ele>
        <time>2026-08-04T05:18:46.278Z</time>
      </trkpt>
      <trkpt lat="45.91824" lon="6.84848">
        <ele>1209</ele>
        <time>2026-08-04T05:18:47.278Z</time>
      </trkpt>
      <trkpt lat="45.91824" lon="6.84851">
        <ele>1209</ele>
        <time>2026-08-04T05:18:48.278Z</time>
      </trkpt>
      <trkpt lat="45.91825" lon="6.84853">
        <ele>1209</ele>
        <time>2026-08-04T05:18:49.278Z</time>
      </trkpt>
      <trkpt lat="45.91826" lon="6.84856">
        <ele>1209</ele>
        <time>2026-08-04T05:18:50.278Z</time>
      </trkpt>
      <trkpt lat="45.91827" lon="6.8486">
        <ele>1208</ele>
        <time>2026-08-04T05:18:51.278Z</time>
      </trkpt>
      <trkpt lat="45.91828" lon="6.84863">
        <ele>1208</ele>
        <time>2026-08-04T05:18:52.278Z</time>
      </trkpt>
      <trkpt lat="45.91829" lon="6.84867">
        <ele>1207</ele>
        <time>2026-08-04T05:18:53.278Z</time>
      </trkpt>
      <trkpt lat="45.91829" lon="6.8487">
        <ele>1207</ele>
        <time>2026-08-04T05:18:54.278Z</time>
      </trkpt>
      <trkpt lat="45.9183" lon="6.84873">
        <ele>1206</ele>
        <time>2026-08-04T05:18:55.278Z</time>
      </trkpt>
      <trkpt lat="45.9183" lon="6.84876">
        <ele>1206</ele>
        <time>2026-08-04T05:18:56.278Z</time>
      </trkpt>
      <trkpt lat="45.91831" lon="6.84879">
        <ele>1206</ele>
        <time>2026-08-04T05:18:57.278Z</time>
      </trkpt>
      <trkpt lat="45.91831" lon="6.84883">
        <ele>1206</ele>
        <time>2026-08-04T05:18:58.278Z</time>
      </trkpt>
      <trkpt lat="45.91831" lon="6.84886">
        <ele>1206</ele>
        <time>2026-08-04T05:18:59.278Z</time>
      </trkpt>
      <trkpt lat="45.91831" lon="6.84889">
        <ele>1206</ele>
        <time>2026-08-04T05:19:00.278Z</time>
      </trkpt>
      <trkpt lat="45.91832" lon="6.84891">
        <ele>1206</ele>
        <time>2026-08-04T05:19:01.278Z</time>
      </trkpt>
      <trkpt lat="45.91832" lon="6.84894">
        <ele>1206</ele>
        <time>2026-08-04T05:19:02.278Z</time>
      </trkpt>
      <trkpt lat="45.91832" lon="6.84897">
        <ele>1206</ele>
        <time>2026-08-04T05:19:03.278Z</time>
      </trkpt>
      <trkpt lat="45.91834" lon="6.84899">
        <ele>1206</ele>
        <time>2026-08-04T05:19:04.278Z</time>
      </trkpt>
      <trkpt lat="45.91836" lon="6.84903">
        <ele>1206</ele>
        <time>2026-08-04T05:19:05.278Z</time>
      </trkpt>
      <trkpt lat="45.91838" lon="6.84905">
        <ele>1206</ele>
        <time>2026-08-04T05:19:06.278Z</time>
      </trkpt>
      <trkpt lat="45.9184" lon="6.84906">
        <ele>1206</ele>
        <time>2026-08-04T05:19:07.278Z</time>
      </trkpt>
      <trkpt lat="45.91842" lon="6.84909">
        <ele>1206</ele>
        <time>2026-08-04T05:19:08.278Z</time>
      </trkpt>
      <trkpt lat="45.91844" lon="6.8491">
        <ele>1206</ele>
        <time>2026-08-04T05:19:09.278Z</time>
      </trkpt>
      <trkpt lat="45.91845" lon="6.84912">
        <ele>1206</ele>
        <time>2026-08-04T05:19:10.278Z</time>
      </trkpt>
      <trkpt lat="45.91846" lon="6.84914">
        <ele>1206</ele>
        <time>2026-08-04T05:19:11.278Z</time>
      </trkpt>
      <trkpt lat="45.91847" lon="6.84916">
        <ele>1206</ele>
        <time>2026-08-04T05:19:12.278Z</time>
      </trkpt>
      <trkpt lat="45.91848" lon="6.84917">
        <ele>1206</ele>
        <time>2026-08-04T05:19:13.278Z</time>
      </trkpt>
      <trkpt lat="45.91849" lon="6.84919">
        <ele>1206</ele>
        <time>2026-08-04T05:19:14.278Z</time>
      </trkpt>
      <trkpt lat="45.91851" lon="6.8492">
        <ele>1207</ele>
        <time>2026-08-04T05:19:15.278Z</time>
      </trkpt>
      <trkpt lat="45.91852" lon="6.84922">
        <ele>1207</ele>
        <time>2026-08-04T05:19:16.278Z</time>
      </trkpt>
      <trkpt lat="45.91853" lon="6.84925">
        <ele>1207</ele>
        <time>2026-08-04T05:19:17.278Z</time>
      </trkpt>
      <trkpt lat="45.91854" lon="6.84926">
        <ele>1208</ele>
        <time>2026-08-04T05:19:18.278Z</time>
      </trkpt>
      <trkpt lat="45.91855" lon="6.84928">
        <ele>1208</ele>
        <time>2026-08-04T05:19:19.278Z</time>
      </trkpt>
      <trkpt lat="45.91856" lon="6.84929">
        <ele>1208</ele>
        <time>2026-08-04T05:19:20.278Z</time>
      </trkpt>
      <trkpt lat="45.91857" lon="6.8493">
        <ele>1208</ele>
        <time>2026-08-04T05:19:21.278Z</time>
      </trkpt>
      <trkpt lat="45.91858" lon="6.84931">
        <ele>1208</ele>
        <time>2026-08-04T05:19:22.278Z</time>
      </trkpt>
      <trkpt lat="45.9186" lon="6.84932">
        <ele>1208</ele>
        <time>2026-08-04T05:19:23.278Z</time>
      </trkpt>
      <trkpt lat="45.91861" lon="6.84933">
        <ele>1208</ele>
        <time>2026-08-04T05:19:24.278Z</time>
      </trkpt>
      <trkpt lat="45.91862" lon="6.84935">
        <ele>1208</ele>
        <time>2026-08-04T05:19:25.278Z</time>
      </trkpt>
      <trkpt lat="45.91864" lon="6.84937">
        <ele>1208</ele>
        <time>2026-08-04T05:19:26.278Z</time>
      </trkpt>
      <trkpt lat="45.91865" lon="6.84938">
        <ele>1208</ele>
        <time>2026-08-04T05:19:27.278Z</time>
      </trkpt>
      <trkpt lat="45.91866" lon="6.84939">
        <ele>1208</ele>
        <time>2026-08-04T05:19:28.278Z</time>
      </trkpt>
      <trkpt lat="45.91867" lon="6.8494">
        <ele>1208</ele>
        <time>2026-08-04T05:19:29.278Z</time>
      </trkpt>
      <trkpt lat="45.91867" lon="6.84942">
        <ele>1208</ele>
        <time>2026-08-04T05:19:30.278Z</time>
      </trkpt>
      <trkpt lat="45.91868" lon="6.84944">
        <ele>1208</ele>
        <time>2026-08-04T05:19:31.278Z</time>
      </trkpt>
      <trkpt lat="45.91869" lon="6.84945">
        <ele>1209</ele>
        <time>2026-08-04T05:19:32.278Z</time>
      </trkpt>
      <trkpt lat="45.9187" lon="6.84946">
        <ele>1209</ele>
        <time>2026-08-04T05:19:33.278Z</time>
      </trkpt>
      <trkpt lat="45.9187" lon="6.84947">
        <ele>1209</ele>
        <time>2026-08-04T05:19:34.278Z</time>
      </trkpt>
      <trkpt lat="45.9187" lon="6.84947">
        <ele>1209</ele>
        <time>2026-08-04T05:19:35.278Z</time>
      </trkpt>
      <trkpt lat="45.91871" lon="6.84947">
        <ele>1208</ele>
        <time>2026-08-04T05:19:36.278Z</time>
      </trkpt>
      <trkpt lat="45.91872" lon="6.84947">
        <ele>1208</ele>
        <time>2026-08-04T05:19:37.278Z</time>
      </trkpt>
      <trkpt lat="45.91873" lon="6.84948">
        <ele>1208</ele>
        <time>2026-08-04T05:19:38.278Z</time>
      </trkpt>
      <trkpt lat="45.91874" lon="6.84948">
        <ele>1208</ele>
        <time>2026-08-04T05:19:39.278Z</time>
      </trkpt>
      <trkpt lat="45.91875" lon="6.84949">
        <ele>1209</ele>
        <time>2026-08-04T05:19:40.278Z</time>
      </trkpt>
      <trkpt lat="45.91875" lon="6.8495">
        <ele>1209</ele>
        <time>2026-08-04T05:19:41.278Z</time>
      </trkpt>
      <trkpt lat="45.91876" lon="6.84951">
        <ele>1209</ele>
        <time>2026-08-04T05:19:42.278Z</time>
      </trkpt>
      <trkpt lat="45.91877" lon="6.84952">
        <ele>1209</ele>
        <time>2026-08-04T05:19:43.278Z</time>
      </trkpt>
      <trkpt lat="45.91878" lon="6.84954">
        <ele>1210</ele>
        <time>2026-08-04T05:19:44.278Z</time>
      </trkpt>
      <trkpt lat="45.91879" lon="6.84955">
        <ele>1210</ele>
        <time>2026-08-04T05:19:45.278Z</time>
      </trkpt>
      <trkpt lat="45.91881" lon="6.84957">
        <ele>1211</ele>
        <time>2026-08-04T05:19:46.278Z</time>
      </trkpt>
      <trkpt lat="45.91882" lon="6.84957">
        <ele>1211</ele>
        <time>2026-08-04T05:19:47.278Z</time>
      </trkpt>
      <trkpt lat="45.91882" lon="6.84958">
        <ele>1212</ele>
        <time>2026-08-04T05:19:48.278Z</time>
      </trkpt>
      <trkpt lat="45.91883" lon="6.84958">
        <ele>1212</ele>
        <time>2026-08-04T05:19:49.278Z</time>
      </trkpt>
      <trkpt lat="45.91884" lon="6.84959">
        <ele>1213</ele>
        <time>2026-08-04T05:19:50.278Z</time>
      </trkpt>
      <trkpt lat="45.91885" lon="6.8496">
        <ele>1213</ele>
        <time>2026-08-04T05:19:51.278Z</time>
      </trkpt>
      <trkpt lat="45.91886" lon="6.84961">
        <ele>1213</ele>
        <time>2026-08-04T05:19:52.278Z</time>
      </trkpt>
      <trkpt lat="45.91886" lon="6.84962">
        <ele>1214</ele>
        <time>2026-08-04T05:19:53.278Z</time>
      </trkpt>
      <trkpt lat="45.91887" lon="6.84963">
        <ele>1214</ele>
        <time>2026-08-04T05:19:54.278Z</time>
      </trkpt>
      <trkpt lat="45.91888" lon="6.84964">
        <ele>1215</ele>
        <time>2026-08-04T05:19:55.278Z</time>
      </trkpt>
      <trkpt lat="45.91888" lon="6.84965">
        <ele>1215</ele>
        <time>2026-08-04T05:19:56.278Z</time>
      </trkpt>
      <trkpt lat="45.91888" lon="6.84967">
        <ele>1215</ele>
        <time>2026-08-04T05:19:57.278Z</time>
      </trkpt>
      <trkpt lat="45.91888" lon="6.84969">
        <ele>1216</ele>
        <time>2026-08-04T05:19:58.278Z</time>
      </trkpt>
      <trkpt lat="45.91889" lon="6.84971">
        <ele>1216</ele>
        <time>2026-08-04T05:19:59.278Z</time>
      </trkpt>
      <trkpt lat="45.91889" lon="6.84972">
        <ele>1216</ele>
        <time>2026-08-04T05:20:00.278Z</time>
      </trkpt>
      <trkpt lat="45.9189" lon="6.84973">
        <ele>1217</ele>
        <time>2026-08-04T05:20:01.278Z</time>
      </trkpt>
      <trkpt lat="45.91891" lon="6.84975">
        <ele>1217</ele>
        <time>2026-08-04T05:20:02.278Z</time>
      </trkpt>
      <trkpt lat="45.91892" lon="6.84976">
        <ele>1218</ele>
        <time>2026-08-04T05:20:03.278Z</time>
      </trkpt>
      <trkpt lat="45.91893" lon="6.84978">
        <ele>1218</ele>
        <time>2026-08-04T05:20:04.278Z</time>
      </trkpt>
      <trkpt lat="45.91894" lon="6.84979">
        <ele>1219</ele>
        <time>2026-08-04T05:20:05.278Z</time>
      </trkpt>
      <trkpt lat="45.91895" lon="6.8498">
        <ele>1219</ele>
        <time>2026-08-04T05:20:06.278Z</time>
      </trkpt>
      <trkpt lat="45.91895" lon="6.84981">
        <ele>1219</ele>
        <time>2026-08-04T05:20:07.278Z</time>
      </trkpt>
      <trkpt lat="45.91895" lon="6.84982">
        <ele>1219</ele>
        <time>2026-08-04T05:20:08.278Z</time>
      </trkpt>
      <trkpt lat="45.91896" lon="6.84983">
        <ele>1219</ele>
        <time>2026-08-04T05:20:09.278Z</time>
      </trkpt>
      <trkpt lat="45.91897" lon="6.84986">
        <ele>1219</ele>
        <time>2026-08-04T05:20:10.278Z</time>
      </trkpt>
      <trkpt lat="45.91897" lon="6.84989">
        <ele>1219</ele>
        <time>2026-08-04T05:20:11.278Z</time>
      </trkpt>
      <trkpt lat="45.91898" lon="6.84991">
        <ele>1219</ele>
        <time>2026-08-04T05:20:12.278Z</time>
      </trkpt>
      <trkpt lat="45.91898" lon="6.84993">
        <ele>1219</ele>
        <time>2026-08-04T05:20:13.278Z</time>
      </trkpt>
      <trkpt lat="45.919" lon="6.84995">
        <ele>1219</ele>
        <time>2026-08-04T05:20:14.278Z</time>
      </trkpt>
      <trkpt lat="45.919" lon="6.84997">
        <ele>1219</ele>
        <time>2026-08-04T05:20:15.278Z</time>
      </trkpt>
      <trkpt lat="45.91901" lon="6.84997">
        <ele>1219</ele>
        <time>2026-08-04T05:20:16.278Z</time>
      </trkpt>
      <trkpt lat="45.91902" lon="6.84998">
        <ele>1219</ele>
        <time>2026-08-04T05:20:17.278Z</time>
      </trkpt>
      <trkpt lat="45.91904" lon="6.85">
        <ele>1219</ele>
        <time>2026-08-04T05:20:18.278Z</time>
      </trkpt>
      <trkpt lat="45.91905" lon="6.85001">
        <ele>1220</ele>
        <time>2026-08-04T05:20:19.278Z</time>
      </trkpt>
      <trkpt lat="45.91906" lon="6.85002">
        <ele>1220</ele>
        <time>2026-08-04T05:20:20.278Z</time>
      </trkpt>
      <trkpt lat="45.91907" lon="6.85004">
        <ele>1221</ele>
        <time>2026-08-04T05:20:21.278Z</time>
      </trkpt>
      <trkpt lat="45.91908" lon="6.85005">
        <ele>1221</ele>
        <time>2026-08-04T05:20:22.278Z</time>
      </trkpt>
      <trkpt lat="45.9191" lon="6.85006">
        <ele>1222</ele>
        <time>2026-08-04T05:20:23.278Z</time>
      </trkpt>
      <trkpt lat="45.91911" lon="6.85006">
        <ele>1222</ele>
        <time>2026-08-04T05:20:24.278Z</time>
      </trkpt>
      <trkpt lat="45.91913" lon="6.85005">
        <ele>1222</ele>
        <time>2026-08-04T05:20:25.278Z</time>
      </trkpt>
      <trkpt lat="45.91914" lon="6.85004">
        <ele>1223</ele>
        <time>2026-08-04T05:20:26.278Z</time>
      </trkpt>
      <trkpt lat="45.91916" lon="6.85004">
        <ele>1223</ele>
        <time>2026-08-04T05:20:27.278Z</time>
      </trkpt>
      <trkpt lat="45.91917" lon="6.85004">
        <ele>1224</ele>
        <time>2026-08-04T05:20:28.278Z</time>
      </trkpt>
      <trkpt lat="45.91919" lon="6.85005">
        <ele>1224</ele>
        <time>2026-08-04T05:20:29.278Z</time>
      </trkpt>
      <trkpt lat="45.91921" lon="6.85005">
        <ele>1225</ele>
        <time>2026-08-04T05:20:30.278Z</time>
      </trkpt>
      <trkpt lat="45.91923" lon="6.85005">
        <ele>1226</ele>
        <time>2026-08-04T05:20:31.278Z</time>
      </trkpt>
      <trkpt lat="45.91924" lon="6.85006">
        <ele>1226</ele>
        <time>2026-08-04T05:20:32.278Z</time>
      </trkpt>
      <trkpt lat="45.91926" lon="6.85006">
        <ele>1227</ele>
        <time>2026-08-04T05:20:33.278Z</time>
      </trkpt>
      <trkpt lat="45.91927" lon="6.85006">
        <ele>1227</ele>
        <time>2026-08-04T05:20:34.278Z</time>
      </trkpt>
      <trkpt lat="45.91929" lon="6.85006">
        <ele>1227</ele>
        <time>2026-08-04T05:20:35.278Z</time>
      </trkpt>
      <trkpt lat="45.91932" lon="6.85007">
        <ele>1228</ele>
        <time>2026-08-04T05:20:36.278Z</time>
      </trkpt>
      <trkpt lat="45.91934" lon="6.85008">
        <ele>1228</ele>
        <time>2026-08-04T05:20:37.278Z</time>
      </trkpt>
      <trkpt lat="45.91936" lon="6.8501">
        <ele>1228</ele>
        <time>2026-08-04T05:20:38.278Z</time>
      </trkpt>
      <trkpt lat="45.91938" lon="6.85011">
        <ele>1228</ele>
        <time>2026-08-04T05:20:39.278Z</time>
      </trkpt>
      <trkpt lat="45.91939" lon="6.85013">
        <ele>1229</ele>
        <time>2026-08-04T05:20:40.278Z</time>
      </trkpt>
      <trkpt lat="45.91942" lon="6.85013">
        <ele>1229</ele>
        <time>2026-08-04T05:20:41.278Z</time>
      </trkpt>
      <trkpt lat="45.91943" lon="6.85013">
        <ele>1230</ele>
        <time>2026-08-04T05:20:42.278Z</time>
      </trkpt>
      <trkpt lat="45.91945" lon="6.85013">
        <ele>1230</ele>
        <time>2026-08-04T05:20:43.278Z</time>
      </trkpt>
      <trkpt lat="45.91947" lon="6.85013">
        <ele>1230</ele>
        <time>2026-08-04T05:20:44.278Z</time>
      </trkpt>
      <trkpt lat="45.9195" lon="6.85014">
        <ele>1231</ele>
        <time>2026-08-04T05:20:45.278Z</time>
      </trkpt>
      <trkpt lat="45.91952" lon="6.85014">
        <ele>1231</ele>
        <time>2026-08-04T05:20:46.278Z</time>
      </trkpt>
      <trkpt lat="45.91954" lon="6.85014">
        <ele>1231</ele>
        <time>2026-08-04T05:20:47.278Z</time>
      </trkpt>
      <trkpt lat="45.91956" lon="6.85014">
        <ele>1231</ele>
        <time>2026-08-04T05:20:48.278Z</time>
      </trkpt>
      <trkpt lat="45.91957" lon="6.85014">
        <ele>1231</ele>
        <time>2026-08-04T05:20:49.278Z</time>
      </trkpt>
      <trkpt lat="45.9196" lon="6.85015">
        <ele>1230</ele>
        <time>2026-08-04T05:20:50.278Z</time>
      </trkpt>
      <trkpt lat="45.91962" lon="6.85015">
        <ele>1230</ele>
        <time>2026-08-04T05:20:51.278Z</time>
      </trkpt>
      <trkpt lat="45.91964" lon="6.85016">
        <ele>1230</ele>
        <time>2026-08-04T05:20:52.278Z</time>
      </trkpt>
      <trkpt lat="45.91967" lon="6.85017">
        <ele>1229</ele>
        <time>2026-08-04T05:20:53.278Z</time>
      </trkpt>
      <trkpt lat="45.91968" lon="6.85018">
        <ele>1229</ele>
        <time>2026-08-04T05:20:54.278Z</time>
      </trkpt>
      <trkpt lat="45.9197" lon="6.85021">
        <ele>1229</ele>
        <time>2026-08-04T05:20:55.278Z</time>
      </trkpt>
      <trkpt lat="45.91971" lon="6.85023">
        <ele>1228</ele>
        <time>2026-08-04T05:20:56.278Z</time>
      </trkpt>
      <trkpt lat="45.91972" lon="6.85024">
        <ele>1228</ele>
        <time>2026-08-04T05:20:57.278Z</time>
      </trkpt>
      <trkpt lat="45.91972" lon="6.85025">
        <ele>1228</ele>
        <time>2026-08-04T05:20:58.278Z</time>
      </trkpt>
      <trkpt lat="45.91974" lon="6.85026">
        <ele>1228</ele>
        <time>2026-08-04T05:20:59.278Z</time>
      </trkpt>
      <trkpt lat="45.91974" lon="6.85026">
        <ele>1228</ele>
        <time>2026-08-04T05:21:00.278Z</time>
      </trkpt>
      <trkpt lat="45.91976" lon="6.85027">
        <ele>1228</ele>
        <time>2026-08-04T05:21:01.278Z</time>
      </trkpt>
      <trkpt lat="45.91978" lon="6.85028">
        <ele>1228</ele>
        <time>2026-08-04T05:21:02.278Z</time>
      </trkpt>
      <trkpt lat="45.9198" lon="6.85029">
        <ele>1228</ele>
        <time>2026-08-04T05:21:03.278Z</time>
      </trkpt>
      <trkpt lat="45.91981" lon="6.8503">
        <ele>1228</ele>
        <time>2026-08-04T05:21:04.278Z</time>
      </trkpt>
      <trkpt lat="45.91983" lon="6.8503">
        <ele>1227</ele>
        <time>2026-08-04T05:21:05.278Z</time>
      </trkpt>
      <trkpt lat="45.91984" lon="6.85032">
        <ele>1227</ele>
        <time>2026-08-04T05:21:06.278Z</time>
      </trkpt>
      <trkpt lat="45.91986" lon="6.85033">
        <ele>1227</ele>
        <time>2026-08-04T05:21:07.278Z</time>
      </trkpt>
      <trkpt lat="45.91987" lon="6.85033">
        <ele>1227</ele>
        <time>2026-08-04T05:21:08.278Z</time>
      </trkpt>
      <trkpt lat="45.91989" lon="6.85034">
        <ele>1227</ele>
        <time>2026-08-04T05:21:09.278Z</time>
      </trkpt>
      <trkpt lat="45.9199" lon="6.85035">
        <ele>1227</ele>
        <time>2026-08-04T05:21:10.278Z</time>
      </trkpt>
      <trkpt lat="45.91991" lon="6.85036">
        <ele>1228</ele>
        <time>2026-08-04T05:21:11.278Z</time>
      </trkpt>
      <trkpt lat="45.91992" lon="6.85037">
        <ele>1228</ele>
        <time>2026-08-04T05:21:12.278Z</time>
      </trkpt>
      <trkpt lat="45.91993" lon="6.85038">
        <ele>1228</ele>
        <time>2026-08-04T05:21:13.278Z</time>
      </trkpt>
      <trkpt lat="45.91993" lon="6.85039">
        <ele>1228</ele>
        <time>2026-08-04T05:21:14.278Z</time>
      </trkpt>
      <trkpt lat="45.91995" lon="6.8504">
        <ele>1229</ele>
        <time>2026-08-04T05:21:15.278Z</time>
      </trkpt>
      <trkpt lat="45.91997" lon="6.85041">
        <ele>1229</ele>
        <time>2026-08-04T05:21:16.278Z</time>
      </trkpt>
      <trkpt lat="45.91998" lon="6.85042">
        <ele>1229</ele>
        <time>2026-08-04T05:21:17.278Z</time>
      </trkpt>
      <trkpt lat="45.92" lon="6.85043">
        <ele>1229</ele>
        <time>2026-08-04T05:21:18.278Z</time>
      </trkpt>
      <trkpt lat="45.92001" lon="6.85043">
        <ele>1229</ele>
        <time>2026-08-04T05:21:19.278Z</time>
      </trkpt>
      <trkpt lat="45.92002" lon="6.85043">
        <ele>1229</ele>
        <time>2026-08-04T05:21:20.278Z</time>
      </trkpt>
      <trkpt lat="45.92004" lon="6.85043">
        <ele>1230</ele>
        <time>2026-08-04T05:21:21.278Z</time>
      </trkpt>
      <trkpt lat="45.92005" lon="6.85044">
        <ele>1230</ele>
        <time>2026-08-04T05:21:22.278Z</time>
      </trkpt>
      <trkpt lat="45.92007" lon="6.85044">
        <ele>1230</ele>
        <time>2026-08-04T05:21:23.278Z</time>
      </trkpt>
      <trkpt lat="45.92008" lon="6.85044">
        <ele>1231</ele>
        <time>2026-08-04T05:21:24.278Z</time>
      </trkpt>
      <trkpt lat="45.9201" lon="6.85045">
        <ele>1231</ele>
        <time>2026-08-04T05:21:25.278Z</time>
      </trkpt>
      <trkpt lat="45.92012" lon="6.85046">
        <ele>1231</ele>
        <time>2026-08-04T05:21:26.278Z</time>
      </trkpt>
      <trkpt lat="45.92013" lon="6.85048">
        <ele>1231</ele>
        <time>2026-08-04T05:21:27.278Z</time>
      </trkpt>
      <trkpt lat="45.92014" lon="6.85049">
        <ele>1231</ele>
        <time>2026-08-04T05:21:28.278Z</time>
      </trkpt>
      <trkpt lat="45.92015" lon="6.85049">
        <ele>1231</ele>
        <time>2026-08-04T05:21:29.278Z</time>
      </trkpt>
      <trkpt lat="45.92018" lon="6.8505">
        <ele>1231</ele>
        <time>2026-08-04T05:21:30.278Z</time>
      </trkpt>
      <trkpt lat="45.9202" lon="6.8505">
        <ele>1231</ele>
        <time>2026-08-04T05:21:31.278Z</time>
      </trkpt>
      <trkpt lat="45.92021" lon="6.85051">
        <ele>1232</ele>
        <time>2026-08-04T05:21:32.278Z</time>
      </trkpt>
      <trkpt lat="45.92022" lon="6.85051">
        <ele>1232</ele>
        <time>2026-08-04T05:21:33.278Z</time>
      </trkpt>
      <trkpt lat="45.92024" lon="6.85052">
        <ele>1232</ele>
        <time>2026-08-04T05:21:34.278Z</time>
      </trkpt>
      <trkpt lat="45.92027" lon="6.85053">
        <ele>1232</ele>
        <time>2026-08-04T05:21:35.278Z</time>
      </trkpt>
      <trkpt lat="45.92029" lon="6.85054">
        <ele>1232</ele>
        <time>2026-08-04T05:21:36.278Z</time>
      </trkpt>
      <trkpt lat="45.92031" lon="6.85056">
        <ele>1232</ele>
        <time>2026-08-04T05:21:37.278Z</time>
      </trkpt>
      <trkpt lat="45.92033" lon="6.85057">
        <ele>1232</ele>
        <time>2026-08-04T05:21:38.278Z</time>
      </trkpt>
      <trkpt lat="45.92035" lon="6.85059">
        <ele>1232</ele>
        <time>2026-08-04T05:21:39.278Z</time>
      </trkpt>
      <trkpt lat="45.92037" lon="6.8506">
        <ele>1232</ele>
        <time>2026-08-04T05:21:40.278Z</time>
      </trkpt>
      <trkpt lat="45.92039" lon="6.85062">
        <ele>1232</ele>
        <time>2026-08-04T05:21:41.278Z</time>
      </trkpt>
      <trkpt lat="45.92041" lon="6.85064">
        <ele>1232</ele>
        <time>2026-08-04T05:21:42.278Z</time>
      </trkpt>
      <trkpt lat="45.92042" lon="6.85067">
        <ele>1232</ele>
        <time>2026-08-04T05:21:43.278Z</time>
      </trkpt>
      <trkpt lat="45.92043" lon="6.85069">
        <ele>1233</ele>
        <time>2026-08-04T05:21:44.278Z</time>
      </trkpt>
      <trkpt lat="45.92044" lon="6.85071">
        <ele>1233</ele>
        <time>2026-08-04T05:21:45.278Z</time>
      </trkpt>
      <trkpt lat="45.92045" lon="6.85073">
        <ele>1234</ele>
        <time>2026-08-04T05:21:46.278Z</time>
      </trkpt>
      <trkpt lat="45.92047" lon="6.85076">
        <ele>1234</ele>
        <time>2026-08-04T05:21:47.278Z</time>
      </trkpt>
      <trkpt lat="45.9205" lon="6.85078">
        <ele>1235</ele>
        <time>2026-08-04T05:21:48.278Z</time>
      </trkpt>
      <trkpt lat="45.92052" lon="6.8508">
        <ele>1235</ele>
        <time>2026-08-04T05:21:49.278Z</time>
      </trkpt>
      <trkpt lat="45.92054" lon="6.85081">
        <ele>1236</ele>
        <time>2026-08-04T05:21:50.278Z</time>
      </trkpt>
      <trkpt lat="45.92056" lon="6.85083">
        <ele>1236</ele>
        <time>2026-08-04T05:21:51.278Z</time>
      </trkpt>
      <trkpt lat="45.92058" lon="6.85085">
        <ele>1236</ele>
        <time>2026-08-04T05:21:52.278Z</time>
      </trkpt>
      <trkpt lat="45.9206" lon="6.85086">
        <ele>1237</ele>
        <time>2026-08-04T05:21:53.278Z</time>
      </trkpt>
      <trkpt lat="45.92062" lon="6.85088">
        <ele>1237</ele>
        <time>2026-08-04T05:21:54.278Z</time>
      </trkpt>
      <trkpt lat="45.92064" lon="6.85089">
        <ele>1238</ele>
        <time>2026-08-04T05:21:55.278Z</time>
      </trkpt>
      <trkpt lat="45.92066" lon="6.8509">
        <ele>1238</ele>
        <time>2026-08-04T05:21:56.278Z</time>
      </trkpt>
      <trkpt lat="45.92068" lon="6.85091">
        <ele>1238</ele>
        <time>2026-08-04T05:21:57.278Z</time>
      </trkpt>
      <trkpt lat="45.9207" lon="6.85093">
        <ele>1238</ele>
        <time>2026-08-04T05:21:58.278Z</time>
      </trkpt>
      <trkpt lat="45.92073" lon="6.85095">
        <ele>1238</ele>
        <time>2026-08-04T05:21:59.278Z</time>
      </trkpt>
      <trkpt lat="45.92076" lon="6.85096">
        <ele>1238</ele>
        <time>2026-08-04T05:22:00.278Z</time>
      </trkpt>
      <trkpt lat="45.92079" lon="6.85098">
        <ele>1238</ele>
        <time>2026-08-04T05:22:01.278Z</time>
      </trkpt>
      <trkpt lat="45.92083" lon="6.851">
        <ele>1238</ele>
        <time>2026-08-04T05:22:02.278Z</time>
      </trkpt>
      <trkpt lat="45.92087" lon="6.85103">
        <ele>1238</ele>
        <time>2026-08-04T05:22:03.278Z</time>
      </trkpt>
      <trkpt lat="45.9209" lon="6.85105">
        <ele>1238</ele>
        <time>2026-08-04T05:22:04.278Z</time>
      </trkpt>
      <trkpt lat="45.92093" lon="6.85106">
        <ele>1238</ele>
        <time>2026-08-04T05:22:05.278Z</time>
      </trkpt>
      <trkpt lat="45.92096" lon="6.85107">
        <ele>1238</ele>
        <time>2026-08-04T05:22:06.278Z</time>
      </trkpt>
      <trkpt lat="45.92098" lon="6.85109">
        <ele>1238</ele>
        <time>2026-08-04T05:22:07.278Z</time>
      </trkpt>
      <trkpt lat="45.921" lon="6.85109">
        <ele>1238</ele>
        <time>2026-08-04T05:22:08.278Z</time>
      </trkpt>
      <trkpt lat="45.92102" lon="6.8511">
        <ele>1239</ele>
        <time>2026-08-04T05:22:09.278Z</time>
      </trkpt>
      <trkpt lat="45.92105" lon="6.85114">
        <ele>1239</ele>
        <time>2026-08-04T05:22:10.278Z</time>
      </trkpt>
      <trkpt lat="45.92109" lon="6.85117">
        <ele>1239</ele>
        <time>2026-08-04T05:22:11.278Z</time>
      </trkpt>
      <trkpt lat="45.92112" lon="6.8512">
        <ele>1240</ele>
        <time>2026-08-04T05:22:12.278Z</time>
      </trkpt>
      <trkpt lat="45.92115" lon="6.85122">
        <ele>1240</ele>
        <time>2026-08-04T05:22:13.278Z</time>
      </trkpt>
      <trkpt lat="45.92119" lon="6.85122">
        <ele>1241</ele>
        <time>2026-08-04T05:22:14.278Z</time>
      </trkpt>
      <trkpt lat="45.92123" lon="6.85124">
        <ele>1241</ele>
        <time>2026-08-04T05:22:15.278Z</time>
      </trkpt>
      <trkpt lat="45.92124" lon="6.85126">
        <ele>1241</ele>
        <time>2026-08-04T05:22:16.278Z</time>
      </trkpt>
      <trkpt lat="45.92127" lon="6.85128">
        <ele>1241</ele>
        <time>2026-08-04T05:22:17.278Z</time>
      </trkpt>
      <trkpt lat="45.92129" lon="6.8513">
        <ele>1241</ele>
        <time>2026-08-04T05:22:18.278Z</time>
      </trkpt>
      <trkpt lat="45.9213" lon="6.85132">
        <ele>1241</ele>
        <time>2026-08-04T05:22:19.278Z</time>
      </trkpt>
      <trkpt lat="45.92131" lon="6.85134">
        <ele>1241</ele>
        <time>2026-08-04T05:22:20.278Z</time>
      </trkpt>
      <trkpt lat="45.92132" lon="6.85134">
        <ele>1242</ele>
        <time>2026-08-04T05:22:21.278Z</time>
      </trkpt>
      <trkpt lat="45.92132" lon="6.85134">
        <ele>1242</ele>
        <time>2026-08-04T05:22:22.278Z</time>
      </trkpt>
      <trkpt lat="45.92133" lon="6.85135">
        <ele>1242</ele>
        <time>2026-08-04T05:22:23.278Z</time>
      </trkpt>
      <trkpt lat="45.92134" lon="6.85134">
        <ele>1242</ele>
        <time>2026-08-04T05:22:24.278Z</time>
      </trkpt>
      <trkpt lat="45.92136" lon="6.85135">
        <ele>1242</ele>
        <time>2026-08-04T05:22:25.278Z</time>
      </trkpt>
      <trkpt lat="45.92138" lon="6.85134">
        <ele>1242</ele>
        <time>2026-08-04T05:22:26.278Z</time>
      </trkpt>
      <trkpt lat="45.9214" lon="6.85136">
        <ele>1242</ele>
        <time>2026-08-04T05:22:27.278Z</time>
      </trkpt>
      <trkpt lat="45.92141" lon="6.85137">
        <ele>1242</ele>
        <time>2026-08-04T05:22:28.278Z</time>
      </trkpt>
      <trkpt lat="45.92142" lon="6.85136">
        <ele>1242</ele>
        <time>2026-08-04T05:22:29.278Z</time>
      </trkpt>
      <trkpt lat="45.92144" lon="6.85135">
        <ele>1242</ele>
        <time>2026-08-04T05:22:30.278Z</time>
      </trkpt>
      <trkpt lat="45.92148" lon="6.85135">
        <ele>1242</ele>
        <time>2026-08-04T05:22:31.278Z</time>
      </trkpt>
      <trkpt lat="45.92149" lon="6.85132">
        <ele>1242</ele>
        <time>2026-08-04T05:22:32.278Z</time>
      </trkpt>
      <trkpt lat="45.92152" lon="6.85128">
        <ele>1242</ele>
        <time>2026-08-04T05:22:33.278Z</time>
      </trkpt>
      <trkpt lat="45.92154" lon="6.85126">
        <ele>1242</ele>
        <time>2026-08-04T05:22:34.278Z</time>
      </trkpt>
      <trkpt lat="45.92156" lon="6.85124">
        <ele>1241</ele>
        <time>2026-08-04T05:22:35.278Z</time>
      </trkpt>
      <trkpt lat="45.92159" lon="6.85123">
        <ele>1241</ele>
        <time>2026-08-04T05:22:36.278Z</time>
      </trkpt>
      <trkpt lat="45.92161" lon="6.8512">
        <ele>1241</ele>
        <time>2026-08-04T05:22:37.278Z</time>
      </trkpt>
      <trkpt lat="45.92164" lon="6.85119">
        <ele>1241</ele>
        <time>2026-08-04T05:22:38.278Z</time>
      </trkpt>
      <trkpt lat="45.92166" lon="6.85119">
        <ele>1241</ele>
        <time>2026-08-04T05:22:39.278Z</time>
      </trkpt>
      <trkpt lat="45.92167" lon="6.85118">
        <ele>1241</ele>
        <time>2026-08-04T05:22:40.278Z</time>
      </trkpt>
      <trkpt lat="45.92169" lon="6.85118">
        <ele>1241</ele>
        <time>2026-08-04T05:22:41.278Z</time>
      </trkpt>
      <trkpt lat="45.9217" lon="6.85118">
        <ele>1241</ele>
        <time>2026-08-04T05:22:42.278Z</time>
      </trkpt>
      <trkpt lat="45.92171" lon="6.85119">
        <ele>1240</ele>
        <time>2026-08-04T05:22:43.278Z</time>
      </trkpt>
      <trkpt lat="45.92175" lon="6.85122">
        <ele>1240</ele>
        <time>2026-08-04T05:22:44.278Z</time>
      </trkpt>
      <trkpt lat="45.92176" lon="6.85125">
        <ele>1240</ele>
        <time>2026-08-04T05:22:45.278Z</time>
      </trkpt>
      <trkpt lat="45.92177" lon="6.85127">
        <ele>1240</ele>
        <time>2026-08-04T05:22:46.278Z</time>
      </trkpt>
      <trkpt lat="45.92178" lon="6.85129">
        <ele>1240</ele>
        <time>2026-08-04T05:22:47.278Z</time>
      </trkpt>
      <trkpt lat="45.92178" lon="6.8513">
        <ele>1240</ele>
        <time>2026-08-04T05:22:48.278Z</time>
      </trkpt>
      <trkpt lat="45.92179" lon="6.85132">
        <ele>1239</ele>
        <time>2026-08-04T05:22:49.278Z</time>
      </trkpt>
      <trkpt lat="45.92179" lon="6.85134">
        <ele>1239</ele>
        <time>2026-08-04T05:22:50.278Z</time>
      </trkpt>
      <trkpt lat="45.9218" lon="6.85136">
        <ele>1238</ele>
        <time>2026-08-04T05:22:51.278Z</time>
      </trkpt>
      <trkpt lat="45.9218" lon="6.85139">
        <ele>1238</ele>
        <time>2026-08-04T05:22:52.278Z</time>
      </trkpt>
      <trkpt lat="45.92181" lon="6.85141">
        <ele>1237</ele>
        <time>2026-08-04T05:22:53.278Z</time>
      </trkpt>
      <trkpt lat="45.92182" lon="6.85143">
        <ele>1237</ele>
        <time>2026-08-04T05:22:54.278Z</time>
      </trkpt>
      <trkpt lat="45.92184" lon="6.85147">
        <ele>1236</ele>
        <time>2026-08-04T05:22:55.278Z</time>
      </trkpt>
      <trkpt lat="45.92185" lon="6.8515">
        <ele>1236</ele>
        <time>2026-08-04T05:22:56.278Z</time>
      </trkpt>
      <trkpt lat="45.92187" lon="6.85153">
        <ele>1235</ele>
        <time>2026-08-04T05:22:57.278Z</time>
      </trkpt>
      <trkpt lat="45.92188" lon="6.85155">
        <ele>1235</ele>
        <time>2026-08-04T05:22:58.278Z</time>
      </trkpt>
      <trkpt lat="45.92188" lon="6.85158">
        <ele>1234</ele>
        <time>2026-08-04T05:22:59.278Z</time>
      </trkpt>
      <trkpt lat="45.92189" lon="6.8516">
        <ele>1234</ele>
        <time>2026-08-04T05:23:00.278Z</time>
      </trkpt>
      <trkpt lat="45.9219" lon="6.85162">
        <ele>1233</ele>
        <time>2026-08-04T05:23:01.278Z</time>
      </trkpt>
      <trkpt lat="45.92192" lon="6.85165">
        <ele>1232</ele>
        <time>2026-08-04T05:23:02.278Z</time>
      </trkpt>
      <trkpt lat="45.92193" lon="6.85167">
        <ele>1232</ele>
        <time>2026-08-04T05:23:03.278Z</time>
      </trkpt>
      <trkpt lat="45.92194" lon="6.85169">
        <ele>1231</ele>
        <time>2026-08-04T05:23:04.278Z</time>
      </trkpt>
      <trkpt lat="45.92195" lon="6.85172">
        <ele>1230</ele>
        <time>2026-08-04T05:23:05.278Z</time>
      </trkpt>
      <trkpt lat="45.92196" lon="6.85174">
        <ele>1230</ele>
        <time>2026-08-04T05:23:06.278Z</time>
      </trkpt>
      <trkpt lat="45.92197" lon="6.85177">
        <ele>1229</ele>
        <time>2026-08-04T05:23:07.278Z</time>
      </trkpt>
      <trkpt lat="45.92198" lon="6.85179">
        <ele>1229</ele>
        <time>2026-08-04T05:23:08.278Z</time>
      </trkpt>
      <trkpt lat="45.92199" lon="6.85181">
        <ele>1228</ele>
        <time>2026-08-04T05:23:09.278Z</time>
      </trkpt>
      <trkpt lat="45.922" lon="6.85183">
        <ele>1228</ele>
        <time>2026-08-04T05:23:10.278Z</time>
      </trkpt>
      <trkpt lat="45.92201" lon="6.85185">
        <ele>1227</ele>
        <time>2026-08-04T05:23:11.278Z</time>
      </trkpt>
      <trkpt lat="45.92202" lon="6.85186">
        <ele>1227</ele>
        <time>2026-08-04T05:23:12.278Z</time>
      </trkpt>
      <trkpt lat="45.92202" lon="6.85188">
        <ele>1227</ele>
        <time>2026-08-04T05:23:13.278Z</time>
      </trkpt>
      <trkpt lat="45.92203" lon="6.85189">
        <ele>1227</ele>
        <time>2026-08-04T05:23:14.278Z</time>
      </trkpt>
      <trkpt lat="45.92204" lon="6.8519">
        <ele>1227</ele>
        <time>2026-08-04T05:23:15.278Z</time>
      </trkpt>
      <trkpt lat="45.92206" lon="6.85191">
        <ele>1227</ele>
        <time>2026-08-04T05:23:16.278Z</time>
      </trkpt>
      <trkpt lat="45.92207" lon="6.85193">
        <ele>1227</ele>
        <time>2026-08-04T05:23:17.278Z</time>
      </trkpt>
      <trkpt lat="45.92208" lon="6.85194">
        <ele>1227</ele>
        <time>2026-08-04T05:23:18.278Z</time>
      </trkpt>
      <trkpt lat="45.9221" lon="6.85196">
        <ele>1227</ele>
        <time>2026-08-04T05:23:19.278Z</time>
      </trkpt>
      <trkpt lat="45.92212" lon="6.85198">
        <ele>1227</ele>
        <time>2026-08-04T05:23:20.278Z</time>
      </trkpt>
      <trkpt lat="45.92213" lon="6.852">
        <ele>1227</ele>
        <time>2026-08-04T05:23:21.278Z</time>
      </trkpt>
      <trkpt lat="45.92214" lon="6.85202">
        <ele>1228</ele>
        <time>2026-08-04T05:23:22.278Z</time>
      </trkpt>
      <trkpt lat="45.92215" lon="6.85203">
        <ele>1228</ele>
        <time>2026-08-04T05:23:23.278Z</time>
      </trkpt>
      <trkpt lat="45.92216" lon="6.85204">
        <ele>1228</ele>
        <time>2026-08-04T05:23:24.278Z</time>
      </trkpt>
      <trkpt lat="45.92217" lon="6.85206">
        <ele>1228</ele>
        <time>2026-08-04T05:23:25.278Z</time>
      </trkpt>
      <trkpt lat="45.92217" lon="6.85207">
        <ele>1228</ele>
        <time>2026-08-04T05:23:26.278Z</time>
      </trkpt>
      <trkpt lat="45.92218" lon="6.85208">
        <ele>1228</ele>
        <time>2026-08-04T05:23:27.278Z</time>
      </trkpt>
      <trkpt lat="45.92218" lon="6.85209">
        <ele>1229</ele>
        <time>2026-08-04T05:23:28.278Z</time>
      </trkpt>
      <trkpt lat="45.92218" lon="6.8521">
        <ele>1229</ele>
        <time>2026-08-04T05:23:29.278Z</time>
      </trkpt>
      <trkpt lat="45.9222" lon="6.85211">
        <ele>1229</ele>
        <time>2026-08-04T05:23:30.278Z</time>
      </trkpt>
      <trkpt lat="45.92221" lon="6.85212">
        <ele>1229</ele>
        <time>2026-08-04T05:23:31.278Z</time>
      </trkpt>
      <trkpt lat="45.92222" lon="6.85213">
        <ele>1229</ele>
        <time>2026-08-04T05:23:32.278Z</time>
      </trkpt>
      <trkpt lat="45.92223" lon="6.85213">
        <ele>1229</ele>
        <time>2026-08-04T05:23:33.278Z</time>
      </trkpt>
      <trkpt lat="45.92224" lon="6.85215">
        <ele>1229</ele>
        <time>2026-08-04T05:23:34.278Z</time>
      </trkpt>
      <trkpt lat="45.92225" lon="6.85216">
        <ele>1229</ele>
        <time>2026-08-04T05:23:35.278Z</time>
      </trkpt>
      <trkpt lat="45.92226" lon="6.85217">
        <ele>1229</ele>
        <time>2026-08-04T05:23:36.278Z</time>
      </trkpt>
      <trkpt lat="45.92228" lon="6.85219">
        <ele>1229</ele>
        <time>2026-08-04T05:23:37.278Z</time>
      </trkpt>
      <trkpt lat="45.92229" lon="6.8522">
        <ele>1229</ele>
        <time>2026-08-04T05:23:38.278Z</time>
      </trkpt>
      <trkpt lat="45.92231" lon="6.85221">
        <ele>1228</ele>
        <time>2026-08-04T05:23:39.278Z</time>
      </trkpt>
      <trkpt lat="45.92233" lon="6.85222">
        <ele>1228</ele>
        <time>2026-08-04T05:23:40.278Z</time>
      </trkpt>
      <trkpt lat="45.92235" lon="6.85223">
        <ele>1228</ele>
        <time>2026-08-04T05:23:41.278Z</time>
      </trkpt>
      <trkpt lat="45.92236" lon="6.85225">
        <ele>1228</ele>
        <time>2026-08-04T05:23:42.278Z</time>
      </trkpt>
      <trkpt lat="45.92237" lon="6.85226">
        <ele>1228</ele>
        <time>2026-08-04T05:23:43.278Z</time>
      </trkpt>
      <trkpt lat="45.92238" lon="6.85228">
        <ele>1228</ele>
        <time>2026-08-04T05:23:44.278Z</time>
      </trkpt>
      <trkpt lat="45.92239" lon="6.8523">
        <ele>1227</ele>
        <time>2026-08-04T05:23:45.278Z</time>
      </trkpt>
      <trkpt lat="45.9224" lon="6.85232">
        <ele>1227</ele>
        <time>2026-08-04T05:23:46.278Z</time>
      </trkpt>
      <trkpt lat="45.92241" lon="6.85234">
        <ele>1227</ele>
        <time>2026-08-04T05:23:47.278Z</time>
      </trkpt>
      <trkpt lat="45.92242" lon="6.85236">
        <ele>1227</ele>
        <time>2026-08-04T05:23:48.278Z</time>
      </trkpt>
      <trkpt lat="45.92243" lon="6.85237">
        <ele>1227</ele>
        <time>2026-08-04T05:23:49.278Z</time>
      </trkpt>
      <trkpt lat="45.92244" lon="6.85239">
        <ele>1227</ele>
        <time>2026-08-04T05:23:50.278Z</time>
      </trkpt>
      <trkpt lat="45.92245" lon="6.85241">
        <ele>1227</ele>
        <time>2026-08-04T05:23:51.278Z</time>
      </trkpt>
      <trkpt lat="45.92246" lon="6.85242">
        <ele>1227</ele>
        <time>2026-08-04T05:23:52.278Z</time>
      </trkpt>
      <trkpt lat="45.92248" lon="6.85242">
        <ele>1227</ele>
        <time>2026-08-04T05:23:53.278Z</time>
      </trkpt>
      <trkpt lat="45.9225" lon="6.85243">
        <ele>1227</ele>
        <time>2026-08-04T05:23:54.278Z</time>
      </trkpt>
      <trkpt lat="45.92251" lon="6.85244">
        <ele>1228</ele>
        <time>2026-08-04T05:23:55.278Z</time>
      </trkpt>
      <trkpt lat="45.92252" lon="6.85247">
        <ele>1228</ele>
        <time>2026-08-04T05:23:56.278Z</time>
      </trkpt>
      <trkpt lat="45.92254" lon="6.85249">
        <ele>1228</ele>
        <time>2026-08-04T05:23:57.278Z</time>
      </trkpt>
      <trkpt lat="45.92255" lon="6.8525">
        <ele>1229</ele>
        <time>2026-08-04T05:23:58.278Z</time>
      </trkpt>
      <trkpt lat="45.92256" lon="6.85251">
        <ele>1229</ele>
        <time>2026-08-04T05:23:59.278Z</time>
      </trkpt>
      <trkpt lat="45.92257" lon="6.85252">
        <ele>1230</ele>
        <time>2026-08-04T05:24:00.278Z</time>
      </trkpt>
      <trkpt lat="45.92257" lon="6.85252">
        <ele>1231</ele>
        <time>2026-08-04T05:24:01.278Z</time>
      </trkpt>
      <trkpt lat="45.92258" lon="6.85252">
        <ele>1231</ele>
        <time>2026-08-04T05:24:02.278Z</time>
      </trkpt>
      <trkpt lat="45.92259" lon="6.85252">
        <ele>1232</ele>
        <time>2026-08-04T05:24:03.278Z</time>
      </trkpt>
      <trkpt lat="45.92259" lon="6.85253">
        <ele>1233</ele>
        <time>2026-08-04T05:24:04.278Z</time>
      </trkpt>
      <trkpt lat="45.92259" lon="6.85253">
        <ele>1233</ele>
        <time>2026-08-04T05:24:05.278Z</time>
      </trkpt>
      <trkpt lat="45.9226" lon="6.85254">
        <ele>1233</ele>
        <time>2026-08-04T05:24:06.278Z</time>
      </trkpt>
      <trkpt lat="45.92261" lon="6.85254">
        <ele>1234</ele>
        <time>2026-08-04T05:24:07.278Z</time>
      </trkpt>
      <trkpt lat="45.92263" lon="6.85255">
        <ele>1234</ele>
        <time>2026-08-04T05:24:08.278Z</time>
      </trkpt>
      <trkpt lat="45.92264" lon="6.85257">
        <ele>1234</ele>
        <time>2026-08-04T05:24:09.278Z</time>
      </trkpt>
      <trkpt lat="45.92265" lon="6.85258">
        <ele>1234</ele>
        <time>2026-08-04T05:24:10.278Z</time>
      </trkpt>
      <trkpt lat="45.92266" lon="6.85258">
        <ele>1235</ele>
        <time>2026-08-04T05:24:11.278Z</time>
      </trkpt>
      <trkpt lat="45.92267" lon="6.85259">
        <ele>1235</ele>
        <time>2026-08-04T05:24:12.278Z</time>
      </trkpt>
      <trkpt lat="45.92268" lon="6.8526">
        <ele>1235</ele>
        <time>2026-08-04T05:24:13.278Z</time>
      </trkpt>
      <trkpt lat="45.92269" lon="6.8526">
        <ele>1236</ele>
        <time>2026-08-04T05:24:14.278Z</time>
      </trkpt>
      <trkpt lat="45.9227" lon="6.85262">
        <ele>1236</ele>
        <time>2026-08-04T05:24:15.278Z</time>
      </trkpt>
      <trkpt lat="45.92271" lon="6.85263">
        <ele>1236</ele>
        <time>2026-08-04T05:24:16.278Z</time>
      </trkpt>
      <trkpt lat="45.92272" lon="6.85265">
        <ele>1237</ele>
        <time>2026-08-04T05:24:17.278Z</time>
      </trkpt>
      <trkpt lat="45.92273" lon="6.85266">
        <ele>1237</ele>
        <time>2026-08-04T05:24:18.278Z</time>
      </trkpt>
      <trkpt lat="45.92274" lon="6.85269">
        <ele>1237</ele>
        <time>2026-08-04T05:24:19.278Z</time>
      </trkpt>
      <trkpt lat="45.92276" lon="6.8527">
        <ele>1237</ele>
        <time>2026-08-04T05:24:20.278Z</time>
      </trkpt>
      <trkpt lat="45.92277" lon="6.85272">
        <ele>1237</ele>
        <time>2026-08-04T05:24:21.278Z</time>
      </trkpt>
      <trkpt lat="45.92278" lon="6.85273">
        <ele>1237</ele>
        <time>2026-08-04T05:24:22.278Z</time>
      </trkpt>
      <trkpt lat="45.92279" lon="6.85274">
        <ele>1237</ele>
        <time>2026-08-04T05:24:23.278Z</time>
      </trkpt>
      <trkpt lat="45.92281" lon="6.85276">
        <ele>1237</ele>
        <time>2026-08-04T05:24:24.278Z</time>
      </trkpt>
      <trkpt lat="45.92282" lon="6.85277">
        <ele>1237</ele>
        <time>2026-08-04T05:24:25.278Z</time>
      </trkpt>
      <trkpt lat="45.92283" lon="6.85278">
        <ele>1237</ele>
        <time>2026-08-04T05:24:26.278Z</time>
      </trkpt>
      <trkpt lat="45.92285" lon="6.8528">
        <ele>1237</ele>
        <time>2026-08-04T05:24:27.278Z</time>
      </trkpt>
      <trkpt lat="45.92286" lon="6.85281">
        <ele>1238</ele>
        <time>2026-08-04T05:24:28.278Z</time>
      </trkpt>
      <trkpt lat="45.92287" lon="6.85282">
        <ele>1238</ele>
        <time>2026-08-04T05:24:29.278Z</time>
      </trkpt>
      <trkpt lat="45.92289" lon="6.85282">
        <ele>1238</ele>
        <time>2026-08-04T05:24:30.278Z</time>
      </trkpt>
      <trkpt lat="45.92289" lon="6.85283">
        <ele>1238</ele>
        <time>2026-08-04T05:24:31.278Z</time>
      </trkpt>
      <trkpt lat="45.9229" lon="6.85282">
        <ele>1238</ele>
        <time>2026-08-04T05:24:32.278Z</time>
      </trkpt>
      <trkpt lat="45.92291" lon="6.85282">
        <ele>1239</ele>
        <time>2026-08-04T05:24:33.278Z</time>
      </trkpt>
      <trkpt lat="45.92292" lon="6.85282">
        <ele>1239</ele>
        <time>2026-08-04T05:24:34.278Z</time>
      </trkpt>
      <trkpt lat="45.92294" lon="6.85281">
        <ele>1240</ele>
        <time>2026-08-04T05:24:35.278Z</time>
      </trkpt>
      <trkpt lat="45.92295" lon="6.8528">
        <ele>1240</ele>
        <time>2026-08-04T05:24:36.278Z</time>
      </trkpt>
      <trkpt lat="45.92297" lon="6.85279">
        <ele>1241</ele>
        <time>2026-08-04T05:24:37.278Z</time>
      </trkpt>
      <trkpt lat="45.92298" lon="6.85279">
        <ele>1241</ele>
        <time>2026-08-04T05:24:38.278Z</time>
      </trkpt>
      <trkpt lat="45.923" lon="6.85278">
        <ele>1242</ele>
        <time>2026-08-04T05:24:39.278Z</time>
      </trkpt>
      <trkpt lat="45.92301" lon="6.85278">
        <ele>1243</ele>
        <time>2026-08-04T05:24:40.278Z</time>
      </trkpt>
      <trkpt lat="45.92303" lon="6.85278">
        <ele>1243</ele>
        <time>2026-08-04T05:24:41.278Z</time>
      </trkpt>
      <trkpt lat="45.92305" lon="6.85278">
        <ele>1244</ele>
        <time>2026-08-04T05:24:42.278Z</time>
      </trkpt>
      <trkpt lat="45.92306" lon="6.85278">
        <ele>1244</ele>
        <time>2026-08-04T05:24:43.278Z</time>
      </trkpt>
      <trkpt lat="45.92307" lon="6.85278">
        <ele>1244</ele>
        <time>2026-08-04T05:24:44.278Z</time>
      </trkpt>
      <trkpt lat="45.92308" lon="6.85279">
        <ele>1244</ele>
        <time>2026-08-04T05:24:45.278Z</time>
      </trkpt>
      <trkpt lat="45.92308" lon="6.8528">
        <ele>1245</ele>
        <time>2026-08-04T05:24:46.278Z</time>
      </trkpt>
      <trkpt lat="45.92309" lon="6.85281">
        <ele>1245</ele>
        <time>2026-08-04T05:24:47.278Z</time>
      </trkpt>
      <trkpt lat="45.9231" lon="6.85282">
        <ele>1245</ele>
        <time>2026-08-04T05:24:48.278Z</time>
      </trkpt>
      <trkpt lat="45.92311" lon="6.85282">
        <ele>1245</ele>
        <time>2026-08-04T05:24:49.278Z</time>
      </trkpt>
      <trkpt lat="45.92312" lon="6.85283">
        <ele>1246</ele>
        <time>2026-08-04T05:24:50.278Z</time>
      </trkpt>
      <trkpt lat="45.92313" lon="6.85284">
        <ele>1246</ele>
        <time>2026-08-04T05:24:51.278Z</time>
      </trkpt>
      <trkpt lat="45.92315" lon="6.85283">
        <ele>1246</ele>
        <time>2026-08-04T05:24:52.278Z</time>
      </trkpt>
      <trkpt lat="45.92316" lon="6.85282">
        <ele>1247</ele>
        <time>2026-08-04T05:24:53.278Z</time>
      </trkpt>
      <trkpt lat="45.92318" lon="6.85282">
        <ele>1247</ele>
        <time>2026-08-04T05:24:54.278Z</time>
      </trkpt>
      <trkpt lat="45.9232" lon="6.85283">
        <ele>1247</ele>
        <time>2026-08-04T05:24:55.278Z</time>
      </trkpt>
      <trkpt lat="45.92321" lon="6.85285">
        <ele>1248</ele>
        <time>2026-08-04T05:24:56.278Z</time>
      </trkpt>
      <trkpt lat="45.92322" lon="6.85286">
        <ele>1248</ele>
        <time>2026-08-04T05:24:57.278Z</time>
      </trkpt>
      <trkpt lat="45.92323" lon="6.85287">
        <ele>1248</ele>
        <time>2026-08-04T05:24:58.278Z</time>
      </trkpt>
      <trkpt lat="45.92324" lon="6.85287">
        <ele>1249</ele>
        <time>2026-08-04T05:24:59.278Z</time>
      </trkpt>
      <trkpt lat="45.92325" lon="6.85287">
        <ele>1249</ele>
        <time>2026-08-04T05:25:00.278Z</time>
      </trkpt>
      <trkpt lat="45.92326" lon="6.85288">
        <ele>1249</ele>
        <time>2026-08-04T05:25:01.278Z</time>
      </trkpt>
      <trkpt lat="45.92327" lon="6.85288">
        <ele>1249</ele>
        <time>2026-08-04T05:25:02.278Z</time>
      </trkpt>
      <trkpt lat="45.92328" lon="6.85288">
        <ele>1248</ele>
        <time>2026-08-04T05:25:03.278Z</time>
      </trkpt>
      <trkpt lat="45.9233" lon="6.85288">
        <ele>1248</ele>
        <time>2026-08-04T05:25:04.278Z</time>
      </trkpt>
      <trkpt lat="45.92331" lon="6.85288">
        <ele>1248</ele>
        <time>2026-08-04T05:25:05.278Z</time>
      </trkpt>
      <trkpt lat="45.92332" lon="6.85288">
        <ele>1249</ele>
        <time>2026-08-04T05:25:06.278Z</time>
      </trkpt>
      <trkpt lat="45.92333" lon="6.85288">
        <ele>1249</ele>
        <time>2026-08-04T05:25:07.278Z</time>
      </trkpt>
      <trkpt lat="45.92334" lon="6.85289">
        <ele>1249</ele>
        <time>2026-08-04T05:25:08.278Z</time>
      </trkpt>
      <trkpt lat="45.92335" lon="6.85289">
        <ele>1249</ele>
        <time>2026-08-04T05:25:09.278Z</time>
      </trkpt>
      <trkpt lat="45.92336" lon="6.85289">
        <ele>1250</ele>
        <time>2026-08-04T05:25:10.278Z</time>
      </trkpt>
      <trkpt lat="45.92337" lon="6.85289">
        <ele>1250</ele>
        <time>2026-08-04T05:25:11.278Z</time>
      </trkpt>
      <trkpt lat="45.92338" lon="6.8529">
        <ele>1250</ele>
        <time>2026-08-04T05:25:12.278Z</time>
      </trkpt>
      <trkpt lat="45.9234" lon="6.8529">
        <ele>1250</ele>
        <time>2026-08-04T05:25:13.278Z</time>
      </trkpt>
      <trkpt lat="45.92341" lon="6.8529">
        <ele>1250</ele>
        <time>2026-08-04T05:25:14.278Z</time>
      </trkpt>
      <trkpt lat="45.92343" lon="6.8529">
        <ele>1250</ele>
        <time>2026-08-04T05:25:15.278Z</time>
      </trkpt>
      <trkpt lat="45.92344" lon="6.8529">
        <ele>1251</ele>
        <time>2026-08-04T05:25:16.278Z</time>
      </trkpt>
      <trkpt lat="45.92346" lon="6.8529">
        <ele>1251</ele>
        <time>2026-08-04T05:25:17.278Z</time>
      </trkpt>
      <trkpt lat="45.92348" lon="6.8529">
        <ele>1251</ele>
        <time>2026-08-04T05:25:18.278Z</time>
      </trkpt>
      <trkpt lat="45.92349" lon="6.85291">
        <ele>1252</ele>
        <time>2026-08-04T05:25:19.278Z</time>
      </trkpt>
      <trkpt lat="45.92351" lon="6.85292">
        <ele>1252</ele>
        <time>2026-08-04T05:25:20.278Z</time>
      </trkpt>
      <trkpt lat="45.92353" lon="6.85293">
        <ele>1253</ele>
        <time>2026-08-04T05:25:21.278Z</time>
      </trkpt>
      <trkpt lat="45.92354" lon="6.85295">
        <ele>1253</ele>
        <time>2026-08-04T05:25:22.278Z</time>
      </trkpt>
      <trkpt lat="45.92355" lon="6.85296">
        <ele>1254</ele>
        <time>2026-08-04T05:25:23.278Z</time>
      </trkpt>
      <trkpt lat="45.92355" lon="6.85298">
        <ele>1254</ele>
        <time>2026-08-04T05:25:24.278Z</time>
      </trkpt>
      <trkpt lat="45.92356" lon="6.85301">
        <ele>1254</ele>
        <time>2026-08-04T05:25:25.278Z</time>
      </trkpt>
      <trkpt lat="45.92357" lon="6.85302">
        <ele>1254</ele>
        <time>2026-08-04T05:25:26.278Z</time>
      </trkpt>
      <trkpt lat="45.92359" lon="6.85302">
        <ele>1254</ele>
        <time>2026-08-04T05:25:27.278Z</time>
      </trkpt>
      <trkpt lat="45.9236" lon="6.85302">
        <ele>1254</ele>
        <time>2026-08-04T05:25:28.278Z</time>
      </trkpt>
      <trkpt lat="45.92362" lon="6.85302">
        <ele>1254</ele>
        <time>2026-08-04T05:25:29.278Z</time>
      </trkpt>
      <trkpt lat="45.92363" lon="6.85303">
        <ele>1254</ele>
        <time>2026-08-04T05:25:30.278Z</time>
      </trkpt>
      <trkpt lat="45.92365" lon="6.85303">
        <ele>1254</ele>
        <time>2026-08-04T05:25:31.278Z</time>
      </trkpt>
      <trkpt lat="45.92366" lon="6.85303">
        <ele>1254</ele>
        <time>2026-08-04T05:25:32.278Z</time>
      </trkpt>
      <trkpt lat="45.92367" lon="6.85303">
        <ele>1254</ele>
        <time>2026-08-04T05:25:33.278Z</time>
      </trkpt>
      <trkpt lat="45.92368" lon="6.85303">
        <ele>1254</ele>
        <time>2026-08-04T05:25:34.278Z</time>
      </trkpt>
      <trkpt lat="45.92369" lon="6.85304">
        <ele>1255</ele>
        <time>2026-08-04T05:25:35.278Z</time>
      </trkpt>
      <trkpt lat="45.9237" lon="6.85305">
        <ele>1255</ele>
        <time>2026-08-04T05:25:36.278Z</time>
      </trkpt>
      <trkpt lat="45.92371" lon="6.85307">
        <ele>1256</ele>
        <time>2026-08-04T05:25:37.278Z</time>
      </trkpt>
      <trkpt lat="45.92371" lon="6.85309">
        <ele>1256</ele>
        <time>2026-08-04T05:25:38.278Z</time>
      </trkpt>
      <trkpt lat="45.92372" lon="6.8531">
        <ele>1257</ele>
        <time>2026-08-04T05:25:39.278Z</time>
      </trkpt>
      <trkpt lat="45.92372" lon="6.8531">
        <ele>1257</ele>
        <time>2026-08-04T05:25:40.278Z</time>
      </trkpt>
      <trkpt lat="45.92373" lon="6.85312">
        <ele>1258</ele>
        <time>2026-08-04T05:25:41.278Z</time>
      </trkpt>
      <trkpt lat="45.92373" lon="6.85314">
        <ele>1258</ele>
        <time>2026-08-04T05:25:42.278Z</time>
      </trkpt>
      <trkpt lat="45.92374" lon="6.85316">
        <ele>1258</ele>
        <time>2026-08-04T05:25:43.278Z</time>
      </trkpt>
      <trkpt lat="45.92374" lon="6.85318">
        <ele>1259</ele>
        <time>2026-08-04T05:25:44.278Z</time>
      </trkpt>
      <trkpt lat="45.92375" lon="6.8532">
        <ele>1259</ele>
        <time>2026-08-04T05:25:45.278Z</time>
      </trkpt>
      <trkpt lat="45.92376" lon="6.85321">
        <ele>1259</ele>
        <time>2026-08-04T05:25:46.278Z</time>
      </trkpt>
      <trkpt lat="45.92376" lon="6.85322">
        <ele>1260</ele>
        <time>2026-08-04T05:25:47.278Z</time>
      </trkpt>
      <trkpt lat="45.92377" lon="6.85324">
        <ele>1260</ele>
        <time>2026-08-04T05:25:48.278Z</time>
      </trkpt>
      <trkpt lat="45.92378" lon="6.85325">
        <ele>1261</ele>
        <time>2026-08-04T05:25:49.278Z</time>
      </trkpt>
      <trkpt lat="45.92378" lon="6.85327">
        <ele>1261</ele>
        <time>2026-08-04T05:25:50.278Z</time>
      </trkpt>
      <trkpt lat="45.92379" lon="6.85329">
        <ele>1261</ele>
        <time>2026-08-04T05:25:51.278Z</time>
      </trkpt>
      <trkpt lat="45.9238" lon="6.8533">
        <ele>1262</ele>
        <time>2026-08-04T05:25:52.278Z</time>
      </trkpt>
      <trkpt lat="45.92381" lon="6.8533">
        <ele>1262</ele>
        <time>2026-08-04T05:25:53.278Z</time>
      </trkpt>
      <trkpt lat="45.92383" lon="6.85331">
        <ele>1262</ele>
        <time>2026-08-04T05:25:54.278Z</time>
      </trkpt>
      <trkpt lat="45.92384" lon="6.85332">
        <ele>1262</ele>
        <time>2026-08-04T05:25:55.278Z</time>
      </trkpt>
      <trkpt lat="45.92385" lon="6.85333">
        <ele>1262</ele>
        <time>2026-08-04T05:25:56.278Z</time>
      </trkpt>
      <trkpt lat="45.92387" lon="6.85333">
        <ele>1262</ele>
        <time>2026-08-04T05:25:57.278Z</time>
      </trkpt>
      <trkpt lat="45.92388" lon="6.85334">
        <ele>1262</ele>
        <time>2026-08-04T05:25:58.278Z</time>
      </trkpt>
      <trkpt lat="45.9239" lon="6.85334">
        <ele>1262</ele>
        <time>2026-08-04T05:25:59.278Z</time>
      </trkpt>
      <trkpt lat="45.9239" lon="6.85336">
        <ele>1262</ele>
        <time>2026-08-04T05:26:00.278Z</time>
      </trkpt>
      <trkpt lat="45.92391" lon="6.85337">
        <ele>1262</ele>
        <time>2026-08-04T05:26:01.278Z</time>
      </trkpt>
      <trkpt lat="45.92392" lon="6.85338">
        <ele>1261</ele>
        <time>2026-08-04T05:26:02.278Z</time>
      </trkpt>
      <trkpt lat="45.92394" lon="6.85339">
        <ele>1261</ele>
        <time>2026-08-04T05:26:03.278Z</time>
      </trkpt>
      <trkpt lat="45.92395" lon="6.8534">
        <ele>1261</ele>
        <time>2026-08-04T05:26:04.278Z</time>
      </trkpt>
      <trkpt lat="45.92396" lon="6.8534">
        <ele>1261</ele>
        <time>2026-08-04T05:26:05.278Z</time>
      </trkpt>
      <trkpt lat="45.92398" lon="6.8534">
        <ele>1261</ele>
        <time>2026-08-04T05:26:06.278Z</time>
      </trkpt>
      <trkpt lat="45.92398" lon="6.8534">
        <ele>1261</ele>
        <time>2026-08-04T05:26:07.278Z</time>
      </trkpt>
      <trkpt lat="45.92399" lon="6.85341">
        <ele>1262</ele>
        <time>2026-08-04T05:26:08.278Z</time>
      </trkpt>
      <trkpt lat="45.924" lon="6.85341">
        <ele>1262</ele>
        <time>2026-08-04T05:26:09.278Z</time>
      </trkpt>
      <trkpt lat="45.92401" lon="6.85341">
        <ele>1262</ele>
        <time>2026-08-04T05:26:10.278Z</time>
      </trkpt>
      <trkpt lat="45.92402" lon="6.85341">
        <ele>1262</ele>
        <time>2026-08-04T05:26:11.278Z</time>
      </trkpt>
      <trkpt lat="45.92404" lon="6.85341">
        <ele>1262</ele>
        <time>2026-08-04T05:26:12.278Z</time>
      </trkpt>
      <trkpt lat="45.92405" lon="6.85341">
        <ele>1262</ele>
        <time>2026-08-04T05:26:13.278Z</time>
      </trkpt>
      <trkpt lat="45.92406" lon="6.85341">
        <ele>1262</ele>
        <time>2026-08-04T05:26:14.278Z</time>
      </trkpt>
      <trkpt lat="45.92408" lon="6.85342">
        <ele>1263</ele>
        <time>2026-08-04T05:26:15.278Z</time>
      </trkpt>
      <trkpt lat="45.92409" lon="6.85343">
        <ele>1263</ele>
        <time>2026-08-04T05:26:16.278Z</time>
      </trkpt>
      <trkpt lat="45.9241" lon="6.85344">
        <ele>1263</ele>
        <time>2026-08-04T05:26:17.278Z</time>
      </trkpt>
      <trkpt lat="45.92411" lon="6.85345">
        <ele>1263</ele>
        <time>2026-08-04T05:26:18.278Z</time>
      </trkpt>
      <trkpt lat="45.92411" lon="6.85347">
        <ele>1263</ele>
        <time>2026-08-04T05:26:19.278Z</time>
      </trkpt>
      <trkpt lat="45.92412" lon="6.85349">
        <ele>1264</ele>
        <time>2026-08-04T05:26:20.278Z</time>
      </trkpt>
      <trkpt lat="45.92413" lon="6.8535">
        <ele>1264</ele>
        <time>2026-08-04T05:26:21.278Z</time>
      </trkpt>
      <trkpt lat="45.92413" lon="6.85352">
        <ele>1264</ele>
        <time>2026-08-04T05:26:22.278Z</time>
      </trkpt>
      <trkpt lat="45.92413" lon="6.85354">
        <ele>1264</ele>
        <time>2026-08-04T05:26:23.278Z</time>
      </trkpt>
      <trkpt lat="45.92413" lon="6.85356">
        <ele>1264</ele>
        <time>2026-08-04T05:26:24.278Z</time>
      </trkpt>
      <trkpt lat="45.92413" lon="6.85358">
        <ele>1265</ele>
        <time>2026-08-04T05:26:25.278Z</time>
      </trkpt>
      <trkpt lat="45.92413" lon="6.8536">
        <ele>1265</ele>
        <time>2026-08-04T05:26:26.278Z</time>
      </trkpt>
      <trkpt lat="45.92414" lon="6.85362">
        <ele>1265</ele>
        <time>2026-08-04T05:26:27.278Z</time>
      </trkpt>
      <trkpt lat="45.92413" lon="6.85364">
        <ele>1264</ele>
        <time>2026-08-04T05:26:28.278Z</time>
      </trkpt>
      <trkpt lat="45.92413" lon="6.85365">
        <ele>1264</ele>
        <time>2026-08-04T05:26:29.278Z</time>
      </trkpt>
      <trkpt lat="45.92412" lon="6.85365">
        <ele>1264</ele>
        <time>2026-08-04T05:26:30.278Z</time>
      </trkpt>
      <trkpt lat="45.92412" lon="6.85365">
        <ele>1264</ele>
        <time>2026-08-04T05:26:31.278Z</time>
      </trkpt>
      <trkpt lat="45.92412" lon="6.85366">
        <ele>1264</ele>
        <time>2026-08-04T05:26:32.278Z</time>
      </trkpt>
      <trkpt lat="45.92412" lon="6.85367">
        <ele>1264</ele>
        <time>2026-08-04T05:26:33.278Z</time>
      </trkpt>
      <trkpt lat="45.92412" lon="6.85368">
        <ele>1264</ele>
        <time>2026-08-04T05:26:34.278Z</time>
      </trkpt>
      <trkpt lat="45.92411" lon="6.85369">
        <ele>1264</ele>
        <time>2026-08-04T05:26:35.278Z</time>
      </trkpt>
      <trkpt lat="45.92411" lon="6.85369">
        <ele>1265</ele>
        <time>2026-08-04T05:26:36.278Z</time>
      </trkpt>
      <trkpt lat="45.9241" lon="6.85369">
        <ele>1265</ele>
        <time>2026-08-04T05:26:37.278Z</time>
      </trkpt>
      <trkpt lat="45.9241" lon="6.8537">
        <ele>1265</ele>
        <time>2026-08-04T05:26:38.278Z</time>
      </trkpt>
      <trkpt lat="45.92411" lon="6.8537">
        <ele>1266</ele>
        <time>2026-08-04T05:26:39.278Z</time>
      </trkpt>
      <trkpt lat="45.92412" lon="6.85372">
        <ele>1265</ele>
        <time>2026-08-04T05:26:40.278Z</time>
      </trkpt>
      <trkpt lat="45.92413" lon="6.85373">
        <ele>1265</ele>
        <time>2026-08-04T05:26:41.278Z</time>
      </trkpt>
      <trkpt lat="45.92413" lon="6.85375">
        <ele>1265</ele>
        <time>2026-08-04T05:26:42.278Z</time>
      </trkpt>
      <trkpt lat="45.92413" lon="6.85377">
        <ele>1265</ele>
        <time>2026-08-04T05:26:43.278Z</time>
      </trkpt>
      <trkpt lat="45.92413" lon="6.85378">
        <ele>1265</ele>
        <time>2026-08-04T05:26:44.278Z</time>
      </trkpt>
      <trkpt lat="45.92413" lon="6.8538">
        <ele>1264</ele>
        <time>2026-08-04T05:26:45.278Z</time>
      </trkpt>
      <trkpt lat="45.92413" lon="6.85382">
        <ele>1264</ele>
        <time>2026-08-04T05:26:46.278Z</time>
      </trkpt>
      <trkpt lat="45.92413" lon="6.85383">
        <ele>1264</ele>
        <time>2026-08-04T05:26:47.278Z</time>
      </trkpt>
      <trkpt lat="45.92413" lon="6.85385">
        <ele>1264</ele>
        <time>2026-08-04T05:26:48.278Z</time>
      </trkpt>
      <trkpt lat="45.92414" lon="6.85387">
        <ele>1264</ele>
        <time>2026-08-04T05:26:49.278Z</time>
      </trkpt>
      <trkpt lat="45.92414" lon="6.85388">
        <ele>1264</ele>
        <time>2026-08-04T05:26:50.278Z</time>
      </trkpt>
      <trkpt lat="45.92414" lon="6.8539">
        <ele>1264</ele>
        <time>2026-08-04T05:26:51.278Z</time>
      </trkpt>
      <trkpt lat="45.92414" lon="6.85392">
        <ele>1264</ele>
        <time>2026-08-04T05:26:52.278Z</time>
      </trkpt>
      <trkpt lat="45.92415" lon="6.85394">
        <ele>1264</ele>
        <time>2026-08-04T05:26:53.278Z</time>
      </trkpt>
      <trkpt lat="45.92416" lon="6.85397">
        <ele>1265</ele>
        <time>2026-08-04T05:26:54.278Z</time>
      </trkpt>
      <trkpt lat="45.92417" lon="6.85399">
        <ele>1265</ele>
        <time>2026-08-04T05:26:55.278Z</time>
      </trkpt>
      <trkpt lat="45.92417" lon="6.85401">
        <ele>1265</ele>
        <time>2026-08-04T05:26:56.278Z</time>
      </trkpt>
      <trkpt lat="45.92417" lon="6.85402">
        <ele>1266</ele>
        <time>2026-08-04T05:26:57.278Z</time>
      </trkpt>
      <trkpt lat="45.92418" lon="6.85403">
        <ele>1266</ele>
        <time>2026-08-04T05:26:58.278Z</time>
      </trkpt>
      <trkpt lat="45.92418" lon="6.85405">
        <ele>1267</ele>
        <time>2026-08-04T05:26:59.278Z</time>
      </trkpt>
      <trkpt lat="45.92418" lon="6.85407">
        <ele>1267</ele>
        <time>2026-08-04T05:27:00.278Z</time>
      </trkpt>
      <trkpt lat="45.92419" lon="6.85408">
        <ele>1268</ele>
        <time>2026-08-04T05:27:01.278Z</time>
      </trkpt>
      <trkpt lat="45.9242" lon="6.8541">
        <ele>1269</ele>
        <time>2026-08-04T05:27:02.278Z</time>
      </trkpt>
      <trkpt lat="45.92421" lon="6.85412">
        <ele>1269</ele>
        <time>2026-08-04T05:27:03.278Z</time>
      </trkpt>
      <trkpt lat="45.92422" lon="6.85414">
        <ele>1270</ele>
        <time>2026-08-04T05:27:04.278Z</time>
      </trkpt>
      <trkpt lat="45.92423" lon="6.85415">
        <ele>1270</ele>
        <time>2026-08-04T05:27:05.278Z</time>
      </trkpt>
      <trkpt lat="45.92423" lon="6.85416">
        <ele>1271</ele>
        <time>2026-08-04T05:27:06.278Z</time>
      </trkpt>
      <trkpt lat="45.92424" lon="6.85417">
        <ele>1271</ele>
        <time>2026-08-04T05:27:07.278Z</time>
      </trkpt>
      <trkpt lat="45.92424" lon="6.85419">
        <ele>1272</ele>
        <time>2026-08-04T05:27:08.278Z</time>
      </trkpt>
      <trkpt lat="45.92425" lon="6.8542">
        <ele>1273</ele>
        <time>2026-08-04T05:27:09.278Z</time>
      </trkpt>
      <trkpt lat="45.92426" lon="6.85421">
        <ele>1273</ele>
        <time>2026-08-04T05:27:10.278Z</time>
      </trkpt>
      <trkpt lat="45.92427" lon="6.85422">
        <ele>1274</ele>
        <time>2026-08-04T05:27:11.278Z</time>
      </trkpt>
      <trkpt lat="45.92427" lon="6.85424">
        <ele>1274</ele>
        <time>2026-08-04T05:27:12.278Z</time>
      </trkpt>
      <trkpt lat="45.92428" lon="6.85424">
        <ele>1275</ele>
        <time>2026-08-04T05:27:13.278Z</time>
      </trkpt>
      <trkpt lat="45.92428" lon="6.85425">
        <ele>1275</ele>
        <time>2026-08-04T05:27:14.278Z</time>
      </trkpt>
      <trkpt lat="45.92429" lon="6.85426">
        <ele>1275</ele>
        <time>2026-08-04T05:27:15.278Z</time>
      </trkpt>
      <trkpt lat="45.9243" lon="6.85426">
        <ele>1275</ele>
        <time>2026-08-04T05:27:16.278Z</time>
      </trkpt>
      <trkpt lat="45.92431" lon="6.85427">
        <ele>1275</ele>
        <time>2026-08-04T05:27:17.278Z</time>
      </trkpt>
      <trkpt lat="45.92432" lon="6.85427">
        <ele>1275</ele>
        <time>2026-08-04T05:27:18.278Z</time>
      </trkpt>
      <trkpt lat="45.92432" lon="6.85428">
        <ele>1275</ele>
        <time>2026-08-04T05:27:19.278Z</time>
      </trkpt>
      <trkpt lat="45.92433" lon="6.85428">
        <ele>1275</ele>
        <time>2026-08-04T05:27:20.278Z</time>
      </trkpt>
      <trkpt lat="45.92434" lon="6.85427">
        <ele>1275</ele>
        <time>2026-08-04T05:27:21.278Z</time>
      </trkpt>
      <trkpt lat="45.92436" lon="6.85427">
        <ele>1275</ele>
        <time>2026-08-04T05:27:22.278Z</time>
      </trkpt>
      <trkpt lat="45.92438" lon="6.85426">
        <ele>1275</ele>
        <time>2026-08-04T05:27:23.278Z</time>
      </trkpt>
      <trkpt lat="45.9244" lon="6.85427">
        <ele>1275</ele>
        <time>2026-08-04T05:27:24.278Z</time>
      </trkpt>
      <trkpt lat="45.92441" lon="6.85427">
        <ele>1275</ele>
        <time>2026-08-04T05:27:25.278Z</time>
      </trkpt>
      <trkpt lat="45.92441" lon="6.85427">
        <ele>1275</ele>
        <time>2026-08-04T05:27:26.278Z</time>
      </trkpt>
      <trkpt lat="45.92442" lon="6.85427">
        <ele>1275</ele>
        <time>2026-08-04T05:27:27.278Z</time>
      </trkpt>
      <trkpt lat="45.92442" lon="6.85426">
        <ele>1275</ele>
        <time>2026-08-04T05:27:28.278Z</time>
      </trkpt>
      <trkpt lat="45.92443" lon="6.85426">
        <ele>1275</ele>
        <time>2026-08-04T05:27:29.278Z</time>
      </trkpt>
      <trkpt lat="45.92444" lon="6.85427">
        <ele>1275</ele>
        <time>2026-08-04T05:27:30.278Z</time>
      </trkpt>
      <trkpt lat="45.92445" lon="6.85427">
        <ele>1275</ele>
        <time>2026-08-04T05:27:31.278Z</time>
      </trkpt>
      <trkpt lat="45.92447" lon="6.85427">
        <ele>1275</ele>
        <time>2026-08-04T05:27:32.278Z</time>
      </trkpt>
      <trkpt lat="45.92448" lon="6.85428">
        <ele>1275</ele>
        <time>2026-08-04T05:27:33.278Z</time>
      </trkpt>
      <trkpt lat="45.92449" lon="6.85428">
        <ele>1275</ele>
        <time>2026-08-04T05:27:34.278Z</time>
      </trkpt>
      <trkpt lat="45.92449" lon="6.85429">
        <ele>1275</ele>
        <time>2026-08-04T05:27:35.278Z</time>
      </trkpt>
      <trkpt lat="45.92449" lon="6.8543">
        <ele>1275</ele>
        <time>2026-08-04T05:27:36.278Z</time>
      </trkpt>
      <trkpt lat="45.9245" lon="6.8543">
        <ele>1275</ele>
        <time>2026-08-04T05:27:37.278Z</time>
      </trkpt>
      <trkpt lat="45.92451" lon="6.85429">
        <ele>1276</ele>
        <time>2026-08-04T05:27:38.278Z</time>
      </trkpt>
      <trkpt lat="45.92451" lon="6.85429">
        <ele>1276</ele>
        <time>2026-08-04T05:27:39.278Z</time>
      </trkpt>
      <trkpt lat="45.92452" lon="6.85428">
        <ele>1276</ele>
        <time>2026-08-04T05:27:40.278Z</time>
      </trkpt>
      <trkpt lat="45.92453" lon="6.85428">
        <ele>1277</ele>
        <time>2026-08-04T05:27:41.278Z</time>
      </trkpt>
      <trkpt lat="45.92454" lon="6.85429">
        <ele>1277</ele>
        <time>2026-08-04T05:27:42.278Z</time>
      </trkpt>
      <trkpt lat="45.92455" lon="6.8543">
        <ele>1277</ele>
        <time>2026-08-04T05:27:43.278Z</time>
      </trkpt>
      <trkpt lat="45.92455" lon="6.85431">
        <ele>1277</ele>
        <time>2026-08-04T05:27:44.278Z</time>
      </trkpt>
      <trkpt lat="45.92456" lon="6.85432">
        <ele>1278</ele>
        <time>2026-08-04T05:27:45.278Z</time>
      </trkpt>
      <trkpt lat="45.92457" lon="6.85433">
        <ele>1278</ele>
        <time>2026-08-04T05:27:46.278Z</time>
      </trkpt>
      <trkpt lat="45.92458" lon="6.85434">
        <ele>1278</ele>
        <time>2026-08-04T05:27:47.278Z</time>
      </trkpt>
      <trkpt lat="45.9246" lon="6.85434">
        <ele>1278</ele>
        <time>2026-08-04T05:27:48.278Z</time>
      </trkpt>
      <trkpt lat="45.92461" lon="6.85434">
        <ele>1279</ele>
        <time>2026-08-04T05:27:49.278Z</time>
      </trkpt>
      <trkpt lat="45.92462" lon="6.85434">
        <ele>1279</ele>
        <time>2026-08-04T05:27:50.278Z</time>
      </trkpt>
      <trkpt lat="45.92462" lon="6.85434">
        <ele>1279</ele>
        <time>2026-08-04T05:27:51.278Z</time>
      </trkpt>
      <trkpt lat="45.92464" lon="6.85434">
        <ele>1279</ele>
        <time>2026-08-04T05:27:52.278Z</time>
      </trkpt>
      <trkpt lat="45.92465" lon="6.85433">
        <ele>1280</ele>
        <time>2026-08-04T05:27:53.278Z</time>
      </trkpt>
      <trkpt lat="45.92466" lon="6.85433">
        <ele>1281</ele>
        <time>2026-08-04T05:27:54.278Z</time>
      </trkpt>
      <trkpt lat="45.92468" lon="6.85433">
        <ele>1281</ele>
        <time>2026-08-04T05:27:55.278Z</time>
      </trkpt>
      <trkpt lat="45.92469" lon="6.85433">
        <ele>1281</ele>
        <time>2026-08-04T05:27:56.278Z</time>
      </trkpt>
      <trkpt lat="45.9247" lon="6.85433">
        <ele>1282</ele>
        <time>2026-08-04T05:27:57.278Z</time>
      </trkpt>
      <trkpt lat="45.92471" lon="6.85432">
        <ele>1282</ele>
        <time>2026-08-04T05:27:58.278Z</time>
      </trkpt>
      <trkpt lat="45.92472" lon="6.85432">
        <ele>1283</ele>
        <time>2026-08-04T05:27:59.278Z</time>
      </trkpt>
      <trkpt lat="45.92473" lon="6.85432">
        <ele>1284</ele>
        <time>2026-08-04T05:28:00.278Z</time>
      </trkpt>
      <trkpt lat="45.92474" lon="6.85431">
        <ele>1285</ele>
        <time>2026-08-04T05:28:01.278Z</time>
      </trkpt>
      <trkpt lat="45.92475" lon="6.85431">
        <ele>1285</ele>
        <time>2026-08-04T05:28:02.278Z</time>
      </trkpt>
      <trkpt lat="45.92476" lon="6.8543">
        <ele>1286</ele>
        <time>2026-08-04T05:28:03.278Z</time>
      </trkpt>
      <trkpt lat="45.92477" lon="6.85429">
        <ele>1286</ele>
        <time>2026-08-04T05:28:04.278Z</time>
      </trkpt>
      <trkpt lat="45.92479" lon="6.85427">
        <ele>1287</ele>
        <time>2026-08-04T05:28:05.278Z</time>
      </trkpt>
      <trkpt lat="45.9248" lon="6.85425">
        <ele>1287</ele>
        <time>2026-08-04T05:28:06.278Z</time>
      </trkpt>
      <trkpt lat="45.92481" lon="6.85424">
        <ele>1287</ele>
        <time>2026-08-04T05:28:07.278Z</time>
      </trkpt>
      <trkpt lat="45.92482" lon="6.85423">
        <ele>1288</ele>
        <time>2026-08-04T05:28:08.278Z</time>
      </trkpt>
      <trkpt lat="45.92483" lon="6.85422">
        <ele>1288</ele>
        <time>2026-08-04T05:28:09.278Z</time>
      </trkpt>
      <trkpt lat="45.92484" lon="6.85422">
        <ele>1289</ele>
        <time>2026-08-04T05:28:10.278Z</time>
      </trkpt>
      <trkpt lat="45.92484" lon="6.85422">
        <ele>1289</ele>
        <time>2026-08-04T05:28:11.278Z</time>
      </trkpt>
      <trkpt lat="45.92485" lon="6.85422">
        <ele>1290</ele>
        <time>2026-08-04T05:28:12.278Z</time>
      </trkpt>
      <trkpt lat="45.92485" lon="6.85422">
        <ele>1290</ele>
        <time>2026-08-04T05:28:13.278Z</time>
      </trkpt>
      <trkpt lat="45.92486" lon="6.85423">
        <ele>1291</ele>
        <time>2026-08-04T05:28:14.278Z</time>
      </trkpt>
      <trkpt lat="45.92487" lon="6.85423">
        <ele>1291</ele>
        <time>2026-08-04T05:28:15.278Z</time>
      </trkpt>
      <trkpt lat="45.92488" lon="6.85424">
        <ele>1291</ele>
        <time>2026-08-04T05:28:16.278Z</time>
      </trkpt>
      <trkpt lat="45.92488" lon="6.85424">
        <ele>1291</ele>
        <time>2026-08-04T05:28:17.278Z</time>
      </trkpt>
      <trkpt lat="45.92489" lon="6.85425">
        <ele>1292</ele>
        <time>2026-08-04T05:28:18.278Z</time>
      </trkpt>
      <trkpt lat="45.9249" lon="6.85425">
        <ele>1292</ele>
        <time>2026-08-04T05:28:19.278Z</time>
      </trkpt>
      <trkpt lat="45.9249" lon="6.85425">
        <ele>1292</ele>
        <time>2026-08-04T05:28:20.278Z</time>
      </trkpt>
      <trkpt lat="45.92491" lon="6.85425">
        <ele>1292</ele>
        <time>2026-08-04T05:28:21.278Z</time>
      </trkpt>
      <trkpt lat="45.92491" lon="6.85425">
        <ele>1292</ele>
        <time>2026-08-04T05:28:22.278Z</time>
      </trkpt>
      <trkpt lat="45.92491" lon="6.85425">
        <ele>1292</ele>
        <time>2026-08-04T05:28:23.278Z</time>
      </trkpt>
      <trkpt lat="45.92491" lon="6.85425">
        <ele>1292</ele>
        <time>2026-08-04T05:28:24.278Z</time>
      </trkpt>
      <trkpt lat="45.92491" lon="6.85425">
        <ele>1293</ele>
        <time>2026-08-04T05:28:25.278Z</time>
      </trkpt>
      <trkpt lat="45.92492" lon="6.85425">
        <ele>1293</ele>
        <time>2026-08-04T05:28:26.278Z</time>
      </trkpt>
      <trkpt lat="45.92493" lon="6.85425">
        <ele>1293</ele>
        <time>2026-08-04T05:28:27.278Z</time>
      </trkpt>
      <trkpt lat="45.92494" lon="6.85426">
        <ele>1294</ele>
        <time>2026-08-04T05:28:28.278Z</time>
      </trkpt>
      <trkpt lat="45.92495" lon="6.85427">
        <ele>1294</ele>
        <time>2026-08-04T05:28:29.278Z</time>
      </trkpt>
      <trkpt lat="45.92496" lon="6.85428">
        <ele>1295</ele>
        <time>2026-08-04T05:28:30.278Z</time>
      </trkpt>
      <trkpt lat="45.92497" lon="6.85429">
        <ele>1295</ele>
        <time>2026-08-04T05:28:31.278Z</time>
      </trkpt>
      <trkpt lat="45.92499" lon="6.8543">
        <ele>1295</ele>
        <time>2026-08-04T05:28:32.278Z</time>
      </trkpt>
      <trkpt lat="45.925" lon="6.8543">
        <ele>1295</ele>
        <time>2026-08-04T05:28:33.278Z</time>
      </trkpt>
      <trkpt lat="45.92501" lon="6.85431">
        <ele>1295</ele>
        <time>2026-08-04T05:28:34.278Z</time>
      </trkpt>
      <trkpt lat="45.92501" lon="6.85431">
        <ele>1295</ele>
        <time>2026-08-04T05:28:35.278Z</time>
      </trkpt>
      <trkpt lat="45.92502" lon="6.85432">
        <ele>1295</ele>
        <time>2026-08-04T05:28:36.278Z</time>
      </trkpt>
      <trkpt lat="45.92504" lon="6.85434">
        <ele>1295</ele>
        <time>2026-08-04T05:28:37.278Z</time>
      </trkpt>
      <trkpt lat="45.92507" lon="6.85437">
        <ele>1296</ele>
        <time>2026-08-04T05:28:38.278Z</time>
      </trkpt>
      <trkpt lat="45.92508" lon="6.85438">
        <ele>1296</ele>
        <time>2026-08-04T05:28:39.278Z</time>
      </trkpt>
      <trkpt lat="45.92509" lon="6.8544">
        <ele>1296</ele>
        <time>2026-08-04T05:28:40.278Z</time>
      </trkpt>
      <trkpt lat="45.9251" lon="6.85441">
        <ele>1296</ele>
        <time>2026-08-04T05:28:41.278Z</time>
      </trkpt>
      <trkpt lat="45.92511" lon="6.85442">
        <ele>1296</ele>
        <time>2026-08-04T05:28:42.278Z</time>
      </trkpt>
      <trkpt lat="45.92513" lon="6.85442">
        <ele>1296</ele>
        <time>2026-08-04T05:28:43.278Z</time>
      </trkpt>
      <trkpt lat="45.92514" lon="6.85443">
        <ele>1296</ele>
        <time>2026-08-04T05:28:44.278Z</time>
      </trkpt>
      <trkpt lat="45.92514" lon="6.85445">
        <ele>1296</ele>
        <time>2026-08-04T05:28:45.278Z</time>
      </trkpt>
      <trkpt lat="45.92515" lon="6.85448">
        <ele>1295</ele>
        <time>2026-08-04T05:28:46.278Z</time>
      </trkpt>
      <trkpt lat="45.92516" lon="6.8545">
        <ele>1295</ele>
        <time>2026-08-04T05:28:47.278Z</time>
      </trkpt>
      <trkpt lat="45.92516" lon="6.85453">
        <ele>1295</ele>
        <time>2026-08-04T05:28:48.278Z</time>
      </trkpt>
      <trkpt lat="45.92515" lon="6.85454">
        <ele>1295</ele>
        <time>2026-08-04T05:28:49.278Z</time>
      </trkpt>
      <trkpt lat="45.92516" lon="6.85456">
        <ele>1294</ele>
        <time>2026-08-04T05:28:50.278Z</time>
      </trkpt>
      <trkpt lat="45.92515" lon="6.85458">
        <ele>1294</ele>
        <time>2026-08-04T05:28:51.278Z</time>
      </trkpt>
      <trkpt lat="45.92515" lon="6.8546">
        <ele>1294</ele>
        <time>2026-08-04T05:28:52.278Z</time>
      </trkpt>
      <trkpt lat="45.92515" lon="6.85462">
        <ele>1295</ele>
        <time>2026-08-04T05:28:53.278Z</time>
      </trkpt>
      <trkpt lat="45.92514" lon="6.85464">
        <ele>1295</ele>
        <time>2026-08-04T05:28:54.278Z</time>
      </trkpt>
      <trkpt lat="45.92513" lon="6.85466">
        <ele>1295</ele>
        <time>2026-08-04T05:28:55.278Z</time>
      </trkpt>
      <trkpt lat="45.92513" lon="6.85468">
        <ele>1295</ele>
        <time>2026-08-04T05:28:56.278Z</time>
      </trkpt>
      <trkpt lat="45.92512" lon="6.8547">
        <ele>1296</ele>
        <time>2026-08-04T05:28:57.278Z</time>
      </trkpt>
      <trkpt lat="45.92512" lon="6.85472">
        <ele>1296</ele>
        <time>2026-08-04T05:28:58.278Z</time>
      </trkpt>
      <trkpt lat="45.92512" lon="6.85474">
        <ele>1296</ele>
        <time>2026-08-04T05:28:59.278Z</time>
      </trkpt>
      <trkpt lat="45.92512" lon="6.85476">
        <ele>1296</ele>
        <time>2026-08-04T05:29:00.278Z</time>
      </trkpt>
      <trkpt lat="45.92511" lon="6.85477">
        <ele>1296</ele>
        <time>2026-08-04T05:29:01.278Z</time>
      </trkpt>
      <trkpt lat="45.92511" lon="6.85478">
        <ele>1296</ele>
        <time>2026-08-04T05:29:02.278Z</time>
      </trkpt>
      <trkpt lat="45.92511" lon="6.85479">
        <ele>1296</ele>
        <time>2026-08-04T05:29:03.278Z</time>
      </trkpt>
      <trkpt lat="45.92511" lon="6.85481">
        <ele>1295</ele>
        <time>2026-08-04T05:29:04.278Z</time>
      </trkpt>
      <trkpt lat="45.9251" lon="6.85482">
        <ele>1295</ele>
        <time>2026-08-04T05:29:05.278Z</time>
      </trkpt>
      <trkpt lat="45.92509" lon="6.85484">
        <ele>1295</ele>
        <time>2026-08-04T05:29:06.278Z</time>
      </trkpt>
      <trkpt lat="45.92509" lon="6.85486">
        <ele>1295</ele>
        <time>2026-08-04T05:29:07.278Z</time>
      </trkpt>
      <trkpt lat="45.92509" lon="6.85488">
        <ele>1294</ele>
        <time>2026-08-04T05:29:08.278Z</time>
      </trkpt>
      <trkpt lat="45.92509" lon="6.85491">
        <ele>1294</ele>
        <time>2026-08-04T05:29:09.278Z</time>
      </trkpt>
      <trkpt lat="45.9251" lon="6.85495">
        <ele>1294</ele>
        <time>2026-08-04T05:29:10.278Z</time>
      </trkpt>
      <trkpt lat="45.92511" lon="6.855">
        <ele>1294</ele>
        <time>2026-08-04T05:29:11.278Z</time>
      </trkpt>
      <trkpt lat="45.92512" lon="6.85503">
        <ele>1293</ele>
        <time>2026-08-04T05:29:12.278Z</time>
      </trkpt>
      <trkpt lat="45.92513" lon="6.85506">
        <ele>1293</ele>
        <time>2026-08-04T05:29:13.278Z</time>
      </trkpt>
      <trkpt lat="45.92514" lon="6.85508">
        <ele>1292</ele>
        <time>2026-08-04T05:29:14.278Z</time>
      </trkpt>
      <trkpt lat="45.92515" lon="6.85509">
        <ele>1291</ele>
        <time>2026-08-04T05:29:15.278Z</time>
      </trkpt>
      <trkpt lat="45.92516" lon="6.85511">
        <ele>1291</ele>
        <time>2026-08-04T05:29:16.278Z</time>
      </trkpt>
      <trkpt lat="45.92517" lon="6.85513">
        <ele>1290</ele>
        <time>2026-08-04T05:29:17.278Z</time>
      </trkpt>
      <trkpt lat="45.92518" lon="6.85513">
        <ele>1289</ele>
        <time>2026-08-04T05:29:18.278Z</time>
      </trkpt>
      <trkpt lat="45.92519" lon="6.85514">
        <ele>1289</ele>
        <time>2026-08-04T05:29:19.278Z</time>
      </trkpt>
      <trkpt lat="45.9252" lon="6.85515">
        <ele>1288</ele>
        <time>2026-08-04T05:29:20.278Z</time>
      </trkpt>
      <trkpt lat="45.92522" lon="6.85516">
        <ele>1288</ele>
        <time>2026-08-04T05:29:21.278Z</time>
      </trkpt>
      <trkpt lat="45.92523" lon="6.85518">
        <ele>1287</ele>
        <time>2026-08-04T05:29:22.278Z</time>
      </trkpt>
      <trkpt lat="45.92524" lon="6.85519">
        <ele>1286</ele>
        <time>2026-08-04T05:29:23.278Z</time>
      </trkpt>
      <trkpt lat="45.92525" lon="6.85521">
        <ele>1285</ele>
        <time>2026-08-04T05:29:24.278Z</time>
      </trkpt>
      <trkpt lat="45.92525" lon="6.85523">
        <ele>1285</ele>
        <time>2026-08-04T05:29:25.278Z</time>
      </trkpt>
      <trkpt lat="45.92526" lon="6.85524">
        <ele>1284</ele>
        <time>2026-08-04T05:29:26.278Z</time>
      </trkpt>
      <trkpt lat="45.92527" lon="6.85525">
        <ele>1283</ele>
        <time>2026-08-04T05:29:27.278Z</time>
      </trkpt>
      <trkpt lat="45.92528" lon="6.85527">
        <ele>1282</ele>
        <time>2026-08-04T05:29:28.278Z</time>
      </trkpt>
      <trkpt lat="45.92529" lon="6.85528">
        <ele>1282</ele>
        <time>2026-08-04T05:29:29.278Z</time>
      </trkpt>
      <trkpt lat="45.92531" lon="6.8553">
        <ele>1281</ele>
        <time>2026-08-04T05:29:30.278Z</time>
      </trkpt>
      <trkpt lat="45.92532" lon="6.85533">
        <ele>1281</ele>
        <time>2026-08-04T05:29:31.278Z</time>
      </trkpt>
      <trkpt lat="45.92533" lon="6.85537">
        <ele>1280</ele>
        <time>2026-08-04T05:29:32.278Z</time>
      </trkpt>
      <trkpt lat="45.92535" lon="6.85541">
        <ele>1280</ele>
        <time>2026-08-04T05:29:33.278Z</time>
      </trkpt>
      <trkpt lat="45.92536" lon="6.85545">
        <ele>1280</ele>
        <time>2026-08-04T05:29:34.278Z</time>
      </trkpt>
      <trkpt lat="45.92537" lon="6.85548">
        <ele>1280</ele>
        <time>2026-08-04T05:29:35.278Z</time>
      </trkpt>
      <trkpt lat="45.92538" lon="6.85551">
        <ele>1279</ele>
        <time>2026-08-04T05:29:36.278Z</time>
      </trkpt>
      <trkpt lat="45.92539" lon="6.85554">
        <ele>1279</ele>
        <time>2026-08-04T05:29:37.278Z</time>
      </trkpt>
      <trkpt lat="45.9254" lon="6.85557">
        <ele>1279</ele>
        <time>2026-08-04T05:29:38.278Z</time>
      </trkpt>
      <trkpt lat="45.9254" lon="6.85561">
        <ele>1278</ele>
        <time>2026-08-04T05:29:39.278Z</time>
      </trkpt>
      <trkpt lat="45.92541" lon="6.85564">
        <ele>1278</ele>
        <time>2026-08-04T05:29:40.278Z</time>
      </trkpt>
      <trkpt lat="45.92542" lon="6.85567">
        <ele>1278</ele>
        <time>2026-08-04T05:29:41.278Z</time>
      </trkpt>
      <trkpt lat="45.92544" lon="6.8557">
        <ele>1277</ele>
        <time>2026-08-04T05:29:42.278Z</time>
      </trkpt>
      <trkpt lat="45.92546" lon="6.85574">
        <ele>1277</ele>
        <time>2026-08-04T05:29:43.278Z</time>
      </trkpt>
      <trkpt lat="45.92547" lon="6.85578">
        <ele>1276</ele>
        <time>2026-08-04T05:29:44.278Z</time>
      </trkpt>
      <trkpt lat="45.92549" lon="6.85583">
        <ele>1276</ele>
        <time>2026-08-04T05:29:45.278Z</time>
      </trkpt>
      <trkpt lat="45.9255" lon="6.85587">
        <ele>1276</ele>
        <time>2026-08-04T05:29:46.278Z</time>
      </trkpt>
      <trkpt lat="45.92552" lon="6.85591">
        <ele>1276</ele>
        <time>2026-08-04T05:29:47.278Z</time>
      </trkpt>
      <trkpt lat="45.92554" lon="6.85595">
        <ele>1276</ele>
        <time>2026-08-04T05:29:48.278Z</time>
      </trkpt>
      <trkpt lat="45.92556" lon="6.85598">
        <ele>1275</ele>
        <time>2026-08-04T05:29:49.278Z</time>
      </trkpt>
      <trkpt lat="45.92557" lon="6.85601">
        <ele>1275</ele>
        <time>2026-08-04T05:29:50.278Z</time>
      </trkpt>
      <trkpt lat="45.92559" lon="6.85604">
        <ele>1275</ele>
        <time>2026-08-04T05:29:51.278Z</time>
      </trkpt>
      <trkpt lat="45.92561" lon="6.85608">
        <ele>1275</ele>
        <time>2026-08-04T05:29:52.278Z</time>
      </trkpt>
      <trkpt lat="45.92562" lon="6.85611">
        <ele>1275</ele>
        <time>2026-08-04T05:29:53.278Z</time>
      </trkpt>
      <trkpt lat="45.92562" lon="6.85614">
        <ele>1274</ele>
        <time>2026-08-04T05:29:54.278Z</time>
      </trkpt>
      <trkpt lat="45.92562" lon="6.85617">
        <ele>1274</ele>
        <time>2026-08-04T05:29:55.278Z</time>
      </trkpt>
      <trkpt lat="45.92564" lon="6.85621">
        <ele>1274</ele>
        <time>2026-08-04T05:29:56.278Z</time>
      </trkpt>
      <trkpt lat="45.92565" lon="6.85625">
        <ele>1274</ele>
        <time>2026-08-04T05:29:57.278Z</time>
      </trkpt>
      <trkpt lat="45.92566" lon="6.85628">
        <ele>1274</ele>
        <time>2026-08-04T05:29:58.278Z</time>
      </trkpt>
      <trkpt lat="45.92566" lon="6.85632">
        <ele>1273</ele>
        <time>2026-08-04T05:29:59.278Z</time>
      </trkpt>
      <trkpt lat="45.92567" lon="6.85635">
        <ele>1273</ele>
        <time>2026-08-04T05:30:00.278Z</time>
      </trkpt>
      <trkpt lat="45.92568" lon="6.85639">
        <ele>1273</ele>
        <time>2026-08-04T05:30:01.278Z</time>
      </trkpt>
      <trkpt lat="45.92568" lon="6.85643">
        <ele>1273</ele>
        <time>2026-08-04T05:30:02.278Z</time>
      </trkpt>
      <trkpt lat="45.9257" lon="6.85647">
        <ele>1272</ele>
        <time>2026-08-04T05:30:03.278Z</time>
      </trkpt>
      <trkpt lat="45.92571" lon="6.85651">
        <ele>1272</ele>
        <time>2026-08-04T05:30:04.278Z</time>
      </trkpt>
      <trkpt lat="45.92572" lon="6.85655">
        <ele>1271</ele>
        <time>2026-08-04T05:30:05.278Z</time>
      </trkpt>
      <trkpt lat="45.92573" lon="6.85658">
        <ele>1271</ele>
        <time>2026-08-04T05:30:06.278Z</time>
      </trkpt>
      <trkpt lat="45.92574" lon="6.85661">
        <ele>1270</ele>
        <time>2026-08-04T05:30:07.278Z</time>
      </trkpt>
      <trkpt lat="45.92575" lon="6.85665">
        <ele>1270</ele>
        <time>2026-08-04T05:30:08.278Z</time>
      </trkpt>
      <trkpt lat="45.92577" lon="6.85668">
        <ele>1270</ele>
        <time>2026-08-04T05:30:09.278Z</time>
      </trkpt>
      <trkpt lat="45.92578" lon="6.85672">
        <ele>1269</ele>
        <time>2026-08-04T05:30:10.278Z</time>
      </trkpt>
      <trkpt lat="45.9258" lon="6.85675">
        <ele>1269</ele>
        <time>2026-08-04T05:30:11.278Z</time>
      </trkpt>
      <trkpt lat="45.92581" lon="6.85678">
        <ele>1268</ele>
        <time>2026-08-04T05:30:12.278Z</time>
      </trkpt>
      <trkpt lat="45.92582" lon="6.85682">
        <ele>1268</ele>
        <time>2026-08-04T05:30:13.278Z</time>
      </trkpt>
      <trkpt lat="45.92583" lon="6.85686">
        <ele>1267</ele>
        <time>2026-08-04T05:30:14.278Z</time>
      </trkpt>
      <trkpt lat="45.92584" lon="6.85689">
        <ele>1266</ele>
        <time>2026-08-04T05:30:15.278Z</time>
      </trkpt>
      <trkpt lat="45.92585" lon="6.85692">
        <ele>1266</ele>
        <time>2026-08-04T05:30:16.278Z</time>
      </trkpt>
      <trkpt lat="45.92586" lon="6.85695">
        <ele>1265</ele>
        <time>2026-08-04T05:30:17.278Z</time>
      </trkpt>
      <trkpt lat="45.92588" lon="6.85698">
        <ele>1263</ele>
        <time>2026-08-04T05:30:18.278Z</time>
      </trkpt>
      <trkpt lat="45.92589" lon="6.85702">
        <ele>1262</ele>
        <time>2026-08-04T05:30:19.278Z</time>
      </trkpt>
      <trkpt lat="45.9259" lon="6.85705">
        <ele>1261</ele>
        <time>2026-08-04T05:30:20.278Z</time>
      </trkpt>
      <trkpt lat="45.92591" lon="6.85709">
        <ele>1260</ele>
        <time>2026-08-04T05:30:21.278Z</time>
      </trkpt>
      <trkpt lat="45.9259" lon="6.85712">
        <ele>1260</ele>
        <time>2026-08-04T05:30:22.278Z</time>
      </trkpt>
      <trkpt lat="45.9259" lon="6.85714">
        <ele>1259</ele>
        <time>2026-08-04T05:30:23.278Z</time>
      </trkpt>
      <trkpt lat="45.9259" lon="6.85716">
        <ele>1258</ele>
        <time>2026-08-04T05:30:24.278Z</time>
      </trkpt>
      <trkpt lat="45.9259" lon="6.85718">
        <ele>1258</ele>
        <time>2026-08-04T05:30:25.278Z</time>
      </trkpt>
      <trkpt lat="45.92589" lon="6.8572">
        <ele>1258</ele>
        <time>2026-08-04T05:30:26.278Z</time>
      </trkpt>
      <trkpt lat="45.92589" lon="6.85722">
        <ele>1257</ele>
        <time>2026-08-04T05:30:27.278Z</time>
      </trkpt>
      <trkpt lat="45.92589" lon="6.85724">
        <ele>1257</ele>
        <time>2026-08-04T05:30:28.278Z</time>
      </trkpt>
      <trkpt lat="45.92589" lon="6.85724">
        <ele>1257</ele>
        <time>2026-08-04T05:30:29.278Z</time>
      </trkpt>
      <trkpt lat="45.92589" lon="6.85724">
        <ele>1256</ele>
        <time>2026-08-04T05:30:30.278Z</time>
      </trkpt>
      <trkpt lat="45.9259" lon="6.85722">
        <ele>1255</ele>
        <time>2026-08-04T05:30:31.278Z</time>
      </trkpt>
      <trkpt lat="45.9259" lon="6.85721">
        <ele>1254</ele>
        <time>2026-08-04T05:30:32.278Z</time>
      </trkpt>
      <trkpt lat="45.9259" lon="6.85719">
        <ele>1254</ele>
        <time>2026-08-04T05:30:33.278Z</time>
      </trkpt>
      <trkpt lat="45.9259" lon="6.85718">
        <ele>1253</ele>
        <time>2026-08-04T05:30:34.278Z</time>
      </trkpt>
      <trkpt lat="45.9259" lon="6.85718">
        <ele>1253</ele>
        <time>2026-08-04T05:30:35.278Z</time>
      </trkpt>
      <trkpt lat="45.92589" lon="6.85719">
        <ele>1252</ele>
        <time>2026-08-04T05:30:36.278Z</time>
      </trkpt>
      <trkpt lat="45.9259" lon="6.85722">
        <ele>1252</ele>
        <time>2026-08-04T05:30:37.278Z</time>
      </trkpt>
      <trkpt lat="45.9259" lon="6.85725">
        <ele>1252</ele>
        <time>2026-08-04T05:30:38.278Z</time>
      </trkpt>
      <trkpt lat="45.9259" lon="6.85727">
        <ele>1252</ele>
        <time>2026-08-04T05:30:39.278Z</time>
      </trkpt>
      <trkpt lat="45.92589" lon="6.8573">
        <ele>1252</ele>
        <time>2026-08-04T05:30:40.278Z</time>
      </trkpt>
      <trkpt lat="45.92589" lon="6.85732">
        <ele>1252</ele>
        <time>2026-08-04T05:30:41.278Z</time>
      </trkpt>
      <trkpt lat="45.92587" lon="6.85734">
        <ele>1251</ele>
        <time>2026-08-04T05:30:42.278Z</time>
      </trkpt>
      <trkpt lat="45.92587" lon="6.85736">
        <ele>1251</ele>
        <time>2026-08-04T05:30:43.278Z</time>
      </trkpt>
      <trkpt lat="45.92586" lon="6.85739">
        <ele>1251</ele>
        <time>2026-08-04T05:30:44.278Z</time>
      </trkpt>
      <trkpt lat="45.92585" lon="6.85742">
        <ele>1251</ele>
        <time>2026-08-04T05:30:45.278Z</time>
      </trkpt>
      <trkpt lat="45.92586" lon="6.85745">
        <ele>1251</ele>
        <time>2026-08-04T05:30:46.278Z</time>
      </trkpt>
      <trkpt lat="45.92586" lon="6.85747">
        <ele>1250</ele>
        <time>2026-08-04T05:30:47.278Z</time>
      </trkpt>
      <trkpt lat="45.92588" lon="6.8575">
        <ele>1250</ele>
        <time>2026-08-04T05:30:48.278Z</time>
      </trkpt>
      <trkpt lat="45.92589" lon="6.85753">
        <ele>1250</ele>
        <time>2026-08-04T05:30:49.278Z</time>
      </trkpt>
      <trkpt lat="45.9259" lon="6.85756">
        <ele>1250</ele>
        <time>2026-08-04T05:30:50.278Z</time>
      </trkpt>
      <trkpt lat="45.92591" lon="6.85759">
        <ele>1249</ele>
        <time>2026-08-04T05:30:51.278Z</time>
      </trkpt>
      <trkpt lat="45.92591" lon="6.85762">
        <ele>1249</ele>
        <time>2026-08-04T05:30:52.278Z</time>
      </trkpt>
      <trkpt lat="45.92591" lon="6.85764">
        <ele>1249</ele>
        <time>2026-08-04T05:30:53.278Z</time>
      </trkpt>
      <trkpt lat="45.92592" lon="6.85766">
        <ele>1249</ele>
        <time>2026-08-04T05:30:54.278Z</time>
      </trkpt>
      <trkpt lat="45.92593" lon="6.85768">
        <ele>1249</ele>
        <time>2026-08-04T05:30:55.278Z</time>
      </trkpt>
      <trkpt lat="45.92595" lon="6.85771">
        <ele>1248</ele>
        <time>2026-08-04T05:30:56.278Z</time>
      </trkpt>
      <trkpt lat="45.92595" lon="6.85773">
        <ele>1248</ele>
        <time>2026-08-04T05:30:57.278Z</time>
      </trkpt>
      <trkpt lat="45.92596" lon="6.85776">
        <ele>1248</ele>
        <time>2026-08-04T05:30:58.278Z</time>
      </trkpt>
      <trkpt lat="45.92597" lon="6.85778">
        <ele>1248</ele>
        <time>2026-08-04T05:30:59.278Z</time>
      </trkpt>
      <trkpt lat="45.92599" lon="6.8578">
        <ele>1248</ele>
        <time>2026-08-04T05:31:00.278Z</time>
      </trkpt>
      <trkpt lat="45.926" lon="6.85782">
        <ele>1248</ele>
        <time>2026-08-04T05:31:01.278Z</time>
      </trkpt>
      <trkpt lat="45.926" lon="6.85784">
        <ele>1248</ele>
        <time>2026-08-04T05:31:02.278Z</time>
      </trkpt>
      <trkpt lat="45.92601" lon="6.85787">
        <ele>1248</ele>
        <time>2026-08-04T05:31:03.278Z</time>
      </trkpt>
      <trkpt lat="45.92602" lon="6.85789">
        <ele>1248</ele>
        <time>2026-08-04T05:31:04.278Z</time>
      </trkpt>
      <trkpt lat="45.92604" lon="6.85792">
        <ele>1248</ele>
        <time>2026-08-04T05:31:05.278Z</time>
      </trkpt>
      <trkpt lat="45.92605" lon="6.85794">
        <ele>1248</ele>
        <time>2026-08-04T05:31:06.278Z</time>
      </trkpt>
      <trkpt lat="45.92609" lon="6.85797">
        <ele>1248</ele>
        <time>2026-08-04T05:31:07.278Z</time>
      </trkpt>
      <trkpt lat="45.92611" lon="6.85798">
        <ele>1248</ele>
        <time>2026-08-04T05:31:08.278Z</time>
      </trkpt>
      <trkpt lat="45.92613" lon="6.85801">
        <ele>1248</ele>
        <time>2026-08-04T05:31:09.278Z</time>
      </trkpt>
      <trkpt lat="45.92613" lon="6.85804">
        <ele>1248</ele>
        <time>2026-08-04T05:31:10.278Z</time>
      </trkpt>
      <trkpt lat="45.92614" lon="6.85806">
        <ele>1248</ele>
        <time>2026-08-04T05:31:11.278Z</time>
      </trkpt>
      <trkpt lat="45.92615" lon="6.85808">
        <ele>1248</ele>
        <time>2026-08-04T05:31:12.278Z</time>
      </trkpt>
      <trkpt lat="45.92616" lon="6.85812">
        <ele>1248</ele>
        <time>2026-08-04T05:31:13.278Z</time>
      </trkpt>
      <trkpt lat="45.92616" lon="6.85814">
        <ele>1248</ele>
        <time>2026-08-04T05:31:14.278Z</time>
      </trkpt>
      <trkpt lat="45.92617" lon="6.85816">
        <ele>1248</ele>
        <time>2026-08-04T05:31:15.278Z</time>
      </trkpt>
      <trkpt lat="45.92619" lon="6.85818">
        <ele>1249</ele>
        <time>2026-08-04T05:31:16.278Z</time>
      </trkpt>
      <trkpt lat="45.9262" lon="6.85819">
        <ele>1249</ele>
        <time>2026-08-04T05:31:17.278Z</time>
      </trkpt>
      <trkpt lat="45.92621" lon="6.85819">
        <ele>1249</ele>
        <time>2026-08-04T05:31:18.278Z</time>
      </trkpt>
      <trkpt lat="45.92623" lon="6.8582">
        <ele>1249</ele>
        <time>2026-08-04T05:31:19.278Z</time>
      </trkpt>
      <trkpt lat="45.92624" lon="6.85821">
        <ele>1250</ele>
        <time>2026-08-04T05:31:20.278Z</time>
      </trkpt>
      <trkpt lat="45.92625" lon="6.85823">
        <ele>1250</ele>
        <time>2026-08-04T05:31:21.278Z</time>
      </trkpt>
      <trkpt lat="45.92627" lon="6.85824">
        <ele>1250</ele>
        <time>2026-08-04T05:31:22.278Z</time>
      </trkpt>
      <trkpt lat="45.92628" lon="6.85825">
        <ele>1251</ele>
        <time>2026-08-04T05:31:23.278Z</time>
      </trkpt>
      <trkpt lat="45.92629" lon="6.85826">
        <ele>1251</ele>
        <time>2026-08-04T05:31:24.278Z</time>
      </trkpt>
      <trkpt lat="45.92631" lon="6.85827">
        <ele>1251</ele>
        <time>2026-08-04T05:31:25.278Z</time>
      </trkpt>
      <trkpt lat="45.92632" lon="6.85829">
        <ele>1251</ele>
        <time>2026-08-04T05:31:26.278Z</time>
      </trkpt>
      <trkpt lat="45.92633" lon="6.8583">
        <ele>1251</ele>
        <time>2026-08-04T05:31:27.278Z</time>
      </trkpt>
      <trkpt lat="45.92634" lon="6.8583">
        <ele>1251</ele>
        <time>2026-08-04T05:31:28.278Z</time>
      </trkpt>
      <trkpt lat="45.92636" lon="6.85832">
        <ele>1251</ele>
        <time>2026-08-04T05:31:29.278Z</time>
      </trkpt>
      <trkpt lat="45.92637" lon="6.85833">
        <ele>1251</ele>
        <time>2026-08-04T05:31:30.278Z</time>
      </trkpt>
      <trkpt lat="45.92638" lon="6.85834">
        <ele>1251</ele>
        <time>2026-08-04T05:31:31.278Z</time>
      </trkpt>
      <trkpt lat="45.9264" lon="6.85835">
        <ele>1251</ele>
        <time>2026-08-04T05:31:32.278Z</time>
      </trkpt>
      <trkpt lat="45.92641" lon="6.85836">
        <ele>1251</ele>
        <time>2026-08-04T05:31:33.278Z</time>
      </trkpt>
      <trkpt lat="45.92642" lon="6.85837">
        <ele>1251</ele>
        <time>2026-08-04T05:31:34.278Z</time>
      </trkpt>
      <trkpt lat="45.92644" lon="6.85838">
        <ele>1251</ele>
        <time>2026-08-04T05:31:35.278Z</time>
      </trkpt>
      <trkpt lat="45.92645" lon="6.85839">
        <ele>1251</ele>
        <time>2026-08-04T05:31:36.278Z</time>
      </trkpt>
      <trkpt lat="45.92646" lon="6.85839">
        <ele>1251</ele>
        <time>2026-08-04T05:31:37.278Z</time>
      </trkpt>
      <trkpt lat="45.92648" lon="6.85839">
        <ele>1252</ele>
        <time>2026-08-04T05:31:38.278Z</time>
      </trkpt>
      <trkpt lat="45.92649" lon="6.8584">
        <ele>1252</ele>
        <time>2026-08-04T05:31:39.278Z</time>
      </trkpt>
      <trkpt lat="45.92651" lon="6.85841">
        <ele>1253</ele>
        <time>2026-08-04T05:31:40.278Z</time>
      </trkpt>
      <trkpt lat="45.92651" lon="6.85841">
        <ele>1253</ele>
        <time>2026-08-04T05:31:41.278Z</time>
      </trkpt>
      <trkpt lat="45.92652" lon="6.85841">
        <ele>1254</ele>
        <time>2026-08-04T05:31:42.278Z</time>
      </trkpt>
      <trkpt lat="45.92652" lon="6.85841">
        <ele>1254</ele>
        <time>2026-08-04T05:31:43.278Z</time>
      </trkpt>
      <trkpt lat="45.92652" lon="6.8584">
        <ele>1254</ele>
        <time>2026-08-04T05:31:44.278Z</time>
      </trkpt>
      <trkpt lat="45.92651" lon="6.85841">
        <ele>1255</ele>
        <time>2026-08-04T05:31:45.278Z</time>
      </trkpt>
      <trkpt lat="45.92651" lon="6.85841">
        <ele>1255</ele>
        <time>2026-08-04T05:31:46.278Z</time>
      </trkpt>
      <trkpt lat="45.92652" lon="6.85841">
        <ele>1255</ele>
        <time>2026-08-04T05:31:47.278Z</time>
      </trkpt>
      <trkpt lat="45.92653" lon="6.85842">
        <ele>1256</ele>
        <time>2026-08-04T05:31:48.278Z</time>
      </trkpt>
      <trkpt lat="45.92654" lon="6.85844">
        <ele>1256</ele>
        <time>2026-08-04T05:31:49.278Z</time>
      </trkpt>
      <trkpt lat="45.92655" lon="6.85846">
        <ele>1256</ele>
        <time>2026-08-04T05:31:50.278Z</time>
      </trkpt>
      <trkpt lat="45.92657" lon="6.85848">
        <ele>1256</ele>
        <time>2026-08-04T05:31:51.278Z</time>
      </trkpt>
      <trkpt lat="45.92658" lon="6.85851">
        <ele>1256</ele>
        <time>2026-08-04T05:31:52.278Z</time>
      </trkpt>
      <trkpt lat="45.9266" lon="6.85854">
        <ele>1256</ele>
        <time>2026-08-04T05:31:53.278Z</time>
      </trkpt>
      <trkpt lat="45.92661" lon="6.85858">
        <ele>1255</ele>
        <time>2026-08-04T05:31:54.278Z</time>
      </trkpt>
      <trkpt lat="45.92662" lon="6.85861">
        <ele>1255</ele>
        <time>2026-08-04T05:31:55.278Z</time>
      </trkpt>
      <trkpt lat="45.92662" lon="6.85865">
        <ele>1255</ele>
        <time>2026-08-04T05:31:56.278Z</time>
      </trkpt>
      <trkpt lat="45.92663" lon="6.85868">
        <ele>1255</ele>
        <time>2026-08-04T05:31:57.278Z</time>
      </trkpt>
      <trkpt lat="45.92664" lon="6.85871">
        <ele>1254</ele>
        <time>2026-08-04T05:31:58.278Z</time>
      </trkpt>
      <trkpt lat="45.92664" lon="6.85874">
        <ele>1254</ele>
        <time>2026-08-04T05:31:59.278Z</time>
      </trkpt>
      <trkpt lat="45.92665" lon="6.85876">
        <ele>1254</ele>
        <time>2026-08-04T05:32:00.278Z</time>
      </trkpt>
      <trkpt lat="45.92666" lon="6.85879">
        <ele>1253</ele>
        <time>2026-08-04T05:32:01.278Z</time>
      </trkpt>
      <trkpt lat="45.92667" lon="6.85882">
        <ele>1253</ele>
        <time>2026-08-04T05:32:02.278Z</time>
      </trkpt>
      <trkpt lat="45.92669" lon="6.85885">
        <ele>1252</ele>
        <time>2026-08-04T05:32:03.278Z</time>
      </trkpt>
      <trkpt lat="45.9267" lon="6.85889">
        <ele>1252</ele>
        <time>2026-08-04T05:32:04.278Z</time>
      </trkpt>
      <trkpt lat="45.92672" lon="6.85892">
        <ele>1251</ele>
        <time>2026-08-04T05:32:05.278Z</time>
      </trkpt>
      <trkpt lat="45.92675" lon="6.85896">
        <ele>1250</ele>
        <time>2026-08-04T05:32:06.278Z</time>
      </trkpt>
      <trkpt lat="45.92678" lon="6.85901">
        <ele>1250</ele>
        <time>2026-08-04T05:32:07.278Z</time>
      </trkpt>
      <trkpt lat="45.9268" lon="6.85905">
        <ele>1249</ele>
        <time>2026-08-04T05:32:08.278Z</time>
      </trkpt>
      <trkpt lat="45.92681" lon="6.85909">
        <ele>1249</ele>
        <time>2026-08-04T05:32:09.278Z</time>
      </trkpt>
      <trkpt lat="45.92683" lon="6.85912">
        <ele>1249</ele>
        <time>2026-08-04T05:32:10.278Z</time>
      </trkpt>
      <trkpt lat="45.92684" lon="6.85916">
        <ele>1249</ele>
        <time>2026-08-04T05:32:11.278Z</time>
      </trkpt>
      <trkpt lat="45.92686" lon="6.8592">
        <ele>1249</ele>
        <time>2026-08-04T05:32:12.278Z</time>
      </trkpt>
      <trkpt lat="45.92688" lon="6.85922">
        <ele>1249</ele>
        <time>2026-08-04T05:32:13.278Z</time>
      </trkpt>
      <trkpt lat="45.9269" lon="6.85925">
        <ele>1249</ele>
        <time>2026-08-04T05:32:14.278Z</time>
      </trkpt>
      <trkpt lat="45.92691" lon="6.85926">
        <ele>1249</ele>
        <time>2026-08-04T05:32:15.278Z</time>
      </trkpt>
      <trkpt lat="45.92693" lon="6.85927">
        <ele>1249</ele>
        <time>2026-08-04T05:32:16.278Z</time>
      </trkpt>
      <trkpt lat="45.92694" lon="6.85929">
        <ele>1248</ele>
        <time>2026-08-04T05:32:17.278Z</time>
      </trkpt>
      <trkpt lat="45.92697" lon="6.85931">
        <ele>1248</ele>
        <time>2026-08-04T05:32:18.278Z</time>
      </trkpt>
      <trkpt lat="45.92698" lon="6.85934">
        <ele>1248</ele>
        <time>2026-08-04T05:32:19.278Z</time>
      </trkpt>
      <trkpt lat="45.92699" lon="6.85935">
        <ele>1248</ele>
        <time>2026-08-04T05:32:20.278Z</time>
      </trkpt>
      <trkpt lat="45.927" lon="6.85937">
        <ele>1248</ele>
        <time>2026-08-04T05:32:21.278Z</time>
      </trkpt>
      <trkpt lat="45.92701" lon="6.85939">
        <ele>1248</ele>
        <time>2026-08-04T05:32:22.278Z</time>
      </trkpt>
      <trkpt lat="45.92703" lon="6.85942">
        <ele>1248</ele>
        <time>2026-08-04T05:32:23.278Z</time>
      </trkpt>
      <trkpt lat="45.92705" lon="6.85946">
        <ele>1248</ele>
        <time>2026-08-04T05:32:24.278Z</time>
      </trkpt>
      <trkpt lat="45.92706" lon="6.85948">
        <ele>1248</ele>
        <time>2026-08-04T05:32:25.278Z</time>
      </trkpt>
      <trkpt lat="45.92708" lon="6.8595">
        <ele>1248</ele>
        <time>2026-08-04T05:32:26.278Z</time>
      </trkpt>
      <trkpt lat="45.9271" lon="6.85952">
        <ele>1248</ele>
        <time>2026-08-04T05:32:27.278Z</time>
      </trkpt>
      <trkpt lat="45.92711" lon="6.85954">
        <ele>1248</ele>
        <time>2026-08-04T05:32:28.278Z</time>
      </trkpt>
      <trkpt lat="45.92713" lon="6.85956">
        <ele>1248</ele>
        <time>2026-08-04T05:32:29.278Z</time>
      </trkpt>
      <trkpt lat="45.92715" lon="6.85958">
        <ele>1248</ele>
        <time>2026-08-04T05:32:30.278Z</time>
      </trkpt>
      <trkpt lat="45.92716" lon="6.8596">
        <ele>1248</ele>
        <time>2026-08-04T05:32:31.278Z</time>
      </trkpt>
      <trkpt lat="45.92718" lon="6.85961">
        <ele>1248</ele>
        <time>2026-08-04T05:32:32.279Z</time>
      </trkpt>
      <trkpt lat="45.9272" lon="6.85964">
        <ele>1248</ele>
        <time>2026-08-04T05:32:33.278Z</time>
      </trkpt>
      <trkpt lat="45.92722" lon="6.85966">
        <ele>1248</ele>
        <time>2026-08-04T05:32:34.278Z</time>
      </trkpt>
      <trkpt lat="45.92724" lon="6.85969">
        <ele>1248</ele>
        <time>2026-08-04T05:32:35.278Z</time>
      </trkpt>
      <trkpt lat="45.92725" lon="6.85971">
        <ele>1248</ele>
        <time>2026-08-04T05:32:36.278Z</time>
      </trkpt>
      <trkpt lat="45.92727" lon="6.85976">
        <ele>1248</ele>
        <time>2026-08-04T05:32:37.278Z</time>
      </trkpt>
      <trkpt lat="45.92728" lon="6.8598">
        <ele>1248</ele>
        <time>2026-08-04T05:32:38.278Z</time>
      </trkpt>
      <trkpt lat="45.92729" lon="6.85983">
        <ele>1248</ele>
        <time>2026-08-04T05:32:39.278Z</time>
      </trkpt>
      <trkpt lat="45.9273" lon="6.85986">
        <ele>1248</ele>
        <time>2026-08-04T05:32:40.278Z</time>
      </trkpt>
      <trkpt lat="45.92732" lon="6.85988">
        <ele>1249</ele>
        <time>2026-08-04T05:32:41.278Z</time>
      </trkpt>
      <trkpt lat="45.92733" lon="6.8599">
        <ele>1249</ele>
        <time>2026-08-04T05:32:42.278Z</time>
      </trkpt>
      <trkpt lat="45.92733" lon="6.85991">
        <ele>1249</ele>
        <time>2026-08-04T05:32:43.278Z</time>
      </trkpt>
      <trkpt lat="45.92734" lon="6.85991">
        <ele>1249</ele>
        <time>2026-08-04T05:32:44.278Z</time>
      </trkpt>
      <trkpt lat="45.92734" lon="6.85992">
        <ele>1249</ele>
        <time>2026-08-04T05:32:45.278Z</time>
      </trkpt>
      <trkpt lat="45.92734" lon="6.85993">
        <ele>1249</ele>
        <time>2026-08-04T05:32:46.278Z</time>
      </trkpt>
      <trkpt lat="45.92735" lon="6.85995">
        <ele>1248</ele>
        <time>2026-08-04T05:32:47.278Z</time>
      </trkpt>
      <trkpt lat="45.92737" lon="6.85997">
        <ele>1248</ele>
        <time>2026-08-04T05:32:48.278Z</time>
      </trkpt>
      <trkpt lat="45.92738" lon="6.85999">
        <ele>1248</ele>
        <time>2026-08-04T05:32:49.278Z</time>
      </trkpt>
      <trkpt lat="45.92739" lon="6.86002">
        <ele>1248</ele>
        <time>2026-08-04T05:32:50.278Z</time>
      </trkpt>
      <trkpt lat="45.9274" lon="6.86005">
        <ele>1247</ele>
        <time>2026-08-04T05:32:51.278Z</time>
      </trkpt>
      <trkpt lat="45.92741" lon="6.86008">
        <ele>1247</ele>
        <time>2026-08-04T05:32:52.278Z</time>
      </trkpt>
      <trkpt lat="45.92743" lon="6.86011">
        <ele>1246</ele>
        <time>2026-08-04T05:32:53.278Z</time>
      </trkpt>
      <trkpt lat="45.92744" lon="6.86014">
        <ele>1246</ele>
        <time>2026-08-04T05:32:54.278Z</time>
      </trkpt>
      <trkpt lat="45.92744" lon="6.86017">
        <ele>1245</ele>
        <time>2026-08-04T05:32:55.278Z</time>
      </trkpt>
      <trkpt lat="45.92745" lon="6.8602">
        <ele>1245</ele>
        <time>2026-08-04T05:32:56.278Z</time>
      </trkpt>
      <trkpt lat="45.92745" lon="6.86023">
        <ele>1245</ele>
        <time>2026-08-04T05:32:57.278Z</time>
      </trkpt>
      <trkpt lat="45.92746" lon="6.86026">
        <ele>1245</ele>
        <time>2026-08-04T05:32:58.278Z</time>
      </trkpt>
      <trkpt lat="45.92746" lon="6.86029">
        <ele>1245</ele>
        <time>2026-08-04T05:32:59.278Z</time>
      </trkpt>
      <trkpt lat="45.92747" lon="6.86031">
        <ele>1245</ele>
        <time>2026-08-04T05:33:00.278Z</time>
      </trkpt>
      <trkpt lat="45.92747" lon="6.86033">
        <ele>1245</ele>
        <time>2026-08-04T05:33:01.278Z</time>
      </trkpt>
      <trkpt lat="45.92747" lon="6.86036">
        <ele>1245</ele>
        <time>2026-08-04T05:33:02.278Z</time>
      </trkpt>
      <trkpt lat="45.92749" lon="6.86039">
        <ele>1245</ele>
        <time>2026-08-04T05:33:03.278Z</time>
      </trkpt>
      <trkpt lat="45.9275" lon="6.86042">
        <ele>1245</ele>
        <time>2026-08-04T05:33:04.278Z</time>
      </trkpt>
      <trkpt lat="45.92752" lon="6.86044">
        <ele>1245</ele>
        <time>2026-08-04T05:33:05.278Z</time>
      </trkpt>
      <trkpt lat="45.92754" lon="6.86046">
        <ele>1245</ele>
        <time>2026-08-04T05:33:06.278Z</time>
      </trkpt>
      <trkpt lat="45.92756" lon="6.86048">
        <ele>1245</ele>
        <time>2026-08-04T05:33:07.278Z</time>
      </trkpt>
      <trkpt lat="45.92757" lon="6.86051">
        <ele>1245</ele>
        <time>2026-08-04T05:33:08.278Z</time>
      </trkpt>
      <trkpt lat="45.92758" lon="6.86054">
        <ele>1245</ele>
        <time>2026-08-04T05:33:09.278Z</time>
      </trkpt>
      <trkpt lat="45.92759" lon="6.86056">
        <ele>1245</ele>
        <time>2026-08-04T05:33:10.278Z</time>
      </trkpt>
      <trkpt lat="45.92761" lon="6.86059">
        <ele>1245</ele>
        <time>2026-08-04T05:33:11.278Z</time>
      </trkpt>
      <trkpt lat="45.92761" lon="6.86062">
        <ele>1245</ele>
        <time>2026-08-04T05:33:12.278Z</time>
      </trkpt>
      <trkpt lat="45.92762" lon="6.86064">
        <ele>1246</ele>
        <time>2026-08-04T05:33:13.278Z</time>
      </trkpt>
      <trkpt lat="45.92763" lon="6.86065">
        <ele>1246</ele>
        <time>2026-08-04T05:33:14.278Z</time>
      </trkpt>
      <trkpt lat="45.92764" lon="6.86067">
        <ele>1246</ele>
        <time>2026-08-04T05:33:15.278Z</time>
      </trkpt>
      <trkpt lat="45.92765" lon="6.86069">
        <ele>1247</ele>
        <time>2026-08-04T05:33:16.278Z</time>
      </trkpt>
      <trkpt lat="45.92767" lon="6.86071">
        <ele>1247</ele>
        <time>2026-08-04T05:33:17.278Z</time>
      </trkpt>
      <trkpt lat="45.92769" lon="6.86073">
        <ele>1247</ele>
        <time>2026-08-04T05:33:18.278Z</time>
      </trkpt>
      <trkpt lat="45.92771" lon="6.86075">
        <ele>1247</ele>
        <time>2026-08-04T05:33:19.278Z</time>
      </trkpt>
      <trkpt lat="45.92772" lon="6.86077">
        <ele>1247</ele>
        <time>2026-08-04T05:33:20.278Z</time>
      </trkpt>
      <trkpt lat="45.92774" lon="6.86079">
        <ele>1247</ele>
        <time>2026-08-04T05:33:21.278Z</time>
      </trkpt>
      <trkpt lat="45.92776" lon="6.86081">
        <ele>1247</ele>
        <time>2026-08-04T05:33:22.278Z</time>
      </trkpt>
      <trkpt lat="45.92778" lon="6.86083">
        <ele>1247</ele>
        <time>2026-08-04T05:33:23.278Z</time>
      </trkpt>
      <trkpt lat="45.92779" lon="6.86085">
        <ele>1247</ele>
        <time>2026-08-04T05:33:24.278Z</time>
      </trkpt>
      <trkpt lat="45.92781" lon="6.86087">
        <ele>1247</ele>
        <time>2026-08-04T05:33:25.278Z</time>
      </trkpt>
      <trkpt lat="45.92782" lon="6.86089">
        <ele>1247</ele>
        <time>2026-08-04T05:33:26.278Z</time>
      </trkpt>
      <trkpt lat="45.92784" lon="6.86092">
        <ele>1247</ele>
        <time>2026-08-04T05:33:27.278Z</time>
      </trkpt>
      <trkpt lat="45.92785" lon="6.86095">
        <ele>1247</ele>
        <time>2026-08-04T05:33:28.278Z</time>
      </trkpt>
      <trkpt lat="45.92787" lon="6.86098">
        <ele>1247</ele>
        <time>2026-08-04T05:33:29.278Z</time>
      </trkpt>
      <trkpt lat="45.92789" lon="6.861">
        <ele>1247</ele>
        <time>2026-08-04T05:33:30.278Z</time>
      </trkpt>
      <trkpt lat="45.92791" lon="6.86102">
        <ele>1247</ele>
        <time>2026-08-04T05:33:31.278Z</time>
      </trkpt>
      <trkpt lat="45.92793" lon="6.86104">
        <ele>1247</ele>
        <time>2026-08-04T05:33:32.278Z</time>
      </trkpt>
      <trkpt lat="45.92794" lon="6.86106">
        <ele>1247</ele>
        <time>2026-08-04T05:33:33.278Z</time>
      </trkpt>
      <trkpt lat="45.92795" lon="6.86108">
        <ele>1247</ele>
        <time>2026-08-04T05:33:34.278Z</time>
      </trkpt>
      <trkpt lat="45.92796" lon="6.86111">
        <ele>1248</ele>
        <time>2026-08-04T05:33:35.278Z</time>
      </trkpt>
      <trkpt lat="45.92797" lon="6.86113">
        <ele>1248</ele>
        <time>2026-08-04T05:33:36.278Z</time>
      </trkpt>
      <trkpt lat="45.92798" lon="6.86115">
        <ele>1248</ele>
        <time>2026-08-04T05:33:37.278Z</time>
      </trkpt>
      <trkpt lat="45.92799" lon="6.86118">
        <ele>1248</ele>
        <time>2026-08-04T05:33:38.278Z</time>
      </trkpt>
      <trkpt lat="45.928" lon="6.8612">
        <ele>1248</ele>
        <time>2026-08-04T05:33:39.278Z</time>
      </trkpt>
      <trkpt lat="45.92802" lon="6.86122">
        <ele>1248</ele>
        <time>2026-08-04T05:33:40.278Z</time>
      </trkpt>
      <trkpt lat="45.92803" lon="6.86123">
        <ele>1248</ele>
        <time>2026-08-04T05:33:41.278Z</time>
      </trkpt>
      <trkpt lat="45.92804" lon="6.86125">
        <ele>1248</ele>
        <time>2026-08-04T05:33:42.278Z</time>
      </trkpt>
      <trkpt lat="45.92805" lon="6.86127">
        <ele>1248</ele>
        <time>2026-08-04T05:33:43.278Z</time>
      </trkpt>
      <trkpt lat="45.92806" lon="6.86129">
        <ele>1248</ele>
        <time>2026-08-04T05:33:44.278Z</time>
      </trkpt>
      <trkpt lat="45.92807" lon="6.86131">
        <ele>1248</ele>
        <time>2026-08-04T05:33:45.278Z</time>
      </trkpt>
      <trkpt lat="45.92809" lon="6.86134">
        <ele>1249</ele>
        <time>2026-08-04T05:33:46.278Z</time>
      </trkpt>
      <trkpt lat="45.9281" lon="6.86136">
        <ele>1249</ele>
        <time>2026-08-04T05:33:47.278Z</time>
      </trkpt>
      <trkpt lat="45.92812" lon="6.86138">
        <ele>1249</ele>
        <time>2026-08-04T05:33:48.278Z</time>
      </trkpt>
      <trkpt lat="45.92813" lon="6.8614">
        <ele>1249</ele>
        <time>2026-08-04T05:33:49.278Z</time>
      </trkpt>
      <trkpt lat="45.92815" lon="6.86143">
        <ele>1249</ele>
        <time>2026-08-04T05:33:50.278Z</time>
      </trkpt>
      <trkpt lat="45.92816" lon="6.86145">
        <ele>1248</ele>
        <time>2026-08-04T05:33:51.278Z</time>
      </trkpt>
      <trkpt lat="45.92817" lon="6.86147">
        <ele>1248</ele>
        <time>2026-08-04T05:33:52.278Z</time>
      </trkpt>
      <trkpt lat="45.92818" lon="6.86149">
        <ele>1248</ele>
        <time>2026-08-04T05:33:53.278Z</time>
      </trkpt>
      <trkpt lat="45.92819" lon="6.8615">
        <ele>1248</ele>
        <time>2026-08-04T05:33:54.278Z</time>
      </trkpt>
      <trkpt lat="45.9282" lon="6.86151">
        <ele>1248</ele>
        <time>2026-08-04T05:33:55.278Z</time>
      </trkpt>
      <trkpt lat="45.92821" lon="6.86151">
        <ele>1248</ele>
        <time>2026-08-04T05:33:56.278Z</time>
      </trkpt>
      <trkpt lat="45.92823" lon="6.86152">
        <ele>1248</ele>
        <time>2026-08-04T05:33:57.278Z</time>
      </trkpt>
      <trkpt lat="45.92825" lon="6.86153">
        <ele>1248</ele>
        <time>2026-08-04T05:33:58.278Z</time>
      </trkpt>
      <trkpt lat="45.92828" lon="6.86154">
        <ele>1247</ele>
        <time>2026-08-04T05:33:59.278Z</time>
      </trkpt>
      <trkpt lat="45.9283" lon="6.86156">
        <ele>1247</ele>
        <time>2026-08-04T05:34:00.278Z</time>
      </trkpt>
      <trkpt lat="45.92832" lon="6.86157">
        <ele>1247</ele>
        <time>2026-08-04T05:34:01.278Z</time>
      </trkpt>
      <trkpt lat="45.92834" lon="6.86159">
        <ele>1247</ele>
        <time>2026-08-04T05:34:02.278Z</time>
      </trkpt>
      <trkpt lat="45.92835" lon="6.8616">
        <ele>1247</ele>
        <time>2026-08-04T05:34:03.278Z</time>
      </trkpt>
      <trkpt lat="45.92837" lon="6.86161">
        <ele>1247</ele>
        <time>2026-08-04T05:34:04.278Z</time>
      </trkpt>
      <trkpt lat="45.92838" lon="6.86162">
        <ele>1248</ele>
        <time>2026-08-04T05:34:05.278Z</time>
      </trkpt>
      <trkpt lat="45.92839" lon="6.86163">
        <ele>1248</ele>
        <time>2026-08-04T05:34:06.278Z</time>
      </trkpt>
      <trkpt lat="45.9284" lon="6.86163">
        <ele>1248</ele>
        <time>2026-08-04T05:34:07.278Z</time>
      </trkpt>
      <trkpt lat="45.92841" lon="6.86164">
        <ele>1248</ele>
        <time>2026-08-04T05:34:08.278Z</time>
      </trkpt>
      <trkpt lat="45.92843" lon="6.86165">
        <ele>1248</ele>
        <time>2026-08-04T05:34:09.278Z</time>
      </trkpt>
      <trkpt lat="45.92844" lon="6.86166">
        <ele>1249</ele>
        <time>2026-08-04T05:34:10.278Z</time>
      </trkpt>
      <trkpt lat="45.92845" lon="6.86168">
        <ele>1249</ele>
        <time>2026-08-04T05:34:11.278Z</time>
      </trkpt>
      <trkpt lat="45.92846" lon="6.8617">
        <ele>1249</ele>
        <time>2026-08-04T05:34:12.278Z</time>
      </trkpt>
      <trkpt lat="45.92847" lon="6.86172">
        <ele>1250</ele>
        <time>2026-08-04T05:34:13.278Z</time>
      </trkpt>
      <trkpt lat="45.92849" lon="6.86175">
        <ele>1250</ele>
        <time>2026-08-04T05:34:14.278Z</time>
      </trkpt>
      <trkpt lat="45.9285" lon="6.86177">
        <ele>1251</ele>
        <time>2026-08-04T05:34:15.278Z</time>
      </trkpt>
      <trkpt lat="45.92852" lon="6.8618">
        <ele>1251</ele>
        <time>2026-08-04T05:34:16.278Z</time>
      </trkpt>
      <trkpt lat="45.92852" lon="6.86182">
        <ele>1252</ele>
        <time>2026-08-04T05:34:17.278Z</time>
      </trkpt>
      <trkpt lat="45.92854" lon="6.86185">
        <ele>1252</ele>
        <time>2026-08-04T05:34:18.278Z</time>
      </trkpt>
      <trkpt lat="45.92855" lon="6.86187">
        <ele>1252</ele>
        <time>2026-08-04T05:34:19.278Z</time>
      </trkpt>
      <trkpt lat="45.92856" lon="6.86189">
        <ele>1252</ele>
        <time>2026-08-04T05:34:20.278Z</time>
      </trkpt>
      <trkpt lat="45.92858" lon="6.86191">
        <ele>1253</ele>
        <time>2026-08-04T05:34:21.278Z</time>
      </trkpt>
      <trkpt lat="45.92861" lon="6.86193">
        <ele>1253</ele>
        <time>2026-08-04T05:34:22.278Z</time>
      </trkpt>
      <trkpt lat="45.92863" lon="6.86194">
        <ele>1253</ele>
        <time>2026-08-04T05:34:23.278Z</time>
      </trkpt>
      <trkpt lat="45.92865" lon="6.86196">
        <ele>1253</ele>
        <time>2026-08-04T05:34:24.278Z</time>
      </trkpt>
      <trkpt lat="45.92868" lon="6.86198">
        <ele>1253</ele>
        <time>2026-08-04T05:34:25.278Z</time>
      </trkpt>
      <trkpt lat="45.92869" lon="6.86201">
        <ele>1253</ele>
        <time>2026-08-04T05:34:26.278Z</time>
      </trkpt>
      <trkpt lat="45.92871" lon="6.86203">
        <ele>1253</ele>
        <time>2026-08-04T05:34:27.278Z</time>
      </trkpt>
      <trkpt lat="45.92872" lon="6.86206">
        <ele>1254</ele>
        <time>2026-08-04T05:34:28.278Z</time>
      </trkpt>
      <trkpt lat="45.92872" lon="6.86208">
        <ele>1254</ele>
        <time>2026-08-04T05:34:29.278Z</time>
      </trkpt>
      <trkpt lat="45.92873" lon="6.8621">
        <ele>1254</ele>
        <time>2026-08-04T05:34:30.278Z</time>
      </trkpt>
      <trkpt lat="45.92874" lon="6.86212">
        <ele>1254</ele>
        <time>2026-08-04T05:34:31.278Z</time>
      </trkpt>
      <trkpt lat="45.92876" lon="6.86214">
        <ele>1254</ele>
        <time>2026-08-04T05:34:32.278Z</time>
      </trkpt>
      <trkpt lat="45.92876" lon="6.86214">
        <ele>1255</ele>
        <time>2026-08-04T05:34:33.278Z</time>
      </trkpt>
      <trkpt lat="45.92877" lon="6.86214">
        <ele>1255</ele>
        <time>2026-08-04T05:34:34.278Z</time>
      </trkpt>
      <trkpt lat="45.92878" lon="6.86215">
        <ele>1255</ele>
        <time>2026-08-04T05:34:35.278Z</time>
      </trkpt>
      <trkpt lat="45.9288" lon="6.86216">
        <ele>1256</ele>
        <time>2026-08-04T05:34:36.278Z</time>
      </trkpt>
      <trkpt lat="45.92881" lon="6.86218">
        <ele>1256</ele>
        <time>2026-08-04T05:34:37.278Z</time>
      </trkpt>
      <trkpt lat="45.92882" lon="6.86219">
        <ele>1256</ele>
        <time>2026-08-04T05:34:38.278Z</time>
      </trkpt>
      <trkpt lat="45.92883" lon="6.86221">
        <ele>1256</ele>
        <time>2026-08-04T05:34:39.278Z</time>
      </trkpt>
      <trkpt lat="45.92883" lon="6.86223">
        <ele>1257</ele>
        <time>2026-08-04T05:34:40.278Z</time>
      </trkpt>
      <trkpt lat="45.92884" lon="6.86226">
        <ele>1257</ele>
        <time>2026-08-04T05:34:41.278Z</time>
      </trkpt>
      <trkpt lat="45.92885" lon="6.86229">
        <ele>1257</ele>
        <time>2026-08-04T05:34:42.278Z</time>
      </trkpt>
      <trkpt lat="45.92885" lon="6.86232">
        <ele>1257</ele>
        <time>2026-08-04T05:34:43.278Z</time>
      </trkpt>
      <trkpt lat="45.92887" lon="6.86234">
        <ele>1258</ele>
        <time>2026-08-04T05:34:44.278Z</time>
      </trkpt>
      <trkpt lat="45.92888" lon="6.86236">
        <ele>1258</ele>
        <time>2026-08-04T05:34:45.278Z</time>
      </trkpt>
      <trkpt lat="45.92887" lon="6.86238">
        <ele>1258</ele>
        <time>2026-08-04T05:34:46.278Z</time>
      </trkpt>
      <trkpt lat="45.92888" lon="6.86241">
        <ele>1259</ele>
        <time>2026-08-04T05:34:47.278Z</time>
      </trkpt>
      <trkpt lat="45.92888" lon="6.86243">
        <ele>1259</ele>
        <time>2026-08-04T05:34:48.278Z</time>
      </trkpt>
      <trkpt lat="45.92889" lon="6.86246">
        <ele>1260</ele>
        <time>2026-08-04T05:34:49.278Z</time>
      </trkpt>
      <trkpt lat="45.92889" lon="6.86248">
        <ele>1260</ele>
        <time>2026-08-04T05:34:50.278Z</time>
      </trkpt>
      <trkpt lat="45.9289" lon="6.86251">
        <ele>1260</ele>
        <time>2026-08-04T05:34:51.278Z</time>
      </trkpt>
      <trkpt lat="45.92891" lon="6.86253">
        <ele>1260</ele>
        <time>2026-08-04T05:34:52.278Z</time>
      </trkpt>
      <trkpt lat="45.92892" lon="6.86256">
        <ele>1260</ele>
        <time>2026-08-04T05:34:53.278Z</time>
      </trkpt>
      <trkpt lat="45.92893" lon="6.86258">
        <ele>1260</ele>
        <time>2026-08-04T05:34:54.278Z</time>
      </trkpt>
      <trkpt lat="45.92895" lon="6.8626">
        <ele>1260</ele>
        <time>2026-08-04T05:34:55.278Z</time>
      </trkpt>
      <trkpt lat="45.92896" lon="6.86262">
        <ele>1260</ele>
        <time>2026-08-04T05:34:56.278Z</time>
      </trkpt>
      <trkpt lat="45.92898" lon="6.86265">
        <ele>1260</ele>
        <time>2026-08-04T05:34:57.278Z</time>
      </trkpt>
      <trkpt lat="45.92899" lon="6.86267">
        <ele>1259</ele>
        <time>2026-08-04T05:34:58.278Z</time>
      </trkpt>
      <trkpt lat="45.92901" lon="6.86269">
        <ele>1259</ele>
        <time>2026-08-04T05:34:59.278Z</time>
      </trkpt>
      <trkpt lat="45.92901" lon="6.86272">
        <ele>1259</ele>
        <time>2026-08-04T05:35:00.278Z</time>
      </trkpt>
      <trkpt lat="45.92902" lon="6.86275">
        <ele>1258</ele>
        <time>2026-08-04T05:35:01.278Z</time>
      </trkpt>
      <trkpt lat="45.92903" lon="6.86278">
        <ele>1258</ele>
        <time>2026-08-04T05:35:02.278Z</time>
      </trkpt>
      <trkpt lat="45.92905" lon="6.86281">
        <ele>1258</ele>
        <time>2026-08-04T05:35:03.278Z</time>
      </trkpt>
      <trkpt lat="45.92907" lon="6.86284">
        <ele>1258</ele>
        <time>2026-08-04T05:35:04.278Z</time>
      </trkpt>
      <trkpt lat="45.92909" lon="6.86288">
        <ele>1258</ele>
        <time>2026-08-04T05:35:05.278Z</time>
      </trkpt>
      <trkpt lat="45.9291" lon="6.86292">
        <ele>1258</ele>
        <time>2026-08-04T05:35:06.278Z</time>
      </trkpt>
      <trkpt lat="45.9291" lon="6.86296">
        <ele>1258</ele>
        <time>2026-08-04T05:35:07.278Z</time>
      </trkpt>
      <trkpt lat="45.92912" lon="6.863">
        <ele>1258</ele>
        <time>2026-08-04T05:35:08.278Z</time>
      </trkpt>
      <trkpt lat="45.92913" lon="6.86304">
        <ele>1258</ele>
        <time>2026-08-04T05:35:09.278Z</time>
      </trkpt>
      <trkpt lat="45.92915" lon="6.86307">
        <ele>1258</ele>
        <time>2026-08-04T05:35:10.278Z</time>
      </trkpt>
      <trkpt lat="45.92916" lon="6.86311">
        <ele>1258</ele>
        <time>2026-08-04T05:35:11.278Z</time>
      </trkpt>
      <trkpt lat="45.92917" lon="6.86313">
        <ele>1258</ele>
        <time>2026-08-04T05:35:12.278Z</time>
      </trkpt>
      <trkpt lat="45.92919" lon="6.86316">
        <ele>1258</ele>
        <time>2026-08-04T05:35:13.278Z</time>
      </trkpt>
      <trkpt lat="45.9292" lon="6.86318">
        <ele>1257</ele>
        <time>2026-08-04T05:35:14.278Z</time>
      </trkpt>
      <trkpt lat="45.92921" lon="6.86319">
        <ele>1257</ele>
        <time>2026-08-04T05:35:15.278Z</time>
      </trkpt>
      <trkpt lat="45.92922" lon="6.86321">
        <ele>1257</ele>
        <time>2026-08-04T05:35:16.278Z</time>
      </trkpt>
      <trkpt lat="45.92923" lon="6.86322">
        <ele>1257</ele>
        <time>2026-08-04T05:35:17.278Z</time>
      </trkpt>
      <trkpt lat="45.92924" lon="6.86324">
        <ele>1256</ele>
        <time>2026-08-04T05:35:18.278Z</time>
      </trkpt>
      <trkpt lat="45.92926" lon="6.86326">
        <ele>1256</ele>
        <time>2026-08-04T05:35:19.278Z</time>
      </trkpt>
      <trkpt lat="45.92929" lon="6.86328">
        <ele>1256</ele>
        <time>2026-08-04T05:35:20.278Z</time>
      </trkpt>
      <trkpt lat="45.92931" lon="6.86331">
        <ele>1256</ele>
        <time>2026-08-04T05:35:21.278Z</time>
      </trkpt>
      <trkpt lat="45.92932" lon="6.86334">
        <ele>1256</ele>
        <time>2026-08-04T05:35:22.278Z</time>
      </trkpt>
      <trkpt lat="45.92933" lon="6.86337">
        <ele>1256</ele>
        <time>2026-08-04T05:35:23.278Z</time>
      </trkpt>
      <trkpt lat="45.92935" lon="6.86338">
        <ele>1256</ele>
        <time>2026-08-04T05:35:24.278Z</time>
      </trkpt>
      <trkpt lat="45.92936" lon="6.86339">
        <ele>1256</ele>
        <time>2026-08-04T05:35:25.278Z</time>
      </trkpt>
      <trkpt lat="45.92936" lon="6.8634">
        <ele>1256</ele>
        <time>2026-08-04T05:35:26.278Z</time>
      </trkpt>
      <trkpt lat="45.92938" lon="6.86341">
        <ele>1256</ele>
        <time>2026-08-04T05:35:27.278Z</time>
      </trkpt>
      <trkpt lat="45.9294" lon="6.86341">
        <ele>1256</ele>
        <time>2026-08-04T05:35:28.278Z</time>
      </trkpt>
      <trkpt lat="45.92941" lon="6.86342">
        <ele>1255</ele>
        <time>2026-08-04T05:35:29.278Z</time>
      </trkpt>
      <trkpt lat="45.92942" lon="6.86343">
        <ele>1255</ele>
        <time>2026-08-04T05:35:30.278Z</time>
      </trkpt>
      <trkpt lat="45.92943" lon="6.86345">
        <ele>1256</ele>
        <time>2026-08-04T05:35:31.278Z</time>
      </trkpt>
      <trkpt lat="45.92944" lon="6.86346">
        <ele>1256</ele>
        <time>2026-08-04T05:35:32.278Z</time>
      </trkpt>
      <trkpt lat="45.92945" lon="6.86348">
        <ele>1256</ele>
        <time>2026-08-04T05:35:33.278Z</time>
      </trkpt>
      <trkpt lat="45.92946" lon="6.8635">
        <ele>1256</ele>
        <time>2026-08-04T05:35:34.278Z</time>
      </trkpt>
      <trkpt lat="45.92947" lon="6.86352">
        <ele>1256</ele>
        <time>2026-08-04T05:35:35.278Z</time>
      </trkpt>
      <trkpt lat="45.9295" lon="6.86353">
        <ele>1256</ele>
        <time>2026-08-04T05:35:36.278Z</time>
      </trkpt>
      <trkpt lat="45.92952" lon="6.86354">
        <ele>1256</ele>
        <time>2026-08-04T05:35:37.278Z</time>
      </trkpt>
      <trkpt lat="45.92953" lon="6.86357">
        <ele>1256</ele>
        <time>2026-08-04T05:35:38.278Z</time>
      </trkpt>
      <trkpt lat="45.92954" lon="6.8636">
        <ele>1256</ele>
        <time>2026-08-04T05:35:39.278Z</time>
      </trkpt>
      <trkpt lat="45.92955" lon="6.86361">
        <ele>1256</ele>
        <time>2026-08-04T05:35:40.278Z</time>
      </trkpt>
      <trkpt lat="45.92956" lon="6.86363">
        <ele>1256</ele>
        <time>2026-08-04T05:35:41.278Z</time>
      </trkpt>
      <trkpt lat="45.92957" lon="6.86364">
        <ele>1255</ele>
        <time>2026-08-04T05:35:42.278Z</time>
      </trkpt>
      <trkpt lat="45.92959" lon="6.86365">
        <ele>1255</ele>
        <time>2026-08-04T05:35:43.278Z</time>
      </trkpt>
      <trkpt lat="45.92961" lon="6.86365">
        <ele>1255</ele>
        <time>2026-08-04T05:35:44.278Z</time>
      </trkpt>
      <trkpt lat="45.92963" lon="6.86365">
        <ele>1255</ele>
        <time>2026-08-04T05:35:45.278Z</time>
      </trkpt>
      <trkpt lat="45.92965" lon="6.86367">
        <ele>1256</ele>
        <time>2026-08-04T05:35:46.278Z</time>
      </trkpt>
      <trkpt lat="45.92966" lon="6.86368">
        <ele>1256</ele>
        <time>2026-08-04T05:35:47.278Z</time>
      </trkpt>
      <trkpt lat="45.92968" lon="6.86368">
        <ele>1256</ele>
        <time>2026-08-04T05:35:48.278Z</time>
      </trkpt>
      <trkpt lat="45.9297" lon="6.8637">
        <ele>1256</ele>
        <time>2026-08-04T05:35:49.278Z</time>
      </trkpt>
      <trkpt lat="45.92971" lon="6.86372">
        <ele>1257</ele>
        <time>2026-08-04T05:35:50.278Z</time>
      </trkpt>
      <trkpt lat="45.92973" lon="6.86374">
        <ele>1257</ele>
        <time>2026-08-04T05:35:51.278Z</time>
      </trkpt>
      <trkpt lat="45.92975" lon="6.86377">
        <ele>1257</ele>
        <time>2026-08-04T05:35:52.278Z</time>
      </trkpt>
      <trkpt lat="45.92977" lon="6.86379">
        <ele>1257</ele>
        <time>2026-08-04T05:35:53.278Z</time>
      </trkpt>
      <trkpt lat="45.92979" lon="6.86382">
        <ele>1258</ele>
        <time>2026-08-04T05:35:54.278Z</time>
      </trkpt>
      <trkpt lat="45.9298" lon="6.86384">
        <ele>1258</ele>
        <time>2026-08-04T05:35:55.278Z</time>
      </trkpt>
      <trkpt lat="45.92981" lon="6.86387">
        <ele>1258</ele>
        <time>2026-08-04T05:35:56.278Z</time>
      </trkpt>
      <trkpt lat="45.92981" lon="6.86389">
        <ele>1258</ele>
        <time>2026-08-04T05:35:57.278Z</time>
      </trkpt>
      <trkpt lat="45.92983" lon="6.86392">
        <ele>1258</ele>
        <time>2026-08-04T05:35:58.278Z</time>
      </trkpt>
      <trkpt lat="45.92985" lon="6.86395">
        <ele>1259</ele>
        <time>2026-08-04T05:35:59.278Z</time>
      </trkpt>
      <trkpt lat="45.92987" lon="6.86398">
        <ele>1259</ele>
        <time>2026-08-04T05:36:00.278Z</time>
      </trkpt>
      <trkpt lat="45.92988" lon="6.864">
        <ele>1259</ele>
        <time>2026-08-04T05:36:01.278Z</time>
      </trkpt>
      <trkpt lat="45.92989" lon="6.86403">
        <ele>1260</ele>
        <time>2026-08-04T05:36:02.278Z</time>
      </trkpt>
      <trkpt lat="45.9299" lon="6.86405">
        <ele>1260</ele>
        <time>2026-08-04T05:36:03.278Z</time>
      </trkpt>
      <trkpt lat="45.9299" lon="6.86408">
        <ele>1260</ele>
        <time>2026-08-04T05:36:04.278Z</time>
      </trkpt>
      <trkpt lat="45.92991" lon="6.86411">
        <ele>1261</ele>
        <time>2026-08-04T05:36:05.278Z</time>
      </trkpt>
      <trkpt lat="45.92992" lon="6.86415">
        <ele>1261</ele>
        <time>2026-08-04T05:36:06.278Z</time>
      </trkpt>
      <trkpt lat="45.92994" lon="6.86418">
        <ele>1261</ele>
        <time>2026-08-04T05:36:07.278Z</time>
      </trkpt>
      <trkpt lat="45.92995" lon="6.86422">
        <ele>1261</ele>
        <time>2026-08-04T05:36:08.278Z</time>
      </trkpt>
      <trkpt lat="45.92995" lon="6.86426">
        <ele>1261</ele>
        <time>2026-08-04T05:36:09.278Z</time>
      </trkpt>
      <trkpt lat="45.92996" lon="6.86431">
        <ele>1261</ele>
        <time>2026-08-04T05:36:10.278Z</time>
      </trkpt>
      <trkpt lat="45.92997" lon="6.86436">
        <ele>1261</ele>
        <time>2026-08-04T05:36:11.278Z</time>
      </trkpt>
      <trkpt lat="45.92999" lon="6.8644">
        <ele>1261</ele>
        <time>2026-08-04T05:36:12.278Z</time>
      </trkpt>
      <trkpt lat="45.93" lon="6.86443">
        <ele>1261</ele>
        <time>2026-08-04T05:36:13.278Z</time>
      </trkpt>
      <trkpt lat="45.93001" lon="6.86447">
        <ele>1261</ele>
        <time>2026-08-04T05:36:14.278Z</time>
      </trkpt>
      <trkpt lat="45.93003" lon="6.86449">
        <ele>1261</ele>
        <time>2026-08-04T05:36:15.278Z</time>
      </trkpt>
      <trkpt lat="45.93005" lon="6.86452">
        <ele>1260</ele>
        <time>2026-08-04T05:36:16.278Z</time>
      </trkpt>
      <trkpt lat="45.93006" lon="6.86454">
        <ele>1260</ele>
        <time>2026-08-04T05:36:17.278Z</time>
      </trkpt>
      <trkpt lat="45.93007" lon="6.86456">
        <ele>1260</ele>
        <time>2026-08-04T05:36:18.278Z</time>
      </trkpt>
      <trkpt lat="45.93008" lon="6.86458">
        <ele>1260</ele>
        <time>2026-08-04T05:36:19.278Z</time>
      </trkpt>
      <trkpt lat="45.9301" lon="6.8646">
        <ele>1259</ele>
        <time>2026-08-04T05:36:20.278Z</time>
      </trkpt>
      <trkpt lat="45.93011" lon="6.86462">
        <ele>1259</ele>
        <time>2026-08-04T05:36:21.278Z</time>
      </trkpt>
      <trkpt lat="45.93012" lon="6.86463">
        <ele>1259</ele>
        <time>2026-08-04T05:36:22.278Z</time>
      </trkpt>
      <trkpt lat="45.93014" lon="6.86463">
        <ele>1258</ele>
        <time>2026-08-04T05:36:23.278Z</time>
      </trkpt>
      <trkpt lat="45.93016" lon="6.86463">
        <ele>1258</ele>
        <time>2026-08-04T05:36:24.278Z</time>
      </trkpt>
      <trkpt lat="45.93017" lon="6.86463">
        <ele>1258</ele>
        <time>2026-08-04T05:36:25.278Z</time>
      </trkpt>
      <trkpt lat="45.93019" lon="6.86462">
        <ele>1258</ele>
        <time>2026-08-04T05:36:26.278Z</time>
      </trkpt>
      <trkpt lat="45.93021" lon="6.86462">
        <ele>1257</ele>
        <time>2026-08-04T05:36:27.278Z</time>
      </trkpt>
      <trkpt lat="45.93022" lon="6.86461">
        <ele>1257</ele>
        <time>2026-08-04T05:36:28.278Z</time>
      </trkpt>
      <trkpt lat="45.93023" lon="6.86461">
        <ele>1257</ele>
        <time>2026-08-04T05:36:29.278Z</time>
      </trkpt>
      <trkpt lat="45.93024" lon="6.8646">
        <ele>1257</ele>
        <time>2026-08-04T05:36:30.278Z</time>
      </trkpt>
      <trkpt lat="45.93026" lon="6.86459">
        <ele>1257</ele>
        <time>2026-08-04T05:36:31.278Z</time>
      </trkpt>
      <trkpt lat="45.93027" lon="6.86459">
        <ele>1257</ele>
        <time>2026-08-04T05:36:32.278Z</time>
      </trkpt>
      <trkpt lat="45.93029" lon="6.86459">
        <ele>1257</ele>
        <time>2026-08-04T05:36:33.278Z</time>
      </trkpt>
      <trkpt lat="45.9303" lon="6.8646">
        <ele>1257</ele>
        <time>2026-08-04T05:36:34.278Z</time>
      </trkpt>
      <trkpt lat="45.93032" lon="6.8646">
        <ele>1257</ele>
        <time>2026-08-04T05:36:35.278Z</time>
      </trkpt>
      <trkpt lat="45.93033" lon="6.8646">
        <ele>1257</ele>
        <time>2026-08-04T05:36:36.278Z</time>
      </trkpt>
      <trkpt lat="45.93035" lon="6.86459">
        <ele>1257</ele>
        <time>2026-08-04T05:36:37.278Z</time>
      </trkpt>
      <trkpt lat="45.93036" lon="6.86458">
        <ele>1257</ele>
        <time>2026-08-04T05:36:38.278Z</time>
      </trkpt>
      <trkpt lat="45.93036" lon="6.86459">
        <ele>1257</ele>
        <time>2026-08-04T05:36:39.278Z</time>
      </trkpt>
      <trkpt lat="45.93036" lon="6.86459">
        <ele>1257</ele>
        <time>2026-08-04T05:36:40.278Z</time>
      </trkpt>
      <trkpt lat="45.93037" lon="6.86459">
        <ele>1257</ele>
        <time>2026-08-04T05:36:41.278Z</time>
      </trkpt>
      <trkpt lat="45.93037" lon="6.86459">
        <ele>1257</ele>
        <time>2026-08-04T05:36:42.278Z</time>
      </trkpt>
      <trkpt lat="45.93038" lon="6.86458">
        <ele>1257</ele>
        <time>2026-08-04T05:36:43.278Z</time>
      </trkpt>
      <trkpt lat="45.93039" lon="6.86458">
        <ele>1257</ele>
        <time>2026-08-04T05:36:44.278Z</time>
      </trkpt>
      <trkpt lat="45.9304" lon="6.86459">
        <ele>1257</ele>
        <time>2026-08-04T05:36:45.278Z</time>
      </trkpt>
      <trkpt lat="45.93041" lon="6.86458">
        <ele>1258</ele>
        <time>2026-08-04T05:36:46.278Z</time>
      </trkpt>
      <trkpt lat="45.93042" lon="6.86458">
        <ele>1258</ele>
        <time>2026-08-04T05:36:47.278Z</time>
      </trkpt>
      <trkpt lat="45.93043" lon="6.86457">
        <ele>1258</ele>
        <time>2026-08-04T05:36:48.278Z</time>
      </trkpt>
      <trkpt lat="45.93044" lon="6.86457">
        <ele>1258</ele>
        <time>2026-08-04T05:36:49.278Z</time>
      </trkpt>
      <trkpt lat="45.93045" lon="6.86456">
        <ele>1258</ele>
        <time>2026-08-04T05:36:50.278Z</time>
      </trkpt>
      <trkpt lat="45.93046" lon="6.86456">
        <ele>1259</ele>
        <time>2026-08-04T05:36:51.278Z</time>
      </trkpt>
      <trkpt lat="45.93047" lon="6.86456">
        <ele>1259</ele>
        <time>2026-08-04T05:36:52.278Z</time>
      </trkpt>
      <trkpt lat="45.93048" lon="6.86455">
        <ele>1259</ele>
        <time>2026-08-04T05:36:53.278Z</time>
      </trkpt>
      <trkpt lat="45.93049" lon="6.86455">
        <ele>1260</ele>
        <time>2026-08-04T05:36:54.278Z</time>
      </trkpt>
      <trkpt lat="45.9305" lon="6.86455">
        <ele>1260</ele>
        <time>2026-08-04T05:36:55.278Z</time>
      </trkpt>
      <trkpt lat="45.93051" lon="6.86456">
        <ele>1260</ele>
        <time>2026-08-04T05:36:56.278Z</time>
      </trkpt>
      <trkpt lat="45.93053" lon="6.86457">
        <ele>1260</ele>
        <time>2026-08-04T05:36:57.278Z</time>
      </trkpt>
      <trkpt lat="45.93054" lon="6.86458">
        <ele>1261</ele>
        <time>2026-08-04T05:36:58.278Z</time>
      </trkpt>
      <trkpt lat="45.93055" lon="6.86458">
        <ele>1261</ele>
        <time>2026-08-04T05:36:59.278Z</time>
      </trkpt>
      <trkpt lat="45.93056" lon="6.86458">
        <ele>1261</ele>
        <time>2026-08-04T05:37:00.278Z</time>
      </trkpt>
      <trkpt lat="45.93058" lon="6.86459">
        <ele>1262</ele>
        <time>2026-08-04T05:37:01.278Z</time>
      </trkpt>
      <trkpt lat="45.93059" lon="6.86459">
        <ele>1262</ele>
        <time>2026-08-04T05:37:02.278Z</time>
      </trkpt>
      <trkpt lat="45.9306" lon="6.8646">
        <ele>1263</ele>
        <time>2026-08-04T05:37:03.278Z</time>
      </trkpt>
      <trkpt lat="45.93061" lon="6.86459">
        <ele>1263</ele>
        <time>2026-08-04T05:37:04.278Z</time>
      </trkpt>
      <trkpt lat="45.93061" lon="6.86459">
        <ele>1263</ele>
        <time>2026-08-04T05:37:05.278Z</time>
      </trkpt>
      <trkpt lat="45.93062" lon="6.86459">
        <ele>1264</ele>
        <time>2026-08-04T05:37:06.278Z</time>
      </trkpt>
      <trkpt lat="45.93063" lon="6.86459">
        <ele>1264</ele>
        <time>2026-08-04T05:37:07.278Z</time>
      </trkpt>
      <trkpt lat="45.93063" lon="6.86459">
        <ele>1264</ele>
        <time>2026-08-04T05:37:08.278Z</time>
      </trkpt>
      <trkpt lat="45.93064" lon="6.8646">
        <ele>1265</ele>
        <time>2026-08-04T05:37:09.278Z</time>
      </trkpt>
      <trkpt lat="45.93065" lon="6.8646">
        <ele>1266</ele>
        <time>2026-08-04T05:37:10.278Z</time>
      </trkpt>
      <trkpt lat="45.93065" lon="6.86461">
        <ele>1266</ele>
        <time>2026-08-04T05:37:11.278Z</time>
      </trkpt>
      <trkpt lat="45.93066" lon="6.86461">
        <ele>1267</ele>
        <time>2026-08-04T05:37:12.278Z</time>
      </trkpt>
      <trkpt lat="45.93068" lon="6.86462">
        <ele>1267</ele>
        <time>2026-08-04T05:37:13.278Z</time>
      </trkpt>
      <trkpt lat="45.93069" lon="6.86463">
        <ele>1267</ele>
        <time>2026-08-04T05:37:14.278Z</time>
      </trkpt>
      <trkpt lat="45.9307" lon="6.86464">
        <ele>1268</ele>
        <time>2026-08-04T05:37:15.278Z</time>
      </trkpt>
      <trkpt lat="45.93072" lon="6.86465">
        <ele>1268</ele>
        <time>2026-08-04T05:37:16.278Z</time>
      </trkpt>
      <trkpt lat="45.93072" lon="6.86466">
        <ele>1268</ele>
        <time>2026-08-04T05:37:17.278Z</time>
      </trkpt>
      <trkpt lat="45.93073" lon="6.86466">
        <ele>1269</ele>
        <time>2026-08-04T05:37:18.278Z</time>
      </trkpt>
      <trkpt lat="45.93074" lon="6.86467">
        <ele>1269</ele>
        <time>2026-08-04T05:37:19.278Z</time>
      </trkpt>
      <trkpt lat="45.93075" lon="6.86468">
        <ele>1269</ele>
        <time>2026-08-04T05:37:20.278Z</time>
      </trkpt>
      <trkpt lat="45.93077" lon="6.86468">
        <ele>1270</ele>
        <time>2026-08-04T05:37:21.278Z</time>
      </trkpt>
      <trkpt lat="45.93077" lon="6.86468">
        <ele>1270</ele>
        <time>2026-08-04T05:37:22.278Z</time>
      </trkpt>
      <trkpt lat="45.93077" lon="6.86469">
        <ele>1270</ele>
        <time>2026-08-04T05:37:23.278Z</time>
      </trkpt>
      <trkpt lat="45.93077" lon="6.8647">
        <ele>1270</ele>
        <time>2026-08-04T05:37:24.278Z</time>
      </trkpt>
      <trkpt lat="45.93078" lon="6.86471">
        <ele>1270</ele>
        <time>2026-08-04T05:37:25.278Z</time>
      </trkpt>
      <trkpt lat="45.93079" lon="6.86472">
        <ele>1270</ele>
        <time>2026-08-04T05:37:26.278Z</time>
      </trkpt>
      <trkpt lat="45.9308" lon="6.86472">
        <ele>1271</ele>
        <time>2026-08-04T05:37:27.278Z</time>
      </trkpt>
      <trkpt lat="45.93081" lon="6.86473">
        <ele>1271</ele>
        <time>2026-08-04T05:37:28.278Z</time>
      </trkpt>
      <trkpt lat="45.93082" lon="6.86474">
        <ele>1271</ele>
        <time>2026-08-04T05:37:29.278Z</time>
      </trkpt>
      <trkpt lat="45.93082" lon="6.86476">
        <ele>1271</ele>
        <time>2026-08-04T05:37:30.278Z</time>
      </trkpt>
      <trkpt lat="45.93083" lon="6.86477">
        <ele>1271</ele>
        <time>2026-08-04T05:37:31.278Z</time>
      </trkpt>
      <trkpt lat="45.93083" lon="6.86479">
        <ele>1271</ele>
        <time>2026-08-04T05:37:32.278Z</time>
      </trkpt>
      <trkpt lat="45.93083" lon="6.86481">
        <ele>1272</ele>
        <time>2026-08-04T05:37:33.278Z</time>
      </trkpt>
      <trkpt lat="45.93084" lon="6.86482">
        <ele>1272</ele>
        <time>2026-08-04T05:37:34.278Z</time>
      </trkpt>
      <trkpt lat="45.93085" lon="6.86484">
        <ele>1272</ele>
        <time>2026-08-04T05:37:35.278Z</time>
      </trkpt>
      <trkpt lat="45.93085" lon="6.86486">
        <ele>1273</ele>
        <time>2026-08-04T05:37:36.278Z</time>
      </trkpt>
      <trkpt lat="45.93085" lon="6.86488">
        <ele>1273</ele>
        <time>2026-08-04T05:37:37.278Z</time>
      </trkpt>
      <trkpt lat="45.93086" lon="6.8649">
        <ele>1273</ele>
        <time>2026-08-04T05:37:38.278Z</time>
      </trkpt>
      <trkpt lat="45.93086" lon="6.86492">
        <ele>1273</ele>
        <time>2026-08-04T05:37:39.278Z</time>
      </trkpt>
      <trkpt lat="45.93087" lon="6.86493">
        <ele>1272</ele>
        <time>2026-08-04T05:37:40.278Z</time>
      </trkpt>
      <trkpt lat="45.93088" lon="6.86494">
        <ele>1272</ele>
        <time>2026-08-04T05:37:41.278Z</time>
      </trkpt>
      <trkpt lat="45.93089" lon="6.86495">
        <ele>1272</ele>
        <time>2026-08-04T05:37:42.278Z</time>
      </trkpt>
      <trkpt lat="45.93089" lon="6.86495">
        <ele>1273</ele>
        <time>2026-08-04T05:37:43.278Z</time>
      </trkpt>
      <trkpt lat="45.9309" lon="6.86496">
        <ele>1273</ele>
        <time>2026-08-04T05:37:44.278Z</time>
      </trkpt>
      <trkpt lat="45.93092" lon="6.86496">
        <ele>1273</ele>
        <time>2026-08-04T05:37:45.278Z</time>
      </trkpt>
      <trkpt lat="45.93093" lon="6.86495">
        <ele>1273</ele>
        <time>2026-08-04T05:37:46.278Z</time>
      </trkpt>
      <trkpt lat="45.93093" lon="6.86495">
        <ele>1273</ele>
        <time>2026-08-04T05:37:47.278Z</time>
      </trkpt>
      <trkpt lat="45.93093" lon="6.86496">
        <ele>1272</ele>
        <time>2026-08-04T05:37:48.278Z</time>
      </trkpt>
      <trkpt lat="45.93093" lon="6.86496">
        <ele>1272</ele>
        <time>2026-08-04T05:37:49.278Z</time>
      </trkpt>
      <trkpt lat="45.93093" lon="6.86495">
        <ele>1272</ele>
        <time>2026-08-04T05:37:50.278Z</time>
      </trkpt>
      <trkpt lat="45.93093" lon="6.86495">
        <ele>1272</ele>
        <time>2026-08-04T05:37:51.278Z</time>
      </trkpt>
      <trkpt lat="45.93093" lon="6.86494">
        <ele>1272</ele>
        <time>2026-08-04T05:37:52.278Z</time>
      </trkpt>
      <trkpt lat="45.93094" lon="6.86494">
        <ele>1272</ele>
        <time>2026-08-04T05:37:53.278Z</time>
      </trkpt>
      <trkpt lat="45.93095" lon="6.86493">
        <ele>1272</ele>
        <time>2026-08-04T05:37:54.278Z</time>
      </trkpt>
      <trkpt lat="45.93096" lon="6.86493">
        <ele>1272</ele>
        <time>2026-08-04T05:37:55.278Z</time>
      </trkpt>
      <trkpt lat="45.93097" lon="6.86493">
        <ele>1272</ele>
        <time>2026-08-04T05:37:56.278Z</time>
      </trkpt>
      <trkpt lat="45.93098" lon="6.86493">
        <ele>1272</ele>
        <time>2026-08-04T05:37:57.278Z</time>
      </trkpt>
      <trkpt lat="45.93099" lon="6.86493">
        <ele>1272</ele>
        <time>2026-08-04T05:37:58.278Z</time>
      </trkpt>
      <trkpt lat="45.931" lon="6.86494">
        <ele>1272</ele>
        <time>2026-08-04T05:37:59.278Z</time>
      </trkpt>
      <trkpt lat="45.93101" lon="6.86494">
        <ele>1273</ele>
        <time>2026-08-04T05:38:00.278Z</time>
      </trkpt>
      <trkpt lat="45.93102" lon="6.86494">
        <ele>1273</ele>
        <time>2026-08-04T05:38:01.278Z</time>
      </trkpt>
      <trkpt lat="45.93103" lon="6.86494">
        <ele>1273</ele>
        <time>2026-08-04T05:38:02.278Z</time>
      </trkpt>
      <trkpt lat="45.93104" lon="6.86494">
        <ele>1273</ele>
        <time>2026-08-04T05:38:03.278Z</time>
      </trkpt>
      <trkpt lat="45.93105" lon="6.86494">
        <ele>1273</ele>
        <time>2026-08-04T05:38:04.278Z</time>
      </trkpt>
      <trkpt lat="45.93105" lon="6.86493">
        <ele>1273</ele>
        <time>2026-08-04T05:38:05.278Z</time>
      </trkpt>
      <trkpt lat="45.93105" lon="6.86493">
        <ele>1274</ele>
        <time>2026-08-04T05:38:06.278Z</time>
      </trkpt>
      <trkpt lat="45.93105" lon="6.86493">
        <ele>1274</ele>
        <time>2026-08-04T05:38:07.278Z</time>
      </trkpt>
      <trkpt lat="45.93106" lon="6.86493">
        <ele>1274</ele>
        <time>2026-08-04T05:38:08.278Z</time>
      </trkpt>
      <trkpt lat="45.93107" lon="6.86492">
        <ele>1274</ele>
        <time>2026-08-04T05:38:09.278Z</time>
      </trkpt>
      <trkpt lat="45.93109" lon="6.86492">
        <ele>1274</ele>
        <time>2026-08-04T05:38:10.278Z</time>
      </trkpt>
      <trkpt lat="45.9311" lon="6.86492">
        <ele>1274</ele>
        <time>2026-08-04T05:38:11.278Z</time>
      </trkpt>
      <trkpt lat="45.93111" lon="6.86492">
        <ele>1274</ele>
        <time>2026-08-04T05:38:12.278Z</time>
      </trkpt>
      <trkpt lat="45.93112" lon="6.86493">
        <ele>1274</ele>
        <time>2026-08-04T05:38:13.278Z</time>
      </trkpt>
      <trkpt lat="45.93113" lon="6.86492">
        <ele>1275</ele>
        <time>2026-08-04T05:38:14.278Z</time>
      </trkpt>
      <trkpt lat="45.93114" lon="6.86491">
        <ele>1275</ele>
        <time>2026-08-04T05:38:15.278Z</time>
      </trkpt>
      <trkpt lat="45.93116" lon="6.86491">
        <ele>1275</ele>
        <time>2026-08-04T05:38:16.278Z</time>
      </trkpt>
      <trkpt lat="45.93117" lon="6.86491">
        <ele>1275</ele>
        <time>2026-08-04T05:38:17.278Z</time>
      </trkpt>
      <trkpt lat="45.93118" lon="6.8649">
        <ele>1275</ele>
        <time>2026-08-04T05:38:18.278Z</time>
      </trkpt>
      <trkpt lat="45.93119" lon="6.8649">
        <ele>1275</ele>
        <time>2026-08-04T05:38:19.278Z</time>
      </trkpt>
      <trkpt lat="45.93119" lon="6.86489">
        <ele>1276</ele>
        <time>2026-08-04T05:38:20.278Z</time>
      </trkpt>
      <trkpt lat="45.9312" lon="6.86488">
        <ele>1276</ele>
        <time>2026-08-04T05:38:21.278Z</time>
      </trkpt>
      <trkpt lat="45.93121" lon="6.86487">
        <ele>1276</ele>
        <time>2026-08-04T05:38:22.278Z</time>
      </trkpt>
      <trkpt lat="45.93122" lon="6.86487">
        <ele>1276</ele>
        <time>2026-08-04T05:38:23.278Z</time>
      </trkpt>
      <trkpt lat="45.93124" lon="6.86486">
        <ele>1276</ele>
        <time>2026-08-04T05:38:24.278Z</time>
      </trkpt>
      <trkpt lat="45.93124" lon="6.86486">
        <ele>1276</ele>
        <time>2026-08-04T05:38:25.279Z</time>
      </trkpt>
      <trkpt lat="45.93125" lon="6.86485">
        <ele>1276</ele>
        <time>2026-08-04T05:38:26.278Z</time>
      </trkpt>
      <trkpt lat="45.93126" lon="6.86485">
        <ele>1277</ele>
        <time>2026-08-04T05:38:27.278Z</time>
      </trkpt>
      <trkpt lat="45.93127" lon="6.86485">
        <ele>1277</ele>
        <time>2026-08-04T05:38:28.278Z</time>
      </trkpt>
      <trkpt lat="45.93128" lon="6.86485">
        <ele>1277</ele>
        <time>2026-08-04T05:38:29.278Z</time>
      </trkpt>
      <trkpt lat="45.93129" lon="6.86485">
        <ele>1277</ele>
        <time>2026-08-04T05:38:30.278Z</time>
      </trkpt>
      <trkpt lat="45.9313" lon="6.86484">
        <ele>1277</ele>
        <time>2026-08-04T05:38:31.278Z</time>
      </trkpt>
      <trkpt lat="45.93131" lon="6.86483">
        <ele>1278</ele>
        <time>2026-08-04T05:38:32.278Z</time>
      </trkpt>
      <trkpt lat="45.93132" lon="6.86483">
        <ele>1278</ele>
        <time>2026-08-04T05:38:33.278Z</time>
      </trkpt>
      <trkpt lat="45.93132" lon="6.86484">
        <ele>1278</ele>
        <time>2026-08-04T05:38:34.278Z</time>
      </trkpt>
      <trkpt lat="45.93133" lon="6.86484">
        <ele>1279</ele>
        <time>2026-08-04T05:38:35.278Z</time>
      </trkpt>
      <trkpt lat="45.93133" lon="6.86484">
        <ele>1279</ele>
        <time>2026-08-04T05:38:36.278Z</time>
      </trkpt>
      <trkpt lat="45.93134" lon="6.86485">
        <ele>1280</ele>
        <time>2026-08-04T05:38:37.278Z</time>
      </trkpt>
      <trkpt lat="45.93136" lon="6.86486">
        <ele>1280</ele>
        <time>2026-08-04T05:38:38.278Z</time>
      </trkpt>
      <trkpt lat="45.93137" lon="6.86487">
        <ele>1281</ele>
        <time>2026-08-04T05:38:39.278Z</time>
      </trkpt>
      <trkpt lat="45.93139" lon="6.86488">
        <ele>1281</ele>
        <time>2026-08-04T05:38:40.278Z</time>
      </trkpt>
      <trkpt lat="45.93139" lon="6.86489">
        <ele>1281</ele>
        <time>2026-08-04T05:38:41.278Z</time>
      </trkpt>
      <trkpt lat="45.9314" lon="6.86491">
        <ele>1282</ele>
        <time>2026-08-04T05:38:42.278Z</time>
      </trkpt>
      <trkpt lat="45.9314" lon="6.86492">
        <ele>1282</ele>
        <time>2026-08-04T05:38:43.278Z</time>
      </trkpt>
      <trkpt lat="45.93141" lon="6.86494">
        <ele>1282</ele>
        <time>2026-08-04T05:38:44.278Z</time>
      </trkpt>
      <trkpt lat="45.93142" lon="6.86496">
        <ele>1282</ele>
        <time>2026-08-04T05:38:45.278Z</time>
      </trkpt>
      <trkpt lat="45.93142" lon="6.86497">
        <ele>1283</ele>
        <time>2026-08-04T05:38:46.278Z</time>
      </trkpt>
      <trkpt lat="45.93143" lon="6.86497">
        <ele>1283</ele>
        <time>2026-08-04T05:38:47.278Z</time>
      </trkpt>
      <trkpt lat="45.93144" lon="6.86498">
        <ele>1283</ele>
        <time>2026-08-04T05:38:48.278Z</time>
      </trkpt>
      <trkpt lat="45.93145" lon="6.86498">
        <ele>1283</ele>
        <time>2026-08-04T05:38:49.278Z</time>
      </trkpt>
      <trkpt lat="45.93146" lon="6.86499">
        <ele>1284</ele>
        <time>2026-08-04T05:38:50.278Z</time>
      </trkpt>
      <trkpt lat="45.93147" lon="6.865">
        <ele>1284</ele>
        <time>2026-08-04T05:38:51.278Z</time>
      </trkpt>
      <trkpt lat="45.93148" lon="6.865">
        <ele>1284</ele>
        <time>2026-08-04T05:38:52.278Z</time>
      </trkpt>
      <trkpt lat="45.93149" lon="6.865">
        <ele>1284</ele>
        <time>2026-08-04T05:38:53.278Z</time>
      </trkpt>
      <trkpt lat="45.9315" lon="6.865">
        <ele>1284</ele>
        <time>2026-08-04T05:38:54.278Z</time>
      </trkpt>
      <trkpt lat="45.93151" lon="6.86501">
        <ele>1284</ele>
        <time>2026-08-04T05:38:55.278Z</time>
      </trkpt>
      <trkpt lat="45.93151" lon="6.86502">
        <ele>1284</ele>
        <time>2026-08-04T05:38:56.278Z</time>
      </trkpt>
      <trkpt lat="45.93152" lon="6.86502">
        <ele>1284</ele>
        <time>2026-08-04T05:38:57.278Z</time>
      </trkpt>
      <trkpt lat="45.93153" lon="6.86502">
        <ele>1284</ele>
        <time>2026-08-04T05:38:58.278Z</time>
      </trkpt>
      <trkpt lat="45.93154" lon="6.86502">
        <ele>1285</ele>
        <time>2026-08-04T05:38:59.278Z</time>
      </trkpt>
      <trkpt lat="45.93155" lon="6.86503">
        <ele>1285</ele>
        <time>2026-08-04T05:39:00.278Z</time>
      </trkpt>
      <trkpt lat="45.93156" lon="6.86503">
        <ele>1285</ele>
        <time>2026-08-04T05:39:01.278Z</time>
      </trkpt>
      <trkpt lat="45.93156" lon="6.86504">
        <ele>1285</ele>
        <time>2026-08-04T05:39:02.278Z</time>
      </trkpt>
      <trkpt lat="45.93158" lon="6.86505">
        <ele>1285</ele>
        <time>2026-08-04T05:39:03.278Z</time>
      </trkpt>
      <trkpt lat="45.93159" lon="6.86507">
        <ele>1285</ele>
        <time>2026-08-04T05:39:04.278Z</time>
      </trkpt>
      <trkpt lat="45.9316" lon="6.86509">
        <ele>1286</ele>
        <time>2026-08-04T05:39:05.278Z</time>
      </trkpt>
      <trkpt lat="45.93161" lon="6.86511">
        <ele>1286</ele>
        <time>2026-08-04T05:39:06.278Z</time>
      </trkpt>
      <trkpt lat="45.93163" lon="6.86512">
        <ele>1286</ele>
        <time>2026-08-04T05:39:07.278Z</time>
      </trkpt>
      <trkpt lat="45.93164" lon="6.86513">
        <ele>1287</ele>
        <time>2026-08-04T05:39:08.278Z</time>
      </trkpt>
      <trkpt lat="45.93165" lon="6.86514">
        <ele>1287</ele>
        <time>2026-08-04T05:39:09.278Z</time>
      </trkpt>
      <trkpt lat="45.93167" lon="6.86514">
        <ele>1288</ele>
        <time>2026-08-04T05:39:10.278Z</time>
      </trkpt>
      <trkpt lat="45.93168" lon="6.86514">
        <ele>1288</ele>
        <time>2026-08-04T05:39:11.278Z</time>
      </trkpt>
      <trkpt lat="45.93171" lon="6.86516">
        <ele>1288</ele>
        <time>2026-08-04T05:39:12.278Z</time>
      </trkpt>
      <trkpt lat="45.93173" lon="6.86518">
        <ele>1289</ele>
        <time>2026-08-04T05:39:13.278Z</time>
      </trkpt>
      <trkpt lat="45.93174" lon="6.86521">
        <ele>1289</ele>
        <time>2026-08-04T05:39:14.278Z</time>
      </trkpt>
      <trkpt lat="45.93175" lon="6.86524">
        <ele>1290</ele>
        <time>2026-08-04T05:39:15.278Z</time>
      </trkpt>
      <trkpt lat="45.93177" lon="6.86527">
        <ele>1290</ele>
        <time>2026-08-04T05:39:16.278Z</time>
      </trkpt>
      <trkpt lat="45.93178" lon="6.86529">
        <ele>1291</ele>
        <time>2026-08-04T05:39:17.278Z</time>
      </trkpt>
      <trkpt lat="45.93179" lon="6.86531">
        <ele>1291</ele>
        <time>2026-08-04T05:39:18.278Z</time>
      </trkpt>
      <trkpt lat="45.93181" lon="6.86533">
        <ele>1291</ele>
        <time>2026-08-04T05:39:19.278Z</time>
      </trkpt>
      <trkpt lat="45.93183" lon="6.86535">
        <ele>1292</ele>
        <time>2026-08-04T05:39:20.278Z</time>
      </trkpt>
      <trkpt lat="45.93184" lon="6.86537">
        <ele>1292</ele>
        <time>2026-08-04T05:39:21.278Z</time>
      </trkpt>
      <trkpt lat="45.93185" lon="6.86538">
        <ele>1292</ele>
        <time>2026-08-04T05:39:22.278Z</time>
      </trkpt>
      <trkpt lat="45.93186" lon="6.86539">
        <ele>1292</ele>
        <time>2026-08-04T05:39:23.278Z</time>
      </trkpt>
      <trkpt lat="45.93187" lon="6.8654">
        <ele>1292</ele>
        <time>2026-08-04T05:39:24.278Z</time>
      </trkpt>
      <trkpt lat="45.93188" lon="6.86542">
        <ele>1292</ele>
        <time>2026-08-04T05:39:25.278Z</time>
      </trkpt>
      <trkpt lat="45.9319" lon="6.86545">
        <ele>1292</ele>
        <time>2026-08-04T05:39:26.278Z</time>
      </trkpt>
      <trkpt lat="45.93191" lon="6.86547">
        <ele>1292</ele>
        <time>2026-08-04T05:39:27.278Z</time>
      </trkpt>
      <trkpt lat="45.93192" lon="6.86548">
        <ele>1292</ele>
        <time>2026-08-04T05:39:28.278Z</time>
      </trkpt>
      <trkpt lat="45.93194" lon="6.86549">
        <ele>1292</ele>
        <time>2026-08-04T05:39:29.278Z</time>
      </trkpt>
      <trkpt lat="45.93196" lon="6.8655">
        <ele>1292</ele>
        <time>2026-08-04T05:39:30.278Z</time>
      </trkpt>
      <trkpt lat="45.93197" lon="6.86551">
        <ele>1291</ele>
        <time>2026-08-04T05:39:31.278Z</time>
      </trkpt>
      <trkpt lat="45.93199" lon="6.86553">
        <ele>1291</ele>
        <time>2026-08-04T05:39:32.278Z</time>
      </trkpt>
      <trkpt lat="45.932" lon="6.86554">
        <ele>1291</ele>
        <time>2026-08-04T05:39:33.278Z</time>
      </trkpt>
      <trkpt lat="45.93202" lon="6.86555">
        <ele>1291</ele>
        <time>2026-08-04T05:39:34.278Z</time>
      </trkpt>
      <trkpt lat="45.93204" lon="6.86556">
        <ele>1290</ele>
        <time>2026-08-04T05:39:35.278Z</time>
      </trkpt>
      <trkpt lat="45.93206" lon="6.86557">
        <ele>1290</ele>
        <time>2026-08-04T05:39:36.278Z</time>
      </trkpt>
      <trkpt lat="45.93209" lon="6.86559">
        <ele>1290</ele>
        <time>2026-08-04T05:39:37.278Z</time>
      </trkpt>
      <trkpt lat="45.93211" lon="6.8656">
        <ele>1290</ele>
        <time>2026-08-04T05:39:38.278Z</time>
      </trkpt>
      <trkpt lat="45.93214" lon="6.86562">
        <ele>1290</ele>
        <time>2026-08-04T05:39:39.278Z</time>
      </trkpt>
      <trkpt lat="45.93216" lon="6.86566">
        <ele>1290</ele>
        <time>2026-08-04T05:39:40.278Z</time>
      </trkpt>
      <trkpt lat="45.93218" lon="6.86569">
        <ele>1289</ele>
        <time>2026-08-04T05:39:41.278Z</time>
      </trkpt>
      <trkpt lat="45.93221" lon="6.86571">
        <ele>1289</ele>
        <time>2026-08-04T05:39:42.278Z</time>
      </trkpt>
      <trkpt lat="45.93222" lon="6.86573">
        <ele>1288</ele>
        <time>2026-08-04T05:39:43.278Z</time>
      </trkpt>
      <trkpt lat="45.93223" lon="6.86575">
        <ele>1288</ele>
        <time>2026-08-04T05:39:44.278Z</time>
      </trkpt>
      <trkpt lat="45.93225" lon="6.86577">
        <ele>1287</ele>
        <time>2026-08-04T05:39:45.278Z</time>
      </trkpt>
      <trkpt lat="45.93226" lon="6.86579">
        <ele>1287</ele>
        <time>2026-08-04T05:39:46.278Z</time>
      </trkpt>
      <trkpt lat="45.93228" lon="6.86582">
        <ele>1286</ele>
        <time>2026-08-04T05:39:47.278Z</time>
      </trkpt>
      <trkpt lat="45.93229" lon="6.86584">
        <ele>1286</ele>
        <time>2026-08-04T05:39:48.278Z</time>
      </trkpt>
      <trkpt lat="45.9323" lon="6.86585">
        <ele>1286</ele>
        <time>2026-08-04T05:39:49.278Z</time>
      </trkpt>
      <trkpt lat="45.93232" lon="6.86586">
        <ele>1285</ele>
        <time>2026-08-04T05:39:50.278Z</time>
      </trkpt>
      <trkpt lat="45.93233" lon="6.86587">
        <ele>1285</ele>
        <time>2026-08-04T05:39:51.278Z</time>
      </trkpt>
      <trkpt lat="45.93233" lon="6.86588">
        <ele>1285</ele>
        <time>2026-08-04T05:39:52.278Z</time>
      </trkpt>
      <trkpt lat="45.93235" lon="6.86589">
        <ele>1285</ele>
        <time>2026-08-04T05:39:53.278Z</time>
      </trkpt>
      <trkpt lat="45.93236" lon="6.86591">
        <ele>1284</ele>
        <time>2026-08-04T05:39:54.278Z</time>
      </trkpt>
      <trkpt lat="45.93237" lon="6.86593">
        <ele>1284</ele>
        <time>2026-08-04T05:39:55.278Z</time>
      </trkpt>
      <trkpt lat="45.93238" lon="6.86594">
        <ele>1284</ele>
        <time>2026-08-04T05:39:56.278Z</time>
      </trkpt>
      <trkpt lat="45.93238" lon="6.86594">
        <ele>1284</ele>
        <time>2026-08-04T05:39:57.278Z</time>
      </trkpt>
      <trkpt lat="45.9324" lon="6.86594">
        <ele>1283</ele>
        <time>2026-08-04T05:39:58.278Z</time>
      </trkpt>
      <trkpt lat="45.93241" lon="6.86593">
        <ele>1283</ele>
        <time>2026-08-04T05:39:59.278Z</time>
      </trkpt>
      <trkpt lat="45.93242" lon="6.86593">
        <ele>1283</ele>
        <time>2026-08-04T05:40:00.278Z</time>
      </trkpt>
      <trkpt lat="45.93243" lon="6.86592">
        <ele>1283</ele>
        <time>2026-08-04T05:40:01.278Z</time>
      </trkpt>
      <trkpt lat="45.93244" lon="6.86591">
        <ele>1282</ele>
        <time>2026-08-04T05:40:02.278Z</time>
      </trkpt>
      <trkpt lat="45.93243" lon="6.86591">
        <ele>1282</ele>
        <time>2026-08-04T05:40:03.278Z</time>
      </trkpt>
      <trkpt lat="45.93244" lon="6.86591">
        <ele>1282</ele>
        <time>2026-08-04T05:40:04.278Z</time>
      </trkpt>
      <trkpt lat="45.93244" lon="6.86591">
        <ele>1281</ele>
        <time>2026-08-04T05:40:05.278Z</time>
      </trkpt>
      <trkpt lat="45.93243" lon="6.86591">
        <ele>1281</ele>
        <time>2026-08-04T05:40:06.278Z</time>
      </trkpt>
      <trkpt lat="45.93242" lon="6.86591">
        <ele>1281</ele>
        <time>2026-08-04T05:40:07.278Z</time>
      </trkpt>
      <trkpt lat="45.93242" lon="6.86591">
        <ele>1281</ele>
        <time>2026-08-04T05:40:08.278Z</time>
      </trkpt>
      <trkpt lat="45.93241" lon="6.86591">
        <ele>1281</ele>
        <time>2026-08-04T05:40:09.278Z</time>
      </trkpt>
      <trkpt lat="45.93241" lon="6.8659">
        <ele>1281</ele>
        <time>2026-08-04T05:40:10.278Z</time>
      </trkpt>
      <trkpt lat="45.9324" lon="6.8659">
        <ele>1281</ele>
        <time>2026-08-04T05:40:11.278Z</time>
      </trkpt>
      <trkpt lat="45.9324" lon="6.86589">
        <ele>1281</ele>
        <time>2026-08-04T05:40:12.278Z</time>
      </trkpt>
      <trkpt lat="45.9324" lon="6.86588">
        <ele>1280</ele>
        <time>2026-08-04T05:40:13.278Z</time>
      </trkpt>
      <trkpt lat="45.9324" lon="6.86588">
        <ele>1280</ele>
        <time>2026-08-04T05:40:14.278Z</time>
      </trkpt>
      <trkpt lat="45.93239" lon="6.86588">
        <ele>1280</ele>
        <time>2026-08-04T05:40:15.278Z</time>
      </trkpt>
      <trkpt lat="45.93239" lon="6.86587">
        <ele>1280</ele>
        <time>2026-08-04T05:40:16.278Z</time>
      </trkpt>
      <trkpt lat="45.93239" lon="6.86587">
        <ele>1279</ele>
        <time>2026-08-04T05:40:17.278Z</time>
      </trkpt>
      <trkpt lat="45.93239" lon="6.86587">
        <ele>1279</ele>
        <time>2026-08-04T05:40:18.278Z</time>
      </trkpt>
      <trkpt lat="45.93239" lon="6.86587">
        <ele>1279</ele>
        <time>2026-08-04T05:40:19.278Z</time>
      </trkpt>
      <trkpt lat="45.93239" lon="6.86587">
        <ele>1279</ele>
        <time>2026-08-04T05:40:20.278Z</time>
      </trkpt>
      <trkpt lat="45.93239" lon="6.86587">
        <ele>1279</ele>
        <time>2026-08-04T05:40:21.278Z</time>
      </trkpt>
      <trkpt lat="45.93239" lon="6.86587">
        <ele>1279</ele>
        <time>2026-08-04T05:40:22.278Z</time>
      </trkpt>
      <trkpt lat="45.93238" lon="6.86587">
        <ele>1279</ele>
        <time>2026-08-04T05:40:23.278Z</time>
      </trkpt>
      <trkpt lat="45.93239" lon="6.86586">
        <ele>1279</ele>
        <time>2026-08-04T05:40:24.278Z</time>
      </trkpt>
      <trkpt lat="45.9324" lon="6.86586">
        <ele>1279</ele>
        <time>2026-08-04T05:40:25.278Z</time>
      </trkpt>
      <trkpt lat="45.93242" lon="6.86584">
        <ele>1279</ele>
        <time>2026-08-04T05:40:26.278Z</time>
      </trkpt>
      <trkpt lat="45.93242" lon="6.86583">
        <ele>1279</ele>
        <time>2026-08-04T05:40:27.278Z</time>
      </trkpt>
      <trkpt lat="45.93242" lon="6.86583">
        <ele>1279</ele>
        <time>2026-08-04T05:40:28.278Z</time>
      </trkpt>
      <trkpt lat="45.93242" lon="6.86583">
        <ele>1279</ele>
        <time>2026-08-04T05:40:29.278Z</time>
      </trkpt>
      <trkpt lat="45.93241" lon="6.86583">
        <ele>1280</ele>
        <time>2026-08-04T05:40:30.278Z</time>
      </trkpt>
      <trkpt lat="45.9324" lon="6.86583">
        <ele>1280</ele>
        <time>2026-08-04T05:40:31.278Z</time>
      </trkpt>
      <trkpt lat="45.9324" lon="6.86582">
        <ele>1280</ele>
        <time>2026-08-04T05:40:32.278Z</time>
      </trkpt>
      <trkpt lat="45.9324" lon="6.86582">
        <ele>1280</ele>
        <time>2026-08-04T05:40:33.278Z</time>
      </trkpt>
      <trkpt lat="45.93239" lon="6.86583">
        <ele>1280</ele>
        <time>2026-08-04T05:40:34.278Z</time>
      </trkpt>
      <trkpt lat="45.93238" lon="6.86583">
        <ele>1280</ele>
        <time>2026-08-04T05:40:35.278Z</time>
      </trkpt>
      <trkpt lat="45.93238" lon="6.86584">
        <ele>1281</ele>
        <time>2026-08-04T05:40:36.278Z</time>
      </trkpt>
      <trkpt lat="45.93237" lon="6.86584">
        <ele>1281</ele>
        <time>2026-08-04T05:40:37.278Z</time>
      </trkpt>
      <trkpt lat="45.93236" lon="6.86584">
        <ele>1281</ele>
        <time>2026-08-04T05:40:38.278Z</time>
      </trkpt>
      <trkpt lat="45.93235" lon="6.86583">
        <ele>1281</ele>
        <time>2026-08-04T05:40:39.278Z</time>
      </trkpt>
      <trkpt lat="45.93235" lon="6.86582">
        <ele>1281</ele>
        <time>2026-08-04T05:40:40.278Z</time>
      </trkpt>
      <trkpt lat="45.93235" lon="6.86581">
        <ele>1281</ele>
        <time>2026-08-04T05:40:41.278Z</time>
      </trkpt>
      <trkpt lat="45.93235" lon="6.8658">
        <ele>1281</ele>
        <time>2026-08-04T05:40:42.278Z</time>
      </trkpt>
      <trkpt lat="45.93235" lon="6.8658">
        <ele>1281</ele>
        <time>2026-08-04T05:40:43.278Z</time>
      </trkpt>
      <trkpt lat="45.93235" lon="6.86579">
        <ele>1280</ele>
        <time>2026-08-04T05:40:44.278Z</time>
      </trkpt>
      <trkpt lat="45.93235" lon="6.8658">
        <ele>1280</ele>
        <time>2026-08-04T05:40:45.278Z</time>
      </trkpt>
      <trkpt lat="45.93234" lon="6.8658">
        <ele>1280</ele>
        <time>2026-08-04T05:40:46.278Z</time>
      </trkpt>
      <trkpt lat="45.93232" lon="6.86581">
        <ele>1280</ele>
        <time>2026-08-04T05:40:47.278Z</time>
      </trkpt>
      <trkpt lat="45.93231" lon="6.86582">
        <ele>1280</ele>
        <time>2026-08-04T05:40:48.278Z</time>
      </trkpt>
      <trkpt lat="45.9323" lon="6.86582">
        <ele>1280</ele>
        <time>2026-08-04T05:40:49.278Z</time>
      </trkpt>
      <trkpt lat="45.93228" lon="6.86582">
        <ele>1280</ele>
        <time>2026-08-04T05:40:50.278Z</time>
      </trkpt>
      <trkpt lat="45.93227" lon="6.86581">
        <ele>1280</ele>
        <time>2026-08-04T05:40:51.278Z</time>
      </trkpt>
      <trkpt lat="45.93226" lon="6.86581">
        <ele>1280</ele>
        <time>2026-08-04T05:40:52.278Z</time>
      </trkpt>
      <trkpt lat="45.93225" lon="6.86581">
        <ele>1280</ele>
        <time>2026-08-04T05:40:53.278Z</time>
      </trkpt>
      <trkpt lat="45.93224" lon="6.86581">
        <ele>1280</ele>
        <time>2026-08-04T05:40:54.278Z</time>
      </trkpt>
      <trkpt lat="45.93223" lon="6.8658">
        <ele>1281</ele>
        <time>2026-08-04T05:40:55.278Z</time>
      </trkpt>
      <trkpt lat="45.93223" lon="6.86579">
        <ele>1281</ele>
        <time>2026-08-04T05:40:56.278Z</time>
      </trkpt>
      <trkpt lat="45.93223" lon="6.86579">
        <ele>1281</ele>
        <time>2026-08-04T05:40:57.278Z</time>
      </trkpt>
      <trkpt lat="45.93222" lon="6.86578">
        <ele>1281</ele>
        <time>2026-08-04T05:40:58.278Z</time>
      </trkpt>
      <trkpt lat="45.93222" lon="6.86576">
        <ele>1282</ele>
        <time>2026-08-04T05:40:59.278Z</time>
      </trkpt>
      <trkpt lat="45.93221" lon="6.86574">
        <ele>1282</ele>
        <time>2026-08-04T05:41:00.278Z</time>
      </trkpt>
      <trkpt lat="45.9322" lon="6.86573">
        <ele>1282</ele>
        <time>2026-08-04T05:41:01.278Z</time>
      </trkpt>
      <trkpt lat="45.93219" lon="6.86573">
        <ele>1282</ele>
        <time>2026-08-04T05:41:02.278Z</time>
      </trkpt>
      <trkpt lat="45.93217" lon="6.86573">
        <ele>1282</ele>
        <time>2026-08-04T05:41:03.278Z</time>
      </trkpt>
      <trkpt lat="45.93215" lon="6.86572">
        <ele>1282</ele>
        <time>2026-08-04T05:41:04.278Z</time>
      </trkpt>
      <trkpt lat="45.93213" lon="6.86572">
        <ele>1282</ele>
        <time>2026-08-04T05:41:05.278Z</time>
      </trkpt>
      <trkpt lat="45.93211" lon="6.86571">
        <ele>1282</ele>
        <time>2026-08-04T05:41:06.278Z</time>
      </trkpt>
      <trkpt lat="45.9321" lon="6.8657">
        <ele>1282</ele>
        <time>2026-08-04T05:41:07.278Z</time>
      </trkpt>
      <trkpt lat="45.93208" lon="6.86569">
        <ele>1282</ele>
        <time>2026-08-04T05:41:08.278Z</time>
      </trkpt>
      <trkpt lat="45.93207" lon="6.86568">
        <ele>1283</ele>
        <time>2026-08-04T05:41:09.278Z</time>
      </trkpt>
      <trkpt lat="45.93206" lon="6.86567">
        <ele>1283</ele>
        <time>2026-08-04T05:41:10.278Z</time>
      </trkpt>
      <trkpt lat="45.93205" lon="6.86566">
        <ele>1283</ele>
        <time>2026-08-04T05:41:11.278Z</time>
      </trkpt>
      <trkpt lat="45.93204" lon="6.86566">
        <ele>1284</ele>
        <time>2026-08-04T05:41:12.278Z</time>
      </trkpt>
      <trkpt lat="45.93203" lon="6.86564">
        <ele>1284</ele>
        <time>2026-08-04T05:41:13.278Z</time>
      </trkpt>
      <trkpt lat="45.93202" lon="6.86563">
        <ele>1285</ele>
        <time>2026-08-04T05:41:14.278Z</time>
      </trkpt>
      <trkpt lat="45.93201" lon="6.86562">
        <ele>1285</ele>
        <time>2026-08-04T05:41:15.278Z</time>
      </trkpt>
      <trkpt lat="45.93201" lon="6.86561">
        <ele>1285</ele>
        <time>2026-08-04T05:41:16.278Z</time>
      </trkpt>
      <trkpt lat="45.93199" lon="6.8656">
        <ele>1285</ele>
        <time>2026-08-04T05:41:17.278Z</time>
      </trkpt>
      <trkpt lat="45.93198" lon="6.86558">
        <ele>1285</ele>
        <time>2026-08-04T05:41:18.278Z</time>
      </trkpt>
      <trkpt lat="45.93198" lon="6.86558">
        <ele>1285</ele>
        <time>2026-08-04T05:41:19.278Z</time>
      </trkpt>
      <trkpt lat="45.93197" lon="6.86556">
        <ele>1285</ele>
        <time>2026-08-04T05:41:20.278Z</time>
      </trkpt>
      <trkpt lat="45.93197" lon="6.86554">
        <ele>1285</ele>
        <time>2026-08-04T05:41:21.278Z</time>
      </trkpt>
      <trkpt lat="45.93196" lon="6.86552">
        <ele>1285</ele>
        <time>2026-08-04T05:41:22.278Z</time>
      </trkpt>
      <trkpt lat="45.93196" lon="6.8655">
        <ele>1285</ele>
        <time>2026-08-04T05:41:23.278Z</time>
      </trkpt>
      <trkpt lat="45.93195" lon="6.86546">
        <ele>1285</ele>
        <time>2026-08-04T05:41:24.278Z</time>
      </trkpt>
      <trkpt lat="45.93194" lon="6.86544">
        <ele>1285</ele>
        <time>2026-08-04T05:41:25.278Z</time>
      </trkpt>
      <trkpt lat="45.93193" lon="6.86543">
        <ele>1285</ele>
        <time>2026-08-04T05:41:26.278Z</time>
      </trkpt>
      <trkpt lat="45.93191" lon="6.86541">
        <ele>1286</ele>
        <time>2026-08-04T05:41:27.278Z</time>
      </trkpt>
      <trkpt lat="45.9319" lon="6.86541">
        <ele>1286</ele>
        <time>2026-08-04T05:41:28.278Z</time>
      </trkpt>
      <trkpt lat="45.93189" lon="6.86541">
        <ele>1286</ele>
        <time>2026-08-04T05:41:29.278Z</time>
      </trkpt>
      <trkpt lat="45.93187" lon="6.86541">
        <ele>1286</ele>
        <time>2026-08-04T05:41:30.278Z</time>
      </trkpt>
      <trkpt lat="45.93186" lon="6.86541">
        <ele>1287</ele>
        <time>2026-08-04T05:41:31.278Z</time>
      </trkpt>
      <trkpt lat="45.93185" lon="6.86541">
        <ele>1287</ele>
        <time>2026-08-04T05:41:32.278Z</time>
      </trkpt>
      <trkpt lat="45.93184" lon="6.8654">
        <ele>1287</ele>
        <time>2026-08-04T05:41:33.278Z</time>
      </trkpt>
      <trkpt lat="45.93183" lon="6.8654">
        <ele>1288</ele>
        <time>2026-08-04T05:41:34.278Z</time>
      </trkpt>
      <trkpt lat="45.93182" lon="6.8654">
        <ele>1288</ele>
        <time>2026-08-04T05:41:35.278Z</time>
      </trkpt>
      <trkpt lat="45.93182" lon="6.8654">
        <ele>1288</ele>
        <time>2026-08-04T05:41:36.278Z</time>
      </trkpt>
      <trkpt lat="45.93182" lon="6.8654">
        <ele>1288</ele>
        <time>2026-08-04T05:41:37.278Z</time>
      </trkpt>
      <trkpt lat="45.93182" lon="6.8654">
        <ele>1289</ele>
        <time>2026-08-04T05:41:38.278Z</time>
      </trkpt>
      <trkpt lat="45.93182" lon="6.8654">
        <ele>1289</ele>
        <time>2026-08-04T05:41:39.278Z</time>
      </trkpt>
      <trkpt lat="45.93183" lon="6.86539">
        <ele>1289</ele>
        <time>2026-08-04T05:41:40.278Z</time>
      </trkpt>
      <trkpt lat="45.93183" lon="6.86539">
        <ele>1290</ele>
        <time>2026-08-04T05:41:41.278Z</time>
      </trkpt>
      <trkpt lat="45.93183" lon="6.86539">
        <ele>1290</ele>
        <time>2026-08-04T05:41:42.278Z</time>
      </trkpt>
      <trkpt lat="45.93183" lon="6.86539">
        <ele>1291</ele>
        <time>2026-08-04T05:41:43.278Z</time>
      </trkpt>
      <trkpt lat="45.93183" lon="6.86539">
        <ele>1291</ele>
        <time>2026-08-04T05:41:44.278Z</time>
      </trkpt>
      <trkpt lat="45.93183" lon="6.86539">
        <ele>1291</ele>
        <time>2026-08-04T05:41:45.278Z</time>
      </trkpt>
      <trkpt lat="45.93183" lon="6.86539">
        <ele>1292</ele>
        <time>2026-08-04T05:41:46.278Z</time>
      </trkpt>
      <trkpt lat="45.93183" lon="6.86539">
        <ele>1292</ele>
        <time>2026-08-04T05:41:47.278Z</time>
      </trkpt>
      <trkpt lat="45.93183" lon="6.86539">
        <ele>1292</ele>
        <time>2026-08-04T05:41:48.278Z</time>
      </trkpt>
      <trkpt lat="45.93183" lon="6.86539">
        <ele>1292</ele>
        <time>2026-08-04T05:41:49.278Z</time>
      </trkpt>
      <trkpt lat="45.93183" lon="6.86539">
        <ele>1293</ele>
        <time>2026-08-04T05:41:50.278Z</time>
      </trkpt>
      <trkpt lat="45.93183" lon="6.86539">
        <ele>1293</ele>
        <time>2026-08-04T05:41:51.278Z</time>
      </trkpt>
      <trkpt lat="45.93183" lon="6.86539">
        <ele>1293</ele>
        <time>2026-08-04T05:41:52.278Z</time>
      </trkpt>
      <trkpt lat="45.93183" lon="6.86539">
        <ele>1293</ele>
        <time>2026-08-04T05:41:53.278Z</time>
      </trkpt>
      <trkpt lat="45.93183" lon="6.86539">
        <ele>1294</ele>
        <time>2026-08-04T05:41:54.278Z</time>
      </trkpt>
      <trkpt lat="45.93183" lon="6.86539">
        <ele>1294</ele>
        <time>2026-08-04T05:41:55.278Z</time>
      </trkpt>
      <trkpt lat="45.93183" lon="6.86539">
        <ele>1295</ele>
        <time>2026-08-04T05:41:56.278Z</time>
      </trkpt>
      <trkpt lat="45.93183" lon="6.86539">
        <ele>1295</ele>
        <time>2026-08-04T05:41:57.278Z</time>
      </trkpt>
      <trkpt lat="45.93183" lon="6.86539">
        <ele>1295</ele>
        <time>2026-08-04T05:41:58.278Z</time>
      </trkpt>
      <trkpt lat="45.93183" lon="6.86539">
        <ele>1295</ele>
        <time>2026-08-04T05:41:59.278Z</time>
      </trkpt>
      <trkpt lat="45.93183" lon="6.86539">
        <ele>1295</ele>
        <time>2026-08-04T05:42:00.278Z</time>
      </trkpt>
      <trkpt lat="45.93183" lon="6.86539">
        <ele>1295</ele>
        <time>2026-08-04T05:42:01.278Z</time>
      </trkpt>
      <trkpt lat="45.93183" lon="6.86539">
        <ele>1295</ele>
        <time>2026-08-04T05:42:02.278Z</time>
      </trkpt>
      <trkpt lat="45.93182" lon="6.86538">
        <ele>1295</ele>
        <time>2026-08-04T05:42:03.278Z</time>
      </trkpt>
      <trkpt lat="45.9318" lon="6.86536">
        <ele>1295</ele>
        <time>2026-08-04T05:42:04.278Z</time>
      </trkpt>
      <trkpt lat="45.93178" lon="6.86535">
        <ele>1295</ele>
        <time>2026-08-04T05:42:05.278Z</time>
      </trkpt>
      <trkpt lat="45.93176" lon="6.86533">
        <ele>1295</ele>
        <time>2026-08-04T05:42:06.278Z</time>
      </trkpt>
      <trkpt lat="45.93173" lon="6.86531">
        <ele>1295</ele>
        <time>2026-08-04T05:42:07.278Z</time>
      </trkpt>
      <trkpt lat="45.93171" lon="6.86529">
        <ele>1295</ele>
        <time>2026-08-04T05:42:08.278Z</time>
      </trkpt>
      <trkpt lat="45.93169" lon="6.86527">
        <ele>1295</ele>
        <time>2026-08-04T05:42:09.278Z</time>
      </trkpt>
      <trkpt lat="45.93166" lon="6.86526">
        <ele>1295</ele>
        <time>2026-08-04T05:42:10.278Z</time>
      </trkpt>
      <trkpt lat="45.93164" lon="6.86525">
        <ele>1295</ele>
        <time>2026-08-04T05:42:11.278Z</time>
      </trkpt>
      <trkpt lat="45.93162" lon="6.86524">
        <ele>1295</ele>
        <time>2026-08-04T05:42:12.278Z</time>
      </trkpt>
      <trkpt lat="45.93159" lon="6.86523">
        <ele>1294</ele>
        <time>2026-08-04T05:42:13.278Z</time>
      </trkpt>
      <trkpt lat="45.93157" lon="6.86522">
        <ele>1294</ele>
        <time>2026-08-04T05:42:14.278Z</time>
      </trkpt>
      <trkpt lat="45.93156" lon="6.86521">
        <ele>1294</ele>
        <time>2026-08-04T05:42:15.278Z</time>
      </trkpt>
      <trkpt lat="45.93155" lon="6.8652">
        <ele>1294</ele>
        <time>2026-08-04T05:42:16.278Z</time>
      </trkpt>
      <trkpt lat="45.93155" lon="6.86519">
        <ele>1294</ele>
        <time>2026-08-04T05:42:17.278Z</time>
      </trkpt>
      <trkpt lat="45.93155" lon="6.86518">
        <ele>1294</ele>
        <time>2026-08-04T05:42:18.278Z</time>
      </trkpt>
      <trkpt lat="45.93156" lon="6.86517">
        <ele>1293</ele>
        <time>2026-08-04T05:42:19.278Z</time>
      </trkpt>
      <trkpt lat="45.93157" lon="6.86515">
        <ele>1293</ele>
        <time>2026-08-04T05:42:20.278Z</time>
      </trkpt>
      <trkpt lat="45.93157" lon="6.86514">
        <ele>1293</ele>
        <time>2026-08-04T05:42:21.278Z</time>
      </trkpt>
      <trkpt lat="45.93158" lon="6.86514">
        <ele>1293</ele>
        <time>2026-08-04T05:42:22.278Z</time>
      </trkpt>
      <trkpt lat="45.93158" lon="6.86514">
        <ele>1293</ele>
        <time>2026-08-04T05:42:23.278Z</time>
      </trkpt>
      <trkpt lat="45.93158" lon="6.86514">
        <ele>1293</ele>
        <time>2026-08-04T05:42:24.278Z</time>
      </trkpt>
      <trkpt lat="45.93158" lon="6.86513">
        <ele>1293</ele>
        <time>2026-08-04T05:42:25.278Z</time>
      </trkpt>
      <trkpt lat="45.93159" lon="6.86513">
        <ele>1293</ele>
        <time>2026-08-04T05:42:26.278Z</time>
      </trkpt>
      <trkpt lat="45.93159" lon="6.86513">
        <ele>1292</ele>
        <time>2026-08-04T05:42:27.278Z</time>
      </trkpt>
      <trkpt lat="45.93159" lon="6.86514">
        <ele>1292</ele>
        <time>2026-08-04T05:42:28.278Z</time>
      </trkpt>
      <trkpt lat="45.93159" lon="6.86514">
        <ele>1292</ele>
        <time>2026-08-04T05:42:29.278Z</time>
      </trkpt>
      <trkpt lat="45.9316" lon="6.86513">
        <ele>1291</ele>
        <time>2026-08-04T05:42:30.278Z</time>
      </trkpt>
      <trkpt lat="45.93161" lon="6.86511">
        <ele>1291</ele>
        <time>2026-08-04T05:42:31.278Z</time>
      </trkpt>
      <trkpt lat="45.93162" lon="6.8651">
        <ele>1291</ele>
        <time>2026-08-04T05:42:32.278Z</time>
      </trkpt>
      <trkpt lat="45.93162" lon="6.86509">
        <ele>1290</ele>
        <time>2026-08-04T05:42:33.278Z</time>
      </trkpt>
      <trkpt lat="45.93164" lon="6.86507">
        <ele>1290</ele>
        <time>2026-08-04T05:42:34.278Z</time>
      </trkpt>
      <trkpt lat="45.93164" lon="6.86506">
        <ele>1290</ele>
        <time>2026-08-04T05:42:35.278Z</time>
      </trkpt>
      <trkpt lat="45.93165" lon="6.86506">
        <ele>1290</ele>
        <time>2026-08-04T05:42:36.278Z</time>
      </trkpt>
      <trkpt lat="45.93165" lon="6.86506">
        <ele>1290</ele>
        <time>2026-08-04T05:42:37.278Z</time>
      </trkpt>
      <trkpt lat="45.93166" lon="6.86506">
        <ele>1290</ele>
        <time>2026-08-04T05:42:38.278Z</time>
      </trkpt>
      <trkpt lat="45.93167" lon="6.86506">
        <ele>1290</ele>
        <time>2026-08-04T05:42:39.278Z</time>
      </trkpt>
      <trkpt lat="45.93167" lon="6.86505">
        <ele>1290</ele>
        <time>2026-08-04T05:42:40.278Z</time>
      </trkpt>
      <trkpt lat="45.93168" lon="6.86505">
        <ele>1290</ele>
        <time>2026-08-04T05:42:41.278Z</time>
      </trkpt>
      <trkpt lat="45.93169" lon="6.86504">
        <ele>1290</ele>
        <time>2026-08-04T05:42:42.278Z</time>
      </trkpt>
      <trkpt lat="45.93169" lon="6.86504">
        <ele>1290</ele>
        <time>2026-08-04T05:42:43.278Z</time>
      </trkpt>
      <trkpt lat="45.93169" lon="6.86505">
        <ele>1290</ele>
        <time>2026-08-04T05:42:44.278Z</time>
      </trkpt>
      <trkpt lat="45.93171" lon="6.86505">
        <ele>1290</ele>
        <time>2026-08-04T05:42:45.278Z</time>
      </trkpt>
      <trkpt lat="45.93172" lon="6.86506">
        <ele>1291</ele>
        <time>2026-08-04T05:42:46.278Z</time>
      </trkpt>
      <trkpt lat="45.93173" lon="6.86507">
        <ele>1291</ele>
        <time>2026-08-04T05:42:47.278Z</time>
      </trkpt>
      <trkpt lat="45.93174" lon="6.86508">
        <ele>1291</ele>
        <time>2026-08-04T05:42:48.278Z</time>
      </trkpt>
      <trkpt lat="45.93175" lon="6.86507">
        <ele>1292</ele>
        <time>2026-08-04T05:42:49.278Z</time>
      </trkpt>
      <trkpt lat="45.93175" lon="6.86508">
        <ele>1292</ele>
        <time>2026-08-04T05:42:50.278Z</time>
      </trkpt>
      <trkpt lat="45.93176" lon="6.86508">
        <ele>1293</ele>
        <time>2026-08-04T05:42:51.278Z</time>
      </trkpt>
      <trkpt lat="45.93177" lon="6.86508">
        <ele>1293</ele>
        <time>2026-08-04T05:42:52.278Z</time>
      </trkpt>
      <trkpt lat="45.93178" lon="6.86508">
        <ele>1294</ele>
        <time>2026-08-04T05:42:53.278Z</time>
      </trkpt>
      <trkpt lat="45.93178" lon="6.86508">
        <ele>1294</ele>
        <time>2026-08-04T05:42:54.278Z</time>
      </trkpt>
      <trkpt lat="45.93178" lon="6.86508">
        <ele>1295</ele>
        <time>2026-08-04T05:42:55.278Z</time>
      </trkpt>
      <trkpt lat="45.93179" lon="6.86508">
        <ele>1295</ele>
        <time>2026-08-04T05:42:56.278Z</time>
      </trkpt>
      <trkpt lat="45.93179" lon="6.86508">
        <ele>1296</ele>
        <time>2026-08-04T05:42:57.278Z</time>
      </trkpt>
      <trkpt lat="45.9318" lon="6.86509">
        <ele>1296</ele>
        <time>2026-08-04T05:42:58.278Z</time>
      </trkpt>
      <trkpt lat="45.93181" lon="6.8651">
        <ele>1296</ele>
        <time>2026-08-04T05:42:59.278Z</time>
      </trkpt>
      <trkpt lat="45.93182" lon="6.86512">
        <ele>1297</ele>
        <time>2026-08-04T05:43:00.278Z</time>
      </trkpt>
      <trkpt lat="45.93183" lon="6.86513">
        <ele>1297</ele>
        <time>2026-08-04T05:43:01.278Z</time>
      </trkpt>
      <trkpt lat="45.93184" lon="6.86514">
        <ele>1297</ele>
        <time>2026-08-04T05:43:02.278Z</time>
      </trkpt>
      <trkpt lat="45.93185" lon="6.86514">
        <ele>1298</ele>
        <time>2026-08-04T05:43:03.278Z</time>
      </trkpt>
      <trkpt lat="45.93185" lon="6.86514">
        <ele>1298</ele>
        <time>2026-08-04T05:43:04.278Z</time>
      </trkpt>
      <trkpt lat="45.93186" lon="6.86514">
        <ele>1298</ele>
        <time>2026-08-04T05:43:05.278Z</time>
      </trkpt>
      <trkpt lat="45.93186" lon="6.86513">
        <ele>1299</ele>
        <time>2026-08-04T05:43:06.278Z</time>
      </trkpt>
      <trkpt lat="45.93187" lon="6.86511">
        <ele>1299</ele>
        <time>2026-08-04T05:43:07.278Z</time>
      </trkpt>
      <trkpt lat="45.93187" lon="6.8651">
        <ele>1299</ele>
        <time>2026-08-04T05:43:08.278Z</time>
      </trkpt>
      <trkpt lat="45.93188" lon="6.8651">
        <ele>1299</ele>
        <time>2026-08-04T05:43:09.278Z</time>
      </trkpt>
      <trkpt lat="45.93189" lon="6.8651">
        <ele>1300</ele>
        <time>2026-08-04T05:43:10.278Z</time>
      </trkpt>
      <trkpt lat="45.9319" lon="6.86511">
        <ele>1300</ele>
        <time>2026-08-04T05:43:11.278Z</time>
      </trkpt>
      <trkpt lat="45.93191" lon="6.86512">
        <ele>1301</ele>
        <time>2026-08-04T05:43:12.278Z</time>
      </trkpt>
      <trkpt lat="45.93192" lon="6.86513">
        <ele>1301</ele>
        <time>2026-08-04T05:43:13.278Z</time>
      </trkpt>
      <trkpt lat="45.93193" lon="6.86514">
        <ele>1302</ele>
        <time>2026-08-04T05:43:14.278Z</time>
      </trkpt>
      <trkpt lat="45.93194" lon="6.86516">
        <ele>1302</ele>
        <time>2026-08-04T05:43:15.278Z</time>
      </trkpt>
      <trkpt lat="45.93195" lon="6.86517">
        <ele>1302</ele>
        <time>2026-08-04T05:43:16.278Z</time>
      </trkpt>
      <trkpt lat="45.93196" lon="6.86518">
        <ele>1303</ele>
        <time>2026-08-04T05:43:17.278Z</time>
      </trkpt>
      <trkpt lat="45.93197" lon="6.86519">
        <ele>1303</ele>
        <time>2026-08-04T05:43:18.278Z</time>
      </trkpt>
      <trkpt lat="45.93198" lon="6.86519">
        <ele>1303</ele>
        <time>2026-08-04T05:43:19.278Z</time>
      </trkpt>
      <trkpt lat="45.93199" lon="6.86519">
        <ele>1303</ele>
        <time>2026-08-04T05:43:20.278Z</time>
      </trkpt>
      <trkpt lat="45.932" lon="6.86518">
        <ele>1304</ele>
        <time>2026-08-04T05:43:21.278Z</time>
      </trkpt>
      <trkpt lat="45.93201" lon="6.86519">
        <ele>1304</ele>
        <time>2026-08-04T05:43:22.278Z</time>
      </trkpt>
      <trkpt lat="45.93202" lon="6.86519">
        <ele>1304</ele>
        <time>2026-08-04T05:43:23.278Z</time>
      </trkpt>
      <trkpt lat="45.93203" lon="6.86519">
        <ele>1304</ele>
        <time>2026-08-04T05:43:24.278Z</time>
      </trkpt>
      <trkpt lat="45.93204" lon="6.86519">
        <ele>1304</ele>
        <time>2026-08-04T05:43:25.278Z</time>
      </trkpt>
      <trkpt lat="45.93206" lon="6.86519">
        <ele>1304</ele>
        <time>2026-08-04T05:43:26.278Z</time>
      </trkpt>
      <trkpt lat="45.93208" lon="6.86518">
        <ele>1304</ele>
        <time>2026-08-04T05:43:27.278Z</time>
      </trkpt>
      <trkpt lat="45.93209" lon="6.86518">
        <ele>1304</ele>
        <time>2026-08-04T05:43:28.278Z</time>
      </trkpt>
      <trkpt lat="45.9321" lon="6.86518">
        <ele>1304</ele>
        <time>2026-08-04T05:43:29.278Z</time>
      </trkpt>
      <trkpt lat="45.93211" lon="6.86518">
        <ele>1304</ele>
        <time>2026-08-04T05:43:30.278Z</time>
      </trkpt>
      <trkpt lat="45.93212" lon="6.86518">
        <ele>1304</ele>
        <time>2026-08-04T05:43:31.278Z</time>
      </trkpt>
      <trkpt lat="45.93213" lon="6.8652">
        <ele>1304</ele>
        <time>2026-08-04T05:43:32.278Z</time>
      </trkpt>
      <trkpt lat="45.93214" lon="6.86521">
        <ele>1304</ele>
        <time>2026-08-04T05:43:33.278Z</time>
      </trkpt>
      <trkpt lat="45.93215" lon="6.86521">
        <ele>1304</ele>
        <time>2026-08-04T05:43:34.278Z</time>
      </trkpt>
      <trkpt lat="45.93216" lon="6.86522">
        <ele>1304</ele>
        <time>2026-08-04T05:43:35.278Z</time>
      </trkpt>
      <trkpt lat="45.93216" lon="6.86522">
        <ele>1305</ele>
        <time>2026-08-04T05:43:36.278Z</time>
      </trkpt>
      <trkpt lat="45.93217" lon="6.86522">
        <ele>1305</ele>
        <time>2026-08-04T05:43:37.278Z</time>
      </trkpt>
      <trkpt lat="45.93217" lon="6.86523">
        <ele>1305</ele>
        <time>2026-08-04T05:43:38.278Z</time>
      </trkpt>
      <trkpt lat="45.93217" lon="6.86523">
        <ele>1305</ele>
        <time>2026-08-04T05:43:39.278Z</time>
      </trkpt>
      <trkpt lat="45.93218" lon="6.86524">
        <ele>1305</ele>
        <time>2026-08-04T05:43:40.278Z</time>
      </trkpt>
      <trkpt lat="45.93219" lon="6.86525">
        <ele>1305</ele>
        <time>2026-08-04T05:43:41.278Z</time>
      </trkpt>
      <trkpt lat="45.9322" lon="6.86527">
        <ele>1305</ele>
        <time>2026-08-04T05:43:42.278Z</time>
      </trkpt>
      <trkpt lat="45.9322" lon="6.86528">
        <ele>1305</ele>
        <time>2026-08-04T05:43:43.278Z</time>
      </trkpt>
      <trkpt lat="45.9322" lon="6.8653">
        <ele>1305</ele>
        <time>2026-08-04T05:43:44.278Z</time>
      </trkpt>
      <trkpt lat="45.93221" lon="6.86531">
        <ele>1305</ele>
        <time>2026-08-04T05:43:45.278Z</time>
      </trkpt>
      <trkpt lat="45.93222" lon="6.86531">
        <ele>1305</ele>
        <time>2026-08-04T05:43:46.278Z</time>
      </trkpt>
      <trkpt lat="45.93222" lon="6.86532">
        <ele>1305</ele>
        <time>2026-08-04T05:43:47.278Z</time>
      </trkpt>
      <trkpt lat="45.93224" lon="6.86532">
        <ele>1305</ele>
        <time>2026-08-04T05:43:48.278Z</time>
      </trkpt>
      <trkpt lat="45.93225" lon="6.86532">
        <ele>1305</ele>
        <time>2026-08-04T05:43:49.278Z</time>
      </trkpt>
      <trkpt lat="45.93227" lon="6.86532">
        <ele>1305</ele>
        <time>2026-08-04T05:43:50.278Z</time>
      </trkpt>
      <trkpt lat="45.93228" lon="6.86533">
        <ele>1305</ele>
        <time>2026-08-04T05:43:51.278Z</time>
      </trkpt>
      <trkpt lat="45.93229" lon="6.86532">
        <ele>1305</ele>
        <time>2026-08-04T05:43:52.278Z</time>
      </trkpt>
      <trkpt lat="45.93229" lon="6.86533">
        <ele>1305</ele>
        <time>2026-08-04T05:43:53.278Z</time>
      </trkpt>
      <trkpt lat="45.93229" lon="6.86533">
        <ele>1305</ele>
        <time>2026-08-04T05:43:54.278Z</time>
      </trkpt>
      <trkpt lat="45.93229" lon="6.86533">
        <ele>1305</ele>
        <time>2026-08-04T05:43:55.278Z</time>
      </trkpt>
      <trkpt lat="45.9323" lon="6.86534">
        <ele>1306</ele>
        <time>2026-08-04T05:43:56.278Z</time>
      </trkpt>
      <trkpt lat="45.9323" lon="6.86533">
        <ele>1306</ele>
        <time>2026-08-04T05:43:57.278Z</time>
      </trkpt>
      <trkpt lat="45.93231" lon="6.86532">
        <ele>1306</ele>
        <time>2026-08-04T05:43:58.278Z</time>
      </trkpt>
      <trkpt lat="45.93232" lon="6.86532">
        <ele>1307</ele>
        <time>2026-08-04T05:43:59.278Z</time>
      </trkpt>
      <trkpt lat="45.93232" lon="6.86532">
        <ele>1307</ele>
        <time>2026-08-04T05:44:00.278Z</time>
      </trkpt>
      <trkpt lat="45.93232" lon="6.86532">
        <ele>1307</ele>
        <time>2026-08-04T05:44:01.278Z</time>
      </trkpt>
      <trkpt lat="45.93233" lon="6.86531">
        <ele>1307</ele>
        <time>2026-08-04T05:44:02.278Z</time>
      </trkpt>
      <trkpt lat="45.93233" lon="6.8653">
        <ele>1308</ele>
        <time>2026-08-04T05:44:03.278Z</time>
      </trkpt>
      <trkpt lat="45.93234" lon="6.86528">
        <ele>1308</ele>
        <time>2026-08-04T05:44:04.278Z</time>
      </trkpt>
      <trkpt lat="45.93235" lon="6.86528">
        <ele>1308</ele>
        <time>2026-08-04T05:44:05.278Z</time>
      </trkpt>
      <trkpt lat="45.93237" lon="6.86528">
        <ele>1309</ele>
        <time>2026-08-04T05:44:06.278Z</time>
      </trkpt>
      <trkpt lat="45.93239" lon="6.86528">
        <ele>1309</ele>
        <time>2026-08-04T05:44:07.278Z</time>
      </trkpt>
      <trkpt lat="45.9324" lon="6.86527">
        <ele>1309</ele>
        <time>2026-08-04T05:44:08.278Z</time>
      </trkpt>
      <trkpt lat="45.93241" lon="6.86527">
        <ele>1309</ele>
        <time>2026-08-04T05:44:09.278Z</time>
      </trkpt>
      <trkpt lat="45.93242" lon="6.86526">
        <ele>1309</ele>
        <time>2026-08-04T05:44:10.278Z</time>
      </trkpt>
      <trkpt lat="45.93243" lon="6.86526">
        <ele>1310</ele>
        <time>2026-08-04T05:44:11.278Z</time>
      </trkpt>
      <trkpt lat="45.93244" lon="6.86526">
        <ele>1310</ele>
        <time>2026-08-04T05:44:12.278Z</time>
      </trkpt>
      <trkpt lat="45.93245" lon="6.86526">
        <ele>1309</ele>
        <time>2026-08-04T05:44:13.278Z</time>
      </trkpt>
      <trkpt lat="45.93246" lon="6.86527">
        <ele>1309</ele>
        <time>2026-08-04T05:44:14.278Z</time>
      </trkpt>
      <trkpt lat="45.93247" lon="6.86528">
        <ele>1309</ele>
        <time>2026-08-04T05:44:15.278Z</time>
      </trkpt>
      <trkpt lat="45.93249" lon="6.86529">
        <ele>1309</ele>
        <time>2026-08-04T05:44:16.278Z</time>
      </trkpt>
      <trkpt lat="45.93249" lon="6.8653">
        <ele>1309</ele>
        <time>2026-08-04T05:44:17.278Z</time>
      </trkpt>
      <trkpt lat="45.93251" lon="6.86532">
        <ele>1309</ele>
        <time>2026-08-04T05:44:18.278Z</time>
      </trkpt>
      <trkpt lat="45.93251" lon="6.86533">
        <ele>1309</ele>
        <time>2026-08-04T05:44:19.278Z</time>
      </trkpt>
      <trkpt lat="45.93251" lon="6.86534">
        <ele>1309</ele>
        <time>2026-08-04T05:44:20.278Z</time>
      </trkpt>
      <trkpt lat="45.93252" lon="6.86535">
        <ele>1309</ele>
        <time>2026-08-04T05:44:21.278Z</time>
      </trkpt>
      <trkpt lat="45.93254" lon="6.86535">
        <ele>1310</ele>
        <time>2026-08-04T05:44:22.278Z</time>
      </trkpt>
      <trkpt lat="45.93255" lon="6.86535">
        <ele>1310</ele>
        <time>2026-08-04T05:44:23.278Z</time>
      </trkpt>
      <trkpt lat="45.93257" lon="6.86536">
        <ele>1310</ele>
        <time>2026-08-04T05:44:24.278Z</time>
      </trkpt>
      <trkpt lat="45.93259" lon="6.86537">
        <ele>1311</ele>
        <time>2026-08-04T05:44:25.278Z</time>
      </trkpt>
      <trkpt lat="45.9326" lon="6.86538">
        <ele>1311</ele>
        <time>2026-08-04T05:44:26.278Z</time>
      </trkpt>
      <trkpt lat="45.93261" lon="6.86539">
        <ele>1312</ele>
        <time>2026-08-04T05:44:27.278Z</time>
      </trkpt>
      <trkpt lat="45.93262" lon="6.8654">
        <ele>1312</ele>
        <time>2026-08-04T05:44:28.278Z</time>
      </trkpt>
      <trkpt lat="45.93263" lon="6.86541">
        <ele>1312</ele>
        <time>2026-08-04T05:44:29.278Z</time>
      </trkpt>
      <trkpt lat="45.93264" lon="6.86541">
        <ele>1312</ele>
        <time>2026-08-04T05:44:30.278Z</time>
      </trkpt>
      <trkpt lat="45.93265" lon="6.8654">
        <ele>1313</ele>
        <time>2026-08-04T05:44:31.278Z</time>
      </trkpt>
      <trkpt lat="45.93265" lon="6.86541">
        <ele>1313</ele>
        <time>2026-08-04T05:44:32.278Z</time>
      </trkpt>
      <trkpt lat="45.93266" lon="6.86541">
        <ele>1313</ele>
        <time>2026-08-04T05:44:33.278Z</time>
      </trkpt>
      <trkpt lat="45.93267" lon="6.86542">
        <ele>1313</ele>
        <time>2026-08-04T05:44:34.278Z</time>
      </trkpt>
      <trkpt lat="45.93267" lon="6.86542">
        <ele>1313</ele>
        <time>2026-08-04T05:44:35.278Z</time>
      </trkpt>
      <trkpt lat="45.93267" lon="6.86544">
        <ele>1313</ele>
        <time>2026-08-04T05:44:36.278Z</time>
      </trkpt>
      <trkpt lat="45.93268" lon="6.86545">
        <ele>1314</ele>
        <time>2026-08-04T05:44:37.278Z</time>
      </trkpt>
      <trkpt lat="45.93268" lon="6.86546">
        <ele>1314</ele>
        <time>2026-08-04T05:44:38.278Z</time>
      </trkpt>
      <trkpt lat="45.93269" lon="6.86546">
        <ele>1314</ele>
        <time>2026-08-04T05:44:39.278Z</time>
      </trkpt>
      <trkpt lat="45.93269" lon="6.86547">
        <ele>1315</ele>
        <time>2026-08-04T05:44:40.278Z</time>
      </trkpt>
      <trkpt lat="45.9327" lon="6.86546">
        <ele>1315</ele>
        <time>2026-08-04T05:44:41.278Z</time>
      </trkpt>
      <trkpt lat="45.93271" lon="6.86546">
        <ele>1316</ele>
        <time>2026-08-04T05:44:42.278Z</time>
      </trkpt>
      <trkpt lat="45.93271" lon="6.86546">
        <ele>1316</ele>
        <time>2026-08-04T05:44:43.278Z</time>
      </trkpt>
      <trkpt lat="45.93272" lon="6.86546">
        <ele>1317</ele>
        <time>2026-08-04T05:44:44.278Z</time>
      </trkpt>
      <trkpt lat="45.93273" lon="6.86546">
        <ele>1317</ele>
        <time>2026-08-04T05:44:45.278Z</time>
      </trkpt>
      <trkpt lat="45.93274" lon="6.86545">
        <ele>1317</ele>
        <time>2026-08-04T05:44:46.278Z</time>
      </trkpt>
      <trkpt lat="45.93274" lon="6.86545">
        <ele>1318</ele>
        <time>2026-08-04T05:44:47.278Z</time>
      </trkpt>
      <trkpt lat="45.93275" lon="6.86544">
        <ele>1318</ele>
        <time>2026-08-04T05:44:48.278Z</time>
      </trkpt>
      <trkpt lat="45.93275" lon="6.86544">
        <ele>1318</ele>
        <time>2026-08-04T05:44:49.278Z</time>
      </trkpt>
      <trkpt lat="45.93276" lon="6.86543">
        <ele>1318</ele>
        <time>2026-08-04T05:44:50.278Z</time>
      </trkpt>
      <trkpt lat="45.93277" lon="6.86542">
        <ele>1318</ele>
        <time>2026-08-04T05:44:51.278Z</time>
      </trkpt>
      <trkpt lat="45.93279" lon="6.86542">
        <ele>1318</ele>
        <time>2026-08-04T05:44:52.278Z</time>
      </trkpt>
      <trkpt lat="45.9328" lon="6.86542">
        <ele>1319</ele>
        <time>2026-08-04T05:44:53.278Z</time>
      </trkpt>
      <trkpt lat="45.93281" lon="6.86543">
        <ele>1319</ele>
        <time>2026-08-04T05:44:54.278Z</time>
      </trkpt>
      <trkpt lat="45.93283" lon="6.86544">
        <ele>1319</ele>
        <time>2026-08-04T05:44:55.278Z</time>
      </trkpt>
      <trkpt lat="45.93283" lon="6.86545">
        <ele>1319</ele>
        <time>2026-08-04T05:44:56.278Z</time>
      </trkpt>
      <trkpt lat="45.93283" lon="6.86545">
        <ele>1319</ele>
        <time>2026-08-04T05:44:57.278Z</time>
      </trkpt>
      <trkpt lat="45.93284" lon="6.86546">
        <ele>1320</ele>
        <time>2026-08-04T05:44:58.278Z</time>
      </trkpt>
      <trkpt lat="45.93285" lon="6.86546">
        <ele>1320</ele>
        <time>2026-08-04T05:44:59.278Z</time>
      </trkpt>
      <trkpt lat="45.93285" lon="6.86546">
        <ele>1320</ele>
        <time>2026-08-04T05:45:00.278Z</time>
      </trkpt>
      <trkpt lat="45.93285" lon="6.86547">
        <ele>1321</ele>
        <time>2026-08-04T05:45:01.278Z</time>
      </trkpt>
      <trkpt lat="45.93285" lon="6.86547">
        <ele>1322</ele>
        <time>2026-08-04T05:45:02.278Z</time>
      </trkpt>
      <trkpt lat="45.93286" lon="6.86548">
        <ele>1322</ele>
        <time>2026-08-04T05:45:03.278Z</time>
      </trkpt>
      <trkpt lat="45.93287" lon="6.86549">
        <ele>1323</ele>
        <time>2026-08-04T05:45:04.278Z</time>
      </trkpt>
      <trkpt lat="45.93287" lon="6.86549">
        <ele>1323</ele>
        <time>2026-08-04T05:45:05.278Z</time>
      </trkpt>
      <trkpt lat="45.93288" lon="6.8655">
        <ele>1323</ele>
        <time>2026-08-04T05:45:06.278Z</time>
      </trkpt>
      <trkpt lat="45.93289" lon="6.8655">
        <ele>1324</ele>
        <time>2026-08-04T05:45:07.278Z</time>
      </trkpt>
      <trkpt lat="45.9329" lon="6.8655">
        <ele>1324</ele>
        <time>2026-08-04T05:45:08.278Z</time>
      </trkpt>
      <trkpt lat="45.9329" lon="6.86551">
        <ele>1324</ele>
        <time>2026-08-04T05:45:09.278Z</time>
      </trkpt>
      <trkpt lat="45.9329" lon="6.86551">
        <ele>1324</ele>
        <time>2026-08-04T05:45:10.278Z</time>
      </trkpt>
      <trkpt lat="45.93291" lon="6.86551">
        <ele>1324</ele>
        <time>2026-08-04T05:45:11.278Z</time>
      </trkpt>
      <trkpt lat="45.93292" lon="6.86551">
        <ele>1324</ele>
        <time>2026-08-04T05:45:12.278Z</time>
      </trkpt>
      <trkpt lat="45.93292" lon="6.86551">
        <ele>1324</ele>
        <time>2026-08-04T05:45:13.278Z</time>
      </trkpt>
      <trkpt lat="45.93292" lon="6.8655">
        <ele>1324</ele>
        <time>2026-08-04T05:45:14.278Z</time>
      </trkpt>
      <trkpt lat="45.93292" lon="6.8655">
        <ele>1324</ele>
        <time>2026-08-04T05:45:15.278Z</time>
      </trkpt>
      <trkpt lat="45.93293" lon="6.86549">
        <ele>1324</ele>
        <time>2026-08-04T05:45:16.278Z</time>
      </trkpt>
      <trkpt lat="45.93293" lon="6.86548">
        <ele>1323</ele>
        <time>2026-08-04T05:45:17.278Z</time>
      </trkpt>
      <trkpt lat="45.93294" lon="6.86548">
        <ele>1323</ele>
        <time>2026-08-04T05:45:18.278Z</time>
      </trkpt>
      <trkpt lat="45.93295" lon="6.86547">
        <ele>1323</ele>
        <time>2026-08-04T05:45:19.278Z</time>
      </trkpt>
      <trkpt lat="45.93296" lon="6.86547">
        <ele>1323</ele>
        <time>2026-08-04T05:45:20.278Z</time>
      </trkpt>
      <trkpt lat="45.93297" lon="6.86546">
        <ele>1323</ele>
        <time>2026-08-04T05:45:21.278Z</time>
      </trkpt>
      <trkpt lat="45.93298" lon="6.86545">
        <ele>1323</ele>
        <time>2026-08-04T05:45:22.278Z</time>
      </trkpt>
      <trkpt lat="45.93299" lon="6.86543">
        <ele>1323</ele>
        <time>2026-08-04T05:45:23.278Z</time>
      </trkpt>
      <trkpt lat="45.93301" lon="6.86543">
        <ele>1323</ele>
        <time>2026-08-04T05:45:24.278Z</time>
      </trkpt>
      <trkpt lat="45.93303" lon="6.86543">
        <ele>1323</ele>
        <time>2026-08-04T05:45:25.278Z</time>
      </trkpt>
      <trkpt lat="45.93304" lon="6.86542">
        <ele>1324</ele>
        <time>2026-08-04T05:45:26.278Z</time>
      </trkpt>
      <trkpt lat="45.93305" lon="6.86542">
        <ele>1324</ele>
        <time>2026-08-04T05:45:27.278Z</time>
      </trkpt>
      <trkpt lat="45.93306" lon="6.86541">
        <ele>1324</ele>
        <time>2026-08-04T05:45:28.278Z</time>
      </trkpt>
      <trkpt lat="45.93306" lon="6.86539">
        <ele>1325</ele>
        <time>2026-08-04T05:45:29.278Z</time>
      </trkpt>
      <trkpt lat="45.93307" lon="6.86537">
        <ele>1325</ele>
        <time>2026-08-04T05:45:30.278Z</time>
      </trkpt>
      <trkpt lat="45.93308" lon="6.86535">
        <ele>1325</ele>
        <time>2026-08-04T05:45:31.278Z</time>
      </trkpt>
      <trkpt lat="45.93308" lon="6.86533">
        <ele>1325</ele>
        <time>2026-08-04T05:45:32.278Z</time>
      </trkpt>
      <trkpt lat="45.9331" lon="6.86532">
        <ele>1325</ele>
        <time>2026-08-04T05:45:33.278Z</time>
      </trkpt>
      <trkpt lat="45.93311" lon="6.86531">
        <ele>1326</ele>
        <time>2026-08-04T05:45:34.278Z</time>
      </trkpt>
      <trkpt lat="45.93313" lon="6.8653">
        <ele>1326</ele>
        <time>2026-08-04T05:45:35.278Z</time>
      </trkpt>
      <trkpt lat="45.93314" lon="6.86529">
        <ele>1326</ele>
        <time>2026-08-04T05:45:36.278Z</time>
      </trkpt>
      <trkpt lat="45.93314" lon="6.86528">
        <ele>1326</ele>
        <time>2026-08-04T05:45:37.278Z</time>
      </trkpt>
      <trkpt lat="45.93315" lon="6.86528">
        <ele>1327</ele>
        <time>2026-08-04T05:45:38.278Z</time>
      </trkpt>
      <trkpt lat="45.93315" lon="6.86527">
        <ele>1327</ele>
        <time>2026-08-04T05:45:39.278Z</time>
      </trkpt>
      <trkpt lat="45.93316" lon="6.86527">
        <ele>1327</ele>
        <time>2026-08-04T05:45:40.278Z</time>
      </trkpt>
      <trkpt lat="45.93317" lon="6.86527">
        <ele>1327</ele>
        <time>2026-08-04T05:45:41.278Z</time>
      </trkpt>
      <trkpt lat="45.93318" lon="6.86526">
        <ele>1328</ele>
        <time>2026-08-04T05:45:42.278Z</time>
      </trkpt>
      <trkpt lat="45.93319" lon="6.86525">
        <ele>1328</ele>
        <time>2026-08-04T05:45:43.278Z</time>
      </trkpt>
      <trkpt lat="45.9332" lon="6.86525">
        <ele>1329</ele>
        <time>2026-08-04T05:45:44.278Z</time>
      </trkpt>
      <trkpt lat="45.93321" lon="6.86524">
        <ele>1329</ele>
        <time>2026-08-04T05:45:45.278Z</time>
      </trkpt>
      <trkpt lat="45.93321" lon="6.86523">
        <ele>1329</ele>
        <time>2026-08-04T05:45:46.278Z</time>
      </trkpt>
      <trkpt lat="45.93322" lon="6.86522">
        <ele>1330</ele>
        <time>2026-08-04T05:45:47.278Z</time>
      </trkpt>
      <trkpt lat="45.93322" lon="6.86521">
        <ele>1330</ele>
        <time>2026-08-04T05:45:48.278Z</time>
      </trkpt>
      <trkpt lat="45.93323" lon="6.8652">
        <ele>1331</ele>
        <time>2026-08-04T05:45:49.278Z</time>
      </trkpt>
      <trkpt lat="45.93323" lon="6.86519">
        <ele>1331</ele>
        <time>2026-08-04T05:45:50.278Z</time>
      </trkpt>
      <trkpt lat="45.93324" lon="6.86518">
        <ele>1332</ele>
        <time>2026-08-04T05:45:51.278Z</time>
      </trkpt>
      <trkpt lat="45.93325" lon="6.86518">
        <ele>1332</ele>
        <time>2026-08-04T05:45:52.278Z</time>
      </trkpt>
      <trkpt lat="45.93325" lon="6.86518">
        <ele>1333</ele>
        <time>2026-08-04T05:45:53.278Z</time>
      </trkpt>
      <trkpt lat="45.93326" lon="6.86518">
        <ele>1333</ele>
        <time>2026-08-04T05:45:54.278Z</time>
      </trkpt>
      <trkpt lat="45.93328" lon="6.86518">
        <ele>1333</ele>
        <time>2026-08-04T05:45:55.278Z</time>
      </trkpt>
      <trkpt lat="45.93328" lon="6.86518">
        <ele>1334</ele>
        <time>2026-08-04T05:45:56.278Z</time>
      </trkpt>
      <trkpt lat="45.93329" lon="6.86517">
        <ele>1334</ele>
        <time>2026-08-04T05:45:57.278Z</time>
      </trkpt>
      <trkpt lat="45.9333" lon="6.86516">
        <ele>1334</ele>
        <time>2026-08-04T05:45:58.278Z</time>
      </trkpt>
      <trkpt lat="45.93331" lon="6.86514">
        <ele>1334</ele>
        <time>2026-08-04T05:45:59.278Z</time>
      </trkpt>
      <trkpt lat="45.93332" lon="6.86513">
        <ele>1335</ele>
        <time>2026-08-04T05:46:00.278Z</time>
      </trkpt>
      <trkpt lat="45.93333" lon="6.86512">
        <ele>1335</ele>
        <time>2026-08-04T05:46:01.278Z</time>
      </trkpt>
      <trkpt lat="45.93334" lon="6.8651">
        <ele>1335</ele>
        <time>2026-08-04T05:46:02.278Z</time>
      </trkpt>
      <trkpt lat="45.93335" lon="6.86509">
        <ele>1335</ele>
        <time>2026-08-04T05:46:03.278Z</time>
      </trkpt>
      <trkpt lat="45.93336" lon="6.86508">
        <ele>1335</ele>
        <time>2026-08-04T05:46:04.278Z</time>
      </trkpt>
      <trkpt lat="45.93336" lon="6.86508">
        <ele>1335</ele>
        <time>2026-08-04T05:46:05.278Z</time>
      </trkpt>
      <trkpt lat="45.93337" lon="6.86506">
        <ele>1335</ele>
        <time>2026-08-04T05:46:06.278Z</time>
      </trkpt>
      <trkpt lat="45.93337" lon="6.86505">
        <ele>1335</ele>
        <time>2026-08-04T05:46:07.278Z</time>
      </trkpt>
      <trkpt lat="45.93337" lon="6.86505">
        <ele>1335</ele>
        <time>2026-08-04T05:46:08.278Z</time>
      </trkpt>
      <trkpt lat="45.93338" lon="6.86504">
        <ele>1335</ele>
        <time>2026-08-04T05:46:09.278Z</time>
      </trkpt>
      <trkpt lat="45.93339" lon="6.86503">
        <ele>1335</ele>
        <time>2026-08-04T05:46:10.278Z</time>
      </trkpt>
      <trkpt lat="45.9334" lon="6.86502">
        <ele>1335</ele>
        <time>2026-08-04T05:46:11.278Z</time>
      </trkpt>
      <trkpt lat="45.93341" lon="6.86501">
        <ele>1335</ele>
        <time>2026-08-04T05:46:12.278Z</time>
      </trkpt>
      <trkpt lat="45.93342" lon="6.865">
        <ele>1336</ele>
        <time>2026-08-04T05:46:13.278Z</time>
      </trkpt>
      <trkpt lat="45.93343" lon="6.86499">
        <ele>1336</ele>
        <time>2026-08-04T05:46:14.278Z</time>
      </trkpt>
      <trkpt lat="45.93344" lon="6.86499">
        <ele>1336</ele>
        <time>2026-08-04T05:46:15.278Z</time>
      </trkpt>
      <trkpt lat="45.93345" lon="6.86499">
        <ele>1337</ele>
        <time>2026-08-04T05:46:16.278Z</time>
      </trkpt>
      <trkpt lat="45.93346" lon="6.86497">
        <ele>1337</ele>
        <time>2026-08-04T05:46:17.278Z</time>
      </trkpt>
      <trkpt lat="45.93348" lon="6.86496">
        <ele>1337</ele>
        <time>2026-08-04T05:46:18.278Z</time>
      </trkpt>
      <trkpt lat="45.93348" lon="6.86496">
        <ele>1337</ele>
        <time>2026-08-04T05:46:19.278Z</time>
      </trkpt>
      <trkpt lat="45.9335" lon="6.86495">
        <ele>1337</ele>
        <time>2026-08-04T05:46:20.278Z</time>
      </trkpt>
      <trkpt lat="45.9335" lon="6.86495">
        <ele>1338</ele>
        <time>2026-08-04T05:46:21.278Z</time>
      </trkpt>
      <trkpt lat="45.9335" lon="6.86495">
        <ele>1338</ele>
        <time>2026-08-04T05:46:22.278Z</time>
      </trkpt>
      <trkpt lat="45.9335" lon="6.86496">
        <ele>1338</ele>
        <time>2026-08-04T05:46:23.278Z</time>
      </trkpt>
      <trkpt lat="45.9335" lon="6.86496">
        <ele>1339</ele>
        <time>2026-08-04T05:46:24.278Z</time>
      </trkpt>
      <trkpt lat="45.9335" lon="6.86496">
        <ele>1339</ele>
        <time>2026-08-04T05:46:25.278Z</time>
      </trkpt>
      <trkpt lat="45.9335" lon="6.86497">
        <ele>1340</ele>
        <time>2026-08-04T05:46:26.278Z</time>
      </trkpt>
      <trkpt lat="45.9335" lon="6.86498">
        <ele>1340</ele>
        <time>2026-08-04T05:46:27.278Z</time>
      </trkpt>
      <trkpt lat="45.9335" lon="6.86498">
        <ele>1340</ele>
        <time>2026-08-04T05:46:28.278Z</time>
      </trkpt>
      <trkpt lat="45.9335" lon="6.86498">
        <ele>1341</ele>
        <time>2026-08-04T05:46:29.278Z</time>
      </trkpt>
      <trkpt lat="45.93349" lon="6.86499">
        <ele>1341</ele>
        <time>2026-08-04T05:46:30.278Z</time>
      </trkpt>
      <trkpt lat="45.9335" lon="6.86499">
        <ele>1341</ele>
        <time>2026-08-04T05:46:31.278Z</time>
      </trkpt>
      <trkpt lat="45.93349" lon="6.86499">
        <ele>1341</ele>
        <time>2026-08-04T05:46:32.278Z</time>
      </trkpt>
      <trkpt lat="45.9335" lon="6.86499">
        <ele>1341</ele>
        <time>2026-08-04T05:46:33.278Z</time>
      </trkpt>
      <trkpt lat="45.9335" lon="6.86499">
        <ele>1341</ele>
        <time>2026-08-04T05:46:34.278Z</time>
      </trkpt>
      <trkpt lat="45.9335" lon="6.86498">
        <ele>1341</ele>
        <time>2026-08-04T05:46:35.278Z</time>
      </trkpt>
      <trkpt lat="45.9335" lon="6.86498">
        <ele>1342</ele>
        <time>2026-08-04T05:46:36.278Z</time>
      </trkpt>
      <trkpt lat="45.93349" lon="6.86498">
        <ele>1342</ele>
        <time>2026-08-04T05:46:37.278Z</time>
      </trkpt>
      <trkpt lat="45.9335" lon="6.86499">
        <ele>1342</ele>
        <time>2026-08-04T05:46:38.278Z</time>
      </trkpt>
      <trkpt lat="45.9335" lon="6.865">
        <ele>1342</ele>
        <time>2026-08-04T05:46:39.278Z</time>
      </trkpt>
      <trkpt lat="45.9335" lon="6.86501">
        <ele>1342</ele>
        <time>2026-08-04T05:46:40.278Z</time>
      </trkpt>
      <trkpt lat="45.9335" lon="6.86501">
        <ele>1343</ele>
        <time>2026-08-04T05:46:41.278Z</time>
      </trkpt>
      <trkpt lat="45.9335" lon="6.86502">
        <ele>1343</ele>
        <time>2026-08-04T05:46:42.278Z</time>
      </trkpt>
      <trkpt lat="45.9335" lon="6.86502">
        <ele>1343</ele>
        <time>2026-08-04T05:46:43.278Z</time>
      </trkpt>
      <trkpt lat="45.9335" lon="6.86502">
        <ele>1343</ele>
        <time>2026-08-04T05:46:44.278Z</time>
      </trkpt>
      <trkpt lat="45.9335" lon="6.865">
        <ele>1343</ele>
        <time>2026-08-04T05:46:45.278Z</time>
      </trkpt>
      <trkpt lat="45.93351" lon="6.86499">
        <ele>1343</ele>
        <time>2026-08-04T05:46:46.278Z</time>
      </trkpt>
      <trkpt lat="45.93351" lon="6.86497">
        <ele>1343</ele>
        <time>2026-08-04T05:46:47.278Z</time>
      </trkpt>
      <trkpt lat="45.93352" lon="6.86495">
        <ele>1342</ele>
        <time>2026-08-04T05:46:48.278Z</time>
      </trkpt>
      <trkpt lat="45.93353" lon="6.86494">
        <ele>1342</ele>
        <time>2026-08-04T05:46:49.278Z</time>
      </trkpt>
      <trkpt lat="45.93353" lon="6.86492">
        <ele>1341</ele>
        <time>2026-08-04T05:46:50.278Z</time>
      </trkpt>
      <trkpt lat="45.93354" lon="6.86491">
        <ele>1341</ele>
        <time>2026-08-04T05:46:51.278Z</time>
      </trkpt>
      <trkpt lat="45.93354" lon="6.8649">
        <ele>1341</ele>
        <time>2026-08-04T05:46:52.278Z</time>
      </trkpt>
      <trkpt lat="45.93355" lon="6.86489">
        <ele>1340</ele>
        <time>2026-08-04T05:46:53.278Z</time>
      </trkpt>
      <trkpt lat="45.93355" lon="6.86488">
        <ele>1340</ele>
        <time>2026-08-04T05:46:54.278Z</time>
      </trkpt>
      <trkpt lat="45.93356" lon="6.86488">
        <ele>1340</ele>
        <time>2026-08-04T05:46:55.278Z</time>
      </trkpt>
      <trkpt lat="45.93357" lon="6.86488">
        <ele>1340</ele>
        <time>2026-08-04T05:46:56.278Z</time>
      </trkpt>
      <trkpt lat="45.93358" lon="6.86487">
        <ele>1340</ele>
        <time>2026-08-04T05:46:57.278Z</time>
      </trkpt>
      <trkpt lat="45.93359" lon="6.86486">
        <ele>1340</ele>
        <time>2026-08-04T05:46:58.278Z</time>
      </trkpt>
      <trkpt lat="45.93359" lon="6.86486">
        <ele>1340</ele>
        <time>2026-08-04T05:46:59.278Z</time>
      </trkpt>
      <trkpt lat="45.9336" lon="6.86486">
        <ele>1340</ele>
        <time>2026-08-04T05:47:00.278Z</time>
      </trkpt>
      <trkpt lat="45.93361" lon="6.86486">
        <ele>1340</ele>
        <time>2026-08-04T05:47:01.278Z</time>
      </trkpt>
      <trkpt lat="45.93361" lon="6.86486">
        <ele>1341</ele>
        <time>2026-08-04T05:47:02.278Z</time>
      </trkpt>
      <trkpt lat="45.93361" lon="6.86485">
        <ele>1341</ele>
        <time>2026-08-04T05:47:03.278Z</time>
      </trkpt>
      <trkpt lat="45.93361" lon="6.86484">
        <ele>1342</ele>
        <time>2026-08-04T05:47:04.278Z</time>
      </trkpt>
      <trkpt lat="45.9336" lon="6.86483">
        <ele>1342</ele>
        <time>2026-08-04T05:47:05.278Z</time>
      </trkpt>
      <trkpt lat="45.9336" lon="6.86482">
        <ele>1343</ele>
        <time>2026-08-04T05:47:06.278Z</time>
      </trkpt>
      <trkpt lat="45.9336" lon="6.86482">
        <ele>1343</ele>
        <time>2026-08-04T05:47:07.278Z</time>
      </trkpt>
      <trkpt lat="45.9336" lon="6.86482">
        <ele>1344</ele>
        <time>2026-08-04T05:47:08.278Z</time>
      </trkpt>
      <trkpt lat="45.9336" lon="6.86482">
        <ele>1345</ele>
        <time>2026-08-04T05:47:09.278Z</time>
      </trkpt>
      <trkpt lat="45.9336" lon="6.86482">
        <ele>1345</ele>
        <time>2026-08-04T05:47:10.278Z</time>
      </trkpt>
      <trkpt lat="45.93361" lon="6.86483">
        <ele>1346</ele>
        <time>2026-08-04T05:47:11.278Z</time>
      </trkpt>
      <trkpt lat="45.93362" lon="6.86483">
        <ele>1346</ele>
        <time>2026-08-04T05:47:12.278Z</time>
      </trkpt>
      <trkpt lat="45.93364" lon="6.86484">
        <ele>1346</ele>
        <time>2026-08-04T05:47:13.278Z</time>
      </trkpt>
      <trkpt lat="45.93365" lon="6.86484">
        <ele>1346</ele>
        <time>2026-08-04T05:47:14.278Z</time>
      </trkpt>
      <trkpt lat="45.93366" lon="6.86483">
        <ele>1346</ele>
        <time>2026-08-04T05:47:15.278Z</time>
      </trkpt>
      <trkpt lat="45.93368" lon="6.86482">
        <ele>1346</ele>
        <time>2026-08-04T05:47:16.278Z</time>
      </trkpt>
      <trkpt lat="45.93369" lon="6.86481">
        <ele>1346</ele>
        <time>2026-08-04T05:47:17.278Z</time>
      </trkpt>
      <trkpt lat="45.93371" lon="6.86479">
        <ele>1346</ele>
        <time>2026-08-04T05:47:18.278Z</time>
      </trkpt>
      <trkpt lat="45.93373" lon="6.86477">
        <ele>1345</ele>
        <time>2026-08-04T05:47:19.278Z</time>
      </trkpt>
      <trkpt lat="45.93375" lon="6.86475">
        <ele>1345</ele>
        <time>2026-08-04T05:47:20.278Z</time>
      </trkpt>
      <trkpt lat="45.93376" lon="6.86474">
        <ele>1344</ele>
        <time>2026-08-04T05:47:21.278Z</time>
      </trkpt>
      <trkpt lat="45.93377" lon="6.86473">
        <ele>1343</ele>
        <time>2026-08-04T05:47:22.278Z</time>
      </trkpt>
      <trkpt lat="45.93379" lon="6.86472">
        <ele>1343</ele>
        <time>2026-08-04T05:47:23.278Z</time>
      </trkpt>
      <trkpt lat="45.9338" lon="6.86471">
        <ele>1342</ele>
        <time>2026-08-04T05:47:24.278Z</time>
      </trkpt>
      <trkpt lat="45.93381" lon="6.86469">
        <ele>1342</ele>
        <time>2026-08-04T05:47:25.278Z</time>
      </trkpt>
      <trkpt lat="45.93382" lon="6.86468">
        <ele>1341</ele>
        <time>2026-08-04T05:47:26.278Z</time>
      </trkpt>
      <trkpt lat="45.93383" lon="6.86467">
        <ele>1341</ele>
        <time>2026-08-04T05:47:27.278Z</time>
      </trkpt>
      <trkpt lat="45.93385" lon="6.86467">
        <ele>1340</ele>
        <time>2026-08-04T05:47:28.278Z</time>
      </trkpt>
      <trkpt lat="45.93385" lon="6.86466">
        <ele>1340</ele>
        <time>2026-08-04T05:47:29.278Z</time>
      </trkpt>
      <trkpt lat="45.93386" lon="6.86465">
        <ele>1339</ele>
        <time>2026-08-04T05:47:30.278Z</time>
      </trkpt>
      <trkpt lat="45.93387" lon="6.86463">
        <ele>1339</ele>
        <time>2026-08-04T05:47:31.278Z</time>
      </trkpt>
      <trkpt lat="45.93388" lon="6.86462">
        <ele>1339</ele>
        <time>2026-08-04T05:47:32.278Z</time>
      </trkpt>
      <trkpt lat="45.93389" lon="6.86462">
        <ele>1338</ele>
        <time>2026-08-04T05:47:33.278Z</time>
      </trkpt>
      <trkpt lat="45.93389" lon="6.86461">
        <ele>1338</ele>
        <time>2026-08-04T05:47:34.278Z</time>
      </trkpt>
      <trkpt lat="45.9339" lon="6.8646">
        <ele>1338</ele>
        <time>2026-08-04T05:47:35.278Z</time>
      </trkpt>
      <trkpt lat="45.93391" lon="6.8646">
        <ele>1338</ele>
        <time>2026-08-04T05:47:36.278Z</time>
      </trkpt>
      <trkpt lat="45.93391" lon="6.86458">
        <ele>1338</ele>
        <time>2026-08-04T05:47:37.278Z</time>
      </trkpt>
      <trkpt lat="45.93391" lon="6.86456">
        <ele>1338</ele>
        <time>2026-08-04T05:47:38.278Z</time>
      </trkpt>
      <trkpt lat="45.93391" lon="6.86455">
        <ele>1338</ele>
        <time>2026-08-04T05:47:39.278Z</time>
      </trkpt>
      <trkpt lat="45.93391" lon="6.86454">
        <ele>1337</ele>
        <time>2026-08-04T05:47:40.278Z</time>
      </trkpt>
      <trkpt lat="45.93391" lon="6.86453">
        <ele>1337</ele>
        <time>2026-08-04T05:47:41.278Z</time>
      </trkpt>
      <trkpt lat="45.93392" lon="6.86453">
        <ele>1338</ele>
        <time>2026-08-04T05:47:42.278Z</time>
      </trkpt>
      <trkpt lat="45.93393" lon="6.86452">
        <ele>1338</ele>
        <time>2026-08-04T05:47:43.278Z</time>
      </trkpt>
      <trkpt lat="45.93394" lon="6.86452">
        <ele>1338</ele>
        <time>2026-08-04T05:47:44.278Z</time>
      </trkpt>
      <trkpt lat="45.93395" lon="6.86451">
        <ele>1339</ele>
        <time>2026-08-04T05:47:45.278Z</time>
      </trkpt>
      <trkpt lat="45.93396" lon="6.86451">
        <ele>1339</ele>
        <time>2026-08-04T05:47:46.278Z</time>
      </trkpt>
      <trkpt lat="45.93397" lon="6.86451">
        <ele>1339</ele>
        <time>2026-08-04T05:47:47.278Z</time>
      </trkpt>
      <trkpt lat="45.93398" lon="6.86449">
        <ele>1340</ele>
        <time>2026-08-04T05:47:48.278Z</time>
      </trkpt>
      <trkpt lat="45.93399" lon="6.86448">
        <ele>1340</ele>
        <time>2026-08-04T05:47:49.278Z</time>
      </trkpt>
      <trkpt lat="45.934" lon="6.86448">
        <ele>1340</ele>
        <time>2026-08-04T05:47:50.278Z</time>
      </trkpt>
      <trkpt lat="45.93401" lon="6.86447">
        <ele>1341</ele>
        <time>2026-08-04T05:47:51.278Z</time>
      </trkpt>
      <trkpt lat="45.93403" lon="6.86446">
        <ele>1341</ele>
        <time>2026-08-04T05:47:52.278Z</time>
      </trkpt>
      <trkpt lat="45.93404" lon="6.86445">
        <ele>1341</ele>
        <time>2026-08-04T05:47:53.278Z</time>
      </trkpt>
      <trkpt lat="45.93404" lon="6.86444">
        <ele>1341</ele>
        <time>2026-08-04T05:47:54.278Z</time>
      </trkpt>
      <trkpt lat="45.93405" lon="6.86443">
        <ele>1341</ele>
        <time>2026-08-04T05:47:55.278Z</time>
      </trkpt>
      <trkpt lat="45.93406" lon="6.86443">
        <ele>1341</ele>
        <time>2026-08-04T05:47:56.278Z</time>
      </trkpt>
      <trkpt lat="45.93409" lon="6.86442">
        <ele>1341</ele>
        <time>2026-08-04T05:47:57.278Z</time>
      </trkpt>
      <trkpt lat="45.93411" lon="6.86442">
        <ele>1341</ele>
        <time>2026-08-04T05:47:58.278Z</time>
      </trkpt>
      <trkpt lat="45.93413" lon="6.86442">
        <ele>1341</ele>
        <time>2026-08-04T05:47:59.278Z</time>
      </trkpt>
      <trkpt lat="45.93414" lon="6.86441">
        <ele>1341</ele>
        <time>2026-08-04T05:48:00.278Z</time>
      </trkpt>
      <trkpt lat="45.93414" lon="6.86441">
        <ele>1341</ele>
        <time>2026-08-04T05:48:01.278Z</time>
      </trkpt>
      <trkpt lat="45.93415" lon="6.86441">
        <ele>1341</ele>
        <time>2026-08-04T05:48:02.278Z</time>
      </trkpt>
      <trkpt lat="45.93416" lon="6.86441">
        <ele>1342</ele>
        <time>2026-08-04T05:48:03.278Z</time>
      </trkpt>
      <trkpt lat="45.93417" lon="6.8644">
        <ele>1342</ele>
        <time>2026-08-04T05:48:04.278Z</time>
      </trkpt>
      <trkpt lat="45.93417" lon="6.8644">
        <ele>1342</ele>
        <time>2026-08-04T05:48:05.278Z</time>
      </trkpt>
      <trkpt lat="45.93418" lon="6.86439">
        <ele>1342</ele>
        <time>2026-08-04T05:48:06.278Z</time>
      </trkpt>
      <trkpt lat="45.93419" lon="6.86439">
        <ele>1343</ele>
        <time>2026-08-04T05:48:07.278Z</time>
      </trkpt>
      <trkpt lat="45.93421" lon="6.86439">
        <ele>1343</ele>
        <time>2026-08-04T05:48:08.278Z</time>
      </trkpt>
      <trkpt lat="45.93422" lon="6.86438">
        <ele>1344</ele>
        <time>2026-08-04T05:48:09.278Z</time>
      </trkpt>
      <trkpt lat="45.93423" lon="6.86438">
        <ele>1344</ele>
        <time>2026-08-04T05:48:10.278Z</time>
      </trkpt>
      <trkpt lat="45.93424" lon="6.86438">
        <ele>1345</ele>
        <time>2026-08-04T05:48:11.278Z</time>
      </trkpt>
      <trkpt lat="45.93425" lon="6.86437">
        <ele>1345</ele>
        <time>2026-08-04T05:48:12.278Z</time>
      </trkpt>
      <trkpt lat="45.93426" lon="6.86435">
        <ele>1345</ele>
        <time>2026-08-04T05:48:13.278Z</time>
      </trkpt>
      <trkpt lat="45.93427" lon="6.86435">
        <ele>1346</ele>
        <time>2026-08-04T05:48:14.278Z</time>
      </trkpt>
      <trkpt lat="45.93427" lon="6.86434">
        <ele>1346</ele>
        <time>2026-08-04T05:48:15.278Z</time>
      </trkpt>
      <trkpt lat="45.93428" lon="6.86434">
        <ele>1346</ele>
        <time>2026-08-04T05:48:16.278Z</time>
      </trkpt>
      <trkpt lat="45.93429" lon="6.86434">
        <ele>1346</ele>
        <time>2026-08-04T05:48:17.278Z</time>
      </trkpt>
      <trkpt lat="45.9343" lon="6.86434">
        <ele>1346</ele>
        <time>2026-08-04T05:48:18.278Z</time>
      </trkpt>
      <trkpt lat="45.93431" lon="6.86433">
        <ele>1346</ele>
        <time>2026-08-04T05:48:19.278Z</time>
      </trkpt>
      <trkpt lat="45.93431" lon="6.86433">
        <ele>1347</ele>
        <time>2026-08-04T05:48:20.278Z</time>
      </trkpt>
      <trkpt lat="45.93432" lon="6.86433">
        <ele>1347</ele>
        <time>2026-08-04T05:48:21.278Z</time>
      </trkpt>
      <trkpt lat="45.93432" lon="6.86432">
        <ele>1347</ele>
        <time>2026-08-04T05:48:22.278Z</time>
      </trkpt>
      <trkpt lat="45.93432" lon="6.86432">
        <ele>1347</ele>
        <time>2026-08-04T05:48:23.278Z</time>
      </trkpt>
      <trkpt lat="45.93433" lon="6.86431">
        <ele>1348</ele>
        <time>2026-08-04T05:48:24.278Z</time>
      </trkpt>
      <trkpt lat="45.93434" lon="6.86431">
        <ele>1348</ele>
        <time>2026-08-04T05:48:25.278Z</time>
      </trkpt>
      <trkpt lat="45.93434" lon="6.86431">
        <ele>1349</ele>
        <time>2026-08-04T05:48:26.278Z</time>
      </trkpt>
      <trkpt lat="45.93435" lon="6.86431">
        <ele>1349</ele>
        <time>2026-08-04T05:48:27.278Z</time>
      </trkpt>
      <trkpt lat="45.93436" lon="6.86431">
        <ele>1350</ele>
        <time>2026-08-04T05:48:28.278Z</time>
      </trkpt>
      <trkpt lat="45.93437" lon="6.8643">
        <ele>1351</ele>
        <time>2026-08-04T05:48:29.278Z</time>
      </trkpt>
      <trkpt lat="45.93437" lon="6.86429">
        <ele>1352</ele>
        <time>2026-08-04T05:48:30.278Z</time>
      </trkpt>
      <trkpt lat="45.93438" lon="6.86428">
        <ele>1352</ele>
        <time>2026-08-04T05:48:31.278Z</time>
      </trkpt>
      <trkpt lat="45.93439" lon="6.86427">
        <ele>1353</ele>
        <time>2026-08-04T05:48:32.278Z</time>
      </trkpt>
      <trkpt lat="45.9344" lon="6.86426">
        <ele>1353</ele>
        <time>2026-08-04T05:48:33.278Z</time>
      </trkpt>
      <trkpt lat="45.93441" lon="6.86425">
        <ele>1354</ele>
        <time>2026-08-04T05:48:34.278Z</time>
      </trkpt>
      <trkpt lat="45.93442" lon="6.86423">
        <ele>1354</ele>
        <time>2026-08-04T05:48:35.278Z</time>
      </trkpt>
      <trkpt lat="45.93443" lon="6.86422">
        <ele>1354</ele>
        <time>2026-08-04T05:48:36.278Z</time>
      </trkpt>
      <trkpt lat="45.93445" lon="6.86422">
        <ele>1354</ele>
        <time>2026-08-04T05:48:37.278Z</time>
      </trkpt>
      <trkpt lat="45.93446" lon="6.86421">
        <ele>1355</ele>
        <time>2026-08-04T05:48:38.278Z</time>
      </trkpt>
      <trkpt lat="45.93448" lon="6.8642">
        <ele>1355</ele>
        <time>2026-08-04T05:48:39.278Z</time>
      </trkpt>
      <trkpt lat="45.93449" lon="6.86419">
        <ele>1356</ele>
        <time>2026-08-04T05:48:40.278Z</time>
      </trkpt>
      <trkpt lat="45.9345" lon="6.86418">
        <ele>1356</ele>
        <time>2026-08-04T05:48:41.278Z</time>
      </trkpt>
      <trkpt lat="45.93451" lon="6.86418">
        <ele>1357</ele>
        <time>2026-08-04T05:48:42.278Z</time>
      </trkpt>
      <trkpt lat="45.93451" lon="6.86417">
        <ele>1357</ele>
        <time>2026-08-04T05:48:43.278Z</time>
      </trkpt>
      <trkpt lat="45.93453" lon="6.86416">
        <ele>1357</ele>
        <time>2026-08-04T05:48:44.278Z</time>
      </trkpt>
      <trkpt lat="45.93454" lon="6.86415">
        <ele>1356</ele>
        <time>2026-08-04T05:48:45.278Z</time>
      </trkpt>
      <trkpt lat="45.93455" lon="6.86415">
        <ele>1356</ele>
        <time>2026-08-04T05:48:46.278Z</time>
      </trkpt>
      <trkpt lat="45.93456" lon="6.86415">
        <ele>1356</ele>
        <time>2026-08-04T05:48:47.278Z</time>
      </trkpt>
      <trkpt lat="45.93458" lon="6.86415">
        <ele>1356</ele>
        <time>2026-08-04T05:48:48.278Z</time>
      </trkpt>
      <trkpt lat="45.93459" lon="6.86414">
        <ele>1355</ele>
        <time>2026-08-04T05:48:49.278Z</time>
      </trkpt>
      <trkpt lat="45.9346" lon="6.86414">
        <ele>1355</ele>
        <time>2026-08-04T05:48:50.278Z</time>
      </trkpt>
      <trkpt lat="45.93462" lon="6.86415">
        <ele>1354</ele>
        <time>2026-08-04T05:48:51.279Z</time>
      </trkpt>
      <trkpt lat="45.93462" lon="6.86415">
        <ele>1354</ele>
        <time>2026-08-04T05:48:52.278Z</time>
      </trkpt>
      <trkpt lat="45.93463" lon="6.86415">
        <ele>1353</ele>
        <time>2026-08-04T05:48:53.278Z</time>
      </trkpt>
      <trkpt lat="45.93463" lon="6.86415">
        <ele>1353</ele>
        <time>2026-08-04T05:48:54.278Z</time>
      </trkpt>
      <trkpt lat="45.93463" lon="6.86415">
        <ele>1352</ele>
        <time>2026-08-04T05:48:55.278Z</time>
      </trkpt>
      <trkpt lat="45.93464" lon="6.86416">
        <ele>1352</ele>
        <time>2026-08-04T05:48:56.278Z</time>
      </trkpt>
      <trkpt lat="45.93465" lon="6.86416">
        <ele>1352</ele>
        <time>2026-08-04T05:48:57.278Z</time>
      </trkpt>
      <trkpt lat="45.93466" lon="6.86417">
        <ele>1351</ele>
        <time>2026-08-04T05:48:58.278Z</time>
      </trkpt>
      <trkpt lat="45.93467" lon="6.86418">
        <ele>1351</ele>
        <time>2026-08-04T05:48:59.278Z</time>
      </trkpt>
      <trkpt lat="45.93467" lon="6.86418">
        <ele>1351</ele>
        <time>2026-08-04T05:49:00.278Z</time>
      </trkpt>
      <trkpt lat="45.93467" lon="6.86418">
        <ele>1350</ele>
        <time>2026-08-04T05:49:01.278Z</time>
      </trkpt>
      <trkpt lat="45.93468" lon="6.86419">
        <ele>1350</ele>
        <time>2026-08-04T05:49:02.278Z</time>
      </trkpt>
      <trkpt lat="45.93468" lon="6.8642">
        <ele>1350</ele>
        <time>2026-08-04T05:49:03.278Z</time>
      </trkpt>
      <trkpt lat="45.93469" lon="6.86421">
        <ele>1350</ele>
        <time>2026-08-04T05:49:04.278Z</time>
      </trkpt>
      <trkpt lat="45.9347" lon="6.86422">
        <ele>1350</ele>
        <time>2026-08-04T05:49:05.278Z</time>
      </trkpt>
      <trkpt lat="45.93471" lon="6.86423">
        <ele>1349</ele>
        <time>2026-08-04T05:49:06.278Z</time>
      </trkpt>
      <trkpt lat="45.93472" lon="6.86424">
        <ele>1349</ele>
        <time>2026-08-04T05:49:07.278Z</time>
      </trkpt>
      <trkpt lat="45.93472" lon="6.86426">
        <ele>1349</ele>
        <time>2026-08-04T05:49:08.278Z</time>
      </trkpt>
      <trkpt lat="45.93473" lon="6.86428">
        <ele>1349</ele>
        <time>2026-08-04T05:49:09.278Z</time>
      </trkpt>
      <trkpt lat="45.93474" lon="6.86429">
        <ele>1350</ele>
        <time>2026-08-04T05:49:10.278Z</time>
      </trkpt>
      <trkpt lat="45.93475" lon="6.8643">
        <ele>1350</ele>
        <time>2026-08-04T05:49:11.278Z</time>
      </trkpt>
      <trkpt lat="45.93476" lon="6.86431">
        <ele>1350</ele>
        <time>2026-08-04T05:49:12.278Z</time>
      </trkpt>
      <trkpt lat="45.93477" lon="6.86433">
        <ele>1350</ele>
        <time>2026-08-04T05:49:13.278Z</time>
      </trkpt>
      <trkpt lat="45.93478" lon="6.86434">
        <ele>1350</ele>
        <time>2026-08-04T05:49:14.278Z</time>
      </trkpt>
      <trkpt lat="45.93479" lon="6.86435">
        <ele>1350</ele>
        <time>2026-08-04T05:49:15.278Z</time>
      </trkpt>
      <trkpt lat="45.93479" lon="6.86436">
        <ele>1351</ele>
        <time>2026-08-04T05:49:16.278Z</time>
      </trkpt>
      <trkpt lat="45.9348" lon="6.86436">
        <ele>1351</ele>
        <time>2026-08-04T05:49:17.278Z</time>
      </trkpt>
      <trkpt lat="45.93481" lon="6.86436">
        <ele>1351</ele>
        <time>2026-08-04T05:49:18.278Z</time>
      </trkpt>
      <trkpt lat="45.93483" lon="6.86436">
        <ele>1351</ele>
        <time>2026-08-04T05:49:19.278Z</time>
      </trkpt>
      <trkpt lat="45.93484" lon="6.86436">
        <ele>1351</ele>
        <time>2026-08-04T05:49:20.278Z</time>
      </trkpt>
      <trkpt lat="45.93485" lon="6.86437">
        <ele>1351</ele>
        <time>2026-08-04T05:49:21.278Z</time>
      </trkpt>
      <trkpt lat="45.93486" lon="6.86437">
        <ele>1351</ele>
        <time>2026-08-04T05:49:22.278Z</time>
      </trkpt>
      <trkpt lat="45.93487" lon="6.86438">
        <ele>1351</ele>
        <time>2026-08-04T05:49:23.278Z</time>
      </trkpt>
      <trkpt lat="45.93489" lon="6.86439">
        <ele>1352</ele>
        <time>2026-08-04T05:49:24.278Z</time>
      </trkpt>
      <trkpt lat="45.9349" lon="6.86439">
        <ele>1352</ele>
        <time>2026-08-04T05:49:25.278Z</time>
      </trkpt>
      <trkpt lat="45.93491" lon="6.8644">
        <ele>1352</ele>
        <time>2026-08-04T05:49:26.278Z</time>
      </trkpt>
      <trkpt lat="45.93492" lon="6.86441">
        <ele>1353</ele>
        <time>2026-08-04T05:49:27.278Z</time>
      </trkpt>
      <trkpt lat="45.93492" lon="6.86442">
        <ele>1353</ele>
        <time>2026-08-04T05:49:28.278Z</time>
      </trkpt>
      <trkpt lat="45.93493" lon="6.86443">
        <ele>1353</ele>
        <time>2026-08-04T05:49:29.278Z</time>
      </trkpt>
      <trkpt lat="45.93493" lon="6.86443">
        <ele>1353</ele>
        <time>2026-08-04T05:49:30.278Z</time>
      </trkpt>
      <trkpt lat="45.93493" lon="6.86444">
        <ele>1354</ele>
        <time>2026-08-04T05:49:31.278Z</time>
      </trkpt>
      <trkpt lat="45.93492" lon="6.86445">
        <ele>1354</ele>
        <time>2026-08-04T05:49:32.278Z</time>
      </trkpt>
      <trkpt lat="45.93492" lon="6.86446">
        <ele>1354</ele>
        <time>2026-08-04T05:49:33.278Z</time>
      </trkpt>
      <trkpt lat="45.93492" lon="6.86448">
        <ele>1354</ele>
        <time>2026-08-04T05:49:34.278Z</time>
      </trkpt>
      <trkpt lat="45.93493" lon="6.8645">
        <ele>1355</ele>
        <time>2026-08-04T05:49:35.278Z</time>
      </trkpt>
      <trkpt lat="45.93493" lon="6.86451">
        <ele>1355</ele>
        <time>2026-08-04T05:49:36.278Z</time>
      </trkpt>
      <trkpt lat="45.93493" lon="6.86453">
        <ele>1355</ele>
        <time>2026-08-04T05:49:37.278Z</time>
      </trkpt>
      <trkpt lat="45.93494" lon="6.86454">
        <ele>1355</ele>
        <time>2026-08-04T05:49:38.278Z</time>
      </trkpt>
      <trkpt lat="45.93495" lon="6.86455">
        <ele>1355</ele>
        <time>2026-08-04T05:49:39.278Z</time>
      </trkpt>
      <trkpt lat="45.93496" lon="6.86456">
        <ele>1355</ele>
        <time>2026-08-04T05:49:40.278Z</time>
      </trkpt>
      <trkpt lat="45.93497" lon="6.86457">
        <ele>1356</ele>
        <time>2026-08-04T05:49:41.278Z</time>
      </trkpt>
      <trkpt lat="45.93498" lon="6.86458">
        <ele>1356</ele>
        <time>2026-08-04T05:49:42.278Z</time>
      </trkpt>
      <trkpt lat="45.93499" lon="6.86459">
        <ele>1356</ele>
        <time>2026-08-04T05:49:43.278Z</time>
      </trkpt>
      <trkpt lat="45.935" lon="6.8646">
        <ele>1356</ele>
        <time>2026-08-04T05:49:44.278Z</time>
      </trkpt>
      <trkpt lat="45.93499" lon="6.8646">
        <ele>1357</ele>
        <time>2026-08-04T05:49:45.278Z</time>
      </trkpt>
      <trkpt lat="45.935" lon="6.86461">
        <ele>1357</ele>
        <time>2026-08-04T05:49:46.278Z</time>
      </trkpt>
      <trkpt lat="45.935" lon="6.86463">
        <ele>1357</ele>
        <time>2026-08-04T05:49:47.278Z</time>
      </trkpt>
      <trkpt lat="45.935" lon="6.86464">
        <ele>1357</ele>
        <time>2026-08-04T05:49:48.278Z</time>
      </trkpt>
      <trkpt lat="45.93501" lon="6.86465">
        <ele>1357</ele>
        <time>2026-08-04T05:49:49.278Z</time>
      </trkpt>
      <trkpt lat="45.93501" lon="6.86465">
        <ele>1358</ele>
        <time>2026-08-04T05:49:50.278Z</time>
      </trkpt>
      <trkpt lat="45.93501" lon="6.86466">
        <ele>1358</ele>
        <time>2026-08-04T05:49:51.278Z</time>
      </trkpt>
      <trkpt lat="45.93502" lon="6.86467">
        <ele>1358</ele>
        <time>2026-08-04T05:49:52.278Z</time>
      </trkpt>
      <trkpt lat="45.93503" lon="6.86467">
        <ele>1358</ele>
        <time>2026-08-04T05:49:53.278Z</time>
      </trkpt>
      <trkpt lat="45.93503" lon="6.86468">
        <ele>1358</ele>
        <time>2026-08-04T05:49:54.278Z</time>
      </trkpt>
      <trkpt lat="45.93504" lon="6.86469">
        <ele>1359</ele>
        <time>2026-08-04T05:49:55.278Z</time>
      </trkpt>
      <trkpt lat="45.93504" lon="6.8647">
        <ele>1359</ele>
        <time>2026-08-04T05:49:56.278Z</time>
      </trkpt>
      <trkpt lat="45.93505" lon="6.86471">
        <ele>1359</ele>
        <time>2026-08-04T05:49:57.278Z</time>
      </trkpt>
      <trkpt lat="45.93505" lon="6.86472">
        <ele>1359</ele>
        <time>2026-08-04T05:49:58.278Z</time>
      </trkpt>
      <trkpt lat="45.93505" lon="6.86473">
        <ele>1360</ele>
        <time>2026-08-04T05:49:59.278Z</time>
      </trkpt>
      <trkpt lat="45.93506" lon="6.86474">
        <ele>1360</ele>
        <time>2026-08-04T05:50:00.278Z</time>
      </trkpt>
      <trkpt lat="45.93506" lon="6.86475">
        <ele>1361</ele>
        <time>2026-08-04T05:50:01.278Z</time>
      </trkpt>
      <trkpt lat="45.93507" lon="6.86476">
        <ele>1361</ele>
        <time>2026-08-04T05:50:02.278Z</time>
      </trkpt>
      <trkpt lat="45.93508" lon="6.86477">
        <ele>1362</ele>
        <time>2026-08-04T05:50:03.278Z</time>
      </trkpt>
      <trkpt lat="45.9351" lon="6.86478">
        <ele>1362</ele>
        <time>2026-08-04T05:50:04.278Z</time>
      </trkpt>
      <trkpt lat="45.93511" lon="6.86479">
        <ele>1363</ele>
        <time>2026-08-04T05:50:05.278Z</time>
      </trkpt>
      <trkpt lat="45.93512" lon="6.8648">
        <ele>1363</ele>
        <time>2026-08-04T05:50:06.278Z</time>
      </trkpt>
      <trkpt lat="45.93513" lon="6.86481">
        <ele>1364</ele>
        <time>2026-08-04T05:50:07.278Z</time>
      </trkpt>
      <trkpt lat="45.93514" lon="6.86483">
        <ele>1364</ele>
        <time>2026-08-04T05:50:08.278Z</time>
      </trkpt>
      <trkpt lat="45.93515" lon="6.86484">
        <ele>1364</ele>
        <time>2026-08-04T05:50:09.278Z</time>
      </trkpt>
      <trkpt lat="45.93516" lon="6.86486">
        <ele>1365</ele>
        <time>2026-08-04T05:50:10.278Z</time>
      </trkpt>
      <trkpt lat="45.93516" lon="6.86486">
        <ele>1365</ele>
        <time>2026-08-04T05:50:11.278Z</time>
      </trkpt>
      <trkpt lat="45.93517" lon="6.86486">
        <ele>1365</ele>
        <time>2026-08-04T05:50:12.278Z</time>
      </trkpt>
      <trkpt lat="45.93518" lon="6.86487">
        <ele>1366</ele>
        <time>2026-08-04T05:50:13.278Z</time>
      </trkpt>
      <trkpt lat="45.93518" lon="6.86487">
        <ele>1366</ele>
        <time>2026-08-04T05:50:14.278Z</time>
      </trkpt>
      <trkpt lat="45.93519" lon="6.86487">
        <ele>1366</ele>
        <time>2026-08-04T05:50:15.278Z</time>
      </trkpt>
      <trkpt lat="45.93519" lon="6.86487">
        <ele>1366</ele>
        <time>2026-08-04T05:50:16.278Z</time>
      </trkpt>
      <trkpt lat="45.9352" lon="6.86489">
        <ele>1366</ele>
        <time>2026-08-04T05:50:17.278Z</time>
      </trkpt>
      <trkpt lat="45.93521" lon="6.8649">
        <ele>1367</ele>
        <time>2026-08-04T05:50:18.278Z</time>
      </trkpt>
      <trkpt lat="45.93521" lon="6.86491">
        <ele>1367</ele>
        <time>2026-08-04T05:50:19.278Z</time>
      </trkpt>
      <trkpt lat="45.93522" lon="6.86491">
        <ele>1367</ele>
        <time>2026-08-04T05:50:20.278Z</time>
      </trkpt>
      <trkpt lat="45.93522" lon="6.86491">
        <ele>1367</ele>
        <time>2026-08-04T05:50:21.278Z</time>
      </trkpt>
      <trkpt lat="45.93523" lon="6.86492">
        <ele>1368</ele>
        <time>2026-08-04T05:50:22.278Z</time>
      </trkpt>
      <trkpt lat="45.93523" lon="6.86493">
        <ele>1368</ele>
        <time>2026-08-04T05:50:23.278Z</time>
      </trkpt>
      <trkpt lat="45.93524" lon="6.86495">
        <ele>1368</ele>
        <time>2026-08-04T05:50:24.278Z</time>
      </trkpt>
      <trkpt lat="45.93525" lon="6.86496">
        <ele>1368</ele>
        <time>2026-08-04T05:50:25.278Z</time>
      </trkpt>
      <trkpt lat="45.93526" lon="6.86498">
        <ele>1368</ele>
        <time>2026-08-04T05:50:26.278Z</time>
      </trkpt>
      <trkpt lat="45.93525" lon="6.865">
        <ele>1369</ele>
        <time>2026-08-04T05:50:27.278Z</time>
      </trkpt>
      <trkpt lat="45.93525" lon="6.86501">
        <ele>1369</ele>
        <time>2026-08-04T05:50:28.278Z</time>
      </trkpt>
      <trkpt lat="45.93525" lon="6.86502">
        <ele>1369</ele>
        <time>2026-08-04T05:50:29.278Z</time>
      </trkpt>
      <trkpt lat="45.93526" lon="6.86503">
        <ele>1369</ele>
        <time>2026-08-04T05:50:30.278Z</time>
      </trkpt>
      <trkpt lat="45.93526" lon="6.86504">
        <ele>1369</ele>
        <time>2026-08-04T05:50:31.278Z</time>
      </trkpt>
      <trkpt lat="45.93527" lon="6.86505">
        <ele>1369</ele>
        <time>2026-08-04T05:50:32.278Z</time>
      </trkpt>
      <trkpt lat="45.93527" lon="6.86506">
        <ele>1369</ele>
        <time>2026-08-04T05:50:33.278Z</time>
      </trkpt>
      <trkpt lat="45.93527" lon="6.86506">
        <ele>1370</ele>
        <time>2026-08-04T05:50:34.278Z</time>
      </trkpt>
      <trkpt lat="45.93527" lon="6.86505">
        <ele>1370</ele>
        <time>2026-08-04T05:50:35.278Z</time>
      </trkpt>
      <trkpt lat="45.93527" lon="6.86505">
        <ele>1370</ele>
        <time>2026-08-04T05:50:36.278Z</time>
      </trkpt>
      <trkpt lat="45.93527" lon="6.86505">
        <ele>1371</ele>
        <time>2026-08-04T05:50:37.278Z</time>
      </trkpt>
      <trkpt lat="45.93527" lon="6.86505">
        <ele>1371</ele>
        <time>2026-08-04T05:50:38.278Z</time>
      </trkpt>
      <trkpt lat="45.93528" lon="6.86506">
        <ele>1371</ele>
        <time>2026-08-04T05:50:39.278Z</time>
      </trkpt>
      <trkpt lat="45.93528" lon="6.86506">
        <ele>1372</ele>
        <time>2026-08-04T05:50:40.278Z</time>
      </trkpt>
      <trkpt lat="45.93529" lon="6.86507">
        <ele>1372</ele>
        <time>2026-08-04T05:50:41.278Z</time>
      </trkpt>
      <trkpt lat="45.93529" lon="6.86508">
        <ele>1372</ele>
        <time>2026-08-04T05:50:42.278Z</time>
      </trkpt>
      <trkpt lat="45.9353" lon="6.86508">
        <ele>1372</ele>
        <time>2026-08-04T05:50:43.278Z</time>
      </trkpt>
      <trkpt lat="45.93531" lon="6.86509">
        <ele>1372</ele>
        <time>2026-08-04T05:50:44.278Z</time>
      </trkpt>
      <trkpt lat="45.93532" lon="6.86511">
        <ele>1372</ele>
        <time>2026-08-04T05:50:45.278Z</time>
      </trkpt>
      <trkpt lat="45.93533" lon="6.86511">
        <ele>1372</ele>
        <time>2026-08-04T05:50:46.278Z</time>
      </trkpt>
      <trkpt lat="45.93534" lon="6.86512">
        <ele>1372</ele>
        <time>2026-08-04T05:50:47.278Z</time>
      </trkpt>
      <trkpt lat="45.93535" lon="6.86513">
        <ele>1372</ele>
        <time>2026-08-04T05:50:48.278Z</time>
      </trkpt>
      <trkpt lat="45.93535" lon="6.86514">
        <ele>1373</ele>
        <time>2026-08-04T05:50:49.278Z</time>
      </trkpt>
      <trkpt lat="45.93535" lon="6.86516">
        <ele>1373</ele>
        <time>2026-08-04T05:50:50.278Z</time>
      </trkpt>
      <trkpt lat="45.93535" lon="6.86518">
        <ele>1373</ele>
        <time>2026-08-04T05:50:51.278Z</time>
      </trkpt>
      <trkpt lat="45.93536" lon="6.8652">
        <ele>1373</ele>
        <time>2026-08-04T05:50:52.278Z</time>
      </trkpt>
      <trkpt lat="45.93536" lon="6.86521">
        <ele>1374</ele>
        <time>2026-08-04T05:50:53.278Z</time>
      </trkpt>
      <trkpt lat="45.93537" lon="6.86523">
        <ele>1374</ele>
        <time>2026-08-04T05:50:54.278Z</time>
      </trkpt>
      <trkpt lat="45.93538" lon="6.86525">
        <ele>1374</ele>
        <time>2026-08-04T05:50:55.278Z</time>
      </trkpt>
      <trkpt lat="45.93539" lon="6.86527">
        <ele>1374</ele>
        <time>2026-08-04T05:50:56.278Z</time>
      </trkpt>
      <trkpt lat="45.9354" lon="6.86528">
        <ele>1374</ele>
        <time>2026-08-04T05:50:57.278Z</time>
      </trkpt>
      <trkpt lat="45.93541" lon="6.8653">
        <ele>1374</ele>
        <time>2026-08-04T05:50:58.278Z</time>
      </trkpt>
      <trkpt lat="45.93541" lon="6.86532">
        <ele>1374</ele>
        <time>2026-08-04T05:50:59.278Z</time>
      </trkpt>
      <trkpt lat="45.93542" lon="6.86534">
        <ele>1374</ele>
        <time>2026-08-04T05:51:00.278Z</time>
      </trkpt>
      <trkpt lat="45.93543" lon="6.86536">
        <ele>1374</ele>
        <time>2026-08-04T05:51:01.278Z</time>
      </trkpt>
      <trkpt lat="45.93543" lon="6.86537">
        <ele>1374</ele>
        <time>2026-08-04T05:51:02.278Z</time>
      </trkpt>
      <trkpt lat="45.93543" lon="6.86539">
        <ele>1374</ele>
        <time>2026-08-04T05:51:03.278Z</time>
      </trkpt>
      <trkpt lat="45.93543" lon="6.86541">
        <ele>1375</ele>
        <time>2026-08-04T05:51:04.278Z</time>
      </trkpt>
      <trkpt lat="45.93543" lon="6.86543">
        <ele>1375</ele>
        <time>2026-08-04T05:51:05.278Z</time>
      </trkpt>
      <trkpt lat="45.93544" lon="6.86544">
        <ele>1375</ele>
        <time>2026-08-04T05:51:06.278Z</time>
      </trkpt>
      <trkpt lat="45.93545" lon="6.86545">
        <ele>1376</ele>
        <time>2026-08-04T05:51:07.278Z</time>
      </trkpt>
      <trkpt lat="45.93545" lon="6.86547">
        <ele>1376</ele>
        <time>2026-08-04T05:51:08.278Z</time>
      </trkpt>
      <trkpt lat="45.93545" lon="6.86549">
        <ele>1376</ele>
        <time>2026-08-04T05:51:09.278Z</time>
      </trkpt>
      <trkpt lat="45.93545" lon="6.86551">
        <ele>1377</ele>
        <time>2026-08-04T05:51:10.278Z</time>
      </trkpt>
      <trkpt lat="45.93546" lon="6.86553">
        <ele>1377</ele>
        <time>2026-08-04T05:51:11.278Z</time>
      </trkpt>
      <trkpt lat="45.93547" lon="6.86554">
        <ele>1377</ele>
        <time>2026-08-04T05:51:12.278Z</time>
      </trkpt>
      <trkpt lat="45.93548" lon="6.86556">
        <ele>1378</ele>
        <time>2026-08-04T05:51:13.278Z</time>
      </trkpt>
      <trkpt lat="45.93549" lon="6.86557">
        <ele>1378</ele>
        <time>2026-08-04T05:51:14.278Z</time>
      </trkpt>
      <trkpt lat="45.9355" lon="6.86558">
        <ele>1378</ele>
        <time>2026-08-04T05:51:15.278Z</time>
      </trkpt>
      <trkpt lat="45.93551" lon="6.86559">
        <ele>1378</ele>
        <time>2026-08-04T05:51:16.278Z</time>
      </trkpt>
      <trkpt lat="45.93553" lon="6.86561">
        <ele>1378</ele>
        <time>2026-08-04T05:51:17.278Z</time>
      </trkpt>
      <trkpt lat="45.93554" lon="6.86562">
        <ele>1379</ele>
        <time>2026-08-04T05:51:18.278Z</time>
      </trkpt>
      <trkpt lat="45.93555" lon="6.86564">
        <ele>1379</ele>
        <time>2026-08-04T05:51:19.278Z</time>
      </trkpt>
      <trkpt lat="45.93555" lon="6.86565">
        <ele>1379</ele>
        <time>2026-08-04T05:51:20.278Z</time>
      </trkpt>
      <trkpt lat="45.93556" lon="6.86566">
        <ele>1379</ele>
        <time>2026-08-04T05:51:21.278Z</time>
      </trkpt>
      <trkpt lat="45.93557" lon="6.86568">
        <ele>1380</ele>
        <time>2026-08-04T05:51:22.278Z</time>
      </trkpt>
      <trkpt lat="45.93557" lon="6.86569">
        <ele>1380</ele>
        <time>2026-08-04T05:51:23.278Z</time>
      </trkpt>
      <trkpt lat="45.93557" lon="6.86571">
        <ele>1380</ele>
        <time>2026-08-04T05:51:24.278Z</time>
      </trkpt>
      <trkpt lat="45.93558" lon="6.86572">
        <ele>1381</ele>
        <time>2026-08-04T05:51:25.278Z</time>
      </trkpt>
      <trkpt lat="45.93558" lon="6.86572">
        <ele>1381</ele>
        <time>2026-08-04T05:51:26.278Z</time>
      </trkpt>
      <trkpt lat="45.93558" lon="6.86573">
        <ele>1381</ele>
        <time>2026-08-04T05:51:27.278Z</time>
      </trkpt>
      <trkpt lat="45.93559" lon="6.86574">
        <ele>1381</ele>
        <time>2026-08-04T05:51:28.278Z</time>
      </trkpt>
      <trkpt lat="45.9356" lon="6.86575">
        <ele>1382</ele>
        <time>2026-08-04T05:51:29.278Z</time>
      </trkpt>
      <trkpt lat="45.93562" lon="6.86577">
        <ele>1382</ele>
        <time>2026-08-04T05:51:30.278Z</time>
      </trkpt>
      <trkpt lat="45.93563" lon="6.86578">
        <ele>1382</ele>
        <time>2026-08-04T05:51:31.278Z</time>
      </trkpt>
      <trkpt lat="45.93564" lon="6.86579">
        <ele>1383</ele>
        <time>2026-08-04T05:51:32.278Z</time>
      </trkpt>
      <trkpt lat="45.93564" lon="6.86581">
        <ele>1383</ele>
        <time>2026-08-04T05:51:33.278Z</time>
      </trkpt>
      <trkpt lat="45.93565" lon="6.86582">
        <ele>1383</ele>
        <time>2026-08-04T05:51:34.278Z</time>
      </trkpt>
      <trkpt lat="45.93566" lon="6.86583">
        <ele>1383</ele>
        <time>2026-08-04T05:51:35.278Z</time>
      </trkpt>
      <trkpt lat="45.93567" lon="6.86584">
        <ele>1383</ele>
        <time>2026-08-04T05:51:36.278Z</time>
      </trkpt>
      <trkpt lat="45.93569" lon="6.86585">
        <ele>1383</ele>
        <time>2026-08-04T05:51:37.278Z</time>
      </trkpt>
      <trkpt lat="45.9357" lon="6.86586">
        <ele>1383</ele>
        <time>2026-08-04T05:51:38.278Z</time>
      </trkpt>
      <trkpt lat="45.9357" lon="6.86587">
        <ele>1383</ele>
        <time>2026-08-04T05:51:39.278Z</time>
      </trkpt>
      <trkpt lat="45.93571" lon="6.86588">
        <ele>1383</ele>
        <time>2026-08-04T05:51:40.278Z</time>
      </trkpt>
      <trkpt lat="45.93572" lon="6.8659">
        <ele>1383</ele>
        <time>2026-08-04T05:51:41.278Z</time>
      </trkpt>
      <trkpt lat="45.93573" lon="6.86591">
        <ele>1383</ele>
        <time>2026-08-04T05:51:42.278Z</time>
      </trkpt>
      <trkpt lat="45.93573" lon="6.86592">
        <ele>1383</ele>
        <time>2026-08-04T05:51:43.278Z</time>
      </trkpt>
      <trkpt lat="45.93574" lon="6.86594">
        <ele>1383</ele>
        <time>2026-08-04T05:51:44.278Z</time>
      </trkpt>
      <trkpt lat="45.93574" lon="6.86595">
        <ele>1383</ele>
        <time>2026-08-04T05:51:45.278Z</time>
      </trkpt>
      <trkpt lat="45.93574" lon="6.86597">
        <ele>1383</ele>
        <time>2026-08-04T05:51:46.278Z</time>
      </trkpt>
      <trkpt lat="45.93574" lon="6.86598">
        <ele>1383</ele>
        <time>2026-08-04T05:51:47.278Z</time>
      </trkpt>
      <trkpt lat="45.93575" lon="6.86599">
        <ele>1384</ele>
        <time>2026-08-04T05:51:48.278Z</time>
      </trkpt>
      <trkpt lat="45.93576" lon="6.866">
        <ele>1384</ele>
        <time>2026-08-04T05:51:49.278Z</time>
      </trkpt>
      <trkpt lat="45.93577" lon="6.866">
        <ele>1384</ele>
        <time>2026-08-04T05:51:50.278Z</time>
      </trkpt>
      <trkpt lat="45.93577" lon="6.86601">
        <ele>1385</ele>
        <time>2026-08-04T05:51:51.278Z</time>
      </trkpt>
      <trkpt lat="45.93578" lon="6.86602">
        <ele>1385</ele>
        <time>2026-08-04T05:51:52.278Z</time>
      </trkpt>
      <trkpt lat="45.93579" lon="6.86603">
        <ele>1385</ele>
        <time>2026-08-04T05:51:53.278Z</time>
      </trkpt>
      <trkpt lat="45.9358" lon="6.86604">
        <ele>1386</ele>
        <time>2026-08-04T05:51:54.278Z</time>
      </trkpt>
      <trkpt lat="45.9358" lon="6.86605">
        <ele>1386</ele>
        <time>2026-08-04T05:51:55.278Z</time>
      </trkpt>
      <trkpt lat="45.9358" lon="6.86606">
        <ele>1386</ele>
        <time>2026-08-04T05:51:56.278Z</time>
      </trkpt>
      <trkpt lat="45.93581" lon="6.86606">
        <ele>1386</ele>
        <time>2026-08-04T05:51:57.278Z</time>
      </trkpt>
      <trkpt lat="45.93581" lon="6.86607">
        <ele>1386</ele>
        <time>2026-08-04T05:51:58.278Z</time>
      </trkpt>
      <trkpt lat="45.93583" lon="6.86609">
        <ele>1386</ele>
        <time>2026-08-04T05:51:59.278Z</time>
      </trkpt>
      <trkpt lat="45.93584" lon="6.8661">
        <ele>1386</ele>
        <time>2026-08-04T05:52:00.278Z</time>
      </trkpt>
      <trkpt lat="45.93584" lon="6.86612">
        <ele>1386</ele>
        <time>2026-08-04T05:52:01.278Z</time>
      </trkpt>
      <trkpt lat="45.93585" lon="6.86613">
        <ele>1386</ele>
        <time>2026-08-04T05:52:02.278Z</time>
      </trkpt>
      <trkpt lat="45.93586" lon="6.86615">
        <ele>1387</ele>
        <time>2026-08-04T05:52:03.278Z</time>
      </trkpt>
      <trkpt lat="45.93587" lon="6.86616">
        <ele>1387</ele>
        <time>2026-08-04T05:52:04.278Z</time>
      </trkpt>
      <trkpt lat="45.93588" lon="6.86618">
        <ele>1388</ele>
        <time>2026-08-04T05:52:05.278Z</time>
      </trkpt>
      <trkpt lat="45.93588" lon="6.86619">
        <ele>1388</ele>
        <time>2026-08-04T05:52:06.278Z</time>
      </trkpt>
      <trkpt lat="45.93588" lon="6.86621">
        <ele>1389</ele>
        <time>2026-08-04T05:52:07.278Z</time>
      </trkpt>
      <trkpt lat="45.93588" lon="6.86622">
        <ele>1389</ele>
        <time>2026-08-04T05:52:08.278Z</time>
      </trkpt>
      <trkpt lat="45.93588" lon="6.86624">
        <ele>1390</ele>
        <time>2026-08-04T05:52:09.278Z</time>
      </trkpt>
      <trkpt lat="45.93588" lon="6.86626">
        <ele>1390</ele>
        <time>2026-08-04T05:52:10.278Z</time>
      </trkpt>
      <trkpt lat="45.93588" lon="6.86628">
        <ele>1391</ele>
        <time>2026-08-04T05:52:11.278Z</time>
      </trkpt>
      <trkpt lat="45.93589" lon="6.86629">
        <ele>1392</ele>
        <time>2026-08-04T05:52:12.278Z</time>
      </trkpt>
      <trkpt lat="45.93589" lon="6.8663">
        <ele>1393</ele>
        <time>2026-08-04T05:52:13.278Z</time>
      </trkpt>
      <trkpt lat="45.93589" lon="6.86631">
        <ele>1393</ele>
        <time>2026-08-04T05:52:14.278Z</time>
      </trkpt>
      <trkpt lat="45.93588" lon="6.86631">
        <ele>1394</ele>
        <time>2026-08-04T05:52:15.278Z</time>
      </trkpt>
      <trkpt lat="45.93588" lon="6.86631">
        <ele>1394</ele>
        <time>2026-08-04T05:52:16.278Z</time>
      </trkpt>
      <trkpt lat="45.93587" lon="6.86631">
        <ele>1394</ele>
        <time>2026-08-04T05:52:17.278Z</time>
      </trkpt>
      <trkpt lat="45.93586" lon="6.8663">
        <ele>1395</ele>
        <time>2026-08-04T05:52:18.278Z</time>
      </trkpt>
      <trkpt lat="45.93586" lon="6.8663">
        <ele>1395</ele>
        <time>2026-08-04T05:52:19.278Z</time>
      </trkpt>
      <trkpt lat="45.93586" lon="6.8663">
        <ele>1395</ele>
        <time>2026-08-04T05:52:20.278Z</time>
      </trkpt>
      <trkpt lat="45.93586" lon="6.86629">
        <ele>1396</ele>
        <time>2026-08-04T05:52:21.278Z</time>
      </trkpt>
      <trkpt lat="45.93586" lon="6.86629">
        <ele>1396</ele>
        <time>2026-08-04T05:52:22.278Z</time>
      </trkpt>
      <trkpt lat="45.93586" lon="6.86629">
        <ele>1396</ele>
        <time>2026-08-04T05:52:23.278Z</time>
      </trkpt>
      <trkpt lat="45.93586" lon="6.86628">
        <ele>1396</ele>
        <time>2026-08-04T05:52:24.278Z</time>
      </trkpt>
      <trkpt lat="45.93586" lon="6.86628">
        <ele>1396</ele>
        <time>2026-08-04T05:52:25.278Z</time>
      </trkpt>
      <trkpt lat="45.93586" lon="6.86628">
        <ele>1396</ele>
        <time>2026-08-04T05:52:26.278Z</time>
      </trkpt>
      <trkpt lat="45.93586" lon="6.86629">
        <ele>1396</ele>
        <time>2026-08-04T05:52:27.278Z</time>
      </trkpt>
      <trkpt lat="45.93586" lon="6.86629">
        <ele>1396</ele>
        <time>2026-08-04T05:52:28.278Z</time>
      </trkpt>
      <trkpt lat="45.93586" lon="6.86629">
        <ele>1396</ele>
        <time>2026-08-04T05:52:29.278Z</time>
      </trkpt>
      <trkpt lat="45.93586" lon="6.86629">
        <ele>1395</ele>
        <time>2026-08-04T05:52:30.278Z</time>
      </trkpt>
      <trkpt lat="45.93586" lon="6.86629">
        <ele>1395</ele>
        <time>2026-08-04T05:52:31.278Z</time>
      </trkpt>
      <trkpt lat="45.93586" lon="6.86629">
        <ele>1395</ele>
        <time>2026-08-04T05:52:32.278Z</time>
      </trkpt>
      <trkpt lat="45.93586" lon="6.86629">
        <ele>1395</ele>
        <time>2026-08-04T05:52:33.278Z</time>
      </trkpt>
      <trkpt lat="45.93586" lon="6.86629">
        <ele>1395</ele>
        <time>2026-08-04T05:52:34.278Z</time>
      </trkpt>
      <trkpt lat="45.93586" lon="6.86629">
        <ele>1395</ele>
        <time>2026-08-04T05:52:35.278Z</time>
      </trkpt>
      <trkpt lat="45.93586" lon="6.86629">
        <ele>1395</ele>
        <time>2026-08-04T05:52:36.278Z</time>
      </trkpt>
      <trkpt lat="45.93586" lon="6.86629">
        <ele>1395</ele>
        <time>2026-08-04T05:52:37.278Z</time>
      </trkpt>
      <trkpt lat="45.93586" lon="6.86629">
        <ele>1395</ele>
        <time>2026-08-04T05:52:38.278Z</time>
      </trkpt>
      <trkpt lat="45.93586" lon="6.86629">
        <ele>1395</ele>
        <time>2026-08-04T05:52:39.278Z</time>
      </trkpt>
      <trkpt lat="45.93586" lon="6.86629">
        <ele>1395</ele>
        <time>2026-08-04T05:52:40.278Z</time>
      </trkpt>
      <trkpt lat="45.93586" lon="6.86629">
        <ele>1395</ele>
        <time>2026-08-04T05:52:41.278Z</time>
      </trkpt>
      <trkpt lat="45.93586" lon="6.86631">
        <ele>1395</ele>
        <time>2026-08-04T05:52:42.278Z</time>
      </trkpt>
      <trkpt lat="45.93587" lon="6.86633">
        <ele>1395</ele>
        <time>2026-08-04T05:52:43.278Z</time>
      </trkpt>
      <trkpt lat="45.93587" lon="6.86635">
        <ele>1395</ele>
        <time>2026-08-04T05:52:44.278Z</time>
      </trkpt>
      <trkpt lat="45.93587" lon="6.86637">
        <ele>1395</ele>
        <time>2026-08-04T05:52:45.278Z</time>
      </trkpt>
      <trkpt lat="45.93588" lon="6.86639">
        <ele>1395</ele>
        <time>2026-08-04T05:52:46.278Z</time>
      </trkpt>
      <trkpt lat="45.93588" lon="6.86641">
        <ele>1395</ele>
        <time>2026-08-04T05:52:47.278Z</time>
      </trkpt>
      <trkpt lat="45.93588" lon="6.86643">
        <ele>1396</ele>
        <time>2026-08-04T05:52:48.278Z</time>
      </trkpt>
      <trkpt lat="45.93588" lon="6.86645">
        <ele>1396</ele>
        <time>2026-08-04T05:52:49.278Z</time>
      </trkpt>
      <trkpt lat="45.93588" lon="6.86647">
        <ele>1396</ele>
        <time>2026-08-04T05:52:50.278Z</time>
      </trkpt>
      <trkpt lat="45.93589" lon="6.86649">
        <ele>1396</ele>
        <time>2026-08-04T05:52:51.278Z</time>
      </trkpt>
      <trkpt lat="45.93589" lon="6.86649">
        <ele>1396</ele>
        <time>2026-08-04T05:52:52.278Z</time>
      </trkpt>
      <trkpt lat="45.93589" lon="6.8665">
        <ele>1396</ele>
        <time>2026-08-04T05:52:53.278Z</time>
      </trkpt>
      <trkpt lat="45.93589" lon="6.8665">
        <ele>1396</ele>
        <time>2026-08-04T05:52:54.278Z</time>
      </trkpt>
      <trkpt lat="45.93589" lon="6.8665">
        <ele>1396</ele>
        <time>2026-08-04T05:52:55.278Z</time>
      </trkpt>
      <trkpt lat="45.93588" lon="6.86651">
        <ele>1396</ele>
        <time>2026-08-04T05:52:56.278Z</time>
      </trkpt>
      <trkpt lat="45.93589" lon="6.86653">
        <ele>1396</ele>
        <time>2026-08-04T05:52:57.278Z</time>
      </trkpt>
      <trkpt lat="45.93589" lon="6.86654">
        <ele>1396</ele>
        <time>2026-08-04T05:52:58.278Z</time>
      </trkpt>
      <trkpt lat="45.93589" lon="6.86655">
        <ele>1396</ele>
        <time>2026-08-04T05:52:59.278Z</time>
      </trkpt>
      <trkpt lat="45.93589" lon="6.86656">
        <ele>1395</ele>
        <time>2026-08-04T05:53:00.278Z</time>
      </trkpt>
      <trkpt lat="45.93589" lon="6.86658">
        <ele>1395</ele>
        <time>2026-08-04T05:53:01.278Z</time>
      </trkpt>
      <trkpt lat="45.93589" lon="6.8666">
        <ele>1395</ele>
        <time>2026-08-04T05:53:02.278Z</time>
      </trkpt>
      <trkpt lat="45.9359" lon="6.86662">
        <ele>1395</ele>
        <time>2026-08-04T05:53:03.278Z</time>
      </trkpt>
      <trkpt lat="45.9359" lon="6.86663">
        <ele>1395</ele>
        <time>2026-08-04T05:53:04.278Z</time>
      </trkpt>
      <trkpt lat="45.93591" lon="6.86664">
        <ele>1395</ele>
        <time>2026-08-04T05:53:05.278Z</time>
      </trkpt>
      <trkpt lat="45.93591" lon="6.86664">
        <ele>1395</ele>
        <time>2026-08-04T05:53:06.278Z</time>
      </trkpt>
      <trkpt lat="45.93591" lon="6.86665">
        <ele>1395</ele>
        <time>2026-08-04T05:53:07.278Z</time>
      </trkpt>
      <trkpt lat="45.93591" lon="6.86665">
        <ele>1395</ele>
        <time>2026-08-04T05:53:08.278Z</time>
      </trkpt>
      <trkpt lat="45.93591" lon="6.86665">
        <ele>1395</ele>
        <time>2026-08-04T05:53:09.278Z</time>
      </trkpt>
      <trkpt lat="45.93592" lon="6.86666">
        <ele>1395</ele>
        <time>2026-08-04T05:53:10.278Z</time>
      </trkpt>
      <trkpt lat="45.93592" lon="6.86667">
        <ele>1395</ele>
        <time>2026-08-04T05:53:11.278Z</time>
      </trkpt>
      <trkpt lat="45.93592" lon="6.86667">
        <ele>1395</ele>
        <time>2026-08-04T05:53:12.278Z</time>
      </trkpt>
      <trkpt lat="45.93592" lon="6.86666">
        <ele>1395</ele>
        <time>2026-08-04T05:53:13.278Z</time>
      </trkpt>
      <trkpt lat="45.93591" lon="6.86666">
        <ele>1394</ele>
        <time>2026-08-04T05:53:14.278Z</time>
      </trkpt>
      <trkpt lat="45.93591" lon="6.86666">
        <ele>1394</ele>
        <time>2026-08-04T05:53:15.278Z</time>
      </trkpt>
      <trkpt lat="45.93591" lon="6.86666">
        <ele>1394</ele>
        <time>2026-08-04T05:53:16.278Z</time>
      </trkpt>
      <trkpt lat="45.93591" lon="6.86666">
        <ele>1393</ele>
        <time>2026-08-04T05:53:17.278Z</time>
      </trkpt>
      <trkpt lat="45.9359" lon="6.86666">
        <ele>1393</ele>
        <time>2026-08-04T05:53:18.278Z</time>
      </trkpt>
      <trkpt lat="45.9359" lon="6.86666">
        <ele>1393</ele>
        <time>2026-08-04T05:53:19.278Z</time>
      </trkpt>
      <trkpt lat="45.9359" lon="6.86666">
        <ele>1393</ele>
        <time>2026-08-04T05:53:20.278Z</time>
      </trkpt>
      <trkpt lat="45.93589" lon="6.86666">
        <ele>1393</ele>
        <time>2026-08-04T05:53:21.278Z</time>
      </trkpt>
      <trkpt lat="45.93589" lon="6.86666">
        <ele>1393</ele>
        <time>2026-08-04T05:53:22.278Z</time>
      </trkpt>
      <trkpt lat="45.93589" lon="6.86666">
        <ele>1393</ele>
        <time>2026-08-04T05:53:23.278Z</time>
      </trkpt>
      <trkpt lat="45.93589" lon="6.86667">
        <ele>1393</ele>
        <time>2026-08-04T05:53:24.278Z</time>
      </trkpt>
      <trkpt lat="45.93589" lon="6.86668">
        <ele>1394</ele>
        <time>2026-08-04T05:53:25.278Z</time>
      </trkpt>
      <trkpt lat="45.93589" lon="6.86668">
        <ele>1394</ele>
        <time>2026-08-04T05:53:26.278Z</time>
      </trkpt>
      <trkpt lat="45.93589" lon="6.86668">
        <ele>1394</ele>
        <time>2026-08-04T05:53:27.278Z</time>
      </trkpt>
      <trkpt lat="45.93589" lon="6.86669">
        <ele>1394</ele>
        <time>2026-08-04T05:53:28.278Z</time>
      </trkpt>
      <trkpt lat="45.93589" lon="6.86669">
        <ele>1394</ele>
        <time>2026-08-04T05:53:29.278Z</time>
      </trkpt>
      <trkpt lat="45.93589" lon="6.86669">
        <ele>1395</ele>
        <time>2026-08-04T05:53:30.278Z</time>
      </trkpt>
      <trkpt lat="45.93589" lon="6.8667">
        <ele>1395</ele>
        <time>2026-08-04T05:53:31.278Z</time>
      </trkpt>
      <trkpt lat="45.9359" lon="6.86671">
        <ele>1395</ele>
        <time>2026-08-04T05:53:32.278Z</time>
      </trkpt>
      <trkpt lat="45.9359" lon="6.86672">
        <ele>1396</ele>
        <time>2026-08-04T05:53:33.278Z</time>
      </trkpt>
      <trkpt lat="45.93591" lon="6.86673">
        <ele>1397</ele>
        <time>2026-08-04T05:53:34.278Z</time>
      </trkpt>
      <trkpt lat="45.93591" lon="6.86674">
        <ele>1398</ele>
        <time>2026-08-04T05:53:35.278Z</time>
      </trkpt>
      <trkpt lat="45.93592" lon="6.86674">
        <ele>1398</ele>
        <time>2026-08-04T05:53:36.278Z</time>
      </trkpt>
      <trkpt lat="45.93593" lon="6.86675">
        <ele>1399</ele>
        <time>2026-08-04T05:53:37.278Z</time>
      </trkpt>
      <trkpt lat="45.93594" lon="6.86676">
        <ele>1399</ele>
        <time>2026-08-04T05:53:38.278Z</time>
      </trkpt>
      <trkpt lat="45.93594" lon="6.86677">
        <ele>1399</ele>
        <time>2026-08-04T05:53:39.278Z</time>
      </trkpt>
      <trkpt lat="45.93595" lon="6.86678">
        <ele>1400</ele>
        <time>2026-08-04T05:53:40.278Z</time>
      </trkpt>
      <trkpt lat="45.93596" lon="6.86679">
        <ele>1400</ele>
        <time>2026-08-04T05:53:41.278Z</time>
      </trkpt>
      <trkpt lat="45.93597" lon="6.8668">
        <ele>1400</ele>
        <time>2026-08-04T05:53:42.278Z</time>
      </trkpt>
      <trkpt lat="45.93598" lon="6.86682">
        <ele>1401</ele>
        <time>2026-08-04T05:53:43.278Z</time>
      </trkpt>
      <trkpt lat="45.936" lon="6.86683">
        <ele>1401</ele>
        <time>2026-08-04T05:53:44.278Z</time>
      </trkpt>
      <trkpt lat="45.93601" lon="6.86685">
        <ele>1401</ele>
        <time>2026-08-04T05:53:45.278Z</time>
      </trkpt>
      <trkpt lat="45.93602" lon="6.86686">
        <ele>1401</ele>
        <time>2026-08-04T05:53:46.278Z</time>
      </trkpt>
      <trkpt lat="45.93604" lon="6.86689">
        <ele>1402</ele>
        <time>2026-08-04T05:53:47.278Z</time>
      </trkpt>
      <trkpt lat="45.93606" lon="6.8669">
        <ele>1402</ele>
        <time>2026-08-04T05:53:48.278Z</time>
      </trkpt>
      <trkpt lat="45.93607" lon="6.8669">
        <ele>1402</ele>
        <time>2026-08-04T05:53:49.278Z</time>
      </trkpt>
      <trkpt lat="45.93608" lon="6.86691">
        <ele>1402</ele>
        <time>2026-08-04T05:53:50.278Z</time>
      </trkpt>
      <trkpt lat="45.93607" lon="6.8669">
        <ele>1403</ele>
        <time>2026-08-04T05:53:51.278Z</time>
      </trkpt>
      <trkpt lat="45.93608" lon="6.8669">
        <ele>1403</ele>
        <time>2026-08-04T05:53:52.278Z</time>
      </trkpt>
      <trkpt lat="45.93608" lon="6.86691">
        <ele>1403</ele>
        <time>2026-08-04T05:53:53.278Z</time>
      </trkpt>
      <trkpt lat="45.93609" lon="6.86692">
        <ele>1404</ele>
        <time>2026-08-04T05:53:54.278Z</time>
      </trkpt>
      <trkpt lat="45.9361" lon="6.86692">
        <ele>1404</ele>
        <time>2026-08-04T05:53:55.278Z</time>
      </trkpt>
      <trkpt lat="45.93611" lon="6.86693">
        <ele>1405</ele>
        <time>2026-08-04T05:53:56.278Z</time>
      </trkpt>
      <trkpt lat="45.93612" lon="6.86695">
        <ele>1405</ele>
        <time>2026-08-04T05:53:57.278Z</time>
      </trkpt>
      <trkpt lat="45.93613" lon="6.86696">
        <ele>1405</ele>
        <time>2026-08-04T05:53:58.278Z</time>
      </trkpt>
      <trkpt lat="45.93615" lon="6.86697">
        <ele>1405</ele>
        <time>2026-08-04T05:53:59.278Z</time>
      </trkpt>
      <trkpt lat="45.93615" lon="6.86698">
        <ele>1406</ele>
        <time>2026-08-04T05:54:00.278Z</time>
      </trkpt>
      <trkpt lat="45.93616" lon="6.867">
        <ele>1406</ele>
        <time>2026-08-04T05:54:01.278Z</time>
      </trkpt>
      <trkpt lat="45.93617" lon="6.86701">
        <ele>1406</ele>
        <time>2026-08-04T05:54:02.278Z</time>
      </trkpt>
      <trkpt lat="45.93618" lon="6.86703">
        <ele>1406</ele>
        <time>2026-08-04T05:54:03.278Z</time>
      </trkpt>
      <trkpt lat="45.9362" lon="6.86704">
        <ele>1406</ele>
        <time>2026-08-04T05:54:04.278Z</time>
      </trkpt>
      <trkpt lat="45.9362" lon="6.86706">
        <ele>1406</ele>
        <time>2026-08-04T05:54:05.278Z</time>
      </trkpt>
      <trkpt lat="45.93621" lon="6.86707">
        <ele>1407</ele>
        <time>2026-08-04T05:54:06.278Z</time>
      </trkpt>
      <trkpt lat="45.93622" lon="6.86708">
        <ele>1407</ele>
        <time>2026-08-04T05:54:07.278Z</time>
      </trkpt>
      <trkpt lat="45.93623" lon="6.86708">
        <ele>1407</ele>
        <time>2026-08-04T05:54:08.278Z</time>
      </trkpt>
      <trkpt lat="45.93624" lon="6.86709">
        <ele>1407</ele>
        <time>2026-08-04T05:54:09.278Z</time>
      </trkpt>
      <trkpt lat="45.93624" lon="6.8671">
        <ele>1407</ele>
        <time>2026-08-04T05:54:10.278Z</time>
      </trkpt>
      <trkpt lat="45.93625" lon="6.86712">
        <ele>1407</ele>
        <time>2026-08-04T05:54:11.278Z</time>
      </trkpt>
      <trkpt lat="45.93626" lon="6.86713">
        <ele>1407</ele>
        <time>2026-08-04T05:54:12.278Z</time>
      </trkpt>
      <trkpt lat="45.93627" lon="6.86714">
        <ele>1408</ele>
        <time>2026-08-04T05:54:13.278Z</time>
      </trkpt>
      <trkpt lat="45.93628" lon="6.86715">
        <ele>1408</ele>
        <time>2026-08-04T05:54:14.278Z</time>
      </trkpt>
      <trkpt lat="45.9363" lon="6.86716">
        <ele>1408</ele>
        <time>2026-08-04T05:54:15.278Z</time>
      </trkpt>
      <trkpt lat="45.9363" lon="6.86717">
        <ele>1408</ele>
        <time>2026-08-04T05:54:16.278Z</time>
      </trkpt>
      <trkpt lat="45.9363" lon="6.86718">
        <ele>1408</ele>
        <time>2026-08-04T05:54:17.278Z</time>
      </trkpt>
      <trkpt lat="45.93631" lon="6.86717">
        <ele>1408</ele>
        <time>2026-08-04T05:54:18.278Z</time>
      </trkpt>
      <trkpt lat="45.93632" lon="6.86717">
        <ele>1408</ele>
        <time>2026-08-04T05:54:19.278Z</time>
      </trkpt>
      <trkpt lat="45.93633" lon="6.86716">
        <ele>1408</ele>
        <time>2026-08-04T05:54:20.278Z</time>
      </trkpt>
      <trkpt lat="45.93634" lon="6.86715">
        <ele>1408</ele>
        <time>2026-08-04T05:54:21.278Z</time>
      </trkpt>
      <trkpt lat="45.93635" lon="6.86713">
        <ele>1408</ele>
        <time>2026-08-04T05:54:22.278Z</time>
      </trkpt>
      <trkpt lat="45.93637" lon="6.86712">
        <ele>1409</ele>
        <time>2026-08-04T05:54:23.278Z</time>
      </trkpt>
      <trkpt lat="45.93638" lon="6.8671">
        <ele>1409</ele>
        <time>2026-08-04T05:54:24.278Z</time>
      </trkpt>
      <trkpt lat="45.93638" lon="6.86709">
        <ele>1409</ele>
        <time>2026-08-04T05:54:25.278Z</time>
      </trkpt>
      <trkpt lat="45.93638" lon="6.86708">
        <ele>1408</ele>
        <time>2026-08-04T05:54:26.278Z</time>
      </trkpt>
      <trkpt lat="45.93639" lon="6.86708">
        <ele>1408</ele>
        <time>2026-08-04T05:54:27.278Z</time>
      </trkpt>
      <trkpt lat="45.9364" lon="6.86707">
        <ele>1409</ele>
        <time>2026-08-04T05:54:28.278Z</time>
      </trkpt>
      <trkpt lat="45.93641" lon="6.86706">
        <ele>1409</ele>
        <time>2026-08-04T05:54:29.278Z</time>
      </trkpt>
      <trkpt lat="45.93643" lon="6.86705">
        <ele>1409</ele>
        <time>2026-08-04T05:54:30.278Z</time>
      </trkpt>
      <trkpt lat="45.93644" lon="6.86704">
        <ele>1409</ele>
        <time>2026-08-04T05:54:31.278Z</time>
      </trkpt>
      <trkpt lat="45.93645" lon="6.86702">
        <ele>1408</ele>
        <time>2026-08-04T05:54:32.278Z</time>
      </trkpt>
      <trkpt lat="45.93646" lon="6.86701">
        <ele>1408</ele>
        <time>2026-08-04T05:54:33.278Z</time>
      </trkpt>
      <trkpt lat="45.93647" lon="6.86699">
        <ele>1408</ele>
        <time>2026-08-04T05:54:34.278Z</time>
      </trkpt>
      <trkpt lat="45.93648" lon="6.86698">
        <ele>1408</ele>
        <time>2026-08-04T05:54:35.278Z</time>
      </trkpt>
      <trkpt lat="45.93649" lon="6.86697">
        <ele>1408</ele>
        <time>2026-08-04T05:54:36.278Z</time>
      </trkpt>
      <trkpt lat="45.93649" lon="6.86696">
        <ele>1408</ele>
        <time>2026-08-04T05:54:37.278Z</time>
      </trkpt>
      <trkpt lat="45.9365" lon="6.86694">
        <ele>1408</ele>
        <time>2026-08-04T05:54:38.278Z</time>
      </trkpt>
      <trkpt lat="45.9365" lon="6.86692">
        <ele>1408</ele>
        <time>2026-08-04T05:54:39.278Z</time>
      </trkpt>
      <trkpt lat="45.93651" lon="6.86691">
        <ele>1408</ele>
        <time>2026-08-04T05:54:40.278Z</time>
      </trkpt>
      <trkpt lat="45.93651" lon="6.86689">
        <ele>1408</ele>
        <time>2026-08-04T05:54:41.278Z</time>
      </trkpt>
      <trkpt lat="45.93652" lon="6.86687">
        <ele>1408</ele>
        <time>2026-08-04T05:54:42.278Z</time>
      </trkpt>
      <trkpt lat="45.93652" lon="6.86685">
        <ele>1408</ele>
        <time>2026-08-04T05:54:43.278Z</time>
      </trkpt>
      <trkpt lat="45.93653" lon="6.86683">
        <ele>1408</ele>
        <time>2026-08-04T05:54:44.278Z</time>
      </trkpt>
      <trkpt lat="45.93653" lon="6.8668">
        <ele>1408</ele>
        <time>2026-08-04T05:54:45.278Z</time>
      </trkpt>
      <trkpt lat="45.93653" lon="6.86678">
        <ele>1408</ele>
        <time>2026-08-04T05:54:46.278Z</time>
      </trkpt>
      <trkpt lat="45.93654" lon="6.86676">
        <ele>1408</ele>
        <time>2026-08-04T05:54:47.278Z</time>
      </trkpt>
      <trkpt lat="45.93654" lon="6.86674">
        <ele>1409</ele>
        <time>2026-08-04T05:54:48.278Z</time>
      </trkpt>
      <trkpt lat="45.93653" lon="6.86672">
        <ele>1409</ele>
        <time>2026-08-04T05:54:49.278Z</time>
      </trkpt>
      <trkpt lat="45.93652" lon="6.8667">
        <ele>1409</ele>
        <time>2026-08-04T05:54:50.278Z</time>
      </trkpt>
      <trkpt lat="45.93652" lon="6.86669">
        <ele>1409</ele>
        <time>2026-08-04T05:54:51.278Z</time>
      </trkpt>
      <trkpt lat="45.93651" lon="6.86667">
        <ele>1409</ele>
        <time>2026-08-04T05:54:52.278Z</time>
      </trkpt>
      <trkpt lat="45.93651" lon="6.86665">
        <ele>1409</ele>
        <time>2026-08-04T05:54:53.278Z</time>
      </trkpt>
      <trkpt lat="45.93651" lon="6.86663">
        <ele>1409</ele>
        <time>2026-08-04T05:54:54.278Z</time>
      </trkpt>
      <trkpt lat="45.93652" lon="6.86661">
        <ele>1410</ele>
        <time>2026-08-04T05:54:55.278Z</time>
      </trkpt>
      <trkpt lat="45.93652" lon="6.8666">
        <ele>1410</ele>
        <time>2026-08-04T05:54:56.278Z</time>
      </trkpt>
      <trkpt lat="45.93651" lon="6.86658">
        <ele>1410</ele>
        <time>2026-08-04T05:54:57.278Z</time>
      </trkpt>
      <trkpt lat="45.93652" lon="6.86657">
        <ele>1410</ele>
        <time>2026-08-04T05:54:58.278Z</time>
      </trkpt>
      <trkpt lat="45.93652" lon="6.86656">
        <ele>1411</ele>
        <time>2026-08-04T05:54:59.278Z</time>
      </trkpt>
      <trkpt lat="45.93653" lon="6.86654">
        <ele>1411</ele>
        <time>2026-08-04T05:55:00.278Z</time>
      </trkpt>
      <trkpt lat="45.93653" lon="6.86653">
        <ele>1411</ele>
        <time>2026-08-04T05:55:01.278Z</time>
      </trkpt>
      <trkpt lat="45.93653" lon="6.86652">
        <ele>1411</ele>
        <time>2026-08-04T05:55:02.278Z</time>
      </trkpt>
      <trkpt lat="45.93654" lon="6.86651">
        <ele>1411</ele>
        <time>2026-08-04T05:55:03.278Z</time>
      </trkpt>
      <trkpt lat="45.93655" lon="6.86649">
        <ele>1411</ele>
        <time>2026-08-04T05:55:04.278Z</time>
      </trkpt>
      <trkpt lat="45.93655" lon="6.86648">
        <ele>1411</ele>
        <time>2026-08-04T05:55:05.278Z</time>
      </trkpt>
      <trkpt lat="45.93656" lon="6.86647">
        <ele>1411</ele>
        <time>2026-08-04T05:55:06.278Z</time>
      </trkpt>
      <trkpt lat="45.93657" lon="6.86645">
        <ele>1411</ele>
        <time>2026-08-04T05:55:07.278Z</time>
      </trkpt>
      <trkpt lat="45.93658" lon="6.86643">
        <ele>1412</ele>
        <time>2026-08-04T05:55:08.278Z</time>
      </trkpt>
      <trkpt lat="45.93659" lon="6.86642">
        <ele>1412</ele>
        <time>2026-08-04T05:55:09.278Z</time>
      </trkpt>
      <trkpt lat="45.9366" lon="6.86641">
        <ele>1412</ele>
        <time>2026-08-04T05:55:10.278Z</time>
      </trkpt>
      <trkpt lat="45.9366" lon="6.8664">
        <ele>1413</ele>
        <time>2026-08-04T05:55:11.278Z</time>
      </trkpt>
      <trkpt lat="45.9366" lon="6.86638">
        <ele>1413</ele>
        <time>2026-08-04T05:55:12.278Z</time>
      </trkpt>
      <trkpt lat="45.93661" lon="6.86636">
        <ele>1413</ele>
        <time>2026-08-04T05:55:13.279Z</time>
      </trkpt>
      <trkpt lat="45.93662" lon="6.86635">
        <ele>1414</ele>
        <time>2026-08-04T05:55:14.278Z</time>
      </trkpt>
      <trkpt lat="45.93663" lon="6.86633">
        <ele>1414</ele>
        <time>2026-08-04T05:55:15.278Z</time>
      </trkpt>
      <trkpt lat="45.93663" lon="6.86632">
        <ele>1414</ele>
        <time>2026-08-04T05:55:16.278Z</time>
      </trkpt>
      <trkpt lat="45.93664" lon="6.8663">
        <ele>1415</ele>
        <time>2026-08-04T05:55:17.278Z</time>
      </trkpt>
      <trkpt lat="45.93665" lon="6.86628">
        <ele>1415</ele>
        <time>2026-08-04T05:55:18.278Z</time>
      </trkpt>
      <trkpt lat="45.93665" lon="6.86627">
        <ele>1415</ele>
        <time>2026-08-04T05:55:19.278Z</time>
      </trkpt>
      <trkpt lat="45.93666" lon="6.86626">
        <ele>1416</ele>
        <time>2026-08-04T05:55:20.278Z</time>
      </trkpt>
      <trkpt lat="45.93667" lon="6.86625">
        <ele>1416</ele>
        <time>2026-08-04T05:55:21.278Z</time>
      </trkpt>
      <trkpt lat="45.93667" lon="6.86624">
        <ele>1416</ele>
        <time>2026-08-04T05:55:22.278Z</time>
      </trkpt>
      <trkpt lat="45.93667" lon="6.86623">
        <ele>1416</ele>
        <time>2026-08-04T05:55:23.278Z</time>
      </trkpt>
      <trkpt lat="45.93668" lon="6.86621">
        <ele>1416</ele>
        <time>2026-08-04T05:55:24.278Z</time>
      </trkpt>
      <trkpt lat="45.93669" lon="6.8662">
        <ele>1416</ele>
        <time>2026-08-04T05:55:25.278Z</time>
      </trkpt>
      <trkpt lat="45.93668" lon="6.86618">
        <ele>1416</ele>
        <time>2026-08-04T05:55:26.278Z</time>
      </trkpt>
      <trkpt lat="45.93669" lon="6.86616">
        <ele>1416</ele>
        <time>2026-08-04T05:55:27.278Z</time>
      </trkpt>
      <trkpt lat="45.9367" lon="6.86614">
        <ele>1416</ele>
        <time>2026-08-04T05:55:28.278Z</time>
      </trkpt>
      <trkpt lat="45.9367" lon="6.86612">
        <ele>1416</ele>
        <time>2026-08-04T05:55:29.278Z</time>
      </trkpt>
      <trkpt lat="45.93671" lon="6.86611">
        <ele>1416</ele>
        <time>2026-08-04T05:55:30.278Z</time>
      </trkpt>
      <trkpt lat="45.93672" lon="6.86609">
        <ele>1416</ele>
        <time>2026-08-04T05:55:31.278Z</time>
      </trkpt>
      <trkpt lat="45.93672" lon="6.86608">
        <ele>1415</ele>
        <time>2026-08-04T05:55:32.278Z</time>
      </trkpt>
      <trkpt lat="45.93672" lon="6.86606">
        <ele>1415</ele>
        <time>2026-08-04T05:55:33.278Z</time>
      </trkpt>
      <trkpt lat="45.93673" lon="6.86604">
        <ele>1415</ele>
        <time>2026-08-04T05:55:34.278Z</time>
      </trkpt>
      <trkpt lat="45.93673" lon="6.86602">
        <ele>1414</ele>
        <time>2026-08-04T05:55:35.278Z</time>
      </trkpt>
      <trkpt lat="45.93673" lon="6.86601">
        <ele>1414</ele>
        <time>2026-08-04T05:55:36.278Z</time>
      </trkpt>
      <trkpt lat="45.93673" lon="6.86599">
        <ele>1414</ele>
        <time>2026-08-04T05:55:37.278Z</time>
      </trkpt>
      <trkpt lat="45.93673" lon="6.86597">
        <ele>1414</ele>
        <time>2026-08-04T05:55:38.278Z</time>
      </trkpt>
      <trkpt lat="45.93673" lon="6.86595">
        <ele>1414</ele>
        <time>2026-08-04T05:55:39.278Z</time>
      </trkpt>
      <trkpt lat="45.93675" lon="6.86593">
        <ele>1414</ele>
        <time>2026-08-04T05:55:40.278Z</time>
      </trkpt>
      <trkpt lat="45.93676" lon="6.86591">
        <ele>1414</ele>
        <time>2026-08-04T05:55:41.278Z</time>
      </trkpt>
      <trkpt lat="45.93678" lon="6.8659">
        <ele>1414</ele>
        <time>2026-08-04T05:55:42.278Z</time>
      </trkpt>
      <trkpt lat="45.93679" lon="6.86589">
        <ele>1415</ele>
        <time>2026-08-04T05:55:43.278Z</time>
      </trkpt>
      <trkpt lat="45.93681" lon="6.86588">
        <ele>1415</ele>
        <time>2026-08-04T05:55:44.278Z</time>
      </trkpt>
      <trkpt lat="45.93683" lon="6.86588">
        <ele>1415</ele>
        <time>2026-08-04T05:55:45.278Z</time>
      </trkpt>
      <trkpt lat="45.93685" lon="6.86586">
        <ele>1415</ele>
        <time>2026-08-04T05:55:46.278Z</time>
      </trkpt>
      <trkpt lat="45.93686" lon="6.86585">
        <ele>1416</ele>
        <time>2026-08-04T05:55:47.278Z</time>
      </trkpt>
      <trkpt lat="45.93688" lon="6.86584">
        <ele>1416</ele>
        <time>2026-08-04T05:55:48.278Z</time>
      </trkpt>
      <trkpt lat="45.93689" lon="6.86583">
        <ele>1416</ele>
        <time>2026-08-04T05:55:49.278Z</time>
      </trkpt>
      <trkpt lat="45.9369" lon="6.86581">
        <ele>1417</ele>
        <time>2026-08-04T05:55:50.278Z</time>
      </trkpt>
      <trkpt lat="45.93692" lon="6.8658">
        <ele>1417</ele>
        <time>2026-08-04T05:55:51.278Z</time>
      </trkpt>
      <trkpt lat="45.93693" lon="6.8658">
        <ele>1417</ele>
        <time>2026-08-04T05:55:52.278Z</time>
      </trkpt>
      <trkpt lat="45.93694" lon="6.8658">
        <ele>1417</ele>
        <time>2026-08-04T05:55:53.278Z</time>
      </trkpt>
      <trkpt lat="45.93695" lon="6.86579">
        <ele>1417</ele>
        <time>2026-08-04T05:55:54.278Z</time>
      </trkpt>
      <trkpt lat="45.93696" lon="6.86577">
        <ele>1417</ele>
        <time>2026-08-04T05:55:55.278Z</time>
      </trkpt>
      <trkpt lat="45.93697" lon="6.86576">
        <ele>1417</ele>
        <time>2026-08-04T05:55:56.278Z</time>
      </trkpt>
      <trkpt lat="45.93698" lon="6.86575">
        <ele>1418</ele>
        <time>2026-08-04T05:55:57.278Z</time>
      </trkpt>
      <trkpt lat="45.937" lon="6.86573">
        <ele>1418</ele>
        <time>2026-08-04T05:55:58.278Z</time>
      </trkpt>
      <trkpt lat="45.93701" lon="6.86572">
        <ele>1418</ele>
        <time>2026-08-04T05:55:59.278Z</time>
      </trkpt>
      <trkpt lat="45.93702" lon="6.86571">
        <ele>1418</ele>
        <time>2026-08-04T05:56:00.278Z</time>
      </trkpt>
      <trkpt lat="45.93704" lon="6.8657">
        <ele>1418</ele>
        <time>2026-08-04T05:56:01.278Z</time>
      </trkpt>
      <trkpt lat="45.93705" lon="6.86569">
        <ele>1418</ele>
        <time>2026-08-04T05:56:02.278Z</time>
      </trkpt>
      <trkpt lat="45.93707" lon="6.86569">
        <ele>1418</ele>
        <time>2026-08-04T05:56:03.278Z</time>
      </trkpt>
      <trkpt lat="45.93708" lon="6.86567">
        <ele>1418</ele>
        <time>2026-08-04T05:56:04.278Z</time>
      </trkpt>
      <trkpt lat="45.9371" lon="6.86566">
        <ele>1418</ele>
        <time>2026-08-04T05:56:05.278Z</time>
      </trkpt>
      <trkpt lat="45.93711" lon="6.86564">
        <ele>1418</ele>
        <time>2026-08-04T05:56:06.278Z</time>
      </trkpt>
      <trkpt lat="45.93712" lon="6.86562">
        <ele>1418</ele>
        <time>2026-08-04T05:56:07.278Z</time>
      </trkpt>
      <trkpt lat="45.93713" lon="6.8656">
        <ele>1418</ele>
        <time>2026-08-04T05:56:08.278Z</time>
      </trkpt>
      <trkpt lat="45.93714" lon="6.86559">
        <ele>1418</ele>
        <time>2026-08-04T05:56:09.278Z</time>
      </trkpt>
      <trkpt lat="45.93714" lon="6.86558">
        <ele>1418</ele>
        <time>2026-08-04T05:56:10.278Z</time>
      </trkpt>
      <trkpt lat="45.93716" lon="6.86558">
        <ele>1418</ele>
        <time>2026-08-04T05:56:11.278Z</time>
      </trkpt>
      <trkpt lat="45.93717" lon="6.86557">
        <ele>1419</ele>
        <time>2026-08-04T05:56:12.278Z</time>
      </trkpt>
      <trkpt lat="45.93718" lon="6.86556">
        <ele>1419</ele>
        <time>2026-08-04T05:56:13.278Z</time>
      </trkpt>
      <trkpt lat="45.93718" lon="6.86555">
        <ele>1419</ele>
        <time>2026-08-04T05:56:14.278Z</time>
      </trkpt>
      <trkpt lat="45.93719" lon="6.86554">
        <ele>1419</ele>
        <time>2026-08-04T05:56:15.278Z</time>
      </trkpt>
      <trkpt lat="45.9372" lon="6.86553">
        <ele>1419</ele>
        <time>2026-08-04T05:56:16.278Z</time>
      </trkpt>
      <trkpt lat="45.93721" lon="6.86553">
        <ele>1419</ele>
        <time>2026-08-04T05:56:17.278Z</time>
      </trkpt>
      <trkpt lat="45.93723" lon="6.86552">
        <ele>1420</ele>
        <time>2026-08-04T05:56:18.278Z</time>
      </trkpt>
      <trkpt lat="45.93724" lon="6.8655">
        <ele>1420</ele>
        <time>2026-08-04T05:56:19.278Z</time>
      </trkpt>
      <trkpt lat="45.93725" lon="6.86548">
        <ele>1420</ele>
        <time>2026-08-04T05:56:20.278Z</time>
      </trkpt>
      <trkpt lat="45.93726" lon="6.86546">
        <ele>1420</ele>
        <time>2026-08-04T05:56:21.278Z</time>
      </trkpt>
      <trkpt lat="45.93727" lon="6.86544">
        <ele>1421</ele>
        <time>2026-08-04T05:56:22.278Z</time>
      </trkpt>
      <trkpt lat="45.93728" lon="6.86542">
        <ele>1421</ele>
        <time>2026-08-04T05:56:23.278Z</time>
      </trkpt>
      <trkpt lat="45.9373" lon="6.8654">
        <ele>1422</ele>
        <time>2026-08-04T05:56:24.278Z</time>
      </trkpt>
      <trkpt lat="45.93731" lon="6.86538">
        <ele>1423</ele>
        <time>2026-08-04T05:56:25.278Z</time>
      </trkpt>
      <trkpt lat="45.93733" lon="6.86537">
        <ele>1424</ele>
        <time>2026-08-04T05:56:26.278Z</time>
      </trkpt>
      <trkpt lat="45.93734" lon="6.86536">
        <ele>1425</ele>
        <time>2026-08-04T05:56:27.278Z</time>
      </trkpt>
      <trkpt lat="45.93734" lon="6.86534">
        <ele>1425</ele>
        <time>2026-08-04T05:56:28.278Z</time>
      </trkpt>
      <trkpt lat="45.93735" lon="6.86532">
        <ele>1426</ele>
        <time>2026-08-04T05:56:29.278Z</time>
      </trkpt>
      <trkpt lat="45.93737" lon="6.8653">
        <ele>1427</ele>
        <time>2026-08-04T05:56:30.278Z</time>
      </trkpt>
      <trkpt lat="45.93738" lon="6.86529">
        <ele>1428</ele>
        <time>2026-08-04T05:56:31.278Z</time>
      </trkpt>
      <trkpt lat="45.9374" lon="6.86527">
        <ele>1429</ele>
        <time>2026-08-04T05:56:32.278Z</time>
      </trkpt>
      <trkpt lat="45.93741" lon="6.86526">
        <ele>1430</ele>
        <time>2026-08-04T05:56:33.278Z</time>
      </trkpt>
      <trkpt lat="45.93743" lon="6.86525">
        <ele>1430</ele>
        <time>2026-08-04T05:56:34.278Z</time>
      </trkpt>
      <trkpt lat="45.93745" lon="6.86524">
        <ele>1431</ele>
        <time>2026-08-04T05:56:35.278Z</time>
      </trkpt>
      <trkpt lat="45.93747" lon="6.86522">
        <ele>1431</ele>
        <time>2026-08-04T05:56:36.278Z</time>
      </trkpt>
      <trkpt lat="45.93748" lon="6.86519">
        <ele>1432</ele>
        <time>2026-08-04T05:56:37.278Z</time>
      </trkpt>
      <trkpt lat="45.93749" lon="6.86518">
        <ele>1433</ele>
        <time>2026-08-04T05:56:38.278Z</time>
      </trkpt>
      <trkpt lat="45.9375" lon="6.86516">
        <ele>1433</ele>
        <time>2026-08-04T05:56:39.278Z</time>
      </trkpt>
      <trkpt lat="45.93751" lon="6.86515">
        <ele>1434</ele>
        <time>2026-08-04T05:56:40.278Z</time>
      </trkpt>
      <trkpt lat="45.93752" lon="6.86514">
        <ele>1435</ele>
        <time>2026-08-04T05:56:41.278Z</time>
      </trkpt>
      <trkpt lat="45.93753" lon="6.86513">
        <ele>1436</ele>
        <time>2026-08-04T05:56:42.278Z</time>
      </trkpt>
      <trkpt lat="45.93754" lon="6.86512">
        <ele>1436</ele>
        <time>2026-08-04T05:56:43.278Z</time>
      </trkpt>
      <trkpt lat="45.93755" lon="6.86511">
        <ele>1437</ele>
        <time>2026-08-04T05:56:44.278Z</time>
      </trkpt>
      <trkpt lat="45.93755" lon="6.86511">
        <ele>1437</ele>
        <time>2026-08-04T05:56:45.278Z</time>
      </trkpt>
      <trkpt lat="45.93756" lon="6.8651">
        <ele>1438</ele>
        <time>2026-08-04T05:56:46.278Z</time>
      </trkpt>
      <trkpt lat="45.93757" lon="6.86509">
        <ele>1438</ele>
        <time>2026-08-04T05:56:47.278Z</time>
      </trkpt>
      <trkpt lat="45.93757" lon="6.86508">
        <ele>1439</ele>
        <time>2026-08-04T05:56:48.278Z</time>
      </trkpt>
      <trkpt lat="45.93758" lon="6.86508">
        <ele>1439</ele>
        <time>2026-08-04T05:56:49.278Z</time>
      </trkpt>
      <trkpt lat="45.93759" lon="6.86508">
        <ele>1440</ele>
        <time>2026-08-04T05:56:50.278Z</time>
      </trkpt>
      <trkpt lat="45.93759" lon="6.86508">
        <ele>1440</ele>
        <time>2026-08-04T05:56:51.278Z</time>
      </trkpt>
      <trkpt lat="45.9376" lon="6.86508">
        <ele>1441</ele>
        <time>2026-08-04T05:56:52.278Z</time>
      </trkpt>
      <trkpt lat="45.93761" lon="6.86508">
        <ele>1442</ele>
        <time>2026-08-04T05:56:53.278Z</time>
      </trkpt>
      <trkpt lat="45.93761" lon="6.86508">
        <ele>1442</ele>
        <time>2026-08-04T05:56:54.278Z</time>
      </trkpt>
      <trkpt lat="45.93761" lon="6.86507">
        <ele>1443</ele>
        <time>2026-08-04T05:56:55.278Z</time>
      </trkpt>
      <trkpt lat="45.93761" lon="6.86507">
        <ele>1443</ele>
        <time>2026-08-04T05:56:56.278Z</time>
      </trkpt>
      <trkpt lat="45.93761" lon="6.86507">
        <ele>1443</ele>
        <time>2026-08-04T05:56:57.278Z</time>
      </trkpt>
      <trkpt lat="45.9376" lon="6.86507">
        <ele>1444</ele>
        <time>2026-08-04T05:56:58.278Z</time>
      </trkpt>
      <trkpt lat="45.93761" lon="6.86507">
        <ele>1444</ele>
        <time>2026-08-04T05:56:59.278Z</time>
      </trkpt>
      <trkpt lat="45.93761" lon="6.86506">
        <ele>1444</ele>
        <time>2026-08-04T05:57:00.278Z</time>
      </trkpt>
      <trkpt lat="45.93761" lon="6.86506">
        <ele>1445</ele>
        <time>2026-08-04T05:57:01.278Z</time>
      </trkpt>
      <trkpt lat="45.93762" lon="6.86506">
        <ele>1445</ele>
        <time>2026-08-04T05:57:02.278Z</time>
      </trkpt>
      <trkpt lat="45.93762" lon="6.86506">
        <ele>1445</ele>
        <time>2026-08-04T05:57:03.278Z</time>
      </trkpt>
      <trkpt lat="45.93762" lon="6.86506">
        <ele>1445</ele>
        <time>2026-08-04T05:57:04.278Z</time>
      </trkpt>
      <trkpt lat="45.93763" lon="6.86505">
        <ele>1445</ele>
        <time>2026-08-04T05:57:05.278Z</time>
      </trkpt>
      <trkpt lat="45.93764" lon="6.86505">
        <ele>1446</ele>
        <time>2026-08-04T05:57:06.278Z</time>
      </trkpt>
      <trkpt lat="45.93764" lon="6.86505">
        <ele>1446</ele>
        <time>2026-08-04T05:57:07.278Z</time>
      </trkpt>
      <trkpt lat="45.93765" lon="6.86505">
        <ele>1446</ele>
        <time>2026-08-04T05:57:08.278Z</time>
      </trkpt>
      <trkpt lat="45.93766" lon="6.86505">
        <ele>1447</ele>
        <time>2026-08-04T05:57:09.278Z</time>
      </trkpt>
      <trkpt lat="45.93766" lon="6.86504">
        <ele>1447</ele>
        <time>2026-08-04T05:57:10.278Z</time>
      </trkpt>
      <trkpt lat="45.93766" lon="6.86503">
        <ele>1447</ele>
        <time>2026-08-04T05:57:11.278Z</time>
      </trkpt>
      <trkpt lat="45.93767" lon="6.86502">
        <ele>1447</ele>
        <time>2026-08-04T05:57:12.278Z</time>
      </trkpt>
      <trkpt lat="45.93768" lon="6.86501">
        <ele>1447</ele>
        <time>2026-08-04T05:57:13.278Z</time>
      </trkpt>
      <trkpt lat="45.93769" lon="6.86501">
        <ele>1448</ele>
        <time>2026-08-04T05:57:14.278Z</time>
      </trkpt>
      <trkpt lat="45.9377" lon="6.865">
        <ele>1448</ele>
        <time>2026-08-04T05:57:15.278Z</time>
      </trkpt>
      <trkpt lat="45.93771" lon="6.86499">
        <ele>1448</ele>
        <time>2026-08-04T05:57:16.278Z</time>
      </trkpt>
      <trkpt lat="45.93772" lon="6.86498">
        <ele>1449</ele>
        <time>2026-08-04T05:57:17.278Z</time>
      </trkpt>
      <trkpt lat="45.93774" lon="6.86497">
        <ele>1450</ele>
        <time>2026-08-04T05:57:18.278Z</time>
      </trkpt>
      <trkpt lat="45.93775" lon="6.86496">
        <ele>1450</ele>
        <time>2026-08-04T05:57:19.278Z</time>
      </trkpt>
      <trkpt lat="45.93777" lon="6.86495">
        <ele>1451</ele>
        <time>2026-08-04T05:57:20.278Z</time>
      </trkpt>
      <trkpt lat="45.93779" lon="6.86494">
        <ele>1451</ele>
        <time>2026-08-04T05:57:21.278Z</time>
      </trkpt>
      <trkpt lat="45.93781" lon="6.86494">
        <ele>1452</ele>
        <time>2026-08-04T05:57:22.278Z</time>
      </trkpt>
      <trkpt lat="45.93783" lon="6.86493">
        <ele>1453</ele>
        <time>2026-08-04T05:57:23.278Z</time>
      </trkpt>
      <trkpt lat="45.93785" lon="6.86491">
        <ele>1453</ele>
        <time>2026-08-04T05:57:24.278Z</time>
      </trkpt>
      <trkpt lat="45.93788" lon="6.8649">
        <ele>1454</ele>
        <time>2026-08-04T05:57:25.278Z</time>
      </trkpt>
      <trkpt lat="45.9379" lon="6.8649">
        <ele>1454</ele>
        <time>2026-08-04T05:57:26.278Z</time>
      </trkpt>
      <trkpt lat="45.93793" lon="6.8649">
        <ele>1454</ele>
        <time>2026-08-04T05:57:27.278Z</time>
      </trkpt>
      <trkpt lat="45.93795" lon="6.86489">
        <ele>1454</ele>
        <time>2026-08-04T05:57:28.278Z</time>
      </trkpt>
      <trkpt lat="45.93797" lon="6.86488">
        <ele>1455</ele>
        <time>2026-08-04T05:57:29.278Z</time>
      </trkpt>
      <trkpt lat="45.93799" lon="6.86487">
        <ele>1455</ele>
        <time>2026-08-04T05:57:30.278Z</time>
      </trkpt>
      <trkpt lat="45.938" lon="6.86486">
        <ele>1455</ele>
        <time>2026-08-04T05:57:31.278Z</time>
      </trkpt>
      <trkpt lat="45.93801" lon="6.86486">
        <ele>1455</ele>
        <time>2026-08-04T05:57:32.278Z</time>
      </trkpt>
      <trkpt lat="45.93801" lon="6.86485">
        <ele>1455</ele>
        <time>2026-08-04T05:57:33.278Z</time>
      </trkpt>
      <trkpt lat="45.93802" lon="6.86485">
        <ele>1456</ele>
        <time>2026-08-04T05:57:34.278Z</time>
      </trkpt>
      <trkpt lat="45.93803" lon="6.86485">
        <ele>1456</ele>
        <time>2026-08-04T05:57:35.278Z</time>
      </trkpt>
      <trkpt lat="45.93804" lon="6.86484">
        <ele>1456</ele>
        <time>2026-08-04T05:57:36.278Z</time>
      </trkpt>
      <trkpt lat="45.93805" lon="6.86484">
        <ele>1456</ele>
        <time>2026-08-04T05:57:37.278Z</time>
      </trkpt>
      <trkpt lat="45.93806" lon="6.86483">
        <ele>1457</ele>
        <time>2026-08-04T05:57:38.278Z</time>
      </trkpt>
      <trkpt lat="45.93807" lon="6.86483">
        <ele>1457</ele>
        <time>2026-08-04T05:57:39.278Z</time>
      </trkpt>
      <trkpt lat="45.93809" lon="6.86483">
        <ele>1457</ele>
        <time>2026-08-04T05:57:40.278Z</time>
      </trkpt>
      <trkpt lat="45.9381" lon="6.86483">
        <ele>1458</ele>
        <time>2026-08-04T05:57:41.278Z</time>
      </trkpt>
      <trkpt lat="45.93811" lon="6.86483">
        <ele>1458</ele>
        <time>2026-08-04T05:57:42.278Z</time>
      </trkpt>
      <trkpt lat="45.93813" lon="6.86483">
        <ele>1458</ele>
        <time>2026-08-04T05:57:43.278Z</time>
      </trkpt>
      <trkpt lat="45.93816" lon="6.86483">
        <ele>1459</ele>
        <time>2026-08-04T05:57:44.278Z</time>
      </trkpt>
      <trkpt lat="45.93818" lon="6.86482">
        <ele>1459</ele>
        <time>2026-08-04T05:57:45.278Z</time>
      </trkpt>
      <trkpt lat="45.9382" lon="6.86483">
        <ele>1459</ele>
        <time>2026-08-04T05:57:46.278Z</time>
      </trkpt>
      <trkpt lat="45.93823" lon="6.86482">
        <ele>1459</ele>
        <time>2026-08-04T05:57:47.278Z</time>
      </trkpt>
      <trkpt lat="45.93825" lon="6.86482">
        <ele>1460</ele>
        <time>2026-08-04T05:57:48.278Z</time>
      </trkpt>
      <trkpt lat="45.93827" lon="6.86481">
        <ele>1460</ele>
        <time>2026-08-04T05:57:49.278Z</time>
      </trkpt>
      <trkpt lat="45.93829" lon="6.86481">
        <ele>1460</ele>
        <time>2026-08-04T05:57:50.278Z</time>
      </trkpt>
      <trkpt lat="45.9383" lon="6.8648">
        <ele>1459</ele>
        <time>2026-08-04T05:57:51.278Z</time>
      </trkpt>
      <trkpt lat="45.93831" lon="6.86479">
        <ele>1459</ele>
        <time>2026-08-04T05:57:52.278Z</time>
      </trkpt>
      <trkpt lat="45.93832" lon="6.86479">
        <ele>1459</ele>
        <time>2026-08-04T05:57:53.278Z</time>
      </trkpt>
      <trkpt lat="45.93834" lon="6.86478">
        <ele>1459</ele>
        <time>2026-08-04T05:57:54.278Z</time>
      </trkpt>
      <trkpt lat="45.93836" lon="6.86477">
        <ele>1460</ele>
        <time>2026-08-04T05:57:55.278Z</time>
      </trkpt>
      <trkpt lat="45.93838" lon="6.86476">
        <ele>1460</ele>
        <time>2026-08-04T05:57:56.278Z</time>
      </trkpt>
      <trkpt lat="45.9384" lon="6.86475">
        <ele>1460</ele>
        <time>2026-08-04T05:57:57.278Z</time>
      </trkpt>
      <trkpt lat="45.93841" lon="6.86475">
        <ele>1460</ele>
        <time>2026-08-04T05:57:58.278Z</time>
      </trkpt>
      <trkpt lat="45.93843" lon="6.86475">
        <ele>1460</ele>
        <time>2026-08-04T05:57:59.278Z</time>
      </trkpt>
      <trkpt lat="45.93845" lon="6.86475">
        <ele>1459</ele>
        <time>2026-08-04T05:58:00.278Z</time>
      </trkpt>
      <trkpt lat="45.93847" lon="6.86474">
        <ele>1459</ele>
        <time>2026-08-04T05:58:01.278Z</time>
      </trkpt>
      <trkpt lat="45.93849" lon="6.86474">
        <ele>1459</ele>
        <time>2026-08-04T05:58:02.278Z</time>
      </trkpt>
      <trkpt lat="45.93851" lon="6.86475">
        <ele>1459</ele>
        <time>2026-08-04T05:58:03.278Z</time>
      </trkpt>
      <trkpt lat="45.93853" lon="6.86477">
        <ele>1459</ele>
        <time>2026-08-04T05:58:04.278Z</time>
      </trkpt>
      <trkpt lat="45.93854" lon="6.86477">
        <ele>1459</ele>
        <time>2026-08-04T05:58:05.278Z</time>
      </trkpt>
      <trkpt lat="45.93856" lon="6.86479">
        <ele>1460</ele>
        <time>2026-08-04T05:58:06.278Z</time>
      </trkpt>
      <trkpt lat="45.93858" lon="6.8648">
        <ele>1460</ele>
        <time>2026-08-04T05:58:07.278Z</time>
      </trkpt>
      <trkpt lat="45.93859" lon="6.86481">
        <ele>1460</ele>
        <time>2026-08-04T05:58:08.278Z</time>
      </trkpt>
      <trkpt lat="45.93861" lon="6.86481">
        <ele>1460</ele>
        <time>2026-08-04T05:58:09.278Z</time>
      </trkpt>
      <trkpt lat="45.93863" lon="6.86482">
        <ele>1461</ele>
        <time>2026-08-04T05:58:10.278Z</time>
      </trkpt>
      <trkpt lat="45.93864" lon="6.86483">
        <ele>1461</ele>
        <time>2026-08-04T05:58:11.278Z</time>
      </trkpt>
      <trkpt lat="45.93865" lon="6.86483">
        <ele>1462</ele>
        <time>2026-08-04T05:58:12.278Z</time>
      </trkpt>
      <trkpt lat="45.93866" lon="6.86484">
        <ele>1462</ele>
        <time>2026-08-04T05:58:13.278Z</time>
      </trkpt>
      <trkpt lat="45.93867" lon="6.86484">
        <ele>1462</ele>
        <time>2026-08-04T05:58:14.278Z</time>
      </trkpt>
      <trkpt lat="45.93868" lon="6.86485">
        <ele>1463</ele>
        <time>2026-08-04T05:58:15.278Z</time>
      </trkpt>
      <trkpt lat="45.93869" lon="6.86486">
        <ele>1463</ele>
        <time>2026-08-04T05:58:16.278Z</time>
      </trkpt>
      <trkpt lat="45.9387" lon="6.86488">
        <ele>1463</ele>
        <time>2026-08-04T05:58:17.278Z</time>
      </trkpt>
      <trkpt lat="45.93872" lon="6.86489">
        <ele>1463</ele>
        <time>2026-08-04T05:58:18.278Z</time>
      </trkpt>
      <trkpt lat="45.93873" lon="6.8649">
        <ele>1463</ele>
        <time>2026-08-04T05:58:19.278Z</time>
      </trkpt>
      <trkpt lat="45.93874" lon="6.86492">
        <ele>1463</ele>
        <time>2026-08-04T05:58:20.278Z</time>
      </trkpt>
      <trkpt lat="45.93874" lon="6.86493">
        <ele>1463</ele>
        <time>2026-08-04T05:58:21.278Z</time>
      </trkpt>
      <trkpt lat="45.93875" lon="6.86495">
        <ele>1464</ele>
        <time>2026-08-04T05:58:22.278Z</time>
      </trkpt>
      <trkpt lat="45.93877" lon="6.86496">
        <ele>1464</ele>
        <time>2026-08-04T05:58:23.278Z</time>
      </trkpt>
      <trkpt lat="45.93878" lon="6.86498">
        <ele>1464</ele>
        <time>2026-08-04T05:58:24.278Z</time>
      </trkpt>
      <trkpt lat="45.9388" lon="6.86499">
        <ele>1464</ele>
        <time>2026-08-04T05:58:25.278Z</time>
      </trkpt>
      <trkpt lat="45.93881" lon="6.86499">
        <ele>1464</ele>
        <time>2026-08-04T05:58:26.278Z</time>
      </trkpt>
      <trkpt lat="45.93882" lon="6.865">
        <ele>1464</ele>
        <time>2026-08-04T05:58:27.278Z</time>
      </trkpt>
      <trkpt lat="45.93884" lon="6.865">
        <ele>1464</ele>
        <time>2026-08-04T05:58:28.278Z</time>
      </trkpt>
      <trkpt lat="45.93886" lon="6.865">
        <ele>1464</ele>
        <time>2026-08-04T05:58:29.278Z</time>
      </trkpt>
      <trkpt lat="45.93887" lon="6.865">
        <ele>1464</ele>
        <time>2026-08-04T05:58:30.278Z</time>
      </trkpt>
      <trkpt lat="45.93889" lon="6.865">
        <ele>1464</ele>
        <time>2026-08-04T05:58:31.278Z</time>
      </trkpt>
      <trkpt lat="45.93891" lon="6.865">
        <ele>1464</ele>
        <time>2026-08-04T05:58:32.278Z</time>
      </trkpt>
      <trkpt lat="45.93893" lon="6.865">
        <ele>1465</ele>
        <time>2026-08-04T05:58:33.278Z</time>
      </trkpt>
      <trkpt lat="45.93894" lon="6.865">
        <ele>1465</ele>
        <time>2026-08-04T05:58:34.278Z</time>
      </trkpt>
      <trkpt lat="45.93896" lon="6.865">
        <ele>1465</ele>
        <time>2026-08-04T05:58:35.278Z</time>
      </trkpt>
      <trkpt lat="45.93897" lon="6.865">
        <ele>1466</ele>
        <time>2026-08-04T05:58:36.278Z</time>
      </trkpt>
      <trkpt lat="45.93899" lon="6.86499">
        <ele>1466</ele>
        <time>2026-08-04T05:58:37.278Z</time>
      </trkpt>
      <trkpt lat="45.939" lon="6.86497">
        <ele>1466</ele>
        <time>2026-08-04T05:58:38.278Z</time>
      </trkpt>
      <trkpt lat="45.93901" lon="6.86496">
        <ele>1466</ele>
        <time>2026-08-04T05:58:39.278Z</time>
      </trkpt>
      <trkpt lat="45.93902" lon="6.86495">
        <ele>1466</ele>
        <time>2026-08-04T05:58:40.278Z</time>
      </trkpt>
      <trkpt lat="45.93903" lon="6.86494">
        <ele>1467</ele>
        <time>2026-08-04T05:58:41.278Z</time>
      </trkpt>
      <trkpt lat="45.93904" lon="6.86492">
        <ele>1467</ele>
        <time>2026-08-04T05:58:42.278Z</time>
      </trkpt>
      <trkpt lat="45.93905" lon="6.86491">
        <ele>1467</ele>
        <time>2026-08-04T05:58:43.278Z</time>
      </trkpt>
      <trkpt lat="45.93906" lon="6.8649">
        <ele>1467</ele>
        <time>2026-08-04T05:58:44.278Z</time>
      </trkpt>
      <trkpt lat="45.93907" lon="6.86489">
        <ele>1467</ele>
        <time>2026-08-04T05:58:45.278Z</time>
      </trkpt>
      <trkpt lat="45.93908" lon="6.86488">
        <ele>1468</ele>
        <time>2026-08-04T05:58:46.278Z</time>
      </trkpt>
      <trkpt lat="45.93909" lon="6.86487">
        <ele>1468</ele>
        <time>2026-08-04T05:58:47.278Z</time>
      </trkpt>
      <trkpt lat="45.9391" lon="6.86486">
        <ele>1469</ele>
        <time>2026-08-04T05:58:48.278Z</time>
      </trkpt>
      <trkpt lat="45.9391" lon="6.86485">
        <ele>1469</ele>
        <time>2026-08-04T05:58:49.278Z</time>
      </trkpt>
      <trkpt lat="45.93911" lon="6.86485">
        <ele>1469</ele>
        <time>2026-08-04T05:58:50.278Z</time>
      </trkpt>
      <trkpt lat="45.93911" lon="6.86484">
        <ele>1469</ele>
        <time>2026-08-04T05:58:51.278Z</time>
      </trkpt>
      <trkpt lat="45.93911" lon="6.86482">
        <ele>1470</ele>
        <time>2026-08-04T05:58:52.278Z</time>
      </trkpt>
      <trkpt lat="45.93912" lon="6.86482">
        <ele>1470</ele>
        <time>2026-08-04T05:58:53.278Z</time>
      </trkpt>
      <trkpt lat="45.93913" lon="6.86481">
        <ele>1470</ele>
        <time>2026-08-04T05:58:54.278Z</time>
      </trkpt>
      <trkpt lat="45.93914" lon="6.8648">
        <ele>1470</ele>
        <time>2026-08-04T05:58:55.278Z</time>
      </trkpt>
      <trkpt lat="45.93915" lon="6.86479">
        <ele>1471</ele>
        <time>2026-08-04T05:58:56.278Z</time>
      </trkpt>
      <trkpt lat="45.93916" lon="6.86478">
        <ele>1471</ele>
        <time>2026-08-04T05:58:57.278Z</time>
      </trkpt>
      <trkpt lat="45.93917" lon="6.86477">
        <ele>1471</ele>
        <time>2026-08-04T05:58:58.278Z</time>
      </trkpt>
      <trkpt lat="45.93917" lon="6.86476">
        <ele>1471</ele>
        <time>2026-08-04T05:58:59.278Z</time>
      </trkpt>
      <trkpt lat="45.93918" lon="6.86476">
        <ele>1472</ele>
        <time>2026-08-04T05:59:00.278Z</time>
      </trkpt>
      <trkpt lat="45.9392" lon="6.86475">
        <ele>1472</ele>
        <time>2026-08-04T05:59:01.278Z</time>
      </trkpt>
      <trkpt lat="45.93921" lon="6.86474">
        <ele>1472</ele>
        <time>2026-08-04T05:59:02.278Z</time>
      </trkpt>
      <trkpt lat="45.93922" lon="6.86472">
        <ele>1472</ele>
        <time>2026-08-04T05:59:03.278Z</time>
      </trkpt>
      <trkpt lat="45.93923" lon="6.86471">
        <ele>1472</ele>
        <time>2026-08-04T05:59:04.278Z</time>
      </trkpt>
      <trkpt lat="45.93924" lon="6.86469">
        <ele>1472</ele>
        <time>2026-08-04T05:59:05.278Z</time>
      </trkpt>
      <trkpt lat="45.93925" lon="6.86468">
        <ele>1472</ele>
        <time>2026-08-04T05:59:06.278Z</time>
      </trkpt>
      <trkpt lat="45.93926" lon="6.86467">
        <ele>1472</ele>
        <time>2026-08-04T05:59:07.278Z</time>
      </trkpt>
      <trkpt lat="45.93927" lon="6.86467">
        <ele>1472</ele>
        <time>2026-08-04T05:59:08.278Z</time>
      </trkpt>
      <trkpt lat="45.93928" lon="6.86467">
        <ele>1472</ele>
        <time>2026-08-04T05:59:09.278Z</time>
      </trkpt>
      <trkpt lat="45.9393" lon="6.86468">
        <ele>1471</ele>
        <time>2026-08-04T05:59:10.278Z</time>
      </trkpt>
      <trkpt lat="45.9393" lon="6.86468">
        <ele>1471</ele>
        <time>2026-08-04T05:59:11.278Z</time>
      </trkpt>
      <trkpt lat="45.93932" lon="6.8647">
        <ele>1471</ele>
        <time>2026-08-04T05:59:12.278Z</time>
      </trkpt>
      <trkpt lat="45.93933" lon="6.86471">
        <ele>1470</ele>
        <time>2026-08-04T05:59:13.278Z</time>
      </trkpt>
      <trkpt lat="45.93935" lon="6.86473">
        <ele>1470</ele>
        <time>2026-08-04T05:59:14.278Z</time>
      </trkpt>
      <trkpt lat="45.93935" lon="6.86474">
        <ele>1470</ele>
        <time>2026-08-04T05:59:15.278Z</time>
      </trkpt>
      <trkpt lat="45.93935" lon="6.86474">
        <ele>1470</ele>
        <time>2026-08-04T05:59:16.278Z</time>
      </trkpt>
      <trkpt lat="45.93935" lon="6.86475">
        <ele>1469</ele>
        <time>2026-08-04T05:59:17.278Z</time>
      </trkpt>
      <trkpt lat="45.93936" lon="6.86475">
        <ele>1469</ele>
        <time>2026-08-04T05:59:18.278Z</time>
      </trkpt>
      <trkpt lat="45.93936" lon="6.86476">
        <ele>1469</ele>
        <time>2026-08-04T05:59:19.278Z</time>
      </trkpt>
      <trkpt lat="45.93937" lon="6.86476">
        <ele>1469</ele>
        <time>2026-08-04T05:59:20.278Z</time>
      </trkpt>
      <trkpt lat="45.93937" lon="6.86476">
        <ele>1469</ele>
        <time>2026-08-04T05:59:21.278Z</time>
      </trkpt>
      <trkpt lat="45.93937" lon="6.86476">
        <ele>1469</ele>
        <time>2026-08-04T05:59:22.278Z</time>
      </trkpt>
      <trkpt lat="45.93938" lon="6.86476">
        <ele>1469</ele>
        <time>2026-08-04T05:59:23.278Z</time>
      </trkpt>
      <trkpt lat="45.93939" lon="6.86476">
        <ele>1469</ele>
        <time>2026-08-04T05:59:24.278Z</time>
      </trkpt>
      <trkpt lat="45.9394" lon="6.86476">
        <ele>1470</ele>
        <time>2026-08-04T05:59:25.278Z</time>
      </trkpt>
      <trkpt lat="45.93942" lon="6.86476">
        <ele>1470</ele>
        <time>2026-08-04T05:59:26.278Z</time>
      </trkpt>
      <trkpt lat="45.93942" lon="6.86475">
        <ele>1470</ele>
        <time>2026-08-04T05:59:27.278Z</time>
      </trkpt>
      <trkpt lat="45.93943" lon="6.86476">
        <ele>1471</ele>
        <time>2026-08-04T05:59:28.278Z</time>
      </trkpt>
      <trkpt lat="45.93944" lon="6.86476">
        <ele>1472</ele>
        <time>2026-08-04T05:59:29.278Z</time>
      </trkpt>
      <trkpt lat="45.93944" lon="6.86476">
        <ele>1472</ele>
        <time>2026-08-04T05:59:30.278Z</time>
      </trkpt>
      <trkpt lat="45.93945" lon="6.86475">
        <ele>1473</ele>
        <time>2026-08-04T05:59:31.278Z</time>
      </trkpt>
      <trkpt lat="45.93946" lon="6.86475">
        <ele>1473</ele>
        <time>2026-08-04T05:59:32.278Z</time>
      </trkpt>
      <trkpt lat="45.93948" lon="6.86475">
        <ele>1473</ele>
        <time>2026-08-04T05:59:33.278Z</time>
      </trkpt>
      <trkpt lat="45.93949" lon="6.86475">
        <ele>1473</ele>
        <time>2026-08-04T05:59:34.278Z</time>
      </trkpt>
      <trkpt lat="45.93949" lon="6.86476">
        <ele>1473</ele>
        <time>2026-08-04T05:59:35.278Z</time>
      </trkpt>
      <trkpt lat="45.93949" lon="6.86476">
        <ele>1474</ele>
        <time>2026-08-04T05:59:36.278Z</time>
      </trkpt>
      <trkpt lat="45.93951" lon="6.86476">
        <ele>1474</ele>
        <time>2026-08-04T05:59:37.278Z</time>
      </trkpt>
      <trkpt lat="45.93952" lon="6.86476">
        <ele>1474</ele>
        <time>2026-08-04T05:59:38.278Z</time>
      </trkpt>
      <trkpt lat="45.93953" lon="6.86476">
        <ele>1474</ele>
        <time>2026-08-04T05:59:39.278Z</time>
      </trkpt>
      <trkpt lat="45.93954" lon="6.86476">
        <ele>1474</ele>
        <time>2026-08-04T05:59:40.278Z</time>
      </trkpt>
      <trkpt lat="45.93955" lon="6.86476">
        <ele>1474</ele>
        <time>2026-08-04T05:59:41.278Z</time>
      </trkpt>
      <trkpt lat="45.93956" lon="6.86475">
        <ele>1474</ele>
        <time>2026-08-04T05:59:42.278Z</time>
      </trkpt>
      <trkpt lat="45.93956" lon="6.86475">
        <ele>1474</ele>
        <time>2026-08-04T05:59:43.278Z</time>
      </trkpt>
      <trkpt lat="45.93958" lon="6.86474">
        <ele>1474</ele>
        <time>2026-08-04T05:59:44.278Z</time>
      </trkpt>
      <trkpt lat="45.93958" lon="6.86474">
        <ele>1475</ele>
        <time>2026-08-04T05:59:45.278Z</time>
      </trkpt>
      <trkpt lat="45.93959" lon="6.86475">
        <ele>1475</ele>
        <time>2026-08-04T05:59:46.278Z</time>
      </trkpt>
      <trkpt lat="45.93961" lon="6.86476">
        <ele>1475</ele>
        <time>2026-08-04T05:59:47.278Z</time>
      </trkpt>
      <trkpt lat="45.93962" lon="6.86476">
        <ele>1475</ele>
        <time>2026-08-04T05:59:48.278Z</time>
      </trkpt>
      <trkpt lat="45.93962" lon="6.86477">
        <ele>1475</ele>
        <time>2026-08-04T05:59:49.278Z</time>
      </trkpt>
      <trkpt lat="45.93964" lon="6.86478">
        <ele>1476</ele>
        <time>2026-08-04T05:59:50.278Z</time>
      </trkpt>
      <trkpt lat="45.93965" lon="6.86478">
        <ele>1476</ele>
        <time>2026-08-04T05:59:51.278Z</time>
      </trkpt>
      <trkpt lat="45.93965" lon="6.86477">
        <ele>1476</ele>
        <time>2026-08-04T05:59:52.278Z</time>
      </trkpt>
      <trkpt lat="45.93966" lon="6.86476">
        <ele>1476</ele>
        <time>2026-08-04T05:59:53.278Z</time>
      </trkpt>
      <trkpt lat="45.93967" lon="6.86473">
        <ele>1476</ele>
        <time>2026-08-04T05:59:54.278Z</time>
      </trkpt>
      <trkpt lat="45.93969" lon="6.86472">
        <ele>1476</ele>
        <time>2026-08-04T05:59:55.278Z</time>
      </trkpt>
      <trkpt lat="45.9397" lon="6.86471">
        <ele>1476</ele>
        <time>2026-08-04T05:59:56.278Z</time>
      </trkpt>
      <trkpt lat="45.93972" lon="6.8647">
        <ele>1477</ele>
        <time>2026-08-04T05:59:57.278Z</time>
      </trkpt>
      <trkpt lat="45.93974" lon="6.86471">
        <ele>1477</ele>
        <time>2026-08-04T05:59:58.278Z</time>
      </trkpt>
      <trkpt lat="45.93976" lon="6.86471">
        <ele>1477</ele>
        <time>2026-08-04T05:59:59.278Z</time>
      </trkpt>
      <trkpt lat="45.93977" lon="6.86471">
        <ele>1478</ele>
        <time>2026-08-04T06:00:00.278Z</time>
      </trkpt>
      <trkpt lat="45.93979" lon="6.8647">
        <ele>1478</ele>
        <time>2026-08-04T06:00:01.278Z</time>
      </trkpt>
      <trkpt lat="45.9398" lon="6.86469">
        <ele>1478</ele>
        <time>2026-08-04T06:00:02.278Z</time>
      </trkpt>
      <trkpt lat="45.93981" lon="6.86467">
        <ele>1479</ele>
        <time>2026-08-04T06:00:03.278Z</time>
      </trkpt>
      <trkpt lat="45.93983" lon="6.86466">
        <ele>1479</ele>
        <time>2026-08-04T06:00:04.278Z</time>
      </trkpt>
      <trkpt lat="45.93984" lon="6.86465">
        <ele>1480</ele>
        <time>2026-08-04T06:00:05.278Z</time>
      </trkpt>
      <trkpt lat="45.93986" lon="6.86464">
        <ele>1481</ele>
        <time>2026-08-04T06:00:06.278Z</time>
      </trkpt>
      <trkpt lat="45.93987" lon="6.86462">
        <ele>1481</ele>
        <time>2026-08-04T06:00:07.278Z</time>
      </trkpt>
      <trkpt lat="45.93988" lon="6.86462">
        <ele>1481</ele>
        <time>2026-08-04T06:00:08.278Z</time>
      </trkpt>
      <trkpt lat="45.93989" lon="6.86462">
        <ele>1482</ele>
        <time>2026-08-04T06:00:09.278Z</time>
      </trkpt>
      <trkpt lat="45.93989" lon="6.86461">
        <ele>1482</ele>
        <time>2026-08-04T06:00:10.278Z</time>
      </trkpt>
      <trkpt lat="45.9399" lon="6.8646">
        <ele>1482</ele>
        <time>2026-08-04T06:00:11.278Z</time>
      </trkpt>
      <trkpt lat="45.93992" lon="6.86459">
        <ele>1482</ele>
        <time>2026-08-04T06:00:12.278Z</time>
      </trkpt>
      <trkpt lat="45.93993" lon="6.86457">
        <ele>1483</ele>
        <time>2026-08-04T06:00:13.278Z</time>
      </trkpt>
      <trkpt lat="45.93995" lon="6.86456">
        <ele>1483</ele>
        <time>2026-08-04T06:00:14.278Z</time>
      </trkpt>
      <trkpt lat="45.93996" lon="6.86455">
        <ele>1483</ele>
        <time>2026-08-04T06:00:15.278Z</time>
      </trkpt>
      <trkpt lat="45.93998" lon="6.86454">
        <ele>1483</ele>
        <time>2026-08-04T06:00:16.278Z</time>
      </trkpt>
      <trkpt lat="45.93999" lon="6.86453">
        <ele>1483</ele>
        <time>2026-08-04T06:00:17.278Z</time>
      </trkpt>
      <trkpt lat="45.94001" lon="6.86452">
        <ele>1483</ele>
        <time>2026-08-04T06:00:18.278Z</time>
      </trkpt>
      <trkpt lat="45.94002" lon="6.86452">
        <ele>1483</ele>
        <time>2026-08-04T06:00:19.278Z</time>
      </trkpt>
      <trkpt lat="45.94003" lon="6.86451">
        <ele>1483</ele>
        <time>2026-08-04T06:00:20.278Z</time>
      </trkpt>
      <trkpt lat="45.94005" lon="6.8645">
        <ele>1483</ele>
        <time>2026-08-04T06:00:21.278Z</time>
      </trkpt>
      <trkpt lat="45.94006" lon="6.86449">
        <ele>1483</ele>
        <time>2026-08-04T06:00:22.278Z</time>
      </trkpt>
      <trkpt lat="45.94006" lon="6.86449">
        <ele>1483</ele>
        <time>2026-08-04T06:00:23.278Z</time>
      </trkpt>
      <trkpt lat="45.94007" lon="6.86448">
        <ele>1482</ele>
        <time>2026-08-04T06:00:24.278Z</time>
      </trkpt>
      <trkpt lat="45.94007" lon="6.86448">
        <ele>1482</ele>
        <time>2026-08-04T06:00:25.278Z</time>
      </trkpt>
      <trkpt lat="45.94008" lon="6.86447">
        <ele>1481</ele>
        <time>2026-08-04T06:00:26.278Z</time>
      </trkpt>
      <trkpt lat="45.94009" lon="6.86447">
        <ele>1481</ele>
        <time>2026-08-04T06:00:27.278Z</time>
      </trkpt>
      <trkpt lat="45.94009" lon="6.86446">
        <ele>1480</ele>
        <time>2026-08-04T06:00:28.278Z</time>
      </trkpt>
      <trkpt lat="45.9401" lon="6.86445">
        <ele>1479</ele>
        <time>2026-08-04T06:00:29.278Z</time>
      </trkpt>
      <trkpt lat="45.9401" lon="6.86443">
        <ele>1479</ele>
        <time>2026-08-04T06:00:30.278Z</time>
      </trkpt>
      <trkpt lat="45.9401" lon="6.86442">
        <ele>1478</ele>
        <time>2026-08-04T06:00:31.278Z</time>
      </trkpt>
      <trkpt lat="45.94011" lon="6.8644">
        <ele>1478</ele>
        <time>2026-08-04T06:00:32.278Z</time>
      </trkpt>
      <trkpt lat="45.94013" lon="6.8644">
        <ele>1477</ele>
        <time>2026-08-04T06:00:33.278Z</time>
      </trkpt>
      <trkpt lat="45.94013" lon="6.86438">
        <ele>1476</ele>
        <time>2026-08-04T06:00:34.278Z</time>
      </trkpt>
      <trkpt lat="45.94013" lon="6.86437">
        <ele>1476</ele>
        <time>2026-08-04T06:00:35.278Z</time>
      </trkpt>
      <trkpt lat="45.94013" lon="6.86437">
        <ele>1476</ele>
        <time>2026-08-04T06:00:36.278Z</time>
      </trkpt>
      <trkpt lat="45.94014" lon="6.86436">
        <ele>1475</ele>
        <time>2026-08-04T06:00:37.278Z</time>
      </trkpt>
      <trkpt lat="45.94014" lon="6.86436">
        <ele>1475</ele>
        <time>2026-08-04T06:00:38.278Z</time>
      </trkpt>
      <trkpt lat="45.94015" lon="6.86436">
        <ele>1475</ele>
        <time>2026-08-04T06:00:39.278Z</time>
      </trkpt>
      <trkpt lat="45.94015" lon="6.86435">
        <ele>1475</ele>
        <time>2026-08-04T06:00:40.278Z</time>
      </trkpt>
      <trkpt lat="45.94015" lon="6.86435">
        <ele>1476</ele>
        <time>2026-08-04T06:00:41.278Z</time>
      </trkpt>
      <trkpt lat="45.94015" lon="6.86435">
        <ele>1476</ele>
        <time>2026-08-04T06:00:42.278Z</time>
      </trkpt>
      <trkpt lat="45.94015" lon="6.86434">
        <ele>1476</ele>
        <time>2026-08-04T06:00:43.279Z</time>
      </trkpt>
      <trkpt lat="45.94016" lon="6.86432">
        <ele>1476</ele>
        <time>2026-08-04T06:00:44.278Z</time>
      </trkpt>
      <trkpt lat="45.94017" lon="6.86431">
        <ele>1476</ele>
        <time>2026-08-04T06:00:45.278Z</time>
      </trkpt>
      <trkpt lat="45.94018" lon="6.8643">
        <ele>1476</ele>
        <time>2026-08-04T06:00:46.278Z</time>
      </trkpt>
      <trkpt lat="45.94019" lon="6.86429">
        <ele>1477</ele>
        <time>2026-08-04T06:00:47.278Z</time>
      </trkpt>
      <trkpt lat="45.94019" lon="6.86429">
        <ele>1477</ele>
        <time>2026-08-04T06:00:48.278Z</time>
      </trkpt>
      <trkpt lat="45.9402" lon="6.86428">
        <ele>1477</ele>
        <time>2026-08-04T06:00:49.278Z</time>
      </trkpt>
      <trkpt lat="45.9402" lon="6.86427">
        <ele>1477</ele>
        <time>2026-08-04T06:00:50.278Z</time>
      </trkpt>
      <trkpt lat="45.94021" lon="6.86426">
        <ele>1477</ele>
        <time>2026-08-04T06:00:51.278Z</time>
      </trkpt>
      <trkpt lat="45.94021" lon="6.86426">
        <ele>1478</ele>
        <time>2026-08-04T06:00:52.278Z</time>
      </trkpt>
      <trkpt lat="45.94022" lon="6.86426">
        <ele>1478</ele>
        <time>2026-08-04T06:00:53.278Z</time>
      </trkpt>
      <trkpt lat="45.94022" lon="6.86425">
        <ele>1479</ele>
        <time>2026-08-04T06:00:54.278Z</time>
      </trkpt>
      <trkpt lat="45.94023" lon="6.86425">
        <ele>1479</ele>
        <time>2026-08-04T06:00:55.278Z</time>
      </trkpt>
      <trkpt lat="45.94023" lon="6.86425">
        <ele>1480</ele>
        <time>2026-08-04T06:00:56.278Z</time>
      </trkpt>
      <trkpt lat="45.94023" lon="6.86425">
        <ele>1481</ele>
        <time>2026-08-04T06:00:57.278Z</time>
      </trkpt>
      <trkpt lat="45.94024" lon="6.86424">
        <ele>1481</ele>
        <time>2026-08-04T06:00:58.278Z</time>
      </trkpt>
      <trkpt lat="45.94024" lon="6.86424">
        <ele>1482</ele>
        <time>2026-08-04T06:00:59.278Z</time>
      </trkpt>
      <trkpt lat="45.94025" lon="6.86424">
        <ele>1483</ele>
        <time>2026-08-04T06:01:00.278Z</time>
      </trkpt>
      <trkpt lat="45.94025" lon="6.86424">
        <ele>1483</ele>
        <time>2026-08-04T06:01:01.278Z</time>
      </trkpt>
      <trkpt lat="45.94027" lon="6.86424">
        <ele>1484</ele>
        <time>2026-08-04T06:01:02.278Z</time>
      </trkpt>
      <trkpt lat="45.94028" lon="6.86425">
        <ele>1484</ele>
        <time>2026-08-04T06:01:03.278Z</time>
      </trkpt>
      <trkpt lat="45.94029" lon="6.86426">
        <ele>1485</ele>
        <time>2026-08-04T06:01:04.278Z</time>
      </trkpt>
      <trkpt lat="45.9403" lon="6.86427">
        <ele>1485</ele>
        <time>2026-08-04T06:01:05.278Z</time>
      </trkpt>
      <trkpt lat="45.94031" lon="6.86427">
        <ele>1486</ele>
        <time>2026-08-04T06:01:06.278Z</time>
      </trkpt>
      <trkpt lat="45.94031" lon="6.86428">
        <ele>1486</ele>
        <time>2026-08-04T06:01:07.278Z</time>
      </trkpt>
      <trkpt lat="45.94031" lon="6.86428">
        <ele>1487</ele>
        <time>2026-08-04T06:01:08.278Z</time>
      </trkpt>
      <trkpt lat="45.94032" lon="6.86428">
        <ele>1487</ele>
        <time>2026-08-04T06:01:09.278Z</time>
      </trkpt>
      <trkpt lat="45.94032" lon="6.86428">
        <ele>1487</ele>
        <time>2026-08-04T06:01:10.278Z</time>
      </trkpt>
      <trkpt lat="45.94032" lon="6.86428">
        <ele>1487</ele>
        <time>2026-08-04T06:01:11.278Z</time>
      </trkpt>
      <trkpt lat="45.94033" lon="6.86427">
        <ele>1487</ele>
        <time>2026-08-04T06:01:12.278Z</time>
      </trkpt>
      <trkpt lat="45.94033" lon="6.86427">
        <ele>1487</ele>
        <time>2026-08-04T06:01:13.278Z</time>
      </trkpt>
      <trkpt lat="45.94032" lon="6.86427">
        <ele>1487</ele>
        <time>2026-08-04T06:01:14.278Z</time>
      </trkpt>
      <trkpt lat="45.94033" lon="6.86427">
        <ele>1487</ele>
        <time>2026-08-04T06:01:15.278Z</time>
      </trkpt>
      <trkpt lat="45.94034" lon="6.86426">
        <ele>1488</ele>
        <time>2026-08-04T06:01:16.278Z</time>
      </trkpt>
      <trkpt lat="45.94034" lon="6.86426">
        <ele>1488</ele>
        <time>2026-08-04T06:01:17.278Z</time>
      </trkpt>
      <trkpt lat="45.94035" lon="6.86425">
        <ele>1488</ele>
        <time>2026-08-04T06:01:18.278Z</time>
      </trkpt>
      <trkpt lat="45.94035" lon="6.86424">
        <ele>1488</ele>
        <time>2026-08-04T06:01:19.278Z</time>
      </trkpt>
      <trkpt lat="45.94035" lon="6.86424">
        <ele>1488</ele>
        <time>2026-08-04T06:01:20.278Z</time>
      </trkpt>
      <trkpt lat="45.94036" lon="6.86424">
        <ele>1488</ele>
        <time>2026-08-04T06:01:21.278Z</time>
      </trkpt>
      <trkpt lat="45.94036" lon="6.86424">
        <ele>1488</ele>
        <time>2026-08-04T06:01:22.278Z</time>
      </trkpt>
      <trkpt lat="45.94036" lon="6.86424">
        <ele>1489</ele>
        <time>2026-08-04T06:01:23.278Z</time>
      </trkpt>
      <trkpt lat="45.94035" lon="6.86425">
        <ele>1489</ele>
        <time>2026-08-04T06:01:24.278Z</time>
      </trkpt>
      <trkpt lat="45.94035" lon="6.86426">
        <ele>1489</ele>
        <time>2026-08-04T06:01:25.278Z</time>
      </trkpt>
      <trkpt lat="45.94035" lon="6.86426">
        <ele>1488</ele>
        <time>2026-08-04T06:01:26.278Z</time>
      </trkpt>
      <trkpt lat="45.94034" lon="6.86427">
        <ele>1488</ele>
        <time>2026-08-04T06:01:27.278Z</time>
      </trkpt>
      <trkpt lat="45.94033" lon="6.86427">
        <ele>1488</ele>
        <time>2026-08-04T06:01:28.278Z</time>
      </trkpt>
      <trkpt lat="45.94033" lon="6.86428">
        <ele>1487</ele>
        <time>2026-08-04T06:01:29.278Z</time>
      </trkpt>
      <trkpt lat="45.94033" lon="6.86429">
        <ele>1486</ele>
        <time>2026-08-04T06:01:30.278Z</time>
      </trkpt>
      <trkpt lat="45.94032" lon="6.8643">
        <ele>1486</ele>
        <time>2026-08-04T06:01:31.278Z</time>
      </trkpt>
      <trkpt lat="45.94033" lon="6.86431">
        <ele>1485</ele>
        <time>2026-08-04T06:01:32.278Z</time>
      </trkpt>
      <trkpt lat="45.94034" lon="6.86431">
        <ele>1484</ele>
        <time>2026-08-04T06:01:33.278Z</time>
      </trkpt>
      <trkpt lat="45.94033" lon="6.86433">
        <ele>1484</ele>
        <time>2026-08-04T06:01:34.278Z</time>
      </trkpt>
      <trkpt lat="45.94033" lon="6.86433">
        <ele>1484</ele>
        <time>2026-08-04T06:01:35.278Z</time>
      </trkpt>
      <trkpt lat="45.94034" lon="6.86434">
        <ele>1483</ele>
        <time>2026-08-04T06:01:36.278Z</time>
      </trkpt>
      <trkpt lat="45.94034" lon="6.86436">
        <ele>1483</ele>
        <time>2026-08-04T06:01:37.278Z</time>
      </trkpt>
      <trkpt lat="45.94034" lon="6.86437">
        <ele>1483</ele>
        <time>2026-08-04T06:01:38.278Z</time>
      </trkpt>
      <trkpt lat="45.94035" lon="6.86437">
        <ele>1483</ele>
        <time>2026-08-04T06:01:39.278Z</time>
      </trkpt>
      <trkpt lat="45.94035" lon="6.86438">
        <ele>1483</ele>
        <time>2026-08-04T06:01:40.278Z</time>
      </trkpt>
      <trkpt lat="45.94035" lon="6.86439">
        <ele>1482</ele>
        <time>2026-08-04T06:01:41.278Z</time>
      </trkpt>
      <trkpt lat="45.94035" lon="6.8644">
        <ele>1482</ele>
        <time>2026-08-04T06:01:42.278Z</time>
      </trkpt>
      <trkpt lat="45.94035" lon="6.86442">
        <ele>1482</ele>
        <time>2026-08-04T06:01:43.278Z</time>
      </trkpt>
      <trkpt lat="45.94035" lon="6.86444">
        <ele>1482</ele>
        <time>2026-08-04T06:01:44.278Z</time>
      </trkpt>
      <trkpt lat="45.94035" lon="6.86444">
        <ele>1482</ele>
        <time>2026-08-04T06:01:45.278Z</time>
      </trkpt>
      <trkpt lat="45.94036" lon="6.86446">
        <ele>1481</ele>
        <time>2026-08-04T06:01:46.278Z</time>
      </trkpt>
      <trkpt lat="45.94036" lon="6.86447">
        <ele>1481</ele>
        <time>2026-08-04T06:01:47.278Z</time>
      </trkpt>
      <trkpt lat="45.94036" lon="6.86448">
        <ele>1481</ele>
        <time>2026-08-04T06:01:48.278Z</time>
      </trkpt>
      <trkpt lat="45.94037" lon="6.86449">
        <ele>1481</ele>
        <time>2026-08-04T06:01:49.278Z</time>
      </trkpt>
      <trkpt lat="45.94037" lon="6.86451">
        <ele>1480</ele>
        <time>2026-08-04T06:01:50.278Z</time>
      </trkpt>
      <trkpt lat="45.94037" lon="6.86452">
        <ele>1480</ele>
        <time>2026-08-04T06:01:51.278Z</time>
      </trkpt>
      <trkpt lat="45.94037" lon="6.86453">
        <ele>1480</ele>
        <time>2026-08-04T06:01:52.278Z</time>
      </trkpt>
      <trkpt lat="45.94038" lon="6.86455">
        <ele>1480</ele>
        <time>2026-08-04T06:01:53.278Z</time>
      </trkpt>
      <trkpt lat="45.94038" lon="6.86455">
        <ele>1480</ele>
        <time>2026-08-04T06:01:54.278Z</time>
      </trkpt>
      <trkpt lat="45.94038" lon="6.86456">
        <ele>1479</ele>
        <time>2026-08-04T06:01:55.278Z</time>
      </trkpt>
      <trkpt lat="45.94038" lon="6.86456">
        <ele>1479</ele>
        <time>2026-08-04T06:01:56.278Z</time>
      </trkpt>
      <trkpt lat="45.94038" lon="6.86456">
        <ele>1479</ele>
        <time>2026-08-04T06:01:57.278Z</time>
      </trkpt>
      <trkpt lat="45.94038" lon="6.86456">
        <ele>1479</ele>
        <time>2026-08-04T06:01:58.278Z</time>
      </trkpt>
      <trkpt lat="45.94038" lon="6.86457">
        <ele>1479</ele>
        <time>2026-08-04T06:01:59.278Z</time>
      </trkpt>
      <trkpt lat="45.94037" lon="6.86457">
        <ele>1479</ele>
        <time>2026-08-04T06:02:00.278Z</time>
      </trkpt>
      <trkpt lat="45.94037" lon="6.86458">
        <ele>1479</ele>
        <time>2026-08-04T06:02:01.278Z</time>
      </trkpt>
      <trkpt lat="45.94037" lon="6.86459">
        <ele>1478</ele>
        <time>2026-08-04T06:02:02.278Z</time>
      </trkpt>
      <trkpt lat="45.94037" lon="6.8646">
        <ele>1478</ele>
        <time>2026-08-04T06:02:03.278Z</time>
      </trkpt>
      <trkpt lat="45.94037" lon="6.86461">
        <ele>1478</ele>
        <time>2026-08-04T06:02:04.278Z</time>
      </trkpt>
      <trkpt lat="45.94038" lon="6.86463">
        <ele>1478</ele>
        <time>2026-08-04T06:02:05.278Z</time>
      </trkpt>
      <trkpt lat="45.94038" lon="6.86465">
        <ele>1478</ele>
        <time>2026-08-04T06:02:06.278Z</time>
      </trkpt>
      <trkpt lat="45.94038" lon="6.86466">
        <ele>1478</ele>
        <time>2026-08-04T06:02:07.278Z</time>
      </trkpt>
      <trkpt lat="45.94039" lon="6.86468">
        <ele>1478</ele>
        <time>2026-08-04T06:02:08.278Z</time>
      </trkpt>
      <trkpt lat="45.94039" lon="6.86469">
        <ele>1479</ele>
        <time>2026-08-04T06:02:09.278Z</time>
      </trkpt>
      <trkpt lat="45.9404" lon="6.8647">
        <ele>1479</ele>
        <time>2026-08-04T06:02:10.278Z</time>
      </trkpt>
      <trkpt lat="45.94041" lon="6.86471">
        <ele>1479</ele>
        <time>2026-08-04T06:02:11.278Z</time>
      </trkpt>
      <trkpt lat="45.94042" lon="6.86473">
        <ele>1480</ele>
        <time>2026-08-04T06:02:12.278Z</time>
      </trkpt>
      <trkpt lat="45.94042" lon="6.86475">
        <ele>1480</ele>
        <time>2026-08-04T06:02:13.278Z</time>
      </trkpt>
      <trkpt lat="45.94043" lon="6.86476">
        <ele>1480</ele>
        <time>2026-08-04T06:02:14.278Z</time>
      </trkpt>
      <trkpt lat="45.94043" lon="6.86478">
        <ele>1481</ele>
        <time>2026-08-04T06:02:15.278Z</time>
      </trkpt>
      <trkpt lat="45.94044" lon="6.8648">
        <ele>1481</ele>
        <time>2026-08-04T06:02:16.278Z</time>
      </trkpt>
      <trkpt lat="45.94044" lon="6.86482">
        <ele>1481</ele>
        <time>2026-08-04T06:02:17.278Z</time>
      </trkpt>
      <trkpt lat="45.94045" lon="6.86485">
        <ele>1482</ele>
        <time>2026-08-04T06:02:18.278Z</time>
      </trkpt>
      <trkpt lat="45.94046" lon="6.86486">
        <ele>1482</ele>
        <time>2026-08-04T06:02:19.278Z</time>
      </trkpt>
      <trkpt lat="45.94047" lon="6.86487">
        <ele>1482</ele>
        <time>2026-08-04T06:02:20.278Z</time>
      </trkpt>
      <trkpt lat="45.94048" lon="6.86488">
        <ele>1483</ele>
        <time>2026-08-04T06:02:21.278Z</time>
      </trkpt>
      <trkpt lat="45.94049" lon="6.8649">
        <ele>1483</ele>
        <time>2026-08-04T06:02:22.278Z</time>
      </trkpt>
      <trkpt lat="45.9405" lon="6.86491">
        <ele>1483</ele>
        <time>2026-08-04T06:02:23.278Z</time>
      </trkpt>
      <trkpt lat="45.94051" lon="6.86492">
        <ele>1483</ele>
        <time>2026-08-04T06:02:24.278Z</time>
      </trkpt>
      <trkpt lat="45.94052" lon="6.86493">
        <ele>1484</ele>
        <time>2026-08-04T06:02:25.278Z</time>
      </trkpt>
      <trkpt lat="45.94054" lon="6.86495">
        <ele>1484</ele>
        <time>2026-08-04T06:02:26.278Z</time>
      </trkpt>
      <trkpt lat="45.94055" lon="6.86496">
        <ele>1484</ele>
        <time>2026-08-04T06:02:27.278Z</time>
      </trkpt>
      <trkpt lat="45.94057" lon="6.86497">
        <ele>1485</ele>
        <time>2026-08-04T06:02:28.278Z</time>
      </trkpt>
      <trkpt lat="45.94058" lon="6.86497">
        <ele>1485</ele>
        <time>2026-08-04T06:02:29.278Z</time>
      </trkpt>
      <trkpt lat="45.9406" lon="6.86497">
        <ele>1486</ele>
        <time>2026-08-04T06:02:30.278Z</time>
      </trkpt>
      <trkpt lat="45.94061" lon="6.86497">
        <ele>1486</ele>
        <time>2026-08-04T06:02:31.278Z</time>
      </trkpt>
      <trkpt lat="45.94061" lon="6.86496">
        <ele>1486</ele>
        <time>2026-08-04T06:02:32.278Z</time>
      </trkpt>
      <trkpt lat="45.94062" lon="6.86496">
        <ele>1485</ele>
        <time>2026-08-04T06:02:33.278Z</time>
      </trkpt>
      <trkpt lat="45.94063" lon="6.86495">
        <ele>1485</ele>
        <time>2026-08-04T06:02:34.278Z</time>
      </trkpt>
      <trkpt lat="45.94063" lon="6.86495">
        <ele>1484</ele>
        <time>2026-08-04T06:02:35.278Z</time>
      </trkpt>
      <trkpt lat="45.94064" lon="6.86494">
        <ele>1483</ele>
        <time>2026-08-04T06:02:36.279Z</time>
      </trkpt>
      <trkpt lat="45.94065" lon="6.86494">
        <ele>1483</ele>
        <time>2026-08-04T06:02:37.278Z</time>
      </trkpt>
      <trkpt lat="45.94066" lon="6.86493">
        <ele>1482</ele>
        <time>2026-08-04T06:02:38.278Z</time>
      </trkpt>
      <trkpt lat="45.94067" lon="6.86493">
        <ele>1482</ele>
        <time>2026-08-04T06:02:39.278Z</time>
      </trkpt>
      <trkpt lat="45.94069" lon="6.86492">
        <ele>1482</ele>
        <time>2026-08-04T06:02:40.278Z</time>
      </trkpt>
      <trkpt lat="45.94071" lon="6.86492">
        <ele>1482</ele>
        <time>2026-08-04T06:02:41.278Z</time>
      </trkpt>
      <trkpt lat="45.94072" lon="6.86492">
        <ele>1482</ele>
        <time>2026-08-04T06:02:42.278Z</time>
      </trkpt>
      <trkpt lat="45.94074" lon="6.86492">
        <ele>1482</ele>
        <time>2026-08-04T06:02:43.278Z</time>
      </trkpt>
      <trkpt lat="45.94075" lon="6.86492">
        <ele>1482</ele>
        <time>2026-08-04T06:02:44.278Z</time>
      </trkpt>
      <trkpt lat="45.94076" lon="6.86492">
        <ele>1482</ele>
        <time>2026-08-04T06:02:45.278Z</time>
      </trkpt>
      <trkpt lat="45.94076" lon="6.86492">
        <ele>1482</ele>
        <time>2026-08-04T06:02:46.278Z</time>
      </trkpt>
      <trkpt lat="45.94077" lon="6.86493">
        <ele>1482</ele>
        <time>2026-08-04T06:02:47.278Z</time>
      </trkpt>
      <trkpt lat="45.94077" lon="6.86494">
        <ele>1483</ele>
        <time>2026-08-04T06:02:48.278Z</time>
      </trkpt>
      <trkpt lat="45.94077" lon="6.86495">
        <ele>1483</ele>
        <time>2026-08-04T06:02:49.278Z</time>
      </trkpt>
      <trkpt lat="45.94077" lon="6.86497">
        <ele>1483</ele>
        <time>2026-08-04T06:02:50.278Z</time>
      </trkpt>
      <trkpt lat="45.94077" lon="6.86498">
        <ele>1483</ele>
        <time>2026-08-04T06:02:51.278Z</time>
      </trkpt>
      <trkpt lat="45.94077" lon="6.865">
        <ele>1483</ele>
        <time>2026-08-04T06:02:52.278Z</time>
      </trkpt>
      <trkpt lat="45.94078" lon="6.86502">
        <ele>1484</ele>
        <time>2026-08-04T06:02:53.278Z</time>
      </trkpt>
      <trkpt lat="45.94078" lon="6.86504">
        <ele>1484</ele>
        <time>2026-08-04T06:02:54.278Z</time>
      </trkpt>
      <trkpt lat="45.94079" lon="6.86505">
        <ele>1484</ele>
        <time>2026-08-04T06:02:55.278Z</time>
      </trkpt>
      <trkpt lat="45.9408" lon="6.86508">
        <ele>1484</ele>
        <time>2026-08-04T06:02:56.278Z</time>
      </trkpt>
      <trkpt lat="45.9408" lon="6.86509">
        <ele>1484</ele>
        <time>2026-08-04T06:02:57.278Z</time>
      </trkpt>
      <trkpt lat="45.9408" lon="6.86511">
        <ele>1485</ele>
        <time>2026-08-04T06:02:58.278Z</time>
      </trkpt>
      <trkpt lat="45.94081" lon="6.86513">
        <ele>1485</ele>
        <time>2026-08-04T06:02:59.278Z</time>
      </trkpt>
      <trkpt lat="45.94082" lon="6.86515">
        <ele>1485</ele>
        <time>2026-08-04T06:03:00.278Z</time>
      </trkpt>
      <trkpt lat="45.94083" lon="6.86517">
        <ele>1485</ele>
        <time>2026-08-04T06:03:01.278Z</time>
      </trkpt>
      <trkpt lat="45.94083" lon="6.86519">
        <ele>1486</ele>
        <time>2026-08-04T06:03:02.278Z</time>
      </trkpt>
      <trkpt lat="45.94084" lon="6.86521">
        <ele>1486</ele>
        <time>2026-08-04T06:03:03.278Z</time>
      </trkpt>
      <trkpt lat="45.94084" lon="6.86522">
        <ele>1486</ele>
        <time>2026-08-04T06:03:04.278Z</time>
      </trkpt>
      <trkpt lat="45.94085" lon="6.86524">
        <ele>1486</ele>
        <time>2026-08-04T06:03:05.278Z</time>
      </trkpt>
      <trkpt lat="45.94085" lon="6.86525">
        <ele>1487</ele>
        <time>2026-08-04T06:03:06.278Z</time>
      </trkpt>
      <trkpt lat="45.94086" lon="6.86527">
        <ele>1487</ele>
        <time>2026-08-04T06:03:07.278Z</time>
      </trkpt>
      <trkpt lat="45.94086" lon="6.86528">
        <ele>1487</ele>
        <time>2026-08-04T06:03:08.278Z</time>
      </trkpt>
      <trkpt lat="45.94087" lon="6.8653">
        <ele>1487</ele>
        <time>2026-08-04T06:03:09.278Z</time>
      </trkpt>
      <trkpt lat="45.94088" lon="6.86532">
        <ele>1487</ele>
        <time>2026-08-04T06:03:10.278Z</time>
      </trkpt>
      <trkpt lat="45.94089" lon="6.86534">
        <ele>1488</ele>
        <time>2026-08-04T06:03:11.278Z</time>
      </trkpt>
      <trkpt lat="45.94089" lon="6.86536">
        <ele>1488</ele>
        <time>2026-08-04T06:03:12.278Z</time>
      </trkpt>
      <trkpt lat="45.9409" lon="6.86538">
        <ele>1488</ele>
        <time>2026-08-04T06:03:13.278Z</time>
      </trkpt>
      <trkpt lat="45.94091" lon="6.86541">
        <ele>1489</ele>
        <time>2026-08-04T06:03:14.278Z</time>
      </trkpt>
      <trkpt lat="45.94092" lon="6.86543">
        <ele>1489</ele>
        <time>2026-08-04T06:03:15.278Z</time>
      </trkpt>
      <trkpt lat="45.94092" lon="6.86544">
        <ele>1489</ele>
        <time>2026-08-04T06:03:16.278Z</time>
      </trkpt>
      <trkpt lat="45.94092" lon="6.86546">
        <ele>1490</ele>
        <time>2026-08-04T06:03:17.278Z</time>
      </trkpt>
      <trkpt lat="45.94092" lon="6.86547">
        <ele>1490</ele>
        <time>2026-08-04T06:03:18.278Z</time>
      </trkpt>
      <trkpt lat="45.94092" lon="6.86547">
        <ele>1490</ele>
        <time>2026-08-04T06:03:19.278Z</time>
      </trkpt>
      <trkpt lat="45.94092" lon="6.86547">
        <ele>1490</ele>
        <time>2026-08-04T06:03:20.278Z</time>
      </trkpt>
      <trkpt lat="45.94092" lon="6.86548">
        <ele>1490</ele>
        <time>2026-08-04T06:03:21.278Z</time>
      </trkpt>
      <trkpt lat="45.94093" lon="6.86549">
        <ele>1490</ele>
        <time>2026-08-04T06:03:22.278Z</time>
      </trkpt>
      <trkpt lat="45.94093" lon="6.86549">
        <ele>1490</ele>
        <time>2026-08-04T06:03:23.278Z</time>
      </trkpt>
      <trkpt lat="45.94093" lon="6.8655">
        <ele>1490</ele>
        <time>2026-08-04T06:03:24.278Z</time>
      </trkpt>
      <trkpt lat="45.94093" lon="6.86551">
        <ele>1490</ele>
        <time>2026-08-04T06:03:25.278Z</time>
      </trkpt>
      <trkpt lat="45.94093" lon="6.86552">
        <ele>1490</ele>
        <time>2026-08-04T06:03:26.278Z</time>
      </trkpt>
      <trkpt lat="45.94094" lon="6.86554">
        <ele>1491</ele>
        <time>2026-08-04T06:03:27.278Z</time>
      </trkpt>
      <trkpt lat="45.94093" lon="6.86555">
        <ele>1491</ele>
        <time>2026-08-04T06:03:28.278Z</time>
      </trkpt>
      <trkpt lat="45.94093" lon="6.86556">
        <ele>1491</ele>
        <time>2026-08-04T06:03:29.278Z</time>
      </trkpt>
      <trkpt lat="45.94092" lon="6.86558">
        <ele>1491</ele>
        <time>2026-08-04T06:03:30.278Z</time>
      </trkpt>
      <trkpt lat="45.94091" lon="6.8656">
        <ele>1491</ele>
        <time>2026-08-04T06:03:31.278Z</time>
      </trkpt>
      <trkpt lat="45.94091" lon="6.86562">
        <ele>1491</ele>
        <time>2026-08-04T06:03:32.278Z</time>
      </trkpt>
      <trkpt lat="45.9409" lon="6.86564">
        <ele>1491</ele>
        <time>2026-08-04T06:03:33.278Z</time>
      </trkpt>
      <trkpt lat="45.9409" lon="6.86566">
        <ele>1491</ele>
        <time>2026-08-04T06:03:34.278Z</time>
      </trkpt>
      <trkpt lat="45.9409" lon="6.86567">
        <ele>1491</ele>
        <time>2026-08-04T06:03:35.278Z</time>
      </trkpt>
      <trkpt lat="45.94089" lon="6.86568">
        <ele>1491</ele>
        <time>2026-08-04T06:03:36.278Z</time>
      </trkpt>
      <trkpt lat="45.94089" lon="6.86569">
        <ele>1491</ele>
        <time>2026-08-04T06:03:37.278Z</time>
      </trkpt>
      <trkpt lat="45.94089" lon="6.8657">
        <ele>1491</ele>
        <time>2026-08-04T06:03:38.278Z</time>
      </trkpt>
      <trkpt lat="45.94089" lon="6.86571">
        <ele>1492</ele>
        <time>2026-08-04T06:03:39.278Z</time>
      </trkpt>
      <trkpt lat="45.94089" lon="6.86573">
        <ele>1492</ele>
        <time>2026-08-04T06:03:40.278Z</time>
      </trkpt>
      <trkpt lat="45.94089" lon="6.86574">
        <ele>1492</ele>
        <time>2026-08-04T06:03:41.278Z</time>
      </trkpt>
      <trkpt lat="45.94088" lon="6.86575">
        <ele>1493</ele>
        <time>2026-08-04T06:03:42.278Z</time>
      </trkpt>
      <trkpt lat="45.94088" lon="6.86576">
        <ele>1493</ele>
        <time>2026-08-04T06:03:43.278Z</time>
      </trkpt>
      <trkpt lat="45.94088" lon="6.86577">
        <ele>1492</ele>
        <time>2026-08-04T06:03:44.278Z</time>
      </trkpt>
      <trkpt lat="45.94088" lon="6.86578">
        <ele>1492</ele>
        <time>2026-08-04T06:03:45.278Z</time>
      </trkpt>
      <trkpt lat="45.94088" lon="6.86579">
        <ele>1492</ele>
        <time>2026-08-04T06:03:46.278Z</time>
      </trkpt>
      <trkpt lat="45.94088" lon="6.86579">
        <ele>1492</ele>
        <time>2026-08-04T06:03:47.278Z</time>
      </trkpt>
      <trkpt lat="45.94088" lon="6.8658">
        <ele>1493</ele>
        <time>2026-08-04T06:03:48.278Z</time>
      </trkpt>
      <trkpt lat="45.94089" lon="6.86581">
        <ele>1493</ele>
        <time>2026-08-04T06:03:49.278Z</time>
      </trkpt>
      <trkpt lat="45.94089" lon="6.86581">
        <ele>1493</ele>
        <time>2026-08-04T06:03:50.278Z</time>
      </trkpt>
      <trkpt lat="45.9409" lon="6.86582">
        <ele>1493</ele>
        <time>2026-08-04T06:03:51.278Z</time>
      </trkpt>
      <trkpt lat="45.94091" lon="6.86583">
        <ele>1493</ele>
        <time>2026-08-04T06:03:52.278Z</time>
      </trkpt>
      <trkpt lat="45.94091" lon="6.86584">
        <ele>1493</ele>
        <time>2026-08-04T06:03:53.278Z</time>
      </trkpt>
      <trkpt lat="45.94092" lon="6.86584">
        <ele>1493</ele>
        <time>2026-08-04T06:03:54.278Z</time>
      </trkpt>
      <trkpt lat="45.94092" lon="6.86585">
        <ele>1493</ele>
        <time>2026-08-04T06:03:55.278Z</time>
      </trkpt>
      <trkpt lat="45.94093" lon="6.86586">
        <ele>1494</ele>
        <time>2026-08-04T06:03:56.278Z</time>
      </trkpt>
      <trkpt lat="45.94095" lon="6.86588">
        <ele>1494</ele>
        <time>2026-08-04T06:03:57.278Z</time>
      </trkpt>
      <trkpt lat="45.94095" lon="6.86589">
        <ele>1493</ele>
        <time>2026-08-04T06:03:58.278Z</time>
      </trkpt>
      <trkpt lat="45.94096" lon="6.8659">
        <ele>1493</ele>
        <time>2026-08-04T06:03:59.278Z</time>
      </trkpt>
      <trkpt lat="45.94096" lon="6.86591">
        <ele>1493</ele>
        <time>2026-08-04T06:04:00.278Z</time>
      </trkpt>
      <trkpt lat="45.94096" lon="6.86593">
        <ele>1493</ele>
        <time>2026-08-04T06:04:01.278Z</time>
      </trkpt>
      <trkpt lat="45.94097" lon="6.86595">
        <ele>1492</ele>
        <time>2026-08-04T06:04:02.278Z</time>
      </trkpt>
      <trkpt lat="45.94096" lon="6.86597">
        <ele>1492</ele>
        <time>2026-08-04T06:04:03.278Z</time>
      </trkpt>
      <trkpt lat="45.94096" lon="6.86598">
        <ele>1492</ele>
        <time>2026-08-04T06:04:04.278Z</time>
      </trkpt>
      <trkpt lat="45.94097" lon="6.86599">
        <ele>1492</ele>
        <time>2026-08-04T06:04:05.278Z</time>
      </trkpt>
      <trkpt lat="45.94097" lon="6.866">
        <ele>1492</ele>
        <time>2026-08-04T06:04:06.278Z</time>
      </trkpt>
      <trkpt lat="45.94097" lon="6.86601">
        <ele>1492</ele>
        <time>2026-08-04T06:04:07.278Z</time>
      </trkpt>
      <trkpt lat="45.94098" lon="6.86602">
        <ele>1492</ele>
        <time>2026-08-04T06:04:08.278Z</time>
      </trkpt>
      <trkpt lat="45.94099" lon="6.86603">
        <ele>1492</ele>
        <time>2026-08-04T06:04:09.278Z</time>
      </trkpt>
      <trkpt lat="45.94099" lon="6.86604">
        <ele>1492</ele>
        <time>2026-08-04T06:04:10.278Z</time>
      </trkpt>
      <trkpt lat="45.941" lon="6.86604">
        <ele>1493</ele>
        <time>2026-08-04T06:04:11.278Z</time>
      </trkpt>
      <trkpt lat="45.94101" lon="6.86604">
        <ele>1493</ele>
        <time>2026-08-04T06:04:12.278Z</time>
      </trkpt>
      <trkpt lat="45.94101" lon="6.86604">
        <ele>1493</ele>
        <time>2026-08-04T06:04:13.278Z</time>
      </trkpt>
      <trkpt lat="45.94101" lon="6.86604">
        <ele>1493</ele>
        <time>2026-08-04T06:04:14.278Z</time>
      </trkpt>
      <trkpt lat="45.94101" lon="6.86603">
        <ele>1494</ele>
        <time>2026-08-04T06:04:15.278Z</time>
      </trkpt>
      <trkpt lat="45.94101" lon="6.86602">
        <ele>1494</ele>
        <time>2026-08-04T06:04:16.278Z</time>
      </trkpt>
      <trkpt lat="45.941" lon="6.86601">
        <ele>1494</ele>
        <time>2026-08-04T06:04:17.278Z</time>
      </trkpt>
      <trkpt lat="45.941" lon="6.866">
        <ele>1494</ele>
        <time>2026-08-04T06:04:18.278Z</time>
      </trkpt>
      <trkpt lat="45.941" lon="6.86598">
        <ele>1494</ele>
        <time>2026-08-04T06:04:19.278Z</time>
      </trkpt>
      <trkpt lat="45.94101" lon="6.86597">
        <ele>1494</ele>
        <time>2026-08-04T06:04:20.278Z</time>
      </trkpt>
      <trkpt lat="45.94101" lon="6.86595">
        <ele>1494</ele>
        <time>2026-08-04T06:04:21.278Z</time>
      </trkpt>
      <trkpt lat="45.94101" lon="6.86594">
        <ele>1494</ele>
        <time>2026-08-04T06:04:22.278Z</time>
      </trkpt>
      <trkpt lat="45.94102" lon="6.86593">
        <ele>1494</ele>
        <time>2026-08-04T06:04:23.278Z</time>
      </trkpt>
      <trkpt lat="45.94102" lon="6.86592">
        <ele>1494</ele>
        <time>2026-08-04T06:04:24.278Z</time>
      </trkpt>
      <trkpt lat="45.94102" lon="6.86591">
        <ele>1494</ele>
        <time>2026-08-04T06:04:25.278Z</time>
      </trkpt>
      <trkpt lat="45.94101" lon="6.8659">
        <ele>1494</ele>
        <time>2026-08-04T06:04:26.278Z</time>
      </trkpt>
      <trkpt lat="45.94101" lon="6.86589">
        <ele>1494</ele>
        <time>2026-08-04T06:04:27.278Z</time>
      </trkpt>
      <trkpt lat="45.94101" lon="6.86588">
        <ele>1494</ele>
        <time>2026-08-04T06:04:28.278Z</time>
      </trkpt>
      <trkpt lat="45.94101" lon="6.86588">
        <ele>1494</ele>
        <time>2026-08-04T06:04:29.278Z</time>
      </trkpt>
      <trkpt lat="45.94101" lon="6.86588">
        <ele>1495</ele>
        <time>2026-08-04T06:04:30.278Z</time>
      </trkpt>
      <trkpt lat="45.94102" lon="6.86588">
        <ele>1495</ele>
        <time>2026-08-04T06:04:31.278Z</time>
      </trkpt>
      <trkpt lat="45.94102" lon="6.86588">
        <ele>1496</ele>
        <time>2026-08-04T06:04:32.278Z</time>
      </trkpt>
      <trkpt lat="45.94102" lon="6.86587">
        <ele>1496</ele>
        <time>2026-08-04T06:04:33.278Z</time>
      </trkpt>
      <trkpt lat="45.94102" lon="6.86587">
        <ele>1497</ele>
        <time>2026-08-04T06:04:34.278Z</time>
      </trkpt>
      <trkpt lat="45.94102" lon="6.86587">
        <ele>1497</ele>
        <time>2026-08-04T06:04:35.278Z</time>
      </trkpt>
      <trkpt lat="45.94102" lon="6.86586">
        <ele>1497</ele>
        <time>2026-08-04T06:04:36.278Z</time>
      </trkpt>
      <trkpt lat="45.94102" lon="6.86586">
        <ele>1498</ele>
        <time>2026-08-04T06:04:37.278Z</time>
      </trkpt>
      <trkpt lat="45.94102" lon="6.86586">
        <ele>1498</ele>
        <time>2026-08-04T06:04:38.278Z</time>
      </trkpt>
      <trkpt lat="45.94102" lon="6.86586">
        <ele>1498</ele>
        <time>2026-08-04T06:04:39.278Z</time>
      </trkpt>
      <trkpt lat="45.94102" lon="6.86587">
        <ele>1498</ele>
        <time>2026-08-04T06:04:40.278Z</time>
      </trkpt>
      <trkpt lat="45.94102" lon="6.86587">
        <ele>1499</ele>
        <time>2026-08-04T06:04:41.278Z</time>
      </trkpt>
      <trkpt lat="45.94102" lon="6.86587">
        <ele>1500</ele>
        <time>2026-08-04T06:04:42.278Z</time>
      </trkpt>
      <trkpt lat="45.94102" lon="6.86587">
        <ele>1500</ele>
        <time>2026-08-04T06:04:43.278Z</time>
      </trkpt>
      <trkpt lat="45.94102" lon="6.86587">
        <ele>1501</ele>
        <time>2026-08-04T06:04:44.278Z</time>
      </trkpt>
      <trkpt lat="45.94102" lon="6.86587">
        <ele>1502</ele>
        <time>2026-08-04T06:04:45.278Z</time>
      </trkpt>
      <trkpt lat="45.94102" lon="6.86587">
        <ele>1502</ele>
        <time>2026-08-04T06:04:46.278Z</time>
      </trkpt>
      <trkpt lat="45.94102" lon="6.86587">
        <ele>1503</ele>
        <time>2026-08-04T06:04:47.278Z</time>
      </trkpt>
      <trkpt lat="45.94102" lon="6.86587">
        <ele>1503</ele>
        <time>2026-08-04T06:04:48.278Z</time>
      </trkpt>
      <trkpt lat="45.94102" lon="6.86587">
        <ele>1503</ele>
        <time>2026-08-04T06:04:49.278Z</time>
      </trkpt>
      <trkpt lat="45.94102" lon="6.8659">
        <ele>1503</ele>
        <time>2026-08-04T06:04:50.278Z</time>
      </trkpt>
      <trkpt lat="45.94102" lon="6.86592">
        <ele>1504</ele>
        <time>2026-08-04T06:04:51.278Z</time>
      </trkpt>
      <trkpt lat="45.94102" lon="6.86595">
        <ele>1504</ele>
        <time>2026-08-04T06:04:52.278Z</time>
      </trkpt>
      <trkpt lat="45.94101" lon="6.86597">
        <ele>1504</ele>
        <time>2026-08-04T06:04:53.278Z</time>
      </trkpt>
      <trkpt lat="45.94101" lon="6.866">
        <ele>1503</ele>
        <time>2026-08-04T06:04:54.278Z</time>
      </trkpt>
      <trkpt lat="45.94101" lon="6.86603">
        <ele>1503</ele>
        <time>2026-08-04T06:04:55.278Z</time>
      </trkpt>
      <trkpt lat="45.94101" lon="6.86606">
        <ele>1503</ele>
        <time>2026-08-04T06:04:56.278Z</time>
      </trkpt>
      <trkpt lat="45.94102" lon="6.86609">
        <ele>1503</ele>
        <time>2026-08-04T06:04:57.278Z</time>
      </trkpt>
      <trkpt lat="45.94102" lon="6.86613">
        <ele>1502</ele>
        <time>2026-08-04T06:04:58.278Z</time>
      </trkpt>
      <trkpt lat="45.94102" lon="6.86616">
        <ele>1502</ele>
        <time>2026-08-04T06:04:59.278Z</time>
      </trkpt>
      <trkpt lat="45.94102" lon="6.86619">
        <ele>1501</ele>
        <time>2026-08-04T06:05:00.278Z</time>
      </trkpt>
      <trkpt lat="45.94103" lon="6.86621">
        <ele>1500</ele>
        <time>2026-08-04T06:05:01.278Z</time>
      </trkpt>
      <trkpt lat="45.94105" lon="6.86623">
        <ele>1500</ele>
        <time>2026-08-04T06:05:02.278Z</time>
      </trkpt>
      <trkpt lat="45.94106" lon="6.86625">
        <ele>1499</ele>
        <time>2026-08-04T06:05:03.278Z</time>
      </trkpt>
      <trkpt lat="45.94108" lon="6.86626">
        <ele>1499</ele>
        <time>2026-08-04T06:05:04.278Z</time>
      </trkpt>
      <trkpt lat="45.94109" lon="6.86628">
        <ele>1498</ele>
        <time>2026-08-04T06:05:05.278Z</time>
      </trkpt>
      <trkpt lat="45.9411" lon="6.86629">
        <ele>1498</ele>
        <time>2026-08-04T06:05:06.278Z</time>
      </trkpt>
      <trkpt lat="45.94111" lon="6.8663">
        <ele>1498</ele>
        <time>2026-08-04T06:05:07.278Z</time>
      </trkpt>
      <trkpt lat="45.94112" lon="6.8663">
        <ele>1498</ele>
        <time>2026-08-04T06:05:08.278Z</time>
      </trkpt>
      <trkpt lat="45.94113" lon="6.86631">
        <ele>1497</ele>
        <time>2026-08-04T06:05:09.278Z</time>
      </trkpt>
      <trkpt lat="45.94114" lon="6.86631">
        <ele>1497</ele>
        <time>2026-08-04T06:05:10.278Z</time>
      </trkpt>
      <trkpt lat="45.94115" lon="6.86633">
        <ele>1497</ele>
        <time>2026-08-04T06:05:11.278Z</time>
      </trkpt>
      <trkpt lat="45.94116" lon="6.86634">
        <ele>1497</ele>
        <time>2026-08-04T06:05:12.278Z</time>
      </trkpt>
      <trkpt lat="45.94117" lon="6.86635">
        <ele>1497</ele>
        <time>2026-08-04T06:05:13.278Z</time>
      </trkpt>
      <trkpt lat="45.94117" lon="6.86636">
        <ele>1497</ele>
        <time>2026-08-04T06:05:14.278Z</time>
      </trkpt>
      <trkpt lat="45.94118" lon="6.86637">
        <ele>1498</ele>
        <time>2026-08-04T06:05:15.278Z</time>
      </trkpt>
      <trkpt lat="45.94119" lon="6.86639">
        <ele>1498</ele>
        <time>2026-08-04T06:05:16.278Z</time>
      </trkpt>
      <trkpt lat="45.9412" lon="6.8664">
        <ele>1498</ele>
        <time>2026-08-04T06:05:17.278Z</time>
      </trkpt>
      <trkpt lat="45.94121" lon="6.86641">
        <ele>1498</ele>
        <time>2026-08-04T06:05:18.278Z</time>
      </trkpt>
      <trkpt lat="45.94123" lon="6.86643">
        <ele>1499</ele>
        <time>2026-08-04T06:05:19.278Z</time>
      </trkpt>
      <trkpt lat="45.94124" lon="6.86644">
        <ele>1499</ele>
        <time>2026-08-04T06:05:20.278Z</time>
      </trkpt>
      <trkpt lat="45.94125" lon="6.86645">
        <ele>1499</ele>
        <time>2026-08-04T06:05:21.278Z</time>
      </trkpt>
      <trkpt lat="45.94126" lon="6.86647">
        <ele>1500</ele>
        <time>2026-08-04T06:05:22.278Z</time>
      </trkpt>
      <trkpt lat="45.94127" lon="6.86648">
        <ele>1500</ele>
        <time>2026-08-04T06:05:23.278Z</time>
      </trkpt>
      <trkpt lat="45.94128" lon="6.8665">
        <ele>1501</ele>
        <time>2026-08-04T06:05:24.278Z</time>
      </trkpt>
      <trkpt lat="45.94129" lon="6.86651">
        <ele>1501</ele>
        <time>2026-08-04T06:05:25.278Z</time>
      </trkpt>
      <trkpt lat="45.94129" lon="6.86653">
        <ele>1501</ele>
        <time>2026-08-04T06:05:26.278Z</time>
      </trkpt>
      <trkpt lat="45.9413" lon="6.86653">
        <ele>1502</ele>
        <time>2026-08-04T06:05:27.278Z</time>
      </trkpt>
      <trkpt lat="45.94131" lon="6.86654">
        <ele>1502</ele>
        <time>2026-08-04T06:05:28.278Z</time>
      </trkpt>
      <trkpt lat="45.94132" lon="6.86654">
        <ele>1503</ele>
        <time>2026-08-04T06:05:29.278Z</time>
      </trkpt>
      <trkpt lat="45.94133" lon="6.86654">
        <ele>1503</ele>
        <time>2026-08-04T06:05:30.278Z</time>
      </trkpt>
      <trkpt lat="45.94133" lon="6.86654">
        <ele>1503</ele>
        <time>2026-08-04T06:05:31.278Z</time>
      </trkpt>
      <trkpt lat="45.94134" lon="6.86655">
        <ele>1503</ele>
        <time>2026-08-04T06:05:32.278Z</time>
      </trkpt>
      <trkpt lat="45.94134" lon="6.86656">
        <ele>1503</ele>
        <time>2026-08-04T06:05:33.278Z</time>
      </trkpt>
      <trkpt lat="45.94135" lon="6.86656">
        <ele>1503</ele>
        <time>2026-08-04T06:05:34.278Z</time>
      </trkpt>
      <trkpt lat="45.94136" lon="6.86657">
        <ele>1504</ele>
        <time>2026-08-04T06:05:35.278Z</time>
      </trkpt>
      <trkpt lat="45.94136" lon="6.86658">
        <ele>1504</ele>
        <time>2026-08-04T06:05:36.278Z</time>
      </trkpt>
      <trkpt lat="45.94136" lon="6.86659">
        <ele>1504</ele>
        <time>2026-08-04T06:05:37.278Z</time>
      </trkpt>
      <trkpt lat="45.94136" lon="6.8666">
        <ele>1504</ele>
        <time>2026-08-04T06:05:38.278Z</time>
      </trkpt>
      <trkpt lat="45.94136" lon="6.86661">
        <ele>1504</ele>
        <time>2026-08-04T06:05:39.278Z</time>
      </trkpt>
      <trkpt lat="45.94136" lon="6.86662">
        <ele>1505</ele>
        <time>2026-08-04T06:05:40.278Z</time>
      </trkpt>
      <trkpt lat="45.94135" lon="6.86663">
        <ele>1505</ele>
        <time>2026-08-04T06:05:41.278Z</time>
      </trkpt>
      <trkpt lat="45.94135" lon="6.86665">
        <ele>1506</ele>
        <time>2026-08-04T06:05:42.278Z</time>
      </trkpt>
      <trkpt lat="45.94136" lon="6.86666">
        <ele>1506</ele>
        <time>2026-08-04T06:05:43.278Z</time>
      </trkpt>
      <trkpt lat="45.94137" lon="6.86668">
        <ele>1506</ele>
        <time>2026-08-04T06:05:44.278Z</time>
      </trkpt>
      <trkpt lat="45.94138" lon="6.8667">
        <ele>1506</ele>
        <time>2026-08-04T06:05:45.278Z</time>
      </trkpt>
      <trkpt lat="45.94138" lon="6.86671">
        <ele>1506</ele>
        <time>2026-08-04T06:05:46.278Z</time>
      </trkpt>
      <trkpt lat="45.94138" lon="6.86673">
        <ele>1506</ele>
        <time>2026-08-04T06:05:47.278Z</time>
      </trkpt>
      <trkpt lat="45.94137" lon="6.86674">
        <ele>1506</ele>
        <time>2026-08-04T06:05:48.278Z</time>
      </trkpt>
      <trkpt lat="45.94137" lon="6.86676">
        <ele>1506</ele>
        <time>2026-08-04T06:05:49.278Z</time>
      </trkpt>
      <trkpt lat="45.94137" lon="6.86678">
        <ele>1506</ele>
        <time>2026-08-04T06:05:50.278Z</time>
      </trkpt>
      <trkpt lat="45.94137" lon="6.86679">
        <ele>1506</ele>
        <time>2026-08-04T06:05:51.278Z</time>
      </trkpt>
      <trkpt lat="45.94137" lon="6.86681">
        <ele>1506</ele>
        <time>2026-08-04T06:05:52.278Z</time>
      </trkpt>
      <trkpt lat="45.94137" lon="6.86683">
        <ele>1506</ele>
        <time>2026-08-04T06:05:53.278Z</time>
      </trkpt>
      <trkpt lat="45.94137" lon="6.86685">
        <ele>1506</ele>
        <time>2026-08-04T06:05:54.278Z</time>
      </trkpt>
      <trkpt lat="45.94139" lon="6.86688">
        <ele>1506</ele>
        <time>2026-08-04T06:05:55.278Z</time>
      </trkpt>
      <trkpt lat="45.9414" lon="6.8669">
        <ele>1506</ele>
        <time>2026-08-04T06:05:56.278Z</time>
      </trkpt>
      <trkpt lat="45.94141" lon="6.86692">
        <ele>1507</ele>
        <time>2026-08-04T06:05:57.278Z</time>
      </trkpt>
      <trkpt lat="45.94142" lon="6.86694">
        <ele>1507</ele>
        <time>2026-08-04T06:05:58.278Z</time>
      </trkpt>
      <trkpt lat="45.94143" lon="6.86697">
        <ele>1507</ele>
        <time>2026-08-04T06:05:59.278Z</time>
      </trkpt>
      <trkpt lat="45.94145" lon="6.86699">
        <ele>1508</ele>
        <time>2026-08-04T06:06:00.278Z</time>
      </trkpt>
      <trkpt lat="45.94146" lon="6.86701">
        <ele>1508</ele>
        <time>2026-08-04T06:06:01.278Z</time>
      </trkpt>
      <trkpt lat="45.94146" lon="6.86703">
        <ele>1508</ele>
        <time>2026-08-04T06:06:02.278Z</time>
      </trkpt>
      <trkpt lat="45.94147" lon="6.86705">
        <ele>1509</ele>
        <time>2026-08-04T06:06:03.278Z</time>
      </trkpt>
      <trkpt lat="45.94148" lon="6.86707">
        <ele>1510</ele>
        <time>2026-08-04T06:06:04.278Z</time>
      </trkpt>
      <trkpt lat="45.94149" lon="6.86711">
        <ele>1510</ele>
        <time>2026-08-04T06:06:05.278Z</time>
      </trkpt>
      <trkpt lat="45.94149" lon="6.86713">
        <ele>1511</ele>
        <time>2026-08-04T06:06:06.278Z</time>
      </trkpt>
      <trkpt lat="45.9415" lon="6.86714">
        <ele>1511</ele>
        <time>2026-08-04T06:06:07.278Z</time>
      </trkpt>
      <trkpt lat="45.94151" lon="6.86716">
        <ele>1512</ele>
        <time>2026-08-04T06:06:08.278Z</time>
      </trkpt>
      <trkpt lat="45.94152" lon="6.86718">
        <ele>1512</ele>
        <time>2026-08-04T06:06:09.278Z</time>
      </trkpt>
      <trkpt lat="45.94152" lon="6.86719">
        <ele>1513</ele>
        <time>2026-08-04T06:06:10.278Z</time>
      </trkpt>
      <trkpt lat="45.94152" lon="6.86721">
        <ele>1514</ele>
        <time>2026-08-04T06:06:11.278Z</time>
      </trkpt>
      <trkpt lat="45.94153" lon="6.86722">
        <ele>1515</ele>
        <time>2026-08-04T06:06:12.278Z</time>
      </trkpt>
      <trkpt lat="45.94154" lon="6.86724">
        <ele>1515</ele>
        <time>2026-08-04T06:06:13.278Z</time>
      </trkpt>
      <trkpt lat="45.94154" lon="6.86726">
        <ele>1516</ele>
        <time>2026-08-04T06:06:14.278Z</time>
      </trkpt>
      <trkpt lat="45.94154" lon="6.86727">
        <ele>1516</ele>
        <time>2026-08-04T06:06:15.278Z</time>
      </trkpt>
      <trkpt lat="45.94154" lon="6.86729">
        <ele>1517</ele>
        <time>2026-08-04T06:06:16.278Z</time>
      </trkpt>
      <trkpt lat="45.94155" lon="6.86732">
        <ele>1517</ele>
        <time>2026-08-04T06:06:17.278Z</time>
      </trkpt>
      <trkpt lat="45.94155" lon="6.86734">
        <ele>1518</ele>
        <time>2026-08-04T06:06:18.278Z</time>
      </trkpt>
      <trkpt lat="45.94155" lon="6.86736">
        <ele>1518</ele>
        <time>2026-08-04T06:06:19.278Z</time>
      </trkpt>
      <trkpt lat="45.94155" lon="6.86738">
        <ele>1518</ele>
        <time>2026-08-04T06:06:20.278Z</time>
      </trkpt>
      <trkpt lat="45.94154" lon="6.8674">
        <ele>1519</ele>
        <time>2026-08-04T06:06:21.278Z</time>
      </trkpt>
      <trkpt lat="45.94153" lon="6.86742">
        <ele>1519</ele>
        <time>2026-08-04T06:06:22.278Z</time>
      </trkpt>
      <trkpt lat="45.94153" lon="6.86744">
        <ele>1519</ele>
        <time>2026-08-04T06:06:23.278Z</time>
      </trkpt>
      <trkpt lat="45.94152" lon="6.86746">
        <ele>1519</ele>
        <time>2026-08-04T06:06:24.278Z</time>
      </trkpt>
      <trkpt lat="45.94152" lon="6.86749">
        <ele>1518</ele>
        <time>2026-08-04T06:06:25.278Z</time>
      </trkpt>
      <trkpt lat="45.94151" lon="6.8675">
        <ele>1518</ele>
        <time>2026-08-04T06:06:26.278Z</time>
      </trkpt>
      <trkpt lat="45.9415" lon="6.86752">
        <ele>1518</ele>
        <time>2026-08-04T06:06:27.278Z</time>
      </trkpt>
      <trkpt lat="45.94149" lon="6.86753">
        <ele>1517</ele>
        <time>2026-08-04T06:06:28.278Z</time>
      </trkpt>
      <trkpt lat="45.94148" lon="6.86755">
        <ele>1517</ele>
        <time>2026-08-04T06:06:29.278Z</time>
      </trkpt>
      <trkpt lat="45.94147" lon="6.86756">
        <ele>1517</ele>
        <time>2026-08-04T06:06:30.278Z</time>
      </trkpt>
      <trkpt lat="45.94146" lon="6.86756">
        <ele>1517</ele>
        <time>2026-08-04T06:06:31.278Z</time>
      </trkpt>
      <trkpt lat="45.94146" lon="6.86756">
        <ele>1517</ele>
        <time>2026-08-04T06:06:32.278Z</time>
      </trkpt>
      <trkpt lat="45.94146" lon="6.86757">
        <ele>1517</ele>
        <time>2026-08-04T06:06:33.278Z</time>
      </trkpt>
      <trkpt lat="45.94146" lon="6.86759">
        <ele>1516</ele>
        <time>2026-08-04T06:06:34.278Z</time>
      </trkpt>
      <trkpt lat="45.94147" lon="6.8676">
        <ele>1516</ele>
        <time>2026-08-04T06:06:35.278Z</time>
      </trkpt>
      <trkpt lat="45.94147" lon="6.86762">
        <ele>1516</ele>
        <time>2026-08-04T06:06:36.278Z</time>
      </trkpt>
      <trkpt lat="45.94146" lon="6.86762">
        <ele>1516</ele>
        <time>2026-08-04T06:06:37.278Z</time>
      </trkpt>
      <trkpt lat="45.94146" lon="6.86764">
        <ele>1516</ele>
        <time>2026-08-04T06:06:38.278Z</time>
      </trkpt>
      <trkpt lat="45.94146" lon="6.86767">
        <ele>1516</ele>
        <time>2026-08-04T06:06:39.278Z</time>
      </trkpt>
      <trkpt lat="45.94145" lon="6.8677">
        <ele>1516</ele>
        <time>2026-08-04T06:06:40.278Z</time>
      </trkpt>
      <trkpt lat="45.94145" lon="6.86772">
        <ele>1516</ele>
        <time>2026-08-04T06:06:41.278Z</time>
      </trkpt>
      <trkpt lat="45.94144" lon="6.86774">
        <ele>1516</ele>
        <time>2026-08-04T06:06:42.278Z</time>
      </trkpt>
      <trkpt lat="45.94145" lon="6.86775">
        <ele>1516</ele>
        <time>2026-08-04T06:06:43.278Z</time>
      </trkpt>
      <trkpt lat="45.94145" lon="6.86777">
        <ele>1517</ele>
        <time>2026-08-04T06:06:44.278Z</time>
      </trkpt>
      <trkpt lat="45.94145" lon="6.86779">
        <ele>1517</ele>
        <time>2026-08-04T06:06:45.278Z</time>
      </trkpt>
      <trkpt lat="45.94146" lon="6.8678">
        <ele>1517</ele>
        <time>2026-08-04T06:06:46.278Z</time>
      </trkpt>
      <trkpt lat="45.94147" lon="6.86781">
        <ele>1517</ele>
        <time>2026-08-04T06:06:47.278Z</time>
      </trkpt>
      <trkpt lat="45.94147" lon="6.86781">
        <ele>1518</ele>
        <time>2026-08-04T06:06:48.278Z</time>
      </trkpt>
      <trkpt lat="45.94147" lon="6.86782">
        <ele>1518</ele>
        <time>2026-08-04T06:06:49.278Z</time>
      </trkpt>
      <trkpt lat="45.94147" lon="6.86783">
        <ele>1518</ele>
        <time>2026-08-04T06:06:50.278Z</time>
      </trkpt>
      <trkpt lat="45.94147" lon="6.86784">
        <ele>1518</ele>
        <time>2026-08-04T06:06:51.278Z</time>
      </trkpt>
      <trkpt lat="45.94147" lon="6.86787">
        <ele>1518</ele>
        <time>2026-08-04T06:06:52.278Z</time>
      </trkpt>
      <trkpt lat="45.94147" lon="6.86789">
        <ele>1518</ele>
        <time>2026-08-04T06:06:53.278Z</time>
      </trkpt>
      <trkpt lat="45.94147" lon="6.8679">
        <ele>1518</ele>
        <time>2026-08-04T06:06:54.278Z</time>
      </trkpt>
      <trkpt lat="45.94147" lon="6.86792">
        <ele>1518</ele>
        <time>2026-08-04T06:06:55.278Z</time>
      </trkpt>
      <trkpt lat="45.94148" lon="6.86794">
        <ele>1518</ele>
        <time>2026-08-04T06:06:56.278Z</time>
      </trkpt>
      <trkpt lat="45.94148" lon="6.86795">
        <ele>1518</ele>
        <time>2026-08-04T06:06:57.278Z</time>
      </trkpt>
      <trkpt lat="45.94148" lon="6.86797">
        <ele>1518</ele>
        <time>2026-08-04T06:06:58.278Z</time>
      </trkpt>
      <trkpt lat="45.94148" lon="6.86798">
        <ele>1518</ele>
        <time>2026-08-04T06:06:59.278Z</time>
      </trkpt>
      <trkpt lat="45.94147" lon="6.868">
        <ele>1519</ele>
        <time>2026-08-04T06:07:00.278Z</time>
      </trkpt>
      <trkpt lat="45.94148" lon="6.86801">
        <ele>1519</ele>
        <time>2026-08-04T06:07:01.278Z</time>
      </trkpt>
      <trkpt lat="45.94148" lon="6.86803">
        <ele>1519</ele>
        <time>2026-08-04T06:07:02.278Z</time>
      </trkpt>
      <trkpt lat="45.94148" lon="6.86804">
        <ele>1519</ele>
        <time>2026-08-04T06:07:03.278Z</time>
      </trkpt>
      <trkpt lat="45.94149" lon="6.86806">
        <ele>1519</ele>
        <time>2026-08-04T06:07:04.278Z</time>
      </trkpt>
      <trkpt lat="45.94149" lon="6.86808">
        <ele>1519</ele>
        <time>2026-08-04T06:07:05.278Z</time>
      </trkpt>
      <trkpt lat="45.94148" lon="6.86809">
        <ele>1518</ele>
        <time>2026-08-04T06:07:06.278Z</time>
      </trkpt>
      <trkpt lat="45.94148" lon="6.86811">
        <ele>1518</ele>
        <time>2026-08-04T06:07:07.278Z</time>
      </trkpt>
      <trkpt lat="45.94148" lon="6.86813">
        <ele>1518</ele>
        <time>2026-08-04T06:07:08.278Z</time>
      </trkpt>
      <trkpt lat="45.94148" lon="6.86814">
        <ele>1518</ele>
        <time>2026-08-04T06:07:09.278Z</time>
      </trkpt>
      <trkpt lat="45.94148" lon="6.86816">
        <ele>1518</ele>
        <time>2026-08-04T06:07:10.278Z</time>
      </trkpt>
      <trkpt lat="45.94148" lon="6.86817">
        <ele>1517</ele>
        <time>2026-08-04T06:07:11.278Z</time>
      </trkpt>
      <trkpt lat="45.94148" lon="6.86818">
        <ele>1517</ele>
        <time>2026-08-04T06:07:12.278Z</time>
      </trkpt>
      <trkpt lat="45.94148" lon="6.8682">
        <ele>1517</ele>
        <time>2026-08-04T06:07:13.278Z</time>
      </trkpt>
      <trkpt lat="45.94148" lon="6.86821">
        <ele>1518</ele>
        <time>2026-08-04T06:07:14.278Z</time>
      </trkpt>
      <trkpt lat="45.94148" lon="6.86821">
        <ele>1518</ele>
        <time>2026-08-04T06:07:15.278Z</time>
      </trkpt>
      <trkpt lat="45.94148" lon="6.86822">
        <ele>1518</ele>
        <time>2026-08-04T06:07:16.278Z</time>
      </trkpt>
      <trkpt lat="45.94149" lon="6.86823">
        <ele>1519</ele>
        <time>2026-08-04T06:07:17.278Z</time>
      </trkpt>
      <trkpt lat="45.9415" lon="6.86823">
        <ele>1519</ele>
        <time>2026-08-04T06:07:18.278Z</time>
      </trkpt>
      <trkpt lat="45.94151" lon="6.86823">
        <ele>1520</ele>
        <time>2026-08-04T06:07:19.278Z</time>
      </trkpt>
      <trkpt lat="45.94152" lon="6.86823">
        <ele>1520</ele>
        <time>2026-08-04T06:07:20.278Z</time>
      </trkpt>
      <trkpt lat="45.94153" lon="6.86823">
        <ele>1521</ele>
        <time>2026-08-04T06:07:21.278Z</time>
      </trkpt>
      <trkpt lat="45.94154" lon="6.86823">
        <ele>1522</ele>
        <time>2026-08-04T06:07:22.278Z</time>
      </trkpt>
      <trkpt lat="45.94155" lon="6.86823">
        <ele>1522</ele>
        <time>2026-08-04T06:07:23.278Z</time>
      </trkpt>
      <trkpt lat="45.94156" lon="6.86823">
        <ele>1523</ele>
        <time>2026-08-04T06:07:24.278Z</time>
      </trkpt>
      <trkpt lat="45.94157" lon="6.86824">
        <ele>1523</ele>
        <time>2026-08-04T06:07:25.278Z</time>
      </trkpt>
      <trkpt lat="45.94158" lon="6.86824">
        <ele>1524</ele>
        <time>2026-08-04T06:07:26.278Z</time>
      </trkpt>
      <trkpt lat="45.9416" lon="6.86824">
        <ele>1524</ele>
        <time>2026-08-04T06:07:27.278Z</time>
      </trkpt>
      <trkpt lat="45.94161" lon="6.86825">
        <ele>1525</ele>
        <time>2026-08-04T06:07:28.278Z</time>
      </trkpt>
      <trkpt lat="45.94163" lon="6.86825">
        <ele>1525</ele>
        <time>2026-08-04T06:07:29.278Z</time>
      </trkpt>
      <trkpt lat="45.94165" lon="6.86826">
        <ele>1525</ele>
        <time>2026-08-04T06:07:30.278Z</time>
      </trkpt>
      <trkpt lat="45.94166" lon="6.86827">
        <ele>1526</ele>
        <time>2026-08-04T06:07:31.278Z</time>
      </trkpt>
      <trkpt lat="45.94167" lon="6.86827">
        <ele>1526</ele>
        <time>2026-08-04T06:07:32.278Z</time>
      </trkpt>
      <trkpt lat="45.94169" lon="6.86826">
        <ele>1526</ele>
        <time>2026-08-04T06:07:33.278Z</time>
      </trkpt>
      <trkpt lat="45.94169" lon="6.86826">
        <ele>1527</ele>
        <time>2026-08-04T06:07:34.278Z</time>
      </trkpt>
      <trkpt lat="45.9417" lon="6.86826">
        <ele>1527</ele>
        <time>2026-08-04T06:07:35.278Z</time>
      </trkpt>
      <trkpt lat="45.94172" lon="6.86826">
        <ele>1528</ele>
        <time>2026-08-04T06:07:36.278Z</time>
      </trkpt>
      <trkpt lat="45.94173" lon="6.86826">
        <ele>1529</ele>
        <time>2026-08-04T06:07:37.278Z</time>
      </trkpt>
      <trkpt lat="45.94174" lon="6.86827">
        <ele>1529</ele>
        <time>2026-08-04T06:07:38.278Z</time>
      </trkpt>
      <trkpt lat="45.94175" lon="6.86828">
        <ele>1530</ele>
        <time>2026-08-04T06:07:39.278Z</time>
      </trkpt>
      <trkpt lat="45.94177" lon="6.8683">
        <ele>1530</ele>
        <time>2026-08-04T06:07:40.278Z</time>
      </trkpt>
      <trkpt lat="45.94179" lon="6.86831">
        <ele>1531</ele>
        <time>2026-08-04T06:07:41.278Z</time>
      </trkpt>
      <trkpt lat="45.94181" lon="6.86832">
        <ele>1531</ele>
        <time>2026-08-04T06:07:42.278Z</time>
      </trkpt>
      <trkpt lat="45.94182" lon="6.86834">
        <ele>1532</ele>
        <time>2026-08-04T06:07:43.278Z</time>
      </trkpt>
      <trkpt lat="45.94184" lon="6.86836">
        <ele>1532</ele>
        <time>2026-08-04T06:07:44.278Z</time>
      </trkpt>
      <trkpt lat="45.94185" lon="6.86837">
        <ele>1533</ele>
        <time>2026-08-04T06:07:45.278Z</time>
      </trkpt>
      <trkpt lat="45.94186" lon="6.86838">
        <ele>1533</ele>
        <time>2026-08-04T06:07:46.278Z</time>
      </trkpt>
      <trkpt lat="45.94188" lon="6.86839">
        <ele>1534</ele>
        <time>2026-08-04T06:07:47.278Z</time>
      </trkpt>
      <trkpt lat="45.94189" lon="6.8684">
        <ele>1534</ele>
        <time>2026-08-04T06:07:48.278Z</time>
      </trkpt>
      <trkpt lat="45.9419" lon="6.86841">
        <ele>1534</ele>
        <time>2026-08-04T06:07:49.278Z</time>
      </trkpt>
      <trkpt lat="45.9419" lon="6.86842">
        <ele>1534</ele>
        <time>2026-08-04T06:07:50.278Z</time>
      </trkpt>
      <trkpt lat="45.94191" lon="6.86843">
        <ele>1534</ele>
        <time>2026-08-04T06:07:51.278Z</time>
      </trkpt>
      <trkpt lat="45.94192" lon="6.86844">
        <ele>1535</ele>
        <time>2026-08-04T06:07:52.278Z</time>
      </trkpt>
      <trkpt lat="45.94192" lon="6.86845">
        <ele>1535</ele>
        <time>2026-08-04T06:07:53.278Z</time>
      </trkpt>
      <trkpt lat="45.94192" lon="6.86846">
        <ele>1535</ele>
        <time>2026-08-04T06:07:54.278Z</time>
      </trkpt>
      <trkpt lat="45.94192" lon="6.86847">
        <ele>1535</ele>
        <time>2026-08-04T06:07:55.278Z</time>
      </trkpt>
      <trkpt lat="45.94193" lon="6.86848">
        <ele>1535</ele>
        <time>2026-08-04T06:07:56.278Z</time>
      </trkpt>
      <trkpt lat="45.94193" lon="6.86851">
        <ele>1535</ele>
        <time>2026-08-04T06:07:57.278Z</time>
      </trkpt>
      <trkpt lat="45.94193" lon="6.86851">
        <ele>1535</ele>
        <time>2026-08-04T06:07:58.278Z</time>
      </trkpt>
      <trkpt lat="45.94194" lon="6.86851">
        <ele>1535</ele>
        <time>2026-08-04T06:07:59.278Z</time>
      </trkpt>
      <trkpt lat="45.94194" lon="6.86851">
        <ele>1535</ele>
        <time>2026-08-04T06:08:00.278Z</time>
      </trkpt>
      <trkpt lat="45.94195" lon="6.86851">
        <ele>1536</ele>
        <time>2026-08-04T06:08:01.278Z</time>
      </trkpt>
      <trkpt lat="45.94196" lon="6.8685">
        <ele>1536</ele>
        <time>2026-08-04T06:08:02.278Z</time>
      </trkpt>
      <trkpt lat="45.94197" lon="6.86851">
        <ele>1537</ele>
        <time>2026-08-04T06:08:03.278Z</time>
      </trkpt>
      <trkpt lat="45.94198" lon="6.86851">
        <ele>1537</ele>
        <time>2026-08-04T06:08:04.278Z</time>
      </trkpt>
      <trkpt lat="45.94199" lon="6.86852">
        <ele>1537</ele>
        <time>2026-08-04T06:08:05.278Z</time>
      </trkpt>
      <trkpt lat="45.942" lon="6.86853">
        <ele>1538</ele>
        <time>2026-08-04T06:08:06.278Z</time>
      </trkpt>
      <trkpt lat="45.94201" lon="6.86854">
        <ele>1538</ele>
        <time>2026-08-04T06:08:07.278Z</time>
      </trkpt>
      <trkpt lat="45.94202" lon="6.86855">
        <ele>1538</ele>
        <time>2026-08-04T06:08:08.278Z</time>
      </trkpt>
      <trkpt lat="45.94203" lon="6.86856">
        <ele>1538</ele>
        <time>2026-08-04T06:08:09.278Z</time>
      </trkpt>
      <trkpt lat="45.94204" lon="6.86857">
        <ele>1539</ele>
        <time>2026-08-04T06:08:10.278Z</time>
      </trkpt>
      <trkpt lat="45.94204" lon="6.86858">
        <ele>1539</ele>
        <time>2026-08-04T06:08:11.278Z</time>
      </trkpt>
      <trkpt lat="45.94205" lon="6.86858">
        <ele>1539</ele>
        <time>2026-08-04T06:08:12.278Z</time>
      </trkpt>
      <trkpt lat="45.94206" lon="6.86859">
        <ele>1540</ele>
        <time>2026-08-04T06:08:13.278Z</time>
      </trkpt>
      <trkpt lat="45.94208" lon="6.86859">
        <ele>1540</ele>
        <time>2026-08-04T06:08:14.278Z</time>
      </trkpt>
      <trkpt lat="45.94209" lon="6.86859">
        <ele>1540</ele>
        <time>2026-08-04T06:08:15.278Z</time>
      </trkpt>
      <trkpt lat="45.94209" lon="6.86859">
        <ele>1540</ele>
        <time>2026-08-04T06:08:16.278Z</time>
      </trkpt>
      <trkpt lat="45.94211" lon="6.86859">
        <ele>1540</ele>
        <time>2026-08-04T06:08:17.278Z</time>
      </trkpt>
      <trkpt lat="45.94212" lon="6.86859">
        <ele>1540</ele>
        <time>2026-08-04T06:08:18.278Z</time>
      </trkpt>
      <trkpt lat="45.94214" lon="6.8686">
        <ele>1541</ele>
        <time>2026-08-04T06:08:19.278Z</time>
      </trkpt>
      <trkpt lat="45.94215" lon="6.86861">
        <ele>1541</ele>
        <time>2026-08-04T06:08:20.278Z</time>
      </trkpt>
      <trkpt lat="45.94217" lon="6.86862">
        <ele>1541</ele>
        <time>2026-08-04T06:08:21.278Z</time>
      </trkpt>
      <trkpt lat="45.94218" lon="6.86863">
        <ele>1542</ele>
        <time>2026-08-04T06:08:22.278Z</time>
      </trkpt>
      <trkpt lat="45.94219" lon="6.86864">
        <ele>1543</ele>
        <time>2026-08-04T06:08:23.278Z</time>
      </trkpt>
      <trkpt lat="45.9422" lon="6.86865">
        <ele>1543</ele>
        <time>2026-08-04T06:08:24.278Z</time>
      </trkpt>
      <trkpt lat="45.94221" lon="6.86867">
        <ele>1544</ele>
        <time>2026-08-04T06:08:25.278Z</time>
      </trkpt>
      <trkpt lat="45.94222" lon="6.86868">
        <ele>1544</ele>
        <time>2026-08-04T06:08:26.278Z</time>
      </trkpt>
      <trkpt lat="45.94222" lon="6.86868">
        <ele>1544</ele>
        <time>2026-08-04T06:08:27.278Z</time>
      </trkpt>
      <trkpt lat="45.94222" lon="6.86868">
        <ele>1545</ele>
        <time>2026-08-04T06:08:28.278Z</time>
      </trkpt>
      <trkpt lat="45.94223" lon="6.86867">
        <ele>1545</ele>
        <time>2026-08-04T06:08:29.278Z</time>
      </trkpt>
      <trkpt lat="45.94223" lon="6.86868">
        <ele>1545</ele>
        <time>2026-08-04T06:08:30.278Z</time>
      </trkpt>
      <trkpt lat="45.94224" lon="6.86868">
        <ele>1545</ele>
        <time>2026-08-04T06:08:31.278Z</time>
      </trkpt>
      <trkpt lat="45.94224" lon="6.86868">
        <ele>1545</ele>
        <time>2026-08-04T06:08:32.278Z</time>
      </trkpt>
      <trkpt lat="45.94224" lon="6.86868">
        <ele>1545</ele>
        <time>2026-08-04T06:08:33.278Z</time>
      </trkpt>
      <trkpt lat="45.94225" lon="6.86869">
        <ele>1544</ele>
        <time>2026-08-04T06:08:34.278Z</time>
      </trkpt>
      <trkpt lat="45.94226" lon="6.86869">
        <ele>1544</ele>
        <time>2026-08-04T06:08:35.278Z</time>
      </trkpt>
      <trkpt lat="45.94226" lon="6.86869">
        <ele>1544</ele>
        <time>2026-08-04T06:08:36.278Z</time>
      </trkpt>
      <trkpt lat="45.94227" lon="6.8687">
        <ele>1544</ele>
        <time>2026-08-04T06:08:37.278Z</time>
      </trkpt>
      <trkpt lat="45.94227" lon="6.8687">
        <ele>1544</ele>
        <time>2026-08-04T06:08:38.278Z</time>
      </trkpt>
      <trkpt lat="45.94227" lon="6.8687">
        <ele>1544</ele>
        <time>2026-08-04T06:08:39.278Z</time>
      </trkpt>
      <trkpt lat="45.94227" lon="6.86871">
        <ele>1544</ele>
        <time>2026-08-04T06:08:40.278Z</time>
      </trkpt>
      <trkpt lat="45.94227" lon="6.86871">
        <ele>1544</ele>
        <time>2026-08-04T06:08:41.278Z</time>
      </trkpt>
      <trkpt lat="45.94228" lon="6.86871">
        <ele>1544</ele>
        <time>2026-08-04T06:08:42.278Z</time>
      </trkpt>
      <trkpt lat="45.94228" lon="6.86872">
        <ele>1544</ele>
        <time>2026-08-04T06:08:43.278Z</time>
      </trkpt>
      <trkpt lat="45.94229" lon="6.86873">
        <ele>1544</ele>
        <time>2026-08-04T06:08:44.278Z</time>
      </trkpt>
      <trkpt lat="45.9423" lon="6.86874">
        <ele>1544</ele>
        <time>2026-08-04T06:08:45.278Z</time>
      </trkpt>
      <trkpt lat="45.94231" lon="6.86875">
        <ele>1544</ele>
        <time>2026-08-04T06:08:46.278Z</time>
      </trkpt>
      <trkpt lat="45.94232" lon="6.86876">
        <ele>1544</ele>
        <time>2026-08-04T06:08:47.278Z</time>
      </trkpt>
      <trkpt lat="45.94232" lon="6.86877">
        <ele>1544</ele>
        <time>2026-08-04T06:08:48.278Z</time>
      </trkpt>
      <trkpt lat="45.94233" lon="6.86878">
        <ele>1544</ele>
        <time>2026-08-04T06:08:49.278Z</time>
      </trkpt>
      <trkpt lat="45.94233" lon="6.86879">
        <ele>1544</ele>
        <time>2026-08-04T06:08:50.278Z</time>
      </trkpt>
      <trkpt lat="45.94234" lon="6.86879">
        <ele>1544</ele>
        <time>2026-08-04T06:08:51.278Z</time>
      </trkpt>
      <trkpt lat="45.94234" lon="6.8688">
        <ele>1543</ele>
        <time>2026-08-04T06:08:52.278Z</time>
      </trkpt>
      <trkpt lat="45.94235" lon="6.86881">
        <ele>1543</ele>
        <time>2026-08-04T06:08:53.278Z</time>
      </trkpt>
      <trkpt lat="45.94236" lon="6.86882">
        <ele>1543</ele>
        <time>2026-08-04T06:08:54.278Z</time>
      </trkpt>
      <trkpt lat="45.94237" lon="6.86882">
        <ele>1543</ele>
        <time>2026-08-04T06:08:55.278Z</time>
      </trkpt>
      <trkpt lat="45.94238" lon="6.86883">
        <ele>1543</ele>
        <time>2026-08-04T06:08:56.278Z</time>
      </trkpt>
      <trkpt lat="45.94239" lon="6.86884">
        <ele>1543</ele>
        <time>2026-08-04T06:08:57.278Z</time>
      </trkpt>
      <trkpt lat="45.94239" lon="6.86884">
        <ele>1542</ele>
        <time>2026-08-04T06:08:58.278Z</time>
      </trkpt>
      <trkpt lat="45.9424" lon="6.86885">
        <ele>1542</ele>
        <time>2026-08-04T06:08:59.278Z</time>
      </trkpt>
      <trkpt lat="45.94241" lon="6.86885">
        <ele>1542</ele>
        <time>2026-08-04T06:09:00.278Z</time>
      </trkpt>
      <trkpt lat="45.94242" lon="6.86886">
        <ele>1542</ele>
        <time>2026-08-04T06:09:01.278Z</time>
      </trkpt>
      <trkpt lat="45.94242" lon="6.86887">
        <ele>1542</ele>
        <time>2026-08-04T06:09:02.278Z</time>
      </trkpt>
      <trkpt lat="45.94242" lon="6.86887">
        <ele>1541</ele>
        <time>2026-08-04T06:09:03.278Z</time>
      </trkpt>
      <trkpt lat="45.94242" lon="6.86888">
        <ele>1541</ele>
        <time>2026-08-04T06:09:04.278Z</time>
      </trkpt>
      <trkpt lat="45.94242" lon="6.86888">
        <ele>1541</ele>
        <time>2026-08-04T06:09:05.278Z</time>
      </trkpt>
      <trkpt lat="45.94243" lon="6.86889">
        <ele>1541</ele>
        <time>2026-08-04T06:09:06.278Z</time>
      </trkpt>
      <trkpt lat="45.94244" lon="6.8689">
        <ele>1541</ele>
        <time>2026-08-04T06:09:07.278Z</time>
      </trkpt>
      <trkpt lat="45.94244" lon="6.86891">
        <ele>1541</ele>
        <time>2026-08-04T06:09:08.278Z</time>
      </trkpt>
      <trkpt lat="45.94245" lon="6.86892">
        <ele>1541</ele>
        <time>2026-08-04T06:09:09.278Z</time>
      </trkpt>
      <trkpt lat="45.94246" lon="6.86892">
        <ele>1541</ele>
        <time>2026-08-04T06:09:10.278Z</time>
      </trkpt>
      <trkpt lat="45.94246" lon="6.86893">
        <ele>1541</ele>
        <time>2026-08-04T06:09:11.278Z</time>
      </trkpt>
      <trkpt lat="45.94247" lon="6.86893">
        <ele>1540</ele>
        <time>2026-08-04T06:09:12.278Z</time>
      </trkpt>
      <trkpt lat="45.94247" lon="6.86894">
        <ele>1540</ele>
        <time>2026-08-04T06:09:13.278Z</time>
      </trkpt>
      <trkpt lat="45.94248" lon="6.86895">
        <ele>1540</ele>
        <time>2026-08-04T06:09:14.278Z</time>
      </trkpt>
      <trkpt lat="45.94248" lon="6.86895">
        <ele>1540</ele>
        <time>2026-08-04T06:09:15.278Z</time>
      </trkpt>
      <trkpt lat="45.94248" lon="6.86895">
        <ele>1540</ele>
        <time>2026-08-04T06:09:16.278Z</time>
      </trkpt>
      <trkpt lat="45.94248" lon="6.86895">
        <ele>1540</ele>
        <time>2026-08-04T06:09:17.278Z</time>
      </trkpt>
      <trkpt lat="45.94248" lon="6.86895">
        <ele>1540</ele>
        <time>2026-08-04T06:09:18.278Z</time>
      </trkpt>
      <trkpt lat="45.94249" lon="6.86894">
        <ele>1540</ele>
        <time>2026-08-04T06:09:19.278Z</time>
      </trkpt>
      <trkpt lat="45.9425" lon="6.86894">
        <ele>1541</ele>
        <time>2026-08-04T06:09:20.278Z</time>
      </trkpt>
      <trkpt lat="45.94251" lon="6.86893">
        <ele>1541</ele>
        <time>2026-08-04T06:09:21.278Z</time>
      </trkpt>
      <trkpt lat="45.94253" lon="6.86893">
        <ele>1541</ele>
        <time>2026-08-04T06:09:22.278Z</time>
      </trkpt>
      <trkpt lat="45.94255" lon="6.86893">
        <ele>1541</ele>
        <time>2026-08-04T06:09:23.278Z</time>
      </trkpt>
      <trkpt lat="45.94256" lon="6.86894">
        <ele>1541</ele>
        <time>2026-08-04T06:09:24.278Z</time>
      </trkpt>
      <trkpt lat="45.94258" lon="6.86894">
        <ele>1541</ele>
        <time>2026-08-04T06:09:25.278Z</time>
      </trkpt>
      <trkpt lat="45.9426" lon="6.86895">
        <ele>1541</ele>
        <time>2026-08-04T06:09:26.278Z</time>
      </trkpt>
      <trkpt lat="45.94262" lon="6.86897">
        <ele>1541</ele>
        <time>2026-08-04T06:09:27.278Z</time>
      </trkpt>
      <trkpt lat="45.94263" lon="6.86899">
        <ele>1540</ele>
        <time>2026-08-04T06:09:28.278Z</time>
      </trkpt>
      <trkpt lat="45.94265" lon="6.869">
        <ele>1540</ele>
        <time>2026-08-04T06:09:29.278Z</time>
      </trkpt>
      <trkpt lat="45.94266" lon="6.86901">
        <ele>1540</ele>
        <time>2026-08-04T06:09:30.278Z</time>
      </trkpt>
      <trkpt lat="45.94267" lon="6.86902">
        <ele>1540</ele>
        <time>2026-08-04T06:09:31.278Z</time>
      </trkpt>
      <trkpt lat="45.94267" lon="6.86902">
        <ele>1540</ele>
        <time>2026-08-04T06:09:32.278Z</time>
      </trkpt>
      <trkpt lat="45.94268" lon="6.86903">
        <ele>1540</ele>
        <time>2026-08-04T06:09:33.278Z</time>
      </trkpt>
      <trkpt lat="45.94268" lon="6.86902">
        <ele>1540</ele>
        <time>2026-08-04T06:09:34.278Z</time>
      </trkpt>
      <trkpt lat="45.94269" lon="6.86903">
        <ele>1540</ele>
        <time>2026-08-04T06:09:35.278Z</time>
      </trkpt>
      <trkpt lat="45.9427" lon="6.86903">
        <ele>1540</ele>
        <time>2026-08-04T06:09:36.278Z</time>
      </trkpt>
      <trkpt lat="45.9427" lon="6.86903">
        <ele>1540</ele>
        <time>2026-08-04T06:09:37.278Z</time>
      </trkpt>
      <trkpt lat="45.9427" lon="6.86902">
        <ele>1540</ele>
        <time>2026-08-04T06:09:38.278Z</time>
      </trkpt>
      <trkpt lat="45.94271" lon="6.86903">
        <ele>1540</ele>
        <time>2026-08-04T06:09:39.278Z</time>
      </trkpt>
      <trkpt lat="45.94272" lon="6.86903">
        <ele>1540</ele>
        <time>2026-08-04T06:09:40.278Z</time>
      </trkpt>
      <trkpt lat="45.94273" lon="6.86904">
        <ele>1540</ele>
        <time>2026-08-04T06:09:41.278Z</time>
      </trkpt>
      <trkpt lat="45.94273" lon="6.86904">
        <ele>1540</ele>
        <time>2026-08-04T06:09:42.278Z</time>
      </trkpt>
      <trkpt lat="45.94274" lon="6.86903">
        <ele>1540</ele>
        <time>2026-08-04T06:09:43.278Z</time>
      </trkpt>
      <trkpt lat="45.94275" lon="6.86903">
        <ele>1539</ele>
        <time>2026-08-04T06:09:44.278Z</time>
      </trkpt>
      <trkpt lat="45.94276" lon="6.86903">
        <ele>1539</ele>
        <time>2026-08-04T06:09:45.278Z</time>
      </trkpt>
      <trkpt lat="45.94277" lon="6.86903">
        <ele>1539</ele>
        <time>2026-08-04T06:09:46.278Z</time>
      </trkpt>
      <trkpt lat="45.94277" lon="6.86903">
        <ele>1539</ele>
        <time>2026-08-04T06:09:47.278Z</time>
      </trkpt>
      <trkpt lat="45.94278" lon="6.86905">
        <ele>1538</ele>
        <time>2026-08-04T06:09:48.278Z</time>
      </trkpt>
      <trkpt lat="45.9428" lon="6.86906">
        <ele>1538</ele>
        <time>2026-08-04T06:09:49.278Z</time>
      </trkpt>
      <trkpt lat="45.94282" lon="6.86908">
        <ele>1538</ele>
        <time>2026-08-04T06:09:50.278Z</time>
      </trkpt>
      <trkpt lat="45.94283" lon="6.86909">
        <ele>1538</ele>
        <time>2026-08-04T06:09:51.278Z</time>
      </trkpt>
      <trkpt lat="45.94285" lon="6.86911">
        <ele>1537</ele>
        <time>2026-08-04T06:09:52.278Z</time>
      </trkpt>
      <trkpt lat="45.94286" lon="6.86913">
        <ele>1537</ele>
        <time>2026-08-04T06:09:53.278Z</time>
      </trkpt>
      <trkpt lat="45.94288" lon="6.86915">
        <ele>1537</ele>
        <time>2026-08-04T06:09:54.278Z</time>
      </trkpt>
      <trkpt lat="45.94288" lon="6.86916">
        <ele>1536</ele>
        <time>2026-08-04T06:09:55.278Z</time>
      </trkpt>
      <trkpt lat="45.9429" lon="6.86917">
        <ele>1536</ele>
        <time>2026-08-04T06:09:56.278Z</time>
      </trkpt>
      <trkpt lat="45.94291" lon="6.86918">
        <ele>1536</ele>
        <time>2026-08-04T06:09:57.278Z</time>
      </trkpt>
      <trkpt lat="45.94292" lon="6.86919">
        <ele>1535</ele>
        <time>2026-08-04T06:09:58.278Z</time>
      </trkpt>
      <trkpt lat="45.94292" lon="6.86919">
        <ele>1535</ele>
        <time>2026-08-04T06:09:59.278Z</time>
      </trkpt>
      <trkpt lat="45.94293" lon="6.8692">
        <ele>1535</ele>
        <time>2026-08-04T06:10:00.278Z</time>
      </trkpt>
      <trkpt lat="45.94295" lon="6.86921">
        <ele>1535</ele>
        <time>2026-08-04T06:10:01.278Z</time>
      </trkpt>
      <trkpt lat="45.94297" lon="6.86923">
        <ele>1535</ele>
        <time>2026-08-04T06:10:02.278Z</time>
      </trkpt>
      <trkpt lat="45.94298" lon="6.86924">
        <ele>1535</ele>
        <time>2026-08-04T06:10:03.278Z</time>
      </trkpt>
      <trkpt lat="45.94298" lon="6.86926">
        <ele>1535</ele>
        <time>2026-08-04T06:10:04.278Z</time>
      </trkpt>
      <trkpt lat="45.94299" lon="6.86928">
        <ele>1535</ele>
        <time>2026-08-04T06:10:05.278Z</time>
      </trkpt>
      <trkpt lat="45.94299" lon="6.8693">
        <ele>1535</ele>
        <time>2026-08-04T06:10:06.278Z</time>
      </trkpt>
      <trkpt lat="45.943" lon="6.86932">
        <ele>1535</ele>
        <time>2026-08-04T06:10:07.278Z</time>
      </trkpt>
      <trkpt lat="45.94301" lon="6.86934">
        <ele>1535</ele>
        <time>2026-08-04T06:10:08.278Z</time>
      </trkpt>
      <trkpt lat="45.94301" lon="6.86937">
        <ele>1535</ele>
        <time>2026-08-04T06:10:09.278Z</time>
      </trkpt>
      <trkpt lat="45.94302" lon="6.8694">
        <ele>1535</ele>
        <time>2026-08-04T06:10:10.278Z</time>
      </trkpt>
      <trkpt lat="45.94304" lon="6.86942">
        <ele>1535</ele>
        <time>2026-08-04T06:10:11.278Z</time>
      </trkpt>
      <trkpt lat="45.94305" lon="6.86945">
        <ele>1535</ele>
        <time>2026-08-04T06:10:12.278Z</time>
      </trkpt>
      <trkpt lat="45.94306" lon="6.86947">
        <ele>1536</ele>
        <time>2026-08-04T06:10:13.278Z</time>
      </trkpt>
      <trkpt lat="45.94306" lon="6.86948">
        <ele>1536</ele>
        <time>2026-08-04T06:10:14.278Z</time>
      </trkpt>
      <trkpt lat="45.94307" lon="6.86949">
        <ele>1536</ele>
        <time>2026-08-04T06:10:15.278Z</time>
      </trkpt>
      <trkpt lat="45.94308" lon="6.8695">
        <ele>1536</ele>
        <time>2026-08-04T06:10:16.278Z</time>
      </trkpt>
      <trkpt lat="45.94309" lon="6.86951">
        <ele>1536</ele>
        <time>2026-08-04T06:10:17.278Z</time>
      </trkpt>
      <trkpt lat="45.94309" lon="6.86951">
        <ele>1537</ele>
        <time>2026-08-04T06:10:18.278Z</time>
      </trkpt>
      <trkpt lat="45.94309" lon="6.86952">
        <ele>1537</ele>
        <time>2026-08-04T06:10:19.278Z</time>
      </trkpt>
      <trkpt lat="45.9431" lon="6.86953">
        <ele>1537</ele>
        <time>2026-08-04T06:10:20.278Z</time>
      </trkpt>
      <trkpt lat="45.9431" lon="6.86953">
        <ele>1537</ele>
        <time>2026-08-04T06:10:21.278Z</time>
      </trkpt>
      <trkpt lat="45.94311" lon="6.86953">
        <ele>1538</ele>
        <time>2026-08-04T06:10:22.278Z</time>
      </trkpt>
      <trkpt lat="45.94311" lon="6.86954">
        <ele>1538</ele>
        <time>2026-08-04T06:10:23.278Z</time>
      </trkpt>
      <trkpt lat="45.94312" lon="6.86954">
        <ele>1538</ele>
        <time>2026-08-04T06:10:24.278Z</time>
      </trkpt>
      <trkpt lat="45.94314" lon="6.86954">
        <ele>1538</ele>
        <time>2026-08-04T06:10:25.278Z</time>
      </trkpt>
      <trkpt lat="45.94314" lon="6.86954">
        <ele>1538</ele>
        <time>2026-08-04T06:10:26.278Z</time>
      </trkpt>
      <trkpt lat="45.94315" lon="6.86953">
        <ele>1538</ele>
        <time>2026-08-04T06:10:27.278Z</time>
      </trkpt>
      <trkpt lat="45.94316" lon="6.86952">
        <ele>1538</ele>
        <time>2026-08-04T06:10:28.278Z</time>
      </trkpt>
      <trkpt lat="45.94317" lon="6.86951">
        <ele>1538</ele>
        <time>2026-08-04T06:10:29.278Z</time>
      </trkpt>
      <trkpt lat="45.9432" lon="6.86949">
        <ele>1538</ele>
        <time>2026-08-04T06:10:30.278Z</time>
      </trkpt>
      <trkpt lat="45.94322" lon="6.86948">
        <ele>1538</ele>
        <time>2026-08-04T06:10:31.278Z</time>
      </trkpt>
      <trkpt lat="45.94323" lon="6.86947">
        <ele>1538</ele>
        <time>2026-08-04T06:10:32.278Z</time>
      </trkpt>
      <trkpt lat="45.94325" lon="6.86945">
        <ele>1538</ele>
        <time>2026-08-04T06:10:33.278Z</time>
      </trkpt>
      <trkpt lat="45.94326" lon="6.86944">
        <ele>1537</ele>
        <time>2026-08-04T06:10:34.278Z</time>
      </trkpt>
      <trkpt lat="45.94328" lon="6.86943">
        <ele>1537</ele>
        <time>2026-08-04T06:10:35.278Z</time>
      </trkpt>
      <trkpt lat="45.94329" lon="6.86942">
        <ele>1537</ele>
        <time>2026-08-04T06:10:36.278Z</time>
      </trkpt>
      <trkpt lat="45.9433" lon="6.86941">
        <ele>1537</ele>
        <time>2026-08-04T06:10:37.278Z</time>
      </trkpt>
      <trkpt lat="45.94331" lon="6.86941">
        <ele>1537</ele>
        <time>2026-08-04T06:10:38.278Z</time>
      </trkpt>
      <trkpt lat="45.94332" lon="6.86941">
        <ele>1537</ele>
        <time>2026-08-04T06:10:39.278Z</time>
      </trkpt>
      <trkpt lat="45.94334" lon="6.86941">
        <ele>1537</ele>
        <time>2026-08-04T06:10:40.278Z</time>
      </trkpt>
      <trkpt lat="45.94337" lon="6.8694">
        <ele>1537</ele>
        <time>2026-08-04T06:10:41.278Z</time>
      </trkpt>
      <trkpt lat="45.94339" lon="6.86939">
        <ele>1537</ele>
        <time>2026-08-04T06:10:42.278Z</time>
      </trkpt>
      <trkpt lat="45.94342" lon="6.86938">
        <ele>1537</ele>
        <time>2026-08-04T06:10:43.278Z</time>
      </trkpt>
      <trkpt lat="45.94344" lon="6.86938">
        <ele>1537</ele>
        <time>2026-08-04T06:10:44.278Z</time>
      </trkpt>
      <trkpt lat="45.94346" lon="6.86938">
        <ele>1537</ele>
        <time>2026-08-04T06:10:45.278Z</time>
      </trkpt>
      <trkpt lat="45.94347" lon="6.86938">
        <ele>1537</ele>
        <time>2026-08-04T06:10:46.278Z</time>
      </trkpt>
      <trkpt lat="45.94348" lon="6.86938">
        <ele>1537</ele>
        <time>2026-08-04T06:10:47.278Z</time>
      </trkpt>
      <trkpt lat="45.94349" lon="6.86938">
        <ele>1537</ele>
        <time>2026-08-04T06:10:48.278Z</time>
      </trkpt>
      <trkpt lat="45.94351" lon="6.8694">
        <ele>1537</ele>
        <time>2026-08-04T06:10:49.278Z</time>
      </trkpt>
      <trkpt lat="45.94352" lon="6.8694">
        <ele>1537</ele>
        <time>2026-08-04T06:10:50.278Z</time>
      </trkpt>
      <trkpt lat="45.94353" lon="6.8694">
        <ele>1537</ele>
        <time>2026-08-04T06:10:51.278Z</time>
      </trkpt>
      <trkpt lat="45.94354" lon="6.86941">
        <ele>1537</ele>
        <time>2026-08-04T06:10:52.278Z</time>
      </trkpt>
      <trkpt lat="45.94355" lon="6.86942">
        <ele>1537</ele>
        <time>2026-08-04T06:10:53.278Z</time>
      </trkpt>
      <trkpt lat="45.94356" lon="6.86943">
        <ele>1537</ele>
        <time>2026-08-04T06:10:54.278Z</time>
      </trkpt>
      <trkpt lat="45.94356" lon="6.86943">
        <ele>1538</ele>
        <time>2026-08-04T06:10:55.278Z</time>
      </trkpt>
      <trkpt lat="45.94356" lon="6.86943">
        <ele>1538</ele>
        <time>2026-08-04T06:10:56.278Z</time>
      </trkpt>
      <trkpt lat="45.94358" lon="6.86944">
        <ele>1538</ele>
        <time>2026-08-04T06:10:57.278Z</time>
      </trkpt>
      <trkpt lat="45.9436" lon="6.86946">
        <ele>1538</ele>
        <time>2026-08-04T06:10:58.278Z</time>
      </trkpt>
      <trkpt lat="45.94362" lon="6.86948">
        <ele>1538</ele>
        <time>2026-08-04T06:10:59.278Z</time>
      </trkpt>
      <trkpt lat="45.94364" lon="6.86948">
        <ele>1538</ele>
        <time>2026-08-04T06:11:00.278Z</time>
      </trkpt>
      <trkpt lat="45.94366" lon="6.86949">
        <ele>1538</ele>
        <time>2026-08-04T06:11:01.278Z</time>
      </trkpt>
      <trkpt lat="45.94368" lon="6.86949">
        <ele>1538</ele>
        <time>2026-08-04T06:11:02.278Z</time>
      </trkpt>
      <trkpt lat="45.94369" lon="6.8695">
        <ele>1538</ele>
        <time>2026-08-04T06:11:03.278Z</time>
      </trkpt>
      <trkpt lat="45.94371" lon="6.86951">
        <ele>1538</ele>
        <time>2026-08-04T06:11:04.278Z</time>
      </trkpt>
      <trkpt lat="45.94372" lon="6.86952">
        <ele>1538</ele>
        <time>2026-08-04T06:11:05.278Z</time>
      </trkpt>
      <trkpt lat="45.94373" lon="6.86952">
        <ele>1538</ele>
        <time>2026-08-04T06:11:06.278Z</time>
      </trkpt>
      <trkpt lat="45.94374" lon="6.86952">
        <ele>1538</ele>
        <time>2026-08-04T06:11:07.278Z</time>
      </trkpt>
      <trkpt lat="45.94376" lon="6.86953">
        <ele>1538</ele>
        <time>2026-08-04T06:11:08.278Z</time>
      </trkpt>
      <trkpt lat="45.94377" lon="6.86953">
        <ele>1539</ele>
        <time>2026-08-04T06:11:09.278Z</time>
      </trkpt>
      <trkpt lat="45.94379" lon="6.86953">
        <ele>1539</ele>
        <time>2026-08-04T06:11:10.278Z</time>
      </trkpt>
      <trkpt lat="45.9438" lon="6.86953">
        <ele>1539</ele>
        <time>2026-08-04T06:11:11.278Z</time>
      </trkpt>
      <trkpt lat="45.9438" lon="6.86954">
        <ele>1539</ele>
        <time>2026-08-04T06:11:12.278Z</time>
      </trkpt>
      <trkpt lat="45.94381" lon="6.86954">
        <ele>1539</ele>
        <time>2026-08-04T06:11:13.278Z</time>
      </trkpt>
      <trkpt lat="45.94382" lon="6.86953">
        <ele>1539</ele>
        <time>2026-08-04T06:11:14.278Z</time>
      </trkpt>
      <trkpt lat="45.94383" lon="6.86952">
        <ele>1539</ele>
        <time>2026-08-04T06:11:15.278Z</time>
      </trkpt>
      <trkpt lat="45.94384" lon="6.86952">
        <ele>1538</ele>
        <time>2026-08-04T06:11:16.278Z</time>
      </trkpt>
      <trkpt lat="45.94385" lon="6.86951">
        <ele>1538</ele>
        <time>2026-08-04T06:11:17.278Z</time>
      </trkpt>
      <trkpt lat="45.94386" lon="6.8695">
        <ele>1538</ele>
        <time>2026-08-04T06:11:18.278Z</time>
      </trkpt>
      <trkpt lat="45.94387" lon="6.86949">
        <ele>1538</ele>
        <time>2026-08-04T06:11:19.278Z</time>
      </trkpt>
      <trkpt lat="45.94387" lon="6.86947">
        <ele>1538</ele>
        <time>2026-08-04T06:11:20.278Z</time>
      </trkpt>
      <trkpt lat="45.94388" lon="6.86945">
        <ele>1538</ele>
        <time>2026-08-04T06:11:21.278Z</time>
      </trkpt>
      <trkpt lat="45.9439" lon="6.86943">
        <ele>1538</ele>
        <time>2026-08-04T06:11:22.278Z</time>
      </trkpt>
      <trkpt lat="45.94391" lon="6.86943">
        <ele>1539</ele>
        <time>2026-08-04T06:11:23.278Z</time>
      </trkpt>
      <trkpt lat="45.94392" lon="6.86943">
        <ele>1539</ele>
        <time>2026-08-04T06:11:24.278Z</time>
      </trkpt>
      <trkpt lat="45.94393" lon="6.86942">
        <ele>1540</ele>
        <time>2026-08-04T06:11:25.278Z</time>
      </trkpt>
      <trkpt lat="45.94393" lon="6.86941">
        <ele>1541</ele>
        <time>2026-08-04T06:11:26.278Z</time>
      </trkpt>
      <trkpt lat="45.94393" lon="6.86941">
        <ele>1541</ele>
        <time>2026-08-04T06:11:27.278Z</time>
      </trkpt>
      <trkpt lat="45.94394" lon="6.8694">
        <ele>1542</ele>
        <time>2026-08-04T06:11:28.278Z</time>
      </trkpt>
      <trkpt lat="45.94395" lon="6.8694">
        <ele>1542</ele>
        <time>2026-08-04T06:11:29.278Z</time>
      </trkpt>
      <trkpt lat="45.94396" lon="6.8694">
        <ele>1543</ele>
        <time>2026-08-04T06:11:30.278Z</time>
      </trkpt>
      <trkpt lat="45.94397" lon="6.86939">
        <ele>1543</ele>
        <time>2026-08-04T06:11:31.278Z</time>
      </trkpt>
      <trkpt lat="45.94398" lon="6.86939">
        <ele>1543</ele>
        <time>2026-08-04T06:11:32.278Z</time>
      </trkpt>
      <trkpt lat="45.94399" lon="6.86938">
        <ele>1544</ele>
        <time>2026-08-04T06:11:33.278Z</time>
      </trkpt>
      <trkpt lat="45.944" lon="6.86937">
        <ele>1544</ele>
        <time>2026-08-04T06:11:34.278Z</time>
      </trkpt>
      <trkpt lat="45.94401" lon="6.86937">
        <ele>1544</ele>
        <time>2026-08-04T06:11:35.278Z</time>
      </trkpt>
      <trkpt lat="45.94402" lon="6.86936">
        <ele>1543</ele>
        <time>2026-08-04T06:11:36.278Z</time>
      </trkpt>
      <trkpt lat="45.94403" lon="6.86934">
        <ele>1543</ele>
        <time>2026-08-04T06:11:37.278Z</time>
      </trkpt>
      <trkpt lat="45.94404" lon="6.86934">
        <ele>1542</ele>
        <time>2026-08-04T06:11:38.278Z</time>
      </trkpt>
      <trkpt lat="45.94405" lon="6.86933">
        <ele>1542</ele>
        <time>2026-08-04T06:11:39.278Z</time>
      </trkpt>
      <trkpt lat="45.94406" lon="6.86932">
        <ele>1542</ele>
        <time>2026-08-04T06:11:40.278Z</time>
      </trkpt>
      <trkpt lat="45.94406" lon="6.86932">
        <ele>1542</ele>
        <time>2026-08-04T06:11:41.278Z</time>
      </trkpt>
      <trkpt lat="45.94406" lon="6.86932">
        <ele>1541</ele>
        <time>2026-08-04T06:11:42.278Z</time>
      </trkpt>
      <trkpt lat="45.94406" lon="6.86932">
        <ele>1541</ele>
        <time>2026-08-04T06:11:43.278Z</time>
      </trkpt>
      <trkpt lat="45.94406" lon="6.86931">
        <ele>1541</ele>
        <time>2026-08-04T06:11:44.278Z</time>
      </trkpt>
      <trkpt lat="45.94406" lon="6.86931">
        <ele>1541</ele>
        <time>2026-08-04T06:11:45.278Z</time>
      </trkpt>
      <trkpt lat="45.94406" lon="6.86931">
        <ele>1541</ele>
        <time>2026-08-04T06:11:46.278Z</time>
      </trkpt>
      <trkpt lat="45.94407" lon="6.8693">
        <ele>1541</ele>
        <time>2026-08-04T06:11:47.278Z</time>
      </trkpt>
      <trkpt lat="45.94408" lon="6.8693">
        <ele>1541</ele>
        <time>2026-08-04T06:11:48.278Z</time>
      </trkpt>
      <trkpt lat="45.94408" lon="6.8693">
        <ele>1541</ele>
        <time>2026-08-04T06:11:49.278Z</time>
      </trkpt>
      <trkpt lat="45.94408" lon="6.86929">
        <ele>1540</ele>
        <time>2026-08-04T06:11:50.278Z</time>
      </trkpt>
      <trkpt lat="45.94409" lon="6.86927">
        <ele>1540</ele>
        <time>2026-08-04T06:11:51.278Z</time>
      </trkpt>
      <trkpt lat="45.94409" lon="6.86926">
        <ele>1540</ele>
        <time>2026-08-04T06:11:52.278Z</time>
      </trkpt>
      <trkpt lat="45.9441" lon="6.86926">
        <ele>1540</ele>
        <time>2026-08-04T06:11:53.278Z</time>
      </trkpt>
      <trkpt lat="45.94411" lon="6.86925">
        <ele>1540</ele>
        <time>2026-08-04T06:11:54.278Z</time>
      </trkpt>
      <trkpt lat="45.94413" lon="6.86925">
        <ele>1540</ele>
        <time>2026-08-04T06:11:55.278Z</time>
      </trkpt>
      <trkpt lat="45.94414" lon="6.86924">
        <ele>1541</ele>
        <time>2026-08-04T06:11:56.278Z</time>
      </trkpt>
      <trkpt lat="45.94415" lon="6.86923">
        <ele>1541</ele>
        <time>2026-08-04T06:11:57.278Z</time>
      </trkpt>
      <trkpt lat="45.94416" lon="6.86922">
        <ele>1541</ele>
        <time>2026-08-04T06:11:58.278Z</time>
      </trkpt>
      <trkpt lat="45.94417" lon="6.86921">
        <ele>1541</ele>
        <time>2026-08-04T06:11:59.278Z</time>
      </trkpt>
      <trkpt lat="45.94419" lon="6.86921">
        <ele>1541</ele>
        <time>2026-08-04T06:12:00.278Z</time>
      </trkpt>
      <trkpt lat="45.9442" lon="6.8692">
        <ele>1541</ele>
        <time>2026-08-04T06:12:01.278Z</time>
      </trkpt>
      <trkpt lat="45.94421" lon="6.86919">
        <ele>1541</ele>
        <time>2026-08-04T06:12:02.278Z</time>
      </trkpt>
      <trkpt lat="45.94423" lon="6.86918">
        <ele>1541</ele>
        <time>2026-08-04T06:12:03.278Z</time>
      </trkpt>
      <trkpt lat="45.94424" lon="6.86917">
        <ele>1541</ele>
        <time>2026-08-04T06:12:04.278Z</time>
      </trkpt>
      <trkpt lat="45.94425" lon="6.86915">
        <ele>1541</ele>
        <time>2026-08-04T06:12:05.278Z</time>
      </trkpt>
      <trkpt lat="45.94425" lon="6.86914">
        <ele>1541</ele>
        <time>2026-08-04T06:12:06.278Z</time>
      </trkpt>
      <trkpt lat="45.94426" lon="6.86913">
        <ele>1541</ele>
        <time>2026-08-04T06:12:07.278Z</time>
      </trkpt>
      <trkpt lat="45.94427" lon="6.86912">
        <ele>1541</ele>
        <time>2026-08-04T06:12:08.278Z</time>
      </trkpt>
      <trkpt lat="45.94428" lon="6.86911">
        <ele>1542</ele>
        <time>2026-08-04T06:12:09.278Z</time>
      </trkpt>
      <trkpt lat="45.9443" lon="6.8691">
        <ele>1542</ele>
        <time>2026-08-04T06:12:10.278Z</time>
      </trkpt>
      <trkpt lat="45.94431" lon="6.8691">
        <ele>1543</ele>
        <time>2026-08-04T06:12:11.278Z</time>
      </trkpt>
      <trkpt lat="45.94432" lon="6.86909">
        <ele>1543</ele>
        <time>2026-08-04T06:12:12.278Z</time>
      </trkpt>
      <trkpt lat="45.94432" lon="6.86908">
        <ele>1543</ele>
        <time>2026-08-04T06:12:13.278Z</time>
      </trkpt>
      <trkpt lat="45.94433" lon="6.86908">
        <ele>1544</ele>
        <time>2026-08-04T06:12:14.278Z</time>
      </trkpt>
      <trkpt lat="45.94434" lon="6.86908">
        <ele>1544</ele>
        <time>2026-08-04T06:12:15.278Z</time>
      </trkpt>
      <trkpt lat="45.94435" lon="6.86908">
        <ele>1545</ele>
        <time>2026-08-04T06:12:16.278Z</time>
      </trkpt>
      <trkpt lat="45.94436" lon="6.86907">
        <ele>1545</ele>
        <time>2026-08-04T06:12:17.278Z</time>
      </trkpt>
      <trkpt lat="45.94437" lon="6.86906">
        <ele>1545</ele>
        <time>2026-08-04T06:12:18.278Z</time>
      </trkpt>
      <trkpt lat="45.94438" lon="6.86905">
        <ele>1545</ele>
        <time>2026-08-04T06:12:19.278Z</time>
      </trkpt>
      <trkpt lat="45.94439" lon="6.86904">
        <ele>1545</ele>
        <time>2026-08-04T06:12:20.278Z</time>
      </trkpt>
      <trkpt lat="45.9444" lon="6.86903">
        <ele>1545</ele>
        <time>2026-08-04T06:12:21.278Z</time>
      </trkpt>
      <trkpt lat="45.9444" lon="6.86902">
        <ele>1545</ele>
        <time>2026-08-04T06:12:22.278Z</time>
      </trkpt>
      <trkpt lat="45.94441" lon="6.869">
        <ele>1544</ele>
        <time>2026-08-04T06:12:23.278Z</time>
      </trkpt>
      <trkpt lat="45.94441" lon="6.869">
        <ele>1544</ele>
        <time>2026-08-04T06:12:24.278Z</time>
      </trkpt>
      <trkpt lat="45.94442" lon="6.869">
        <ele>1544</ele>
        <time>2026-08-04T06:12:25.278Z</time>
      </trkpt>
      <trkpt lat="45.94443" lon="6.86899">
        <ele>1544</ele>
        <time>2026-08-04T06:12:26.278Z</time>
      </trkpt>
      <trkpt lat="45.94443" lon="6.86899">
        <ele>1544</ele>
        <time>2026-08-04T06:12:27.278Z</time>
      </trkpt>
      <trkpt lat="45.94443" lon="6.86898">
        <ele>1544</ele>
        <time>2026-08-04T06:12:28.278Z</time>
      </trkpt>
      <trkpt lat="45.94444" lon="6.86898">
        <ele>1545</ele>
        <time>2026-08-04T06:12:29.278Z</time>
      </trkpt>
      <trkpt lat="45.94444" lon="6.86897">
        <ele>1545</ele>
        <time>2026-08-04T06:12:30.278Z</time>
      </trkpt>
      <trkpt lat="45.94445" lon="6.86897">
        <ele>1546</ele>
        <time>2026-08-04T06:12:31.278Z</time>
      </trkpt>
      <trkpt lat="45.94446" lon="6.86898">
        <ele>1547</ele>
        <time>2026-08-04T06:12:32.278Z</time>
      </trkpt>
      <trkpt lat="45.94446" lon="6.86898">
        <ele>1548</ele>
        <time>2026-08-04T06:12:33.278Z</time>
      </trkpt>
      <trkpt lat="45.94447" lon="6.86897">
        <ele>1548</ele>
        <time>2026-08-04T06:12:34.278Z</time>
      </trkpt>
      <trkpt lat="45.94448" lon="6.86897">
        <ele>1549</ele>
        <time>2026-08-04T06:12:35.278Z</time>
      </trkpt>
      <trkpt lat="45.94448" lon="6.86897">
        <ele>1549</ele>
        <time>2026-08-04T06:12:36.278Z</time>
      </trkpt>
      <trkpt lat="45.94448" lon="6.86897">
        <ele>1549</ele>
        <time>2026-08-04T06:12:37.278Z</time>
      </trkpt>
      <trkpt lat="45.94448" lon="6.86897">
        <ele>1549</ele>
        <time>2026-08-04T06:12:38.279Z</time>
      </trkpt>
      <trkpt lat="45.94448" lon="6.86897">
        <ele>1549</ele>
        <time>2026-08-04T06:12:39.278Z</time>
      </trkpt>
      <trkpt lat="45.94449" lon="6.86898">
        <ele>1549</ele>
        <time>2026-08-04T06:12:40.278Z</time>
      </trkpt>
      <trkpt lat="45.9445" lon="6.86898">
        <ele>1549</ele>
        <time>2026-08-04T06:12:41.278Z</time>
      </trkpt>
      <trkpt lat="45.9445" lon="6.86898">
        <ele>1549</ele>
        <time>2026-08-04T06:12:42.278Z</time>
      </trkpt>
      <trkpt lat="45.94451" lon="6.86898">
        <ele>1549</ele>
        <time>2026-08-04T06:12:43.278Z</time>
      </trkpt>
      <trkpt lat="45.94451" lon="6.86898">
        <ele>1550</ele>
        <time>2026-08-04T06:12:44.278Z</time>
      </trkpt>
      <trkpt lat="45.94452" lon="6.86898">
        <ele>1550</ele>
        <time>2026-08-04T06:12:45.278Z</time>
      </trkpt>
      <trkpt lat="45.94453" lon="6.86899">
        <ele>1551</ele>
        <time>2026-08-04T06:12:46.278Z</time>
      </trkpt>
      <trkpt lat="45.94455" lon="6.869">
        <ele>1551</ele>
        <time>2026-08-04T06:12:47.278Z</time>
      </trkpt>
      <trkpt lat="45.94456" lon="6.86901">
        <ele>1552</ele>
        <time>2026-08-04T06:12:48.278Z</time>
      </trkpt>
      <trkpt lat="45.94458" lon="6.86901">
        <ele>1552</ele>
        <time>2026-08-04T06:12:49.278Z</time>
      </trkpt>
      <trkpt lat="45.94459" lon="6.86901">
        <ele>1553</ele>
        <time>2026-08-04T06:12:50.278Z</time>
      </trkpt>
      <trkpt lat="45.9446" lon="6.86902">
        <ele>1554</ele>
        <time>2026-08-04T06:12:51.278Z</time>
      </trkpt>
      <trkpt lat="45.94461" lon="6.86902">
        <ele>1554</ele>
        <time>2026-08-04T06:12:52.278Z</time>
      </trkpt>
      <trkpt lat="45.94461" lon="6.86903">
        <ele>1555</ele>
        <time>2026-08-04T06:12:53.278Z</time>
      </trkpt>
      <trkpt lat="45.94463" lon="6.86904">
        <ele>1555</ele>
        <time>2026-08-04T06:12:54.278Z</time>
      </trkpt>
      <trkpt lat="45.94463" lon="6.86906">
        <ele>1555</ele>
        <time>2026-08-04T06:12:55.278Z</time>
      </trkpt>
      <trkpt lat="45.94464" lon="6.86907">
        <ele>1556</ele>
        <time>2026-08-04T06:12:56.278Z</time>
      </trkpt>
      <trkpt lat="45.94466" lon="6.86908">
        <ele>1556</ele>
        <time>2026-08-04T06:12:57.278Z</time>
      </trkpt>
      <trkpt lat="45.94467" lon="6.86909">
        <ele>1556</ele>
        <time>2026-08-04T06:12:58.278Z</time>
      </trkpt>
      <trkpt lat="45.94468" lon="6.8691">
        <ele>1556</ele>
        <time>2026-08-04T06:12:59.278Z</time>
      </trkpt>
      <trkpt lat="45.94469" lon="6.8691">
        <ele>1556</ele>
        <time>2026-08-04T06:13:00.278Z</time>
      </trkpt>
      <trkpt lat="45.9447" lon="6.86911">
        <ele>1556</ele>
        <time>2026-08-04T06:13:01.278Z</time>
      </trkpt>
      <trkpt lat="45.94471" lon="6.86912">
        <ele>1556</ele>
        <time>2026-08-04T06:13:02.278Z</time>
      </trkpt>
      <trkpt lat="45.94472" lon="6.86913">
        <ele>1556</ele>
        <time>2026-08-04T06:13:03.278Z</time>
      </trkpt>
      <trkpt lat="45.94473" lon="6.86914">
        <ele>1556</ele>
        <time>2026-08-04T06:13:04.278Z</time>
      </trkpt>
      <trkpt lat="45.94475" lon="6.86915">
        <ele>1557</ele>
        <time>2026-08-04T06:13:05.278Z</time>
      </trkpt>
      <trkpt lat="45.94476" lon="6.86916">
        <ele>1557</ele>
        <time>2026-08-04T06:13:06.278Z</time>
      </trkpt>
      <trkpt lat="45.94478" lon="6.86918">
        <ele>1558</ele>
        <time>2026-08-04T06:13:07.278Z</time>
      </trkpt>
      <trkpt lat="45.94479" lon="6.8692">
        <ele>1558</ele>
        <time>2026-08-04T06:13:08.278Z</time>
      </trkpt>
      <trkpt lat="45.9448" lon="6.86921">
        <ele>1558</ele>
        <time>2026-08-04T06:13:09.278Z</time>
      </trkpt>
      <trkpt lat="45.94481" lon="6.86922">
        <ele>1559</ele>
        <time>2026-08-04T06:13:10.278Z</time>
      </trkpt>
      <trkpt lat="45.94482" lon="6.86923">
        <ele>1559</ele>
        <time>2026-08-04T06:13:11.278Z</time>
      </trkpt>
      <trkpt lat="45.94483" lon="6.86924">
        <ele>1559</ele>
        <time>2026-08-04T06:13:12.278Z</time>
      </trkpt>
      <trkpt lat="45.94485" lon="6.86925">
        <ele>1560</ele>
        <time>2026-08-04T06:13:13.278Z</time>
      </trkpt>
      <trkpt lat="45.94486" lon="6.86926">
        <ele>1560</ele>
        <time>2026-08-04T06:13:14.278Z</time>
      </trkpt>
      <trkpt lat="45.94487" lon="6.86927">
        <ele>1560</ele>
        <time>2026-08-04T06:13:15.278Z</time>
      </trkpt>
      <trkpt lat="45.94489" lon="6.86927">
        <ele>1560</ele>
        <time>2026-08-04T06:13:16.278Z</time>
      </trkpt>
      <trkpt lat="45.9449" lon="6.86928">
        <ele>1561</ele>
        <time>2026-08-04T06:13:17.278Z</time>
      </trkpt>
      <trkpt lat="45.94491" lon="6.86928">
        <ele>1561</ele>
        <time>2026-08-04T06:13:18.278Z</time>
      </trkpt>
      <trkpt lat="45.94492" lon="6.86929">
        <ele>1562</ele>
        <time>2026-08-04T06:13:19.278Z</time>
      </trkpt>
      <trkpt lat="45.94493" lon="6.86929">
        <ele>1562</ele>
        <time>2026-08-04T06:13:20.278Z</time>
      </trkpt>
      <trkpt lat="45.94493" lon="6.86928">
        <ele>1562</ele>
        <time>2026-08-04T06:13:21.278Z</time>
      </trkpt>
      <trkpt lat="45.94494" lon="6.86927">
        <ele>1562</ele>
        <time>2026-08-04T06:13:22.278Z</time>
      </trkpt>
      <trkpt lat="45.94495" lon="6.86927">
        <ele>1563</ele>
        <time>2026-08-04T06:13:23.278Z</time>
      </trkpt>
      <trkpt lat="45.94496" lon="6.86927">
        <ele>1564</ele>
        <time>2026-08-04T06:13:24.279Z</time>
      </trkpt>
      <trkpt lat="45.94497" lon="6.86926">
        <ele>1564</ele>
        <time>2026-08-04T06:13:25.278Z</time>
      </trkpt>
      <trkpt lat="45.94497" lon="6.86925">
        <ele>1565</ele>
        <time>2026-08-04T06:13:26.278Z</time>
      </trkpt>
      <trkpt lat="45.94498" lon="6.86924">
        <ele>1565</ele>
        <time>2026-08-04T06:13:27.278Z</time>
      </trkpt>
      <trkpt lat="45.94498" lon="6.86923">
        <ele>1566</ele>
        <time>2026-08-04T06:13:28.278Z</time>
      </trkpt>
      <trkpt lat="45.94499" lon="6.86923">
        <ele>1567</ele>
        <time>2026-08-04T06:13:29.278Z</time>
      </trkpt>
      <trkpt lat="45.945" lon="6.86923">
        <ele>1567</ele>
        <time>2026-08-04T06:13:30.278Z</time>
      </trkpt>
      <trkpt lat="45.94501" lon="6.86923">
        <ele>1568</ele>
        <time>2026-08-04T06:13:31.278Z</time>
      </trkpt>
      <trkpt lat="45.94501" lon="6.86922">
        <ele>1569</ele>
        <time>2026-08-04T06:13:32.278Z</time>
      </trkpt>
      <trkpt lat="45.94502" lon="6.86921">
        <ele>1569</ele>
        <time>2026-08-04T06:13:33.278Z</time>
      </trkpt>
      <trkpt lat="45.94503" lon="6.86919">
        <ele>1569</ele>
        <time>2026-08-04T06:13:34.278Z</time>
      </trkpt>
      <trkpt lat="45.94503" lon="6.86918">
        <ele>1569</ele>
        <time>2026-08-04T06:13:35.278Z</time>
      </trkpt>
      <trkpt lat="45.94504" lon="6.86918">
        <ele>1569</ele>
        <time>2026-08-04T06:13:36.278Z</time>
      </trkpt>
      <trkpt lat="45.94505" lon="6.86918">
        <ele>1569</ele>
        <time>2026-08-04T06:13:37.278Z</time>
      </trkpt>
      <trkpt lat="45.94506" lon="6.86918">
        <ele>1569</ele>
        <time>2026-08-04T06:13:38.278Z</time>
      </trkpt>
      <trkpt lat="45.94507" lon="6.86918">
        <ele>1569</ele>
        <time>2026-08-04T06:13:39.278Z</time>
      </trkpt>
      <trkpt lat="45.94508" lon="6.86918">
        <ele>1569</ele>
        <time>2026-08-04T06:13:40.278Z</time>
      </trkpt>
      <trkpt lat="45.94509" lon="6.86918">
        <ele>1569</ele>
        <time>2026-08-04T06:13:41.278Z</time>
      </trkpt>
      <trkpt lat="45.9451" lon="6.86918">
        <ele>1570</ele>
        <time>2026-08-04T06:13:42.278Z</time>
      </trkpt>
      <trkpt lat="45.94512" lon="6.86918">
        <ele>1570</ele>
        <time>2026-08-04T06:13:43.278Z</time>
      </trkpt>
      <trkpt lat="45.94514" lon="6.86919">
        <ele>1571</ele>
        <time>2026-08-04T06:13:44.278Z</time>
      </trkpt>
      <trkpt lat="45.94515" lon="6.86919">
        <ele>1571</ele>
        <time>2026-08-04T06:13:45.278Z</time>
      </trkpt>
      <trkpt lat="45.94517" lon="6.86919">
        <ele>1572</ele>
        <time>2026-08-04T06:13:46.278Z</time>
      </trkpt>
      <trkpt lat="45.94519" lon="6.86918">
        <ele>1572</ele>
        <time>2026-08-04T06:13:47.278Z</time>
      </trkpt>
      <trkpt lat="45.94521" lon="6.86918">
        <ele>1572</ele>
        <time>2026-08-04T06:13:48.278Z</time>
      </trkpt>
      <trkpt lat="45.94523" lon="6.86919">
        <ele>1573</ele>
        <time>2026-08-04T06:13:49.278Z</time>
      </trkpt>
      <trkpt lat="45.94524" lon="6.86919">
        <ele>1573</ele>
        <time>2026-08-04T06:13:50.278Z</time>
      </trkpt>
      <trkpt lat="45.94526" lon="6.8692">
        <ele>1573</ele>
        <time>2026-08-04T06:13:51.278Z</time>
      </trkpt>
      <trkpt lat="45.94527" lon="6.8692">
        <ele>1574</ele>
        <time>2026-08-04T06:13:52.278Z</time>
      </trkpt>
      <trkpt lat="45.94528" lon="6.86922">
        <ele>1574</ele>
        <time>2026-08-04T06:13:53.278Z</time>
      </trkpt>
      <trkpt lat="45.9453" lon="6.86922">
        <ele>1575</ele>
        <time>2026-08-04T06:13:54.278Z</time>
      </trkpt>
      <trkpt lat="45.94531" lon="6.86922">
        <ele>1575</ele>
        <time>2026-08-04T06:13:55.278Z</time>
      </trkpt>
      <trkpt lat="45.94532" lon="6.86923">
        <ele>1575</ele>
        <time>2026-08-04T06:13:56.278Z</time>
      </trkpt>
      <trkpt lat="45.94533" lon="6.86924">
        <ele>1576</ele>
        <time>2026-08-04T06:13:57.278Z</time>
      </trkpt>
      <trkpt lat="45.94534" lon="6.86925">
        <ele>1576</ele>
        <time>2026-08-04T06:13:58.278Z</time>
      </trkpt>
      <trkpt lat="45.94535" lon="6.86926">
        <ele>1577</ele>
        <time>2026-08-04T06:13:59.278Z</time>
      </trkpt>
      <trkpt lat="45.94536" lon="6.86927">
        <ele>1577</ele>
        <time>2026-08-04T06:14:00.278Z</time>
      </trkpt>
      <trkpt lat="45.94536" lon="6.86927">
        <ele>1577</ele>
        <time>2026-08-04T06:14:01.278Z</time>
      </trkpt>
      <trkpt lat="45.94537" lon="6.86928">
        <ele>1577</ele>
        <time>2026-08-04T06:14:02.278Z</time>
      </trkpt>
      <trkpt lat="45.94537" lon="6.86928">
        <ele>1577</ele>
        <time>2026-08-04T06:14:03.278Z</time>
      </trkpt>
      <trkpt lat="45.94537" lon="6.86928">
        <ele>1577</ele>
        <time>2026-08-04T06:14:04.278Z</time>
      </trkpt>
      <trkpt lat="45.94537" lon="6.86928">
        <ele>1577</ele>
        <time>2026-08-04T06:14:05.278Z</time>
      </trkpt>
      <trkpt lat="45.94537" lon="6.86928">
        <ele>1577</ele>
        <time>2026-08-04T06:14:06.278Z</time>
      </trkpt>
      <trkpt lat="45.94538" lon="6.86929">
        <ele>1577</ele>
        <time>2026-08-04T06:14:07.278Z</time>
      </trkpt>
      <trkpt lat="45.94538" lon="6.86929">
        <ele>1577</ele>
        <time>2026-08-04T06:14:08.278Z</time>
      </trkpt>
      <trkpt lat="45.94538" lon="6.86929">
        <ele>1576</ele>
        <time>2026-08-04T06:14:09.278Z</time>
      </trkpt>
      <trkpt lat="45.94538" lon="6.86929">
        <ele>1576</ele>
        <time>2026-08-04T06:14:10.278Z</time>
      </trkpt>
      <trkpt lat="45.94539" lon="6.8693">
        <ele>1576</ele>
        <time>2026-08-04T06:14:11.278Z</time>
      </trkpt>
      <trkpt lat="45.94539" lon="6.8693">
        <ele>1576</ele>
        <time>2026-08-04T06:14:12.278Z</time>
      </trkpt>
      <trkpt lat="45.94539" lon="6.8693">
        <ele>1576</ele>
        <time>2026-08-04T06:14:13.278Z</time>
      </trkpt>
      <trkpt lat="45.94539" lon="6.8693">
        <ele>1576</ele>
        <time>2026-08-04T06:14:14.278Z</time>
      </trkpt>
      <trkpt lat="45.94538" lon="6.8693">
        <ele>1576</ele>
        <time>2026-08-04T06:14:15.278Z</time>
      </trkpt>
      <trkpt lat="45.94538" lon="6.8693">
        <ele>1575</ele>
        <time>2026-08-04T06:14:16.278Z</time>
      </trkpt>
      <trkpt lat="45.94538" lon="6.86929">
        <ele>1575</ele>
        <time>2026-08-04T06:14:17.278Z</time>
      </trkpt>
      <trkpt lat="45.94538" lon="6.86929">
        <ele>1575</ele>
        <time>2026-08-04T06:14:18.278Z</time>
      </trkpt>
      <trkpt lat="45.94538" lon="6.86929">
        <ele>1575</ele>
        <time>2026-08-04T06:14:19.278Z</time>
      </trkpt>
      <trkpt lat="45.94538" lon="6.8693">
        <ele>1575</ele>
        <time>2026-08-04T06:14:20.278Z</time>
      </trkpt>
      <trkpt lat="45.94538" lon="6.8693">
        <ele>1575</ele>
        <time>2026-08-04T06:14:21.278Z</time>
      </trkpt>
      <trkpt lat="45.94538" lon="6.8693">
        <ele>1575</ele>
        <time>2026-08-04T06:14:22.278Z</time>
      </trkpt>
      <trkpt lat="45.94538" lon="6.8693">
        <ele>1575</ele>
        <time>2026-08-04T06:14:23.278Z</time>
      </trkpt>
      <trkpt lat="45.94538" lon="6.8693">
        <ele>1576</ele>
        <time>2026-08-04T06:14:24.278Z</time>
      </trkpt>
      <trkpt lat="45.94538" lon="6.8693">
        <ele>1576</ele>
        <time>2026-08-04T06:14:25.278Z</time>
      </trkpt>
      <trkpt lat="45.94538" lon="6.8693">
        <ele>1576</ele>
        <time>2026-08-04T06:14:26.278Z</time>
      </trkpt>
      <trkpt lat="45.94538" lon="6.8693">
        <ele>1576</ele>
        <time>2026-08-04T06:14:27.278Z</time>
      </trkpt>
      <trkpt lat="45.94538" lon="6.8693">
        <ele>1577</ele>
        <time>2026-08-04T06:14:28.278Z</time>
      </trkpt>
      <trkpt lat="45.94538" lon="6.8693">
        <ele>1577</ele>
        <time>2026-08-04T06:14:29.278Z</time>
      </trkpt>
      <trkpt lat="45.94538" lon="6.8693">
        <ele>1577</ele>
        <time>2026-08-04T06:14:30.278Z</time>
      </trkpt>
      <trkpt lat="45.94538" lon="6.8693">
        <ele>1577</ele>
        <time>2026-08-04T06:14:31.278Z</time>
      </trkpt>
      <trkpt lat="45.94538" lon="6.8693">
        <ele>1577</ele>
        <time>2026-08-04T06:14:32.278Z</time>
      </trkpt>
      <trkpt lat="45.94538" lon="6.8693">
        <ele>1577</ele>
        <time>2026-08-04T06:14:33.278Z</time>
      </trkpt>
      <trkpt lat="45.94538" lon="6.8693">
        <ele>1577</ele>
        <time>2026-08-04T06:14:34.278Z</time>
      </trkpt>
      <trkpt lat="45.94538" lon="6.8693">
        <ele>1577</ele>
        <time>2026-08-04T06:14:35.278Z</time>
      </trkpt>
      <trkpt lat="45.94538" lon="6.8693">
        <ele>1578</ele>
        <time>2026-08-04T06:14:36.278Z</time>
      </trkpt>
      <trkpt lat="45.94538" lon="6.8693">
        <ele>1578</ele>
        <time>2026-08-04T06:14:37.278Z</time>
      </trkpt>
      <trkpt lat="45.94538" lon="6.8693">
        <ele>1578</ele>
        <time>2026-08-04T06:14:38.278Z</time>
      </trkpt>
      <trkpt lat="45.94538" lon="6.8693">
        <ele>1578</ele>
        <time>2026-08-04T06:14:39.278Z</time>
      </trkpt>
      <trkpt lat="45.94539" lon="6.86931">
        <ele>1578</ele>
        <time>2026-08-04T06:14:40.278Z</time>
      </trkpt>
      <trkpt lat="45.9454" lon="6.86931">
        <ele>1578</ele>
        <time>2026-08-04T06:14:41.278Z</time>
      </trkpt>
      <trkpt lat="45.94541" lon="6.86932">
        <ele>1578</ele>
        <time>2026-08-04T06:14:42.278Z</time>
      </trkpt>
      <trkpt lat="45.94542" lon="6.86933">
        <ele>1578</ele>
        <time>2026-08-04T06:14:43.278Z</time>
      </trkpt>
      <trkpt lat="45.94542" lon="6.86933">
        <ele>1578</ele>
        <time>2026-08-04T06:14:44.278Z</time>
      </trkpt>
      <trkpt lat="45.94543" lon="6.86933">
        <ele>1578</ele>
        <time>2026-08-04T06:14:45.278Z</time>
      </trkpt>
      <trkpt lat="45.94544" lon="6.86934">
        <ele>1578</ele>
        <time>2026-08-04T06:14:46.278Z</time>
      </trkpt>
      <trkpt lat="45.94544" lon="6.86934">
        <ele>1578</ele>
        <time>2026-08-04T06:14:47.278Z</time>
      </trkpt>
      <trkpt lat="45.94545" lon="6.86935">
        <ele>1578</ele>
        <time>2026-08-04T06:14:48.278Z</time>
      </trkpt>
      <trkpt lat="45.94546" lon="6.86936">
        <ele>1578</ele>
        <time>2026-08-04T06:14:49.278Z</time>
      </trkpt>
      <trkpt lat="45.94546" lon="6.86936">
        <ele>1578</ele>
        <time>2026-08-04T06:14:50.278Z</time>
      </trkpt>
      <trkpt lat="45.94546" lon="6.86937">
        <ele>1579</ele>
        <time>2026-08-04T06:14:51.278Z</time>
      </trkpt>
      <trkpt lat="45.94546" lon="6.86938">
        <ele>1579</ele>
        <time>2026-08-04T06:14:52.278Z</time>
      </trkpt>
      <trkpt lat="45.94546" lon="6.86939">
        <ele>1579</ele>
        <time>2026-08-04T06:14:53.278Z</time>
      </trkpt>
      <trkpt lat="45.94547" lon="6.8694">
        <ele>1579</ele>
        <time>2026-08-04T06:14:54.278Z</time>
      </trkpt>
      <trkpt lat="45.94547" lon="6.86941">
        <ele>1579</ele>
        <time>2026-08-04T06:14:55.278Z</time>
      </trkpt>
      <trkpt lat="45.94547" lon="6.86942">
        <ele>1579</ele>
        <time>2026-08-04T06:14:56.278Z</time>
      </trkpt>
      <trkpt lat="45.94546" lon="6.86944">
        <ele>1579</ele>
        <time>2026-08-04T06:14:57.278Z</time>
      </trkpt>
      <trkpt lat="45.94546" lon="6.86945">
        <ele>1579</ele>
        <time>2026-08-04T06:14:58.278Z</time>
      </trkpt>
      <trkpt lat="45.94546" lon="6.86946">
        <ele>1579</ele>
        <time>2026-08-04T06:14:59.278Z</time>
      </trkpt>
      <trkpt lat="45.94546" lon="6.86947">
        <ele>1579</ele>
        <time>2026-08-04T06:15:00.278Z</time>
      </trkpt>
      <trkpt lat="45.94545" lon="6.86948">
        <ele>1579</ele>
        <time>2026-08-04T06:15:01.278Z</time>
      </trkpt>
      <trkpt lat="45.94545" lon="6.86948">
        <ele>1580</ele>
        <time>2026-08-04T06:15:02.278Z</time>
      </trkpt>
      <trkpt lat="45.94545" lon="6.86949">
        <ele>1580</ele>
        <time>2026-08-04T06:15:03.278Z</time>
      </trkpt>
      <trkpt lat="45.94545" lon="6.86949">
        <ele>1581</ele>
        <time>2026-08-04T06:15:04.278Z</time>
      </trkpt>
      <trkpt lat="45.94546" lon="6.86949">
        <ele>1581</ele>
        <time>2026-08-04T06:15:05.278Z</time>
      </trkpt>
      <trkpt lat="45.94546" lon="6.86949">
        <ele>1581</ele>
        <time>2026-08-04T06:15:06.278Z</time>
      </trkpt>
      <trkpt lat="45.94547" lon="6.8695">
        <ele>1581</ele>
        <time>2026-08-04T06:15:07.278Z</time>
      </trkpt>
      <trkpt lat="45.94548" lon="6.86951">
        <ele>1581</ele>
        <time>2026-08-04T06:15:08.278Z</time>
      </trkpt>
      <trkpt lat="45.94549" lon="6.86952">
        <ele>1582</ele>
        <time>2026-08-04T06:15:09.278Z</time>
      </trkpt>
      <trkpt lat="45.9455" lon="6.86952">
        <ele>1582</ele>
        <time>2026-08-04T06:15:10.278Z</time>
      </trkpt>
      <trkpt lat="45.94551" lon="6.86953">
        <ele>1581</ele>
        <time>2026-08-04T06:15:11.278Z</time>
      </trkpt>
      <trkpt lat="45.94551" lon="6.86955">
        <ele>1581</ele>
        <time>2026-08-04T06:15:12.278Z</time>
      </trkpt>
      <trkpt lat="45.94552" lon="6.86957">
        <ele>1581</ele>
        <time>2026-08-04T06:15:13.278Z</time>
      </trkpt>
      <trkpt lat="45.94553" lon="6.86959">
        <ele>1581</ele>
        <time>2026-08-04T06:15:14.278Z</time>
      </trkpt>
      <trkpt lat="45.94554" lon="6.86961">
        <ele>1581</ele>
        <time>2026-08-04T06:15:15.278Z</time>
      </trkpt>
      <trkpt lat="45.94556" lon="6.86964">
        <ele>1581</ele>
        <time>2026-08-04T06:15:16.278Z</time>
      </trkpt>
      <trkpt lat="45.94557" lon="6.86966">
        <ele>1580</ele>
        <time>2026-08-04T06:15:17.278Z</time>
      </trkpt>
      <trkpt lat="45.94557" lon="6.86968">
        <ele>1580</ele>
        <time>2026-08-04T06:15:18.278Z</time>
      </trkpt>
      <trkpt lat="45.94557" lon="6.8697">
        <ele>1580</ele>
        <time>2026-08-04T06:15:19.278Z</time>
      </trkpt>
      <trkpt lat="45.94558" lon="6.86971">
        <ele>1580</ele>
        <time>2026-08-04T06:15:20.278Z</time>
      </trkpt>
      <trkpt lat="45.94558" lon="6.86973">
        <ele>1580</ele>
        <time>2026-08-04T06:15:21.278Z</time>
      </trkpt>
      <trkpt lat="45.94559" lon="6.86974">
        <ele>1579</ele>
        <time>2026-08-04T06:15:22.278Z</time>
      </trkpt>
      <trkpt lat="45.94559" lon="6.86975">
        <ele>1579</ele>
        <time>2026-08-04T06:15:23.278Z</time>
      </trkpt>
      <trkpt lat="45.9456" lon="6.86975">
        <ele>1579</ele>
        <time>2026-08-04T06:15:24.278Z</time>
      </trkpt>
      <trkpt lat="45.94561" lon="6.86976">
        <ele>1579</ele>
        <time>2026-08-04T06:15:25.278Z</time>
      </trkpt>
      <trkpt lat="45.94561" lon="6.86977">
        <ele>1579</ele>
        <time>2026-08-04T06:15:26.278Z</time>
      </trkpt>
      <trkpt lat="45.94562" lon="6.86977">
        <ele>1579</ele>
        <time>2026-08-04T06:15:27.278Z</time>
      </trkpt>
      <trkpt lat="45.94562" lon="6.86979">
        <ele>1579</ele>
        <time>2026-08-04T06:15:28.278Z</time>
      </trkpt>
      <trkpt lat="45.94563" lon="6.8698">
        <ele>1579</ele>
        <time>2026-08-04T06:15:29.278Z</time>
      </trkpt>
      <trkpt lat="45.94563" lon="6.8698">
        <ele>1579</ele>
        <time>2026-08-04T06:15:30.278Z</time>
      </trkpt>
      <trkpt lat="45.94564" lon="6.86981">
        <ele>1579</ele>
        <time>2026-08-04T06:15:31.278Z</time>
      </trkpt>
      <trkpt lat="45.94564" lon="6.86982">
        <ele>1580</ele>
        <time>2026-08-04T06:15:32.278Z</time>
      </trkpt>
      <trkpt lat="45.94565" lon="6.86983">
        <ele>1580</ele>
        <time>2026-08-04T06:15:33.278Z</time>
      </trkpt>
      <trkpt lat="45.94565" lon="6.86985">
        <ele>1581</ele>
        <time>2026-08-04T06:15:34.278Z</time>
      </trkpt>
      <trkpt lat="45.94566" lon="6.86986">
        <ele>1581</ele>
        <time>2026-08-04T06:15:35.278Z</time>
      </trkpt>
      <trkpt lat="45.94567" lon="6.86987">
        <ele>1582</ele>
        <time>2026-08-04T06:15:36.278Z</time>
      </trkpt>
      <trkpt lat="45.94567" lon="6.86987">
        <ele>1583</ele>
        <time>2026-08-04T06:15:37.278Z</time>
      </trkpt>
      <trkpt lat="45.94567" lon="6.86989">
        <ele>1583</ele>
        <time>2026-08-04T06:15:38.278Z</time>
      </trkpt>
      <trkpt lat="45.94568" lon="6.86991">
        <ele>1584</ele>
        <time>2026-08-04T06:15:39.278Z</time>
      </trkpt>
      <trkpt lat="45.94568" lon="6.86993">
        <ele>1584</ele>
        <time>2026-08-04T06:15:40.278Z</time>
      </trkpt>
      <trkpt lat="45.94568" lon="6.86995">
        <ele>1584</ele>
        <time>2026-08-04T06:15:41.278Z</time>
      </trkpt>
      <trkpt lat="45.94568" lon="6.86996">
        <ele>1585</ele>
        <time>2026-08-04T06:15:42.278Z</time>
      </trkpt>
      <trkpt lat="45.94569" lon="6.86998">
        <ele>1585</ele>
        <time>2026-08-04T06:15:43.278Z</time>
      </trkpt>
      <trkpt lat="45.94568" lon="6.87">
        <ele>1585</ele>
        <time>2026-08-04T06:15:44.278Z</time>
      </trkpt>
      <trkpt lat="45.94568" lon="6.87001">
        <ele>1585</ele>
        <time>2026-08-04T06:15:45.278Z</time>
      </trkpt>
      <trkpt lat="45.94568" lon="6.87003">
        <ele>1585</ele>
        <time>2026-08-04T06:15:46.278Z</time>
      </trkpt>
      <trkpt lat="45.94569" lon="6.87005">
        <ele>1585</ele>
        <time>2026-08-04T06:15:47.278Z</time>
      </trkpt>
      <trkpt lat="45.94569" lon="6.87008">
        <ele>1585</ele>
        <time>2026-08-04T06:15:48.278Z</time>
      </trkpt>
      <trkpt lat="45.94569" lon="6.87009">
        <ele>1585</ele>
        <time>2026-08-04T06:15:49.278Z</time>
      </trkpt>
      <trkpt lat="45.94568" lon="6.87011">
        <ele>1585</ele>
        <time>2026-08-04T06:15:50.278Z</time>
      </trkpt>
      <trkpt lat="45.94568" lon="6.87013">
        <ele>1585</ele>
        <time>2026-08-04T06:15:51.278Z</time>
      </trkpt>
      <trkpt lat="45.94568" lon="6.87015">
        <ele>1586</ele>
        <time>2026-08-04T06:15:52.278Z</time>
      </trkpt>
      <trkpt lat="45.94568" lon="6.87017">
        <ele>1586</ele>
        <time>2026-08-04T06:15:53.278Z</time>
      </trkpt>
      <trkpt lat="45.94568" lon="6.87018">
        <ele>1586</ele>
        <time>2026-08-04T06:15:54.278Z</time>
      </trkpt>
      <trkpt lat="45.94568" lon="6.87019">
        <ele>1586</ele>
        <time>2026-08-04T06:15:55.278Z</time>
      </trkpt>
      <trkpt lat="45.94569" lon="6.8702">
        <ele>1586</ele>
        <time>2026-08-04T06:15:56.278Z</time>
      </trkpt>
      <trkpt lat="45.9457" lon="6.87022">
        <ele>1586</ele>
        <time>2026-08-04T06:15:57.278Z</time>
      </trkpt>
      <trkpt lat="45.9457" lon="6.87023">
        <ele>1587</ele>
        <time>2026-08-04T06:15:58.278Z</time>
      </trkpt>
      <trkpt lat="45.9457" lon="6.87025">
        <ele>1587</ele>
        <time>2026-08-04T06:15:59.278Z</time>
      </trkpt>
      <trkpt lat="45.94571" lon="6.87026">
        <ele>1587</ele>
        <time>2026-08-04T06:16:00.278Z</time>
      </trkpt>
      <trkpt lat="45.94572" lon="6.87028">
        <ele>1588</ele>
        <time>2026-08-04T06:16:01.278Z</time>
      </trkpt>
      <trkpt lat="45.94573" lon="6.87029">
        <ele>1588</ele>
        <time>2026-08-04T06:16:02.278Z</time>
      </trkpt>
      <trkpt lat="45.94573" lon="6.8703">
        <ele>1588</ele>
        <time>2026-08-04T06:16:03.278Z</time>
      </trkpt>
      <trkpt lat="45.94574" lon="6.8703">
        <ele>1589</ele>
        <time>2026-08-04T06:16:04.278Z</time>
      </trkpt>
      <trkpt lat="45.94575" lon="6.87031">
        <ele>1589</ele>
        <time>2026-08-04T06:16:05.278Z</time>
      </trkpt>
      <trkpt lat="45.94575" lon="6.87033">
        <ele>1589</ele>
        <time>2026-08-04T06:16:06.278Z</time>
      </trkpt>
      <trkpt lat="45.94576" lon="6.87035">
        <ele>1589</ele>
        <time>2026-08-04T06:16:07.278Z</time>
      </trkpt>
      <trkpt lat="45.94578" lon="6.87037">
        <ele>1590</ele>
        <time>2026-08-04T06:16:08.278Z</time>
      </trkpt>
      <trkpt lat="45.94579" lon="6.87038">
        <ele>1590</ele>
        <time>2026-08-04T06:16:09.278Z</time>
      </trkpt>
      <trkpt lat="45.94579" lon="6.8704">
        <ele>1591</ele>
        <time>2026-08-04T06:16:10.278Z</time>
      </trkpt>
      <trkpt lat="45.9458" lon="6.87042">
        <ele>1591</ele>
        <time>2026-08-04T06:16:11.278Z</time>
      </trkpt>
      <trkpt lat="45.94579" lon="6.87043">
        <ele>1591</ele>
        <time>2026-08-04T06:16:12.278Z</time>
      </trkpt>
      <trkpt lat="45.9458" lon="6.87045">
        <ele>1591</ele>
        <time>2026-08-04T06:16:13.278Z</time>
      </trkpt>
      <trkpt lat="45.94581" lon="6.87045">
        <ele>1591</ele>
        <time>2026-08-04T06:16:14.278Z</time>
      </trkpt>
      <trkpt lat="45.94582" lon="6.87046">
        <ele>1592</ele>
        <time>2026-08-04T06:16:15.278Z</time>
      </trkpt>
      <trkpt lat="45.94583" lon="6.87047">
        <ele>1592</ele>
        <time>2026-08-04T06:16:16.278Z</time>
      </trkpt>
      <trkpt lat="45.94583" lon="6.87049">
        <ele>1592</ele>
        <time>2026-08-04T06:16:17.278Z</time>
      </trkpt>
      <trkpt lat="45.94584" lon="6.87051">
        <ele>1592</ele>
        <time>2026-08-04T06:16:18.278Z</time>
      </trkpt>
      <trkpt lat="45.94584" lon="6.87051">
        <ele>1593</ele>
        <time>2026-08-04T06:16:19.278Z</time>
      </trkpt>
      <trkpt lat="45.94585" lon="6.87052">
        <ele>1593</ele>
        <time>2026-08-04T06:16:20.278Z</time>
      </trkpt>
      <trkpt lat="45.94586" lon="6.87052">
        <ele>1594</ele>
        <time>2026-08-04T06:16:21.278Z</time>
      </trkpt>
      <trkpt lat="45.94588" lon="6.87052">
        <ele>1594</ele>
        <time>2026-08-04T06:16:22.278Z</time>
      </trkpt>
      <trkpt lat="45.9459" lon="6.87053">
        <ele>1595</ele>
        <time>2026-08-04T06:16:23.278Z</time>
      </trkpt>
      <trkpt lat="45.94591" lon="6.87054">
        <ele>1595</ele>
        <time>2026-08-04T06:16:24.278Z</time>
      </trkpt>
      <trkpt lat="45.94592" lon="6.87056">
        <ele>1596</ele>
        <time>2026-08-04T06:16:25.278Z</time>
      </trkpt>
      <trkpt lat="45.94593" lon="6.87057">
        <ele>1596</ele>
        <time>2026-08-04T06:16:26.278Z</time>
      </trkpt>
      <trkpt lat="45.94594" lon="6.87058">
        <ele>1597</ele>
        <time>2026-08-04T06:16:27.278Z</time>
      </trkpt>
      <trkpt lat="45.94595" lon="6.87058">
        <ele>1598</ele>
        <time>2026-08-04T06:16:28.278Z</time>
      </trkpt>
      <trkpt lat="45.94596" lon="6.87059">
        <ele>1598</ele>
        <time>2026-08-04T06:16:29.278Z</time>
      </trkpt>
      <trkpt lat="45.94596" lon="6.8706">
        <ele>1599</ele>
        <time>2026-08-04T06:16:30.278Z</time>
      </trkpt>
      <trkpt lat="45.94597" lon="6.8706">
        <ele>1599</ele>
        <time>2026-08-04T06:16:31.278Z</time>
      </trkpt>
      <trkpt lat="45.94598" lon="6.87061">
        <ele>1600</ele>
        <time>2026-08-04T06:16:32.278Z</time>
      </trkpt>
      <trkpt lat="45.946" lon="6.87061">
        <ele>1600</ele>
        <time>2026-08-04T06:16:33.279Z</time>
      </trkpt>
      <trkpt lat="45.94601" lon="6.87061">
        <ele>1600</ele>
        <time>2026-08-04T06:16:34.278Z</time>
      </trkpt>
      <trkpt lat="45.94602" lon="6.87061">
        <ele>1600</ele>
        <time>2026-08-04T06:16:35.278Z</time>
      </trkpt>
      <trkpt lat="45.94602" lon="6.87062">
        <ele>1601</ele>
        <time>2026-08-04T06:16:36.278Z</time>
      </trkpt>
      <trkpt lat="45.94603" lon="6.87062">
        <ele>1601</ele>
        <time>2026-08-04T06:16:37.278Z</time>
      </trkpt>
      <trkpt lat="45.94604" lon="6.87062">
        <ele>1601</ele>
        <time>2026-08-04T06:16:38.278Z</time>
      </trkpt>
      <trkpt lat="45.94605" lon="6.87062">
        <ele>1602</ele>
        <time>2026-08-04T06:16:39.278Z</time>
      </trkpt>
      <trkpt lat="45.94607" lon="6.87062">
        <ele>1602</ele>
        <time>2026-08-04T06:16:40.278Z</time>
      </trkpt>
      <trkpt lat="45.94608" lon="6.87063">
        <ele>1603</ele>
        <time>2026-08-04T06:16:41.278Z</time>
      </trkpt>
      <trkpt lat="45.94609" lon="6.87063">
        <ele>1604</ele>
        <time>2026-08-04T06:16:42.278Z</time>
      </trkpt>
      <trkpt lat="45.9461" lon="6.87064">
        <ele>1605</ele>
        <time>2026-08-04T06:16:43.278Z</time>
      </trkpt>
      <trkpt lat="45.94611" lon="6.87065">
        <ele>1606</ele>
        <time>2026-08-04T06:16:44.278Z</time>
      </trkpt>
      <trkpt lat="45.94612" lon="6.87066">
        <ele>1606</ele>
        <time>2026-08-04T06:16:45.278Z</time>
      </trkpt>
      <trkpt lat="45.94613" lon="6.87067">
        <ele>1607</ele>
        <time>2026-08-04T06:16:46.278Z</time>
      </trkpt>
      <trkpt lat="45.94613" lon="6.87068">
        <ele>1608</ele>
        <time>2026-08-04T06:16:47.278Z</time>
      </trkpt>
      <trkpt lat="45.94614" lon="6.8707">
        <ele>1608</ele>
        <time>2026-08-04T06:16:48.278Z</time>
      </trkpt>
      <trkpt lat="45.94615" lon="6.87071">
        <ele>1609</ele>
        <time>2026-08-04T06:16:49.278Z</time>
      </trkpt>
      <trkpt lat="45.94616" lon="6.87072">
        <ele>1609</ele>
        <time>2026-08-04T06:16:50.278Z</time>
      </trkpt>
      <trkpt lat="45.94616" lon="6.87074">
        <ele>1610</ele>
        <time>2026-08-04T06:16:51.278Z</time>
      </trkpt>
      <trkpt lat="45.94617" lon="6.87075">
        <ele>1610</ele>
        <time>2026-08-04T06:16:52.278Z</time>
      </trkpt>
      <trkpt lat="45.94617" lon="6.87077">
        <ele>1610</ele>
        <time>2026-08-04T06:16:53.278Z</time>
      </trkpt>
      <trkpt lat="45.94617" lon="6.87079">
        <ele>1611</ele>
        <time>2026-08-04T06:16:54.278Z</time>
      </trkpt>
      <trkpt lat="45.94617" lon="6.8708">
        <ele>1611</ele>
        <time>2026-08-04T06:16:55.278Z</time>
      </trkpt>
      <trkpt lat="45.94618" lon="6.87082">
        <ele>1612</ele>
        <time>2026-08-04T06:16:56.278Z</time>
      </trkpt>
      <trkpt lat="45.94618" lon="6.87083">
        <ele>1612</ele>
        <time>2026-08-04T06:16:57.279Z</time>
      </trkpt>
      <trkpt lat="45.94619" lon="6.87084">
        <ele>1612</ele>
        <time>2026-08-04T06:16:58.278Z</time>
      </trkpt>
      <trkpt lat="45.9462" lon="6.87085">
        <ele>1612</ele>
        <time>2026-08-04T06:16:59.278Z</time>
      </trkpt>
      <trkpt lat="45.9462" lon="6.87085">
        <ele>1612</ele>
        <time>2026-08-04T06:17:00.278Z</time>
      </trkpt>
      <trkpt lat="45.9462" lon="6.87086">
        <ele>1612</ele>
        <time>2026-08-04T06:17:01.278Z</time>
      </trkpt>
      <trkpt lat="45.9462" lon="6.87088">
        <ele>1613</ele>
        <time>2026-08-04T06:17:02.278Z</time>
      </trkpt>
      <trkpt lat="45.9462" lon="6.87089">
        <ele>1613</ele>
        <time>2026-08-04T06:17:03.278Z</time>
      </trkpt>
      <trkpt lat="45.9462" lon="6.8709">
        <ele>1613</ele>
        <time>2026-08-04T06:17:04.278Z</time>
      </trkpt>
      <trkpt lat="45.94621" lon="6.87092">
        <ele>1614</ele>
        <time>2026-08-04T06:17:05.278Z</time>
      </trkpt>
      <trkpt lat="45.94622" lon="6.87092">
        <ele>1614</ele>
        <time>2026-08-04T06:17:06.278Z</time>
      </trkpt>
      <trkpt lat="45.94623" lon="6.87093">
        <ele>1615</ele>
        <time>2026-08-04T06:17:07.278Z</time>
      </trkpt>
      <trkpt lat="45.94624" lon="6.87094">
        <ele>1615</ele>
        <time>2026-08-04T06:17:08.278Z</time>
      </trkpt>
      <trkpt lat="45.94625" lon="6.87096">
        <ele>1615</ele>
        <time>2026-08-04T06:17:09.278Z</time>
      </trkpt>
      <trkpt lat="45.94626" lon="6.87098">
        <ele>1615</ele>
        <time>2026-08-04T06:17:10.278Z</time>
      </trkpt>
      <trkpt lat="45.94627" lon="6.871">
        <ele>1615</ele>
        <time>2026-08-04T06:17:11.278Z</time>
      </trkpt>
      <trkpt lat="45.94629" lon="6.87102">
        <ele>1615</ele>
        <time>2026-08-04T06:17:12.278Z</time>
      </trkpt>
      <trkpt lat="45.9463" lon="6.87103">
        <ele>1615</ele>
        <time>2026-08-04T06:17:13.278Z</time>
      </trkpt>
      <trkpt lat="45.9463" lon="6.87104">
        <ele>1615</ele>
        <time>2026-08-04T06:17:14.278Z</time>
      </trkpt>
      <trkpt lat="45.94631" lon="6.87104">
        <ele>1615</ele>
        <time>2026-08-04T06:17:15.278Z</time>
      </trkpt>
      <trkpt lat="45.94631" lon="6.87105">
        <ele>1615</ele>
        <time>2026-08-04T06:17:16.278Z</time>
      </trkpt>
      <trkpt lat="45.94632" lon="6.87105">
        <ele>1615</ele>
        <time>2026-08-04T06:17:17.278Z</time>
      </trkpt>
      <trkpt lat="45.94632" lon="6.87105">
        <ele>1616</ele>
        <time>2026-08-04T06:17:18.278Z</time>
      </trkpt>
      <trkpt lat="45.94633" lon="6.87105">
        <ele>1616</ele>
        <time>2026-08-04T06:17:19.278Z</time>
      </trkpt>
      <trkpt lat="45.94634" lon="6.87107">
        <ele>1616</ele>
        <time>2026-08-04T06:17:20.278Z</time>
      </trkpt>
      <trkpt lat="45.94635" lon="6.87107">
        <ele>1617</ele>
        <time>2026-08-04T06:17:21.278Z</time>
      </trkpt>
      <trkpt lat="45.94635" lon="6.87108">
        <ele>1617</ele>
        <time>2026-08-04T06:17:22.278Z</time>
      </trkpt>
      <trkpt lat="45.94635" lon="6.87109">
        <ele>1617</ele>
        <time>2026-08-04T06:17:23.278Z</time>
      </trkpt>
      <trkpt lat="45.94636" lon="6.87111">
        <ele>1617</ele>
        <time>2026-08-04T06:17:24.278Z</time>
      </trkpt>
      <trkpt lat="45.94637" lon="6.87112">
        <ele>1618</ele>
        <time>2026-08-04T06:17:25.278Z</time>
      </trkpt>
      <trkpt lat="45.94637" lon="6.87112">
        <ele>1618</ele>
        <time>2026-08-04T06:17:26.278Z</time>
      </trkpt>
      <trkpt lat="45.94636" lon="6.87112">
        <ele>1618</ele>
        <time>2026-08-04T06:17:27.278Z</time>
      </trkpt>
      <trkpt lat="45.94635" lon="6.87112">
        <ele>1618</ele>
        <time>2026-08-04T06:17:28.278Z</time>
      </trkpt>
      <trkpt lat="45.94634" lon="6.87112">
        <ele>1619</ele>
        <time>2026-08-04T06:17:29.278Z</time>
      </trkpt>
      <trkpt lat="45.94633" lon="6.87113">
        <ele>1619</ele>
        <time>2026-08-04T06:17:30.278Z</time>
      </trkpt>
      <trkpt lat="45.94632" lon="6.87114">
        <ele>1619</ele>
        <time>2026-08-04T06:17:31.278Z</time>
      </trkpt>
      <trkpt lat="45.94632" lon="6.87115">
        <ele>1620</ele>
        <time>2026-08-04T06:17:32.278Z</time>
      </trkpt>
      <trkpt lat="45.94632" lon="6.87117">
        <ele>1620</ele>
        <time>2026-08-04T06:17:33.278Z</time>
      </trkpt>
      <trkpt lat="45.94632" lon="6.87118">
        <ele>1620</ele>
        <time>2026-08-04T06:17:34.278Z</time>
      </trkpt>
      <trkpt lat="45.94631" lon="6.87119">
        <ele>1620</ele>
        <time>2026-08-04T06:17:35.278Z</time>
      </trkpt>
      <trkpt lat="45.9463" lon="6.8712">
        <ele>1620</ele>
        <time>2026-08-04T06:17:36.278Z</time>
      </trkpt>
      <trkpt lat="45.9463" lon="6.87121">
        <ele>1620</ele>
        <time>2026-08-04T06:17:37.278Z</time>
      </trkpt>
      <trkpt lat="45.9463" lon="6.87122">
        <ele>1620</ele>
        <time>2026-08-04T06:17:38.278Z</time>
      </trkpt>
      <trkpt lat="45.94629" lon="6.87124">
        <ele>1620</ele>
        <time>2026-08-04T06:17:39.278Z</time>
      </trkpt>
      <trkpt lat="45.94629" lon="6.87125">
        <ele>1620</ele>
        <time>2026-08-04T06:17:40.278Z</time>
      </trkpt>
      <trkpt lat="45.94629" lon="6.87126">
        <ele>1619</ele>
        <time>2026-08-04T06:17:41.278Z</time>
      </trkpt>
      <trkpt lat="45.94628" lon="6.87127">
        <ele>1619</ele>
        <time>2026-08-04T06:17:42.278Z</time>
      </trkpt>
      <trkpt lat="45.94628" lon="6.87128">
        <ele>1619</ele>
        <time>2026-08-04T06:17:43.278Z</time>
      </trkpt>
      <trkpt lat="45.94627" lon="6.8713">
        <ele>1619</ele>
        <time>2026-08-04T06:17:44.278Z</time>
      </trkpt>
      <trkpt lat="45.94627" lon="6.87132">
        <ele>1619</ele>
        <time>2026-08-04T06:17:45.278Z</time>
      </trkpt>
      <trkpt lat="45.94628" lon="6.87134">
        <ele>1619</ele>
        <time>2026-08-04T06:17:46.278Z</time>
      </trkpt>
      <trkpt lat="45.94628" lon="6.87136">
        <ele>1619</ele>
        <time>2026-08-04T06:17:47.278Z</time>
      </trkpt>
      <trkpt lat="45.94628" lon="6.87138">
        <ele>1618</ele>
        <time>2026-08-04T06:17:48.278Z</time>
      </trkpt>
      <trkpt lat="45.94628" lon="6.8714">
        <ele>1618</ele>
        <time>2026-08-04T06:17:49.278Z</time>
      </trkpt>
      <trkpt lat="45.94627" lon="6.87142">
        <ele>1618</ele>
        <time>2026-08-04T06:17:50.278Z</time>
      </trkpt>
      <trkpt lat="45.94627" lon="6.87144">
        <ele>1617</ele>
        <time>2026-08-04T06:17:51.278Z</time>
      </trkpt>
      <trkpt lat="45.94627" lon="6.87146">
        <ele>1617</ele>
        <time>2026-08-04T06:17:52.278Z</time>
      </trkpt>
      <trkpt lat="45.94627" lon="6.87147">
        <ele>1617</ele>
        <time>2026-08-04T06:17:53.278Z</time>
      </trkpt>
      <trkpt lat="45.94627" lon="6.87149">
        <ele>1616</ele>
        <time>2026-08-04T06:17:54.278Z</time>
      </trkpt>
      <trkpt lat="45.94627" lon="6.87151">
        <ele>1616</ele>
        <time>2026-08-04T06:17:55.278Z</time>
      </trkpt>
      <trkpt lat="45.94628" lon="6.87153">
        <ele>1615</ele>
        <time>2026-08-04T06:17:56.278Z</time>
      </trkpt>
      <trkpt lat="45.94629" lon="6.87154">
        <ele>1615</ele>
        <time>2026-08-04T06:17:57.278Z</time>
      </trkpt>
      <trkpt lat="45.94629" lon="6.87156">
        <ele>1614</ele>
        <time>2026-08-04T06:17:58.278Z</time>
      </trkpt>
      <trkpt lat="45.94629" lon="6.87158">
        <ele>1614</ele>
        <time>2026-08-04T06:17:59.278Z</time>
      </trkpt>
      <trkpt lat="45.94629" lon="6.87159">
        <ele>1614</ele>
        <time>2026-08-04T06:18:00.278Z</time>
      </trkpt>
      <trkpt lat="45.94629" lon="6.87161">
        <ele>1614</ele>
        <time>2026-08-04T06:18:01.278Z</time>
      </trkpt>
      <trkpt lat="45.94628" lon="6.87163">
        <ele>1614</ele>
        <time>2026-08-04T06:18:02.278Z</time>
      </trkpt>
      <trkpt lat="45.94629" lon="6.87165">
        <ele>1614</ele>
        <time>2026-08-04T06:18:03.278Z</time>
      </trkpt>
      <trkpt lat="45.94629" lon="6.87167">
        <ele>1613</ele>
        <time>2026-08-04T06:18:04.278Z</time>
      </trkpt>
      <trkpt lat="45.94629" lon="6.87169">
        <ele>1613</ele>
        <time>2026-08-04T06:18:05.278Z</time>
      </trkpt>
      <trkpt lat="45.94629" lon="6.87171">
        <ele>1613</ele>
        <time>2026-08-04T06:18:06.278Z</time>
      </trkpt>
      <trkpt lat="45.94629" lon="6.87173">
        <ele>1613</ele>
        <time>2026-08-04T06:18:07.278Z</time>
      </trkpt>
      <trkpt lat="45.94629" lon="6.87174">
        <ele>1612</ele>
        <time>2026-08-04T06:18:08.278Z</time>
      </trkpt>
      <trkpt lat="45.94629" lon="6.87176">
        <ele>1612</ele>
        <time>2026-08-04T06:18:09.278Z</time>
      </trkpt>
      <trkpt lat="45.94629" lon="6.87179">
        <ele>1613</ele>
        <time>2026-08-04T06:18:10.278Z</time>
      </trkpt>
      <trkpt lat="45.94629" lon="6.8718">
        <ele>1613</ele>
        <time>2026-08-04T06:18:11.278Z</time>
      </trkpt>
      <trkpt lat="45.94628" lon="6.87182">
        <ele>1613</ele>
        <time>2026-08-04T06:18:12.278Z</time>
      </trkpt>
      <trkpt lat="45.94628" lon="6.87183">
        <ele>1613</ele>
        <time>2026-08-04T06:18:13.278Z</time>
      </trkpt>
      <trkpt lat="45.94629" lon="6.87184">
        <ele>1613</ele>
        <time>2026-08-04T06:18:14.278Z</time>
      </trkpt>
      <trkpt lat="45.9463" lon="6.87186">
        <ele>1614</ele>
        <time>2026-08-04T06:18:15.278Z</time>
      </trkpt>
      <trkpt lat="45.9463" lon="6.87188">
        <ele>1614</ele>
        <time>2026-08-04T06:18:16.278Z</time>
      </trkpt>
      <trkpt lat="45.94632" lon="6.8719">
        <ele>1614</ele>
        <time>2026-08-04T06:18:17.278Z</time>
      </trkpt>
      <trkpt lat="45.94633" lon="6.87192">
        <ele>1614</ele>
        <time>2026-08-04T06:18:18.278Z</time>
      </trkpt>
      <trkpt lat="45.94633" lon="6.87194">
        <ele>1614</ele>
        <time>2026-08-04T06:18:19.278Z</time>
      </trkpt>
      <trkpt lat="45.94634" lon="6.87194">
        <ele>1614</ele>
        <time>2026-08-04T06:18:20.278Z</time>
      </trkpt>
      <trkpt lat="45.94634" lon="6.87195">
        <ele>1615</ele>
        <time>2026-08-04T06:18:21.278Z</time>
      </trkpt>
      <trkpt lat="45.94634" lon="6.87195">
        <ele>1615</ele>
        <time>2026-08-04T06:18:22.278Z</time>
      </trkpt>
      <trkpt lat="45.94635" lon="6.87195">
        <ele>1615</ele>
        <time>2026-08-04T06:18:23.278Z</time>
      </trkpt>
      <trkpt lat="45.94636" lon="6.87196">
        <ele>1615</ele>
        <time>2026-08-04T06:18:24.278Z</time>
      </trkpt>
      <trkpt lat="45.94637" lon="6.87197">
        <ele>1615</ele>
        <time>2026-08-04T06:18:25.278Z</time>
      </trkpt>
      <trkpt lat="45.94637" lon="6.87199">
        <ele>1615</ele>
        <time>2026-08-04T06:18:26.278Z</time>
      </trkpt>
      <trkpt lat="45.94638" lon="6.872">
        <ele>1615</ele>
        <time>2026-08-04T06:18:27.278Z</time>
      </trkpt>
      <trkpt lat="45.94638" lon="6.87201">
        <ele>1615</ele>
        <time>2026-08-04T06:18:28.278Z</time>
      </trkpt>
      <trkpt lat="45.94639" lon="6.87202">
        <ele>1615</ele>
        <time>2026-08-04T06:18:29.278Z</time>
      </trkpt>
      <trkpt lat="45.94641" lon="6.87203">
        <ele>1616</ele>
        <time>2026-08-04T06:18:30.278Z</time>
      </trkpt>
      <trkpt lat="45.94642" lon="6.87204">
        <ele>1616</ele>
        <time>2026-08-04T06:18:31.278Z</time>
      </trkpt>
      <trkpt lat="45.94643" lon="6.87206">
        <ele>1616</ele>
        <time>2026-08-04T06:18:32.278Z</time>
      </trkpt>
      <trkpt lat="45.94644" lon="6.87207">
        <ele>1616</ele>
        <time>2026-08-04T06:18:33.278Z</time>
      </trkpt>
      <trkpt lat="45.94645" lon="6.87208">
        <ele>1617</ele>
        <time>2026-08-04T06:18:34.278Z</time>
      </trkpt>
      <trkpt lat="45.94645" lon="6.87208">
        <ele>1617</ele>
        <time>2026-08-04T06:18:35.278Z</time>
      </trkpt>
      <trkpt lat="45.94646" lon="6.87209">
        <ele>1618</ele>
        <time>2026-08-04T06:18:36.278Z</time>
      </trkpt>
      <trkpt lat="45.94646" lon="6.87211">
        <ele>1618</ele>
        <time>2026-08-04T06:18:37.278Z</time>
      </trkpt>
      <trkpt lat="45.94646" lon="6.87211">
        <ele>1619</ele>
        <time>2026-08-04T06:18:38.278Z</time>
      </trkpt>
      <trkpt lat="45.94647" lon="6.87212">
        <ele>1619</ele>
        <time>2026-08-04T06:18:39.278Z</time>
      </trkpt>
      <trkpt lat="45.94647" lon="6.87213">
        <ele>1620</ele>
        <time>2026-08-04T06:18:40.278Z</time>
      </trkpt>
      <trkpt lat="45.94648" lon="6.87214">
        <ele>1620</ele>
        <time>2026-08-04T06:18:41.278Z</time>
      </trkpt>
      <trkpt lat="45.94649" lon="6.87215">
        <ele>1620</ele>
        <time>2026-08-04T06:18:42.278Z</time>
      </trkpt>
      <trkpt lat="45.9465" lon="6.87216">
        <ele>1621</ele>
        <time>2026-08-04T06:18:43.278Z</time>
      </trkpt>
      <trkpt lat="45.94651" lon="6.87218">
        <ele>1621</ele>
        <time>2026-08-04T06:18:44.278Z</time>
      </trkpt>
      <trkpt lat="45.94651" lon="6.87219">
        <ele>1622</ele>
        <time>2026-08-04T06:18:45.278Z</time>
      </trkpt>
      <trkpt lat="45.94652" lon="6.8722">
        <ele>1622</ele>
        <time>2026-08-04T06:18:46.278Z</time>
      </trkpt>
      <trkpt lat="45.94652" lon="6.87221">
        <ele>1623</ele>
        <time>2026-08-04T06:18:47.278Z</time>
      </trkpt>
      <trkpt lat="45.94651" lon="6.87222">
        <ele>1623</ele>
        <time>2026-08-04T06:18:48.278Z</time>
      </trkpt>
      <trkpt lat="45.94651" lon="6.87224">
        <ele>1623</ele>
        <time>2026-08-04T06:18:49.278Z</time>
      </trkpt>
      <trkpt lat="45.94651" lon="6.87225">
        <ele>1623</ele>
        <time>2026-08-04T06:18:50.278Z</time>
      </trkpt>
      <trkpt lat="45.94652" lon="6.87226">
        <ele>1623</ele>
        <time>2026-08-04T06:18:51.278Z</time>
      </trkpt>
      <trkpt lat="45.94652" lon="6.87227">
        <ele>1623</ele>
        <time>2026-08-04T06:18:52.278Z</time>
      </trkpt>
      <trkpt lat="45.94654" lon="6.8723">
        <ele>1623</ele>
        <time>2026-08-04T06:18:53.278Z</time>
      </trkpt>
      <trkpt lat="45.94655" lon="6.87233">
        <ele>1623</ele>
        <time>2026-08-04T06:18:54.278Z</time>
      </trkpt>
      <trkpt lat="45.94656" lon="6.87235">
        <ele>1623</ele>
        <time>2026-08-04T06:18:55.278Z</time>
      </trkpt>
      <trkpt lat="45.94657" lon="6.87237">
        <ele>1624</ele>
        <time>2026-08-04T06:18:56.278Z</time>
      </trkpt>
      <trkpt lat="45.94658" lon="6.8724">
        <ele>1624</ele>
        <time>2026-08-04T06:18:57.278Z</time>
      </trkpt>
      <trkpt lat="45.9466" lon="6.87242">
        <ele>1624</ele>
        <time>2026-08-04T06:18:58.278Z</time>
      </trkpt>
      <trkpt lat="45.9466" lon="6.87244">
        <ele>1625</ele>
        <time>2026-08-04T06:18:59.278Z</time>
      </trkpt>
      <trkpt lat="45.94661" lon="6.87246">
        <ele>1625</ele>
        <time>2026-08-04T06:19:00.278Z</time>
      </trkpt>
      <trkpt lat="45.94662" lon="6.87249">
        <ele>1626</ele>
        <time>2026-08-04T06:19:01.278Z</time>
      </trkpt>
      <trkpt lat="45.94662" lon="6.87251">
        <ele>1626</ele>
        <time>2026-08-04T06:19:02.278Z</time>
      </trkpt>
      <trkpt lat="45.94663" lon="6.87253">
        <ele>1627</ele>
        <time>2026-08-04T06:19:03.278Z</time>
      </trkpt>
      <trkpt lat="45.94664" lon="6.87254">
        <ele>1627</ele>
        <time>2026-08-04T06:19:04.278Z</time>
      </trkpt>
      <trkpt lat="45.94664" lon="6.87254">
        <ele>1628</ele>
        <time>2026-08-04T06:19:05.278Z</time>
      </trkpt>
      <trkpt lat="45.94665" lon="6.87255">
        <ele>1628</ele>
        <time>2026-08-04T06:19:06.278Z</time>
      </trkpt>
      <trkpt lat="45.94665" lon="6.87255">
        <ele>1629</ele>
        <time>2026-08-04T06:19:07.278Z</time>
      </trkpt>
      <trkpt lat="45.94666" lon="6.87255">
        <ele>1630</ele>
        <time>2026-08-04T06:19:08.278Z</time>
      </trkpt>
      <trkpt lat="45.94666" lon="6.87255">
        <ele>1630</ele>
        <time>2026-08-04T06:19:09.278Z</time>
      </trkpt>
      <trkpt lat="45.94666" lon="6.87255">
        <ele>1630</ele>
        <time>2026-08-04T06:19:10.278Z</time>
      </trkpt>
      <trkpt lat="45.94665" lon="6.87255">
        <ele>1631</ele>
        <time>2026-08-04T06:19:11.278Z</time>
      </trkpt>
      <trkpt lat="45.94664" lon="6.87255">
        <ele>1631</ele>
        <time>2026-08-04T06:19:12.278Z</time>
      </trkpt>
      <trkpt lat="45.94664" lon="6.87255">
        <ele>1631</ele>
        <time>2026-08-04T06:19:13.278Z</time>
      </trkpt>
      <trkpt lat="45.94664" lon="6.87254">
        <ele>1631</ele>
        <time>2026-08-04T06:19:14.278Z</time>
      </trkpt>
      <trkpt lat="45.94664" lon="6.87254">
        <ele>1632</ele>
        <time>2026-08-04T06:19:15.278Z</time>
      </trkpt>
      <trkpt lat="45.94664" lon="6.87255">
        <ele>1632</ele>
        <time>2026-08-04T06:19:16.278Z</time>
      </trkpt>
      <trkpt lat="45.94665" lon="6.87256">
        <ele>1632</ele>
        <time>2026-08-04T06:19:17.278Z</time>
      </trkpt>
      <trkpt lat="45.94665" lon="6.87256">
        <ele>1632</ele>
        <time>2026-08-04T06:19:18.278Z</time>
      </trkpt>
      <trkpt lat="45.94666" lon="6.87255">
        <ele>1632</ele>
        <time>2026-08-04T06:19:19.278Z</time>
      </trkpt>
      <trkpt lat="45.94667" lon="6.87255">
        <ele>1632</ele>
        <time>2026-08-04T06:19:20.278Z</time>
      </trkpt>
      <trkpt lat="45.94668" lon="6.87255">
        <ele>1632</ele>
        <time>2026-08-04T06:19:21.278Z</time>
      </trkpt>
      <trkpt lat="45.94669" lon="6.87256">
        <ele>1632</ele>
        <time>2026-08-04T06:19:22.278Z</time>
      </trkpt>
      <trkpt lat="45.94669" lon="6.87257">
        <ele>1632</ele>
        <time>2026-08-04T06:19:23.278Z</time>
      </trkpt>
      <trkpt lat="45.94669" lon="6.87258">
        <ele>1633</ele>
        <time>2026-08-04T06:19:24.278Z</time>
      </trkpt>
      <trkpt lat="45.94668" lon="6.87258">
        <ele>1633</ele>
        <time>2026-08-04T06:19:25.278Z</time>
      </trkpt>
      <trkpt lat="45.94667" lon="6.87259">
        <ele>1634</ele>
        <time>2026-08-04T06:19:26.278Z</time>
      </trkpt>
      <trkpt lat="45.94666" lon="6.87259">
        <ele>1634</ele>
        <time>2026-08-04T06:19:27.278Z</time>
      </trkpt>
      <trkpt lat="45.94664" lon="6.8726">
        <ele>1635</ele>
        <time>2026-08-04T06:19:28.278Z</time>
      </trkpt>
      <trkpt lat="45.94662" lon="6.87259">
        <ele>1635</ele>
        <time>2026-08-04T06:19:29.278Z</time>
      </trkpt>
      <trkpt lat="45.94661" lon="6.87258">
        <ele>1635</ele>
        <time>2026-08-04T06:19:30.278Z</time>
      </trkpt>
      <trkpt lat="45.9466" lon="6.87256">
        <ele>1635</ele>
        <time>2026-08-04T06:19:31.278Z</time>
      </trkpt>
      <trkpt lat="45.9466" lon="6.87256">
        <ele>1636</ele>
        <time>2026-08-04T06:19:32.278Z</time>
      </trkpt>
      <trkpt lat="45.94659" lon="6.87255">
        <ele>1636</ele>
        <time>2026-08-04T06:19:33.278Z</time>
      </trkpt>
      <trkpt lat="45.94659" lon="6.87253">
        <ele>1636</ele>
        <time>2026-08-04T06:19:34.278Z</time>
      </trkpt>
      <trkpt lat="45.94658" lon="6.87251">
        <ele>1636</ele>
        <time>2026-08-04T06:19:35.278Z</time>
      </trkpt>
      <trkpt lat="45.94657" lon="6.87248">
        <ele>1636</ele>
        <time>2026-08-04T06:19:36.278Z</time>
      </trkpt>
      <trkpt lat="45.94657" lon="6.87246">
        <ele>1636</ele>
        <time>2026-08-04T06:19:37.278Z</time>
      </trkpt>
      <trkpt lat="45.94656" lon="6.87244">
        <ele>1637</ele>
        <time>2026-08-04T06:19:38.278Z</time>
      </trkpt>
      <trkpt lat="45.94656" lon="6.87242">
        <ele>1637</ele>
        <time>2026-08-04T06:19:39.278Z</time>
      </trkpt>
      <trkpt lat="45.94656" lon="6.8724">
        <ele>1637</ele>
        <time>2026-08-04T06:19:40.278Z</time>
      </trkpt>
      <trkpt lat="45.94657" lon="6.87238">
        <ele>1637</ele>
        <time>2026-08-04T06:19:41.278Z</time>
      </trkpt>
      <trkpt lat="45.94657" lon="6.87236">
        <ele>1637</ele>
        <time>2026-08-04T06:19:42.278Z</time>
      </trkpt>
      <trkpt lat="45.94656" lon="6.87234">
        <ele>1637</ele>
        <time>2026-08-04T06:19:43.278Z</time>
      </trkpt>
      <trkpt lat="45.94656" lon="6.87231">
        <ele>1637</ele>
        <time>2026-08-04T06:19:44.278Z</time>
      </trkpt>
      <trkpt lat="45.94656" lon="6.87229">
        <ele>1637</ele>
        <time>2026-08-04T06:19:45.278Z</time>
      </trkpt>
      <trkpt lat="45.94656" lon="6.87227">
        <ele>1637</ele>
        <time>2026-08-04T06:19:46.278Z</time>
      </trkpt>
      <trkpt lat="45.94656" lon="6.87225">
        <ele>1637</ele>
        <time>2026-08-04T06:19:47.278Z</time>
      </trkpt>
      <trkpt lat="45.94655" lon="6.87224">
        <ele>1637</ele>
        <time>2026-08-04T06:19:48.278Z</time>
      </trkpt>
      <trkpt lat="45.94654" lon="6.87222">
        <ele>1638</ele>
        <time>2026-08-04T06:19:49.278Z</time>
      </trkpt>
      <trkpt lat="45.94652" lon="6.8722">
        <ele>1638</ele>
        <time>2026-08-04T06:19:50.278Z</time>
      </trkpt>
      <trkpt lat="45.94651" lon="6.87218">
        <ele>1638</ele>
        <time>2026-08-04T06:19:51.278Z</time>
      </trkpt>
      <trkpt lat="45.9465" lon="6.87216">
        <ele>1638</ele>
        <time>2026-08-04T06:19:52.278Z</time>
      </trkpt>
      <trkpt lat="45.94649" lon="6.87214">
        <ele>1638</ele>
        <time>2026-08-04T06:19:53.278Z</time>
      </trkpt>
      <trkpt lat="45.94647" lon="6.87213">
        <ele>1637</ele>
        <time>2026-08-04T06:19:54.278Z</time>
      </trkpt>
      <trkpt lat="45.94646" lon="6.87211">
        <ele>1637</ele>
        <time>2026-08-04T06:19:55.278Z</time>
      </trkpt>
      <trkpt lat="45.94645" lon="6.87209">
        <ele>1637</ele>
        <time>2026-08-04T06:19:56.278Z</time>
      </trkpt>
      <trkpt lat="45.94644" lon="6.87206">
        <ele>1637</ele>
        <time>2026-08-04T06:19:57.278Z</time>
      </trkpt>
      <trkpt lat="45.94644" lon="6.87203">
        <ele>1637</ele>
        <time>2026-08-04T06:19:58.278Z</time>
      </trkpt>
      <trkpt lat="45.94644" lon="6.872">
        <ele>1637</ele>
        <time>2026-08-04T06:19:59.278Z</time>
      </trkpt>
      <trkpt lat="45.94645" lon="6.87197">
        <ele>1637</ele>
        <time>2026-08-04T06:20:00.278Z</time>
      </trkpt>
      <trkpt lat="45.94647" lon="6.87196">
        <ele>1637</ele>
        <time>2026-08-04T06:20:01.278Z</time>
      </trkpt>
      <trkpt lat="45.9465" lon="6.87194">
        <ele>1637</ele>
        <time>2026-08-04T06:20:02.278Z</time>
      </trkpt>
      <trkpt lat="45.9465" lon="6.87192">
        <ele>1637</ele>
        <time>2026-08-04T06:20:03.278Z</time>
      </trkpt>
      <trkpt lat="45.94651" lon="6.87189">
        <ele>1636</ele>
        <time>2026-08-04T06:20:04.278Z</time>
      </trkpt>
      <trkpt lat="45.94651" lon="6.87187">
        <ele>1636</ele>
        <time>2026-08-04T06:20:05.278Z</time>
      </trkpt>
      <trkpt lat="45.94652" lon="6.87185">
        <ele>1636</ele>
        <time>2026-08-04T06:20:06.278Z</time>
      </trkpt>
      <trkpt lat="45.94653" lon="6.87184">
        <ele>1636</ele>
        <time>2026-08-04T06:20:07.278Z</time>
      </trkpt>
      <trkpt lat="45.94653" lon="6.87183">
        <ele>1636</ele>
        <time>2026-08-04T06:20:08.278Z</time>
      </trkpt>
      <trkpt lat="45.94654" lon="6.87181">
        <ele>1636</ele>
        <time>2026-08-04T06:20:09.278Z</time>
      </trkpt>
      <trkpt lat="45.94654" lon="6.8718">
        <ele>1637</ele>
        <time>2026-08-04T06:20:10.278Z</time>
      </trkpt>
      <trkpt lat="45.94655" lon="6.87179">
        <ele>1637</ele>
        <time>2026-08-04T06:20:11.278Z</time>
      </trkpt>
      <trkpt lat="45.94655" lon="6.87177">
        <ele>1637</ele>
        <time>2026-08-04T06:20:12.278Z</time>
      </trkpt>
      <trkpt lat="45.94656" lon="6.87176">
        <ele>1637</ele>
        <time>2026-08-04T06:20:13.278Z</time>
      </trkpt>
      <trkpt lat="45.94656" lon="6.87175">
        <ele>1638</ele>
        <time>2026-08-04T06:20:14.278Z</time>
      </trkpt>
      <trkpt lat="45.94657" lon="6.87173">
        <ele>1638</ele>
        <time>2026-08-04T06:20:15.278Z</time>
      </trkpt>
      <trkpt lat="45.94657" lon="6.87172">
        <ele>1638</ele>
        <time>2026-08-04T06:20:16.278Z</time>
      </trkpt>
      <trkpt lat="45.94657" lon="6.8717">
        <ele>1638</ele>
        <time>2026-08-04T06:20:17.278Z</time>
      </trkpt>
      <trkpt lat="45.94657" lon="6.87168">
        <ele>1637</ele>
        <time>2026-08-04T06:20:18.278Z</time>
      </trkpt>
      <trkpt lat="45.94657" lon="6.87166">
        <ele>1638</ele>
        <time>2026-08-04T06:20:19.278Z</time>
      </trkpt>
      <trkpt lat="45.94658" lon="6.87165">
        <ele>1638</ele>
        <time>2026-08-04T06:20:20.278Z</time>
      </trkpt>
      <trkpt lat="45.94658" lon="6.87164">
        <ele>1638</ele>
        <time>2026-08-04T06:20:21.278Z</time>
      </trkpt>
      <trkpt lat="45.94657" lon="6.87162">
        <ele>1638</ele>
        <time>2026-08-04T06:20:22.278Z</time>
      </trkpt>
      <trkpt lat="45.94657" lon="6.87161">
        <ele>1639</ele>
        <time>2026-08-04T06:20:23.278Z</time>
      </trkpt>
      <trkpt lat="45.94657" lon="6.87159">
        <ele>1639</ele>
        <time>2026-08-04T06:20:24.278Z</time>
      </trkpt>
      <trkpt lat="45.94657" lon="6.87158">
        <ele>1640</ele>
        <time>2026-08-04T06:20:25.278Z</time>
      </trkpt>
      <trkpt lat="45.94657" lon="6.87157">
        <ele>1640</ele>
        <time>2026-08-04T06:20:26.278Z</time>
      </trkpt>
      <trkpt lat="45.94658" lon="6.87156">
        <ele>1640</ele>
        <time>2026-08-04T06:20:27.278Z</time>
      </trkpt>
      <trkpt lat="45.94658" lon="6.87155">
        <ele>1641</ele>
        <time>2026-08-04T06:20:28.278Z</time>
      </trkpt>
      <trkpt lat="45.94659" lon="6.87153">
        <ele>1641</ele>
        <time>2026-08-04T06:20:29.278Z</time>
      </trkpt>
      <trkpt lat="45.9466" lon="6.8715">
        <ele>1641</ele>
        <time>2026-08-04T06:20:30.278Z</time>
      </trkpt>
      <trkpt lat="45.94662" lon="6.87147">
        <ele>1641</ele>
        <time>2026-08-04T06:20:31.278Z</time>
      </trkpt>
      <trkpt lat="45.94662" lon="6.87144">
        <ele>1642</ele>
        <time>2026-08-04T06:20:32.278Z</time>
      </trkpt>
      <trkpt lat="45.94661" lon="6.87141">
        <ele>1642</ele>
        <time>2026-08-04T06:20:33.278Z</time>
      </trkpt>
      <trkpt lat="45.94662" lon="6.87139">
        <ele>1643</ele>
        <time>2026-08-04T06:20:34.278Z</time>
      </trkpt>
      <trkpt lat="45.94662" lon="6.87135">
        <ele>1643</ele>
        <time>2026-08-04T06:20:35.278Z</time>
      </trkpt>
      <trkpt lat="45.94661" lon="6.87134">
        <ele>1644</ele>
        <time>2026-08-04T06:20:36.278Z</time>
      </trkpt>
      <trkpt lat="45.9466" lon="6.8713">
        <ele>1644</ele>
        <time>2026-08-04T06:20:37.278Z</time>
      </trkpt>
      <trkpt lat="45.94661" lon="6.87128">
        <ele>1645</ele>
        <time>2026-08-04T06:20:38.278Z</time>
      </trkpt>
      <trkpt lat="45.94662" lon="6.87126">
        <ele>1645</ele>
        <time>2026-08-04T06:20:39.278Z</time>
      </trkpt>
      <trkpt lat="45.94662" lon="6.87123">
        <ele>1646</ele>
        <time>2026-08-04T06:20:40.278Z</time>
      </trkpt>
      <trkpt lat="45.94662" lon="6.87121">
        <ele>1646</ele>
        <time>2026-08-04T06:20:41.278Z</time>
      </trkpt>
      <trkpt lat="45.94666" lon="6.87119">
        <ele>1647</ele>
        <time>2026-08-04T06:20:42.278Z</time>
      </trkpt>
      <trkpt lat="45.94667" lon="6.87118">
        <ele>1647</ele>
        <time>2026-08-04T06:20:43.278Z</time>
      </trkpt>
      <trkpt lat="45.94667" lon="6.87117">
        <ele>1647</ele>
        <time>2026-08-04T06:20:44.278Z</time>
      </trkpt>
      <trkpt lat="45.94668" lon="6.87113">
        <ele>1648</ele>
        <time>2026-08-04T06:20:45.278Z</time>
      </trkpt>
      <trkpt lat="45.94669" lon="6.8711">
        <ele>1648</ele>
        <time>2026-08-04T06:20:46.278Z</time>
      </trkpt>
      <trkpt lat="45.94669" lon="6.87109">
        <ele>1648</ele>
        <time>2026-08-04T06:20:47.278Z</time>
      </trkpt>
      <trkpt lat="45.9467" lon="6.87107">
        <ele>1649</ele>
        <time>2026-08-04T06:20:48.278Z</time>
      </trkpt>
      <trkpt lat="45.94671" lon="6.87105">
        <ele>1649</ele>
        <time>2026-08-04T06:20:49.278Z</time>
      </trkpt>
      <trkpt lat="45.94672" lon="6.87103">
        <ele>1649</ele>
        <time>2026-08-04T06:20:50.278Z</time>
      </trkpt>
      <trkpt lat="45.94672" lon="6.87101">
        <ele>1648</ele>
        <time>2026-08-04T06:20:51.278Z</time>
      </trkpt>
      <trkpt lat="45.94673" lon="6.87099">
        <ele>1649</ele>
        <time>2026-08-04T06:20:52.278Z</time>
      </trkpt>
      <trkpt lat="45.94672" lon="6.871">
        <ele>1649</ele>
        <time>2026-08-04T06:20:53.278Z</time>
      </trkpt>
      <trkpt lat="45.94672" lon="6.87098">
        <ele>1649</ele>
        <time>2026-08-04T06:20:54.278Z</time>
      </trkpt>
      <trkpt lat="45.94672" lon="6.87097">
        <ele>1649</ele>
        <time>2026-08-04T06:20:55.278Z</time>
      </trkpt>
      <trkpt lat="45.94671" lon="6.87095">
        <ele>1649</ele>
        <time>2026-08-04T06:20:56.278Z</time>
      </trkpt>
      <trkpt lat="45.9467" lon="6.87094">
        <ele>1649</ele>
        <time>2026-08-04T06:20:57.278Z</time>
      </trkpt>
      <trkpt lat="45.9467" lon="6.87093">
        <ele>1649</ele>
        <time>2026-08-04T06:20:58.278Z</time>
      </trkpt>
      <trkpt lat="45.94669" lon="6.87093">
        <ele>1649</ele>
        <time>2026-08-04T06:20:59.278Z</time>
      </trkpt>
      <trkpt lat="45.9467" lon="6.87092">
        <ele>1649</ele>
        <time>2026-08-04T06:21:00.278Z</time>
      </trkpt>
      <trkpt lat="45.9467" lon="6.8709">
        <ele>1649</ele>
        <time>2026-08-04T06:21:01.278Z</time>
      </trkpt>
      <trkpt lat="45.94669" lon="6.87089">
        <ele>1649</ele>
        <time>2026-08-04T06:21:02.278Z</time>
      </trkpt>
      <trkpt lat="45.94669" lon="6.87089">
        <ele>1649</ele>
        <time>2026-08-04T06:21:03.278Z</time>
      </trkpt>
      <trkpt lat="45.94668" lon="6.87088">
        <ele>1649</ele>
        <time>2026-08-04T06:21:04.278Z</time>
      </trkpt>
      <trkpt lat="45.94669" lon="6.87087">
        <ele>1650</ele>
        <time>2026-08-04T06:21:05.278Z</time>
      </trkpt>
      <trkpt lat="45.94669" lon="6.87087">
        <ele>1650</ele>
        <time>2026-08-04T06:21:06.278Z</time>
      </trkpt>
      <trkpt lat="45.9467" lon="6.87086">
        <ele>1651</ele>
        <time>2026-08-04T06:21:07.278Z</time>
      </trkpt>
      <trkpt lat="45.94671" lon="6.87085">
        <ele>1651</ele>
        <time>2026-08-04T06:21:08.278Z</time>
      </trkpt>
      <trkpt lat="45.9467" lon="6.87085">
        <ele>1651</ele>
        <time>2026-08-04T06:21:09.278Z</time>
      </trkpt>
      <trkpt lat="45.9467" lon="6.87084">
        <ele>1652</ele>
        <time>2026-08-04T06:21:10.278Z</time>
      </trkpt>
      <trkpt lat="45.9467" lon="6.87083">
        <ele>1652</ele>
        <time>2026-08-04T06:21:11.278Z</time>
      </trkpt>
      <trkpt lat="45.94669" lon="6.87081">
        <ele>1652</ele>
        <time>2026-08-04T06:21:12.278Z</time>
      </trkpt>
      <trkpt lat="45.94668" lon="6.8708">
        <ele>1652</ele>
        <time>2026-08-04T06:21:13.278Z</time>
      </trkpt>
      <trkpt lat="45.94668" lon="6.87078">
        <ele>1652</ele>
        <time>2026-08-04T06:21:14.278Z</time>
      </trkpt>
      <trkpt lat="45.94667" lon="6.87077">
        <ele>1652</ele>
        <time>2026-08-04T06:21:15.278Z</time>
      </trkpt>
      <trkpt lat="45.94667" lon="6.87076">
        <ele>1652</ele>
        <time>2026-08-04T06:21:16.278Z</time>
      </trkpt>
      <trkpt lat="45.94667" lon="6.87075">
        <ele>1652</ele>
        <time>2026-08-04T06:21:17.278Z</time>
      </trkpt>
      <trkpt lat="45.94667" lon="6.87074">
        <ele>1652</ele>
        <time>2026-08-04T06:21:18.278Z</time>
      </trkpt>
      <trkpt lat="45.94667" lon="6.87073">
        <ele>1652</ele>
        <time>2026-08-04T06:21:19.278Z</time>
      </trkpt>
      <trkpt lat="45.94667" lon="6.87072">
        <ele>1652</ele>
        <time>2026-08-04T06:21:20.278Z</time>
      </trkpt>
      <trkpt lat="45.94666" lon="6.87071">
        <ele>1653</ele>
        <time>2026-08-04T06:21:21.278Z</time>
      </trkpt>
      <trkpt lat="45.94666" lon="6.87069">
        <ele>1653</ele>
        <time>2026-08-04T06:21:22.278Z</time>
      </trkpt>
      <trkpt lat="45.94666" lon="6.87067">
        <ele>1653</ele>
        <time>2026-08-04T06:21:23.278Z</time>
      </trkpt>
      <trkpt lat="45.94666" lon="6.87064">
        <ele>1653</ele>
        <time>2026-08-04T06:21:24.278Z</time>
      </trkpt>
      <trkpt lat="45.94666" lon="6.87062">
        <ele>1653</ele>
        <time>2026-08-04T06:21:25.278Z</time>
      </trkpt>
      <trkpt lat="45.94666" lon="6.87061">
        <ele>1654</ele>
        <time>2026-08-04T06:21:26.278Z</time>
      </trkpt>
      <trkpt lat="45.94666" lon="6.87059">
        <ele>1654</ele>
        <time>2026-08-04T06:21:27.278Z</time>
      </trkpt>
      <trkpt lat="45.94665" lon="6.87058">
        <ele>1655</ele>
        <time>2026-08-04T06:21:28.278Z</time>
      </trkpt>
      <trkpt lat="45.94665" lon="6.87056">
        <ele>1656</ele>
        <time>2026-08-04T06:21:29.278Z</time>
      </trkpt>
      <trkpt lat="45.94664" lon="6.87054">
        <ele>1656</ele>
        <time>2026-08-04T06:21:30.278Z</time>
      </trkpt>
      <trkpt lat="45.94664" lon="6.87052">
        <ele>1657</ele>
        <time>2026-08-04T06:21:31.278Z</time>
      </trkpt>
      <trkpt lat="45.94664" lon="6.8705">
        <ele>1657</ele>
        <time>2026-08-04T06:21:32.278Z</time>
      </trkpt>
      <trkpt lat="45.94664" lon="6.87049">
        <ele>1658</ele>
        <time>2026-08-04T06:21:33.278Z</time>
      </trkpt>
      <trkpt lat="45.94665" lon="6.87047">
        <ele>1659</ele>
        <time>2026-08-04T06:21:34.278Z</time>
      </trkpt>
      <trkpt lat="45.94665" lon="6.87045">
        <ele>1659</ele>
        <time>2026-08-04T06:21:35.278Z</time>
      </trkpt>
      <trkpt lat="45.94665" lon="6.87044">
        <ele>1660</ele>
        <time>2026-08-04T06:21:36.278Z</time>
      </trkpt>
      <trkpt lat="45.94665" lon="6.87044">
        <ele>1660</ele>
        <time>2026-08-04T06:21:37.278Z</time>
      </trkpt>
      <trkpt lat="45.94665" lon="6.87043">
        <ele>1660</ele>
        <time>2026-08-04T06:21:38.278Z</time>
      </trkpt>
      <trkpt lat="45.94664" lon="6.87042">
        <ele>1660</ele>
        <time>2026-08-04T06:21:39.278Z</time>
      </trkpt>
      <trkpt lat="45.94664" lon="6.8704">
        <ele>1660</ele>
        <time>2026-08-04T06:21:40.278Z</time>
      </trkpt>
      <trkpt lat="45.94663" lon="6.87039">
        <ele>1660</ele>
        <time>2026-08-04T06:21:41.278Z</time>
      </trkpt>
      <trkpt lat="45.94663" lon="6.87038">
        <ele>1660</ele>
        <time>2026-08-04T06:21:42.278Z</time>
      </trkpt>
      <trkpt lat="45.94663" lon="6.87037">
        <ele>1660</ele>
        <time>2026-08-04T06:21:43.278Z</time>
      </trkpt>
      <trkpt lat="45.94663" lon="6.87035">
        <ele>1659</ele>
        <time>2026-08-04T06:21:44.278Z</time>
      </trkpt>
      <trkpt lat="45.94662" lon="6.87034">
        <ele>1659</ele>
        <time>2026-08-04T06:21:45.278Z</time>
      </trkpt>
      <trkpt lat="45.94661" lon="6.87033">
        <ele>1660</ele>
        <time>2026-08-04T06:21:46.278Z</time>
      </trkpt>
      <trkpt lat="45.94661" lon="6.87031">
        <ele>1660</ele>
        <time>2026-08-04T06:21:47.278Z</time>
      </trkpt>
      <trkpt lat="45.94661" lon="6.8703">
        <ele>1661</ele>
        <time>2026-08-04T06:21:48.278Z</time>
      </trkpt>
      <trkpt lat="45.94661" lon="6.87028">
        <ele>1661</ele>
        <time>2026-08-04T06:21:49.278Z</time>
      </trkpt>
      <trkpt lat="45.9466" lon="6.87027">
        <ele>1661</ele>
        <time>2026-08-04T06:21:50.278Z</time>
      </trkpt>
      <trkpt lat="45.9466" lon="6.87025">
        <ele>1662</ele>
        <time>2026-08-04T06:21:51.278Z</time>
      </trkpt>
      <trkpt lat="45.9466" lon="6.87024">
        <ele>1662</ele>
        <time>2026-08-04T06:21:52.278Z</time>
      </trkpt>
      <trkpt lat="45.94659" lon="6.87023">
        <ele>1663</ele>
        <time>2026-08-04T06:21:53.278Z</time>
      </trkpt>
      <trkpt lat="45.94659" lon="6.87022">
        <ele>1663</ele>
        <time>2026-08-04T06:21:54.278Z</time>
      </trkpt>
      <trkpt lat="45.94659" lon="6.87021">
        <ele>1663</ele>
        <time>2026-08-04T06:21:55.278Z</time>
      </trkpt>
      <trkpt lat="45.94659" lon="6.8702">
        <ele>1664</ele>
        <time>2026-08-04T06:21:56.278Z</time>
      </trkpt>
      <trkpt lat="45.94659" lon="6.87019">
        <ele>1664</ele>
        <time>2026-08-04T06:21:57.278Z</time>
      </trkpt>
      <trkpt lat="45.94659" lon="6.87018">
        <ele>1664</ele>
        <time>2026-08-04T06:21:58.278Z</time>
      </trkpt>
      <trkpt lat="45.94659" lon="6.87017">
        <ele>1665</ele>
        <time>2026-08-04T06:21:59.278Z</time>
      </trkpt>
      <trkpt lat="45.9466" lon="6.87016">
        <ele>1665</ele>
        <time>2026-08-04T06:22:00.278Z</time>
      </trkpt>
      <trkpt lat="45.94661" lon="6.87017">
        <ele>1665</ele>
        <time>2026-08-04T06:22:01.278Z</time>
      </trkpt>
      <trkpt lat="45.94662" lon="6.87017">
        <ele>1665</ele>
        <time>2026-08-04T06:22:02.278Z</time>
      </trkpt>
      <trkpt lat="45.94663" lon="6.87018">
        <ele>1665</ele>
        <time>2026-08-04T06:22:03.278Z</time>
      </trkpt>
      <trkpt lat="45.94664" lon="6.87019">
        <ele>1665</ele>
        <time>2026-08-04T06:22:04.278Z</time>
      </trkpt>
      <trkpt lat="45.94665" lon="6.8702">
        <ele>1665</ele>
        <time>2026-08-04T06:22:05.278Z</time>
      </trkpt>
      <trkpt lat="45.94666" lon="6.87022">
        <ele>1665</ele>
        <time>2026-08-04T06:22:06.278Z</time>
      </trkpt>
      <trkpt lat="45.94667" lon="6.87023">
        <ele>1666</ele>
        <time>2026-08-04T06:22:07.278Z</time>
      </trkpt>
      <trkpt lat="45.94668" lon="6.87024">
        <ele>1666</ele>
        <time>2026-08-04T06:22:08.278Z</time>
      </trkpt>
      <trkpt lat="45.94669" lon="6.87025">
        <ele>1666</ele>
        <time>2026-08-04T06:22:09.278Z</time>
      </trkpt>
      <trkpt lat="45.9467" lon="6.87026">
        <ele>1666</ele>
        <time>2026-08-04T06:22:10.278Z</time>
      </trkpt>
      <trkpt lat="45.94671" lon="6.87027">
        <ele>1667</ele>
        <time>2026-08-04T06:22:11.278Z</time>
      </trkpt>
      <trkpt lat="45.94671" lon="6.87028">
        <ele>1667</ele>
        <time>2026-08-04T06:22:12.278Z</time>
      </trkpt>
      <trkpt lat="45.94673" lon="6.87029">
        <ele>1667</ele>
        <time>2026-08-04T06:22:13.278Z</time>
      </trkpt>
      <trkpt lat="45.94673" lon="6.87031">
        <ele>1667</ele>
        <time>2026-08-04T06:22:14.278Z</time>
      </trkpt>
      <trkpt lat="45.94674" lon="6.87032">
        <ele>1668</ele>
        <time>2026-08-04T06:22:15.278Z</time>
      </trkpt>
      <trkpt lat="45.94675" lon="6.87033">
        <ele>1668</ele>
        <time>2026-08-04T06:22:16.278Z</time>
      </trkpt>
      <trkpt lat="45.94675" lon="6.87035">
        <ele>1668</ele>
        <time>2026-08-04T06:22:17.278Z</time>
      </trkpt>
      <trkpt lat="45.94677" lon="6.87037">
        <ele>1668</ele>
        <time>2026-08-04T06:22:18.278Z</time>
      </trkpt>
      <trkpt lat="45.94677" lon="6.87038">
        <ele>1668</ele>
        <time>2026-08-04T06:22:19.278Z</time>
      </trkpt>
      <trkpt lat="45.94678" lon="6.87039">
        <ele>1668</ele>
        <time>2026-08-04T06:22:20.278Z</time>
      </trkpt>
      <trkpt lat="45.94679" lon="6.8704">
        <ele>1669</ele>
        <time>2026-08-04T06:22:21.278Z</time>
      </trkpt>
      <trkpt lat="45.9468" lon="6.87041">
        <ele>1669</ele>
        <time>2026-08-04T06:22:22.278Z</time>
      </trkpt>
      <trkpt lat="45.9468" lon="6.87042">
        <ele>1669</ele>
        <time>2026-08-04T06:22:23.278Z</time>
      </trkpt>
      <trkpt lat="45.94682" lon="6.87043">
        <ele>1669</ele>
        <time>2026-08-04T06:22:24.278Z</time>
      </trkpt>
      <trkpt lat="45.94682" lon="6.87044">
        <ele>1669</ele>
        <time>2026-08-04T06:22:25.278Z</time>
      </trkpt>
      <trkpt lat="45.94683" lon="6.87045">
        <ele>1669</ele>
        <time>2026-08-04T06:22:26.278Z</time>
      </trkpt>
      <trkpt lat="45.94683" lon="6.87046">
        <ele>1670</ele>
        <time>2026-08-04T06:22:27.278Z</time>
      </trkpt>
      <trkpt lat="45.94684" lon="6.87046">
        <ele>1670</ele>
        <time>2026-08-04T06:22:28.278Z</time>
      </trkpt>
      <trkpt lat="45.94684" lon="6.87047">
        <ele>1670</ele>
        <time>2026-08-04T06:22:29.278Z</time>
      </trkpt>
      <trkpt lat="45.94685" lon="6.87047">
        <ele>1670</ele>
        <time>2026-08-04T06:22:30.278Z</time>
      </trkpt>
      <trkpt lat="45.94685" lon="6.87048">
        <ele>1670</ele>
        <time>2026-08-04T06:22:31.278Z</time>
      </trkpt>
      <trkpt lat="45.94686" lon="6.87049">
        <ele>1670</ele>
        <time>2026-08-04T06:22:32.278Z</time>
      </trkpt>
      <trkpt lat="45.94686" lon="6.8705">
        <ele>1670</ele>
        <time>2026-08-04T06:22:33.278Z</time>
      </trkpt>
      <trkpt lat="45.94687" lon="6.87051">
        <ele>1671</ele>
        <time>2026-08-04T06:22:34.278Z</time>
      </trkpt>
      <trkpt lat="45.94688" lon="6.87053">
        <ele>1671</ele>
        <time>2026-08-04T06:22:35.278Z</time>
      </trkpt>
      <trkpt lat="45.94689" lon="6.87054">
        <ele>1671</ele>
        <time>2026-08-04T06:22:36.278Z</time>
      </trkpt>
      <trkpt lat="45.9469" lon="6.87055">
        <ele>1671</ele>
        <time>2026-08-04T06:22:37.278Z</time>
      </trkpt>
      <trkpt lat="45.94691" lon="6.87056">
        <ele>1671</ele>
        <time>2026-08-04T06:22:38.278Z</time>
      </trkpt>
      <trkpt lat="45.94691" lon="6.87058">
        <ele>1671</ele>
        <time>2026-08-04T06:22:39.278Z</time>
      </trkpt>
      <trkpt lat="45.94692" lon="6.87059">
        <ele>1671</ele>
        <time>2026-08-04T06:22:40.278Z</time>
      </trkpt>
      <trkpt lat="45.94692" lon="6.87061">
        <ele>1671</ele>
        <time>2026-08-04T06:22:41.278Z</time>
      </trkpt>
      <trkpt lat="45.94693" lon="6.87062">
        <ele>1671</ele>
        <time>2026-08-04T06:22:42.278Z</time>
      </trkpt>
      <trkpt lat="45.94693" lon="6.87063">
        <ele>1671</ele>
        <time>2026-08-04T06:22:43.278Z</time>
      </trkpt>
      <trkpt lat="45.94693" lon="6.87065">
        <ele>1671</ele>
        <time>2026-08-04T06:22:44.278Z</time>
      </trkpt>
      <trkpt lat="45.94694" lon="6.87067">
        <ele>1671</ele>
        <time>2026-08-04T06:22:45.278Z</time>
      </trkpt>
      <trkpt lat="45.94694" lon="6.87069">
        <ele>1671</ele>
        <time>2026-08-04T06:22:46.278Z</time>
      </trkpt>
      <trkpt lat="45.94694" lon="6.87071">
        <ele>1672</ele>
        <time>2026-08-04T06:22:47.278Z</time>
      </trkpt>
      <trkpt lat="45.94694" lon="6.87073">
        <ele>1672</ele>
        <time>2026-08-04T06:22:48.278Z</time>
      </trkpt>
      <trkpt lat="45.94695" lon="6.87075">
        <ele>1672</ele>
        <time>2026-08-04T06:22:49.278Z</time>
      </trkpt>
      <trkpt lat="45.94695" lon="6.87076">
        <ele>1672</ele>
        <time>2026-08-04T06:22:50.278Z</time>
      </trkpt>
      <trkpt lat="45.94696" lon="6.87077">
        <ele>1673</ele>
        <time>2026-08-04T06:22:51.278Z</time>
      </trkpt>
      <trkpt lat="45.94696" lon="6.87078">
        <ele>1673</ele>
        <time>2026-08-04T06:22:52.278Z</time>
      </trkpt>
      <trkpt lat="45.94696" lon="6.8708">
        <ele>1673</ele>
        <time>2026-08-04T06:22:53.278Z</time>
      </trkpt>
      <trkpt lat="45.94696" lon="6.87081">
        <ele>1674</ele>
        <time>2026-08-04T06:22:54.278Z</time>
      </trkpt>
      <trkpt lat="45.94696" lon="6.87083">
        <ele>1674</ele>
        <time>2026-08-04T06:22:55.278Z</time>
      </trkpt>
      <trkpt lat="45.94696" lon="6.87085">
        <ele>1674</ele>
        <time>2026-08-04T06:22:56.278Z</time>
      </trkpt>
      <trkpt lat="45.94695" lon="6.87087">
        <ele>1674</ele>
        <time>2026-08-04T06:22:57.278Z</time>
      </trkpt>
      <trkpt lat="45.94695" lon="6.87089">
        <ele>1674</ele>
        <time>2026-08-04T06:22:58.278Z</time>
      </trkpt>
      <trkpt lat="45.94695" lon="6.87091">
        <ele>1674</ele>
        <time>2026-08-04T06:22:59.278Z</time>
      </trkpt>
      <trkpt lat="45.94696" lon="6.87092">
        <ele>1674</ele>
        <time>2026-08-04T06:23:00.278Z</time>
      </trkpt>
      <trkpt lat="45.94696" lon="6.87093">
        <ele>1675</ele>
        <time>2026-08-04T06:23:01.278Z</time>
      </trkpt>
      <trkpt lat="45.94696" lon="6.87094">
        <ele>1675</ele>
        <time>2026-08-04T06:23:02.278Z</time>
      </trkpt>
      <trkpt lat="45.94696" lon="6.87094">
        <ele>1675</ele>
        <time>2026-08-04T06:23:03.278Z</time>
      </trkpt>
      <trkpt lat="45.94696" lon="6.87095">
        <ele>1675</ele>
        <time>2026-08-04T06:23:04.278Z</time>
      </trkpt>
      <trkpt lat="45.94696" lon="6.87095">
        <ele>1675</ele>
        <time>2026-08-04T06:23:05.278Z</time>
      </trkpt>
      <trkpt lat="45.94696" lon="6.87096">
        <ele>1676</ele>
        <time>2026-08-04T06:23:06.278Z</time>
      </trkpt>
      <trkpt lat="45.94696" lon="6.87097">
        <ele>1676</ele>
        <time>2026-08-04T06:23:07.278Z</time>
      </trkpt>
      <trkpt lat="45.94697" lon="6.87097">
        <ele>1676</ele>
        <time>2026-08-04T06:23:08.278Z</time>
      </trkpt>
      <trkpt lat="45.94698" lon="6.87097">
        <ele>1676</ele>
        <time>2026-08-04T06:23:09.278Z</time>
      </trkpt>
      <trkpt lat="45.94699" lon="6.87098">
        <ele>1677</ele>
        <time>2026-08-04T06:23:10.278Z</time>
      </trkpt>
      <trkpt lat="45.94701" lon="6.871">
        <ele>1677</ele>
        <time>2026-08-04T06:23:11.278Z</time>
      </trkpt>
      <trkpt lat="45.94703" lon="6.87103">
        <ele>1677</ele>
        <time>2026-08-04T06:23:12.278Z</time>
      </trkpt>
      <trkpt lat="45.94705" lon="6.87104">
        <ele>1677</ele>
        <time>2026-08-04T06:23:13.278Z</time>
      </trkpt>
      <trkpt lat="45.94706" lon="6.87105">
        <ele>1677</ele>
        <time>2026-08-04T06:23:14.278Z</time>
      </trkpt>
      <trkpt lat="45.94707" lon="6.87105">
        <ele>1677</ele>
        <time>2026-08-04T06:23:15.278Z</time>
      </trkpt>
      <trkpt lat="45.94707" lon="6.87105">
        <ele>1678</ele>
        <time>2026-08-04T06:23:16.278Z</time>
      </trkpt>
      <trkpt lat="45.94709" lon="6.87106">
        <ele>1678</ele>
        <time>2026-08-04T06:23:17.278Z</time>
      </trkpt>
      <trkpt lat="45.94709" lon="6.87106">
        <ele>1678</ele>
        <time>2026-08-04T06:23:18.278Z</time>
      </trkpt>
      <trkpt lat="45.9471" lon="6.87106">
        <ele>1678</ele>
        <time>2026-08-04T06:23:19.278Z</time>
      </trkpt>
      <trkpt lat="45.9471" lon="6.87107">
        <ele>1678</ele>
        <time>2026-08-04T06:23:20.278Z</time>
      </trkpt>
      <trkpt lat="45.94711" lon="6.87108">
        <ele>1677</ele>
        <time>2026-08-04T06:23:21.278Z</time>
      </trkpt>
      <trkpt lat="45.94712" lon="6.87109">
        <ele>1678</ele>
        <time>2026-08-04T06:23:22.278Z</time>
      </trkpt>
      <trkpt lat="45.94712" lon="6.87111">
        <ele>1678</ele>
        <time>2026-08-04T06:23:23.278Z</time>
      </trkpt>
      <trkpt lat="45.94713" lon="6.87112">
        <ele>1678</ele>
        <time>2026-08-04T06:23:24.278Z</time>
      </trkpt>
      <trkpt lat="45.94714" lon="6.87113">
        <ele>1679</ele>
        <time>2026-08-04T06:23:25.278Z</time>
      </trkpt>
      <trkpt lat="45.94714" lon="6.87115">
        <ele>1680</ele>
        <time>2026-08-04T06:23:26.278Z</time>
      </trkpt>
      <trkpt lat="45.94715" lon="6.87116">
        <ele>1680</ele>
        <time>2026-08-04T06:23:27.278Z</time>
      </trkpt>
      <trkpt lat="45.94715" lon="6.87116">
        <ele>1680</ele>
        <time>2026-08-04T06:23:28.278Z</time>
      </trkpt>
      <trkpt lat="45.94715" lon="6.87117">
        <ele>1681</ele>
        <time>2026-08-04T06:23:29.278Z</time>
      </trkpt>
      <trkpt lat="45.94715" lon="6.87119">
        <ele>1681</ele>
        <time>2026-08-04T06:23:30.278Z</time>
      </trkpt>
      <trkpt lat="45.94715" lon="6.8712">
        <ele>1682</ele>
        <time>2026-08-04T06:23:31.278Z</time>
      </trkpt>
      <trkpt lat="45.94715" lon="6.8712">
        <ele>1682</ele>
        <time>2026-08-04T06:23:32.278Z</time>
      </trkpt>
      <trkpt lat="45.94715" lon="6.87121">
        <ele>1683</ele>
        <time>2026-08-04T06:23:33.278Z</time>
      </trkpt>
      <trkpt lat="45.94715" lon="6.87122">
        <ele>1683</ele>
        <time>2026-08-04T06:23:34.278Z</time>
      </trkpt>
      <trkpt lat="45.94715" lon="6.87123">
        <ele>1684</ele>
        <time>2026-08-04T06:23:35.278Z</time>
      </trkpt>
      <trkpt lat="45.94715" lon="6.87124">
        <ele>1685</ele>
        <time>2026-08-04T06:23:36.278Z</time>
      </trkpt>
      <trkpt lat="45.94716" lon="6.87125">
        <ele>1685</ele>
        <time>2026-08-04T06:23:37.278Z</time>
      </trkpt>
      <trkpt lat="45.94716" lon="6.87126">
        <ele>1686</ele>
        <time>2026-08-04T06:23:38.278Z</time>
      </trkpt>
      <trkpt lat="45.94716" lon="6.87128">
        <ele>1686</ele>
        <time>2026-08-04T06:23:39.278Z</time>
      </trkpt>
      <trkpt lat="45.94716" lon="6.87129">
        <ele>1687</ele>
        <time>2026-08-04T06:23:40.278Z</time>
      </trkpt>
      <trkpt lat="45.94716" lon="6.8713">
        <ele>1687</ele>
        <time>2026-08-04T06:23:41.278Z</time>
      </trkpt>
      <trkpt lat="45.94715" lon="6.87131">
        <ele>1687</ele>
        <time>2026-08-04T06:23:42.278Z</time>
      </trkpt>
      <trkpt lat="45.94715" lon="6.87131">
        <ele>1688</ele>
        <time>2026-08-04T06:23:43.278Z</time>
      </trkpt>
      <trkpt lat="45.94715" lon="6.87132">
        <ele>1689</ele>
        <time>2026-08-04T06:23:44.278Z</time>
      </trkpt>
      <trkpt lat="45.94716" lon="6.87133">
        <ele>1689</ele>
        <time>2026-08-04T06:23:45.278Z</time>
      </trkpt>
      <trkpt lat="45.94717" lon="6.87134">
        <ele>1689</ele>
        <time>2026-08-04T06:23:46.278Z</time>
      </trkpt>
      <trkpt lat="45.94717" lon="6.87135">
        <ele>1690</ele>
        <time>2026-08-04T06:23:47.278Z</time>
      </trkpt>
      <trkpt lat="45.94717" lon="6.87137">
        <ele>1690</ele>
        <time>2026-08-04T06:23:48.278Z</time>
      </trkpt>
      <trkpt lat="45.94717" lon="6.87137">
        <ele>1690</ele>
        <time>2026-08-04T06:23:49.278Z</time>
      </trkpt>
      <trkpt lat="45.94717" lon="6.87137">
        <ele>1690</ele>
        <time>2026-08-04T06:23:50.278Z</time>
      </trkpt>
      <trkpt lat="45.94716" lon="6.87138">
        <ele>1690</ele>
        <time>2026-08-04T06:23:51.278Z</time>
      </trkpt>
      <trkpt lat="45.94716" lon="6.87138">
        <ele>1690</ele>
        <time>2026-08-04T06:23:52.278Z</time>
      </trkpt>
      <trkpt lat="45.94716" lon="6.87138">
        <ele>1690</ele>
        <time>2026-08-04T06:23:53.278Z</time>
      </trkpt>
      <trkpt lat="45.94716" lon="6.87139">
        <ele>1690</ele>
        <time>2026-08-04T06:23:54.278Z</time>
      </trkpt>
      <trkpt lat="45.94716" lon="6.8714">
        <ele>1690</ele>
        <time>2026-08-04T06:23:55.278Z</time>
      </trkpt>
      <trkpt lat="45.94717" lon="6.87141">
        <ele>1690</ele>
        <time>2026-08-04T06:23:56.278Z</time>
      </trkpt>
      <trkpt lat="45.94717" lon="6.87142">
        <ele>1690</ele>
        <time>2026-08-04T06:23:57.278Z</time>
      </trkpt>
      <trkpt lat="45.94717" lon="6.87143">
        <ele>1690</ele>
        <time>2026-08-04T06:23:58.278Z</time>
      </trkpt>
      <trkpt lat="45.94717" lon="6.87145">
        <ele>1689</ele>
        <time>2026-08-04T06:23:59.278Z</time>
      </trkpt>
      <trkpt lat="45.94717" lon="6.87146">
        <ele>1689</ele>
        <time>2026-08-04T06:24:00.278Z</time>
      </trkpt>
      <trkpt lat="45.94718" lon="6.87148">
        <ele>1689</ele>
        <time>2026-08-04T06:24:01.278Z</time>
      </trkpt>
      <trkpt lat="45.94718" lon="6.87149">
        <ele>1689</ele>
        <time>2026-08-04T06:24:02.278Z</time>
      </trkpt>
      <trkpt lat="45.94718" lon="6.87151">
        <ele>1688</ele>
        <time>2026-08-04T06:24:03.278Z</time>
      </trkpt>
      <trkpt lat="45.94717" lon="6.87153">
        <ele>1688</ele>
        <time>2026-08-04T06:24:04.278Z</time>
      </trkpt>
      <trkpt lat="45.94717" lon="6.87155">
        <ele>1688</ele>
        <time>2026-08-04T06:24:05.278Z</time>
      </trkpt>
      <trkpt lat="45.94717" lon="6.87156">
        <ele>1688</ele>
        <time>2026-08-04T06:24:06.278Z</time>
      </trkpt>
      <trkpt lat="45.94718" lon="6.87158">
        <ele>1687</ele>
        <time>2026-08-04T06:24:07.278Z</time>
      </trkpt>
      <trkpt lat="45.94718" lon="6.8716">
        <ele>1687</ele>
        <time>2026-08-04T06:24:08.278Z</time>
      </trkpt>
      <trkpt lat="45.94719" lon="6.87161">
        <ele>1686</ele>
        <time>2026-08-04T06:24:09.278Z</time>
      </trkpt>
      <trkpt lat="45.9472" lon="6.87163">
        <ele>1686</ele>
        <time>2026-08-04T06:24:10.278Z</time>
      </trkpt>
      <trkpt lat="45.94721" lon="6.87165">
        <ele>1686</ele>
        <time>2026-08-04T06:24:11.278Z</time>
      </trkpt>
      <trkpt lat="45.94721" lon="6.87167">
        <ele>1686</ele>
        <time>2026-08-04T06:24:12.278Z</time>
      </trkpt>
      <trkpt lat="45.94721" lon="6.87169">
        <ele>1686</ele>
        <time>2026-08-04T06:24:13.278Z</time>
      </trkpt>
      <trkpt lat="45.94722" lon="6.87169">
        <ele>1685</ele>
        <time>2026-08-04T06:24:14.278Z</time>
      </trkpt>
      <trkpt lat="45.94722" lon="6.8717">
        <ele>1685</ele>
        <time>2026-08-04T06:24:15.278Z</time>
      </trkpt>
      <trkpt lat="45.94722" lon="6.8717">
        <ele>1685</ele>
        <time>2026-08-04T06:24:16.278Z</time>
      </trkpt>
      <trkpt lat="45.94722" lon="6.8717">
        <ele>1685</ele>
        <time>2026-08-04T06:24:17.278Z</time>
      </trkpt>
      <trkpt lat="45.94722" lon="6.8717">
        <ele>1685</ele>
        <time>2026-08-04T06:24:18.278Z</time>
      </trkpt>
      <trkpt lat="45.94723" lon="6.8717">
        <ele>1685</ele>
        <time>2026-08-04T06:24:19.278Z</time>
      </trkpt>
      <trkpt lat="45.94723" lon="6.87169">
        <ele>1685</ele>
        <time>2026-08-04T06:24:20.278Z</time>
      </trkpt>
      <trkpt lat="45.94722" lon="6.87168">
        <ele>1685</ele>
        <time>2026-08-04T06:24:21.278Z</time>
      </trkpt>
      <trkpt lat="45.94722" lon="6.87167">
        <ele>1685</ele>
        <time>2026-08-04T06:24:22.278Z</time>
      </trkpt>
      <trkpt lat="45.94722" lon="6.87166">
        <ele>1686</ele>
        <time>2026-08-04T06:24:23.278Z</time>
      </trkpt>
      <trkpt lat="45.94722" lon="6.87165">
        <ele>1686</ele>
        <time>2026-08-04T06:24:24.278Z</time>
      </trkpt>
      <trkpt lat="45.94723" lon="6.87164">
        <ele>1686</ele>
        <time>2026-08-04T06:24:25.278Z</time>
      </trkpt>
      <trkpt lat="45.94723" lon="6.87162">
        <ele>1687</ele>
        <time>2026-08-04T06:24:26.278Z</time>
      </trkpt>
      <trkpt lat="45.94724" lon="6.87161">
        <ele>1687</ele>
        <time>2026-08-04T06:24:27.278Z</time>
      </trkpt>
      <trkpt lat="45.94725" lon="6.8716">
        <ele>1688</ele>
        <time>2026-08-04T06:24:28.278Z</time>
      </trkpt>
      <trkpt lat="45.94725" lon="6.87159">
        <ele>1688</ele>
        <time>2026-08-04T06:24:29.278Z</time>
      </trkpt>
      <trkpt lat="45.94726" lon="6.87158">
        <ele>1689</ele>
        <time>2026-08-04T06:24:30.278Z</time>
      </trkpt>
      <trkpt lat="45.94727" lon="6.87156">
        <ele>1689</ele>
        <time>2026-08-04T06:24:31.278Z</time>
      </trkpt>
      <trkpt lat="45.94728" lon="6.87155">
        <ele>1690</ele>
        <time>2026-08-04T06:24:32.278Z</time>
      </trkpt>
      <trkpt lat="45.94729" lon="6.87154">
        <ele>1690</ele>
        <time>2026-08-04T06:24:33.278Z</time>
      </trkpt>
      <trkpt lat="45.9473" lon="6.87153">
        <ele>1691</ele>
        <time>2026-08-04T06:24:34.278Z</time>
      </trkpt>
      <trkpt lat="45.9473" lon="6.87152">
        <ele>1692</ele>
        <time>2026-08-04T06:24:35.278Z</time>
      </trkpt>
      <trkpt lat="45.9473" lon="6.8715">
        <ele>1692</ele>
        <time>2026-08-04T06:24:36.278Z</time>
      </trkpt>
      <trkpt lat="45.94731" lon="6.87149">
        <ele>1693</ele>
        <time>2026-08-04T06:24:37.278Z</time>
      </trkpt>
      <trkpt lat="45.94731" lon="6.87148">
        <ele>1693</ele>
        <time>2026-08-04T06:24:38.278Z</time>
      </trkpt>
      <trkpt lat="45.94733" lon="6.87148">
        <ele>1693</ele>
        <time>2026-08-04T06:24:39.278Z</time>
      </trkpt>
      <trkpt lat="45.94734" lon="6.87147">
        <ele>1694</ele>
        <time>2026-08-04T06:24:40.278Z</time>
      </trkpt>
      <trkpt lat="45.94734" lon="6.87146">
        <ele>1694</ele>
        <time>2026-08-04T06:24:41.278Z</time>
      </trkpt>
      <trkpt lat="45.94734" lon="6.87145">
        <ele>1694</ele>
        <time>2026-08-04T06:24:42.278Z</time>
      </trkpt>
      <trkpt lat="45.94734" lon="6.87144">
        <ele>1695</ele>
        <time>2026-08-04T06:24:43.278Z</time>
      </trkpt>
      <trkpt lat="45.94734" lon="6.87144">
        <ele>1695</ele>
        <time>2026-08-04T06:24:44.278Z</time>
      </trkpt>
      <trkpt lat="45.94735" lon="6.87142">
        <ele>1696</ele>
        <time>2026-08-04T06:24:45.278Z</time>
      </trkpt>
      <trkpt lat="45.94736" lon="6.87141">
        <ele>1696</ele>
        <time>2026-08-04T06:24:46.278Z</time>
      </trkpt>
      <trkpt lat="45.94736" lon="6.8714">
        <ele>1696</ele>
        <time>2026-08-04T06:24:47.278Z</time>
      </trkpt>
      <trkpt lat="45.94736" lon="6.8714">
        <ele>1697</ele>
        <time>2026-08-04T06:24:48.278Z</time>
      </trkpt>
      <trkpt lat="45.94736" lon="6.87141">
        <ele>1697</ele>
        <time>2026-08-04T06:24:49.278Z</time>
      </trkpt>
      <trkpt lat="45.94737" lon="6.87141">
        <ele>1697</ele>
        <time>2026-08-04T06:24:50.278Z</time>
      </trkpt>
      <trkpt lat="45.94737" lon="6.87142">
        <ele>1697</ele>
        <time>2026-08-04T06:24:51.278Z</time>
      </trkpt>
      <trkpt lat="45.94737" lon="6.87142">
        <ele>1697</ele>
        <time>2026-08-04T06:24:52.278Z</time>
      </trkpt>
      <trkpt lat="45.94738" lon="6.87143">
        <ele>1698</ele>
        <time>2026-08-04T06:24:53.278Z</time>
      </trkpt>
      <trkpt lat="45.94738" lon="6.87143">
        <ele>1698</ele>
        <time>2026-08-04T06:24:54.278Z</time>
      </trkpt>
      <trkpt lat="45.94738" lon="6.87144">
        <ele>1698</ele>
        <time>2026-08-04T06:24:55.278Z</time>
      </trkpt>
      <trkpt lat="45.94739" lon="6.87145">
        <ele>1699</ele>
        <time>2026-08-04T06:24:56.278Z</time>
      </trkpt>
      <trkpt lat="45.94739" lon="6.87146">
        <ele>1699</ele>
        <time>2026-08-04T06:24:57.278Z</time>
      </trkpt>
      <trkpt lat="45.94739" lon="6.87148">
        <ele>1699</ele>
        <time>2026-08-04T06:24:58.278Z</time>
      </trkpt>
      <trkpt lat="45.94739" lon="6.87149">
        <ele>1699</ele>
        <time>2026-08-04T06:24:59.278Z</time>
      </trkpt>
      <trkpt lat="45.94738" lon="6.8715">
        <ele>1699</ele>
        <time>2026-08-04T06:25:00.278Z</time>
      </trkpt>
      <trkpt lat="45.94738" lon="6.87151">
        <ele>1699</ele>
        <time>2026-08-04T06:25:01.278Z</time>
      </trkpt>
      <trkpt lat="45.94738" lon="6.87152">
        <ele>1699</ele>
        <time>2026-08-04T06:25:02.278Z</time>
      </trkpt>
      <trkpt lat="45.94738" lon="6.87154">
        <ele>1699</ele>
        <time>2026-08-04T06:25:03.278Z</time>
      </trkpt>
      <trkpt lat="45.94739" lon="6.87155">
        <ele>1699</ele>
        <time>2026-08-04T06:25:04.278Z</time>
      </trkpt>
      <trkpt lat="45.94739" lon="6.87157">
        <ele>1698</ele>
        <time>2026-08-04T06:25:05.278Z</time>
      </trkpt>
      <trkpt lat="45.94739" lon="6.87158">
        <ele>1698</ele>
        <time>2026-08-04T06:25:06.278Z</time>
      </trkpt>
      <trkpt lat="45.94739" lon="6.87158">
        <ele>1699</ele>
        <time>2026-08-04T06:25:07.278Z</time>
      </trkpt>
      <trkpt lat="45.94739" lon="6.87157">
        <ele>1699</ele>
        <time>2026-08-04T06:25:08.278Z</time>
      </trkpt>
      <trkpt lat="45.94739" lon="6.87157">
        <ele>1699</ele>
        <time>2026-08-04T06:25:09.278Z</time>
      </trkpt>
      <trkpt lat="45.94739" lon="6.87155">
        <ele>1699</ele>
        <time>2026-08-04T06:25:10.278Z</time>
      </trkpt>
      <trkpt lat="45.94739" lon="6.87154">
        <ele>1699</ele>
        <time>2026-08-04T06:25:11.279Z</time>
      </trkpt>
      <trkpt lat="45.9474" lon="6.87153">
        <ele>1700</ele>
        <time>2026-08-04T06:25:12.278Z</time>
      </trkpt>
      <trkpt lat="45.9474" lon="6.87152">
        <ele>1699</ele>
        <time>2026-08-04T06:25:13.278Z</time>
      </trkpt>
      <trkpt lat="45.9474" lon="6.87151">
        <ele>1699</ele>
        <time>2026-08-04T06:25:14.278Z</time>
      </trkpt>
      <trkpt lat="45.94741" lon="6.8715">
        <ele>1699</ele>
        <time>2026-08-04T06:25:15.278Z</time>
      </trkpt>
      <trkpt lat="45.94741" lon="6.87149">
        <ele>1699</ele>
        <time>2026-08-04T06:25:16.278Z</time>
      </trkpt>
      <trkpt lat="45.94741" lon="6.87148">
        <ele>1699</ele>
        <time>2026-08-04T06:25:17.278Z</time>
      </trkpt>
      <trkpt lat="45.94742" lon="6.87147">
        <ele>1699</ele>
        <time>2026-08-04T06:25:18.278Z</time>
      </trkpt>
      <trkpt lat="45.94742" lon="6.87147">
        <ele>1699</ele>
        <time>2026-08-04T06:25:19.278Z</time>
      </trkpt>
      <trkpt lat="45.94743" lon="6.87147">
        <ele>1699</ele>
        <time>2026-08-04T06:25:20.278Z</time>
      </trkpt>
      <trkpt lat="45.94743" lon="6.87145">
        <ele>1699</ele>
        <time>2026-08-04T06:25:21.278Z</time>
      </trkpt>
      <trkpt lat="45.94743" lon="6.87145">
        <ele>1699</ele>
        <time>2026-08-04T06:25:22.278Z</time>
      </trkpt>
      <trkpt lat="45.94743" lon="6.87145">
        <ele>1700</ele>
        <time>2026-08-04T06:25:23.278Z</time>
      </trkpt>
      <trkpt lat="45.94743" lon="6.87145">
        <ele>1700</ele>
        <time>2026-08-04T06:25:24.278Z</time>
      </trkpt>
      <trkpt lat="45.94743" lon="6.87144">
        <ele>1701</ele>
        <time>2026-08-04T06:25:25.278Z</time>
      </trkpt>
      <trkpt lat="45.94744" lon="6.87144">
        <ele>1701</ele>
        <time>2026-08-04T06:25:26.278Z</time>
      </trkpt>
      <trkpt lat="45.94744" lon="6.87144">
        <ele>1701</ele>
        <time>2026-08-04T06:25:27.278Z</time>
      </trkpt>
      <trkpt lat="45.94745" lon="6.87145">
        <ele>1702</ele>
        <time>2026-08-04T06:25:28.278Z</time>
      </trkpt>
      <trkpt lat="45.94744" lon="6.87146">
        <ele>1702</ele>
        <time>2026-08-04T06:25:29.278Z</time>
      </trkpt>
      <trkpt lat="45.94744" lon="6.87147">
        <ele>1702</ele>
        <time>2026-08-04T06:25:30.278Z</time>
      </trkpt>
      <trkpt lat="45.94744" lon="6.87148">
        <ele>1702</ele>
        <time>2026-08-04T06:25:31.278Z</time>
      </trkpt>
      <trkpt lat="45.94744" lon="6.87149">
        <ele>1701</ele>
        <time>2026-08-04T06:25:32.278Z</time>
      </trkpt>
      <trkpt lat="45.94744" lon="6.87149">
        <ele>1701</ele>
        <time>2026-08-04T06:25:33.278Z</time>
      </trkpt>
      <trkpt lat="45.94744" lon="6.87148">
        <ele>1701</ele>
        <time>2026-08-04T06:25:34.278Z</time>
      </trkpt>
      <trkpt lat="45.94744" lon="6.87148">
        <ele>1701</ele>
        <time>2026-08-04T06:25:35.278Z</time>
      </trkpt>
      <trkpt lat="45.94744" lon="6.87146">
        <ele>1701</ele>
        <time>2026-08-04T06:25:36.278Z</time>
      </trkpt>
      <trkpt lat="45.94744" lon="6.87145">
        <ele>1701</ele>
        <time>2026-08-04T06:25:37.278Z</time>
      </trkpt>
      <trkpt lat="45.94744" lon="6.87145">
        <ele>1702</ele>
        <time>2026-08-04T06:25:38.278Z</time>
      </trkpt>
      <trkpt lat="45.94745" lon="6.87144">
        <ele>1702</ele>
        <time>2026-08-04T06:25:39.278Z</time>
      </trkpt>
      <trkpt lat="45.94745" lon="6.87143">
        <ele>1702</ele>
        <time>2026-08-04T06:25:40.278Z</time>
      </trkpt>
      <trkpt lat="45.94746" lon="6.87142">
        <ele>1703</ele>
        <time>2026-08-04T06:25:41.278Z</time>
      </trkpt>
      <trkpt lat="45.94747" lon="6.87141">
        <ele>1703</ele>
        <time>2026-08-04T06:25:42.278Z</time>
      </trkpt>
      <trkpt lat="45.94748" lon="6.8714">
        <ele>1704</ele>
        <time>2026-08-04T06:25:43.278Z</time>
      </trkpt>
      <trkpt lat="45.94748" lon="6.8714">
        <ele>1704</ele>
        <time>2026-08-04T06:25:44.278Z</time>
      </trkpt>
      <trkpt lat="45.94749" lon="6.87139">
        <ele>1704</ele>
        <time>2026-08-04T06:25:45.278Z</time>
      </trkpt>
      <trkpt lat="45.94749" lon="6.87137">
        <ele>1705</ele>
        <time>2026-08-04T06:25:46.278Z</time>
      </trkpt>
      <trkpt lat="45.94749" lon="6.87137">
        <ele>1705</ele>
        <time>2026-08-04T06:25:47.278Z</time>
      </trkpt>
      <trkpt lat="45.94749" lon="6.87136">
        <ele>1706</ele>
        <time>2026-08-04T06:25:48.278Z</time>
      </trkpt>
      <trkpt lat="45.94749" lon="6.87136">
        <ele>1706</ele>
        <time>2026-08-04T06:25:49.278Z</time>
      </trkpt>
      <trkpt lat="45.94749" lon="6.87135">
        <ele>1707</ele>
        <time>2026-08-04T06:25:50.278Z</time>
      </trkpt>
      <trkpt lat="45.94749" lon="6.87134">
        <ele>1707</ele>
        <time>2026-08-04T06:25:51.278Z</time>
      </trkpt>
      <trkpt lat="45.9475" lon="6.87133">
        <ele>1708</ele>
        <time>2026-08-04T06:25:52.278Z</time>
      </trkpt>
      <trkpt lat="45.9475" lon="6.87131">
        <ele>1708</ele>
        <time>2026-08-04T06:25:53.278Z</time>
      </trkpt>
      <trkpt lat="45.9475" lon="6.87131">
        <ele>1709</ele>
        <time>2026-08-04T06:25:54.278Z</time>
      </trkpt>
      <trkpt lat="45.9475" lon="6.8713">
        <ele>1709</ele>
        <time>2026-08-04T06:25:55.278Z</time>
      </trkpt>
      <trkpt lat="45.9475" lon="6.87129">
        <ele>1710</ele>
        <time>2026-08-04T06:25:56.278Z</time>
      </trkpt>
      <trkpt lat="45.9475" lon="6.87128">
        <ele>1710</ele>
        <time>2026-08-04T06:25:57.278Z</time>
      </trkpt>
      <trkpt lat="45.9475" lon="6.87127">
        <ele>1711</ele>
        <time>2026-08-04T06:25:58.278Z</time>
      </trkpt>
      <trkpt lat="45.94749" lon="6.87126">
        <ele>1711</ele>
        <time>2026-08-04T06:25:59.278Z</time>
      </trkpt>
      <trkpt lat="45.94749" lon="6.87124">
        <ele>1712</ele>
        <time>2026-08-04T06:26:00.278Z</time>
      </trkpt>
      <trkpt lat="45.94749" lon="6.87123">
        <ele>1712</ele>
        <time>2026-08-04T06:26:01.278Z</time>
      </trkpt>
      <trkpt lat="45.9475" lon="6.87122">
        <ele>1713</ele>
        <time>2026-08-04T06:26:02.278Z</time>
      </trkpt>
      <trkpt lat="45.9475" lon="6.8712">
        <ele>1714</ele>
        <time>2026-08-04T06:26:03.278Z</time>
      </trkpt>
      <trkpt lat="45.94751" lon="6.87119">
        <ele>1714</ele>
        <time>2026-08-04T06:26:04.278Z</time>
      </trkpt>
      <trkpt lat="45.94752" lon="6.87118">
        <ele>1714</ele>
        <time>2026-08-04T06:26:05.278Z</time>
      </trkpt>
      <trkpt lat="45.94752" lon="6.87116">
        <ele>1714</ele>
        <time>2026-08-04T06:26:06.278Z</time>
      </trkpt>
      <trkpt lat="45.94752" lon="6.87114">
        <ele>1714</ele>
        <time>2026-08-04T06:26:07.278Z</time>
      </trkpt>
      <trkpt lat="45.94752" lon="6.87113">
        <ele>1715</ele>
        <time>2026-08-04T06:26:08.278Z</time>
      </trkpt>
      <trkpt lat="45.94752" lon="6.87112">
        <ele>1715</ele>
        <time>2026-08-04T06:26:09.278Z</time>
      </trkpt>
      <trkpt lat="45.94753" lon="6.87112">
        <ele>1715</ele>
        <time>2026-08-04T06:26:10.278Z</time>
      </trkpt>
      <trkpt lat="45.94753" lon="6.87111">
        <ele>1715</ele>
        <time>2026-08-04T06:26:11.278Z</time>
      </trkpt>
      <trkpt lat="45.94754" lon="6.87111">
        <ele>1716</ele>
        <time>2026-08-04T06:26:12.278Z</time>
      </trkpt>
      <trkpt lat="45.94754" lon="6.8711">
        <ele>1716</ele>
        <time>2026-08-04T06:26:13.278Z</time>
      </trkpt>
      <trkpt lat="45.94754" lon="6.8711">
        <ele>1717</ele>
        <time>2026-08-04T06:26:14.278Z</time>
      </trkpt>
      <trkpt lat="45.94754" lon="6.87109">
        <ele>1717</ele>
        <time>2026-08-04T06:26:15.278Z</time>
      </trkpt>
      <trkpt lat="45.94754" lon="6.87109">
        <ele>1718</ele>
        <time>2026-08-04T06:26:16.278Z</time>
      </trkpt>
      <trkpt lat="45.94754" lon="6.87108">
        <ele>1718</ele>
        <time>2026-08-04T06:26:17.278Z</time>
      </trkpt>
      <trkpt lat="45.94753" lon="6.87107">
        <ele>1719</ele>
        <time>2026-08-04T06:26:18.278Z</time>
      </trkpt>
      <trkpt lat="45.94753" lon="6.87106">
        <ele>1720</ele>
        <time>2026-08-04T06:26:19.278Z</time>
      </trkpt>
      <trkpt lat="45.94753" lon="6.87105">
        <ele>1720</ele>
        <time>2026-08-04T06:26:20.278Z</time>
      </trkpt>
      <trkpt lat="45.94753" lon="6.87104">
        <ele>1721</ele>
        <time>2026-08-04T06:26:21.278Z</time>
      </trkpt>
      <trkpt lat="45.94753" lon="6.87104">
        <ele>1721</ele>
        <time>2026-08-04T06:26:22.278Z</time>
      </trkpt>
      <trkpt lat="45.94753" lon="6.87103">
        <ele>1722</ele>
        <time>2026-08-04T06:26:23.278Z</time>
      </trkpt>
      <trkpt lat="45.94753" lon="6.87103">
        <ele>1722</ele>
        <time>2026-08-04T06:26:24.278Z</time>
      </trkpt>
      <trkpt lat="45.94753" lon="6.87102">
        <ele>1722</ele>
        <time>2026-08-04T06:26:25.278Z</time>
      </trkpt>
      <trkpt lat="45.94752" lon="6.87101">
        <ele>1723</ele>
        <time>2026-08-04T06:26:26.278Z</time>
      </trkpt>
      <trkpt lat="45.94751" lon="6.871">
        <ele>1723</ele>
        <time>2026-08-04T06:26:27.278Z</time>
      </trkpt>
      <trkpt lat="45.9475" lon="6.871">
        <ele>1724</ele>
        <time>2026-08-04T06:26:28.278Z</time>
      </trkpt>
      <trkpt lat="45.94749" lon="6.87099">
        <ele>1724</ele>
        <time>2026-08-04T06:26:29.278Z</time>
      </trkpt>
      <trkpt lat="45.94748" lon="6.87098">
        <ele>1724</ele>
        <time>2026-08-04T06:26:30.278Z</time>
      </trkpt>
      <trkpt lat="45.94747" lon="6.87097">
        <ele>1724</ele>
        <time>2026-08-04T06:26:31.278Z</time>
      </trkpt>
      <trkpt lat="45.94746" lon="6.87095">
        <ele>1724</ele>
        <time>2026-08-04T06:26:32.278Z</time>
      </trkpt>
      <trkpt lat="45.94745" lon="6.87094">
        <ele>1725</ele>
        <time>2026-08-04T06:26:33.278Z</time>
      </trkpt>
      <trkpt lat="45.94745" lon="6.87092">
        <ele>1725</ele>
        <time>2026-08-04T06:26:34.278Z</time>
      </trkpt>
      <trkpt lat="45.94745" lon="6.87091">
        <ele>1725</ele>
        <time>2026-08-04T06:26:35.278Z</time>
      </trkpt>
      <trkpt lat="45.94745" lon="6.87089">
        <ele>1725</ele>
        <time>2026-08-04T06:26:36.278Z</time>
      </trkpt>
      <trkpt lat="45.94744" lon="6.87087">
        <ele>1724</ele>
        <time>2026-08-04T06:26:37.278Z</time>
      </trkpt>
      <trkpt lat="45.94744" lon="6.87085">
        <ele>1724</ele>
        <time>2026-08-04T06:26:38.278Z</time>
      </trkpt>
      <trkpt lat="45.94744" lon="6.87083">
        <ele>1724</ele>
        <time>2026-08-04T06:26:39.278Z</time>
      </trkpt>
      <trkpt lat="45.94743" lon="6.8708">
        <ele>1724</ele>
        <time>2026-08-04T06:26:40.278Z</time>
      </trkpt>
      <trkpt lat="45.94742" lon="6.87077">
        <ele>1723</ele>
        <time>2026-08-04T06:26:41.278Z</time>
      </trkpt>
      <trkpt lat="45.94742" lon="6.87074">
        <ele>1723</ele>
        <time>2026-08-04T06:26:42.278Z</time>
      </trkpt>
      <trkpt lat="45.94741" lon="6.87071">
        <ele>1723</ele>
        <time>2026-08-04T06:26:43.278Z</time>
      </trkpt>
      <trkpt lat="45.94742" lon="6.8707">
        <ele>1723</ele>
        <time>2026-08-04T06:26:44.278Z</time>
      </trkpt>
      <trkpt lat="45.94742" lon="6.87069">
        <ele>1722</ele>
        <time>2026-08-04T06:26:45.278Z</time>
      </trkpt>
      <trkpt lat="45.94743" lon="6.87069">
        <ele>1722</ele>
        <time>2026-08-04T06:26:46.278Z</time>
      </trkpt>
      <trkpt lat="45.94743" lon="6.87068">
        <ele>1722</ele>
        <time>2026-08-04T06:26:47.278Z</time>
      </trkpt>
      <trkpt lat="45.94743" lon="6.87067">
        <ele>1722</ele>
        <time>2026-08-04T06:26:48.278Z</time>
      </trkpt>
      <trkpt lat="45.94743" lon="6.87065">
        <ele>1721</ele>
        <time>2026-08-04T06:26:49.278Z</time>
      </trkpt>
      <trkpt lat="45.94744" lon="6.87064">
        <ele>1721</ele>
        <time>2026-08-04T06:26:50.278Z</time>
      </trkpt>
      <trkpt lat="45.94743" lon="6.87063">
        <ele>1721</ele>
        <time>2026-08-04T06:26:51.278Z</time>
      </trkpt>
      <trkpt lat="45.94743" lon="6.87061">
        <ele>1721</ele>
        <time>2026-08-04T06:26:52.278Z</time>
      </trkpt>
      <trkpt lat="45.94742" lon="6.87059">
        <ele>1721</ele>
        <time>2026-08-04T06:26:53.278Z</time>
      </trkpt>
      <trkpt lat="45.94742" lon="6.87057">
        <ele>1722</ele>
        <time>2026-08-04T06:26:54.278Z</time>
      </trkpt>
      <trkpt lat="45.94742" lon="6.87055">
        <ele>1722</ele>
        <time>2026-08-04T06:26:55.278Z</time>
      </trkpt>
      <trkpt lat="45.94742" lon="6.87052">
        <ele>1723</ele>
        <time>2026-08-04T06:26:56.278Z</time>
      </trkpt>
      <trkpt lat="45.94741" lon="6.8705">
        <ele>1723</ele>
        <time>2026-08-04T06:26:57.278Z</time>
      </trkpt>
      <trkpt lat="45.9474" lon="6.87048">
        <ele>1724</ele>
        <time>2026-08-04T06:26:58.278Z</time>
      </trkpt>
      <trkpt lat="45.9474" lon="6.87047">
        <ele>1725</ele>
        <time>2026-08-04T06:26:59.278Z</time>
      </trkpt>
      <trkpt lat="45.9474" lon="6.87045">
        <ele>1725</ele>
        <time>2026-08-04T06:27:00.278Z</time>
      </trkpt>
      <trkpt lat="45.9474" lon="6.87043">
        <ele>1726</ele>
        <time>2026-08-04T06:27:01.278Z</time>
      </trkpt>
      <trkpt lat="45.9474" lon="6.87041">
        <ele>1726</ele>
        <time>2026-08-04T06:27:02.278Z</time>
      </trkpt>
      <trkpt lat="45.94741" lon="6.8704">
        <ele>1727</ele>
        <time>2026-08-04T06:27:03.278Z</time>
      </trkpt>
      <trkpt lat="45.94741" lon="6.87038">
        <ele>1727</ele>
        <time>2026-08-04T06:27:04.278Z</time>
      </trkpt>
      <trkpt lat="45.94741" lon="6.87037">
        <ele>1727</ele>
        <time>2026-08-04T06:27:05.278Z</time>
      </trkpt>
      <trkpt lat="45.94742" lon="6.87035">
        <ele>1727</ele>
        <time>2026-08-04T06:27:06.278Z</time>
      </trkpt>
      <trkpt lat="45.94742" lon="6.87033">
        <ele>1727</ele>
        <time>2026-08-04T06:27:07.278Z</time>
      </trkpt>
      <trkpt lat="45.94742" lon="6.87031">
        <ele>1727</ele>
        <time>2026-08-04T06:27:08.278Z</time>
      </trkpt>
      <trkpt lat="45.94743" lon="6.8703">
        <ele>1727</ele>
        <time>2026-08-04T06:27:09.278Z</time>
      </trkpt>
      <trkpt lat="45.94743" lon="6.8703">
        <ele>1727</ele>
        <time>2026-08-04T06:27:10.278Z</time>
      </trkpt>
      <trkpt lat="45.94745" lon="6.8703">
        <ele>1728</ele>
        <time>2026-08-04T06:27:11.278Z</time>
      </trkpt>
      <trkpt lat="45.94746" lon="6.8703">
        <ele>1728</ele>
        <time>2026-08-04T06:27:12.278Z</time>
      </trkpt>
      <trkpt lat="45.94746" lon="6.87029">
        <ele>1728</ele>
        <time>2026-08-04T06:27:13.278Z</time>
      </trkpt>
      <trkpt lat="45.94747" lon="6.87028">
        <ele>1729</ele>
        <time>2026-08-04T06:27:14.278Z</time>
      </trkpt>
      <trkpt lat="45.94748" lon="6.87026">
        <ele>1729</ele>
        <time>2026-08-04T06:27:15.278Z</time>
      </trkpt>
      <trkpt lat="45.94747" lon="6.87024">
        <ele>1729</ele>
        <time>2026-08-04T06:27:16.278Z</time>
      </trkpt>
      <trkpt lat="45.94747" lon="6.87021">
        <ele>1729</ele>
        <time>2026-08-04T06:27:17.278Z</time>
      </trkpt>
      <trkpt lat="45.94746" lon="6.87019">
        <ele>1729</ele>
        <time>2026-08-04T06:27:18.278Z</time>
      </trkpt>
      <trkpt lat="45.94746" lon="6.87017">
        <ele>1730</ele>
        <time>2026-08-04T06:27:19.278Z</time>
      </trkpt>
      <trkpt lat="45.94745" lon="6.87015">
        <ele>1730</ele>
        <time>2026-08-04T06:27:20.279Z</time>
      </trkpt>
      <trkpt lat="45.94746" lon="6.87014">
        <ele>1730</ele>
        <time>2026-08-04T06:27:21.278Z</time>
      </trkpt>
      <trkpt lat="45.94746" lon="6.87013">
        <ele>1731</ele>
        <time>2026-08-04T06:27:22.278Z</time>
      </trkpt>
      <trkpt lat="45.94746" lon="6.87012">
        <ele>1731</ele>
        <time>2026-08-04T06:27:23.278Z</time>
      </trkpt>
      <trkpt lat="45.94746" lon="6.87012">
        <ele>1731</ele>
        <time>2026-08-04T06:27:24.278Z</time>
      </trkpt>
      <trkpt lat="45.94746" lon="6.87012">
        <ele>1732</ele>
        <time>2026-08-04T06:27:25.278Z</time>
      </trkpt>
      <trkpt lat="45.94747" lon="6.87011">
        <ele>1732</ele>
        <time>2026-08-04T06:27:26.278Z</time>
      </trkpt>
      <trkpt lat="45.94747" lon="6.87011">
        <ele>1732</ele>
        <time>2026-08-04T06:27:27.278Z</time>
      </trkpt>
      <trkpt lat="45.94747" lon="6.8701">
        <ele>1733</ele>
        <time>2026-08-04T06:27:28.278Z</time>
      </trkpt>
      <trkpt lat="45.94747" lon="6.87009">
        <ele>1733</ele>
        <time>2026-08-04T06:27:29.278Z</time>
      </trkpt>
      <trkpt lat="45.94747" lon="6.87008">
        <ele>1734</ele>
        <time>2026-08-04T06:27:30.278Z</time>
      </trkpt>
      <trkpt lat="45.94748" lon="6.87007">
        <ele>1734</ele>
        <time>2026-08-04T06:27:31.278Z</time>
      </trkpt>
      <trkpt lat="45.94748" lon="6.87006">
        <ele>1735</ele>
        <time>2026-08-04T06:27:32.278Z</time>
      </trkpt>
      <trkpt lat="45.94749" lon="6.87005">
        <ele>1736</ele>
        <time>2026-08-04T06:27:33.278Z</time>
      </trkpt>
      <trkpt lat="45.94751" lon="6.87005">
        <ele>1736</ele>
        <time>2026-08-04T06:27:34.278Z</time>
      </trkpt>
      <trkpt lat="45.94751" lon="6.87004">
        <ele>1737</ele>
        <time>2026-08-04T06:27:35.278Z</time>
      </trkpt>
      <trkpt lat="45.94752" lon="6.87004">
        <ele>1737</ele>
        <time>2026-08-04T06:27:36.278Z</time>
      </trkpt>
      <trkpt lat="45.94752" lon="6.87004">
        <ele>1737</ele>
        <time>2026-08-04T06:27:37.278Z</time>
      </trkpt>
      <trkpt lat="45.94753" lon="6.87004">
        <ele>1738</ele>
        <time>2026-08-04T06:27:38.278Z</time>
      </trkpt>
      <trkpt lat="45.94753" lon="6.87004">
        <ele>1738</ele>
        <time>2026-08-04T06:27:39.278Z</time>
      </trkpt>
      <trkpt lat="45.94754" lon="6.87004">
        <ele>1738</ele>
        <time>2026-08-04T06:27:40.278Z</time>
      </trkpt>
      <trkpt lat="45.94754" lon="6.87004">
        <ele>1738</ele>
        <time>2026-08-04T06:27:41.278Z</time>
      </trkpt>
      <trkpt lat="45.94754" lon="6.87003">
        <ele>1738</ele>
        <time>2026-08-04T06:27:42.278Z</time>
      </trkpt>
      <trkpt lat="45.94754" lon="6.87003">
        <ele>1738</ele>
        <time>2026-08-04T06:27:43.278Z</time>
      </trkpt>
      <trkpt lat="45.94754" lon="6.87002">
        <ele>1738</ele>
        <time>2026-08-04T06:27:44.278Z</time>
      </trkpt>
      <trkpt lat="45.94754" lon="6.87002">
        <ele>1738</ele>
        <time>2026-08-04T06:27:45.278Z</time>
      </trkpt>
      <trkpt lat="45.94754" lon="6.87001">
        <ele>1738</ele>
        <time>2026-08-04T06:27:46.278Z</time>
      </trkpt>
      <trkpt lat="45.94754" lon="6.86999">
        <ele>1738</ele>
        <time>2026-08-04T06:27:47.278Z</time>
      </trkpt>
      <trkpt lat="45.94753" lon="6.86997">
        <ele>1739</ele>
        <time>2026-08-04T06:27:48.278Z</time>
      </trkpt>
      <trkpt lat="45.94752" lon="6.86995">
        <ele>1740</ele>
        <time>2026-08-04T06:27:49.278Z</time>
      </trkpt>
      <trkpt lat="45.94751" lon="6.86994">
        <ele>1740</ele>
        <time>2026-08-04T06:27:50.278Z</time>
      </trkpt>
      <trkpt lat="45.94749" lon="6.86992">
        <ele>1741</ele>
        <time>2026-08-04T06:27:51.278Z</time>
      </trkpt>
      <trkpt lat="45.94748" lon="6.86989">
        <ele>1742</ele>
        <time>2026-08-04T06:27:52.278Z</time>
      </trkpt>
      <trkpt lat="45.94748" lon="6.86988">
        <ele>1743</ele>
        <time>2026-08-04T06:27:53.278Z</time>
      </trkpt>
      <trkpt lat="45.94747" lon="6.86987">
        <ele>1743</ele>
        <time>2026-08-04T06:27:54.278Z</time>
      </trkpt>
      <trkpt lat="45.94747" lon="6.86987">
        <ele>1744</ele>
        <time>2026-08-04T06:27:55.278Z</time>
      </trkpt>
      <trkpt lat="45.94747" lon="6.86986">
        <ele>1745</ele>
        <time>2026-08-04T06:27:56.278Z</time>
      </trkpt>
      <trkpt lat="45.94746" lon="6.86985">
        <ele>1746</ele>
        <time>2026-08-04T06:27:57.278Z</time>
      </trkpt>
      <trkpt lat="45.94746" lon="6.86984">
        <ele>1747</ele>
        <time>2026-08-04T06:27:58.278Z</time>
      </trkpt>
      <trkpt lat="45.94746" lon="6.86984">
        <ele>1748</ele>
        <time>2026-08-04T06:27:59.278Z</time>
      </trkpt>
      <trkpt lat="45.94746" lon="6.86984">
        <ele>1749</ele>
        <time>2026-08-04T06:28:00.278Z</time>
      </trkpt>
      <trkpt lat="45.94745" lon="6.86984">
        <ele>1749</ele>
        <time>2026-08-04T06:28:01.278Z</time>
      </trkpt>
      <trkpt lat="45.94743" lon="6.86984">
        <ele>1750</ele>
        <time>2026-08-04T06:28:02.278Z</time>
      </trkpt>
      <trkpt lat="45.94742" lon="6.86984">
        <ele>1752</ele>
        <time>2026-08-04T06:28:03.278Z</time>
      </trkpt>
      <trkpt lat="45.94741" lon="6.86983">
        <ele>1753</ele>
        <time>2026-08-04T06:28:04.278Z</time>
      </trkpt>
      <trkpt lat="45.94741" lon="6.86982">
        <ele>1754</ele>
        <time>2026-08-04T06:28:05.278Z</time>
      </trkpt>
      <trkpt lat="45.9474" lon="6.86981">
        <ele>1755</ele>
        <time>2026-08-04T06:28:06.278Z</time>
      </trkpt>
      <trkpt lat="45.9474" lon="6.86981">
        <ele>1756</ele>
        <time>2026-08-04T06:28:07.278Z</time>
      </trkpt>
      <trkpt lat="45.94739" lon="6.8698">
        <ele>1756</ele>
        <time>2026-08-04T06:28:08.278Z</time>
      </trkpt>
      <trkpt lat="45.94738" lon="6.86979">
        <ele>1757</ele>
        <time>2026-08-04T06:28:09.278Z</time>
      </trkpt>
      <trkpt lat="45.94737" lon="6.86979">
        <ele>1758</ele>
        <time>2026-08-04T06:28:10.278Z</time>
      </trkpt>
      <trkpt lat="45.94736" lon="6.86979">
        <ele>1759</ele>
        <time>2026-08-04T06:28:11.278Z</time>
      </trkpt>
      <trkpt lat="45.94736" lon="6.86979">
        <ele>1759</ele>
        <time>2026-08-04T06:28:12.278Z</time>
      </trkpt>
      <trkpt lat="45.94735" lon="6.86978">
        <ele>1760</ele>
        <time>2026-08-04T06:28:13.278Z</time>
      </trkpt>
      <trkpt lat="45.94734" lon="6.86976">
        <ele>1760</ele>
        <time>2026-08-04T06:28:14.278Z</time>
      </trkpt>
      <trkpt lat="45.94733" lon="6.86975">
        <ele>1760</ele>
        <time>2026-08-04T06:28:15.278Z</time>
      </trkpt>
      <trkpt lat="45.94732" lon="6.86972">
        <ele>1760</ele>
        <time>2026-08-04T06:28:16.278Z</time>
      </trkpt>
      <trkpt lat="45.94731" lon="6.8697">
        <ele>1759</ele>
        <time>2026-08-04T06:28:17.278Z</time>
      </trkpt>
      <trkpt lat="45.94732" lon="6.8697">
        <ele>1759</ele>
        <time>2026-08-04T06:28:18.278Z</time>
      </trkpt>
      <trkpt lat="45.94732" lon="6.86968">
        <ele>1759</ele>
        <time>2026-08-04T06:28:19.278Z</time>
      </trkpt>
      <trkpt lat="45.94733" lon="6.86967">
        <ele>1758</ele>
        <time>2026-08-04T06:28:20.278Z</time>
      </trkpt>
      <trkpt lat="45.94733" lon="6.86967">
        <ele>1758</ele>
        <time>2026-08-04T06:28:21.278Z</time>
      </trkpt>
      <trkpt lat="45.94734" lon="6.86967">
        <ele>1758</ele>
        <time>2026-08-04T06:28:22.278Z</time>
      </trkpt>
      <trkpt lat="45.94735" lon="6.86967">
        <ele>1758</ele>
        <time>2026-08-04T06:28:23.278Z</time>
      </trkpt>
      <trkpt lat="45.94735" lon="6.86967">
        <ele>1757</ele>
        <time>2026-08-04T06:28:24.278Z</time>
      </trkpt>
      <trkpt lat="45.94735" lon="6.86968">
        <ele>1757</ele>
        <time>2026-08-04T06:28:25.278Z</time>
      </trkpt>
      <trkpt lat="45.94736" lon="6.86967">
        <ele>1757</ele>
        <time>2026-08-04T06:28:26.278Z</time>
      </trkpt>
      <trkpt lat="45.94736" lon="6.86967">
        <ele>1757</ele>
        <time>2026-08-04T06:28:27.278Z</time>
      </trkpt>
      <trkpt lat="45.94736" lon="6.86966">
        <ele>1757</ele>
        <time>2026-08-04T06:28:28.278Z</time>
      </trkpt>
      <trkpt lat="45.94736" lon="6.86967">
        <ele>1756</ele>
        <time>2026-08-04T06:28:29.278Z</time>
      </trkpt>
      <trkpt lat="45.94736" lon="6.86967">
        <ele>1756</ele>
        <time>2026-08-04T06:28:30.278Z</time>
      </trkpt>
      <trkpt lat="45.94736" lon="6.86966">
        <ele>1756</ele>
        <time>2026-08-04T06:28:31.278Z</time>
      </trkpt>
      <trkpt lat="45.94736" lon="6.86966">
        <ele>1755</ele>
        <time>2026-08-04T06:28:32.278Z</time>
      </trkpt>
      <trkpt lat="45.94737" lon="6.86966">
        <ele>1755</ele>
        <time>2026-08-04T06:28:33.278Z</time>
      </trkpt>
      <trkpt lat="45.94737" lon="6.86966">
        <ele>1755</ele>
        <time>2026-08-04T06:28:34.278Z</time>
      </trkpt>
      <trkpt lat="45.94737" lon="6.86966">
        <ele>1754</ele>
        <time>2026-08-04T06:28:35.278Z</time>
      </trkpt>
      <trkpt lat="45.94738" lon="6.86966">
        <ele>1754</ele>
        <time>2026-08-04T06:28:36.278Z</time>
      </trkpt>
      <trkpt lat="45.94738" lon="6.86966">
        <ele>1754</ele>
        <time>2026-08-04T06:28:37.278Z</time>
      </trkpt>
      <trkpt lat="45.94739" lon="6.86967">
        <ele>1754</ele>
        <time>2026-08-04T06:28:38.278Z</time>
      </trkpt>
      <trkpt lat="45.9474" lon="6.86967">
        <ele>1754</ele>
        <time>2026-08-04T06:28:39.278Z</time>
      </trkpt>
      <trkpt lat="45.94741" lon="6.86968">
        <ele>1754</ele>
        <time>2026-08-04T06:28:40.278Z</time>
      </trkpt>
      <trkpt lat="45.94743" lon="6.86968">
        <ele>1754</ele>
        <time>2026-08-04T06:28:41.278Z</time>
      </trkpt>
      <trkpt lat="45.94744" lon="6.86967">
        <ele>1754</ele>
        <time>2026-08-04T06:28:42.278Z</time>
      </trkpt>
      <trkpt lat="45.94744" lon="6.86967">
        <ele>1754</ele>
        <time>2026-08-04T06:28:43.278Z</time>
      </trkpt>
      <trkpt lat="45.94745" lon="6.86967">
        <ele>1755</ele>
        <time>2026-08-04T06:28:44.278Z</time>
      </trkpt>
      <trkpt lat="45.94746" lon="6.86968">
        <ele>1755</ele>
        <time>2026-08-04T06:28:45.278Z</time>
      </trkpt>
      <trkpt lat="45.94748" lon="6.86967">
        <ele>1755</ele>
        <time>2026-08-04T06:28:46.278Z</time>
      </trkpt>
      <trkpt lat="45.94749" lon="6.86967">
        <ele>1755</ele>
        <time>2026-08-04T06:28:47.278Z</time>
      </trkpt>
      <trkpt lat="45.9475" lon="6.86966">
        <ele>1755</ele>
        <time>2026-08-04T06:28:48.278Z</time>
      </trkpt>
      <trkpt lat="45.9475" lon="6.86966">
        <ele>1756</ele>
        <time>2026-08-04T06:28:49.278Z</time>
      </trkpt>
      <trkpt lat="45.9475" lon="6.86965">
        <ele>1756</ele>
        <time>2026-08-04T06:28:50.278Z</time>
      </trkpt>
      <trkpt lat="45.9475" lon="6.86965">
        <ele>1756</ele>
        <time>2026-08-04T06:28:51.278Z</time>
      </trkpt>
      <trkpt lat="45.94751" lon="6.86965">
        <ele>1757</ele>
        <time>2026-08-04T06:28:52.278Z</time>
      </trkpt>
      <trkpt lat="45.94751" lon="6.86965">
        <ele>1757</ele>
        <time>2026-08-04T06:28:53.278Z</time>
      </trkpt>
      <trkpt lat="45.94752" lon="6.86965">
        <ele>1757</ele>
        <time>2026-08-04T06:28:54.278Z</time>
      </trkpt>
      <trkpt lat="45.94753" lon="6.86965">
        <ele>1758</ele>
        <time>2026-08-04T06:28:55.278Z</time>
      </trkpt>
      <trkpt lat="45.94754" lon="6.86965">
        <ele>1758</ele>
        <time>2026-08-04T06:28:56.278Z</time>
      </trkpt>
      <trkpt lat="45.94755" lon="6.86964">
        <ele>1759</ele>
        <time>2026-08-04T06:28:57.278Z</time>
      </trkpt>
      <trkpt lat="45.94756" lon="6.86965">
        <ele>1759</ele>
        <time>2026-08-04T06:28:58.278Z</time>
      </trkpt>
      <trkpt lat="45.94758" lon="6.86965">
        <ele>1760</ele>
        <time>2026-08-04T06:28:59.278Z</time>
      </trkpt>
      <trkpt lat="45.94758" lon="6.86966">
        <ele>1760</ele>
        <time>2026-08-04T06:29:00.278Z</time>
      </trkpt>
      <trkpt lat="45.94759" lon="6.86967">
        <ele>1761</ele>
        <time>2026-08-04T06:29:01.278Z</time>
      </trkpt>
      <trkpt lat="45.94759" lon="6.86967">
        <ele>1762</ele>
        <time>2026-08-04T06:29:02.278Z</time>
      </trkpt>
      <trkpt lat="45.94759" lon="6.86968">
        <ele>1762</ele>
        <time>2026-08-04T06:29:03.278Z</time>
      </trkpt>
      <trkpt lat="45.9476" lon="6.86969">
        <ele>1763</ele>
        <time>2026-08-04T06:29:04.278Z</time>
      </trkpt>
      <trkpt lat="45.9476" lon="6.8697">
        <ele>1763</ele>
        <time>2026-08-04T06:29:05.278Z</time>
      </trkpt>
      <trkpt lat="45.94761" lon="6.8697">
        <ele>1763</ele>
        <time>2026-08-04T06:29:06.278Z</time>
      </trkpt>
      <trkpt lat="45.94761" lon="6.86971">
        <ele>1764</ele>
        <time>2026-08-04T06:29:07.278Z</time>
      </trkpt>
      <trkpt lat="45.94761" lon="6.86971">
        <ele>1764</ele>
        <time>2026-08-04T06:29:08.278Z</time>
      </trkpt>
      <trkpt lat="45.94762" lon="6.86972">
        <ele>1765</ele>
        <time>2026-08-04T06:29:09.278Z</time>
      </trkpt>
      <trkpt lat="45.94764" lon="6.86973">
        <ele>1765</ele>
        <time>2026-08-04T06:29:10.278Z</time>
      </trkpt>
      <trkpt lat="45.94764" lon="6.86973">
        <ele>1766</ele>
        <time>2026-08-04T06:29:11.278Z</time>
      </trkpt>
      <trkpt lat="45.94765" lon="6.86972">
        <ele>1766</ele>
        <time>2026-08-04T06:29:12.278Z</time>
      </trkpt>
      <trkpt lat="45.94765" lon="6.86972">
        <ele>1766</ele>
        <time>2026-08-04T06:29:13.278Z</time>
      </trkpt>
      <trkpt lat="45.94765" lon="6.86972">
        <ele>1766</ele>
        <time>2026-08-04T06:29:14.278Z</time>
      </trkpt>
      <trkpt lat="45.94765" lon="6.86971">
        <ele>1766</ele>
        <time>2026-08-04T06:29:15.278Z</time>
      </trkpt>
      <trkpt lat="45.94766" lon="6.86971">
        <ele>1766</ele>
        <time>2026-08-04T06:29:16.278Z</time>
      </trkpt>
      <trkpt lat="45.94766" lon="6.86969">
        <ele>1765</ele>
        <time>2026-08-04T06:29:17.278Z</time>
      </trkpt>
      <trkpt lat="45.94766" lon="6.86969">
        <ele>1765</ele>
        <time>2026-08-04T06:29:18.278Z</time>
      </trkpt>
      <trkpt lat="45.94766" lon="6.86967">
        <ele>1766</ele>
        <time>2026-08-04T06:29:19.278Z</time>
      </trkpt>
      <trkpt lat="45.94767" lon="6.86967">
        <ele>1766</ele>
        <time>2026-08-04T06:29:20.278Z</time>
      </trkpt>
      <trkpt lat="45.94767" lon="6.86966">
        <ele>1766</ele>
        <time>2026-08-04T06:29:21.278Z</time>
      </trkpt>
      <trkpt lat="45.94768" lon="6.86965">
        <ele>1766</ele>
        <time>2026-08-04T06:29:22.278Z</time>
      </trkpt>
      <trkpt lat="45.94769" lon="6.86965">
        <ele>1766</ele>
        <time>2026-08-04T06:29:23.278Z</time>
      </trkpt>
      <trkpt lat="45.9477" lon="6.86965">
        <ele>1766</ele>
        <time>2026-08-04T06:29:24.278Z</time>
      </trkpt>
      <trkpt lat="45.9477" lon="6.86966">
        <ele>1767</ele>
        <time>2026-08-04T06:29:25.278Z</time>
      </trkpt>
      <trkpt lat="45.94771" lon="6.86966">
        <ele>1767</ele>
        <time>2026-08-04T06:29:26.278Z</time>
      </trkpt>
      <trkpt lat="45.94772" lon="6.86967">
        <ele>1767</ele>
        <time>2026-08-04T06:29:27.278Z</time>
      </trkpt>
      <trkpt lat="45.94773" lon="6.86968">
        <ele>1767</ele>
        <time>2026-08-04T06:29:28.278Z</time>
      </trkpt>
      <trkpt lat="45.94773" lon="6.86968">
        <ele>1767</ele>
        <time>2026-08-04T06:29:29.278Z</time>
      </trkpt>
      <trkpt lat="45.94773" lon="6.86968">
        <ele>1767</ele>
        <time>2026-08-04T06:29:30.278Z</time>
      </trkpt>
      <trkpt lat="45.94773" lon="6.86969">
        <ele>1767</ele>
        <time>2026-08-04T06:29:31.278Z</time>
      </trkpt>
      <trkpt lat="45.94773" lon="6.8697">
        <ele>1767</ele>
        <time>2026-08-04T06:29:32.278Z</time>
      </trkpt>
      <trkpt lat="45.94774" lon="6.86971">
        <ele>1767</ele>
        <time>2026-08-04T06:29:33.278Z</time>
      </trkpt>
      <trkpt lat="45.94774" lon="6.86973">
        <ele>1767</ele>
        <time>2026-08-04T06:29:34.278Z</time>
      </trkpt>
      <trkpt lat="45.94775" lon="6.86975">
        <ele>1767</ele>
        <time>2026-08-04T06:29:35.278Z</time>
      </trkpt>
      <trkpt lat="45.94775" lon="6.86976">
        <ele>1766</ele>
        <time>2026-08-04T06:29:36.278Z</time>
      </trkpt>
      <trkpt lat="45.94775" lon="6.86977">
        <ele>1766</ele>
        <time>2026-08-04T06:29:37.278Z</time>
      </trkpt>
      <trkpt lat="45.94776" lon="6.86978">
        <ele>1766</ele>
        <time>2026-08-04T06:29:38.278Z</time>
      </trkpt>
      <trkpt lat="45.94776" lon="6.86979">
        <ele>1766</ele>
        <time>2026-08-04T06:29:39.278Z</time>
      </trkpt>
      <trkpt lat="45.94776" lon="6.86979">
        <ele>1766</ele>
        <time>2026-08-04T06:29:40.278Z</time>
      </trkpt>
      <trkpt lat="45.94777" lon="6.8698">
        <ele>1765</ele>
        <time>2026-08-04T06:29:41.278Z</time>
      </trkpt>
      <trkpt lat="45.94778" lon="6.86982">
        <ele>1765</ele>
        <time>2026-08-04T06:29:42.278Z</time>
      </trkpt>
      <trkpt lat="45.94778" lon="6.86984">
        <ele>1765</ele>
        <time>2026-08-04T06:29:43.278Z</time>
      </trkpt>
      <trkpt lat="45.94779" lon="6.86985">
        <ele>1765</ele>
        <time>2026-08-04T06:29:44.278Z</time>
      </trkpt>
      <trkpt lat="45.94779" lon="6.86987">
        <ele>1765</ele>
        <time>2026-08-04T06:29:45.278Z</time>
      </trkpt>
      <trkpt lat="45.94779" lon="6.86989">
        <ele>1765</ele>
        <time>2026-08-04T06:29:46.278Z</time>
      </trkpt>
      <trkpt lat="45.9478" lon="6.86991">
        <ele>1766</ele>
        <time>2026-08-04T06:29:47.278Z</time>
      </trkpt>
      <trkpt lat="45.9478" lon="6.86994">
        <ele>1766</ele>
        <time>2026-08-04T06:29:48.278Z</time>
      </trkpt>
      <trkpt lat="45.94781" lon="6.86995">
        <ele>1766</ele>
        <time>2026-08-04T06:29:49.278Z</time>
      </trkpt>
      <trkpt lat="45.94781" lon="6.86997">
        <ele>1765</ele>
        <time>2026-08-04T06:29:50.278Z</time>
      </trkpt>
      <trkpt lat="45.94781" lon="6.86999">
        <ele>1765</ele>
        <time>2026-08-04T06:29:51.278Z</time>
      </trkpt>
      <trkpt lat="45.94782" lon="6.87001">
        <ele>1766</ele>
        <time>2026-08-04T06:29:52.278Z</time>
      </trkpt>
      <trkpt lat="45.94782" lon="6.87004">
        <ele>1766</ele>
        <time>2026-08-04T06:29:53.278Z</time>
      </trkpt>
      <trkpt lat="45.94781" lon="6.87006">
        <ele>1766</ele>
        <time>2026-08-04T06:29:54.278Z</time>
      </trkpt>
      <trkpt lat="45.94782" lon="6.87007">
        <ele>1765</ele>
        <time>2026-08-04T06:29:55.278Z</time>
      </trkpt>
      <trkpt lat="45.94783" lon="6.87008">
        <ele>1765</ele>
        <time>2026-08-04T06:29:56.278Z</time>
      </trkpt>
      <trkpt lat="45.94783" lon="6.87009">
        <ele>1766</ele>
        <time>2026-08-04T06:29:57.278Z</time>
      </trkpt>
      <trkpt lat="45.94784" lon="6.8701">
        <ele>1766</ele>
        <time>2026-08-04T06:29:58.278Z</time>
      </trkpt>
      <trkpt lat="45.94784" lon="6.87011">
        <ele>1766</ele>
        <time>2026-08-04T06:29:59.278Z</time>
      </trkpt>
      <trkpt lat="45.94785" lon="6.87012">
        <ele>1766</ele>
        <time>2026-08-04T06:30:00.278Z</time>
      </trkpt>
      <trkpt lat="45.94785" lon="6.87011">
        <ele>1766</ele>
        <time>2026-08-04T06:30:01.278Z</time>
      </trkpt>
      <trkpt lat="45.94785" lon="6.87011">
        <ele>1766</ele>
        <time>2026-08-04T06:30:02.278Z</time>
      </trkpt>
      <trkpt lat="45.94786" lon="6.87011">
        <ele>1766</ele>
        <time>2026-08-04T06:30:03.278Z</time>
      </trkpt>
      <trkpt lat="45.94786" lon="6.87011">
        <ele>1767</ele>
        <time>2026-08-04T06:30:04.278Z</time>
      </trkpt>
      <trkpt lat="45.94786" lon="6.8701">
        <ele>1767</ele>
        <time>2026-08-04T06:30:05.278Z</time>
      </trkpt>
      <trkpt lat="45.94787" lon="6.8701">
        <ele>1767</ele>
        <time>2026-08-04T06:30:06.278Z</time>
      </trkpt>
      <trkpt lat="45.94787" lon="6.87008">
        <ele>1767</ele>
        <time>2026-08-04T06:30:07.278Z</time>
      </trkpt>
      <trkpt lat="45.94787" lon="6.87007">
        <ele>1767</ele>
        <time>2026-08-04T06:30:08.278Z</time>
      </trkpt>
      <trkpt lat="45.94788" lon="6.87007">
        <ele>1767</ele>
        <time>2026-08-04T06:30:09.278Z</time>
      </trkpt>
      <trkpt lat="45.94789" lon="6.87007">
        <ele>1767</ele>
        <time>2026-08-04T06:30:10.278Z</time>
      </trkpt>
      <trkpt lat="45.94789" lon="6.87007">
        <ele>1767</ele>
        <time>2026-08-04T06:30:11.278Z</time>
      </trkpt>
      <trkpt lat="45.9479" lon="6.87006">
        <ele>1767</ele>
        <time>2026-08-04T06:30:12.278Z</time>
      </trkpt>
      <trkpt lat="45.9479" lon="6.87006">
        <ele>1767</ele>
        <time>2026-08-04T06:30:13.278Z</time>
      </trkpt>
      <trkpt lat="45.9479" lon="6.87006">
        <ele>1767</ele>
        <time>2026-08-04T06:30:14.278Z</time>
      </trkpt>
      <trkpt lat="45.9479" lon="6.87007">
        <ele>1767</ele>
        <time>2026-08-04T06:30:15.278Z</time>
      </trkpt>
      <trkpt lat="45.94791" lon="6.87008">
        <ele>1767</ele>
        <time>2026-08-04T06:30:16.278Z</time>
      </trkpt>
      <trkpt lat="45.94791" lon="6.87008">
        <ele>1767</ele>
        <time>2026-08-04T06:30:17.278Z</time>
      </trkpt>
      <trkpt lat="45.94791" lon="6.87009">
        <ele>1767</ele>
        <time>2026-08-04T06:30:18.278Z</time>
      </trkpt>
      <trkpt lat="45.94791" lon="6.8701">
        <ele>1767</ele>
        <time>2026-08-04T06:30:19.278Z</time>
      </trkpt>
      <trkpt lat="45.9479" lon="6.87011">
        <ele>1767</ele>
        <time>2026-08-04T06:30:20.278Z</time>
      </trkpt>
      <trkpt lat="45.9479" lon="6.87012">
        <ele>1767</ele>
        <time>2026-08-04T06:30:21.278Z</time>
      </trkpt>
      <trkpt lat="45.9479" lon="6.87012">
        <ele>1767</ele>
        <time>2026-08-04T06:30:22.278Z</time>
      </trkpt>
      <trkpt lat="45.94791" lon="6.87013">
        <ele>1767</ele>
        <time>2026-08-04T06:30:23.278Z</time>
      </trkpt>
      <trkpt lat="45.94791" lon="6.87014">
        <ele>1767</ele>
        <time>2026-08-04T06:30:24.278Z</time>
      </trkpt>
      <trkpt lat="45.94792" lon="6.87015">
        <ele>1767</ele>
        <time>2026-08-04T06:30:25.278Z</time>
      </trkpt>
      <trkpt lat="45.94792" lon="6.87015">
        <ele>1766</ele>
        <time>2026-08-04T06:30:26.278Z</time>
      </trkpt>
      <trkpt lat="45.94793" lon="6.87016">
        <ele>1766</ele>
        <time>2026-08-04T06:30:27.278Z</time>
      </trkpt>
      <trkpt lat="45.94794" lon="6.87017">
        <ele>1766</ele>
        <time>2026-08-04T06:30:28.278Z</time>
      </trkpt>
      <trkpt lat="45.94794" lon="6.87018">
        <ele>1765</ele>
        <time>2026-08-04T06:30:29.278Z</time>
      </trkpt>
      <trkpt lat="45.94793" lon="6.8702">
        <ele>1765</ele>
        <time>2026-08-04T06:30:30.278Z</time>
      </trkpt>
      <trkpt lat="45.94793" lon="6.87021">
        <ele>1765</ele>
        <time>2026-08-04T06:30:31.278Z</time>
      </trkpt>
      <trkpt lat="45.94793" lon="6.87022">
        <ele>1765</ele>
        <time>2026-08-04T06:30:32.278Z</time>
      </trkpt>
      <trkpt lat="45.94794" lon="6.87023">
        <ele>1766</ele>
        <time>2026-08-04T06:30:33.278Z</time>
      </trkpt>
      <trkpt lat="45.94794" lon="6.87024">
        <ele>1766</ele>
        <time>2026-08-04T06:30:34.278Z</time>
      </trkpt>
      <trkpt lat="45.94795" lon="6.87026">
        <ele>1767</ele>
        <time>2026-08-04T06:30:35.278Z</time>
      </trkpt>
      <trkpt lat="45.94795" lon="6.87027">
        <ele>1767</ele>
        <time>2026-08-04T06:30:36.278Z</time>
      </trkpt>
      <trkpt lat="45.94796" lon="6.87028">
        <ele>1767</ele>
        <time>2026-08-04T06:30:37.278Z</time>
      </trkpt>
      <trkpt lat="45.94797" lon="6.87028">
        <ele>1767</ele>
        <time>2026-08-04T06:30:38.278Z</time>
      </trkpt>
      <trkpt lat="45.94796" lon="6.87027">
        <ele>1768</ele>
        <time>2026-08-04T06:30:39.278Z</time>
      </trkpt>
      <trkpt lat="45.94797" lon="6.87027">
        <ele>1768</ele>
        <time>2026-08-04T06:30:40.278Z</time>
      </trkpt>
      <trkpt lat="45.94798" lon="6.87026">
        <ele>1769</ele>
        <time>2026-08-04T06:30:41.278Z</time>
      </trkpt>
      <trkpt lat="45.94799" lon="6.87025">
        <ele>1769</ele>
        <time>2026-08-04T06:30:42.278Z</time>
      </trkpt>
      <trkpt lat="45.94799" lon="6.87025">
        <ele>1769</ele>
        <time>2026-08-04T06:30:43.278Z</time>
      </trkpt>
      <trkpt lat="45.948" lon="6.87024">
        <ele>1770</ele>
        <time>2026-08-04T06:30:44.278Z</time>
      </trkpt>
      <trkpt lat="45.94801" lon="6.87023">
        <ele>1770</ele>
        <time>2026-08-04T06:30:45.278Z</time>
      </trkpt>
      <trkpt lat="45.94802" lon="6.87023">
        <ele>1770</ele>
        <time>2026-08-04T06:30:46.278Z</time>
      </trkpt>
      <trkpt lat="45.94802" lon="6.87022">
        <ele>1770</ele>
        <time>2026-08-04T06:30:47.278Z</time>
      </trkpt>
      <trkpt lat="45.94803" lon="6.87022">
        <ele>1771</ele>
        <time>2026-08-04T06:30:48.278Z</time>
      </trkpt>
      <trkpt lat="45.94803" lon="6.87021">
        <ele>1771</ele>
        <time>2026-08-04T06:30:49.278Z</time>
      </trkpt>
      <trkpt lat="45.94804" lon="6.8702">
        <ele>1771</ele>
        <time>2026-08-04T06:30:50.278Z</time>
      </trkpt>
      <trkpt lat="45.94804" lon="6.87019">
        <ele>1771</ele>
        <time>2026-08-04T06:30:51.278Z</time>
      </trkpt>
      <trkpt lat="45.94805" lon="6.87019">
        <ele>1771</ele>
        <time>2026-08-04T06:30:52.278Z</time>
      </trkpt>
      <trkpt lat="45.94806" lon="6.87019">
        <ele>1771</ele>
        <time>2026-08-04T06:30:53.278Z</time>
      </trkpt>
      <trkpt lat="45.94806" lon="6.87019">
        <ele>1772</ele>
        <time>2026-08-04T06:30:54.278Z</time>
      </trkpt>
      <trkpt lat="45.94806" lon="6.87019">
        <ele>1772</ele>
        <time>2026-08-04T06:30:55.278Z</time>
      </trkpt>
      <trkpt lat="45.94806" lon="6.87021">
        <ele>1772</ele>
        <time>2026-08-04T06:30:56.278Z</time>
      </trkpt>
      <trkpt lat="45.94807" lon="6.87021">
        <ele>1772</ele>
        <time>2026-08-04T06:30:57.278Z</time>
      </trkpt>
      <trkpt lat="45.94808" lon="6.87021">
        <ele>1773</ele>
        <time>2026-08-04T06:30:58.278Z</time>
      </trkpt>
      <trkpt lat="45.94809" lon="6.87021">
        <ele>1773</ele>
        <time>2026-08-04T06:30:59.278Z</time>
      </trkpt>
      <trkpt lat="45.9481" lon="6.87021">
        <ele>1773</ele>
        <time>2026-08-04T06:31:00.278Z</time>
      </trkpt>
      <trkpt lat="45.94811" lon="6.87021">
        <ele>1774</ele>
        <time>2026-08-04T06:31:01.278Z</time>
      </trkpt>
      <trkpt lat="45.9481" lon="6.87021">
        <ele>1774</ele>
        <time>2026-08-04T06:31:02.278Z</time>
      </trkpt>
      <trkpt lat="45.9481" lon="6.8702">
        <ele>1774</ele>
        <time>2026-08-04T06:31:03.278Z</time>
      </trkpt>
      <trkpt lat="45.9481" lon="6.87018">
        <ele>1774</ele>
        <time>2026-08-04T06:31:04.278Z</time>
      </trkpt>
      <trkpt lat="45.9481" lon="6.87017">
        <ele>1774</ele>
        <time>2026-08-04T06:31:05.278Z</time>
      </trkpt>
      <trkpt lat="45.94811" lon="6.87017">
        <ele>1774</ele>
        <time>2026-08-04T06:31:06.278Z</time>
      </trkpt>
      <trkpt lat="45.94812" lon="6.87017">
        <ele>1774</ele>
        <time>2026-08-04T06:31:07.278Z</time>
      </trkpt>
      <trkpt lat="45.94812" lon="6.87017">
        <ele>1774</ele>
        <time>2026-08-04T06:31:08.278Z</time>
      </trkpt>
      <trkpt lat="45.94813" lon="6.87016">
        <ele>1775</ele>
        <time>2026-08-04T06:31:09.278Z</time>
      </trkpt>
      <trkpt lat="45.94814" lon="6.87016">
        <ele>1775</ele>
        <time>2026-08-04T06:31:10.278Z</time>
      </trkpt>
      <trkpt lat="45.94815" lon="6.87016">
        <ele>1776</ele>
        <time>2026-08-04T06:31:11.278Z</time>
      </trkpt>
      <trkpt lat="45.94816" lon="6.87015">
        <ele>1776</ele>
        <time>2026-08-04T06:31:12.278Z</time>
      </trkpt>
      <trkpt lat="45.94817" lon="6.87013">
        <ele>1776</ele>
        <time>2026-08-04T06:31:13.278Z</time>
      </trkpt>
      <trkpt lat="45.94817" lon="6.87012">
        <ele>1777</ele>
        <time>2026-08-04T06:31:14.278Z</time>
      </trkpt>
      <trkpt lat="45.94817" lon="6.87011">
        <ele>1777</ele>
        <time>2026-08-04T06:31:15.278Z</time>
      </trkpt>
      <trkpt lat="45.94817" lon="6.87009">
        <ele>1778</ele>
        <time>2026-08-04T06:31:16.278Z</time>
      </trkpt>
      <trkpt lat="45.94817" lon="6.87008">
        <ele>1778</ele>
        <time>2026-08-04T06:31:17.278Z</time>
      </trkpt>
      <trkpt lat="45.94817" lon="6.87007">
        <ele>1779</ele>
        <time>2026-08-04T06:31:18.278Z</time>
      </trkpt>
      <trkpt lat="45.94818" lon="6.87007">
        <ele>1780</ele>
        <time>2026-08-04T06:31:19.278Z</time>
      </trkpt>
      <trkpt lat="45.94818" lon="6.87007">
        <ele>1781</ele>
        <time>2026-08-04T06:31:20.278Z</time>
      </trkpt>
      <trkpt lat="45.94819" lon="6.87007">
        <ele>1781</ele>
        <time>2026-08-04T06:31:21.278Z</time>
      </trkpt>
      <trkpt lat="45.94821" lon="6.87007">
        <ele>1781</ele>
        <time>2026-08-04T06:31:22.278Z</time>
      </trkpt>
      <trkpt lat="45.94822" lon="6.87007">
        <ele>1782</ele>
        <time>2026-08-04T06:31:23.278Z</time>
      </trkpt>
      <trkpt lat="45.94822" lon="6.87008">
        <ele>1782</ele>
        <time>2026-08-04T06:31:24.278Z</time>
      </trkpt>
      <trkpt lat="45.94823" lon="6.87008">
        <ele>1782</ele>
        <time>2026-08-04T06:31:25.278Z</time>
      </trkpt>
      <trkpt lat="45.94824" lon="6.87008">
        <ele>1782</ele>
        <time>2026-08-04T06:31:26.278Z</time>
      </trkpt>
      <trkpt lat="45.94825" lon="6.87007">
        <ele>1782</ele>
        <time>2026-08-04T06:31:27.278Z</time>
      </trkpt>
      <trkpt lat="45.94826" lon="6.87007">
        <ele>1782</ele>
        <time>2026-08-04T06:31:28.278Z</time>
      </trkpt>
      <trkpt lat="45.94827" lon="6.87007">
        <ele>1782</ele>
        <time>2026-08-04T06:31:29.278Z</time>
      </trkpt>
      <trkpt lat="45.94828" lon="6.87007">
        <ele>1782</ele>
        <time>2026-08-04T06:31:30.278Z</time>
      </trkpt>
      <trkpt lat="45.94829" lon="6.87006">
        <ele>1782</ele>
        <time>2026-08-04T06:31:31.278Z</time>
      </trkpt>
      <trkpt lat="45.9483" lon="6.87006">
        <ele>1783</ele>
        <time>2026-08-04T06:31:32.278Z</time>
      </trkpt>
      <trkpt lat="45.94831" lon="6.87006">
        <ele>1783</ele>
        <time>2026-08-04T06:31:33.278Z</time>
      </trkpt>
      <trkpt lat="45.94831" lon="6.87006">
        <ele>1783</ele>
        <time>2026-08-04T06:31:34.278Z</time>
      </trkpt>
      <trkpt lat="45.94832" lon="6.87005">
        <ele>1783</ele>
        <time>2026-08-04T06:31:35.278Z</time>
      </trkpt>
      <trkpt lat="45.94833" lon="6.87005">
        <ele>1783</ele>
        <time>2026-08-04T06:31:36.278Z</time>
      </trkpt>
      <trkpt lat="45.94834" lon="6.87005">
        <ele>1784</ele>
        <time>2026-08-04T06:31:37.278Z</time>
      </trkpt>
      <trkpt lat="45.94835" lon="6.87006">
        <ele>1784</ele>
        <time>2026-08-04T06:31:38.278Z</time>
      </trkpt>
      <trkpt lat="45.94836" lon="6.87006">
        <ele>1785</ele>
        <time>2026-08-04T06:31:39.278Z</time>
      </trkpt>
      <trkpt lat="45.94836" lon="6.87005">
        <ele>1785</ele>
        <time>2026-08-04T06:31:40.278Z</time>
      </trkpt>
      <trkpt lat="45.94837" lon="6.87005">
        <ele>1785</ele>
        <time>2026-08-04T06:31:41.278Z</time>
      </trkpt>
      <trkpt lat="45.94838" lon="6.87005">
        <ele>1784</ele>
        <time>2026-08-04T06:31:42.278Z</time>
      </trkpt>
      <trkpt lat="45.94839" lon="6.87005">
        <ele>1784</ele>
        <time>2026-08-04T06:31:43.278Z</time>
      </trkpt>
      <trkpt lat="45.9484" lon="6.87006">
        <ele>1784</ele>
        <time>2026-08-04T06:31:44.278Z</time>
      </trkpt>
      <trkpt lat="45.94842" lon="6.87007">
        <ele>1784</ele>
        <time>2026-08-04T06:31:45.278Z</time>
      </trkpt>
      <trkpt lat="45.94843" lon="6.87007">
        <ele>1784</ele>
        <time>2026-08-04T06:31:46.278Z</time>
      </trkpt>
      <trkpt lat="45.94844" lon="6.87007">
        <ele>1784</ele>
        <time>2026-08-04T06:31:47.278Z</time>
      </trkpt>
      <trkpt lat="45.94844" lon="6.87007">
        <ele>1784</ele>
        <time>2026-08-04T06:31:48.278Z</time>
      </trkpt>
      <trkpt lat="45.94845" lon="6.87007">
        <ele>1784</ele>
        <time>2026-08-04T06:31:49.278Z</time>
      </trkpt>
      <trkpt lat="45.94845" lon="6.87006">
        <ele>1784</ele>
        <time>2026-08-04T06:31:50.278Z</time>
      </trkpt>
      <trkpt lat="45.94846" lon="6.87006">
        <ele>1784</ele>
        <time>2026-08-04T06:31:51.278Z</time>
      </trkpt>
      <trkpt lat="45.94847" lon="6.87005">
        <ele>1785</ele>
        <time>2026-08-04T06:31:52.278Z</time>
      </trkpt>
      <trkpt lat="45.94848" lon="6.87005">
        <ele>1785</ele>
        <time>2026-08-04T06:31:53.278Z</time>
      </trkpt>
      <trkpt lat="45.94848" lon="6.87004">
        <ele>1786</ele>
        <time>2026-08-04T06:31:54.278Z</time>
      </trkpt>
      <trkpt lat="45.94848" lon="6.87003">
        <ele>1786</ele>
        <time>2026-08-04T06:31:55.278Z</time>
      </trkpt>
      <trkpt lat="45.94848" lon="6.87003">
        <ele>1786</ele>
        <time>2026-08-04T06:31:56.278Z</time>
      </trkpt>
      <trkpt lat="45.94849" lon="6.87003">
        <ele>1786</ele>
        <time>2026-08-04T06:31:57.278Z</time>
      </trkpt>
      <trkpt lat="45.94851" lon="6.87003">
        <ele>1786</ele>
        <time>2026-08-04T06:31:58.278Z</time>
      </trkpt>
      <trkpt lat="45.94852" lon="6.87004">
        <ele>1786</ele>
        <time>2026-08-04T06:31:59.278Z</time>
      </trkpt>
      <trkpt lat="45.94854" lon="6.87004">
        <ele>1786</ele>
        <time>2026-08-04T06:32:00.278Z</time>
      </trkpt>
      <trkpt lat="45.94856" lon="6.87004">
        <ele>1787</ele>
        <time>2026-08-04T06:32:01.278Z</time>
      </trkpt>
      <trkpt lat="45.94858" lon="6.87004">
        <ele>1786</ele>
        <time>2026-08-04T06:32:02.278Z</time>
      </trkpt>
      <trkpt lat="45.94859" lon="6.87004">
        <ele>1786</ele>
        <time>2026-08-04T06:32:03.278Z</time>
      </trkpt>
      <trkpt lat="45.9486" lon="6.87004">
        <ele>1787</ele>
        <time>2026-08-04T06:32:04.278Z</time>
      </trkpt>
      <trkpt lat="45.94862" lon="6.87005">
        <ele>1786</ele>
        <time>2026-08-04T06:32:05.278Z</time>
      </trkpt>
      <trkpt lat="45.94864" lon="6.87005">
        <ele>1786</ele>
        <time>2026-08-04T06:32:06.278Z</time>
      </trkpt>
      <trkpt lat="45.94866" lon="6.87004">
        <ele>1786</ele>
        <time>2026-08-04T06:32:07.278Z</time>
      </trkpt>
      <trkpt lat="45.94868" lon="6.87004">
        <ele>1786</ele>
        <time>2026-08-04T06:32:08.278Z</time>
      </trkpt>
      <trkpt lat="45.94869" lon="6.87004">
        <ele>1786</ele>
        <time>2026-08-04T06:32:09.278Z</time>
      </trkpt>
      <trkpt lat="45.9487" lon="6.87003">
        <ele>1786</ele>
        <time>2026-08-04T06:32:10.278Z</time>
      </trkpt>
      <trkpt lat="45.94871" lon="6.87002">
        <ele>1786</ele>
        <time>2026-08-04T06:32:11.278Z</time>
      </trkpt>
      <trkpt lat="45.94872" lon="6.87001">
        <ele>1786</ele>
        <time>2026-08-04T06:32:12.278Z</time>
      </trkpt>
      <trkpt lat="45.94873" lon="6.87001">
        <ele>1786</ele>
        <time>2026-08-04T06:32:13.278Z</time>
      </trkpt>
      <trkpt lat="45.94873" lon="6.86999">
        <ele>1787</ele>
        <time>2026-08-04T06:32:14.278Z</time>
      </trkpt>
      <trkpt lat="45.94874" lon="6.86999">
        <ele>1787</ele>
        <time>2026-08-04T06:32:15.278Z</time>
      </trkpt>
      <trkpt lat="45.94874" lon="6.86998">
        <ele>1788</ele>
        <time>2026-08-04T06:32:16.278Z</time>
      </trkpt>
      <trkpt lat="45.94873" lon="6.86997">
        <ele>1788</ele>
        <time>2026-08-04T06:32:17.278Z</time>
      </trkpt>
      <trkpt lat="45.94873" lon="6.86997">
        <ele>1788</ele>
        <time>2026-08-04T06:32:18.278Z</time>
      </trkpt>
      <trkpt lat="45.94872" lon="6.86996">
        <ele>1788</ele>
        <time>2026-08-04T06:32:19.278Z</time>
      </trkpt>
      <trkpt lat="45.94872" lon="6.86996">
        <ele>1789</ele>
        <time>2026-08-04T06:32:20.278Z</time>
      </trkpt>
      <trkpt lat="45.94871" lon="6.86995">
        <ele>1789</ele>
        <time>2026-08-04T06:32:21.278Z</time>
      </trkpt>
      <trkpt lat="45.9487" lon="6.86994">
        <ele>1789</ele>
        <time>2026-08-04T06:32:22.278Z</time>
      </trkpt>
      <trkpt lat="45.9487" lon="6.86993">
        <ele>1788</ele>
        <time>2026-08-04T06:32:23.278Z</time>
      </trkpt>
      <trkpt lat="45.94869" lon="6.86991">
        <ele>1788</ele>
        <time>2026-08-04T06:32:24.278Z</time>
      </trkpt>
      <trkpt lat="45.94869" lon="6.86989">
        <ele>1788</ele>
        <time>2026-08-04T06:32:25.278Z</time>
      </trkpt>
      <trkpt lat="45.94868" lon="6.86988">
        <ele>1788</ele>
        <time>2026-08-04T06:32:26.278Z</time>
      </trkpt>
      <trkpt lat="45.94868" lon="6.86986">
        <ele>1788</ele>
        <time>2026-08-04T06:32:27.278Z</time>
      </trkpt>
      <trkpt lat="45.94867" lon="6.86984">
        <ele>1787</ele>
        <time>2026-08-04T06:32:28.278Z</time>
      </trkpt>
      <trkpt lat="45.94867" lon="6.86982">
        <ele>1787</ele>
        <time>2026-08-04T06:32:29.278Z</time>
      </trkpt>
      <trkpt lat="45.94867" lon="6.86981">
        <ele>1786</ele>
        <time>2026-08-04T06:32:30.278Z</time>
      </trkpt>
      <trkpt lat="45.94867" lon="6.86979">
        <ele>1786</ele>
        <time>2026-08-04T06:32:31.278Z</time>
      </trkpt>
      <trkpt lat="45.94867" lon="6.86978">
        <ele>1786</ele>
        <time>2026-08-04T06:32:32.278Z</time>
      </trkpt>
      <trkpt lat="45.94867" lon="6.86976">
        <ele>1786</ele>
        <time>2026-08-04T06:32:33.278Z</time>
      </trkpt>
      <trkpt lat="45.94867" lon="6.86975">
        <ele>1786</ele>
        <time>2026-08-04T06:32:34.278Z</time>
      </trkpt>
      <trkpt lat="45.94866" lon="6.86973">
        <ele>1786</ele>
        <time>2026-08-04T06:32:35.278Z</time>
      </trkpt>
      <trkpt lat="45.94866" lon="6.86971">
        <ele>1786</ele>
        <time>2026-08-04T06:32:36.278Z</time>
      </trkpt>
      <trkpt lat="45.94867" lon="6.86969">
        <ele>1786</ele>
        <time>2026-08-04T06:32:37.278Z</time>
      </trkpt>
      <trkpt lat="45.94867" lon="6.86968">
        <ele>1786</ele>
        <time>2026-08-04T06:32:38.278Z</time>
      </trkpt>
      <trkpt lat="45.94867" lon="6.86966">
        <ele>1786</ele>
        <time>2026-08-04T06:32:39.278Z</time>
      </trkpt>
      <trkpt lat="45.94867" lon="6.86964">
        <ele>1786</ele>
        <time>2026-08-04T06:32:40.278Z</time>
      </trkpt>
      <trkpt lat="45.94868" lon="6.86963">
        <ele>1786</ele>
        <time>2026-08-04T06:32:41.278Z</time>
      </trkpt>
      <trkpt lat="45.94868" lon="6.86962">
        <ele>1787</ele>
        <time>2026-08-04T06:32:42.278Z</time>
      </trkpt>
      <trkpt lat="45.94869" lon="6.86961">
        <ele>1787</ele>
        <time>2026-08-04T06:32:43.278Z</time>
      </trkpt>
      <trkpt lat="45.9487" lon="6.8696">
        <ele>1788</ele>
        <time>2026-08-04T06:32:44.278Z</time>
      </trkpt>
      <trkpt lat="45.94871" lon="6.86959">
        <ele>1788</ele>
        <time>2026-08-04T06:32:45.278Z</time>
      </trkpt>
      <trkpt lat="45.94871" lon="6.86958">
        <ele>1788</ele>
        <time>2026-08-04T06:32:46.278Z</time>
      </trkpt>
      <trkpt lat="45.94872" lon="6.86957">
        <ele>1788</ele>
        <time>2026-08-04T06:32:47.278Z</time>
      </trkpt>
      <trkpt lat="45.94872" lon="6.86956">
        <ele>1788</ele>
        <time>2026-08-04T06:32:48.278Z</time>
      </trkpt>
      <trkpt lat="45.94873" lon="6.86955">
        <ele>1788</ele>
        <time>2026-08-04T06:32:49.278Z</time>
      </trkpt>
      <trkpt lat="45.94873" lon="6.86954">
        <ele>1789</ele>
        <time>2026-08-04T06:32:50.278Z</time>
      </trkpt>
      <trkpt lat="45.94874" lon="6.86954">
        <ele>1788</ele>
        <time>2026-08-04T06:32:51.278Z</time>
      </trkpt>
      <trkpt lat="45.94874" lon="6.86953">
        <ele>1788</ele>
        <time>2026-08-04T06:32:52.278Z</time>
      </trkpt>
      <trkpt lat="45.94875" lon="6.86952">
        <ele>1788</ele>
        <time>2026-08-04T06:32:53.278Z</time>
      </trkpt>
      <trkpt lat="45.94875" lon="6.8695">
        <ele>1789</ele>
        <time>2026-08-04T06:32:54.278Z</time>
      </trkpt>
      <trkpt lat="45.94876" lon="6.86949">
        <ele>1789</ele>
        <time>2026-08-04T06:32:55.278Z</time>
      </trkpt>
      <trkpt lat="45.94876" lon="6.86948">
        <ele>1789</ele>
        <time>2026-08-04T06:32:56.278Z</time>
      </trkpt>
      <trkpt lat="45.94876" lon="6.86947">
        <ele>1789</ele>
        <time>2026-08-04T06:32:57.278Z</time>
      </trkpt>
      <trkpt lat="45.94877" lon="6.86946">
        <ele>1790</ele>
        <time>2026-08-04T06:32:58.278Z</time>
      </trkpt>
      <trkpt lat="45.94878" lon="6.86946">
        <ele>1790</ele>
        <time>2026-08-04T06:32:59.278Z</time>
      </trkpt>
      <trkpt lat="45.94879" lon="6.86946">
        <ele>1790</ele>
        <time>2026-08-04T06:33:00.278Z</time>
      </trkpt>
      <trkpt lat="45.9488" lon="6.86946">
        <ele>1790</ele>
        <time>2026-08-04T06:33:01.278Z</time>
      </trkpt>
      <trkpt lat="45.94881" lon="6.86945">
        <ele>1790</ele>
        <time>2026-08-04T06:33:02.278Z</time>
      </trkpt>
      <trkpt lat="45.94881" lon="6.86944">
        <ele>1791</ele>
        <time>2026-08-04T06:33:03.278Z</time>
      </trkpt>
      <trkpt lat="45.94882" lon="6.86943">
        <ele>1791</ele>
        <time>2026-08-04T06:33:04.278Z</time>
      </trkpt>
      <trkpt lat="45.94882" lon="6.86942">
        <ele>1791</ele>
        <time>2026-08-04T06:33:05.278Z</time>
      </trkpt>
      <trkpt lat="45.94883" lon="6.86941">
        <ele>1791</ele>
        <time>2026-08-04T06:33:06.278Z</time>
      </trkpt>
      <trkpt lat="45.94883" lon="6.86941">
        <ele>1791</ele>
        <time>2026-08-04T06:33:07.278Z</time>
      </trkpt>
      <trkpt lat="45.94884" lon="6.86939">
        <ele>1792</ele>
        <time>2026-08-04T06:33:08.278Z</time>
      </trkpt>
      <trkpt lat="45.94885" lon="6.86938">
        <ele>1792</ele>
        <time>2026-08-04T06:33:09.278Z</time>
      </trkpt>
      <trkpt lat="45.94886" lon="6.86938">
        <ele>1792</ele>
        <time>2026-08-04T06:33:10.278Z</time>
      </trkpt>
      <trkpt lat="45.94887" lon="6.86937">
        <ele>1793</ele>
        <time>2026-08-04T06:33:11.278Z</time>
      </trkpt>
      <trkpt lat="45.94887" lon="6.86936">
        <ele>1793</ele>
        <time>2026-08-04T06:33:12.278Z</time>
      </trkpt>
      <trkpt lat="45.94888" lon="6.86935">
        <ele>1793</ele>
        <time>2026-08-04T06:33:13.278Z</time>
      </trkpt>
      <trkpt lat="45.94889" lon="6.86935">
        <ele>1794</ele>
        <time>2026-08-04T06:33:14.278Z</time>
      </trkpt>
      <trkpt lat="45.9489" lon="6.86935">
        <ele>1794</ele>
        <time>2026-08-04T06:33:15.278Z</time>
      </trkpt>
      <trkpt lat="45.94891" lon="6.86935">
        <ele>1794</ele>
        <time>2026-08-04T06:33:16.278Z</time>
      </trkpt>
      <trkpt lat="45.94893" lon="6.86935">
        <ele>1794</ele>
        <time>2026-08-04T06:33:17.278Z</time>
      </trkpt>
      <trkpt lat="45.94893" lon="6.86935">
        <ele>1794</ele>
        <time>2026-08-04T06:33:18.278Z</time>
      </trkpt>
      <trkpt lat="45.94894" lon="6.86935">
        <ele>1794</ele>
        <time>2026-08-04T06:33:19.278Z</time>
      </trkpt>
      <trkpt lat="45.94894" lon="6.86935">
        <ele>1794</ele>
        <time>2026-08-04T06:33:20.278Z</time>
      </trkpt>
      <trkpt lat="45.94895" lon="6.86934">
        <ele>1794</ele>
        <time>2026-08-04T06:33:21.278Z</time>
      </trkpt>
      <trkpt lat="45.94896" lon="6.86934">
        <ele>1794</ele>
        <time>2026-08-04T06:33:22.278Z</time>
      </trkpt>
      <trkpt lat="45.94896" lon="6.86933">
        <ele>1794</ele>
        <time>2026-08-04T06:33:23.278Z</time>
      </trkpt>
      <trkpt lat="45.94898" lon="6.86933">
        <ele>1794</ele>
        <time>2026-08-04T06:33:24.278Z</time>
      </trkpt>
      <trkpt lat="45.94899" lon="6.86932">
        <ele>1795</ele>
        <time>2026-08-04T06:33:25.278Z</time>
      </trkpt>
      <trkpt lat="45.949" lon="6.86932">
        <ele>1795</ele>
        <time>2026-08-04T06:33:26.278Z</time>
      </trkpt>
      <trkpt lat="45.94901" lon="6.86931">
        <ele>1796</ele>
        <time>2026-08-04T06:33:27.278Z</time>
      </trkpt>
      <trkpt lat="45.94902" lon="6.86931">
        <ele>1796</ele>
        <time>2026-08-04T06:33:28.278Z</time>
      </trkpt>
      <trkpt lat="45.94904" lon="6.86931">
        <ele>1796</ele>
        <time>2026-08-04T06:33:29.278Z</time>
      </trkpt>
      <trkpt lat="45.94905" lon="6.86932">
        <ele>1796</ele>
        <time>2026-08-04T06:33:30.278Z</time>
      </trkpt>
      <trkpt lat="45.94906" lon="6.86932">
        <ele>1796</ele>
        <time>2026-08-04T06:33:31.278Z</time>
      </trkpt>
      <trkpt lat="45.94908" lon="6.86932">
        <ele>1796</ele>
        <time>2026-08-04T06:33:32.278Z</time>
      </trkpt>
      <trkpt lat="45.94909" lon="6.86931">
        <ele>1796</ele>
        <time>2026-08-04T06:33:33.278Z</time>
      </trkpt>
      <trkpt lat="45.9491" lon="6.86931">
        <ele>1797</ele>
        <time>2026-08-04T06:33:34.278Z</time>
      </trkpt>
      <trkpt lat="45.94911" lon="6.8693">
        <ele>1797</ele>
        <time>2026-08-04T06:33:35.278Z</time>
      </trkpt>
      <trkpt lat="45.94912" lon="6.86929">
        <ele>1798</ele>
        <time>2026-08-04T06:33:36.278Z</time>
      </trkpt>
      <trkpt lat="45.94913" lon="6.86928">
        <ele>1799</ele>
        <time>2026-08-04T06:33:37.278Z</time>
      </trkpt>
      <trkpt lat="45.94914" lon="6.86928">
        <ele>1799</ele>
        <time>2026-08-04T06:33:38.278Z</time>
      </trkpt>
      <trkpt lat="45.94915" lon="6.86926">
        <ele>1800</ele>
        <time>2026-08-04T06:33:39.278Z</time>
      </trkpt>
      <trkpt lat="45.94916" lon="6.86925">
        <ele>1800</ele>
        <time>2026-08-04T06:33:40.278Z</time>
      </trkpt>
      <trkpt lat="45.94916" lon="6.86924">
        <ele>1800</ele>
        <time>2026-08-04T06:33:41.278Z</time>
      </trkpt>
      <trkpt lat="45.94917" lon="6.86923">
        <ele>1800</ele>
        <time>2026-08-04T06:33:42.278Z</time>
      </trkpt>
      <trkpt lat="45.94917" lon="6.86921">
        <ele>1800</ele>
        <time>2026-08-04T06:33:43.278Z</time>
      </trkpt>
      <trkpt lat="45.94917" lon="6.86919">
        <ele>1800</ele>
        <time>2026-08-04T06:33:44.278Z</time>
      </trkpt>
      <trkpt lat="45.94917" lon="6.86918">
        <ele>1800</ele>
        <time>2026-08-04T06:33:45.278Z</time>
      </trkpt>
      <trkpt lat="45.94918" lon="6.86916">
        <ele>1800</ele>
        <time>2026-08-04T06:33:46.278Z</time>
      </trkpt>
      <trkpt lat="45.94919" lon="6.86915">
        <ele>1800</ele>
        <time>2026-08-04T06:33:47.278Z</time>
      </trkpt>
      <trkpt lat="45.94919" lon="6.86914">
        <ele>1800</ele>
        <time>2026-08-04T06:33:48.278Z</time>
      </trkpt>
      <trkpt lat="45.9492" lon="6.86912">
        <ele>1800</ele>
        <time>2026-08-04T06:33:49.279Z</time>
      </trkpt>
      <trkpt lat="45.9492" lon="6.86911">
        <ele>1800</ele>
        <time>2026-08-04T06:33:50.278Z</time>
      </trkpt>
      <trkpt lat="45.9492" lon="6.8691">
        <ele>1800</ele>
        <time>2026-08-04T06:33:51.278Z</time>
      </trkpt>
      <trkpt lat="45.9492" lon="6.86908">
        <ele>1800</ele>
        <time>2026-08-04T06:33:52.278Z</time>
      </trkpt>
      <trkpt lat="45.94921" lon="6.86907">
        <ele>1799</ele>
        <time>2026-08-04T06:33:53.278Z</time>
      </trkpt>
      <trkpt lat="45.94921" lon="6.86906">
        <ele>1799</ele>
        <time>2026-08-04T06:33:54.278Z</time>
      </trkpt>
      <trkpt lat="45.94921" lon="6.86905">
        <ele>1799</ele>
        <time>2026-08-04T06:33:55.278Z</time>
      </trkpt>
      <trkpt lat="45.94921" lon="6.86904">
        <ele>1799</ele>
        <time>2026-08-04T06:33:56.278Z</time>
      </trkpt>
      <trkpt lat="45.94921" lon="6.86904">
        <ele>1800</ele>
        <time>2026-08-04T06:33:57.278Z</time>
      </trkpt>
      <trkpt lat="45.94921" lon="6.86903">
        <ele>1800</ele>
        <time>2026-08-04T06:33:58.278Z</time>
      </trkpt>
      <trkpt lat="45.94921" lon="6.86902">
        <ele>1800</ele>
        <time>2026-08-04T06:33:59.278Z</time>
      </trkpt>
      <trkpt lat="45.94921" lon="6.86901">
        <ele>1800</ele>
        <time>2026-08-04T06:34:00.278Z</time>
      </trkpt>
      <trkpt lat="45.94921" lon="6.869">
        <ele>1801</ele>
        <time>2026-08-04T06:34:01.278Z</time>
      </trkpt>
      <trkpt lat="45.94922" lon="6.86899">
        <ele>1802</ele>
        <time>2026-08-04T06:34:02.278Z</time>
      </trkpt>
      <trkpt lat="45.94922" lon="6.86898">
        <ele>1802</ele>
        <time>2026-08-04T06:34:03.278Z</time>
      </trkpt>
      <trkpt lat="45.94922" lon="6.86897">
        <ele>1802</ele>
        <time>2026-08-04T06:34:04.278Z</time>
      </trkpt>
      <trkpt lat="45.94922" lon="6.86896">
        <ele>1802</ele>
        <time>2026-08-04T06:34:05.278Z</time>
      </trkpt>
      <trkpt lat="45.94922" lon="6.86895">
        <ele>1803</ele>
        <time>2026-08-04T06:34:06.278Z</time>
      </trkpt>
      <trkpt lat="45.94922" lon="6.86894">
        <ele>1803</ele>
        <time>2026-08-04T06:34:07.278Z</time>
      </trkpt>
      <trkpt lat="45.94922" lon="6.86893">
        <ele>1803</ele>
        <time>2026-08-04T06:34:08.278Z</time>
      </trkpt>
      <trkpt lat="45.94922" lon="6.86892">
        <ele>1804</ele>
        <time>2026-08-04T06:34:09.278Z</time>
      </trkpt>
      <trkpt lat="45.94922" lon="6.86891">
        <ele>1804</ele>
        <time>2026-08-04T06:34:10.278Z</time>
      </trkpt>
      <trkpt lat="45.94921" lon="6.8689">
        <ele>1805</ele>
        <time>2026-08-04T06:34:11.278Z</time>
      </trkpt>
      <trkpt lat="45.94921" lon="6.86889">
        <ele>1805</ele>
        <time>2026-08-04T06:34:12.278Z</time>
      </trkpt>
      <trkpt lat="45.94921" lon="6.86888">
        <ele>1805</ele>
        <time>2026-08-04T06:34:13.278Z</time>
      </trkpt>
      <trkpt lat="45.94921" lon="6.86887">
        <ele>1806</ele>
        <time>2026-08-04T06:34:14.278Z</time>
      </trkpt>
      <trkpt lat="45.9492" lon="6.86886">
        <ele>1806</ele>
        <time>2026-08-04T06:34:15.278Z</time>
      </trkpt>
      <trkpt lat="45.9492" lon="6.86884">
        <ele>1806</ele>
        <time>2026-08-04T06:34:16.278Z</time>
      </trkpt>
      <trkpt lat="45.9492" lon="6.86883">
        <ele>1807</ele>
        <time>2026-08-04T06:34:17.278Z</time>
      </trkpt>
      <trkpt lat="45.9492" lon="6.86882">
        <ele>1807</ele>
        <time>2026-08-04T06:34:18.278Z</time>
      </trkpt>
      <trkpt lat="45.9492" lon="6.86881">
        <ele>1807</ele>
        <time>2026-08-04T06:34:19.278Z</time>
      </trkpt>
      <trkpt lat="45.9492" lon="6.8688">
        <ele>1808</ele>
        <time>2026-08-04T06:34:20.278Z</time>
      </trkpt>
      <trkpt lat="45.9492" lon="6.8688">
        <ele>1808</ele>
        <time>2026-08-04T06:34:21.278Z</time>
      </trkpt>
      <trkpt lat="45.9492" lon="6.86879">
        <ele>1808</ele>
        <time>2026-08-04T06:34:22.278Z</time>
      </trkpt>
      <trkpt lat="45.9492" lon="6.86878">
        <ele>1809</ele>
        <time>2026-08-04T06:34:23.278Z</time>
      </trkpt>
      <trkpt lat="45.9492" lon="6.86876">
        <ele>1809</ele>
        <time>2026-08-04T06:34:24.278Z</time>
      </trkpt>
      <trkpt lat="45.9492" lon="6.86875">
        <ele>1809</ele>
        <time>2026-08-04T06:34:25.278Z</time>
      </trkpt>
      <trkpt lat="45.94921" lon="6.86874">
        <ele>1809</ele>
        <time>2026-08-04T06:34:26.278Z</time>
      </trkpt>
      <trkpt lat="45.9492" lon="6.86872">
        <ele>1809</ele>
        <time>2026-08-04T06:34:27.278Z</time>
      </trkpt>
      <trkpt lat="45.9492" lon="6.86871">
        <ele>1810</ele>
        <time>2026-08-04T06:34:28.278Z</time>
      </trkpt>
      <trkpt lat="45.9492" lon="6.8687">
        <ele>1810</ele>
        <time>2026-08-04T06:34:29.278Z</time>
      </trkpt>
      <trkpt lat="45.9492" lon="6.86869">
        <ele>1810</ele>
        <time>2026-08-04T06:34:30.278Z</time>
      </trkpt>
      <trkpt lat="45.9492" lon="6.86868">
        <ele>1811</ele>
        <time>2026-08-04T06:34:31.278Z</time>
      </trkpt>
      <trkpt lat="45.9492" lon="6.86868">
        <ele>1811</ele>
        <time>2026-08-04T06:34:32.278Z</time>
      </trkpt>
      <trkpt lat="45.9492" lon="6.86867">
        <ele>1810</ele>
        <time>2026-08-04T06:34:33.278Z</time>
      </trkpt>
      <trkpt lat="45.9492" lon="6.86866">
        <ele>1810</ele>
        <time>2026-08-04T06:34:34.278Z</time>
      </trkpt>
      <trkpt lat="45.9492" lon="6.86865">
        <ele>1810</ele>
        <time>2026-08-04T06:34:35.278Z</time>
      </trkpt>
      <trkpt lat="45.9492" lon="6.86864">
        <ele>1810</ele>
        <time>2026-08-04T06:34:36.278Z</time>
      </trkpt>
      <trkpt lat="45.9492" lon="6.86863">
        <ele>1810</ele>
        <time>2026-08-04T06:34:37.278Z</time>
      </trkpt>
      <trkpt lat="45.9492" lon="6.86862">
        <ele>1811</ele>
        <time>2026-08-04T06:34:38.278Z</time>
      </trkpt>
      <trkpt lat="45.9492" lon="6.86861">
        <ele>1811</ele>
        <time>2026-08-04T06:34:39.278Z</time>
      </trkpt>
      <trkpt lat="45.94919" lon="6.8686">
        <ele>1810</ele>
        <time>2026-08-04T06:34:40.278Z</time>
      </trkpt>
      <trkpt lat="45.94919" lon="6.86859">
        <ele>1809</ele>
        <time>2026-08-04T06:34:41.278Z</time>
      </trkpt>
      <trkpt lat="45.94918" lon="6.86857">
        <ele>1809</ele>
        <time>2026-08-04T06:34:42.278Z</time>
      </trkpt>
      <trkpt lat="45.94918" lon="6.86855">
        <ele>1808</ele>
        <time>2026-08-04T06:34:43.278Z</time>
      </trkpt>
      <trkpt lat="45.94918" lon="6.86854">
        <ele>1808</ele>
        <time>2026-08-04T06:34:44.278Z</time>
      </trkpt>
      <trkpt lat="45.94918" lon="6.86853">
        <ele>1807</ele>
        <time>2026-08-04T06:34:45.278Z</time>
      </trkpt>
      <trkpt lat="45.94917" lon="6.86851">
        <ele>1807</ele>
        <time>2026-08-04T06:34:46.278Z</time>
      </trkpt>
      <trkpt lat="45.94917" lon="6.86849">
        <ele>1807</ele>
        <time>2026-08-04T06:34:47.278Z</time>
      </trkpt>
      <trkpt lat="45.94916" lon="6.86848">
        <ele>1807</ele>
        <time>2026-08-04T06:34:48.278Z</time>
      </trkpt>
      <trkpt lat="45.94916" lon="6.86847">
        <ele>1807</ele>
        <time>2026-08-04T06:34:49.278Z</time>
      </trkpt>
      <trkpt lat="45.94916" lon="6.86846">
        <ele>1808</ele>
        <time>2026-08-04T06:34:50.278Z</time>
      </trkpt>
      <trkpt lat="45.94916" lon="6.86846">
        <ele>1808</ele>
        <time>2026-08-04T06:34:51.278Z</time>
      </trkpt>
      <trkpt lat="45.94917" lon="6.86845">
        <ele>1808</ele>
        <time>2026-08-04T06:34:52.278Z</time>
      </trkpt>
      <trkpt lat="45.94918" lon="6.86844">
        <ele>1809</ele>
        <time>2026-08-04T06:34:53.278Z</time>
      </trkpt>
      <trkpt lat="45.94918" lon="6.86843">
        <ele>1809</ele>
        <time>2026-08-04T06:34:54.278Z</time>
      </trkpt>
      <trkpt lat="45.94918" lon="6.86841">
        <ele>1809</ele>
        <time>2026-08-04T06:34:55.278Z</time>
      </trkpt>
      <trkpt lat="45.94918" lon="6.8684">
        <ele>1810</ele>
        <time>2026-08-04T06:34:56.278Z</time>
      </trkpt>
      <trkpt lat="45.94918" lon="6.86839">
        <ele>1810</ele>
        <time>2026-08-04T06:34:57.278Z</time>
      </trkpt>
      <trkpt lat="45.94919" lon="6.86837">
        <ele>1810</ele>
        <time>2026-08-04T06:34:58.278Z</time>
      </trkpt>
      <trkpt lat="45.94919" lon="6.86836">
        <ele>1811</ele>
        <time>2026-08-04T06:34:59.278Z</time>
      </trkpt>
      <trkpt lat="45.94919" lon="6.86835">
        <ele>1811</ele>
        <time>2026-08-04T06:35:00.278Z</time>
      </trkpt>
      <trkpt lat="45.94919" lon="6.86834">
        <ele>1812</ele>
        <time>2026-08-04T06:35:01.278Z</time>
      </trkpt>
      <trkpt lat="45.94919" lon="6.86833">
        <ele>1812</ele>
        <time>2026-08-04T06:35:02.278Z</time>
      </trkpt>
      <trkpt lat="45.9492" lon="6.86832">
        <ele>1813</ele>
        <time>2026-08-04T06:35:03.278Z</time>
      </trkpt>
      <trkpt lat="45.9492" lon="6.86831">
        <ele>1814</ele>
        <time>2026-08-04T06:35:04.278Z</time>
      </trkpt>
      <trkpt lat="45.94921" lon="6.8683">
        <ele>1814</ele>
        <time>2026-08-04T06:35:05.278Z</time>
      </trkpt>
      <trkpt lat="45.94921" lon="6.86829">
        <ele>1815</ele>
        <time>2026-08-04T06:35:06.278Z</time>
      </trkpt>
      <trkpt lat="45.94921" lon="6.86828">
        <ele>1816</ele>
        <time>2026-08-04T06:35:07.278Z</time>
      </trkpt>
      <trkpt lat="45.94922" lon="6.86827">
        <ele>1816</ele>
        <time>2026-08-04T06:35:08.278Z</time>
      </trkpt>
      <trkpt lat="45.94922" lon="6.86826">
        <ele>1817</ele>
        <time>2026-08-04T06:35:09.278Z</time>
      </trkpt>
      <trkpt lat="45.94922" lon="6.86825">
        <ele>1817</ele>
        <time>2026-08-04T06:35:10.278Z</time>
      </trkpt>
      <trkpt lat="45.94923" lon="6.86824">
        <ele>1818</ele>
        <time>2026-08-04T06:35:11.278Z</time>
      </trkpt>
      <trkpt lat="45.94924" lon="6.86823">
        <ele>1818</ele>
        <time>2026-08-04T06:35:12.278Z</time>
      </trkpt>
      <trkpt lat="45.94924" lon="6.86822">
        <ele>1819</ele>
        <time>2026-08-04T06:35:13.278Z</time>
      </trkpt>
      <trkpt lat="45.94925" lon="6.86821">
        <ele>1819</ele>
        <time>2026-08-04T06:35:14.278Z</time>
      </trkpt>
      <trkpt lat="45.94925" lon="6.8682">
        <ele>1820</ele>
        <time>2026-08-04T06:35:15.278Z</time>
      </trkpt>
      <trkpt lat="45.94926" lon="6.8682">
        <ele>1820</ele>
        <time>2026-08-04T06:35:16.278Z</time>
      </trkpt>
      <trkpt lat="45.94926" lon="6.86818">
        <ele>1821</ele>
        <time>2026-08-04T06:35:17.278Z</time>
      </trkpt>
      <trkpt lat="45.94927" lon="6.86818">
        <ele>1821</ele>
        <time>2026-08-04T06:35:18.278Z</time>
      </trkpt>
      <trkpt lat="45.94927" lon="6.86817">
        <ele>1821</ele>
        <time>2026-08-04T06:35:19.278Z</time>
      </trkpt>
      <trkpt lat="45.94928" lon="6.86816">
        <ele>1821</ele>
        <time>2026-08-04T06:35:20.278Z</time>
      </trkpt>
      <trkpt lat="45.94928" lon="6.86816">
        <ele>1821</ele>
        <time>2026-08-04T06:35:21.278Z</time>
      </trkpt>
      <trkpt lat="45.94928" lon="6.86815">
        <ele>1821</ele>
        <time>2026-08-04T06:35:22.278Z</time>
      </trkpt>
      <trkpt lat="45.94928" lon="6.86815">
        <ele>1821</ele>
        <time>2026-08-04T06:35:23.278Z</time>
      </trkpt>
      <trkpt lat="45.94928" lon="6.86814">
        <ele>1822</ele>
        <time>2026-08-04T06:35:24.278Z</time>
      </trkpt>
      <trkpt lat="45.94928" lon="6.86814">
        <ele>1822</ele>
        <time>2026-08-04T06:35:25.278Z</time>
      </trkpt>
      <trkpt lat="45.94928" lon="6.86814">
        <ele>1821</ele>
        <time>2026-08-04T06:35:26.278Z</time>
      </trkpt>
      <trkpt lat="45.94928" lon="6.86815">
        <ele>1821</ele>
        <time>2026-08-04T06:35:27.278Z</time>
      </trkpt>
      <trkpt lat="45.94928" lon="6.86815">
        <ele>1821</ele>
        <time>2026-08-04T06:35:28.278Z</time>
      </trkpt>
      <trkpt lat="45.94928" lon="6.86814">
        <ele>1821</ele>
        <time>2026-08-04T06:35:29.278Z</time>
      </trkpt>
      <trkpt lat="45.94928" lon="6.86814">
        <ele>1820</ele>
        <time>2026-08-04T06:35:30.278Z</time>
      </trkpt>
      <trkpt lat="45.94928" lon="6.86814">
        <ele>1820</ele>
        <time>2026-08-04T06:35:31.278Z</time>
      </trkpt>
      <trkpt lat="45.94928" lon="6.86814">
        <ele>1821</ele>
        <time>2026-08-04T06:35:32.278Z</time>
      </trkpt>
      <trkpt lat="45.94928" lon="6.86814">
        <ele>1821</ele>
        <time>2026-08-04T06:35:33.278Z</time>
      </trkpt>
      <trkpt lat="45.94928" lon="6.86814">
        <ele>1822</ele>
        <time>2026-08-04T06:35:34.278Z</time>
      </trkpt>
      <trkpt lat="45.94928" lon="6.86814">
        <ele>1822</ele>
        <time>2026-08-04T06:35:35.278Z</time>
      </trkpt>
      <trkpt lat="45.94928" lon="6.86814">
        <ele>1823</ele>
        <time>2026-08-04T06:35:36.278Z</time>
      </trkpt>
      <trkpt lat="45.94928" lon="6.86814">
        <ele>1823</ele>
        <time>2026-08-04T06:35:37.278Z</time>
      </trkpt>
      <trkpt lat="45.94928" lon="6.86814">
        <ele>1823</ele>
        <time>2026-08-04T06:35:38.278Z</time>
      </trkpt>
      <trkpt lat="45.94928" lon="6.86814">
        <ele>1824</ele>
        <time>2026-08-04T06:35:39.278Z</time>
      </trkpt>
      <trkpt lat="45.94928" lon="6.86814">
        <ele>1824</ele>
        <time>2026-08-04T06:35:40.278Z</time>
      </trkpt>
      <trkpt lat="45.94928" lon="6.86814">
        <ele>1824</ele>
        <time>2026-08-04T06:35:41.278Z</time>
      </trkpt>
      <trkpt lat="45.94928" lon="6.86814">
        <ele>1824</ele>
        <time>2026-08-04T06:35:42.278Z</time>
      </trkpt>
      <trkpt lat="45.94928" lon="6.86814">
        <ele>1824</ele>
        <time>2026-08-04T06:35:43.278Z</time>
      </trkpt>
      <trkpt lat="45.94928" lon="6.86814">
        <ele>1824</ele>
        <time>2026-08-04T06:35:44.278Z</time>
      </trkpt>
      <trkpt lat="45.94928" lon="6.86814">
        <ele>1824</ele>
        <time>2026-08-04T06:35:45.278Z</time>
      </trkpt>
      <trkpt lat="45.94928" lon="6.86815">
        <ele>1825</ele>
        <time>2026-08-04T06:35:46.278Z</time>
      </trkpt>
      <trkpt lat="45.94928" lon="6.86815">
        <ele>1825</ele>
        <time>2026-08-04T06:35:47.278Z</time>
      </trkpt>
      <trkpt lat="45.94928" lon="6.86815">
        <ele>1825</ele>
        <time>2026-08-04T06:35:48.278Z</time>
      </trkpt>
      <trkpt lat="45.94928" lon="6.86815">
        <ele>1825</ele>
        <time>2026-08-04T06:35:49.278Z</time>
      </trkpt>
      <trkpt lat="45.94928" lon="6.86815">
        <ele>1825</ele>
        <time>2026-08-04T06:35:50.278Z</time>
      </trkpt>
      <trkpt lat="45.94928" lon="6.86815">
        <ele>1825</ele>
        <time>2026-08-04T06:35:51.278Z</time>
      </trkpt>
      <trkpt lat="45.94928" lon="6.86815">
        <ele>1825</ele>
        <time>2026-08-04T06:35:52.278Z</time>
      </trkpt>
      <trkpt lat="45.94928" lon="6.86815">
        <ele>1825</ele>
        <time>2026-08-04T06:35:53.278Z</time>
      </trkpt>
      <trkpt lat="45.94928" lon="6.86815">
        <ele>1825</ele>
        <time>2026-08-04T06:35:54.278Z</time>
      </trkpt>
      <trkpt lat="45.94928" lon="6.86815">
        <ele>1825</ele>
        <time>2026-08-04T06:35:55.278Z</time>
      </trkpt>
      <trkpt lat="45.94928" lon="6.86816">
        <ele>1825</ele>
        <time>2026-08-04T06:35:56.278Z</time>
      </trkpt>
      <trkpt lat="45.94928" lon="6.86816">
        <ele>1825</ele>
        <time>2026-08-04T06:35:57.278Z</time>
      </trkpt>
      <trkpt lat="45.94928" lon="6.86816">
        <ele>1825</ele>
        <time>2026-08-04T06:35:58.278Z</time>
      </trkpt>
      <trkpt lat="45.94928" lon="6.86817">
        <ele>1825</ele>
        <time>2026-08-04T06:35:59.278Z</time>
      </trkpt>
      <trkpt lat="45.94928" lon="6.86817">
        <ele>1825</ele>
        <time>2026-08-04T06:36:00.278Z</time>
      </trkpt>
      <trkpt lat="45.94928" lon="6.86817">
        <ele>1825</ele>
        <time>2026-08-04T06:36:01.278Z</time>
      </trkpt>
      <trkpt lat="45.94928" lon="6.86817">
        <ele>1825</ele>
        <time>2026-08-04T06:36:02.278Z</time>
      </trkpt>
      <trkpt lat="45.94928" lon="6.86817">
        <ele>1825</ele>
        <time>2026-08-04T06:36:03.278Z</time>
      </trkpt>
      <trkpt lat="45.94928" lon="6.86817">
        <ele>1825</ele>
        <time>2026-08-04T06:36:04.278Z</time>
      </trkpt>
      <trkpt lat="45.94928" lon="6.86817">
        <ele>1825</ele>
        <time>2026-08-04T06:36:05.278Z</time>
      </trkpt>
      <trkpt lat="45.94928" lon="6.86817">
        <ele>1825</ele>
        <time>2026-08-04T06:36:06.278Z</time>
      </trkpt>
      <trkpt lat="45.94928" lon="6.86817">
        <ele>1825</ele>
        <time>2026-08-04T06:36:07.278Z</time>
      </trkpt>
      <trkpt lat="45.94928" lon="6.86817">
        <ele>1825</ele>
        <time>2026-08-04T06:36:08.278Z</time>
      </trkpt>
      <trkpt lat="45.94928" lon="6.86818">
        <ele>1825</ele>
        <time>2026-08-04T06:36:09.278Z</time>
      </trkpt>
      <trkpt lat="45.94928" lon="6.86818">
        <ele>1825</ele>
        <time>2026-08-04T06:36:10.278Z</time>
      </trkpt>
      <trkpt lat="45.94928" lon="6.86818">
        <ele>1825</ele>
        <time>2026-08-04T06:36:11.278Z</time>
      </trkpt>
      <trkpt lat="45.94928" lon="6.86818">
        <ele>1825</ele>
        <time>2026-08-04T06:36:12.278Z</time>
      </trkpt>
      <trkpt lat="45.94928" lon="6.86818">
        <ele>1825</ele>
        <time>2026-08-04T06:36:13.278Z</time>
      </trkpt>
      <trkpt lat="45.94928" lon="6.86818">
        <ele>1825</ele>
        <time>2026-08-04T06:36:14.278Z</time>
      </trkpt>
      <trkpt lat="45.94928" lon="6.86818">
        <ele>1825</ele>
        <time>2026-08-04T06:36:15.278Z</time>
      </trkpt>
      <trkpt lat="45.94928" lon="6.86818">
        <ele>1825</ele>
        <time>2026-08-04T06:36:16.278Z</time>
      </trkpt>
      <trkpt lat="45.94928" lon="6.86818">
        <ele>1825</ele>
        <time>2026-08-04T06:36:17.278Z</time>
      </trkpt>
      <trkpt lat="45.94928" lon="6.86818">
        <ele>1825</ele>
        <time>2026-08-04T06:36:18.278Z</time>
      </trkpt>
      <trkpt lat="45.94928" lon="6.86818">
        <ele>1825</ele>
        <time>2026-08-04T06:36:19.278Z</time>
      </trkpt>
      <trkpt lat="45.94928" lon="6.86819">
        <ele>1825</ele>
        <time>2026-08-04T06:36:20.278Z</time>
      </trkpt>
      <trkpt lat="45.94928" lon="6.86819">
        <ele>1825</ele>
        <time>2026-08-04T06:36:21.278Z</time>
      </trkpt>
      <trkpt lat="45.94927" lon="6.86819">
        <ele>1825</ele>
        <time>2026-08-04T06:36:22.278Z</time>
      </trkpt>
      <trkpt lat="45.94927" lon="6.86819">
        <ele>1825</ele>
        <time>2026-08-04T06:36:23.278Z</time>
      </trkpt>
      <trkpt lat="45.94927" lon="6.86819">
        <ele>1825</ele>
        <time>2026-08-04T06:36:24.278Z</time>
      </trkpt>
      <trkpt lat="45.94926" lon="6.86819">
        <ele>1825</ele>
        <time>2026-08-04T06:36:25.278Z</time>
      </trkpt>
      <trkpt lat="45.94926" lon="6.86819">
        <ele>1825</ele>
        <time>2026-08-04T06:36:26.278Z</time>
      </trkpt>
      <trkpt lat="45.94926" lon="6.86819">
        <ele>1825</ele>
        <time>2026-08-04T06:36:27.278Z</time>
      </trkpt>
      <trkpt lat="45.94926" lon="6.86819">
        <ele>1825</ele>
        <time>2026-08-04T06:36:28.278Z</time>
      </trkpt>
      <trkpt lat="45.94926" lon="6.86819">
        <ele>1825</ele>
        <time>2026-08-04T06:36:29.278Z</time>
      </trkpt>
      <trkpt lat="45.94926" lon="6.86819">
        <ele>1825</ele>
        <time>2026-08-04T06:36:30.278Z</time>
      </trkpt>
      <trkpt lat="45.94926" lon="6.86819">
        <ele>1825</ele>
        <time>2026-08-04T06:36:31.278Z</time>
      </trkpt>
      <trkpt lat="45.94926" lon="6.86819">
        <ele>1825</ele>
        <time>2026-08-04T06:36:32.278Z</time>
      </trkpt>
      <trkpt lat="45.94926" lon="6.86819">
        <ele>1825</ele>
        <time>2026-08-04T06:36:33.278Z</time>
      </trkpt>
      <trkpt lat="45.94926" lon="6.86819">
        <ele>1825</ele>
        <time>2026-08-04T06:36:34.278Z</time>
      </trkpt>
      <trkpt lat="45.94926" lon="6.86819">
        <ele>1825</ele>
        <time>2026-08-04T06:36:35.278Z</time>
      </trkpt>
      <trkpt lat="45.94926" lon="6.86819">
        <ele>1825</ele>
        <time>2026-08-04T06:36:36.278Z</time>
      </trkpt>
      <trkpt lat="45.94926" lon="6.86819">
        <ele>1825</ele>
        <time>2026-08-04T06:36:37.278Z</time>
      </trkpt>
      <trkpt lat="45.94926" lon="6.86819">
        <ele>1825</ele>
        <time>2026-08-04T06:36:38.278Z</time>
      </trkpt>
      <trkpt lat="45.94926" lon="6.86819">
        <ele>1825</ele>
        <time>2026-08-04T06:36:39.278Z</time>
      </trkpt>
      <trkpt lat="45.94926" lon="6.86819">
        <ele>1825</ele>
        <time>2026-08-04T06:36:40.278Z</time>
      </trkpt>
      <trkpt lat="45.94926" lon="6.86819">
        <ele>1825</ele>
        <time>2026-08-04T06:36:41.278Z</time>
      </trkpt>
      <trkpt lat="45.94926" lon="6.86819">
        <ele>1825</ele>
        <time>2026-08-04T06:36:42.278Z</time>
      </trkpt>
      <trkpt lat="45.94926" lon="6.86819">
        <ele>1825</ele>
        <time>2026-08-04T06:36:43.278Z</time>
      </trkpt>
      <trkpt lat="45.94926" lon="6.86819">
        <ele>1825</ele>
        <time>2026-08-04T06:36:44.278Z</time>
      </trkpt>
      <trkpt lat="45.94927" lon="6.86818">
        <ele>1825</ele>
        <time>2026-08-04T06:36:45.278Z</time>
      </trkpt>
      <trkpt lat="45.94928" lon="6.86817">
        <ele>1825</ele>
        <time>2026-08-04T06:36:46.278Z</time>
      </trkpt>
      <trkpt lat="45.94929" lon="6.86815">
        <ele>1825</ele>
        <time>2026-08-04T06:36:47.278Z</time>
      </trkpt>
      <trkpt lat="45.94931" lon="6.86814">
        <ele>1825</ele>
        <time>2026-08-04T06:36:48.278Z</time>
      </trkpt>
      <trkpt lat="45.94932" lon="6.86812">
        <ele>1825</ele>
        <time>2026-08-04T06:36:49.278Z</time>
      </trkpt>
      <trkpt lat="45.94933" lon="6.8681">
        <ele>1825</ele>
        <time>2026-08-04T06:36:50.278Z</time>
      </trkpt>
      <trkpt lat="45.94935" lon="6.86808">
        <ele>1825</ele>
        <time>2026-08-04T06:36:51.278Z</time>
      </trkpt>
      <trkpt lat="45.94936" lon="6.86806">
        <ele>1825</ele>
        <time>2026-08-04T06:36:52.278Z</time>
      </trkpt>
      <trkpt lat="45.94938" lon="6.86804">
        <ele>1825</ele>
        <time>2026-08-04T06:36:53.278Z</time>
      </trkpt>
      <trkpt lat="45.9494" lon="6.86803">
        <ele>1825</ele>
        <time>2026-08-04T06:36:54.278Z</time>
      </trkpt>
      <trkpt lat="45.94941" lon="6.86802">
        <ele>1825</ele>
        <time>2026-08-04T06:36:55.278Z</time>
      </trkpt>
      <trkpt lat="45.94942" lon="6.86801">
        <ele>1825</ele>
        <time>2026-08-04T06:36:56.278Z</time>
      </trkpt>
      <trkpt lat="45.94943" lon="6.868">
        <ele>1825</ele>
        <time>2026-08-04T06:36:57.278Z</time>
      </trkpt>
      <trkpt lat="45.94943" lon="6.86799">
        <ele>1825</ele>
        <time>2026-08-04T06:36:58.278Z</time>
      </trkpt>
      <trkpt lat="45.94944" lon="6.86798">
        <ele>1825</ele>
        <time>2026-08-04T06:36:59.278Z</time>
      </trkpt>
      <trkpt lat="45.94945" lon="6.86797">
        <ele>1825</ele>
        <time>2026-08-04T06:37:00.278Z</time>
      </trkpt>
      <trkpt lat="45.94946" lon="6.86796">
        <ele>1826</ele>
        <time>2026-08-04T06:37:01.278Z</time>
      </trkpt>
      <trkpt lat="45.94946" lon="6.86795">
        <ele>1826</ele>
        <time>2026-08-04T06:37:02.278Z</time>
      </trkpt>
      <trkpt lat="45.94947" lon="6.86793">
        <ele>1826</ele>
        <time>2026-08-04T06:37:03.278Z</time>
      </trkpt>
      <trkpt lat="45.94948" lon="6.86792">
        <ele>1826</ele>
        <time>2026-08-04T06:37:04.278Z</time>
      </trkpt>
      <trkpt lat="45.94948" lon="6.86791">
        <ele>1826</ele>
        <time>2026-08-04T06:37:05.278Z</time>
      </trkpt>
      <trkpt lat="45.94949" lon="6.8679">
        <ele>1827</ele>
        <time>2026-08-04T06:37:06.278Z</time>
      </trkpt>
      <trkpt lat="45.9495" lon="6.86788">
        <ele>1827</ele>
        <time>2026-08-04T06:37:07.278Z</time>
      </trkpt>
      <trkpt lat="45.94951" lon="6.86788">
        <ele>1827</ele>
        <time>2026-08-04T06:37:08.278Z</time>
      </trkpt>
      <trkpt lat="45.94951" lon="6.86787">
        <ele>1827</ele>
        <time>2026-08-04T06:37:09.278Z</time>
      </trkpt>
      <trkpt lat="45.94952" lon="6.86786">
        <ele>1828</ele>
        <time>2026-08-04T06:37:10.278Z</time>
      </trkpt>
      <trkpt lat="45.94952" lon="6.86785">
        <ele>1828</ele>
        <time>2026-08-04T06:37:11.278Z</time>
      </trkpt>
      <trkpt lat="45.94954" lon="6.86784">
        <ele>1828</ele>
        <time>2026-08-04T06:37:12.278Z</time>
      </trkpt>
      <trkpt lat="45.94954" lon="6.86783">
        <ele>1828</ele>
        <time>2026-08-04T06:37:13.278Z</time>
      </trkpt>
      <trkpt lat="45.94955" lon="6.86781">
        <ele>1828</ele>
        <time>2026-08-04T06:37:14.278Z</time>
      </trkpt>
      <trkpt lat="45.94955" lon="6.86779">
        <ele>1829</ele>
        <time>2026-08-04T06:37:15.278Z</time>
      </trkpt>
      <trkpt lat="45.94956" lon="6.86777">
        <ele>1829</ele>
        <time>2026-08-04T06:37:16.278Z</time>
      </trkpt>
      <trkpt lat="45.94957" lon="6.86776">
        <ele>1829</ele>
        <time>2026-08-04T06:37:17.278Z</time>
      </trkpt>
      <trkpt lat="45.94958" lon="6.86775">
        <ele>1829</ele>
        <time>2026-08-04T06:37:18.278Z</time>
      </trkpt>
      <trkpt lat="45.94959" lon="6.86773">
        <ele>1829</ele>
        <time>2026-08-04T06:37:19.278Z</time>
      </trkpt>
      <trkpt lat="45.9496" lon="6.86772">
        <ele>1829</ele>
        <time>2026-08-04T06:37:20.278Z</time>
      </trkpt>
      <trkpt lat="45.94961" lon="6.86771">
        <ele>1829</ele>
        <time>2026-08-04T06:37:21.278Z</time>
      </trkpt>
      <trkpt lat="45.94961" lon="6.8677">
        <ele>1830</ele>
        <time>2026-08-04T06:37:22.278Z</time>
      </trkpt>
      <trkpt lat="45.94961" lon="6.86768">
        <ele>1830</ele>
        <time>2026-08-04T06:37:23.278Z</time>
      </trkpt>
      <trkpt lat="45.94962" lon="6.86766">
        <ele>1830</ele>
        <time>2026-08-04T06:37:24.278Z</time>
      </trkpt>
      <trkpt lat="45.94963" lon="6.86766">
        <ele>1829</ele>
        <time>2026-08-04T06:37:25.278Z</time>
      </trkpt>
      <trkpt lat="45.94964" lon="6.86765">
        <ele>1829</ele>
        <time>2026-08-04T06:37:26.278Z</time>
      </trkpt>
      <trkpt lat="45.94965" lon="6.86763">
        <ele>1829</ele>
        <time>2026-08-04T06:37:27.278Z</time>
      </trkpt>
      <trkpt lat="45.94966" lon="6.86762">
        <ele>1829</ele>
        <time>2026-08-04T06:37:28.278Z</time>
      </trkpt>
      <trkpt lat="45.94967" lon="6.86761">
        <ele>1829</ele>
        <time>2026-08-04T06:37:29.278Z</time>
      </trkpt>
      <trkpt lat="45.94968" lon="6.86759">
        <ele>1829</ele>
        <time>2026-08-04T06:37:30.278Z</time>
      </trkpt>
      <trkpt lat="45.94968" lon="6.86757">
        <ele>1830</ele>
        <time>2026-08-04T06:37:31.278Z</time>
      </trkpt>
      <trkpt lat="45.9497" lon="6.86757">
        <ele>1830</ele>
        <time>2026-08-04T06:37:32.278Z</time>
      </trkpt>
      <trkpt lat="45.94971" lon="6.86756">
        <ele>1830</ele>
        <time>2026-08-04T06:37:33.278Z</time>
      </trkpt>
      <trkpt lat="45.94972" lon="6.86756">
        <ele>1830</ele>
        <time>2026-08-04T06:37:34.278Z</time>
      </trkpt>
      <trkpt lat="45.94973" lon="6.86756">
        <ele>1830</ele>
        <time>2026-08-04T06:37:35.278Z</time>
      </trkpt>
      <trkpt lat="45.94973" lon="6.86756">
        <ele>1830</ele>
        <time>2026-08-04T06:37:36.278Z</time>
      </trkpt>
      <trkpt lat="45.94974" lon="6.86755">
        <ele>1830</ele>
        <time>2026-08-04T06:37:37.278Z</time>
      </trkpt>
      <trkpt lat="45.94975" lon="6.86755">
        <ele>1830</ele>
        <time>2026-08-04T06:37:38.278Z</time>
      </trkpt>
      <trkpt lat="45.94975" lon="6.86754">
        <ele>1830</ele>
        <time>2026-08-04T06:37:39.278Z</time>
      </trkpt>
      <trkpt lat="45.94976" lon="6.86754">
        <ele>1830</ele>
        <time>2026-08-04T06:37:40.278Z</time>
      </trkpt>
      <trkpt lat="45.94977" lon="6.86754">
        <ele>1830</ele>
        <time>2026-08-04T06:37:41.278Z</time>
      </trkpt>
      <trkpt lat="45.94978" lon="6.86754">
        <ele>1830</ele>
        <time>2026-08-04T06:37:42.278Z</time>
      </trkpt>
      <trkpt lat="45.94979" lon="6.86753">
        <ele>1831</ele>
        <time>2026-08-04T06:37:43.278Z</time>
      </trkpt>
      <trkpt lat="45.9498" lon="6.86753">
        <ele>1831</ele>
        <time>2026-08-04T06:37:44.278Z</time>
      </trkpt>
      <trkpt lat="45.94981" lon="6.86753">
        <ele>1831</ele>
        <time>2026-08-04T06:37:45.278Z</time>
      </trkpt>
      <trkpt lat="45.94983" lon="6.86753">
        <ele>1831</ele>
        <time>2026-08-04T06:37:46.278Z</time>
      </trkpt>
      <trkpt lat="45.94984" lon="6.86752">
        <ele>1832</ele>
        <time>2026-08-04T06:37:47.278Z</time>
      </trkpt>
      <trkpt lat="45.94985" lon="6.86752">
        <ele>1832</ele>
        <time>2026-08-04T06:37:48.278Z</time>
      </trkpt>
      <trkpt lat="45.94986" lon="6.86752">
        <ele>1833</ele>
        <time>2026-08-04T06:37:49.278Z</time>
      </trkpt>
      <trkpt lat="45.94987" lon="6.86751">
        <ele>1833</ele>
        <time>2026-08-04T06:37:50.278Z</time>
      </trkpt>
      <trkpt lat="45.94988" lon="6.8675">
        <ele>1833</ele>
        <time>2026-08-04T06:37:51.278Z</time>
      </trkpt>
      <trkpt lat="45.94989" lon="6.86749">
        <ele>1834</ele>
        <time>2026-08-04T06:37:52.278Z</time>
      </trkpt>
      <trkpt lat="45.9499" lon="6.86748">
        <ele>1834</ele>
        <time>2026-08-04T06:37:53.278Z</time>
      </trkpt>
      <trkpt lat="45.94991" lon="6.86748">
        <ele>1835</ele>
        <time>2026-08-04T06:37:54.278Z</time>
      </trkpt>
      <trkpt lat="45.94992" lon="6.86747">
        <ele>1835</ele>
        <time>2026-08-04T06:37:55.278Z</time>
      </trkpt>
      <trkpt lat="45.94993" lon="6.86746">
        <ele>1835</ele>
        <time>2026-08-04T06:37:56.278Z</time>
      </trkpt>
      <trkpt lat="45.94994" lon="6.86746">
        <ele>1835</ele>
        <time>2026-08-04T06:37:57.278Z</time>
      </trkpt>
      <trkpt lat="45.94995" lon="6.86744">
        <ele>1835</ele>
        <time>2026-08-04T06:37:58.278Z</time>
      </trkpt>
      <trkpt lat="45.94996" lon="6.86743">
        <ele>1834</ele>
        <time>2026-08-04T06:37:59.278Z</time>
      </trkpt>
      <trkpt lat="45.94997" lon="6.86743">
        <ele>1834</ele>
        <time>2026-08-04T06:38:00.278Z</time>
      </trkpt>
      <trkpt lat="45.94998" lon="6.86742">
        <ele>1834</ele>
        <time>2026-08-04T06:38:01.278Z</time>
      </trkpt>
      <trkpt lat="45.94999" lon="6.86741">
        <ele>1835</ele>
        <time>2026-08-04T06:38:02.278Z</time>
      </trkpt>
      <trkpt lat="45.94999" lon="6.8674">
        <ele>1835</ele>
        <time>2026-08-04T06:38:03.278Z</time>
      </trkpt>
      <trkpt lat="45.94999" lon="6.86738">
        <ele>1835</ele>
        <time>2026-08-04T06:38:04.278Z</time>
      </trkpt>
      <trkpt lat="45.95" lon="6.86736">
        <ele>1835</ele>
        <time>2026-08-04T06:38:05.278Z</time>
      </trkpt>
      <trkpt lat="45.95" lon="6.86735">
        <ele>1835</ele>
        <time>2026-08-04T06:38:06.278Z</time>
      </trkpt>
      <trkpt lat="45.95001" lon="6.86734">
        <ele>1836</ele>
        <time>2026-08-04T06:38:07.278Z</time>
      </trkpt>
      <trkpt lat="45.95002" lon="6.86733">
        <ele>1836</ele>
        <time>2026-08-04T06:38:08.278Z</time>
      </trkpt>
      <trkpt lat="45.95003" lon="6.86732">
        <ele>1836</ele>
        <time>2026-08-04T06:38:09.278Z</time>
      </trkpt>
      <trkpt lat="45.95003" lon="6.86731">
        <ele>1836</ele>
        <time>2026-08-04T06:38:10.278Z</time>
      </trkpt>
      <trkpt lat="45.95004" lon="6.8673">
        <ele>1836</ele>
        <time>2026-08-04T06:38:11.278Z</time>
      </trkpt>
      <trkpt lat="45.95005" lon="6.86729">
        <ele>1837</ele>
        <time>2026-08-04T06:38:12.278Z</time>
      </trkpt>
      <trkpt lat="45.95005" lon="6.86727">
        <ele>1837</ele>
        <time>2026-08-04T06:38:13.278Z</time>
      </trkpt>
      <trkpt lat="45.95006" lon="6.86726">
        <ele>1837</ele>
        <time>2026-08-04T06:38:14.278Z</time>
      </trkpt>
      <trkpt lat="45.95006" lon="6.86725">
        <ele>1837</ele>
        <time>2026-08-04T06:38:15.278Z</time>
      </trkpt>
      <trkpt lat="45.95007" lon="6.86723">
        <ele>1838</ele>
        <time>2026-08-04T06:38:16.278Z</time>
      </trkpt>
      <trkpt lat="45.95008" lon="6.86722">
        <ele>1838</ele>
        <time>2026-08-04T06:38:17.278Z</time>
      </trkpt>
      <trkpt lat="45.95009" lon="6.86721">
        <ele>1839</ele>
        <time>2026-08-04T06:38:18.278Z</time>
      </trkpt>
      <trkpt lat="45.95009" lon="6.8672">
        <ele>1839</ele>
        <time>2026-08-04T06:38:19.278Z</time>
      </trkpt>
      <trkpt lat="45.9501" lon="6.86718">
        <ele>1839</ele>
        <time>2026-08-04T06:38:20.278Z</time>
      </trkpt>
      <trkpt lat="45.9501" lon="6.86717">
        <ele>1840</ele>
        <time>2026-08-04T06:38:21.278Z</time>
      </trkpt>
      <trkpt lat="45.95011" lon="6.86716">
        <ele>1840</ele>
        <time>2026-08-04T06:38:22.278Z</time>
      </trkpt>
      <trkpt lat="45.95011" lon="6.86715">
        <ele>1840</ele>
        <time>2026-08-04T06:38:23.278Z</time>
      </trkpt>
      <trkpt lat="45.95012" lon="6.86714">
        <ele>1840</ele>
        <time>2026-08-04T06:38:24.278Z</time>
      </trkpt>
      <trkpt lat="45.95012" lon="6.86712">
        <ele>1840</ele>
        <time>2026-08-04T06:38:25.278Z</time>
      </trkpt>
      <trkpt lat="45.95013" lon="6.86711">
        <ele>1840</ele>
        <time>2026-08-04T06:38:26.278Z</time>
      </trkpt>
      <trkpt lat="45.95013" lon="6.8671">
        <ele>1841</ele>
        <time>2026-08-04T06:38:27.278Z</time>
      </trkpt>
      <trkpt lat="45.95014" lon="6.86709">
        <ele>1841</ele>
        <time>2026-08-04T06:38:28.278Z</time>
      </trkpt>
      <trkpt lat="45.95014" lon="6.86707">
        <ele>1841</ele>
        <time>2026-08-04T06:38:29.278Z</time>
      </trkpt>
      <trkpt lat="45.95015" lon="6.86706">
        <ele>1841</ele>
        <time>2026-08-04T06:38:30.278Z</time>
      </trkpt>
      <trkpt lat="45.95015" lon="6.86705">
        <ele>1841</ele>
        <time>2026-08-04T06:38:31.278Z</time>
      </trkpt>
      <trkpt lat="45.95016" lon="6.86704">
        <ele>1841</ele>
        <time>2026-08-04T06:38:32.278Z</time>
      </trkpt>
      <trkpt lat="45.95017" lon="6.86703">
        <ele>1841</ele>
        <time>2026-08-04T06:38:33.278Z</time>
      </trkpt>
      <trkpt lat="45.95017" lon="6.86702">
        <ele>1842</ele>
        <time>2026-08-04T06:38:34.278Z</time>
      </trkpt>
      <trkpt lat="45.95017" lon="6.86701">
        <ele>1842</ele>
        <time>2026-08-04T06:38:35.278Z</time>
      </trkpt>
      <trkpt lat="45.95018" lon="6.86699">
        <ele>1842</ele>
        <time>2026-08-04T06:38:36.278Z</time>
      </trkpt>
      <trkpt lat="45.95018" lon="6.86698">
        <ele>1842</ele>
        <time>2026-08-04T06:38:37.278Z</time>
      </trkpt>
      <trkpt lat="45.95017" lon="6.86696">
        <ele>1842</ele>
        <time>2026-08-04T06:38:38.278Z</time>
      </trkpt>
      <trkpt lat="45.95017" lon="6.86694">
        <ele>1843</ele>
        <time>2026-08-04T06:38:39.278Z</time>
      </trkpt>
      <trkpt lat="45.95018" lon="6.86693">
        <ele>1843</ele>
        <time>2026-08-04T06:38:40.278Z</time>
      </trkpt>
      <trkpt lat="45.95019" lon="6.86692">
        <ele>1844</ele>
        <time>2026-08-04T06:38:41.278Z</time>
      </trkpt>
      <trkpt lat="45.9502" lon="6.86692">
        <ele>1845</ele>
        <time>2026-08-04T06:38:42.278Z</time>
      </trkpt>
      <trkpt lat="45.9502" lon="6.86692">
        <ele>1846</ele>
        <time>2026-08-04T06:38:43.278Z</time>
      </trkpt>
      <trkpt lat="45.95021" lon="6.8669">
        <ele>1847</ele>
        <time>2026-08-04T06:38:44.278Z</time>
      </trkpt>
      <trkpt lat="45.95023" lon="6.8669">
        <ele>1848</ele>
        <time>2026-08-04T06:38:45.278Z</time>
      </trkpt>
      <trkpt lat="45.95023" lon="6.86688">
        <ele>1849</ele>
        <time>2026-08-04T06:38:46.278Z</time>
      </trkpt>
      <trkpt lat="45.95025" lon="6.86687">
        <ele>1849</ele>
        <time>2026-08-04T06:38:47.278Z</time>
      </trkpt>
      <trkpt lat="45.95026" lon="6.86687">
        <ele>1849</ele>
        <time>2026-08-04T06:38:48.278Z</time>
      </trkpt>
      <trkpt lat="45.95027" lon="6.86686">
        <ele>1849</ele>
        <time>2026-08-04T06:38:49.278Z</time>
      </trkpt>
      <trkpt lat="45.95027" lon="6.86684">
        <ele>1849</ele>
        <time>2026-08-04T06:38:50.278Z</time>
      </trkpt>
      <trkpt lat="45.95028" lon="6.86683">
        <ele>1849</ele>
        <time>2026-08-04T06:38:51.278Z</time>
      </trkpt>
      <trkpt lat="45.95029" lon="6.86682">
        <ele>1849</ele>
        <time>2026-08-04T06:38:52.278Z</time>
      </trkpt>
      <trkpt lat="45.95029" lon="6.86679">
        <ele>1849</ele>
        <time>2026-08-04T06:38:53.278Z</time>
      </trkpt>
      <trkpt lat="45.9503" lon="6.86677">
        <ele>1849</ele>
        <time>2026-08-04T06:38:54.278Z</time>
      </trkpt>
      <trkpt lat="45.9503" lon="6.86675">
        <ele>1849</ele>
        <time>2026-08-04T06:38:55.278Z</time>
      </trkpt>
      <trkpt lat="45.95031" lon="6.86673">
        <ele>1848</ele>
        <time>2026-08-04T06:38:56.278Z</time>
      </trkpt>
      <trkpt lat="45.95032" lon="6.86672">
        <ele>1848</ele>
        <time>2026-08-04T06:38:57.278Z</time>
      </trkpt>
      <trkpt lat="45.95032" lon="6.8667">
        <ele>1848</ele>
        <time>2026-08-04T06:38:58.278Z</time>
      </trkpt>
      <trkpt lat="45.95033" lon="6.86668">
        <ele>1848</ele>
        <time>2026-08-04T06:38:59.278Z</time>
      </trkpt>
      <trkpt lat="45.95033" lon="6.86667">
        <ele>1848</ele>
        <time>2026-08-04T06:39:00.278Z</time>
      </trkpt>
      <trkpt lat="45.95034" lon="6.86665">
        <ele>1848</ele>
        <time>2026-08-04T06:39:01.278Z</time>
      </trkpt>
      <trkpt lat="45.95035" lon="6.86664">
        <ele>1848</ele>
        <time>2026-08-04T06:39:02.278Z</time>
      </trkpt>
      <trkpt lat="45.95035" lon="6.86662">
        <ele>1848</ele>
        <time>2026-08-04T06:39:03.278Z</time>
      </trkpt>
      <trkpt lat="45.95035" lon="6.8666">
        <ele>1849</ele>
        <time>2026-08-04T06:39:04.278Z</time>
      </trkpt>
      <trkpt lat="45.95036" lon="6.86658">
        <ele>1849</ele>
        <time>2026-08-04T06:39:05.278Z</time>
      </trkpt>
      <trkpt lat="45.95036" lon="6.86656">
        <ele>1849</ele>
        <time>2026-08-04T06:39:06.278Z</time>
      </trkpt>
      <trkpt lat="45.95037" lon="6.86655">
        <ele>1849</ele>
        <time>2026-08-04T06:39:07.278Z</time>
      </trkpt>
      <trkpt lat="45.95038" lon="6.86653">
        <ele>1849</ele>
        <time>2026-08-04T06:39:08.278Z</time>
      </trkpt>
      <trkpt lat="45.95039" lon="6.86652">
        <ele>1849</ele>
        <time>2026-08-04T06:39:09.278Z</time>
      </trkpt>
      <trkpt lat="45.95039" lon="6.86651">
        <ele>1849</ele>
        <time>2026-08-04T06:39:10.278Z</time>
      </trkpt>
      <trkpt lat="45.9504" lon="6.86649">
        <ele>1850</ele>
        <time>2026-08-04T06:39:11.278Z</time>
      </trkpt>
      <trkpt lat="45.9504" lon="6.86647">
        <ele>1850</ele>
        <time>2026-08-04T06:39:12.278Z</time>
      </trkpt>
      <trkpt lat="45.95041" lon="6.86646">
        <ele>1849</ele>
        <time>2026-08-04T06:39:13.278Z</time>
      </trkpt>
      <trkpt lat="45.95042" lon="6.86645">
        <ele>1848</ele>
        <time>2026-08-04T06:39:14.278Z</time>
      </trkpt>
      <trkpt lat="45.95042" lon="6.86644">
        <ele>1848</ele>
        <time>2026-08-04T06:39:15.278Z</time>
      </trkpt>
      <trkpt lat="45.95043" lon="6.86643">
        <ele>1848</ele>
        <time>2026-08-04T06:39:16.278Z</time>
      </trkpt>
      <trkpt lat="45.95044" lon="6.86642">
        <ele>1848</ele>
        <time>2026-08-04T06:39:17.278Z</time>
      </trkpt>
      <trkpt lat="45.95045" lon="6.8664">
        <ele>1848</ele>
        <time>2026-08-04T06:39:18.278Z</time>
      </trkpt>
      <trkpt lat="45.95045" lon="6.86639">
        <ele>1848</ele>
        <time>2026-08-04T06:39:19.278Z</time>
      </trkpt>
      <trkpt lat="45.95046" lon="6.86637">
        <ele>1849</ele>
        <time>2026-08-04T06:39:20.278Z</time>
      </trkpt>
      <trkpt lat="45.95047" lon="6.86636">
        <ele>1849</ele>
        <time>2026-08-04T06:39:21.278Z</time>
      </trkpt>
      <trkpt lat="45.95047" lon="6.86634">
        <ele>1848</ele>
        <time>2026-08-04T06:39:22.278Z</time>
      </trkpt>
      <trkpt lat="45.95047" lon="6.86632">
        <ele>1848</ele>
        <time>2026-08-04T06:39:23.278Z</time>
      </trkpt>
      <trkpt lat="45.95048" lon="6.86631">
        <ele>1848</ele>
        <time>2026-08-04T06:39:24.278Z</time>
      </trkpt>
      <trkpt lat="45.95049" lon="6.8663">
        <ele>1848</ele>
        <time>2026-08-04T06:39:25.278Z</time>
      </trkpt>
      <trkpt lat="45.95049" lon="6.86629">
        <ele>1849</ele>
        <time>2026-08-04T06:39:26.278Z</time>
      </trkpt>
      <trkpt lat="45.95049" lon="6.86627">
        <ele>1849</ele>
        <time>2026-08-04T06:39:27.278Z</time>
      </trkpt>
      <trkpt lat="45.95049" lon="6.86625">
        <ele>1849</ele>
        <time>2026-08-04T06:39:28.278Z</time>
      </trkpt>
      <trkpt lat="45.9505" lon="6.86623">
        <ele>1850</ele>
        <time>2026-08-04T06:39:29.278Z</time>
      </trkpt>
      <trkpt lat="45.95051" lon="6.86622">
        <ele>1850</ele>
        <time>2026-08-04T06:39:30.278Z</time>
      </trkpt>
      <trkpt lat="45.95052" lon="6.86621">
        <ele>1850</ele>
        <time>2026-08-04T06:39:31.278Z</time>
      </trkpt>
      <trkpt lat="45.95053" lon="6.8662">
        <ele>1851</ele>
        <time>2026-08-04T06:39:32.278Z</time>
      </trkpt>
      <trkpt lat="45.95053" lon="6.86618">
        <ele>1851</ele>
        <time>2026-08-04T06:39:33.278Z</time>
      </trkpt>
      <trkpt lat="45.95055" lon="6.86617">
        <ele>1852</ele>
        <time>2026-08-04T06:39:34.278Z</time>
      </trkpt>
      <trkpt lat="45.95056" lon="6.86616">
        <ele>1852</ele>
        <time>2026-08-04T06:39:35.278Z</time>
      </trkpt>
      <trkpt lat="45.95057" lon="6.86614">
        <ele>1853</ele>
        <time>2026-08-04T06:39:36.278Z</time>
      </trkpt>
      <trkpt lat="45.95058" lon="6.86613">
        <ele>1854</ele>
        <time>2026-08-04T06:39:37.278Z</time>
      </trkpt>
      <trkpt lat="45.95059" lon="6.86612">
        <ele>1855</ele>
        <time>2026-08-04T06:39:38.278Z</time>
      </trkpt>
      <trkpt lat="45.9506" lon="6.8661">
        <ele>1855</ele>
        <time>2026-08-04T06:39:39.278Z</time>
      </trkpt>
      <trkpt lat="45.95061" lon="6.86608">
        <ele>1855</ele>
        <time>2026-08-04T06:39:40.278Z</time>
      </trkpt>
      <trkpt lat="45.95061" lon="6.86606">
        <ele>1854</ele>
        <time>2026-08-04T06:39:41.278Z</time>
      </trkpt>
      <trkpt lat="45.95062" lon="6.86604">
        <ele>1854</ele>
        <time>2026-08-04T06:39:42.278Z</time>
      </trkpt>
      <trkpt lat="45.95064" lon="6.86602">
        <ele>1853</ele>
        <time>2026-08-04T06:39:43.278Z</time>
      </trkpt>
      <trkpt lat="45.95065" lon="6.866">
        <ele>1853</ele>
        <time>2026-08-04T06:39:44.278Z</time>
      </trkpt>
      <trkpt lat="45.95066" lon="6.86597">
        <ele>1853</ele>
        <time>2026-08-04T06:39:45.278Z</time>
      </trkpt>
      <trkpt lat="45.95067" lon="6.86595">
        <ele>1853</ele>
        <time>2026-08-04T06:39:46.278Z</time>
      </trkpt>
      <trkpt lat="45.95068" lon="6.86592">
        <ele>1852</ele>
        <time>2026-08-04T06:39:47.278Z</time>
      </trkpt>
      <trkpt lat="45.95069" lon="6.8659">
        <ele>1853</ele>
        <time>2026-08-04T06:39:48.278Z</time>
      </trkpt>
      <trkpt lat="45.9507" lon="6.86588">
        <ele>1853</ele>
        <time>2026-08-04T06:39:49.278Z</time>
      </trkpt>
      <trkpt lat="45.95071" lon="6.86586">
        <ele>1853</ele>
        <time>2026-08-04T06:39:50.278Z</time>
      </trkpt>
      <trkpt lat="45.95072" lon="6.86585">
        <ele>1853</ele>
        <time>2026-08-04T06:39:51.278Z</time>
      </trkpt>
      <trkpt lat="45.95073" lon="6.86583">
        <ele>1853</ele>
        <time>2026-08-04T06:39:52.278Z</time>
      </trkpt>
      <trkpt lat="45.95074" lon="6.86581">
        <ele>1854</ele>
        <time>2026-08-04T06:39:53.278Z</time>
      </trkpt>
      <trkpt lat="45.95075" lon="6.86579">
        <ele>1854</ele>
        <time>2026-08-04T06:39:54.278Z</time>
      </trkpt>
      <trkpt lat="45.95075" lon="6.86577">
        <ele>1855</ele>
        <time>2026-08-04T06:39:55.278Z</time>
      </trkpt>
      <trkpt lat="45.95076" lon="6.86575">
        <ele>1855</ele>
        <time>2026-08-04T06:39:56.278Z</time>
      </trkpt>
      <trkpt lat="45.95076" lon="6.86573">
        <ele>1855</ele>
        <time>2026-08-04T06:39:57.278Z</time>
      </trkpt>
      <trkpt lat="45.95076" lon="6.86571">
        <ele>1856</ele>
        <time>2026-08-04T06:39:58.278Z</time>
      </trkpt>
      <trkpt lat="45.95077" lon="6.86568">
        <ele>1856</ele>
        <time>2026-08-04T06:39:59.278Z</time>
      </trkpt>
      <trkpt lat="45.95077" lon="6.86566">
        <ele>1857</ele>
        <time>2026-08-04T06:40:00.278Z</time>
      </trkpt>
      <trkpt lat="45.95077" lon="6.86563">
        <ele>1857</ele>
        <time>2026-08-04T06:40:01.278Z</time>
      </trkpt>
      <trkpt lat="45.95078" lon="6.8656">
        <ele>1857</ele>
        <time>2026-08-04T06:40:02.278Z</time>
      </trkpt>
      <trkpt lat="45.95078" lon="6.86558">
        <ele>1857</ele>
        <time>2026-08-04T06:40:03.278Z</time>
      </trkpt>
      <trkpt lat="45.95078" lon="6.86555">
        <ele>1856</ele>
        <time>2026-08-04T06:40:04.278Z</time>
      </trkpt>
      <trkpt lat="45.95079" lon="6.86552">
        <ele>1856</ele>
        <time>2026-08-04T06:40:05.278Z</time>
      </trkpt>
      <trkpt lat="45.95079" lon="6.8655">
        <ele>1856</ele>
        <time>2026-08-04T06:40:06.278Z</time>
      </trkpt>
      <trkpt lat="45.95079" lon="6.86547">
        <ele>1856</ele>
        <time>2026-08-04T06:40:07.278Z</time>
      </trkpt>
      <trkpt lat="45.95079" lon="6.86545">
        <ele>1856</ele>
        <time>2026-08-04T06:40:08.278Z</time>
      </trkpt>
      <trkpt lat="45.9508" lon="6.86542">
        <ele>1856</ele>
        <time>2026-08-04T06:40:09.278Z</time>
      </trkpt>
      <trkpt lat="45.9508" lon="6.8654">
        <ele>1856</ele>
        <time>2026-08-04T06:40:10.278Z</time>
      </trkpt>
      <trkpt lat="45.9508" lon="6.86537">
        <ele>1856</ele>
        <time>2026-08-04T06:40:11.278Z</time>
      </trkpt>
      <trkpt lat="45.9508" lon="6.86535">
        <ele>1856</ele>
        <time>2026-08-04T06:40:12.278Z</time>
      </trkpt>
      <trkpt lat="45.9508" lon="6.86533">
        <ele>1856</ele>
        <time>2026-08-04T06:40:13.278Z</time>
      </trkpt>
      <trkpt lat="45.9508" lon="6.8653">
        <ele>1856</ele>
        <time>2026-08-04T06:40:14.278Z</time>
      </trkpt>
      <trkpt lat="45.9508" lon="6.86528">
        <ele>1856</ele>
        <time>2026-08-04T06:40:15.278Z</time>
      </trkpt>
      <trkpt lat="45.95081" lon="6.86526">
        <ele>1856</ele>
        <time>2026-08-04T06:40:16.278Z</time>
      </trkpt>
      <trkpt lat="45.95081" lon="6.86524">
        <ele>1857</ele>
        <time>2026-08-04T06:40:17.278Z</time>
      </trkpt>
      <trkpt lat="45.95081" lon="6.86522">
        <ele>1857</ele>
        <time>2026-08-04T06:40:18.278Z</time>
      </trkpt>
      <trkpt lat="45.95081" lon="6.8652">
        <ele>1857</ele>
        <time>2026-08-04T06:40:19.278Z</time>
      </trkpt>
      <trkpt lat="45.95081" lon="6.86518">
        <ele>1857</ele>
        <time>2026-08-04T06:40:20.278Z</time>
      </trkpt>
      <trkpt lat="45.95081" lon="6.86516">
        <ele>1857</ele>
        <time>2026-08-04T06:40:21.278Z</time>
      </trkpt>
      <trkpt lat="45.9508" lon="6.86514">
        <ele>1857</ele>
        <time>2026-08-04T06:40:22.278Z</time>
      </trkpt>
      <trkpt lat="45.9508" lon="6.86513">
        <ele>1857</ele>
        <time>2026-08-04T06:40:23.278Z</time>
      </trkpt>
      <trkpt lat="45.9508" lon="6.86511">
        <ele>1857</ele>
        <time>2026-08-04T06:40:24.278Z</time>
      </trkpt>
      <trkpt lat="45.9508" lon="6.86509">
        <ele>1858</ele>
        <time>2026-08-04T06:40:25.278Z</time>
      </trkpt>
      <trkpt lat="45.95079" lon="6.86508">
        <ele>1858</ele>
        <time>2026-08-04T06:40:26.278Z</time>
      </trkpt>
      <trkpt lat="45.95079" lon="6.86506">
        <ele>1858</ele>
        <time>2026-08-04T06:40:27.278Z</time>
      </trkpt>
      <trkpt lat="45.95079" lon="6.86505">
        <ele>1858</ele>
        <time>2026-08-04T06:40:28.278Z</time>
      </trkpt>
      <trkpt lat="45.95078" lon="6.86504">
        <ele>1859</ele>
        <time>2026-08-04T06:40:29.278Z</time>
      </trkpt>
      <trkpt lat="45.95078" lon="6.86503">
        <ele>1859</ele>
        <time>2026-08-04T06:40:30.278Z</time>
      </trkpt>
      <trkpt lat="45.95077" lon="6.86502">
        <ele>1860</ele>
        <time>2026-08-04T06:40:31.278Z</time>
      </trkpt>
      <trkpt lat="45.95077" lon="6.86501">
        <ele>1860</ele>
        <time>2026-08-04T06:40:32.278Z</time>
      </trkpt>
      <trkpt lat="45.95076" lon="6.865">
        <ele>1860</ele>
        <time>2026-08-04T06:40:33.278Z</time>
      </trkpt>
      <trkpt lat="45.95076" lon="6.86498">
        <ele>1860</ele>
        <time>2026-08-04T06:40:34.278Z</time>
      </trkpt>
      <trkpt lat="45.95075" lon="6.86498">
        <ele>1860</ele>
        <time>2026-08-04T06:40:35.278Z</time>
      </trkpt>
      <trkpt lat="45.95075" lon="6.86497">
        <ele>1861</ele>
        <time>2026-08-04T06:40:36.278Z</time>
      </trkpt>
      <trkpt lat="45.95074" lon="6.86496">
        <ele>1861</ele>
        <time>2026-08-04T06:40:37.278Z</time>
      </trkpt>
      <trkpt lat="45.95074" lon="6.86495">
        <ele>1861</ele>
        <time>2026-08-04T06:40:38.278Z</time>
      </trkpt>
      <trkpt lat="45.95073" lon="6.86495">
        <ele>1862</ele>
        <time>2026-08-04T06:40:39.278Z</time>
      </trkpt>
      <trkpt lat="45.95073" lon="6.86495">
        <ele>1862</ele>
        <time>2026-08-04T06:40:40.278Z</time>
      </trkpt>
      <trkpt lat="45.95073" lon="6.86495">
        <ele>1862</ele>
        <time>2026-08-04T06:40:41.278Z</time>
      </trkpt>
      <trkpt lat="45.95073" lon="6.86494">
        <ele>1862</ele>
        <time>2026-08-04T06:40:42.278Z</time>
      </trkpt>
      <trkpt lat="45.95073" lon="6.86494">
        <ele>1862</ele>
        <time>2026-08-04T06:40:43.278Z</time>
      </trkpt>
      <trkpt lat="45.95073" lon="6.86494">
        <ele>1862</ele>
        <time>2026-08-04T06:40:44.278Z</time>
      </trkpt>
      <trkpt lat="45.95073" lon="6.86494">
        <ele>1862</ele>
        <time>2026-08-04T06:40:45.278Z</time>
      </trkpt>
      <trkpt lat="45.95073" lon="6.86494">
        <ele>1862</ele>
        <time>2026-08-04T06:40:46.278Z</time>
      </trkpt>
      <trkpt lat="45.95073" lon="6.86494">
        <ele>1863</ele>
        <time>2026-08-04T06:40:47.278Z</time>
      </trkpt>
      <trkpt lat="45.95073" lon="6.86494">
        <ele>1863</ele>
        <time>2026-08-04T06:40:48.278Z</time>
      </trkpt>
      <trkpt lat="45.95073" lon="6.86494">
        <ele>1863</ele>
        <time>2026-08-04T06:40:49.278Z</time>
      </trkpt>
      <trkpt lat="45.95073" lon="6.86495">
        <ele>1864</ele>
        <time>2026-08-04T06:40:50.278Z</time>
      </trkpt>
      <trkpt lat="45.95073" lon="6.86495">
        <ele>1864</ele>
        <time>2026-08-04T06:40:51.278Z</time>
      </trkpt>
      <trkpt lat="45.95073" lon="6.86495">
        <ele>1865</ele>
        <time>2026-08-04T06:40:52.278Z</time>
      </trkpt>
      <trkpt lat="45.95073" lon="6.86495">
        <ele>1865</ele>
        <time>2026-08-04T06:40:53.278Z</time>
      </trkpt>
      <trkpt lat="45.95073" lon="6.86495">
        <ele>1865</ele>
        <time>2026-08-04T06:40:54.278Z</time>
      </trkpt>
      <trkpt lat="45.95073" lon="6.86495">
        <ele>1865</ele>
        <time>2026-08-04T06:40:55.278Z</time>
      </trkpt>
      <trkpt lat="45.95073" lon="6.86495">
        <ele>1865</ele>
        <time>2026-08-04T06:40:56.278Z</time>
      </trkpt>
      <trkpt lat="45.95073" lon="6.86495">
        <ele>1865</ele>
        <time>2026-08-04T06:40:57.278Z</time>
      </trkpt>
      <trkpt lat="45.95073" lon="6.86495">
        <ele>1865</ele>
        <time>2026-08-04T06:40:58.278Z</time>
      </trkpt>
      <trkpt lat="45.95073" lon="6.86495">
        <ele>1865</ele>
        <time>2026-08-04T06:40:59.278Z</time>
      </trkpt>
      <trkpt lat="45.95073" lon="6.86495">
        <ele>1865</ele>
        <time>2026-08-04T06:41:00.278Z</time>
      </trkpt>
      <trkpt lat="45.95073" lon="6.86494">
        <ele>1865</ele>
        <time>2026-08-04T06:41:01.278Z</time>
      </trkpt>
      <trkpt lat="45.95073" lon="6.86494">
        <ele>1865</ele>
        <time>2026-08-04T06:41:02.278Z</time>
      </trkpt>
      <trkpt lat="45.95073" lon="6.86494">
        <ele>1865</ele>
        <time>2026-08-04T06:41:03.278Z</time>
      </trkpt>
      <trkpt lat="45.95073" lon="6.86494">
        <ele>1865</ele>
        <time>2026-08-04T06:41:04.278Z</time>
      </trkpt>
      <trkpt lat="45.95073" lon="6.86494">
        <ele>1865</ele>
        <time>2026-08-04T06:41:05.278Z</time>
      </trkpt>
      <trkpt lat="45.95073" lon="6.86494">
        <ele>1865</ele>
        <time>2026-08-04T06:41:06.278Z</time>
      </trkpt>
      <trkpt lat="45.95073" lon="6.86494">
        <ele>1865</ele>
        <time>2026-08-04T06:41:07.278Z</time>
      </trkpt>
      <trkpt lat="45.95074" lon="6.86494">
        <ele>1865</ele>
        <time>2026-08-04T06:41:08.278Z</time>
      </trkpt>
      <trkpt lat="45.95076" lon="6.86494">
        <ele>1865</ele>
        <time>2026-08-04T06:41:09.278Z</time>
      </trkpt>
      <trkpt lat="45.95077" lon="6.86494">
        <ele>1865</ele>
        <time>2026-08-04T06:41:10.278Z</time>
      </trkpt>
      <trkpt lat="45.95079" lon="6.86494">
        <ele>1865</ele>
        <time>2026-08-04T06:41:11.278Z</time>
      </trkpt>
      <trkpt lat="45.95081" lon="6.86494">
        <ele>1864</ele>
        <time>2026-08-04T06:41:12.278Z</time>
      </trkpt>
      <trkpt lat="45.95083" lon="6.86493">
        <ele>1864</ele>
        <time>2026-08-04T06:41:13.278Z</time>
      </trkpt>
      <trkpt lat="45.95085" lon="6.86493">
        <ele>1864</ele>
        <time>2026-08-04T06:41:14.278Z</time>
      </trkpt>
      <trkpt lat="45.95086" lon="6.86494">
        <ele>1863</ele>
        <time>2026-08-04T06:41:15.278Z</time>
      </trkpt>
      <trkpt lat="45.95088" lon="6.86494">
        <ele>1863</ele>
        <time>2026-08-04T06:41:16.278Z</time>
      </trkpt>
      <trkpt lat="45.95089" lon="6.86494">
        <ele>1863</ele>
        <time>2026-08-04T06:41:17.278Z</time>
      </trkpt>
      <trkpt lat="45.9509" lon="6.86494">
        <ele>1862</ele>
        <time>2026-08-04T06:41:18.278Z</time>
      </trkpt>
      <trkpt lat="45.95091" lon="6.86495">
        <ele>1862</ele>
        <time>2026-08-04T06:41:19.278Z</time>
      </trkpt>
      <trkpt lat="45.95092" lon="6.86495">
        <ele>1862</ele>
        <time>2026-08-04T06:41:20.278Z</time>
      </trkpt>
      <trkpt lat="45.95093" lon="6.86495">
        <ele>1862</ele>
        <time>2026-08-04T06:41:21.278Z</time>
      </trkpt>
      <trkpt lat="45.95093" lon="6.86496">
        <ele>1862</ele>
        <time>2026-08-04T06:41:22.278Z</time>
      </trkpt>
      <trkpt lat="45.95094" lon="6.86496">
        <ele>1861</ele>
        <time>2026-08-04T06:41:23.278Z</time>
      </trkpt>
      <trkpt lat="45.95095" lon="6.86496">
        <ele>1861</ele>
        <time>2026-08-04T06:41:24.278Z</time>
      </trkpt>
      <trkpt lat="45.95096" lon="6.86497">
        <ele>1861</ele>
        <time>2026-08-04T06:41:25.278Z</time>
      </trkpt>
      <trkpt lat="45.95096" lon="6.86497">
        <ele>1861</ele>
        <time>2026-08-04T06:41:26.278Z</time>
      </trkpt>
      <trkpt lat="45.95097" lon="6.86497">
        <ele>1861</ele>
        <time>2026-08-04T06:41:27.278Z</time>
      </trkpt>
      <trkpt lat="45.95097" lon="6.86497">
        <ele>1861</ele>
        <time>2026-08-04T06:41:28.278Z</time>
      </trkpt>
      <trkpt lat="45.95098" lon="6.86497">
        <ele>1862</ele>
        <time>2026-08-04T06:41:29.278Z</time>
      </trkpt>
      <trkpt lat="45.95098" lon="6.86496">
        <ele>1862</ele>
        <time>2026-08-04T06:41:30.278Z</time>
      </trkpt>
      <trkpt lat="45.95098" lon="6.86496">
        <ele>1862</ele>
        <time>2026-08-04T06:41:31.278Z</time>
      </trkpt>
      <trkpt lat="45.95098" lon="6.86496">
        <ele>1863</ele>
        <time>2026-08-04T06:41:32.278Z</time>
      </trkpt>
      <trkpt lat="45.95098" lon="6.86496">
        <ele>1863</ele>
        <time>2026-08-04T06:41:33.278Z</time>
      </trkpt>
      <trkpt lat="45.95098" lon="6.86497">
        <ele>1863</ele>
        <time>2026-08-04T06:41:34.278Z</time>
      </trkpt>
      <trkpt lat="45.95098" lon="6.86497">
        <ele>1863</ele>
        <time>2026-08-04T06:41:35.278Z</time>
      </trkpt>
      <trkpt lat="45.95098" lon="6.86497">
        <ele>1864</ele>
        <time>2026-08-04T06:41:36.278Z</time>
      </trkpt>
      <trkpt lat="45.95098" lon="6.86497">
        <ele>1864</ele>
        <time>2026-08-04T06:41:37.278Z</time>
      </trkpt>
      <trkpt lat="45.95098" lon="6.86497">
        <ele>1864</ele>
        <time>2026-08-04T06:41:38.278Z</time>
      </trkpt>
      <trkpt lat="45.95097" lon="6.86497">
        <ele>1864</ele>
        <time>2026-08-04T06:41:39.278Z</time>
      </trkpt>
      <trkpt lat="45.95097" lon="6.86498">
        <ele>1864</ele>
        <time>2026-08-04T06:41:40.278Z</time>
      </trkpt>
      <trkpt lat="45.95097" lon="6.86498">
        <ele>1864</ele>
        <time>2026-08-04T06:41:41.278Z</time>
      </trkpt>
      <trkpt lat="45.95097" lon="6.86498">
        <ele>1864</ele>
        <time>2026-08-04T06:41:42.278Z</time>
      </trkpt>
      <trkpt lat="45.95097" lon="6.86498">
        <ele>1866</ele>
        <time>2026-08-04T06:41:43.278Z</time>
      </trkpt>
      <trkpt lat="45.95097" lon="6.86498">
        <ele>1867</ele>
        <time>2026-08-04T06:41:44.278Z</time>
      </trkpt>
      <trkpt lat="45.95097" lon="6.86498">
        <ele>1869</ele>
        <time>2026-08-04T06:41:45.278Z</time>
      </trkpt>
      <trkpt lat="45.95097" lon="6.86498">
        <ele>1871</ele>
        <time>2026-08-04T06:41:46.278Z</time>
      </trkpt>
      <trkpt lat="45.95097" lon="6.86498">
        <ele>1872</ele>
        <time>2026-08-04T06:41:47.278Z</time>
      </trkpt>
      <trkpt lat="45.95097" lon="6.86498">
        <ele>1873</ele>
        <time>2026-08-04T06:41:48.278Z</time>
      </trkpt>
      <trkpt lat="45.95097" lon="6.86498">
        <ele>1874</ele>
        <time>2026-08-04T06:41:49.278Z</time>
      </trkpt>
      <trkpt lat="45.95097" lon="6.86498">
        <ele>1875</ele>
        <time>2026-08-04T06:41:50.278Z</time>
      </trkpt>
      <trkpt lat="45.95097" lon="6.86498">
        <ele>1876</ele>
        <time>2026-08-04T06:41:51.278Z</time>
      </trkpt>
      <trkpt lat="45.95097" lon="6.86498">
        <ele>1876</ele>
        <time>2026-08-04T06:41:52.278Z</time>
      </trkpt>
      <trkpt lat="45.95097" lon="6.86498">
        <ele>1877</ele>
        <time>2026-08-04T06:41:53.278Z</time>
      </trkpt>
      <trkpt lat="45.95097" lon="6.86498">
        <ele>1878</ele>
        <time>2026-08-04T06:41:54.278Z</time>
      </trkpt>
      <trkpt lat="45.95097" lon="6.86498">
        <ele>1878</ele>
        <time>2026-08-04T06:41:55.278Z</time>
      </trkpt>
      <trkpt lat="45.95097" lon="6.86498">
        <ele>1879</ele>
        <time>2026-08-04T06:41:56.278Z</time>
      </trkpt>
      <trkpt lat="45.95097" lon="6.86498">
        <ele>1879</ele>
        <time>2026-08-04T06:41:57.278Z</time>
      </trkpt>
      <trkpt lat="45.95097" lon="6.86497">
        <ele>1879</ele>
        <time>2026-08-04T06:41:58.278Z</time>
      </trkpt>
      <trkpt lat="45.95097" lon="6.86497">
        <ele>1880</ele>
        <time>2026-08-04T06:41:59.278Z</time>
      </trkpt>
      <trkpt lat="45.95097" lon="6.86496">
        <ele>1880</ele>
        <time>2026-08-04T06:42:00.278Z</time>
      </trkpt>
      <trkpt lat="45.95097" lon="6.86494">
        <ele>1880</ele>
        <time>2026-08-04T06:42:01.278Z</time>
      </trkpt>
      <trkpt lat="45.95097" lon="6.86492">
        <ele>1880</ele>
        <time>2026-08-04T06:42:02.278Z</time>
      </trkpt>
      <trkpt lat="45.95098" lon="6.8649">
        <ele>1880</ele>
        <time>2026-08-04T06:42:03.278Z</time>
      </trkpt>
      <trkpt lat="45.95098" lon="6.86488">
        <ele>1880</ele>
        <time>2026-08-04T06:42:04.278Z</time>
      </trkpt>
      <trkpt lat="45.95099" lon="6.86486">
        <ele>1880</ele>
        <time>2026-08-04T06:42:05.278Z</time>
      </trkpt>
      <trkpt lat="45.951" lon="6.86484">
        <ele>1879</ele>
        <time>2026-08-04T06:42:06.278Z</time>
      </trkpt>
      <trkpt lat="45.95101" lon="6.86482">
        <ele>1879</ele>
        <time>2026-08-04T06:42:07.278Z</time>
      </trkpt>
      <trkpt lat="45.95102" lon="6.86481">
        <ele>1878</ele>
        <time>2026-08-04T06:42:08.278Z</time>
      </trkpt>
      <trkpt lat="45.95103" lon="6.86479">
        <ele>1877</ele>
        <time>2026-08-04T06:42:09.278Z</time>
      </trkpt>
      <trkpt lat="45.95103" lon="6.86479">
        <ele>1877</ele>
        <time>2026-08-04T06:42:10.278Z</time>
      </trkpt>
      <trkpt lat="45.95104" lon="6.86479">
        <ele>1876</ele>
        <time>2026-08-04T06:42:11.278Z</time>
      </trkpt>
      <trkpt lat="45.95105" lon="6.86478">
        <ele>1876</ele>
        <time>2026-08-04T06:42:12.278Z</time>
      </trkpt>
      <trkpt lat="45.95105" lon="6.86478">
        <ele>1876</ele>
        <time>2026-08-04T06:42:13.278Z</time>
      </trkpt>
      <trkpt lat="45.95105" lon="6.86477">
        <ele>1875</ele>
        <time>2026-08-04T06:42:14.278Z</time>
      </trkpt>
      <trkpt lat="45.95106" lon="6.86477">
        <ele>1875</ele>
        <time>2026-08-04T06:42:15.278Z</time>
      </trkpt>
      <trkpt lat="45.95106" lon="6.86477">
        <ele>1874</ele>
        <time>2026-08-04T06:42:16.278Z</time>
      </trkpt>
      <trkpt lat="45.95106" lon="6.86477">
        <ele>1874</ele>
        <time>2026-08-04T06:42:17.278Z</time>
      </trkpt>
      <trkpt lat="45.95106" lon="6.86477">
        <ele>1874</ele>
        <time>2026-08-04T06:42:18.278Z</time>
      </trkpt>
      <trkpt lat="45.95106" lon="6.86477">
        <ele>1873</ele>
        <time>2026-08-04T06:42:19.278Z</time>
      </trkpt>
      <trkpt lat="45.95105" lon="6.86476">
        <ele>1873</ele>
        <time>2026-08-04T06:42:20.278Z</time>
      </trkpt>
      <trkpt lat="45.95106" lon="6.86475">
        <ele>1873</ele>
        <time>2026-08-04T06:42:21.278Z</time>
      </trkpt>
      <trkpt lat="45.95106" lon="6.86474">
        <ele>1873</ele>
        <time>2026-08-04T06:42:22.278Z</time>
      </trkpt>
      <trkpt lat="45.95106" lon="6.86474">
        <ele>1874</ele>
        <time>2026-08-04T06:42:23.278Z</time>
      </trkpt>
      <trkpt lat="45.95107" lon="6.86473">
        <ele>1874</ele>
        <time>2026-08-04T06:42:24.278Z</time>
      </trkpt>
      <trkpt lat="45.95107" lon="6.86473">
        <ele>1874</ele>
        <time>2026-08-04T06:42:25.278Z</time>
      </trkpt>
      <trkpt lat="45.95108" lon="6.86473">
        <ele>1874</ele>
        <time>2026-08-04T06:42:26.278Z</time>
      </trkpt>
      <trkpt lat="45.95108" lon="6.86472">
        <ele>1874</ele>
        <time>2026-08-04T06:42:27.278Z</time>
      </trkpt>
      <trkpt lat="45.95109" lon="6.86472">
        <ele>1875</ele>
        <time>2026-08-04T06:42:28.278Z</time>
      </trkpt>
      <trkpt lat="45.95109" lon="6.86471">
        <ele>1875</ele>
        <time>2026-08-04T06:42:29.278Z</time>
      </trkpt>
      <trkpt lat="45.9511" lon="6.86471">
        <ele>1875</ele>
        <time>2026-08-04T06:42:30.278Z</time>
      </trkpt>
      <trkpt lat="45.9511" lon="6.86469">
        <ele>1875</ele>
        <time>2026-08-04T06:42:31.278Z</time>
      </trkpt>
      <trkpt lat="45.9511" lon="6.86469">
        <ele>1875</ele>
        <time>2026-08-04T06:42:32.278Z</time>
      </trkpt>
      <trkpt lat="45.95109" lon="6.86468">
        <ele>1874</ele>
        <time>2026-08-04T06:42:33.278Z</time>
      </trkpt>
      <trkpt lat="45.95109" lon="6.86466">
        <ele>1874</ele>
        <time>2026-08-04T06:42:34.278Z</time>
      </trkpt>
      <trkpt lat="45.95109" lon="6.86465">
        <ele>1874</ele>
        <time>2026-08-04T06:42:35.278Z</time>
      </trkpt>
      <trkpt lat="45.95109" lon="6.86464">
        <ele>1873</ele>
        <time>2026-08-04T06:42:36.278Z</time>
      </trkpt>
      <trkpt lat="45.95109" lon="6.86463">
        <ele>1873</ele>
        <time>2026-08-04T06:42:37.278Z</time>
      </trkpt>
      <trkpt lat="45.95109" lon="6.86463">
        <ele>1873</ele>
        <time>2026-08-04T06:42:38.278Z</time>
      </trkpt>
      <trkpt lat="45.9511" lon="6.86463">
        <ele>1873</ele>
        <time>2026-08-04T06:42:39.278Z</time>
      </trkpt>
      <trkpt lat="45.9511" lon="6.86462">
        <ele>1873</ele>
        <time>2026-08-04T06:42:40.278Z</time>
      </trkpt>
      <trkpt lat="45.9511" lon="6.86462">
        <ele>1873</ele>
        <time>2026-08-04T06:42:41.278Z</time>
      </trkpt>
      <trkpt lat="45.9511" lon="6.86461">
        <ele>1874</ele>
        <time>2026-08-04T06:42:42.278Z</time>
      </trkpt>
      <trkpt lat="45.95111" lon="6.8646">
        <ele>1874</ele>
        <time>2026-08-04T06:42:43.278Z</time>
      </trkpt>
      <trkpt lat="45.95111" lon="6.8646">
        <ele>1875</ele>
        <time>2026-08-04T06:42:44.278Z</time>
      </trkpt>
      <trkpt lat="45.95112" lon="6.86459">
        <ele>1875</ele>
        <time>2026-08-04T06:42:45.278Z</time>
      </trkpt>
      <trkpt lat="45.95113" lon="6.86459">
        <ele>1876</ele>
        <time>2026-08-04T06:42:46.278Z</time>
      </trkpt>
      <trkpt lat="45.95114" lon="6.8646">
        <ele>1876</ele>
        <time>2026-08-04T06:42:47.278Z</time>
      </trkpt>
      <trkpt lat="45.95115" lon="6.86459">
        <ele>1876</ele>
        <time>2026-08-04T06:42:48.278Z</time>
      </trkpt>
      <trkpt lat="45.95115" lon="6.86459">
        <ele>1877</ele>
        <time>2026-08-04T06:42:49.278Z</time>
      </trkpt>
      <trkpt lat="45.95115" lon="6.86458">
        <ele>1877</ele>
        <time>2026-08-04T06:42:50.278Z</time>
      </trkpt>
      <trkpt lat="45.95115" lon="6.86458">
        <ele>1877</ele>
        <time>2026-08-04T06:42:51.278Z</time>
      </trkpt>
      <trkpt lat="45.95115" lon="6.86457">
        <ele>1878</ele>
        <time>2026-08-04T06:42:52.278Z</time>
      </trkpt>
      <trkpt lat="45.95114" lon="6.86457">
        <ele>1878</ele>
        <time>2026-08-04T06:42:53.278Z</time>
      </trkpt>
      <trkpt lat="45.95113" lon="6.86457">
        <ele>1879</ele>
        <time>2026-08-04T06:42:54.278Z</time>
      </trkpt>
      <trkpt lat="45.95113" lon="6.86457">
        <ele>1879</ele>
        <time>2026-08-04T06:42:55.278Z</time>
      </trkpt>
      <trkpt lat="45.95112" lon="6.86457">
        <ele>1880</ele>
        <time>2026-08-04T06:42:56.278Z</time>
      </trkpt>
      <trkpt lat="45.95111" lon="6.86456">
        <ele>1880</ele>
        <time>2026-08-04T06:42:57.278Z</time>
      </trkpt>
      <trkpt lat="45.95111" lon="6.86456">
        <ele>1880</ele>
        <time>2026-08-04T06:42:58.278Z</time>
      </trkpt>
      <trkpt lat="45.9511" lon="6.86454">
        <ele>1880</ele>
        <time>2026-08-04T06:42:59.278Z</time>
      </trkpt>
      <trkpt lat="45.9511" lon="6.86453">
        <ele>1880</ele>
        <time>2026-08-04T06:43:00.278Z</time>
      </trkpt>
      <trkpt lat="45.9511" lon="6.86452">
        <ele>1880</ele>
        <time>2026-08-04T06:43:01.278Z</time>
      </trkpt>
      <trkpt lat="45.9511" lon="6.86451">
        <ele>1880</ele>
        <time>2026-08-04T06:43:02.278Z</time>
      </trkpt>
      <trkpt lat="45.9511" lon="6.8645">
        <ele>1881</ele>
        <time>2026-08-04T06:43:03.278Z</time>
      </trkpt>
      <trkpt lat="45.9511" lon="6.86449">
        <ele>1882</ele>
        <time>2026-08-04T06:43:04.278Z</time>
      </trkpt>
      <trkpt lat="45.95109" lon="6.86449">
        <ele>1882</ele>
        <time>2026-08-04T06:43:05.278Z</time>
      </trkpt>
      <trkpt lat="45.95109" lon="6.86448">
        <ele>1882</ele>
        <time>2026-08-04T06:43:06.278Z</time>
      </trkpt>
      <trkpt lat="45.95108" lon="6.86448">
        <ele>1883</ele>
        <time>2026-08-04T06:43:07.278Z</time>
      </trkpt>
      <trkpt lat="45.95108" lon="6.86448">
        <ele>1883</ele>
        <time>2026-08-04T06:43:08.278Z</time>
      </trkpt>
      <trkpt lat="45.95107" lon="6.86448">
        <ele>1882</ele>
        <time>2026-08-04T06:43:09.278Z</time>
      </trkpt>
      <trkpt lat="45.95106" lon="6.86448">
        <ele>1882</ele>
        <time>2026-08-04T06:43:10.278Z</time>
      </trkpt>
      <trkpt lat="45.95105" lon="6.86448">
        <ele>1882</ele>
        <time>2026-08-04T06:43:11.278Z</time>
      </trkpt>
      <trkpt lat="45.95104" lon="6.86447">
        <ele>1883</ele>
        <time>2026-08-04T06:43:12.278Z</time>
      </trkpt>
      <trkpt lat="45.95103" lon="6.86447">
        <ele>1883</ele>
        <time>2026-08-04T06:43:13.278Z</time>
      </trkpt>
      <trkpt lat="45.95102" lon="6.86446">
        <ele>1883</ele>
        <time>2026-08-04T06:43:14.278Z</time>
      </trkpt>
      <trkpt lat="45.95101" lon="6.86446">
        <ele>1883</ele>
        <time>2026-08-04T06:43:15.278Z</time>
      </trkpt>
      <trkpt lat="45.951" lon="6.86446">
        <ele>1883</ele>
        <time>2026-08-04T06:43:16.278Z</time>
      </trkpt>
      <trkpt lat="45.95099" lon="6.86445">
        <ele>1883</ele>
        <time>2026-08-04T06:43:17.278Z</time>
      </trkpt>
      <trkpt lat="45.95098" lon="6.86445">
        <ele>1883</ele>
        <time>2026-08-04T06:43:18.278Z</time>
      </trkpt>
      <trkpt lat="45.95097" lon="6.86444">
        <ele>1883</ele>
        <time>2026-08-04T06:43:19.278Z</time>
      </trkpt>
      <trkpt lat="45.95096" lon="6.86444">
        <ele>1883</ele>
        <time>2026-08-04T06:43:20.278Z</time>
      </trkpt>
      <trkpt lat="45.95095" lon="6.86443">
        <ele>1883</ele>
        <time>2026-08-04T06:43:21.278Z</time>
      </trkpt>
      <trkpt lat="45.95094" lon="6.86443">
        <ele>1883</ele>
        <time>2026-08-04T06:43:22.278Z</time>
      </trkpt>
      <trkpt lat="45.95093" lon="6.86443">
        <ele>1884</ele>
        <time>2026-08-04T06:43:23.278Z</time>
      </trkpt>
      <trkpt lat="45.95093" lon="6.86442">
        <ele>1884</ele>
        <time>2026-08-04T06:43:24.278Z</time>
      </trkpt>
      <trkpt lat="45.95092" lon="6.86442">
        <ele>1885</ele>
        <time>2026-08-04T06:43:25.278Z</time>
      </trkpt>
      <trkpt lat="45.95091" lon="6.86441">
        <ele>1886</ele>
        <time>2026-08-04T06:43:26.278Z</time>
      </trkpt>
      <trkpt lat="45.9509" lon="6.86441">
        <ele>1886</ele>
        <time>2026-08-04T06:43:27.278Z</time>
      </trkpt>
      <trkpt lat="45.9509" lon="6.8644">
        <ele>1887</ele>
        <time>2026-08-04T06:43:28.278Z</time>
      </trkpt>
      <trkpt lat="45.95089" lon="6.86439">
        <ele>1888</ele>
        <time>2026-08-04T06:43:29.278Z</time>
      </trkpt>
      <trkpt lat="45.95089" lon="6.86437">
        <ele>1888</ele>
        <time>2026-08-04T06:43:30.278Z</time>
      </trkpt>
      <trkpt lat="45.95088" lon="6.86436">
        <ele>1888</ele>
        <time>2026-08-04T06:43:31.278Z</time>
      </trkpt>
      <trkpt lat="45.95088" lon="6.86435">
        <ele>1888</ele>
        <time>2026-08-04T06:43:32.278Z</time>
      </trkpt>
      <trkpt lat="45.95087" lon="6.86435">
        <ele>1889</ele>
        <time>2026-08-04T06:43:33.278Z</time>
      </trkpt>
      <trkpt lat="45.95087" lon="6.86434">
        <ele>1889</ele>
        <time>2026-08-04T06:43:34.278Z</time>
      </trkpt>
      <trkpt lat="45.95086" lon="6.86433">
        <ele>1889</ele>
        <time>2026-08-04T06:43:35.278Z</time>
      </trkpt>
      <trkpt lat="45.95086" lon="6.86432">
        <ele>1888</ele>
        <time>2026-08-04T06:43:36.278Z</time>
      </trkpt>
      <trkpt lat="45.95086" lon="6.86431">
        <ele>1888</ele>
        <time>2026-08-04T06:43:37.278Z</time>
      </trkpt>
      <trkpt lat="45.95086" lon="6.86429">
        <ele>1888</ele>
        <time>2026-08-04T06:43:38.278Z</time>
      </trkpt>
      <trkpt lat="45.95086" lon="6.86428">
        <ele>1889</ele>
        <time>2026-08-04T06:43:39.278Z</time>
      </trkpt>
      <trkpt lat="45.95087" lon="6.86427">
        <ele>1889</ele>
        <time>2026-08-04T06:43:40.278Z</time>
      </trkpt>
      <trkpt lat="45.95087" lon="6.86426">
        <ele>1889</ele>
        <time>2026-08-04T06:43:41.278Z</time>
      </trkpt>
      <trkpt lat="45.95088" lon="6.86426">
        <ele>1889</ele>
        <time>2026-08-04T06:43:42.278Z</time>
      </trkpt>
      <trkpt lat="45.95089" lon="6.86425">
        <ele>1890</ele>
        <time>2026-08-04T06:43:43.278Z</time>
      </trkpt>
      <trkpt lat="45.95089" lon="6.86426">
        <ele>1890</ele>
        <time>2026-08-04T06:43:44.278Z</time>
      </trkpt>
      <trkpt lat="45.9509" lon="6.86426">
        <ele>1891</ele>
        <time>2026-08-04T06:43:45.278Z</time>
      </trkpt>
      <trkpt lat="45.95091" lon="6.86426">
        <ele>1891</ele>
        <time>2026-08-04T06:43:46.278Z</time>
      </trkpt>
      <trkpt lat="45.95092" lon="6.86426">
        <ele>1892</ele>
        <time>2026-08-04T06:43:47.278Z</time>
      </trkpt>
      <trkpt lat="45.95093" lon="6.86426">
        <ele>1892</ele>
        <time>2026-08-04T06:43:48.278Z</time>
      </trkpt>
      <trkpt lat="45.95094" lon="6.86426">
        <ele>1893</ele>
        <time>2026-08-04T06:43:49.278Z</time>
      </trkpt>
      <trkpt lat="45.95095" lon="6.86426">
        <ele>1893</ele>
        <time>2026-08-04T06:43:50.278Z</time>
      </trkpt>
      <trkpt lat="45.95095" lon="6.86426">
        <ele>1893</ele>
        <time>2026-08-04T06:43:51.278Z</time>
      </trkpt>
      <trkpt lat="45.95095" lon="6.86425">
        <ele>1894</ele>
        <time>2026-08-04T06:43:52.278Z</time>
      </trkpt>
      <trkpt lat="45.95096" lon="6.86424">
        <ele>1894</ele>
        <time>2026-08-04T06:43:53.278Z</time>
      </trkpt>
      <trkpt lat="45.95096" lon="6.86423">
        <ele>1894</ele>
        <time>2026-08-04T06:43:54.278Z</time>
      </trkpt>
      <trkpt lat="45.95096" lon="6.86422">
        <ele>1894</ele>
        <time>2026-08-04T06:43:55.278Z</time>
      </trkpt>
      <trkpt lat="45.95097" lon="6.86422">
        <ele>1894</ele>
        <time>2026-08-04T06:43:56.278Z</time>
      </trkpt>
      <trkpt lat="45.95097" lon="6.86422">
        <ele>1895</ele>
        <time>2026-08-04T06:43:57.278Z</time>
      </trkpt>
      <trkpt lat="45.95098" lon="6.86421">
        <ele>1895</ele>
        <time>2026-08-04T06:43:58.278Z</time>
      </trkpt>
      <trkpt lat="45.95099" lon="6.86421">
        <ele>1895</ele>
        <time>2026-08-04T06:43:59.278Z</time>
      </trkpt>
      <trkpt lat="45.951" lon="6.86421">
        <ele>1895</ele>
        <time>2026-08-04T06:44:00.278Z</time>
      </trkpt>
      <trkpt lat="45.95101" lon="6.86422">
        <ele>1894</ele>
        <time>2026-08-04T06:44:01.278Z</time>
      </trkpt>
      <trkpt lat="45.95102" lon="6.86422">
        <ele>1894</ele>
        <time>2026-08-04T06:44:02.278Z</time>
      </trkpt>
      <trkpt lat="45.95103" lon="6.86422">
        <ele>1894</ele>
        <time>2026-08-04T06:44:03.278Z</time>
      </trkpt>
      <trkpt lat="45.95103" lon="6.86422">
        <ele>1894</ele>
        <time>2026-08-04T06:44:04.278Z</time>
      </trkpt>
      <trkpt lat="45.95104" lon="6.86422">
        <ele>1894</ele>
        <time>2026-08-04T06:44:05.278Z</time>
      </trkpt>
      <trkpt lat="45.95104" lon="6.86421">
        <ele>1895</ele>
        <time>2026-08-04T06:44:06.278Z</time>
      </trkpt>
      <trkpt lat="45.95105" lon="6.86421">
        <ele>1895</ele>
        <time>2026-08-04T06:44:07.278Z</time>
      </trkpt>
      <trkpt lat="45.95106" lon="6.8642">
        <ele>1896</ele>
        <time>2026-08-04T06:44:08.278Z</time>
      </trkpt>
      <trkpt lat="45.95107" lon="6.8642">
        <ele>1896</ele>
        <time>2026-08-04T06:44:09.278Z</time>
      </trkpt>
      <trkpt lat="45.95107" lon="6.86419">
        <ele>1897</ele>
        <time>2026-08-04T06:44:10.278Z</time>
      </trkpt>
      <trkpt lat="45.95108" lon="6.86418">
        <ele>1897</ele>
        <time>2026-08-04T06:44:11.278Z</time>
      </trkpt>
      <trkpt lat="45.95108" lon="6.86418">
        <ele>1897</ele>
        <time>2026-08-04T06:44:12.278Z</time>
      </trkpt>
      <trkpt lat="45.95109" lon="6.86417">
        <ele>1897</ele>
        <time>2026-08-04T06:44:13.278Z</time>
      </trkpt>
      <trkpt lat="45.9511" lon="6.86417">
        <ele>1898</ele>
        <time>2026-08-04T06:44:14.278Z</time>
      </trkpt>
      <trkpt lat="45.9511" lon="6.86417">
        <ele>1898</ele>
        <time>2026-08-04T06:44:15.278Z</time>
      </trkpt>
      <trkpt lat="45.95111" lon="6.86417">
        <ele>1898</ele>
        <time>2026-08-04T06:44:16.278Z</time>
      </trkpt>
      <trkpt lat="45.95112" lon="6.86416">
        <ele>1898</ele>
        <time>2026-08-04T06:44:17.278Z</time>
      </trkpt>
      <trkpt lat="45.95113" lon="6.86416">
        <ele>1899</ele>
        <time>2026-08-04T06:44:18.278Z</time>
      </trkpt>
      <trkpt lat="45.95114" lon="6.86416">
        <ele>1899</ele>
        <time>2026-08-04T06:44:19.278Z</time>
      </trkpt>
      <trkpt lat="45.95115" lon="6.86416">
        <ele>1899</ele>
        <time>2026-08-04T06:44:20.278Z</time>
      </trkpt>
      <trkpt lat="45.95115" lon="6.86415">
        <ele>1900</ele>
        <time>2026-08-04T06:44:21.278Z</time>
      </trkpt>
      <trkpt lat="45.95116" lon="6.86415">
        <ele>1901</ele>
        <time>2026-08-04T06:44:22.278Z</time>
      </trkpt>
      <trkpt lat="45.95116" lon="6.86415">
        <ele>1902</ele>
        <time>2026-08-04T06:44:23.278Z</time>
      </trkpt>
      <trkpt lat="45.95117" lon="6.86414">
        <ele>1902</ele>
        <time>2026-08-04T06:44:24.278Z</time>
      </trkpt>
      <trkpt lat="45.95117" lon="6.86414">
        <ele>1902</ele>
        <time>2026-08-04T06:44:25.278Z</time>
      </trkpt>
      <trkpt lat="45.95118" lon="6.86413">
        <ele>1903</ele>
        <time>2026-08-04T06:44:26.278Z</time>
      </trkpt>
      <trkpt lat="45.95118" lon="6.86413">
        <ele>1903</ele>
        <time>2026-08-04T06:44:27.278Z</time>
      </trkpt>
      <trkpt lat="45.95119" lon="6.86412">
        <ele>1904</ele>
        <time>2026-08-04T06:44:28.278Z</time>
      </trkpt>
      <trkpt lat="45.95119" lon="6.86412">
        <ele>1904</ele>
        <time>2026-08-04T06:44:29.278Z</time>
      </trkpt>
      <trkpt lat="45.9512" lon="6.86411">
        <ele>1904</ele>
        <time>2026-08-04T06:44:30.278Z</time>
      </trkpt>
      <trkpt lat="45.9512" lon="6.8641">
        <ele>1904</ele>
        <time>2026-08-04T06:44:31.278Z</time>
      </trkpt>
      <trkpt lat="45.9512" lon="6.8641">
        <ele>1904</ele>
        <time>2026-08-04T06:44:32.278Z</time>
      </trkpt>
      <trkpt lat="45.95121" lon="6.86409">
        <ele>1904</ele>
        <time>2026-08-04T06:44:33.278Z</time>
      </trkpt>
      <trkpt lat="45.95121" lon="6.86409">
        <ele>1904</ele>
        <time>2026-08-04T06:44:34.278Z</time>
      </trkpt>
      <trkpt lat="45.95121" lon="6.86408">
        <ele>1904</ele>
        <time>2026-08-04T06:44:35.278Z</time>
      </trkpt>
      <trkpt lat="45.95122" lon="6.86408">
        <ele>1903</ele>
        <time>2026-08-04T06:44:36.278Z</time>
      </trkpt>
      <trkpt lat="45.95122" lon="6.86408">
        <ele>1903</ele>
        <time>2026-08-04T06:44:37.278Z</time>
      </trkpt>
      <trkpt lat="45.95121" lon="6.86407">
        <ele>1903</ele>
        <time>2026-08-04T06:44:38.278Z</time>
      </trkpt>
      <trkpt lat="45.95121" lon="6.86406">
        <ele>1903</ele>
        <time>2026-08-04T06:44:39.278Z</time>
      </trkpt>
      <trkpt lat="45.95121" lon="6.86405">
        <ele>1903</ele>
        <time>2026-08-04T06:44:40.278Z</time>
      </trkpt>
      <trkpt lat="45.95121" lon="6.86405">
        <ele>1904</ele>
        <time>2026-08-04T06:44:41.278Z</time>
      </trkpt>
      <trkpt lat="45.9512" lon="6.86404">
        <ele>1904</ele>
        <time>2026-08-04T06:44:42.278Z</time>
      </trkpt>
      <trkpt lat="45.9512" lon="6.86403">
        <ele>1904</ele>
        <time>2026-08-04T06:44:43.278Z</time>
      </trkpt>
      <trkpt lat="45.9512" lon="6.86403">
        <ele>1904</ele>
        <time>2026-08-04T06:44:44.278Z</time>
      </trkpt>
      <trkpt lat="45.9512" lon="6.86402">
        <ele>1904</ele>
        <time>2026-08-04T06:44:45.278Z</time>
      </trkpt>
      <trkpt lat="45.95119" lon="6.86402">
        <ele>1904</ele>
        <time>2026-08-04T06:44:46.278Z</time>
      </trkpt>
      <trkpt lat="45.95119" lon="6.86401">
        <ele>1904</ele>
        <time>2026-08-04T06:44:47.278Z</time>
      </trkpt>
      <trkpt lat="45.95118" lon="6.864">
        <ele>1904</ele>
        <time>2026-08-04T06:44:48.278Z</time>
      </trkpt>
      <trkpt lat="45.95118" lon="6.86399">
        <ele>1904</ele>
        <time>2026-08-04T06:44:49.278Z</time>
      </trkpt>
      <trkpt lat="45.95118" lon="6.86399">
        <ele>1904</ele>
        <time>2026-08-04T06:44:50.278Z</time>
      </trkpt>
      <trkpt lat="45.95118" lon="6.86398">
        <ele>1904</ele>
        <time>2026-08-04T06:44:51.278Z</time>
      </trkpt>
      <trkpt lat="45.95118" lon="6.86396">
        <ele>1905</ele>
        <time>2026-08-04T06:44:52.278Z</time>
      </trkpt>
      <trkpt lat="45.95118" lon="6.86395">
        <ele>1905</ele>
        <time>2026-08-04T06:44:53.278Z</time>
      </trkpt>
      <trkpt lat="45.95117" lon="6.86394">
        <ele>1905</ele>
        <time>2026-08-04T06:44:54.278Z</time>
      </trkpt>
      <trkpt lat="45.95117" lon="6.86393">
        <ele>1905</ele>
        <time>2026-08-04T06:44:55.278Z</time>
      </trkpt>
      <trkpt lat="45.95117" lon="6.86392">
        <ele>1905</ele>
        <time>2026-08-04T06:44:56.278Z</time>
      </trkpt>
      <trkpt lat="45.95117" lon="6.86391">
        <ele>1905</ele>
        <time>2026-08-04T06:44:57.278Z</time>
      </trkpt>
      <trkpt lat="45.95116" lon="6.8639">
        <ele>1905</ele>
        <time>2026-08-04T06:44:58.278Z</time>
      </trkpt>
      <trkpt lat="45.95117" lon="6.86388">
        <ele>1905</ele>
        <time>2026-08-04T06:44:59.278Z</time>
      </trkpt>
      <trkpt lat="45.95117" lon="6.86388">
        <ele>1906</ele>
        <time>2026-08-04T06:45:00.278Z</time>
      </trkpt>
      <trkpt lat="45.95118" lon="6.86387">
        <ele>1906</ele>
        <time>2026-08-04T06:45:01.278Z</time>
      </trkpt>
      <trkpt lat="45.95119" lon="6.86387">
        <ele>1907</ele>
        <time>2026-08-04T06:45:02.278Z</time>
      </trkpt>
      <trkpt lat="45.95119" lon="6.86387">
        <ele>1907</ele>
        <time>2026-08-04T06:45:03.278Z</time>
      </trkpt>
      <trkpt lat="45.9512" lon="6.86387">
        <ele>1907</ele>
        <time>2026-08-04T06:45:04.278Z</time>
      </trkpt>
      <trkpt lat="45.95121" lon="6.86387">
        <ele>1907</ele>
        <time>2026-08-04T06:45:05.278Z</time>
      </trkpt>
      <trkpt lat="45.95121" lon="6.86387">
        <ele>1908</ele>
        <time>2026-08-04T06:45:06.278Z</time>
      </trkpt>
      <trkpt lat="45.95122" lon="6.86387">
        <ele>1908</ele>
        <time>2026-08-04T06:45:07.278Z</time>
      </trkpt>
      <trkpt lat="45.95123" lon="6.86387">
        <ele>1908</ele>
        <time>2026-08-04T06:45:08.278Z</time>
      </trkpt>
      <trkpt lat="45.95123" lon="6.86386">
        <ele>1908</ele>
        <time>2026-08-04T06:45:09.278Z</time>
      </trkpt>
      <trkpt lat="45.95123" lon="6.86386">
        <ele>1908</ele>
        <time>2026-08-04T06:45:10.278Z</time>
      </trkpt>
      <trkpt lat="45.95124" lon="6.86385">
        <ele>1908</ele>
        <time>2026-08-04T06:45:11.278Z</time>
      </trkpt>
      <trkpt lat="45.95124" lon="6.86384">
        <ele>1908</ele>
        <time>2026-08-04T06:45:12.278Z</time>
      </trkpt>
      <trkpt lat="45.95125" lon="6.86384">
        <ele>1909</ele>
        <time>2026-08-04T06:45:13.278Z</time>
      </trkpt>
      <trkpt lat="45.95125" lon="6.86383">
        <ele>1909</ele>
        <time>2026-08-04T06:45:14.278Z</time>
      </trkpt>
      <trkpt lat="45.95126" lon="6.86383">
        <ele>1909</ele>
        <time>2026-08-04T06:45:15.278Z</time>
      </trkpt>
      <trkpt lat="45.95127" lon="6.86383">
        <ele>1910</ele>
        <time>2026-08-04T06:45:16.278Z</time>
      </trkpt>
      <trkpt lat="45.95128" lon="6.86382">
        <ele>1910</ele>
        <time>2026-08-04T06:45:17.278Z</time>
      </trkpt>
      <trkpt lat="45.95128" lon="6.86382">
        <ele>1911</ele>
        <time>2026-08-04T06:45:18.278Z</time>
      </trkpt>
      <trkpt lat="45.95128" lon="6.86382">
        <ele>1911</ele>
        <time>2026-08-04T06:45:19.278Z</time>
      </trkpt>
      <trkpt lat="45.95129" lon="6.86383">
        <ele>1911</ele>
        <time>2026-08-04T06:45:20.278Z</time>
      </trkpt>
      <trkpt lat="45.95129" lon="6.86383">
        <ele>1911</ele>
        <time>2026-08-04T06:45:21.278Z</time>
      </trkpt>
      <trkpt lat="45.9513" lon="6.86383">
        <ele>1911</ele>
        <time>2026-08-04T06:45:22.278Z</time>
      </trkpt>
      <trkpt lat="45.95131" lon="6.86383">
        <ele>1912</ele>
        <time>2026-08-04T06:45:23.278Z</time>
      </trkpt>
      <trkpt lat="45.95131" lon="6.86383">
        <ele>1912</ele>
        <time>2026-08-04T06:45:24.278Z</time>
      </trkpt>
      <trkpt lat="45.95131" lon="6.86382">
        <ele>1912</ele>
        <time>2026-08-04T06:45:25.278Z</time>
      </trkpt>
      <trkpt lat="45.95132" lon="6.86381">
        <ele>1913</ele>
        <time>2026-08-04T06:45:26.278Z</time>
      </trkpt>
      <trkpt lat="45.95132" lon="6.86381">
        <ele>1913</ele>
        <time>2026-08-04T06:45:27.278Z</time>
      </trkpt>
      <trkpt lat="45.95133" lon="6.8638">
        <ele>1914</ele>
        <time>2026-08-04T06:45:28.278Z</time>
      </trkpt>
      <trkpt lat="45.95133" lon="6.8638">
        <ele>1914</ele>
        <time>2026-08-04T06:45:29.278Z</time>
      </trkpt>
      <trkpt lat="45.95134" lon="6.86379">
        <ele>1914</ele>
        <time>2026-08-04T06:45:30.278Z</time>
      </trkpt>
      <trkpt lat="45.95134" lon="6.86379">
        <ele>1914</ele>
        <time>2026-08-04T06:45:31.278Z</time>
      </trkpt>
      <trkpt lat="45.95134" lon="6.86379">
        <ele>1914</ele>
        <time>2026-08-04T06:45:32.278Z</time>
      </trkpt>
      <trkpt lat="45.95133" lon="6.86378">
        <ele>1914</ele>
        <time>2026-08-04T06:45:33.278Z</time>
      </trkpt>
      <trkpt lat="45.95133" lon="6.86378">
        <ele>1915</ele>
        <time>2026-08-04T06:45:34.278Z</time>
      </trkpt>
      <trkpt lat="45.95132" lon="6.86377">
        <ele>1915</ele>
        <time>2026-08-04T06:45:35.278Z</time>
      </trkpt>
      <trkpt lat="45.95132" lon="6.86376">
        <ele>1915</ele>
        <time>2026-08-04T06:45:36.278Z</time>
      </trkpt>
      <trkpt lat="45.95132" lon="6.86375">
        <ele>1915</ele>
        <time>2026-08-04T06:45:37.278Z</time>
      </trkpt>
      <trkpt lat="45.95132" lon="6.86374">
        <ele>1915</ele>
        <time>2026-08-04T06:45:38.278Z</time>
      </trkpt>
      <trkpt lat="45.95131" lon="6.86373">
        <ele>1916</ele>
        <time>2026-08-04T06:45:39.278Z</time>
      </trkpt>
      <trkpt lat="45.95131" lon="6.86372">
        <ele>1916</ele>
        <time>2026-08-04T06:45:40.278Z</time>
      </trkpt>
      <trkpt lat="45.95131" lon="6.86371">
        <ele>1916</ele>
        <time>2026-08-04T06:45:41.278Z</time>
      </trkpt>
      <trkpt lat="45.95131" lon="6.8637">
        <ele>1916</ele>
        <time>2026-08-04T06:45:42.278Z</time>
      </trkpt>
      <trkpt lat="45.95131" lon="6.86369">
        <ele>1916</ele>
        <time>2026-08-04T06:45:43.278Z</time>
      </trkpt>
      <trkpt lat="45.95131" lon="6.86368">
        <ele>1916</ele>
        <time>2026-08-04T06:45:44.278Z</time>
      </trkpt>
      <trkpt lat="45.95132" lon="6.86368">
        <ele>1917</ele>
        <time>2026-08-04T06:45:45.278Z</time>
      </trkpt>
      <trkpt lat="45.95132" lon="6.86368">
        <ele>1917</ele>
        <time>2026-08-04T06:45:46.278Z</time>
      </trkpt>
      <trkpt lat="45.95133" lon="6.86368">
        <ele>1917</ele>
        <time>2026-08-04T06:45:47.278Z</time>
      </trkpt>
      <trkpt lat="45.95134" lon="6.86368">
        <ele>1917</ele>
        <time>2026-08-04T06:45:48.278Z</time>
      </trkpt>
      <trkpt lat="45.95135" lon="6.86368">
        <ele>1917</ele>
        <time>2026-08-04T06:45:49.278Z</time>
      </trkpt>
      <trkpt lat="45.95136" lon="6.86368">
        <ele>1917</ele>
        <time>2026-08-04T06:45:50.278Z</time>
      </trkpt>
      <trkpt lat="45.95137" lon="6.86368">
        <ele>1917</ele>
        <time>2026-08-04T06:45:51.278Z</time>
      </trkpt>
      <trkpt lat="45.95138" lon="6.86368">
        <ele>1918</ele>
        <time>2026-08-04T06:45:52.278Z</time>
      </trkpt>
      <trkpt lat="45.95139" lon="6.86368">
        <ele>1918</ele>
        <time>2026-08-04T06:45:53.278Z</time>
      </trkpt>
      <trkpt lat="45.95141" lon="6.86368">
        <ele>1919</ele>
        <time>2026-08-04T06:45:54.278Z</time>
      </trkpt>
      <trkpt lat="45.95142" lon="6.86369">
        <ele>1919</ele>
        <time>2026-08-04T06:45:55.278Z</time>
      </trkpt>
      <trkpt lat="45.95142" lon="6.86369">
        <ele>1919</ele>
        <time>2026-08-04T06:45:56.278Z</time>
      </trkpt>
      <trkpt lat="45.95143" lon="6.86369">
        <ele>1920</ele>
        <time>2026-08-04T06:45:57.278Z</time>
      </trkpt>
      <trkpt lat="45.95144" lon="6.86369">
        <ele>1920</ele>
        <time>2026-08-04T06:45:58.278Z</time>
      </trkpt>
      <trkpt lat="45.95145" lon="6.86369">
        <ele>1920</ele>
        <time>2026-08-04T06:45:59.278Z</time>
      </trkpt>
      <trkpt lat="45.95146" lon="6.8637">
        <ele>1920</ele>
        <time>2026-08-04T06:46:00.278Z</time>
      </trkpt>
      <trkpt lat="45.95146" lon="6.8637">
        <ele>1920</ele>
        <time>2026-08-04T06:46:01.278Z</time>
      </trkpt>
      <trkpt lat="45.95147" lon="6.8637">
        <ele>1920</ele>
        <time>2026-08-04T06:46:02.278Z</time>
      </trkpt>
      <trkpt lat="45.95148" lon="6.8637">
        <ele>1920</ele>
        <time>2026-08-04T06:46:03.278Z</time>
      </trkpt>
      <trkpt lat="45.95149" lon="6.86371">
        <ele>1921</ele>
        <time>2026-08-04T06:46:04.278Z</time>
      </trkpt>
      <trkpt lat="45.9515" lon="6.86371">
        <ele>1921</ele>
        <time>2026-08-04T06:46:05.278Z</time>
      </trkpt>
      <trkpt lat="45.9515" lon="6.86372">
        <ele>1921</ele>
        <time>2026-08-04T06:46:06.278Z</time>
      </trkpt>
      <trkpt lat="45.95151" lon="6.86372">
        <ele>1921</ele>
        <time>2026-08-04T06:46:07.278Z</time>
      </trkpt>
      <trkpt lat="45.95152" lon="6.86373">
        <ele>1922</ele>
        <time>2026-08-04T06:46:08.278Z</time>
      </trkpt>
      <trkpt lat="45.95152" lon="6.86373">
        <ele>1922</ele>
        <time>2026-08-04T06:46:09.278Z</time>
      </trkpt>
      <trkpt lat="45.95152" lon="6.86373">
        <ele>1922</ele>
        <time>2026-08-04T06:46:10.278Z</time>
      </trkpt>
      <trkpt lat="45.95152" lon="6.86372">
        <ele>1922</ele>
        <time>2026-08-04T06:46:11.278Z</time>
      </trkpt>
      <trkpt lat="45.95151" lon="6.86372">
        <ele>1922</ele>
        <time>2026-08-04T06:46:12.278Z</time>
      </trkpt>
      <trkpt lat="45.95151" lon="6.86371">
        <ele>1921</ele>
        <time>2026-08-04T06:46:13.278Z</time>
      </trkpt>
      <trkpt lat="45.95151" lon="6.8637">
        <ele>1921</ele>
        <time>2026-08-04T06:46:14.278Z</time>
      </trkpt>
      <trkpt lat="45.95151" lon="6.86368">
        <ele>1921</ele>
        <time>2026-08-04T06:46:15.278Z</time>
      </trkpt>
      <trkpt lat="45.95151" lon="6.86367">
        <ele>1921</ele>
        <time>2026-08-04T06:46:16.278Z</time>
      </trkpt>
      <trkpt lat="45.9515" lon="6.86366">
        <ele>1921</ele>
        <time>2026-08-04T06:46:17.278Z</time>
      </trkpt>
      <trkpt lat="45.9515" lon="6.86365">
        <ele>1921</ele>
        <time>2026-08-04T06:46:18.278Z</time>
      </trkpt>
      <trkpt lat="45.9515" lon="6.86364">
        <ele>1921</ele>
        <time>2026-08-04T06:46:19.278Z</time>
      </trkpt>
      <trkpt lat="45.9515" lon="6.86363">
        <ele>1922</ele>
        <time>2026-08-04T06:46:20.278Z</time>
      </trkpt>
      <trkpt lat="45.95149" lon="6.86362">
        <ele>1922</ele>
        <time>2026-08-04T06:46:21.278Z</time>
      </trkpt>
      <trkpt lat="45.95149" lon="6.86361">
        <ele>1922</ele>
        <time>2026-08-04T06:46:22.278Z</time>
      </trkpt>
      <trkpt lat="45.9515" lon="6.8636">
        <ele>1923</ele>
        <time>2026-08-04T06:46:23.278Z</time>
      </trkpt>
      <trkpt lat="45.95149" lon="6.86359">
        <ele>1923</ele>
        <time>2026-08-04T06:46:24.278Z</time>
      </trkpt>
      <trkpt lat="45.95149" lon="6.86358">
        <ele>1923</ele>
        <time>2026-08-04T06:46:25.278Z</time>
      </trkpt>
      <trkpt lat="45.95149" lon="6.86358">
        <ele>1924</ele>
        <time>2026-08-04T06:46:26.278Z</time>
      </trkpt>
      <trkpt lat="45.95149" lon="6.86357">
        <ele>1925</ele>
        <time>2026-08-04T06:46:27.278Z</time>
      </trkpt>
      <trkpt lat="45.95149" lon="6.86356">
        <ele>1926</ele>
        <time>2026-08-04T06:46:28.278Z</time>
      </trkpt>
      <trkpt lat="45.95148" lon="6.86355">
        <ele>1926</ele>
        <time>2026-08-04T06:46:29.278Z</time>
      </trkpt>
      <trkpt lat="45.95148" lon="6.86353">
        <ele>1927</ele>
        <time>2026-08-04T06:46:30.278Z</time>
      </trkpt>
      <trkpt lat="45.95148" lon="6.86352">
        <ele>1927</ele>
        <time>2026-08-04T06:46:31.278Z</time>
      </trkpt>
      <trkpt lat="45.95148" lon="6.86351">
        <ele>1927</ele>
        <time>2026-08-04T06:46:32.278Z</time>
      </trkpt>
      <trkpt lat="45.95148" lon="6.86349">
        <ele>1927</ele>
        <time>2026-08-04T06:46:33.278Z</time>
      </trkpt>
      <trkpt lat="45.95148" lon="6.86348">
        <ele>1928</ele>
        <time>2026-08-04T06:46:34.278Z</time>
      </trkpt>
      <trkpt lat="45.95148" lon="6.86347">
        <ele>1928</ele>
        <time>2026-08-04T06:46:35.278Z</time>
      </trkpt>
      <trkpt lat="45.95148" lon="6.86345">
        <ele>1928</ele>
        <time>2026-08-04T06:46:36.278Z</time>
      </trkpt>
      <trkpt lat="45.95147" lon="6.86344">
        <ele>1928</ele>
        <time>2026-08-04T06:46:37.278Z</time>
      </trkpt>
      <trkpt lat="45.95147" lon="6.86343">
        <ele>1928</ele>
        <time>2026-08-04T06:46:38.278Z</time>
      </trkpt>
      <trkpt lat="45.95147" lon="6.86342">
        <ele>1928</ele>
        <time>2026-08-04T06:46:39.278Z</time>
      </trkpt>
      <trkpt lat="45.95147" lon="6.86341">
        <ele>1928</ele>
        <time>2026-08-04T06:46:40.278Z</time>
      </trkpt>
      <trkpt lat="45.95147" lon="6.8634">
        <ele>1929</ele>
        <time>2026-08-04T06:46:41.278Z</time>
      </trkpt>
      <trkpt lat="45.95147" lon="6.86339">
        <ele>1929</ele>
        <time>2026-08-04T06:46:42.278Z</time>
      </trkpt>
      <trkpt lat="45.95147" lon="6.86337">
        <ele>1929</ele>
        <time>2026-08-04T06:46:43.278Z</time>
      </trkpt>
      <trkpt lat="45.95147" lon="6.86336">
        <ele>1930</ele>
        <time>2026-08-04T06:46:44.278Z</time>
      </trkpt>
      <trkpt lat="45.95146" lon="6.86335">
        <ele>1930</ele>
        <time>2026-08-04T06:46:45.278Z</time>
      </trkpt>
      <trkpt lat="45.95147" lon="6.86334">
        <ele>1930</ele>
        <time>2026-08-04T06:46:46.278Z</time>
      </trkpt>
      <trkpt lat="45.95147" lon="6.86334">
        <ele>1930</ele>
        <time>2026-08-04T06:46:47.278Z</time>
      </trkpt>
      <trkpt lat="45.95148" lon="6.86333">
        <ele>1930</ele>
        <time>2026-08-04T06:46:48.278Z</time>
      </trkpt>
      <trkpt lat="45.95148" lon="6.86333">
        <ele>1930</ele>
        <time>2026-08-04T06:46:49.278Z</time>
      </trkpt>
      <trkpt lat="45.95149" lon="6.86334">
        <ele>1930</ele>
        <time>2026-08-04T06:46:50.278Z</time>
      </trkpt>
      <trkpt lat="45.9515" lon="6.86334">
        <ele>1930</ele>
        <time>2026-08-04T06:46:51.278Z</time>
      </trkpt>
      <trkpt lat="45.95151" lon="6.86334">
        <ele>1930</ele>
        <time>2026-08-04T06:46:52.278Z</time>
      </trkpt>
      <trkpt lat="45.95152" lon="6.86335">
        <ele>1930</ele>
        <time>2026-08-04T06:46:53.278Z</time>
      </trkpt>
      <trkpt lat="45.95152" lon="6.86335">
        <ele>1930</ele>
        <time>2026-08-04T06:46:54.278Z</time>
      </trkpt>
      <trkpt lat="45.95153" lon="6.86335">
        <ele>1931</ele>
        <time>2026-08-04T06:46:55.278Z</time>
      </trkpt>
      <trkpt lat="45.95154" lon="6.86336">
        <ele>1931</ele>
        <time>2026-08-04T06:46:56.278Z</time>
      </trkpt>
      <trkpt lat="45.95154" lon="6.86336">
        <ele>1931</ele>
        <time>2026-08-04T06:46:57.278Z</time>
      </trkpt>
      <trkpt lat="45.95155" lon="6.86337">
        <ele>1931</ele>
        <time>2026-08-04T06:46:58.278Z</time>
      </trkpt>
      <trkpt lat="45.95156" lon="6.86338">
        <ele>1931</ele>
        <time>2026-08-04T06:46:59.278Z</time>
      </trkpt>
      <trkpt lat="45.95156" lon="6.86338">
        <ele>1931</ele>
        <time>2026-08-04T06:47:00.278Z</time>
      </trkpt>
      <trkpt lat="45.95157" lon="6.86339">
        <ele>1931</ele>
        <time>2026-08-04T06:47:01.278Z</time>
      </trkpt>
      <trkpt lat="45.95158" lon="6.8634">
        <ele>1931</ele>
        <time>2026-08-04T06:47:02.278Z</time>
      </trkpt>
      <trkpt lat="45.95159" lon="6.86341">
        <ele>1932</ele>
        <time>2026-08-04T06:47:03.278Z</time>
      </trkpt>
      <trkpt lat="45.9516" lon="6.86341">
        <ele>1932</ele>
        <time>2026-08-04T06:47:04.278Z</time>
      </trkpt>
      <trkpt lat="45.95161" lon="6.86342">
        <ele>1932</ele>
        <time>2026-08-04T06:47:05.278Z</time>
      </trkpt>
      <trkpt lat="45.95162" lon="6.86342">
        <ele>1932</ele>
        <time>2026-08-04T06:47:06.278Z</time>
      </trkpt>
      <trkpt lat="45.95163" lon="6.86343">
        <ele>1932</ele>
        <time>2026-08-04T06:47:07.278Z</time>
      </trkpt>
      <trkpt lat="45.95164" lon="6.86343">
        <ele>1932</ele>
        <time>2026-08-04T06:47:08.278Z</time>
      </trkpt>
      <trkpt lat="45.95164" lon="6.86344">
        <ele>1932</ele>
        <time>2026-08-04T06:47:09.278Z</time>
      </trkpt>
      <trkpt lat="45.95165" lon="6.86345">
        <ele>1932</ele>
        <time>2026-08-04T06:47:10.278Z</time>
      </trkpt>
      <trkpt lat="45.95165" lon="6.86345">
        <ele>1933</ele>
        <time>2026-08-04T06:47:11.278Z</time>
      </trkpt>
      <trkpt lat="45.95166" lon="6.86346">
        <ele>1933</ele>
        <time>2026-08-04T06:47:12.278Z</time>
      </trkpt>
      <trkpt lat="45.95166" lon="6.86346">
        <ele>1933</ele>
        <time>2026-08-04T06:47:13.278Z</time>
      </trkpt>
      <trkpt lat="45.95167" lon="6.86347">
        <ele>1934</ele>
        <time>2026-08-04T06:47:14.278Z</time>
      </trkpt>
      <trkpt lat="45.95167" lon="6.86348">
        <ele>1934</ele>
        <time>2026-08-04T06:47:15.278Z</time>
      </trkpt>
      <trkpt lat="45.95168" lon="6.86348">
        <ele>1934</ele>
        <time>2026-08-04T06:47:16.278Z</time>
      </trkpt>
      <trkpt lat="45.95169" lon="6.86348">
        <ele>1935</ele>
        <time>2026-08-04T06:47:17.278Z</time>
      </trkpt>
      <trkpt lat="45.95169" lon="6.86348">
        <ele>1936</ele>
        <time>2026-08-04T06:47:18.278Z</time>
      </trkpt>
      <trkpt lat="45.95169" lon="6.86348">
        <ele>1936</ele>
        <time>2026-08-04T06:47:19.278Z</time>
      </trkpt>
      <trkpt lat="45.9517" lon="6.86347">
        <ele>1937</ele>
        <time>2026-08-04T06:47:20.278Z</time>
      </trkpt>
      <trkpt lat="45.95171" lon="6.86347">
        <ele>1938</ele>
        <time>2026-08-04T06:47:21.278Z</time>
      </trkpt>
      <trkpt lat="45.95171" lon="6.86347">
        <ele>1939</ele>
        <time>2026-08-04T06:47:22.278Z</time>
      </trkpt>
      <trkpt lat="45.95172" lon="6.86347">
        <ele>1940</ele>
        <time>2026-08-04T06:47:23.278Z</time>
      </trkpt>
      <trkpt lat="45.95172" lon="6.86347">
        <ele>1940</ele>
        <time>2026-08-04T06:47:24.278Z</time>
      </trkpt>
      <trkpt lat="45.95173" lon="6.86347">
        <ele>1941</ele>
        <time>2026-08-04T06:47:25.278Z</time>
      </trkpt>
      <trkpt lat="45.95174" lon="6.86348">
        <ele>1941</ele>
        <time>2026-08-04T06:47:26.278Z</time>
      </trkpt>
      <trkpt lat="45.95174" lon="6.86349">
        <ele>1941</ele>
        <time>2026-08-04T06:47:27.278Z</time>
      </trkpt>
      <trkpt lat="45.95174" lon="6.8635">
        <ele>1941</ele>
        <time>2026-08-04T06:47:28.278Z</time>
      </trkpt>
      <trkpt lat="45.95175" lon="6.8635">
        <ele>1941</ele>
        <time>2026-08-04T06:47:29.278Z</time>
      </trkpt>
      <trkpt lat="45.95175" lon="6.8635">
        <ele>1941</ele>
        <time>2026-08-04T06:47:30.278Z</time>
      </trkpt>
      <trkpt lat="45.95175" lon="6.86351">
        <ele>1942</ele>
        <time>2026-08-04T06:47:31.278Z</time>
      </trkpt>
      <trkpt lat="45.95176" lon="6.86351">
        <ele>1942</ele>
        <time>2026-08-04T06:47:32.278Z</time>
      </trkpt>
      <trkpt lat="45.95176" lon="6.86352">
        <ele>1941</ele>
        <time>2026-08-04T06:47:33.278Z</time>
      </trkpt>
      <trkpt lat="45.95177" lon="6.86353">
        <ele>1941</ele>
        <time>2026-08-04T06:47:34.278Z</time>
      </trkpt>
      <trkpt lat="45.95177" lon="6.86354">
        <ele>1941</ele>
        <time>2026-08-04T06:47:35.278Z</time>
      </trkpt>
      <trkpt lat="45.95178" lon="6.86355">
        <ele>1941</ele>
        <time>2026-08-04T06:47:36.278Z</time>
      </trkpt>
      <trkpt lat="45.95179" lon="6.86355">
        <ele>1941</ele>
        <time>2026-08-04T06:47:37.278Z</time>
      </trkpt>
      <trkpt lat="45.9518" lon="6.86355">
        <ele>1941</ele>
        <time>2026-08-04T06:47:38.278Z</time>
      </trkpt>
      <trkpt lat="45.95181" lon="6.86356">
        <ele>1941</ele>
        <time>2026-08-04T06:47:39.278Z</time>
      </trkpt>
      <trkpt lat="45.95181" lon="6.86356">
        <ele>1941</ele>
        <time>2026-08-04T06:47:40.278Z</time>
      </trkpt>
      <trkpt lat="45.95182" lon="6.86356">
        <ele>1941</ele>
        <time>2026-08-04T06:47:41.278Z</time>
      </trkpt>
      <trkpt lat="45.95183" lon="6.86356">
        <ele>1941</ele>
        <time>2026-08-04T06:47:42.278Z</time>
      </trkpt>
      <trkpt lat="45.95183" lon="6.86356">
        <ele>1942</ele>
        <time>2026-08-04T06:47:43.278Z</time>
      </trkpt>
      <trkpt lat="45.95184" lon="6.86357">
        <ele>1942</ele>
        <time>2026-08-04T06:47:44.278Z</time>
      </trkpt>
      <trkpt lat="45.95185" lon="6.86357">
        <ele>1942</ele>
        <time>2026-08-04T06:47:45.278Z</time>
      </trkpt>
      <trkpt lat="45.95186" lon="6.86358">
        <ele>1942</ele>
        <time>2026-08-04T06:47:46.278Z</time>
      </trkpt>
      <trkpt lat="45.95187" lon="6.86358">
        <ele>1942</ele>
        <time>2026-08-04T06:47:47.278Z</time>
      </trkpt>
      <trkpt lat="45.95187" lon="6.86359">
        <ele>1942</ele>
        <time>2026-08-04T06:47:48.278Z</time>
      </trkpt>
      <trkpt lat="45.95188" lon="6.86359">
        <ele>1942</ele>
        <time>2026-08-04T06:47:49.279Z</time>
      </trkpt>
      <trkpt lat="45.95189" lon="6.8636">
        <ele>1942</ele>
        <time>2026-08-04T06:47:50.278Z</time>
      </trkpt>
      <trkpt lat="45.95189" lon="6.8636">
        <ele>1942</ele>
        <time>2026-08-04T06:47:51.278Z</time>
      </trkpt>
      <trkpt lat="45.9519" lon="6.8636">
        <ele>1942</ele>
        <time>2026-08-04T06:47:52.278Z</time>
      </trkpt>
      <trkpt lat="45.95191" lon="6.8636">
        <ele>1943</ele>
        <time>2026-08-04T06:47:53.278Z</time>
      </trkpt>
      <trkpt lat="45.95191" lon="6.8636">
        <ele>1943</ele>
        <time>2026-08-04T06:47:54.278Z</time>
      </trkpt>
      <trkpt lat="45.95192" lon="6.86361">
        <ele>1943</ele>
        <time>2026-08-04T06:47:55.278Z</time>
      </trkpt>
      <trkpt lat="45.95192" lon="6.86361">
        <ele>1943</ele>
        <time>2026-08-04T06:47:56.278Z</time>
      </trkpt>
      <trkpt lat="45.95192" lon="6.86361">
        <ele>1944</ele>
        <time>2026-08-04T06:47:57.278Z</time>
      </trkpt>
      <trkpt lat="45.95193" lon="6.86361">
        <ele>1944</ele>
        <time>2026-08-04T06:47:58.278Z</time>
      </trkpt>
      <trkpt lat="45.95193" lon="6.86361">
        <ele>1944</ele>
        <time>2026-08-04T06:47:59.278Z</time>
      </trkpt>
      <trkpt lat="45.95194" lon="6.86362">
        <ele>1944</ele>
        <time>2026-08-04T06:48:00.278Z</time>
      </trkpt>
      <trkpt lat="45.95195" lon="6.86362">
        <ele>1945</ele>
        <time>2026-08-04T06:48:01.278Z</time>
      </trkpt>
      <trkpt lat="45.95195" lon="6.86363">
        <ele>1945</ele>
        <time>2026-08-04T06:48:02.278Z</time>
      </trkpt>
      <trkpt lat="45.95196" lon="6.86363">
        <ele>1945</ele>
        <time>2026-08-04T06:48:03.278Z</time>
      </trkpt>
      <trkpt lat="45.95197" lon="6.86364">
        <ele>1945</ele>
        <time>2026-08-04T06:48:04.278Z</time>
      </trkpt>
      <trkpt lat="45.95198" lon="6.86364">
        <ele>1945</ele>
        <time>2026-08-04T06:48:05.278Z</time>
      </trkpt>
      <trkpt lat="45.95199" lon="6.86365">
        <ele>1945</ele>
        <time>2026-08-04T06:48:06.278Z</time>
      </trkpt>
      <trkpt lat="45.952" lon="6.86365">
        <ele>1945</ele>
        <time>2026-08-04T06:48:07.278Z</time>
      </trkpt>
      <trkpt lat="45.95201" lon="6.86366">
        <ele>1945</ele>
        <time>2026-08-04T06:48:08.278Z</time>
      </trkpt>
      <trkpt lat="45.95201" lon="6.86367">
        <ele>1945</ele>
        <time>2026-08-04T06:48:09.278Z</time>
      </trkpt>
      <trkpt lat="45.95202" lon="6.86368">
        <ele>1945</ele>
        <time>2026-08-04T06:48:10.278Z</time>
      </trkpt>
      <trkpt lat="45.95203" lon="6.86369">
        <ele>1945</ele>
        <time>2026-08-04T06:48:11.278Z</time>
      </trkpt>
      <trkpt lat="45.95203" lon="6.8637">
        <ele>1946</ele>
        <time>2026-08-04T06:48:12.278Z</time>
      </trkpt>
      <trkpt lat="45.95204" lon="6.8637">
        <ele>1946</ele>
        <time>2026-08-04T06:48:13.278Z</time>
      </trkpt>
      <trkpt lat="45.95205" lon="6.86371">
        <ele>1946</ele>
        <time>2026-08-04T06:48:14.278Z</time>
      </trkpt>
      <trkpt lat="45.95206" lon="6.86371">
        <ele>1946</ele>
        <time>2026-08-04T06:48:15.278Z</time>
      </trkpt>
      <trkpt lat="45.95207" lon="6.86372">
        <ele>1947</ele>
        <time>2026-08-04T06:48:16.278Z</time>
      </trkpt>
      <trkpt lat="45.95208" lon="6.86372">
        <ele>1947</ele>
        <time>2026-08-04T06:48:17.278Z</time>
      </trkpt>
      <trkpt lat="45.95209" lon="6.86373">
        <ele>1947</ele>
        <time>2026-08-04T06:48:18.278Z</time>
      </trkpt>
      <trkpt lat="45.9521" lon="6.86373">
        <ele>1947</ele>
        <time>2026-08-04T06:48:19.278Z</time>
      </trkpt>
      <trkpt lat="45.9521" lon="6.86374">
        <ele>1947</ele>
        <time>2026-08-04T06:48:20.278Z</time>
      </trkpt>
      <trkpt lat="45.95211" lon="6.86375">
        <ele>1948</ele>
        <time>2026-08-04T06:48:21.278Z</time>
      </trkpt>
      <trkpt lat="45.95211" lon="6.86376">
        <ele>1948</ele>
        <time>2026-08-04T06:48:22.278Z</time>
      </trkpt>
      <trkpt lat="45.95212" lon="6.86376">
        <ele>1948</ele>
        <time>2026-08-04T06:48:23.278Z</time>
      </trkpt>
      <trkpt lat="45.95212" lon="6.86377">
        <ele>1948</ele>
        <time>2026-08-04T06:48:24.278Z</time>
      </trkpt>
      <trkpt lat="45.95213" lon="6.86377">
        <ele>1949</ele>
        <time>2026-08-04T06:48:25.278Z</time>
      </trkpt>
      <trkpt lat="45.95214" lon="6.86378">
        <ele>1949</ele>
        <time>2026-08-04T06:48:26.278Z</time>
      </trkpt>
      <trkpt lat="45.95214" lon="6.86379">
        <ele>1949</ele>
        <time>2026-08-04T06:48:27.278Z</time>
      </trkpt>
      <trkpt lat="45.95215" lon="6.8638">
        <ele>1949</ele>
        <time>2026-08-04T06:48:28.278Z</time>
      </trkpt>
      <trkpt lat="45.95215" lon="6.86381">
        <ele>1949</ele>
        <time>2026-08-04T06:48:29.278Z</time>
      </trkpt>
      <trkpt lat="45.95216" lon="6.86381">
        <ele>1949</ele>
        <time>2026-08-04T06:48:30.278Z</time>
      </trkpt>
      <trkpt lat="45.95216" lon="6.86382">
        <ele>1949</ele>
        <time>2026-08-04T06:48:31.278Z</time>
      </trkpt>
      <trkpt lat="45.95217" lon="6.86382">
        <ele>1949</ele>
        <time>2026-08-04T06:48:32.278Z</time>
      </trkpt>
      <trkpt lat="45.95218" lon="6.86383">
        <ele>1949</ele>
        <time>2026-08-04T06:48:33.278Z</time>
      </trkpt>
      <trkpt lat="45.95218" lon="6.86383">
        <ele>1949</ele>
        <time>2026-08-04T06:48:34.278Z</time>
      </trkpt>
      <trkpt lat="45.95219" lon="6.86383">
        <ele>1949</ele>
        <time>2026-08-04T06:48:35.278Z</time>
      </trkpt>
      <trkpt lat="45.95219" lon="6.86383">
        <ele>1949</ele>
        <time>2026-08-04T06:48:36.278Z</time>
      </trkpt>
      <trkpt lat="45.9522" lon="6.86383">
        <ele>1950</ele>
        <time>2026-08-04T06:48:37.278Z</time>
      </trkpt>
      <trkpt lat="45.95221" lon="6.86383">
        <ele>1950</ele>
        <time>2026-08-04T06:48:38.278Z</time>
      </trkpt>
      <trkpt lat="45.95221" lon="6.86384">
        <ele>1951</ele>
        <time>2026-08-04T06:48:39.278Z</time>
      </trkpt>
      <trkpt lat="45.95222" lon="6.86383">
        <ele>1951</ele>
        <time>2026-08-04T06:48:40.278Z</time>
      </trkpt>
      <trkpt lat="45.95222" lon="6.86383">
        <ele>1951</ele>
        <time>2026-08-04T06:48:41.278Z</time>
      </trkpt>
      <trkpt lat="45.95222" lon="6.86382">
        <ele>1952</ele>
        <time>2026-08-04T06:48:42.278Z</time>
      </trkpt>
      <trkpt lat="45.95222" lon="6.86382">
        <ele>1952</ele>
        <time>2026-08-04T06:48:43.278Z</time>
      </trkpt>
      <trkpt lat="45.95222" lon="6.86381">
        <ele>1952</ele>
        <time>2026-08-04T06:48:44.278Z</time>
      </trkpt>
      <trkpt lat="45.95222" lon="6.8638">
        <ele>1953</ele>
        <time>2026-08-04T06:48:45.278Z</time>
      </trkpt>
      <trkpt lat="45.95222" lon="6.86379">
        <ele>1953</ele>
        <time>2026-08-04T06:48:46.278Z</time>
      </trkpt>
      <trkpt lat="45.95222" lon="6.86377">
        <ele>1954</ele>
        <time>2026-08-04T06:48:47.278Z</time>
      </trkpt>
      <trkpt lat="45.95222" lon="6.86376">
        <ele>1954</ele>
        <time>2026-08-04T06:48:48.278Z</time>
      </trkpt>
      <trkpt lat="45.95221" lon="6.86375">
        <ele>1955</ele>
        <time>2026-08-04T06:48:49.278Z</time>
      </trkpt>
      <trkpt lat="45.95221" lon="6.86374">
        <ele>1955</ele>
        <time>2026-08-04T06:48:50.278Z</time>
      </trkpt>
      <trkpt lat="45.9522" lon="6.86372">
        <ele>1955</ele>
        <time>2026-08-04T06:48:51.278Z</time>
      </trkpt>
      <trkpt lat="45.95221" lon="6.86371">
        <ele>1955</ele>
        <time>2026-08-04T06:48:52.278Z</time>
      </trkpt>
      <trkpt lat="45.95221" lon="6.86371">
        <ele>1956</ele>
        <time>2026-08-04T06:48:53.278Z</time>
      </trkpt>
      <trkpt lat="45.95222" lon="6.86371">
        <ele>1956</ele>
        <time>2026-08-04T06:48:54.278Z</time>
      </trkpt>
      <trkpt lat="45.95223" lon="6.86371">
        <ele>1956</ele>
        <time>2026-08-04T06:48:55.278Z</time>
      </trkpt>
      <trkpt lat="45.95224" lon="6.86371">
        <ele>1956</ele>
        <time>2026-08-04T06:48:56.278Z</time>
      </trkpt>
      <trkpt lat="45.95224" lon="6.86371">
        <ele>1956</ele>
        <time>2026-08-04T06:48:57.278Z</time>
      </trkpt>
      <trkpt lat="45.95225" lon="6.86372">
        <ele>1957</ele>
        <time>2026-08-04T06:48:58.278Z</time>
      </trkpt>
      <trkpt lat="45.95226" lon="6.86372">
        <ele>1957</ele>
        <time>2026-08-04T06:48:59.278Z</time>
      </trkpt>
      <trkpt lat="45.95227" lon="6.86373">
        <ele>1957</ele>
        <time>2026-08-04T06:49:00.278Z</time>
      </trkpt>
      <trkpt lat="45.95227" lon="6.86373">
        <ele>1958</ele>
        <time>2026-08-04T06:49:01.278Z</time>
      </trkpt>
      <trkpt lat="45.95228" lon="6.86373">
        <ele>1958</ele>
        <time>2026-08-04T06:49:02.278Z</time>
      </trkpt>
      <trkpt lat="45.95228" lon="6.86374">
        <ele>1958</ele>
        <time>2026-08-04T06:49:03.278Z</time>
      </trkpt>
      <trkpt lat="45.95229" lon="6.86375">
        <ele>1958</ele>
        <time>2026-08-04T06:49:04.278Z</time>
      </trkpt>
      <trkpt lat="45.9523" lon="6.86375">
        <ele>1958</ele>
        <time>2026-08-04T06:49:05.278Z</time>
      </trkpt>
      <trkpt lat="45.95231" lon="6.86376">
        <ele>1958</ele>
        <time>2026-08-04T06:49:06.278Z</time>
      </trkpt>
      <trkpt lat="45.95231" lon="6.86377">
        <ele>1958</ele>
        <time>2026-08-04T06:49:07.278Z</time>
      </trkpt>
      <trkpt lat="45.95232" lon="6.86378">
        <ele>1958</ele>
        <time>2026-08-04T06:49:08.278Z</time>
      </trkpt>
      <trkpt lat="45.95233" lon="6.86379">
        <ele>1959</ele>
        <time>2026-08-04T06:49:09.278Z</time>
      </trkpt>
      <trkpt lat="45.95233" lon="6.86379">
        <ele>1959</ele>
        <time>2026-08-04T06:49:10.278Z</time>
      </trkpt>
      <trkpt lat="45.95234" lon="6.8638">
        <ele>1959</ele>
        <time>2026-08-04T06:49:11.278Z</time>
      </trkpt>
      <trkpt lat="45.95235" lon="6.86381">
        <ele>1960</ele>
        <time>2026-08-04T06:49:12.278Z</time>
      </trkpt>
      <trkpt lat="45.95236" lon="6.86382">
        <ele>1961</ele>
        <time>2026-08-04T06:49:13.278Z</time>
      </trkpt>
      <trkpt lat="45.95237" lon="6.86382">
        <ele>1961</ele>
        <time>2026-08-04T06:49:14.278Z</time>
      </trkpt>
      <trkpt lat="45.95238" lon="6.86383">
        <ele>1961</ele>
        <time>2026-08-04T06:49:15.278Z</time>
      </trkpt>
      <trkpt lat="45.95238" lon="6.86384">
        <ele>1962</ele>
        <time>2026-08-04T06:49:16.278Z</time>
      </trkpt>
      <trkpt lat="45.95239" lon="6.86384">
        <ele>1962</ele>
        <time>2026-08-04T06:49:17.278Z</time>
      </trkpt>
      <trkpt lat="45.95239" lon="6.86385">
        <ele>1962</ele>
        <time>2026-08-04T06:49:18.278Z</time>
      </trkpt>
      <trkpt lat="45.9524" lon="6.86386">
        <ele>1962</ele>
        <time>2026-08-04T06:49:19.278Z</time>
      </trkpt>
      <trkpt lat="45.9524" lon="6.86386">
        <ele>1962</ele>
        <time>2026-08-04T06:49:20.278Z</time>
      </trkpt>
      <trkpt lat="45.95241" lon="6.86386">
        <ele>1962</ele>
        <time>2026-08-04T06:49:21.278Z</time>
      </trkpt>
      <trkpt lat="45.95241" lon="6.86387">
        <ele>1962</ele>
        <time>2026-08-04T06:49:22.278Z</time>
      </trkpt>
      <trkpt lat="45.95242" lon="6.86387">
        <ele>1962</ele>
        <time>2026-08-04T06:49:23.278Z</time>
      </trkpt>
      <trkpt lat="45.95243" lon="6.86387">
        <ele>1963</ele>
        <time>2026-08-04T06:49:24.278Z</time>
      </trkpt>
      <trkpt lat="45.95243" lon="6.86388">
        <ele>1963</ele>
        <time>2026-08-04T06:49:25.278Z</time>
      </trkpt>
      <trkpt lat="45.95244" lon="6.86388">
        <ele>1963</ele>
        <time>2026-08-04T06:49:26.278Z</time>
      </trkpt>
      <trkpt lat="45.95244" lon="6.86389">
        <ele>1963</ele>
        <time>2026-08-04T06:49:27.278Z</time>
      </trkpt>
      <trkpt lat="45.95245" lon="6.86389">
        <ele>1963</ele>
        <time>2026-08-04T06:49:28.278Z</time>
      </trkpt>
      <trkpt lat="45.95245" lon="6.86389">
        <ele>1963</ele>
        <time>2026-08-04T06:49:29.278Z</time>
      </trkpt>
      <trkpt lat="45.95246" lon="6.86389">
        <ele>1963</ele>
        <time>2026-08-04T06:49:30.278Z</time>
      </trkpt>
      <trkpt lat="45.95247" lon="6.8639">
        <ele>1963</ele>
        <time>2026-08-04T06:49:31.278Z</time>
      </trkpt>
      <trkpt lat="45.95248" lon="6.86391">
        <ele>1963</ele>
        <time>2026-08-04T06:49:32.278Z</time>
      </trkpt>
      <trkpt lat="45.95249" lon="6.86391">
        <ele>1963</ele>
        <time>2026-08-04T06:49:33.278Z</time>
      </trkpt>
      <trkpt lat="45.95249" lon="6.86392">
        <ele>1964</ele>
        <time>2026-08-04T06:49:34.278Z</time>
      </trkpt>
      <trkpt lat="45.9525" lon="6.86392">
        <ele>1964</ele>
        <time>2026-08-04T06:49:35.278Z</time>
      </trkpt>
      <trkpt lat="45.95251" lon="6.86392">
        <ele>1965</ele>
        <time>2026-08-04T06:49:36.278Z</time>
      </trkpt>
      <trkpt lat="45.95251" lon="6.86392">
        <ele>1965</ele>
        <time>2026-08-04T06:49:37.278Z</time>
      </trkpt>
      <trkpt lat="45.95252" lon="6.86393">
        <ele>1966</ele>
        <time>2026-08-04T06:49:38.278Z</time>
      </trkpt>
      <trkpt lat="45.95253" lon="6.86393">
        <ele>1966</ele>
        <time>2026-08-04T06:49:39.278Z</time>
      </trkpt>
      <trkpt lat="45.95254" lon="6.86393">
        <ele>1966</ele>
        <time>2026-08-04T06:49:40.278Z</time>
      </trkpt>
      <trkpt lat="45.95255" lon="6.86394">
        <ele>1967</ele>
        <time>2026-08-04T06:49:41.278Z</time>
      </trkpt>
      <trkpt lat="45.95255" lon="6.86394">
        <ele>1967</ele>
        <time>2026-08-04T06:49:42.278Z</time>
      </trkpt>
      <trkpt lat="45.95256" lon="6.86395">
        <ele>1967</ele>
        <time>2026-08-04T06:49:43.278Z</time>
      </trkpt>
      <trkpt lat="45.95256" lon="6.86395">
        <ele>1967</ele>
        <time>2026-08-04T06:49:44.278Z</time>
      </trkpt>
      <trkpt lat="45.95257" lon="6.86395">
        <ele>1967</ele>
        <time>2026-08-04T06:49:45.278Z</time>
      </trkpt>
      <trkpt lat="45.95257" lon="6.86395">
        <ele>1967</ele>
        <time>2026-08-04T06:49:46.278Z</time>
      </trkpt>
      <trkpt lat="45.95257" lon="6.86394">
        <ele>1967</ele>
        <time>2026-08-04T06:49:47.278Z</time>
      </trkpt>
      <trkpt lat="45.95258" lon="6.86394">
        <ele>1967</ele>
        <time>2026-08-04T06:49:48.278Z</time>
      </trkpt>
      <trkpt lat="45.95258" lon="6.86393">
        <ele>1967</ele>
        <time>2026-08-04T06:49:49.278Z</time>
      </trkpt>
      <trkpt lat="45.95258" lon="6.86392">
        <ele>1967</ele>
        <time>2026-08-04T06:49:50.278Z</time>
      </trkpt>
      <trkpt lat="45.95257" lon="6.86391">
        <ele>1967</ele>
        <time>2026-08-04T06:49:51.278Z</time>
      </trkpt>
      <trkpt lat="45.95257" lon="6.86391">
        <ele>1968</ele>
        <time>2026-08-04T06:49:52.278Z</time>
      </trkpt>
      <trkpt lat="45.95257" lon="6.8639">
        <ele>1968</ele>
        <time>2026-08-04T06:49:53.278Z</time>
      </trkpt>
      <trkpt lat="45.95257" lon="6.86389">
        <ele>1968</ele>
        <time>2026-08-04T06:49:54.278Z</time>
      </trkpt>
      <trkpt lat="45.95257" lon="6.86388">
        <ele>1968</ele>
        <time>2026-08-04T06:49:55.278Z</time>
      </trkpt>
      <trkpt lat="45.95258" lon="6.86387">
        <ele>1968</ele>
        <time>2026-08-04T06:49:56.278Z</time>
      </trkpt>
      <trkpt lat="45.95258" lon="6.86387">
        <ele>1969</ele>
        <time>2026-08-04T06:49:57.278Z</time>
      </trkpt>
      <trkpt lat="45.95259" lon="6.86387">
        <ele>1969</ele>
        <time>2026-08-04T06:49:58.278Z</time>
      </trkpt>
      <trkpt lat="45.9526" lon="6.86388">
        <ele>1969</ele>
        <time>2026-08-04T06:49:59.278Z</time>
      </trkpt>
      <trkpt lat="45.9526" lon="6.86387">
        <ele>1969</ele>
        <time>2026-08-04T06:50:00.278Z</time>
      </trkpt>
      <trkpt lat="45.9526" lon="6.86387">
        <ele>1969</ele>
        <time>2026-08-04T06:50:01.278Z</time>
      </trkpt>
      <trkpt lat="45.95261" lon="6.86387">
        <ele>1969</ele>
        <time>2026-08-04T06:50:02.278Z</time>
      </trkpt>
      <trkpt lat="45.95261" lon="6.86387">
        <ele>1969</ele>
        <time>2026-08-04T06:50:03.278Z</time>
      </trkpt>
      <trkpt lat="45.95262" lon="6.86387">
        <ele>1969</ele>
        <time>2026-08-04T06:50:04.278Z</time>
      </trkpt>
      <trkpt lat="45.95263" lon="6.86388">
        <ele>1970</ele>
        <time>2026-08-04T06:50:05.278Z</time>
      </trkpt>
      <trkpt lat="45.95264" lon="6.86388">
        <ele>1970</ele>
        <time>2026-08-04T06:50:06.278Z</time>
      </trkpt>
      <trkpt lat="45.95264" lon="6.86389">
        <ele>1970</ele>
        <time>2026-08-04T06:50:07.278Z</time>
      </trkpt>
      <trkpt lat="45.95265" lon="6.86389">
        <ele>1971</ele>
        <time>2026-08-04T06:50:08.278Z</time>
      </trkpt>
      <trkpt lat="45.95265" lon="6.86389">
        <ele>1971</ele>
        <time>2026-08-04T06:50:09.278Z</time>
      </trkpt>
      <trkpt lat="45.95266" lon="6.8639">
        <ele>1971</ele>
        <time>2026-08-04T06:50:10.278Z</time>
      </trkpt>
      <trkpt lat="45.95267" lon="6.8639">
        <ele>1971</ele>
        <time>2026-08-04T06:50:11.278Z</time>
      </trkpt>
      <trkpt lat="45.95267" lon="6.86391">
        <ele>1971</ele>
        <time>2026-08-04T06:50:12.278Z</time>
      </trkpt>
      <trkpt lat="45.95268" lon="6.86392">
        <ele>1971</ele>
        <time>2026-08-04T06:50:13.278Z</time>
      </trkpt>
      <trkpt lat="45.95269" lon="6.86393">
        <ele>1971</ele>
        <time>2026-08-04T06:50:14.278Z</time>
      </trkpt>
      <trkpt lat="45.95269" lon="6.86394">
        <ele>1971</ele>
        <time>2026-08-04T06:50:15.278Z</time>
      </trkpt>
      <trkpt lat="45.95269" lon="6.86396">
        <ele>1972</ele>
        <time>2026-08-04T06:50:16.278Z</time>
      </trkpt>
      <trkpt lat="45.9527" lon="6.86397">
        <ele>1972</ele>
        <time>2026-08-04T06:50:17.278Z</time>
      </trkpt>
      <trkpt lat="45.9527" lon="6.86398">
        <ele>1973</ele>
        <time>2026-08-04T06:50:18.278Z</time>
      </trkpt>
      <trkpt lat="45.95271" lon="6.86399">
        <ele>1973</ele>
        <time>2026-08-04T06:50:19.278Z</time>
      </trkpt>
      <trkpt lat="45.95271" lon="6.864">
        <ele>1974</ele>
        <time>2026-08-04T06:50:20.278Z</time>
      </trkpt>
      <trkpt lat="45.95272" lon="6.864">
        <ele>1974</ele>
        <time>2026-08-04T06:50:21.278Z</time>
      </trkpt>
      <trkpt lat="45.95273" lon="6.86401">
        <ele>1974</ele>
        <time>2026-08-04T06:50:22.278Z</time>
      </trkpt>
      <trkpt lat="45.95274" lon="6.86401">
        <ele>1974</ele>
        <time>2026-08-04T06:50:23.278Z</time>
      </trkpt>
      <trkpt lat="45.95275" lon="6.86402">
        <ele>1975</ele>
        <time>2026-08-04T06:50:24.278Z</time>
      </trkpt>
      <trkpt lat="45.95275" lon="6.86402">
        <ele>1975</ele>
        <time>2026-08-04T06:50:25.278Z</time>
      </trkpt>
      <trkpt lat="45.95276" lon="6.86402">
        <ele>1975</ele>
        <time>2026-08-04T06:50:26.278Z</time>
      </trkpt>
      <trkpt lat="45.95276" lon="6.86402">
        <ele>1975</ele>
        <time>2026-08-04T06:50:27.278Z</time>
      </trkpt>
      <trkpt lat="45.95277" lon="6.86402">
        <ele>1976</ele>
        <time>2026-08-04T06:50:28.278Z</time>
      </trkpt>
      <trkpt lat="45.95277" lon="6.86402">
        <ele>1976</ele>
        <time>2026-08-04T06:50:29.278Z</time>
      </trkpt>
      <trkpt lat="45.95278" lon="6.86402">
        <ele>1976</ele>
        <time>2026-08-04T06:50:30.278Z</time>
      </trkpt>
      <trkpt lat="45.95279" lon="6.86403">
        <ele>1976</ele>
        <time>2026-08-04T06:50:31.278Z</time>
      </trkpt>
      <trkpt lat="45.9528" lon="6.86403">
        <ele>1976</ele>
        <time>2026-08-04T06:50:32.278Z</time>
      </trkpt>
      <trkpt lat="45.9528" lon="6.86404">
        <ele>1976</ele>
        <time>2026-08-04T06:50:33.278Z</time>
      </trkpt>
      <trkpt lat="45.9528" lon="6.86404">
        <ele>1976</ele>
        <time>2026-08-04T06:50:34.278Z</time>
      </trkpt>
      <trkpt lat="45.95281" lon="6.86405">
        <ele>1976</ele>
        <time>2026-08-04T06:50:35.278Z</time>
      </trkpt>
      <trkpt lat="45.95281" lon="6.86405">
        <ele>1977</ele>
        <time>2026-08-04T06:50:36.278Z</time>
      </trkpt>
      <trkpt lat="45.95282" lon="6.86406">
        <ele>1977</ele>
        <time>2026-08-04T06:50:37.278Z</time>
      </trkpt>
      <trkpt lat="45.95282" lon="6.86406">
        <ele>1977</ele>
        <time>2026-08-04T06:50:38.278Z</time>
      </trkpt>
      <trkpt lat="45.95283" lon="6.86406">
        <ele>1977</ele>
        <time>2026-08-04T06:50:39.278Z</time>
      </trkpt>
      <trkpt lat="45.95283" lon="6.86407">
        <ele>1977</ele>
        <time>2026-08-04T06:50:40.278Z</time>
      </trkpt>
      <trkpt lat="45.95284" lon="6.86407">
        <ele>1977</ele>
        <time>2026-08-04T06:50:41.278Z</time>
      </trkpt>
      <trkpt lat="45.95285" lon="6.86407">
        <ele>1977</ele>
        <time>2026-08-04T06:50:42.278Z</time>
      </trkpt>
      <trkpt lat="45.95286" lon="6.86407">
        <ele>1978</ele>
        <time>2026-08-04T06:50:43.278Z</time>
      </trkpt>
      <trkpt lat="45.95286" lon="6.86407">
        <ele>1978</ele>
        <time>2026-08-04T06:50:44.278Z</time>
      </trkpt>
      <trkpt lat="45.95287" lon="6.86406">
        <ele>1978</ele>
        <time>2026-08-04T06:50:45.278Z</time>
      </trkpt>
      <trkpt lat="45.95287" lon="6.86406">
        <ele>1978</ele>
        <time>2026-08-04T06:50:46.278Z</time>
      </trkpt>
      <trkpt lat="45.95287" lon="6.86406">
        <ele>1978</ele>
        <time>2026-08-04T06:50:47.278Z</time>
      </trkpt>
      <trkpt lat="45.95288" lon="6.86406">
        <ele>1978</ele>
        <time>2026-08-04T06:50:48.278Z</time>
      </trkpt>
      <trkpt lat="45.95288" lon="6.86405">
        <ele>1979</ele>
        <time>2026-08-04T06:50:49.278Z</time>
      </trkpt>
      <trkpt lat="45.95289" lon="6.86405">
        <ele>1979</ele>
        <time>2026-08-04T06:50:50.278Z</time>
      </trkpt>
      <trkpt lat="45.95289" lon="6.86405">
        <ele>1980</ele>
        <time>2026-08-04T06:50:51.278Z</time>
      </trkpt>
      <trkpt lat="45.95289" lon="6.86406">
        <ele>1981</ele>
        <time>2026-08-04T06:50:52.278Z</time>
      </trkpt>
      <trkpt lat="45.95289" lon="6.86406">
        <ele>1981</ele>
        <time>2026-08-04T06:50:53.278Z</time>
      </trkpt>
      <trkpt lat="45.9529" lon="6.86407">
        <ele>1981</ele>
        <time>2026-08-04T06:50:54.278Z</time>
      </trkpt>
      <trkpt lat="45.9529" lon="6.86408">
        <ele>1981</ele>
        <time>2026-08-04T06:50:55.278Z</time>
      </trkpt>
      <trkpt lat="45.95291" lon="6.86409">
        <ele>1982</ele>
        <time>2026-08-04T06:50:56.278Z</time>
      </trkpt>
      <trkpt lat="45.95292" lon="6.86409">
        <ele>1982</ele>
        <time>2026-08-04T06:50:57.278Z</time>
      </trkpt>
      <trkpt lat="45.95293" lon="6.8641">
        <ele>1982</ele>
        <time>2026-08-04T06:50:58.278Z</time>
      </trkpt>
      <trkpt lat="45.95294" lon="6.86411">
        <ele>1982</ele>
        <time>2026-08-04T06:50:59.278Z</time>
      </trkpt>
      <trkpt lat="45.95294" lon="6.86412">
        <ele>1982</ele>
        <time>2026-08-04T06:51:00.278Z</time>
      </trkpt>
      <trkpt lat="45.95295" lon="6.86413">
        <ele>1983</ele>
        <time>2026-08-04T06:51:01.278Z</time>
      </trkpt>
      <trkpt lat="45.95295" lon="6.86413">
        <ele>1983</ele>
        <time>2026-08-04T06:51:02.278Z</time>
      </trkpt>
      <trkpt lat="45.95296" lon="6.86413">
        <ele>1983</ele>
        <time>2026-08-04T06:51:03.278Z</time>
      </trkpt>
      <trkpt lat="45.95296" lon="6.86413">
        <ele>1983</ele>
        <time>2026-08-04T06:51:04.278Z</time>
      </trkpt>
      <trkpt lat="45.95297" lon="6.86414">
        <ele>1983</ele>
        <time>2026-08-04T06:51:05.278Z</time>
      </trkpt>
      <trkpt lat="45.95297" lon="6.86414">
        <ele>1983</ele>
        <time>2026-08-04T06:51:06.278Z</time>
      </trkpt>
      <trkpt lat="45.95298" lon="6.86415">
        <ele>1984</ele>
        <time>2026-08-04T06:51:07.278Z</time>
      </trkpt>
      <trkpt lat="45.95298" lon="6.86416">
        <ele>1984</ele>
        <time>2026-08-04T06:51:08.278Z</time>
      </trkpt>
      <trkpt lat="45.95299" lon="6.86416">
        <ele>1984</ele>
        <time>2026-08-04T06:51:09.278Z</time>
      </trkpt>
      <trkpt lat="45.953" lon="6.86417">
        <ele>1984</ele>
        <time>2026-08-04T06:51:10.278Z</time>
      </trkpt>
      <trkpt lat="45.953" lon="6.86417">
        <ele>1985</ele>
        <time>2026-08-04T06:51:11.278Z</time>
      </trkpt>
      <trkpt lat="45.95301" lon="6.86418">
        <ele>1985</ele>
        <time>2026-08-04T06:51:12.278Z</time>
      </trkpt>
      <trkpt lat="45.95301" lon="6.86418">
        <ele>1985</ele>
        <time>2026-08-04T06:51:13.278Z</time>
      </trkpt>
      <trkpt lat="45.95302" lon="6.86419">
        <ele>1985</ele>
        <time>2026-08-04T06:51:14.278Z</time>
      </trkpt>
      <trkpt lat="45.95302" lon="6.8642">
        <ele>1986</ele>
        <time>2026-08-04T06:51:15.278Z</time>
      </trkpt>
      <trkpt lat="45.95303" lon="6.86421">
        <ele>1986</ele>
        <time>2026-08-04T06:51:16.278Z</time>
      </trkpt>
      <trkpt lat="45.95303" lon="6.86422">
        <ele>1986</ele>
        <time>2026-08-04T06:51:17.278Z</time>
      </trkpt>
      <trkpt lat="45.95304" lon="6.86422">
        <ele>1987</ele>
        <time>2026-08-04T06:51:18.278Z</time>
      </trkpt>
      <trkpt lat="45.95305" lon="6.86423">
        <ele>1986</ele>
        <time>2026-08-04T06:51:19.278Z</time>
      </trkpt>
      <trkpt lat="45.95305" lon="6.86423">
        <ele>1986</ele>
        <time>2026-08-04T06:51:20.278Z</time>
      </trkpt>
      <trkpt lat="45.95306" lon="6.86422">
        <ele>1987</ele>
        <time>2026-08-04T06:51:21.278Z</time>
      </trkpt>
      <trkpt lat="45.95306" lon="6.86422">
        <ele>1987</ele>
        <time>2026-08-04T06:51:22.278Z</time>
      </trkpt>
      <trkpt lat="45.95306" lon="6.86421">
        <ele>1987</ele>
        <time>2026-08-04T06:51:23.278Z</time>
      </trkpt>
      <trkpt lat="45.95306" lon="6.8642">
        <ele>1987</ele>
        <time>2026-08-04T06:51:24.278Z</time>
      </trkpt>
      <trkpt lat="45.95306" lon="6.86419">
        <ele>1987</ele>
        <time>2026-08-04T06:51:25.278Z</time>
      </trkpt>
      <trkpt lat="45.95306" lon="6.86418">
        <ele>1987</ele>
        <time>2026-08-04T06:51:26.278Z</time>
      </trkpt>
      <trkpt lat="45.95306" lon="6.86417">
        <ele>1987</ele>
        <time>2026-08-04T06:51:27.278Z</time>
      </trkpt>
      <trkpt lat="45.95306" lon="6.86415">
        <ele>1988</ele>
        <time>2026-08-04T06:51:28.278Z</time>
      </trkpt>
      <trkpt lat="45.95306" lon="6.86414">
        <ele>1988</ele>
        <time>2026-08-04T06:51:29.278Z</time>
      </trkpt>
      <trkpt lat="45.95306" lon="6.86412">
        <ele>1988</ele>
        <time>2026-08-04T06:51:30.278Z</time>
      </trkpt>
      <trkpt lat="45.95306" lon="6.86412">
        <ele>1989</ele>
        <time>2026-08-04T06:51:31.278Z</time>
      </trkpt>
      <trkpt lat="45.95307" lon="6.86411">
        <ele>1989</ele>
        <time>2026-08-04T06:51:32.278Z</time>
      </trkpt>
      <trkpt lat="45.95307" lon="6.8641">
        <ele>1990</ele>
        <time>2026-08-04T06:51:33.278Z</time>
      </trkpt>
      <trkpt lat="45.95307" lon="6.8641">
        <ele>1990</ele>
        <time>2026-08-04T06:51:34.278Z</time>
      </trkpt>
      <trkpt lat="45.95307" lon="6.86409">
        <ele>1990</ele>
        <time>2026-08-04T06:51:35.278Z</time>
      </trkpt>
      <trkpt lat="45.95307" lon="6.86408">
        <ele>1991</ele>
        <time>2026-08-04T06:51:36.278Z</time>
      </trkpt>
      <trkpt lat="45.95307" lon="6.86408">
        <ele>1992</ele>
        <time>2026-08-04T06:51:37.278Z</time>
      </trkpt>
      <trkpt lat="45.95307" lon="6.86407">
        <ele>1992</ele>
        <time>2026-08-04T06:51:38.278Z</time>
      </trkpt>
      <trkpt lat="45.95307" lon="6.86406">
        <ele>1992</ele>
        <time>2026-08-04T06:51:39.278Z</time>
      </trkpt>
      <trkpt lat="45.95307" lon="6.86406">
        <ele>1993</ele>
        <time>2026-08-04T06:51:40.278Z</time>
      </trkpt>
      <trkpt lat="45.95307" lon="6.86406">
        <ele>1993</ele>
        <time>2026-08-04T06:51:41.278Z</time>
      </trkpt>
      <trkpt lat="45.95307" lon="6.86406">
        <ele>1993</ele>
        <time>2026-08-04T06:51:42.278Z</time>
      </trkpt>
      <trkpt lat="45.95307" lon="6.86406">
        <ele>1994</ele>
        <time>2026-08-04T06:51:43.278Z</time>
      </trkpt>
      <trkpt lat="45.95307" lon="6.86406">
        <ele>1994</ele>
        <time>2026-08-04T06:51:44.278Z</time>
      </trkpt>
      <trkpt lat="45.95307" lon="6.86406">
        <ele>1994</ele>
        <time>2026-08-04T06:51:45.278Z</time>
      </trkpt>
      <trkpt lat="45.95307" lon="6.86406">
        <ele>1994</ele>
        <time>2026-08-04T06:51:46.278Z</time>
      </trkpt>
      <trkpt lat="45.95307" lon="6.86406">
        <ele>1994</ele>
        <time>2026-08-04T06:51:47.278Z</time>
      </trkpt>
      <trkpt lat="45.95307" lon="6.86406">
        <ele>1994</ele>
        <time>2026-08-04T06:51:48.278Z</time>
      </trkpt>
      <trkpt lat="45.95307" lon="6.86406">
        <ele>1993</ele>
        <time>2026-08-04T06:51:49.278Z</time>
      </trkpt>
      <trkpt lat="45.95307" lon="6.86406">
        <ele>1993</ele>
        <time>2026-08-04T06:51:50.278Z</time>
      </trkpt>
      <trkpt lat="45.95307" lon="6.86406">
        <ele>1992</ele>
        <time>2026-08-04T06:51:51.278Z</time>
      </trkpt>
      <trkpt lat="45.95307" lon="6.86406">
        <ele>1992</ele>
        <time>2026-08-04T06:51:52.278Z</time>
      </trkpt>
      <trkpt lat="45.95307" lon="6.86406">
        <ele>1992</ele>
        <time>2026-08-04T06:51:53.278Z</time>
      </trkpt>
      <trkpt lat="45.95307" lon="6.86406">
        <ele>1992</ele>
        <time>2026-08-04T06:51:54.278Z</time>
      </trkpt>
      <trkpt lat="45.95307" lon="6.86406">
        <ele>1992</ele>
        <time>2026-08-04T06:51:55.278Z</time>
      </trkpt>
      <trkpt lat="45.95307" lon="6.86406">
        <ele>1992</ele>
        <time>2026-08-04T06:51:56.278Z</time>
      </trkpt>
      <trkpt lat="45.95307" lon="6.86406">
        <ele>1992</ele>
        <time>2026-08-04T06:51:57.278Z</time>
      </trkpt>
      <trkpt lat="45.95307" lon="6.86406">
        <ele>1992</ele>
        <time>2026-08-04T06:51:58.278Z</time>
      </trkpt>
      <trkpt lat="45.95307" lon="6.86406">
        <ele>1992</ele>
        <time>2026-08-04T06:51:59.278Z</time>
      </trkpt>
      <trkpt lat="45.95307" lon="6.86406">
        <ele>1992</ele>
        <time>2026-08-04T06:52:00.278Z</time>
      </trkpt>
      <trkpt lat="45.95307" lon="6.86406">
        <ele>1992</ele>
        <time>2026-08-04T06:52:01.278Z</time>
      </trkpt>
      <trkpt lat="45.95307" lon="6.86406">
        <ele>1992</ele>
        <time>2026-08-04T06:52:02.278Z</time>
      </trkpt>
      <trkpt lat="45.95307" lon="6.86406">
        <ele>1992</ele>
        <time>2026-08-04T06:52:03.278Z</time>
      </trkpt>
      <trkpt lat="45.95306" lon="6.86405">
        <ele>1992</ele>
        <time>2026-08-04T06:52:04.278Z</time>
      </trkpt>
      <trkpt lat="45.95306" lon="6.86403">
        <ele>1992</ele>
        <time>2026-08-04T06:52:05.278Z</time>
      </trkpt>
      <trkpt lat="45.95306" lon="6.86401">
        <ele>1992</ele>
        <time>2026-08-04T06:52:06.278Z</time>
      </trkpt>
      <trkpt lat="45.95306" lon="6.86399">
        <ele>1993</ele>
        <time>2026-08-04T06:52:07.278Z</time>
      </trkpt>
      <trkpt lat="45.95306" lon="6.86397">
        <ele>1993</ele>
        <time>2026-08-04T06:52:08.278Z</time>
      </trkpt>
      <trkpt lat="45.95306" lon="6.86395">
        <ele>1993</ele>
        <time>2026-08-04T06:52:09.278Z</time>
      </trkpt>
      <trkpt lat="45.95306" lon="6.86393">
        <ele>1994</ele>
        <time>2026-08-04T06:52:10.278Z</time>
      </trkpt>
      <trkpt lat="45.95306" lon="6.86392">
        <ele>1994</ele>
        <time>2026-08-04T06:52:11.278Z</time>
      </trkpt>
      <trkpt lat="45.95305" lon="6.8639">
        <ele>1995</ele>
        <time>2026-08-04T06:52:12.278Z</time>
      </trkpt>
      <trkpt lat="45.95305" lon="6.86388">
        <ele>1995</ele>
        <time>2026-08-04T06:52:13.278Z</time>
      </trkpt>
      <trkpt lat="45.95304" lon="6.86387">
        <ele>1996</ele>
        <time>2026-08-04T06:52:14.278Z</time>
      </trkpt>
      <trkpt lat="45.95304" lon="6.86386">
        <ele>1996</ele>
        <time>2026-08-04T06:52:15.278Z</time>
      </trkpt>
      <trkpt lat="45.95304" lon="6.86385">
        <ele>1997</ele>
        <time>2026-08-04T06:52:16.278Z</time>
      </trkpt>
      <trkpt lat="45.95304" lon="6.86384">
        <ele>1997</ele>
        <time>2026-08-04T06:52:17.278Z</time>
      </trkpt>
      <trkpt lat="45.95304" lon="6.86383">
        <ele>1998</ele>
        <time>2026-08-04T06:52:18.278Z</time>
      </trkpt>
      <trkpt lat="45.95304" lon="6.86382">
        <ele>1998</ele>
        <time>2026-08-04T06:52:19.278Z</time>
      </trkpt>
      <trkpt lat="45.95305" lon="6.86382">
        <ele>1998</ele>
        <time>2026-08-04T06:52:20.278Z</time>
      </trkpt>
      <trkpt lat="45.95305" lon="6.86381">
        <ele>1999</ele>
        <time>2026-08-04T06:52:21.278Z</time>
      </trkpt>
      <trkpt lat="45.95304" lon="6.86381">
        <ele>2000</ele>
        <time>2026-08-04T06:52:22.278Z</time>
      </trkpt>
      <trkpt lat="45.95304" lon="6.86379">
        <ele>2000</ele>
        <time>2026-08-04T06:52:23.278Z</time>
      </trkpt>
      <trkpt lat="45.95304" lon="6.86378">
        <ele>2000</ele>
        <time>2026-08-04T06:52:24.278Z</time>
      </trkpt>
      <trkpt lat="45.95304" lon="6.86377">
        <ele>2000</ele>
        <time>2026-08-04T06:52:25.278Z</time>
      </trkpt>
      <trkpt lat="45.95304" lon="6.86376">
        <ele>2000</ele>
        <time>2026-08-04T06:52:26.278Z</time>
      </trkpt>
      <trkpt lat="45.95305" lon="6.86376">
        <ele>2000</ele>
        <time>2026-08-04T06:52:27.278Z</time>
      </trkpt>
      <trkpt lat="45.95305" lon="6.86375">
        <ele>2000</ele>
        <time>2026-08-04T06:52:28.278Z</time>
      </trkpt>
      <trkpt lat="45.95305" lon="6.86375">
        <ele>2001</ele>
        <time>2026-08-04T06:52:29.278Z</time>
      </trkpt>
      <trkpt lat="45.95305" lon="6.86374">
        <ele>2001</ele>
        <time>2026-08-04T06:52:30.278Z</time>
      </trkpt>
      <trkpt lat="45.95305" lon="6.86373">
        <ele>2001</ele>
        <time>2026-08-04T06:52:31.278Z</time>
      </trkpt>
      <trkpt lat="45.95305" lon="6.86372">
        <ele>2002</ele>
        <time>2026-08-04T06:52:32.278Z</time>
      </trkpt>
      <trkpt lat="45.95305" lon="6.86371">
        <ele>2002</ele>
        <time>2026-08-04T06:52:33.278Z</time>
      </trkpt>
      <trkpt lat="45.95305" lon="6.8637">
        <ele>2002</ele>
        <time>2026-08-04T06:52:34.278Z</time>
      </trkpt>
      <trkpt lat="45.95305" lon="6.86369">
        <ele>2002</ele>
        <time>2026-08-04T06:52:35.278Z</time>
      </trkpt>
      <trkpt lat="45.95305" lon="6.86368">
        <ele>2003</ele>
        <time>2026-08-04T06:52:36.278Z</time>
      </trkpt>
      <trkpt lat="45.95306" lon="6.86367">
        <ele>2004</ele>
        <time>2026-08-04T06:52:37.278Z</time>
      </trkpt>
      <trkpt lat="45.95306" lon="6.86366">
        <ele>2004</ele>
        <time>2026-08-04T06:52:38.278Z</time>
      </trkpt>
      <trkpt lat="45.95306" lon="6.86365">
        <ele>2005</ele>
        <time>2026-08-04T06:52:39.278Z</time>
      </trkpt>
      <trkpt lat="45.95306" lon="6.86363">
        <ele>2005</ele>
        <time>2026-08-04T06:52:40.278Z</time>
      </trkpt>
      <trkpt lat="45.95306" lon="6.86362">
        <ele>2005</ele>
        <time>2026-08-04T06:52:41.278Z</time>
      </trkpt>
      <trkpt lat="45.95306" lon="6.86362">
        <ele>2006</ele>
        <time>2026-08-04T06:52:42.278Z</time>
      </trkpt>
      <trkpt lat="45.95306" lon="6.86361">
        <ele>2006</ele>
        <time>2026-08-04T06:52:43.278Z</time>
      </trkpt>
      <trkpt lat="45.95306" lon="6.86361">
        <ele>2006</ele>
        <time>2026-08-04T06:52:44.278Z</time>
      </trkpt>
      <trkpt lat="45.95306" lon="6.8636">
        <ele>2005</ele>
        <time>2026-08-04T06:52:45.278Z</time>
      </trkpt>
      <trkpt lat="45.95306" lon="6.86359">
        <ele>2005</ele>
        <time>2026-08-04T06:52:46.278Z</time>
      </trkpt>
      <trkpt lat="45.95306" lon="6.86358">
        <ele>2005</ele>
        <time>2026-08-04T06:52:47.278Z</time>
      </trkpt>
      <trkpt lat="45.95306" lon="6.86358">
        <ele>2005</ele>
        <time>2026-08-04T06:52:48.278Z</time>
      </trkpt>
      <trkpt lat="45.95307" lon="6.86357">
        <ele>2005</ele>
        <time>2026-08-04T06:52:49.278Z</time>
      </trkpt>
      <trkpt lat="45.95307" lon="6.86356">
        <ele>2005</ele>
        <time>2026-08-04T06:52:50.278Z</time>
      </trkpt>
      <trkpt lat="45.95306" lon="6.86355">
        <ele>2005</ele>
        <time>2026-08-04T06:52:51.278Z</time>
      </trkpt>
      <trkpt lat="45.95306" lon="6.86355">
        <ele>2005</ele>
        <time>2026-08-04T06:52:52.278Z</time>
      </trkpt>
      <trkpt lat="45.95306" lon="6.86354">
        <ele>2005</ele>
        <time>2026-08-04T06:52:53.278Z</time>
      </trkpt>
      <trkpt lat="45.95305" lon="6.86353">
        <ele>2005</ele>
        <time>2026-08-04T06:52:54.278Z</time>
      </trkpt>
      <trkpt lat="45.95304" lon="6.86353">
        <ele>2006</ele>
        <time>2026-08-04T06:52:55.278Z</time>
      </trkpt>
      <trkpt lat="45.95304" lon="6.86353">
        <ele>2006</ele>
        <time>2026-08-04T06:52:56.278Z</time>
      </trkpt>
      <trkpt lat="45.95303" lon="6.86352">
        <ele>2007</ele>
        <time>2026-08-04T06:52:57.278Z</time>
      </trkpt>
      <trkpt lat="45.95302" lon="6.86352">
        <ele>2008</ele>
        <time>2026-08-04T06:52:58.278Z</time>
      </trkpt>
      <trkpt lat="45.95301" lon="6.86351">
        <ele>2008</ele>
        <time>2026-08-04T06:52:59.278Z</time>
      </trkpt>
      <trkpt lat="45.95301" lon="6.86349">
        <ele>2008</ele>
        <time>2026-08-04T06:53:00.278Z</time>
      </trkpt>
      <trkpt lat="45.953" lon="6.86348">
        <ele>2008</ele>
        <time>2026-08-04T06:53:01.278Z</time>
      </trkpt>
      <trkpt lat="45.95299" lon="6.86346">
        <ele>2008</ele>
        <time>2026-08-04T06:53:02.278Z</time>
      </trkpt>
      <trkpt lat="45.95298" lon="6.86345">
        <ele>2008</ele>
        <time>2026-08-04T06:53:03.278Z</time>
      </trkpt>
      <trkpt lat="45.95298" lon="6.86343">
        <ele>2008</ele>
        <time>2026-08-04T06:53:04.278Z</time>
      </trkpt>
      <trkpt lat="45.95297" lon="6.86342">
        <ele>2008</ele>
        <time>2026-08-04T06:53:05.278Z</time>
      </trkpt>
      <trkpt lat="45.95296" lon="6.86342">
        <ele>2008</ele>
        <time>2026-08-04T06:53:06.278Z</time>
      </trkpt>
      <trkpt lat="45.95296" lon="6.8634">
        <ele>2008</ele>
        <time>2026-08-04T06:53:07.278Z</time>
      </trkpt>
      <trkpt lat="45.95295" lon="6.86339">
        <ele>2008</ele>
        <time>2026-08-04T06:53:08.278Z</time>
      </trkpt>
      <trkpt lat="45.95295" lon="6.86338">
        <ele>2008</ele>
        <time>2026-08-04T06:53:09.278Z</time>
      </trkpt>
      <trkpt lat="45.95294" lon="6.86336">
        <ele>2008</ele>
        <time>2026-08-04T06:53:10.278Z</time>
      </trkpt>
      <trkpt lat="45.95294" lon="6.86335">
        <ele>2008</ele>
        <time>2026-08-04T06:53:11.278Z</time>
      </trkpt>
      <trkpt lat="45.95294" lon="6.86334">
        <ele>2007</ele>
        <time>2026-08-04T06:53:12.278Z</time>
      </trkpt>
      <trkpt lat="45.95293" lon="6.86333">
        <ele>2007</ele>
        <time>2026-08-04T06:53:13.278Z</time>
      </trkpt>
      <trkpt lat="45.95293" lon="6.86331">
        <ele>2007</ele>
        <time>2026-08-04T06:53:14.278Z</time>
      </trkpt>
      <trkpt lat="45.95293" lon="6.8633">
        <ele>2007</ele>
        <time>2026-08-04T06:53:15.278Z</time>
      </trkpt>
      <trkpt lat="45.95292" lon="6.86329">
        <ele>2007</ele>
        <time>2026-08-04T06:53:16.278Z</time>
      </trkpt>
      <trkpt lat="45.95291" lon="6.86327">
        <ele>2007</ele>
        <time>2026-08-04T06:53:17.278Z</time>
      </trkpt>
      <trkpt lat="45.95291" lon="6.86326">
        <ele>2007</ele>
        <time>2026-08-04T06:53:18.278Z</time>
      </trkpt>
      <trkpt lat="45.95291" lon="6.86325">
        <ele>2008</ele>
        <time>2026-08-04T06:53:19.278Z</time>
      </trkpt>
      <trkpt lat="45.9529" lon="6.86324">
        <ele>2008</ele>
        <time>2026-08-04T06:53:20.278Z</time>
      </trkpt>
      <trkpt lat="45.9529" lon="6.86323">
        <ele>2008</ele>
        <time>2026-08-04T06:53:21.278Z</time>
      </trkpt>
      <trkpt lat="45.9529" lon="6.86322">
        <ele>2008</ele>
        <time>2026-08-04T06:53:22.278Z</time>
      </trkpt>
      <trkpt lat="45.9529" lon="6.86321">
        <ele>2008</ele>
        <time>2026-08-04T06:53:23.278Z</time>
      </trkpt>
      <trkpt lat="45.9529" lon="6.86321">
        <ele>2008</ele>
        <time>2026-08-04T06:53:24.278Z</time>
      </trkpt>
      <trkpt lat="45.9529" lon="6.86321">
        <ele>2008</ele>
        <time>2026-08-04T06:53:25.278Z</time>
      </trkpt>
      <trkpt lat="45.95291" lon="6.86321">
        <ele>2009</ele>
        <time>2026-08-04T06:53:26.278Z</time>
      </trkpt>
      <trkpt lat="45.95292" lon="6.86321">
        <ele>2009</ele>
        <time>2026-08-04T06:53:27.278Z</time>
      </trkpt>
      <trkpt lat="45.95292" lon="6.86321">
        <ele>2009</ele>
        <time>2026-08-04T06:53:28.278Z</time>
      </trkpt>
      <trkpt lat="45.95293" lon="6.86321">
        <ele>2009</ele>
        <time>2026-08-04T06:53:29.278Z</time>
      </trkpt>
      <trkpt lat="45.95294" lon="6.86321">
        <ele>2009</ele>
        <time>2026-08-04T06:53:30.278Z</time>
      </trkpt>
      <trkpt lat="45.95295" lon="6.86322">
        <ele>2009</ele>
        <time>2026-08-04T06:53:31.278Z</time>
      </trkpt>
      <trkpt lat="45.95296" lon="6.86322">
        <ele>2009</ele>
        <time>2026-08-04T06:53:32.278Z</time>
      </trkpt>
      <trkpt lat="45.95297" lon="6.86323">
        <ele>2009</ele>
        <time>2026-08-04T06:53:33.278Z</time>
      </trkpt>
      <trkpt lat="45.95297" lon="6.86323">
        <ele>2010</ele>
        <time>2026-08-04T06:53:34.278Z</time>
      </trkpt>
      <trkpt lat="45.95298" lon="6.86324">
        <ele>2010</ele>
        <time>2026-08-04T06:53:35.278Z</time>
      </trkpt>
      <trkpt lat="45.95298" lon="6.86324">
        <ele>2011</ele>
        <time>2026-08-04T06:53:36.278Z</time>
      </trkpt>
      <trkpt lat="45.95299" lon="6.86325">
        <ele>2011</ele>
        <time>2026-08-04T06:53:37.278Z</time>
      </trkpt>
      <trkpt lat="45.953" lon="6.86325">
        <ele>2012</ele>
        <time>2026-08-04T06:53:38.278Z</time>
      </trkpt>
      <trkpt lat="45.95301" lon="6.86326">
        <ele>2012</ele>
        <time>2026-08-04T06:53:39.278Z</time>
      </trkpt>
      <trkpt lat="45.95301" lon="6.86326">
        <ele>2012</ele>
        <time>2026-08-04T06:53:40.278Z</time>
      </trkpt>
      <trkpt lat="45.95302" lon="6.86327">
        <ele>2013</ele>
        <time>2026-08-04T06:53:41.278Z</time>
      </trkpt>
      <trkpt lat="45.95303" lon="6.86328">
        <ele>2013</ele>
        <time>2026-08-04T06:53:42.278Z</time>
      </trkpt>
      <trkpt lat="45.95304" lon="6.86329">
        <ele>2013</ele>
        <time>2026-08-04T06:53:43.278Z</time>
      </trkpt>
      <trkpt lat="45.95304" lon="6.8633">
        <ele>2013</ele>
        <time>2026-08-04T06:53:44.278Z</time>
      </trkpt>
      <trkpt lat="45.95305" lon="6.86331">
        <ele>2013</ele>
        <time>2026-08-04T06:53:45.278Z</time>
      </trkpt>
      <trkpt lat="45.95305" lon="6.86332">
        <ele>2013</ele>
        <time>2026-08-04T06:53:46.278Z</time>
      </trkpt>
      <trkpt lat="45.95306" lon="6.86332">
        <ele>2013</ele>
        <time>2026-08-04T06:53:47.278Z</time>
      </trkpt>
      <trkpt lat="45.95307" lon="6.86332">
        <ele>2013</ele>
        <time>2026-08-04T06:53:48.278Z</time>
      </trkpt>
      <trkpt lat="45.95308" lon="6.86332">
        <ele>2013</ele>
        <time>2026-08-04T06:53:49.278Z</time>
      </trkpt>
      <trkpt lat="45.95309" lon="6.86333">
        <ele>2014</ele>
        <time>2026-08-04T06:53:50.278Z</time>
      </trkpt>
      <trkpt lat="45.9531" lon="6.86333">
        <ele>2014</ele>
        <time>2026-08-04T06:53:51.278Z</time>
      </trkpt>
      <trkpt lat="45.9531" lon="6.86334">
        <ele>2015</ele>
        <time>2026-08-04T06:53:52.278Z</time>
      </trkpt>
      <trkpt lat="45.95311" lon="6.86334">
        <ele>2015</ele>
        <time>2026-08-04T06:53:53.278Z</time>
      </trkpt>
      <trkpt lat="45.95312" lon="6.86335">
        <ele>2015</ele>
        <time>2026-08-04T06:53:54.278Z</time>
      </trkpt>
      <trkpt lat="45.95313" lon="6.86335">
        <ele>2015</ele>
        <time>2026-08-04T06:53:55.278Z</time>
      </trkpt>
      <trkpt lat="45.95313" lon="6.86335">
        <ele>2015</ele>
        <time>2026-08-04T06:53:56.278Z</time>
      </trkpt>
      <trkpt lat="45.95314" lon="6.86335">
        <ele>2015</ele>
        <time>2026-08-04T06:53:57.278Z</time>
      </trkpt>
      <trkpt lat="45.95314" lon="6.86335">
        <ele>2015</ele>
        <time>2026-08-04T06:53:58.278Z</time>
      </trkpt>
      <trkpt lat="45.95315" lon="6.86335">
        <ele>2015</ele>
        <time>2026-08-04T06:53:59.278Z</time>
      </trkpt>
      <trkpt lat="45.95316" lon="6.86336">
        <ele>2016</ele>
        <time>2026-08-04T06:54:00.278Z</time>
      </trkpt>
      <trkpt lat="45.95317" lon="6.86336">
        <ele>2016</ele>
        <time>2026-08-04T06:54:01.278Z</time>
      </trkpt>
      <trkpt lat="45.95318" lon="6.86336">
        <ele>2016</ele>
        <time>2026-08-04T06:54:02.278Z</time>
      </trkpt>
      <trkpt lat="45.95319" lon="6.86336">
        <ele>2016</ele>
        <time>2026-08-04T06:54:03.278Z</time>
      </trkpt>
      <trkpt lat="45.9532" lon="6.86335">
        <ele>2016</ele>
        <time>2026-08-04T06:54:04.278Z</time>
      </trkpt>
      <trkpt lat="45.9532" lon="6.86335">
        <ele>2017</ele>
        <time>2026-08-04T06:54:05.278Z</time>
      </trkpt>
      <trkpt lat="45.95321" lon="6.86335">
        <ele>2017</ele>
        <time>2026-08-04T06:54:06.278Z</time>
      </trkpt>
      <trkpt lat="45.95321" lon="6.86335">
        <ele>2018</ele>
        <time>2026-08-04T06:54:07.278Z</time>
      </trkpt>
      <trkpt lat="45.95322" lon="6.86335">
        <ele>2018</ele>
        <time>2026-08-04T06:54:08.278Z</time>
      </trkpt>
      <trkpt lat="45.95322" lon="6.86336">
        <ele>2018</ele>
        <time>2026-08-04T06:54:09.278Z</time>
      </trkpt>
      <trkpt lat="45.95323" lon="6.86337">
        <ele>2019</ele>
        <time>2026-08-04T06:54:10.278Z</time>
      </trkpt>
      <trkpt lat="45.95323" lon="6.86338">
        <ele>2019</ele>
        <time>2026-08-04T06:54:11.278Z</time>
      </trkpt>
      <trkpt lat="45.95323" lon="6.86339">
        <ele>2019</ele>
        <time>2026-08-04T06:54:12.278Z</time>
      </trkpt>
      <trkpt lat="45.95323" lon="6.8634">
        <ele>2019</ele>
        <time>2026-08-04T06:54:13.278Z</time>
      </trkpt>
      <trkpt lat="45.95324" lon="6.86341">
        <ele>2019</ele>
        <time>2026-08-04T06:54:14.278Z</time>
      </trkpt>
      <trkpt lat="45.95324" lon="6.86342">
        <ele>2019</ele>
        <time>2026-08-04T06:54:15.278Z</time>
      </trkpt>
      <trkpt lat="45.95325" lon="6.86344">
        <ele>2019</ele>
        <time>2026-08-04T06:54:16.278Z</time>
      </trkpt>
      <trkpt lat="45.95325" lon="6.86344">
        <ele>2020</ele>
        <time>2026-08-04T06:54:17.278Z</time>
      </trkpt>
      <trkpt lat="45.95325" lon="6.86345">
        <ele>2020</ele>
        <time>2026-08-04T06:54:18.278Z</time>
      </trkpt>
      <trkpt lat="45.95326" lon="6.86346">
        <ele>2020</ele>
        <time>2026-08-04T06:54:19.278Z</time>
      </trkpt>
      <trkpt lat="45.95326" lon="6.86347">
        <ele>2020</ele>
        <time>2026-08-04T06:54:20.278Z</time>
      </trkpt>
      <trkpt lat="45.95326" lon="6.86348">
        <ele>2020</ele>
        <time>2026-08-04T06:54:21.278Z</time>
      </trkpt>
      <trkpt lat="45.95326" lon="6.86348">
        <ele>2021</ele>
        <time>2026-08-04T06:54:22.278Z</time>
      </trkpt>
      <trkpt lat="45.95326" lon="6.86348">
        <ele>2022</ele>
        <time>2026-08-04T06:54:23.278Z</time>
      </trkpt>
      <trkpt lat="45.95326" lon="6.86348">
        <ele>2022</ele>
        <time>2026-08-04T06:54:24.278Z</time>
      </trkpt>
      <trkpt lat="45.95326" lon="6.86348">
        <ele>2023</ele>
        <time>2026-08-04T06:54:25.278Z</time>
      </trkpt>
      <trkpt lat="45.95326" lon="6.86348">
        <ele>2023</ele>
        <time>2026-08-04T06:54:26.278Z</time>
      </trkpt>
      <trkpt lat="45.95326" lon="6.86348">
        <ele>2023</ele>
        <time>2026-08-04T06:54:27.278Z</time>
      </trkpt>
      <trkpt lat="45.95327" lon="6.86348">
        <ele>2024</ele>
        <time>2026-08-04T06:54:28.278Z</time>
      </trkpt>
      <trkpt lat="45.95327" lon="6.86348">
        <ele>2024</ele>
        <time>2026-08-04T06:54:29.278Z</time>
      </trkpt>
      <trkpt lat="45.95328" lon="6.86349">
        <ele>2024</ele>
        <time>2026-08-04T06:54:30.278Z</time>
      </trkpt>
      <trkpt lat="45.95329" lon="6.86349">
        <ele>2024</ele>
        <time>2026-08-04T06:54:31.278Z</time>
      </trkpt>
      <trkpt lat="45.95329" lon="6.8635">
        <ele>2024</ele>
        <time>2026-08-04T06:54:32.278Z</time>
      </trkpt>
      <trkpt lat="45.9533" lon="6.86351">
        <ele>2024</ele>
        <time>2026-08-04T06:54:33.278Z</time>
      </trkpt>
      <trkpt lat="45.9533" lon="6.86352">
        <ele>2024</ele>
        <time>2026-08-04T06:54:34.278Z</time>
      </trkpt>
      <trkpt lat="45.9533" lon="6.86353">
        <ele>2024</ele>
        <time>2026-08-04T06:54:35.278Z</time>
      </trkpt>
      <trkpt lat="45.9533" lon="6.86354">
        <ele>2024</ele>
        <time>2026-08-04T06:54:36.278Z</time>
      </trkpt>
      <trkpt lat="45.95331" lon="6.86355">
        <ele>2024</ele>
        <time>2026-08-04T06:54:37.278Z</time>
      </trkpt>
      <trkpt lat="45.95331" lon="6.86356">
        <ele>2025</ele>
        <time>2026-08-04T06:54:38.278Z</time>
      </trkpt>
      <trkpt lat="45.95332" lon="6.86357">
        <ele>2025</ele>
        <time>2026-08-04T06:54:39.278Z</time>
      </trkpt>
      <trkpt lat="45.95333" lon="6.86357">
        <ele>2025</ele>
        <time>2026-08-04T06:54:40.278Z</time>
      </trkpt>
      <trkpt lat="45.95333" lon="6.86358">
        <ele>2025</ele>
        <time>2026-08-04T06:54:41.278Z</time>
      </trkpt>
      <trkpt lat="45.95334" lon="6.86359">
        <ele>2025</ele>
        <time>2026-08-04T06:54:42.278Z</time>
      </trkpt>
      <trkpt lat="45.95334" lon="6.86359">
        <ele>2025</ele>
        <time>2026-08-04T06:54:43.278Z</time>
      </trkpt>
      <trkpt lat="45.95335" lon="6.86359">
        <ele>2025</ele>
        <time>2026-08-04T06:54:44.278Z</time>
      </trkpt>
      <trkpt lat="45.95335" lon="6.8636">
        <ele>2024</ele>
        <time>2026-08-04T06:54:45.278Z</time>
      </trkpt>
      <trkpt lat="45.95336" lon="6.8636">
        <ele>2025</ele>
        <time>2026-08-04T06:54:46.278Z</time>
      </trkpt>
      <trkpt lat="45.95336" lon="6.86361">
        <ele>2025</ele>
        <time>2026-08-04T06:54:47.278Z</time>
      </trkpt>
      <trkpt lat="45.95336" lon="6.86361">
        <ele>2025</ele>
        <time>2026-08-04T06:54:48.278Z</time>
      </trkpt>
      <trkpt lat="45.95337" lon="6.86362">
        <ele>2025</ele>
        <time>2026-08-04T06:54:49.278Z</time>
      </trkpt>
      <trkpt lat="45.95337" lon="6.86363">
        <ele>2025</ele>
        <time>2026-08-04T06:54:50.278Z</time>
      </trkpt>
      <trkpt lat="45.95338" lon="6.86363">
        <ele>2025</ele>
        <time>2026-08-04T06:54:51.278Z</time>
      </trkpt>
      <trkpt lat="45.95338" lon="6.86364">
        <ele>2025</ele>
        <time>2026-08-04T06:54:52.278Z</time>
      </trkpt>
      <trkpt lat="45.95339" lon="6.86365">
        <ele>2025</ele>
        <time>2026-08-04T06:54:53.278Z</time>
      </trkpt>
      <trkpt lat="45.95339" lon="6.86366">
        <ele>2026</ele>
        <time>2026-08-04T06:54:54.278Z</time>
      </trkpt>
      <trkpt lat="45.9534" lon="6.86366">
        <ele>2026</ele>
        <time>2026-08-04T06:54:55.278Z</time>
      </trkpt>
      <trkpt lat="45.9534" lon="6.86367">
        <ele>2026</ele>
        <time>2026-08-04T06:54:56.278Z</time>
      </trkpt>
      <trkpt lat="45.95341" lon="6.86368">
        <ele>2026</ele>
        <time>2026-08-04T06:54:57.278Z</time>
      </trkpt>
      <trkpt lat="45.95341" lon="6.86369">
        <ele>2026</ele>
        <time>2026-08-04T06:54:58.278Z</time>
      </trkpt>
      <trkpt lat="45.95342" lon="6.86369">
        <ele>2027</ele>
        <time>2026-08-04T06:54:59.278Z</time>
      </trkpt>
      <trkpt lat="45.95342" lon="6.8637">
        <ele>2027</ele>
        <time>2026-08-04T06:55:00.278Z</time>
      </trkpt>
      <trkpt lat="45.95343" lon="6.8637">
        <ele>2028</ele>
        <time>2026-08-04T06:55:01.278Z</time>
      </trkpt>
      <trkpt lat="45.95343" lon="6.8637">
        <ele>2028</ele>
        <time>2026-08-04T06:55:02.278Z</time>
      </trkpt>
      <trkpt lat="45.95344" lon="6.8637">
        <ele>2028</ele>
        <time>2026-08-04T06:55:03.278Z</time>
      </trkpt>
      <trkpt lat="45.95344" lon="6.86369">
        <ele>2029</ele>
        <time>2026-08-04T06:55:04.278Z</time>
      </trkpt>
      <trkpt lat="45.95344" lon="6.86368">
        <ele>2029</ele>
        <time>2026-08-04T06:55:05.278Z</time>
      </trkpt>
      <trkpt lat="45.95344" lon="6.86367">
        <ele>2030</ele>
        <time>2026-08-04T06:55:06.278Z</time>
      </trkpt>
      <trkpt lat="45.95344" lon="6.86366">
        <ele>2030</ele>
        <time>2026-08-04T06:55:07.278Z</time>
      </trkpt>
      <trkpt lat="45.95344" lon="6.86365">
        <ele>2030</ele>
        <time>2026-08-04T06:55:08.278Z</time>
      </trkpt>
      <trkpt lat="45.95344" lon="6.86364">
        <ele>2031</ele>
        <time>2026-08-04T06:55:09.278Z</time>
      </trkpt>
      <trkpt lat="45.95344" lon="6.86363">
        <ele>2031</ele>
        <time>2026-08-04T06:55:10.278Z</time>
      </trkpt>
      <trkpt lat="45.95344" lon="6.86362">
        <ele>2031</ele>
        <time>2026-08-04T06:55:11.278Z</time>
      </trkpt>
      <trkpt lat="45.95344" lon="6.8636">
        <ele>2031</ele>
        <time>2026-08-04T06:55:12.278Z</time>
      </trkpt>
      <trkpt lat="45.95344" lon="6.86359">
        <ele>2031</ele>
        <time>2026-08-04T06:55:13.278Z</time>
      </trkpt>
      <trkpt lat="45.95344" lon="6.86358">
        <ele>2032</ele>
        <time>2026-08-04T06:55:14.278Z</time>
      </trkpt>
      <trkpt lat="45.95344" lon="6.86357">
        <ele>2032</ele>
        <time>2026-08-04T06:55:15.278Z</time>
      </trkpt>
      <trkpt lat="45.95344" lon="6.86356">
        <ele>2033</ele>
        <time>2026-08-04T06:55:16.278Z</time>
      </trkpt>
      <trkpt lat="45.95344" lon="6.86355">
        <ele>2033</ele>
        <time>2026-08-04T06:55:17.278Z</time>
      </trkpt>
      <trkpt lat="45.95344" lon="6.86354">
        <ele>2034</ele>
        <time>2026-08-04T06:55:18.278Z</time>
      </trkpt>
      <trkpt lat="45.95345" lon="6.86353">
        <ele>2034</ele>
        <time>2026-08-04T06:55:19.278Z</time>
      </trkpt>
      <trkpt lat="45.95346" lon="6.86353">
        <ele>2035</ele>
        <time>2026-08-04T06:55:20.278Z</time>
      </trkpt>
      <trkpt lat="45.95346" lon="6.86353">
        <ele>2035</ele>
        <time>2026-08-04T06:55:21.278Z</time>
      </trkpt>
      <trkpt lat="45.95347" lon="6.86353">
        <ele>2035</ele>
        <time>2026-08-04T06:55:22.278Z</time>
      </trkpt>
      <trkpt lat="45.95348" lon="6.86353">
        <ele>2035</ele>
        <time>2026-08-04T06:55:23.278Z</time>
      </trkpt>
      <trkpt lat="45.95348" lon="6.86353">
        <ele>2035</ele>
        <time>2026-08-04T06:55:24.278Z</time>
      </trkpt>
      <trkpt lat="45.95349" lon="6.86352">
        <ele>2036</ele>
        <time>2026-08-04T06:55:25.278Z</time>
      </trkpt>
      <trkpt lat="45.9535" lon="6.86352">
        <ele>2036</ele>
        <time>2026-08-04T06:55:26.278Z</time>
      </trkpt>
      <trkpt lat="45.9535" lon="6.86352">
        <ele>2036</ele>
        <time>2026-08-04T06:55:27.278Z</time>
      </trkpt>
      <trkpt lat="45.9535" lon="6.86351">
        <ele>2036</ele>
        <time>2026-08-04T06:55:28.278Z</time>
      </trkpt>
      <trkpt lat="45.9535" lon="6.8635">
        <ele>2036</ele>
        <time>2026-08-04T06:55:29.278Z</time>
      </trkpt>
      <trkpt lat="45.95349" lon="6.86349">
        <ele>2036</ele>
        <time>2026-08-04T06:55:30.278Z</time>
      </trkpt>
      <trkpt lat="45.95349" lon="6.86348">
        <ele>2037</ele>
        <time>2026-08-04T06:55:31.278Z</time>
      </trkpt>
      <trkpt lat="45.95349" lon="6.86347">
        <ele>2037</ele>
        <time>2026-08-04T06:55:32.278Z</time>
      </trkpt>
      <trkpt lat="45.95349" lon="6.86346">
        <ele>2037</ele>
        <time>2026-08-04T06:55:33.278Z</time>
      </trkpt>
      <trkpt lat="45.95348" lon="6.86345">
        <ele>2038</ele>
        <time>2026-08-04T06:55:34.278Z</time>
      </trkpt>
      <trkpt lat="45.95348" lon="6.86344">
        <ele>2039</ele>
        <time>2026-08-04T06:55:35.278Z</time>
      </trkpt>
      <trkpt lat="45.95347" lon="6.86343">
        <ele>2039</ele>
        <time>2026-08-04T06:55:36.278Z</time>
      </trkpt>
      <trkpt lat="45.95347" lon="6.86341">
        <ele>2039</ele>
        <time>2026-08-04T06:55:37.278Z</time>
      </trkpt>
      <trkpt lat="45.95347" lon="6.8634">
        <ele>2040</ele>
        <time>2026-08-04T06:55:38.278Z</time>
      </trkpt>
      <trkpt lat="45.95346" lon="6.86339">
        <ele>2040</ele>
        <time>2026-08-04T06:55:39.278Z</time>
      </trkpt>
      <trkpt lat="45.95346" lon="6.86338">
        <ele>2040</ele>
        <time>2026-08-04T06:55:40.278Z</time>
      </trkpt>
      <trkpt lat="45.95346" lon="6.86337">
        <ele>2040</ele>
        <time>2026-08-04T06:55:41.278Z</time>
      </trkpt>
      <trkpt lat="45.95347" lon="6.86336">
        <ele>2040</ele>
        <time>2026-08-04T06:55:42.278Z</time>
      </trkpt>
      <trkpt lat="45.95347" lon="6.86336">
        <ele>2040</ele>
        <time>2026-08-04T06:55:43.278Z</time>
      </trkpt>
      <trkpt lat="45.95347" lon="6.86336">
        <ele>2041</ele>
        <time>2026-08-04T06:55:44.278Z</time>
      </trkpt>
      <trkpt lat="45.95348" lon="6.86336">
        <ele>2041</ele>
        <time>2026-08-04T06:55:45.278Z</time>
      </trkpt>
      <trkpt lat="45.95348" lon="6.86335">
        <ele>2041</ele>
        <time>2026-08-04T06:55:46.278Z</time>
      </trkpt>
      <trkpt lat="45.95349" lon="6.86335">
        <ele>2042</ele>
        <time>2026-08-04T06:55:47.278Z</time>
      </trkpt>
      <trkpt lat="45.9535" lon="6.86335">
        <ele>2042</ele>
        <time>2026-08-04T06:55:48.278Z</time>
      </trkpt>
      <trkpt lat="45.95351" lon="6.86336">
        <ele>2042</ele>
        <time>2026-08-04T06:55:49.278Z</time>
      </trkpt>
      <trkpt lat="45.95351" lon="6.86336">
        <ele>2043</ele>
        <time>2026-08-04T06:55:50.278Z</time>
      </trkpt>
      <trkpt lat="45.95351" lon="6.86336">
        <ele>2043</ele>
        <time>2026-08-04T06:55:51.278Z</time>
      </trkpt>
      <trkpt lat="45.95352" lon="6.86336">
        <ele>2043</ele>
        <time>2026-08-04T06:55:52.278Z</time>
      </trkpt>
      <trkpt lat="45.95352" lon="6.86335">
        <ele>2043</ele>
        <time>2026-08-04T06:55:53.278Z</time>
      </trkpt>
      <trkpt lat="45.95352" lon="6.86335">
        <ele>2044</ele>
        <time>2026-08-04T06:55:54.278Z</time>
      </trkpt>
      <trkpt lat="45.95352" lon="6.86334">
        <ele>2044</ele>
        <time>2026-08-04T06:55:55.278Z</time>
      </trkpt>
      <trkpt lat="45.95352" lon="6.86334">
        <ele>2045</ele>
        <time>2026-08-04T06:55:56.278Z</time>
      </trkpt>
      <trkpt lat="45.95352" lon="6.86333">
        <ele>2045</ele>
        <time>2026-08-04T06:55:57.278Z</time>
      </trkpt>
      <trkpt lat="45.95352" lon="6.86332">
        <ele>2046</ele>
        <time>2026-08-04T06:55:58.278Z</time>
      </trkpt>
      <trkpt lat="45.95352" lon="6.86331">
        <ele>2046</ele>
        <time>2026-08-04T06:55:59.278Z</time>
      </trkpt>
      <trkpt lat="45.95352" lon="6.8633">
        <ele>2046</ele>
        <time>2026-08-04T06:56:00.278Z</time>
      </trkpt>
      <trkpt lat="45.95352" lon="6.86329">
        <ele>2045</ele>
        <time>2026-08-04T06:56:01.278Z</time>
      </trkpt>
      <trkpt lat="45.95352" lon="6.86328">
        <ele>2045</ele>
        <time>2026-08-04T06:56:02.278Z</time>
      </trkpt>
      <trkpt lat="45.95352" lon="6.86327">
        <ele>2045</ele>
        <time>2026-08-04T06:56:03.278Z</time>
      </trkpt>
      <trkpt lat="45.95352" lon="6.86326">
        <ele>2045</ele>
        <time>2026-08-04T06:56:04.278Z</time>
      </trkpt>
      <trkpt lat="45.95352" lon="6.86325">
        <ele>2045</ele>
        <time>2026-08-04T06:56:05.278Z</time>
      </trkpt>
      <trkpt lat="45.95352" lon="6.86324">
        <ele>2046</ele>
        <time>2026-08-04T06:56:06.278Z</time>
      </trkpt>
      <trkpt lat="45.95352" lon="6.86322">
        <ele>2046</ele>
        <time>2026-08-04T06:56:07.278Z</time>
      </trkpt>
      <trkpt lat="45.95352" lon="6.86321">
        <ele>2046</ele>
        <time>2026-08-04T06:56:08.278Z</time>
      </trkpt>
      <trkpt lat="45.95352" lon="6.8632">
        <ele>2046</ele>
        <time>2026-08-04T06:56:09.278Z</time>
      </trkpt>
      <trkpt lat="45.95352" lon="6.86319">
        <ele>2046</ele>
        <time>2026-08-04T06:56:10.278Z</time>
      </trkpt>
      <trkpt lat="45.95353" lon="6.86319">
        <ele>2046</ele>
        <time>2026-08-04T06:56:11.278Z</time>
      </trkpt>
      <trkpt lat="45.95353" lon="6.86318">
        <ele>2046</ele>
        <time>2026-08-04T06:56:12.278Z</time>
      </trkpt>
      <trkpt lat="45.95353" lon="6.86317">
        <ele>2047</ele>
        <time>2026-08-04T06:56:13.278Z</time>
      </trkpt>
      <trkpt lat="45.95353" lon="6.86316">
        <ele>2047</ele>
        <time>2026-08-04T06:56:14.278Z</time>
      </trkpt>
      <trkpt lat="45.95353" lon="6.86315">
        <ele>2048</ele>
        <time>2026-08-04T06:56:15.278Z</time>
      </trkpt>
      <trkpt lat="45.95353" lon="6.86314">
        <ele>2049</ele>
        <time>2026-08-04T06:56:16.278Z</time>
      </trkpt>
      <trkpt lat="45.95353" lon="6.86313">
        <ele>2049</ele>
        <time>2026-08-04T06:56:17.278Z</time>
      </trkpt>
      <trkpt lat="45.95353" lon="6.86312">
        <ele>2049</ele>
        <time>2026-08-04T06:56:18.278Z</time>
      </trkpt>
      <trkpt lat="45.95353" lon="6.86311">
        <ele>2050</ele>
        <time>2026-08-04T06:56:19.278Z</time>
      </trkpt>
      <trkpt lat="45.95353" lon="6.8631">
        <ele>2050</ele>
        <time>2026-08-04T06:56:20.278Z</time>
      </trkpt>
      <trkpt lat="45.95353" lon="6.86309">
        <ele>2050</ele>
        <time>2026-08-04T06:56:21.278Z</time>
      </trkpt>
      <trkpt lat="45.95353" lon="6.86308">
        <ele>2051</ele>
        <time>2026-08-04T06:56:22.278Z</time>
      </trkpt>
      <trkpt lat="45.95354" lon="6.86307">
        <ele>2051</ele>
        <time>2026-08-04T06:56:23.278Z</time>
      </trkpt>
      <trkpt lat="45.95354" lon="6.86307">
        <ele>2051</ele>
        <time>2026-08-04T06:56:24.278Z</time>
      </trkpt>
      <trkpt lat="45.95355" lon="6.86306">
        <ele>2051</ele>
        <time>2026-08-04T06:56:25.278Z</time>
      </trkpt>
      <trkpt lat="45.95355" lon="6.86306">
        <ele>2051</ele>
        <time>2026-08-04T06:56:26.278Z</time>
      </trkpt>
      <trkpt lat="45.95355" lon="6.86306">
        <ele>2051</ele>
        <time>2026-08-04T06:56:27.278Z</time>
      </trkpt>
      <trkpt lat="45.95356" lon="6.86306">
        <ele>2051</ele>
        <time>2026-08-04T06:56:28.278Z</time>
      </trkpt>
      <trkpt lat="45.95357" lon="6.86307">
        <ele>2051</ele>
        <time>2026-08-04T06:56:29.278Z</time>
      </trkpt>
      <trkpt lat="45.95358" lon="6.86307">
        <ele>2051</ele>
        <time>2026-08-04T06:56:30.278Z</time>
      </trkpt>
      <trkpt lat="45.95358" lon="6.86307">
        <ele>2051</ele>
        <time>2026-08-04T06:56:31.278Z</time>
      </trkpt>
      <trkpt lat="45.95358" lon="6.86308">
        <ele>2052</ele>
        <time>2026-08-04T06:56:32.278Z</time>
      </trkpt>
      <trkpt lat="45.95359" lon="6.86307">
        <ele>2052</ele>
        <time>2026-08-04T06:56:33.278Z</time>
      </trkpt>
      <trkpt lat="45.95359" lon="6.86307">
        <ele>2052</ele>
        <time>2026-08-04T06:56:34.278Z</time>
      </trkpt>
      <trkpt lat="45.95359" lon="6.86306">
        <ele>2053</ele>
        <time>2026-08-04T06:56:35.278Z</time>
      </trkpt>
      <trkpt lat="45.95359" lon="6.86305">
        <ele>2053</ele>
        <time>2026-08-04T06:56:36.278Z</time>
      </trkpt>
      <trkpt lat="45.95359" lon="6.86304">
        <ele>2054</ele>
        <time>2026-08-04T06:56:37.278Z</time>
      </trkpt>
      <trkpt lat="45.95359" lon="6.86303">
        <ele>2053</ele>
        <time>2026-08-04T06:56:38.278Z</time>
      </trkpt>
      <trkpt lat="45.9536" lon="6.86302">
        <ele>2053</ele>
        <time>2026-08-04T06:56:39.278Z</time>
      </trkpt>
      <trkpt lat="45.9536" lon="6.86301">
        <ele>2053</ele>
        <time>2026-08-04T06:56:40.278Z</time>
      </trkpt>
      <trkpt lat="45.95359" lon="6.863">
        <ele>2053</ele>
        <time>2026-08-04T06:56:41.278Z</time>
      </trkpt>
      <trkpt lat="45.95359" lon="6.86299">
        <ele>2053</ele>
        <time>2026-08-04T06:56:42.278Z</time>
      </trkpt>
      <trkpt lat="45.95359" lon="6.86298">
        <ele>2053</ele>
        <time>2026-08-04T06:56:43.278Z</time>
      </trkpt>
      <trkpt lat="45.95358" lon="6.86297">
        <ele>2054</ele>
        <time>2026-08-04T06:56:44.278Z</time>
      </trkpt>
      <trkpt lat="45.95358" lon="6.86296">
        <ele>2054</ele>
        <time>2026-08-04T06:56:45.278Z</time>
      </trkpt>
      <trkpt lat="45.95357" lon="6.86295">
        <ele>2055</ele>
        <time>2026-08-04T06:56:46.278Z</time>
      </trkpt>
      <trkpt lat="45.95357" lon="6.86294">
        <ele>2055</ele>
        <time>2026-08-04T06:56:47.278Z</time>
      </trkpt>
      <trkpt lat="45.95357" lon="6.86293">
        <ele>2055</ele>
        <time>2026-08-04T06:56:48.278Z</time>
      </trkpt>
      <trkpt lat="45.95356" lon="6.86292">
        <ele>2056</ele>
        <time>2026-08-04T06:56:49.278Z</time>
      </trkpt>
      <trkpt lat="45.95356" lon="6.86291">
        <ele>2056</ele>
        <time>2026-08-04T06:56:50.278Z</time>
      </trkpt>
      <trkpt lat="45.95356" lon="6.8629">
        <ele>2056</ele>
        <time>2026-08-04T06:56:51.278Z</time>
      </trkpt>
      <trkpt lat="45.95356" lon="6.86289">
        <ele>2057</ele>
        <time>2026-08-04T06:56:52.278Z</time>
      </trkpt>
      <trkpt lat="45.95355" lon="6.86288">
        <ele>2057</ele>
        <time>2026-08-04T06:56:53.278Z</time>
      </trkpt>
      <trkpt lat="45.95355" lon="6.86287">
        <ele>2057</ele>
        <time>2026-08-04T06:56:54.278Z</time>
      </trkpt>
      <trkpt lat="45.95356" lon="6.86286">
        <ele>2057</ele>
        <time>2026-08-04T06:56:55.278Z</time>
      </trkpt>
      <trkpt lat="45.95356" lon="6.86285">
        <ele>2057</ele>
        <time>2026-08-04T06:56:56.278Z</time>
      </trkpt>
      <trkpt lat="45.95356" lon="6.86284">
        <ele>2058</ele>
        <time>2026-08-04T06:56:57.278Z</time>
      </trkpt>
      <trkpt lat="45.95356" lon="6.86284">
        <ele>2058</ele>
        <time>2026-08-04T06:56:58.278Z</time>
      </trkpt>
      <trkpt lat="45.95356" lon="6.86283">
        <ele>2058</ele>
        <time>2026-08-04T06:56:59.278Z</time>
      </trkpt>
      <trkpt lat="45.95355" lon="6.86282">
        <ele>2059</ele>
        <time>2026-08-04T06:57:00.278Z</time>
      </trkpt>
      <trkpt lat="45.95355" lon="6.86282">
        <ele>2059</ele>
        <time>2026-08-04T06:57:01.278Z</time>
      </trkpt>
      <trkpt lat="45.95354" lon="6.86281">
        <ele>2060</ele>
        <time>2026-08-04T06:57:02.278Z</time>
      </trkpt>
      <trkpt lat="45.95354" lon="6.86281">
        <ele>2060</ele>
        <time>2026-08-04T06:57:03.278Z</time>
      </trkpt>
      <trkpt lat="45.95353" lon="6.8628">
        <ele>2060</ele>
        <time>2026-08-04T06:57:04.278Z</time>
      </trkpt>
      <trkpt lat="45.95352" lon="6.86279">
        <ele>2060</ele>
        <time>2026-08-04T06:57:05.278Z</time>
      </trkpt>
      <trkpt lat="45.95352" lon="6.86278">
        <ele>2060</ele>
        <time>2026-08-04T06:57:06.278Z</time>
      </trkpt>
      <trkpt lat="45.95351" lon="6.86277">
        <ele>2060</ele>
        <time>2026-08-04T06:57:07.278Z</time>
      </trkpt>
      <trkpt lat="45.95351" lon="6.86276">
        <ele>2060</ele>
        <time>2026-08-04T06:57:08.278Z</time>
      </trkpt>
      <trkpt lat="45.95351" lon="6.86275">
        <ele>2060</ele>
        <time>2026-08-04T06:57:09.278Z</time>
      </trkpt>
      <trkpt lat="45.9535" lon="6.86273">
        <ele>2060</ele>
        <time>2026-08-04T06:57:10.278Z</time>
      </trkpt>
      <trkpt lat="45.9535" lon="6.86272">
        <ele>2060</ele>
        <time>2026-08-04T06:57:11.278Z</time>
      </trkpt>
      <trkpt lat="45.9535" lon="6.86271">
        <ele>2060</ele>
        <time>2026-08-04T06:57:12.278Z</time>
      </trkpt>
      <trkpt lat="45.95349" lon="6.8627">
        <ele>2060</ele>
        <time>2026-08-04T06:57:13.278Z</time>
      </trkpt>
      <trkpt lat="45.95349" lon="6.86269">
        <ele>2060</ele>
        <time>2026-08-04T06:57:14.278Z</time>
      </trkpt>
      <trkpt lat="45.95349" lon="6.86268">
        <ele>2060</ele>
        <time>2026-08-04T06:57:15.278Z</time>
      </trkpt>
      <trkpt lat="45.95348" lon="6.86267">
        <ele>2061</ele>
        <time>2026-08-04T06:57:16.278Z</time>
      </trkpt>
      <trkpt lat="45.95348" lon="6.86266">
        <ele>2061</ele>
        <time>2026-08-04T06:57:17.278Z</time>
      </trkpt>
      <trkpt lat="45.95347" lon="6.86265">
        <ele>2061</ele>
        <time>2026-08-04T06:57:18.278Z</time>
      </trkpt>
      <trkpt lat="45.95347" lon="6.86264">
        <ele>2062</ele>
        <time>2026-08-04T06:57:19.278Z</time>
      </trkpt>
      <trkpt lat="45.95346" lon="6.86263">
        <ele>2062</ele>
        <time>2026-08-04T06:57:20.278Z</time>
      </trkpt>
      <trkpt lat="45.95346" lon="6.86262">
        <ele>2062</ele>
        <time>2026-08-04T06:57:21.278Z</time>
      </trkpt>
      <trkpt lat="45.95345" lon="6.86262">
        <ele>2063</ele>
        <time>2026-08-04T06:57:22.278Z</time>
      </trkpt>
      <trkpt lat="45.95345" lon="6.86261">
        <ele>2063</ele>
        <time>2026-08-04T06:57:23.278Z</time>
      </trkpt>
      <trkpt lat="45.95344" lon="6.86261">
        <ele>2063</ele>
        <time>2026-08-04T06:57:24.278Z</time>
      </trkpt>
      <trkpt lat="45.95344" lon="6.8626">
        <ele>2063</ele>
        <time>2026-08-04T06:57:25.278Z</time>
      </trkpt>
      <trkpt lat="45.95343" lon="6.86259">
        <ele>2063</ele>
        <time>2026-08-04T06:57:26.278Z</time>
      </trkpt>
      <trkpt lat="45.95343" lon="6.86258">
        <ele>2063</ele>
        <time>2026-08-04T06:57:27.278Z</time>
      </trkpt>
      <trkpt lat="45.95343" lon="6.86257">
        <ele>2063</ele>
        <time>2026-08-04T06:57:28.278Z</time>
      </trkpt>
      <trkpt lat="45.95343" lon="6.86256">
        <ele>2064</ele>
        <time>2026-08-04T06:57:29.278Z</time>
      </trkpt>
      <trkpt lat="45.95343" lon="6.86255">
        <ele>2064</ele>
        <time>2026-08-04T06:57:30.278Z</time>
      </trkpt>
      <trkpt lat="45.95344" lon="6.86254">
        <ele>2064</ele>
        <time>2026-08-04T06:57:31.278Z</time>
      </trkpt>
      <trkpt lat="45.95344" lon="6.86253">
        <ele>2064</ele>
        <time>2026-08-04T06:57:32.278Z</time>
      </trkpt>
      <trkpt lat="45.95344" lon="6.86252">
        <ele>2064</ele>
        <time>2026-08-04T06:57:33.278Z</time>
      </trkpt>
      <trkpt lat="45.95344" lon="6.86251">
        <ele>2064</ele>
        <time>2026-08-04T06:57:34.278Z</time>
      </trkpt>
      <trkpt lat="45.95344" lon="6.86251">
        <ele>2064</ele>
        <time>2026-08-04T06:57:35.278Z</time>
      </trkpt>
      <trkpt lat="45.95344" lon="6.86249">
        <ele>2065</ele>
        <time>2026-08-04T06:57:36.278Z</time>
      </trkpt>
      <trkpt lat="45.95344" lon="6.86248">
        <ele>2066</ele>
        <time>2026-08-04T06:57:37.278Z</time>
      </trkpt>
      <trkpt lat="45.95344" lon="6.86247">
        <ele>2066</ele>
        <time>2026-08-04T06:57:38.278Z</time>
      </trkpt>
      <trkpt lat="45.95344" lon="6.86246">
        <ele>2067</ele>
        <time>2026-08-04T06:57:39.278Z</time>
      </trkpt>
      <trkpt lat="45.95344" lon="6.86245">
        <ele>2067</ele>
        <time>2026-08-04T06:57:40.278Z</time>
      </trkpt>
      <trkpt lat="45.95344" lon="6.86245">
        <ele>2067</ele>
        <time>2026-08-04T06:57:41.278Z</time>
      </trkpt>
      <trkpt lat="45.95344" lon="6.86244">
        <ele>2068</ele>
        <time>2026-08-04T06:57:42.278Z</time>
      </trkpt>
      <trkpt lat="45.95343" lon="6.86243">
        <ele>2068</ele>
        <time>2026-08-04T06:57:43.278Z</time>
      </trkpt>
      <trkpt lat="45.95343" lon="6.86242">
        <ele>2068</ele>
        <time>2026-08-04T06:57:44.278Z</time>
      </trkpt>
      <trkpt lat="45.95342" lon="6.8624">
        <ele>2068</ele>
        <time>2026-08-04T06:57:45.278Z</time>
      </trkpt>
      <trkpt lat="45.95341" lon="6.86239">
        <ele>2068</ele>
        <time>2026-08-04T06:57:46.278Z</time>
      </trkpt>
      <trkpt lat="45.9534" lon="6.86238">
        <ele>2068</ele>
        <time>2026-08-04T06:57:47.278Z</time>
      </trkpt>
      <trkpt lat="45.95339" lon="6.86237">
        <ele>2068</ele>
        <time>2026-08-04T06:57:48.278Z</time>
      </trkpt>
      <trkpt lat="45.95338" lon="6.86236">
        <ele>2069</ele>
        <time>2026-08-04T06:57:49.278Z</time>
      </trkpt>
      <trkpt lat="45.95338" lon="6.86236">
        <ele>2069</ele>
        <time>2026-08-04T06:57:50.278Z</time>
      </trkpt>
      <trkpt lat="45.95337" lon="6.86235">
        <ele>2069</ele>
        <time>2026-08-04T06:57:51.278Z</time>
      </trkpt>
      <trkpt lat="45.95337" lon="6.86235">
        <ele>2069</ele>
        <time>2026-08-04T06:57:52.278Z</time>
      </trkpt>
      <trkpt lat="45.95336" lon="6.86235">
        <ele>2070</ele>
        <time>2026-08-04T06:57:53.278Z</time>
      </trkpt>
      <trkpt lat="45.95336" lon="6.86234">
        <ele>2070</ele>
        <time>2026-08-04T06:57:54.278Z</time>
      </trkpt>
      <trkpt lat="45.95335" lon="6.86234">
        <ele>2070</ele>
        <time>2026-08-04T06:57:55.278Z</time>
      </trkpt>
      <trkpt lat="45.95335" lon="6.86233">
        <ele>2071</ele>
        <time>2026-08-04T06:57:56.278Z</time>
      </trkpt>
      <trkpt lat="45.95334" lon="6.86233">
        <ele>2070</ele>
        <time>2026-08-04T06:57:57.278Z</time>
      </trkpt>
      <trkpt lat="45.95334" lon="6.86232">
        <ele>2070</ele>
        <time>2026-08-04T06:57:58.278Z</time>
      </trkpt>
      <trkpt lat="45.95334" lon="6.86231">
        <ele>2070</ele>
        <time>2026-08-04T06:57:59.278Z</time>
      </trkpt>
      <trkpt lat="45.95334" lon="6.86231">
        <ele>2071</ele>
        <time>2026-08-04T06:58:00.278Z</time>
      </trkpt>
      <trkpt lat="45.95333" lon="6.86231">
        <ele>2071</ele>
        <time>2026-08-04T06:58:01.278Z</time>
      </trkpt>
      <trkpt lat="45.95333" lon="6.8623">
        <ele>2071</ele>
        <time>2026-08-04T06:58:02.278Z</time>
      </trkpt>
      <trkpt lat="45.95334" lon="6.8623">
        <ele>2071</ele>
        <time>2026-08-04T06:58:03.278Z</time>
      </trkpt>
      <trkpt lat="45.95334" lon="6.86231">
        <ele>2071</ele>
        <time>2026-08-04T06:58:04.278Z</time>
      </trkpt>
      <trkpt lat="45.95334" lon="6.86232">
        <ele>2071</ele>
        <time>2026-08-04T06:58:05.278Z</time>
      </trkpt>
      <trkpt lat="45.95335" lon="6.86232">
        <ele>2071</ele>
        <time>2026-08-04T06:58:06.278Z</time>
      </trkpt>
      <trkpt lat="45.95335" lon="6.86233">
        <ele>2071</ele>
        <time>2026-08-04T06:58:07.278Z</time>
      </trkpt>
      <trkpt lat="45.95336" lon="6.86233">
        <ele>2071</ele>
        <time>2026-08-04T06:58:08.278Z</time>
      </trkpt>
      <trkpt lat="45.95336" lon="6.86233">
        <ele>2071</ele>
        <time>2026-08-04T06:58:09.278Z</time>
      </trkpt>
      <trkpt lat="45.95337" lon="6.86232">
        <ele>2071</ele>
        <time>2026-08-04T06:58:10.278Z</time>
      </trkpt>
      <trkpt lat="45.95337" lon="6.86232">
        <ele>2071</ele>
        <time>2026-08-04T06:58:11.278Z</time>
      </trkpt>
      <trkpt lat="45.95338" lon="6.86231">
        <ele>2071</ele>
        <time>2026-08-04T06:58:12.278Z</time>
      </trkpt>
      <trkpt lat="45.95339" lon="6.86231">
        <ele>2071</ele>
        <time>2026-08-04T06:58:13.278Z</time>
      </trkpt>
      <trkpt lat="45.9534" lon="6.86231">
        <ele>2071</ele>
        <time>2026-08-04T06:58:14.278Z</time>
      </trkpt>
      <trkpt lat="45.95341" lon="6.86231">
        <ele>2071</ele>
        <time>2026-08-04T06:58:15.278Z</time>
      </trkpt>
      <trkpt lat="45.95341" lon="6.86231">
        <ele>2071</ele>
        <time>2026-08-04T06:58:16.278Z</time>
      </trkpt>
      <trkpt lat="45.95341" lon="6.86231">
        <ele>2072</ele>
        <time>2026-08-04T06:58:17.278Z</time>
      </trkpt>
      <trkpt lat="45.95342" lon="6.8623">
        <ele>2072</ele>
        <time>2026-08-04T06:58:18.278Z</time>
      </trkpt>
      <trkpt lat="45.95343" lon="6.8623">
        <ele>2072</ele>
        <time>2026-08-04T06:58:19.278Z</time>
      </trkpt>
      <trkpt lat="45.95343" lon="6.86229">
        <ele>2072</ele>
        <time>2026-08-04T06:58:20.278Z</time>
      </trkpt>
      <trkpt lat="45.95343" lon="6.86229">
        <ele>2072</ele>
        <time>2026-08-04T06:58:21.278Z</time>
      </trkpt>
      <trkpt lat="45.95344" lon="6.86229">
        <ele>2072</ele>
        <time>2026-08-04T06:58:22.278Z</time>
      </trkpt>
      <trkpt lat="45.95345" lon="6.86229">
        <ele>2072</ele>
        <time>2026-08-04T06:58:23.278Z</time>
      </trkpt>
      <trkpt lat="45.95345" lon="6.86229">
        <ele>2072</ele>
        <time>2026-08-04T06:58:24.278Z</time>
      </trkpt>
      <trkpt lat="45.95346" lon="6.86229">
        <ele>2072</ele>
        <time>2026-08-04T06:58:25.278Z</time>
      </trkpt>
      <trkpt lat="45.95347" lon="6.86229">
        <ele>2072</ele>
        <time>2026-08-04T06:58:26.278Z</time>
      </trkpt>
      <trkpt lat="45.95347" lon="6.86229">
        <ele>2072</ele>
        <time>2026-08-04T06:58:27.278Z</time>
      </trkpt>
      <trkpt lat="45.95347" lon="6.86228">
        <ele>2072</ele>
        <time>2026-08-04T06:58:28.278Z</time>
      </trkpt>
      <trkpt lat="45.95347" lon="6.86227">
        <ele>2072</ele>
        <time>2026-08-04T06:58:29.278Z</time>
      </trkpt>
      <trkpt lat="45.95347" lon="6.86226">
        <ele>2073</ele>
        <time>2026-08-04T06:58:30.278Z</time>
      </trkpt>
      <trkpt lat="45.95348" lon="6.86225">
        <ele>2073</ele>
        <time>2026-08-04T06:58:31.278Z</time>
      </trkpt>
      <trkpt lat="45.95348" lon="6.86224">
        <ele>2073</ele>
        <time>2026-08-04T06:58:32.278Z</time>
      </trkpt>
      <trkpt lat="45.95348" lon="6.86224">
        <ele>2073</ele>
        <time>2026-08-04T06:58:33.278Z</time>
      </trkpt>
      <trkpt lat="45.95348" lon="6.86223">
        <ele>2073</ele>
        <time>2026-08-04T06:58:34.278Z</time>
      </trkpt>
      <trkpt lat="45.95348" lon="6.86222">
        <ele>2073</ele>
        <time>2026-08-04T06:58:35.278Z</time>
      </trkpt>
      <trkpt lat="45.95348" lon="6.86222">
        <ele>2073</ele>
        <time>2026-08-04T06:58:36.278Z</time>
      </trkpt>
      <trkpt lat="45.95348" lon="6.86221">
        <ele>2073</ele>
        <time>2026-08-04T06:58:37.278Z</time>
      </trkpt>
      <trkpt lat="45.95348" lon="6.8622">
        <ele>2073</ele>
        <time>2026-08-04T06:58:38.278Z</time>
      </trkpt>
      <trkpt lat="45.95347" lon="6.8622">
        <ele>2073</ele>
        <time>2026-08-04T06:58:39.278Z</time>
      </trkpt>
      <trkpt lat="45.95347" lon="6.86219">
        <ele>2074</ele>
        <time>2026-08-04T06:58:40.278Z</time>
      </trkpt>
      <trkpt lat="45.95346" lon="6.86218">
        <ele>2074</ele>
        <time>2026-08-04T06:58:41.278Z</time>
      </trkpt>
      <trkpt lat="45.95346" lon="6.86217">
        <ele>2074</ele>
        <time>2026-08-04T06:58:42.278Z</time>
      </trkpt>
      <trkpt lat="45.95346" lon="6.86217">
        <ele>2074</ele>
        <time>2026-08-04T06:58:43.278Z</time>
      </trkpt>
      <trkpt lat="45.95345" lon="6.86216">
        <ele>2074</ele>
        <time>2026-08-04T06:58:44.278Z</time>
      </trkpt>
      <trkpt lat="45.95345" lon="6.86216">
        <ele>2074</ele>
        <time>2026-08-04T06:58:45.278Z</time>
      </trkpt>
      <trkpt lat="45.95344" lon="6.86216">
        <ele>2074</ele>
        <time>2026-08-04T06:58:46.278Z</time>
      </trkpt>
      <trkpt lat="45.95344" lon="6.86215">
        <ele>2074</ele>
        <time>2026-08-04T06:58:47.278Z</time>
      </trkpt>
      <trkpt lat="45.95343" lon="6.86215">
        <ele>2075</ele>
        <time>2026-08-04T06:58:48.278Z</time>
      </trkpt>
      <trkpt lat="45.95342" lon="6.86214">
        <ele>2075</ele>
        <time>2026-08-04T06:58:49.278Z</time>
      </trkpt>
      <trkpt lat="45.95341" lon="6.86214">
        <ele>2075</ele>
        <time>2026-08-04T06:58:50.278Z</time>
      </trkpt>
      <trkpt lat="45.9534" lon="6.86213">
        <ele>2076</ele>
        <time>2026-08-04T06:58:51.278Z</time>
      </trkpt>
      <trkpt lat="45.9534" lon="6.86213">
        <ele>2076</ele>
        <time>2026-08-04T06:58:52.278Z</time>
      </trkpt>
      <trkpt lat="45.95339" lon="6.86212">
        <ele>2076</ele>
        <time>2026-08-04T06:58:53.278Z</time>
      </trkpt>
      <trkpt lat="45.95339" lon="6.86211">
        <ele>2077</ele>
        <time>2026-08-04T06:58:54.278Z</time>
      </trkpt>
      <trkpt lat="45.95338" lon="6.86211">
        <ele>2077</ele>
        <time>2026-08-04T06:58:55.278Z</time>
      </trkpt>
      <trkpt lat="45.95338" lon="6.86209">
        <ele>2077</ele>
        <time>2026-08-04T06:58:56.278Z</time>
      </trkpt>
      <trkpt lat="45.95338" lon="6.86207">
        <ele>2078</ele>
        <time>2026-08-04T06:58:57.278Z</time>
      </trkpt>
      <trkpt lat="45.95338" lon="6.86205">
        <ele>2078</ele>
        <time>2026-08-04T06:58:58.278Z</time>
      </trkpt>
      <trkpt lat="45.95338" lon="6.86204">
        <ele>2078</ele>
        <time>2026-08-04T06:58:59.278Z</time>
      </trkpt>
      <trkpt lat="45.95339" lon="6.86204">
        <ele>2079</ele>
        <time>2026-08-04T06:59:00.278Z</time>
      </trkpt>
      <trkpt lat="45.95339" lon="6.86204">
        <ele>2079</ele>
        <time>2026-08-04T06:59:01.278Z</time>
      </trkpt>
      <trkpt lat="45.9534" lon="6.86203">
        <ele>2079</ele>
        <time>2026-08-04T06:59:02.278Z</time>
      </trkpt>
      <trkpt lat="45.95341" lon="6.86203">
        <ele>2080</ele>
        <time>2026-08-04T06:59:03.278Z</time>
      </trkpt>
      <trkpt lat="45.95341" lon="6.86203">
        <ele>2080</ele>
        <time>2026-08-04T06:59:04.278Z</time>
      </trkpt>
      <trkpt lat="45.95342" lon="6.86202">
        <ele>2081</ele>
        <time>2026-08-04T06:59:05.278Z</time>
      </trkpt>
      <trkpt lat="45.95342" lon="6.86202">
        <ele>2081</ele>
        <time>2026-08-04T06:59:06.278Z</time>
      </trkpt>
      <trkpt lat="45.95342" lon="6.86201">
        <ele>2081</ele>
        <time>2026-08-04T06:59:07.278Z</time>
      </trkpt>
      <trkpt lat="45.95342" lon="6.86201">
        <ele>2082</ele>
        <time>2026-08-04T06:59:08.278Z</time>
      </trkpt>
      <trkpt lat="45.95342" lon="6.86201">
        <ele>2082</ele>
        <time>2026-08-04T06:59:09.278Z</time>
      </trkpt>
      <trkpt lat="45.95342" lon="6.862">
        <ele>2082</ele>
        <time>2026-08-04T06:59:10.278Z</time>
      </trkpt>
      <trkpt lat="45.95342" lon="6.862">
        <ele>2082</ele>
        <time>2026-08-04T06:59:11.278Z</time>
      </trkpt>
      <trkpt lat="45.95341" lon="6.862">
        <ele>2082</ele>
        <time>2026-08-04T06:59:12.278Z</time>
      </trkpt>
      <trkpt lat="45.95341" lon="6.86199">
        <ele>2083</ele>
        <time>2026-08-04T06:59:13.278Z</time>
      </trkpt>
      <trkpt lat="45.9534" lon="6.86199">
        <ele>2083</ele>
        <time>2026-08-04T06:59:14.278Z</time>
      </trkpt>
      <trkpt lat="45.9534" lon="6.86198">
        <ele>2083</ele>
        <time>2026-08-04T06:59:15.278Z</time>
      </trkpt>
      <trkpt lat="45.95339" lon="6.86197">
        <ele>2083</ele>
        <time>2026-08-04T06:59:16.279Z</time>
      </trkpt>
      <trkpt lat="45.9534" lon="6.86196">
        <ele>2083</ele>
        <time>2026-08-04T06:59:17.278Z</time>
      </trkpt>
      <trkpt lat="45.9534" lon="6.86195">
        <ele>2083</ele>
        <time>2026-08-04T06:59:18.278Z</time>
      </trkpt>
      <trkpt lat="45.9534" lon="6.86195">
        <ele>2084</ele>
        <time>2026-08-04T06:59:19.278Z</time>
      </trkpt>
      <trkpt lat="45.9534" lon="6.86194">
        <ele>2084</ele>
        <time>2026-08-04T06:59:20.278Z</time>
      </trkpt>
      <trkpt lat="45.9534" lon="6.86193">
        <ele>2084</ele>
        <time>2026-08-04T06:59:21.278Z</time>
      </trkpt>
      <trkpt lat="45.95341" lon="6.86192">
        <ele>2084</ele>
        <time>2026-08-04T06:59:22.278Z</time>
      </trkpt>
      <trkpt lat="45.95341" lon="6.86192">
        <ele>2084</ele>
        <time>2026-08-04T06:59:23.278Z</time>
      </trkpt>
      <trkpt lat="45.95341" lon="6.86191">
        <ele>2084</ele>
        <time>2026-08-04T06:59:24.278Z</time>
      </trkpt>
      <trkpt lat="45.95342" lon="6.86191">
        <ele>2084</ele>
        <time>2026-08-04T06:59:25.278Z</time>
      </trkpt>
      <trkpt lat="45.95343" lon="6.8619">
        <ele>2085</ele>
        <time>2026-08-04T06:59:26.278Z</time>
      </trkpt>
      <trkpt lat="45.95344" lon="6.8619">
        <ele>2085</ele>
        <time>2026-08-04T06:59:27.278Z</time>
      </trkpt>
      <trkpt lat="45.95345" lon="6.86191">
        <ele>2085</ele>
        <time>2026-08-04T06:59:28.278Z</time>
      </trkpt>
      <trkpt lat="45.95346" lon="6.86191">
        <ele>2086</ele>
        <time>2026-08-04T06:59:29.278Z</time>
      </trkpt>
      <trkpt lat="45.95347" lon="6.86192">
        <ele>2086</ele>
        <time>2026-08-04T06:59:30.278Z</time>
      </trkpt>
      <trkpt lat="45.95348" lon="6.86192">
        <ele>2086</ele>
        <time>2026-08-04T06:59:31.278Z</time>
      </trkpt>
      <trkpt lat="45.95349" lon="6.86192">
        <ele>2086</ele>
        <time>2026-08-04T06:59:32.278Z</time>
      </trkpt>
      <trkpt lat="45.9535" lon="6.86192">
        <ele>2087</ele>
        <time>2026-08-04T06:59:33.278Z</time>
      </trkpt>
      <trkpt lat="45.95351" lon="6.86192">
        <ele>2087</ele>
        <time>2026-08-04T06:59:34.278Z</time>
      </trkpt>
      <trkpt lat="45.95352" lon="6.86192">
        <ele>2087</ele>
        <time>2026-08-04T06:59:35.278Z</time>
      </trkpt>
      <trkpt lat="45.95353" lon="6.86193">
        <ele>2088</ele>
        <time>2026-08-04T06:59:36.278Z</time>
      </trkpt>
      <trkpt lat="45.95354" lon="6.86193">
        <ele>2088</ele>
        <time>2026-08-04T06:59:37.278Z</time>
      </trkpt>
      <trkpt lat="45.95355" lon="6.86192">
        <ele>2088</ele>
        <time>2026-08-04T06:59:38.278Z</time>
      </trkpt>
      <trkpt lat="45.95356" lon="6.86192">
        <ele>2088</ele>
        <time>2026-08-04T06:59:39.278Z</time>
      </trkpt>
      <trkpt lat="45.95357" lon="6.86192">
        <ele>2088</ele>
        <time>2026-08-04T06:59:40.278Z</time>
      </trkpt>
      <trkpt lat="45.95358" lon="6.86193">
        <ele>2088</ele>
        <time>2026-08-04T06:59:41.278Z</time>
      </trkpt>
      <trkpt lat="45.95359" lon="6.86193">
        <ele>2088</ele>
        <time>2026-08-04T06:59:42.278Z</time>
      </trkpt>
      <trkpt lat="45.9536" lon="6.86193">
        <ele>2088</ele>
        <time>2026-08-04T06:59:43.278Z</time>
      </trkpt>
      <trkpt lat="45.95361" lon="6.86193">
        <ele>2088</ele>
        <time>2026-08-04T06:59:44.278Z</time>
      </trkpt>
      <trkpt lat="45.95361" lon="6.86193">
        <ele>2089</ele>
        <time>2026-08-04T06:59:45.278Z</time>
      </trkpt>
      <trkpt lat="45.95362" lon="6.86193">
        <ele>2089</ele>
        <time>2026-08-04T06:59:46.278Z</time>
      </trkpt>
      <trkpt lat="45.95362" lon="6.86193">
        <ele>2090</ele>
        <time>2026-08-04T06:59:47.278Z</time>
      </trkpt>
      <trkpt lat="45.95362" lon="6.86193">
        <ele>2090</ele>
        <time>2026-08-04T06:59:48.278Z</time>
      </trkpt>
      <trkpt lat="45.95362" lon="6.86193">
        <ele>2090</ele>
        <time>2026-08-04T06:59:49.278Z</time>
      </trkpt>
      <trkpt lat="45.95362" lon="6.86193">
        <ele>2091</ele>
        <time>2026-08-04T06:59:50.278Z</time>
      </trkpt>
      <trkpt lat="45.95361" lon="6.86193">
        <ele>2091</ele>
        <time>2026-08-04T06:59:51.278Z</time>
      </trkpt>
      <trkpt lat="45.95361" lon="6.86193">
        <ele>2091</ele>
        <time>2026-08-04T06:59:52.278Z</time>
      </trkpt>
      <trkpt lat="45.95361" lon="6.86193">
        <ele>2091</ele>
        <time>2026-08-04T06:59:53.278Z</time>
      </trkpt>
      <trkpt lat="45.95361" lon="6.86194">
        <ele>2091</ele>
        <time>2026-08-04T06:59:54.278Z</time>
      </trkpt>
      <trkpt lat="45.95361" lon="6.86194">
        <ele>2090</ele>
        <time>2026-08-04T06:59:55.278Z</time>
      </trkpt>
      <trkpt lat="45.95361" lon="6.86194">
        <ele>2090</ele>
        <time>2026-08-04T06:59:56.278Z</time>
      </trkpt>
      <trkpt lat="45.95361" lon="6.86194">
        <ele>2090</ele>
        <time>2026-08-04T06:59:57.278Z</time>
      </trkpt>
      <trkpt lat="45.95361" lon="6.86194">
        <ele>2090</ele>
        <time>2026-08-04T06:59:58.278Z</time>
      </trkpt>
      <trkpt lat="45.95361" lon="6.86194">
        <ele>2089</ele>
        <time>2026-08-04T06:59:59.278Z</time>
      </trkpt>
      <trkpt lat="45.95361" lon="6.86194">
        <ele>2089</ele>
        <time>2026-08-04T07:00:00.278Z</time>
      </trkpt>
      <trkpt lat="45.95361" lon="6.86194">
        <ele>2089</ele>
        <time>2026-08-04T07:00:01.278Z</time>
      </trkpt>
      <trkpt lat="45.95361" lon="6.86194">
        <ele>2089</ele>
        <time>2026-08-04T07:00:02.278Z</time>
      </trkpt>
      <trkpt lat="45.95361" lon="6.86194">
        <ele>2089</ele>
        <time>2026-08-04T07:00:03.278Z</time>
      </trkpt>
      <trkpt lat="45.95361" lon="6.86194">
        <ele>2090</ele>
        <time>2026-08-04T07:00:04.278Z</time>
      </trkpt>
      <trkpt lat="45.95361" lon="6.86194">
        <ele>2090</ele>
        <time>2026-08-04T07:00:05.278Z</time>
      </trkpt>
      <trkpt lat="45.95361" lon="6.86194">
        <ele>2090</ele>
        <time>2026-08-04T07:00:06.278Z</time>
      </trkpt>
      <trkpt lat="45.95361" lon="6.86194">
        <ele>2090</ele>
        <time>2026-08-04T07:00:07.278Z</time>
      </trkpt>
      <trkpt lat="45.95361" lon="6.86194">
        <ele>2090</ele>
        <time>2026-08-04T07:00:08.278Z</time>
      </trkpt>
      <trkpt lat="45.95361" lon="6.86194">
        <ele>2090</ele>
        <time>2026-08-04T07:00:09.278Z</time>
      </trkpt>
      <trkpt lat="45.95361" lon="6.86194">
        <ele>2090</ele>
        <time>2026-08-04T07:00:10.278Z</time>
      </trkpt>
      <trkpt lat="45.95361" lon="6.86194">
        <ele>2090</ele>
        <time>2026-08-04T07:00:11.278Z</time>
      </trkpt>
      <trkpt lat="45.95361" lon="6.86194">
        <ele>2090</ele>
        <time>2026-08-04T07:00:12.278Z</time>
      </trkpt>
      <trkpt lat="45.95361" lon="6.86194">
        <ele>2090</ele>
        <time>2026-08-04T07:00:13.278Z</time>
      </trkpt>
      <trkpt lat="45.95361" lon="6.86194">
        <ele>2090</ele>
        <time>2026-08-04T07:00:14.278Z</time>
      </trkpt>
      <trkpt lat="45.95362" lon="6.86193">
        <ele>2090</ele>
        <time>2026-08-04T07:00:15.278Z</time>
      </trkpt>
      <trkpt lat="45.95362" lon="6.86191">
        <ele>2090</ele>
        <time>2026-08-04T07:00:16.278Z</time>
      </trkpt>
      <trkpt lat="45.95363" lon="6.8619">
        <ele>2090</ele>
        <time>2026-08-04T07:00:17.278Z</time>
      </trkpt>
      <trkpt lat="45.95363" lon="6.86188">
        <ele>2090</ele>
        <time>2026-08-04T07:00:18.278Z</time>
      </trkpt>
      <trkpt lat="45.95363" lon="6.86187">
        <ele>2090</ele>
        <time>2026-08-04T07:00:19.278Z</time>
      </trkpt>
      <trkpt lat="45.95363" lon="6.86186">
        <ele>2090</ele>
        <time>2026-08-04T07:00:20.278Z</time>
      </trkpt>
      <trkpt lat="45.95363" lon="6.86184">
        <ele>2089</ele>
        <time>2026-08-04T07:00:21.278Z</time>
      </trkpt>
      <trkpt lat="45.95363" lon="6.86183">
        <ele>2089</ele>
        <time>2026-08-04T07:00:22.278Z</time>
      </trkpt>
      <trkpt lat="45.95362" lon="6.86182">
        <ele>2089</ele>
        <time>2026-08-04T07:00:23.278Z</time>
      </trkpt>
      <trkpt lat="45.95362" lon="6.86181">
        <ele>2090</ele>
        <time>2026-08-04T07:00:24.278Z</time>
      </trkpt>
      <trkpt lat="45.95361" lon="6.86181">
        <ele>2090</ele>
        <time>2026-08-04T07:00:25.278Z</time>
      </trkpt>
      <trkpt lat="45.95361" lon="6.86181">
        <ele>2090</ele>
        <time>2026-08-04T07:00:26.278Z</time>
      </trkpt>
      <trkpt lat="45.9536" lon="6.86181">
        <ele>2091</ele>
        <time>2026-08-04T07:00:27.278Z</time>
      </trkpt>
      <trkpt lat="45.95359" lon="6.86181">
        <ele>2091</ele>
        <time>2026-08-04T07:00:28.278Z</time>
      </trkpt>
      <trkpt lat="45.95358" lon="6.86181">
        <ele>2091</ele>
        <time>2026-08-04T07:00:29.278Z</time>
      </trkpt>
      <trkpt lat="45.95357" lon="6.86181">
        <ele>2091</ele>
        <time>2026-08-04T07:00:30.278Z</time>
      </trkpt>
      <trkpt lat="45.95357" lon="6.86181">
        <ele>2091</ele>
        <time>2026-08-04T07:00:31.278Z</time>
      </trkpt>
      <trkpt lat="45.95356" lon="6.8618">
        <ele>2091</ele>
        <time>2026-08-04T07:00:32.278Z</time>
      </trkpt>
      <trkpt lat="45.95356" lon="6.8618">
        <ele>2091</ele>
        <time>2026-08-04T07:00:33.278Z</time>
      </trkpt>
      <trkpt lat="45.95356" lon="6.8618">
        <ele>2091</ele>
        <time>2026-08-04T07:00:34.278Z</time>
      </trkpt>
      <trkpt lat="45.95356" lon="6.8618">
        <ele>2091</ele>
        <time>2026-08-04T07:00:35.278Z</time>
      </trkpt>
      <trkpt lat="45.95356" lon="6.86181">
        <ele>2091</ele>
        <time>2026-08-04T07:00:36.278Z</time>
      </trkpt>
      <trkpt lat="45.95355" lon="6.86181">
        <ele>2091</ele>
        <time>2026-08-04T07:00:37.278Z</time>
      </trkpt>
      <trkpt lat="45.95354" lon="6.8618">
        <ele>2091</ele>
        <time>2026-08-04T07:00:38.278Z</time>
      </trkpt>
      <trkpt lat="45.95354" lon="6.8618">
        <ele>2091</ele>
        <time>2026-08-04T07:00:39.278Z</time>
      </trkpt>
      <trkpt lat="45.95353" lon="6.8618">
        <ele>2091</ele>
        <time>2026-08-04T07:00:40.278Z</time>
      </trkpt>
      <trkpt lat="45.95353" lon="6.8618">
        <ele>2091</ele>
        <time>2026-08-04T07:00:41.278Z</time>
      </trkpt>
      <trkpt lat="45.95352" lon="6.86179">
        <ele>2091</ele>
        <time>2026-08-04T07:00:42.278Z</time>
      </trkpt>
      <trkpt lat="45.95351" lon="6.86179">
        <ele>2091</ele>
        <time>2026-08-04T07:00:43.278Z</time>
      </trkpt>
      <trkpt lat="45.95351" lon="6.86178">
        <ele>2091</ele>
        <time>2026-08-04T07:00:44.278Z</time>
      </trkpt>
      <trkpt lat="45.9535" lon="6.86177">
        <ele>2091</ele>
        <time>2026-08-04T07:00:45.278Z</time>
      </trkpt>
      <trkpt lat="45.95349" lon="6.86177">
        <ele>2092</ele>
        <time>2026-08-04T07:00:46.278Z</time>
      </trkpt>
      <trkpt lat="45.95349" lon="6.86177">
        <ele>2092</ele>
        <time>2026-08-04T07:00:47.278Z</time>
      </trkpt>
      <trkpt lat="45.95348" lon="6.86177">
        <ele>2092</ele>
        <time>2026-08-04T07:00:48.278Z</time>
      </trkpt>
      <trkpt lat="45.95347" lon="6.86176">
        <ele>2093</ele>
        <time>2026-08-04T07:00:49.278Z</time>
      </trkpt>
      <trkpt lat="45.95347" lon="6.86176">
        <ele>2093</ele>
        <time>2026-08-04T07:00:50.278Z</time>
      </trkpt>
      <trkpt lat="45.95347" lon="6.86176">
        <ele>2093</ele>
        <time>2026-08-04T07:00:51.278Z</time>
      </trkpt>
      <trkpt lat="45.95347" lon="6.86176">
        <ele>2093</ele>
        <time>2026-08-04T07:00:52.278Z</time>
      </trkpt>
      <trkpt lat="45.95347" lon="6.86176">
        <ele>2093</ele>
        <time>2026-08-04T07:00:53.278Z</time>
      </trkpt>
      <trkpt lat="45.95347" lon="6.86176">
        <ele>2094</ele>
        <time>2026-08-04T07:00:54.278Z</time>
      </trkpt>
      <trkpt lat="45.95347" lon="6.86176">
        <ele>2094</ele>
        <time>2026-08-04T07:00:55.278Z</time>
      </trkpt>
      <trkpt lat="45.95347" lon="6.86176">
        <ele>2094</ele>
        <time>2026-08-04T07:00:56.278Z</time>
      </trkpt>
      <trkpt lat="45.95347" lon="6.86176">
        <ele>2094</ele>
        <time>2026-08-04T07:00:57.278Z</time>
      </trkpt>
      <trkpt lat="45.95347" lon="6.86176">
        <ele>2095</ele>
        <time>2026-08-04T07:00:58.278Z</time>
      </trkpt>
      <trkpt lat="45.95346" lon="6.86176">
        <ele>2095</ele>
        <time>2026-08-04T07:00:59.278Z</time>
      </trkpt>
      <trkpt lat="45.95346" lon="6.86176">
        <ele>2095</ele>
        <time>2026-08-04T07:01:00.278Z</time>
      </trkpt>
      <trkpt lat="45.95346" lon="6.86176">
        <ele>2095</ele>
        <time>2026-08-04T07:01:01.278Z</time>
      </trkpt>
      <trkpt lat="45.95346" lon="6.86176">
        <ele>2094</ele>
        <time>2026-08-04T07:01:02.278Z</time>
      </trkpt>
      <trkpt lat="45.95346" lon="6.86176">
        <ele>2094</ele>
        <time>2026-08-04T07:01:03.278Z</time>
      </trkpt>
      <trkpt lat="45.95346" lon="6.86176">
        <ele>2094</ele>
        <time>2026-08-04T07:01:04.278Z</time>
      </trkpt>
      <trkpt lat="45.95346" lon="6.86176">
        <ele>2094</ele>
        <time>2026-08-04T07:01:05.278Z</time>
      </trkpt>
      <trkpt lat="45.95346" lon="6.86176">
        <ele>2094</ele>
        <time>2026-08-04T07:01:06.278Z</time>
      </trkpt>
      <trkpt lat="45.95346" lon="6.86176">
        <ele>2094</ele>
        <time>2026-08-04T07:01:07.278Z</time>
      </trkpt>
      <trkpt lat="45.95346" lon="6.86176">
        <ele>2094</ele>
        <time>2026-08-04T07:01:08.278Z</time>
      </trkpt>
      <trkpt lat="45.95346" lon="6.86176">
        <ele>2094</ele>
        <time>2026-08-04T07:01:09.278Z</time>
      </trkpt>
      <trkpt lat="45.95346" lon="6.86176">
        <ele>2094</ele>
        <time>2026-08-04T07:01:10.278Z</time>
      </trkpt>
      <trkpt lat="45.95346" lon="6.86176">
        <ele>2094</ele>
        <time>2026-08-04T07:01:11.278Z</time>
      </trkpt>
      <trkpt lat="45.95346" lon="6.86176">
        <ele>2094</ele>
        <time>2026-08-04T07:01:12.278Z</time>
      </trkpt>
      <trkpt lat="45.95346" lon="6.86176">
        <ele>2094</ele>
        <time>2026-08-04T07:01:13.278Z</time>
      </trkpt>
      <trkpt lat="45.95346" lon="6.86176">
        <ele>2094</ele>
        <time>2026-08-04T07:01:14.278Z</time>
      </trkpt>
      <trkpt lat="45.95346" lon="6.86176">
        <ele>2094</ele>
        <time>2026-08-04T07:01:15.278Z</time>
      </trkpt>
      <trkpt lat="45.95346" lon="6.86176">
        <ele>2094</ele>
        <time>2026-08-04T07:01:16.278Z</time>
      </trkpt>
      <trkpt lat="45.95346" lon="6.86176">
        <ele>2094</ele>
        <time>2026-08-04T07:01:17.278Z</time>
      </trkpt>
      <trkpt lat="45.95345" lon="6.86175">
        <ele>2094</ele>
        <time>2026-08-04T07:01:18.278Z</time>
      </trkpt>
      <trkpt lat="45.95344" lon="6.86173">
        <ele>2094</ele>
        <time>2026-08-04T07:01:19.278Z</time>
      </trkpt>
      <trkpt lat="45.95343" lon="6.86172">
        <ele>2094</ele>
        <time>2026-08-04T07:01:20.278Z</time>
      </trkpt>
      <trkpt lat="45.95342" lon="6.86171">
        <ele>2093</ele>
        <time>2026-08-04T07:01:21.278Z</time>
      </trkpt>
      <trkpt lat="45.95341" lon="6.86169">
        <ele>2093</ele>
        <time>2026-08-04T07:01:22.278Z</time>
      </trkpt>
      <trkpt lat="45.9534" lon="6.86168">
        <ele>2093</ele>
        <time>2026-08-04T07:01:23.278Z</time>
      </trkpt>
      <trkpt lat="45.9534" lon="6.86166">
        <ele>2094</ele>
        <time>2026-08-04T07:01:24.278Z</time>
      </trkpt>
      <trkpt lat="45.95339" lon="6.86165">
        <ele>2094</ele>
        <time>2026-08-04T07:01:25.278Z</time>
      </trkpt>
      <trkpt lat="45.95339" lon="6.86164">
        <ele>2094</ele>
        <time>2026-08-04T07:01:26.278Z</time>
      </trkpt>
      <trkpt lat="45.95339" lon="6.86163">
        <ele>2094</ele>
        <time>2026-08-04T07:01:27.278Z</time>
      </trkpt>
      <trkpt lat="45.95339" lon="6.86163">
        <ele>2094</ele>
        <time>2026-08-04T07:01:28.278Z</time>
      </trkpt>
      <trkpt lat="45.95338" lon="6.86161">
        <ele>2095</ele>
        <time>2026-08-04T07:01:29.278Z</time>
      </trkpt>
      <trkpt lat="45.95338" lon="6.86161">
        <ele>2095</ele>
        <time>2026-08-04T07:01:30.278Z</time>
      </trkpt>
      <trkpt lat="45.95338" lon="6.8616">
        <ele>2095</ele>
        <time>2026-08-04T07:01:31.278Z</time>
      </trkpt>
      <trkpt lat="45.95339" lon="6.86159">
        <ele>2096</ele>
        <time>2026-08-04T07:01:32.278Z</time>
      </trkpt>
      <trkpt lat="45.95339" lon="6.86159">
        <ele>2096</ele>
        <time>2026-08-04T07:01:33.278Z</time>
      </trkpt>
      <trkpt lat="45.95339" lon="6.86158">
        <ele>2096</ele>
        <time>2026-08-04T07:01:34.278Z</time>
      </trkpt>
      <trkpt lat="45.95339" lon="6.86157">
        <ele>2096</ele>
        <time>2026-08-04T07:01:35.278Z</time>
      </trkpt>
      <trkpt lat="45.95339" lon="6.86157">
        <ele>2096</ele>
        <time>2026-08-04T07:01:36.278Z</time>
      </trkpt>
      <trkpt lat="45.95339" lon="6.86156">
        <ele>2096</ele>
        <time>2026-08-04T07:01:37.278Z</time>
      </trkpt>
      <trkpt lat="45.9534" lon="6.86156">
        <ele>2095</ele>
        <time>2026-08-04T07:01:38.278Z</time>
      </trkpt>
      <trkpt lat="45.9534" lon="6.86155">
        <ele>2095</ele>
        <time>2026-08-04T07:01:39.278Z</time>
      </trkpt>
      <trkpt lat="45.9534" lon="6.86155">
        <ele>2095</ele>
        <time>2026-08-04T07:01:40.278Z</time>
      </trkpt>
      <trkpt lat="45.9534" lon="6.86154">
        <ele>2095</ele>
        <time>2026-08-04T07:01:41.278Z</time>
      </trkpt>
      <trkpt lat="45.9534" lon="6.86153">
        <ele>2095</ele>
        <time>2026-08-04T07:01:42.278Z</time>
      </trkpt>
      <trkpt lat="45.95341" lon="6.86152">
        <ele>2095</ele>
        <time>2026-08-04T07:01:43.278Z</time>
      </trkpt>
      <trkpt lat="45.95341" lon="6.86152">
        <ele>2095</ele>
        <time>2026-08-04T07:01:44.278Z</time>
      </trkpt>
      <trkpt lat="45.95341" lon="6.86151">
        <ele>2096</ele>
        <time>2026-08-04T07:01:45.278Z</time>
      </trkpt>
      <trkpt lat="45.95341" lon="6.8615">
        <ele>2096</ele>
        <time>2026-08-04T07:01:46.278Z</time>
      </trkpt>
      <trkpt lat="45.95341" lon="6.86149">
        <ele>2097</ele>
        <time>2026-08-04T07:01:47.278Z</time>
      </trkpt>
      <trkpt lat="45.95341" lon="6.86148">
        <ele>2097</ele>
        <time>2026-08-04T07:01:48.278Z</time>
      </trkpt>
      <trkpt lat="45.95342" lon="6.86148">
        <ele>2098</ele>
        <time>2026-08-04T07:01:49.278Z</time>
      </trkpt>
      <trkpt lat="45.95342" lon="6.86147">
        <ele>2098</ele>
        <time>2026-08-04T07:01:50.278Z</time>
      </trkpt>
      <trkpt lat="45.95342" lon="6.86146">
        <ele>2098</ele>
        <time>2026-08-04T07:01:51.278Z</time>
      </trkpt>
      <trkpt lat="45.95342" lon="6.86144">
        <ele>2099</ele>
        <time>2026-08-04T07:01:52.278Z</time>
      </trkpt>
      <trkpt lat="45.95343" lon="6.86144">
        <ele>2099</ele>
        <time>2026-08-04T07:01:53.278Z</time>
      </trkpt>
      <trkpt lat="45.95343" lon="6.86144">
        <ele>2100</ele>
        <time>2026-08-04T07:01:54.278Z</time>
      </trkpt>
      <trkpt lat="45.95344" lon="6.86144">
        <ele>2100</ele>
        <time>2026-08-04T07:01:55.278Z</time>
      </trkpt>
      <trkpt lat="45.95345" lon="6.86144">
        <ele>2100</ele>
        <time>2026-08-04T07:01:56.278Z</time>
      </trkpt>
      <trkpt lat="45.95345" lon="6.86145">
        <ele>2100</ele>
        <time>2026-08-04T07:01:57.278Z</time>
      </trkpt>
      <trkpt lat="45.95346" lon="6.86146">
        <ele>2100</ele>
        <time>2026-08-04T07:01:58.278Z</time>
      </trkpt>
      <trkpt lat="45.95346" lon="6.86147">
        <ele>2100</ele>
        <time>2026-08-04T07:01:59.278Z</time>
      </trkpt>
      <trkpt lat="45.95346" lon="6.86147">
        <ele>2100</ele>
        <time>2026-08-04T07:02:00.278Z</time>
      </trkpt>
      <trkpt lat="45.95346" lon="6.86148">
        <ele>2100</ele>
        <time>2026-08-04T07:02:01.278Z</time>
      </trkpt>
      <trkpt lat="45.95347" lon="6.86149">
        <ele>2100</ele>
        <time>2026-08-04T07:02:02.278Z</time>
      </trkpt>
      <trkpt lat="45.95347" lon="6.86149">
        <ele>2100</ele>
        <time>2026-08-04T07:02:03.278Z</time>
      </trkpt>
      <trkpt lat="45.95348" lon="6.8615">
        <ele>2100</ele>
        <time>2026-08-04T07:02:04.278Z</time>
      </trkpt>
      <trkpt lat="45.95349" lon="6.86151">
        <ele>2100</ele>
        <time>2026-08-04T07:02:05.278Z</time>
      </trkpt>
      <trkpt lat="45.95349" lon="6.86151">
        <ele>2100</ele>
        <time>2026-08-04T07:02:06.278Z</time>
      </trkpt>
      <trkpt lat="45.95349" lon="6.86152">
        <ele>2100</ele>
        <time>2026-08-04T07:02:07.278Z</time>
      </trkpt>
      <trkpt lat="45.9535" lon="6.86153">
        <ele>2100</ele>
        <time>2026-08-04T07:02:08.278Z</time>
      </trkpt>
      <trkpt lat="45.9535" lon="6.86154">
        <ele>2100</ele>
        <time>2026-08-04T07:02:09.278Z</time>
      </trkpt>
      <trkpt lat="45.9535" lon="6.86154">
        <ele>2101</ele>
        <time>2026-08-04T07:02:10.278Z</time>
      </trkpt>
      <trkpt lat="45.9535" lon="6.86154">
        <ele>2101</ele>
        <time>2026-08-04T07:02:11.278Z</time>
      </trkpt>
      <trkpt lat="45.95351" lon="6.86154">
        <ele>2101</ele>
        <time>2026-08-04T07:02:12.278Z</time>
      </trkpt>
      <trkpt lat="45.95351" lon="6.86154">
        <ele>2101</ele>
        <time>2026-08-04T07:02:13.278Z</time>
      </trkpt>
      <trkpt lat="45.95352" lon="6.86154">
        <ele>2102</ele>
        <time>2026-08-04T07:02:14.278Z</time>
      </trkpt>
      <trkpt lat="45.95352" lon="6.86154">
        <ele>2102</ele>
        <time>2026-08-04T07:02:15.278Z</time>
      </trkpt>
      <trkpt lat="45.95353" lon="6.86155">
        <ele>2103</ele>
        <time>2026-08-04T07:02:16.278Z</time>
      </trkpt>
      <trkpt lat="45.95354" lon="6.86155">
        <ele>2103</ele>
        <time>2026-08-04T07:02:17.278Z</time>
      </trkpt>
      <trkpt lat="45.95354" lon="6.86155">
        <ele>2103</ele>
        <time>2026-08-04T07:02:18.278Z</time>
      </trkpt>
      <trkpt lat="45.95355" lon="6.86156">
        <ele>2103</ele>
        <time>2026-08-04T07:02:19.278Z</time>
      </trkpt>
      <trkpt lat="45.95355" lon="6.86156">
        <ele>2103</ele>
        <time>2026-08-04T07:02:20.278Z</time>
      </trkpt>
      <trkpt lat="45.95356" lon="6.86157">
        <ele>2104</ele>
        <time>2026-08-04T07:02:21.278Z</time>
      </trkpt>
      <trkpt lat="45.95356" lon="6.86157">
        <ele>2104</ele>
        <time>2026-08-04T07:02:22.278Z</time>
      </trkpt>
      <trkpt lat="45.95357" lon="6.86157">
        <ele>2104</ele>
        <time>2026-08-04T07:02:23.278Z</time>
      </trkpt>
      <trkpt lat="45.95357" lon="6.86157">
        <ele>2105</ele>
        <time>2026-08-04T07:02:24.278Z</time>
      </trkpt>
      <trkpt lat="45.95357" lon="6.86156">
        <ele>2105</ele>
        <time>2026-08-04T07:02:25.278Z</time>
      </trkpt>
      <trkpt lat="45.95357" lon="6.86156">
        <ele>2106</ele>
        <time>2026-08-04T07:02:26.278Z</time>
      </trkpt>
      <trkpt lat="45.95357" lon="6.86156">
        <ele>2107</ele>
        <time>2026-08-04T07:02:27.278Z</time>
      </trkpt>
      <trkpt lat="45.95357" lon="6.86156">
        <ele>2107</ele>
        <time>2026-08-04T07:02:28.278Z</time>
      </trkpt>
      <trkpt lat="45.95357" lon="6.86156">
        <ele>2108</ele>
        <time>2026-08-04T07:02:29.278Z</time>
      </trkpt>
      <trkpt lat="45.95357" lon="6.86155">
        <ele>2108</ele>
        <time>2026-08-04T07:02:30.278Z</time>
      </trkpt>
      <trkpt lat="45.95357" lon="6.86155">
        <ele>2108</ele>
        <time>2026-08-04T07:02:31.278Z</time>
      </trkpt>
      <trkpt lat="45.95356" lon="6.86154">
        <ele>2109</ele>
        <time>2026-08-04T07:02:32.278Z</time>
      </trkpt>
      <trkpt lat="45.95356" lon="6.86153">
        <ele>2109</ele>
        <time>2026-08-04T07:02:33.278Z</time>
      </trkpt>
      <trkpt lat="45.95356" lon="6.86153">
        <ele>2109</ele>
        <time>2026-08-04T07:02:34.278Z</time>
      </trkpt>
      <trkpt lat="45.95355" lon="6.86152">
        <ele>2109</ele>
        <time>2026-08-04T07:02:35.278Z</time>
      </trkpt>
      <trkpt lat="45.95355" lon="6.86151">
        <ele>2109</ele>
        <time>2026-08-04T07:02:36.278Z</time>
      </trkpt>
      <trkpt lat="45.95355" lon="6.86149">
        <ele>2110</ele>
        <time>2026-08-04T07:02:37.278Z</time>
      </trkpt>
      <trkpt lat="45.95355" lon="6.86149">
        <ele>2110</ele>
        <time>2026-08-04T07:02:38.278Z</time>
      </trkpt>
      <trkpt lat="45.95356" lon="6.86148">
        <ele>2110</ele>
        <time>2026-08-04T07:02:39.278Z</time>
      </trkpt>
      <trkpt lat="45.95356" lon="6.86147">
        <ele>2110</ele>
        <time>2026-08-04T07:02:40.278Z</time>
      </trkpt>
      <trkpt lat="45.95357" lon="6.86147">
        <ele>2110</ele>
        <time>2026-08-04T07:02:41.278Z</time>
      </trkpt>
      <trkpt lat="45.95357" lon="6.86147">
        <ele>2110</ele>
        <time>2026-08-04T07:02:42.278Z</time>
      </trkpt>
      <trkpt lat="45.95357" lon="6.86146">
        <ele>2110</ele>
        <time>2026-08-04T07:02:43.278Z</time>
      </trkpt>
      <trkpt lat="45.95357" lon="6.86146">
        <ele>2110</ele>
        <time>2026-08-04T07:02:44.278Z</time>
      </trkpt>
      <trkpt lat="45.95357" lon="6.86146">
        <ele>2110</ele>
        <time>2026-08-04T07:02:45.278Z</time>
      </trkpt>
      <trkpt lat="45.95357" lon="6.86146">
        <ele>2111</ele>
        <time>2026-08-04T07:02:46.278Z</time>
      </trkpt>
      <trkpt lat="45.95357" lon="6.86146">
        <ele>2111</ele>
        <time>2026-08-04T07:02:47.278Z</time>
      </trkpt>
      <trkpt lat="45.95357" lon="6.86146">
        <ele>2111</ele>
        <time>2026-08-04T07:02:48.278Z</time>
      </trkpt>
      <trkpt lat="45.95357" lon="6.86146">
        <ele>2112</ele>
        <time>2026-08-04T07:02:49.278Z</time>
      </trkpt>
      <trkpt lat="45.95357" lon="6.86146">
        <ele>2112</ele>
        <time>2026-08-04T07:02:50.278Z</time>
      </trkpt>
      <trkpt lat="45.95357" lon="6.86146">
        <ele>2113</ele>
        <time>2026-08-04T07:02:51.278Z</time>
      </trkpt>
      <trkpt lat="45.95357" lon="6.86146">
        <ele>2113</ele>
        <time>2026-08-04T07:02:52.278Z</time>
      </trkpt>
      <trkpt lat="45.95357" lon="6.86146">
        <ele>2114</ele>
        <time>2026-08-04T07:02:53.278Z</time>
      </trkpt>
      <trkpt lat="45.95357" lon="6.86146">
        <ele>2114</ele>
        <time>2026-08-04T07:02:54.278Z</time>
      </trkpt>
      <trkpt lat="45.95357" lon="6.86146">
        <ele>2114</ele>
        <time>2026-08-04T07:02:55.278Z</time>
      </trkpt>
      <trkpt lat="45.95357" lon="6.86146">
        <ele>2114</ele>
        <time>2026-08-04T07:02:56.278Z</time>
      </trkpt>
      <trkpt lat="45.95357" lon="6.86146">
        <ele>2115</ele>
        <time>2026-08-04T07:02:57.278Z</time>
      </trkpt>
      <trkpt lat="45.95357" lon="6.86146">
        <ele>2115</ele>
        <time>2026-08-04T07:02:58.278Z</time>
      </trkpt>
      <trkpt lat="45.95357" lon="6.86146">
        <ele>2115</ele>
        <time>2026-08-04T07:02:59.278Z</time>
      </trkpt>
      <trkpt lat="45.95357" lon="6.86146">
        <ele>2115</ele>
        <time>2026-08-04T07:03:00.278Z</time>
      </trkpt>
      <trkpt lat="45.95357" lon="6.86146">
        <ele>2115</ele>
        <time>2026-08-04T07:03:01.278Z</time>
      </trkpt>
      <trkpt lat="45.95357" lon="6.86146">
        <ele>2115</ele>
        <time>2026-08-04T07:03:02.278Z</time>
      </trkpt>
      <trkpt lat="45.95357" lon="6.86146">
        <ele>2115</ele>
        <time>2026-08-04T07:03:03.278Z</time>
      </trkpt>
      <trkpt lat="45.95357" lon="6.86146">
        <ele>2115</ele>
        <time>2026-08-04T07:03:04.278Z</time>
      </trkpt>
      <trkpt lat="45.95357" lon="6.86146">
        <ele>2115</ele>
        <time>2026-08-04T07:03:05.278Z</time>
      </trkpt>
      <trkpt lat="45.95357" lon="6.86146">
        <ele>2115</ele>
        <time>2026-08-04T07:03:06.278Z</time>
      </trkpt>
      <trkpt lat="45.95357" lon="6.86146">
        <ele>2115</ele>
        <time>2026-08-04T07:03:07.278Z</time>
      </trkpt>
      <trkpt lat="45.95357" lon="6.86146">
        <ele>2115</ele>
        <time>2026-08-04T07:03:08.278Z</time>
      </trkpt>
      <trkpt lat="45.95357" lon="6.86146">
        <ele>2115</ele>
        <time>2026-08-04T07:03:09.278Z</time>
      </trkpt>
      <trkpt lat="45.95357" lon="6.86146">
        <ele>2115</ele>
        <time>2026-08-04T07:03:10.278Z</time>
      </trkpt>
      <trkpt lat="45.95357" lon="6.86146">
        <ele>2115</ele>
        <time>2026-08-04T07:03:11.278Z</time>
      </trkpt>
      <trkpt lat="45.95357" lon="6.86146">
        <ele>2115</ele>
        <time>2026-08-04T07:03:12.278Z</time>
      </trkpt>
      <trkpt lat="45.95357" lon="6.86146">
        <ele>2115</ele>
        <time>2026-08-04T07:03:13.278Z</time>
      </trkpt>
      <trkpt lat="45.95357" lon="6.86146">
        <ele>2115</ele>
        <time>2026-08-04T07:03:14.278Z</time>
      </trkpt>
      <trkpt lat="45.95357" lon="6.86146">
        <ele>2115</ele>
        <time>2026-08-04T07:03:15.278Z</time>
      </trkpt>
      <trkpt lat="45.95357" lon="6.86146">
        <ele>2115</ele>
        <time>2026-08-04T07:03:16.278Z</time>
      </trkpt>
      <trkpt lat="45.95357" lon="6.86146">
        <ele>2115</ele>
        <time>2026-08-04T07:03:17.278Z</time>
      </trkpt>
      <trkpt lat="45.95357" lon="6.86146">
        <ele>2115</ele>
        <time>2026-08-04T07:03:18.278Z</time>
      </trkpt>
      <trkpt lat="45.95357" lon="6.86146">
        <ele>2115</ele>
        <time>2026-08-04T07:03:19.278Z</time>
      </trkpt>
      <trkpt lat="45.95357" lon="6.86146">
        <ele>2115</ele>
        <time>2026-08-04T07:03:20.278Z</time>
      </trkpt>
      <trkpt lat="45.95357" lon="6.86146">
        <ele>2115</ele>
        <time>2026-08-04T07:03:21.278Z</time>
      </trkpt>
      <trkpt lat="45.95357" lon="6.86146">
        <ele>2115</ele>
        <time>2026-08-04T07:03:22.278Z</time>
      </trkpt>
      <trkpt lat="45.95357" lon="6.86146">
        <ele>2115</ele>
        <time>2026-08-04T07:03:23.278Z</time>
      </trkpt>
      <trkpt lat="45.95357" lon="6.86146">
        <ele>2115</ele>
        <time>2026-08-04T07:03:24.278Z</time>
      </trkpt>
      <trkpt lat="45.95357" lon="6.86146">
        <ele>2115</ele>
        <time>2026-08-04T07:03:25.278Z</time>
      </trkpt>
      <trkpt lat="45.95357" lon="6.86146">
        <ele>2115</ele>
        <time>2026-08-04T07:03:26.278Z</time>
      </trkpt>
      <trkpt lat="45.95357" lon="6.86146">
        <ele>2115</ele>
        <time>2026-08-04T07:03:27.278Z</time>
      </trkpt>
      <trkpt lat="45.95357" lon="6.86146">
        <ele>2115</ele>
        <time>2026-08-04T07:03:28.278Z</time>
      </trkpt>
      <trkpt lat="45.95357" lon="6.86145">
        <ele>2115</ele>
        <time>2026-08-04T07:03:29.278Z</time>
      </trkpt>
      <trkpt lat="45.95357" lon="6.86145">
        <ele>2115</ele>
        <time>2026-08-04T07:03:30.278Z</time>
      </trkpt>
      <trkpt lat="45.95358" lon="6.86144">
        <ele>2115</ele>
        <time>2026-08-04T07:03:31.278Z</time>
      </trkpt>
      <trkpt lat="45.95358" lon="6.86144">
        <ele>2115</ele>
        <time>2026-08-04T07:03:32.278Z</time>
      </trkpt>
      <trkpt lat="45.95358" lon="6.86143">
        <ele>2114</ele>
        <time>2026-08-04T07:03:33.278Z</time>
      </trkpt>
      <trkpt lat="45.95359" lon="6.86142">
        <ele>2114</ele>
        <time>2026-08-04T07:03:34.278Z</time>
      </trkpt>
      <trkpt lat="45.95359" lon="6.86141">
        <ele>2114</ele>
        <time>2026-08-04T07:03:35.278Z</time>
      </trkpt>
      <trkpt lat="45.95359" lon="6.8614">
        <ele>2114</ele>
        <time>2026-08-04T07:03:36.278Z</time>
      </trkpt>
      <trkpt lat="45.9536" lon="6.86139">
        <ele>2114</ele>
        <time>2026-08-04T07:03:37.278Z</time>
      </trkpt>
      <trkpt lat="45.95361" lon="6.86139">
        <ele>2114</ele>
        <time>2026-08-04T07:03:38.278Z</time>
      </trkpt>
      <trkpt lat="45.95361" lon="6.86139">
        <ele>2113</ele>
        <time>2026-08-04T07:03:39.278Z</time>
      </trkpt>
      <trkpt lat="45.95362" lon="6.86139">
        <ele>2113</ele>
        <time>2026-08-04T07:03:40.278Z</time>
      </trkpt>
      <trkpt lat="45.95362" lon="6.86139">
        <ele>2113</ele>
        <time>2026-08-04T07:03:41.278Z</time>
      </trkpt>
      <trkpt lat="45.95361" lon="6.86138">
        <ele>2114</ele>
        <time>2026-08-04T07:03:42.278Z</time>
      </trkpt>
      <trkpt lat="45.95361" lon="6.86138">
        <ele>2114</ele>
        <time>2026-08-04T07:03:43.278Z</time>
      </trkpt>
      <trkpt lat="45.9536" lon="6.86138">
        <ele>2115</ele>
        <time>2026-08-04T07:03:44.278Z</time>
      </trkpt>
      <trkpt lat="45.9536" lon="6.86137">
        <ele>2115</ele>
        <time>2026-08-04T07:03:45.278Z</time>
      </trkpt>
      <trkpt lat="45.95359" lon="6.86136">
        <ele>2115</ele>
        <time>2026-08-04T07:03:46.278Z</time>
      </trkpt>
      <trkpt lat="45.95359" lon="6.86136">
        <ele>2116</ele>
        <time>2026-08-04T07:03:47.278Z</time>
      </trkpt>
      <trkpt lat="45.95359" lon="6.86134">
        <ele>2116</ele>
        <time>2026-08-04T07:03:48.278Z</time>
      </trkpt>
      <trkpt lat="45.95359" lon="6.86133">
        <ele>2117</ele>
        <time>2026-08-04T07:03:49.278Z</time>
      </trkpt>
      <trkpt lat="45.95359" lon="6.86132">
        <ele>2117</ele>
        <time>2026-08-04T07:03:50.278Z</time>
      </trkpt>
      <trkpt lat="45.95359" lon="6.86132">
        <ele>2117</ele>
        <time>2026-08-04T07:03:51.278Z</time>
      </trkpt>
      <trkpt lat="45.9536" lon="6.86132">
        <ele>2118</ele>
        <time>2026-08-04T07:03:52.278Z</time>
      </trkpt>
      <trkpt lat="45.9536" lon="6.86132">
        <ele>2118</ele>
        <time>2026-08-04T07:03:53.278Z</time>
      </trkpt>
      <trkpt lat="45.95361" lon="6.86132">
        <ele>2118</ele>
        <time>2026-08-04T07:03:54.278Z</time>
      </trkpt>
      <trkpt lat="45.95361" lon="6.86132">
        <ele>2118</ele>
        <time>2026-08-04T07:03:55.278Z</time>
      </trkpt>
      <trkpt lat="45.95362" lon="6.86132">
        <ele>2118</ele>
        <time>2026-08-04T07:03:56.278Z</time>
      </trkpt>
      <trkpt lat="45.95362" lon="6.86131">
        <ele>2118</ele>
        <time>2026-08-04T07:03:57.278Z</time>
      </trkpt>
      <trkpt lat="45.95362" lon="6.8613">
        <ele>2118</ele>
        <time>2026-08-04T07:03:58.278Z</time>
      </trkpt>
      <trkpt lat="45.95362" lon="6.86129">
        <ele>2118</ele>
        <time>2026-08-04T07:03:59.278Z</time>
      </trkpt>
      <trkpt lat="45.95362" lon="6.86128">
        <ele>2118</ele>
        <time>2026-08-04T07:04:00.278Z</time>
      </trkpt>
      <trkpt lat="45.95363" lon="6.86128">
        <ele>2118</ele>
        <time>2026-08-04T07:04:01.279Z</time>
      </trkpt>
      <trkpt lat="45.95363" lon="6.86127">
        <ele>2119</ele>
        <time>2026-08-04T07:04:02.278Z</time>
      </trkpt>
      <trkpt lat="45.95364" lon="6.86127">
        <ele>2119</ele>
        <time>2026-08-04T07:04:03.278Z</time>
      </trkpt>
      <trkpt lat="45.95365" lon="6.86126">
        <ele>2119</ele>
        <time>2026-08-04T07:04:04.278Z</time>
      </trkpt>
      <trkpt lat="45.95365" lon="6.86125">
        <ele>2120</ele>
        <time>2026-08-04T07:04:05.278Z</time>
      </trkpt>
      <trkpt lat="45.95365" lon="6.86124">
        <ele>2120</ele>
        <time>2026-08-04T07:04:06.278Z</time>
      </trkpt>
      <trkpt lat="45.95366" lon="6.86123">
        <ele>2120</ele>
        <time>2026-08-04T07:04:07.278Z</time>
      </trkpt>
      <trkpt lat="45.95366" lon="6.86122">
        <ele>2120</ele>
        <time>2026-08-04T07:04:08.278Z</time>
      </trkpt>
      <trkpt lat="45.95366" lon="6.86121">
        <ele>2120</ele>
        <time>2026-08-04T07:04:09.278Z</time>
      </trkpt>
      <trkpt lat="45.95366" lon="6.86121">
        <ele>2121</ele>
        <time>2026-08-04T07:04:10.278Z</time>
      </trkpt>
      <trkpt lat="45.95366" lon="6.8612">
        <ele>2121</ele>
        <time>2026-08-04T07:04:11.278Z</time>
      </trkpt>
      <trkpt lat="45.95366" lon="6.86119">
        <ele>2121</ele>
        <time>2026-08-04T07:04:12.278Z</time>
      </trkpt>
      <trkpt lat="45.95366" lon="6.86118">
        <ele>2121</ele>
        <time>2026-08-04T07:04:13.278Z</time>
      </trkpt>
      <trkpt lat="45.95366" lon="6.86117">
        <ele>2121</ele>
        <time>2026-08-04T07:04:14.278Z</time>
      </trkpt>
      <trkpt lat="45.95366" lon="6.86116">
        <ele>2121</ele>
        <time>2026-08-04T07:04:15.278Z</time>
      </trkpt>
      <trkpt lat="45.95366" lon="6.86116">
        <ele>2122</ele>
        <time>2026-08-04T07:04:16.278Z</time>
      </trkpt>
      <trkpt lat="45.95366" lon="6.86115">
        <ele>2122</ele>
        <time>2026-08-04T07:04:17.278Z</time>
      </trkpt>
      <trkpt lat="45.95366" lon="6.86115">
        <ele>2122</ele>
        <time>2026-08-04T07:04:18.278Z</time>
      </trkpt>
      <trkpt lat="45.95366" lon="6.86114">
        <ele>2123</ele>
        <time>2026-08-04T07:04:19.278Z</time>
      </trkpt>
      <trkpt lat="45.95367" lon="6.86113">
        <ele>2123</ele>
        <time>2026-08-04T07:04:20.278Z</time>
      </trkpt>
      <trkpt lat="45.95367" lon="6.86112">
        <ele>2124</ele>
        <time>2026-08-04T07:04:21.278Z</time>
      </trkpt>
      <trkpt lat="45.95367" lon="6.86111">
        <ele>2124</ele>
        <time>2026-08-04T07:04:22.278Z</time>
      </trkpt>
      <trkpt lat="45.95368" lon="6.86111">
        <ele>2124</ele>
        <time>2026-08-04T07:04:23.278Z</time>
      </trkpt>
      <trkpt lat="45.95368" lon="6.8611">
        <ele>2124</ele>
        <time>2026-08-04T07:04:24.278Z</time>
      </trkpt>
      <trkpt lat="45.95368" lon="6.86109">
        <ele>2125</ele>
        <time>2026-08-04T07:04:25.278Z</time>
      </trkpt>
      <trkpt lat="45.95367" lon="6.86108">
        <ele>2125</ele>
        <time>2026-08-04T07:04:26.278Z</time>
      </trkpt>
      <trkpt lat="45.95367" lon="6.86107">
        <ele>2125</ele>
        <time>2026-08-04T07:04:27.278Z</time>
      </trkpt>
      <trkpt lat="45.95367" lon="6.86107">
        <ele>2126</ele>
        <time>2026-08-04T07:04:28.278Z</time>
      </trkpt>
      <trkpt lat="45.95367" lon="6.86106">
        <ele>2126</ele>
        <time>2026-08-04T07:04:29.278Z</time>
      </trkpt>
      <trkpt lat="45.95367" lon="6.86106">
        <ele>2126</ele>
        <time>2026-08-04T07:04:30.278Z</time>
      </trkpt>
      <trkpt lat="45.95367" lon="6.86105">
        <ele>2126</ele>
        <time>2026-08-04T07:04:31.278Z</time>
      </trkpt>
      <trkpt lat="45.95368" lon="6.86105">
        <ele>2126</ele>
        <time>2026-08-04T07:04:32.278Z</time>
      </trkpt>
      <trkpt lat="45.95368" lon="6.86104">
        <ele>2126</ele>
        <time>2026-08-04T07:04:33.278Z</time>
      </trkpt>
      <trkpt lat="45.95369" lon="6.86104">
        <ele>2126</ele>
        <time>2026-08-04T07:04:34.278Z</time>
      </trkpt>
      <trkpt lat="45.95369" lon="6.86103">
        <ele>2127</ele>
        <time>2026-08-04T07:04:35.278Z</time>
      </trkpt>
      <trkpt lat="45.95369" lon="6.86102">
        <ele>2127</ele>
        <time>2026-08-04T07:04:36.278Z</time>
      </trkpt>
      <trkpt lat="45.9537" lon="6.86102">
        <ele>2127</ele>
        <time>2026-08-04T07:04:37.278Z</time>
      </trkpt>
      <trkpt lat="45.9537" lon="6.86101">
        <ele>2127</ele>
        <time>2026-08-04T07:04:38.278Z</time>
      </trkpt>
      <trkpt lat="45.95369" lon="6.861">
        <ele>2128</ele>
        <time>2026-08-04T07:04:39.278Z</time>
      </trkpt>
      <trkpt lat="45.95369" lon="6.861">
        <ele>2128</ele>
        <time>2026-08-04T07:04:40.278Z</time>
      </trkpt>
      <trkpt lat="45.95369" lon="6.86099">
        <ele>2128</ele>
        <time>2026-08-04T07:04:41.278Z</time>
      </trkpt>
      <trkpt lat="45.95368" lon="6.86098">
        <ele>2128</ele>
        <time>2026-08-04T07:04:42.278Z</time>
      </trkpt>
      <trkpt lat="45.95368" lon="6.86097">
        <ele>2129</ele>
        <time>2026-08-04T07:04:43.278Z</time>
      </trkpt>
      <trkpt lat="45.95368" lon="6.86096">
        <ele>2129</ele>
        <time>2026-08-04T07:04:44.278Z</time>
      </trkpt>
      <trkpt lat="45.95368" lon="6.86096">
        <ele>2129</ele>
        <time>2026-08-04T07:04:45.278Z</time>
      </trkpt>
      <trkpt lat="45.95367" lon="6.86095">
        <ele>2129</ele>
        <time>2026-08-04T07:04:46.278Z</time>
      </trkpt>
      <trkpt lat="45.95367" lon="6.86094">
        <ele>2129</ele>
        <time>2026-08-04T07:04:47.278Z</time>
      </trkpt>
      <trkpt lat="45.95367" lon="6.86093">
        <ele>2129</ele>
        <time>2026-08-04T07:04:48.278Z</time>
      </trkpt>
      <trkpt lat="45.95367" lon="6.86092">
        <ele>2129</ele>
        <time>2026-08-04T07:04:49.278Z</time>
      </trkpt>
      <trkpt lat="45.95367" lon="6.86092">
        <ele>2129</ele>
        <time>2026-08-04T07:04:50.278Z</time>
      </trkpt>
      <trkpt lat="45.95366" lon="6.86091">
        <ele>2129</ele>
        <time>2026-08-04T07:04:51.278Z</time>
      </trkpt>
      <trkpt lat="45.95366" lon="6.8609">
        <ele>2128</ele>
        <time>2026-08-04T07:04:52.278Z</time>
      </trkpt>
      <trkpt lat="45.95365" lon="6.86089">
        <ele>2128</ele>
        <time>2026-08-04T07:04:53.278Z</time>
      </trkpt>
      <trkpt lat="45.95366" lon="6.86088">
        <ele>2128</ele>
        <time>2026-08-04T07:04:54.278Z</time>
      </trkpt>
      <trkpt lat="45.95366" lon="6.86087">
        <ele>2128</ele>
        <time>2026-08-04T07:04:55.278Z</time>
      </trkpt>
      <trkpt lat="45.95367" lon="6.86087">
        <ele>2129</ele>
        <time>2026-08-04T07:04:56.278Z</time>
      </trkpt>
      <trkpt lat="45.95367" lon="6.86087">
        <ele>2129</ele>
        <time>2026-08-04T07:04:57.278Z</time>
      </trkpt>
      <trkpt lat="45.95368" lon="6.86087">
        <ele>2130</ele>
        <time>2026-08-04T07:04:58.278Z</time>
      </trkpt>
      <trkpt lat="45.95368" lon="6.86087">
        <ele>2130</ele>
        <time>2026-08-04T07:04:59.278Z</time>
      </trkpt>
      <trkpt lat="45.95369" lon="6.86087">
        <ele>2131</ele>
        <time>2026-08-04T07:05:00.278Z</time>
      </trkpt>
      <trkpt lat="45.95369" lon="6.86086">
        <ele>2131</ele>
        <time>2026-08-04T07:05:01.278Z</time>
      </trkpt>
      <trkpt lat="45.95369" lon="6.86085">
        <ele>2132</ele>
        <time>2026-08-04T07:05:02.278Z</time>
      </trkpt>
      <trkpt lat="45.95369" lon="6.86084">
        <ele>2132</ele>
        <time>2026-08-04T07:05:03.278Z</time>
      </trkpt>
      <trkpt lat="45.95369" lon="6.86084">
        <ele>2132</ele>
        <time>2026-08-04T07:05:04.278Z</time>
      </trkpt>
      <trkpt lat="45.9537" lon="6.86083">
        <ele>2133</ele>
        <time>2026-08-04T07:05:05.278Z</time>
      </trkpt>
      <trkpt lat="45.9537" lon="6.86083">
        <ele>2133</ele>
        <time>2026-08-04T07:05:06.278Z</time>
      </trkpt>
      <trkpt lat="45.95371" lon="6.86082">
        <ele>2134</ele>
        <time>2026-08-04T07:05:07.278Z</time>
      </trkpt>
      <trkpt lat="45.95371" lon="6.86082">
        <ele>2134</ele>
        <time>2026-08-04T07:05:08.278Z</time>
      </trkpt>
      <trkpt lat="45.95372" lon="6.86081">
        <ele>2134</ele>
        <time>2026-08-04T07:05:09.278Z</time>
      </trkpt>
      <trkpt lat="45.95372" lon="6.86081">
        <ele>2135</ele>
        <time>2026-08-04T07:05:10.278Z</time>
      </trkpt>
      <trkpt lat="45.95373" lon="6.8608">
        <ele>2135</ele>
        <time>2026-08-04T07:05:11.278Z</time>
      </trkpt>
      <trkpt lat="45.95374" lon="6.8608">
        <ele>2136</ele>
        <time>2026-08-04T07:05:12.278Z</time>
      </trkpt>
      <trkpt lat="45.95375" lon="6.86079">
        <ele>2136</ele>
        <time>2026-08-04T07:05:13.278Z</time>
      </trkpt>
      <trkpt lat="45.95375" lon="6.86078">
        <ele>2136</ele>
        <time>2026-08-04T07:05:14.278Z</time>
      </trkpt>
      <trkpt lat="45.95375" lon="6.86078">
        <ele>2136</ele>
        <time>2026-08-04T07:05:15.278Z</time>
      </trkpt>
      <trkpt lat="45.95375" lon="6.86077">
        <ele>2137</ele>
        <time>2026-08-04T07:05:16.278Z</time>
      </trkpt>
      <trkpt lat="45.95376" lon="6.86076">
        <ele>2137</ele>
        <time>2026-08-04T07:05:17.278Z</time>
      </trkpt>
      <trkpt lat="45.95376" lon="6.86075">
        <ele>2137</ele>
        <time>2026-08-04T07:05:18.278Z</time>
      </trkpt>
      <trkpt lat="45.95377" lon="6.86074">
        <ele>2138</ele>
        <time>2026-08-04T07:05:19.278Z</time>
      </trkpt>
      <trkpt lat="45.95377" lon="6.86074">
        <ele>2138</ele>
        <time>2026-08-04T07:05:20.278Z</time>
      </trkpt>
      <trkpt lat="45.95378" lon="6.86073">
        <ele>2138</ele>
        <time>2026-08-04T07:05:21.278Z</time>
      </trkpt>
      <trkpt lat="45.95378" lon="6.86073">
        <ele>2138</ele>
        <time>2026-08-04T07:05:22.278Z</time>
      </trkpt>
      <trkpt lat="45.95379" lon="6.86073">
        <ele>2138</ele>
        <time>2026-08-04T07:05:23.278Z</time>
      </trkpt>
      <trkpt lat="45.95379" lon="6.86072">
        <ele>2138</ele>
        <time>2026-08-04T07:05:24.278Z</time>
      </trkpt>
      <trkpt lat="45.95378" lon="6.86072">
        <ele>2139</ele>
        <time>2026-08-04T07:05:25.278Z</time>
      </trkpt>
      <trkpt lat="45.95378" lon="6.86072">
        <ele>2139</ele>
        <time>2026-08-04T07:05:26.278Z</time>
      </trkpt>
      <trkpt lat="45.95378" lon="6.86072">
        <ele>2139</ele>
        <time>2026-08-04T07:05:27.278Z</time>
      </trkpt>
      <trkpt lat="45.95377" lon="6.86071">
        <ele>2139</ele>
        <time>2026-08-04T07:05:28.278Z</time>
      </trkpt>
      <trkpt lat="45.95377" lon="6.8607">
        <ele>2140</ele>
        <time>2026-08-04T07:05:29.278Z</time>
      </trkpt>
      <trkpt lat="45.95377" lon="6.86069">
        <ele>2140</ele>
        <time>2026-08-04T07:05:30.278Z</time>
      </trkpt>
      <trkpt lat="45.95378" lon="6.86068">
        <ele>2140</ele>
        <time>2026-08-04T07:05:31.278Z</time>
      </trkpt>
      <trkpt lat="45.95378" lon="6.86067">
        <ele>2140</ele>
        <time>2026-08-04T07:05:32.278Z</time>
      </trkpt>
      <trkpt lat="45.95378" lon="6.86066">
        <ele>2141</ele>
        <time>2026-08-04T07:05:33.278Z</time>
      </trkpt>
      <trkpt lat="45.95379" lon="6.86065">
        <ele>2141</ele>
        <time>2026-08-04T07:05:34.278Z</time>
      </trkpt>
      <trkpt lat="45.9538" lon="6.86065">
        <ele>2141</ele>
        <time>2026-08-04T07:05:35.278Z</time>
      </trkpt>
      <trkpt lat="45.9538" lon="6.86064">
        <ele>2141</ele>
        <time>2026-08-04T07:05:36.278Z</time>
      </trkpt>
      <trkpt lat="45.95381" lon="6.86064">
        <ele>2141</ele>
        <time>2026-08-04T07:05:37.278Z</time>
      </trkpt>
      <trkpt lat="45.95381" lon="6.86064">
        <ele>2141</ele>
        <time>2026-08-04T07:05:38.278Z</time>
      </trkpt>
      <trkpt lat="45.95382" lon="6.86063">
        <ele>2141</ele>
        <time>2026-08-04T07:05:39.278Z</time>
      </trkpt>
      <trkpt lat="45.95382" lon="6.86062">
        <ele>2142</ele>
        <time>2026-08-04T07:05:40.278Z</time>
      </trkpt>
      <trkpt lat="45.95383" lon="6.86061">
        <ele>2142</ele>
        <time>2026-08-04T07:05:41.278Z</time>
      </trkpt>
      <trkpt lat="45.95383" lon="6.8606">
        <ele>2142</ele>
        <time>2026-08-04T07:05:42.278Z</time>
      </trkpt>
      <trkpt lat="45.95383" lon="6.8606">
        <ele>2142</ele>
        <time>2026-08-04T07:05:43.278Z</time>
      </trkpt>
      <trkpt lat="45.95383" lon="6.86059">
        <ele>2142</ele>
        <time>2026-08-04T07:05:44.278Z</time>
      </trkpt>
      <trkpt lat="45.95383" lon="6.86059">
        <ele>2142</ele>
        <time>2026-08-04T07:05:45.278Z</time>
      </trkpt>
      <trkpt lat="45.95382" lon="6.86058">
        <ele>2142</ele>
        <time>2026-08-04T07:05:46.278Z</time>
      </trkpt>
      <trkpt lat="45.95381" lon="6.86058">
        <ele>2142</ele>
        <time>2026-08-04T07:05:47.278Z</time>
      </trkpt>
      <trkpt lat="45.95381" lon="6.86058">
        <ele>2143</ele>
        <time>2026-08-04T07:05:48.278Z</time>
      </trkpt>
      <trkpt lat="45.9538" lon="6.86058">
        <ele>2143</ele>
        <time>2026-08-04T07:05:49.278Z</time>
      </trkpt>
      <trkpt lat="45.9538" lon="6.86058">
        <ele>2143</ele>
        <time>2026-08-04T07:05:50.278Z</time>
      </trkpt>
      <trkpt lat="45.95379" lon="6.86058">
        <ele>2143</ele>
        <time>2026-08-04T07:05:51.278Z</time>
      </trkpt>
      <trkpt lat="45.95378" lon="6.86058">
        <ele>2144</ele>
        <time>2026-08-04T07:05:52.278Z</time>
      </trkpt>
      <trkpt lat="45.95377" lon="6.86058">
        <ele>2144</ele>
        <time>2026-08-04T07:05:53.278Z</time>
      </trkpt>
      <trkpt lat="45.95377" lon="6.86058">
        <ele>2144</ele>
        <time>2026-08-04T07:05:54.278Z</time>
      </trkpt>
      <trkpt lat="45.95376" lon="6.86057">
        <ele>2144</ele>
        <time>2026-08-04T07:05:55.278Z</time>
      </trkpt>
      <trkpt lat="45.95376" lon="6.86057">
        <ele>2144</ele>
        <time>2026-08-04T07:05:56.278Z</time>
      </trkpt>
      <trkpt lat="45.95375" lon="6.86056">
        <ele>2144</ele>
        <time>2026-08-04T07:05:57.278Z</time>
      </trkpt>
      <trkpt lat="45.95375" lon="6.86055">
        <ele>2144</ele>
        <time>2026-08-04T07:05:58.278Z</time>
      </trkpt>
      <trkpt lat="45.95374" lon="6.86054">
        <ele>2145</ele>
        <time>2026-08-04T07:05:59.278Z</time>
      </trkpt>
      <trkpt lat="45.95374" lon="6.86053">
        <ele>2145</ele>
        <time>2026-08-04T07:06:00.278Z</time>
      </trkpt>
      <trkpt lat="45.95374" lon="6.86052">
        <ele>2145</ele>
        <time>2026-08-04T07:06:01.278Z</time>
      </trkpt>
      <trkpt lat="45.95374" lon="6.86051">
        <ele>2145</ele>
        <time>2026-08-04T07:06:02.278Z</time>
      </trkpt>
      <trkpt lat="45.95374" lon="6.8605">
        <ele>2145</ele>
        <time>2026-08-04T07:06:03.278Z</time>
      </trkpt>
      <trkpt lat="45.95373" lon="6.86049">
        <ele>2145</ele>
        <time>2026-08-04T07:06:04.278Z</time>
      </trkpt>
      <trkpt lat="45.95373" lon="6.86049">
        <ele>2146</ele>
        <time>2026-08-04T07:06:05.278Z</time>
      </trkpt>
      <trkpt lat="45.95372" lon="6.86048">
        <ele>2146</ele>
        <time>2026-08-04T07:06:06.278Z</time>
      </trkpt>
      <trkpt lat="45.95372" lon="6.86047">
        <ele>2146</ele>
        <time>2026-08-04T07:06:07.278Z</time>
      </trkpt>
      <trkpt lat="45.95371" lon="6.86046">
        <ele>2147</ele>
        <time>2026-08-04T07:06:08.278Z</time>
      </trkpt>
      <trkpt lat="45.95371" lon="6.86046">
        <ele>2147</ele>
        <time>2026-08-04T07:06:09.278Z</time>
      </trkpt>
      <trkpt lat="45.95371" lon="6.86045">
        <ele>2147</ele>
        <time>2026-08-04T07:06:10.278Z</time>
      </trkpt>
      <trkpt lat="45.9537" lon="6.86044">
        <ele>2147</ele>
        <time>2026-08-04T07:06:11.278Z</time>
      </trkpt>
      <trkpt lat="45.9537" lon="6.86044">
        <ele>2148</ele>
        <time>2026-08-04T07:06:12.278Z</time>
      </trkpt>
      <trkpt lat="45.9537" lon="6.86043">
        <ele>2148</ele>
        <time>2026-08-04T07:06:13.278Z</time>
      </trkpt>
      <trkpt lat="45.9537" lon="6.86042">
        <ele>2148</ele>
        <time>2026-08-04T07:06:14.278Z</time>
      </trkpt>
      <trkpt lat="45.9537" lon="6.86041">
        <ele>2148</ele>
        <time>2026-08-04T07:06:15.278Z</time>
      </trkpt>
      <trkpt lat="45.9537" lon="6.8604">
        <ele>2148</ele>
        <time>2026-08-04T07:06:16.278Z</time>
      </trkpt>
      <trkpt lat="45.9537" lon="6.8604">
        <ele>2148</ele>
        <time>2026-08-04T07:06:17.278Z</time>
      </trkpt>
      <trkpt lat="45.9537" lon="6.86039">
        <ele>2149</ele>
        <time>2026-08-04T07:06:18.278Z</time>
      </trkpt>
      <trkpt lat="45.9537" lon="6.86038">
        <ele>2149</ele>
        <time>2026-08-04T07:06:19.278Z</time>
      </trkpt>
      <trkpt lat="45.9537" lon="6.86038">
        <ele>2149</ele>
        <time>2026-08-04T07:06:20.278Z</time>
      </trkpt>
      <trkpt lat="45.95369" lon="6.86038">
        <ele>2149</ele>
        <time>2026-08-04T07:06:21.278Z</time>
      </trkpt>
      <trkpt lat="45.95369" lon="6.86037">
        <ele>2149</ele>
        <time>2026-08-04T07:06:22.278Z</time>
      </trkpt>
      <trkpt lat="45.95369" lon="6.86036">
        <ele>2149</ele>
        <time>2026-08-04T07:06:23.278Z</time>
      </trkpt>
      <trkpt lat="45.95369" lon="6.86035">
        <ele>2149</ele>
        <time>2026-08-04T07:06:24.278Z</time>
      </trkpt>
      <trkpt lat="45.95369" lon="6.86034">
        <ele>2150</ele>
        <time>2026-08-04T07:06:25.278Z</time>
      </trkpt>
      <trkpt lat="45.95369" lon="6.86033">
        <ele>2150</ele>
        <time>2026-08-04T07:06:26.278Z</time>
      </trkpt>
      <trkpt lat="45.95369" lon="6.86032">
        <ele>2150</ele>
        <time>2026-08-04T07:06:27.278Z</time>
      </trkpt>
      <trkpt lat="45.95369" lon="6.86031">
        <ele>2151</ele>
        <time>2026-08-04T07:06:28.278Z</time>
      </trkpt>
      <trkpt lat="45.95369" lon="6.86031">
        <ele>2151</ele>
        <time>2026-08-04T07:06:29.278Z</time>
      </trkpt>
      <trkpt lat="45.95369" lon="6.8603">
        <ele>2151</ele>
        <time>2026-08-04T07:06:30.278Z</time>
      </trkpt>
      <trkpt lat="45.95368" lon="6.86029">
        <ele>2152</ele>
        <time>2026-08-04T07:06:31.278Z</time>
      </trkpt>
      <trkpt lat="45.95368" lon="6.86028">
        <ele>2152</ele>
        <time>2026-08-04T07:06:32.278Z</time>
      </trkpt>
      <trkpt lat="45.95368" lon="6.86027">
        <ele>2152</ele>
        <time>2026-08-04T07:06:33.278Z</time>
      </trkpt>
      <trkpt lat="45.95368" lon="6.86026">
        <ele>2152</ele>
        <time>2026-08-04T07:06:34.278Z</time>
      </trkpt>
      <trkpt lat="45.95367" lon="6.86026">
        <ele>2153</ele>
        <time>2026-08-04T07:06:35.278Z</time>
      </trkpt>
      <trkpt lat="45.95367" lon="6.86025">
        <ele>2153</ele>
        <time>2026-08-04T07:06:36.278Z</time>
      </trkpt>
      <trkpt lat="45.95367" lon="6.86024">
        <ele>2153</ele>
        <time>2026-08-04T07:06:37.278Z</time>
      </trkpt>
      <trkpt lat="45.95367" lon="6.86023">
        <ele>2153</ele>
        <time>2026-08-04T07:06:38.278Z</time>
      </trkpt>
      <trkpt lat="45.95367" lon="6.86022">
        <ele>2154</ele>
        <time>2026-08-04T07:06:39.278Z</time>
      </trkpt>
      <trkpt lat="45.95367" lon="6.8602">
        <ele>2154</ele>
        <time>2026-08-04T07:06:40.278Z</time>
      </trkpt>
      <trkpt lat="45.95367" lon="6.86019">
        <ele>2154</ele>
        <time>2026-08-04T07:06:41.278Z</time>
      </trkpt>
      <trkpt lat="45.95367" lon="6.86018">
        <ele>2154</ele>
        <time>2026-08-04T07:06:42.278Z</time>
      </trkpt>
      <trkpt lat="45.95367" lon="6.86017">
        <ele>2155</ele>
        <time>2026-08-04T07:06:43.278Z</time>
      </trkpt>
      <trkpt lat="45.95367" lon="6.86016">
        <ele>2155</ele>
        <time>2026-08-04T07:06:44.278Z</time>
      </trkpt>
      <trkpt lat="45.95367" lon="6.86015">
        <ele>2155</ele>
        <time>2026-08-04T07:06:45.278Z</time>
      </trkpt>
      <trkpt lat="45.95367" lon="6.86014">
        <ele>2155</ele>
        <time>2026-08-04T07:06:46.278Z</time>
      </trkpt>
      <trkpt lat="45.95367" lon="6.86013">
        <ele>2155</ele>
        <time>2026-08-04T07:06:47.278Z</time>
      </trkpt>
      <trkpt lat="45.95366" lon="6.86012">
        <ele>2156</ele>
        <time>2026-08-04T07:06:48.278Z</time>
      </trkpt>
      <trkpt lat="45.95366" lon="6.86012">
        <ele>2156</ele>
        <time>2026-08-04T07:06:49.278Z</time>
      </trkpt>
      <trkpt lat="45.95366" lon="6.86011">
        <ele>2156</ele>
        <time>2026-08-04T07:06:50.278Z</time>
      </trkpt>
      <trkpt lat="45.95365" lon="6.8601">
        <ele>2156</ele>
        <time>2026-08-04T07:06:51.278Z</time>
      </trkpt>
      <trkpt lat="45.95365" lon="6.86009">
        <ele>2156</ele>
        <time>2026-08-04T07:06:52.278Z</time>
      </trkpt>
      <trkpt lat="45.95364" lon="6.86009">
        <ele>2156</ele>
        <time>2026-08-04T07:06:53.278Z</time>
      </trkpt>
      <trkpt lat="45.95364" lon="6.86008">
        <ele>2156</ele>
        <time>2026-08-04T07:06:54.278Z</time>
      </trkpt>
      <trkpt lat="45.95364" lon="6.86008">
        <ele>2156</ele>
        <time>2026-08-04T07:06:55.278Z</time>
      </trkpt>
      <trkpt lat="45.95363" lon="6.86007">
        <ele>2156</ele>
        <time>2026-08-04T07:06:56.278Z</time>
      </trkpt>
      <trkpt lat="45.95363" lon="6.86006">
        <ele>2157</ele>
        <time>2026-08-04T07:06:57.278Z</time>
      </trkpt>
      <trkpt lat="45.95363" lon="6.86005">
        <ele>2157</ele>
        <time>2026-08-04T07:06:58.278Z</time>
      </trkpt>
      <trkpt lat="45.95363" lon="6.86004">
        <ele>2157</ele>
        <time>2026-08-04T07:06:59.278Z</time>
      </trkpt>
      <trkpt lat="45.95363" lon="6.86003">
        <ele>2158</ele>
        <time>2026-08-04T07:07:00.278Z</time>
      </trkpt>
      <trkpt lat="45.95363" lon="6.86002">
        <ele>2158</ele>
        <time>2026-08-04T07:07:01.278Z</time>
      </trkpt>
      <trkpt lat="45.95363" lon="6.86001">
        <ele>2158</ele>
        <time>2026-08-04T07:07:02.278Z</time>
      </trkpt>
      <trkpt lat="45.95363" lon="6.86">
        <ele>2158</ele>
        <time>2026-08-04T07:07:03.278Z</time>
      </trkpt>
      <trkpt lat="45.95362" lon="6.85999">
        <ele>2158</ele>
        <time>2026-08-04T07:07:04.278Z</time>
      </trkpt>
      <trkpt lat="45.95362" lon="6.85998">
        <ele>2159</ele>
        <time>2026-08-04T07:07:05.278Z</time>
      </trkpt>
      <trkpt lat="45.95362" lon="6.85998">
        <ele>2159</ele>
        <time>2026-08-04T07:07:06.278Z</time>
      </trkpt>
      <trkpt lat="45.95361" lon="6.85997">
        <ele>2159</ele>
        <time>2026-08-04T07:07:07.278Z</time>
      </trkpt>
      <trkpt lat="45.95361" lon="6.85996">
        <ele>2160</ele>
        <time>2026-08-04T07:07:08.278Z</time>
      </trkpt>
      <trkpt lat="45.9536" lon="6.85995">
        <ele>2161</ele>
        <time>2026-08-04T07:07:09.278Z</time>
      </trkpt>
      <trkpt lat="45.9536" lon="6.85994">
        <ele>2161</ele>
        <time>2026-08-04T07:07:10.278Z</time>
      </trkpt>
      <trkpt lat="45.95359" lon="6.85992">
        <ele>2162</ele>
        <time>2026-08-04T07:07:11.278Z</time>
      </trkpt>
      <trkpt lat="45.95359" lon="6.85991">
        <ele>2162</ele>
        <time>2026-08-04T07:07:12.278Z</time>
      </trkpt>
      <trkpt lat="45.95358" lon="6.8599">
        <ele>2162</ele>
        <time>2026-08-04T07:07:13.278Z</time>
      </trkpt>
      <trkpt lat="45.95357" lon="6.85988">
        <ele>2162</ele>
        <time>2026-08-04T07:07:14.278Z</time>
      </trkpt>
      <trkpt lat="45.95356" lon="6.85987">
        <ele>2162</ele>
        <time>2026-08-04T07:07:15.278Z</time>
      </trkpt>
      <trkpt lat="45.95356" lon="6.85986">
        <ele>2162</ele>
        <time>2026-08-04T07:07:16.278Z</time>
      </trkpt>
      <trkpt lat="45.95355" lon="6.85986">
        <ele>2162</ele>
        <time>2026-08-04T07:07:17.278Z</time>
      </trkpt>
      <trkpt lat="45.95354" lon="6.85985">
        <ele>2162</ele>
        <time>2026-08-04T07:07:18.278Z</time>
      </trkpt>
      <trkpt lat="45.95353" lon="6.85984">
        <ele>2162</ele>
        <time>2026-08-04T07:07:19.278Z</time>
      </trkpt>
      <trkpt lat="45.95353" lon="6.85983">
        <ele>2162</ele>
        <time>2026-08-04T07:07:20.278Z</time>
      </trkpt>
      <trkpt lat="45.95352" lon="6.85982">
        <ele>2162</ele>
        <time>2026-08-04T07:07:21.278Z</time>
      </trkpt>
      <trkpt lat="45.95351" lon="6.85981">
        <ele>2163</ele>
        <time>2026-08-04T07:07:22.278Z</time>
      </trkpt>
      <trkpt lat="45.95351" lon="6.8598">
        <ele>2163</ele>
        <time>2026-08-04T07:07:23.278Z</time>
      </trkpt>
      <trkpt lat="45.9535" lon="6.85979">
        <ele>2163</ele>
        <time>2026-08-04T07:07:24.278Z</time>
      </trkpt>
      <trkpt lat="45.9535" lon="6.85977">
        <ele>2163</ele>
        <time>2026-08-04T07:07:25.278Z</time>
      </trkpt>
      <trkpt lat="45.9535" lon="6.85977">
        <ele>2164</ele>
        <time>2026-08-04T07:07:26.278Z</time>
      </trkpt>
      <trkpt lat="45.9535" lon="6.85975">
        <ele>2164</ele>
        <time>2026-08-04T07:07:27.278Z</time>
      </trkpt>
      <trkpt lat="45.9535" lon="6.85974">
        <ele>2164</ele>
        <time>2026-08-04T07:07:28.278Z</time>
      </trkpt>
      <trkpt lat="45.9535" lon="6.85973">
        <ele>2165</ele>
        <time>2026-08-04T07:07:29.278Z</time>
      </trkpt>
      <trkpt lat="45.9535" lon="6.85972">
        <ele>2165</ele>
        <time>2026-08-04T07:07:30.278Z</time>
      </trkpt>
      <trkpt lat="45.9535" lon="6.85971">
        <ele>2165</ele>
        <time>2026-08-04T07:07:31.278Z</time>
      </trkpt>
      <trkpt lat="45.95349" lon="6.8597">
        <ele>2165</ele>
        <time>2026-08-04T07:07:32.278Z</time>
      </trkpt>
      <trkpt lat="45.95349" lon="6.85969">
        <ele>2165</ele>
        <time>2026-08-04T07:07:33.278Z</time>
      </trkpt>
      <trkpt lat="45.95348" lon="6.85968">
        <ele>2165</ele>
        <time>2026-08-04T07:07:34.278Z</time>
      </trkpt>
      <trkpt lat="45.95348" lon="6.85967">
        <ele>2165</ele>
        <time>2026-08-04T07:07:35.278Z</time>
      </trkpt>
      <trkpt lat="45.95347" lon="6.85966">
        <ele>2165</ele>
        <time>2026-08-04T07:07:36.278Z</time>
      </trkpt>
      <trkpt lat="45.95347" lon="6.85965">
        <ele>2165</ele>
        <time>2026-08-04T07:07:37.278Z</time>
      </trkpt>
      <trkpt lat="45.95346" lon="6.85964">
        <ele>2165</ele>
        <time>2026-08-04T07:07:38.278Z</time>
      </trkpt>
      <trkpt lat="45.95346" lon="6.85963">
        <ele>2166</ele>
        <time>2026-08-04T07:07:39.278Z</time>
      </trkpt>
      <trkpt lat="45.95345" lon="6.85961">
        <ele>2166</ele>
        <time>2026-08-04T07:07:40.278Z</time>
      </trkpt>
      <trkpt lat="45.95345" lon="6.8596">
        <ele>2167</ele>
        <time>2026-08-04T07:07:41.278Z</time>
      </trkpt>
      <trkpt lat="45.95344" lon="6.85958">
        <ele>2167</ele>
        <time>2026-08-04T07:07:42.278Z</time>
      </trkpt>
      <trkpt lat="45.95344" lon="6.85957">
        <ele>2166</ele>
        <time>2026-08-04T07:07:43.278Z</time>
      </trkpt>
      <trkpt lat="45.95344" lon="6.85955">
        <ele>2166</ele>
        <time>2026-08-04T07:07:44.278Z</time>
      </trkpt>
      <trkpt lat="45.95344" lon="6.85954">
        <ele>2166</ele>
        <time>2026-08-04T07:07:45.278Z</time>
      </trkpt>
      <trkpt lat="45.95344" lon="6.85953">
        <ele>2166</ele>
        <time>2026-08-04T07:07:46.278Z</time>
      </trkpt>
      <trkpt lat="45.95344" lon="6.85952">
        <ele>2166</ele>
        <time>2026-08-04T07:07:47.278Z</time>
      </trkpt>
      <trkpt lat="45.95343" lon="6.85952">
        <ele>2167</ele>
        <time>2026-08-04T07:07:48.278Z</time>
      </trkpt>
      <trkpt lat="45.95342" lon="6.85951">
        <ele>2167</ele>
        <time>2026-08-04T07:07:49.278Z</time>
      </trkpt>
      <trkpt lat="45.95342" lon="6.8595">
        <ele>2168</ele>
        <time>2026-08-04T07:07:50.278Z</time>
      </trkpt>
      <trkpt lat="45.95342" lon="6.85949">
        <ele>2168</ele>
        <time>2026-08-04T07:07:51.278Z</time>
      </trkpt>
      <trkpt lat="45.95342" lon="6.85948">
        <ele>2169</ele>
        <time>2026-08-04T07:07:52.278Z</time>
      </trkpt>
      <trkpt lat="45.95341" lon="6.85947">
        <ele>2169</ele>
        <time>2026-08-04T07:07:53.278Z</time>
      </trkpt>
      <trkpt lat="45.95341" lon="6.85946">
        <ele>2169</ele>
        <time>2026-08-04T07:07:54.278Z</time>
      </trkpt>
      <trkpt lat="45.95341" lon="6.85946">
        <ele>2170</ele>
        <time>2026-08-04T07:07:55.278Z</time>
      </trkpt>
      <trkpt lat="45.95341" lon="6.85945">
        <ele>2170</ele>
        <time>2026-08-04T07:07:56.278Z</time>
      </trkpt>
      <trkpt lat="45.9534" lon="6.85944">
        <ele>2170</ele>
        <time>2026-08-04T07:07:57.278Z</time>
      </trkpt>
      <trkpt lat="45.9534" lon="6.85944">
        <ele>2170</ele>
        <time>2026-08-04T07:07:58.278Z</time>
      </trkpt>
      <trkpt lat="45.95339" lon="6.85943">
        <ele>2170</ele>
        <time>2026-08-04T07:07:59.278Z</time>
      </trkpt>
      <trkpt lat="45.95338" lon="6.85942">
        <ele>2171</ele>
        <time>2026-08-04T07:08:00.278Z</time>
      </trkpt>
      <trkpt lat="45.95338" lon="6.85941">
        <ele>2171</ele>
        <time>2026-08-04T07:08:01.278Z</time>
      </trkpt>
      <trkpt lat="45.95337" lon="6.85941">
        <ele>2171</ele>
        <time>2026-08-04T07:08:02.278Z</time>
      </trkpt>
      <trkpt lat="45.95336" lon="6.8594">
        <ele>2171</ele>
        <time>2026-08-04T07:08:03.278Z</time>
      </trkpt>
      <trkpt lat="45.95335" lon="6.8594">
        <ele>2172</ele>
        <time>2026-08-04T07:08:04.278Z</time>
      </trkpt>
      <trkpt lat="45.95335" lon="6.85939">
        <ele>2172</ele>
        <time>2026-08-04T07:08:05.278Z</time>
      </trkpt>
      <trkpt lat="45.95334" lon="6.85939">
        <ele>2172</ele>
        <time>2026-08-04T07:08:06.278Z</time>
      </trkpt>
      <trkpt lat="45.95334" lon="6.85938">
        <ele>2173</ele>
        <time>2026-08-04T07:08:07.278Z</time>
      </trkpt>
      <trkpt lat="45.95334" lon="6.85938">
        <ele>2173</ele>
        <time>2026-08-04T07:08:08.278Z</time>
      </trkpt>
      <trkpt lat="45.95334" lon="6.85938">
        <ele>2173</ele>
        <time>2026-08-04T07:08:09.278Z</time>
      </trkpt>
      <trkpt lat="45.95333" lon="6.85938">
        <ele>2173</ele>
        <time>2026-08-04T07:08:10.278Z</time>
      </trkpt>
      <trkpt lat="45.95334" lon="6.85938">
        <ele>2172</ele>
        <time>2026-08-04T07:08:11.278Z</time>
      </trkpt>
      <trkpt lat="45.95334" lon="6.85938">
        <ele>2172</ele>
        <time>2026-08-04T07:08:12.278Z</time>
      </trkpt>
      <trkpt lat="45.95334" lon="6.85938">
        <ele>2172</ele>
        <time>2026-08-04T07:08:13.278Z</time>
      </trkpt>
      <trkpt lat="45.95334" lon="6.85938">
        <ele>2172</ele>
        <time>2026-08-04T07:08:14.278Z</time>
      </trkpt>
      <trkpt lat="45.95334" lon="6.85938">
        <ele>2172</ele>
        <time>2026-08-04T07:08:15.278Z</time>
      </trkpt>
      <trkpt lat="45.95333" lon="6.85938">
        <ele>2172</ele>
        <time>2026-08-04T07:08:16.278Z</time>
      </trkpt>
      <trkpt lat="45.95333" lon="6.85937">
        <ele>2172</ele>
        <time>2026-08-04T07:08:17.278Z</time>
      </trkpt>
      <trkpt lat="45.95332" lon="6.85936">
        <ele>2172</ele>
        <time>2026-08-04T07:08:18.278Z</time>
      </trkpt>
      <trkpt lat="45.95332" lon="6.85935">
        <ele>2172</ele>
        <time>2026-08-04T07:08:19.278Z</time>
      </trkpt>
      <trkpt lat="45.95331" lon="6.85934">
        <ele>2172</ele>
        <time>2026-08-04T07:08:20.278Z</time>
      </trkpt>
      <trkpt lat="45.95331" lon="6.85933">
        <ele>2172</ele>
        <time>2026-08-04T07:08:21.278Z</time>
      </trkpt>
      <trkpt lat="45.9533" lon="6.85932">
        <ele>2172</ele>
        <time>2026-08-04T07:08:22.278Z</time>
      </trkpt>
      <trkpt lat="45.9533" lon="6.85931">
        <ele>2172</ele>
        <time>2026-08-04T07:08:23.278Z</time>
      </trkpt>
      <trkpt lat="45.9533" lon="6.8593">
        <ele>2172</ele>
        <time>2026-08-04T07:08:24.278Z</time>
      </trkpt>
      <trkpt lat="45.95329" lon="6.85929">
        <ele>2173</ele>
        <time>2026-08-04T07:08:25.278Z</time>
      </trkpt>
      <trkpt lat="45.95329" lon="6.85928">
        <ele>2173</ele>
        <time>2026-08-04T07:08:26.278Z</time>
      </trkpt>
      <trkpt lat="45.95329" lon="6.85926">
        <ele>2173</ele>
        <time>2026-08-04T07:08:27.278Z</time>
      </trkpt>
      <trkpt lat="45.95329" lon="6.85925">
        <ele>2174</ele>
        <time>2026-08-04T07:08:28.278Z</time>
      </trkpt>
      <trkpt lat="45.95329" lon="6.85924">
        <ele>2174</ele>
        <time>2026-08-04T07:08:29.278Z</time>
      </trkpt>
      <trkpt lat="45.95329" lon="6.85923">
        <ele>2174</ele>
        <time>2026-08-04T07:08:30.278Z</time>
      </trkpt>
      <trkpt lat="45.95328" lon="6.85921">
        <ele>2174</ele>
        <time>2026-08-04T07:08:31.278Z</time>
      </trkpt>
      <trkpt lat="45.95328" lon="6.8592">
        <ele>2174</ele>
        <time>2026-08-04T07:08:32.278Z</time>
      </trkpt>
      <trkpt lat="45.95328" lon="6.85919">
        <ele>2175</ele>
        <time>2026-08-04T07:08:33.278Z</time>
      </trkpt>
      <trkpt lat="45.95327" lon="6.85918">
        <ele>2175</ele>
        <time>2026-08-04T07:08:34.278Z</time>
      </trkpt>
      <trkpt lat="45.95326" lon="6.85917">
        <ele>2175</ele>
        <time>2026-08-04T07:08:35.278Z</time>
      </trkpt>
      <trkpt lat="45.95326" lon="6.85915">
        <ele>2175</ele>
        <time>2026-08-04T07:08:36.278Z</time>
      </trkpt>
      <trkpt lat="45.95325" lon="6.85914">
        <ele>2175</ele>
        <time>2026-08-04T07:08:37.278Z</time>
      </trkpt>
      <trkpt lat="45.95325" lon="6.85913">
        <ele>2175</ele>
        <time>2026-08-04T07:08:38.278Z</time>
      </trkpt>
      <trkpt lat="45.95324" lon="6.85912">
        <ele>2175</ele>
        <time>2026-08-04T07:08:39.278Z</time>
      </trkpt>
      <trkpt lat="45.95324" lon="6.8591">
        <ele>2175</ele>
        <time>2026-08-04T07:08:40.278Z</time>
      </trkpt>
      <trkpt lat="45.95324" lon="6.85909">
        <ele>2175</ele>
        <time>2026-08-04T07:08:41.278Z</time>
      </trkpt>
      <trkpt lat="45.95324" lon="6.85907">
        <ele>2176</ele>
        <time>2026-08-04T07:08:42.278Z</time>
      </trkpt>
      <trkpt lat="45.95324" lon="6.85906">
        <ele>2176</ele>
        <time>2026-08-04T07:08:43.278Z</time>
      </trkpt>
      <trkpt lat="45.95323" lon="6.85904">
        <ele>2177</ele>
        <time>2026-08-04T07:08:44.278Z</time>
      </trkpt>
      <trkpt lat="45.95323" lon="6.85903">
        <ele>2177</ele>
        <time>2026-08-04T07:08:45.278Z</time>
      </trkpt>
      <trkpt lat="45.95323" lon="6.85902">
        <ele>2177</ele>
        <time>2026-08-04T07:08:46.278Z</time>
      </trkpt>
      <trkpt lat="45.95323" lon="6.85901">
        <ele>2178</ele>
        <time>2026-08-04T07:08:47.278Z</time>
      </trkpt>
      <trkpt lat="45.95323" lon="6.859">
        <ele>2178</ele>
        <time>2026-08-04T07:08:48.278Z</time>
      </trkpt>
      <trkpt lat="45.95322" lon="6.85899">
        <ele>2178</ele>
        <time>2026-08-04T07:08:49.278Z</time>
      </trkpt>
      <trkpt lat="45.95322" lon="6.85898">
        <ele>2178</ele>
        <time>2026-08-04T07:08:50.278Z</time>
      </trkpt>
      <trkpt lat="45.95322" lon="6.85897">
        <ele>2178</ele>
        <time>2026-08-04T07:08:51.278Z</time>
      </trkpt>
      <trkpt lat="45.95321" lon="6.85896">
        <ele>2178</ele>
        <time>2026-08-04T07:08:52.278Z</time>
      </trkpt>
      <trkpt lat="45.9532" lon="6.85894">
        <ele>2179</ele>
        <time>2026-08-04T07:08:53.278Z</time>
      </trkpt>
      <trkpt lat="45.9532" lon="6.85893">
        <ele>2179</ele>
        <time>2026-08-04T07:08:54.278Z</time>
      </trkpt>
      <trkpt lat="45.9532" lon="6.85892">
        <ele>2180</ele>
        <time>2026-08-04T07:08:55.278Z</time>
      </trkpt>
      <trkpt lat="45.95319" lon="6.85891">
        <ele>2180</ele>
        <time>2026-08-04T07:08:56.278Z</time>
      </trkpt>
      <trkpt lat="45.95319" lon="6.85891">
        <ele>2180</ele>
        <time>2026-08-04T07:08:57.278Z</time>
      </trkpt>
      <trkpt lat="45.95319" lon="6.85889">
        <ele>2180</ele>
        <time>2026-08-04T07:08:58.278Z</time>
      </trkpt>
      <trkpt lat="45.95319" lon="6.85888">
        <ele>2180</ele>
        <time>2026-08-04T07:08:59.278Z</time>
      </trkpt>
      <trkpt lat="45.95319" lon="6.85887">
        <ele>2180</ele>
        <time>2026-08-04T07:09:00.278Z</time>
      </trkpt>
      <trkpt lat="45.95319" lon="6.85886">
        <ele>2180</ele>
        <time>2026-08-04T07:09:01.278Z</time>
      </trkpt>
      <trkpt lat="45.95319" lon="6.85886">
        <ele>2181</ele>
        <time>2026-08-04T07:09:02.278Z</time>
      </trkpt>
      <trkpt lat="45.95319" lon="6.85885">
        <ele>2181</ele>
        <time>2026-08-04T07:09:03.278Z</time>
      </trkpt>
      <trkpt lat="45.95319" lon="6.85884">
        <ele>2181</ele>
        <time>2026-08-04T07:09:04.278Z</time>
      </trkpt>
      <trkpt lat="45.95319" lon="6.85884">
        <ele>2181</ele>
        <time>2026-08-04T07:09:05.278Z</time>
      </trkpt>
      <trkpt lat="45.95319" lon="6.85883">
        <ele>2181</ele>
        <time>2026-08-04T07:09:06.278Z</time>
      </trkpt>
      <trkpt lat="45.95319" lon="6.85882">
        <ele>2181</ele>
        <time>2026-08-04T07:09:07.278Z</time>
      </trkpt>
      <trkpt lat="45.95319" lon="6.85882">
        <ele>2181</ele>
        <time>2026-08-04T07:09:08.278Z</time>
      </trkpt>
      <trkpt lat="45.95319" lon="6.8588">
        <ele>2181</ele>
        <time>2026-08-04T07:09:09.278Z</time>
      </trkpt>
      <trkpt lat="45.95318" lon="6.85879">
        <ele>2181</ele>
        <time>2026-08-04T07:09:10.278Z</time>
      </trkpt>
      <trkpt lat="45.95318" lon="6.85878">
        <ele>2181</ele>
        <time>2026-08-04T07:09:11.278Z</time>
      </trkpt>
      <trkpt lat="45.95318" lon="6.85877">
        <ele>2181</ele>
        <time>2026-08-04T07:09:12.278Z</time>
      </trkpt>
      <trkpt lat="45.95317" lon="6.85876">
        <ele>2182</ele>
        <time>2026-08-04T07:09:13.279Z</time>
      </trkpt>
      <trkpt lat="45.95317" lon="6.85875">
        <ele>2182</ele>
        <time>2026-08-04T07:09:14.278Z</time>
      </trkpt>
      <trkpt lat="45.95316" lon="6.85874">
        <ele>2182</ele>
        <time>2026-08-04T07:09:15.278Z</time>
      </trkpt>
      <trkpt lat="45.95315" lon="6.85873">
        <ele>2182</ele>
        <time>2026-08-04T07:09:16.278Z</time>
      </trkpt>
      <trkpt lat="45.95315" lon="6.85872">
        <ele>2183</ele>
        <time>2026-08-04T07:09:17.278Z</time>
      </trkpt>
      <trkpt lat="45.95315" lon="6.85871">
        <ele>2182</ele>
        <time>2026-08-04T07:09:18.278Z</time>
      </trkpt>
      <trkpt lat="45.95314" lon="6.8587">
        <ele>2182</ele>
        <time>2026-08-04T07:09:19.278Z</time>
      </trkpt>
      <trkpt lat="45.95314" lon="6.85869">
        <ele>2183</ele>
        <time>2026-08-04T07:09:20.278Z</time>
      </trkpt>
      <trkpt lat="45.95314" lon="6.85868">
        <ele>2183</ele>
        <time>2026-08-04T07:09:21.278Z</time>
      </trkpt>
      <trkpt lat="45.95314" lon="6.85867">
        <ele>2184</ele>
        <time>2026-08-04T07:09:22.278Z</time>
      </trkpt>
      <trkpt lat="45.95313" lon="6.85866">
        <ele>2184</ele>
        <time>2026-08-04T07:09:23.278Z</time>
      </trkpt>
      <trkpt lat="45.95313" lon="6.85865">
        <ele>2185</ele>
        <time>2026-08-04T07:09:24.278Z</time>
      </trkpt>
      <trkpt lat="45.95313" lon="6.85865">
        <ele>2185</ele>
        <time>2026-08-04T07:09:25.278Z</time>
      </trkpt>
      <trkpt lat="45.95313" lon="6.85865">
        <ele>2186</ele>
        <time>2026-08-04T07:09:26.278Z</time>
      </trkpt>
      <trkpt lat="45.95313" lon="6.85865">
        <ele>2186</ele>
        <time>2026-08-04T07:09:27.278Z</time>
      </trkpt>
      <trkpt lat="45.95313" lon="6.85865">
        <ele>2187</ele>
        <time>2026-08-04T07:09:28.278Z</time>
      </trkpt>
      <trkpt lat="45.95313" lon="6.85864">
        <ele>2187</ele>
        <time>2026-08-04T07:09:29.278Z</time>
      </trkpt>
      <trkpt lat="45.95313" lon="6.85864">
        <ele>2187</ele>
        <time>2026-08-04T07:09:30.278Z</time>
      </trkpt>
      <trkpt lat="45.95313" lon="6.85864">
        <ele>2187</ele>
        <time>2026-08-04T07:09:31.278Z</time>
      </trkpt>
      <trkpt lat="45.95313" lon="6.85863">
        <ele>2187</ele>
        <time>2026-08-04T07:09:32.278Z</time>
      </trkpt>
      <trkpt lat="45.95313" lon="6.85863">
        <ele>2187</ele>
        <time>2026-08-04T07:09:33.278Z</time>
      </trkpt>
      <trkpt lat="45.95313" lon="6.85862">
        <ele>2187</ele>
        <time>2026-08-04T07:09:34.278Z</time>
      </trkpt>
      <trkpt lat="45.95312" lon="6.85861">
        <ele>2187</ele>
        <time>2026-08-04T07:09:35.278Z</time>
      </trkpt>
      <trkpt lat="45.95312" lon="6.8586">
        <ele>2186</ele>
        <time>2026-08-04T07:09:36.278Z</time>
      </trkpt>
      <trkpt lat="45.95312" lon="6.85859">
        <ele>2186</ele>
        <time>2026-08-04T07:09:37.278Z</time>
      </trkpt>
      <trkpt lat="45.95312" lon="6.85859">
        <ele>2186</ele>
        <time>2026-08-04T07:09:38.278Z</time>
      </trkpt>
      <trkpt lat="45.95312" lon="6.85858">
        <ele>2186</ele>
        <time>2026-08-04T07:09:39.278Z</time>
      </trkpt>
      <trkpt lat="45.95312" lon="6.85857">
        <ele>2186</ele>
        <time>2026-08-04T07:09:40.278Z</time>
      </trkpt>
      <trkpt lat="45.95312" lon="6.85856">
        <ele>2186</ele>
        <time>2026-08-04T07:09:41.278Z</time>
      </trkpt>
      <trkpt lat="45.95312" lon="6.85856">
        <ele>2186</ele>
        <time>2026-08-04T07:09:42.278Z</time>
      </trkpt>
      <trkpt lat="45.95312" lon="6.85855">
        <ele>2186</ele>
        <time>2026-08-04T07:09:43.278Z</time>
      </trkpt>
      <trkpt lat="45.95312" lon="6.85854">
        <ele>2186</ele>
        <time>2026-08-04T07:09:44.278Z</time>
      </trkpt>
      <trkpt lat="45.95312" lon="6.85853">
        <ele>2187</ele>
        <time>2026-08-04T07:09:45.278Z</time>
      </trkpt>
      <trkpt lat="45.95312" lon="6.85853">
        <ele>2187</ele>
        <time>2026-08-04T07:09:46.278Z</time>
      </trkpt>
      <trkpt lat="45.95312" lon="6.85852">
        <ele>2187</ele>
        <time>2026-08-04T07:09:47.278Z</time>
      </trkpt>
      <trkpt lat="45.95312" lon="6.85851">
        <ele>2187</ele>
        <time>2026-08-04T07:09:48.278Z</time>
      </trkpt>
      <trkpt lat="45.95312" lon="6.8585">
        <ele>2188</ele>
        <time>2026-08-04T07:09:49.278Z</time>
      </trkpt>
      <trkpt lat="45.95311" lon="6.85849">
        <ele>2188</ele>
        <time>2026-08-04T07:09:50.278Z</time>
      </trkpt>
      <trkpt lat="45.95311" lon="6.85848">
        <ele>2188</ele>
        <time>2026-08-04T07:09:51.278Z</time>
      </trkpt>
      <trkpt lat="45.95311" lon="6.85848">
        <ele>2189</ele>
        <time>2026-08-04T07:09:52.278Z</time>
      </trkpt>
      <trkpt lat="45.95311" lon="6.85847">
        <ele>2189</ele>
        <time>2026-08-04T07:09:53.278Z</time>
      </trkpt>
      <trkpt lat="45.9531" lon="6.85846">
        <ele>2189</ele>
        <time>2026-08-04T07:09:54.278Z</time>
      </trkpt>
      <trkpt lat="45.9531" lon="6.85845">
        <ele>2189</ele>
        <time>2026-08-04T07:09:55.278Z</time>
      </trkpt>
      <trkpt lat="45.9531" lon="6.85844">
        <ele>2188</ele>
        <time>2026-08-04T07:09:56.278Z</time>
      </trkpt>
      <trkpt lat="45.9531" lon="6.85843">
        <ele>2188</ele>
        <time>2026-08-04T07:09:57.278Z</time>
      </trkpt>
      <trkpt lat="45.95309" lon="6.85841">
        <ele>2188</ele>
        <time>2026-08-04T07:09:58.278Z</time>
      </trkpt>
      <trkpt lat="45.95309" lon="6.8584">
        <ele>2188</ele>
        <time>2026-08-04T07:09:59.278Z</time>
      </trkpt>
      <trkpt lat="45.95309" lon="6.85839">
        <ele>2188</ele>
        <time>2026-08-04T07:10:00.278Z</time>
      </trkpt>
      <trkpt lat="45.95308" lon="6.85838">
        <ele>2188</ele>
        <time>2026-08-04T07:10:01.278Z</time>
      </trkpt>
      <trkpt lat="45.95308" lon="6.85837">
        <ele>2189</ele>
        <time>2026-08-04T07:10:02.278Z</time>
      </trkpt>
      <trkpt lat="45.95308" lon="6.85837">
        <ele>2189</ele>
        <time>2026-08-04T07:10:03.278Z</time>
      </trkpt>
      <trkpt lat="45.95308" lon="6.85836">
        <ele>2190</ele>
        <time>2026-08-04T07:10:04.278Z</time>
      </trkpt>
      <trkpt lat="45.95308" lon="6.85834">
        <ele>2190</ele>
        <time>2026-08-04T07:10:05.278Z</time>
      </trkpt>
      <trkpt lat="45.95308" lon="6.85834">
        <ele>2191</ele>
        <time>2026-08-04T07:10:06.278Z</time>
      </trkpt>
      <trkpt lat="45.95308" lon="6.85833">
        <ele>2191</ele>
        <time>2026-08-04T07:10:07.278Z</time>
      </trkpt>
      <trkpt lat="45.95307" lon="6.85832">
        <ele>2191</ele>
        <time>2026-08-04T07:10:08.278Z</time>
      </trkpt>
      <trkpt lat="45.95307" lon="6.85831">
        <ele>2191</ele>
        <time>2026-08-04T07:10:09.278Z</time>
      </trkpt>
      <trkpt lat="45.95307" lon="6.85829">
        <ele>2192</ele>
        <time>2026-08-04T07:10:10.278Z</time>
      </trkpt>
      <trkpt lat="45.95307" lon="6.85828">
        <ele>2192</ele>
        <time>2026-08-04T07:10:11.278Z</time>
      </trkpt>
      <trkpt lat="45.95307" lon="6.85827">
        <ele>2192</ele>
        <time>2026-08-04T07:10:12.278Z</time>
      </trkpt>
      <trkpt lat="45.95306" lon="6.85826">
        <ele>2193</ele>
        <time>2026-08-04T07:10:13.278Z</time>
      </trkpt>
      <trkpt lat="45.95305" lon="6.85825">
        <ele>2193</ele>
        <time>2026-08-04T07:10:14.278Z</time>
      </trkpt>
      <trkpt lat="45.95305" lon="6.85824">
        <ele>2193</ele>
        <time>2026-08-04T07:10:15.278Z</time>
      </trkpt>
      <trkpt lat="45.95305" lon="6.85823">
        <ele>2193</ele>
        <time>2026-08-04T07:10:16.278Z</time>
      </trkpt>
      <trkpt lat="45.95305" lon="6.85822">
        <ele>2193</ele>
        <time>2026-08-04T07:10:17.278Z</time>
      </trkpt>
      <trkpt lat="45.95304" lon="6.85822">
        <ele>2193</ele>
        <time>2026-08-04T07:10:18.278Z</time>
      </trkpt>
      <trkpt lat="45.95304" lon="6.85821">
        <ele>2194</ele>
        <time>2026-08-04T07:10:19.278Z</time>
      </trkpt>
      <trkpt lat="45.95303" lon="6.8582">
        <ele>2194</ele>
        <time>2026-08-04T07:10:20.278Z</time>
      </trkpt>
      <trkpt lat="45.95303" lon="6.85819">
        <ele>2194</ele>
        <time>2026-08-04T07:10:21.278Z</time>
      </trkpt>
      <trkpt lat="45.95303" lon="6.85818">
        <ele>2194</ele>
        <time>2026-08-04T07:10:22.278Z</time>
      </trkpt>
      <trkpt lat="45.95302" lon="6.85817">
        <ele>2194</ele>
        <time>2026-08-04T07:10:23.278Z</time>
      </trkpt>
      <trkpt lat="45.95301" lon="6.85817">
        <ele>2194</ele>
        <time>2026-08-04T07:10:24.278Z</time>
      </trkpt>
      <trkpt lat="45.95301" lon="6.85817">
        <ele>2194</ele>
        <time>2026-08-04T07:10:25.278Z</time>
      </trkpt>
      <trkpt lat="45.95301" lon="6.85817">
        <ele>2194</ele>
        <time>2026-08-04T07:10:26.278Z</time>
      </trkpt>
      <trkpt lat="45.95301" lon="6.85816">
        <ele>2194</ele>
        <time>2026-08-04T07:10:27.278Z</time>
      </trkpt>
      <trkpt lat="45.95301" lon="6.85816">
        <ele>2194</ele>
        <time>2026-08-04T07:10:28.278Z</time>
      </trkpt>
      <trkpt lat="45.95301" lon="6.85817">
        <ele>2195</ele>
        <time>2026-08-04T07:10:29.278Z</time>
      </trkpt>
      <trkpt lat="45.95301" lon="6.85816">
        <ele>2195</ele>
        <time>2026-08-04T07:10:30.278Z</time>
      </trkpt>
      <trkpt lat="45.953" lon="6.85816">
        <ele>2195</ele>
        <time>2026-08-04T07:10:31.278Z</time>
      </trkpt>
      <trkpt lat="45.953" lon="6.85815">
        <ele>2195</ele>
        <time>2026-08-04T07:10:32.278Z</time>
      </trkpt>
      <trkpt lat="45.95299" lon="6.85815">
        <ele>2195</ele>
        <time>2026-08-04T07:10:33.278Z</time>
      </trkpt>
      <trkpt lat="45.95298" lon="6.85814">
        <ele>2195</ele>
        <time>2026-08-04T07:10:34.278Z</time>
      </trkpt>
      <trkpt lat="45.95298" lon="6.85814">
        <ele>2195</ele>
        <time>2026-08-04T07:10:35.278Z</time>
      </trkpt>
      <trkpt lat="45.95297" lon="6.85813">
        <ele>2195</ele>
        <time>2026-08-04T07:10:36.278Z</time>
      </trkpt>
      <trkpt lat="45.95296" lon="6.85812">
        <ele>2195</ele>
        <time>2026-08-04T07:10:37.278Z</time>
      </trkpt>
      <trkpt lat="45.95296" lon="6.8581">
        <ele>2195</ele>
        <time>2026-08-04T07:10:38.278Z</time>
      </trkpt>
      <trkpt lat="45.95296" lon="6.8581">
        <ele>2195</ele>
        <time>2026-08-04T07:10:39.278Z</time>
      </trkpt>
      <trkpt lat="45.95295" lon="6.8581">
        <ele>2196</ele>
        <time>2026-08-04T07:10:40.278Z</time>
      </trkpt>
      <trkpt lat="45.95295" lon="6.85809">
        <ele>2196</ele>
        <time>2026-08-04T07:10:41.278Z</time>
      </trkpt>
      <trkpt lat="45.95294" lon="6.8581">
        <ele>2197</ele>
        <time>2026-08-04T07:10:42.278Z</time>
      </trkpt>
      <trkpt lat="45.95293" lon="6.85809">
        <ele>2197</ele>
        <time>2026-08-04T07:10:43.278Z</time>
      </trkpt>
      <trkpt lat="45.95292" lon="6.85809">
        <ele>2197</ele>
        <time>2026-08-04T07:10:44.278Z</time>
      </trkpt>
      <trkpt lat="45.95292" lon="6.85809">
        <ele>2196</ele>
        <time>2026-08-04T07:10:45.278Z</time>
      </trkpt>
      <trkpt lat="45.95291" lon="6.85809">
        <ele>2197</ele>
        <time>2026-08-04T07:10:46.278Z</time>
      </trkpt>
      <trkpt lat="45.95291" lon="6.85808">
        <ele>2196</ele>
        <time>2026-08-04T07:10:47.278Z</time>
      </trkpt>
      <trkpt lat="45.9529" lon="6.85808">
        <ele>2197</ele>
        <time>2026-08-04T07:10:48.278Z</time>
      </trkpt>
      <trkpt lat="45.95289" lon="6.85808">
        <ele>2197</ele>
        <time>2026-08-04T07:10:49.278Z</time>
      </trkpt>
      <trkpt lat="45.95288" lon="6.85807">
        <ele>2197</ele>
        <time>2026-08-04T07:10:50.278Z</time>
      </trkpt>
      <trkpt lat="45.95287" lon="6.85807">
        <ele>2197</ele>
        <time>2026-08-04T07:10:51.278Z</time>
      </trkpt>
      <trkpt lat="45.95287" lon="6.85806">
        <ele>2198</ele>
        <time>2026-08-04T07:10:52.278Z</time>
      </trkpt>
      <trkpt lat="45.95286" lon="6.85806">
        <ele>2198</ele>
        <time>2026-08-04T07:10:53.278Z</time>
      </trkpt>
      <trkpt lat="45.95285" lon="6.85806">
        <ele>2198</ele>
        <time>2026-08-04T07:10:54.278Z</time>
      </trkpt>
      <trkpt lat="45.95285" lon="6.85806">
        <ele>2198</ele>
        <time>2026-08-04T07:10:55.278Z</time>
      </trkpt>
      <trkpt lat="45.95284" lon="6.85806">
        <ele>2198</ele>
        <time>2026-08-04T07:10:56.278Z</time>
      </trkpt>
      <trkpt lat="45.95284" lon="6.85806">
        <ele>2198</ele>
        <time>2026-08-04T07:10:57.278Z</time>
      </trkpt>
      <trkpt lat="45.95284" lon="6.85806">
        <ele>2198</ele>
        <time>2026-08-04T07:10:58.278Z</time>
      </trkpt>
      <trkpt lat="45.95284" lon="6.85806">
        <ele>2198</ele>
        <time>2026-08-04T07:10:59.278Z</time>
      </trkpt>
      <trkpt lat="45.95284" lon="6.85806">
        <ele>2198</ele>
        <time>2026-08-04T07:11:00.278Z</time>
      </trkpt>
      <trkpt lat="45.95284" lon="6.85806">
        <ele>2198</ele>
        <time>2026-08-04T07:11:01.278Z</time>
      </trkpt>
      <trkpt lat="45.95284" lon="6.85806">
        <ele>2199</ele>
        <time>2026-08-04T07:11:02.278Z</time>
      </trkpt>
      <trkpt lat="45.95284" lon="6.85806">
        <ele>2199</ele>
        <time>2026-08-04T07:11:03.278Z</time>
      </trkpt>
      <trkpt lat="45.95284" lon="6.85806">
        <ele>2199</ele>
        <time>2026-08-04T07:11:04.278Z</time>
      </trkpt>
      <trkpt lat="45.95284" lon="6.85806">
        <ele>2199</ele>
        <time>2026-08-04T07:11:05.278Z</time>
      </trkpt>
      <trkpt lat="45.95284" lon="6.85806">
        <ele>2199</ele>
        <time>2026-08-04T07:11:06.278Z</time>
      </trkpt>
      <trkpt lat="45.95283" lon="6.85806">
        <ele>2199</ele>
        <time>2026-08-04T07:11:07.278Z</time>
      </trkpt>
      <trkpt lat="45.95282" lon="6.85806">
        <ele>2199</ele>
        <time>2026-08-04T07:11:08.278Z</time>
      </trkpt>
      <trkpt lat="45.95282" lon="6.85805">
        <ele>2199</ele>
        <time>2026-08-04T07:11:09.278Z</time>
      </trkpt>
      <trkpt lat="45.95281" lon="6.85805">
        <ele>2199</ele>
        <time>2026-08-04T07:11:10.278Z</time>
      </trkpt>
      <trkpt lat="45.9528" lon="6.85805">
        <ele>2199</ele>
        <time>2026-08-04T07:11:11.278Z</time>
      </trkpt>
      <trkpt lat="45.95279" lon="6.85805">
        <ele>2199</ele>
        <time>2026-08-04T07:11:12.278Z</time>
      </trkpt>
      <trkpt lat="45.95278" lon="6.85805">
        <ele>2199</ele>
        <time>2026-08-04T07:11:13.278Z</time>
      </trkpt>
      <trkpt lat="45.95277" lon="6.85804">
        <ele>2199</ele>
        <time>2026-08-04T07:11:14.278Z</time>
      </trkpt>
      <trkpt lat="45.95276" lon="6.85804">
        <ele>2200</ele>
        <time>2026-08-04T07:11:15.278Z</time>
      </trkpt>
      <trkpt lat="45.95275" lon="6.85803">
        <ele>2200</ele>
        <time>2026-08-04T07:11:16.278Z</time>
      </trkpt>
      <trkpt lat="45.95274" lon="6.85802">
        <ele>2200</ele>
        <time>2026-08-04T07:11:17.278Z</time>
      </trkpt>
      <trkpt lat="45.95273" lon="6.85802">
        <ele>2200</ele>
        <time>2026-08-04T07:11:18.278Z</time>
      </trkpt>
      <trkpt lat="45.95272" lon="6.85801">
        <ele>2200</ele>
        <time>2026-08-04T07:11:19.278Z</time>
      </trkpt>
      <trkpt lat="45.95272" lon="6.85801">
        <ele>2200</ele>
        <time>2026-08-04T07:11:20.278Z</time>
      </trkpt>
      <trkpt lat="45.95271" lon="6.85801">
        <ele>2200</ele>
        <time>2026-08-04T07:11:21.278Z</time>
      </trkpt>
      <trkpt lat="45.95269" lon="6.85801">
        <ele>2201</ele>
        <time>2026-08-04T07:11:22.278Z</time>
      </trkpt>
      <trkpt lat="45.95268" lon="6.85801">
        <ele>2201</ele>
        <time>2026-08-04T07:11:23.278Z</time>
      </trkpt>
      <trkpt lat="45.95268" lon="6.85801">
        <ele>2201</ele>
        <time>2026-08-04T07:11:24.278Z</time>
      </trkpt>
      <trkpt lat="45.95267" lon="6.85801">
        <ele>2201</ele>
        <time>2026-08-04T07:11:25.278Z</time>
      </trkpt>
      <trkpt lat="45.95265" lon="6.85802">
        <ele>2201</ele>
        <time>2026-08-04T07:11:26.278Z</time>
      </trkpt>
      <trkpt lat="45.95264" lon="6.85802">
        <ele>2201</ele>
        <time>2026-08-04T07:11:27.278Z</time>
      </trkpt>
      <trkpt lat="45.95263" lon="6.85803">
        <ele>2200</ele>
        <time>2026-08-04T07:11:28.278Z</time>
      </trkpt>
      <trkpt lat="45.95261" lon="6.85804">
        <ele>2200</ele>
        <time>2026-08-04T07:11:29.278Z</time>
      </trkpt>
      <trkpt lat="45.9526" lon="6.85804">
        <ele>2200</ele>
        <time>2026-08-04T07:11:30.278Z</time>
      </trkpt>
      <trkpt lat="45.95259" lon="6.85804">
        <ele>2200</ele>
        <time>2026-08-04T07:11:31.278Z</time>
      </trkpt>
      <trkpt lat="45.95258" lon="6.85805">
        <ele>2201</ele>
        <time>2026-08-04T07:11:32.278Z</time>
      </trkpt>
      <trkpt lat="45.95257" lon="6.85805">
        <ele>2201</ele>
        <time>2026-08-04T07:11:33.278Z</time>
      </trkpt>
      <trkpt lat="45.95256" lon="6.85806">
        <ele>2201</ele>
        <time>2026-08-04T07:11:34.278Z</time>
      </trkpt>
      <trkpt lat="45.95255" lon="6.85806">
        <ele>2201</ele>
        <time>2026-08-04T07:11:35.278Z</time>
      </trkpt>
      <trkpt lat="45.95253" lon="6.85806">
        <ele>2201</ele>
        <time>2026-08-04T07:11:36.278Z</time>
      </trkpt>
      <trkpt lat="45.95252" lon="6.85806">
        <ele>2201</ele>
        <time>2026-08-04T07:11:37.278Z</time>
      </trkpt>
      <trkpt lat="45.95251" lon="6.85806">
        <ele>2202</ele>
        <time>2026-08-04T07:11:38.278Z</time>
      </trkpt>
      <trkpt lat="45.9525" lon="6.85805">
        <ele>2202</ele>
        <time>2026-08-04T07:11:39.278Z</time>
      </trkpt>
      <trkpt lat="45.95249" lon="6.85805">
        <ele>2202</ele>
        <time>2026-08-04T07:11:40.278Z</time>
      </trkpt>
      <trkpt lat="45.95248" lon="6.85805">
        <ele>2202</ele>
        <time>2026-08-04T07:11:41.278Z</time>
      </trkpt>
      <trkpt lat="45.95247" lon="6.85804">
        <ele>2202</ele>
        <time>2026-08-04T07:11:42.278Z</time>
      </trkpt>
      <trkpt lat="45.95246" lon="6.85804">
        <ele>2202</ele>
        <time>2026-08-04T07:11:43.278Z</time>
      </trkpt>
      <trkpt lat="45.95246" lon="6.85804">
        <ele>2202</ele>
        <time>2026-08-04T07:11:44.278Z</time>
      </trkpt>
      <trkpt lat="45.95245" lon="6.85803">
        <ele>2202</ele>
        <time>2026-08-04T07:11:45.278Z</time>
      </trkpt>
      <trkpt lat="45.95245" lon="6.85803">
        <ele>2202</ele>
        <time>2026-08-04T07:11:46.278Z</time>
      </trkpt>
      <trkpt lat="45.95245" lon="6.85803">
        <ele>2202</ele>
        <time>2026-08-04T07:11:47.278Z</time>
      </trkpt>
      <trkpt lat="45.95245" lon="6.85803">
        <ele>2202</ele>
        <time>2026-08-04T07:11:48.278Z</time>
      </trkpt>
      <trkpt lat="45.95245" lon="6.85803">
        <ele>2203</ele>
        <time>2026-08-04T07:11:49.278Z</time>
      </trkpt>
      <trkpt lat="45.95245" lon="6.85803">
        <ele>2203</ele>
        <time>2026-08-04T07:11:50.278Z</time>
      </trkpt>
      <trkpt lat="45.95245" lon="6.85803">
        <ele>2203</ele>
        <time>2026-08-04T07:11:51.278Z</time>
      </trkpt>
      <trkpt lat="45.95245" lon="6.85803">
        <ele>2203</ele>
        <time>2026-08-04T07:11:52.278Z</time>
      </trkpt>
      <trkpt lat="45.95245" lon="6.85803">
        <ele>2202</ele>
        <time>2026-08-04T07:11:53.278Z</time>
      </trkpt>
      <trkpt lat="45.95245" lon="6.85804">
        <ele>2203</ele>
        <time>2026-08-04T07:11:54.278Z</time>
      </trkpt>
      <trkpt lat="45.95245" lon="6.85804">
        <ele>2203</ele>
        <time>2026-08-04T07:11:55.278Z</time>
      </trkpt>
      <trkpt lat="45.95245" lon="6.85804">
        <ele>2203</ele>
        <time>2026-08-04T07:11:56.278Z</time>
      </trkpt>
      <trkpt lat="45.95245" lon="6.85804">
        <ele>2203</ele>
        <time>2026-08-04T07:11:57.278Z</time>
      </trkpt>
      <trkpt lat="45.95245" lon="6.85804">
        <ele>2203</ele>
        <time>2026-08-04T07:11:58.278Z</time>
      </trkpt>
      <trkpt lat="45.95245" lon="6.85804">
        <ele>2203</ele>
        <time>2026-08-04T07:11:59.278Z</time>
      </trkpt>
      <trkpt lat="45.95245" lon="6.85804">
        <ele>2203</ele>
        <time>2026-08-04T07:12:00.278Z</time>
      </trkpt>
      <trkpt lat="45.95245" lon="6.85804">
        <ele>2202</ele>
        <time>2026-08-04T07:12:01.278Z</time>
      </trkpt>
      <trkpt lat="45.95245" lon="6.85804">
        <ele>2202</ele>
        <time>2026-08-04T07:12:02.278Z</time>
      </trkpt>
      <trkpt lat="45.95245" lon="6.85804">
        <ele>2202</ele>
        <time>2026-08-04T07:12:03.278Z</time>
      </trkpt>
      <trkpt lat="45.95245" lon="6.85804">
        <ele>2202</ele>
        <time>2026-08-04T07:12:04.278Z</time>
      </trkpt>
      <trkpt lat="45.95244" lon="6.85803">
        <ele>2202</ele>
        <time>2026-08-04T07:12:05.278Z</time>
      </trkpt>
      <trkpt lat="45.95243" lon="6.85803">
        <ele>2202</ele>
        <time>2026-08-04T07:12:06.278Z</time>
      </trkpt>
      <trkpt lat="45.95241" lon="6.85803">
        <ele>2202</ele>
        <time>2026-08-04T07:12:07.278Z</time>
      </trkpt>
      <trkpt lat="45.9524" lon="6.85802">
        <ele>2202</ele>
        <time>2026-08-04T07:12:08.278Z</time>
      </trkpt>
      <trkpt lat="45.95238" lon="6.85802">
        <ele>2202</ele>
        <time>2026-08-04T07:12:09.278Z</time>
      </trkpt>
      <trkpt lat="45.95237" lon="6.85802">
        <ele>2202</ele>
        <time>2026-08-04T07:12:10.278Z</time>
      </trkpt>
      <trkpt lat="45.95235" lon="6.85802">
        <ele>2203</ele>
        <time>2026-08-04T07:12:11.278Z</time>
      </trkpt>
      <trkpt lat="45.95233" lon="6.85802">
        <ele>2203</ele>
        <time>2026-08-04T07:12:12.278Z</time>
      </trkpt>
      <trkpt lat="45.95232" lon="6.85801">
        <ele>2203</ele>
        <time>2026-08-04T07:12:13.278Z</time>
      </trkpt>
      <trkpt lat="45.9523" lon="6.85801">
        <ele>2203</ele>
        <time>2026-08-04T07:12:14.278Z</time>
      </trkpt>
      <trkpt lat="45.95229" lon="6.85802">
        <ele>2203</ele>
        <time>2026-08-04T07:12:15.278Z</time>
      </trkpt>
      <trkpt lat="45.95228" lon="6.85802">
        <ele>2203</ele>
        <time>2026-08-04T07:12:16.278Z</time>
      </trkpt>
      <trkpt lat="45.95227" lon="6.85803">
        <ele>2203</ele>
        <time>2026-08-04T07:12:17.278Z</time>
      </trkpt>
      <trkpt lat="45.95226" lon="6.85803">
        <ele>2203</ele>
        <time>2026-08-04T07:12:18.278Z</time>
      </trkpt>
      <trkpt lat="45.95225" lon="6.85804">
        <ele>2204</ele>
        <time>2026-08-04T07:12:19.278Z</time>
      </trkpt>
      <trkpt lat="45.95224" lon="6.85805">
        <ele>2204</ele>
        <time>2026-08-04T07:12:20.278Z</time>
      </trkpt>
      <trkpt lat="45.95223" lon="6.85806">
        <ele>2205</ele>
        <time>2026-08-04T07:12:21.278Z</time>
      </trkpt>
      <trkpt lat="45.95222" lon="6.85807">
        <ele>2205</ele>
        <time>2026-08-04T07:12:22.278Z</time>
      </trkpt>
      <trkpt lat="45.95222" lon="6.85807">
        <ele>2205</ele>
        <time>2026-08-04T07:12:23.278Z</time>
      </trkpt>
      <trkpt lat="45.95221" lon="6.85807">
        <ele>2205</ele>
        <time>2026-08-04T07:12:24.278Z</time>
      </trkpt>
      <trkpt lat="45.95221" lon="6.85808">
        <ele>2205</ele>
        <time>2026-08-04T07:12:25.278Z</time>
      </trkpt>
      <trkpt lat="45.9522" lon="6.85809">
        <ele>2206</ele>
        <time>2026-08-04T07:12:26.278Z</time>
      </trkpt>
      <trkpt lat="45.9522" lon="6.85809">
        <ele>2205</ele>
        <time>2026-08-04T07:12:27.278Z</time>
      </trkpt>
      <trkpt lat="45.95219" lon="6.8581">
        <ele>2205</ele>
        <time>2026-08-04T07:12:28.278Z</time>
      </trkpt>
      <trkpt lat="45.95217" lon="6.8581">
        <ele>2206</ele>
        <time>2026-08-04T07:12:29.278Z</time>
      </trkpt>
      <trkpt lat="45.95216" lon="6.8581">
        <ele>2206</ele>
        <time>2026-08-04T07:12:30.278Z</time>
      </trkpt>
      <trkpt lat="45.95215" lon="6.8581">
        <ele>2207</ele>
        <time>2026-08-04T07:12:31.278Z</time>
      </trkpt>
      <trkpt lat="45.95213" lon="6.8581">
        <ele>2207</ele>
        <time>2026-08-04T07:12:32.278Z</time>
      </trkpt>
      <trkpt lat="45.95212" lon="6.8581">
        <ele>2207</ele>
        <time>2026-08-04T07:12:33.278Z</time>
      </trkpt>
      <trkpt lat="45.95211" lon="6.8581">
        <ele>2207</ele>
        <time>2026-08-04T07:12:34.278Z</time>
      </trkpt>
      <trkpt lat="45.9521" lon="6.85811">
        <ele>2208</ele>
        <time>2026-08-04T07:12:35.278Z</time>
      </trkpt>
      <trkpt lat="45.95209" lon="6.85811">
        <ele>2208</ele>
        <time>2026-08-04T07:12:36.278Z</time>
      </trkpt>
      <trkpt lat="45.95208" lon="6.85812">
        <ele>2209</ele>
        <time>2026-08-04T07:12:37.278Z</time>
      </trkpt>
      <trkpt lat="45.95207" lon="6.85812">
        <ele>2209</ele>
        <time>2026-08-04T07:12:38.278Z</time>
      </trkpt>
      <trkpt lat="45.95206" lon="6.85812">
        <ele>2209</ele>
        <time>2026-08-04T07:12:39.278Z</time>
      </trkpt>
      <trkpt lat="45.95205" lon="6.85812">
        <ele>2210</ele>
        <time>2026-08-04T07:12:40.278Z</time>
      </trkpt>
      <trkpt lat="45.95204" lon="6.85812">
        <ele>2211</ele>
        <time>2026-08-04T07:12:41.278Z</time>
      </trkpt>
      <trkpt lat="45.95203" lon="6.85812">
        <ele>2211</ele>
        <time>2026-08-04T07:12:42.278Z</time>
      </trkpt>
      <trkpt lat="45.95202" lon="6.85811">
        <ele>2211</ele>
        <time>2026-08-04T07:12:43.278Z</time>
      </trkpt>
      <trkpt lat="45.95201" lon="6.85811">
        <ele>2211</ele>
        <time>2026-08-04T07:12:44.278Z</time>
      </trkpt>
      <trkpt lat="45.952" lon="6.85811">
        <ele>2211</ele>
        <time>2026-08-04T07:12:45.278Z</time>
      </trkpt>
      <trkpt lat="45.95199" lon="6.85812">
        <ele>2211</ele>
        <time>2026-08-04T07:12:46.278Z</time>
      </trkpt>
      <trkpt lat="45.95199" lon="6.85812">
        <ele>2211</ele>
        <time>2026-08-04T07:12:47.278Z</time>
      </trkpt>
      <trkpt lat="45.95198" lon="6.85813">
        <ele>2211</ele>
        <time>2026-08-04T07:12:48.278Z</time>
      </trkpt>
      <trkpt lat="45.95197" lon="6.85814">
        <ele>2212</ele>
        <time>2026-08-04T07:12:49.278Z</time>
      </trkpt>
      <trkpt lat="45.95196" lon="6.85814">
        <ele>2212</ele>
        <time>2026-08-04T07:12:50.278Z</time>
      </trkpt>
      <trkpt lat="45.95196" lon="6.85815">
        <ele>2212</ele>
        <time>2026-08-04T07:12:51.278Z</time>
      </trkpt>
      <trkpt lat="45.95195" lon="6.85814">
        <ele>2213</ele>
        <time>2026-08-04T07:12:52.278Z</time>
      </trkpt>
      <trkpt lat="45.95194" lon="6.85813">
        <ele>2213</ele>
        <time>2026-08-04T07:12:53.278Z</time>
      </trkpt>
      <trkpt lat="45.95194" lon="6.85813">
        <ele>2214</ele>
        <time>2026-08-04T07:12:54.278Z</time>
      </trkpt>
      <trkpt lat="45.95193" lon="6.85812">
        <ele>2214</ele>
        <time>2026-08-04T07:12:55.278Z</time>
      </trkpt>
      <trkpt lat="45.95193" lon="6.85813">
        <ele>2214</ele>
        <time>2026-08-04T07:12:56.278Z</time>
      </trkpt>
      <trkpt lat="45.95192" lon="6.85813">
        <ele>2214</ele>
        <time>2026-08-04T07:12:57.278Z</time>
      </trkpt>
      <trkpt lat="45.95191" lon="6.85814">
        <ele>2215</ele>
        <time>2026-08-04T07:12:58.278Z</time>
      </trkpt>
      <trkpt lat="45.9519" lon="6.85815">
        <ele>2215</ele>
        <time>2026-08-04T07:12:59.278Z</time>
      </trkpt>
      <trkpt lat="45.9519" lon="6.85815">
        <ele>2216</ele>
        <time>2026-08-04T07:13:00.278Z</time>
      </trkpt>
      <trkpt lat="45.95189" lon="6.85816">
        <ele>2216</ele>
        <time>2026-08-04T07:13:01.278Z</time>
      </trkpt>
      <trkpt lat="45.95188" lon="6.85816">
        <ele>2216</ele>
        <time>2026-08-04T07:13:02.278Z</time>
      </trkpt>
      <trkpt lat="45.95187" lon="6.85817">
        <ele>2216</ele>
        <time>2026-08-04T07:13:03.278Z</time>
      </trkpt>
      <trkpt lat="45.95186" lon="6.85817">
        <ele>2216</ele>
        <time>2026-08-04T07:13:04.278Z</time>
      </trkpt>
      <trkpt lat="45.95185" lon="6.85817">
        <ele>2216</ele>
        <time>2026-08-04T07:13:05.278Z</time>
      </trkpt>
      <trkpt lat="45.95184" lon="6.85817">
        <ele>2216</ele>
        <time>2026-08-04T07:13:06.278Z</time>
      </trkpt>
      <trkpt lat="45.95183" lon="6.85818">
        <ele>2216</ele>
        <time>2026-08-04T07:13:07.278Z</time>
      </trkpt>
      <trkpt lat="45.95182" lon="6.85818">
        <ele>2216</ele>
        <time>2026-08-04T07:13:08.278Z</time>
      </trkpt>
      <trkpt lat="45.95181" lon="6.85818">
        <ele>2216</ele>
        <time>2026-08-04T07:13:09.278Z</time>
      </trkpt>
      <trkpt lat="45.9518" lon="6.85818">
        <ele>2216</ele>
        <time>2026-08-04T07:13:10.278Z</time>
      </trkpt>
      <trkpt lat="45.95179" lon="6.85818">
        <ele>2217</ele>
        <time>2026-08-04T07:13:11.278Z</time>
      </trkpt>
      <trkpt lat="45.95178" lon="6.85817">
        <ele>2217</ele>
        <time>2026-08-04T07:13:12.278Z</time>
      </trkpt>
      <trkpt lat="45.95177" lon="6.85817">
        <ele>2218</ele>
        <time>2026-08-04T07:13:13.278Z</time>
      </trkpt>
      <trkpt lat="45.95176" lon="6.85815">
        <ele>2218</ele>
        <time>2026-08-04T07:13:14.278Z</time>
      </trkpt>
      <trkpt lat="45.95176" lon="6.85814">
        <ele>2218</ele>
        <time>2026-08-04T07:13:15.278Z</time>
      </trkpt>
      <trkpt lat="45.95176" lon="6.85813">
        <ele>2218</ele>
        <time>2026-08-04T07:13:16.278Z</time>
      </trkpt>
      <trkpt lat="45.95176" lon="6.85811">
        <ele>2218</ele>
        <time>2026-08-04T07:13:17.278Z</time>
      </trkpt>
      <trkpt lat="45.95176" lon="6.8581">
        <ele>2218</ele>
        <time>2026-08-04T07:13:18.278Z</time>
      </trkpt>
      <trkpt lat="45.95177" lon="6.8581">
        <ele>2218</ele>
        <time>2026-08-04T07:13:19.278Z</time>
      </trkpt>
      <trkpt lat="45.95178" lon="6.85809">
        <ele>2219</ele>
        <time>2026-08-04T07:13:20.278Z</time>
      </trkpt>
      <trkpt lat="45.95178" lon="6.85808">
        <ele>2219</ele>
        <time>2026-08-04T07:13:21.278Z</time>
      </trkpt>
      <trkpt lat="45.95179" lon="6.85808">
        <ele>2219</ele>
        <time>2026-08-04T07:13:22.278Z</time>
      </trkpt>
      <trkpt lat="45.95179" lon="6.85808">
        <ele>2220</ele>
        <time>2026-08-04T07:13:23.278Z</time>
      </trkpt>
      <trkpt lat="45.9518" lon="6.85807">
        <ele>2220</ele>
        <time>2026-08-04T07:13:24.278Z</time>
      </trkpt>
      <trkpt lat="45.9518" lon="6.85807">
        <ele>2220</ele>
        <time>2026-08-04T07:13:25.278Z</time>
      </trkpt>
      <trkpt lat="45.9518" lon="6.85807">
        <ele>2221</ele>
        <time>2026-08-04T07:13:26.278Z</time>
      </trkpt>
      <trkpt lat="45.95181" lon="6.85807">
        <ele>2221</ele>
        <time>2026-08-04T07:13:27.278Z</time>
      </trkpt>
      <trkpt lat="45.95181" lon="6.85806">
        <ele>2222</ele>
        <time>2026-08-04T07:13:28.278Z</time>
      </trkpt>
      <trkpt lat="45.95182" lon="6.85806">
        <ele>2222</ele>
        <time>2026-08-04T07:13:29.278Z</time>
      </trkpt>
      <trkpt lat="45.95182" lon="6.85805">
        <ele>2222</ele>
        <time>2026-08-04T07:13:30.278Z</time>
      </trkpt>
      <trkpt lat="45.95183" lon="6.85804">
        <ele>2223</ele>
        <time>2026-08-04T07:13:31.278Z</time>
      </trkpt>
      <trkpt lat="45.95183" lon="6.85804">
        <ele>2223</ele>
        <time>2026-08-04T07:13:32.279Z</time>
      </trkpt>
      <trkpt lat="45.95183" lon="6.85803">
        <ele>2222</ele>
        <time>2026-08-04T07:13:33.278Z</time>
      </trkpt>
      <trkpt lat="45.95184" lon="6.85803">
        <ele>2222</ele>
        <time>2026-08-04T07:13:34.278Z</time>
      </trkpt>
      <trkpt lat="45.95184" lon="6.85803">
        <ele>2223</ele>
        <time>2026-08-04T07:13:35.278Z</time>
      </trkpt>
      <trkpt lat="45.95184" lon="6.85802">
        <ele>2223</ele>
        <time>2026-08-04T07:13:36.278Z</time>
      </trkpt>
      <trkpt lat="45.95184" lon="6.85802">
        <ele>2223</ele>
        <time>2026-08-04T07:13:37.278Z</time>
      </trkpt>
      <trkpt lat="45.95184" lon="6.85802">
        <ele>2223</ele>
        <time>2026-08-04T07:13:38.278Z</time>
      </trkpt>
      <trkpt lat="45.95184" lon="6.85801">
        <ele>2223</ele>
        <time>2026-08-04T07:13:39.278Z</time>
      </trkpt>
      <trkpt lat="45.95185" lon="6.85801">
        <ele>2223</ele>
        <time>2026-08-04T07:13:40.278Z</time>
      </trkpt>
      <trkpt lat="45.95185" lon="6.858">
        <ele>2223</ele>
        <time>2026-08-04T07:13:41.278Z</time>
      </trkpt>
      <trkpt lat="45.95185" lon="6.85799">
        <ele>2223</ele>
        <time>2026-08-04T07:13:42.278Z</time>
      </trkpt>
      <trkpt lat="45.95185" lon="6.85799">
        <ele>2223</ele>
        <time>2026-08-04T07:13:43.278Z</time>
      </trkpt>
      <trkpt lat="45.95185" lon="6.85799">
        <ele>2223</ele>
        <time>2026-08-04T07:13:44.278Z</time>
      </trkpt>
      <trkpt lat="45.95185" lon="6.85798">
        <ele>2224</ele>
        <time>2026-08-04T07:13:45.278Z</time>
      </trkpt>
      <trkpt lat="45.95186" lon="6.85798">
        <ele>2224</ele>
        <time>2026-08-04T07:13:46.278Z</time>
      </trkpt>
      <trkpt lat="45.95186" lon="6.85797">
        <ele>2224</ele>
        <time>2026-08-04T07:13:47.278Z</time>
      </trkpt>
      <trkpt lat="45.95186" lon="6.85797">
        <ele>2225</ele>
        <time>2026-08-04T07:13:48.278Z</time>
      </trkpt>
      <trkpt lat="45.95187" lon="6.85796">
        <ele>2225</ele>
        <time>2026-08-04T07:13:49.278Z</time>
      </trkpt>
      <trkpt lat="45.95187" lon="6.85795">
        <ele>2225</ele>
        <time>2026-08-04T07:13:50.278Z</time>
      </trkpt>
      <trkpt lat="45.95187" lon="6.85795">
        <ele>2225</ele>
        <time>2026-08-04T07:13:51.278Z</time>
      </trkpt>
      <trkpt lat="45.95188" lon="6.85795">
        <ele>2225</ele>
        <time>2026-08-04T07:13:52.278Z</time>
      </trkpt>
      <trkpt lat="45.95188" lon="6.85794">
        <ele>2225</ele>
        <time>2026-08-04T07:13:53.278Z</time>
      </trkpt>
      <trkpt lat="45.95188" lon="6.85794">
        <ele>2225</ele>
        <time>2026-08-04T07:13:54.278Z</time>
      </trkpt>
      <trkpt lat="45.95189" lon="6.85794">
        <ele>2225</ele>
        <time>2026-08-04T07:13:55.278Z</time>
      </trkpt>
      <trkpt lat="45.95189" lon="6.85794">
        <ele>2225</ele>
        <time>2026-08-04T07:13:56.278Z</time>
      </trkpt>
      <trkpt lat="45.95189" lon="6.85794">
        <ele>2225</ele>
        <time>2026-08-04T07:13:57.278Z</time>
      </trkpt>
      <trkpt lat="45.95189" lon="6.85794">
        <ele>2225</ele>
        <time>2026-08-04T07:13:58.278Z</time>
      </trkpt>
      <trkpt lat="45.95189" lon="6.85794">
        <ele>2226</ele>
        <time>2026-08-04T07:13:59.278Z</time>
      </trkpt>
      <trkpt lat="45.9519" lon="6.85793">
        <ele>2226</ele>
        <time>2026-08-04T07:14:00.278Z</time>
      </trkpt>
      <trkpt lat="45.9519" lon="6.85793">
        <ele>2226</ele>
        <time>2026-08-04T07:14:01.278Z</time>
      </trkpt>
      <trkpt lat="45.9519" lon="6.85793">
        <ele>2226</ele>
        <time>2026-08-04T07:14:02.278Z</time>
      </trkpt>
      <trkpt lat="45.95191" lon="6.85793">
        <ele>2227</ele>
        <time>2026-08-04T07:14:03.278Z</time>
      </trkpt>
      <trkpt lat="45.95191" lon="6.85792">
        <ele>2227</ele>
        <time>2026-08-04T07:14:04.278Z</time>
      </trkpt>
      <trkpt lat="45.95191" lon="6.85792">
        <ele>2228</ele>
        <time>2026-08-04T07:14:05.278Z</time>
      </trkpt>
      <trkpt lat="45.95192" lon="6.85792">
        <ele>2228</ele>
        <time>2026-08-04T07:14:06.278Z</time>
      </trkpt>
      <trkpt lat="45.95192" lon="6.85792">
        <ele>2229</ele>
        <time>2026-08-04T07:14:07.278Z</time>
      </trkpt>
      <trkpt lat="45.95192" lon="6.85791">
        <ele>2230</ele>
        <time>2026-08-04T07:14:08.278Z</time>
      </trkpt>
      <trkpt lat="45.95192" lon="6.85791">
        <ele>2230</ele>
        <time>2026-08-04T07:14:09.278Z</time>
      </trkpt>
      <trkpt lat="45.95192" lon="6.85791">
        <ele>2231</ele>
        <time>2026-08-04T07:14:10.278Z</time>
      </trkpt>
      <trkpt lat="45.95192" lon="6.8579">
        <ele>2231</ele>
        <time>2026-08-04T07:14:11.278Z</time>
      </trkpt>
      <trkpt lat="45.95193" lon="6.8579">
        <ele>2231</ele>
        <time>2026-08-04T07:14:12.278Z</time>
      </trkpt>
      <trkpt lat="45.95193" lon="6.8579">
        <ele>2231</ele>
        <time>2026-08-04T07:14:13.278Z</time>
      </trkpt>
      <trkpt lat="45.95193" lon="6.8579">
        <ele>2231</ele>
        <time>2026-08-04T07:14:14.278Z</time>
      </trkpt>
      <trkpt lat="45.95193" lon="6.8579">
        <ele>2231</ele>
        <time>2026-08-04T07:14:15.278Z</time>
      </trkpt>
      <trkpt lat="45.95193" lon="6.85789">
        <ele>2231</ele>
        <time>2026-08-04T07:14:16.278Z</time>
      </trkpt>
      <trkpt lat="45.95194" lon="6.85789">
        <ele>2231</ele>
        <time>2026-08-04T07:14:17.278Z</time>
      </trkpt>
      <trkpt lat="45.95194" lon="6.85788">
        <ele>2231</ele>
        <time>2026-08-04T07:14:18.278Z</time>
      </trkpt>
      <trkpt lat="45.95195" lon="6.85788">
        <ele>2231</ele>
        <time>2026-08-04T07:14:19.278Z</time>
      </trkpt>
      <trkpt lat="45.95195" lon="6.85788">
        <ele>2232</ele>
        <time>2026-08-04T07:14:20.278Z</time>
      </trkpt>
      <trkpt lat="45.95196" lon="6.85788">
        <ele>2232</ele>
        <time>2026-08-04T07:14:21.278Z</time>
      </trkpt>
      <trkpt lat="45.95197" lon="6.85788">
        <ele>2232</ele>
        <time>2026-08-04T07:14:22.278Z</time>
      </trkpt>
      <trkpt lat="45.95197" lon="6.85787">
        <ele>2232</ele>
        <time>2026-08-04T07:14:23.278Z</time>
      </trkpt>
      <trkpt lat="45.95198" lon="6.85787">
        <ele>2233</ele>
        <time>2026-08-04T07:14:24.278Z</time>
      </trkpt>
      <trkpt lat="45.95198" lon="6.85786">
        <ele>2233</ele>
        <time>2026-08-04T07:14:25.278Z</time>
      </trkpt>
      <trkpt lat="45.95198" lon="6.85786">
        <ele>2233</ele>
        <time>2026-08-04T07:14:26.278Z</time>
      </trkpt>
      <trkpt lat="45.95199" lon="6.85785">
        <ele>2233</ele>
        <time>2026-08-04T07:14:27.278Z</time>
      </trkpt>
      <trkpt lat="45.95199" lon="6.85784">
        <ele>2233</ele>
        <time>2026-08-04T07:14:28.278Z</time>
      </trkpt>
      <trkpt lat="45.952" lon="6.85783">
        <ele>2233</ele>
        <time>2026-08-04T07:14:29.278Z</time>
      </trkpt>
      <trkpt lat="45.952" lon="6.85782">
        <ele>2233</ele>
        <time>2026-08-04T07:14:30.278Z</time>
      </trkpt>
      <trkpt lat="45.95201" lon="6.85782">
        <ele>2233</ele>
        <time>2026-08-04T07:14:31.278Z</time>
      </trkpt>
      <trkpt lat="45.95201" lon="6.85781">
        <ele>2233</ele>
        <time>2026-08-04T07:14:32.278Z</time>
      </trkpt>
      <trkpt lat="45.95201" lon="6.8578">
        <ele>2233</ele>
        <time>2026-08-04T07:14:33.278Z</time>
      </trkpt>
      <trkpt lat="45.95201" lon="6.85779">
        <ele>2232</ele>
        <time>2026-08-04T07:14:34.278Z</time>
      </trkpt>
      <trkpt lat="45.95202" lon="6.85778">
        <ele>2232</ele>
        <time>2026-08-04T07:14:35.278Z</time>
      </trkpt>
      <trkpt lat="45.95203" lon="6.85776">
        <ele>2232</ele>
        <time>2026-08-04T07:14:36.278Z</time>
      </trkpt>
      <trkpt lat="45.95203" lon="6.85775">
        <ele>2231</ele>
        <time>2026-08-04T07:14:37.278Z</time>
      </trkpt>
      <trkpt lat="45.95203" lon="6.85774">
        <ele>2231</ele>
        <time>2026-08-04T07:14:38.279Z</time>
      </trkpt>
      <trkpt lat="45.95204" lon="6.85773">
        <ele>2230</ele>
        <time>2026-08-04T07:14:39.278Z</time>
      </trkpt>
      <trkpt lat="45.95204" lon="6.85772">
        <ele>2230</ele>
        <time>2026-08-04T07:14:40.278Z</time>
      </trkpt>
      <trkpt lat="45.95204" lon="6.85772">
        <ele>2229</ele>
        <time>2026-08-04T07:14:41.278Z</time>
      </trkpt>
      <trkpt lat="45.95205" lon="6.85772">
        <ele>2229</ele>
        <time>2026-08-04T07:14:42.278Z</time>
      </trkpt>
      <trkpt lat="45.95205" lon="6.85771">
        <ele>2228</ele>
        <time>2026-08-04T07:14:43.278Z</time>
      </trkpt>
      <trkpt lat="45.95206" lon="6.8577">
        <ele>2228</ele>
        <time>2026-08-04T07:14:44.278Z</time>
      </trkpt>
      <trkpt lat="45.95207" lon="6.85769">
        <ele>2228</ele>
        <time>2026-08-04T07:14:45.278Z</time>
      </trkpt>
      <trkpt lat="45.95207" lon="6.85769">
        <ele>2228</ele>
        <time>2026-08-04T07:14:46.278Z</time>
      </trkpt>
      <trkpt lat="45.95208" lon="6.85768">
        <ele>2229</ele>
        <time>2026-08-04T07:14:47.278Z</time>
      </trkpt>
      <trkpt lat="45.95208" lon="6.85767">
        <ele>2230</ele>
        <time>2026-08-04T07:14:48.278Z</time>
      </trkpt>
      <trkpt lat="45.95209" lon="6.85767">
        <ele>2230</ele>
        <time>2026-08-04T07:14:49.278Z</time>
      </trkpt>
      <trkpt lat="45.9521" lon="6.85767">
        <ele>2231</ele>
        <time>2026-08-04T07:14:50.278Z</time>
      </trkpt>
      <trkpt lat="45.9521" lon="6.85766">
        <ele>2231</ele>
        <time>2026-08-04T07:14:51.278Z</time>
      </trkpt>
      <trkpt lat="45.95211" lon="6.85766">
        <ele>2231</ele>
        <time>2026-08-04T07:14:52.278Z</time>
      </trkpt>
      <trkpt lat="45.95211" lon="6.85766">
        <ele>2232</ele>
        <time>2026-08-04T07:14:53.278Z</time>
      </trkpt>
      <trkpt lat="45.95212" lon="6.85767">
        <ele>2232</ele>
        <time>2026-08-04T07:14:54.278Z</time>
      </trkpt>
      <trkpt lat="45.95213" lon="6.85767">
        <ele>2232</ele>
        <time>2026-08-04T07:14:55.278Z</time>
      </trkpt>
      <trkpt lat="45.95213" lon="6.85766">
        <ele>2233</ele>
        <time>2026-08-04T07:14:56.278Z</time>
      </trkpt>
      <trkpt lat="45.95214" lon="6.85766">
        <ele>2232</ele>
        <time>2026-08-04T07:14:57.278Z</time>
      </trkpt>
      <trkpt lat="45.95215" lon="6.85765">
        <ele>2232</ele>
        <time>2026-08-04T07:14:58.278Z</time>
      </trkpt>
      <trkpt lat="45.95215" lon="6.85765">
        <ele>2232</ele>
        <time>2026-08-04T07:14:59.278Z</time>
      </trkpt>
      <trkpt lat="45.95216" lon="6.85765">
        <ele>2233</ele>
        <time>2026-08-04T07:15:00.278Z</time>
      </trkpt>
      <trkpt lat="45.95216" lon="6.85764">
        <ele>2233</ele>
        <time>2026-08-04T07:15:01.278Z</time>
      </trkpt>
      <trkpt lat="45.95217" lon="6.85764">
        <ele>2233</ele>
        <time>2026-08-04T07:15:02.278Z</time>
      </trkpt>
      <trkpt lat="45.95217" lon="6.85764">
        <ele>2233</ele>
        <time>2026-08-04T07:15:03.278Z</time>
      </trkpt>
      <trkpt lat="45.95218" lon="6.85764">
        <ele>2234</ele>
        <time>2026-08-04T07:15:04.278Z</time>
      </trkpt>
      <trkpt lat="45.95218" lon="6.85764">
        <ele>2234</ele>
        <time>2026-08-04T07:15:05.278Z</time>
      </trkpt>
      <trkpt lat="45.95217" lon="6.85763">
        <ele>2235</ele>
        <time>2026-08-04T07:15:06.278Z</time>
      </trkpt>
      <trkpt lat="45.95217" lon="6.85762">
        <ele>2235</ele>
        <time>2026-08-04T07:15:07.278Z</time>
      </trkpt>
      <trkpt lat="45.95217" lon="6.85761">
        <ele>2236</ele>
        <time>2026-08-04T07:15:08.278Z</time>
      </trkpt>
      <trkpt lat="45.95218" lon="6.85761">
        <ele>2236</ele>
        <time>2026-08-04T07:15:09.278Z</time>
      </trkpt>
      <trkpt lat="45.95218" lon="6.85761">
        <ele>2236</ele>
        <time>2026-08-04T07:15:10.278Z</time>
      </trkpt>
      <trkpt lat="45.95218" lon="6.8576">
        <ele>2237</ele>
        <time>2026-08-04T07:15:11.278Z</time>
      </trkpt>
      <trkpt lat="45.95218" lon="6.8576">
        <ele>2237</ele>
        <time>2026-08-04T07:15:12.278Z</time>
      </trkpt>
      <trkpt lat="45.95218" lon="6.85759">
        <ele>2237</ele>
        <time>2026-08-04T07:15:13.278Z</time>
      </trkpt>
      <trkpt lat="45.95217" lon="6.85759">
        <ele>2238</ele>
        <time>2026-08-04T07:15:14.278Z</time>
      </trkpt>
      <trkpt lat="45.95217" lon="6.85758">
        <ele>2238</ele>
        <time>2026-08-04T07:15:15.278Z</time>
      </trkpt>
      <trkpt lat="45.95218" lon="6.85758">
        <ele>2238</ele>
        <time>2026-08-04T07:15:16.278Z</time>
      </trkpt>
      <trkpt lat="45.95218" lon="6.85757">
        <ele>2238</ele>
        <time>2026-08-04T07:15:17.278Z</time>
      </trkpt>
      <trkpt lat="45.95218" lon="6.85757">
        <ele>2238</ele>
        <time>2026-08-04T07:15:18.278Z</time>
      </trkpt>
      <trkpt lat="45.95218" lon="6.85756">
        <ele>2238</ele>
        <time>2026-08-04T07:15:19.278Z</time>
      </trkpt>
      <trkpt lat="45.95219" lon="6.85756">
        <ele>2239</ele>
        <time>2026-08-04T07:15:20.278Z</time>
      </trkpt>
      <trkpt lat="45.9522" lon="6.85756">
        <ele>2239</ele>
        <time>2026-08-04T07:15:21.278Z</time>
      </trkpt>
      <trkpt lat="45.95221" lon="6.85756">
        <ele>2239</ele>
        <time>2026-08-04T07:15:22.278Z</time>
      </trkpt>
      <trkpt lat="45.95221" lon="6.85755">
        <ele>2240</ele>
        <time>2026-08-04T07:15:23.278Z</time>
      </trkpt>
      <trkpt lat="45.95221" lon="6.85754">
        <ele>2240</ele>
        <time>2026-08-04T07:15:24.278Z</time>
      </trkpt>
      <trkpt lat="45.95221" lon="6.85753">
        <ele>2241</ele>
        <time>2026-08-04T07:15:25.278Z</time>
      </trkpt>
      <trkpt lat="45.95221" lon="6.85753">
        <ele>2241</ele>
        <time>2026-08-04T07:15:26.278Z</time>
      </trkpt>
      <trkpt lat="45.95221" lon="6.85752">
        <ele>2241</ele>
        <time>2026-08-04T07:15:27.278Z</time>
      </trkpt>
      <trkpt lat="45.95221" lon="6.85751">
        <ele>2241</ele>
        <time>2026-08-04T07:15:28.278Z</time>
      </trkpt>
      <trkpt lat="45.95221" lon="6.85751">
        <ele>2241</ele>
        <time>2026-08-04T07:15:29.278Z</time>
      </trkpt>
      <trkpt lat="45.9522" lon="6.85751">
        <ele>2241</ele>
        <time>2026-08-04T07:15:30.278Z</time>
      </trkpt>
      <trkpt lat="45.95219" lon="6.85751">
        <ele>2241</ele>
        <time>2026-08-04T07:15:31.278Z</time>
      </trkpt>
      <trkpt lat="45.95219" lon="6.8575">
        <ele>2241</ele>
        <time>2026-08-04T07:15:32.278Z</time>
      </trkpt>
      <trkpt lat="45.95218" lon="6.8575">
        <ele>2241</ele>
        <time>2026-08-04T07:15:33.278Z</time>
      </trkpt>
      <trkpt lat="45.95217" lon="6.8575">
        <ele>2241</ele>
        <time>2026-08-04T07:15:34.278Z</time>
      </trkpt>
      <trkpt lat="45.95217" lon="6.8575">
        <ele>2241</ele>
        <time>2026-08-04T07:15:35.278Z</time>
      </trkpt>
      <trkpt lat="45.95216" lon="6.85749">
        <ele>2241</ele>
        <time>2026-08-04T07:15:36.278Z</time>
      </trkpt>
      <trkpt lat="45.95215" lon="6.85748">
        <ele>2242</ele>
        <time>2026-08-04T07:15:37.278Z</time>
      </trkpt>
      <trkpt lat="45.95216" lon="6.85747">
        <ele>2242</ele>
        <time>2026-08-04T07:15:38.278Z</time>
      </trkpt>
      <trkpt lat="45.95216" lon="6.85746">
        <ele>2243</ele>
        <time>2026-08-04T07:15:39.278Z</time>
      </trkpt>
      <trkpt lat="45.95217" lon="6.85746">
        <ele>2243</ele>
        <time>2026-08-04T07:15:40.278Z</time>
      </trkpt>
      <trkpt lat="45.95218" lon="6.85745">
        <ele>2244</ele>
        <time>2026-08-04T07:15:41.278Z</time>
      </trkpt>
      <trkpt lat="45.95219" lon="6.85745">
        <ele>2244</ele>
        <time>2026-08-04T07:15:42.278Z</time>
      </trkpt>
      <trkpt lat="45.9522" lon="6.85744">
        <ele>2244</ele>
        <time>2026-08-04T07:15:43.278Z</time>
      </trkpt>
      <trkpt lat="45.9522" lon="6.85743">
        <ele>2245</ele>
        <time>2026-08-04T07:15:44.278Z</time>
      </trkpt>
      <trkpt lat="45.95221" lon="6.85742">
        <ele>2245</ele>
        <time>2026-08-04T07:15:45.278Z</time>
      </trkpt>
      <trkpt lat="45.95221" lon="6.8574">
        <ele>2245</ele>
        <time>2026-08-04T07:15:46.278Z</time>
      </trkpt>
      <trkpt lat="45.95222" lon="6.85739">
        <ele>2245</ele>
        <time>2026-08-04T07:15:47.278Z</time>
      </trkpt>
      <trkpt lat="45.95222" lon="6.85738">
        <ele>2246</ele>
        <time>2026-08-04T07:15:48.278Z</time>
      </trkpt>
      <trkpt lat="45.95223" lon="6.85738">
        <ele>2246</ele>
        <time>2026-08-04T07:15:49.278Z</time>
      </trkpt>
      <trkpt lat="45.95223" lon="6.85737">
        <ele>2246</ele>
        <time>2026-08-04T07:15:50.278Z</time>
      </trkpt>
      <trkpt lat="45.95224" lon="6.85736">
        <ele>2246</ele>
        <time>2026-08-04T07:15:51.278Z</time>
      </trkpt>
      <trkpt lat="45.95225" lon="6.85735">
        <ele>2247</ele>
        <time>2026-08-04T07:15:52.278Z</time>
      </trkpt>
      <trkpt lat="45.95225" lon="6.85735">
        <ele>2247</ele>
        <time>2026-08-04T07:15:53.278Z</time>
      </trkpt>
      <trkpt lat="45.95225" lon="6.85734">
        <ele>2247</ele>
        <time>2026-08-04T07:15:54.278Z</time>
      </trkpt>
      <trkpt lat="45.95226" lon="6.85733">
        <ele>2248</ele>
        <time>2026-08-04T07:15:55.278Z</time>
      </trkpt>
      <trkpt lat="45.95227" lon="6.85732">
        <ele>2248</ele>
        <time>2026-08-04T07:15:56.278Z</time>
      </trkpt>
      <trkpt lat="45.95228" lon="6.85731">
        <ele>2248</ele>
        <time>2026-08-04T07:15:57.278Z</time>
      </trkpt>
      <trkpt lat="45.95228" lon="6.85731">
        <ele>2247</ele>
        <time>2026-08-04T07:15:58.278Z</time>
      </trkpt>
      <trkpt lat="45.95229" lon="6.85731">
        <ele>2247</ele>
        <time>2026-08-04T07:15:59.278Z</time>
      </trkpt>
      <trkpt lat="45.95229" lon="6.85731">
        <ele>2247</ele>
        <time>2026-08-04T07:16:00.278Z</time>
      </trkpt>
      <trkpt lat="45.95229" lon="6.85731">
        <ele>2247</ele>
        <time>2026-08-04T07:16:01.278Z</time>
      </trkpt>
      <trkpt lat="45.95229" lon="6.85731">
        <ele>2247</ele>
        <time>2026-08-04T07:16:02.278Z</time>
      </trkpt>
      <trkpt lat="45.95229" lon="6.85731">
        <ele>2247</ele>
        <time>2026-08-04T07:16:03.278Z</time>
      </trkpt>
      <trkpt lat="45.95229" lon="6.85731">
        <ele>2247</ele>
        <time>2026-08-04T07:16:04.278Z</time>
      </trkpt>
      <trkpt lat="45.95229" lon="6.85731">
        <ele>2247</ele>
        <time>2026-08-04T07:16:05.278Z</time>
      </trkpt>
      <trkpt lat="45.95229" lon="6.85731">
        <ele>2247</ele>
        <time>2026-08-04T07:16:06.278Z</time>
      </trkpt>
      <trkpt lat="45.9523" lon="6.85731">
        <ele>2247</ele>
        <time>2026-08-04T07:16:07.278Z</time>
      </trkpt>
      <trkpt lat="45.9523" lon="6.85731">
        <ele>2247</ele>
        <time>2026-08-04T07:16:08.278Z</time>
      </trkpt>
      <trkpt lat="45.9523" lon="6.85731">
        <ele>2247</ele>
        <time>2026-08-04T07:16:09.278Z</time>
      </trkpt>
      <trkpt lat="45.9523" lon="6.85731">
        <ele>2247</ele>
        <time>2026-08-04T07:16:10.278Z</time>
      </trkpt>
      <trkpt lat="45.9523" lon="6.85731">
        <ele>2248</ele>
        <time>2026-08-04T07:16:11.278Z</time>
      </trkpt>
      <trkpt lat="45.9523" lon="6.85731">
        <ele>2248</ele>
        <time>2026-08-04T07:16:12.278Z</time>
      </trkpt>
      <trkpt lat="45.9523" lon="6.85731">
        <ele>2248</ele>
        <time>2026-08-04T07:16:13.278Z</time>
      </trkpt>
      <trkpt lat="45.9523" lon="6.85731">
        <ele>2248</ele>
        <time>2026-08-04T07:16:14.278Z</time>
      </trkpt>
      <trkpt lat="45.9523" lon="6.85731">
        <ele>2248</ele>
        <time>2026-08-04T07:16:15.278Z</time>
      </trkpt>
      <trkpt lat="45.9523" lon="6.85731">
        <ele>2248</ele>
        <time>2026-08-04T07:16:16.278Z</time>
      </trkpt>
      <trkpt lat="45.9523" lon="6.85731">
        <ele>2248</ele>
        <time>2026-08-04T07:16:17.278Z</time>
      </trkpt>
      <trkpt lat="45.9523" lon="6.85731">
        <ele>2248</ele>
        <time>2026-08-04T07:16:18.278Z</time>
      </trkpt>
      <trkpt lat="45.9523" lon="6.85731">
        <ele>2248</ele>
        <time>2026-08-04T07:16:19.278Z</time>
      </trkpt>
      <trkpt lat="45.9523" lon="6.85731">
        <ele>2248</ele>
        <time>2026-08-04T07:16:20.278Z</time>
      </trkpt>
      <trkpt lat="45.95231" lon="6.8573">
        <ele>2248</ele>
        <time>2026-08-04T07:16:21.278Z</time>
      </trkpt>
      <trkpt lat="45.95233" lon="6.85729">
        <ele>2248</ele>
        <time>2026-08-04T07:16:22.278Z</time>
      </trkpt>
      <trkpt lat="45.95233" lon="6.85729">
        <ele>2248</ele>
        <time>2026-08-04T07:16:23.278Z</time>
      </trkpt>
      <trkpt lat="45.95234" lon="6.85729">
        <ele>2248</ele>
        <time>2026-08-04T07:16:24.278Z</time>
      </trkpt>
      <trkpt lat="45.95235" lon="6.85728">
        <ele>2248</ele>
        <time>2026-08-04T07:16:25.278Z</time>
      </trkpt>
      <trkpt lat="45.95237" lon="6.85728">
        <ele>2248</ele>
        <time>2026-08-04T07:16:26.278Z</time>
      </trkpt>
      <trkpt lat="45.95238" lon="6.85727">
        <ele>2248</ele>
        <time>2026-08-04T07:16:27.278Z</time>
      </trkpt>
      <trkpt lat="45.95239" lon="6.85726">
        <ele>2248</ele>
        <time>2026-08-04T07:16:28.278Z</time>
      </trkpt>
      <trkpt lat="45.9524" lon="6.85725">
        <ele>2248</ele>
        <time>2026-08-04T07:16:29.278Z</time>
      </trkpt>
      <trkpt lat="45.95241" lon="6.85725">
        <ele>2248</ele>
        <time>2026-08-04T07:16:30.278Z</time>
      </trkpt>
      <trkpt lat="45.95242" lon="6.85723">
        <ele>2248</ele>
        <time>2026-08-04T07:16:31.278Z</time>
      </trkpt>
      <trkpt lat="45.95242" lon="6.85722">
        <ele>2248</ele>
        <time>2026-08-04T07:16:32.278Z</time>
      </trkpt>
      <trkpt lat="45.95242" lon="6.85721">
        <ele>2249</ele>
        <time>2026-08-04T07:16:33.278Z</time>
      </trkpt>
      <trkpt lat="45.95242" lon="6.85721">
        <ele>2249</ele>
        <time>2026-08-04T07:16:34.278Z</time>
      </trkpt>
      <trkpt lat="45.95243" lon="6.8572">
        <ele>2249</ele>
        <time>2026-08-04T07:16:35.278Z</time>
      </trkpt>
      <trkpt lat="45.95243" lon="6.8572">
        <ele>2249</ele>
        <time>2026-08-04T07:16:36.278Z</time>
      </trkpt>
      <trkpt lat="45.95244" lon="6.8572">
        <ele>2250</ele>
        <time>2026-08-04T07:16:37.278Z</time>
      </trkpt>
      <trkpt lat="45.95244" lon="6.85719">
        <ele>2250</ele>
        <time>2026-08-04T07:16:38.278Z</time>
      </trkpt>
      <trkpt lat="45.95244" lon="6.85719">
        <ele>2251</ele>
        <time>2026-08-04T07:16:39.278Z</time>
      </trkpt>
      <trkpt lat="45.95245" lon="6.85718">
        <ele>2251</ele>
        <time>2026-08-04T07:16:40.278Z</time>
      </trkpt>
      <trkpt lat="45.95245" lon="6.85718">
        <ele>2252</ele>
        <time>2026-08-04T07:16:41.278Z</time>
      </trkpt>
      <trkpt lat="45.95245" lon="6.85717">
        <ele>2252</ele>
        <time>2026-08-04T07:16:42.278Z</time>
      </trkpt>
      <trkpt lat="45.95246" lon="6.85717">
        <ele>2252</ele>
        <time>2026-08-04T07:16:43.278Z</time>
      </trkpt>
      <trkpt lat="45.95246" lon="6.85717">
        <ele>2253</ele>
        <time>2026-08-04T07:16:44.278Z</time>
      </trkpt>
      <trkpt lat="45.95247" lon="6.85718">
        <ele>2253</ele>
        <time>2026-08-04T07:16:45.278Z</time>
      </trkpt>
      <trkpt lat="45.95247" lon="6.85718">
        <ele>2253</ele>
        <time>2026-08-04T07:16:46.278Z</time>
      </trkpt>
      <trkpt lat="45.95247" lon="6.85719">
        <ele>2253</ele>
        <time>2026-08-04T07:16:47.278Z</time>
      </trkpt>
      <trkpt lat="45.95247" lon="6.8572">
        <ele>2253</ele>
        <time>2026-08-04T07:16:48.278Z</time>
      </trkpt>
      <trkpt lat="45.95247" lon="6.8572">
        <ele>2254</ele>
        <time>2026-08-04T07:16:49.278Z</time>
      </trkpt>
      <trkpt lat="45.95248" lon="6.85721">
        <ele>2254</ele>
        <time>2026-08-04T07:16:50.278Z</time>
      </trkpt>
      <trkpt lat="45.95249" lon="6.85721">
        <ele>2254</ele>
        <time>2026-08-04T07:16:51.278Z</time>
      </trkpt>
      <trkpt lat="45.9525" lon="6.85721">
        <ele>2254</ele>
        <time>2026-08-04T07:16:52.278Z</time>
      </trkpt>
      <trkpt lat="45.9525" lon="6.85722">
        <ele>2254</ele>
        <time>2026-08-04T07:16:53.278Z</time>
      </trkpt>
      <trkpt lat="45.95251" lon="6.85723">
        <ele>2254</ele>
        <time>2026-08-04T07:16:54.278Z</time>
      </trkpt>
      <trkpt lat="45.95251" lon="6.85724">
        <ele>2255</ele>
        <time>2026-08-04T07:16:55.278Z</time>
      </trkpt>
      <trkpt lat="45.95252" lon="6.85724">
        <ele>2255</ele>
        <time>2026-08-04T07:16:56.278Z</time>
      </trkpt>
      <trkpt lat="45.95252" lon="6.85725">
        <ele>2255</ele>
        <time>2026-08-04T07:16:57.278Z</time>
      </trkpt>
      <trkpt lat="45.95253" lon="6.85726">
        <ele>2255</ele>
        <time>2026-08-04T07:16:58.278Z</time>
      </trkpt>
      <trkpt lat="45.95253" lon="6.85727">
        <ele>2255</ele>
        <time>2026-08-04T07:16:59.278Z</time>
      </trkpt>
      <trkpt lat="45.95253" lon="6.85727">
        <ele>2255</ele>
        <time>2026-08-04T07:17:00.278Z</time>
      </trkpt>
      <trkpt lat="45.95254" lon="6.85728">
        <ele>2256</ele>
        <time>2026-08-04T07:17:01.278Z</time>
      </trkpt>
      <trkpt lat="45.95254" lon="6.85728">
        <ele>2256</ele>
        <time>2026-08-04T07:17:02.278Z</time>
      </trkpt>
      <trkpt lat="45.95255" lon="6.85728">
        <ele>2256</ele>
        <time>2026-08-04T07:17:03.278Z</time>
      </trkpt>
      <trkpt lat="45.95255" lon="6.85728">
        <ele>2257</ele>
        <time>2026-08-04T07:17:04.278Z</time>
      </trkpt>
      <trkpt lat="45.95255" lon="6.85728">
        <ele>2257</ele>
        <time>2026-08-04T07:17:05.278Z</time>
      </trkpt>
      <trkpt lat="45.95255" lon="6.85727">
        <ele>2258</ele>
        <time>2026-08-04T07:17:06.278Z</time>
      </trkpt>
      <trkpt lat="45.95255" lon="6.85727">
        <ele>2258</ele>
        <time>2026-08-04T07:17:07.278Z</time>
      </trkpt>
      <trkpt lat="45.95255" lon="6.85727">
        <ele>2258</ele>
        <time>2026-08-04T07:17:08.278Z</time>
      </trkpt>
      <trkpt lat="45.95255" lon="6.85727">
        <ele>2258</ele>
        <time>2026-08-04T07:17:09.278Z</time>
      </trkpt>
      <trkpt lat="45.95255" lon="6.85727">
        <ele>2259</ele>
        <time>2026-08-04T07:17:10.278Z</time>
      </trkpt>
      <trkpt lat="45.95255" lon="6.85726">
        <ele>2259</ele>
        <time>2026-08-04T07:17:11.278Z</time>
      </trkpt>
      <trkpt lat="45.95255" lon="6.85726">
        <ele>2259</ele>
        <time>2026-08-04T07:17:12.278Z</time>
      </trkpt>
      <trkpt lat="45.95255" lon="6.85725">
        <ele>2259</ele>
        <time>2026-08-04T07:17:13.278Z</time>
      </trkpt>
      <trkpt lat="45.95255" lon="6.85725">
        <ele>2260</ele>
        <time>2026-08-04T07:17:14.278Z</time>
      </trkpt>
      <trkpt lat="45.95256" lon="6.85725">
        <ele>2260</ele>
        <time>2026-08-04T07:17:15.278Z</time>
      </trkpt>
      <trkpt lat="45.95256" lon="6.85725">
        <ele>2260</ele>
        <time>2026-08-04T07:17:16.278Z</time>
      </trkpt>
      <trkpt lat="45.95256" lon="6.85725">
        <ele>2260</ele>
        <time>2026-08-04T07:17:17.278Z</time>
      </trkpt>
      <trkpt lat="45.95256" lon="6.85725">
        <ele>2260</ele>
        <time>2026-08-04T07:17:18.278Z</time>
      </trkpt>
      <trkpt lat="45.95256" lon="6.85725">
        <ele>2260</ele>
        <time>2026-08-04T07:17:19.278Z</time>
      </trkpt>
      <trkpt lat="45.95256" lon="6.85725">
        <ele>2260</ele>
        <time>2026-08-04T07:17:20.278Z</time>
      </trkpt>
      <trkpt lat="45.95256" lon="6.85725">
        <ele>2260</ele>
        <time>2026-08-04T07:17:21.278Z</time>
      </trkpt>
      <trkpt lat="45.95256" lon="6.85725">
        <ele>2260</ele>
        <time>2026-08-04T07:17:22.278Z</time>
      </trkpt>
      <trkpt lat="45.95256" lon="6.85725">
        <ele>2259</ele>
        <time>2026-08-04T07:17:23.278Z</time>
      </trkpt>
      <trkpt lat="45.95256" lon="6.85725">
        <ele>2259</ele>
        <time>2026-08-04T07:17:24.278Z</time>
      </trkpt>
      <trkpt lat="45.95256" lon="6.85725">
        <ele>2259</ele>
        <time>2026-08-04T07:17:25.278Z</time>
      </trkpt>
      <trkpt lat="45.95256" lon="6.85725">
        <ele>2259</ele>
        <time>2026-08-04T07:17:26.278Z</time>
      </trkpt>
      <trkpt lat="45.95256" lon="6.85725">
        <ele>2259</ele>
        <time>2026-08-04T07:17:27.278Z</time>
      </trkpt>
      <trkpt lat="45.95256" lon="6.85725">
        <ele>2259</ele>
        <time>2026-08-04T07:17:28.278Z</time>
      </trkpt>
      <trkpt lat="45.95256" lon="6.85725">
        <ele>2259</ele>
        <time>2026-08-04T07:17:29.278Z</time>
      </trkpt>
      <trkpt lat="45.95256" lon="6.85725">
        <ele>2259</ele>
        <time>2026-08-04T07:17:30.278Z</time>
      </trkpt>
      <trkpt lat="45.95256" lon="6.85725">
        <ele>2259</ele>
        <time>2026-08-04T07:17:31.278Z</time>
      </trkpt>
      <trkpt lat="45.95256" lon="6.85725">
        <ele>2259</ele>
        <time>2026-08-04T07:17:32.278Z</time>
      </trkpt>
      <trkpt lat="45.95256" lon="6.85724">
        <ele>2259</ele>
        <time>2026-08-04T07:17:33.278Z</time>
      </trkpt>
      <trkpt lat="45.95257" lon="6.85723">
        <ele>2259</ele>
        <time>2026-08-04T07:17:34.278Z</time>
      </trkpt>
      <trkpt lat="45.95257" lon="6.85721">
        <ele>2259</ele>
        <time>2026-08-04T07:17:35.278Z</time>
      </trkpt>
      <trkpt lat="45.95258" lon="6.8572">
        <ele>2259</ele>
        <time>2026-08-04T07:17:36.278Z</time>
      </trkpt>
      <trkpt lat="45.95258" lon="6.85718">
        <ele>2260</ele>
        <time>2026-08-04T07:17:37.278Z</time>
      </trkpt>
      <trkpt lat="45.95259" lon="6.85717">
        <ele>2260</ele>
        <time>2026-08-04T07:17:38.278Z</time>
      </trkpt>
      <trkpt lat="45.9526" lon="6.85717">
        <ele>2260</ele>
        <time>2026-08-04T07:17:39.278Z</time>
      </trkpt>
      <trkpt lat="45.9526" lon="6.85716">
        <ele>2261</ele>
        <time>2026-08-04T07:17:40.278Z</time>
      </trkpt>
      <trkpt lat="45.95261" lon="6.85715">
        <ele>2261</ele>
        <time>2026-08-04T07:17:41.278Z</time>
      </trkpt>
      <trkpt lat="45.95261" lon="6.85714">
        <ele>2261</ele>
        <time>2026-08-04T07:17:42.278Z</time>
      </trkpt>
      <trkpt lat="45.95261" lon="6.85714">
        <ele>2262</ele>
        <time>2026-08-04T07:17:43.278Z</time>
      </trkpt>
      <trkpt lat="45.95261" lon="6.85714">
        <ele>2262</ele>
        <time>2026-08-04T07:17:44.278Z</time>
      </trkpt>
      <trkpt lat="45.95261" lon="6.85714">
        <ele>2263</ele>
        <time>2026-08-04T07:17:45.278Z</time>
      </trkpt>
      <trkpt lat="45.95261" lon="6.85713">
        <ele>2264</ele>
        <time>2026-08-04T07:17:46.278Z</time>
      </trkpt>
      <trkpt lat="45.95262" lon="6.85712">
        <ele>2265</ele>
        <time>2026-08-04T07:17:47.278Z</time>
      </trkpt>
      <trkpt lat="45.95262" lon="6.85711">
        <ele>2266</ele>
        <time>2026-08-04T07:17:48.278Z</time>
      </trkpt>
      <trkpt lat="45.95263" lon="6.85711">
        <ele>2266</ele>
        <time>2026-08-04T07:17:49.278Z</time>
      </trkpt>
      <trkpt lat="45.95263" lon="6.85711">
        <ele>2267</ele>
        <time>2026-08-04T07:17:50.278Z</time>
      </trkpt>
      <trkpt lat="45.95263" lon="6.85711">
        <ele>2267</ele>
        <time>2026-08-04T07:17:51.278Z</time>
      </trkpt>
      <trkpt lat="45.95264" lon="6.85712">
        <ele>2267</ele>
        <time>2026-08-04T07:17:52.278Z</time>
      </trkpt>
      <trkpt lat="45.95264" lon="6.85713">
        <ele>2267</ele>
        <time>2026-08-04T07:17:53.278Z</time>
      </trkpt>
      <trkpt lat="45.95264" lon="6.85714">
        <ele>2267</ele>
        <time>2026-08-04T07:17:54.278Z</time>
      </trkpt>
      <trkpt lat="45.95264" lon="6.85715">
        <ele>2267</ele>
        <time>2026-08-04T07:17:55.278Z</time>
      </trkpt>
      <trkpt lat="45.95264" lon="6.85716">
        <ele>2267</ele>
        <time>2026-08-04T07:17:56.278Z</time>
      </trkpt>
      <trkpt lat="45.95265" lon="6.85717">
        <ele>2267</ele>
        <time>2026-08-04T07:17:57.278Z</time>
      </trkpt>
      <trkpt lat="45.95265" lon="6.85718">
        <ele>2267</ele>
        <time>2026-08-04T07:17:58.278Z</time>
      </trkpt>
      <trkpt lat="45.95265" lon="6.85719">
        <ele>2267</ele>
        <time>2026-08-04T07:17:59.278Z</time>
      </trkpt>
      <trkpt lat="45.95266" lon="6.85719">
        <ele>2267</ele>
        <time>2026-08-04T07:18:00.278Z</time>
      </trkpt>
      <trkpt lat="45.95266" lon="6.85719">
        <ele>2267</ele>
        <time>2026-08-04T07:18:01.278Z</time>
      </trkpt>
      <trkpt lat="45.95266" lon="6.85719">
        <ele>2267</ele>
        <time>2026-08-04T07:18:02.278Z</time>
      </trkpt>
      <trkpt lat="45.95266" lon="6.85719">
        <ele>2268</ele>
        <time>2026-08-04T07:18:03.278Z</time>
      </trkpt>
      <trkpt lat="45.95267" lon="6.85719">
        <ele>2268</ele>
        <time>2026-08-04T07:18:04.278Z</time>
      </trkpt>
      <trkpt lat="45.95267" lon="6.85719">
        <ele>2268</ele>
        <time>2026-08-04T07:18:05.278Z</time>
      </trkpt>
      <trkpt lat="45.95267" lon="6.85719">
        <ele>2268</ele>
        <time>2026-08-04T07:18:06.278Z</time>
      </trkpt>
      <trkpt lat="45.95267" lon="6.85719">
        <ele>2269</ele>
        <time>2026-08-04T07:18:07.278Z</time>
      </trkpt>
      <trkpt lat="45.95268" lon="6.85719">
        <ele>2269</ele>
        <time>2026-08-04T07:18:08.278Z</time>
      </trkpt>
      <trkpt lat="45.95268" lon="6.85719">
        <ele>2269</ele>
        <time>2026-08-04T07:18:09.278Z</time>
      </trkpt>
      <trkpt lat="45.95269" lon="6.85719">
        <ele>2270</ele>
        <time>2026-08-04T07:18:10.278Z</time>
      </trkpt>
      <trkpt lat="45.95269" lon="6.85719">
        <ele>2270</ele>
        <time>2026-08-04T07:18:11.278Z</time>
      </trkpt>
      <trkpt lat="45.9527" lon="6.85719">
        <ele>2270</ele>
        <time>2026-08-04T07:18:12.278Z</time>
      </trkpt>
      <trkpt lat="45.9527" lon="6.85719">
        <ele>2270</ele>
        <time>2026-08-04T07:18:13.278Z</time>
      </trkpt>
      <trkpt lat="45.95271" lon="6.85719">
        <ele>2270</ele>
        <time>2026-08-04T07:18:14.278Z</time>
      </trkpt>
      <trkpt lat="45.95271" lon="6.85719">
        <ele>2270</ele>
        <time>2026-08-04T07:18:15.278Z</time>
      </trkpt>
      <trkpt lat="45.95272" lon="6.85719">
        <ele>2271</ele>
        <time>2026-08-04T07:18:16.278Z</time>
      </trkpt>
      <trkpt lat="45.95272" lon="6.85719">
        <ele>2271</ele>
        <time>2026-08-04T07:18:17.278Z</time>
      </trkpt>
      <trkpt lat="45.95273" lon="6.85719">
        <ele>2271</ele>
        <time>2026-08-04T07:18:18.278Z</time>
      </trkpt>
      <trkpt lat="45.95273" lon="6.8572">
        <ele>2271</ele>
        <time>2026-08-04T07:18:19.278Z</time>
      </trkpt>
      <trkpt lat="45.95273" lon="6.8572">
        <ele>2271</ele>
        <time>2026-08-04T07:18:20.278Z</time>
      </trkpt>
      <trkpt lat="45.95274" lon="6.85721">
        <ele>2271</ele>
        <time>2026-08-04T07:18:21.278Z</time>
      </trkpt>
      <trkpt lat="45.95274" lon="6.85721">
        <ele>2271</ele>
        <time>2026-08-04T07:18:22.278Z</time>
      </trkpt>
      <trkpt lat="45.95275" lon="6.85721">
        <ele>2271</ele>
        <time>2026-08-04T07:18:23.278Z</time>
      </trkpt>
      <trkpt lat="45.95275" lon="6.85721">
        <ele>2272</ele>
        <time>2026-08-04T07:18:24.278Z</time>
      </trkpt>
      <trkpt lat="45.95276" lon="6.85721">
        <ele>2272</ele>
        <time>2026-08-04T07:18:25.278Z</time>
      </trkpt>
      <trkpt lat="45.95277" lon="6.8572">
        <ele>2272</ele>
        <time>2026-08-04T07:18:26.278Z</time>
      </trkpt>
      <trkpt lat="45.95278" lon="6.8572">
        <ele>2272</ele>
        <time>2026-08-04T07:18:27.278Z</time>
      </trkpt>
      <trkpt lat="45.95279" lon="6.8572">
        <ele>2273</ele>
        <time>2026-08-04T07:18:28.278Z</time>
      </trkpt>
      <trkpt lat="45.9528" lon="6.85719">
        <ele>2273</ele>
        <time>2026-08-04T07:18:29.278Z</time>
      </trkpt>
      <trkpt lat="45.9528" lon="6.85719">
        <ele>2273</ele>
        <time>2026-08-04T07:18:30.278Z</time>
      </trkpt>
      <trkpt lat="45.95281" lon="6.85719">
        <ele>2273</ele>
        <time>2026-08-04T07:18:31.278Z</time>
      </trkpt>
      <trkpt lat="45.95282" lon="6.8572">
        <ele>2274</ele>
        <time>2026-08-04T07:18:32.278Z</time>
      </trkpt>
      <trkpt lat="45.95283" lon="6.8572">
        <ele>2274</ele>
        <time>2026-08-04T07:18:33.278Z</time>
      </trkpt>
      <trkpt lat="45.95283" lon="6.8572">
        <ele>2274</ele>
        <time>2026-08-04T07:18:34.278Z</time>
      </trkpt>
      <trkpt lat="45.95283" lon="6.8572">
        <ele>2275</ele>
        <time>2026-08-04T07:18:35.278Z</time>
      </trkpt>
      <trkpt lat="45.95283" lon="6.8572">
        <ele>2275</ele>
        <time>2026-08-04T07:18:36.278Z</time>
      </trkpt>
      <trkpt lat="45.95284" lon="6.85719">
        <ele>2275</ele>
        <time>2026-08-04T07:18:37.278Z</time>
      </trkpt>
      <trkpt lat="45.95284" lon="6.85718">
        <ele>2276</ele>
        <time>2026-08-04T07:18:38.278Z</time>
      </trkpt>
      <trkpt lat="45.95285" lon="6.85717">
        <ele>2276</ele>
        <time>2026-08-04T07:18:39.278Z</time>
      </trkpt>
      <trkpt lat="45.95286" lon="6.85716">
        <ele>2276</ele>
        <time>2026-08-04T07:18:40.278Z</time>
      </trkpt>
      <trkpt lat="45.95286" lon="6.85716">
        <ele>2276</ele>
        <time>2026-08-04T07:18:41.278Z</time>
      </trkpt>
      <trkpt lat="45.95287" lon="6.85716">
        <ele>2276</ele>
        <time>2026-08-04T07:18:42.278Z</time>
      </trkpt>
      <trkpt lat="45.95288" lon="6.85715">
        <ele>2276</ele>
        <time>2026-08-04T07:18:43.278Z</time>
      </trkpt>
      <trkpt lat="45.95288" lon="6.85715">
        <ele>2276</ele>
        <time>2026-08-04T07:18:44.278Z</time>
      </trkpt>
      <trkpt lat="45.95289" lon="6.85715">
        <ele>2276</ele>
        <time>2026-08-04T07:18:45.278Z</time>
      </trkpt>
      <trkpt lat="45.95289" lon="6.85715">
        <ele>2276</ele>
        <time>2026-08-04T07:18:46.278Z</time>
      </trkpt>
      <trkpt lat="45.9529" lon="6.85715">
        <ele>2276</ele>
        <time>2026-08-04T07:18:47.278Z</time>
      </trkpt>
      <trkpt lat="45.9529" lon="6.85714">
        <ele>2276</ele>
        <time>2026-08-04T07:18:48.278Z</time>
      </trkpt>
      <trkpt lat="45.9529" lon="6.85714">
        <ele>2276</ele>
        <time>2026-08-04T07:18:49.278Z</time>
      </trkpt>
      <trkpt lat="45.95291" lon="6.85714">
        <ele>2276</ele>
        <time>2026-08-04T07:18:50.278Z</time>
      </trkpt>
      <trkpt lat="45.95291" lon="6.85713">
        <ele>2276</ele>
        <time>2026-08-04T07:18:51.278Z</time>
      </trkpt>
      <trkpt lat="45.95293" lon="6.85713">
        <ele>2276</ele>
        <time>2026-08-04T07:18:52.278Z</time>
      </trkpt>
      <trkpt lat="45.95293" lon="6.85713">
        <ele>2277</ele>
        <time>2026-08-04T07:18:53.278Z</time>
      </trkpt>
      <trkpt lat="45.95295" lon="6.85712">
        <ele>2277</ele>
        <time>2026-08-04T07:18:54.279Z</time>
      </trkpt>
      <trkpt lat="45.95296" lon="6.85712">
        <ele>2277</ele>
        <time>2026-08-04T07:18:55.278Z</time>
      </trkpt>
      <trkpt lat="45.95296" lon="6.85712">
        <ele>2277</ele>
        <time>2026-08-04T07:18:56.278Z</time>
      </trkpt>
      <trkpt lat="45.95296" lon="6.85711">
        <ele>2277</ele>
        <time>2026-08-04T07:18:57.278Z</time>
      </trkpt>
      <trkpt lat="45.95297" lon="6.85711">
        <ele>2277</ele>
        <time>2026-08-04T07:18:58.278Z</time>
      </trkpt>
      <trkpt lat="45.95297" lon="6.85711">
        <ele>2278</ele>
        <time>2026-08-04T07:18:59.278Z</time>
      </trkpt>
      <trkpt lat="45.95298" lon="6.85711">
        <ele>2278</ele>
        <time>2026-08-04T07:19:00.278Z</time>
      </trkpt>
      <trkpt lat="45.95298" lon="6.8571">
        <ele>2278</ele>
        <time>2026-08-04T07:19:01.278Z</time>
      </trkpt>
      <trkpt lat="45.95298" lon="6.8571">
        <ele>2278</ele>
        <time>2026-08-04T07:19:02.278Z</time>
      </trkpt>
      <trkpt lat="45.95299" lon="6.8571">
        <ele>2279</ele>
        <time>2026-08-04T07:19:03.278Z</time>
      </trkpt>
      <trkpt lat="45.95299" lon="6.85709">
        <ele>2279</ele>
        <time>2026-08-04T07:19:04.278Z</time>
      </trkpt>
      <trkpt lat="45.95299" lon="6.85709">
        <ele>2280</ele>
        <time>2026-08-04T07:19:05.278Z</time>
      </trkpt>
      <trkpt lat="45.953" lon="6.85709">
        <ele>2280</ele>
        <time>2026-08-04T07:19:06.278Z</time>
      </trkpt>
      <trkpt lat="45.953" lon="6.85709">
        <ele>2281</ele>
        <time>2026-08-04T07:19:07.278Z</time>
      </trkpt>
      <trkpt lat="45.953" lon="6.85708">
        <ele>2281</ele>
        <time>2026-08-04T07:19:08.278Z</time>
      </trkpt>
      <trkpt lat="45.953" lon="6.85708">
        <ele>2282</ele>
        <time>2026-08-04T07:19:09.278Z</time>
      </trkpt>
      <trkpt lat="45.953" lon="6.85707">
        <ele>2282</ele>
        <time>2026-08-04T07:19:10.278Z</time>
      </trkpt>
      <trkpt lat="45.95301" lon="6.85707">
        <ele>2282</ele>
        <time>2026-08-04T07:19:11.278Z</time>
      </trkpt>
      <trkpt lat="45.95301" lon="6.85707">
        <ele>2283</ele>
        <time>2026-08-04T07:19:12.278Z</time>
      </trkpt>
      <trkpt lat="45.95302" lon="6.85706">
        <ele>2283</ele>
        <time>2026-08-04T07:19:13.278Z</time>
      </trkpt>
      <trkpt lat="45.95302" lon="6.85705">
        <ele>2283</ele>
        <time>2026-08-04T07:19:14.278Z</time>
      </trkpt>
      <trkpt lat="45.95303" lon="6.85705">
        <ele>2283</ele>
        <time>2026-08-04T07:19:15.278Z</time>
      </trkpt>
      <trkpt lat="45.95304" lon="6.85704">
        <ele>2284</ele>
        <time>2026-08-04T07:19:16.278Z</time>
      </trkpt>
      <trkpt lat="45.95304" lon="6.85703">
        <ele>2284</ele>
        <time>2026-08-04T07:19:17.278Z</time>
      </trkpt>
      <trkpt lat="45.95305" lon="6.85702">
        <ele>2284</ele>
        <time>2026-08-04T07:19:18.278Z</time>
      </trkpt>
      <trkpt lat="45.95306" lon="6.85701">
        <ele>2285</ele>
        <time>2026-08-04T07:19:19.278Z</time>
      </trkpt>
      <trkpt lat="45.95306" lon="6.85701">
        <ele>2285</ele>
        <time>2026-08-04T07:19:20.278Z</time>
      </trkpt>
      <trkpt lat="45.95307" lon="6.857">
        <ele>2285</ele>
        <time>2026-08-04T07:19:21.278Z</time>
      </trkpt>
      <trkpt lat="45.95308" lon="6.857">
        <ele>2285</ele>
        <time>2026-08-04T07:19:22.278Z</time>
      </trkpt>
      <trkpt lat="45.95309" lon="6.857">
        <ele>2286</ele>
        <time>2026-08-04T07:19:23.278Z</time>
      </trkpt>
      <trkpt lat="45.95311" lon="6.857">
        <ele>2286</ele>
        <time>2026-08-04T07:19:24.278Z</time>
      </trkpt>
      <trkpt lat="45.95312" lon="6.85699">
        <ele>2286</ele>
        <time>2026-08-04T07:19:25.278Z</time>
      </trkpt>
      <trkpt lat="45.95313" lon="6.85699">
        <ele>2287</ele>
        <time>2026-08-04T07:19:26.278Z</time>
      </trkpt>
      <trkpt lat="45.95313" lon="6.85697">
        <ele>2287</ele>
        <time>2026-08-04T07:19:27.278Z</time>
      </trkpt>
      <trkpt lat="45.95314" lon="6.85696">
        <ele>2287</ele>
        <time>2026-08-04T07:19:28.278Z</time>
      </trkpt>
      <trkpt lat="45.95314" lon="6.85695">
        <ele>2287</ele>
        <time>2026-08-04T07:19:29.278Z</time>
      </trkpt>
      <trkpt lat="45.95314" lon="6.85693">
        <ele>2288</ele>
        <time>2026-08-04T07:19:30.278Z</time>
      </trkpt>
      <trkpt lat="45.95314" lon="6.85692">
        <ele>2288</ele>
        <time>2026-08-04T07:19:31.278Z</time>
      </trkpt>
      <trkpt lat="45.95314" lon="6.85692">
        <ele>2288</ele>
        <time>2026-08-04T07:19:32.278Z</time>
      </trkpt>
      <trkpt lat="45.95315" lon="6.85691">
        <ele>2288</ele>
        <time>2026-08-04T07:19:33.278Z</time>
      </trkpt>
      <trkpt lat="45.95315" lon="6.8569">
        <ele>2288</ele>
        <time>2026-08-04T07:19:34.278Z</time>
      </trkpt>
      <trkpt lat="45.95316" lon="6.85689">
        <ele>2288</ele>
        <time>2026-08-04T07:19:35.278Z</time>
      </trkpt>
      <trkpt lat="45.95316" lon="6.85688">
        <ele>2289</ele>
        <time>2026-08-04T07:19:36.278Z</time>
      </trkpt>
      <trkpt lat="45.95317" lon="6.85687">
        <ele>2289</ele>
        <time>2026-08-04T07:19:37.278Z</time>
      </trkpt>
      <trkpt lat="45.95318" lon="6.85686">
        <ele>2289</ele>
        <time>2026-08-04T07:19:38.278Z</time>
      </trkpt>
      <trkpt lat="45.95318" lon="6.85685">
        <ele>2289</ele>
        <time>2026-08-04T07:19:39.278Z</time>
      </trkpt>
      <trkpt lat="45.95319" lon="6.85685">
        <ele>2290</ele>
        <time>2026-08-04T07:19:40.278Z</time>
      </trkpt>
      <trkpt lat="45.95319" lon="6.85684">
        <ele>2290</ele>
        <time>2026-08-04T07:19:41.278Z</time>
      </trkpt>
      <trkpt lat="45.95319" lon="6.85684">
        <ele>2291</ele>
        <time>2026-08-04T07:19:42.278Z</time>
      </trkpt>
      <trkpt lat="45.95318" lon="6.85684">
        <ele>2291</ele>
        <time>2026-08-04T07:19:43.278Z</time>
      </trkpt>
      <trkpt lat="45.95318" lon="6.85683">
        <ele>2291</ele>
        <time>2026-08-04T07:19:44.278Z</time>
      </trkpt>
      <trkpt lat="45.95318" lon="6.85683">
        <ele>2291</ele>
        <time>2026-08-04T07:19:45.278Z</time>
      </trkpt>
      <trkpt lat="45.95317" lon="6.85682">
        <ele>2291</ele>
        <time>2026-08-04T07:19:46.278Z</time>
      </trkpt>
      <trkpt lat="45.95316" lon="6.85682">
        <ele>2291</ele>
        <time>2026-08-04T07:19:47.278Z</time>
      </trkpt>
      <trkpt lat="45.95315" lon="6.85682">
        <ele>2291</ele>
        <time>2026-08-04T07:19:48.278Z</time>
      </trkpt>
      <trkpt lat="45.95314" lon="6.85681">
        <ele>2291</ele>
        <time>2026-08-04T07:19:49.278Z</time>
      </trkpt>
      <trkpt lat="45.95314" lon="6.8568">
        <ele>2292</ele>
        <time>2026-08-04T07:19:50.278Z</time>
      </trkpt>
      <trkpt lat="45.95314" lon="6.85679">
        <ele>2292</ele>
        <time>2026-08-04T07:19:51.278Z</time>
      </trkpt>
      <trkpt lat="45.95314" lon="6.85678">
        <ele>2292</ele>
        <time>2026-08-04T07:19:52.278Z</time>
      </trkpt>
      <trkpt lat="45.95314" lon="6.85677">
        <ele>2292</ele>
        <time>2026-08-04T07:19:53.278Z</time>
      </trkpt>
      <trkpt lat="45.95314" lon="6.85676">
        <ele>2293</ele>
        <time>2026-08-04T07:19:54.278Z</time>
      </trkpt>
      <trkpt lat="45.95315" lon="6.85675">
        <ele>2293</ele>
        <time>2026-08-04T07:19:55.278Z</time>
      </trkpt>
      <trkpt lat="45.95315" lon="6.85673">
        <ele>2294</ele>
        <time>2026-08-04T07:19:56.278Z</time>
      </trkpt>
      <trkpt lat="45.95315" lon="6.85672">
        <ele>2294</ele>
        <time>2026-08-04T07:19:57.278Z</time>
      </trkpt>
      <trkpt lat="45.95315" lon="6.85671">
        <ele>2294</ele>
        <time>2026-08-04T07:19:58.278Z</time>
      </trkpt>
      <trkpt lat="45.95316" lon="6.85669">
        <ele>2294</ele>
        <time>2026-08-04T07:19:59.278Z</time>
      </trkpt>
      <trkpt lat="45.95316" lon="6.85668">
        <ele>2294</ele>
        <time>2026-08-04T07:20:00.278Z</time>
      </trkpt>
      <trkpt lat="45.95316" lon="6.85668">
        <ele>2295</ele>
        <time>2026-08-04T07:20:01.278Z</time>
      </trkpt>
      <trkpt lat="45.95317" lon="6.85667">
        <ele>2295</ele>
        <time>2026-08-04T07:20:02.278Z</time>
      </trkpt>
      <trkpt lat="45.95317" lon="6.85666">
        <ele>2295</ele>
        <time>2026-08-04T07:20:03.278Z</time>
      </trkpt>
      <trkpt lat="45.95317" lon="6.85666">
        <ele>2296</ele>
        <time>2026-08-04T07:20:04.278Z</time>
      </trkpt>
      <trkpt lat="45.95317" lon="6.85665">
        <ele>2296</ele>
        <time>2026-08-04T07:20:05.278Z</time>
      </trkpt>
      <trkpt lat="45.95318" lon="6.85664">
        <ele>2296</ele>
        <time>2026-08-04T07:20:06.278Z</time>
      </trkpt>
      <trkpt lat="45.95318" lon="6.85664">
        <ele>2296</ele>
        <time>2026-08-04T07:20:07.278Z</time>
      </trkpt>
      <trkpt lat="45.95318" lon="6.85663">
        <ele>2297</ele>
        <time>2026-08-04T07:20:08.278Z</time>
      </trkpt>
      <trkpt lat="45.95319" lon="6.85663">
        <ele>2297</ele>
        <time>2026-08-04T07:20:09.278Z</time>
      </trkpt>
      <trkpt lat="45.95319" lon="6.85663">
        <ele>2297</ele>
        <time>2026-08-04T07:20:10.278Z</time>
      </trkpt>
      <trkpt lat="45.9532" lon="6.85662">
        <ele>2297</ele>
        <time>2026-08-04T07:20:11.278Z</time>
      </trkpt>
      <trkpt lat="45.9532" lon="6.85661">
        <ele>2297</ele>
        <time>2026-08-04T07:20:12.278Z</time>
      </trkpt>
      <trkpt lat="45.9532" lon="6.85661">
        <ele>2298</ele>
        <time>2026-08-04T07:20:13.278Z</time>
      </trkpt>
      <trkpt lat="45.9532" lon="6.8566">
        <ele>2298</ele>
        <time>2026-08-04T07:20:14.278Z</time>
      </trkpt>
      <trkpt lat="45.95321" lon="6.85659">
        <ele>2298</ele>
        <time>2026-08-04T07:20:15.278Z</time>
      </trkpt>
      <trkpt lat="45.95321" lon="6.85658">
        <ele>2298</ele>
        <time>2026-08-04T07:20:16.278Z</time>
      </trkpt>
      <trkpt lat="45.95322" lon="6.85657">
        <ele>2298</ele>
        <time>2026-08-04T07:20:17.278Z</time>
      </trkpt>
      <trkpt lat="45.95322" lon="6.85656">
        <ele>2299</ele>
        <time>2026-08-04T07:20:18.278Z</time>
      </trkpt>
      <trkpt lat="45.95322" lon="6.85655">
        <ele>2299</ele>
        <time>2026-08-04T07:20:19.278Z</time>
      </trkpt>
      <trkpt lat="45.95322" lon="6.85654">
        <ele>2299</ele>
        <time>2026-08-04T07:20:20.278Z</time>
      </trkpt>
      <trkpt lat="45.95323" lon="6.85652">
        <ele>2299</ele>
        <time>2026-08-04T07:20:21.278Z</time>
      </trkpt>
      <trkpt lat="45.95324" lon="6.85652">
        <ele>2299</ele>
        <time>2026-08-04T07:20:22.278Z</time>
      </trkpt>
      <trkpt lat="45.95325" lon="6.85651">
        <ele>2298</ele>
        <time>2026-08-04T07:20:23.278Z</time>
      </trkpt>
      <trkpt lat="45.95325" lon="6.8565">
        <ele>2298</ele>
        <time>2026-08-04T07:20:24.278Z</time>
      </trkpt>
      <trkpt lat="45.95326" lon="6.8565">
        <ele>2298</ele>
        <time>2026-08-04T07:20:25.278Z</time>
      </trkpt>
      <trkpt lat="45.95326" lon="6.85649">
        <ele>2298</ele>
        <time>2026-08-04T07:20:26.278Z</time>
      </trkpt>
      <trkpt lat="45.95327" lon="6.85649">
        <ele>2298</ele>
        <time>2026-08-04T07:20:27.278Z</time>
      </trkpt>
      <trkpt lat="45.95327" lon="6.85649">
        <ele>2299</ele>
        <time>2026-08-04T07:20:28.278Z</time>
      </trkpt>
      <trkpt lat="45.95328" lon="6.85648">
        <ele>2299</ele>
        <time>2026-08-04T07:20:29.278Z</time>
      </trkpt>
      <trkpt lat="45.95329" lon="6.85648">
        <ele>2300</ele>
        <time>2026-08-04T07:20:30.278Z</time>
      </trkpt>
      <trkpt lat="45.9533" lon="6.85647">
        <ele>2300</ele>
        <time>2026-08-04T07:20:31.278Z</time>
      </trkpt>
      <trkpt lat="45.95331" lon="6.85647">
        <ele>2301</ele>
        <time>2026-08-04T07:20:32.278Z</time>
      </trkpt>
      <trkpt lat="45.95332" lon="6.85646">
        <ele>2301</ele>
        <time>2026-08-04T07:20:33.278Z</time>
      </trkpt>
      <trkpt lat="45.95333" lon="6.85646">
        <ele>2301</ele>
        <time>2026-08-04T07:20:34.278Z</time>
      </trkpt>
      <trkpt lat="45.95333" lon="6.85646">
        <ele>2302</ele>
        <time>2026-08-04T07:20:35.278Z</time>
      </trkpt>
      <trkpt lat="45.95334" lon="6.85646">
        <ele>2302</ele>
        <time>2026-08-04T07:20:36.278Z</time>
      </trkpt>
      <trkpt lat="45.95335" lon="6.85646">
        <ele>2303</ele>
        <time>2026-08-04T07:20:37.278Z</time>
      </trkpt>
      <trkpt lat="45.95336" lon="6.85647">
        <ele>2304</ele>
        <time>2026-08-04T07:20:38.278Z</time>
      </trkpt>
      <trkpt lat="45.95336" lon="6.85647">
        <ele>2304</ele>
        <time>2026-08-04T07:20:39.278Z</time>
      </trkpt>
      <trkpt lat="45.95338" lon="6.85647">
        <ele>2305</ele>
        <time>2026-08-04T07:20:40.278Z</time>
      </trkpt>
      <trkpt lat="45.95338" lon="6.85648">
        <ele>2305</ele>
        <time>2026-08-04T07:20:41.278Z</time>
      </trkpt>
      <trkpt lat="45.95339" lon="6.85648">
        <ele>2305</ele>
        <time>2026-08-04T07:20:42.278Z</time>
      </trkpt>
      <trkpt lat="45.95339" lon="6.85648">
        <ele>2306</ele>
        <time>2026-08-04T07:20:43.278Z</time>
      </trkpt>
      <trkpt lat="45.9534" lon="6.85648">
        <ele>2307</ele>
        <time>2026-08-04T07:20:44.278Z</time>
      </trkpt>
      <trkpt lat="45.95341" lon="6.85647">
        <ele>2307</ele>
        <time>2026-08-04T07:20:45.278Z</time>
      </trkpt>
      <trkpt lat="45.95342" lon="6.85647">
        <ele>2308</ele>
        <time>2026-08-04T07:20:46.278Z</time>
      </trkpt>
      <trkpt lat="45.95342" lon="6.85647">
        <ele>2308</ele>
        <time>2026-08-04T07:20:47.278Z</time>
      </trkpt>
      <trkpt lat="45.95343" lon="6.85646">
        <ele>2308</ele>
        <time>2026-08-04T07:20:48.278Z</time>
      </trkpt>
      <trkpt lat="45.95344" lon="6.85646">
        <ele>2307</ele>
        <time>2026-08-04T07:20:49.278Z</time>
      </trkpt>
      <trkpt lat="45.95344" lon="6.85646">
        <ele>2307</ele>
        <time>2026-08-04T07:20:50.278Z</time>
      </trkpt>
      <trkpt lat="45.95345" lon="6.85645">
        <ele>2307</ele>
        <time>2026-08-04T07:20:51.278Z</time>
      </trkpt>
      <trkpt lat="45.95346" lon="6.85645">
        <ele>2307</ele>
        <time>2026-08-04T07:20:52.278Z</time>
      </trkpt>
      <trkpt lat="45.95347" lon="6.85645">
        <ele>2307</ele>
        <time>2026-08-04T07:20:53.278Z</time>
      </trkpt>
      <trkpt lat="45.95348" lon="6.85645">
        <ele>2308</ele>
        <time>2026-08-04T07:20:54.278Z</time>
      </trkpt>
      <trkpt lat="45.95349" lon="6.85645">
        <ele>2308</ele>
        <time>2026-08-04T07:20:55.278Z</time>
      </trkpt>
      <trkpt lat="45.95349" lon="6.85645">
        <ele>2309</ele>
        <time>2026-08-04T07:20:56.278Z</time>
      </trkpt>
      <trkpt lat="45.95351" lon="6.85645">
        <ele>2309</ele>
        <time>2026-08-04T07:20:57.278Z</time>
      </trkpt>
      <trkpt lat="45.95352" lon="6.85645">
        <ele>2310</ele>
        <time>2026-08-04T07:20:58.278Z</time>
      </trkpt>
      <trkpt lat="45.95353" lon="6.85644">
        <ele>2310</ele>
        <time>2026-08-04T07:20:59.278Z</time>
      </trkpt>
      <trkpt lat="45.95353" lon="6.85644">
        <ele>2311</ele>
        <time>2026-08-04T07:21:00.278Z</time>
      </trkpt>
      <trkpt lat="45.95354" lon="6.85644">
        <ele>2311</ele>
        <time>2026-08-04T07:21:01.278Z</time>
      </trkpt>
      <trkpt lat="45.95355" lon="6.85644">
        <ele>2312</ele>
        <time>2026-08-04T07:21:02.278Z</time>
      </trkpt>
      <trkpt lat="45.95355" lon="6.85645">
        <ele>2312</ele>
        <time>2026-08-04T07:21:03.278Z</time>
      </trkpt>
      <trkpt lat="45.95356" lon="6.85644">
        <ele>2313</ele>
        <time>2026-08-04T07:21:04.278Z</time>
      </trkpt>
      <trkpt lat="45.95357" lon="6.85644">
        <ele>2313</ele>
        <time>2026-08-04T07:21:05.278Z</time>
      </trkpt>
      <trkpt lat="45.95358" lon="6.85644">
        <ele>2314</ele>
        <time>2026-08-04T07:21:06.278Z</time>
      </trkpt>
      <trkpt lat="45.95358" lon="6.85644">
        <ele>2315</ele>
        <time>2026-08-04T07:21:07.278Z</time>
      </trkpt>
      <trkpt lat="45.95358" lon="6.85644">
        <ele>2316</ele>
        <time>2026-08-04T07:21:08.278Z</time>
      </trkpt>
      <trkpt lat="45.95359" lon="6.85644">
        <ele>2316</ele>
        <time>2026-08-04T07:21:09.278Z</time>
      </trkpt>
      <trkpt lat="45.95361" lon="6.85644">
        <ele>2317</ele>
        <time>2026-08-04T07:21:10.278Z</time>
      </trkpt>
      <trkpt lat="45.95361" lon="6.85644">
        <ele>2317</ele>
        <time>2026-08-04T07:21:11.278Z</time>
      </trkpt>
      <trkpt lat="45.95362" lon="6.85644">
        <ele>2317</ele>
        <time>2026-08-04T07:21:12.278Z</time>
      </trkpt>
      <trkpt lat="45.95363" lon="6.85645">
        <ele>2318</ele>
        <time>2026-08-04T07:21:13.278Z</time>
      </trkpt>
      <trkpt lat="45.95364" lon="6.85645">
        <ele>2318</ele>
        <time>2026-08-04T07:21:14.278Z</time>
      </trkpt>
      <trkpt lat="45.95365" lon="6.85645">
        <ele>2318</ele>
        <time>2026-08-04T07:21:15.278Z</time>
      </trkpt>
      <trkpt lat="45.95366" lon="6.85645">
        <ele>2318</ele>
        <time>2026-08-04T07:21:16.278Z</time>
      </trkpt>
      <trkpt lat="45.95366" lon="6.85645">
        <ele>2318</ele>
        <time>2026-08-04T07:21:17.278Z</time>
      </trkpt>
      <trkpt lat="45.95367" lon="6.85645">
        <ele>2318</ele>
        <time>2026-08-04T07:21:18.278Z</time>
      </trkpt>
      <trkpt lat="45.95367" lon="6.85646">
        <ele>2318</ele>
        <time>2026-08-04T07:21:19.278Z</time>
      </trkpt>
      <trkpt lat="45.95368" lon="6.85646">
        <ele>2318</ele>
        <time>2026-08-04T07:21:20.278Z</time>
      </trkpt>
      <trkpt lat="45.95369" lon="6.85647">
        <ele>2318</ele>
        <time>2026-08-04T07:21:21.278Z</time>
      </trkpt>
      <trkpt lat="45.95369" lon="6.85647">
        <ele>2319</ele>
        <time>2026-08-04T07:21:22.278Z</time>
      </trkpt>
      <trkpt lat="45.9537" lon="6.85646">
        <ele>2320</ele>
        <time>2026-08-04T07:21:23.278Z</time>
      </trkpt>
      <trkpt lat="45.95371" lon="6.85646">
        <ele>2321</ele>
        <time>2026-08-04T07:21:24.278Z</time>
      </trkpt>
      <trkpt lat="45.95371" lon="6.85646">
        <ele>2322</ele>
        <time>2026-08-04T07:21:25.278Z</time>
      </trkpt>
      <trkpt lat="45.95371" lon="6.85646">
        <ele>2323</ele>
        <time>2026-08-04T07:21:26.278Z</time>
      </trkpt>
      <trkpt lat="45.95371" lon="6.85645">
        <ele>2325</ele>
        <time>2026-08-04T07:21:27.278Z</time>
      </trkpt>
      <trkpt lat="45.95372" lon="6.85643">
        <ele>2326</ele>
        <time>2026-08-04T07:21:28.278Z</time>
      </trkpt>
      <trkpt lat="45.95372" lon="6.85642">
        <ele>2327</ele>
        <time>2026-08-04T07:21:29.278Z</time>
      </trkpt>
      <trkpt lat="45.95372" lon="6.85642">
        <ele>2328</ele>
        <time>2026-08-04T07:21:30.278Z</time>
      </trkpt>
      <trkpt lat="45.95373" lon="6.85642">
        <ele>2329</ele>
        <time>2026-08-04T07:21:31.278Z</time>
      </trkpt>
      <trkpt lat="45.95373" lon="6.85641">
        <ele>2330</ele>
        <time>2026-08-04T07:21:32.278Z</time>
      </trkpt>
      <trkpt lat="45.95374" lon="6.8564">
        <ele>2331</ele>
        <time>2026-08-04T07:21:33.278Z</time>
      </trkpt>
      <trkpt lat="45.95374" lon="6.8564">
        <ele>2331</ele>
        <time>2026-08-04T07:21:34.278Z</time>
      </trkpt>
      <trkpt lat="45.95375" lon="6.85639">
        <ele>2332</ele>
        <time>2026-08-04T07:21:35.278Z</time>
      </trkpt>
      <trkpt lat="45.95376" lon="6.85639">
        <ele>2333</ele>
        <time>2026-08-04T07:21:36.278Z</time>
      </trkpt>
      <trkpt lat="45.95376" lon="6.85639">
        <ele>2333</ele>
        <time>2026-08-04T07:21:37.278Z</time>
      </trkpt>
      <trkpt lat="45.95377" lon="6.85639">
        <ele>2333</ele>
        <time>2026-08-04T07:21:38.278Z</time>
      </trkpt>
      <trkpt lat="45.95377" lon="6.8564">
        <ele>2333</ele>
        <time>2026-08-04T07:21:39.278Z</time>
      </trkpt>
      <trkpt lat="45.95378" lon="6.8564">
        <ele>2333</ele>
        <time>2026-08-04T07:21:40.278Z</time>
      </trkpt>
      <trkpt lat="45.95378" lon="6.85641">
        <ele>2333</ele>
        <time>2026-08-04T07:21:41.278Z</time>
      </trkpt>
      <trkpt lat="45.95379" lon="6.85641">
        <ele>2332</ele>
        <time>2026-08-04T07:21:42.278Z</time>
      </trkpt>
      <trkpt lat="45.95379" lon="6.85642">
        <ele>2332</ele>
        <time>2026-08-04T07:21:43.278Z</time>
      </trkpt>
      <trkpt lat="45.9538" lon="6.85643">
        <ele>2331</ele>
        <time>2026-08-04T07:21:44.278Z</time>
      </trkpt>
      <trkpt lat="45.95381" lon="6.85644">
        <ele>2331</ele>
        <time>2026-08-04T07:21:45.278Z</time>
      </trkpt>
      <trkpt lat="45.95382" lon="6.85643">
        <ele>2330</ele>
        <time>2026-08-04T07:21:46.278Z</time>
      </trkpt>
      <trkpt lat="45.95382" lon="6.85643">
        <ele>2330</ele>
        <time>2026-08-04T07:21:47.278Z</time>
      </trkpt>
      <trkpt lat="45.95383" lon="6.85642">
        <ele>2330</ele>
        <time>2026-08-04T07:21:48.278Z</time>
      </trkpt>
      <trkpt lat="45.95384" lon="6.85642">
        <ele>2330</ele>
        <time>2026-08-04T07:21:49.278Z</time>
      </trkpt>
      <trkpt lat="45.95385" lon="6.85641">
        <ele>2330</ele>
        <time>2026-08-04T07:21:50.278Z</time>
      </trkpt>
      <trkpt lat="45.95387" lon="6.85641">
        <ele>2329</ele>
        <time>2026-08-04T07:21:51.278Z</time>
      </trkpt>
      <trkpt lat="45.95388" lon="6.85641">
        <ele>2329</ele>
        <time>2026-08-04T07:21:52.278Z</time>
      </trkpt>
      <trkpt lat="45.95389" lon="6.85641">
        <ele>2328</ele>
        <time>2026-08-04T07:21:53.278Z</time>
      </trkpt>
      <trkpt lat="45.9539" lon="6.85641">
        <ele>2328</ele>
        <time>2026-08-04T07:21:54.278Z</time>
      </trkpt>
      <trkpt lat="45.95391" lon="6.85641">
        <ele>2328</ele>
        <time>2026-08-04T07:21:55.278Z</time>
      </trkpt>
      <trkpt lat="45.95392" lon="6.85641">
        <ele>2328</ele>
        <time>2026-08-04T07:21:56.278Z</time>
      </trkpt>
      <trkpt lat="45.95392" lon="6.8564">
        <ele>2329</ele>
        <time>2026-08-04T07:21:57.278Z</time>
      </trkpt>
      <trkpt lat="45.95393" lon="6.85641">
        <ele>2329</ele>
        <time>2026-08-04T07:21:58.278Z</time>
      </trkpt>
      <trkpt lat="45.95394" lon="6.8564">
        <ele>2329</ele>
        <time>2026-08-04T07:21:59.278Z</time>
      </trkpt>
      <trkpt lat="45.95395" lon="6.85641">
        <ele>2329</ele>
        <time>2026-08-04T07:22:00.278Z</time>
      </trkpt>
      <trkpt lat="45.95396" lon="6.85641">
        <ele>2329</ele>
        <time>2026-08-04T07:22:01.278Z</time>
      </trkpt>
      <trkpt lat="45.95397" lon="6.85642">
        <ele>2330</ele>
        <time>2026-08-04T07:22:02.278Z</time>
      </trkpt>
      <trkpt lat="45.95398" lon="6.85643">
        <ele>2329</ele>
        <time>2026-08-04T07:22:03.278Z</time>
      </trkpt>
      <trkpt lat="45.95399" lon="6.85645">
        <ele>2329</ele>
        <time>2026-08-04T07:22:04.278Z</time>
      </trkpt>
      <trkpt lat="45.954" lon="6.85646">
        <ele>2328</ele>
        <time>2026-08-04T07:22:05.278Z</time>
      </trkpt>
      <trkpt lat="45.954" lon="6.85648">
        <ele>2327</ele>
        <time>2026-08-04T07:22:06.278Z</time>
      </trkpt>
      <trkpt lat="45.95401" lon="6.85649">
        <ele>2326</ele>
        <time>2026-08-04T07:22:07.278Z</time>
      </trkpt>
      <trkpt lat="45.95401" lon="6.85649">
        <ele>2325</ele>
        <time>2026-08-04T07:22:08.278Z</time>
      </trkpt>
      <trkpt lat="45.95401" lon="6.85649">
        <ele>2324</ele>
        <time>2026-08-04T07:22:09.278Z</time>
      </trkpt>
      <trkpt lat="45.95401" lon="6.85648">
        <ele>2323</ele>
        <time>2026-08-04T07:22:10.278Z</time>
      </trkpt>
      <trkpt lat="45.95402" lon="6.85647">
        <ele>2323</ele>
        <time>2026-08-04T07:22:11.278Z</time>
      </trkpt>
      <trkpt lat="45.95403" lon="6.85646">
        <ele>2324</ele>
        <time>2026-08-04T07:22:12.279Z</time>
      </trkpt>
      <trkpt lat="45.95403" lon="6.85645">
        <ele>2324</ele>
        <time>2026-08-04T07:22:13.278Z</time>
      </trkpt>
      <trkpt lat="45.95404" lon="6.85643">
        <ele>2325</ele>
        <time>2026-08-04T07:22:14.278Z</time>
      </trkpt>
      <trkpt lat="45.95405" lon="6.85642">
        <ele>2326</ele>
        <time>2026-08-04T07:22:15.278Z</time>
      </trkpt>
      <trkpt lat="45.95406" lon="6.85641">
        <ele>2326</ele>
        <time>2026-08-04T07:22:16.278Z</time>
      </trkpt>
      <trkpt lat="45.95407" lon="6.85641">
        <ele>2327</ele>
        <time>2026-08-04T07:22:17.278Z</time>
      </trkpt>
      <trkpt lat="45.95408" lon="6.8564">
        <ele>2327</ele>
        <time>2026-08-04T07:22:18.278Z</time>
      </trkpt>
      <trkpt lat="45.95409" lon="6.8564">
        <ele>2328</ele>
        <time>2026-08-04T07:22:19.278Z</time>
      </trkpt>
      <trkpt lat="45.9541" lon="6.8564">
        <ele>2328</ele>
        <time>2026-08-04T07:22:20.278Z</time>
      </trkpt>
      <trkpt lat="45.95411" lon="6.85639">
        <ele>2328</ele>
        <time>2026-08-04T07:22:21.278Z</time>
      </trkpt>
      <trkpt lat="45.95411" lon="6.85639">
        <ele>2328</ele>
        <time>2026-08-04T07:22:22.278Z</time>
      </trkpt>
      <trkpt lat="45.95412" lon="6.85639">
        <ele>2328</ele>
        <time>2026-08-04T07:22:23.278Z</time>
      </trkpt>
      <trkpt lat="45.95413" lon="6.85639">
        <ele>2328</ele>
        <time>2026-08-04T07:22:24.278Z</time>
      </trkpt>
      <trkpt lat="45.95414" lon="6.8564">
        <ele>2328</ele>
        <time>2026-08-04T07:22:25.278Z</time>
      </trkpt>
      <trkpt lat="45.95415" lon="6.85639">
        <ele>2328</ele>
        <time>2026-08-04T07:22:26.278Z</time>
      </trkpt>
      <trkpt lat="45.95416" lon="6.85639">
        <ele>2328</ele>
        <time>2026-08-04T07:22:27.278Z</time>
      </trkpt>
      <trkpt lat="45.95417" lon="6.85639">
        <ele>2328</ele>
        <time>2026-08-04T07:22:28.278Z</time>
      </trkpt>
      <trkpt lat="45.95418" lon="6.85638">
        <ele>2328</ele>
        <time>2026-08-04T07:22:29.278Z</time>
      </trkpt>
      <trkpt lat="45.95419" lon="6.85638">
        <ele>2328</ele>
        <time>2026-08-04T07:22:30.278Z</time>
      </trkpt>
      <trkpt lat="45.9542" lon="6.85637">
        <ele>2328</ele>
        <time>2026-08-04T07:22:31.278Z</time>
      </trkpt>
      <trkpt lat="45.95421" lon="6.85637">
        <ele>2328</ele>
        <time>2026-08-04T07:22:32.278Z</time>
      </trkpt>
      <trkpt lat="45.95422" lon="6.85637">
        <ele>2328</ele>
        <time>2026-08-04T07:22:33.278Z</time>
      </trkpt>
      <trkpt lat="45.95423" lon="6.85636">
        <ele>2328</ele>
        <time>2026-08-04T07:22:34.278Z</time>
      </trkpt>
      <trkpt lat="45.95424" lon="6.85636">
        <ele>2328</ele>
        <time>2026-08-04T07:22:35.278Z</time>
      </trkpt>
      <trkpt lat="45.95426" lon="6.85636">
        <ele>2328</ele>
        <time>2026-08-04T07:22:36.278Z</time>
      </trkpt>
      <trkpt lat="45.95427" lon="6.85635">
        <ele>2329</ele>
        <time>2026-08-04T07:22:37.278Z</time>
      </trkpt>
      <trkpt lat="45.95428" lon="6.85635">
        <ele>2329</ele>
        <time>2026-08-04T07:22:38.278Z</time>
      </trkpt>
      <trkpt lat="45.95429" lon="6.85634">
        <ele>2329</ele>
        <time>2026-08-04T07:22:39.278Z</time>
      </trkpt>
      <trkpt lat="45.9543" lon="6.85634">
        <ele>2330</ele>
        <time>2026-08-04T07:22:40.278Z</time>
      </trkpt>
      <trkpt lat="45.95431" lon="6.85633">
        <ele>2330</ele>
        <time>2026-08-04T07:22:41.278Z</time>
      </trkpt>
      <trkpt lat="45.95432" lon="6.85632">
        <ele>2331</ele>
        <time>2026-08-04T07:22:42.278Z</time>
      </trkpt>
      <trkpt lat="45.95433" lon="6.85631">
        <ele>2331</ele>
        <time>2026-08-04T07:22:43.278Z</time>
      </trkpt>
      <trkpt lat="45.95434" lon="6.8563">
        <ele>2331</ele>
        <time>2026-08-04T07:22:44.278Z</time>
      </trkpt>
      <trkpt lat="45.95435" lon="6.8563">
        <ele>2331</ele>
        <time>2026-08-04T07:22:45.278Z</time>
      </trkpt>
      <trkpt lat="45.95436" lon="6.85629">
        <ele>2331</ele>
        <time>2026-08-04T07:22:46.278Z</time>
      </trkpt>
      <trkpt lat="45.95436" lon="6.85627">
        <ele>2331</ele>
        <time>2026-08-04T07:22:47.278Z</time>
      </trkpt>
      <trkpt lat="45.95437" lon="6.85626">
        <ele>2331</ele>
        <time>2026-08-04T07:22:48.278Z</time>
      </trkpt>
      <trkpt lat="45.95437" lon="6.85625">
        <ele>2331</ele>
        <time>2026-08-04T07:22:49.278Z</time>
      </trkpt>
      <trkpt lat="45.95437" lon="6.85623">
        <ele>2331</ele>
        <time>2026-08-04T07:22:50.278Z</time>
      </trkpt>
      <trkpt lat="45.95437" lon="6.85622">
        <ele>2331</ele>
        <time>2026-08-04T07:22:51.278Z</time>
      </trkpt>
      <trkpt lat="45.95437" lon="6.85621">
        <ele>2331</ele>
        <time>2026-08-04T07:22:52.278Z</time>
      </trkpt>
      <trkpt lat="45.95436" lon="6.8562">
        <ele>2331</ele>
        <time>2026-08-04T07:22:53.278Z</time>
      </trkpt>
      <trkpt lat="45.95435" lon="6.85619">
        <ele>2331</ele>
        <time>2026-08-04T07:22:54.278Z</time>
      </trkpt>
      <trkpt lat="45.95433" lon="6.85618">
        <ele>2331</ele>
        <time>2026-08-04T07:22:55.278Z</time>
      </trkpt>
      <trkpt lat="45.95432" lon="6.85618">
        <ele>2331</ele>
        <time>2026-08-04T07:22:56.278Z</time>
      </trkpt>
      <trkpt lat="45.95431" lon="6.85617">
        <ele>2331</ele>
        <time>2026-08-04T07:22:57.278Z</time>
      </trkpt>
      <trkpt lat="45.95429" lon="6.85616">
        <ele>2331</ele>
        <time>2026-08-04T07:22:58.278Z</time>
      </trkpt>
      <trkpt lat="45.95428" lon="6.85615">
        <ele>2331</ele>
        <time>2026-08-04T07:22:59.278Z</time>
      </trkpt>
      <trkpt lat="45.95427" lon="6.85614">
        <ele>2331</ele>
        <time>2026-08-04T07:23:00.278Z</time>
      </trkpt>
      <trkpt lat="45.95426" lon="6.85613">
        <ele>2331</ele>
        <time>2026-08-04T07:23:01.278Z</time>
      </trkpt>
      <trkpt lat="45.95425" lon="6.85612">
        <ele>2331</ele>
        <time>2026-08-04T07:23:02.278Z</time>
      </trkpt>
      <trkpt lat="45.95424" lon="6.85611">
        <ele>2330</ele>
        <time>2026-08-04T07:23:03.278Z</time>
      </trkpt>
      <trkpt lat="45.95422" lon="6.8561">
        <ele>2330</ele>
        <time>2026-08-04T07:23:04.278Z</time>
      </trkpt>
      <trkpt lat="45.95421" lon="6.85609">
        <ele>2330</ele>
        <time>2026-08-04T07:23:05.278Z</time>
      </trkpt>
      <trkpt lat="45.9542" lon="6.85608">
        <ele>2329</ele>
        <time>2026-08-04T07:23:06.278Z</time>
      </trkpt>
      <trkpt lat="45.95419" lon="6.85608">
        <ele>2329</ele>
        <time>2026-08-04T07:23:07.278Z</time>
      </trkpt>
      <trkpt lat="45.95419" lon="6.85607">
        <ele>2329</ele>
        <time>2026-08-04T07:23:08.278Z</time>
      </trkpt>
      <trkpt lat="45.95417" lon="6.85607">
        <ele>2329</ele>
        <time>2026-08-04T07:23:09.278Z</time>
      </trkpt>
      <trkpt lat="45.95416" lon="6.85607">
        <ele>2329</ele>
        <time>2026-08-04T07:23:10.278Z</time>
      </trkpt>
      <trkpt lat="45.95415" lon="6.85606">
        <ele>2329</ele>
        <time>2026-08-04T07:23:11.278Z</time>
      </trkpt>
      <trkpt lat="45.95414" lon="6.85605">
        <ele>2329</ele>
        <time>2026-08-04T07:23:12.278Z</time>
      </trkpt>
      <trkpt lat="45.95413" lon="6.85605">
        <ele>2329</ele>
        <time>2026-08-04T07:23:13.278Z</time>
      </trkpt>
      <trkpt lat="45.95412" lon="6.85605">
        <ele>2329</ele>
        <time>2026-08-04T07:23:14.278Z</time>
      </trkpt>
      <trkpt lat="45.95412" lon="6.85604">
        <ele>2329</ele>
        <time>2026-08-04T07:23:15.278Z</time>
      </trkpt>
      <trkpt lat="45.95411" lon="6.85604">
        <ele>2329</ele>
        <time>2026-08-04T07:23:16.278Z</time>
      </trkpt>
      <trkpt lat="45.9541" lon="6.85604">
        <ele>2329</ele>
        <time>2026-08-04T07:23:17.278Z</time>
      </trkpt>
      <trkpt lat="45.95409" lon="6.85604">
        <ele>2329</ele>
        <time>2026-08-04T07:23:18.278Z</time>
      </trkpt>
      <trkpt lat="45.95407" lon="6.85603">
        <ele>2329</ele>
        <time>2026-08-04T07:23:19.278Z</time>
      </trkpt>
      <trkpt lat="45.95406" lon="6.85603">
        <ele>2329</ele>
        <time>2026-08-04T07:23:20.278Z</time>
      </trkpt>
      <trkpt lat="45.95405" lon="6.85601">
        <ele>2329</ele>
        <time>2026-08-04T07:23:21.278Z</time>
      </trkpt>
      <trkpt lat="45.95404" lon="6.856">
        <ele>2329</ele>
        <time>2026-08-04T07:23:22.278Z</time>
      </trkpt>
      <trkpt lat="45.95405" lon="6.856">
        <ele>2329</ele>
        <time>2026-08-04T07:23:23.278Z</time>
      </trkpt>
      <trkpt lat="45.95405" lon="6.85599">
        <ele>2329</ele>
        <time>2026-08-04T07:23:24.278Z</time>
      </trkpt>
      <trkpt lat="45.95406" lon="6.85599">
        <ele>2330</ele>
        <time>2026-08-04T07:23:25.278Z</time>
      </trkpt>
      <trkpt lat="45.95408" lon="6.856">
        <ele>2330</ele>
        <time>2026-08-04T07:23:26.278Z</time>
      </trkpt>
      <trkpt lat="45.95409" lon="6.85601">
        <ele>2330</ele>
        <time>2026-08-04T07:23:27.278Z</time>
      </trkpt>
      <trkpt lat="45.95411" lon="6.85602">
        <ele>2330</ele>
        <time>2026-08-04T07:23:28.278Z</time>
      </trkpt>
      <trkpt lat="45.95413" lon="6.85603">
        <ele>2330</ele>
        <time>2026-08-04T07:23:29.278Z</time>
      </trkpt>
      <trkpt lat="45.95414" lon="6.85604">
        <ele>2330</ele>
        <time>2026-08-04T07:23:30.278Z</time>
      </trkpt>
      <trkpt lat="45.95416" lon="6.85605">
        <ele>2330</ele>
        <time>2026-08-04T07:23:31.278Z</time>
      </trkpt>
      <trkpt lat="45.95418" lon="6.85606">
        <ele>2330</ele>
        <time>2026-08-04T07:23:32.278Z</time>
      </trkpt>
      <trkpt lat="45.9542" lon="6.85607">
        <ele>2330</ele>
        <time>2026-08-04T07:23:33.278Z</time>
      </trkpt>
      <trkpt lat="45.95421" lon="6.85609">
        <ele>2330</ele>
        <time>2026-08-04T07:23:34.278Z</time>
      </trkpt>
      <trkpt lat="45.95423" lon="6.8561">
        <ele>2330</ele>
        <time>2026-08-04T07:23:35.278Z</time>
      </trkpt>
      <trkpt lat="45.95425" lon="6.85611">
        <ele>2330</ele>
        <time>2026-08-04T07:23:36.278Z</time>
      </trkpt>
      <trkpt lat="45.95427" lon="6.85612">
        <ele>2330</ele>
        <time>2026-08-04T07:23:37.278Z</time>
      </trkpt>
      <trkpt lat="45.95428" lon="6.85613">
        <ele>2330</ele>
        <time>2026-08-04T07:23:38.278Z</time>
      </trkpt>
      <trkpt lat="45.9543" lon="6.85614">
        <ele>2330</ele>
        <time>2026-08-04T07:23:39.278Z</time>
      </trkpt>
      <trkpt lat="45.95432" lon="6.85615">
        <ele>2330</ele>
        <time>2026-08-04T07:23:40.278Z</time>
      </trkpt>
      <trkpt lat="45.95435" lon="6.85616">
        <ele>2329</ele>
        <time>2026-08-04T07:23:41.278Z</time>
      </trkpt>
      <trkpt lat="45.95436" lon="6.85617">
        <ele>2329</ele>
        <time>2026-08-04T07:23:42.278Z</time>
      </trkpt>
      <trkpt lat="45.95438" lon="6.85618">
        <ele>2329</ele>
        <time>2026-08-04T07:23:43.278Z</time>
      </trkpt>
      <trkpt lat="45.9544" lon="6.85618">
        <ele>2329</ele>
        <time>2026-08-04T07:23:44.278Z</time>
      </trkpt>
      <trkpt lat="45.95442" lon="6.85618">
        <ele>2330</ele>
        <time>2026-08-04T07:23:45.278Z</time>
      </trkpt>
      <trkpt lat="45.95444" lon="6.85618">
        <ele>2330</ele>
        <time>2026-08-04T07:23:46.278Z</time>
      </trkpt>
      <trkpt lat="45.95445" lon="6.85619">
        <ele>2330</ele>
        <time>2026-08-04T07:23:47.278Z</time>
      </trkpt>
      <trkpt lat="45.95447" lon="6.85619">
        <ele>2329</ele>
        <time>2026-08-04T07:23:48.278Z</time>
      </trkpt>
      <trkpt lat="45.95448" lon="6.85619">
        <ele>2329</ele>
        <time>2026-08-04T07:23:49.278Z</time>
      </trkpt>
      <trkpt lat="45.95449" lon="6.85619">
        <ele>2329</ele>
        <time>2026-08-04T07:23:50.278Z</time>
      </trkpt>
      <trkpt lat="45.9545" lon="6.85619">
        <ele>2328</ele>
        <time>2026-08-04T07:23:51.278Z</time>
      </trkpt>
      <trkpt lat="45.95451" lon="6.8562">
        <ele>2328</ele>
        <time>2026-08-04T07:23:52.278Z</time>
      </trkpt>
      <trkpt lat="45.95452" lon="6.8562">
        <ele>2328</ele>
        <time>2026-08-04T07:23:53.278Z</time>
      </trkpt>
      <trkpt lat="45.95453" lon="6.8562">
        <ele>2328</ele>
        <time>2026-08-04T07:23:54.278Z</time>
      </trkpt>
      <trkpt lat="45.95454" lon="6.8562">
        <ele>2328</ele>
        <time>2026-08-04T07:23:55.278Z</time>
      </trkpt>
      <trkpt lat="45.95455" lon="6.85619">
        <ele>2328</ele>
        <time>2026-08-04T07:23:56.278Z</time>
      </trkpt>
      <trkpt lat="45.95457" lon="6.8562">
        <ele>2328</ele>
        <time>2026-08-04T07:23:57.278Z</time>
      </trkpt>
      <trkpt lat="45.95458" lon="6.8562">
        <ele>2328</ele>
        <time>2026-08-04T07:23:58.278Z</time>
      </trkpt>
      <trkpt lat="45.95459" lon="6.8562">
        <ele>2327</ele>
        <time>2026-08-04T07:23:59.278Z</time>
      </trkpt>
      <trkpt lat="45.9546" lon="6.85621">
        <ele>2327</ele>
        <time>2026-08-04T07:24:00.278Z</time>
      </trkpt>
      <trkpt lat="45.9546" lon="6.85621">
        <ele>2327</ele>
        <time>2026-08-04T07:24:01.278Z</time>
      </trkpt>
      <trkpt lat="45.9546" lon="6.85621">
        <ele>2327</ele>
        <time>2026-08-04T07:24:02.278Z</time>
      </trkpt>
      <trkpt lat="45.9546" lon="6.85621">
        <ele>2327</ele>
        <time>2026-08-04T07:24:03.278Z</time>
      </trkpt>
      <trkpt lat="45.9546" lon="6.85621">
        <ele>2327</ele>
        <time>2026-08-04T07:24:04.278Z</time>
      </trkpt>
      <trkpt lat="45.9546" lon="6.85621">
        <ele>2327</ele>
        <time>2026-08-04T07:24:05.278Z</time>
      </trkpt>
      <trkpt lat="45.9546" lon="6.85621">
        <ele>2327</ele>
        <time>2026-08-04T07:24:06.278Z</time>
      </trkpt>
      <trkpt lat="45.95461" lon="6.85621">
        <ele>2327</ele>
        <time>2026-08-04T07:24:07.278Z</time>
      </trkpt>
      <trkpt lat="45.95461" lon="6.85621">
        <ele>2326</ele>
        <time>2026-08-04T07:24:08.278Z</time>
      </trkpt>
      <trkpt lat="45.9546" lon="6.85621">
        <ele>2326</ele>
        <time>2026-08-04T07:24:09.278Z</time>
      </trkpt>
      <trkpt lat="45.9546" lon="6.85621">
        <ele>2326</ele>
        <time>2026-08-04T07:24:10.278Z</time>
      </trkpt>
      <trkpt lat="45.95459" lon="6.85621">
        <ele>2326</ele>
        <time>2026-08-04T07:24:11.278Z</time>
      </trkpt>
      <trkpt lat="45.95459" lon="6.85621">
        <ele>2326</ele>
        <time>2026-08-04T07:24:12.278Z</time>
      </trkpt>
      <trkpt lat="45.95458" lon="6.85621">
        <ele>2326</ele>
        <time>2026-08-04T07:24:13.278Z</time>
      </trkpt>
      <trkpt lat="45.95457" lon="6.8562">
        <ele>2326</ele>
        <time>2026-08-04T07:24:14.278Z</time>
      </trkpt>
      <trkpt lat="45.95457" lon="6.8562">
        <ele>2326</ele>
        <time>2026-08-04T07:24:15.278Z</time>
      </trkpt>
      <trkpt lat="45.95456" lon="6.8562">
        <ele>2326</ele>
        <time>2026-08-04T07:24:16.278Z</time>
      </trkpt>
      <trkpt lat="45.95456" lon="6.8562">
        <ele>2326</ele>
        <time>2026-08-04T07:24:17.278Z</time>
      </trkpt>
      <trkpt lat="45.95455" lon="6.8562">
        <ele>2326</ele>
        <time>2026-08-04T07:24:18.278Z</time>
      </trkpt>
      <trkpt lat="45.95455" lon="6.8562">
        <ele>2326</ele>
        <time>2026-08-04T07:24:19.278Z</time>
      </trkpt>
      <trkpt lat="45.95454" lon="6.85619">
        <ele>2326</ele>
        <time>2026-08-04T07:24:20.278Z</time>
      </trkpt>
      <trkpt lat="45.95454" lon="6.85619">
        <ele>2326</ele>
        <time>2026-08-04T07:24:21.278Z</time>
      </trkpt>
      <trkpt lat="45.95453" lon="6.85619">
        <ele>2327</ele>
        <time>2026-08-04T07:24:22.278Z</time>
      </trkpt>
      <trkpt lat="45.95453" lon="6.85619">
        <ele>2327</ele>
        <time>2026-08-04T07:24:23.278Z</time>
      </trkpt>
      <trkpt lat="45.95452" lon="6.85618">
        <ele>2327</ele>
        <time>2026-08-04T07:24:24.278Z</time>
      </trkpt>
      <trkpt lat="45.95452" lon="6.85618">
        <ele>2327</ele>
        <time>2026-08-04T07:24:25.278Z</time>
      </trkpt>
      <trkpt lat="45.95452" lon="6.85617">
        <ele>2327</ele>
        <time>2026-08-04T07:24:26.278Z</time>
      </trkpt>
      <trkpt lat="45.95452" lon="6.85617">
        <ele>2327</ele>
        <time>2026-08-04T07:24:27.278Z</time>
      </trkpt>
      <trkpt lat="45.95452" lon="6.85618">
        <ele>2327</ele>
        <time>2026-08-04T07:24:28.278Z</time>
      </trkpt>
      <trkpt lat="45.95452" lon="6.85618">
        <ele>2327</ele>
        <time>2026-08-04T07:24:29.278Z</time>
      </trkpt>
      <trkpt lat="45.95452" lon="6.85618">
        <ele>2328</ele>
        <time>2026-08-04T07:24:30.278Z</time>
      </trkpt>
      <trkpt lat="45.95452" lon="6.85618">
        <ele>2328</ele>
        <time>2026-08-04T07:24:31.278Z</time>
      </trkpt>
      <trkpt lat="45.95452" lon="6.85618">
        <ele>2327</ele>
        <time>2026-08-04T07:24:32.278Z</time>
      </trkpt>
      <trkpt lat="45.95452" lon="6.85618">
        <ele>2327</ele>
        <time>2026-08-04T07:24:33.278Z</time>
      </trkpt>
      <trkpt lat="45.95452" lon="6.85618">
        <ele>2327</ele>
        <time>2026-08-04T07:24:34.278Z</time>
      </trkpt>
      <trkpt lat="45.95452" lon="6.85618">
        <ele>2327</ele>
        <time>2026-08-04T07:24:35.278Z</time>
      </trkpt>
      <trkpt lat="45.95452" lon="6.85618">
        <ele>2327</ele>
        <time>2026-08-04T07:24:36.278Z</time>
      </trkpt>
      <trkpt lat="45.95452" lon="6.85618">
        <ele>2327</ele>
        <time>2026-08-04T07:24:37.278Z</time>
      </trkpt>
      <trkpt lat="45.95452" lon="6.85618">
        <ele>2327</ele>
        <time>2026-08-04T07:24:38.278Z</time>
      </trkpt>
      <trkpt lat="45.95452" lon="6.85618">
        <ele>2327</ele>
        <time>2026-08-04T07:24:39.278Z</time>
      </trkpt>
      <trkpt lat="45.95452" lon="6.85618">
        <ele>2327</ele>
        <time>2026-08-04T07:24:40.278Z</time>
      </trkpt>
      <trkpt lat="45.95452" lon="6.85618">
        <ele>2326</ele>
        <time>2026-08-04T07:24:41.278Z</time>
      </trkpt>
      <trkpt lat="45.95452" lon="6.85618">
        <ele>2326</ele>
        <time>2026-08-04T07:24:42.278Z</time>
      </trkpt>
      <trkpt lat="45.95452" lon="6.85618">
        <ele>2326</ele>
        <time>2026-08-04T07:24:43.278Z</time>
      </trkpt>
      <trkpt lat="45.95452" lon="6.85618">
        <ele>2326</ele>
        <time>2026-08-04T07:24:44.278Z</time>
      </trkpt>
      <trkpt lat="45.95452" lon="6.85618">
        <ele>2325</ele>
        <time>2026-08-04T07:24:45.278Z</time>
      </trkpt>
      <trkpt lat="45.95452" lon="6.85618">
        <ele>2325</ele>
        <time>2026-08-04T07:24:46.278Z</time>
      </trkpt>
      <trkpt lat="45.95452" lon="6.85618">
        <ele>2325</ele>
        <time>2026-08-04T07:24:47.278Z</time>
      </trkpt>
      <trkpt lat="45.95452" lon="6.85618">
        <ele>2325</ele>
        <time>2026-08-04T07:24:48.278Z</time>
      </trkpt>
      <trkpt lat="45.95452" lon="6.85618">
        <ele>2325</ele>
        <time>2026-08-04T07:24:49.278Z</time>
      </trkpt>
      <trkpt lat="45.95452" lon="6.85618">
        <ele>2325</ele>
        <time>2026-08-04T07:24:50.278Z</time>
      </trkpt>
      <trkpt lat="45.9545" lon="6.85619">
        <ele>2324</ele>
        <time>2026-08-04T07:24:51.278Z</time>
      </trkpt>
      <trkpt lat="45.95447" lon="6.8562">
        <ele>2324</ele>
        <time>2026-08-04T07:24:52.278Z</time>
      </trkpt>
      <trkpt lat="45.95445" lon="6.85621">
        <ele>2325</ele>
        <time>2026-08-04T07:24:53.278Z</time>
      </trkpt>
      <trkpt lat="45.95443" lon="6.85621">
        <ele>2325</ele>
        <time>2026-08-04T07:24:54.278Z</time>
      </trkpt>
      <trkpt lat="45.9544" lon="6.85621">
        <ele>2325</ele>
        <time>2026-08-04T07:24:55.278Z</time>
      </trkpt>
      <trkpt lat="45.95438" lon="6.8562">
        <ele>2325</ele>
        <time>2026-08-04T07:24:56.278Z</time>
      </trkpt>
      <trkpt lat="45.95436" lon="6.85618">
        <ele>2325</ele>
        <time>2026-08-04T07:24:57.278Z</time>
      </trkpt>
      <trkpt lat="45.95434" lon="6.85616">
        <ele>2326</ele>
        <time>2026-08-04T07:24:58.278Z</time>
      </trkpt>
      <trkpt lat="45.95432" lon="6.85615">
        <ele>2326</ele>
        <time>2026-08-04T07:24:59.278Z</time>
      </trkpt>
      <trkpt lat="45.9543" lon="6.85613">
        <ele>2326</ele>
        <time>2026-08-04T07:25:00.278Z</time>
      </trkpt>
      <trkpt lat="45.95429" lon="6.85612">
        <ele>2326</ele>
        <time>2026-08-04T07:25:01.278Z</time>
      </trkpt>
      <trkpt lat="45.95427" lon="6.85611">
        <ele>2326</ele>
        <time>2026-08-04T07:25:02.278Z</time>
      </trkpt>
      <trkpt lat="45.95425" lon="6.8561">
        <ele>2326</ele>
        <time>2026-08-04T07:25:03.278Z</time>
      </trkpt>
      <trkpt lat="45.95424" lon="6.85609">
        <ele>2326</ele>
        <time>2026-08-04T07:25:04.278Z</time>
      </trkpt>
      <trkpt lat="45.95423" lon="6.85609">
        <ele>2326</ele>
        <time>2026-08-04T07:25:05.278Z</time>
      </trkpt>
      <trkpt lat="45.95421" lon="6.85609">
        <ele>2326</ele>
        <time>2026-08-04T07:25:06.278Z</time>
      </trkpt>
      <trkpt lat="45.9542" lon="6.85608">
        <ele>2326</ele>
        <time>2026-08-04T07:25:07.278Z</time>
      </trkpt>
      <trkpt lat="45.95418" lon="6.85608">
        <ele>2327</ele>
        <time>2026-08-04T07:25:08.278Z</time>
      </trkpt>
      <trkpt lat="45.95417" lon="6.85607">
        <ele>2327</ele>
        <time>2026-08-04T07:25:09.278Z</time>
      </trkpt>
      <trkpt lat="45.95416" lon="6.85607">
        <ele>2327</ele>
        <time>2026-08-04T07:25:10.278Z</time>
      </trkpt>
      <trkpt lat="45.95415" lon="6.85606">
        <ele>2328</ele>
        <time>2026-08-04T07:25:11.278Z</time>
      </trkpt>
      <trkpt lat="45.95414" lon="6.85605">
        <ele>2328</ele>
        <time>2026-08-04T07:25:12.278Z</time>
      </trkpt>
      <trkpt lat="45.95413" lon="6.85604">
        <ele>2329</ele>
        <time>2026-08-04T07:25:13.278Z</time>
      </trkpt>
      <trkpt lat="45.95412" lon="6.85603">
        <ele>2329</ele>
        <time>2026-08-04T07:25:14.278Z</time>
      </trkpt>
      <trkpt lat="45.95411" lon="6.85602">
        <ele>2329</ele>
        <time>2026-08-04T07:25:15.278Z</time>
      </trkpt>
      <trkpt lat="45.9541" lon="6.85601">
        <ele>2329</ele>
        <time>2026-08-04T07:25:16.278Z</time>
      </trkpt>
      <trkpt lat="45.95409" lon="6.856">
        <ele>2329</ele>
        <time>2026-08-04T07:25:17.278Z</time>
      </trkpt>
      <trkpt lat="45.95408" lon="6.856">
        <ele>2329</ele>
        <time>2026-08-04T07:25:18.278Z</time>
      </trkpt>
      <trkpt lat="45.95408" lon="6.85599">
        <ele>2330</ele>
        <time>2026-08-04T07:25:19.278Z</time>
      </trkpt>
      <trkpt lat="45.95407" lon="6.85598">
        <ele>2330</ele>
        <time>2026-08-04T07:25:20.278Z</time>
      </trkpt>
      <trkpt lat="45.95406" lon="6.85597">
        <ele>2330</ele>
        <time>2026-08-04T07:25:21.278Z</time>
      </trkpt>
      <trkpt lat="45.95404" lon="6.85596">
        <ele>2330</ele>
        <time>2026-08-04T07:25:22.278Z</time>
      </trkpt>
      <trkpt lat="45.95402" lon="6.85594">
        <ele>2330</ele>
        <time>2026-08-04T07:25:23.278Z</time>
      </trkpt>
      <trkpt lat="45.95401" lon="6.85593">
        <ele>2329</ele>
        <time>2026-08-04T07:25:24.278Z</time>
      </trkpt>
      <trkpt lat="45.954" lon="6.85591">
        <ele>2329</ele>
        <time>2026-08-04T07:25:25.278Z</time>
      </trkpt>
      <trkpt lat="45.95398" lon="6.85589">
        <ele>2329</ele>
        <time>2026-08-04T07:25:26.278Z</time>
      </trkpt>
      <trkpt lat="45.95398" lon="6.85588">
        <ele>2329</ele>
        <time>2026-08-04T07:25:27.278Z</time>
      </trkpt>
      <trkpt lat="45.95397" lon="6.85586">
        <ele>2329</ele>
        <time>2026-08-04T07:25:28.278Z</time>
      </trkpt>
      <trkpt lat="45.95397" lon="6.85585">
        <ele>2329</ele>
        <time>2026-08-04T07:25:29.278Z</time>
      </trkpt>
      <trkpt lat="45.95396" lon="6.85583">
        <ele>2329</ele>
        <time>2026-08-04T07:25:30.278Z</time>
      </trkpt>
      <trkpt lat="45.95396" lon="6.85581">
        <ele>2329</ele>
        <time>2026-08-04T07:25:31.278Z</time>
      </trkpt>
      <trkpt lat="45.95396" lon="6.8558">
        <ele>2330</ele>
        <time>2026-08-04T07:25:32.278Z</time>
      </trkpt>
      <trkpt lat="45.95396" lon="6.85578">
        <ele>2330</ele>
        <time>2026-08-04T07:25:33.278Z</time>
      </trkpt>
      <trkpt lat="45.95396" lon="6.85576">
        <ele>2330</ele>
        <time>2026-08-04T07:25:34.278Z</time>
      </trkpt>
      <trkpt lat="45.95395" lon="6.85574">
        <ele>2330</ele>
        <time>2026-08-04T07:25:35.278Z</time>
      </trkpt>
      <trkpt lat="45.95395" lon="6.85572">
        <ele>2330</ele>
        <time>2026-08-04T07:25:36.278Z</time>
      </trkpt>
      <trkpt lat="45.95394" lon="6.8557">
        <ele>2330</ele>
        <time>2026-08-04T07:25:37.278Z</time>
      </trkpt>
      <trkpt lat="45.95394" lon="6.85568">
        <ele>2330</ele>
        <time>2026-08-04T07:25:38.278Z</time>
      </trkpt>
      <trkpt lat="45.95394" lon="6.85566">
        <ele>2330</ele>
        <time>2026-08-04T07:25:39.278Z</time>
      </trkpt>
      <trkpt lat="45.95394" lon="6.85565">
        <ele>2330</ele>
        <time>2026-08-04T07:25:40.278Z</time>
      </trkpt>
      <trkpt lat="45.95394" lon="6.85563">
        <ele>2330</ele>
        <time>2026-08-04T07:25:41.278Z</time>
      </trkpt>
      <trkpt lat="45.95394" lon="6.85562">
        <ele>2330</ele>
        <time>2026-08-04T07:25:42.278Z</time>
      </trkpt>
      <trkpt lat="45.95394" lon="6.8556">
        <ele>2330</ele>
        <time>2026-08-04T07:25:43.278Z</time>
      </trkpt>
      <trkpt lat="45.95394" lon="6.85559">
        <ele>2330</ele>
        <time>2026-08-04T07:25:44.278Z</time>
      </trkpt>
      <trkpt lat="45.95394" lon="6.85557">
        <ele>2330</ele>
        <time>2026-08-04T07:25:45.278Z</time>
      </trkpt>
      <trkpt lat="45.95394" lon="6.85556">
        <ele>2330</ele>
        <time>2026-08-04T07:25:46.278Z</time>
      </trkpt>
      <trkpt lat="45.95394" lon="6.85556">
        <ele>2330</ele>
        <time>2026-08-04T07:25:47.278Z</time>
      </trkpt>
      <trkpt lat="45.95393" lon="6.85555">
        <ele>2330</ele>
        <time>2026-08-04T07:25:48.278Z</time>
      </trkpt>
      <trkpt lat="45.95393" lon="6.85554">
        <ele>2330</ele>
        <time>2026-08-04T07:25:49.278Z</time>
      </trkpt>
      <trkpt lat="45.95393" lon="6.85553">
        <ele>2331</ele>
        <time>2026-08-04T07:25:50.278Z</time>
      </trkpt>
      <trkpt lat="45.95392" lon="6.85553">
        <ele>2331</ele>
        <time>2026-08-04T07:25:51.278Z</time>
      </trkpt>
      <trkpt lat="45.95392" lon="6.85552">
        <ele>2331</ele>
        <time>2026-08-04T07:25:52.278Z</time>
      </trkpt>
      <trkpt lat="45.95392" lon="6.85552">
        <ele>2331</ele>
        <time>2026-08-04T07:25:53.278Z</time>
      </trkpt>
      <trkpt lat="45.95392" lon="6.85551">
        <ele>2331</ele>
        <time>2026-08-04T07:25:54.278Z</time>
      </trkpt>
      <trkpt lat="45.95392" lon="6.85551">
        <ele>2331</ele>
        <time>2026-08-04T07:25:55.278Z</time>
      </trkpt>
      <trkpt lat="45.95392" lon="6.85551">
        <ele>2331</ele>
        <time>2026-08-04T07:25:56.278Z</time>
      </trkpt>
      <trkpt lat="45.95392" lon="6.85551">
        <ele>2331</ele>
        <time>2026-08-04T07:25:57.278Z</time>
      </trkpt>
      <trkpt lat="45.95392" lon="6.85551">
        <ele>2331</ele>
        <time>2026-08-04T07:25:58.278Z</time>
      </trkpt>
      <trkpt lat="45.95392" lon="6.85552">
        <ele>2330</ele>
        <time>2026-08-04T07:25:59.278Z</time>
      </trkpt>
      <trkpt lat="45.95392" lon="6.85552">
        <ele>2330</ele>
        <time>2026-08-04T07:26:00.278Z</time>
      </trkpt>
      <trkpt lat="45.95392" lon="6.85552">
        <ele>2330</ele>
        <time>2026-08-04T07:26:01.278Z</time>
      </trkpt>
      <trkpt lat="45.95391" lon="6.85551">
        <ele>2329</ele>
        <time>2026-08-04T07:26:02.278Z</time>
      </trkpt>
      <trkpt lat="45.95391" lon="6.8555">
        <ele>2329</ele>
        <time>2026-08-04T07:26:03.278Z</time>
      </trkpt>
      <trkpt lat="45.9539" lon="6.85549">
        <ele>2329</ele>
        <time>2026-08-04T07:26:04.278Z</time>
      </trkpt>
      <trkpt lat="45.9539" lon="6.85547">
        <ele>2330</ele>
        <time>2026-08-04T07:26:05.278Z</time>
      </trkpt>
      <trkpt lat="45.9539" lon="6.85546">
        <ele>2330</ele>
        <time>2026-08-04T07:26:06.278Z</time>
      </trkpt>
      <trkpt lat="45.9539" lon="6.85545">
        <ele>2331</ele>
        <time>2026-08-04T07:26:07.278Z</time>
      </trkpt>
      <trkpt lat="45.9539" lon="6.85544">
        <ele>2331</ele>
        <time>2026-08-04T07:26:08.278Z</time>
      </trkpt>
      <trkpt lat="45.9539" lon="6.85543">
        <ele>2331</ele>
        <time>2026-08-04T07:26:09.278Z</time>
      </trkpt>
      <trkpt lat="45.9539" lon="6.85543">
        <ele>2331</ele>
        <time>2026-08-04T07:26:10.278Z</time>
      </trkpt>
      <trkpt lat="45.9539" lon="6.85542">
        <ele>2331</ele>
        <time>2026-08-04T07:26:11.278Z</time>
      </trkpt>
      <trkpt lat="45.9539" lon="6.85542">
        <ele>2330</ele>
        <time>2026-08-04T07:26:12.278Z</time>
      </trkpt>
      <trkpt lat="45.9539" lon="6.85542">
        <ele>2330</ele>
        <time>2026-08-04T07:26:13.278Z</time>
      </trkpt>
      <trkpt lat="45.9539" lon="6.85542">
        <ele>2330</ele>
        <time>2026-08-04T07:26:14.278Z</time>
      </trkpt>
      <trkpt lat="45.9539" lon="6.85542">
        <ele>2330</ele>
        <time>2026-08-04T07:26:15.278Z</time>
      </trkpt>
      <trkpt lat="45.9539" lon="6.85542">
        <ele>2330</ele>
        <time>2026-08-04T07:26:16.278Z</time>
      </trkpt>
      <trkpt lat="45.9539" lon="6.85542">
        <ele>2330</ele>
        <time>2026-08-04T07:26:17.278Z</time>
      </trkpt>
      <trkpt lat="45.9539" lon="6.85542">
        <ele>2330</ele>
        <time>2026-08-04T07:26:18.278Z</time>
      </trkpt>
      <trkpt lat="45.9539" lon="6.85542">
        <ele>2330</ele>
        <time>2026-08-04T07:26:19.278Z</time>
      </trkpt>
      <trkpt lat="45.9539" lon="6.85542">
        <ele>2331</ele>
        <time>2026-08-04T07:26:20.278Z</time>
      </trkpt>
      <trkpt lat="45.9539" lon="6.85542">
        <ele>2331</ele>
        <time>2026-08-04T07:26:21.278Z</time>
      </trkpt>
      <trkpt lat="45.9539" lon="6.85542">
        <ele>2331</ele>
        <time>2026-08-04T07:26:22.278Z</time>
      </trkpt>
      <trkpt lat="45.9539" lon="6.85542">
        <ele>2332</ele>
        <time>2026-08-04T07:26:23.278Z</time>
      </trkpt>
      <trkpt lat="45.9539" lon="6.85542">
        <ele>2332</ele>
        <time>2026-08-04T07:26:24.278Z</time>
      </trkpt>
      <trkpt lat="45.9539" lon="6.85542">
        <ele>2332</ele>
        <time>2026-08-04T07:26:25.278Z</time>
      </trkpt>
      <trkpt lat="45.9539" lon="6.85542">
        <ele>2332</ele>
        <time>2026-08-04T07:26:26.278Z</time>
      </trkpt>
      <trkpt lat="45.9539" lon="6.85542">
        <ele>2332</ele>
        <time>2026-08-04T07:26:27.278Z</time>
      </trkpt>
      <trkpt lat="45.9539" lon="6.85542">
        <ele>2332</ele>
        <time>2026-08-04T07:26:28.278Z</time>
      </trkpt>
      <trkpt lat="45.9539" lon="6.85542">
        <ele>2332</ele>
        <time>2026-08-04T07:26:29.278Z</time>
      </trkpt>
      <trkpt lat="45.9539" lon="6.85542">
        <ele>2333</ele>
        <time>2026-08-04T07:26:30.278Z</time>
      </trkpt>
      <trkpt lat="45.9539" lon="6.85542">
        <ele>2333</ele>
        <time>2026-08-04T07:26:31.278Z</time>
      </trkpt>
      <trkpt lat="45.9539" lon="6.85542">
        <ele>2333</ele>
        <time>2026-08-04T07:26:32.278Z</time>
      </trkpt>
      <trkpt lat="45.9539" lon="6.85542">
        <ele>2333</ele>
        <time>2026-08-04T07:26:33.278Z</time>
      </trkpt>
      <trkpt lat="45.9539" lon="6.85542">
        <ele>2333</ele>
        <time>2026-08-04T07:26:34.278Z</time>
      </trkpt>
      <trkpt lat="45.9539" lon="6.85542">
        <ele>2333</ele>
        <time>2026-08-04T07:26:35.278Z</time>
      </trkpt>
      <trkpt lat="45.9539" lon="6.85542">
        <ele>2333</ele>
        <time>2026-08-04T07:26:36.278Z</time>
      </trkpt>
      <trkpt lat="45.9539" lon="6.85542">
        <ele>2333</ele>
        <time>2026-08-04T07:26:37.278Z</time>
      </trkpt>
      <trkpt lat="45.9539" lon="6.85542">
        <ele>2333</ele>
        <time>2026-08-04T07:26:38.278Z</time>
      </trkpt>
      <trkpt lat="45.9539" lon="6.85542">
        <ele>2333</ele>
        <time>2026-08-04T07:26:39.278Z</time>
      </trkpt>
      <trkpt lat="45.9539" lon="6.85542">
        <ele>2333</ele>
        <time>2026-08-04T07:26:40.278Z</time>
      </trkpt>
      <trkpt lat="45.9539" lon="6.85542">
        <ele>2333</ele>
        <time>2026-08-04T07:26:41.278Z</time>
      </trkpt>
      <trkpt lat="45.9539" lon="6.85542">
        <ele>2333</ele>
        <time>2026-08-04T07:26:42.278Z</time>
      </trkpt>
      <trkpt lat="45.9539" lon="6.85542">
        <ele>2333</ele>
        <time>2026-08-04T07:26:43.278Z</time>
      </trkpt>
      <trkpt lat="45.9539" lon="6.85542">
        <ele>2333</ele>
        <time>2026-08-04T07:26:44.278Z</time>
      </trkpt>
      <trkpt lat="45.9539" lon="6.85543">
        <ele>2333</ele>
        <time>2026-08-04T07:26:45.278Z</time>
      </trkpt>
      <trkpt lat="45.9539" lon="6.85543">
        <ele>2333</ele>
        <time>2026-08-04T07:26:46.278Z</time>
      </trkpt>
      <trkpt lat="45.9539" lon="6.85543">
        <ele>2333</ele>
        <time>2026-08-04T07:26:47.278Z</time>
      </trkpt>
      <trkpt lat="45.9539" lon="6.85543">
        <ele>2333</ele>
        <time>2026-08-04T07:26:48.278Z</time>
      </trkpt>
      <trkpt lat="45.95391" lon="6.85543">
        <ele>2333</ele>
        <time>2026-08-04T07:26:49.278Z</time>
      </trkpt>
      <trkpt lat="45.95391" lon="6.85543">
        <ele>2333</ele>
        <time>2026-08-04T07:26:50.278Z</time>
      </trkpt>
      <trkpt lat="45.95391" lon="6.85543">
        <ele>2333</ele>
        <time>2026-08-04T07:26:51.278Z</time>
      </trkpt>
      <trkpt lat="45.95391" lon="6.85543">
        <ele>2333</ele>
        <time>2026-08-04T07:26:52.278Z</time>
      </trkpt>
      <trkpt lat="45.95391" lon="6.85543">
        <ele>2333</ele>
        <time>2026-08-04T07:26:53.278Z</time>
      </trkpt>
      <trkpt lat="45.95391" lon="6.85543">
        <ele>2333</ele>
        <time>2026-08-04T07:26:54.278Z</time>
      </trkpt>
      <trkpt lat="45.95391" lon="6.85543">
        <ele>2333</ele>
        <time>2026-08-04T07:26:55.278Z</time>
      </trkpt>
      <trkpt lat="45.95391" lon="6.85543">
        <ele>2333</ele>
        <time>2026-08-04T07:26:56.278Z</time>
      </trkpt>
      <trkpt lat="45.95391" lon="6.85543">
        <ele>2333</ele>
        <time>2026-08-04T07:26:57.278Z</time>
      </trkpt>
      <trkpt lat="45.95391" lon="6.85543">
        <ele>2333</ele>
        <time>2026-08-04T07:26:58.278Z</time>
      </trkpt>
      <trkpt lat="45.95391" lon="6.85543">
        <ele>2333</ele>
        <time>2026-08-04T07:26:59.278Z</time>
      </trkpt>
      <trkpt lat="45.95391" lon="6.85543">
        <ele>2333</ele>
        <time>2026-08-04T07:27:00.278Z</time>
      </trkpt>
      <trkpt lat="45.95391" lon="6.85544">
        <ele>2333</ele>
        <time>2026-08-04T07:27:01.278Z</time>
      </trkpt>
      <trkpt lat="45.95391" lon="6.85544">
        <ele>2333</ele>
        <time>2026-08-04T07:27:02.278Z</time>
      </trkpt>
      <trkpt lat="45.95391" lon="6.85544">
        <ele>2333</ele>
        <time>2026-08-04T07:27:03.278Z</time>
      </trkpt>
      <trkpt lat="45.95391" lon="6.85544">
        <ele>2333</ele>
        <time>2026-08-04T07:27:04.278Z</time>
      </trkpt>
      <trkpt lat="45.95391" lon="6.85544">
        <ele>2333</ele>
        <time>2026-08-04T07:27:05.278Z</time>
      </trkpt>
      <trkpt lat="45.95391" lon="6.85544">
        <ele>2333</ele>
        <time>2026-08-04T07:27:06.278Z</time>
      </trkpt>
      <trkpt lat="45.95391" lon="6.85544">
        <ele>2333</ele>
        <time>2026-08-04T07:27:07.278Z</time>
      </trkpt>
      <trkpt lat="45.95391" lon="6.85544">
        <ele>2333</ele>
        <time>2026-08-04T07:27:08.278Z</time>
      </trkpt>
      <trkpt lat="45.95391" lon="6.85544">
        <ele>2333</ele>
        <time>2026-08-04T07:27:09.278Z</time>
      </trkpt>
      <trkpt lat="45.95391" lon="6.85544">
        <ele>2333</ele>
        <time>2026-08-04T07:27:10.278Z</time>
      </trkpt>
      <trkpt lat="45.95391" lon="6.85544">
        <ele>2333</ele>
        <time>2026-08-04T07:27:11.278Z</time>
      </trkpt>
      <trkpt lat="45.95392" lon="6.85545">
        <ele>2333</ele>
        <time>2026-08-04T07:27:12.278Z</time>
      </trkpt>
      <trkpt lat="45.95392" lon="6.85546">
        <ele>2333</ele>
        <time>2026-08-04T07:27:13.278Z</time>
      </trkpt>
      <trkpt lat="45.95392" lon="6.85547">
        <ele>2333</ele>
        <time>2026-08-04T07:27:14.278Z</time>
      </trkpt>
      <trkpt lat="45.95392" lon="6.85547">
        <ele>2333</ele>
        <time>2026-08-04T07:27:15.278Z</time>
      </trkpt>
      <trkpt lat="45.95392" lon="6.85547">
        <ele>2333</ele>
        <time>2026-08-04T07:27:16.278Z</time>
      </trkpt>
      <trkpt lat="45.95392" lon="6.85547">
        <ele>2332</ele>
        <time>2026-08-04T07:27:17.278Z</time>
      </trkpt>
      <trkpt lat="45.95392" lon="6.85547">
        <ele>2332</ele>
        <time>2026-08-04T07:27:18.278Z</time>
      </trkpt>
      <trkpt lat="45.95392" lon="6.85547">
        <ele>2332</ele>
        <time>2026-08-04T07:27:19.278Z</time>
      </trkpt>
      <trkpt lat="45.95392" lon="6.85547">
        <ele>2332</ele>
        <time>2026-08-04T07:27:20.278Z</time>
      </trkpt>
      <trkpt lat="45.95392" lon="6.85547">
        <ele>2332</ele>
        <time>2026-08-04T07:27:21.278Z</time>
      </trkpt>
      <trkpt lat="45.95392" lon="6.85547">
        <ele>2332</ele>
        <time>2026-08-04T07:27:22.278Z</time>
      </trkpt>
      <trkpt lat="45.95392" lon="6.85547">
        <ele>2332</ele>
        <time>2026-08-04T07:27:23.278Z</time>
      </trkpt>
      <trkpt lat="45.95392" lon="6.85547">
        <ele>2332</ele>
        <time>2026-08-04T07:27:24.278Z</time>
      </trkpt>
      <trkpt lat="45.95392" lon="6.85547">
        <ele>2332</ele>
        <time>2026-08-04T07:27:25.278Z</time>
      </trkpt>
      <trkpt lat="45.95392" lon="6.85547">
        <ele>2332</ele>
        <time>2026-08-04T07:27:26.278Z</time>
      </trkpt>
      <trkpt lat="45.95393" lon="6.85547">
        <ele>2332</ele>
        <time>2026-08-04T07:27:27.278Z</time>
      </trkpt>
      <trkpt lat="45.95393" lon="6.85547">
        <ele>2332</ele>
        <time>2026-08-04T07:27:28.278Z</time>
      </trkpt>
      <trkpt lat="45.95393" lon="6.85547">
        <ele>2332</ele>
        <time>2026-08-04T07:27:29.278Z</time>
      </trkpt>
      <trkpt lat="45.95393" lon="6.85547">
        <ele>2332</ele>
        <time>2026-08-04T07:27:30.278Z</time>
      </trkpt>
      <trkpt lat="45.95393" lon="6.85547">
        <ele>2332</ele>
        <time>2026-08-04T07:27:31.278Z</time>
      </trkpt>
      <trkpt lat="45.95393" lon="6.85546">
        <ele>2332</ele>
        <time>2026-08-04T07:27:32.278Z</time>
      </trkpt>
      <trkpt lat="45.95393" lon="6.85546">
        <ele>2332</ele>
        <time>2026-08-04T07:27:33.278Z</time>
      </trkpt>
      <trkpt lat="45.95393" lon="6.85545">
        <ele>2332</ele>
        <time>2026-08-04T07:27:34.278Z</time>
      </trkpt>
      <trkpt lat="45.95393" lon="6.85544">
        <ele>2332</ele>
        <time>2026-08-04T07:27:35.278Z</time>
      </trkpt>
      <trkpt lat="45.95393" lon="6.85544">
        <ele>2332</ele>
        <time>2026-08-04T07:27:36.278Z</time>
      </trkpt>
      <trkpt lat="45.95393" lon="6.85543">
        <ele>2332</ele>
        <time>2026-08-04T07:27:37.278Z</time>
      </trkpt>
      <trkpt lat="45.95393" lon="6.85543">
        <ele>2332</ele>
        <time>2026-08-04T07:27:38.278Z</time>
      </trkpt>
      <trkpt lat="45.95393" lon="6.85543">
        <ele>2332</ele>
        <time>2026-08-04T07:27:39.278Z</time>
      </trkpt>
      <trkpt lat="45.95393" lon="6.85543">
        <ele>2332</ele>
        <time>2026-08-04T07:27:40.278Z</time>
      </trkpt>
      <trkpt lat="45.95393" lon="6.85542">
        <ele>2332</ele>
        <time>2026-08-04T07:27:41.278Z</time>
      </trkpt>
      <trkpt lat="45.95393" lon="6.85542">
        <ele>2332</ele>
        <time>2026-08-04T07:27:42.278Z</time>
      </trkpt>
      <trkpt lat="45.95394" lon="6.85542">
        <ele>2332</ele>
        <time>2026-08-04T07:27:43.278Z</time>
      </trkpt>
      <trkpt lat="45.95394" lon="6.85542">
        <ele>2332</ele>
        <time>2026-08-04T07:27:44.278Z</time>
      </trkpt>
      <trkpt lat="45.95394" lon="6.85541">
        <ele>2332</ele>
        <time>2026-08-04T07:27:45.278Z</time>
      </trkpt>
      <trkpt lat="45.95394" lon="6.85541">
        <ele>2332</ele>
        <time>2026-08-04T07:27:46.278Z</time>
      </trkpt>
      <trkpt lat="45.95395" lon="6.85541">
        <ele>2332</ele>
        <time>2026-08-04T07:27:47.278Z</time>
      </trkpt>
      <trkpt lat="45.95395" lon="6.85541">
        <ele>2332</ele>
        <time>2026-08-04T07:27:48.278Z</time>
      </trkpt>
      <trkpt lat="45.95395" lon="6.85541">
        <ele>2332</ele>
        <time>2026-08-04T07:27:49.278Z</time>
      </trkpt>
      <trkpt lat="45.95395" lon="6.85541">
        <ele>2332</ele>
        <time>2026-08-04T07:27:50.278Z</time>
      </trkpt>
      <trkpt lat="45.95395" lon="6.8554">
        <ele>2332</ele>
        <time>2026-08-04T07:27:51.278Z</time>
      </trkpt>
      <trkpt lat="45.95395" lon="6.8554">
        <ele>2332</ele>
        <time>2026-08-04T07:27:52.278Z</time>
      </trkpt>
      <trkpt lat="45.95395" lon="6.8554">
        <ele>2332</ele>
        <time>2026-08-04T07:27:53.278Z</time>
      </trkpt>
      <trkpt lat="45.95396" lon="6.8554">
        <ele>2332</ele>
        <time>2026-08-04T07:27:54.278Z</time>
      </trkpt>
      <trkpt lat="45.95396" lon="6.8554">
        <ele>2332</ele>
        <time>2026-08-04T07:27:55.278Z</time>
      </trkpt>
      <trkpt lat="45.95396" lon="6.8554">
        <ele>2332</ele>
        <time>2026-08-04T07:27:56.278Z</time>
      </trkpt>
      <trkpt lat="45.95397" lon="6.8554">
        <ele>2332</ele>
        <time>2026-08-04T07:27:57.278Z</time>
      </trkpt>
      <trkpt lat="45.95397" lon="6.8554">
        <ele>2332</ele>
        <time>2026-08-04T07:27:58.278Z</time>
      </trkpt>
      <trkpt lat="45.95398" lon="6.8554">
        <ele>2332</ele>
        <time>2026-08-04T07:27:59.278Z</time>
      </trkpt>
      <trkpt lat="45.95398" lon="6.8554">
        <ele>2332</ele>
        <time>2026-08-04T07:28:00.278Z</time>
      </trkpt>
      <trkpt lat="45.95399" lon="6.8554">
        <ele>2332</ele>
        <time>2026-08-04T07:28:01.278Z</time>
      </trkpt>
      <trkpt lat="45.95399" lon="6.85539">
        <ele>2332</ele>
        <time>2026-08-04T07:28:02.279Z</time>
      </trkpt>
      <trkpt lat="45.95399" lon="6.85539">
        <ele>2332</ele>
        <time>2026-08-04T07:28:03.278Z</time>
      </trkpt>
      <trkpt lat="45.95399" lon="6.85539">
        <ele>2332</ele>
        <time>2026-08-04T07:28:04.278Z</time>
      </trkpt>
      <trkpt lat="45.95399" lon="6.85539">
        <ele>2332</ele>
        <time>2026-08-04T07:28:05.278Z</time>
      </trkpt>
      <trkpt lat="45.95399" lon="6.85539">
        <ele>2332</ele>
        <time>2026-08-04T07:28:06.278Z</time>
      </trkpt>
      <trkpt lat="45.954" lon="6.85539">
        <ele>2332</ele>
        <time>2026-08-04T07:28:07.278Z</time>
      </trkpt>
      <trkpt lat="45.954" lon="6.85539">
        <ele>2332</ele>
        <time>2026-08-04T07:28:08.278Z</time>
      </trkpt>
      <trkpt lat="45.954" lon="6.85539">
        <ele>2332</ele>
        <time>2026-08-04T07:28:09.278Z</time>
      </trkpt>
      <trkpt lat="45.954" lon="6.85539">
        <ele>2332</ele>
        <time>2026-08-04T07:28:10.278Z</time>
      </trkpt>
      <trkpt lat="45.95401" lon="6.85539">
        <ele>2332</ele>
        <time>2026-08-04T07:28:11.278Z</time>
      </trkpt>
      <trkpt lat="45.95401" lon="6.85539">
        <ele>2332</ele>
        <time>2026-08-04T07:28:12.278Z</time>
      </trkpt>
      <trkpt lat="45.95402" lon="6.85539">
        <ele>2332</ele>
        <time>2026-08-04T07:28:13.278Z</time>
      </trkpt>
      <trkpt lat="45.95402" lon="6.85539">
        <ele>2332</ele>
        <time>2026-08-04T07:28:14.278Z</time>
      </trkpt>
      <trkpt lat="45.95402" lon="6.85538">
        <ele>2332</ele>
        <time>2026-08-04T07:28:15.278Z</time>
      </trkpt>
      <trkpt lat="45.95402" lon="6.85538">
        <ele>2332</ele>
        <time>2026-08-04T07:28:16.278Z</time>
      </trkpt>
      <trkpt lat="45.95403" lon="6.85538">
        <ele>2333</ele>
        <time>2026-08-04T07:28:17.278Z</time>
      </trkpt>
      <trkpt lat="45.95403" lon="6.85538">
        <ele>2333</ele>
        <time>2026-08-04T07:28:18.278Z</time>
      </trkpt>
      <trkpt lat="45.95403" lon="6.85538">
        <ele>2333</ele>
        <time>2026-08-04T07:28:19.278Z</time>
      </trkpt>
      <trkpt lat="45.95404" lon="6.85538">
        <ele>2333</ele>
        <time>2026-08-04T07:28:20.278Z</time>
      </trkpt>
      <trkpt lat="45.95404" lon="6.85538">
        <ele>2333</ele>
        <time>2026-08-04T07:28:21.278Z</time>
      </trkpt>
      <trkpt lat="45.95404" lon="6.85538">
        <ele>2333</ele>
        <time>2026-08-04T07:28:22.278Z</time>
      </trkpt>
      <trkpt lat="45.95405" lon="6.85538">
        <ele>2333</ele>
        <time>2026-08-04T07:28:23.278Z</time>
      </trkpt>
      <trkpt lat="45.95405" lon="6.85538">
        <ele>2333</ele>
        <time>2026-08-04T07:28:24.278Z</time>
      </trkpt>
      <trkpt lat="45.95405" lon="6.85537">
        <ele>2333</ele>
        <time>2026-08-04T07:28:25.278Z</time>
      </trkpt>
      <trkpt lat="45.95406" lon="6.85536">
        <ele>2333</ele>
        <time>2026-08-04T07:28:26.278Z</time>
      </trkpt>
      <trkpt lat="45.95406" lon="6.85535">
        <ele>2333</ele>
        <time>2026-08-04T07:28:27.278Z</time>
      </trkpt>
      <trkpt lat="45.95407" lon="6.85534">
        <ele>2333</ele>
        <time>2026-08-04T07:28:28.278Z</time>
      </trkpt>
      <trkpt lat="45.95408" lon="6.85533">
        <ele>2333</ele>
        <time>2026-08-04T07:28:29.278Z</time>
      </trkpt>
      <trkpt lat="45.95408" lon="6.85532">
        <ele>2334</ele>
        <time>2026-08-04T07:28:30.278Z</time>
      </trkpt>
      <trkpt lat="45.95409" lon="6.85531">
        <ele>2335</ele>
        <time>2026-08-04T07:28:31.278Z</time>
      </trkpt>
      <trkpt lat="45.95409" lon="6.8553">
        <ele>2335</ele>
        <time>2026-08-04T07:28:32.278Z</time>
      </trkpt>
      <trkpt lat="45.95409" lon="6.8553">
        <ele>2336</ele>
        <time>2026-08-04T07:28:33.278Z</time>
      </trkpt>
      <trkpt lat="45.9541" lon="6.85528">
        <ele>2337</ele>
        <time>2026-08-04T07:28:34.278Z</time>
      </trkpt>
      <trkpt lat="45.9541" lon="6.85527">
        <ele>2338</ele>
        <time>2026-08-04T07:28:35.278Z</time>
      </trkpt>
      <trkpt lat="45.95411" lon="6.85527">
        <ele>2339</ele>
        <time>2026-08-04T07:28:36.278Z</time>
      </trkpt>
      <trkpt lat="45.95411" lon="6.85526">
        <ele>2340</ele>
        <time>2026-08-04T07:28:37.278Z</time>
      </trkpt>
      <trkpt lat="45.95412" lon="6.85526">
        <ele>2341</ele>
        <time>2026-08-04T07:28:38.278Z</time>
      </trkpt>
      <trkpt lat="45.95412" lon="6.85526">
        <ele>2341</ele>
        <time>2026-08-04T07:28:39.278Z</time>
      </trkpt>
      <trkpt lat="45.95412" lon="6.85525">
        <ele>2342</ele>
        <time>2026-08-04T07:28:40.278Z</time>
      </trkpt>
      <trkpt lat="45.95413" lon="6.85525">
        <ele>2343</ele>
        <time>2026-08-04T07:28:41.278Z</time>
      </trkpt>
      <trkpt lat="45.95413" lon="6.85525">
        <ele>2344</ele>
        <time>2026-08-04T07:28:42.278Z</time>
      </trkpt>
      <trkpt lat="45.95413" lon="6.85525">
        <ele>2345</ele>
        <time>2026-08-04T07:28:43.278Z</time>
      </trkpt>
      <trkpt lat="45.95413" lon="6.85524">
        <ele>2346</ele>
        <time>2026-08-04T07:28:44.278Z</time>
      </trkpt>
      <trkpt lat="45.95413" lon="6.85523">
        <ele>2347</ele>
        <time>2026-08-04T07:28:45.278Z</time>
      </trkpt>
      <trkpt lat="45.95413" lon="6.85522">
        <ele>2348</ele>
        <time>2026-08-04T07:28:46.278Z</time>
      </trkpt>
      <trkpt lat="45.95413" lon="6.85522">
        <ele>2349</ele>
        <time>2026-08-04T07:28:47.278Z</time>
      </trkpt>
      <trkpt lat="45.95414" lon="6.85522">
        <ele>2350</ele>
        <time>2026-08-04T07:28:48.278Z</time>
      </trkpt>
      <trkpt lat="45.95415" lon="6.85522">
        <ele>2350</ele>
        <time>2026-08-04T07:28:49.278Z</time>
      </trkpt>
      <trkpt lat="45.95415" lon="6.85522">
        <ele>2351</ele>
        <time>2026-08-04T07:28:50.278Z</time>
      </trkpt>
      <trkpt lat="45.95415" lon="6.85521">
        <ele>2352</ele>
        <time>2026-08-04T07:28:51.278Z</time>
      </trkpt>
      <trkpt lat="45.95416" lon="6.85522">
        <ele>2352</ele>
        <time>2026-08-04T07:28:52.278Z</time>
      </trkpt>
      <trkpt lat="45.95416" lon="6.85521">
        <ele>2353</ele>
        <time>2026-08-04T07:28:53.278Z</time>
      </trkpt>
      <trkpt lat="45.95416" lon="6.85522">
        <ele>2353</ele>
        <time>2026-08-04T07:28:54.278Z</time>
      </trkpt>
      <trkpt lat="45.95417" lon="6.85521">
        <ele>2354</ele>
        <time>2026-08-04T07:28:55.278Z</time>
      </trkpt>
      <trkpt lat="45.95417" lon="6.85521">
        <ele>2354</ele>
        <time>2026-08-04T07:28:56.278Z</time>
      </trkpt>
      <trkpt lat="45.95417" lon="6.85521">
        <ele>2355</ele>
        <time>2026-08-04T07:28:57.278Z</time>
      </trkpt>
      <trkpt lat="45.95418" lon="6.85521">
        <ele>2355</ele>
        <time>2026-08-04T07:28:58.278Z</time>
      </trkpt>
      <trkpt lat="45.95417" lon="6.85522">
        <ele>2355</ele>
        <time>2026-08-04T07:28:59.278Z</time>
      </trkpt>
      <trkpt lat="45.95418" lon="6.85522">
        <ele>2356</ele>
        <time>2026-08-04T07:29:00.278Z</time>
      </trkpt>
      <trkpt lat="45.95418" lon="6.85522">
        <ele>2356</ele>
        <time>2026-08-04T07:29:01.278Z</time>
      </trkpt>
      <trkpt lat="45.95418" lon="6.85522">
        <ele>2357</ele>
        <time>2026-08-04T07:29:02.278Z</time>
      </trkpt>
      <trkpt lat="45.95418" lon="6.85522">
        <ele>2357</ele>
        <time>2026-08-04T07:29:03.278Z</time>
      </trkpt>
      <trkpt lat="45.95418" lon="6.85521">
        <ele>2358</ele>
        <time>2026-08-04T07:29:04.278Z</time>
      </trkpt>
      <trkpt lat="45.95418" lon="6.8552">
        <ele>2358</ele>
        <time>2026-08-04T07:29:05.278Z</time>
      </trkpt>
      <trkpt lat="45.95418" lon="6.8552">
        <ele>2358</ele>
        <time>2026-08-04T07:29:06.278Z</time>
      </trkpt>
      <trkpt lat="45.95418" lon="6.85519">
        <ele>2359</ele>
        <time>2026-08-04T07:29:07.278Z</time>
      </trkpt>
      <trkpt lat="45.95418" lon="6.85519">
        <ele>2360</ele>
        <time>2026-08-04T07:29:08.278Z</time>
      </trkpt>
      <trkpt lat="45.95418" lon="6.8552">
        <ele>2360</ele>
        <time>2026-08-04T07:29:09.278Z</time>
      </trkpt>
      <trkpt lat="45.95419" lon="6.85519">
        <ele>2361</ele>
        <time>2026-08-04T07:29:10.278Z</time>
      </trkpt>
      <trkpt lat="45.95419" lon="6.85519">
        <ele>2361</ele>
        <time>2026-08-04T07:29:11.278Z</time>
      </trkpt>
      <trkpt lat="45.95419" lon="6.85518">
        <ele>2362</ele>
        <time>2026-08-04T07:29:12.278Z</time>
      </trkpt>
      <trkpt lat="45.9542" lon="6.85518">
        <ele>2362</ele>
        <time>2026-08-04T07:29:13.278Z</time>
      </trkpt>
      <trkpt lat="45.9542" lon="6.85517">
        <ele>2363</ele>
        <time>2026-08-04T07:29:14.278Z</time>
      </trkpt>
      <trkpt lat="45.9542" lon="6.85517">
        <ele>2363</ele>
        <time>2026-08-04T07:29:15.278Z</time>
      </trkpt>
      <trkpt lat="45.9542" lon="6.85516">
        <ele>2364</ele>
        <time>2026-08-04T07:29:16.278Z</time>
      </trkpt>
      <trkpt lat="45.9542" lon="6.85517">
        <ele>2364</ele>
        <time>2026-08-04T07:29:17.278Z</time>
      </trkpt>
      <trkpt lat="45.9542" lon="6.85517">
        <ele>2365</ele>
        <time>2026-08-04T07:29:18.278Z</time>
      </trkpt>
      <trkpt lat="45.95419" lon="6.85515">
        <ele>2365</ele>
        <time>2026-08-04T07:29:19.278Z</time>
      </trkpt>
      <trkpt lat="45.95419" lon="6.85515">
        <ele>2366</ele>
        <time>2026-08-04T07:29:20.278Z</time>
      </trkpt>
      <trkpt lat="45.95419" lon="6.85515">
        <ele>2366</ele>
        <time>2026-08-04T07:29:21.278Z</time>
      </trkpt>
      <trkpt lat="45.95419" lon="6.85514">
        <ele>2367</ele>
        <time>2026-08-04T07:29:22.278Z</time>
      </trkpt>
      <trkpt lat="45.9542" lon="6.85514">
        <ele>2368</ele>
        <time>2026-08-04T07:29:23.278Z</time>
      </trkpt>
      <trkpt lat="45.95419" lon="6.85513">
        <ele>2368</ele>
        <time>2026-08-04T07:29:24.278Z</time>
      </trkpt>
      <trkpt lat="45.95419" lon="6.85513">
        <ele>2369</ele>
        <time>2026-08-04T07:29:25.278Z</time>
      </trkpt>
      <trkpt lat="45.95419" lon="6.85513">
        <ele>2370</ele>
        <time>2026-08-04T07:29:26.278Z</time>
      </trkpt>
      <trkpt lat="45.95419" lon="6.85513">
        <ele>2371</ele>
        <time>2026-08-04T07:29:27.278Z</time>
      </trkpt>
      <trkpt lat="45.9542" lon="6.85514">
        <ele>2371</ele>
        <time>2026-08-04T07:29:28.278Z</time>
      </trkpt>
      <trkpt lat="45.9542" lon="6.85514">
        <ele>2372</ele>
        <time>2026-08-04T07:29:29.278Z</time>
      </trkpt>
      <trkpt lat="45.9542" lon="6.85514">
        <ele>2373</ele>
        <time>2026-08-04T07:29:30.278Z</time>
      </trkpt>
      <trkpt lat="45.9542" lon="6.85514">
        <ele>2373</ele>
        <time>2026-08-04T07:29:31.278Z</time>
      </trkpt>
      <trkpt lat="45.9542" lon="6.85514">
        <ele>2374</ele>
        <time>2026-08-04T07:29:32.278Z</time>
      </trkpt>
      <trkpt lat="45.9542" lon="6.85514">
        <ele>2374</ele>
        <time>2026-08-04T07:29:33.278Z</time>
      </trkpt>
      <trkpt lat="45.9542" lon="6.85514">
        <ele>2375</ele>
        <time>2026-08-04T07:29:34.278Z</time>
      </trkpt>
      <trkpt lat="45.9542" lon="6.85515">
        <ele>2376</ele>
        <time>2026-08-04T07:29:35.278Z</time>
      </trkpt>
      <trkpt lat="45.9542" lon="6.85515">
        <ele>2376</ele>
        <time>2026-08-04T07:29:36.278Z</time>
      </trkpt>
      <trkpt lat="45.9542" lon="6.85515">
        <ele>2377</ele>
        <time>2026-08-04T07:29:37.278Z</time>
      </trkpt>
      <trkpt lat="45.95421" lon="6.85515">
        <ele>2377</ele>
        <time>2026-08-04T07:29:38.278Z</time>
      </trkpt>
      <trkpt lat="45.95421" lon="6.85515">
        <ele>2378</ele>
        <time>2026-08-04T07:29:39.278Z</time>
      </trkpt>
      <trkpt lat="45.95421" lon="6.85515">
        <ele>2378</ele>
        <time>2026-08-04T07:29:40.278Z</time>
      </trkpt>
      <trkpt lat="45.95421" lon="6.85515">
        <ele>2378</ele>
        <time>2026-08-04T07:29:41.278Z</time>
      </trkpt>
      <trkpt lat="45.95422" lon="6.85515">
        <ele>2379</ele>
        <time>2026-08-04T07:29:42.278Z</time>
      </trkpt>
      <trkpt lat="45.95422" lon="6.85515">
        <ele>2379</ele>
        <time>2026-08-04T07:29:43.278Z</time>
      </trkpt>
      <trkpt lat="45.95422" lon="6.85515">
        <ele>2379</ele>
        <time>2026-08-04T07:29:44.278Z</time>
      </trkpt>
      <trkpt lat="45.95423" lon="6.85515">
        <ele>2380</ele>
        <time>2026-08-04T07:29:45.278Z</time>
      </trkpt>
      <trkpt lat="45.95423" lon="6.85514">
        <ele>2380</ele>
        <time>2026-08-04T07:29:46.278Z</time>
      </trkpt>
      <trkpt lat="45.95423" lon="6.85513">
        <ele>2380</ele>
        <time>2026-08-04T07:29:47.278Z</time>
      </trkpt>
      <trkpt lat="45.95423" lon="6.85513">
        <ele>2381</ele>
        <time>2026-08-04T07:29:48.278Z</time>
      </trkpt>
      <trkpt lat="45.95423" lon="6.85513">
        <ele>2381</ele>
        <time>2026-08-04T07:29:49.278Z</time>
      </trkpt>
      <trkpt lat="45.95423" lon="6.85513">
        <ele>2382</ele>
        <time>2026-08-04T07:29:50.278Z</time>
      </trkpt>
      <trkpt lat="45.95423" lon="6.85513">
        <ele>2382</ele>
        <time>2026-08-04T07:29:51.278Z</time>
      </trkpt>
      <trkpt lat="45.95423" lon="6.85513">
        <ele>2382</ele>
        <time>2026-08-04T07:29:52.278Z</time>
      </trkpt>
      <trkpt lat="45.95423" lon="6.85513">
        <ele>2383</ele>
        <time>2026-08-04T07:29:53.278Z</time>
      </trkpt>
      <trkpt lat="45.95423" lon="6.85513">
        <ele>2383</ele>
        <time>2026-08-04T07:29:54.278Z</time>
      </trkpt>
      <trkpt lat="45.95423" lon="6.85513">
        <ele>2383</ele>
        <time>2026-08-04T07:29:55.278Z</time>
      </trkpt>
      <trkpt lat="45.95423" lon="6.85513">
        <ele>2383</ele>
        <time>2026-08-04T07:29:56.278Z</time>
      </trkpt>
      <trkpt lat="45.95423" lon="6.85513">
        <ele>2384</ele>
        <time>2026-08-04T07:29:57.278Z</time>
      </trkpt>
      <trkpt lat="45.95423" lon="6.85513">
        <ele>2384</ele>
        <time>2026-08-04T07:29:58.278Z</time>
      </trkpt>
      <trkpt lat="45.95423" lon="6.85513">
        <ele>2384</ele>
        <time>2026-08-04T07:29:59.278Z</time>
      </trkpt>
      <trkpt lat="45.95423" lon="6.85513">
        <ele>2384</ele>
        <time>2026-08-04T07:30:00.278Z</time>
      </trkpt>
      <trkpt lat="45.95423" lon="6.85513">
        <ele>2385</ele>
        <time>2026-08-04T07:30:01.278Z</time>
      </trkpt>
      <trkpt lat="45.95423" lon="6.85513">
        <ele>2385</ele>
        <time>2026-08-04T07:30:02.278Z</time>
      </trkpt>
      <trkpt lat="45.95423" lon="6.85513">
        <ele>2385</ele>
        <time>2026-08-04T07:30:03.278Z</time>
      </trkpt>
      <trkpt lat="45.95423" lon="6.85513">
        <ele>2385</ele>
        <time>2026-08-04T07:30:04.278Z</time>
      </trkpt>
      <trkpt lat="45.95423" lon="6.85513">
        <ele>2385</ele>
        <time>2026-08-04T07:30:05.278Z</time>
      </trkpt>
      <trkpt lat="45.95423" lon="6.85513">
        <ele>2385</ele>
        <time>2026-08-04T07:30:06.278Z</time>
      </trkpt>
      <trkpt lat="45.95423" lon="6.85513">
        <ele>2385</ele>
        <time>2026-08-04T07:30:07.278Z</time>
      </trkpt>
      <trkpt lat="45.95423" lon="6.85513">
        <ele>2385</ele>
        <time>2026-08-04T07:30:08.278Z</time>
      </trkpt>
      <trkpt lat="45.95423" lon="6.85513">
        <ele>2385</ele>
        <time>2026-08-04T07:30:09.278Z</time>
      </trkpt>
      <trkpt lat="45.95424" lon="6.85513">
        <ele>2386</ele>
        <time>2026-08-04T07:30:10.278Z</time>
      </trkpt>
      <trkpt lat="45.95424" lon="6.85513">
        <ele>2386</ele>
        <time>2026-08-04T07:30:11.278Z</time>
      </trkpt>
      <trkpt lat="45.95424" lon="6.85513">
        <ele>2386</ele>
        <time>2026-08-04T07:30:12.278Z</time>
      </trkpt>
      <trkpt lat="45.95424" lon="6.85512">
        <ele>2386</ele>
        <time>2026-08-04T07:30:13.278Z</time>
      </trkpt>
      <trkpt lat="45.95424" lon="6.85512">
        <ele>2386</ele>
        <time>2026-08-04T07:30:14.278Z</time>
      </trkpt>
      <trkpt lat="45.95424" lon="6.85512">
        <ele>2386</ele>
        <time>2026-08-04T07:30:15.278Z</time>
      </trkpt>
      <trkpt lat="45.95424" lon="6.85512">
        <ele>2386</ele>
        <time>2026-08-04T07:30:16.278Z</time>
      </trkpt>
      <trkpt lat="45.95425" lon="6.85512">
        <ele>2386</ele>
        <time>2026-08-04T07:30:17.278Z</time>
      </trkpt>
      <trkpt lat="45.95425" lon="6.85512">
        <ele>2386</ele>
        <time>2026-08-04T07:30:18.278Z</time>
      </trkpt>
      <trkpt lat="45.95425" lon="6.85512">
        <ele>2386</ele>
        <time>2026-08-04T07:30:19.278Z</time>
      </trkpt>
      <trkpt lat="45.95425" lon="6.85512">
        <ele>2386</ele>
        <time>2026-08-04T07:30:20.278Z</time>
      </trkpt>
      <trkpt lat="45.95425" lon="6.85512">
        <ele>2386</ele>
        <time>2026-08-04T07:30:21.278Z</time>
      </trkpt>
      <trkpt lat="45.95425" lon="6.85512">
        <ele>2386</ele>
        <time>2026-08-04T07:30:22.278Z</time>
      </trkpt>
      <trkpt lat="45.95425" lon="6.85512">
        <ele>2386</ele>
        <time>2026-08-04T07:30:23.278Z</time>
      </trkpt>
      <trkpt lat="45.95425" lon="6.85512">
        <ele>2386</ele>
        <time>2026-08-04T07:30:24.278Z</time>
      </trkpt>
      <trkpt lat="45.95425" lon="6.85512">
        <ele>2386</ele>
        <time>2026-08-04T07:30:25.278Z</time>
      </trkpt>
      <trkpt lat="45.95426" lon="6.85512">
        <ele>2386</ele>
        <time>2026-08-04T07:30:26.278Z</time>
      </trkpt>
      <trkpt lat="45.95426" lon="6.85512">
        <ele>2386</ele>
        <time>2026-08-04T07:30:27.278Z</time>
      </trkpt>
      <trkpt lat="45.95426" lon="6.85512">
        <ele>2386</ele>
        <time>2026-08-04T07:30:28.278Z</time>
      </trkpt>
      <trkpt lat="45.95426" lon="6.85512">
        <ele>2386</ele>
        <time>2026-08-04T07:30:29.278Z</time>
      </trkpt>
      <trkpt lat="45.95426" lon="6.85512">
        <ele>2386</ele>
        <time>2026-08-04T07:30:30.278Z</time>
      </trkpt>
      <trkpt lat="45.95427" lon="6.85512">
        <ele>2386</ele>
        <time>2026-08-04T07:30:31.278Z</time>
      </trkpt>
      <trkpt lat="45.95427" lon="6.85512">
        <ele>2386</ele>
        <time>2026-08-04T07:30:32.278Z</time>
      </trkpt>
      <trkpt lat="45.95427" lon="6.85512">
        <ele>2386</ele>
        <time>2026-08-04T07:30:33.278Z</time>
      </trkpt>
      <trkpt lat="45.95428" lon="6.85512">
        <ele>2386</ele>
        <time>2026-08-04T07:30:34.278Z</time>
      </trkpt>
      <trkpt lat="45.95428" lon="6.85512">
        <ele>2386</ele>
        <time>2026-08-04T07:30:35.278Z</time>
      </trkpt>
      <trkpt lat="45.95429" lon="6.85512">
        <ele>2386</ele>
        <time>2026-08-04T07:30:36.278Z</time>
      </trkpt>
      <trkpt lat="45.95429" lon="6.85512">
        <ele>2386</ele>
        <time>2026-08-04T07:30:37.278Z</time>
      </trkpt>
      <trkpt lat="45.9543" lon="6.85513">
        <ele>2386</ele>
        <time>2026-08-04T07:30:38.278Z</time>
      </trkpt>
      <trkpt lat="45.9543" lon="6.85513">
        <ele>2386</ele>
        <time>2026-08-04T07:30:39.278Z</time>
      </trkpt>
      <trkpt lat="45.95431" lon="6.85513">
        <ele>2386</ele>
        <time>2026-08-04T07:30:40.278Z</time>
      </trkpt>
      <trkpt lat="45.95431" lon="6.85514">
        <ele>2387</ele>
        <time>2026-08-04T07:30:41.278Z</time>
      </trkpt>
      <trkpt lat="45.95432" lon="6.85514">
        <ele>2387</ele>
        <time>2026-08-04T07:30:42.278Z</time>
      </trkpt>
      <trkpt lat="45.95432" lon="6.85514">
        <ele>2387</ele>
        <time>2026-08-04T07:30:43.278Z</time>
      </trkpt>
      <trkpt lat="45.95432" lon="6.85515">
        <ele>2387</ele>
        <time>2026-08-04T07:30:44.278Z</time>
      </trkpt>
      <trkpt lat="45.95432" lon="6.85515">
        <ele>2387</ele>
        <time>2026-08-04T07:30:45.278Z</time>
      </trkpt>
      <trkpt lat="45.95432" lon="6.85515">
        <ele>2387</ele>
        <time>2026-08-04T07:30:46.278Z</time>
      </trkpt>
      <trkpt lat="45.95432" lon="6.85515">
        <ele>2387</ele>
        <time>2026-08-04T07:30:47.278Z</time>
      </trkpt>
      <trkpt lat="45.95433" lon="6.85515">
        <ele>2387</ele>
        <time>2026-08-04T07:30:48.278Z</time>
      </trkpt>
      <trkpt lat="45.95433" lon="6.85515">
        <ele>2387</ele>
        <time>2026-08-04T07:30:49.278Z</time>
      </trkpt>
      <trkpt lat="45.95433" lon="6.85515">
        <ele>2387</ele>
        <time>2026-08-04T07:30:50.278Z</time>
      </trkpt>
      <trkpt lat="45.95433" lon="6.85514">
        <ele>2387</ele>
        <time>2026-08-04T07:30:51.278Z</time>
      </trkpt>
      <trkpt lat="45.95433" lon="6.85514">
        <ele>2387</ele>
        <time>2026-08-04T07:30:52.278Z</time>
      </trkpt>
      <trkpt lat="45.95434" lon="6.85514">
        <ele>2387</ele>
        <time>2026-08-04T07:30:53.278Z</time>
      </trkpt>
      <trkpt lat="45.95435" lon="6.85515">
        <ele>2387</ele>
        <time>2026-08-04T07:30:54.278Z</time>
      </trkpt>
      <trkpt lat="45.95435" lon="6.85515">
        <ele>2388</ele>
        <time>2026-08-04T07:30:55.278Z</time>
      </trkpt>
      <trkpt lat="45.95435" lon="6.85515">
        <ele>2388</ele>
        <time>2026-08-04T07:30:56.278Z</time>
      </trkpt>
      <trkpt lat="45.95435" lon="6.85515">
        <ele>2388</ele>
        <time>2026-08-04T07:30:57.278Z</time>
      </trkpt>
      <trkpt lat="45.95435" lon="6.85516">
        <ele>2388</ele>
        <time>2026-08-04T07:30:58.278Z</time>
      </trkpt>
      <trkpt lat="45.95436" lon="6.85516">
        <ele>2388</ele>
        <time>2026-08-04T07:30:59.278Z</time>
      </trkpt>
      <trkpt lat="45.95435" lon="6.85515">
        <ele>2388</ele>
        <time>2026-08-04T07:31:00.278Z</time>
      </trkpt>
      <trkpt lat="45.95435" lon="6.85515">
        <ele>2388</ele>
        <time>2026-08-04T07:31:01.278Z</time>
      </trkpt>
      <trkpt lat="45.95435" lon="6.85514">
        <ele>2388</ele>
        <time>2026-08-04T07:31:02.278Z</time>
      </trkpt>
      <trkpt lat="45.95435" lon="6.85514">
        <ele>2388</ele>
        <time>2026-08-04T07:31:03.278Z</time>
      </trkpt>
      <trkpt lat="45.95435" lon="6.85514">
        <ele>2388</ele>
        <time>2026-08-04T07:31:04.278Z</time>
      </trkpt>
      <trkpt lat="45.95435" lon="6.85514">
        <ele>2387</ele>
        <time>2026-08-04T07:31:05.278Z</time>
      </trkpt>
      <trkpt lat="45.95436" lon="6.85514">
        <ele>2387</ele>
        <time>2026-08-04T07:31:06.278Z</time>
      </trkpt>
      <trkpt lat="45.95436" lon="6.85514">
        <ele>2387</ele>
        <time>2026-08-04T07:31:07.278Z</time>
      </trkpt>
      <trkpt lat="45.95437" lon="6.85514">
        <ele>2387</ele>
        <time>2026-08-04T07:31:08.278Z</time>
      </trkpt>
      <trkpt lat="45.95437" lon="6.85514">
        <ele>2386</ele>
        <time>2026-08-04T07:31:09.278Z</time>
      </trkpt>
      <trkpt lat="45.95437" lon="6.85513">
        <ele>2386</ele>
        <time>2026-08-04T07:31:10.278Z</time>
      </trkpt>
      <trkpt lat="45.95438" lon="6.85513">
        <ele>2386</ele>
        <time>2026-08-04T07:31:11.278Z</time>
      </trkpt>
      <trkpt lat="45.95439" lon="6.85513">
        <ele>2386</ele>
        <time>2026-08-04T07:31:12.278Z</time>
      </trkpt>
      <trkpt lat="45.95439" lon="6.85512">
        <ele>2386</ele>
        <time>2026-08-04T07:31:13.278Z</time>
      </trkpt>
      <trkpt lat="45.9544" lon="6.85512">
        <ele>2385</ele>
        <time>2026-08-04T07:31:14.278Z</time>
      </trkpt>
      <trkpt lat="45.9544" lon="6.85512">
        <ele>2385</ele>
        <time>2026-08-04T07:31:15.278Z</time>
      </trkpt>
      <trkpt lat="45.9544" lon="6.85512">
        <ele>2385</ele>
        <time>2026-08-04T07:31:16.278Z</time>
      </trkpt>
      <trkpt lat="45.95441" lon="6.85512">
        <ele>2385</ele>
        <time>2026-08-04T07:31:17.278Z</time>
      </trkpt>
      <trkpt lat="45.95441" lon="6.85512">
        <ele>2385</ele>
        <time>2026-08-04T07:31:18.278Z</time>
      </trkpt>
      <trkpt lat="45.95442" lon="6.85512">
        <ele>2385</ele>
        <time>2026-08-04T07:31:19.278Z</time>
      </trkpt>
      <trkpt lat="45.95442" lon="6.85512">
        <ele>2385</ele>
        <time>2026-08-04T07:31:20.278Z</time>
      </trkpt>
      <trkpt lat="45.95443" lon="6.85512">
        <ele>2385</ele>
        <time>2026-08-04T07:31:21.278Z</time>
      </trkpt>
      <trkpt lat="45.95443" lon="6.85512">
        <ele>2386</ele>
        <time>2026-08-04T07:31:22.278Z</time>
      </trkpt>
      <trkpt lat="45.95443" lon="6.85513">
        <ele>2386</ele>
        <time>2026-08-04T07:31:23.278Z</time>
      </trkpt>
      <trkpt lat="45.95444" lon="6.85513">
        <ele>2386</ele>
        <time>2026-08-04T07:31:24.278Z</time>
      </trkpt>
      <trkpt lat="45.95444" lon="6.85513">
        <ele>2386</ele>
        <time>2026-08-04T07:31:25.278Z</time>
      </trkpt>
      <trkpt lat="45.95444" lon="6.85513">
        <ele>2386</ele>
        <time>2026-08-04T07:31:26.278Z</time>
      </trkpt>
      <trkpt lat="45.95445" lon="6.85513">
        <ele>2387</ele>
        <time>2026-08-04T07:31:27.278Z</time>
      </trkpt>
      <trkpt lat="45.95445" lon="6.85513">
        <ele>2387</ele>
        <time>2026-08-04T07:31:28.278Z</time>
      </trkpt>
      <trkpt lat="45.95445" lon="6.85514">
        <ele>2387</ele>
        <time>2026-08-04T07:31:29.278Z</time>
      </trkpt>
      <trkpt lat="45.95445" lon="6.85514">
        <ele>2388</ele>
        <time>2026-08-04T07:31:30.278Z</time>
      </trkpt>
      <trkpt lat="45.95445" lon="6.85514">
        <ele>2388</ele>
        <time>2026-08-04T07:31:31.278Z</time>
      </trkpt>
      <trkpt lat="45.95444" lon="6.85514">
        <ele>2388</ele>
        <time>2026-08-04T07:31:32.278Z</time>
      </trkpt>
      <trkpt lat="45.95444" lon="6.85514">
        <ele>2389</ele>
        <time>2026-08-04T07:31:33.278Z</time>
      </trkpt>
      <trkpt lat="45.95444" lon="6.85514">
        <ele>2389</ele>
        <time>2026-08-04T07:31:34.278Z</time>
      </trkpt>
      <trkpt lat="45.95444" lon="6.85514">
        <ele>2389</ele>
        <time>2026-08-04T07:31:35.278Z</time>
      </trkpt>
      <trkpt lat="45.95444" lon="6.85514">
        <ele>2389</ele>
        <time>2026-08-04T07:31:36.278Z</time>
      </trkpt>
      <trkpt lat="45.95444" lon="6.85514">
        <ele>2389</ele>
        <time>2026-08-04T07:31:37.278Z</time>
      </trkpt>
      <trkpt lat="45.95444" lon="6.85514">
        <ele>2390</ele>
        <time>2026-08-04T07:31:38.278Z</time>
      </trkpt>
      <trkpt lat="45.95444" lon="6.85514">
        <ele>2390</ele>
        <time>2026-08-04T07:31:39.278Z</time>
      </trkpt>
      <trkpt lat="45.95444" lon="6.85514">
        <ele>2390</ele>
        <time>2026-08-04T07:31:40.278Z</time>
      </trkpt>
      <trkpt lat="45.95444" lon="6.85514">
        <ele>2390</ele>
        <time>2026-08-04T07:31:41.278Z</time>
      </trkpt>
      <trkpt lat="45.95444" lon="6.85514">
        <ele>2390</ele>
        <time>2026-08-04T07:31:42.278Z</time>
      </trkpt>
      <trkpt lat="45.95444" lon="6.85514">
        <ele>2391</ele>
        <time>2026-08-04T07:31:43.278Z</time>
      </trkpt>
      <trkpt lat="45.95444" lon="6.85514">
        <ele>2391</ele>
        <time>2026-08-04T07:31:44.278Z</time>
      </trkpt>
      <trkpt lat="45.95444" lon="6.85514">
        <ele>2391</ele>
        <time>2026-08-04T07:31:45.278Z</time>
      </trkpt>
      <trkpt lat="45.95445" lon="6.85514">
        <ele>2391</ele>
        <time>2026-08-04T07:31:46.278Z</time>
      </trkpt>
      <trkpt lat="45.95445" lon="6.85514">
        <ele>2391</ele>
        <time>2026-08-04T07:31:47.278Z</time>
      </trkpt>
      <trkpt lat="45.95445" lon="6.85514">
        <ele>2391</ele>
        <time>2026-08-04T07:31:48.278Z</time>
      </trkpt>
      <trkpt lat="45.95445" lon="6.85514">
        <ele>2391</ele>
        <time>2026-08-04T07:31:49.278Z</time>
      </trkpt>
      <trkpt lat="45.95445" lon="6.85514">
        <ele>2391</ele>
        <time>2026-08-04T07:31:50.278Z</time>
      </trkpt>
      <trkpt lat="45.95445" lon="6.85514">
        <ele>2391</ele>
        <time>2026-08-04T07:31:51.278Z</time>
      </trkpt>
      <trkpt lat="45.95445" lon="6.85514">
        <ele>2391</ele>
        <time>2026-08-04T07:31:52.278Z</time>
      </trkpt>
      <trkpt lat="45.95445" lon="6.85514">
        <ele>2392</ele>
        <time>2026-08-04T07:31:53.278Z</time>
      </trkpt>
      <trkpt lat="45.95446" lon="6.85514">
        <ele>2392</ele>
        <time>2026-08-04T07:31:54.278Z</time>
      </trkpt>
      <trkpt lat="45.95446" lon="6.85514">
        <ele>2392</ele>
        <time>2026-08-04T07:31:55.278Z</time>
      </trkpt>
      <trkpt lat="45.95447" lon="6.85513">
        <ele>2392</ele>
        <time>2026-08-04T07:31:56.278Z</time>
      </trkpt>
      <trkpt lat="45.95447" lon="6.85513">
        <ele>2392</ele>
        <time>2026-08-04T07:31:57.278Z</time>
      </trkpt>
      <trkpt lat="45.95448" lon="6.85513">
        <ele>2392</ele>
        <time>2026-08-04T07:31:58.278Z</time>
      </trkpt>
      <trkpt lat="45.95448" lon="6.85513">
        <ele>2392</ele>
        <time>2026-08-04T07:31:59.278Z</time>
      </trkpt>
      <trkpt lat="45.95448" lon="6.85513">
        <ele>2392</ele>
        <time>2026-08-04T07:32:00.278Z</time>
      </trkpt>
      <trkpt lat="45.95448" lon="6.85513">
        <ele>2392</ele>
        <time>2026-08-04T07:32:01.278Z</time>
      </trkpt>
      <trkpt lat="45.95449" lon="6.85513">
        <ele>2392</ele>
        <time>2026-08-04T07:32:02.278Z</time>
      </trkpt>
      <trkpt lat="45.95449" lon="6.85513">
        <ele>2392</ele>
        <time>2026-08-04T07:32:03.278Z</time>
      </trkpt>
      <trkpt lat="45.95449" lon="6.85513">
        <ele>2392</ele>
        <time>2026-08-04T07:32:04.278Z</time>
      </trkpt>
      <trkpt lat="45.9545" lon="6.85513">
        <ele>2392</ele>
        <time>2026-08-04T07:32:05.278Z</time>
      </trkpt>
      <trkpt lat="45.95451" lon="6.85513">
        <ele>2392</ele>
        <time>2026-08-04T07:32:06.278Z</time>
      </trkpt>
      <trkpt lat="45.95452" lon="6.85514">
        <ele>2392</ele>
        <time>2026-08-04T07:32:07.278Z</time>
      </trkpt>
      <trkpt lat="45.95452" lon="6.85514">
        <ele>2392</ele>
        <time>2026-08-04T07:32:08.278Z</time>
      </trkpt>
      <trkpt lat="45.95453" lon="6.85514">
        <ele>2392</ele>
        <time>2026-08-04T07:32:09.278Z</time>
      </trkpt>
      <trkpt lat="45.95454" lon="6.85514">
        <ele>2392</ele>
        <time>2026-08-04T07:32:10.278Z</time>
      </trkpt>
      <trkpt lat="45.95455" lon="6.85515">
        <ele>2392</ele>
        <time>2026-08-04T07:32:11.278Z</time>
      </trkpt>
      <trkpt lat="45.95455" lon="6.85515">
        <ele>2392</ele>
        <time>2026-08-04T07:32:12.278Z</time>
      </trkpt>
      <trkpt lat="45.95456" lon="6.85516">
        <ele>2393</ele>
        <time>2026-08-04T07:32:13.278Z</time>
      </trkpt>
      <trkpt lat="45.95457" lon="6.85516">
        <ele>2393</ele>
        <time>2026-08-04T07:32:14.278Z</time>
      </trkpt>
      <trkpt lat="45.95457" lon="6.85516">
        <ele>2393</ele>
        <time>2026-08-04T07:32:15.278Z</time>
      </trkpt>
      <trkpt lat="45.95457" lon="6.85516">
        <ele>2393</ele>
        <time>2026-08-04T07:32:16.278Z</time>
      </trkpt>
      <trkpt lat="45.95457" lon="6.85516">
        <ele>2393</ele>
        <time>2026-08-04T07:32:17.278Z</time>
      </trkpt>
      <trkpt lat="45.95457" lon="6.85516">
        <ele>2392</ele>
        <time>2026-08-04T07:32:18.278Z</time>
      </trkpt>
      <trkpt lat="45.95457" lon="6.85516">
        <ele>2392</ele>
        <time>2026-08-04T07:32:19.278Z</time>
      </trkpt>
      <trkpt lat="45.95458" lon="6.85516">
        <ele>2392</ele>
        <time>2026-08-04T07:32:20.278Z</time>
      </trkpt>
      <trkpt lat="45.95458" lon="6.85516">
        <ele>2392</ele>
        <time>2026-08-04T07:32:21.278Z</time>
      </trkpt>
      <trkpt lat="45.95459" lon="6.85516">
        <ele>2392</ele>
        <time>2026-08-04T07:32:22.278Z</time>
      </trkpt>
      <trkpt lat="45.95459" lon="6.85516">
        <ele>2392</ele>
        <time>2026-08-04T07:32:23.278Z</time>
      </trkpt>
      <trkpt lat="45.9546" lon="6.85517">
        <ele>2391</ele>
        <time>2026-08-04T07:32:24.278Z</time>
      </trkpt>
      <trkpt lat="45.95461" lon="6.85517">
        <ele>2391</ele>
        <time>2026-08-04T07:32:25.278Z</time>
      </trkpt>
      <trkpt lat="45.95461" lon="6.85517">
        <ele>2391</ele>
        <time>2026-08-04T07:32:26.278Z</time>
      </trkpt>
      <trkpt lat="45.95462" lon="6.85517">
        <ele>2391</ele>
        <time>2026-08-04T07:32:27.278Z</time>
      </trkpt>
      <trkpt lat="45.95462" lon="6.85517">
        <ele>2390</ele>
        <time>2026-08-04T07:32:28.278Z</time>
      </trkpt>
      <trkpt lat="45.95463" lon="6.85517">
        <ele>2390</ele>
        <time>2026-08-04T07:32:29.278Z</time>
      </trkpt>
      <trkpt lat="45.95463" lon="6.85517">
        <ele>2390</ele>
        <time>2026-08-04T07:32:30.278Z</time>
      </trkpt>
      <trkpt lat="45.95463" lon="6.85517">
        <ele>2390</ele>
        <time>2026-08-04T07:32:31.278Z</time>
      </trkpt>
      <trkpt lat="45.95463" lon="6.85516">
        <ele>2390</ele>
        <time>2026-08-04T07:32:32.278Z</time>
      </trkpt>
      <trkpt lat="45.95463" lon="6.85516">
        <ele>2391</ele>
        <time>2026-08-04T07:32:33.278Z</time>
      </trkpt>
      <trkpt lat="45.95464" lon="6.85517">
        <ele>2391</ele>
        <time>2026-08-04T07:32:34.278Z</time>
      </trkpt>
      <trkpt lat="45.95464" lon="6.85517">
        <ele>2391</ele>
        <time>2026-08-04T07:32:35.278Z</time>
      </trkpt>
      <trkpt lat="45.95465" lon="6.85518">
        <ele>2390</ele>
        <time>2026-08-04T07:32:36.278Z</time>
      </trkpt>
      <trkpt lat="45.95465" lon="6.85518">
        <ele>2390</ele>
        <time>2026-08-04T07:32:37.278Z</time>
      </trkpt>
      <trkpt lat="45.95465" lon="6.85518">
        <ele>2389</ele>
        <time>2026-08-04T07:32:38.278Z</time>
      </trkpt>
      <trkpt lat="45.95466" lon="6.85519">
        <ele>2389</ele>
        <time>2026-08-04T07:32:39.278Z</time>
      </trkpt>
      <trkpt lat="45.95466" lon="6.85519">
        <ele>2388</ele>
        <time>2026-08-04T07:32:40.278Z</time>
      </trkpt>
      <trkpt lat="45.95467" lon="6.85519">
        <ele>2388</ele>
        <time>2026-08-04T07:32:41.278Z</time>
      </trkpt>
      <trkpt lat="45.95467" lon="6.8552">
        <ele>2388</ele>
        <time>2026-08-04T07:32:42.278Z</time>
      </trkpt>
      <trkpt lat="45.95468" lon="6.8552">
        <ele>2388</ele>
        <time>2026-08-04T07:32:43.278Z</time>
      </trkpt>
      <trkpt lat="45.95468" lon="6.85521">
        <ele>2388</ele>
        <time>2026-08-04T07:32:44.278Z</time>
      </trkpt>
      <trkpt lat="45.95468" lon="6.85521">
        <ele>2388</ele>
        <time>2026-08-04T07:32:45.278Z</time>
      </trkpt>
      <trkpt lat="45.95468" lon="6.85521">
        <ele>2387</ele>
        <time>2026-08-04T07:32:46.278Z</time>
      </trkpt>
      <trkpt lat="45.95469" lon="6.85521">
        <ele>2387</ele>
        <time>2026-08-04T07:32:47.278Z</time>
      </trkpt>
      <trkpt lat="45.95469" lon="6.85521">
        <ele>2386</ele>
        <time>2026-08-04T07:32:48.278Z</time>
      </trkpt>
      <trkpt lat="45.9547" lon="6.85521">
        <ele>2386</ele>
        <time>2026-08-04T07:32:49.278Z</time>
      </trkpt>
      <trkpt lat="45.9547" lon="6.8552">
        <ele>2386</ele>
        <time>2026-08-04T07:32:50.278Z</time>
      </trkpt>
      <trkpt lat="45.95471" lon="6.8552">
        <ele>2386</ele>
        <time>2026-08-04T07:32:51.278Z</time>
      </trkpt>
      <trkpt lat="45.95472" lon="6.8552">
        <ele>2387</ele>
        <time>2026-08-04T07:32:52.278Z</time>
      </trkpt>
      <trkpt lat="45.95472" lon="6.8552">
        <ele>2387</ele>
        <time>2026-08-04T07:32:53.278Z</time>
      </trkpt>
      <trkpt lat="45.95473" lon="6.8552">
        <ele>2387</ele>
        <time>2026-08-04T07:32:54.278Z</time>
      </trkpt>
      <trkpt lat="45.95474" lon="6.8552">
        <ele>2387</ele>
        <time>2026-08-04T07:32:55.278Z</time>
      </trkpt>
      <trkpt lat="45.95475" lon="6.85519">
        <ele>2387</ele>
        <time>2026-08-04T07:32:56.278Z</time>
      </trkpt>
      <trkpt lat="45.95475" lon="6.85519">
        <ele>2387</ele>
        <time>2026-08-04T07:32:57.278Z</time>
      </trkpt>
      <trkpt lat="45.95476" lon="6.85519">
        <ele>2387</ele>
        <time>2026-08-04T07:32:58.278Z</time>
      </trkpt>
      <trkpt lat="45.95477" lon="6.85518">
        <ele>2387</ele>
        <time>2026-08-04T07:32:59.278Z</time>
      </trkpt>
      <trkpt lat="45.95477" lon="6.85518">
        <ele>2387</ele>
        <time>2026-08-04T07:33:00.278Z</time>
      </trkpt>
      <trkpt lat="45.95478" lon="6.85517">
        <ele>2388</ele>
        <time>2026-08-04T07:33:01.278Z</time>
      </trkpt>
      <trkpt lat="45.95479" lon="6.85517">
        <ele>2388</ele>
        <time>2026-08-04T07:33:02.278Z</time>
      </trkpt>
      <trkpt lat="45.9548" lon="6.85517">
        <ele>2388</ele>
        <time>2026-08-04T07:33:03.278Z</time>
      </trkpt>
      <trkpt lat="45.9548" lon="6.85517">
        <ele>2388</ele>
        <time>2026-08-04T07:33:04.278Z</time>
      </trkpt>
      <trkpt lat="45.95481" lon="6.85517">
        <ele>2388</ele>
        <time>2026-08-04T07:33:05.278Z</time>
      </trkpt>
      <trkpt lat="45.95482" lon="6.85518">
        <ele>2388</ele>
        <time>2026-08-04T07:33:06.278Z</time>
      </trkpt>
      <trkpt lat="45.95482" lon="6.85518">
        <ele>2389</ele>
        <time>2026-08-04T07:33:07.278Z</time>
      </trkpt>
      <trkpt lat="45.95483" lon="6.85518">
        <ele>2389</ele>
        <time>2026-08-04T07:33:08.278Z</time>
      </trkpt>
      <trkpt lat="45.95484" lon="6.85519">
        <ele>2389</ele>
        <time>2026-08-04T07:33:09.278Z</time>
      </trkpt>
      <trkpt lat="45.95484" lon="6.85519">
        <ele>2389</ele>
        <time>2026-08-04T07:33:10.278Z</time>
      </trkpt>
      <trkpt lat="45.95485" lon="6.85519">
        <ele>2389</ele>
        <time>2026-08-04T07:33:11.278Z</time>
      </trkpt>
      <trkpt lat="45.95485" lon="6.85519">
        <ele>2390</ele>
        <time>2026-08-04T07:33:12.278Z</time>
      </trkpt>
      <trkpt lat="45.95486" lon="6.85519">
        <ele>2390</ele>
        <time>2026-08-04T07:33:13.278Z</time>
      </trkpt>
      <trkpt lat="45.95486" lon="6.85519">
        <ele>2390</ele>
        <time>2026-08-04T07:33:14.278Z</time>
      </trkpt>
      <trkpt lat="45.95487" lon="6.85519">
        <ele>2391</ele>
        <time>2026-08-04T07:33:15.278Z</time>
      </trkpt>
      <trkpt lat="45.95487" lon="6.85519">
        <ele>2391</ele>
        <time>2026-08-04T07:33:16.278Z</time>
      </trkpt>
      <trkpt lat="45.95488" lon="6.85519">
        <ele>2391</ele>
        <time>2026-08-04T07:33:17.278Z</time>
      </trkpt>
      <trkpt lat="45.95488" lon="6.85519">
        <ele>2391</ele>
        <time>2026-08-04T07:33:18.278Z</time>
      </trkpt>
      <trkpt lat="45.95488" lon="6.85518">
        <ele>2391</ele>
        <time>2026-08-04T07:33:19.278Z</time>
      </trkpt>
      <trkpt lat="45.95489" lon="6.85517">
        <ele>2391</ele>
        <time>2026-08-04T07:33:20.278Z</time>
      </trkpt>
      <trkpt lat="45.95489" lon="6.85517">
        <ele>2392</ele>
        <time>2026-08-04T07:33:21.278Z</time>
      </trkpt>
      <trkpt lat="45.95489" lon="6.85516">
        <ele>2392</ele>
        <time>2026-08-04T07:33:22.278Z</time>
      </trkpt>
      <trkpt lat="45.9549" lon="6.85516">
        <ele>2393</ele>
        <time>2026-08-04T07:33:23.278Z</time>
      </trkpt>
      <trkpt lat="45.9549" lon="6.85516">
        <ele>2393</ele>
        <time>2026-08-04T07:33:24.278Z</time>
      </trkpt>
      <trkpt lat="45.9549" lon="6.85516">
        <ele>2393</ele>
        <time>2026-08-04T07:33:25.278Z</time>
      </trkpt>
      <trkpt lat="45.95491" lon="6.85515">
        <ele>2394</ele>
        <time>2026-08-04T07:33:26.278Z</time>
      </trkpt>
      <trkpt lat="45.95491" lon="6.85514">
        <ele>2394</ele>
        <time>2026-08-04T07:33:27.278Z</time>
      </trkpt>
      <trkpt lat="45.95492" lon="6.85513">
        <ele>2395</ele>
        <time>2026-08-04T07:33:28.278Z</time>
      </trkpt>
      <trkpt lat="45.95492" lon="6.85512">
        <ele>2395</ele>
        <time>2026-08-04T07:33:29.278Z</time>
      </trkpt>
      <trkpt lat="45.95493" lon="6.85511">
        <ele>2396</ele>
        <time>2026-08-04T07:33:30.278Z</time>
      </trkpt>
      <trkpt lat="45.95493" lon="6.8551">
        <ele>2397</ele>
        <time>2026-08-04T07:33:31.278Z</time>
      </trkpt>
      <trkpt lat="45.95493" lon="6.85509">
        <ele>2397</ele>
        <time>2026-08-04T07:33:32.278Z</time>
      </trkpt>
      <trkpt lat="45.95494" lon="6.85509">
        <ele>2398</ele>
        <time>2026-08-04T07:33:33.278Z</time>
      </trkpt>
      <trkpt lat="45.95494" lon="6.85508">
        <ele>2398</ele>
        <time>2026-08-04T07:33:34.278Z</time>
      </trkpt>
      <trkpt lat="45.95495" lon="6.85508">
        <ele>2398</ele>
        <time>2026-08-04T07:33:35.278Z</time>
      </trkpt>
      <trkpt lat="45.95495" lon="6.85507">
        <ele>2399</ele>
        <time>2026-08-04T07:33:36.278Z</time>
      </trkpt>
      <trkpt lat="45.95496" lon="6.85506">
        <ele>2399</ele>
        <time>2026-08-04T07:33:37.278Z</time>
      </trkpt>
      <trkpt lat="45.95496" lon="6.85505">
        <ele>2399</ele>
        <time>2026-08-04T07:33:38.278Z</time>
      </trkpt>
      <trkpt lat="45.95497" lon="6.85505">
        <ele>2399</ele>
        <time>2026-08-04T07:33:39.278Z</time>
      </trkpt>
      <trkpt lat="45.95497" lon="6.85504">
        <ele>2399</ele>
        <time>2026-08-04T07:33:40.278Z</time>
      </trkpt>
      <trkpt lat="45.95498" lon="6.85503">
        <ele>2399</ele>
        <time>2026-08-04T07:33:41.278Z</time>
      </trkpt>
      <trkpt lat="45.95499" lon="6.85502">
        <ele>2400</ele>
        <time>2026-08-04T07:33:42.278Z</time>
      </trkpt>
      <trkpt lat="45.95499" lon="6.85502">
        <ele>2400</ele>
        <time>2026-08-04T07:33:43.278Z</time>
      </trkpt>
      <trkpt lat="45.95499" lon="6.85502">
        <ele>2400</ele>
        <time>2026-08-04T07:33:44.278Z</time>
      </trkpt>
      <trkpt lat="45.955" lon="6.85502">
        <ele>2400</ele>
        <time>2026-08-04T07:33:45.278Z</time>
      </trkpt>
      <trkpt lat="45.955" lon="6.85502">
        <ele>2400</ele>
        <time>2026-08-04T07:33:46.278Z</time>
      </trkpt>
      <trkpt lat="45.95501" lon="6.85502">
        <ele>2401</ele>
        <time>2026-08-04T07:33:47.278Z</time>
      </trkpt>
      <trkpt lat="45.95501" lon="6.85503">
        <ele>2401</ele>
        <time>2026-08-04T07:33:48.278Z</time>
      </trkpt>
      <trkpt lat="45.95501" lon="6.85503">
        <ele>2401</ele>
        <time>2026-08-04T07:33:49.278Z</time>
      </trkpt>
      <trkpt lat="45.95501" lon="6.85505">
        <ele>2401</ele>
        <time>2026-08-04T07:33:50.278Z</time>
      </trkpt>
      <trkpt lat="45.95501" lon="6.85506">
        <ele>2401</ele>
        <time>2026-08-04T07:33:51.278Z</time>
      </trkpt>
      <trkpt lat="45.95501" lon="6.85507">
        <ele>2401</ele>
        <time>2026-08-04T07:33:52.278Z</time>
      </trkpt>
      <trkpt lat="45.95501" lon="6.85508">
        <ele>2400</ele>
        <time>2026-08-04T07:33:53.278Z</time>
      </trkpt>
      <trkpt lat="45.95501" lon="6.85509">
        <ele>2400</ele>
        <time>2026-08-04T07:33:54.278Z</time>
      </trkpt>
      <trkpt lat="45.955" lon="6.8551">
        <ele>2400</ele>
        <time>2026-08-04T07:33:55.278Z</time>
      </trkpt>
      <trkpt lat="45.955" lon="6.8551">
        <ele>2400</ele>
        <time>2026-08-04T07:33:56.278Z</time>
      </trkpt>
      <trkpt lat="45.955" lon="6.8551">
        <ele>2400</ele>
        <time>2026-08-04T07:33:57.278Z</time>
      </trkpt>
      <trkpt lat="45.955" lon="6.8551">
        <ele>2400</ele>
        <time>2026-08-04T07:33:58.278Z</time>
      </trkpt>
      <trkpt lat="45.955" lon="6.8551">
        <ele>2400</ele>
        <time>2026-08-04T07:33:59.278Z</time>
      </trkpt>
      <trkpt lat="45.955" lon="6.8551">
        <ele>2400</ele>
        <time>2026-08-04T07:34:00.278Z</time>
      </trkpt>
      <trkpt lat="45.955" lon="6.8551">
        <ele>2400</ele>
        <time>2026-08-04T07:34:01.278Z</time>
      </trkpt>
      <trkpt lat="45.955" lon="6.85509">
        <ele>2400</ele>
        <time>2026-08-04T07:34:02.278Z</time>
      </trkpt>
      <trkpt lat="45.95501" lon="6.85507">
        <ele>2400</ele>
        <time>2026-08-04T07:34:03.278Z</time>
      </trkpt>
      <trkpt lat="45.95501" lon="6.85505">
        <ele>2400</ele>
        <time>2026-08-04T07:34:04.278Z</time>
      </trkpt>
      <trkpt lat="45.95501" lon="6.85503">
        <ele>2401</ele>
        <time>2026-08-04T07:34:05.278Z</time>
      </trkpt>
      <trkpt lat="45.95501" lon="6.85502">
        <ele>2401</ele>
        <time>2026-08-04T07:34:06.278Z</time>
      </trkpt>
      <trkpt lat="45.95502" lon="6.85501">
        <ele>2401</ele>
        <time>2026-08-04T07:34:07.278Z</time>
      </trkpt>
      <trkpt lat="45.95502" lon="6.85501">
        <ele>2401</ele>
        <time>2026-08-04T07:34:08.278Z</time>
      </trkpt>
      <trkpt lat="45.95503" lon="6.855">
        <ele>2401</ele>
        <time>2026-08-04T07:34:09.278Z</time>
      </trkpt>
      <trkpt lat="45.95503" lon="6.85499">
        <ele>2401</ele>
        <time>2026-08-04T07:34:10.278Z</time>
      </trkpt>
      <trkpt lat="45.95504" lon="6.85498">
        <ele>2401</ele>
        <time>2026-08-04T07:34:11.278Z</time>
      </trkpt>
      <trkpt lat="45.95505" lon="6.85498">
        <ele>2401</ele>
        <time>2026-08-04T07:34:12.278Z</time>
      </trkpt>
      <trkpt lat="45.95505" lon="6.85497">
        <ele>2401</ele>
        <time>2026-08-04T07:34:13.278Z</time>
      </trkpt>
      <trkpt lat="45.95506" lon="6.85496">
        <ele>2401</ele>
        <time>2026-08-04T07:34:14.278Z</time>
      </trkpt>
      <trkpt lat="45.95506" lon="6.85495">
        <ele>2401</ele>
        <time>2026-08-04T07:34:15.278Z</time>
      </trkpt>
      <trkpt lat="45.95506" lon="6.85493">
        <ele>2401</ele>
        <time>2026-08-04T07:34:16.278Z</time>
      </trkpt>
      <trkpt lat="45.95507" lon="6.85491">
        <ele>2401</ele>
        <time>2026-08-04T07:34:17.278Z</time>
      </trkpt>
      <trkpt lat="45.95507" lon="6.8549">
        <ele>2401</ele>
        <time>2026-08-04T07:34:18.278Z</time>
      </trkpt>
      <trkpt lat="45.95507" lon="6.85488">
        <ele>2402</ele>
        <time>2026-08-04T07:34:19.278Z</time>
      </trkpt>
      <trkpt lat="45.95507" lon="6.85488">
        <ele>2402</ele>
        <time>2026-08-04T07:34:20.278Z</time>
      </trkpt>
      <trkpt lat="45.95508" lon="6.85486">
        <ele>2402</ele>
        <time>2026-08-04T07:34:21.278Z</time>
      </trkpt>
      <trkpt lat="45.95509" lon="6.85486">
        <ele>2402</ele>
        <time>2026-08-04T07:34:22.278Z</time>
      </trkpt>
      <trkpt lat="45.9551" lon="6.85485">
        <ele>2403</ele>
        <time>2026-08-04T07:34:23.278Z</time>
      </trkpt>
      <trkpt lat="45.9551" lon="6.85485">
        <ele>2403</ele>
        <time>2026-08-04T07:34:24.278Z</time>
      </trkpt>
      <trkpt lat="45.95511" lon="6.85485">
        <ele>2403</ele>
        <time>2026-08-04T07:34:25.278Z</time>
      </trkpt>
      <trkpt lat="45.95512" lon="6.85485">
        <ele>2403</ele>
        <time>2026-08-04T07:34:26.278Z</time>
      </trkpt>
      <trkpt lat="45.95513" lon="6.85485">
        <ele>2404</ele>
        <time>2026-08-04T07:34:27.278Z</time>
      </trkpt>
      <trkpt lat="45.95514" lon="6.85486">
        <ele>2404</ele>
        <time>2026-08-04T07:34:28.278Z</time>
      </trkpt>
      <trkpt lat="45.95515" lon="6.85486">
        <ele>2404</ele>
        <time>2026-08-04T07:34:29.278Z</time>
      </trkpt>
      <trkpt lat="45.95516" lon="6.85486">
        <ele>2404</ele>
        <time>2026-08-04T07:34:30.278Z</time>
      </trkpt>
      <trkpt lat="45.95517" lon="6.85486">
        <ele>2404</ele>
        <time>2026-08-04T07:34:31.278Z</time>
      </trkpt>
      <trkpt lat="45.95518" lon="6.85485">
        <ele>2405</ele>
        <time>2026-08-04T07:34:32.278Z</time>
      </trkpt>
      <trkpt lat="45.95519" lon="6.85485">
        <ele>2405</ele>
        <time>2026-08-04T07:34:33.278Z</time>
      </trkpt>
      <trkpt lat="45.95519" lon="6.85484">
        <ele>2405</ele>
        <time>2026-08-04T07:34:34.278Z</time>
      </trkpt>
      <trkpt lat="45.9552" lon="6.85483">
        <ele>2405</ele>
        <time>2026-08-04T07:34:35.278Z</time>
      </trkpt>
      <trkpt lat="45.95521" lon="6.85483">
        <ele>2406</ele>
        <time>2026-08-04T07:34:36.278Z</time>
      </trkpt>
      <trkpt lat="45.95522" lon="6.85483">
        <ele>2406</ele>
        <time>2026-08-04T07:34:37.278Z</time>
      </trkpt>
      <trkpt lat="45.95523" lon="6.85482">
        <ele>2406</ele>
        <time>2026-08-04T07:34:38.278Z</time>
      </trkpt>
      <trkpt lat="45.95524" lon="6.85482">
        <ele>2406</ele>
        <time>2026-08-04T07:34:39.278Z</time>
      </trkpt>
      <trkpt lat="45.95525" lon="6.85481">
        <ele>2406</ele>
        <time>2026-08-04T07:34:40.278Z</time>
      </trkpt>
      <trkpt lat="45.95525" lon="6.8548">
        <ele>2406</ele>
        <time>2026-08-04T07:34:41.278Z</time>
      </trkpt>
      <trkpt lat="45.95524" lon="6.8548">
        <ele>2406</ele>
        <time>2026-08-04T07:34:42.278Z</time>
      </trkpt>
      <trkpt lat="45.95524" lon="6.8548">
        <ele>2407</ele>
        <time>2026-08-04T07:34:43.278Z</time>
      </trkpt>
      <trkpt lat="45.95524" lon="6.85479">
        <ele>2407</ele>
        <time>2026-08-04T07:34:44.278Z</time>
      </trkpt>
      <trkpt lat="45.95524" lon="6.85478">
        <ele>2407</ele>
        <time>2026-08-04T07:34:45.278Z</time>
      </trkpt>
      <trkpt lat="45.95524" lon="6.85478">
        <ele>2407</ele>
        <time>2026-08-04T07:34:46.278Z</time>
      </trkpt>
      <trkpt lat="45.95525" lon="6.85476">
        <ele>2408</ele>
        <time>2026-08-04T07:34:47.278Z</time>
      </trkpt>
      <trkpt lat="45.95525" lon="6.85475">
        <ele>2408</ele>
        <time>2026-08-04T07:34:48.278Z</time>
      </trkpt>
      <trkpt lat="45.95526" lon="6.85474">
        <ele>2409</ele>
        <time>2026-08-04T07:34:49.278Z</time>
      </trkpt>
      <trkpt lat="45.95527" lon="6.85474">
        <ele>2409</ele>
        <time>2026-08-04T07:34:50.278Z</time>
      </trkpt>
      <trkpt lat="45.95527" lon="6.85473">
        <ele>2409</ele>
        <time>2026-08-04T07:34:51.278Z</time>
      </trkpt>
      <trkpt lat="45.95528" lon="6.85473">
        <ele>2409</ele>
        <time>2026-08-04T07:34:52.278Z</time>
      </trkpt>
      <trkpt lat="45.95529" lon="6.85472">
        <ele>2409</ele>
        <time>2026-08-04T07:34:53.278Z</time>
      </trkpt>
      <trkpt lat="45.9553" lon="6.85471">
        <ele>2409</ele>
        <time>2026-08-04T07:34:54.278Z</time>
      </trkpt>
      <trkpt lat="45.95531" lon="6.8547">
        <ele>2409</ele>
        <time>2026-08-04T07:34:55.278Z</time>
      </trkpt>
      <trkpt lat="45.95532" lon="6.8547">
        <ele>2409</ele>
        <time>2026-08-04T07:34:56.278Z</time>
      </trkpt>
      <trkpt lat="45.95533" lon="6.8547">
        <ele>2409</ele>
        <time>2026-08-04T07:34:57.278Z</time>
      </trkpt>
      <trkpt lat="45.95534" lon="6.8547">
        <ele>2408</ele>
        <time>2026-08-04T07:34:58.278Z</time>
      </trkpt>
      <trkpt lat="45.95535" lon="6.85469">
        <ele>2409</ele>
        <time>2026-08-04T07:34:59.278Z</time>
      </trkpt>
      <trkpt lat="45.95535" lon="6.85469">
        <ele>2408</ele>
        <time>2026-08-04T07:35:00.278Z</time>
      </trkpt>
      <trkpt lat="45.95536" lon="6.85468">
        <ele>2408</ele>
        <time>2026-08-04T07:35:01.278Z</time>
      </trkpt>
      <trkpt lat="45.95537" lon="6.85467">
        <ele>2408</ele>
        <time>2026-08-04T07:35:02.278Z</time>
      </trkpt>
      <trkpt lat="45.95537" lon="6.85466">
        <ele>2408</ele>
        <time>2026-08-04T07:35:03.278Z</time>
      </trkpt>
      <trkpt lat="45.95537" lon="6.85465">
        <ele>2408</ele>
        <time>2026-08-04T07:35:04.278Z</time>
      </trkpt>
      <trkpt lat="45.95537" lon="6.85464">
        <ele>2408</ele>
        <time>2026-08-04T07:35:05.278Z</time>
      </trkpt>
      <trkpt lat="45.95537" lon="6.85463">
        <ele>2408</ele>
        <time>2026-08-04T07:35:06.278Z</time>
      </trkpt>
      <trkpt lat="45.95537" lon="6.85462">
        <ele>2409</ele>
        <time>2026-08-04T07:35:07.278Z</time>
      </trkpt>
      <trkpt lat="45.95537" lon="6.85462">
        <ele>2409</ele>
        <time>2026-08-04T07:35:08.278Z</time>
      </trkpt>
      <trkpt lat="45.95537" lon="6.85461">
        <ele>2409</ele>
        <time>2026-08-04T07:35:09.278Z</time>
      </trkpt>
      <trkpt lat="45.95537" lon="6.85461">
        <ele>2410</ele>
        <time>2026-08-04T07:35:10.278Z</time>
      </trkpt>
      <trkpt lat="45.95536" lon="6.8546">
        <ele>2410</ele>
        <time>2026-08-04T07:35:11.278Z</time>
      </trkpt>
      <trkpt lat="45.95536" lon="6.8546">
        <ele>2410</ele>
        <time>2026-08-04T07:35:12.278Z</time>
      </trkpt>
      <trkpt lat="45.95536" lon="6.8546">
        <ele>2410</ele>
        <time>2026-08-04T07:35:13.278Z</time>
      </trkpt>
      <trkpt lat="45.95536" lon="6.85459">
        <ele>2410</ele>
        <time>2026-08-04T07:35:14.278Z</time>
      </trkpt>
      <trkpt lat="45.95535" lon="6.85459">
        <ele>2410</ele>
        <time>2026-08-04T07:35:15.278Z</time>
      </trkpt>
      <trkpt lat="45.95535" lon="6.85459">
        <ele>2410</ele>
        <time>2026-08-04T07:35:16.278Z</time>
      </trkpt>
      <trkpt lat="45.95535" lon="6.85459">
        <ele>2410</ele>
        <time>2026-08-04T07:35:17.278Z</time>
      </trkpt>
      <trkpt lat="45.95535" lon="6.85459">
        <ele>2410</ele>
        <time>2026-08-04T07:35:18.278Z</time>
      </trkpt>
      <trkpt lat="45.95535" lon="6.85459">
        <ele>2410</ele>
        <time>2026-08-04T07:35:19.278Z</time>
      </trkpt>
      <trkpt lat="45.95535" lon="6.85459">
        <ele>2410</ele>
        <time>2026-08-04T07:35:20.278Z</time>
      </trkpt>
      <trkpt lat="45.95535" lon="6.85459">
        <ele>2411</ele>
        <time>2026-08-04T07:35:21.278Z</time>
      </trkpt>
      <trkpt lat="45.95535" lon="6.85459">
        <ele>2411</ele>
        <time>2026-08-04T07:35:22.278Z</time>
      </trkpt>
      <trkpt lat="45.95535" lon="6.85459">
        <ele>2411</ele>
        <time>2026-08-04T07:35:23.278Z</time>
      </trkpt>
      <trkpt lat="45.95535" lon="6.85459">
        <ele>2411</ele>
        <time>2026-08-04T07:35:24.278Z</time>
      </trkpt>
      <trkpt lat="45.95535" lon="6.85459">
        <ele>2411</ele>
        <time>2026-08-04T07:35:25.278Z</time>
      </trkpt>
      <trkpt lat="45.95535" lon="6.85459">
        <ele>2411</ele>
        <time>2026-08-04T07:35:26.278Z</time>
      </trkpt>
      <trkpt lat="45.95535" lon="6.85459">
        <ele>2411</ele>
        <time>2026-08-04T07:35:27.278Z</time>
      </trkpt>
      <trkpt lat="45.95535" lon="6.85459">
        <ele>2411</ele>
        <time>2026-08-04T07:35:28.278Z</time>
      </trkpt>
      <trkpt lat="45.95535" lon="6.85459">
        <ele>2412</ele>
        <time>2026-08-04T07:35:29.278Z</time>
      </trkpt>
      <trkpt lat="45.95535" lon="6.85459">
        <ele>2412</ele>
        <time>2026-08-04T07:35:30.278Z</time>
      </trkpt>
      <trkpt lat="45.95535" lon="6.85459">
        <ele>2412</ele>
        <time>2026-08-04T07:35:31.278Z</time>
      </trkpt>
      <trkpt lat="45.95535" lon="6.85459">
        <ele>2412</ele>
        <time>2026-08-04T07:35:32.278Z</time>
      </trkpt>
      <trkpt lat="45.95535" lon="6.85459">
        <ele>2412</ele>
        <time>2026-08-04T07:35:33.278Z</time>
      </trkpt>
      <trkpt lat="45.95535" lon="6.85459">
        <ele>2412</ele>
        <time>2026-08-04T07:35:34.278Z</time>
      </trkpt>
      <trkpt lat="45.95535" lon="6.85459">
        <ele>2412</ele>
        <time>2026-08-04T07:35:35.278Z</time>
      </trkpt>
      <trkpt lat="45.95535" lon="6.85459">
        <ele>2412</ele>
        <time>2026-08-04T07:35:36.278Z</time>
      </trkpt>
      <trkpt lat="45.95535" lon="6.85459">
        <ele>2412</ele>
        <time>2026-08-04T07:35:37.278Z</time>
      </trkpt>
      <trkpt lat="45.95535" lon="6.85459">
        <ele>2412</ele>
        <time>2026-08-04T07:35:38.278Z</time>
      </trkpt>
      <trkpt lat="45.95535" lon="6.85459">
        <ele>2412</ele>
        <time>2026-08-04T07:35:39.278Z</time>
      </trkpt>
      <trkpt lat="45.95535" lon="6.85459">
        <ele>2412</ele>
        <time>2026-08-04T07:35:40.278Z</time>
      </trkpt>
      <trkpt lat="45.95535" lon="6.85459">
        <ele>2412</ele>
        <time>2026-08-04T07:35:41.278Z</time>
      </trkpt>
      <trkpt lat="45.95535" lon="6.85459">
        <ele>2412</ele>
        <time>2026-08-04T07:35:42.278Z</time>
      </trkpt>
      <trkpt lat="45.95535" lon="6.85459">
        <ele>2412</ele>
        <time>2026-08-04T07:35:43.278Z</time>
      </trkpt>
      <trkpt lat="45.95535" lon="6.85459">
        <ele>2412</ele>
        <time>2026-08-04T07:35:44.278Z</time>
      </trkpt>
      <trkpt lat="45.95535" lon="6.85459">
        <ele>2412</ele>
        <time>2026-08-04T07:35:45.278Z</time>
      </trkpt>
      <trkpt lat="45.95535" lon="6.85459">
        <ele>2412</ele>
        <time>2026-08-04T07:35:46.278Z</time>
      </trkpt>
      <trkpt lat="45.95535" lon="6.85459">
        <ele>2412</ele>
        <time>2026-08-04T07:35:47.278Z</time>
      </trkpt>
      <trkpt lat="45.95535" lon="6.85459">
        <ele>2412</ele>
        <time>2026-08-04T07:35:48.278Z</time>
      </trkpt>
      <trkpt lat="45.95535" lon="6.85459">
        <ele>2412</ele>
        <time>2026-08-04T07:35:49.278Z</time>
      </trkpt>
      <trkpt lat="45.95535" lon="6.85459">
        <ele>2412</ele>
        <time>2026-08-04T07:35:50.278Z</time>
      </trkpt>
      <trkpt lat="45.95535" lon="6.85459">
        <ele>2412</ele>
        <time>2026-08-04T07:35:51.278Z</time>
      </trkpt>
      <trkpt lat="45.95535" lon="6.85459">
        <ele>2412</ele>
        <time>2026-08-04T07:35:52.278Z</time>
      </trkpt>
      <trkpt lat="45.95535" lon="6.85459">
        <ele>2412</ele>
        <time>2026-08-04T07:35:53.278Z</time>
      </trkpt>
      <trkpt lat="45.95535" lon="6.85459">
        <ele>2412</ele>
        <time>2026-08-04T07:35:54.278Z</time>
      </trkpt>
      <trkpt lat="45.95535" lon="6.85459">
        <ele>2412</ele>
        <time>2026-08-04T07:35:55.278Z</time>
      </trkpt>
      <trkpt lat="45.95535" lon="6.85459">
        <ele>2412</ele>
        <time>2026-08-04T07:35:56.278Z</time>
      </trkpt>
      <trkpt lat="45.95535" lon="6.85459">
        <ele>2412</ele>
        <time>2026-08-04T07:35:57.278Z</time>
      </trkpt>
      <trkpt lat="45.95535" lon="6.85459">
        <ele>2412</ele>
        <time>2026-08-04T07:35:58.278Z</time>
      </trkpt>
      <trkpt lat="45.95535" lon="6.85459">
        <ele>2412</ele>
        <time>2026-08-04T07:35:59.278Z</time>
      </trkpt>
      <trkpt lat="45.95535" lon="6.85459">
        <ele>2412</ele>
        <time>2026-08-04T07:36:00.278Z</time>
      </trkpt>
      <trkpt lat="45.95537" lon="6.85458">
        <ele>2412</ele>
        <time>2026-08-04T07:36:01.278Z</time>
      </trkpt>
      <trkpt lat="45.95538" lon="6.85458">
        <ele>2412</ele>
        <time>2026-08-04T07:36:02.278Z</time>
      </trkpt>
      <trkpt lat="45.95539" lon="6.85457">
        <ele>2412</ele>
        <time>2026-08-04T07:36:03.278Z</time>
      </trkpt>
      <trkpt lat="45.95541" lon="6.85457">
        <ele>2412</ele>
        <time>2026-08-04T07:36:04.278Z</time>
      </trkpt>
      <trkpt lat="45.95543" lon="6.85456">
        <ele>2412</ele>
        <time>2026-08-04T07:36:05.278Z</time>
      </trkpt>
      <trkpt lat="45.95544" lon="6.85456">
        <ele>2412</ele>
        <time>2026-08-04T07:36:06.278Z</time>
      </trkpt>
      <trkpt lat="45.95545" lon="6.85455">
        <ele>2412</ele>
        <time>2026-08-04T07:36:07.278Z</time>
      </trkpt>
      <trkpt lat="45.95546" lon="6.85455">
        <ele>2412</ele>
        <time>2026-08-04T07:36:08.278Z</time>
      </trkpt>
      <trkpt lat="45.95548" lon="6.85455">
        <ele>2412</ele>
        <time>2026-08-04T07:36:09.278Z</time>
      </trkpt>
      <trkpt lat="45.95548" lon="6.85454">
        <ele>2412</ele>
        <time>2026-08-04T07:36:10.278Z</time>
      </trkpt>
      <trkpt lat="45.95548" lon="6.85453">
        <ele>2412</ele>
        <time>2026-08-04T07:36:11.278Z</time>
      </trkpt>
      <trkpt lat="45.95549" lon="6.85452">
        <ele>2412</ele>
        <time>2026-08-04T07:36:12.278Z</time>
      </trkpt>
      <trkpt lat="45.9555" lon="6.85451">
        <ele>2412</ele>
        <time>2026-08-04T07:36:13.278Z</time>
      </trkpt>
      <trkpt lat="45.95551" lon="6.8545">
        <ele>2412</ele>
        <time>2026-08-04T07:36:14.278Z</time>
      </trkpt>
      <trkpt lat="45.95551" lon="6.85449">
        <ele>2413</ele>
        <time>2026-08-04T07:36:15.278Z</time>
      </trkpt>
      <trkpt lat="45.95552" lon="6.85448">
        <ele>2413</ele>
        <time>2026-08-04T07:36:16.278Z</time>
      </trkpt>
      <trkpt lat="45.95553" lon="6.85447">
        <ele>2413</ele>
        <time>2026-08-04T07:36:17.278Z</time>
      </trkpt>
      <trkpt lat="45.95554" lon="6.85447">
        <ele>2413</ele>
        <time>2026-08-04T07:36:18.278Z</time>
      </trkpt>
      <trkpt lat="45.95555" lon="6.85448">
        <ele>2413</ele>
        <time>2026-08-04T07:36:19.278Z</time>
      </trkpt>
      <trkpt lat="45.95556" lon="6.85448">
        <ele>2413</ele>
        <time>2026-08-04T07:36:20.278Z</time>
      </trkpt>
      <trkpt lat="45.95557" lon="6.85448">
        <ele>2413</ele>
        <time>2026-08-04T07:36:21.278Z</time>
      </trkpt>
      <trkpt lat="45.95558" lon="6.85448">
        <ele>2413</ele>
        <time>2026-08-04T07:36:22.278Z</time>
      </trkpt>
      <trkpt lat="45.95559" lon="6.85449">
        <ele>2413</ele>
        <time>2026-08-04T07:36:23.278Z</time>
      </trkpt>
      <trkpt lat="45.9556" lon="6.85448">
        <ele>2413</ele>
        <time>2026-08-04T07:36:24.278Z</time>
      </trkpt>
      <trkpt lat="45.95561" lon="6.85449">
        <ele>2413</ele>
        <time>2026-08-04T07:36:25.278Z</time>
      </trkpt>
      <trkpt lat="45.95562" lon="6.85448">
        <ele>2413</ele>
        <time>2026-08-04T07:36:26.278Z</time>
      </trkpt>
      <trkpt lat="45.95563" lon="6.85448">
        <ele>2412</ele>
        <time>2026-08-04T07:36:27.278Z</time>
      </trkpt>
      <trkpt lat="45.95564" lon="6.85448">
        <ele>2412</ele>
        <time>2026-08-04T07:36:28.278Z</time>
      </trkpt>
      <trkpt lat="45.95565" lon="6.85448">
        <ele>2412</ele>
        <time>2026-08-04T07:36:29.278Z</time>
      </trkpt>
      <trkpt lat="45.95566" lon="6.85448">
        <ele>2412</ele>
        <time>2026-08-04T07:36:30.278Z</time>
      </trkpt>
      <trkpt lat="45.95567" lon="6.85448">
        <ele>2412</ele>
        <time>2026-08-04T07:36:31.278Z</time>
      </trkpt>
      <trkpt lat="45.95568" lon="6.85448">
        <ele>2412</ele>
        <time>2026-08-04T07:36:32.278Z</time>
      </trkpt>
      <trkpt lat="45.9557" lon="6.85448">
        <ele>2412</ele>
        <time>2026-08-04T07:36:33.278Z</time>
      </trkpt>
      <trkpt lat="45.95571" lon="6.85449">
        <ele>2412</ele>
        <time>2026-08-04T07:36:34.278Z</time>
      </trkpt>
      <trkpt lat="45.95572" lon="6.85449">
        <ele>2413</ele>
        <time>2026-08-04T07:36:35.278Z</time>
      </trkpt>
      <trkpt lat="45.95573" lon="6.85449">
        <ele>2413</ele>
        <time>2026-08-04T07:36:36.278Z</time>
      </trkpt>
      <trkpt lat="45.95574" lon="6.85449">
        <ele>2413</ele>
        <time>2026-08-04T07:36:37.278Z</time>
      </trkpt>
      <trkpt lat="45.95575" lon="6.85448">
        <ele>2413</ele>
        <time>2026-08-04T07:36:38.278Z</time>
      </trkpt>
      <trkpt lat="45.95575" lon="6.85447">
        <ele>2413</ele>
        <time>2026-08-04T07:36:39.278Z</time>
      </trkpt>
      <trkpt lat="45.95576" lon="6.85446">
        <ele>2413</ele>
        <time>2026-08-04T07:36:40.278Z</time>
      </trkpt>
      <trkpt lat="45.95577" lon="6.85445">
        <ele>2413</ele>
        <time>2026-08-04T07:36:41.278Z</time>
      </trkpt>
      <trkpt lat="45.95577" lon="6.85445">
        <ele>2413</ele>
        <time>2026-08-04T07:36:42.278Z</time>
      </trkpt>
      <trkpt lat="45.95578" lon="6.85444">
        <ele>2413</ele>
        <time>2026-08-04T07:36:43.278Z</time>
      </trkpt>
      <trkpt lat="45.95578" lon="6.85444">
        <ele>2413</ele>
        <time>2026-08-04T07:36:44.278Z</time>
      </trkpt>
      <trkpt lat="45.95579" lon="6.85444">
        <ele>2414</ele>
        <time>2026-08-04T07:36:45.278Z</time>
      </trkpt>
      <trkpt lat="45.9558" lon="6.85445">
        <ele>2413</ele>
        <time>2026-08-04T07:36:46.278Z</time>
      </trkpt>
      <trkpt lat="45.95581" lon="6.85445">
        <ele>2413</ele>
        <time>2026-08-04T07:36:47.278Z</time>
      </trkpt>
      <trkpt lat="45.95582" lon="6.85445">
        <ele>2412</ele>
        <time>2026-08-04T07:36:48.278Z</time>
      </trkpt>
      <trkpt lat="45.95583" lon="6.85444">
        <ele>2412</ele>
        <time>2026-08-04T07:36:49.278Z</time>
      </trkpt>
      <trkpt lat="45.95583" lon="6.85443">
        <ele>2412</ele>
        <time>2026-08-04T07:36:50.278Z</time>
      </trkpt>
      <trkpt lat="45.95584" lon="6.85443">
        <ele>2412</ele>
        <time>2026-08-04T07:36:51.278Z</time>
      </trkpt>
      <trkpt lat="45.95584" lon="6.85442">
        <ele>2412</ele>
        <time>2026-08-04T07:36:52.278Z</time>
      </trkpt>
      <trkpt lat="45.95584" lon="6.8544">
        <ele>2412</ele>
        <time>2026-08-04T07:36:53.278Z</time>
      </trkpt>
      <trkpt lat="45.95584" lon="6.85439">
        <ele>2412</ele>
        <time>2026-08-04T07:36:54.278Z</time>
      </trkpt>
      <trkpt lat="45.95585" lon="6.85438">
        <ele>2412</ele>
        <time>2026-08-04T07:36:55.278Z</time>
      </trkpt>
      <trkpt lat="45.95586" lon="6.85437">
        <ele>2412</ele>
        <time>2026-08-04T07:36:56.278Z</time>
      </trkpt>
      <trkpt lat="45.95586" lon="6.85436">
        <ele>2412</ele>
        <time>2026-08-04T07:36:57.278Z</time>
      </trkpt>
      <trkpt lat="45.95587" lon="6.85436">
        <ele>2412</ele>
        <time>2026-08-04T07:36:58.278Z</time>
      </trkpt>
      <trkpt lat="45.95588" lon="6.85435">
        <ele>2412</ele>
        <time>2026-08-04T07:36:59.278Z</time>
      </trkpt>
      <trkpt lat="45.95588" lon="6.85435">
        <ele>2412</ele>
        <time>2026-08-04T07:37:00.278Z</time>
      </trkpt>
      <trkpt lat="45.95589" lon="6.85434">
        <ele>2412</ele>
        <time>2026-08-04T07:37:01.278Z</time>
      </trkpt>
      <trkpt lat="45.9559" lon="6.85433">
        <ele>2412</ele>
        <time>2026-08-04T07:37:02.278Z</time>
      </trkpt>
      <trkpt lat="45.95591" lon="6.85432">
        <ele>2412</ele>
        <time>2026-08-04T07:37:03.278Z</time>
      </trkpt>
      <trkpt lat="45.95592" lon="6.85431">
        <ele>2411</ele>
        <time>2026-08-04T07:37:04.278Z</time>
      </trkpt>
      <trkpt lat="45.95592" lon="6.85431">
        <ele>2411</ele>
        <time>2026-08-04T07:37:05.278Z</time>
      </trkpt>
      <trkpt lat="45.95593" lon="6.85431">
        <ele>2411</ele>
        <time>2026-08-04T07:37:06.278Z</time>
      </trkpt>
      <trkpt lat="45.95593" lon="6.85432">
        <ele>2411</ele>
        <time>2026-08-04T07:37:07.278Z</time>
      </trkpt>
      <trkpt lat="45.95594" lon="6.85433">
        <ele>2411</ele>
        <time>2026-08-04T07:37:08.278Z</time>
      </trkpt>
      <trkpt lat="45.95594" lon="6.85434">
        <ele>2412</ele>
        <time>2026-08-04T07:37:09.278Z</time>
      </trkpt>
      <trkpt lat="45.95594" lon="6.85436">
        <ele>2412</ele>
        <time>2026-08-04T07:37:10.278Z</time>
      </trkpt>
      <trkpt lat="45.95594" lon="6.85437">
        <ele>2412</ele>
        <time>2026-08-04T07:37:11.278Z</time>
      </trkpt>
      <trkpt lat="45.95594" lon="6.85438">
        <ele>2412</ele>
        <time>2026-08-04T07:37:12.278Z</time>
      </trkpt>
      <trkpt lat="45.95594" lon="6.8544">
        <ele>2412</ele>
        <time>2026-08-04T07:37:13.278Z</time>
      </trkpt>
      <trkpt lat="45.95594" lon="6.85441">
        <ele>2413</ele>
        <time>2026-08-04T07:37:14.278Z</time>
      </trkpt>
      <trkpt lat="45.95594" lon="6.85441">
        <ele>2413</ele>
        <time>2026-08-04T07:37:15.278Z</time>
      </trkpt>
      <trkpt lat="45.95594" lon="6.85442">
        <ele>2414</ele>
        <time>2026-08-04T07:37:16.278Z</time>
      </trkpt>
      <trkpt lat="45.95595" lon="6.85442">
        <ele>2414</ele>
        <time>2026-08-04T07:37:17.278Z</time>
      </trkpt>
      <trkpt lat="45.95596" lon="6.85442">
        <ele>2414</ele>
        <time>2026-08-04T07:37:18.278Z</time>
      </trkpt>
      <trkpt lat="45.95596" lon="6.85442">
        <ele>2414</ele>
        <time>2026-08-04T07:37:19.278Z</time>
      </trkpt>
      <trkpt lat="45.95597" lon="6.85441">
        <ele>2414</ele>
        <time>2026-08-04T07:37:20.278Z</time>
      </trkpt>
      <trkpt lat="45.95597" lon="6.85441">
        <ele>2414</ele>
        <time>2026-08-04T07:37:21.278Z</time>
      </trkpt>
      <trkpt lat="45.95598" lon="6.85439">
        <ele>2415</ele>
        <time>2026-08-04T07:37:22.279Z</time>
      </trkpt>
      <trkpt lat="45.95598" lon="6.85438">
        <ele>2415</ele>
        <time>2026-08-04T07:37:23.278Z</time>
      </trkpt>
      <trkpt lat="45.95598" lon="6.85437">
        <ele>2416</ele>
        <time>2026-08-04T07:37:24.278Z</time>
      </trkpt>
      <trkpt lat="45.95599" lon="6.85435">
        <ele>2417</ele>
        <time>2026-08-04T07:37:25.278Z</time>
      </trkpt>
      <trkpt lat="45.956" lon="6.85434">
        <ele>2418</ele>
        <time>2026-08-04T07:37:26.278Z</time>
      </trkpt>
      <trkpt lat="45.956" lon="6.85432">
        <ele>2418</ele>
        <time>2026-08-04T07:37:27.278Z</time>
      </trkpt>
      <trkpt lat="45.95601" lon="6.85431">
        <ele>2419</ele>
        <time>2026-08-04T07:37:28.278Z</time>
      </trkpt>
      <trkpt lat="45.95601" lon="6.85431">
        <ele>2419</ele>
        <time>2026-08-04T07:37:29.278Z</time>
      </trkpt>
      <trkpt lat="45.95602" lon="6.8543">
        <ele>2419</ele>
        <time>2026-08-04T07:37:30.278Z</time>
      </trkpt>
      <trkpt lat="45.95602" lon="6.85429">
        <ele>2419</ele>
        <time>2026-08-04T07:37:31.278Z</time>
      </trkpt>
      <trkpt lat="45.95603" lon="6.85429">
        <ele>2419</ele>
        <time>2026-08-04T07:37:32.278Z</time>
      </trkpt>
      <trkpt lat="45.95603" lon="6.85429">
        <ele>2419</ele>
        <time>2026-08-04T07:37:33.278Z</time>
      </trkpt>
      <trkpt lat="45.95604" lon="6.85429">
        <ele>2420</ele>
        <time>2026-08-04T07:37:34.278Z</time>
      </trkpt>
      <trkpt lat="45.95604" lon="6.85429">
        <ele>2420</ele>
        <time>2026-08-04T07:37:35.278Z</time>
      </trkpt>
      <trkpt lat="45.95605" lon="6.85429">
        <ele>2420</ele>
        <time>2026-08-04T07:37:36.278Z</time>
      </trkpt>
      <trkpt lat="45.95606" lon="6.85429">
        <ele>2420</ele>
        <time>2026-08-04T07:37:37.278Z</time>
      </trkpt>
      <trkpt lat="45.95607" lon="6.85429">
        <ele>2421</ele>
        <time>2026-08-04T07:37:38.278Z</time>
      </trkpt>
      <trkpt lat="45.95607" lon="6.85429">
        <ele>2421</ele>
        <time>2026-08-04T07:37:39.278Z</time>
      </trkpt>
      <trkpt lat="45.95608" lon="6.85429">
        <ele>2421</ele>
        <time>2026-08-04T07:37:40.278Z</time>
      </trkpt>
      <trkpt lat="45.95608" lon="6.85429">
        <ele>2421</ele>
        <time>2026-08-04T07:37:41.278Z</time>
      </trkpt>
      <trkpt lat="45.95608" lon="6.85428">
        <ele>2421</ele>
        <time>2026-08-04T07:37:42.278Z</time>
      </trkpt>
      <trkpt lat="45.95609" lon="6.85428">
        <ele>2421</ele>
        <time>2026-08-04T07:37:43.278Z</time>
      </trkpt>
      <trkpt lat="45.9561" lon="6.85428">
        <ele>2421</ele>
        <time>2026-08-04T07:37:44.278Z</time>
      </trkpt>
      <trkpt lat="45.9561" lon="6.85427">
        <ele>2421</ele>
        <time>2026-08-04T07:37:45.278Z</time>
      </trkpt>
      <trkpt lat="45.9561" lon="6.85427">
        <ele>2421</ele>
        <time>2026-08-04T07:37:46.278Z</time>
      </trkpt>
      <trkpt lat="45.9561" lon="6.85427">
        <ele>2421</ele>
        <time>2026-08-04T07:37:47.278Z</time>
      </trkpt>
      <trkpt lat="45.9561" lon="6.85427">
        <ele>2421</ele>
        <time>2026-08-04T07:37:48.278Z</time>
      </trkpt>
      <trkpt lat="45.9561" lon="6.85426">
        <ele>2421</ele>
        <time>2026-08-04T07:37:49.278Z</time>
      </trkpt>
      <trkpt lat="45.95611" lon="6.85425">
        <ele>2421</ele>
        <time>2026-08-04T07:37:50.278Z</time>
      </trkpt>
      <trkpt lat="45.95611" lon="6.85424">
        <ele>2421</ele>
        <time>2026-08-04T07:37:51.278Z</time>
      </trkpt>
      <trkpt lat="45.95611" lon="6.85423">
        <ele>2421</ele>
        <time>2026-08-04T07:37:52.278Z</time>
      </trkpt>
      <trkpt lat="45.95612" lon="6.85422">
        <ele>2421</ele>
        <time>2026-08-04T07:37:53.278Z</time>
      </trkpt>
      <trkpt lat="45.95612" lon="6.85422">
        <ele>2421</ele>
        <time>2026-08-04T07:37:54.278Z</time>
      </trkpt>
      <trkpt lat="45.95612" lon="6.85421">
        <ele>2421</ele>
        <time>2026-08-04T07:37:55.278Z</time>
      </trkpt>
      <trkpt lat="45.95612" lon="6.85421">
        <ele>2420</ele>
        <time>2026-08-04T07:37:56.278Z</time>
      </trkpt>
      <trkpt lat="45.95613" lon="6.85421">
        <ele>2420</ele>
        <time>2026-08-04T07:37:57.278Z</time>
      </trkpt>
      <trkpt lat="45.95613" lon="6.85421">
        <ele>2420</ele>
        <time>2026-08-04T07:37:58.278Z</time>
      </trkpt>
      <trkpt lat="45.95613" lon="6.85421">
        <ele>2420</ele>
        <time>2026-08-04T07:37:59.278Z</time>
      </trkpt>
      <trkpt lat="45.95613" lon="6.85421">
        <ele>2420</ele>
        <time>2026-08-04T07:38:00.278Z</time>
      </trkpt>
      <trkpt lat="45.95613" lon="6.85421">
        <ele>2420</ele>
        <time>2026-08-04T07:38:01.278Z</time>
      </trkpt>
      <trkpt lat="45.95613" lon="6.85421">
        <ele>2420</ele>
        <time>2026-08-04T07:38:02.278Z</time>
      </trkpt>
      <trkpt lat="45.95613" lon="6.85421">
        <ele>2419</ele>
        <time>2026-08-04T07:38:03.278Z</time>
      </trkpt>
      <trkpt lat="45.95613" lon="6.85421">
        <ele>2419</ele>
        <time>2026-08-04T07:38:04.278Z</time>
      </trkpt>
      <trkpt lat="45.95613" lon="6.85421">
        <ele>2420</ele>
        <time>2026-08-04T07:38:05.278Z</time>
      </trkpt>
      <trkpt lat="45.95613" lon="6.85421">
        <ele>2420</ele>
        <time>2026-08-04T07:38:06.278Z</time>
      </trkpt>
      <trkpt lat="45.95613" lon="6.85421">
        <ele>2420</ele>
        <time>2026-08-04T07:38:07.278Z</time>
      </trkpt>
      <trkpt lat="45.95613" lon="6.85421">
        <ele>2421</ele>
        <time>2026-08-04T07:38:08.278Z</time>
      </trkpt>
      <trkpt lat="45.95613" lon="6.85421">
        <ele>2421</ele>
        <time>2026-08-04T07:38:09.278Z</time>
      </trkpt>
      <trkpt lat="45.95613" lon="6.85421">
        <ele>2422</ele>
        <time>2026-08-04T07:38:10.278Z</time>
      </trkpt>
      <trkpt lat="45.95613" lon="6.85421">
        <ele>2422</ele>
        <time>2026-08-04T07:38:11.278Z</time>
      </trkpt>
      <trkpt lat="45.95613" lon="6.85421">
        <ele>2422</ele>
        <time>2026-08-04T07:38:12.278Z</time>
      </trkpt>
      <trkpt lat="45.95613" lon="6.85421">
        <ele>2422</ele>
        <time>2026-08-04T07:38:13.278Z</time>
      </trkpt>
      <trkpt lat="45.95613" lon="6.85421">
        <ele>2423</ele>
        <time>2026-08-04T07:38:14.278Z</time>
      </trkpt>
      <trkpt lat="45.95613" lon="6.85421">
        <ele>2423</ele>
        <time>2026-08-04T07:38:15.278Z</time>
      </trkpt>
      <trkpt lat="45.95613" lon="6.85421">
        <ele>2423</ele>
        <time>2026-08-04T07:38:16.278Z</time>
      </trkpt>
      <trkpt lat="45.95613" lon="6.85421">
        <ele>2423</ele>
        <time>2026-08-04T07:38:17.278Z</time>
      </trkpt>
      <trkpt lat="45.95613" lon="6.85421">
        <ele>2423</ele>
        <time>2026-08-04T07:38:18.278Z</time>
      </trkpt>
      <trkpt lat="45.95613" lon="6.85421">
        <ele>2424</ele>
        <time>2026-08-04T07:38:19.278Z</time>
      </trkpt>
      <trkpt lat="45.95613" lon="6.85421">
        <ele>2424</ele>
        <time>2026-08-04T07:38:20.278Z</time>
      </trkpt>
      <trkpt lat="45.95613" lon="6.85421">
        <ele>2424</ele>
        <time>2026-08-04T07:38:21.278Z</time>
      </trkpt>
      <trkpt lat="45.95613" lon="6.85421">
        <ele>2424</ele>
        <time>2026-08-04T07:38:22.278Z</time>
      </trkpt>
      <trkpt lat="45.95613" lon="6.85421">
        <ele>2424</ele>
        <time>2026-08-04T07:38:23.278Z</time>
      </trkpt>
      <trkpt lat="45.95613" lon="6.85421">
        <ele>2424</ele>
        <time>2026-08-04T07:38:24.278Z</time>
      </trkpt>
      <trkpt lat="45.95613" lon="6.85421">
        <ele>2424</ele>
        <time>2026-08-04T07:38:25.278Z</time>
      </trkpt>
      <trkpt lat="45.95613" lon="6.85421">
        <ele>2424</ele>
        <time>2026-08-04T07:38:26.278Z</time>
      </trkpt>
      <trkpt lat="45.95613" lon="6.85421">
        <ele>2424</ele>
        <time>2026-08-04T07:38:27.278Z</time>
      </trkpt>
      <trkpt lat="45.95613" lon="6.85421">
        <ele>2424</ele>
        <time>2026-08-04T07:38:28.278Z</time>
      </trkpt>
      <trkpt lat="45.95613" lon="6.85421">
        <ele>2425</ele>
        <time>2026-08-04T07:38:29.278Z</time>
      </trkpt>
      <trkpt lat="45.95613" lon="6.85421">
        <ele>2425</ele>
        <time>2026-08-04T07:38:30.278Z</time>
      </trkpt>
      <trkpt lat="45.95613" lon="6.85421">
        <ele>2425</ele>
        <time>2026-08-04T07:38:31.278Z</time>
      </trkpt>
      <trkpt lat="45.95613" lon="6.85421">
        <ele>2425</ele>
        <time>2026-08-04T07:38:32.278Z</time>
      </trkpt>
      <trkpt lat="45.95613" lon="6.85421">
        <ele>2425</ele>
        <time>2026-08-04T07:38:33.278Z</time>
      </trkpt>
      <trkpt lat="45.95613" lon="6.85421">
        <ele>2425</ele>
        <time>2026-08-04T07:38:34.278Z</time>
      </trkpt>
      <trkpt lat="45.95613" lon="6.85421">
        <ele>2425</ele>
        <time>2026-08-04T07:38:35.278Z</time>
      </trkpt>
      <trkpt lat="45.95613" lon="6.85421">
        <ele>2425</ele>
        <time>2026-08-04T07:38:36.278Z</time>
      </trkpt>
      <trkpt lat="45.95613" lon="6.85421">
        <ele>2425</ele>
        <time>2026-08-04T07:38:37.278Z</time>
      </trkpt>
      <trkpt lat="45.95613" lon="6.85421">
        <ele>2425</ele>
        <time>2026-08-04T07:38:38.278Z</time>
      </trkpt>
      <trkpt lat="45.95614" lon="6.85421">
        <ele>2425</ele>
        <time>2026-08-04T07:38:39.278Z</time>
      </trkpt>
      <trkpt lat="45.95614" lon="6.85421">
        <ele>2425</ele>
        <time>2026-08-04T07:38:40.278Z</time>
      </trkpt>
      <trkpt lat="45.95614" lon="6.85421">
        <ele>2425</ele>
        <time>2026-08-04T07:38:41.278Z</time>
      </trkpt>
      <trkpt lat="45.95614" lon="6.85421">
        <ele>2425</ele>
        <time>2026-08-04T07:38:42.278Z</time>
      </trkpt>
      <trkpt lat="45.95614" lon="6.85421">
        <ele>2425</ele>
        <time>2026-08-04T07:38:43.278Z</time>
      </trkpt>
      <trkpt lat="45.95614" lon="6.85421">
        <ele>2425</ele>
        <time>2026-08-04T07:38:44.278Z</time>
      </trkpt>
      <trkpt lat="45.95614" lon="6.85421">
        <ele>2425</ele>
        <time>2026-08-04T07:38:45.278Z</time>
      </trkpt>
      <trkpt lat="45.95614" lon="6.85421">
        <ele>2425</ele>
        <time>2026-08-04T07:38:46.278Z</time>
      </trkpt>
      <trkpt lat="45.95614" lon="6.85421">
        <ele>2425</ele>
        <time>2026-08-04T07:38:47.278Z</time>
      </trkpt>
      <trkpt lat="45.95614" lon="6.85421">
        <ele>2425</ele>
        <time>2026-08-04T07:38:48.278Z</time>
      </trkpt>
      <trkpt lat="45.95614" lon="6.85421">
        <ele>2425</ele>
        <time>2026-08-04T07:38:49.278Z</time>
      </trkpt>
      <trkpt lat="45.95614" lon="6.85421">
        <ele>2425</ele>
        <time>2026-08-04T07:38:50.278Z</time>
      </trkpt>
      <trkpt lat="45.95615" lon="6.85421">
        <ele>2424</ele>
        <time>2026-08-04T07:38:51.278Z</time>
      </trkpt>
      <trkpt lat="45.95615" lon="6.85421">
        <ele>2424</ele>
        <time>2026-08-04T07:38:52.278Z</time>
      </trkpt>
      <trkpt lat="45.95615" lon="6.85421">
        <ele>2424</ele>
        <time>2026-08-04T07:38:53.278Z</time>
      </trkpt>
      <trkpt lat="45.95615" lon="6.85421">
        <ele>2424</ele>
        <time>2026-08-04T07:38:54.278Z</time>
      </trkpt>
      <trkpt lat="45.95615" lon="6.85421">
        <ele>2424</ele>
        <time>2026-08-04T07:38:55.278Z</time>
      </trkpt>
      <trkpt lat="45.95615" lon="6.85421">
        <ele>2424</ele>
        <time>2026-08-04T07:38:56.278Z</time>
      </trkpt>
      <trkpt lat="45.95615" lon="6.85421">
        <ele>2424</ele>
        <time>2026-08-04T07:38:57.278Z</time>
      </trkpt>
      <trkpt lat="45.95615" lon="6.85421">
        <ele>2424</ele>
        <time>2026-08-04T07:38:58.278Z</time>
      </trkpt>
      <trkpt lat="45.95615" lon="6.85421">
        <ele>2424</ele>
        <time>2026-08-04T07:38:59.278Z</time>
      </trkpt>
      <trkpt lat="45.95615" lon="6.85421">
        <ele>2424</ele>
        <time>2026-08-04T07:39:00.279Z</time>
      </trkpt>
      <trkpt lat="45.95615" lon="6.85421">
        <ele>2424</ele>
        <time>2026-08-04T07:39:01.278Z</time>
      </trkpt>
      <trkpt lat="45.95615" lon="6.85421">
        <ele>2424</ele>
        <time>2026-08-04T07:39:02.278Z</time>
      </trkpt>
      <trkpt lat="45.95615" lon="6.85421">
        <ele>2424</ele>
        <time>2026-08-04T07:39:03.278Z</time>
      </trkpt>
      <trkpt lat="45.95615" lon="6.85421">
        <ele>2424</ele>
        <time>2026-08-04T07:39:04.278Z</time>
      </trkpt>
      <trkpt lat="45.95615" lon="6.85421">
        <ele>2424</ele>
        <time>2026-08-04T07:39:05.278Z</time>
      </trkpt>
      <trkpt lat="45.95615" lon="6.85421">
        <ele>2424</ele>
        <time>2026-08-04T07:39:06.278Z</time>
      </trkpt>
      <trkpt lat="45.95615" lon="6.85421">
        <ele>2424</ele>
        <time>2026-08-04T07:39:07.278Z</time>
      </trkpt>
      <trkpt lat="45.95615" lon="6.85421">
        <ele>2424</ele>
        <time>2026-08-04T07:39:08.278Z</time>
      </trkpt>
      <trkpt lat="45.95615" lon="6.85421">
        <ele>2424</ele>
        <time>2026-08-04T07:39:09.278Z</time>
      </trkpt>
      <trkpt lat="45.95615" lon="6.8542">
        <ele>2424</ele>
        <time>2026-08-04T07:39:10.278Z</time>
      </trkpt>
      <trkpt lat="45.95615" lon="6.8542">
        <ele>2424</ele>
        <time>2026-08-04T07:39:11.278Z</time>
      </trkpt>
      <trkpt lat="45.95615" lon="6.8542">
        <ele>2424</ele>
        <time>2026-08-04T07:39:12.278Z</time>
      </trkpt>
      <trkpt lat="45.95615" lon="6.8542">
        <ele>2424</ele>
        <time>2026-08-04T07:39:13.278Z</time>
      </trkpt>
      <trkpt lat="45.95615" lon="6.8542">
        <ele>2424</ele>
        <time>2026-08-04T07:39:14.278Z</time>
      </trkpt>
      <trkpt lat="45.95615" lon="6.8542">
        <ele>2424</ele>
        <time>2026-08-04T07:39:15.278Z</time>
      </trkpt>
      <trkpt lat="45.95615" lon="6.8542">
        <ele>2424</ele>
        <time>2026-08-04T07:39:16.278Z</time>
      </trkpt>
      <trkpt lat="45.95615" lon="6.8542">
        <ele>2424</ele>
        <time>2026-08-04T07:39:17.278Z</time>
      </trkpt>
      <trkpt lat="45.95615" lon="6.8542">
        <ele>2424</ele>
        <time>2026-08-04T07:39:18.278Z</time>
      </trkpt>
      <trkpt lat="45.95615" lon="6.8542">
        <ele>2424</ele>
        <time>2026-08-04T07:39:19.278Z</time>
      </trkpt>
      <trkpt lat="45.95615" lon="6.8542">
        <ele>2424</ele>
        <time>2026-08-04T07:39:20.278Z</time>
      </trkpt>
      <trkpt lat="45.95615" lon="6.8542">
        <ele>2424</ele>
        <time>2026-08-04T07:39:21.278Z</time>
      </trkpt>
      <trkpt lat="45.95615" lon="6.8542">
        <ele>2424</ele>
        <time>2026-08-04T07:39:22.278Z</time>
      </trkpt>
      <trkpt lat="45.95615" lon="6.8542">
        <ele>2424</ele>
        <time>2026-08-04T07:39:23.278Z</time>
      </trkpt>
      <trkpt lat="45.95615" lon="6.8542">
        <ele>2424</ele>
        <time>2026-08-04T07:39:24.278Z</time>
      </trkpt>
      <trkpt lat="45.95615" lon="6.8542">
        <ele>2424</ele>
        <time>2026-08-04T07:39:25.278Z</time>
      </trkpt>
      <trkpt lat="45.95615" lon="6.8542">
        <ele>2424</ele>
        <time>2026-08-04T07:39:26.278Z</time>
      </trkpt>
      <trkpt lat="45.95615" lon="6.8542">
        <ele>2424</ele>
        <time>2026-08-04T07:39:27.278Z</time>
      </trkpt>
      <trkpt lat="45.95615" lon="6.8542">
        <ele>2424</ele>
        <time>2026-08-04T07:39:28.278Z</time>
      </trkpt>
      <trkpt lat="45.95615" lon="6.8542">
        <ele>2424</ele>
        <time>2026-08-04T07:39:29.278Z</time>
      </trkpt>
      <trkpt lat="45.95615" lon="6.8542">
        <ele>2424</ele>
        <time>2026-08-04T07:39:30.278Z</time>
      </trkpt>
      <trkpt lat="45.95615" lon="6.8542">
        <ele>2424</ele>
        <time>2026-08-04T07:39:31.278Z</time>
      </trkpt>
      <trkpt lat="45.95615" lon="6.8542">
        <ele>2424</ele>
        <time>2026-08-04T07:39:32.278Z</time>
      </trkpt>
      <trkpt lat="45.95615" lon="6.8542">
        <ele>2424</ele>
        <time>2026-08-04T07:39:33.278Z</time>
      </trkpt>
      <trkpt lat="45.95615" lon="6.8542">
        <ele>2424</ele>
        <time>2026-08-04T07:39:34.278Z</time>
      </trkpt>
      <trkpt lat="45.95615" lon="6.8542">
        <ele>2424</ele>
        <time>2026-08-04T07:39:35.278Z</time>
      </trkpt>
      <trkpt lat="45.95615" lon="6.8542">
        <ele>2424</ele>
        <time>2026-08-04T07:39:36.278Z</time>
      </trkpt>
      <trkpt lat="45.95615" lon="6.8542">
        <ele>2424</ele>
        <time>2026-08-04T07:39:37.278Z</time>
      </trkpt>
      <trkpt lat="45.95615" lon="6.8542">
        <ele>2424</ele>
        <time>2026-08-04T07:39:38.278Z</time>
      </trkpt>
      <trkpt lat="45.95615" lon="6.8542">
        <ele>2424</ele>
        <time>2026-08-04T07:39:39.278Z</time>
      </trkpt>
      <trkpt lat="45.95615" lon="6.8542">
        <ele>2424</ele>
        <time>2026-08-04T07:39:40.278Z</time>
      </trkpt>
      <trkpt lat="45.95615" lon="6.8542">
        <ele>2424</ele>
        <time>2026-08-04T07:39:41.278Z</time>
      </trkpt>
      <trkpt lat="45.95615" lon="6.8542">
        <ele>2424</ele>
        <time>2026-08-04T07:39:42.278Z</time>
      </trkpt>
      <trkpt lat="45.95615" lon="6.8542">
        <ele>2424</ele>
        <time>2026-08-04T07:39:43.278Z</time>
      </trkpt>
      <trkpt lat="45.95615" lon="6.8542">
        <ele>2424</ele>
        <time>2026-08-04T07:39:44.278Z</time>
      </trkpt>
      <trkpt lat="45.95615" lon="6.8542">
        <ele>2424</ele>
        <time>2026-08-04T07:39:45.278Z</time>
      </trkpt>
      <trkpt lat="45.95615" lon="6.8542">
        <ele>2424</ele>
        <time>2026-08-04T07:39:46.278Z</time>
      </trkpt>
      <trkpt lat="45.95615" lon="6.8542">
        <ele>2424</ele>
        <time>2026-08-04T07:39:47.278Z</time>
      </trkpt>
      <trkpt lat="45.95615" lon="6.8542">
        <ele>2424</ele>
        <time>2026-08-04T07:39:48.278Z</time>
      </trkpt>
      <trkpt lat="45.95615" lon="6.8542">
        <ele>2424</ele>
        <time>2026-08-04T07:39:49.278Z</time>
      </trkpt>
      <trkpt lat="45.95615" lon="6.8542">
        <ele>2424</ele>
        <time>2026-08-04T07:39:50.278Z</time>
      </trkpt>
      <trkpt lat="45.95615" lon="6.8542">
        <ele>2424</ele>
        <time>2026-08-04T07:39:51.278Z</time>
      </trkpt>
      <trkpt lat="45.95615" lon="6.8542">
        <ele>2424</ele>
        <time>2026-08-04T07:39:52.278Z</time>
      </trkpt>
      <trkpt lat="45.95615" lon="6.8542">
        <ele>2424</ele>
        <time>2026-08-04T07:39:53.278Z</time>
      </trkpt>
      <trkpt lat="45.95615" lon="6.8542">
        <ele>2424</ele>
        <time>2026-08-04T07:39:54.278Z</time>
      </trkpt>
      <trkpt lat="45.95615" lon="6.8542">
        <ele>2424</ele>
        <time>2026-08-04T07:39:55.278Z</time>
      </trkpt>
      <trkpt lat="45.95615" lon="6.8542">
        <ele>2424</ele>
        <time>2026-08-04T07:39:56.278Z</time>
      </trkpt>
      <trkpt lat="45.95615" lon="6.8542">
        <ele>2424</ele>
        <time>2026-08-04T07:39:57.278Z</time>
      </trkpt>
      <trkpt lat="45.95615" lon="6.8542">
        <ele>2424</ele>
        <time>2026-08-04T07:39:58.278Z</time>
      </trkpt>
      <trkpt lat="45.95615" lon="6.8542">
        <ele>2424</ele>
        <time>2026-08-04T07:39:59.278Z</time>
      </trkpt>
      <trkpt lat="45.95615" lon="6.8542">
        <ele>2424</ele>
        <time>2026-08-04T07:40:00.278Z</time>
      </trkpt>
      <trkpt lat="45.95615" lon="6.8542">
        <ele>2424</ele>
        <time>2026-08-04T07:40:01.278Z</time>
      </trkpt>
      <trkpt lat="45.95615" lon="6.8542">
        <ele>2424</ele>
        <time>2026-08-04T07:40:02.278Z</time>
      </trkpt>
      <trkpt lat="45.95615" lon="6.8542">
        <ele>2424</ele>
        <time>2026-08-04T07:40:03.278Z</time>
      </trkpt>
      <trkpt lat="45.95615" lon="6.8542">
        <ele>2424</ele>
        <time>2026-08-04T07:40:04.278Z</time>
      </trkpt>
      <trkpt lat="45.95615" lon="6.8542">
        <ele>2424</ele>
        <time>2026-08-04T07:40:05.278Z</time>
      </trkpt>
      <trkpt lat="45.95615" lon="6.8542">
        <ele>2424</ele>
        <time>2026-08-04T07:40:06.278Z</time>
      </trkpt>
      <trkpt lat="45.95615" lon="6.8542">
        <ele>2424</ele>
        <time>2026-08-04T07:40:07.278Z</time>
      </trkpt>
      <trkpt lat="45.95615" lon="6.8542">
        <ele>2424</ele>
        <time>2026-08-04T07:40:08.278Z</time>
      </trkpt>
      <trkpt lat="45.95615" lon="6.8542">
        <ele>2424</ele>
        <time>2026-08-04T07:40:09.278Z</time>
      </trkpt>
      <trkpt lat="45.95615" lon="6.8542">
        <ele>2424</ele>
        <time>2026-08-04T07:40:10.278Z</time>
      </trkpt>
      <trkpt lat="45.95615" lon="6.8542">
        <ele>2424</ele>
        <time>2026-08-04T07:40:11.278Z</time>
      </trkpt>
      <trkpt lat="45.95615" lon="6.8542">
        <ele>2424</ele>
        <time>2026-08-04T07:40:12.278Z</time>
      </trkpt>
      <trkpt lat="45.95615" lon="6.8542">
        <ele>2424</ele>
        <time>2026-08-04T07:40:13.278Z</time>
      </trkpt>
      <trkpt lat="45.95615" lon="6.8542">
        <ele>2424</ele>
        <time>2026-08-04T07:40:14.278Z</time>
      </trkpt>
      <trkpt lat="45.95615" lon="6.8542">
        <ele>2424</ele>
        <time>2026-08-04T07:40:15.278Z</time>
      </trkpt>
      <trkpt lat="45.95615" lon="6.8542">
        <ele>2424</ele>
        <time>2026-08-04T07:40:16.278Z</time>
      </trkpt>
      <trkpt lat="45.95616" lon="6.8542">
        <ele>2424</ele>
        <time>2026-08-04T07:40:17.278Z</time>
      </trkpt>
      <trkpt lat="45.95616" lon="6.8542">
        <ele>2424</ele>
        <time>2026-08-04T07:40:18.278Z</time>
      </trkpt>
      <trkpt lat="45.95616" lon="6.8542">
        <ele>2424</ele>
        <time>2026-08-04T07:40:19.278Z</time>
      </trkpt>
      <trkpt lat="45.95616" lon="6.8542">
        <ele>2424</ele>
        <time>2026-08-04T07:40:20.278Z</time>
      </trkpt>
      <trkpt lat="45.95616" lon="6.8542">
        <ele>2424</ele>
        <time>2026-08-04T07:40:21.278Z</time>
      </trkpt>
      <trkpt lat="45.95616" lon="6.8542">
        <ele>2424</ele>
        <time>2026-08-04T07:40:22.278Z</time>
      </trkpt>
      <trkpt lat="45.95616" lon="6.8542">
        <ele>2424</ele>
        <time>2026-08-04T07:40:23.278Z</time>
      </trkpt>
      <trkpt lat="45.95616" lon="6.8542">
        <ele>2424</ele>
        <time>2026-08-04T07:40:24.278Z</time>
      </trkpt>
      <trkpt lat="45.95616" lon="6.8542">
        <ele>2423</ele>
        <time>2026-08-04T07:40:25.278Z</time>
      </trkpt>
      <trkpt lat="45.95616" lon="6.8542">
        <ele>2423</ele>
        <time>2026-08-04T07:40:26.278Z</time>
      </trkpt>
      <trkpt lat="45.95616" lon="6.8542">
        <ele>2423</ele>
        <time>2026-08-04T07:40:27.278Z</time>
      </trkpt>
      <trkpt lat="45.95616" lon="6.8542">
        <ele>2423</ele>
        <time>2026-08-04T07:40:28.278Z</time>
      </trkpt>
      <trkpt lat="45.95616" lon="6.8542">
        <ele>2423</ele>
        <time>2026-08-04T07:40:29.278Z</time>
      </trkpt>
      <trkpt lat="45.95616" lon="6.8542">
        <ele>2424</ele>
        <time>2026-08-04T07:40:30.278Z</time>
      </trkpt>
      <trkpt lat="45.95616" lon="6.8542">
        <ele>2424</ele>
        <time>2026-08-04T07:40:31.278Z</time>
      </trkpt>
      <trkpt lat="45.95616" lon="6.8542">
        <ele>2424</ele>
        <time>2026-08-04T07:40:32.278Z</time>
      </trkpt>
      <trkpt lat="45.95616" lon="6.8542">
        <ele>2424</ele>
        <time>2026-08-04T07:40:33.278Z</time>
      </trkpt>
      <trkpt lat="45.95616" lon="6.8542">
        <ele>2424</ele>
        <time>2026-08-04T07:40:34.278Z</time>
      </trkpt>
      <trkpt lat="45.95616" lon="6.8542">
        <ele>2424</ele>
        <time>2026-08-04T07:40:35.278Z</time>
      </trkpt>
      <trkpt lat="45.95616" lon="6.8542">
        <ele>2424</ele>
        <time>2026-08-04T07:40:36.278Z</time>
      </trkpt>
      <trkpt lat="45.95616" lon="6.8542">
        <ele>2424</ele>
        <time>2026-08-04T07:40:37.278Z</time>
      </trkpt>
      <trkpt lat="45.95616" lon="6.8542">
        <ele>2424</ele>
        <time>2026-08-04T07:40:38.278Z</time>
      </trkpt>
      <trkpt lat="45.95616" lon="6.8542">
        <ele>2424</ele>
        <time>2026-08-04T07:40:39.278Z</time>
      </trkpt>
      <trkpt lat="45.95616" lon="6.8542">
        <ele>2424</ele>
        <time>2026-08-04T07:40:40.278Z</time>
      </trkpt>
      <trkpt lat="45.95616" lon="6.8542">
        <ele>2423</ele>
        <time>2026-08-04T07:40:41.278Z</time>
      </trkpt>
      <trkpt lat="45.95616" lon="6.8542">
        <ele>2423</ele>
        <time>2026-08-04T07:40:42.278Z</time>
      </trkpt>
      <trkpt lat="45.95616" lon="6.8542">
        <ele>2423</ele>
        <time>2026-08-04T07:40:43.278Z</time>
      </trkpt>
      <trkpt lat="45.95616" lon="6.85421">
        <ele>2424</ele>
        <time>2026-08-04T07:40:44.278Z</time>
      </trkpt>
      <trkpt lat="45.95616" lon="6.85421">
        <ele>2424</ele>
        <time>2026-08-04T07:40:45.278Z</time>
      </trkpt>
      <trkpt lat="45.95616" lon="6.85421">
        <ele>2424</ele>
        <time>2026-08-04T07:40:46.278Z</time>
      </trkpt>
      <trkpt lat="45.95616" lon="6.85421">
        <ele>2424</ele>
        <time>2026-08-04T07:40:47.278Z</time>
      </trkpt>
      <trkpt lat="45.95616" lon="6.85421">
        <ele>2424</ele>
        <time>2026-08-04T07:40:48.278Z</time>
      </trkpt>
      <trkpt lat="45.95616" lon="6.85421">
        <ele>2424</ele>
        <time>2026-08-04T07:40:49.278Z</time>
      </trkpt>
      <trkpt lat="45.95616" lon="6.85421">
        <ele>2424</ele>
        <time>2026-08-04T07:40:50.278Z</time>
      </trkpt>
      <trkpt lat="45.95616" lon="6.85421">
        <ele>2424</ele>
        <time>2026-08-04T07:40:51.278Z</time>
      </trkpt>
      <trkpt lat="45.95616" lon="6.85421">
        <ele>2424</ele>
        <time>2026-08-04T07:40:52.278Z</time>
      </trkpt>
      <trkpt lat="45.95616" lon="6.85421">
        <ele>2424</ele>
        <time>2026-08-04T07:40:53.278Z</time>
      </trkpt>
      <trkpt lat="45.95616" lon="6.85421">
        <ele>2423</ele>
        <time>2026-08-04T07:40:54.278Z</time>
      </trkpt>
      <trkpt lat="45.95616" lon="6.85421">
        <ele>2423</ele>
        <time>2026-08-04T07:40:55.278Z</time>
      </trkpt>
      <trkpt lat="45.95616" lon="6.85421">
        <ele>2423</ele>
        <time>2026-08-04T07:40:56.278Z</time>
      </trkpt>
      <trkpt lat="45.95615" lon="6.85421">
        <ele>2423</ele>
        <time>2026-08-04T07:40:57.278Z</time>
      </trkpt>
      <trkpt lat="45.95615" lon="6.85421">
        <ele>2423</ele>
        <time>2026-08-04T07:40:58.278Z</time>
      </trkpt>
      <trkpt lat="45.95615" lon="6.85421">
        <ele>2423</ele>
        <time>2026-08-04T07:40:59.278Z</time>
      </trkpt>
      <trkpt lat="45.95615" lon="6.85421">
        <ele>2423</ele>
        <time>2026-08-04T07:41:00.278Z</time>
      </trkpt>
      <trkpt lat="45.95615" lon="6.85421">
        <ele>2423</ele>
        <time>2026-08-04T07:41:01.278Z</time>
      </trkpt>
      <trkpt lat="45.95615" lon="6.85421">
        <ele>2423</ele>
        <time>2026-08-04T07:41:02.278Z</time>
      </trkpt>
      <trkpt lat="45.95615" lon="6.85421">
        <ele>2423</ele>
        <time>2026-08-04T07:41:03.278Z</time>
      </trkpt>
      <trkpt lat="45.95615" lon="6.85421">
        <ele>2423</ele>
        <time>2026-08-04T07:41:04.278Z</time>
      </trkpt>
      <trkpt lat="45.95615" lon="6.85421">
        <ele>2423</ele>
        <time>2026-08-04T07:41:05.278Z</time>
      </trkpt>
      <trkpt lat="45.95615" lon="6.85422">
        <ele>2423</ele>
        <time>2026-08-04T07:41:06.278Z</time>
      </trkpt>
      <trkpt lat="45.95615" lon="6.85422">
        <ele>2423</ele>
        <time>2026-08-04T07:41:07.278Z</time>
      </trkpt>
      <trkpt lat="45.95615" lon="6.85422">
        <ele>2423</ele>
        <time>2026-08-04T07:41:08.278Z</time>
      </trkpt>
      <trkpt lat="45.95615" lon="6.85422">
        <ele>2423</ele>
        <time>2026-08-04T07:41:09.278Z</time>
      </trkpt>
      <trkpt lat="45.95615" lon="6.85422">
        <ele>2423</ele>
        <time>2026-08-04T07:41:10.278Z</time>
      </trkpt>
      <trkpt lat="45.95615" lon="6.85422">
        <ele>2424</ele>
        <time>2026-08-04T07:41:11.278Z</time>
      </trkpt>
      <trkpt lat="45.95615" lon="6.85422">
        <ele>2424</ele>
        <time>2026-08-04T07:41:12.278Z</time>
      </trkpt>
      <trkpt lat="45.95615" lon="6.85422">
        <ele>2424</ele>
        <time>2026-08-04T07:41:13.278Z</time>
      </trkpt>
      <trkpt lat="45.95615" lon="6.85422">
        <ele>2424</ele>
        <time>2026-08-04T07:41:14.278Z</time>
      </trkpt>
      <trkpt lat="45.95615" lon="6.85422">
        <ele>2424</ele>
        <time>2026-08-04T07:41:15.278Z</time>
      </trkpt>
      <trkpt lat="45.95616" lon="6.85422">
        <ele>2424</ele>
        <time>2026-08-04T07:41:16.278Z</time>
      </trkpt>
      <trkpt lat="45.95616" lon="6.85422">
        <ele>2424</ele>
        <time>2026-08-04T07:41:17.278Z</time>
      </trkpt>
      <trkpt lat="45.95616" lon="6.85422">
        <ele>2424</ele>
        <time>2026-08-04T07:41:18.278Z</time>
      </trkpt>
      <trkpt lat="45.95616" lon="6.85422">
        <ele>2424</ele>
        <time>2026-08-04T07:41:19.278Z</time>
      </trkpt>
      <trkpt lat="45.95616" lon="6.85422">
        <ele>2424</ele>
        <time>2026-08-04T07:41:20.278Z</time>
      </trkpt>
      <trkpt lat="45.95616" lon="6.85422">
        <ele>2424</ele>
        <time>2026-08-04T07:41:21.278Z</time>
      </trkpt>
      <trkpt lat="45.95616" lon="6.85422">
        <ele>2424</ele>
        <time>2026-08-04T07:41:22.278Z</time>
      </trkpt>
      <trkpt lat="45.95616" lon="6.85422">
        <ele>2424</ele>
        <time>2026-08-04T07:41:23.278Z</time>
      </trkpt>
      <trkpt lat="45.95616" lon="6.85422">
        <ele>2424</ele>
        <time>2026-08-04T07:41:24.278Z</time>
      </trkpt>
      <trkpt lat="45.95616" lon="6.85422">
        <ele>2424</ele>
        <time>2026-08-04T07:41:25.278Z</time>
      </trkpt>
      <trkpt lat="45.95616" lon="6.85422">
        <ele>2424</ele>
        <time>2026-08-04T07:41:26.278Z</time>
      </trkpt>
      <trkpt lat="45.95616" lon="6.85422">
        <ele>2424</ele>
        <time>2026-08-04T07:41:27.278Z</time>
      </trkpt>
      <trkpt lat="45.95616" lon="6.85422">
        <ele>2424</ele>
        <time>2026-08-04T07:41:28.278Z</time>
      </trkpt>
      <trkpt lat="45.95616" lon="6.85422">
        <ele>2424</ele>
        <time>2026-08-04T07:41:29.278Z</time>
      </trkpt>
      <trkpt lat="45.95616" lon="6.85422">
        <ele>2424</ele>
        <time>2026-08-04T07:41:30.278Z</time>
      </trkpt>
      <trkpt lat="45.95616" lon="6.85422">
        <ele>2424</ele>
        <time>2026-08-04T07:41:31.278Z</time>
      </trkpt>
      <trkpt lat="45.95616" lon="6.85422">
        <ele>2424</ele>
        <time>2026-08-04T07:41:32.278Z</time>
      </trkpt>
      <trkpt lat="45.95616" lon="6.85422">
        <ele>2424</ele>
        <time>2026-08-04T07:41:33.278Z</time>
      </trkpt>
      <trkpt lat="45.95616" lon="6.85422">
        <ele>2424</ele>
        <time>2026-08-04T07:41:34.278Z</time>
      </trkpt>
      <trkpt lat="45.95616" lon="6.85422">
        <ele>2424</ele>
        <time>2026-08-04T07:41:35.278Z</time>
      </trkpt>
      <trkpt lat="45.95616" lon="6.85422">
        <ele>2424</ele>
        <time>2026-08-04T07:41:36.278Z</time>
      </trkpt>
      <trkpt lat="45.95616" lon="6.85422">
        <ele>2424</ele>
        <time>2026-08-04T07:41:37.278Z</time>
      </trkpt>
      <trkpt lat="45.95616" lon="6.85422">
        <ele>2424</ele>
        <time>2026-08-04T07:41:38.278Z</time>
      </trkpt>
      <trkpt lat="45.95616" lon="6.85422">
        <ele>2424</ele>
        <time>2026-08-04T07:41:39.278Z</time>
      </trkpt>
      <trkpt lat="45.95616" lon="6.85422">
        <ele>2424</ele>
        <time>2026-08-04T07:41:40.278Z</time>
      </trkpt>
      <trkpt lat="45.95616" lon="6.85422">
        <ele>2424</ele>
        <time>2026-08-04T07:41:41.278Z</time>
      </trkpt>
      <trkpt lat="45.95616" lon="6.85422">
        <ele>2424</ele>
        <time>2026-08-04T07:41:42.278Z</time>
      </trkpt>
      <trkpt lat="45.95616" lon="6.85422">
        <ele>2423</ele>
        <time>2026-08-04T07:41:43.278Z</time>
      </trkpt>
      <trkpt lat="45.95616" lon="6.85422">
        <ele>2423</ele>
        <time>2026-08-04T07:41:44.278Z</time>
      </trkpt>
      <trkpt lat="45.95616" lon="6.85422">
        <ele>2423</ele>
        <time>2026-08-04T07:41:45.278Z</time>
      </trkpt>
      <trkpt lat="45.95616" lon="6.85422">
        <ele>2423</ele>
        <time>2026-08-04T07:41:46.278Z</time>
      </trkpt>
      <trkpt lat="45.95616" lon="6.85422">
        <ele>2423</ele>
        <time>2026-08-04T07:41:47.278Z</time>
      </trkpt>
      <trkpt lat="45.95616" lon="6.85422">
        <ele>2423</ele>
        <time>2026-08-04T07:41:48.278Z</time>
      </trkpt>
      <trkpt lat="45.95616" lon="6.85422">
        <ele>2423</ele>
        <time>2026-08-04T07:41:49.278Z</time>
      </trkpt>
      <trkpt lat="45.95616" lon="6.85422">
        <ele>2423</ele>
        <time>2026-08-04T07:41:50.278Z</time>
      </trkpt>
      <trkpt lat="45.95616" lon="6.85422">
        <ele>2423</ele>
        <time>2026-08-04T07:41:51.278Z</time>
      </trkpt>
      <trkpt lat="45.95616" lon="6.85422">
        <ele>2423</ele>
        <time>2026-08-04T07:41:52.278Z</time>
      </trkpt>
      <trkpt lat="45.95616" lon="6.85422">
        <ele>2423</ele>
        <time>2026-08-04T07:41:53.278Z</time>
      </trkpt>
      <trkpt lat="45.95615" lon="6.85422">
        <ele>2423</ele>
        <time>2026-08-04T07:41:54.278Z</time>
      </trkpt>
      <trkpt lat="45.95615" lon="6.85422">
        <ele>2423</ele>
        <time>2026-08-04T07:41:55.278Z</time>
      </trkpt>
      <trkpt lat="45.95615" lon="6.85422">
        <ele>2423</ele>
        <time>2026-08-04T07:41:56.278Z</time>
      </trkpt>
      <trkpt lat="45.95615" lon="6.85422">
        <ele>2423</ele>
        <time>2026-08-04T07:41:57.278Z</time>
      </trkpt>
      <trkpt lat="45.95615" lon="6.85422">
        <ele>2423</ele>
        <time>2026-08-04T07:41:58.278Z</time>
      </trkpt>
      <trkpt lat="45.95615" lon="6.85422">
        <ele>2423</ele>
        <time>2026-08-04T07:41:59.278Z</time>
      </trkpt>
      <trkpt lat="45.95615" lon="6.85422">
        <ele>2423</ele>
        <time>2026-08-04T07:42:00.278Z</time>
      </trkpt>
      <trkpt lat="45.95615" lon="6.85422">
        <ele>2423</ele>
        <time>2026-08-04T07:42:01.278Z</time>
      </trkpt>
      <trkpt lat="45.95615" lon="6.85422">
        <ele>2423</ele>
        <time>2026-08-04T07:42:02.278Z</time>
      </trkpt>
      <trkpt lat="45.95615" lon="6.85422">
        <ele>2423</ele>
        <time>2026-08-04T07:42:03.278Z</time>
      </trkpt>
      <trkpt lat="45.95615" lon="6.85422">
        <ele>2423</ele>
        <time>2026-08-04T07:42:04.278Z</time>
      </trkpt>
      <trkpt lat="45.95615" lon="6.85422">
        <ele>2423</ele>
        <time>2026-08-04T07:42:05.278Z</time>
      </trkpt>
      <trkpt lat="45.95615" lon="6.85422">
        <ele>2423</ele>
        <time>2026-08-04T07:42:06.278Z</time>
      </trkpt>
      <trkpt lat="45.95615" lon="6.85422">
        <ele>2423</ele>
        <time>2026-08-04T07:42:07.278Z</time>
      </trkpt>
      <trkpt lat="45.95615" lon="6.85422">
        <ele>2423</ele>
        <time>2026-08-04T07:42:08.278Z</time>
      </trkpt>
      <trkpt lat="45.95615" lon="6.85422">
        <ele>2423</ele>
        <time>2026-08-04T07:42:09.278Z</time>
      </trkpt>
      <trkpt lat="45.95615" lon="6.85422">
        <ele>2423</ele>
        <time>2026-08-04T07:42:10.278Z</time>
      </trkpt>
      <trkpt lat="45.95615" lon="6.85422">
        <ele>2423</ele>
        <time>2026-08-04T07:42:11.278Z</time>
      </trkpt>
      <trkpt lat="45.95615" lon="6.85422">
        <ele>2423</ele>
        <time>2026-08-04T07:42:12.278Z</time>
      </trkpt>
      <trkpt lat="45.95615" lon="6.85422">
        <ele>2423</ele>
        <time>2026-08-04T07:42:13.278Z</time>
      </trkpt>
      <trkpt lat="45.95615" lon="6.85422">
        <ele>2423</ele>
        <time>2026-08-04T07:42:14.278Z</time>
      </trkpt>
      <trkpt lat="45.95615" lon="6.85422">
        <ele>2423</ele>
        <time>2026-08-04T07:42:15.278Z</time>
      </trkpt>
      <trkpt lat="45.95615" lon="6.85422">
        <ele>2423</ele>
        <time>2026-08-04T07:42:16.278Z</time>
      </trkpt>
      <trkpt lat="45.95615" lon="6.85422">
        <ele>2423</ele>
        <time>2026-08-04T07:42:17.278Z</time>
      </trkpt>
      <trkpt lat="45.95615" lon="6.85422">
        <ele>2423</ele>
        <time>2026-08-04T07:42:18.278Z</time>
      </trkpt>
      <trkpt lat="45.95615" lon="6.85422">
        <ele>2423</ele>
        <time>2026-08-04T07:42:19.278Z</time>
      </trkpt>
      <trkpt lat="45.95615" lon="6.85422">
        <ele>2423</ele>
        <time>2026-08-04T07:42:20.278Z</time>
      </trkpt>
      <trkpt lat="45.95615" lon="6.85422">
        <ele>2423</ele>
        <time>2026-08-04T07:42:21.278Z</time>
      </trkpt>
      <trkpt lat="45.95615" lon="6.85422">
        <ele>2423</ele>
        <time>2026-08-04T07:42:22.278Z</time>
      </trkpt>
      <trkpt lat="45.95615" lon="6.85422">
        <ele>2423</ele>
        <time>2026-08-04T07:42:23.278Z</time>
      </trkpt>
      <trkpt lat="45.95615" lon="6.85422">
        <ele>2423</ele>
        <time>2026-08-04T07:42:24.278Z</time>
      </trkpt>
      <trkpt lat="45.95615" lon="6.85422">
        <ele>2423</ele>
        <time>2026-08-04T07:42:25.278Z</time>
      </trkpt>
      <trkpt lat="45.95615" lon="6.85422">
        <ele>2423</ele>
        <time>2026-08-04T07:42:26.278Z</time>
      </trkpt>
      <trkpt lat="45.95615" lon="6.85422">
        <ele>2423</ele>
        <time>2026-08-04T07:42:27.278Z</time>
      </trkpt>
      <trkpt lat="45.95615" lon="6.85422">
        <ele>2423</ele>
        <time>2026-08-04T07:42:28.278Z</time>
      </trkpt>
      <trkpt lat="45.95615" lon="6.85422">
        <ele>2423</ele>
        <time>2026-08-04T07:42:29.278Z</time>
      </trkpt>
      <trkpt lat="45.95615" lon="6.85422">
        <ele>2423</ele>
        <time>2026-08-04T07:42:30.278Z</time>
      </trkpt>
      <trkpt lat="45.95615" lon="6.85422">
        <ele>2423</ele>
        <time>2026-08-04T07:42:31.278Z</time>
      </trkpt>
      <trkpt lat="45.95615" lon="6.85422">
        <ele>2423</ele>
        <time>2026-08-04T07:42:32.278Z</time>
      </trkpt>
      <trkpt lat="45.95615" lon="6.85422">
        <ele>2423</ele>
        <time>2026-08-04T07:42:33.278Z</time>
      </trkpt>
      <trkpt lat="45.95615" lon="6.85422">
        <ele>2423</ele>
        <time>2026-08-04T07:42:34.278Z</time>
      </trkpt>
      <trkpt lat="45.95615" lon="6.85422">
        <ele>2423</ele>
        <time>2026-08-04T07:42:35.278Z</time>
      </trkpt>
      <trkpt lat="45.95615" lon="6.85422">
        <ele>2423</ele>
        <time>2026-08-04T07:42:36.278Z</time>
      </trkpt>
      <trkpt lat="45.95615" lon="6.85422">
        <ele>2423</ele>
        <time>2026-08-04T07:42:37.278Z</time>
      </trkpt>
      <trkpt lat="45.95615" lon="6.85422">
        <ele>2423</ele>
        <time>2026-08-04T07:42:38.278Z</time>
      </trkpt>
      <trkpt lat="45.95615" lon="6.85422">
        <ele>2423</ele>
        <time>2026-08-04T07:42:39.278Z</time>
      </trkpt>
      <trkpt lat="45.95615" lon="6.85422">
        <ele>2423</ele>
        <time>2026-08-04T07:42:40.278Z</time>
      </trkpt>
      <trkpt lat="45.95615" lon="6.85422">
        <ele>2423</ele>
        <time>2026-08-04T07:42:41.278Z</time>
      </trkpt>
      <trkpt lat="45.95615" lon="6.85422">
        <ele>2423</ele>
        <time>2026-08-04T07:42:42.278Z</time>
      </trkpt>
      <trkpt lat="45.95615" lon="6.85422">
        <ele>2423</ele>
        <time>2026-08-04T07:42:43.278Z</time>
      </trkpt>
      <trkpt lat="45.95615" lon="6.85422">
        <ele>2423</ele>
        <time>2026-08-04T07:42:44.278Z</time>
      </trkpt>
      <trkpt lat="45.95615" lon="6.85422">
        <ele>2423</ele>
        <time>2026-08-04T07:42:45.278Z</time>
      </trkpt>
      <trkpt lat="45.95615" lon="6.85422">
        <ele>2423</ele>
        <time>2026-08-04T07:42:46.278Z</time>
      </trkpt>
      <trkpt lat="45.95615" lon="6.85422">
        <ele>2423</ele>
        <time>2026-08-04T07:42:47.278Z</time>
      </trkpt>
      <trkpt lat="45.95615" lon="6.85422">
        <ele>2423</ele>
        <time>2026-08-04T07:42:48.278Z</time>
      </trkpt>
      <trkpt lat="45.95615" lon="6.85422">
        <ele>2423</ele>
        <time>2026-08-04T07:42:49.278Z</time>
      </trkpt>
      <trkpt lat="45.95615" lon="6.85422">
        <ele>2423</ele>
        <time>2026-08-04T07:42:50.278Z</time>
      </trkpt>
      <trkpt lat="45.95615" lon="6.85422">
        <ele>2423</ele>
        <time>2026-08-04T07:42:51.278Z</time>
      </trkpt>
      <trkpt lat="45.95615" lon="6.85422">
        <ele>2423</ele>
        <time>2026-08-04T07:42:52.279Z</time>
      </trkpt>
      <trkpt lat="45.95615" lon="6.85422">
        <ele>2423</ele>
        <time>2026-08-04T07:42:53.278Z</time>
      </trkpt>
      <trkpt lat="45.95615" lon="6.85422">
        <ele>2423</ele>
        <time>2026-08-04T07:42:54.278Z</time>
      </trkpt>
      <trkpt lat="45.95615" lon="6.85422">
        <ele>2423</ele>
        <time>2026-08-04T07:42:55.278Z</time>
      </trkpt>
      <trkpt lat="45.95615" lon="6.85422">
        <ele>2423</ele>
        <time>2026-08-04T07:42:56.278Z</time>
      </trkpt>
      <trkpt lat="45.95615" lon="6.85422">
        <ele>2423</ele>
        <time>2026-08-04T07:42:57.278Z</time>
      </trkpt>
      <trkpt lat="45.95615" lon="6.85422">
        <ele>2423</ele>
        <time>2026-08-04T07:42:58.278Z</time>
      </trkpt>
      <trkpt lat="45.95615" lon="6.85422">
        <ele>2423</ele>
        <time>2026-08-04T07:42:59.278Z</time>
      </trkpt>
      <trkpt lat="45.95615" lon="6.85422">
        <ele>2423</ele>
        <time>2026-08-04T07:43:00.278Z</time>
      </trkpt>
      <trkpt lat="45.95615" lon="6.85422">
        <ele>2423</ele>
        <time>2026-08-04T07:43:01.278Z</time>
      </trkpt>
      <trkpt lat="45.95615" lon="6.85422">
        <ele>2423</ele>
        <time>2026-08-04T07:43:02.278Z</time>
      </trkpt>
      <trkpt lat="45.95615" lon="6.85422">
        <ele>2423</ele>
        <time>2026-08-04T07:43:03.278Z</time>
      </trkpt>
      <trkpt lat="45.95615" lon="6.85422">
        <ele>2423</ele>
        <time>2026-08-04T07:43:04.278Z</time>
      </trkpt>
      <trkpt lat="45.95615" lon="6.85422">
        <ele>2423</ele>
        <time>2026-08-04T07:43:05.278Z</time>
      </trkpt>
      <trkpt lat="45.95615" lon="6.85422">
        <ele>2423</ele>
        <time>2026-08-04T07:43:06.278Z</time>
      </trkpt>
      <trkpt lat="45.95615" lon="6.85422">
        <ele>2423</ele>
        <time>2026-08-04T07:43:07.278Z</time>
      </trkpt>
      <trkpt lat="45.95615" lon="6.85422">
        <ele>2423</ele>
        <time>2026-08-04T07:43:08.278Z</time>
      </trkpt>
      <trkpt lat="45.95615" lon="6.85422">
        <ele>2423</ele>
        <time>2026-08-04T07:43:09.278Z</time>
      </trkpt>
      <trkpt lat="45.95615" lon="6.85422">
        <ele>2423</ele>
        <time>2026-08-04T07:43:10.278Z</time>
      </trkpt>
      <trkpt lat="45.95615" lon="6.85422">
        <ele>2423</ele>
        <time>2026-08-04T07:43:11.278Z</time>
      </trkpt>
      <trkpt lat="45.95615" lon="6.85422">
        <ele>2423</ele>
        <time>2026-08-04T07:43:12.278Z</time>
      </trkpt>
      <trkpt lat="45.95615" lon="6.85422">
        <ele>2423</ele>
        <time>2026-08-04T07:43:13.278Z</time>
      </trkpt>
      <trkpt lat="45.95615" lon="6.85422">
        <ele>2423</ele>
        <time>2026-08-04T07:43:14.278Z</time>
      </trkpt>
      <trkpt lat="45.95615" lon="6.85422">
        <ele>2423</ele>
        <time>2026-08-04T07:43:15.278Z</time>
      </trkpt>
      <trkpt lat="45.95615" lon="6.85422">
        <ele>2423</ele>
        <time>2026-08-04T07:43:16.278Z</time>
      </trkpt>
      <trkpt lat="45.95615" lon="6.85422">
        <ele>2423</ele>
        <time>2026-08-04T07:43:17.278Z</time>
      </trkpt>
      <trkpt lat="45.95615" lon="6.85422">
        <ele>2423</ele>
        <time>2026-08-04T07:43:18.278Z</time>
      </trkpt>
      <trkpt lat="45.95615" lon="6.85422">
        <ele>2423</ele>
        <time>2026-08-04T07:43:19.278Z</time>
      </trkpt>
      <trkpt lat="45.95615" lon="6.85422">
        <ele>2423</ele>
        <time>2026-08-04T07:43:20.278Z</time>
      </trkpt>
      <trkpt lat="45.95615" lon="6.85422">
        <ele>2423</ele>
        <time>2026-08-04T07:43:21.278Z</time>
      </trkpt>
      <trkpt lat="45.95615" lon="6.85422">
        <ele>2423</ele>
        <time>2026-08-04T07:43:22.278Z</time>
      </trkpt>
      <trkpt lat="45.95615" lon="6.85422">
        <ele>2423</ele>
        <time>2026-08-04T07:43:23.278Z</time>
      </trkpt>
      <trkpt lat="45.95615" lon="6.85422">
        <ele>2423</ele>
        <time>2026-08-04T07:43:24.278Z</time>
      </trkpt>
      <trkpt lat="45.95615" lon="6.85422">
        <ele>2423</ele>
        <time>2026-08-04T07:43:25.278Z</time>
      </trkpt>
      <trkpt lat="45.95615" lon="6.85422">
        <ele>2423</ele>
        <time>2026-08-04T07:43:26.278Z</time>
      </trkpt>
      <trkpt lat="45.95615" lon="6.85422">
        <ele>2423</ele>
        <time>2026-08-04T07:43:27.278Z</time>
      </trkpt>
      <trkpt lat="45.95615" lon="6.85422">
        <ele>2423</ele>
        <time>2026-08-04T07:43:28.278Z</time>
      </trkpt>
      <trkpt lat="45.95615" lon="6.85422">
        <ele>2423</ele>
        <time>2026-08-04T07:43:29.278Z</time>
      </trkpt>
      <trkpt lat="45.95615" lon="6.85422">
        <ele>2423</ele>
        <time>2026-08-04T07:43:30.278Z</time>
      </trkpt>
      <trkpt lat="45.95615" lon="6.85422">
        <ele>2423</ele>
        <time>2026-08-04T07:43:31.278Z</time>
      </trkpt>
      <trkpt lat="45.95615" lon="6.85422">
        <ele>2423</ele>
        <time>2026-08-04T07:43:32.278Z</time>
      </trkpt>
      <trkpt lat="45.95615" lon="6.85422">
        <ele>2423</ele>
        <time>2026-08-04T07:43:33.278Z</time>
      </trkpt>
      <trkpt lat="45.95615" lon="6.85422">
        <ele>2423</ele>
        <time>2026-08-04T07:43:34.278Z</time>
      </trkpt>
      <trkpt lat="45.95615" lon="6.85422">
        <ele>2423</ele>
        <time>2026-08-04T07:43:35.278Z</time>
      </trkpt>
      <trkpt lat="45.95615" lon="6.85422">
        <ele>2423</ele>
        <time>2026-08-04T07:43:36.278Z</time>
      </trkpt>
      <trkpt lat="45.95615" lon="6.85422">
        <ele>2423</ele>
        <time>2026-08-04T07:43:37.278Z</time>
      </trkpt>
      <trkpt lat="45.95615" lon="6.85422">
        <ele>2423</ele>
        <time>2026-08-04T07:43:38.278Z</time>
      </trkpt>
      <trkpt lat="45.95615" lon="6.85422">
        <ele>2423</ele>
        <time>2026-08-04T07:43:39.278Z</time>
      </trkpt>
      <trkpt lat="45.95615" lon="6.85422">
        <ele>2423</ele>
        <time>2026-08-04T07:43:40.278Z</time>
      </trkpt>
      <trkpt lat="45.95615" lon="6.85422">
        <ele>2423</ele>
        <time>2026-08-04T07:43:41.278Z</time>
      </trkpt>
      <trkpt lat="45.95615" lon="6.85422">
        <ele>2423</ele>
        <time>2026-08-04T07:43:42.278Z</time>
      </trkpt>
      <trkpt lat="45.95615" lon="6.85422">
        <ele>2423</ele>
        <time>2026-08-04T07:43:43.278Z</time>
      </trkpt>
      <trkpt lat="45.95615" lon="6.85422">
        <ele>2423</ele>
        <time>2026-08-04T07:43:44.278Z</time>
      </trkpt>
      <trkpt lat="45.95615" lon="6.85422">
        <ele>2423</ele>
        <time>2026-08-04T07:43:45.278Z</time>
      </trkpt>
      <trkpt lat="45.95615" lon="6.85422">
        <ele>2423</ele>
        <time>2026-08-04T07:43:46.278Z</time>
      </trkpt>
      <trkpt lat="45.95615" lon="6.85422">
        <ele>2423</ele>
        <time>2026-08-04T07:43:47.278Z</time>
      </trkpt>
      <trkpt lat="45.95615" lon="6.85422">
        <ele>2423</ele>
        <time>2026-08-04T07:43:48.278Z</time>
      </trkpt>
      <trkpt lat="45.95615" lon="6.85422">
        <ele>2423</ele>
        <time>2026-08-04T07:43:49.278Z</time>
      </trkpt>
      <trkpt lat="45.95615" lon="6.85422">
        <ele>2423</ele>
        <time>2026-08-04T07:43:50.278Z</time>
      </trkpt>
      <trkpt lat="45.95615" lon="6.85422">
        <ele>2423</ele>
        <time>2026-08-04T07:43:51.278Z</time>
      </trkpt>
      <trkpt lat="45.95615" lon="6.85422">
        <ele>2423</ele>
        <time>2026-08-04T07:43:52.278Z</time>
      </trkpt>
      <trkpt lat="45.95615" lon="6.85422">
        <ele>2423</ele>
        <time>2026-08-04T07:43:53.278Z</time>
      </trkpt>
      <trkpt lat="45.95615" lon="6.85422">
        <ele>2423</ele>
        <time>2026-08-04T07:43:54.278Z</time>
      </trkpt>
      <trkpt lat="45.95615" lon="6.85422">
        <ele>2423</ele>
        <time>2026-08-04T07:43:55.278Z</time>
      </trkpt>
      <trkpt lat="45.95615" lon="6.85422">
        <ele>2423</ele>
        <time>2026-08-04T07:43:56.278Z</time>
      </trkpt>
      <trkpt lat="45.95615" lon="6.85422">
        <ele>2423</ele>
        <time>2026-08-04T07:43:57.278Z</time>
      </trkpt>
      <trkpt lat="45.95615" lon="6.85422">
        <ele>2423</ele>
        <time>2026-08-04T07:43:58.278Z</time>
      </trkpt>
      <trkpt lat="45.95615" lon="6.85422">
        <ele>2423</ele>
        <time>2026-08-04T07:43:59.278Z</time>
      </trkpt>
      <trkpt lat="45.95615" lon="6.85422">
        <ele>2423</ele>
        <time>2026-08-04T07:44:00.279Z</time>
      </trkpt>
      <trkpt lat="45.95615" lon="6.85422">
        <ele>2423</ele>
        <time>2026-08-04T07:44:01.278Z</time>
      </trkpt>
      <trkpt lat="45.95615" lon="6.85422">
        <ele>2423</ele>
        <time>2026-08-04T07:44:02.278Z</time>
      </trkpt>
      <trkpt lat="45.95615" lon="6.85422">
        <ele>2423</ele>
        <time>2026-08-04T07:44:03.278Z</time>
      </trkpt>
      <trkpt lat="45.95615" lon="6.85422">
        <ele>2423</ele>
        <time>2026-08-04T07:44:04.278Z</time>
      </trkpt>
      <trkpt lat="45.95615" lon="6.85422">
        <ele>2423</ele>
        <time>2026-08-04T07:44:05.278Z</time>
      </trkpt>
      <trkpt lat="45.95615" lon="6.85422">
        <ele>2423</ele>
        <time>2026-08-04T07:44:06.278Z</time>
      </trkpt>
      <trkpt lat="45.95615" lon="6.85422">
        <ele>2423</ele>
        <time>2026-08-04T07:44:07.278Z</time>
      </trkpt>
      <trkpt lat="45.95615" lon="6.85422">
        <ele>2423</ele>
        <time>2026-08-04T07:44:08.278Z</time>
      </trkpt>
      <trkpt lat="45.95615" lon="6.85422">
        <ele>2423</ele>
        <time>2026-08-04T07:44:09.278Z</time>
      </trkpt>
      <trkpt lat="45.95615" lon="6.85422">
        <ele>2423</ele>
        <time>2026-08-04T07:44:10.278Z</time>
      </trkpt>
      <trkpt lat="45.95615" lon="6.85422">
        <ele>2423</ele>
        <time>2026-08-04T07:44:11.278Z</time>
      </trkpt>
      <trkpt lat="45.95615" lon="6.85422">
        <ele>2423</ele>
        <time>2026-08-04T07:44:12.278Z</time>
      </trkpt>
      <trkpt lat="45.95615" lon="6.85422">
        <ele>2423</ele>
        <time>2026-08-04T07:44:13.278Z</time>
      </trkpt>
      <trkpt lat="45.95615" lon="6.85422">
        <ele>2423</ele>
        <time>2026-08-04T07:44:14.278Z</time>
      </trkpt>
      <trkpt lat="45.95615" lon="6.85422">
        <ele>2423</ele>
        <time>2026-08-04T07:44:15.278Z</time>
      </trkpt>
      <trkpt lat="45.95615" lon="6.85422">
        <ele>2423</ele>
        <time>2026-08-04T07:44:16.278Z</time>
      </trkpt>
      <trkpt lat="45.95615" lon="6.85422">
        <ele>2423</ele>
        <time>2026-08-04T07:44:17.278Z</time>
      </trkpt>
      <trkpt lat="45.95615" lon="6.85422">
        <ele>2423</ele>
        <time>2026-08-04T07:44:18.278Z</time>
      </trkpt>
      <trkpt lat="45.95615" lon="6.85422">
        <ele>2423</ele>
        <time>2026-08-04T07:44:19.278Z</time>
      </trkpt>
      <trkpt lat="45.95615" lon="6.85422">
        <ele>2423</ele>
        <time>2026-08-04T07:44:20.278Z</time>
      </trkpt>
      <trkpt lat="45.95615" lon="6.85422">
        <ele>2423</ele>
        <time>2026-08-04T07:44:21.278Z</time>
      </trkpt>
      <trkpt lat="45.95615" lon="6.85422">
        <ele>2423</ele>
        <time>2026-08-04T07:44:22.278Z</time>
      </trkpt>
      <trkpt lat="45.95615" lon="6.85422">
        <ele>2423</ele>
        <time>2026-08-04T07:44:23.278Z</time>
      </trkpt>
      <trkpt lat="45.95615" lon="6.85422">
        <ele>2423</ele>
        <time>2026-08-04T07:44:24.278Z</time>
      </trkpt>
      <trkpt lat="45.95615" lon="6.85422">
        <ele>2423</ele>
        <time>2026-08-04T07:44:25.278Z</time>
      </trkpt>
      <trkpt lat="45.95615" lon="6.85422">
        <ele>2423</ele>
        <time>2026-08-04T07:44:26.278Z</time>
      </trkpt>
      <trkpt lat="45.95615" lon="6.85422">
        <ele>2423</ele>
        <time>2026-08-04T07:44:27.278Z</time>
      </trkpt>
      <trkpt lat="45.95615" lon="6.85422">
        <ele>2423</ele>
        <time>2026-08-04T07:44:28.278Z</time>
      </trkpt>
      <trkpt lat="45.95615" lon="6.85422">
        <ele>2423</ele>
        <time>2026-08-04T07:44:29.278Z</time>
      </trkpt>
      <trkpt lat="45.95615" lon="6.85422">
        <ele>2423</ele>
        <time>2026-08-04T07:44:30.278Z</time>
      </trkpt>
      <trkpt lat="45.95615" lon="6.85422">
        <ele>2423</ele>
        <time>2026-08-04T07:44:31.278Z</time>
      </trkpt>
      <trkpt lat="45.95615" lon="6.85422">
        <ele>2423</ele>
        <time>2026-08-04T07:44:32.278Z</time>
      </trkpt>
      <trkpt lat="45.95615" lon="6.85422">
        <ele>2423</ele>
        <time>2026-08-04T07:44:33.278Z</time>
      </trkpt>
      <trkpt lat="45.95615" lon="6.85422">
        <ele>2423</ele>
        <time>2026-08-04T07:44:34.278Z</time>
      </trkpt>
      <trkpt lat="45.95615" lon="6.85422">
        <ele>2423</ele>
        <time>2026-08-04T07:44:35.278Z</time>
      </trkpt>
      <trkpt lat="45.95615" lon="6.85422">
        <ele>2423</ele>
        <time>2026-08-04T07:44:36.278Z</time>
      </trkpt>
      <trkpt lat="45.95615" lon="6.85422">
        <ele>2423</ele>
        <time>2026-08-04T07:44:37.278Z</time>
      </trkpt>
      <trkpt lat="45.95615" lon="6.85422">
        <ele>2423</ele>
        <time>2026-08-04T07:44:38.278Z</time>
      </trkpt>
      <trkpt lat="45.95615" lon="6.85422">
        <ele>2423</ele>
        <time>2026-08-04T07:44:39.278Z</time>
      </trkpt>
      <trkpt lat="45.95615" lon="6.85422">
        <ele>2423</ele>
        <time>2026-08-04T07:44:40.278Z</time>
      </trkpt>
      <trkpt lat="45.95615" lon="6.85422">
        <ele>2423</ele>
        <time>2026-08-04T07:44:41.278Z</time>
      </trkpt>
      <trkpt lat="45.95615" lon="6.85422">
        <ele>2423</ele>
        <time>2026-08-04T07:44:42.278Z</time>
      </trkpt>
      <trkpt lat="45.95615" lon="6.85422">
        <ele>2423</ele>
        <time>2026-08-04T07:44:43.278Z</time>
      </trkpt>
      <trkpt lat="45.95615" lon="6.85422">
        <ele>2423</ele>
        <time>2026-08-04T07:44:44.278Z</time>
      </trkpt>
      <trkpt lat="45.95615" lon="6.85422">
        <ele>2423</ele>
        <time>2026-08-04T07:44:45.278Z</time>
      </trkpt>
      <trkpt lat="45.95615" lon="6.85422">
        <ele>2423</ele>
        <time>2026-08-04T07:44:46.278Z</time>
      </trkpt>
      <trkpt lat="45.95615" lon="6.85422">
        <ele>2423</ele>
        <time>2026-08-04T07:44:47.278Z</time>
      </trkpt>
      <trkpt lat="45.95615" lon="6.85422">
        <ele>2423</ele>
        <time>2026-08-04T07:44:48.278Z</time>
      </trkpt>
      <trkpt lat="45.95615" lon="6.85422">
        <ele>2423</ele>
        <time>2026-08-04T07:44:49.278Z</time>
      </trkpt>
      <trkpt lat="45.95615" lon="6.85422">
        <ele>2423</ele>
        <time>2026-08-04T07:44:50.278Z</time>
      </trkpt>
      <trkpt lat="45.95615" lon="6.85422">
        <ele>2423</ele>
        <time>2026-08-04T07:44:51.278Z</time>
      </trkpt>
      <trkpt lat="45.95615" lon="6.85422">
        <ele>2423</ele>
        <time>2026-08-04T07:44:52.278Z</time>
      </trkpt>
      <trkpt lat="45.95615" lon="6.85422">
        <ele>2423</ele>
        <time>2026-08-04T07:44:53.278Z</time>
      </trkpt>
      <trkpt lat="45.95615" lon="6.85422">
        <ele>2423</ele>
        <time>2026-08-04T07:44:54.278Z</time>
      </trkpt>
      <trkpt lat="45.95615" lon="6.85422">
        <ele>2424</ele>
        <time>2026-08-04T07:44:55.278Z</time>
      </trkpt>
      <trkpt lat="45.95615" lon="6.85422">
        <ele>2424</ele>
        <time>2026-08-04T07:44:56.278Z</time>
      </trkpt>
      <trkpt lat="45.95615" lon="6.85422">
        <ele>2424</ele>
        <time>2026-08-04T07:44:57.278Z</time>
      </trkpt>
      <trkpt lat="45.95615" lon="6.85422">
        <ele>2424</ele>
        <time>2026-08-04T07:44:58.278Z</time>
      </trkpt>
      <trkpt lat="45.95615" lon="6.85422">
        <ele>2424</ele>
        <time>2026-08-04T07:44:59.278Z</time>
      </trkpt>
      <trkpt lat="45.95615" lon="6.85422">
        <ele>2424</ele>
        <time>2026-08-04T07:45:00.278Z</time>
      </trkpt>
      <trkpt lat="45.95615" lon="6.85422">
        <ele>2424</ele>
        <time>2026-08-04T07:45:01.278Z</time>
      </trkpt>
      <trkpt lat="45.95615" lon="6.85422">
        <ele>2424</ele>
        <time>2026-08-04T07:45:02.278Z</time>
      </trkpt>
      <trkpt lat="45.95615" lon="6.85422">
        <ele>2424</ele>
        <time>2026-08-04T07:45:03.278Z</time>
      </trkpt>
      <trkpt lat="45.95615" lon="6.85422">
        <ele>2424</ele>
        <time>2026-08-04T07:45:04.278Z</time>
      </trkpt>
      <trkpt lat="45.95615" lon="6.85422">
        <ele>2424</ele>
        <time>2026-08-04T07:45:05.278Z</time>
      </trkpt>
      <trkpt lat="45.95615" lon="6.85422">
        <ele>2424</ele>
        <time>2026-08-04T07:45:06.278Z</time>
      </trkpt>
      <trkpt lat="45.95615" lon="6.85422">
        <ele>2424</ele>
        <time>2026-08-04T07:45:07.278Z</time>
      </trkpt>
      <trkpt lat="45.95615" lon="6.85422">
        <ele>2423</ele>
        <time>2026-08-04T07:45:08.278Z</time>
      </trkpt>
      <trkpt lat="45.95615" lon="6.85422">
        <ele>2423</ele>
        <time>2026-08-04T07:45:09.278Z</time>
      </trkpt>
      <trkpt lat="45.95615" lon="6.85422">
        <ele>2423</ele>
        <time>2026-08-04T07:45:10.278Z</time>
      </trkpt>
      <trkpt lat="45.95615" lon="6.85422">
        <ele>2423</ele>
        <time>2026-08-04T07:45:11.278Z</time>
      </trkpt>
      <trkpt lat="45.95615" lon="6.85422">
        <ele>2423</ele>
        <time>2026-08-04T07:45:12.278Z</time>
      </trkpt>
      <trkpt lat="45.95615" lon="6.85422">
        <ele>2423</ele>
        <time>2026-08-04T07:45:13.278Z</time>
      </trkpt>
      <trkpt lat="45.95615" lon="6.85422">
        <ele>2423</ele>
        <time>2026-08-04T07:45:14.278Z</time>
      </trkpt>
      <trkpt lat="45.95615" lon="6.85422">
        <ele>2423</ele>
        <time>2026-08-04T07:45:15.278Z</time>
      </trkpt>
      <trkpt lat="45.95615" lon="6.85422">
        <ele>2423</ele>
        <time>2026-08-04T07:45:16.278Z</time>
      </trkpt>
      <trkpt lat="45.95615" lon="6.85422">
        <ele>2423</ele>
        <time>2026-08-04T07:45:17.278Z</time>
      </trkpt>
      <trkpt lat="45.95615" lon="6.85422">
        <ele>2423</ele>
        <time>2026-08-04T07:45:18.278Z</time>
      </trkpt>
      <trkpt lat="45.95615" lon="6.85422">
        <ele>2423</ele>
        <time>2026-08-04T07:45:19.278Z</time>
      </trkpt>
      <trkpt lat="45.95615" lon="6.85422">
        <ele>2423</ele>
        <time>2026-08-04T07:45:20.278Z</time>
      </trkpt>
      <trkpt lat="45.95615" lon="6.85422">
        <ele>2423</ele>
        <time>2026-08-04T07:45:21.278Z</time>
      </trkpt>
      <trkpt lat="45.95615" lon="6.85422">
        <ele>2423</ele>
        <time>2026-08-04T07:45:22.278Z</time>
      </trkpt>
      <trkpt lat="45.95615" lon="6.85422">
        <ele>2423</ele>
        <time>2026-08-04T07:45:23.278Z</time>
      </trkpt>
      <trkpt lat="45.95615" lon="6.85422">
        <ele>2423</ele>
        <time>2026-08-04T07:45:24.278Z</time>
      </trkpt>
      <trkpt lat="45.95615" lon="6.85422">
        <ele>2423</ele>
        <time>2026-08-04T07:45:25.278Z</time>
      </trkpt>
      <trkpt lat="45.95615" lon="6.85422">
        <ele>2423</ele>
        <time>2026-08-04T07:45:26.278Z</time>
      </trkpt>
      <trkpt lat="45.95615" lon="6.85422">
        <ele>2423</ele>
        <time>2026-08-04T07:45:27.278Z</time>
      </trkpt>
      <trkpt lat="45.95615" lon="6.85422">
        <ele>2423</ele>
        <time>2026-08-04T07:45:28.278Z</time>
      </trkpt>
      <trkpt lat="45.95613" lon="6.85421">
        <ele>2423</ele>
        <time>2026-08-04T07:45:29.278Z</time>
      </trkpt>
      <trkpt lat="45.95613" lon="6.85421">
        <ele>2423</ele>
        <time>2026-08-04T07:45:30.278Z</time>
      </trkpt>
      <trkpt lat="45.95612" lon="6.8542">
        <ele>2423</ele>
        <time>2026-08-04T07:45:31.278Z</time>
      </trkpt>
      <trkpt lat="45.95611" lon="6.85419">
        <ele>2423</ele>
        <time>2026-08-04T07:45:32.278Z</time>
      </trkpt>
      <trkpt lat="45.95611" lon="6.85419">
        <ele>2423</ele>
        <time>2026-08-04T07:45:33.278Z</time>
      </trkpt>
      <trkpt lat="45.9561" lon="6.85417">
        <ele>2423</ele>
        <time>2026-08-04T07:45:34.278Z</time>
      </trkpt>
      <trkpt lat="45.95609" lon="6.85416">
        <ele>2423</ele>
        <time>2026-08-04T07:45:35.278Z</time>
      </trkpt>
      <trkpt lat="45.95608" lon="6.85415">
        <ele>2423</ele>
        <time>2026-08-04T07:45:36.278Z</time>
      </trkpt>
      <trkpt lat="45.95608" lon="6.85415">
        <ele>2423</ele>
        <time>2026-08-04T07:45:37.278Z</time>
      </trkpt>
      <trkpt lat="45.95608" lon="6.85414">
        <ele>2422</ele>
        <time>2026-08-04T07:45:38.278Z</time>
      </trkpt>
      <trkpt lat="45.95608" lon="6.85413">
        <ele>2422</ele>
        <time>2026-08-04T07:45:39.278Z</time>
      </trkpt>
      <trkpt lat="45.95609" lon="6.85413">
        <ele>2422</ele>
        <time>2026-08-04T07:45:40.278Z</time>
      </trkpt>
      <trkpt lat="45.95609" lon="6.85413">
        <ele>2422</ele>
        <time>2026-08-04T07:45:41.278Z</time>
      </trkpt>
      <trkpt lat="45.9561" lon="6.85412">
        <ele>2421</ele>
        <time>2026-08-04T07:45:42.278Z</time>
      </trkpt>
      <trkpt lat="45.95611" lon="6.85412">
        <ele>2420</ele>
        <time>2026-08-04T07:45:43.278Z</time>
      </trkpt>
      <trkpt lat="45.95611" lon="6.85411">
        <ele>2420</ele>
        <time>2026-08-04T07:45:44.278Z</time>
      </trkpt>
      <trkpt lat="45.95612" lon="6.85411">
        <ele>2420</ele>
        <time>2026-08-04T07:45:45.278Z</time>
      </trkpt>
      <trkpt lat="45.95612" lon="6.85411">
        <ele>2420</ele>
        <time>2026-08-04T07:45:46.278Z</time>
      </trkpt>
      <trkpt lat="45.95613" lon="6.85411">
        <ele>2419</ele>
        <time>2026-08-04T07:45:47.278Z</time>
      </trkpt>
      <trkpt lat="45.95613" lon="6.8541">
        <ele>2418</ele>
        <time>2026-08-04T07:45:48.278Z</time>
      </trkpt>
      <trkpt lat="45.95613" lon="6.85409">
        <ele>2418</ele>
        <time>2026-08-04T07:45:49.278Z</time>
      </trkpt>
      <trkpt lat="45.95614" lon="6.85409">
        <ele>2418</ele>
        <time>2026-08-04T07:45:50.278Z</time>
      </trkpt>
      <trkpt lat="45.95614" lon="6.85409">
        <ele>2418</ele>
        <time>2026-08-04T07:45:51.278Z</time>
      </trkpt>
      <trkpt lat="45.95614" lon="6.85408">
        <ele>2418</ele>
        <time>2026-08-04T07:45:52.278Z</time>
      </trkpt>
      <trkpt lat="45.95614" lon="6.85408">
        <ele>2418</ele>
        <time>2026-08-04T07:45:53.278Z</time>
      </trkpt>
      <trkpt lat="45.95614" lon="6.85408">
        <ele>2418</ele>
        <time>2026-08-04T07:45:54.278Z</time>
      </trkpt>
      <trkpt lat="45.95614" lon="6.85407">
        <ele>2418</ele>
        <time>2026-08-04T07:45:55.278Z</time>
      </trkpt>
      <trkpt lat="45.95614" lon="6.85407">
        <ele>2418</ele>
        <time>2026-08-04T07:45:56.278Z</time>
      </trkpt>
      <trkpt lat="45.95614" lon="6.85408">
        <ele>2418</ele>
        <time>2026-08-04T07:45:57.278Z</time>
      </trkpt>
      <trkpt lat="45.95613" lon="6.85408">
        <ele>2418</ele>
        <time>2026-08-04T07:45:58.278Z</time>
      </trkpt>
      <trkpt lat="45.95613" lon="6.85408">
        <ele>2418</ele>
        <time>2026-08-04T07:45:59.278Z</time>
      </trkpt>
      <trkpt lat="45.95612" lon="6.85409">
        <ele>2419</ele>
        <time>2026-08-04T07:46:00.278Z</time>
      </trkpt>
      <trkpt lat="45.95611" lon="6.85408">
        <ele>2419</ele>
        <time>2026-08-04T07:46:01.278Z</time>
      </trkpt>
      <trkpt lat="45.95611" lon="6.85407">
        <ele>2420</ele>
        <time>2026-08-04T07:46:02.278Z</time>
      </trkpt>
      <trkpt lat="45.9561" lon="6.85407">
        <ele>2420</ele>
        <time>2026-08-04T07:46:03.278Z</time>
      </trkpt>
      <trkpt lat="45.9561" lon="6.85406">
        <ele>2420</ele>
        <time>2026-08-04T07:46:04.278Z</time>
      </trkpt>
      <trkpt lat="45.9561" lon="6.85406">
        <ele>2420</ele>
        <time>2026-08-04T07:46:05.278Z</time>
      </trkpt>
      <trkpt lat="45.9561" lon="6.85405">
        <ele>2420</ele>
        <time>2026-08-04T07:46:06.278Z</time>
      </trkpt>
      <trkpt lat="45.95611" lon="6.85404">
        <ele>2419</ele>
        <time>2026-08-04T07:46:07.278Z</time>
      </trkpt>
      <trkpt lat="45.95611" lon="6.85404">
        <ele>2419</ele>
        <time>2026-08-04T07:46:08.278Z</time>
      </trkpt>
      <trkpt lat="45.9561" lon="6.85403">
        <ele>2418</ele>
        <time>2026-08-04T07:46:09.278Z</time>
      </trkpt>
      <trkpt lat="45.9561" lon="6.85403">
        <ele>2418</ele>
        <time>2026-08-04T07:46:10.278Z</time>
      </trkpt>
      <trkpt lat="45.9561" lon="6.85403">
        <ele>2418</ele>
        <time>2026-08-04T07:46:11.278Z</time>
      </trkpt>
      <trkpt lat="45.9561" lon="6.85401">
        <ele>2417</ele>
        <time>2026-08-04T07:46:12.278Z</time>
      </trkpt>
      <trkpt lat="45.9561" lon="6.85401">
        <ele>2417</ele>
        <time>2026-08-04T07:46:13.278Z</time>
      </trkpt>
      <trkpt lat="45.9561" lon="6.854">
        <ele>2417</ele>
        <time>2026-08-04T07:46:14.278Z</time>
      </trkpt>
      <trkpt lat="45.9561" lon="6.854">
        <ele>2417</ele>
        <time>2026-08-04T07:46:15.278Z</time>
      </trkpt>
      <trkpt lat="45.9561" lon="6.854">
        <ele>2416</ele>
        <time>2026-08-04T07:46:16.278Z</time>
      </trkpt>
      <trkpt lat="45.9561" lon="6.854">
        <ele>2416</ele>
        <time>2026-08-04T07:46:17.278Z</time>
      </trkpt>
      <trkpt lat="45.9561" lon="6.854">
        <ele>2416</ele>
        <time>2026-08-04T07:46:18.278Z</time>
      </trkpt>
      <trkpt lat="45.9561" lon="6.854">
        <ele>2416</ele>
        <time>2026-08-04T07:46:19.278Z</time>
      </trkpt>
      <trkpt lat="45.9561" lon="6.85401">
        <ele>2415</ele>
        <time>2026-08-04T07:46:20.278Z</time>
      </trkpt>
      <trkpt lat="45.9561" lon="6.85402">
        <ele>2415</ele>
        <time>2026-08-04T07:46:21.278Z</time>
      </trkpt>
      <trkpt lat="45.9561" lon="6.85402">
        <ele>2415</ele>
        <time>2026-08-04T07:46:22.278Z</time>
      </trkpt>
      <trkpt lat="45.95611" lon="6.85402">
        <ele>2415</ele>
        <time>2026-08-04T07:46:23.278Z</time>
      </trkpt>
      <trkpt lat="45.95611" lon="6.85402">
        <ele>2415</ele>
        <time>2026-08-04T07:46:24.278Z</time>
      </trkpt>
      <trkpt lat="45.95612" lon="6.85402">
        <ele>2414</ele>
        <time>2026-08-04T07:46:25.278Z</time>
      </trkpt>
      <trkpt lat="45.95612" lon="6.85401">
        <ele>2414</ele>
        <time>2026-08-04T07:46:26.278Z</time>
      </trkpt>
      <trkpt lat="45.95613" lon="6.85401">
        <ele>2414</ele>
        <time>2026-08-04T07:46:27.278Z</time>
      </trkpt>
      <trkpt lat="45.95613" lon="6.854">
        <ele>2414</ele>
        <time>2026-08-04T07:46:28.278Z</time>
      </trkpt>
      <trkpt lat="45.95614" lon="6.854">
        <ele>2414</ele>
        <time>2026-08-04T07:46:29.278Z</time>
      </trkpt>
      <trkpt lat="45.95614" lon="6.85399">
        <ele>2414</ele>
        <time>2026-08-04T07:46:30.278Z</time>
      </trkpt>
      <trkpt lat="45.95614" lon="6.85399">
        <ele>2414</ele>
        <time>2026-08-04T07:46:31.278Z</time>
      </trkpt>
      <trkpt lat="45.95614" lon="6.85399">
        <ele>2414</ele>
        <time>2026-08-04T07:46:32.278Z</time>
      </trkpt>
      <trkpt lat="45.95615" lon="6.85399">
        <ele>2414</ele>
        <time>2026-08-04T07:46:33.278Z</time>
      </trkpt>
      <trkpt lat="45.95615" lon="6.85399">
        <ele>2414</ele>
        <time>2026-08-04T07:46:34.278Z</time>
      </trkpt>
      <trkpt lat="45.95615" lon="6.85399">
        <ele>2414</ele>
        <time>2026-08-04T07:46:35.278Z</time>
      </trkpt>
      <trkpt lat="45.95615" lon="6.854">
        <ele>2414</ele>
        <time>2026-08-04T07:46:36.278Z</time>
      </trkpt>
      <trkpt lat="45.95615" lon="6.854">
        <ele>2414</ele>
        <time>2026-08-04T07:46:37.278Z</time>
      </trkpt>
      <trkpt lat="45.95615" lon="6.85401">
        <ele>2414</ele>
        <time>2026-08-04T07:46:38.278Z</time>
      </trkpt>
      <trkpt lat="45.95616" lon="6.85401">
        <ele>2414</ele>
        <time>2026-08-04T07:46:39.278Z</time>
      </trkpt>
      <trkpt lat="45.95616" lon="6.854">
        <ele>2414</ele>
        <time>2026-08-04T07:46:40.278Z</time>
      </trkpt>
      <trkpt lat="45.95616" lon="6.854">
        <ele>2414</ele>
        <time>2026-08-04T07:46:41.278Z</time>
      </trkpt>
      <trkpt lat="45.95616" lon="6.854">
        <ele>2413</ele>
        <time>2026-08-04T07:46:42.278Z</time>
      </trkpt>
      <trkpt lat="45.95616" lon="6.854">
        <ele>2413</ele>
        <time>2026-08-04T07:46:43.278Z</time>
      </trkpt>
      <trkpt lat="45.95616" lon="6.854">
        <ele>2412</ele>
        <time>2026-08-04T07:46:44.278Z</time>
      </trkpt>
      <trkpt lat="45.95616" lon="6.854">
        <ele>2412</ele>
        <time>2026-08-04T07:46:45.278Z</time>
      </trkpt>
      <trkpt lat="45.95616" lon="6.854">
        <ele>2412</ele>
        <time>2026-08-04T07:46:46.278Z</time>
      </trkpt>
      <trkpt lat="45.95616" lon="6.854">
        <ele>2412</ele>
        <time>2026-08-04T07:46:47.278Z</time>
      </trkpt>
      <trkpt lat="45.95616" lon="6.854">
        <ele>2411</ele>
        <time>2026-08-04T07:46:48.278Z</time>
      </trkpt>
      <trkpt lat="45.95616" lon="6.854">
        <ele>2411</ele>
        <time>2026-08-04T07:46:49.278Z</time>
      </trkpt>
      <trkpt lat="45.95616" lon="6.854">
        <ele>2411</ele>
        <time>2026-08-04T07:46:50.278Z</time>
      </trkpt>
      <trkpt lat="45.95616" lon="6.854">
        <ele>2411</ele>
        <time>2026-08-04T07:46:51.278Z</time>
      </trkpt>
      <trkpt lat="45.95616" lon="6.854">
        <ele>2410</ele>
        <time>2026-08-04T07:46:52.278Z</time>
      </trkpt>
      <trkpt lat="45.95616" lon="6.854">
        <ele>2410</ele>
        <time>2026-08-04T07:46:53.278Z</time>
      </trkpt>
      <trkpt lat="45.95616" lon="6.854">
        <ele>2410</ele>
        <time>2026-08-04T07:46:54.278Z</time>
      </trkpt>
      <trkpt lat="45.95616" lon="6.85401">
        <ele>2410</ele>
        <time>2026-08-04T07:46:55.278Z</time>
      </trkpt>
      <trkpt lat="45.95616" lon="6.85401">
        <ele>2410</ele>
        <time>2026-08-04T07:46:56.278Z</time>
      </trkpt>
      <trkpt lat="45.95616" lon="6.85401">
        <ele>2410</ele>
        <time>2026-08-04T07:46:57.278Z</time>
      </trkpt>
      <trkpt lat="45.95616" lon="6.85401">
        <ele>2410</ele>
        <time>2026-08-04T07:46:58.278Z</time>
      </trkpt>
      <trkpt lat="45.95616" lon="6.85401">
        <ele>2410</ele>
        <time>2026-08-04T07:46:59.278Z</time>
      </trkpt>
      <trkpt lat="45.95616" lon="6.85402">
        <ele>2410</ele>
        <time>2026-08-04T07:47:00.278Z</time>
      </trkpt>
      <trkpt lat="45.95616" lon="6.85402">
        <ele>2409</ele>
        <time>2026-08-04T07:47:01.278Z</time>
      </trkpt>
      <trkpt lat="45.95616" lon="6.85402">
        <ele>2409</ele>
        <time>2026-08-04T07:47:02.278Z</time>
      </trkpt>
      <trkpt lat="45.95617" lon="6.85402">
        <ele>2409</ele>
        <time>2026-08-04T07:47:03.278Z</time>
      </trkpt>
      <trkpt lat="45.95618" lon="6.85402">
        <ele>2409</ele>
        <time>2026-08-04T07:47:04.278Z</time>
      </trkpt>
      <trkpt lat="45.95619" lon="6.85402">
        <ele>2409</ele>
        <time>2026-08-04T07:47:05.278Z</time>
      </trkpt>
      <trkpt lat="45.9562" lon="6.85402">
        <ele>2409</ele>
        <time>2026-08-04T07:47:06.278Z</time>
      </trkpt>
      <trkpt lat="45.95621" lon="6.85402">
        <ele>2409</ele>
        <time>2026-08-04T07:47:07.278Z</time>
      </trkpt>
      <trkpt lat="45.95622" lon="6.85402">
        <ele>2408</ele>
        <time>2026-08-04T07:47:08.278Z</time>
      </trkpt>
      <trkpt lat="45.95623" lon="6.85401">
        <ele>2408</ele>
        <time>2026-08-04T07:47:09.278Z</time>
      </trkpt>
      <trkpt lat="45.95623" lon="6.85401">
        <ele>2408</ele>
        <time>2026-08-04T07:47:10.278Z</time>
      </trkpt>
      <trkpt lat="45.95625" lon="6.85401">
        <ele>2407</ele>
        <time>2026-08-04T07:47:11.278Z</time>
      </trkpt>
      <trkpt lat="45.95626" lon="6.85401">
        <ele>2407</ele>
        <time>2026-08-04T07:47:12.278Z</time>
      </trkpt>
      <trkpt lat="45.95627" lon="6.85401">
        <ele>2407</ele>
        <time>2026-08-04T07:47:13.278Z</time>
      </trkpt>
      <trkpt lat="45.95627" lon="6.85401">
        <ele>2407</ele>
        <time>2026-08-04T07:47:14.278Z</time>
      </trkpt>
      <trkpt lat="45.95627" lon="6.85401">
        <ele>2407</ele>
        <time>2026-08-04T07:47:15.278Z</time>
      </trkpt>
      <trkpt lat="45.95628" lon="6.85401">
        <ele>2407</ele>
        <time>2026-08-04T07:47:16.278Z</time>
      </trkpt>
      <trkpt lat="45.95629" lon="6.85401">
        <ele>2407</ele>
        <time>2026-08-04T07:47:17.278Z</time>
      </trkpt>
      <trkpt lat="45.95629" lon="6.85402">
        <ele>2407</ele>
        <time>2026-08-04T07:47:18.278Z</time>
      </trkpt>
      <trkpt lat="45.9563" lon="6.85402">
        <ele>2407</ele>
        <time>2026-08-04T07:47:19.278Z</time>
      </trkpt>
      <trkpt lat="45.9563" lon="6.85402">
        <ele>2406</ele>
        <time>2026-08-04T07:47:20.278Z</time>
      </trkpt>
      <trkpt lat="45.95631" lon="6.85403">
        <ele>2406</ele>
        <time>2026-08-04T07:47:21.278Z</time>
      </trkpt>
      <trkpt lat="45.95631" lon="6.85403">
        <ele>2406</ele>
        <time>2026-08-04T07:47:22.278Z</time>
      </trkpt>
      <trkpt lat="45.95632" lon="6.85404">
        <ele>2406</ele>
        <time>2026-08-04T07:47:23.278Z</time>
      </trkpt>
      <trkpt lat="45.95632" lon="6.85404">
        <ele>2406</ele>
        <time>2026-08-04T07:47:24.278Z</time>
      </trkpt>
      <trkpt lat="45.95633" lon="6.85406">
        <ele>2406</ele>
        <time>2026-08-04T07:47:25.278Z</time>
      </trkpt>
      <trkpt lat="45.95633" lon="6.85407">
        <ele>2406</ele>
        <time>2026-08-04T07:47:26.278Z</time>
      </trkpt>
      <trkpt lat="45.95633" lon="6.85407">
        <ele>2406</ele>
        <time>2026-08-04T07:47:27.278Z</time>
      </trkpt>
      <trkpt lat="45.95635" lon="6.85407">
        <ele>2406</ele>
        <time>2026-08-04T07:47:28.278Z</time>
      </trkpt>
      <trkpt lat="45.95635" lon="6.85407">
        <ele>2406</ele>
        <time>2026-08-04T07:47:29.278Z</time>
      </trkpt>
      <trkpt lat="45.95637" lon="6.85408">
        <ele>2406</ele>
        <time>2026-08-04T07:47:30.278Z</time>
      </trkpt>
      <trkpt lat="45.95637" lon="6.85408">
        <ele>2406</ele>
        <time>2026-08-04T07:47:31.278Z</time>
      </trkpt>
      <trkpt lat="45.95638" lon="6.85407">
        <ele>2406</ele>
        <time>2026-08-04T07:47:32.278Z</time>
      </trkpt>
      <trkpt lat="45.95638" lon="6.85407">
        <ele>2406</ele>
        <time>2026-08-04T07:47:33.278Z</time>
      </trkpt>
      <trkpt lat="45.95639" lon="6.85405">
        <ele>2405</ele>
        <time>2026-08-04T07:47:34.278Z</time>
      </trkpt>
      <trkpt lat="45.95639" lon="6.85404">
        <ele>2405</ele>
        <time>2026-08-04T07:47:35.278Z</time>
      </trkpt>
      <trkpt lat="45.95639" lon="6.85404">
        <ele>2405</ele>
        <time>2026-08-04T07:47:36.278Z</time>
      </trkpt>
      <trkpt lat="45.9564" lon="6.85403">
        <ele>2405</ele>
        <time>2026-08-04T07:47:37.278Z</time>
      </trkpt>
      <trkpt lat="45.95641" lon="6.85401">
        <ele>2405</ele>
        <time>2026-08-04T07:47:38.278Z</time>
      </trkpt>
      <trkpt lat="45.95641" lon="6.85401">
        <ele>2405</ele>
        <time>2026-08-04T07:47:39.278Z</time>
      </trkpt>
      <trkpt lat="45.95642" lon="6.854">
        <ele>2405</ele>
        <time>2026-08-04T07:47:40.278Z</time>
      </trkpt>
      <trkpt lat="45.95643" lon="6.854">
        <ele>2404</ele>
        <time>2026-08-04T07:47:41.278Z</time>
      </trkpt>
      <trkpt lat="45.95644" lon="6.85399">
        <ele>2404</ele>
        <time>2026-08-04T07:47:42.278Z</time>
      </trkpt>
      <trkpt lat="45.95645" lon="6.85399">
        <ele>2404</ele>
        <time>2026-08-04T07:47:43.278Z</time>
      </trkpt>
      <trkpt lat="45.95646" lon="6.85399">
        <ele>2403</ele>
        <time>2026-08-04T07:47:44.278Z</time>
      </trkpt>
      <trkpt lat="45.95648" lon="6.85399">
        <ele>2403</ele>
        <time>2026-08-04T07:47:45.278Z</time>
      </trkpt>
      <trkpt lat="45.95649" lon="6.85399">
        <ele>2403</ele>
        <time>2026-08-04T07:47:46.278Z</time>
      </trkpt>
      <trkpt lat="45.9565" lon="6.85399">
        <ele>2403</ele>
        <time>2026-08-04T07:47:47.278Z</time>
      </trkpt>
      <trkpt lat="45.95651" lon="6.85399">
        <ele>2403</ele>
        <time>2026-08-04T07:47:48.278Z</time>
      </trkpt>
      <trkpt lat="45.95652" lon="6.85399">
        <ele>2403</ele>
        <time>2026-08-04T07:47:49.278Z</time>
      </trkpt>
      <trkpt lat="45.95652" lon="6.85398">
        <ele>2403</ele>
        <time>2026-08-04T07:47:50.278Z</time>
      </trkpt>
      <trkpt lat="45.95652" lon="6.85398">
        <ele>2403</ele>
        <time>2026-08-04T07:47:51.278Z</time>
      </trkpt>
      <trkpt lat="45.95654" lon="6.85397">
        <ele>2403</ele>
        <time>2026-08-04T07:47:52.278Z</time>
      </trkpt>
      <trkpt lat="45.95655" lon="6.85397">
        <ele>2403</ele>
        <time>2026-08-04T07:47:53.278Z</time>
      </trkpt>
      <trkpt lat="45.95655" lon="6.85397">
        <ele>2403</ele>
        <time>2026-08-04T07:47:54.278Z</time>
      </trkpt>
      <trkpt lat="45.95656" lon="6.85398">
        <ele>2403</ele>
        <time>2026-08-04T07:47:55.278Z</time>
      </trkpt>
      <trkpt lat="45.95656" lon="6.85398">
        <ele>2402</ele>
        <time>2026-08-04T07:47:56.278Z</time>
      </trkpt>
      <trkpt lat="45.95658" lon="6.85398">
        <ele>2402</ele>
        <time>2026-08-04T07:47:57.278Z</time>
      </trkpt>
      <trkpt lat="45.95658" lon="6.85398">
        <ele>2402</ele>
        <time>2026-08-04T07:47:58.278Z</time>
      </trkpt>
      <trkpt lat="45.95659" lon="6.85399">
        <ele>2402</ele>
        <time>2026-08-04T07:47:59.278Z</time>
      </trkpt>
      <trkpt lat="45.95659" lon="6.85399">
        <ele>2402</ele>
        <time>2026-08-04T07:48:00.278Z</time>
      </trkpt>
      <trkpt lat="45.9566" lon="6.85401">
        <ele>2402</ele>
        <time>2026-08-04T07:48:01.278Z</time>
      </trkpt>
      <trkpt lat="45.95661" lon="6.85401">
        <ele>2402</ele>
        <time>2026-08-04T07:48:02.278Z</time>
      </trkpt>
      <trkpt lat="45.95663" lon="6.85402">
        <ele>2402</ele>
        <time>2026-08-04T07:48:03.278Z</time>
      </trkpt>
      <trkpt lat="45.95663" lon="6.85403">
        <ele>2402</ele>
        <time>2026-08-04T07:48:04.278Z</time>
      </trkpt>
      <trkpt lat="45.95664" lon="6.85402">
        <ele>2402</ele>
        <time>2026-08-04T07:48:05.278Z</time>
      </trkpt>
      <trkpt lat="45.95665" lon="6.85402">
        <ele>2402</ele>
        <time>2026-08-04T07:48:06.278Z</time>
      </trkpt>
      <trkpt lat="45.95665" lon="6.85402">
        <ele>2402</ele>
        <time>2026-08-04T07:48:07.278Z</time>
      </trkpt>
      <trkpt lat="45.95665" lon="6.85402">
        <ele>2402</ele>
        <time>2026-08-04T07:48:08.278Z</time>
      </trkpt>
      <trkpt lat="45.95665" lon="6.85402">
        <ele>2402</ele>
        <time>2026-08-04T07:48:09.278Z</time>
      </trkpt>
      <trkpt lat="45.95665" lon="6.85399">
        <ele>2402</ele>
        <time>2026-08-04T07:48:10.278Z</time>
      </trkpt>
      <trkpt lat="45.95665" lon="6.85398">
        <ele>2401</ele>
        <time>2026-08-04T07:48:11.278Z</time>
      </trkpt>
      <trkpt lat="45.95665" lon="6.85396">
        <ele>2401</ele>
        <time>2026-08-04T07:48:12.278Z</time>
      </trkpt>
      <trkpt lat="45.95665" lon="6.85396">
        <ele>2401</ele>
        <time>2026-08-04T07:48:13.278Z</time>
      </trkpt>
      <trkpt lat="45.95666" lon="6.85395">
        <ele>2401</ele>
        <time>2026-08-04T07:48:14.278Z</time>
      </trkpt>
      <trkpt lat="45.95667" lon="6.85392">
        <ele>2401</ele>
        <time>2026-08-04T07:48:15.278Z</time>
      </trkpt>
      <trkpt lat="45.95668" lon="6.85391">
        <ele>2401</ele>
        <time>2026-08-04T07:48:16.278Z</time>
      </trkpt>
      <trkpt lat="45.95668" lon="6.85391">
        <ele>2401</ele>
        <time>2026-08-04T07:48:17.278Z</time>
      </trkpt>
      <trkpt lat="45.9567" lon="6.85392">
        <ele>2401</ele>
        <time>2026-08-04T07:48:18.278Z</time>
      </trkpt>
      <trkpt lat="45.95671" lon="6.85393">
        <ele>2401</ele>
        <time>2026-08-04T07:48:19.278Z</time>
      </trkpt>
      <trkpt lat="45.95672" lon="6.85393">
        <ele>2401</ele>
        <time>2026-08-04T07:48:20.278Z</time>
      </trkpt>
      <trkpt lat="45.95672" lon="6.85394">
        <ele>2401</ele>
        <time>2026-08-04T07:48:21.278Z</time>
      </trkpt>
      <trkpt lat="45.95673" lon="6.85394">
        <ele>2401</ele>
        <time>2026-08-04T07:48:22.278Z</time>
      </trkpt>
      <trkpt lat="45.95673" lon="6.85394">
        <ele>2401</ele>
        <time>2026-08-04T07:48:23.278Z</time>
      </trkpt>
      <trkpt lat="45.95673" lon="6.85396">
        <ele>2400</ele>
        <time>2026-08-04T07:48:24.278Z</time>
      </trkpt>
      <trkpt lat="45.95674" lon="6.85396">
        <ele>2400</ele>
        <time>2026-08-04T07:48:25.278Z</time>
      </trkpt>
      <trkpt lat="45.95674" lon="6.85397">
        <ele>2400</ele>
        <time>2026-08-04T07:48:26.278Z</time>
      </trkpt>
      <trkpt lat="45.95674" lon="6.85397">
        <ele>2399</ele>
        <time>2026-08-04T07:48:27.278Z</time>
      </trkpt>
      <trkpt lat="45.95674" lon="6.85398">
        <ele>2399</ele>
        <time>2026-08-04T07:48:28.278Z</time>
      </trkpt>
      <trkpt lat="45.95674" lon="6.85398">
        <ele>2399</ele>
        <time>2026-08-04T07:48:29.278Z</time>
      </trkpt>
      <trkpt lat="45.95674" lon="6.85399">
        <ele>2399</ele>
        <time>2026-08-04T07:48:30.278Z</time>
      </trkpt>
      <trkpt lat="45.95674" lon="6.85399">
        <ele>2399</ele>
        <time>2026-08-04T07:48:31.278Z</time>
      </trkpt>
      <trkpt lat="45.95674" lon="6.854">
        <ele>2399</ele>
        <time>2026-08-04T07:48:32.278Z</time>
      </trkpt>
      <trkpt lat="45.95674" lon="6.854">
        <ele>2399</ele>
        <time>2026-08-04T07:48:33.278Z</time>
      </trkpt>
      <trkpt lat="45.95674" lon="6.854">
        <ele>2399</ele>
        <time>2026-08-04T07:48:34.278Z</time>
      </trkpt>
      <trkpt lat="45.95674" lon="6.85401">
        <ele>2399</ele>
        <time>2026-08-04T07:48:35.278Z</time>
      </trkpt>
      <trkpt lat="45.95673" lon="6.85401">
        <ele>2399</ele>
        <time>2026-08-04T07:48:36.278Z</time>
      </trkpt>
      <trkpt lat="45.95673" lon="6.85401">
        <ele>2399</ele>
        <time>2026-08-04T07:48:37.278Z</time>
      </trkpt>
      <trkpt lat="45.95673" lon="6.85401">
        <ele>2399</ele>
        <time>2026-08-04T07:48:38.278Z</time>
      </trkpt>
      <trkpt lat="45.95673" lon="6.85401">
        <ele>2399</ele>
        <time>2026-08-04T07:48:39.278Z</time>
      </trkpt>
      <trkpt lat="45.95673" lon="6.85401">
        <ele>2398</ele>
        <time>2026-08-04T07:48:40.278Z</time>
      </trkpt>
      <trkpt lat="45.95673" lon="6.85401">
        <ele>2398</ele>
        <time>2026-08-04T07:48:41.278Z</time>
      </trkpt>
      <trkpt lat="45.95673" lon="6.85401">
        <ele>2397</ele>
        <time>2026-08-04T07:48:42.278Z</time>
      </trkpt>
      <trkpt lat="45.95673" lon="6.85401">
        <ele>2397</ele>
        <time>2026-08-04T07:48:43.278Z</time>
      </trkpt>
      <trkpt lat="45.95673" lon="6.85401">
        <ele>2396</ele>
        <time>2026-08-04T07:48:44.278Z</time>
      </trkpt>
      <trkpt lat="45.95673" lon="6.85401">
        <ele>2396</ele>
        <time>2026-08-04T07:48:45.278Z</time>
      </trkpt>
      <trkpt lat="45.95673" lon="6.85401">
        <ele>2396</ele>
        <time>2026-08-04T07:48:46.278Z</time>
      </trkpt>
      <trkpt lat="45.95673" lon="6.85401">
        <ele>2396</ele>
        <time>2026-08-04T07:48:47.278Z</time>
      </trkpt>
      <trkpt lat="45.95673" lon="6.85401">
        <ele>2396</ele>
        <time>2026-08-04T07:48:48.278Z</time>
      </trkpt>
      <trkpt lat="45.95673" lon="6.85401">
        <ele>2396</ele>
        <time>2026-08-04T07:48:49.278Z</time>
      </trkpt>
      <trkpt lat="45.95673" lon="6.85401">
        <ele>2395</ele>
        <time>2026-08-04T07:48:50.278Z</time>
      </trkpt>
      <trkpt lat="45.95673" lon="6.85401">
        <ele>2395</ele>
        <time>2026-08-04T07:48:51.278Z</time>
      </trkpt>
      <trkpt lat="45.95673" lon="6.85401">
        <ele>2395</ele>
        <time>2026-08-04T07:48:52.278Z</time>
      </trkpt>
      <trkpt lat="45.95673" lon="6.85401">
        <ele>2395</ele>
        <time>2026-08-04T07:48:53.278Z</time>
      </trkpt>
      <trkpt lat="45.95673" lon="6.85401">
        <ele>2395</ele>
        <time>2026-08-04T07:48:54.278Z</time>
      </trkpt>
      <trkpt lat="45.95673" lon="6.85401">
        <ele>2395</ele>
        <time>2026-08-04T07:48:55.278Z</time>
      </trkpt>
      <trkpt lat="45.95673" lon="6.85401">
        <ele>2395</ele>
        <time>2026-08-04T07:48:56.278Z</time>
      </trkpt>
      <trkpt lat="45.95673" lon="6.85401">
        <ele>2395</ele>
        <time>2026-08-04T07:48:57.278Z</time>
      </trkpt>
      <trkpt lat="45.95673" lon="6.85401">
        <ele>2395</ele>
        <time>2026-08-04T07:48:58.278Z</time>
      </trkpt>
      <trkpt lat="45.95674" lon="6.85401">
        <ele>2395</ele>
        <time>2026-08-04T07:48:59.278Z</time>
      </trkpt>
      <trkpt lat="45.95674" lon="6.85401">
        <ele>2395</ele>
        <time>2026-08-04T07:49:00.278Z</time>
      </trkpt>
      <trkpt lat="45.95674" lon="6.85401">
        <ele>2394</ele>
        <time>2026-08-04T07:49:01.278Z</time>
      </trkpt>
      <trkpt lat="45.95674" lon="6.85401">
        <ele>2394</ele>
        <time>2026-08-04T07:49:02.278Z</time>
      </trkpt>
      <trkpt lat="45.95674" lon="6.85401">
        <ele>2394</ele>
        <time>2026-08-04T07:49:03.278Z</time>
      </trkpt>
      <trkpt lat="45.95674" lon="6.85401">
        <ele>2394</ele>
        <time>2026-08-04T07:49:04.278Z</time>
      </trkpt>
      <trkpt lat="45.95674" lon="6.85401">
        <ele>2394</ele>
        <time>2026-08-04T07:49:05.278Z</time>
      </trkpt>
      <trkpt lat="45.95674" lon="6.85401">
        <ele>2394</ele>
        <time>2026-08-04T07:49:06.278Z</time>
      </trkpt>
      <trkpt lat="45.95675" lon="6.85401">
        <ele>2394</ele>
        <time>2026-08-04T07:49:07.278Z</time>
      </trkpt>
      <trkpt lat="45.95675" lon="6.85401">
        <ele>2394</ele>
        <time>2026-08-04T07:49:08.278Z</time>
      </trkpt>
      <trkpt lat="45.95675" lon="6.85401">
        <ele>2394</ele>
        <time>2026-08-04T07:49:09.278Z</time>
      </trkpt>
      <trkpt lat="45.95675" lon="6.85401">
        <ele>2394</ele>
        <time>2026-08-04T07:49:10.278Z</time>
      </trkpt>
      <trkpt lat="45.95676" lon="6.85401">
        <ele>2394</ele>
        <time>2026-08-04T07:49:11.278Z</time>
      </trkpt>
      <trkpt lat="45.95677" lon="6.85399">
        <ele>2394</ele>
        <time>2026-08-04T07:49:12.278Z</time>
      </trkpt>
      <trkpt lat="45.95677" lon="6.85399">
        <ele>2394</ele>
        <time>2026-08-04T07:49:13.278Z</time>
      </trkpt>
      <trkpt lat="45.95678" lon="6.85398">
        <ele>2394</ele>
        <time>2026-08-04T07:49:14.278Z</time>
      </trkpt>
      <trkpt lat="45.95679" lon="6.85397">
        <ele>2394</ele>
        <time>2026-08-04T07:49:15.278Z</time>
      </trkpt>
      <trkpt lat="45.9568" lon="6.85396">
        <ele>2394</ele>
        <time>2026-08-04T07:49:16.278Z</time>
      </trkpt>
      <trkpt lat="45.95681" lon="6.85395">
        <ele>2393</ele>
        <time>2026-08-04T07:49:17.278Z</time>
      </trkpt>
      <trkpt lat="45.95682" lon="6.85395">
        <ele>2393</ele>
        <time>2026-08-04T07:49:18.278Z</time>
      </trkpt>
      <trkpt lat="45.95685" lon="6.85396">
        <ele>2392</ele>
        <time>2026-08-04T07:49:19.278Z</time>
      </trkpt>
      <trkpt lat="45.95686" lon="6.85396">
        <ele>2391</ele>
        <time>2026-08-04T07:49:20.278Z</time>
      </trkpt>
      <trkpt lat="45.95686" lon="6.85396">
        <ele>2391</ele>
        <time>2026-08-04T07:49:21.278Z</time>
      </trkpt>
      <trkpt lat="45.95686" lon="6.85396">
        <ele>2391</ele>
        <time>2026-08-04T07:49:22.278Z</time>
      </trkpt>
      <trkpt lat="45.95686" lon="6.85396">
        <ele>2390</ele>
        <time>2026-08-04T07:49:23.278Z</time>
      </trkpt>
      <trkpt lat="45.95686" lon="6.85396">
        <ele>2390</ele>
        <time>2026-08-04T07:49:24.278Z</time>
      </trkpt>
      <trkpt lat="45.95686" lon="6.85396">
        <ele>2389</ele>
        <time>2026-08-04T07:49:25.278Z</time>
      </trkpt>
      <trkpt lat="45.95686" lon="6.85396">
        <ele>2389</ele>
        <time>2026-08-04T07:49:26.278Z</time>
      </trkpt>
      <trkpt lat="45.95687" lon="6.85396">
        <ele>2389</ele>
        <time>2026-08-04T07:49:27.278Z</time>
      </trkpt>
      <trkpt lat="45.95687" lon="6.85395">
        <ele>2389</ele>
        <time>2026-08-04T07:49:28.278Z</time>
      </trkpt>
      <trkpt lat="45.95688" lon="6.85395">
        <ele>2389</ele>
        <time>2026-08-04T07:49:29.278Z</time>
      </trkpt>
      <trkpt lat="45.95689" lon="6.85395">
        <ele>2389</ele>
        <time>2026-08-04T07:49:30.278Z</time>
      </trkpt>
      <trkpt lat="45.95689" lon="6.85396">
        <ele>2389</ele>
        <time>2026-08-04T07:49:31.278Z</time>
      </trkpt>
      <trkpt lat="45.95689" lon="6.85396">
        <ele>2388</ele>
        <time>2026-08-04T07:49:32.278Z</time>
      </trkpt>
      <trkpt lat="45.9569" lon="6.85396">
        <ele>2388</ele>
        <time>2026-08-04T07:49:33.278Z</time>
      </trkpt>
      <trkpt lat="45.95691" lon="6.85396">
        <ele>2388</ele>
        <time>2026-08-04T07:49:34.278Z</time>
      </trkpt>
      <trkpt lat="45.95691" lon="6.85396">
        <ele>2388</ele>
        <time>2026-08-04T07:49:35.278Z</time>
      </trkpt>
      <trkpt lat="45.95692" lon="6.85396">
        <ele>2388</ele>
        <time>2026-08-04T07:49:36.278Z</time>
      </trkpt>
      <trkpt lat="45.95692" lon="6.85396">
        <ele>2387</ele>
        <time>2026-08-04T07:49:37.278Z</time>
      </trkpt>
      <trkpt lat="45.95692" lon="6.85396">
        <ele>2387</ele>
        <time>2026-08-04T07:49:38.278Z</time>
      </trkpt>
      <trkpt lat="45.95693" lon="6.85396">
        <ele>2387</ele>
        <time>2026-08-04T07:49:39.278Z</time>
      </trkpt>
      <trkpt lat="45.95693" lon="6.85396">
        <ele>2387</ele>
        <time>2026-08-04T07:49:40.278Z</time>
      </trkpt>
      <trkpt lat="45.95695" lon="6.85395">
        <ele>2387</ele>
        <time>2026-08-04T07:49:41.278Z</time>
      </trkpt>
      <trkpt lat="45.95696" lon="6.85394">
        <ele>2387</ele>
        <time>2026-08-04T07:49:42.278Z</time>
      </trkpt>
      <trkpt lat="45.95696" lon="6.85394">
        <ele>2387</ele>
        <time>2026-08-04T07:49:43.278Z</time>
      </trkpt>
      <trkpt lat="45.95696" lon="6.85394">
        <ele>2387</ele>
        <time>2026-08-04T07:49:44.278Z</time>
      </trkpt>
      <trkpt lat="45.95697" lon="6.85392">
        <ele>2387</ele>
        <time>2026-08-04T07:49:45.278Z</time>
      </trkpt>
      <trkpt lat="45.95698" lon="6.85391">
        <ele>2386</ele>
        <time>2026-08-04T07:49:46.278Z</time>
      </trkpt>
      <trkpt lat="45.95698" lon="6.85391">
        <ele>2386</ele>
        <time>2026-08-04T07:49:47.278Z</time>
      </trkpt>
      <trkpt lat="45.95698" lon="6.8539">
        <ele>2386</ele>
        <time>2026-08-04T07:49:48.278Z</time>
      </trkpt>
      <trkpt lat="45.95699" lon="6.85388">
        <ele>2385</ele>
        <time>2026-08-04T07:49:49.278Z</time>
      </trkpt>
      <trkpt lat="45.957" lon="6.85386">
        <ele>2385</ele>
        <time>2026-08-04T07:49:50.278Z</time>
      </trkpt>
      <trkpt lat="45.95701" lon="6.85386">
        <ele>2384</ele>
        <time>2026-08-04T07:49:51.278Z</time>
      </trkpt>
      <trkpt lat="45.95702" lon="6.85385">
        <ele>2384</ele>
        <time>2026-08-04T07:49:52.278Z</time>
      </trkpt>
      <trkpt lat="45.95703" lon="6.85385">
        <ele>2384</ele>
        <time>2026-08-04T07:49:53.278Z</time>
      </trkpt>
      <trkpt lat="45.95704" lon="6.85385">
        <ele>2384</ele>
        <time>2026-08-04T07:49:54.278Z</time>
      </trkpt>
      <trkpt lat="45.95705" lon="6.85385">
        <ele>2384</ele>
        <time>2026-08-04T07:49:55.278Z</time>
      </trkpt>
      <trkpt lat="45.95706" lon="6.85385">
        <ele>2383</ele>
        <time>2026-08-04T07:49:56.278Z</time>
      </trkpt>
      <trkpt lat="45.95707" lon="6.85385">
        <ele>2383</ele>
        <time>2026-08-04T07:49:57.278Z</time>
      </trkpt>
      <trkpt lat="45.95708" lon="6.85386">
        <ele>2383</ele>
        <time>2026-08-04T07:49:58.278Z</time>
      </trkpt>
      <trkpt lat="45.95708" lon="6.85386">
        <ele>2383</ele>
        <time>2026-08-04T07:49:59.278Z</time>
      </trkpt>
      <trkpt lat="45.9571" lon="6.85386">
        <ele>2382</ele>
        <time>2026-08-04T07:50:00.278Z</time>
      </trkpt>
      <trkpt lat="45.9571" lon="6.85386">
        <ele>2382</ele>
        <time>2026-08-04T07:50:01.278Z</time>
      </trkpt>
      <trkpt lat="45.9571" lon="6.85385">
        <ele>2381</ele>
        <time>2026-08-04T07:50:02.278Z</time>
      </trkpt>
      <trkpt lat="45.95711" lon="6.85384">
        <ele>2381</ele>
        <time>2026-08-04T07:50:03.278Z</time>
      </trkpt>
      <trkpt lat="45.95712" lon="6.85384">
        <ele>2380</ele>
        <time>2026-08-04T07:50:04.278Z</time>
      </trkpt>
      <trkpt lat="45.95712" lon="6.85384">
        <ele>2380</ele>
        <time>2026-08-04T07:50:05.278Z</time>
      </trkpt>
      <trkpt lat="45.95713" lon="6.85384">
        <ele>2380</ele>
        <time>2026-08-04T07:50:06.278Z</time>
      </trkpt>
      <trkpt lat="45.95713" lon="6.85383">
        <ele>2379</ele>
        <time>2026-08-04T07:50:07.278Z</time>
      </trkpt>
      <trkpt lat="45.95713" lon="6.85383">
        <ele>2379</ele>
        <time>2026-08-04T07:50:08.278Z</time>
      </trkpt>
      <trkpt lat="45.95714" lon="6.85383">
        <ele>2378</ele>
        <time>2026-08-04T07:50:09.278Z</time>
      </trkpt>
      <trkpt lat="45.95714" lon="6.85382">
        <ele>2378</ele>
        <time>2026-08-04T07:50:10.278Z</time>
      </trkpt>
      <trkpt lat="45.95714" lon="6.85382">
        <ele>2376</ele>
        <time>2026-08-04T07:50:11.278Z</time>
      </trkpt>
      <trkpt lat="45.95714" lon="6.85382">
        <ele>2376</ele>
        <time>2026-08-04T07:50:12.278Z</time>
      </trkpt>
      <trkpt lat="45.95715" lon="6.85381">
        <ele>2375</ele>
        <time>2026-08-04T07:50:13.278Z</time>
      </trkpt>
      <trkpt lat="45.95716" lon="6.85381">
        <ele>2375</ele>
        <time>2026-08-04T07:50:14.278Z</time>
      </trkpt>
      <trkpt lat="45.95716" lon="6.85381">
        <ele>2375</ele>
        <time>2026-08-04T07:50:15.278Z</time>
      </trkpt>
      <trkpt lat="45.95717" lon="6.85381">
        <ele>2375</ele>
        <time>2026-08-04T07:50:16.278Z</time>
      </trkpt>
      <trkpt lat="45.95717" lon="6.85381">
        <ele>2375</ele>
        <time>2026-08-04T07:50:17.278Z</time>
      </trkpt>
      <trkpt lat="45.95718" lon="6.85379">
        <ele>2375</ele>
        <time>2026-08-04T07:50:18.278Z</time>
      </trkpt>
      <trkpt lat="45.95718" lon="6.85378">
        <ele>2374</ele>
        <time>2026-08-04T07:50:19.278Z</time>
      </trkpt>
      <trkpt lat="45.95718" lon="6.85376">
        <ele>2374</ele>
        <time>2026-08-04T07:50:20.278Z</time>
      </trkpt>
      <trkpt lat="45.95718" lon="6.85376">
        <ele>2374</ele>
        <time>2026-08-04T07:50:21.278Z</time>
      </trkpt>
      <trkpt lat="45.95718" lon="6.85373">
        <ele>2374</ele>
        <time>2026-08-04T07:50:22.278Z</time>
      </trkpt>
      <trkpt lat="45.95718" lon="6.85372">
        <ele>2374</ele>
        <time>2026-08-04T07:50:23.278Z</time>
      </trkpt>
      <trkpt lat="45.95718" lon="6.85371">
        <ele>2374</ele>
        <time>2026-08-04T07:50:24.278Z</time>
      </trkpt>
      <trkpt lat="45.95718" lon="6.85371">
        <ele>2374</ele>
        <time>2026-08-04T07:50:25.278Z</time>
      </trkpt>
      <trkpt lat="45.95719" lon="6.8537">
        <ele>2374</ele>
        <time>2026-08-04T07:50:26.278Z</time>
      </trkpt>
      <trkpt lat="45.9572" lon="6.8537">
        <ele>2373</ele>
        <time>2026-08-04T07:50:27.278Z</time>
      </trkpt>
      <trkpt lat="45.95721" lon="6.8537">
        <ele>2373</ele>
        <time>2026-08-04T07:50:28.278Z</time>
      </trkpt>
      <trkpt lat="45.95721" lon="6.8537">
        <ele>2373</ele>
        <time>2026-08-04T07:50:29.278Z</time>
      </trkpt>
      <trkpt lat="45.95723" lon="6.85371">
        <ele>2373</ele>
        <time>2026-08-04T07:50:30.278Z</time>
      </trkpt>
      <trkpt lat="45.95724" lon="6.85371">
        <ele>2372</ele>
        <time>2026-08-04T07:50:31.278Z</time>
      </trkpt>
      <trkpt lat="45.95724" lon="6.85371">
        <ele>2372</ele>
        <time>2026-08-04T07:50:32.278Z</time>
      </trkpt>
      <trkpt lat="45.95725" lon="6.85369">
        <ele>2371</ele>
        <time>2026-08-04T07:50:33.278Z</time>
      </trkpt>
      <trkpt lat="45.95725" lon="6.85368">
        <ele>2371</ele>
        <time>2026-08-04T07:50:34.278Z</time>
      </trkpt>
      <trkpt lat="45.95725" lon="6.85368">
        <ele>2371</ele>
        <time>2026-08-04T07:50:35.278Z</time>
      </trkpt>
      <trkpt lat="45.95726" lon="6.85366">
        <ele>2371</ele>
        <time>2026-08-04T07:50:36.278Z</time>
      </trkpt>
      <trkpt lat="45.95726" lon="6.85366">
        <ele>2371</ele>
        <time>2026-08-04T07:50:37.278Z</time>
      </trkpt>
      <trkpt lat="45.95726" lon="6.85365">
        <ele>2370</ele>
        <time>2026-08-04T07:50:38.278Z</time>
      </trkpt>
      <trkpt lat="45.95727" lon="6.85363">
        <ele>2371</ele>
        <time>2026-08-04T07:50:39.278Z</time>
      </trkpt>
      <trkpt lat="45.95727" lon="6.85362">
        <ele>2371</ele>
        <time>2026-08-04T07:50:40.278Z</time>
      </trkpt>
      <trkpt lat="45.95727" lon="6.85362">
        <ele>2371</ele>
        <time>2026-08-04T07:50:41.278Z</time>
      </trkpt>
      <trkpt lat="45.95726" lon="6.85359">
        <ele>2371</ele>
        <time>2026-08-04T07:50:42.278Z</time>
      </trkpt>
      <trkpt lat="45.95725" lon="6.85358">
        <ele>2370</ele>
        <time>2026-08-04T07:50:43.278Z</time>
      </trkpt>
      <trkpt lat="45.95725" lon="6.85358">
        <ele>2370</ele>
        <time>2026-08-04T07:50:44.278Z</time>
      </trkpt>
      <trkpt lat="45.95723" lon="6.85354">
        <ele>2370</ele>
        <time>2026-08-04T07:50:45.278Z</time>
      </trkpt>
      <trkpt lat="45.95723" lon="6.85354">
        <ele>2370</ele>
        <time>2026-08-04T07:50:46.278Z</time>
      </trkpt>
      <trkpt lat="45.95723" lon="6.85351">
        <ele>2369</ele>
        <time>2026-08-04T07:50:47.278Z</time>
      </trkpt>
      <trkpt lat="45.95722" lon="6.8535">
        <ele>2369</ele>
        <time>2026-08-04T07:50:48.278Z</time>
      </trkpt>
      <trkpt lat="45.95722" lon="6.85348">
        <ele>2368</ele>
        <time>2026-08-04T07:50:49.278Z</time>
      </trkpt>
      <trkpt lat="45.95721" lon="6.85345">
        <ele>2368</ele>
        <time>2026-08-04T07:50:50.278Z</time>
      </trkpt>
      <trkpt lat="45.95721" lon="6.85344">
        <ele>2368</ele>
        <time>2026-08-04T07:50:51.278Z</time>
      </trkpt>
      <trkpt lat="45.95721" lon="6.85344">
        <ele>2368</ele>
        <time>2026-08-04T07:50:52.278Z</time>
      </trkpt>
      <trkpt lat="45.95721" lon="6.85341">
        <ele>2367</ele>
        <time>2026-08-04T07:50:53.278Z</time>
      </trkpt>
      <trkpt lat="45.95721" lon="6.8534">
        <ele>2367</ele>
        <time>2026-08-04T07:50:54.278Z</time>
      </trkpt>
      <trkpt lat="45.95721" lon="6.8534">
        <ele>2367</ele>
        <time>2026-08-04T07:50:55.278Z</time>
      </trkpt>
      <trkpt lat="45.95721" lon="6.85339">
        <ele>2367</ele>
        <time>2026-08-04T07:50:56.278Z</time>
      </trkpt>
      <trkpt lat="45.95721" lon="6.85339">
        <ele>2367</ele>
        <time>2026-08-04T07:50:57.278Z</time>
      </trkpt>
      <trkpt lat="45.9572" lon="6.85337">
        <ele>2366</ele>
        <time>2026-08-04T07:50:58.278Z</time>
      </trkpt>
      <trkpt lat="45.9572" lon="6.85337">
        <ele>2366</ele>
        <time>2026-08-04T07:50:59.278Z</time>
      </trkpt>
      <trkpt lat="45.9572" lon="6.85337">
        <ele>2366</ele>
        <time>2026-08-04T07:51:00.278Z</time>
      </trkpt>
      <trkpt lat="45.95721" lon="6.85335">
        <ele>2366</ele>
        <time>2026-08-04T07:51:01.278Z</time>
      </trkpt>
      <trkpt lat="45.95722" lon="6.85334">
        <ele>2365</ele>
        <time>2026-08-04T07:51:02.278Z</time>
      </trkpt>
      <trkpt lat="45.95722" lon="6.85334">
        <ele>2365</ele>
        <time>2026-08-04T07:51:03.278Z</time>
      </trkpt>
      <trkpt lat="45.95723" lon="6.85334">
        <ele>2365</ele>
        <time>2026-08-04T07:51:04.278Z</time>
      </trkpt>
      <trkpt lat="45.95723" lon="6.85333">
        <ele>2364</ele>
        <time>2026-08-04T07:51:05.278Z</time>
      </trkpt>
      <trkpt lat="45.95724" lon="6.85333">
        <ele>2364</ele>
        <time>2026-08-04T07:51:06.278Z</time>
      </trkpt>
      <trkpt lat="45.95725" lon="6.85333">
        <ele>2363</ele>
        <time>2026-08-04T07:51:07.278Z</time>
      </trkpt>
      <trkpt lat="45.95725" lon="6.85333">
        <ele>2363</ele>
        <time>2026-08-04T07:51:08.278Z</time>
      </trkpt>
      <trkpt lat="45.95725" lon="6.85333">
        <ele>2363</ele>
        <time>2026-08-04T07:51:09.278Z</time>
      </trkpt>
      <trkpt lat="45.95726" lon="6.85332">
        <ele>2363</ele>
        <time>2026-08-04T07:51:10.278Z</time>
      </trkpt>
      <trkpt lat="45.95726" lon="6.85331">
        <ele>2363</ele>
        <time>2026-08-04T07:51:11.278Z</time>
      </trkpt>
      <trkpt lat="45.95726" lon="6.85331">
        <ele>2363</ele>
        <time>2026-08-04T07:51:12.278Z</time>
      </trkpt>
      <trkpt lat="45.95726" lon="6.8533">
        <ele>2363</ele>
        <time>2026-08-04T07:51:13.278Z</time>
      </trkpt>
      <trkpt lat="45.95726" lon="6.8533">
        <ele>2363</ele>
        <time>2026-08-04T07:51:14.278Z</time>
      </trkpt>
      <trkpt lat="45.95726" lon="6.85329">
        <ele>2363</ele>
        <time>2026-08-04T07:51:15.278Z</time>
      </trkpt>
      <trkpt lat="45.95727" lon="6.85328">
        <ele>2363</ele>
        <time>2026-08-04T07:51:16.278Z</time>
      </trkpt>
      <trkpt lat="45.95727" lon="6.85328">
        <ele>2363</ele>
        <time>2026-08-04T07:51:17.278Z</time>
      </trkpt>
      <trkpt lat="45.95728" lon="6.85328">
        <ele>2363</ele>
        <time>2026-08-04T07:51:18.278Z</time>
      </trkpt>
      <trkpt lat="45.95729" lon="6.85328">
        <ele>2363</ele>
        <time>2026-08-04T07:51:19.278Z</time>
      </trkpt>
      <trkpt lat="45.95729" lon="6.85328">
        <ele>2363</ele>
        <time>2026-08-04T07:51:20.278Z</time>
      </trkpt>
      <trkpt lat="45.9573" lon="6.85327">
        <ele>2362</ele>
        <time>2026-08-04T07:51:21.278Z</time>
      </trkpt>
      <trkpt lat="45.95731" lon="6.85326">
        <ele>2362</ele>
        <time>2026-08-04T07:51:22.278Z</time>
      </trkpt>
      <trkpt lat="45.95731" lon="6.85324">
        <ele>2362</ele>
        <time>2026-08-04T07:51:23.278Z</time>
      </trkpt>
      <trkpt lat="45.95731" lon="6.85322">
        <ele>2361</ele>
        <time>2026-08-04T07:51:24.278Z</time>
      </trkpt>
      <trkpt lat="45.95731" lon="6.85321">
        <ele>2360</ele>
        <time>2026-08-04T07:51:25.278Z</time>
      </trkpt>
      <trkpt lat="45.95731" lon="6.85321">
        <ele>2360</ele>
        <time>2026-08-04T07:51:26.278Z</time>
      </trkpt>
      <trkpt lat="45.9573" lon="6.8532">
        <ele>2358</ele>
        <time>2026-08-04T07:51:27.278Z</time>
      </trkpt>
      <trkpt lat="45.95729" lon="6.85319">
        <ele>2358</ele>
        <time>2026-08-04T07:51:28.278Z</time>
      </trkpt>
      <trkpt lat="45.95728" lon="6.85317">
        <ele>2358</ele>
        <time>2026-08-04T07:51:29.278Z</time>
      </trkpt>
      <trkpt lat="45.95728" lon="6.85317">
        <ele>2358</ele>
        <time>2026-08-04T07:51:30.278Z</time>
      </trkpt>
      <trkpt lat="45.95728" lon="6.85317">
        <ele>2358</ele>
        <time>2026-08-04T07:51:31.278Z</time>
      </trkpt>
      <trkpt lat="45.95728" lon="6.85316">
        <ele>2358</ele>
        <time>2026-08-04T07:51:32.278Z</time>
      </trkpt>
      <trkpt lat="45.95728" lon="6.85314">
        <ele>2357</ele>
        <time>2026-08-04T07:51:33.278Z</time>
      </trkpt>
      <trkpt lat="45.95728" lon="6.85314">
        <ele>2357</ele>
        <time>2026-08-04T07:51:34.278Z</time>
      </trkpt>
      <trkpt lat="45.95728" lon="6.85313">
        <ele>2357</ele>
        <time>2026-08-04T07:51:35.278Z</time>
      </trkpt>
      <trkpt lat="45.95728" lon="6.85313">
        <ele>2356</ele>
        <time>2026-08-04T07:51:36.278Z</time>
      </trkpt>
      <trkpt lat="45.95728" lon="6.85311">
        <ele>2356</ele>
        <time>2026-08-04T07:51:37.278Z</time>
      </trkpt>
      <trkpt lat="45.95728" lon="6.85311">
        <ele>2356</ele>
        <time>2026-08-04T07:51:38.278Z</time>
      </trkpt>
      <trkpt lat="45.95729" lon="6.85311">
        <ele>2356</ele>
        <time>2026-08-04T07:51:39.278Z</time>
      </trkpt>
      <trkpt lat="45.95731" lon="6.85309">
        <ele>2355</ele>
        <time>2026-08-04T07:51:40.278Z</time>
      </trkpt>
      <trkpt lat="45.95731" lon="6.85309">
        <ele>2355</ele>
        <time>2026-08-04T07:51:41.278Z</time>
      </trkpt>
      <trkpt lat="45.95732" lon="6.85308">
        <ele>2355</ele>
        <time>2026-08-04T07:51:42.278Z</time>
      </trkpt>
      <trkpt lat="45.95733" lon="6.85308">
        <ele>2355</ele>
        <time>2026-08-04T07:51:43.278Z</time>
      </trkpt>
      <trkpt lat="45.95734" lon="6.85308">
        <ele>2354</ele>
        <time>2026-08-04T07:51:44.278Z</time>
      </trkpt>
      <trkpt lat="45.95735" lon="6.85307">
        <ele>2354</ele>
        <time>2026-08-04T07:51:45.278Z</time>
      </trkpt>
      <trkpt lat="45.95736" lon="6.85307">
        <ele>2353</ele>
        <time>2026-08-04T07:51:46.278Z</time>
      </trkpt>
      <trkpt lat="45.95737" lon="6.85305">
        <ele>2353</ele>
        <time>2026-08-04T07:51:47.278Z</time>
      </trkpt>
      <trkpt lat="45.95738" lon="6.85304">
        <ele>2352</ele>
        <time>2026-08-04T07:51:48.278Z</time>
      </trkpt>
      <trkpt lat="45.95739" lon="6.85304">
        <ele>2352</ele>
        <time>2026-08-04T07:51:49.278Z</time>
      </trkpt>
      <trkpt lat="45.95741" lon="6.85303">
        <ele>2351</ele>
        <time>2026-08-04T07:51:50.278Z</time>
      </trkpt>
      <trkpt lat="45.95742" lon="6.85303">
        <ele>2351</ele>
        <time>2026-08-04T07:51:51.278Z</time>
      </trkpt>
      <trkpt lat="45.95743" lon="6.85303">
        <ele>2351</ele>
        <time>2026-08-04T07:51:52.278Z</time>
      </trkpt>
      <trkpt lat="45.95744" lon="6.85302">
        <ele>2351</ele>
        <time>2026-08-04T07:51:53.278Z</time>
      </trkpt>
      <trkpt lat="45.95745" lon="6.85301">
        <ele>2352</ele>
        <time>2026-08-04T07:51:54.278Z</time>
      </trkpt>
      <trkpt lat="45.95745" lon="6.85301">
        <ele>2352</ele>
        <time>2026-08-04T07:51:55.278Z</time>
      </trkpt>
      <trkpt lat="45.95746" lon="6.85301">
        <ele>2352</ele>
        <time>2026-08-04T07:51:56.278Z</time>
      </trkpt>
      <trkpt lat="45.95747" lon="6.853">
        <ele>2352</ele>
        <time>2026-08-04T07:51:57.278Z</time>
      </trkpt>
      <trkpt lat="45.95748" lon="6.85301">
        <ele>2352</ele>
        <time>2026-08-04T07:51:58.278Z</time>
      </trkpt>
      <trkpt lat="45.95749" lon="6.85301">
        <ele>2352</ele>
        <time>2026-08-04T07:51:59.278Z</time>
      </trkpt>
      <trkpt lat="45.95749" lon="6.85302">
        <ele>2352</ele>
        <time>2026-08-04T07:52:00.278Z</time>
      </trkpt>
      <trkpt lat="45.9575" lon="6.85303">
        <ele>2351</ele>
        <time>2026-08-04T07:52:01.278Z</time>
      </trkpt>
      <trkpt lat="45.9575" lon="6.85303">
        <ele>2351</ele>
        <time>2026-08-04T07:52:02.278Z</time>
      </trkpt>
      <trkpt lat="45.9575" lon="6.85303">
        <ele>2351</ele>
        <time>2026-08-04T07:52:03.278Z</time>
      </trkpt>
      <trkpt lat="45.9575" lon="6.85302">
        <ele>2350</ele>
        <time>2026-08-04T07:52:04.278Z</time>
      </trkpt>
      <trkpt lat="45.9575" lon="6.85302">
        <ele>2350</ele>
        <time>2026-08-04T07:52:05.278Z</time>
      </trkpt>
      <trkpt lat="45.95751" lon="6.85302">
        <ele>2350</ele>
        <time>2026-08-04T07:52:06.278Z</time>
      </trkpt>
      <trkpt lat="45.95751" lon="6.85302">
        <ele>2349</ele>
        <time>2026-08-04T07:52:07.278Z</time>
      </trkpt>
      <trkpt lat="45.95751" lon="6.85301">
        <ele>2349</ele>
        <time>2026-08-04T07:52:08.278Z</time>
      </trkpt>
      <trkpt lat="45.95751" lon="6.85301">
        <ele>2349</ele>
        <time>2026-08-04T07:52:09.278Z</time>
      </trkpt>
      <trkpt lat="45.95751" lon="6.853">
        <ele>2349</ele>
        <time>2026-08-04T07:52:10.278Z</time>
      </trkpt>
      <trkpt lat="45.95751" lon="6.85299">
        <ele>2349</ele>
        <time>2026-08-04T07:52:11.278Z</time>
      </trkpt>
      <trkpt lat="45.95751" lon="6.85298">
        <ele>2349</ele>
        <time>2026-08-04T07:52:12.278Z</time>
      </trkpt>
      <trkpt lat="45.95751" lon="6.85297">
        <ele>2348</ele>
        <time>2026-08-04T07:52:13.278Z</time>
      </trkpt>
      <trkpt lat="45.95751" lon="6.85297">
        <ele>2348</ele>
        <time>2026-08-04T07:52:14.278Z</time>
      </trkpt>
      <trkpt lat="45.95752" lon="6.85297">
        <ele>2348</ele>
        <time>2026-08-04T07:52:15.278Z</time>
      </trkpt>
      <trkpt lat="45.95752" lon="6.85297">
        <ele>2347</ele>
        <time>2026-08-04T07:52:16.278Z</time>
      </trkpt>
      <trkpt lat="45.95752" lon="6.85297">
        <ele>2347</ele>
        <time>2026-08-04T07:52:17.278Z</time>
      </trkpt>
      <trkpt lat="45.95753" lon="6.85297">
        <ele>2346</ele>
        <time>2026-08-04T07:52:18.278Z</time>
      </trkpt>
      <trkpt lat="45.95754" lon="6.85296">
        <ele>2346</ele>
        <time>2026-08-04T07:52:19.278Z</time>
      </trkpt>
      <trkpt lat="45.95755" lon="6.85295">
        <ele>2346</ele>
        <time>2026-08-04T07:52:20.278Z</time>
      </trkpt>
      <trkpt lat="45.95756" lon="6.85295">
        <ele>2345</ele>
        <time>2026-08-04T07:52:21.278Z</time>
      </trkpt>
      <trkpt lat="45.95757" lon="6.85294">
        <ele>2345</ele>
        <time>2026-08-04T07:52:22.278Z</time>
      </trkpt>
      <trkpt lat="45.95757" lon="6.85294">
        <ele>2345</ele>
        <time>2026-08-04T07:52:23.278Z</time>
      </trkpt>
      <trkpt lat="45.95758" lon="6.85293">
        <ele>2344</ele>
        <time>2026-08-04T07:52:24.278Z</time>
      </trkpt>
      <trkpt lat="45.95759" lon="6.85293">
        <ele>2344</ele>
        <time>2026-08-04T07:52:25.278Z</time>
      </trkpt>
      <trkpt lat="45.9576" lon="6.85292">
        <ele>2344</ele>
        <time>2026-08-04T07:52:26.278Z</time>
      </trkpt>
      <trkpt lat="45.95761" lon="6.85291">
        <ele>2344</ele>
        <time>2026-08-04T07:52:27.278Z</time>
      </trkpt>
      <trkpt lat="45.95762" lon="6.8529">
        <ele>2344</ele>
        <time>2026-08-04T07:52:28.278Z</time>
      </trkpt>
      <trkpt lat="45.95762" lon="6.85288">
        <ele>2344</ele>
        <time>2026-08-04T07:52:29.278Z</time>
      </trkpt>
      <trkpt lat="45.95763" lon="6.85287">
        <ele>2344</ele>
        <time>2026-08-04T07:52:30.278Z</time>
      </trkpt>
      <trkpt lat="45.95763" lon="6.85287">
        <ele>2343</ele>
        <time>2026-08-04T07:52:31.278Z</time>
      </trkpt>
      <trkpt lat="45.95764" lon="6.85287">
        <ele>2343</ele>
        <time>2026-08-04T07:52:32.278Z</time>
      </trkpt>
      <trkpt lat="45.95766" lon="6.85287">
        <ele>2342</ele>
        <time>2026-08-04T07:52:33.278Z</time>
      </trkpt>
      <trkpt lat="45.95769" lon="6.85289">
        <ele>2341</ele>
        <time>2026-08-04T07:52:34.278Z</time>
      </trkpt>
      <trkpt lat="45.95769" lon="6.85289">
        <ele>2341</ele>
        <time>2026-08-04T07:52:35.278Z</time>
      </trkpt>
      <trkpt lat="45.95771" lon="6.85289">
        <ele>2341</ele>
        <time>2026-08-04T07:52:36.278Z</time>
      </trkpt>
      <trkpt lat="45.95772" lon="6.8529">
        <ele>2341</ele>
        <time>2026-08-04T07:52:37.278Z</time>
      </trkpt>
      <trkpt lat="45.95773" lon="6.8529">
        <ele>2341</ele>
        <time>2026-08-04T07:52:38.278Z</time>
      </trkpt>
      <trkpt lat="45.95774" lon="6.85292">
        <ele>2342</ele>
        <time>2026-08-04T07:52:39.278Z</time>
      </trkpt>
      <trkpt lat="45.95774" lon="6.85292">
        <ele>2342</ele>
        <time>2026-08-04T07:52:40.278Z</time>
      </trkpt>
      <trkpt lat="45.95775" lon="6.85292">
        <ele>2341</ele>
        <time>2026-08-04T07:52:41.278Z</time>
      </trkpt>
      <trkpt lat="45.95776" lon="6.85292">
        <ele>2341</ele>
        <time>2026-08-04T07:52:42.278Z</time>
      </trkpt>
      <trkpt lat="45.95776" lon="6.85292">
        <ele>2341</ele>
        <time>2026-08-04T07:52:43.278Z</time>
      </trkpt>
      <trkpt lat="45.95777" lon="6.85293">
        <ele>2342</ele>
        <time>2026-08-04T07:52:44.278Z</time>
      </trkpt>
      <trkpt lat="45.95777" lon="6.85294">
        <ele>2342</ele>
        <time>2026-08-04T07:52:45.278Z</time>
      </trkpt>
      <trkpt lat="45.95778" lon="6.85294">
        <ele>2342</ele>
        <time>2026-08-04T07:52:46.278Z</time>
      </trkpt>
      <trkpt lat="45.9578" lon="6.85295">
        <ele>2342</ele>
        <time>2026-08-04T07:52:47.278Z</time>
      </trkpt>
      <trkpt lat="45.9578" lon="6.85295">
        <ele>2342</ele>
        <time>2026-08-04T07:52:48.278Z</time>
      </trkpt>
      <trkpt lat="45.9578" lon="6.85296">
        <ele>2342</ele>
        <time>2026-08-04T07:52:49.278Z</time>
      </trkpt>
      <trkpt lat="45.95782" lon="6.85297">
        <ele>2343</ele>
        <time>2026-08-04T07:52:50.278Z</time>
      </trkpt>
      <trkpt lat="45.95784" lon="6.85299">
        <ele>2343</ele>
        <time>2026-08-04T07:52:51.278Z</time>
      </trkpt>
      <trkpt lat="45.95784" lon="6.85299">
        <ele>2343</ele>
        <time>2026-08-04T07:52:52.278Z</time>
      </trkpt>
      <trkpt lat="45.95784" lon="6.85299">
        <ele>2343</ele>
        <time>2026-08-04T07:52:53.278Z</time>
      </trkpt>
      <trkpt lat="45.95785" lon="6.85299">
        <ele>2343</ele>
        <time>2026-08-04T07:52:54.278Z</time>
      </trkpt>
      <trkpt lat="45.95786" lon="6.85299">
        <ele>2343</ele>
        <time>2026-08-04T07:52:55.278Z</time>
      </trkpt>
      <trkpt lat="45.95786" lon="6.85299">
        <ele>2343</ele>
        <time>2026-08-04T07:52:56.278Z</time>
      </trkpt>
      <trkpt lat="45.95786" lon="6.85299">
        <ele>2342</ele>
        <time>2026-08-04T07:52:57.278Z</time>
      </trkpt>
      <trkpt lat="45.95787" lon="6.85299">
        <ele>2342</ele>
        <time>2026-08-04T07:52:58.278Z</time>
      </trkpt>
      <trkpt lat="45.95787" lon="6.85299">
        <ele>2341</ele>
        <time>2026-08-04T07:52:59.278Z</time>
      </trkpt>
      <trkpt lat="45.95787" lon="6.85299">
        <ele>2341</ele>
        <time>2026-08-04T07:53:00.278Z</time>
      </trkpt>
      <trkpt lat="45.95788" lon="6.85298">
        <ele>2341</ele>
        <time>2026-08-04T07:53:01.278Z</time>
      </trkpt>
      <trkpt lat="45.95789" lon="6.85297">
        <ele>2341</ele>
        <time>2026-08-04T07:53:02.278Z</time>
      </trkpt>
      <trkpt lat="45.9579" lon="6.85297">
        <ele>2341</ele>
        <time>2026-08-04T07:53:03.278Z</time>
      </trkpt>
      <trkpt lat="45.95791" lon="6.85296">
        <ele>2341</ele>
        <time>2026-08-04T07:53:04.278Z</time>
      </trkpt>
      <trkpt lat="45.95792" lon="6.85296">
        <ele>2341</ele>
        <time>2026-08-04T07:53:05.278Z</time>
      </trkpt>
      <trkpt lat="45.95793" lon="6.85296">
        <ele>2341</ele>
        <time>2026-08-04T07:53:06.278Z</time>
      </trkpt>
      <trkpt lat="45.95794" lon="6.85296">
        <ele>2341</ele>
        <time>2026-08-04T07:53:07.278Z</time>
      </trkpt>
      <trkpt lat="45.95797" lon="6.85296">
        <ele>2341</ele>
        <time>2026-08-04T07:53:08.278Z</time>
      </trkpt>
      <trkpt lat="45.95798" lon="6.85296">
        <ele>2341</ele>
        <time>2026-08-04T07:53:09.278Z</time>
      </trkpt>
      <trkpt lat="45.95799" lon="6.85297">
        <ele>2341</ele>
        <time>2026-08-04T07:53:10.278Z</time>
      </trkpt>
      <trkpt lat="45.95799" lon="6.85297">
        <ele>2341</ele>
        <time>2026-08-04T07:53:11.278Z</time>
      </trkpt>
      <trkpt lat="45.958" lon="6.85297">
        <ele>2340</ele>
        <time>2026-08-04T07:53:12.278Z</time>
      </trkpt>
      <trkpt lat="45.95801" lon="6.85297">
        <ele>2340</ele>
        <time>2026-08-04T07:53:13.278Z</time>
      </trkpt>
      <trkpt lat="45.95802" lon="6.85297">
        <ele>2340</ele>
        <time>2026-08-04T07:53:14.278Z</time>
      </trkpt>
      <trkpt lat="45.95803" lon="6.85296">
        <ele>2339</ele>
        <time>2026-08-04T07:53:15.278Z</time>
      </trkpt>
      <trkpt lat="45.95804" lon="6.85296">
        <ele>2339</ele>
        <time>2026-08-04T07:53:16.278Z</time>
      </trkpt>
      <trkpt lat="45.95806" lon="6.85296">
        <ele>2339</ele>
        <time>2026-08-04T07:53:17.278Z</time>
      </trkpt>
      <trkpt lat="45.95807" lon="6.85295">
        <ele>2339</ele>
        <time>2026-08-04T07:53:18.278Z</time>
      </trkpt>
      <trkpt lat="45.95808" lon="6.85295">
        <ele>2339</ele>
        <time>2026-08-04T07:53:19.278Z</time>
      </trkpt>
      <trkpt lat="45.95809" lon="6.85294">
        <ele>2339</ele>
        <time>2026-08-04T07:53:20.278Z</time>
      </trkpt>
      <trkpt lat="45.9581" lon="6.85294">
        <ele>2338</ele>
        <time>2026-08-04T07:53:21.278Z</time>
      </trkpt>
      <trkpt lat="45.95811" lon="6.85294">
        <ele>2338</ele>
        <time>2026-08-04T07:53:22.278Z</time>
      </trkpt>
      <trkpt lat="45.95812" lon="6.85295">
        <ele>2337</ele>
        <time>2026-08-04T07:53:23.278Z</time>
      </trkpt>
      <trkpt lat="45.95814" lon="6.85294">
        <ele>2337</ele>
        <time>2026-08-04T07:53:24.278Z</time>
      </trkpt>
      <trkpt lat="45.95815" lon="6.85293">
        <ele>2337</ele>
        <time>2026-08-04T07:53:25.278Z</time>
      </trkpt>
      <trkpt lat="45.95816" lon="6.85293">
        <ele>2337</ele>
        <time>2026-08-04T07:53:26.278Z</time>
      </trkpt>
      <trkpt lat="45.95816" lon="6.85293">
        <ele>2337</ele>
        <time>2026-08-04T07:53:27.278Z</time>
      </trkpt>
      <trkpt lat="45.95817" lon="6.85293">
        <ele>2338</ele>
        <time>2026-08-04T07:53:28.278Z</time>
      </trkpt>
      <trkpt lat="45.95817" lon="6.85292">
        <ele>2338</ele>
        <time>2026-08-04T07:53:29.278Z</time>
      </trkpt>
      <trkpt lat="45.95817" lon="6.85291">
        <ele>2338</ele>
        <time>2026-08-04T07:53:30.278Z</time>
      </trkpt>
      <trkpt lat="45.95817" lon="6.8529">
        <ele>2338</ele>
        <time>2026-08-04T07:53:31.278Z</time>
      </trkpt>
      <trkpt lat="45.95816" lon="6.8529">
        <ele>2338</ele>
        <time>2026-08-04T07:53:32.278Z</time>
      </trkpt>
      <trkpt lat="45.95816" lon="6.85289">
        <ele>2338</ele>
        <time>2026-08-04T07:53:33.278Z</time>
      </trkpt>
      <trkpt lat="45.95815" lon="6.85289">
        <ele>2338</ele>
        <time>2026-08-04T07:53:34.278Z</time>
      </trkpt>
      <trkpt lat="45.95815" lon="6.85288">
        <ele>2337</ele>
        <time>2026-08-04T07:53:35.278Z</time>
      </trkpt>
      <trkpt lat="45.95814" lon="6.85287">
        <ele>2337</ele>
        <time>2026-08-04T07:53:36.278Z</time>
      </trkpt>
      <trkpt lat="45.95814" lon="6.85286">
        <ele>2337</ele>
        <time>2026-08-04T07:53:37.278Z</time>
      </trkpt>
      <trkpt lat="45.95814" lon="6.85285">
        <ele>2337</ele>
        <time>2026-08-04T07:53:38.278Z</time>
      </trkpt>
      <trkpt lat="45.95813" lon="6.85284">
        <ele>2337</ele>
        <time>2026-08-04T07:53:39.278Z</time>
      </trkpt>
      <trkpt lat="45.95813" lon="6.85283">
        <ele>2337</ele>
        <time>2026-08-04T07:53:40.278Z</time>
      </trkpt>
      <trkpt lat="45.95812" lon="6.85283">
        <ele>2337</ele>
        <time>2026-08-04T07:53:41.278Z</time>
      </trkpt>
      <trkpt lat="45.95812" lon="6.85282">
        <ele>2337</ele>
        <time>2026-08-04T07:53:42.278Z</time>
      </trkpt>
      <trkpt lat="45.95811" lon="6.85281">
        <ele>2337</ele>
        <time>2026-08-04T07:53:43.278Z</time>
      </trkpt>
      <trkpt lat="45.9581" lon="6.85279">
        <ele>2338</ele>
        <time>2026-08-04T07:53:44.278Z</time>
      </trkpt>
      <trkpt lat="45.9581" lon="6.85278">
        <ele>2338</ele>
        <time>2026-08-04T07:53:45.278Z</time>
      </trkpt>
      <trkpt lat="45.95809" lon="6.85277">
        <ele>2338</ele>
        <time>2026-08-04T07:53:46.278Z</time>
      </trkpt>
      <trkpt lat="45.95809" lon="6.85275">
        <ele>2338</ele>
        <time>2026-08-04T07:53:47.278Z</time>
      </trkpt>
      <trkpt lat="45.95809" lon="6.85274">
        <ele>2338</ele>
        <time>2026-08-04T07:53:48.278Z</time>
      </trkpt>
      <trkpt lat="45.95809" lon="6.85273">
        <ele>2337</ele>
        <time>2026-08-04T07:53:49.278Z</time>
      </trkpt>
      <trkpt lat="45.95809" lon="6.85273">
        <ele>2337</ele>
        <time>2026-08-04T07:53:50.278Z</time>
      </trkpt>
      <trkpt lat="45.95809" lon="6.85272">
        <ele>2337</ele>
        <time>2026-08-04T07:53:51.278Z</time>
      </trkpt>
      <trkpt lat="45.95808" lon="6.85271">
        <ele>2336</ele>
        <time>2026-08-04T07:53:52.278Z</time>
      </trkpt>
      <trkpt lat="45.95808" lon="6.8527">
        <ele>2336</ele>
        <time>2026-08-04T07:53:53.278Z</time>
      </trkpt>
      <trkpt lat="45.95807" lon="6.85269">
        <ele>2336</ele>
        <time>2026-08-04T07:53:54.278Z</time>
      </trkpt>
      <trkpt lat="45.95807" lon="6.85267">
        <ele>2336</ele>
        <time>2026-08-04T07:53:55.278Z</time>
      </trkpt>
      <trkpt lat="45.95806" lon="6.85266">
        <ele>2336</ele>
        <time>2026-08-04T07:53:56.278Z</time>
      </trkpt>
      <trkpt lat="45.95806" lon="6.85265">
        <ele>2336</ele>
        <time>2026-08-04T07:53:57.278Z</time>
      </trkpt>
      <trkpt lat="45.95805" lon="6.85263">
        <ele>2335</ele>
        <time>2026-08-04T07:53:58.278Z</time>
      </trkpt>
      <trkpt lat="45.95805" lon="6.85262">
        <ele>2335</ele>
        <time>2026-08-04T07:53:59.278Z</time>
      </trkpt>
      <trkpt lat="45.95804" lon="6.85261">
        <ele>2335</ele>
        <time>2026-08-04T07:54:00.278Z</time>
      </trkpt>
      <trkpt lat="45.95804" lon="6.85259">
        <ele>2335</ele>
        <time>2026-08-04T07:54:01.278Z</time>
      </trkpt>
      <trkpt lat="45.95804" lon="6.85259">
        <ele>2334</ele>
        <time>2026-08-04T07:54:02.278Z</time>
      </trkpt>
      <trkpt lat="45.95804" lon="6.85258">
        <ele>2334</ele>
        <time>2026-08-04T07:54:03.278Z</time>
      </trkpt>
      <trkpt lat="45.95804" lon="6.85258">
        <ele>2334</ele>
        <time>2026-08-04T07:54:04.278Z</time>
      </trkpt>
      <trkpt lat="45.95804" lon="6.85257">
        <ele>2334</ele>
        <time>2026-08-04T07:54:05.278Z</time>
      </trkpt>
      <trkpt lat="45.95804" lon="6.85256">
        <ele>2333</ele>
        <time>2026-08-04T07:54:06.278Z</time>
      </trkpt>
      <trkpt lat="45.95804" lon="6.85255">
        <ele>2333</ele>
        <time>2026-08-04T07:54:07.278Z</time>
      </trkpt>
      <trkpt lat="45.95804" lon="6.85253">
        <ele>2332</ele>
        <time>2026-08-04T07:54:08.278Z</time>
      </trkpt>
      <trkpt lat="45.95803" lon="6.85252">
        <ele>2332</ele>
        <time>2026-08-04T07:54:09.278Z</time>
      </trkpt>
      <trkpt lat="45.95803" lon="6.85251">
        <ele>2332</ele>
        <time>2026-08-04T07:54:10.278Z</time>
      </trkpt>
      <trkpt lat="45.95804" lon="6.8525">
        <ele>2332</ele>
        <time>2026-08-04T07:54:11.278Z</time>
      </trkpt>
      <trkpt lat="45.95804" lon="6.85249">
        <ele>2332</ele>
        <time>2026-08-04T07:54:12.278Z</time>
      </trkpt>
      <trkpt lat="45.95805" lon="6.85248">
        <ele>2332</ele>
        <time>2026-08-04T07:54:13.278Z</time>
      </trkpt>
      <trkpt lat="45.95805" lon="6.85246">
        <ele>2332</ele>
        <time>2026-08-04T07:54:14.278Z</time>
      </trkpt>
      <trkpt lat="45.95806" lon="6.85246">
        <ele>2332</ele>
        <time>2026-08-04T07:54:15.278Z</time>
      </trkpt>
      <trkpt lat="45.95806" lon="6.85245">
        <ele>2332</ele>
        <time>2026-08-04T07:54:16.278Z</time>
      </trkpt>
      <trkpt lat="45.95806" lon="6.85244">
        <ele>2332</ele>
        <time>2026-08-04T07:54:17.278Z</time>
      </trkpt>
      <trkpt lat="45.95805" lon="6.85243">
        <ele>2331</ele>
        <time>2026-08-04T07:54:18.278Z</time>
      </trkpt>
      <trkpt lat="45.95805" lon="6.85241">
        <ele>2331</ele>
        <time>2026-08-04T07:54:19.278Z</time>
      </trkpt>
      <trkpt lat="45.95805" lon="6.85241">
        <ele>2330</ele>
        <time>2026-08-04T07:54:20.278Z</time>
      </trkpt>
      <trkpt lat="45.95805" lon="6.8524">
        <ele>2330</ele>
        <time>2026-08-04T07:54:21.278Z</time>
      </trkpt>
      <trkpt lat="45.95805" lon="6.85239">
        <ele>2329</ele>
        <time>2026-08-04T07:54:22.278Z</time>
      </trkpt>
      <trkpt lat="45.95805" lon="6.85237">
        <ele>2329</ele>
        <time>2026-08-04T07:54:23.278Z</time>
      </trkpt>
      <trkpt lat="45.95805" lon="6.85236">
        <ele>2328</ele>
        <time>2026-08-04T07:54:24.278Z</time>
      </trkpt>
      <trkpt lat="45.95806" lon="6.85235">
        <ele>2328</ele>
        <time>2026-08-04T07:54:25.278Z</time>
      </trkpt>
      <trkpt lat="45.95806" lon="6.85235">
        <ele>2327</ele>
        <time>2026-08-04T07:54:26.278Z</time>
      </trkpt>
      <trkpt lat="45.95807" lon="6.85234">
        <ele>2327</ele>
        <time>2026-08-04T07:54:27.278Z</time>
      </trkpt>
      <trkpt lat="45.95808" lon="6.85234">
        <ele>2326</ele>
        <time>2026-08-04T07:54:28.278Z</time>
      </trkpt>
      <trkpt lat="45.95809" lon="6.85233">
        <ele>2326</ele>
        <time>2026-08-04T07:54:29.278Z</time>
      </trkpt>
      <trkpt lat="45.95809" lon="6.85233">
        <ele>2325</ele>
        <time>2026-08-04T07:54:30.278Z</time>
      </trkpt>
      <trkpt lat="45.9581" lon="6.85232">
        <ele>2325</ele>
        <time>2026-08-04T07:54:31.278Z</time>
      </trkpt>
      <trkpt lat="45.95811" lon="6.85231">
        <ele>2325</ele>
        <time>2026-08-04T07:54:32.278Z</time>
      </trkpt>
      <trkpt lat="45.95811" lon="6.8523">
        <ele>2324</ele>
        <time>2026-08-04T07:54:33.278Z</time>
      </trkpt>
      <trkpt lat="45.95812" lon="6.85228">
        <ele>2324</ele>
        <time>2026-08-04T07:54:34.278Z</time>
      </trkpt>
      <trkpt lat="45.95812" lon="6.85227">
        <ele>2324</ele>
        <time>2026-08-04T07:54:35.278Z</time>
      </trkpt>
      <trkpt lat="45.95813" lon="6.85225">
        <ele>2324</ele>
        <time>2026-08-04T07:54:36.278Z</time>
      </trkpt>
      <trkpt lat="45.95813" lon="6.85223">
        <ele>2323</ele>
        <time>2026-08-04T07:54:37.278Z</time>
      </trkpt>
      <trkpt lat="45.95813" lon="6.85221">
        <ele>2323</ele>
        <time>2026-08-04T07:54:38.278Z</time>
      </trkpt>
      <trkpt lat="45.95814" lon="6.85219">
        <ele>2322</ele>
        <time>2026-08-04T07:54:39.278Z</time>
      </trkpt>
      <trkpt lat="45.95814" lon="6.85218">
        <ele>2322</ele>
        <time>2026-08-04T07:54:40.278Z</time>
      </trkpt>
      <trkpt lat="45.95815" lon="6.85217">
        <ele>2321</ele>
        <time>2026-08-04T07:54:41.278Z</time>
      </trkpt>
      <trkpt lat="45.95815" lon="6.85216">
        <ele>2321</ele>
        <time>2026-08-04T07:54:42.278Z</time>
      </trkpt>
      <trkpt lat="45.95816" lon="6.85215">
        <ele>2321</ele>
        <time>2026-08-04T07:54:43.278Z</time>
      </trkpt>
      <trkpt lat="45.95816" lon="6.85214">
        <ele>2321</ele>
        <time>2026-08-04T07:54:44.278Z</time>
      </trkpt>
      <trkpt lat="45.95816" lon="6.85213">
        <ele>2321</ele>
        <time>2026-08-04T07:54:45.278Z</time>
      </trkpt>
      <trkpt lat="45.95817" lon="6.85211">
        <ele>2321</ele>
        <time>2026-08-04T07:54:46.278Z</time>
      </trkpt>
      <trkpt lat="45.95817" lon="6.8521">
        <ele>2321</ele>
        <time>2026-08-04T07:54:47.278Z</time>
      </trkpt>
      <trkpt lat="45.95817" lon="6.85208">
        <ele>2321</ele>
        <time>2026-08-04T07:54:48.278Z</time>
      </trkpt>
      <trkpt lat="45.95817" lon="6.85207">
        <ele>2320</ele>
        <time>2026-08-04T07:54:49.278Z</time>
      </trkpt>
      <trkpt lat="45.95817" lon="6.85206">
        <ele>2320</ele>
        <time>2026-08-04T07:54:50.278Z</time>
      </trkpt>
      <trkpt lat="45.95817" lon="6.85203">
        <ele>2320</ele>
        <time>2026-08-04T07:54:51.278Z</time>
      </trkpt>
      <trkpt lat="45.95818" lon="6.85201">
        <ele>2319</ele>
        <time>2026-08-04T07:54:52.278Z</time>
      </trkpt>
      <trkpt lat="45.95818" lon="6.85199">
        <ele>2319</ele>
        <time>2026-08-04T07:54:53.278Z</time>
      </trkpt>
      <trkpt lat="45.95818" lon="6.85197">
        <ele>2319</ele>
        <time>2026-08-04T07:54:54.278Z</time>
      </trkpt>
      <trkpt lat="45.95819" lon="6.85194">
        <ele>2318</ele>
        <time>2026-08-04T07:54:55.278Z</time>
      </trkpt>
      <trkpt lat="45.9582" lon="6.85192">
        <ele>2318</ele>
        <time>2026-08-04T07:54:56.278Z</time>
      </trkpt>
      <trkpt lat="45.95822" lon="6.8519">
        <ele>2318</ele>
        <time>2026-08-04T07:54:57.278Z</time>
      </trkpt>
      <trkpt lat="45.95823" lon="6.85188">
        <ele>2318</ele>
        <time>2026-08-04T07:54:58.278Z</time>
      </trkpt>
      <trkpt lat="45.95824" lon="6.85186">
        <ele>2318</ele>
        <time>2026-08-04T07:54:59.278Z</time>
      </trkpt>
      <trkpt lat="45.95825" lon="6.85185">
        <ele>2318</ele>
        <time>2026-08-04T07:55:00.278Z</time>
      </trkpt>
      <trkpt lat="45.95827" lon="6.85184">
        <ele>2318</ele>
        <time>2026-08-04T07:55:01.278Z</time>
      </trkpt>
      <trkpt lat="45.95828" lon="6.85184">
        <ele>2318</ele>
        <time>2026-08-04T07:55:02.278Z</time>
      </trkpt>
      <trkpt lat="45.95828" lon="6.85183">
        <ele>2317</ele>
        <time>2026-08-04T07:55:03.278Z</time>
      </trkpt>
      <trkpt lat="45.95829" lon="6.85181">
        <ele>2318</ele>
        <time>2026-08-04T07:55:04.278Z</time>
      </trkpt>
      <trkpt lat="45.95829" lon="6.85178">
        <ele>2318</ele>
        <time>2026-08-04T07:55:05.278Z</time>
      </trkpt>
      <trkpt lat="45.95829" lon="6.85176">
        <ele>2318</ele>
        <time>2026-08-04T07:55:06.278Z</time>
      </trkpt>
      <trkpt lat="45.95829" lon="6.85174">
        <ele>2318</ele>
        <time>2026-08-04T07:55:07.278Z</time>
      </trkpt>
      <trkpt lat="45.95829" lon="6.85173">
        <ele>2317</ele>
        <time>2026-08-04T07:55:08.278Z</time>
      </trkpt>
      <trkpt lat="45.9583" lon="6.85171">
        <ele>2317</ele>
        <time>2026-08-04T07:55:09.278Z</time>
      </trkpt>
      <trkpt lat="45.95831" lon="6.8517">
        <ele>2317</ele>
        <time>2026-08-04T07:55:10.278Z</time>
      </trkpt>
      <trkpt lat="45.95831" lon="6.85169">
        <ele>2317</ele>
        <time>2026-08-04T07:55:11.278Z</time>
      </trkpt>
      <trkpt lat="45.95833" lon="6.85166">
        <ele>2317</ele>
        <time>2026-08-04T07:55:12.278Z</time>
      </trkpt>
      <trkpt lat="45.95833" lon="6.85166">
        <ele>2317</ele>
        <time>2026-08-04T07:55:13.278Z</time>
      </trkpt>
      <trkpt lat="45.95834" lon="6.85164">
        <ele>2317</ele>
        <time>2026-08-04T07:55:14.278Z</time>
      </trkpt>
      <trkpt lat="45.95834" lon="6.85163">
        <ele>2316</ele>
        <time>2026-08-04T07:55:15.278Z</time>
      </trkpt>
      <trkpt lat="45.95835" lon="6.85161">
        <ele>2316</ele>
        <time>2026-08-04T07:55:16.278Z</time>
      </trkpt>
      <trkpt lat="45.95835" lon="6.8516">
        <ele>2316</ele>
        <time>2026-08-04T07:55:17.278Z</time>
      </trkpt>
      <trkpt lat="45.95835" lon="6.85158">
        <ele>2316</ele>
        <time>2026-08-04T07:55:18.278Z</time>
      </trkpt>
      <trkpt lat="45.95836" lon="6.85157">
        <ele>2316</ele>
        <time>2026-08-04T07:55:19.278Z</time>
      </trkpt>
      <trkpt lat="45.95836" lon="6.85156">
        <ele>2316</ele>
        <time>2026-08-04T07:55:20.278Z</time>
      </trkpt>
      <trkpt lat="45.95837" lon="6.85155">
        <ele>2315</ele>
        <time>2026-08-04T07:55:21.278Z</time>
      </trkpt>
      <trkpt lat="45.95837" lon="6.85153">
        <ele>2315</ele>
        <time>2026-08-04T07:55:22.278Z</time>
      </trkpt>
      <trkpt lat="45.95837" lon="6.85152">
        <ele>2315</ele>
        <time>2026-08-04T07:55:23.278Z</time>
      </trkpt>
      <trkpt lat="45.95837" lon="6.8515">
        <ele>2315</ele>
        <time>2026-08-04T07:55:24.278Z</time>
      </trkpt>
      <trkpt lat="45.95838" lon="6.85149">
        <ele>2315</ele>
        <time>2026-08-04T07:55:25.278Z</time>
      </trkpt>
      <trkpt lat="45.95838" lon="6.85148">
        <ele>2314</ele>
        <time>2026-08-04T07:55:26.278Z</time>
      </trkpt>
      <trkpt lat="45.95838" lon="6.85147">
        <ele>2314</ele>
        <time>2026-08-04T07:55:27.278Z</time>
      </trkpt>
      <trkpt lat="45.95838" lon="6.85146">
        <ele>2314</ele>
        <time>2026-08-04T07:55:28.278Z</time>
      </trkpt>
      <trkpt lat="45.95837" lon="6.85145">
        <ele>2313</ele>
        <time>2026-08-04T07:55:29.278Z</time>
      </trkpt>
      <trkpt lat="45.95837" lon="6.85144">
        <ele>2313</ele>
        <time>2026-08-04T07:55:30.278Z</time>
      </trkpt>
      <trkpt lat="45.95837" lon="6.85143">
        <ele>2313</ele>
        <time>2026-08-04T07:55:31.278Z</time>
      </trkpt>
      <trkpt lat="45.95837" lon="6.85142">
        <ele>2312</ele>
        <time>2026-08-04T07:55:32.278Z</time>
      </trkpt>
      <trkpt lat="45.95838" lon="6.85141">
        <ele>2312</ele>
        <time>2026-08-04T07:55:33.278Z</time>
      </trkpt>
      <trkpt lat="45.95838" lon="6.8514">
        <ele>2312</ele>
        <time>2026-08-04T07:55:34.278Z</time>
      </trkpt>
      <trkpt lat="45.95839" lon="6.85139">
        <ele>2312</ele>
        <time>2026-08-04T07:55:35.278Z</time>
      </trkpt>
      <trkpt lat="45.95839" lon="6.85138">
        <ele>2311</ele>
        <time>2026-08-04T07:55:36.278Z</time>
      </trkpt>
      <trkpt lat="45.95839" lon="6.85137">
        <ele>2310</ele>
        <time>2026-08-04T07:55:37.278Z</time>
      </trkpt>
      <trkpt lat="45.9584" lon="6.85136">
        <ele>2310</ele>
        <time>2026-08-04T07:55:38.278Z</time>
      </trkpt>
      <trkpt lat="45.9584" lon="6.85136">
        <ele>2310</ele>
        <time>2026-08-04T07:55:39.278Z</time>
      </trkpt>
      <trkpt lat="45.95841" lon="6.85135">
        <ele>2309</ele>
        <time>2026-08-04T07:55:40.278Z</time>
      </trkpt>
      <trkpt lat="45.95841" lon="6.85134">
        <ele>2309</ele>
        <time>2026-08-04T07:55:41.278Z</time>
      </trkpt>
      <trkpt lat="45.9584" lon="6.85133">
        <ele>2309</ele>
        <time>2026-08-04T07:55:42.278Z</time>
      </trkpt>
      <trkpt lat="45.9584" lon="6.85132">
        <ele>2309</ele>
        <time>2026-08-04T07:55:43.278Z</time>
      </trkpt>
      <trkpt lat="45.9584" lon="6.85131">
        <ele>2309</ele>
        <time>2026-08-04T07:55:44.278Z</time>
      </trkpt>
      <trkpt lat="45.95839" lon="6.8513">
        <ele>2308</ele>
        <time>2026-08-04T07:55:45.278Z</time>
      </trkpt>
      <trkpt lat="45.95839" lon="6.85129">
        <ele>2308</ele>
        <time>2026-08-04T07:55:46.278Z</time>
      </trkpt>
      <trkpt lat="45.9584" lon="6.85127">
        <ele>2308</ele>
        <time>2026-08-04T07:55:47.278Z</time>
      </trkpt>
      <trkpt lat="45.9584" lon="6.85126">
        <ele>2308</ele>
        <time>2026-08-04T07:55:48.278Z</time>
      </trkpt>
      <trkpt lat="45.95841" lon="6.85125">
        <ele>2308</ele>
        <time>2026-08-04T07:55:49.278Z</time>
      </trkpt>
      <trkpt lat="45.95841" lon="6.85124">
        <ele>2307</ele>
        <time>2026-08-04T07:55:50.278Z</time>
      </trkpt>
      <trkpt lat="45.9584" lon="6.85123">
        <ele>2307</ele>
        <time>2026-08-04T07:55:51.278Z</time>
      </trkpt>
      <trkpt lat="45.9584" lon="6.85122">
        <ele>2307</ele>
        <time>2026-08-04T07:55:52.278Z</time>
      </trkpt>
      <trkpt lat="45.9584" lon="6.85121">
        <ele>2307</ele>
        <time>2026-08-04T07:55:53.278Z</time>
      </trkpt>
      <trkpt lat="45.9584" lon="6.8512">
        <ele>2307</ele>
        <time>2026-08-04T07:55:54.278Z</time>
      </trkpt>
      <trkpt lat="45.9584" lon="6.8512">
        <ele>2307</ele>
        <time>2026-08-04T07:55:55.278Z</time>
      </trkpt>
      <trkpt lat="45.95841" lon="6.85119">
        <ele>2307</ele>
        <time>2026-08-04T07:55:56.278Z</time>
      </trkpt>
      <trkpt lat="45.95841" lon="6.85118">
        <ele>2307</ele>
        <time>2026-08-04T07:55:57.278Z</time>
      </trkpt>
      <trkpt lat="45.95841" lon="6.85117">
        <ele>2306</ele>
        <time>2026-08-04T07:55:58.278Z</time>
      </trkpt>
      <trkpt lat="45.95841" lon="6.85117">
        <ele>2306</ele>
        <time>2026-08-04T07:55:59.278Z</time>
      </trkpt>
      <trkpt lat="45.95841" lon="6.85116">
        <ele>2306</ele>
        <time>2026-08-04T07:56:00.278Z</time>
      </trkpt>
      <trkpt lat="45.95841" lon="6.85115">
        <ele>2305</ele>
        <time>2026-08-04T07:56:01.278Z</time>
      </trkpt>
      <trkpt lat="45.9584" lon="6.85114">
        <ele>2305</ele>
        <time>2026-08-04T07:56:02.278Z</time>
      </trkpt>
      <trkpt lat="45.9584" lon="6.85113">
        <ele>2304</ele>
        <time>2026-08-04T07:56:03.278Z</time>
      </trkpt>
      <trkpt lat="45.9584" lon="6.85112">
        <ele>2304</ele>
        <time>2026-08-04T07:56:04.278Z</time>
      </trkpt>
      <trkpt lat="45.9584" lon="6.85111">
        <ele>2303</ele>
        <time>2026-08-04T07:56:05.278Z</time>
      </trkpt>
      <trkpt lat="45.9584" lon="6.8511">
        <ele>2303</ele>
        <time>2026-08-04T07:56:06.278Z</time>
      </trkpt>
      <trkpt lat="45.95841" lon="6.85109">
        <ele>2303</ele>
        <time>2026-08-04T07:56:07.278Z</time>
      </trkpt>
      <trkpt lat="45.95841" lon="6.85109">
        <ele>2303</ele>
        <time>2026-08-04T07:56:08.278Z</time>
      </trkpt>
      <trkpt lat="45.95841" lon="6.85109">
        <ele>2303</ele>
        <time>2026-08-04T07:56:09.278Z</time>
      </trkpt>
      <trkpt lat="45.95841" lon="6.85108">
        <ele>2303</ele>
        <time>2026-08-04T07:56:10.278Z</time>
      </trkpt>
      <trkpt lat="45.95841" lon="6.85108">
        <ele>2303</ele>
        <time>2026-08-04T07:56:11.278Z</time>
      </trkpt>
      <trkpt lat="45.95841" lon="6.85107">
        <ele>2303</ele>
        <time>2026-08-04T07:56:12.278Z</time>
      </trkpt>
      <trkpt lat="45.95841" lon="6.85106">
        <ele>2303</ele>
        <time>2026-08-04T07:56:13.278Z</time>
      </trkpt>
      <trkpt lat="45.95841" lon="6.85105">
        <ele>2303</ele>
        <time>2026-08-04T07:56:14.278Z</time>
      </trkpt>
      <trkpt lat="45.95841" lon="6.85104">
        <ele>2302</ele>
        <time>2026-08-04T07:56:15.278Z</time>
      </trkpt>
      <trkpt lat="45.95841" lon="6.85104">
        <ele>2302</ele>
        <time>2026-08-04T07:56:16.278Z</time>
      </trkpt>
      <trkpt lat="45.95841" lon="6.85103">
        <ele>2301</ele>
        <time>2026-08-04T07:56:17.278Z</time>
      </trkpt>
      <trkpt lat="45.95841" lon="6.85102">
        <ele>2301</ele>
        <time>2026-08-04T07:56:18.278Z</time>
      </trkpt>
      <trkpt lat="45.95841" lon="6.85102">
        <ele>2301</ele>
        <time>2026-08-04T07:56:19.278Z</time>
      </trkpt>
      <trkpt lat="45.95841" lon="6.85101">
        <ele>2301</ele>
        <time>2026-08-04T07:56:20.278Z</time>
      </trkpt>
      <trkpt lat="45.95841" lon="6.85101">
        <ele>2300</ele>
        <time>2026-08-04T07:56:21.278Z</time>
      </trkpt>
      <trkpt lat="45.95841" lon="6.85101">
        <ele>2300</ele>
        <time>2026-08-04T07:56:22.278Z</time>
      </trkpt>
      <trkpt lat="45.95841" lon="6.85101">
        <ele>2300</ele>
        <time>2026-08-04T07:56:23.278Z</time>
      </trkpt>
      <trkpt lat="45.95842" lon="6.85101">
        <ele>2300</ele>
        <time>2026-08-04T07:56:24.278Z</time>
      </trkpt>
      <trkpt lat="45.95842" lon="6.85101">
        <ele>2299</ele>
        <time>2026-08-04T07:56:25.278Z</time>
      </trkpt>
      <trkpt lat="45.95843" lon="6.85101">
        <ele>2299</ele>
        <time>2026-08-04T07:56:26.278Z</time>
      </trkpt>
      <trkpt lat="45.95843" lon="6.85101">
        <ele>2299</ele>
        <time>2026-08-04T07:56:27.278Z</time>
      </trkpt>
      <trkpt lat="45.95844" lon="6.85101">
        <ele>2299</ele>
        <time>2026-08-04T07:56:28.278Z</time>
      </trkpt>
      <trkpt lat="45.95844" lon="6.85101">
        <ele>2299</ele>
        <time>2026-08-04T07:56:29.278Z</time>
      </trkpt>
      <trkpt lat="45.95844" lon="6.85101">
        <ele>2298</ele>
        <time>2026-08-04T07:56:30.278Z</time>
      </trkpt>
      <trkpt lat="45.95845" lon="6.851">
        <ele>2298</ele>
        <time>2026-08-04T07:56:31.278Z</time>
      </trkpt>
      <trkpt lat="45.95845" lon="6.851">
        <ele>2297</ele>
        <time>2026-08-04T07:56:32.278Z</time>
      </trkpt>
      <trkpt lat="45.95845" lon="6.85099">
        <ele>2297</ele>
        <time>2026-08-04T07:56:33.278Z</time>
      </trkpt>
      <trkpt lat="45.95845" lon="6.85098">
        <ele>2296</ele>
        <time>2026-08-04T07:56:34.278Z</time>
      </trkpt>
      <trkpt lat="45.95845" lon="6.85097">
        <ele>2296</ele>
        <time>2026-08-04T07:56:35.278Z</time>
      </trkpt>
      <trkpt lat="45.95845" lon="6.85096">
        <ele>2296</ele>
        <time>2026-08-04T07:56:36.278Z</time>
      </trkpt>
      <trkpt lat="45.95845" lon="6.85095">
        <ele>2296</ele>
        <time>2026-08-04T07:56:37.278Z</time>
      </trkpt>
      <trkpt lat="45.95845" lon="6.85095">
        <ele>2296</ele>
        <time>2026-08-04T07:56:38.278Z</time>
      </trkpt>
      <trkpt lat="45.95845" lon="6.85094">
        <ele>2295</ele>
        <time>2026-08-04T07:56:39.278Z</time>
      </trkpt>
      <trkpt lat="45.95846" lon="6.85094">
        <ele>2295</ele>
        <time>2026-08-04T07:56:40.278Z</time>
      </trkpt>
      <trkpt lat="45.95846" lon="6.85093">
        <ele>2295</ele>
        <time>2026-08-04T07:56:41.278Z</time>
      </trkpt>
      <trkpt lat="45.95846" lon="6.85092">
        <ele>2295</ele>
        <time>2026-08-04T07:56:42.278Z</time>
      </trkpt>
      <trkpt lat="45.95846" lon="6.85092">
        <ele>2294</ele>
        <time>2026-08-04T07:56:43.278Z</time>
      </trkpt>
      <trkpt lat="45.95847" lon="6.85092">
        <ele>2294</ele>
        <time>2026-08-04T07:56:44.278Z</time>
      </trkpt>
      <trkpt lat="45.95848" lon="6.85092">
        <ele>2294</ele>
        <time>2026-08-04T07:56:45.278Z</time>
      </trkpt>
      <trkpt lat="45.95848" lon="6.85092">
        <ele>2293</ele>
        <time>2026-08-04T07:56:46.278Z</time>
      </trkpt>
      <trkpt lat="45.95849" lon="6.85091">
        <ele>2293</ele>
        <time>2026-08-04T07:56:47.278Z</time>
      </trkpt>
      <trkpt lat="45.9585" lon="6.85091">
        <ele>2293</ele>
        <time>2026-08-04T07:56:48.278Z</time>
      </trkpt>
      <trkpt lat="45.95851" lon="6.8509">
        <ele>2293</ele>
        <time>2026-08-04T07:56:49.278Z</time>
      </trkpt>
      <trkpt lat="45.95852" lon="6.8509">
        <ele>2292</ele>
        <time>2026-08-04T07:56:50.278Z</time>
      </trkpt>
      <trkpt lat="45.95852" lon="6.8509">
        <ele>2292</ele>
        <time>2026-08-04T07:56:51.278Z</time>
      </trkpt>
      <trkpt lat="45.95852" lon="6.85089">
        <ele>2292</ele>
        <time>2026-08-04T07:56:52.278Z</time>
      </trkpt>
      <trkpt lat="45.95853" lon="6.85089">
        <ele>2292</ele>
        <time>2026-08-04T07:56:53.278Z</time>
      </trkpt>
      <trkpt lat="45.95853" lon="6.85088">
        <ele>2293</ele>
        <time>2026-08-04T07:56:54.278Z</time>
      </trkpt>
      <trkpt lat="45.95853" lon="6.85087">
        <ele>2293</ele>
        <time>2026-08-04T07:56:55.278Z</time>
      </trkpt>
      <trkpt lat="45.95854" lon="6.85086">
        <ele>2293</ele>
        <time>2026-08-04T07:56:56.278Z</time>
      </trkpt>
      <trkpt lat="45.95855" lon="6.85086">
        <ele>2293</ele>
        <time>2026-08-04T07:56:57.278Z</time>
      </trkpt>
      <trkpt lat="45.95856" lon="6.85086">
        <ele>2292</ele>
        <time>2026-08-04T07:56:58.278Z</time>
      </trkpt>
      <trkpt lat="45.95856" lon="6.85086">
        <ele>2292</ele>
        <time>2026-08-04T07:56:59.278Z</time>
      </trkpt>
      <trkpt lat="45.95856" lon="6.85086">
        <ele>2293</ele>
        <time>2026-08-04T07:57:00.278Z</time>
      </trkpt>
      <trkpt lat="45.95856" lon="6.85086">
        <ele>2293</ele>
        <time>2026-08-04T07:57:01.278Z</time>
      </trkpt>
      <trkpt lat="45.95856" lon="6.85086">
        <ele>2293</ele>
        <time>2026-08-04T07:57:02.278Z</time>
      </trkpt>
      <trkpt lat="45.95856" lon="6.85086">
        <ele>2293</ele>
        <time>2026-08-04T07:57:03.278Z</time>
      </trkpt>
      <trkpt lat="45.95856" lon="6.85086">
        <ele>2293</ele>
        <time>2026-08-04T07:57:04.278Z</time>
      </trkpt>
      <trkpt lat="45.95856" lon="6.85086">
        <ele>2293</ele>
        <time>2026-08-04T07:57:05.278Z</time>
      </trkpt>
      <trkpt lat="45.95856" lon="6.85086">
        <ele>2293</ele>
        <time>2026-08-04T07:57:06.278Z</time>
      </trkpt>
      <trkpt lat="45.95857" lon="6.85086">
        <ele>2293</ele>
        <time>2026-08-04T07:57:07.278Z</time>
      </trkpt>
      <trkpt lat="45.95857" lon="6.85087">
        <ele>2293</ele>
        <time>2026-08-04T07:57:08.278Z</time>
      </trkpt>
      <trkpt lat="45.95857" lon="6.85087">
        <ele>2292</ele>
        <time>2026-08-04T07:57:09.278Z</time>
      </trkpt>
      <trkpt lat="45.95857" lon="6.85087">
        <ele>2292</ele>
        <time>2026-08-04T07:57:10.278Z</time>
      </trkpt>
      <trkpt lat="45.95857" lon="6.85087">
        <ele>2292</ele>
        <time>2026-08-04T07:57:11.278Z</time>
      </trkpt>
      <trkpt lat="45.95857" lon="6.85087">
        <ele>2292</ele>
        <time>2026-08-04T07:57:12.278Z</time>
      </trkpt>
      <trkpt lat="45.95857" lon="6.85087">
        <ele>2292</ele>
        <time>2026-08-04T07:57:13.278Z</time>
      </trkpt>
      <trkpt lat="45.95857" lon="6.85087">
        <ele>2292</ele>
        <time>2026-08-04T07:57:14.278Z</time>
      </trkpt>
      <trkpt lat="45.95857" lon="6.85087">
        <ele>2292</ele>
        <time>2026-08-04T07:57:15.278Z</time>
      </trkpt>
      <trkpt lat="45.95857" lon="6.85087">
        <ele>2292</ele>
        <time>2026-08-04T07:57:16.278Z</time>
      </trkpt>
      <trkpt lat="45.95857" lon="6.85087">
        <ele>2292</ele>
        <time>2026-08-04T07:57:17.278Z</time>
      </trkpt>
      <trkpt lat="45.95857" lon="6.85087">
        <ele>2292</ele>
        <time>2026-08-04T07:57:18.278Z</time>
      </trkpt>
      <trkpt lat="45.95857" lon="6.85087">
        <ele>2292</ele>
        <time>2026-08-04T07:57:19.278Z</time>
      </trkpt>
      <trkpt lat="45.95857" lon="6.85087">
        <ele>2292</ele>
        <time>2026-08-04T07:57:20.278Z</time>
      </trkpt>
      <trkpt lat="45.95857" lon="6.85087">
        <ele>2292</ele>
        <time>2026-08-04T07:57:21.278Z</time>
      </trkpt>
      <trkpt lat="45.95857" lon="6.85087">
        <ele>2292</ele>
        <time>2026-08-04T07:57:22.278Z</time>
      </trkpt>
      <trkpt lat="45.95857" lon="6.85087">
        <ele>2292</ele>
        <time>2026-08-04T07:57:23.278Z</time>
      </trkpt>
      <trkpt lat="45.95857" lon="6.85087">
        <ele>2292</ele>
        <time>2026-08-04T07:57:24.278Z</time>
      </trkpt>
      <trkpt lat="45.95857" lon="6.85087">
        <ele>2292</ele>
        <time>2026-08-04T07:57:25.278Z</time>
      </trkpt>
      <trkpt lat="45.95857" lon="6.85087">
        <ele>2292</ele>
        <time>2026-08-04T07:57:26.278Z</time>
      </trkpt>
      <trkpt lat="45.95857" lon="6.85087">
        <ele>2292</ele>
        <time>2026-08-04T07:57:27.278Z</time>
      </trkpt>
      <trkpt lat="45.95857" lon="6.85087">
        <ele>2292</ele>
        <time>2026-08-04T07:57:28.278Z</time>
      </trkpt>
      <trkpt lat="45.95857" lon="6.85087">
        <ele>2292</ele>
        <time>2026-08-04T07:57:29.278Z</time>
      </trkpt>
      <trkpt lat="45.95857" lon="6.85087">
        <ele>2292</ele>
        <time>2026-08-04T07:57:30.278Z</time>
      </trkpt>
      <trkpt lat="45.95857" lon="6.85087">
        <ele>2292</ele>
        <time>2026-08-04T07:57:31.278Z</time>
      </trkpt>
      <trkpt lat="45.95857" lon="6.85087">
        <ele>2292</ele>
        <time>2026-08-04T07:57:32.278Z</time>
      </trkpt>
      <trkpt lat="45.95857" lon="6.85087">
        <ele>2292</ele>
        <time>2026-08-04T07:57:33.278Z</time>
      </trkpt>
      <trkpt lat="45.95857" lon="6.85087">
        <ele>2292</ele>
        <time>2026-08-04T07:57:34.278Z</time>
      </trkpt>
      <trkpt lat="45.95857" lon="6.85087">
        <ele>2292</ele>
        <time>2026-08-04T07:57:35.278Z</time>
      </trkpt>
      <trkpt lat="45.95857" lon="6.85087">
        <ele>2292</ele>
        <time>2026-08-04T07:57:36.278Z</time>
      </trkpt>
      <trkpt lat="45.95858" lon="6.85087">
        <ele>2292</ele>
        <time>2026-08-04T07:57:37.278Z</time>
      </trkpt>
      <trkpt lat="45.95858" lon="6.85086">
        <ele>2292</ele>
        <time>2026-08-04T07:57:38.278Z</time>
      </trkpt>
      <trkpt lat="45.9586" lon="6.85086">
        <ele>2292</ele>
        <time>2026-08-04T07:57:39.278Z</time>
      </trkpt>
      <trkpt lat="45.95861" lon="6.85086">
        <ele>2292</ele>
        <time>2026-08-04T07:57:40.278Z</time>
      </trkpt>
      <trkpt lat="45.95862" lon="6.85086">
        <ele>2292</ele>
        <time>2026-08-04T07:57:41.278Z</time>
      </trkpt>
      <trkpt lat="45.95864" lon="6.85087">
        <ele>2292</ele>
        <time>2026-08-04T07:57:42.278Z</time>
      </trkpt>
      <trkpt lat="45.95865" lon="6.85087">
        <ele>2291</ele>
        <time>2026-08-04T07:57:43.278Z</time>
      </trkpt>
      <trkpt lat="45.95866" lon="6.85086">
        <ele>2291</ele>
        <time>2026-08-04T07:57:44.278Z</time>
      </trkpt>
      <trkpt lat="45.95868" lon="6.85085">
        <ele>2291</ele>
        <time>2026-08-04T07:57:45.279Z</time>
      </trkpt>
      <trkpt lat="45.95869" lon="6.85084">
        <ele>2290</ele>
        <time>2026-08-04T07:57:46.278Z</time>
      </trkpt>
      <trkpt lat="45.9587" lon="6.85083">
        <ele>2290</ele>
        <time>2026-08-04T07:57:47.278Z</time>
      </trkpt>
      <trkpt lat="45.95871" lon="6.85082">
        <ele>2290</ele>
        <time>2026-08-04T07:57:48.278Z</time>
      </trkpt>
      <trkpt lat="45.95871" lon="6.85081">
        <ele>2290</ele>
        <time>2026-08-04T07:57:49.278Z</time>
      </trkpt>
      <trkpt lat="45.95872" lon="6.8508">
        <ele>2290</ele>
        <time>2026-08-04T07:57:50.278Z</time>
      </trkpt>
      <trkpt lat="45.95872" lon="6.85079">
        <ele>2291</ele>
        <time>2026-08-04T07:57:51.278Z</time>
      </trkpt>
      <trkpt lat="45.95873" lon="6.85078">
        <ele>2291</ele>
        <time>2026-08-04T07:57:52.278Z</time>
      </trkpt>
      <trkpt lat="45.95874" lon="6.85077">
        <ele>2291</ele>
        <time>2026-08-04T07:57:53.278Z</time>
      </trkpt>
      <trkpt lat="45.95875" lon="6.85077">
        <ele>2292</ele>
        <time>2026-08-04T07:57:54.278Z</time>
      </trkpt>
      <trkpt lat="45.95876" lon="6.85077">
        <ele>2292</ele>
        <time>2026-08-04T07:57:55.278Z</time>
      </trkpt>
      <trkpt lat="45.95877" lon="6.85078">
        <ele>2292</ele>
        <time>2026-08-04T07:57:56.278Z</time>
      </trkpt>
      <trkpt lat="45.95879" lon="6.85077">
        <ele>2292</ele>
        <time>2026-08-04T07:57:57.278Z</time>
      </trkpt>
      <trkpt lat="45.9588" lon="6.85077">
        <ele>2292</ele>
        <time>2026-08-04T07:57:58.278Z</time>
      </trkpt>
      <trkpt lat="45.95882" lon="6.85076">
        <ele>2293</ele>
        <time>2026-08-04T07:57:59.278Z</time>
      </trkpt>
      <trkpt lat="45.95883" lon="6.85075">
        <ele>2293</ele>
        <time>2026-08-04T07:58:00.278Z</time>
      </trkpt>
      <trkpt lat="45.95883" lon="6.85074">
        <ele>2293</ele>
        <time>2026-08-04T07:58:01.278Z</time>
      </trkpt>
      <trkpt lat="45.95884" lon="6.85073">
        <ele>2293</ele>
        <time>2026-08-04T07:58:02.278Z</time>
      </trkpt>
      <trkpt lat="45.95885" lon="6.85072">
        <ele>2293</ele>
        <time>2026-08-04T07:58:03.278Z</time>
      </trkpt>
      <trkpt lat="45.95886" lon="6.85071">
        <ele>2293</ele>
        <time>2026-08-04T07:58:04.278Z</time>
      </trkpt>
      <trkpt lat="45.95887" lon="6.8507">
        <ele>2293</ele>
        <time>2026-08-04T07:58:05.278Z</time>
      </trkpt>
      <trkpt lat="45.95889" lon="6.8507">
        <ele>2293</ele>
        <time>2026-08-04T07:58:06.278Z</time>
      </trkpt>
      <trkpt lat="45.9589" lon="6.85071">
        <ele>2293</ele>
        <time>2026-08-04T07:58:07.278Z</time>
      </trkpt>
      <trkpt lat="45.95891" lon="6.85072">
        <ele>2292</ele>
        <time>2026-08-04T07:58:08.278Z</time>
      </trkpt>
      <trkpt lat="45.95891" lon="6.85071">
        <ele>2292</ele>
        <time>2026-08-04T07:58:09.278Z</time>
      </trkpt>
      <trkpt lat="45.95891" lon="6.85071">
        <ele>2292</ele>
        <time>2026-08-04T07:58:10.278Z</time>
      </trkpt>
      <trkpt lat="45.95892" lon="6.8507">
        <ele>2292</ele>
        <time>2026-08-04T07:58:11.278Z</time>
      </trkpt>
      <trkpt lat="45.95892" lon="6.8507">
        <ele>2292</ele>
        <time>2026-08-04T07:58:12.278Z</time>
      </trkpt>
      <trkpt lat="45.95892" lon="6.8507">
        <ele>2292</ele>
        <time>2026-08-04T07:58:13.278Z</time>
      </trkpt>
      <trkpt lat="45.95893" lon="6.85069">
        <ele>2292</ele>
        <time>2026-08-04T07:58:14.278Z</time>
      </trkpt>
      <trkpt lat="45.95893" lon="6.85069">
        <ele>2292</ele>
        <time>2026-08-04T07:58:15.278Z</time>
      </trkpt>
      <trkpt lat="45.95893" lon="6.85069">
        <ele>2292</ele>
        <time>2026-08-04T07:58:16.278Z</time>
      </trkpt>
      <trkpt lat="45.95893" lon="6.85069">
        <ele>2292</ele>
        <time>2026-08-04T07:58:17.278Z</time>
      </trkpt>
      <trkpt lat="45.95892" lon="6.85068">
        <ele>2293</ele>
        <time>2026-08-04T07:58:18.278Z</time>
      </trkpt>
      <trkpt lat="45.95892" lon="6.85067">
        <ele>2293</ele>
        <time>2026-08-04T07:58:19.278Z</time>
      </trkpt>
      <trkpt lat="45.95892" lon="6.85067">
        <ele>2293</ele>
        <time>2026-08-04T07:58:20.278Z</time>
      </trkpt>
      <trkpt lat="45.95892" lon="6.85066">
        <ele>2293</ele>
        <time>2026-08-04T07:58:21.278Z</time>
      </trkpt>
      <trkpt lat="45.95892" lon="6.85065">
        <ele>2292</ele>
        <time>2026-08-04T07:58:22.278Z</time>
      </trkpt>
      <trkpt lat="45.95892" lon="6.85064">
        <ele>2292</ele>
        <time>2026-08-04T07:58:23.278Z</time>
      </trkpt>
      <trkpt lat="45.95893" lon="6.85064">
        <ele>2292</ele>
        <time>2026-08-04T07:58:24.278Z</time>
      </trkpt>
      <trkpt lat="45.95893" lon="6.85063">
        <ele>2291</ele>
        <time>2026-08-04T07:58:25.278Z</time>
      </trkpt>
      <trkpt lat="45.95894" lon="6.85063">
        <ele>2291</ele>
        <time>2026-08-04T07:58:26.278Z</time>
      </trkpt>
      <trkpt lat="45.95894" lon="6.85062">
        <ele>2291</ele>
        <time>2026-08-04T07:58:27.278Z</time>
      </trkpt>
      <trkpt lat="45.95895" lon="6.85061">
        <ele>2291</ele>
        <time>2026-08-04T07:58:28.278Z</time>
      </trkpt>
      <trkpt lat="45.95896" lon="6.8506">
        <ele>2290</ele>
        <time>2026-08-04T07:58:29.278Z</time>
      </trkpt>
      <trkpt lat="45.95897" lon="6.85059">
        <ele>2290</ele>
        <time>2026-08-04T07:58:30.278Z</time>
      </trkpt>
      <trkpt lat="45.95898" lon="6.85059">
        <ele>2290</ele>
        <time>2026-08-04T07:58:31.278Z</time>
      </trkpt>
      <trkpt lat="45.95899" lon="6.85059">
        <ele>2290</ele>
        <time>2026-08-04T07:58:32.278Z</time>
      </trkpt>
      <trkpt lat="45.959" lon="6.85059">
        <ele>2290</ele>
        <time>2026-08-04T07:58:33.278Z</time>
      </trkpt>
      <trkpt lat="45.959" lon="6.85059">
        <ele>2290</ele>
        <time>2026-08-04T07:58:34.278Z</time>
      </trkpt>
      <trkpt lat="45.95902" lon="6.85059">
        <ele>2290</ele>
        <time>2026-08-04T07:58:35.278Z</time>
      </trkpt>
      <trkpt lat="45.95902" lon="6.85058">
        <ele>2290</ele>
        <time>2026-08-04T07:58:36.278Z</time>
      </trkpt>
      <trkpt lat="45.95903" lon="6.85058">
        <ele>2290</ele>
        <time>2026-08-04T07:58:37.278Z</time>
      </trkpt>
      <trkpt lat="45.95904" lon="6.85057">
        <ele>2290</ele>
        <time>2026-08-04T07:58:38.278Z</time>
      </trkpt>
      <trkpt lat="45.95905" lon="6.85057">
        <ele>2290</ele>
        <time>2026-08-04T07:58:39.278Z</time>
      </trkpt>
      <trkpt lat="45.95906" lon="6.85056">
        <ele>2290</ele>
        <time>2026-08-04T07:58:40.278Z</time>
      </trkpt>
      <trkpt lat="45.95906" lon="6.85055">
        <ele>2290</ele>
        <time>2026-08-04T07:58:41.278Z</time>
      </trkpt>
      <trkpt lat="45.95907" lon="6.85055">
        <ele>2290</ele>
        <time>2026-08-04T07:58:42.278Z</time>
      </trkpt>
      <trkpt lat="45.95908" lon="6.85054">
        <ele>2291</ele>
        <time>2026-08-04T07:58:43.278Z</time>
      </trkpt>
      <trkpt lat="45.95908" lon="6.85054">
        <ele>2291</ele>
        <time>2026-08-04T07:58:44.278Z</time>
      </trkpt>
      <trkpt lat="45.95909" lon="6.85053">
        <ele>2291</ele>
        <time>2026-08-04T07:58:45.278Z</time>
      </trkpt>
      <trkpt lat="45.95909" lon="6.85053">
        <ele>2292</ele>
        <time>2026-08-04T07:58:46.278Z</time>
      </trkpt>
      <trkpt lat="45.9591" lon="6.85052">
        <ele>2292</ele>
        <time>2026-08-04T07:58:47.278Z</time>
      </trkpt>
      <trkpt lat="45.9591" lon="6.85051">
        <ele>2292</ele>
        <time>2026-08-04T07:58:48.278Z</time>
      </trkpt>
      <trkpt lat="45.9591" lon="6.85049">
        <ele>2292</ele>
        <time>2026-08-04T07:58:49.278Z</time>
      </trkpt>
      <trkpt lat="45.95911" lon="6.85047">
        <ele>2292</ele>
        <time>2026-08-04T07:58:50.278Z</time>
      </trkpt>
      <trkpt lat="45.95911" lon="6.85045">
        <ele>2292</ele>
        <time>2026-08-04T07:58:51.278Z</time>
      </trkpt>
      <trkpt lat="45.95911" lon="6.85042">
        <ele>2293</ele>
        <time>2026-08-04T07:58:52.278Z</time>
      </trkpt>
      <trkpt lat="45.95912" lon="6.8504">
        <ele>2293</ele>
        <time>2026-08-04T07:58:53.278Z</time>
      </trkpt>
      <trkpt lat="45.95912" lon="6.85038">
        <ele>2292</ele>
        <time>2026-08-04T07:58:54.278Z</time>
      </trkpt>
      <trkpt lat="45.95913" lon="6.85037">
        <ele>2292</ele>
        <time>2026-08-04T07:58:55.278Z</time>
      </trkpt>
      <trkpt lat="45.95914" lon="6.85036">
        <ele>2293</ele>
        <time>2026-08-04T07:58:56.278Z</time>
      </trkpt>
      <trkpt lat="45.95915" lon="6.85036">
        <ele>2293</ele>
        <time>2026-08-04T07:58:57.278Z</time>
      </trkpt>
      <trkpt lat="45.95916" lon="6.85037">
        <ele>2293</ele>
        <time>2026-08-04T07:58:58.278Z</time>
      </trkpt>
      <trkpt lat="45.95917" lon="6.85037">
        <ele>2293</ele>
        <time>2026-08-04T07:58:59.278Z</time>
      </trkpt>
      <trkpt lat="45.95917" lon="6.85038">
        <ele>2293</ele>
        <time>2026-08-04T07:59:00.278Z</time>
      </trkpt>
      <trkpt lat="45.95918" lon="6.85038">
        <ele>2294</ele>
        <time>2026-08-04T07:59:01.278Z</time>
      </trkpt>
      <trkpt lat="45.95918" lon="6.85038">
        <ele>2294</ele>
        <time>2026-08-04T07:59:02.278Z</time>
      </trkpt>
      <trkpt lat="45.95918" lon="6.85036">
        <ele>2294</ele>
        <time>2026-08-04T07:59:03.278Z</time>
      </trkpt>
      <trkpt lat="45.95919" lon="6.85035">
        <ele>2294</ele>
        <time>2026-08-04T07:59:04.278Z</time>
      </trkpt>
      <trkpt lat="45.95919" lon="6.85033">
        <ele>2294</ele>
        <time>2026-08-04T07:59:05.278Z</time>
      </trkpt>
      <trkpt lat="45.95919" lon="6.85032">
        <ele>2294</ele>
        <time>2026-08-04T07:59:06.278Z</time>
      </trkpt>
      <trkpt lat="45.9592" lon="6.85032">
        <ele>2294</ele>
        <time>2026-08-04T07:59:07.278Z</time>
      </trkpt>
      <trkpt lat="45.9592" lon="6.85032">
        <ele>2293</ele>
        <time>2026-08-04T07:59:08.278Z</time>
      </trkpt>
      <trkpt lat="45.9592" lon="6.85031">
        <ele>2293</ele>
        <time>2026-08-04T07:59:09.278Z</time>
      </trkpt>
      <trkpt lat="45.9592" lon="6.85031">
        <ele>2292</ele>
        <time>2026-08-04T07:59:10.278Z</time>
      </trkpt>
      <trkpt lat="45.9592" lon="6.85031">
        <ele>2292</ele>
        <time>2026-08-04T07:59:11.278Z</time>
      </trkpt>
      <trkpt lat="45.9592" lon="6.85031">
        <ele>2292</ele>
        <time>2026-08-04T07:59:12.278Z</time>
      </trkpt>
      <trkpt lat="45.9592" lon="6.85031">
        <ele>2292</ele>
        <time>2026-08-04T07:59:13.278Z</time>
      </trkpt>
      <trkpt lat="45.95921" lon="6.85031">
        <ele>2292</ele>
        <time>2026-08-04T07:59:14.278Z</time>
      </trkpt>
      <trkpt lat="45.95921" lon="6.85031">
        <ele>2292</ele>
        <time>2026-08-04T07:59:15.278Z</time>
      </trkpt>
      <trkpt lat="45.95921" lon="6.85031">
        <ele>2292</ele>
        <time>2026-08-04T07:59:16.278Z</time>
      </trkpt>
      <trkpt lat="45.95921" lon="6.8503">
        <ele>2292</ele>
        <time>2026-08-04T07:59:17.278Z</time>
      </trkpt>
      <trkpt lat="45.95921" lon="6.8503">
        <ele>2292</ele>
        <time>2026-08-04T07:59:18.278Z</time>
      </trkpt>
      <trkpt lat="45.95921" lon="6.85029">
        <ele>2292</ele>
        <time>2026-08-04T07:59:19.278Z</time>
      </trkpt>
      <trkpt lat="45.95921" lon="6.85028">
        <ele>2292</ele>
        <time>2026-08-04T07:59:20.278Z</time>
      </trkpt>
      <trkpt lat="45.95922" lon="6.85028">
        <ele>2291</ele>
        <time>2026-08-04T07:59:21.278Z</time>
      </trkpt>
      <trkpt lat="45.95922" lon="6.85028">
        <ele>2292</ele>
        <time>2026-08-04T07:59:22.278Z</time>
      </trkpt>
      <trkpt lat="45.95922" lon="6.85028">
        <ele>2292</ele>
        <time>2026-08-04T07:59:23.278Z</time>
      </trkpt>
      <trkpt lat="45.95922" lon="6.85028">
        <ele>2292</ele>
        <time>2026-08-04T07:59:24.278Z</time>
      </trkpt>
      <trkpt lat="45.95922" lon="6.85028">
        <ele>2292</ele>
        <time>2026-08-04T07:59:25.278Z</time>
      </trkpt>
      <trkpt lat="45.95922" lon="6.85028">
        <ele>2292</ele>
        <time>2026-08-04T07:59:26.278Z</time>
      </trkpt>
      <trkpt lat="45.95922" lon="6.85028">
        <ele>2291</ele>
        <time>2026-08-04T07:59:27.278Z</time>
      </trkpt>
      <trkpt lat="45.95922" lon="6.85028">
        <ele>2291</ele>
        <time>2026-08-04T07:59:28.278Z</time>
      </trkpt>
      <trkpt lat="45.95922" lon="6.85028">
        <ele>2291</ele>
        <time>2026-08-04T07:59:29.278Z</time>
      </trkpt>
      <trkpt lat="45.95922" lon="6.85028">
        <ele>2290</ele>
        <time>2026-08-04T07:59:30.278Z</time>
      </trkpt>
      <trkpt lat="45.95923" lon="6.85028">
        <ele>2290</ele>
        <time>2026-08-04T07:59:31.278Z</time>
      </trkpt>
      <trkpt lat="45.95923" lon="6.85028">
        <ele>2290</ele>
        <time>2026-08-04T07:59:32.278Z</time>
      </trkpt>
      <trkpt lat="45.95923" lon="6.85028">
        <ele>2290</ele>
        <time>2026-08-04T07:59:33.278Z</time>
      </trkpt>
      <trkpt lat="45.95924" lon="6.85028">
        <ele>2289</ele>
        <time>2026-08-04T07:59:34.278Z</time>
      </trkpt>
      <trkpt lat="45.95924" lon="6.85027">
        <ele>2289</ele>
        <time>2026-08-04T07:59:35.278Z</time>
      </trkpt>
      <trkpt lat="45.95924" lon="6.85027">
        <ele>2288</ele>
        <time>2026-08-04T07:59:36.278Z</time>
      </trkpt>
      <trkpt lat="45.95924" lon="6.85026">
        <ele>2288</ele>
        <time>2026-08-04T07:59:37.278Z</time>
      </trkpt>
      <trkpt lat="45.95923" lon="6.85025">
        <ele>2288</ele>
        <time>2026-08-04T07:59:38.278Z</time>
      </trkpt>
      <trkpt lat="45.95923" lon="6.85025">
        <ele>2287</ele>
        <time>2026-08-04T07:59:39.278Z</time>
      </trkpt>
      <trkpt lat="45.95922" lon="6.85024">
        <ele>2287</ele>
        <time>2026-08-04T07:59:40.278Z</time>
      </trkpt>
      <trkpt lat="45.95922" lon="6.85023">
        <ele>2287</ele>
        <time>2026-08-04T07:59:41.278Z</time>
      </trkpt>
      <trkpt lat="45.95922" lon="6.85022">
        <ele>2287</ele>
        <time>2026-08-04T07:59:42.278Z</time>
      </trkpt>
      <trkpt lat="45.95922" lon="6.85021">
        <ele>2287</ele>
        <time>2026-08-04T07:59:43.278Z</time>
      </trkpt>
      <trkpt lat="45.95922" lon="6.8502">
        <ele>2287</ele>
        <time>2026-08-04T07:59:44.278Z</time>
      </trkpt>
      <trkpt lat="45.95922" lon="6.85019">
        <ele>2287</ele>
        <time>2026-08-04T07:59:45.278Z</time>
      </trkpt>
      <trkpt lat="45.95922" lon="6.85019">
        <ele>2287</ele>
        <time>2026-08-04T07:59:46.278Z</time>
      </trkpt>
      <trkpt lat="45.95922" lon="6.85018">
        <ele>2287</ele>
        <time>2026-08-04T07:59:47.278Z</time>
      </trkpt>
      <trkpt lat="45.95923" lon="6.85016">
        <ele>2286</ele>
        <time>2026-08-04T07:59:48.278Z</time>
      </trkpt>
      <trkpt lat="45.95924" lon="6.85015">
        <ele>2286</ele>
        <time>2026-08-04T07:59:49.278Z</time>
      </trkpt>
      <trkpt lat="45.95925" lon="6.85013">
        <ele>2286</ele>
        <time>2026-08-04T07:59:50.278Z</time>
      </trkpt>
      <trkpt lat="45.95925" lon="6.85012">
        <ele>2286</ele>
        <time>2026-08-04T07:59:51.278Z</time>
      </trkpt>
      <trkpt lat="45.95926" lon="6.8501">
        <ele>2286</ele>
        <time>2026-08-04T07:59:52.278Z</time>
      </trkpt>
      <trkpt lat="45.95927" lon="6.85009">
        <ele>2286</ele>
        <time>2026-08-04T07:59:53.278Z</time>
      </trkpt>
      <trkpt lat="45.95927" lon="6.85007">
        <ele>2286</ele>
        <time>2026-08-04T07:59:54.278Z</time>
      </trkpt>
      <trkpt lat="45.95927" lon="6.85006">
        <ele>2285</ele>
        <time>2026-08-04T07:59:55.278Z</time>
      </trkpt>
      <trkpt lat="45.95927" lon="6.85004">
        <ele>2285</ele>
        <time>2026-08-04T07:59:56.278Z</time>
      </trkpt>
      <trkpt lat="45.95928" lon="6.85003">
        <ele>2284</ele>
        <time>2026-08-04T07:59:57.278Z</time>
      </trkpt>
      <trkpt lat="45.95929" lon="6.85001">
        <ele>2284</ele>
        <time>2026-08-04T07:59:58.278Z</time>
      </trkpt>
      <trkpt lat="45.95929" lon="6.84999">
        <ele>2284</ele>
        <time>2026-08-04T07:59:59.278Z</time>
      </trkpt>
      <trkpt lat="45.95929" lon="6.84997">
        <ele>2284</ele>
        <time>2026-08-04T08:00:00.278Z</time>
      </trkpt>
      <trkpt lat="45.95929" lon="6.84995">
        <ele>2283</ele>
        <time>2026-08-04T08:00:01.278Z</time>
      </trkpt>
      <trkpt lat="45.95928" lon="6.84993">
        <ele>2283</ele>
        <time>2026-08-04T08:00:02.278Z</time>
      </trkpt>
      <trkpt lat="45.95928" lon="6.84991">
        <ele>2283</ele>
        <time>2026-08-04T08:00:03.278Z</time>
      </trkpt>
      <trkpt lat="45.95927" lon="6.84989">
        <ele>2283</ele>
        <time>2026-08-04T08:00:04.278Z</time>
      </trkpt>
      <trkpt lat="45.95926" lon="6.84988">
        <ele>2283</ele>
        <time>2026-08-04T08:00:05.278Z</time>
      </trkpt>
      <trkpt lat="45.95925" lon="6.84986">
        <ele>2284</ele>
        <time>2026-08-04T08:00:06.278Z</time>
      </trkpt>
      <trkpt lat="45.95924" lon="6.84985">
        <ele>2284</ele>
        <time>2026-08-04T08:00:07.278Z</time>
      </trkpt>
      <trkpt lat="45.95924" lon="6.84983">
        <ele>2284</ele>
        <time>2026-08-04T08:00:08.278Z</time>
      </trkpt>
      <trkpt lat="45.95923" lon="6.84981">
        <ele>2284</ele>
        <time>2026-08-04T08:00:09.278Z</time>
      </trkpt>
      <trkpt lat="45.95922" lon="6.8498">
        <ele>2284</ele>
        <time>2026-08-04T08:00:10.278Z</time>
      </trkpt>
      <trkpt lat="45.95922" lon="6.84978">
        <ele>2284</ele>
        <time>2026-08-04T08:00:11.278Z</time>
      </trkpt>
      <trkpt lat="45.95921" lon="6.84976">
        <ele>2283</ele>
        <time>2026-08-04T08:00:12.278Z</time>
      </trkpt>
      <trkpt lat="45.9592" lon="6.84975">
        <ele>2283</ele>
        <time>2026-08-04T08:00:13.278Z</time>
      </trkpt>
      <trkpt lat="45.95919" lon="6.84973">
        <ele>2283</ele>
        <time>2026-08-04T08:00:14.278Z</time>
      </trkpt>
      <trkpt lat="45.95919" lon="6.84971">
        <ele>2283</ele>
        <time>2026-08-04T08:00:15.278Z</time>
      </trkpt>
      <trkpt lat="45.95918" lon="6.8497">
        <ele>2283</ele>
        <time>2026-08-04T08:00:16.278Z</time>
      </trkpt>
      <trkpt lat="45.95917" lon="6.84968">
        <ele>2283</ele>
        <time>2026-08-04T08:00:17.278Z</time>
      </trkpt>
      <trkpt lat="45.95916" lon="6.84967">
        <ele>2282</ele>
        <time>2026-08-04T08:00:18.278Z</time>
      </trkpt>
      <trkpt lat="45.95915" lon="6.84965">
        <ele>2282</ele>
        <time>2026-08-04T08:00:19.278Z</time>
      </trkpt>
      <trkpt lat="45.95914" lon="6.84964">
        <ele>2282</ele>
        <time>2026-08-04T08:00:20.278Z</time>
      </trkpt>
      <trkpt lat="45.95913" lon="6.84963">
        <ele>2281</ele>
        <time>2026-08-04T08:00:21.278Z</time>
      </trkpt>
      <trkpt lat="45.95911" lon="6.8496">
        <ele>2281</ele>
        <time>2026-08-04T08:00:22.278Z</time>
      </trkpt>
      <trkpt lat="45.95911" lon="6.84959">
        <ele>2281</ele>
        <time>2026-08-04T08:00:23.278Z</time>
      </trkpt>
      <trkpt lat="45.9591" lon="6.84958">
        <ele>2281</ele>
        <time>2026-08-04T08:00:24.278Z</time>
      </trkpt>
      <trkpt lat="45.9591" lon="6.84958">
        <ele>2281</ele>
        <time>2026-08-04T08:00:25.278Z</time>
      </trkpt>
      <trkpt lat="45.9591" lon="6.84956">
        <ele>2280</ele>
        <time>2026-08-04T08:00:26.278Z</time>
      </trkpt>
      <trkpt lat="45.9591" lon="6.84956">
        <ele>2280</ele>
        <time>2026-08-04T08:00:27.278Z</time>
      </trkpt>
      <trkpt lat="45.9591" lon="6.84955">
        <ele>2281</ele>
        <time>2026-08-04T08:00:28.278Z</time>
      </trkpt>
      <trkpt lat="45.9591" lon="6.84955">
        <ele>2281</ele>
        <time>2026-08-04T08:00:29.278Z</time>
      </trkpt>
      <trkpt lat="45.95909" lon="6.84955">
        <ele>2281</ele>
        <time>2026-08-04T08:00:30.278Z</time>
      </trkpt>
      <trkpt lat="45.95909" lon="6.84955">
        <ele>2281</ele>
        <time>2026-08-04T08:00:31.278Z</time>
      </trkpt>
      <trkpt lat="45.95909" lon="6.84955">
        <ele>2281</ele>
        <time>2026-08-04T08:00:32.278Z</time>
      </trkpt>
      <trkpt lat="45.95909" lon="6.84955">
        <ele>2281</ele>
        <time>2026-08-04T08:00:33.278Z</time>
      </trkpt>
      <trkpt lat="45.95908" lon="6.84955">
        <ele>2281</ele>
        <time>2026-08-04T08:00:34.278Z</time>
      </trkpt>
      <trkpt lat="45.95908" lon="6.84955">
        <ele>2281</ele>
        <time>2026-08-04T08:00:35.278Z</time>
      </trkpt>
      <trkpt lat="45.95908" lon="6.84955">
        <ele>2281</ele>
        <time>2026-08-04T08:00:36.278Z</time>
      </trkpt>
      <trkpt lat="45.95908" lon="6.84955">
        <ele>2281</ele>
        <time>2026-08-04T08:00:37.278Z</time>
      </trkpt>
      <trkpt lat="45.95908" lon="6.84955">
        <ele>2280</ele>
        <time>2026-08-04T08:00:38.278Z</time>
      </trkpt>
      <trkpt lat="45.95908" lon="6.84954">
        <ele>2280</ele>
        <time>2026-08-04T08:00:39.278Z</time>
      </trkpt>
      <trkpt lat="45.95908" lon="6.84954">
        <ele>2279</ele>
        <time>2026-08-04T08:00:40.278Z</time>
      </trkpt>
      <trkpt lat="45.95908" lon="6.84954">
        <ele>2279</ele>
        <time>2026-08-04T08:00:41.278Z</time>
      </trkpt>
      <trkpt lat="45.95908" lon="6.84954">
        <ele>2278</ele>
        <time>2026-08-04T08:00:42.278Z</time>
      </trkpt>
      <trkpt lat="45.95908" lon="6.84954">
        <ele>2278</ele>
        <time>2026-08-04T08:00:43.278Z</time>
      </trkpt>
      <trkpt lat="45.95908" lon="6.84954">
        <ele>2278</ele>
        <time>2026-08-04T08:00:44.278Z</time>
      </trkpt>
      <trkpt lat="45.95908" lon="6.84954">
        <ele>2278</ele>
        <time>2026-08-04T08:00:45.278Z</time>
      </trkpt>
      <trkpt lat="45.95908" lon="6.84954">
        <ele>2278</ele>
        <time>2026-08-04T08:00:46.278Z</time>
      </trkpt>
      <trkpt lat="45.95908" lon="6.84955">
        <ele>2278</ele>
        <time>2026-08-04T08:00:47.278Z</time>
      </trkpt>
      <trkpt lat="45.95908" lon="6.84955">
        <ele>2278</ele>
        <time>2026-08-04T08:00:48.278Z</time>
      </trkpt>
      <trkpt lat="45.95908" lon="6.84955">
        <ele>2278</ele>
        <time>2026-08-04T08:00:49.278Z</time>
      </trkpt>
      <trkpt lat="45.95908" lon="6.84955">
        <ele>2278</ele>
        <time>2026-08-04T08:00:50.278Z</time>
      </trkpt>
      <trkpt lat="45.95908" lon="6.84955">
        <ele>2278</ele>
        <time>2026-08-04T08:00:51.278Z</time>
      </trkpt>
      <trkpt lat="45.95908" lon="6.84955">
        <ele>2278</ele>
        <time>2026-08-04T08:00:52.278Z</time>
      </trkpt>
      <trkpt lat="45.95908" lon="6.84955">
        <ele>2278</ele>
        <time>2026-08-04T08:00:53.278Z</time>
      </trkpt>
      <trkpt lat="45.95908" lon="6.84955">
        <ele>2278</ele>
        <time>2026-08-04T08:00:54.278Z</time>
      </trkpt>
      <trkpt lat="45.95908" lon="6.84955">
        <ele>2278</ele>
        <time>2026-08-04T08:00:55.278Z</time>
      </trkpt>
      <trkpt lat="45.95908" lon="6.84955">
        <ele>2279</ele>
        <time>2026-08-04T08:00:56.278Z</time>
      </trkpt>
      <trkpt lat="45.95908" lon="6.84955">
        <ele>2279</ele>
        <time>2026-08-04T08:00:57.278Z</time>
      </trkpt>
      <trkpt lat="45.95908" lon="6.84955">
        <ele>2279</ele>
        <time>2026-08-04T08:00:58.278Z</time>
      </trkpt>
      <trkpt lat="45.95908" lon="6.84955">
        <ele>2279</ele>
        <time>2026-08-04T08:00:59.278Z</time>
      </trkpt>
      <trkpt lat="45.95908" lon="6.84955">
        <ele>2279</ele>
        <time>2026-08-04T08:01:00.278Z</time>
      </trkpt>
      <trkpt lat="45.95908" lon="6.84955">
        <ele>2279</ele>
        <time>2026-08-04T08:01:01.278Z</time>
      </trkpt>
      <trkpt lat="45.95908" lon="6.84955">
        <ele>2279</ele>
        <time>2026-08-04T08:01:02.278Z</time>
      </trkpt>
      <trkpt lat="45.95908" lon="6.84955">
        <ele>2279</ele>
        <time>2026-08-04T08:01:03.278Z</time>
      </trkpt>
      <trkpt lat="45.95908" lon="6.84955">
        <ele>2279</ele>
        <time>2026-08-04T08:01:04.278Z</time>
      </trkpt>
      <trkpt lat="45.95908" lon="6.84955">
        <ele>2279</ele>
        <time>2026-08-04T08:01:05.278Z</time>
      </trkpt>
      <trkpt lat="45.95908" lon="6.84955">
        <ele>2279</ele>
        <time>2026-08-04T08:01:06.278Z</time>
      </trkpt>
      <trkpt lat="45.95908" lon="6.84955">
        <ele>2279</ele>
        <time>2026-08-04T08:01:07.278Z</time>
      </trkpt>
      <trkpt lat="45.95908" lon="6.84955">
        <ele>2279</ele>
        <time>2026-08-04T08:01:08.278Z</time>
      </trkpt>
      <trkpt lat="45.95908" lon="6.84955">
        <ele>2279</ele>
        <time>2026-08-04T08:01:09.278Z</time>
      </trkpt>
      <trkpt lat="45.95908" lon="6.84955">
        <ele>2279</ele>
        <time>2026-08-04T08:01:10.278Z</time>
      </trkpt>
      <trkpt lat="45.95908" lon="6.84955">
        <ele>2279</ele>
        <time>2026-08-04T08:01:11.278Z</time>
      </trkpt>
      <trkpt lat="45.95908" lon="6.84955">
        <ele>2279</ele>
        <time>2026-08-04T08:01:12.278Z</time>
      </trkpt>
      <trkpt lat="45.95908" lon="6.84955">
        <ele>2279</ele>
        <time>2026-08-04T08:01:13.278Z</time>
      </trkpt>
      <trkpt lat="45.95908" lon="6.84955">
        <ele>2279</ele>
        <time>2026-08-04T08:01:14.278Z</time>
      </trkpt>
      <trkpt lat="45.95908" lon="6.84955">
        <ele>2279</ele>
        <time>2026-08-04T08:01:15.278Z</time>
      </trkpt>
      <trkpt lat="45.95908" lon="6.84955">
        <ele>2279</ele>
        <time>2026-08-04T08:01:16.278Z</time>
      </trkpt>
      <trkpt lat="45.95908" lon="6.84955">
        <ele>2279</ele>
        <time>2026-08-04T08:01:17.278Z</time>
      </trkpt>
      <trkpt lat="45.95908" lon="6.84955">
        <ele>2279</ele>
        <time>2026-08-04T08:01:18.278Z</time>
      </trkpt>
      <trkpt lat="45.95908" lon="6.84955">
        <ele>2279</ele>
        <time>2026-08-04T08:01:19.278Z</time>
      </trkpt>
      <trkpt lat="45.95908" lon="6.84955">
        <ele>2279</ele>
        <time>2026-08-04T08:01:20.278Z</time>
      </trkpt>
      <trkpt lat="45.95908" lon="6.84954">
        <ele>2279</ele>
        <time>2026-08-04T08:01:21.278Z</time>
      </trkpt>
      <trkpt lat="45.95908" lon="6.84954">
        <ele>2279</ele>
        <time>2026-08-04T08:01:22.278Z</time>
      </trkpt>
      <trkpt lat="45.95908" lon="6.84954">
        <ele>2279</ele>
        <time>2026-08-04T08:01:23.278Z</time>
      </trkpt>
      <trkpt lat="45.95907" lon="6.84954">
        <ele>2279</ele>
        <time>2026-08-04T08:01:24.278Z</time>
      </trkpt>
      <trkpt lat="45.95907" lon="6.84953">
        <ele>2279</ele>
        <time>2026-08-04T08:01:25.278Z</time>
      </trkpt>
      <trkpt lat="45.95906" lon="6.84951">
        <ele>2279</ele>
        <time>2026-08-04T08:01:26.278Z</time>
      </trkpt>
      <trkpt lat="45.95906" lon="6.84949">
        <ele>2279</ele>
        <time>2026-08-04T08:01:27.278Z</time>
      </trkpt>
      <trkpt lat="45.95905" lon="6.84947">
        <ele>2279</ele>
        <time>2026-08-04T08:01:28.278Z</time>
      </trkpt>
      <trkpt lat="45.95905" lon="6.84944">
        <ele>2280</ele>
        <time>2026-08-04T08:01:29.278Z</time>
      </trkpt>
      <trkpt lat="45.95904" lon="6.84942">
        <ele>2280</ele>
        <time>2026-08-04T08:01:30.278Z</time>
      </trkpt>
      <trkpt lat="45.95904" lon="6.84941">
        <ele>2280</ele>
        <time>2026-08-04T08:01:31.278Z</time>
      </trkpt>
      <trkpt lat="45.95903" lon="6.84939">
        <ele>2280</ele>
        <time>2026-08-04T08:01:32.278Z</time>
      </trkpt>
      <trkpt lat="45.95902" lon="6.84938">
        <ele>2281</ele>
        <time>2026-08-04T08:01:33.278Z</time>
      </trkpt>
      <trkpt lat="45.95901" lon="6.84936">
        <ele>2281</ele>
        <time>2026-08-04T08:01:34.278Z</time>
      </trkpt>
      <trkpt lat="45.95901" lon="6.84936">
        <ele>2281</ele>
        <time>2026-08-04T08:01:35.278Z</time>
      </trkpt>
      <trkpt lat="45.959" lon="6.84935">
        <ele>2281</ele>
        <time>2026-08-04T08:01:36.278Z</time>
      </trkpt>
      <trkpt lat="45.959" lon="6.84934">
        <ele>2281</ele>
        <time>2026-08-04T08:01:37.278Z</time>
      </trkpt>
      <trkpt lat="45.95899" lon="6.84933">
        <ele>2282</ele>
        <time>2026-08-04T08:01:38.278Z</time>
      </trkpt>
      <trkpt lat="45.95899" lon="6.84931">
        <ele>2282</ele>
        <time>2026-08-04T08:01:39.278Z</time>
      </trkpt>
      <trkpt lat="45.95899" lon="6.8493">
        <ele>2282</ele>
        <time>2026-08-04T08:01:40.278Z</time>
      </trkpt>
      <trkpt lat="45.95899" lon="6.84929">
        <ele>2282</ele>
        <time>2026-08-04T08:01:41.278Z</time>
      </trkpt>
      <trkpt lat="45.95899" lon="6.84928">
        <ele>2282</ele>
        <time>2026-08-04T08:01:42.278Z</time>
      </trkpt>
      <trkpt lat="45.95899" lon="6.84927">
        <ele>2282</ele>
        <time>2026-08-04T08:01:43.278Z</time>
      </trkpt>
      <trkpt lat="45.95898" lon="6.84927">
        <ele>2282</ele>
        <time>2026-08-04T08:01:44.278Z</time>
      </trkpt>
      <trkpt lat="45.95898" lon="6.84927">
        <ele>2282</ele>
        <time>2026-08-04T08:01:45.278Z</time>
      </trkpt>
      <trkpt lat="45.95898" lon="6.84927">
        <ele>2282</ele>
        <time>2026-08-04T08:01:46.278Z</time>
      </trkpt>
      <trkpt lat="45.95898" lon="6.84927">
        <ele>2282</ele>
        <time>2026-08-04T08:01:47.278Z</time>
      </trkpt>
      <trkpt lat="45.95898" lon="6.84927">
        <ele>2282</ele>
        <time>2026-08-04T08:01:48.278Z</time>
      </trkpt>
      <trkpt lat="45.95898" lon="6.84926">
        <ele>2283</ele>
        <time>2026-08-04T08:01:49.278Z</time>
      </trkpt>
      <trkpt lat="45.95898" lon="6.84925">
        <ele>2283</ele>
        <time>2026-08-04T08:01:50.278Z</time>
      </trkpt>
      <trkpt lat="45.95897" lon="6.84923">
        <ele>2282</ele>
        <time>2026-08-04T08:01:51.278Z</time>
      </trkpt>
      <trkpt lat="45.95897" lon="6.84921">
        <ele>2282</ele>
        <time>2026-08-04T08:01:52.278Z</time>
      </trkpt>
      <trkpt lat="45.95897" lon="6.8492">
        <ele>2282</ele>
        <time>2026-08-04T08:01:53.278Z</time>
      </trkpt>
      <trkpt lat="45.95896" lon="6.84919">
        <ele>2281</ele>
        <time>2026-08-04T08:01:54.278Z</time>
      </trkpt>
      <trkpt lat="45.95896" lon="6.84917">
        <ele>2281</ele>
        <time>2026-08-04T08:01:55.278Z</time>
      </trkpt>
      <trkpt lat="45.95895" lon="6.84915">
        <ele>2281</ele>
        <time>2026-08-04T08:01:56.278Z</time>
      </trkpt>
      <trkpt lat="45.95894" lon="6.84913">
        <ele>2281</ele>
        <time>2026-08-04T08:01:57.278Z</time>
      </trkpt>
      <trkpt lat="45.95894" lon="6.84912">
        <ele>2281</ele>
        <time>2026-08-04T08:01:58.278Z</time>
      </trkpt>
      <trkpt lat="45.95893" lon="6.84911">
        <ele>2280</ele>
        <time>2026-08-04T08:01:59.278Z</time>
      </trkpt>
      <trkpt lat="45.95892" lon="6.84909">
        <ele>2281</ele>
        <time>2026-08-04T08:02:00.278Z</time>
      </trkpt>
      <trkpt lat="45.95891" lon="6.84908">
        <ele>2281</ele>
        <time>2026-08-04T08:02:01.278Z</time>
      </trkpt>
      <trkpt lat="45.9589" lon="6.84906">
        <ele>2280</ele>
        <time>2026-08-04T08:02:02.278Z</time>
      </trkpt>
      <trkpt lat="45.9589" lon="6.84905">
        <ele>2279</ele>
        <time>2026-08-04T08:02:03.278Z</time>
      </trkpt>
      <trkpt lat="45.9589" lon="6.84904">
        <ele>2279</ele>
        <time>2026-08-04T08:02:04.278Z</time>
      </trkpt>
      <trkpt lat="45.9589" lon="6.84904">
        <ele>2279</ele>
        <time>2026-08-04T08:02:05.278Z</time>
      </trkpt>
      <trkpt lat="45.95889" lon="6.84903">
        <ele>2278</ele>
        <time>2026-08-04T08:02:06.278Z</time>
      </trkpt>
      <trkpt lat="45.95889" lon="6.84902">
        <ele>2278</ele>
        <time>2026-08-04T08:02:07.278Z</time>
      </trkpt>
      <trkpt lat="45.95889" lon="6.84901">
        <ele>2278</ele>
        <time>2026-08-04T08:02:08.278Z</time>
      </trkpt>
      <trkpt lat="45.95889" lon="6.849">
        <ele>2278</ele>
        <time>2026-08-04T08:02:09.278Z</time>
      </trkpt>
      <trkpt lat="45.95888" lon="6.849">
        <ele>2278</ele>
        <time>2026-08-04T08:02:10.278Z</time>
      </trkpt>
      <trkpt lat="45.95888" lon="6.84899">
        <ele>2279</ele>
        <time>2026-08-04T08:02:11.278Z</time>
      </trkpt>
      <trkpt lat="45.95888" lon="6.84899">
        <ele>2279</ele>
        <time>2026-08-04T08:02:12.278Z</time>
      </trkpt>
      <trkpt lat="45.95887" lon="6.84898">
        <ele>2279</ele>
        <time>2026-08-04T08:02:13.278Z</time>
      </trkpt>
      <trkpt lat="45.95887" lon="6.84898">
        <ele>2279</ele>
        <time>2026-08-04T08:02:14.278Z</time>
      </trkpt>
      <trkpt lat="45.95887" lon="6.84897">
        <ele>2279</ele>
        <time>2026-08-04T08:02:15.278Z</time>
      </trkpt>
      <trkpt lat="45.95887" lon="6.84898">
        <ele>2279</ele>
        <time>2026-08-04T08:02:16.278Z</time>
      </trkpt>
      <trkpt lat="45.95887" lon="6.84898">
        <ele>2280</ele>
        <time>2026-08-04T08:02:17.278Z</time>
      </trkpt>
      <trkpt lat="45.95886" lon="6.84898">
        <ele>2280</ele>
        <time>2026-08-04T08:02:18.278Z</time>
      </trkpt>
      <trkpt lat="45.95886" lon="6.84898">
        <ele>2280</ele>
        <time>2026-08-04T08:02:19.278Z</time>
      </trkpt>
      <trkpt lat="45.95885" lon="6.84897">
        <ele>2280</ele>
        <time>2026-08-04T08:02:20.278Z</time>
      </trkpt>
      <trkpt lat="45.95884" lon="6.84896">
        <ele>2281</ele>
        <time>2026-08-04T08:02:21.278Z</time>
      </trkpt>
      <trkpt lat="45.95884" lon="6.84895">
        <ele>2281</ele>
        <time>2026-08-04T08:02:22.278Z</time>
      </trkpt>
      <trkpt lat="45.95884" lon="6.84894">
        <ele>2281</ele>
        <time>2026-08-04T08:02:23.278Z</time>
      </trkpt>
      <trkpt lat="45.95883" lon="6.84893">
        <ele>2282</ele>
        <time>2026-08-04T08:02:24.278Z</time>
      </trkpt>
      <trkpt lat="45.95882" lon="6.84892">
        <ele>2282</ele>
        <time>2026-08-04T08:02:25.278Z</time>
      </trkpt>
      <trkpt lat="45.95882" lon="6.84891">
        <ele>2282</ele>
        <time>2026-08-04T08:02:26.278Z</time>
      </trkpt>
      <trkpt lat="45.95881" lon="6.8489">
        <ele>2282</ele>
        <time>2026-08-04T08:02:27.278Z</time>
      </trkpt>
      <trkpt lat="45.95881" lon="6.84889">
        <ele>2283</ele>
        <time>2026-08-04T08:02:28.278Z</time>
      </trkpt>
      <trkpt lat="45.9588" lon="6.84887">
        <ele>2283</ele>
        <time>2026-08-04T08:02:29.278Z</time>
      </trkpt>
      <trkpt lat="45.9588" lon="6.84886">
        <ele>2283</ele>
        <time>2026-08-04T08:02:30.278Z</time>
      </trkpt>
      <trkpt lat="45.95879" lon="6.84885">
        <ele>2283</ele>
        <time>2026-08-04T08:02:31.278Z</time>
      </trkpt>
      <trkpt lat="45.95879" lon="6.84883">
        <ele>2283</ele>
        <time>2026-08-04T08:02:32.278Z</time>
      </trkpt>
      <trkpt lat="45.95879" lon="6.84882">
        <ele>2283</ele>
        <time>2026-08-04T08:02:33.278Z</time>
      </trkpt>
      <trkpt lat="45.95878" lon="6.8488">
        <ele>2283</ele>
        <time>2026-08-04T08:02:34.278Z</time>
      </trkpt>
      <trkpt lat="45.95878" lon="6.84877">
        <ele>2283</ele>
        <time>2026-08-04T08:02:35.278Z</time>
      </trkpt>
      <trkpt lat="45.95878" lon="6.84875">
        <ele>2283</ele>
        <time>2026-08-04T08:02:36.278Z</time>
      </trkpt>
      <trkpt lat="45.95878" lon="6.84873">
        <ele>2283</ele>
        <time>2026-08-04T08:02:37.278Z</time>
      </trkpt>
      <trkpt lat="45.95877" lon="6.84871">
        <ele>2283</ele>
        <time>2026-08-04T08:02:38.278Z</time>
      </trkpt>
      <trkpt lat="45.95877" lon="6.84869">
        <ele>2283</ele>
        <time>2026-08-04T08:02:39.278Z</time>
      </trkpt>
      <trkpt lat="45.95877" lon="6.84867">
        <ele>2283</ele>
        <time>2026-08-04T08:02:40.278Z</time>
      </trkpt>
      <trkpt lat="45.95876" lon="6.84865">
        <ele>2283</ele>
        <time>2026-08-04T08:02:41.278Z</time>
      </trkpt>
      <trkpt lat="45.95876" lon="6.84864">
        <ele>2283</ele>
        <time>2026-08-04T08:02:42.278Z</time>
      </trkpt>
      <trkpt lat="45.95875" lon="6.84863">
        <ele>2283</ele>
        <time>2026-08-04T08:02:43.278Z</time>
      </trkpt>
      <trkpt lat="45.95874" lon="6.84862">
        <ele>2283</ele>
        <time>2026-08-04T08:02:44.278Z</time>
      </trkpt>
      <trkpt lat="45.95874" lon="6.84861">
        <ele>2283</ele>
        <time>2026-08-04T08:02:45.278Z</time>
      </trkpt>
      <trkpt lat="45.95873" lon="6.8486">
        <ele>2283</ele>
        <time>2026-08-04T08:02:46.278Z</time>
      </trkpt>
      <trkpt lat="45.95872" lon="6.84858">
        <ele>2283</ele>
        <time>2026-08-04T08:02:47.278Z</time>
      </trkpt>
      <trkpt lat="45.95872" lon="6.84856">
        <ele>2283</ele>
        <time>2026-08-04T08:02:48.278Z</time>
      </trkpt>
      <trkpt lat="45.95871" lon="6.84854">
        <ele>2283</ele>
        <time>2026-08-04T08:02:49.278Z</time>
      </trkpt>
      <trkpt lat="45.9587" lon="6.84852">
        <ele>2282</ele>
        <time>2026-08-04T08:02:50.278Z</time>
      </trkpt>
      <trkpt lat="45.95869" lon="6.84851">
        <ele>2282</ele>
        <time>2026-08-04T08:02:51.278Z</time>
      </trkpt>
      <trkpt lat="45.95868" lon="6.8485">
        <ele>2282</ele>
        <time>2026-08-04T08:02:52.278Z</time>
      </trkpt>
      <trkpt lat="45.95866" lon="6.84849">
        <ele>2281</ele>
        <time>2026-08-04T08:02:53.278Z</time>
      </trkpt>
      <trkpt lat="45.95865" lon="6.84848">
        <ele>2281</ele>
        <time>2026-08-04T08:02:54.278Z</time>
      </trkpt>
      <trkpt lat="45.95864" lon="6.84847">
        <ele>2281</ele>
        <time>2026-08-04T08:02:55.278Z</time>
      </trkpt>
      <trkpt lat="45.95863" lon="6.84846">
        <ele>2281</ele>
        <time>2026-08-04T08:02:56.278Z</time>
      </trkpt>
      <trkpt lat="45.95862" lon="6.84846">
        <ele>2281</ele>
        <time>2026-08-04T08:02:57.278Z</time>
      </trkpt>
      <trkpt lat="45.95862" lon="6.84845">
        <ele>2281</ele>
        <time>2026-08-04T08:02:58.278Z</time>
      </trkpt>
      <trkpt lat="45.95861" lon="6.84844">
        <ele>2281</ele>
        <time>2026-08-04T08:02:59.278Z</time>
      </trkpt>
      <trkpt lat="45.9586" lon="6.84843">
        <ele>2282</ele>
        <time>2026-08-04T08:03:00.278Z</time>
      </trkpt>
      <trkpt lat="45.95859" lon="6.84843">
        <ele>2282</ele>
        <time>2026-08-04T08:03:01.278Z</time>
      </trkpt>
      <trkpt lat="45.95858" lon="6.84842">
        <ele>2282</ele>
        <time>2026-08-04T08:03:02.278Z</time>
      </trkpt>
      <trkpt lat="45.95858" lon="6.84842">
        <ele>2282</ele>
        <time>2026-08-04T08:03:03.278Z</time>
      </trkpt>
      <trkpt lat="45.95858" lon="6.84842">
        <ele>2282</ele>
        <time>2026-08-04T08:03:04.278Z</time>
      </trkpt>
      <trkpt lat="45.95857" lon="6.84841">
        <ele>2282</ele>
        <time>2026-08-04T08:03:05.278Z</time>
      </trkpt>
      <trkpt lat="45.95856" lon="6.84841">
        <ele>2282</ele>
        <time>2026-08-04T08:03:06.278Z</time>
      </trkpt>
      <trkpt lat="45.95856" lon="6.84841">
        <ele>2282</ele>
        <time>2026-08-04T08:03:07.278Z</time>
      </trkpt>
      <trkpt lat="45.95856" lon="6.84841">
        <ele>2282</ele>
        <time>2026-08-04T08:03:08.278Z</time>
      </trkpt>
      <trkpt lat="45.95855" lon="6.84841">
        <ele>2282</ele>
        <time>2026-08-04T08:03:09.278Z</time>
      </trkpt>
      <trkpt lat="45.95855" lon="6.84841">
        <ele>2283</ele>
        <time>2026-08-04T08:03:10.278Z</time>
      </trkpt>
      <trkpt lat="45.95855" lon="6.84841">
        <ele>2283</ele>
        <time>2026-08-04T08:03:11.278Z</time>
      </trkpt>
      <trkpt lat="45.95855" lon="6.84841">
        <ele>2283</ele>
        <time>2026-08-04T08:03:12.278Z</time>
      </trkpt>
      <trkpt lat="45.95855" lon="6.84841">
        <ele>2284</ele>
        <time>2026-08-04T08:03:13.278Z</time>
      </trkpt>
      <trkpt lat="45.95854" lon="6.84842">
        <ele>2284</ele>
        <time>2026-08-04T08:03:14.278Z</time>
      </trkpt>
      <trkpt lat="45.95854" lon="6.84842">
        <ele>2284</ele>
        <time>2026-08-04T08:03:15.278Z</time>
      </trkpt>
      <trkpt lat="45.95854" lon="6.84842">
        <ele>2284</ele>
        <time>2026-08-04T08:03:16.278Z</time>
      </trkpt>
      <trkpt lat="45.95854" lon="6.84842">
        <ele>2284</ele>
        <time>2026-08-04T08:03:17.278Z</time>
      </trkpt>
      <trkpt lat="45.95854" lon="6.84841">
        <ele>2283</ele>
        <time>2026-08-04T08:03:18.278Z</time>
      </trkpt>
      <trkpt lat="45.95854" lon="6.84841">
        <ele>2283</ele>
        <time>2026-08-04T08:03:19.278Z</time>
      </trkpt>
      <trkpt lat="45.95854" lon="6.84841">
        <ele>2283</ele>
        <time>2026-08-04T08:03:20.278Z</time>
      </trkpt>
      <trkpt lat="45.95854" lon="6.84841">
        <ele>2283</ele>
        <time>2026-08-04T08:03:21.278Z</time>
      </trkpt>
      <trkpt lat="45.95854" lon="6.84841">
        <ele>2283</ele>
        <time>2026-08-04T08:03:22.278Z</time>
      </trkpt>
      <trkpt lat="45.95854" lon="6.84841">
        <ele>2283</ele>
        <time>2026-08-04T08:03:23.278Z</time>
      </trkpt>
      <trkpt lat="45.95854" lon="6.84841">
        <ele>2283</ele>
        <time>2026-08-04T08:03:24.278Z</time>
      </trkpt>
      <trkpt lat="45.95854" lon="6.84841">
        <ele>2283</ele>
        <time>2026-08-04T08:03:25.278Z</time>
      </trkpt>
      <trkpt lat="45.95854" lon="6.84841">
        <ele>2283</ele>
        <time>2026-08-04T08:03:26.278Z</time>
      </trkpt>
      <trkpt lat="45.95854" lon="6.84841">
        <ele>2283</ele>
        <time>2026-08-04T08:03:27.278Z</time>
      </trkpt>
      <trkpt lat="45.95854" lon="6.84841">
        <ele>2283</ele>
        <time>2026-08-04T08:03:28.278Z</time>
      </trkpt>
      <trkpt lat="45.95854" lon="6.84841">
        <ele>2283</ele>
        <time>2026-08-04T08:03:29.278Z</time>
      </trkpt>
      <trkpt lat="45.95854" lon="6.84841">
        <ele>2283</ele>
        <time>2026-08-04T08:03:30.278Z</time>
      </trkpt>
      <trkpt lat="45.95854" lon="6.84841">
        <ele>2283</ele>
        <time>2026-08-04T08:03:31.278Z</time>
      </trkpt>
      <trkpt lat="45.95854" lon="6.84841">
        <ele>2283</ele>
        <time>2026-08-04T08:03:32.278Z</time>
      </trkpt>
      <trkpt lat="45.95854" lon="6.84842">
        <ele>2283</ele>
        <time>2026-08-04T08:03:33.278Z</time>
      </trkpt>
      <trkpt lat="45.95853" lon="6.84844">
        <ele>2283</ele>
        <time>2026-08-04T08:03:34.278Z</time>
      </trkpt>
      <trkpt lat="45.95853" lon="6.84847">
        <ele>2283</ele>
        <time>2026-08-04T08:03:35.278Z</time>
      </trkpt>
      <trkpt lat="45.95852" lon="6.84849">
        <ele>2283</ele>
        <time>2026-08-04T08:03:36.278Z</time>
      </trkpt>
      <trkpt lat="45.95852" lon="6.8485">
        <ele>2283</ele>
        <time>2026-08-04T08:03:37.278Z</time>
      </trkpt>
      <trkpt lat="45.95852" lon="6.84852">
        <ele>2283</ele>
        <time>2026-08-04T08:03:38.278Z</time>
      </trkpt>
      <trkpt lat="45.95851" lon="6.84853">
        <ele>2283</ele>
        <time>2026-08-04T08:03:39.278Z</time>
      </trkpt>
      <trkpt lat="45.95851" lon="6.84854">
        <ele>2283</ele>
        <time>2026-08-04T08:03:40.278Z</time>
      </trkpt>
      <trkpt lat="45.9585" lon="6.84855">
        <ele>2283</ele>
        <time>2026-08-04T08:03:41.278Z</time>
      </trkpt>
      <trkpt lat="45.9585" lon="6.84856">
        <ele>2283</ele>
        <time>2026-08-04T08:03:42.278Z</time>
      </trkpt>
      <trkpt lat="45.9585" lon="6.84857">
        <ele>2283</ele>
        <time>2026-08-04T08:03:43.278Z</time>
      </trkpt>
      <trkpt lat="45.95849" lon="6.84857">
        <ele>2283</ele>
        <time>2026-08-04T08:03:44.278Z</time>
      </trkpt>
      <trkpt lat="45.95849" lon="6.84857">
        <ele>2283</ele>
        <time>2026-08-04T08:03:45.278Z</time>
      </trkpt>
      <trkpt lat="45.95849" lon="6.84858">
        <ele>2283</ele>
        <time>2026-08-04T08:03:46.278Z</time>
      </trkpt>
      <trkpt lat="45.95848" lon="6.84858">
        <ele>2283</ele>
        <time>2026-08-04T08:03:47.278Z</time>
      </trkpt>
      <trkpt lat="45.95847" lon="6.84859">
        <ele>2284</ele>
        <time>2026-08-04T08:03:48.278Z</time>
      </trkpt>
      <trkpt lat="45.95847" lon="6.84859">
        <ele>2284</ele>
        <time>2026-08-04T08:03:49.278Z</time>
      </trkpt>
      <trkpt lat="45.95847" lon="6.84859">
        <ele>2284</ele>
        <time>2026-08-04T08:03:50.278Z</time>
      </trkpt>
      <trkpt lat="45.95847" lon="6.8486">
        <ele>2285</ele>
        <time>2026-08-04T08:03:51.278Z</time>
      </trkpt>
      <trkpt lat="45.95847" lon="6.84862">
        <ele>2285</ele>
        <time>2026-08-04T08:03:52.278Z</time>
      </trkpt>
      <trkpt lat="45.95847" lon="6.84863">
        <ele>2286</ele>
        <time>2026-08-04T08:03:53.278Z</time>
      </trkpt>
      <trkpt lat="45.95846" lon="6.84864">
        <ele>2286</ele>
        <time>2026-08-04T08:03:54.278Z</time>
      </trkpt>
      <trkpt lat="45.95845" lon="6.84864">
        <ele>2286</ele>
        <time>2026-08-04T08:03:55.278Z</time>
      </trkpt>
      <trkpt lat="45.95845" lon="6.84865">
        <ele>2286</ele>
        <time>2026-08-04T08:03:56.278Z</time>
      </trkpt>
      <trkpt lat="45.95844" lon="6.84865">
        <ele>2286</ele>
        <time>2026-08-04T08:03:57.278Z</time>
      </trkpt>
      <trkpt lat="45.95844" lon="6.84865">
        <ele>2286</ele>
        <time>2026-08-04T08:03:58.278Z</time>
      </trkpt>
      <trkpt lat="45.95843" lon="6.84865">
        <ele>2286</ele>
        <time>2026-08-04T08:03:59.278Z</time>
      </trkpt>
      <trkpt lat="45.95843" lon="6.84865">
        <ele>2287</ele>
        <time>2026-08-04T08:04:00.278Z</time>
      </trkpt>
      <trkpt lat="45.95843" lon="6.84866">
        <ele>2287</ele>
        <time>2026-08-04T08:04:01.278Z</time>
      </trkpt>
      <trkpt lat="45.95843" lon="6.84866">
        <ele>2287</ele>
        <time>2026-08-04T08:04:02.278Z</time>
      </trkpt>
      <trkpt lat="45.95843" lon="6.84866">
        <ele>2287</ele>
        <time>2026-08-04T08:04:03.278Z</time>
      </trkpt>
      <trkpt lat="45.95843" lon="6.84866">
        <ele>2288</ele>
        <time>2026-08-04T08:04:04.278Z</time>
      </trkpt>
      <trkpt lat="45.95842" lon="6.84866">
        <ele>2288</ele>
        <time>2026-08-04T08:04:05.278Z</time>
      </trkpt>
      <trkpt lat="45.95842" lon="6.84866">
        <ele>2289</ele>
        <time>2026-08-04T08:04:06.278Z</time>
      </trkpt>
      <trkpt lat="45.95842" lon="6.84866">
        <ele>2289</ele>
        <time>2026-08-04T08:04:07.278Z</time>
      </trkpt>
      <trkpt lat="45.95842" lon="6.84866">
        <ele>2289</ele>
        <time>2026-08-04T08:04:08.278Z</time>
      </trkpt>
      <trkpt lat="45.95842" lon="6.84867">
        <ele>2290</ele>
        <time>2026-08-04T08:04:09.278Z</time>
      </trkpt>
      <trkpt lat="45.95842" lon="6.84867">
        <ele>2290</ele>
        <time>2026-08-04T08:04:10.278Z</time>
      </trkpt>
      <trkpt lat="45.95842" lon="6.84867">
        <ele>2290</ele>
        <time>2026-08-04T08:04:11.278Z</time>
      </trkpt>
      <trkpt lat="45.95842" lon="6.84867">
        <ele>2291</ele>
        <time>2026-08-04T08:04:12.278Z</time>
      </trkpt>
      <trkpt lat="45.95842" lon="6.84867">
        <ele>2290</ele>
        <time>2026-08-04T08:04:13.278Z</time>
      </trkpt>
      <trkpt lat="45.95842" lon="6.84867">
        <ele>2290</ele>
        <time>2026-08-04T08:04:14.278Z</time>
      </trkpt>
      <trkpt lat="45.95842" lon="6.84867">
        <ele>2291</ele>
        <time>2026-08-04T08:04:15.278Z</time>
      </trkpt>
      <trkpt lat="45.95842" lon="6.84867">
        <ele>2291</ele>
        <time>2026-08-04T08:04:16.278Z</time>
      </trkpt>
      <trkpt lat="45.95842" lon="6.84867">
        <ele>2291</ele>
        <time>2026-08-04T08:04:17.278Z</time>
      </trkpt>
      <trkpt lat="45.95842" lon="6.84867">
        <ele>2291</ele>
        <time>2026-08-04T08:04:18.278Z</time>
      </trkpt>
      <trkpt lat="45.95842" lon="6.84867">
        <ele>2291</ele>
        <time>2026-08-04T08:04:19.278Z</time>
      </trkpt>
      <trkpt lat="45.95842" lon="6.84867">
        <ele>2291</ele>
        <time>2026-08-04T08:04:20.278Z</time>
      </trkpt>
      <trkpt lat="45.95842" lon="6.84867">
        <ele>2291</ele>
        <time>2026-08-04T08:04:21.278Z</time>
      </trkpt>
      <trkpt lat="45.95842" lon="6.84867">
        <ele>2291</ele>
        <time>2026-08-04T08:04:22.278Z</time>
      </trkpt>
      <trkpt lat="45.95842" lon="6.84867">
        <ele>2291</ele>
        <time>2026-08-04T08:04:23.278Z</time>
      </trkpt>
      <trkpt lat="45.95842" lon="6.84867">
        <ele>2291</ele>
        <time>2026-08-04T08:04:24.278Z</time>
      </trkpt>
      <trkpt lat="45.95842" lon="6.84867">
        <ele>2290</ele>
        <time>2026-08-04T08:04:25.278Z</time>
      </trkpt>
      <trkpt lat="45.95842" lon="6.84867">
        <ele>2290</ele>
        <time>2026-08-04T08:04:26.278Z</time>
      </trkpt>
      <trkpt lat="45.95842" lon="6.84867">
        <ele>2290</ele>
        <time>2026-08-04T08:04:27.278Z</time>
      </trkpt>
      <trkpt lat="45.95842" lon="6.84867">
        <ele>2290</ele>
        <time>2026-08-04T08:04:28.278Z</time>
      </trkpt>
      <trkpt lat="45.95842" lon="6.84867">
        <ele>2290</ele>
        <time>2026-08-04T08:04:29.278Z</time>
      </trkpt>
      <trkpt lat="45.95842" lon="6.84867">
        <ele>2290</ele>
        <time>2026-08-04T08:04:30.278Z</time>
      </trkpt>
      <trkpt lat="45.95842" lon="6.84867">
        <ele>2290</ele>
        <time>2026-08-04T08:04:31.278Z</time>
      </trkpt>
      <trkpt lat="45.95842" lon="6.84867">
        <ele>2290</ele>
        <time>2026-08-04T08:04:32.278Z</time>
      </trkpt>
      <trkpt lat="45.95842" lon="6.84867">
        <ele>2290</ele>
        <time>2026-08-04T08:04:33.278Z</time>
      </trkpt>
      <trkpt lat="45.95842" lon="6.84867">
        <ele>2290</ele>
        <time>2026-08-04T08:04:34.278Z</time>
      </trkpt>
      <trkpt lat="45.95842" lon="6.84867">
        <ele>2290</ele>
        <time>2026-08-04T08:04:35.278Z</time>
      </trkpt>
      <trkpt lat="45.95842" lon="6.84867">
        <ele>2290</ele>
        <time>2026-08-04T08:04:36.278Z</time>
      </trkpt>
      <trkpt lat="45.95842" lon="6.84867">
        <ele>2290</ele>
        <time>2026-08-04T08:04:37.278Z</time>
      </trkpt>
      <trkpt lat="45.95842" lon="6.84867">
        <ele>2290</ele>
        <time>2026-08-04T08:04:38.278Z</time>
      </trkpt>
      <trkpt lat="45.95842" lon="6.84867">
        <ele>2290</ele>
        <time>2026-08-04T08:04:39.278Z</time>
      </trkpt>
      <trkpt lat="45.95842" lon="6.84867">
        <ele>2290</ele>
        <time>2026-08-04T08:04:40.278Z</time>
      </trkpt>
      <trkpt lat="45.95842" lon="6.84867">
        <ele>2290</ele>
        <time>2026-08-04T08:04:41.278Z</time>
      </trkpt>
      <trkpt lat="45.95842" lon="6.84867">
        <ele>2290</ele>
        <time>2026-08-04T08:04:42.278Z</time>
      </trkpt>
      <trkpt lat="45.95842" lon="6.84867">
        <ele>2290</ele>
        <time>2026-08-04T08:04:43.278Z</time>
      </trkpt>
      <trkpt lat="45.95842" lon="6.84867">
        <ele>2290</ele>
        <time>2026-08-04T08:04:44.278Z</time>
      </trkpt>
      <trkpt lat="45.95842" lon="6.84867">
        <ele>2290</ele>
        <time>2026-08-04T08:04:45.278Z</time>
      </trkpt>
      <trkpt lat="45.95842" lon="6.84867">
        <ele>2290</ele>
        <time>2026-08-04T08:04:46.278Z</time>
      </trkpt>
      <trkpt lat="45.95842" lon="6.84867">
        <ele>2290</ele>
        <time>2026-08-04T08:04:47.278Z</time>
      </trkpt>
      <trkpt lat="45.95842" lon="6.84867">
        <ele>2290</ele>
        <time>2026-08-04T08:04:48.278Z</time>
      </trkpt>
      <trkpt lat="45.95842" lon="6.84867">
        <ele>2290</ele>
        <time>2026-08-04T08:04:49.278Z</time>
      </trkpt>
      <trkpt lat="45.95842" lon="6.84867">
        <ele>2290</ele>
        <time>2026-08-04T08:04:50.278Z</time>
      </trkpt>
      <trkpt lat="45.95842" lon="6.84867">
        <ele>2290</ele>
        <time>2026-08-04T08:04:51.278Z</time>
      </trkpt>
      <trkpt lat="45.95842" lon="6.84867">
        <ele>2290</ele>
        <time>2026-08-04T08:04:52.278Z</time>
      </trkpt>
      <trkpt lat="45.95842" lon="6.84867">
        <ele>2290</ele>
        <time>2026-08-04T08:04:53.278Z</time>
      </trkpt>
      <trkpt lat="45.95842" lon="6.84867">
        <ele>2290</ele>
        <time>2026-08-04T08:04:54.278Z</time>
      </trkpt>
      <trkpt lat="45.95842" lon="6.84867">
        <ele>2290</ele>
        <time>2026-08-04T08:04:55.278Z</time>
      </trkpt>
      <trkpt lat="45.95842" lon="6.84867">
        <ele>2290</ele>
        <time>2026-08-04T08:04:56.278Z</time>
      </trkpt>
      <trkpt lat="45.95842" lon="6.84867">
        <ele>2290</ele>
        <time>2026-08-04T08:04:57.278Z</time>
      </trkpt>
      <trkpt lat="45.95842" lon="6.84867">
        <ele>2290</ele>
        <time>2026-08-04T08:04:58.278Z</time>
      </trkpt>
      <trkpt lat="45.95842" lon="6.84867">
        <ele>2290</ele>
        <time>2026-08-04T08:04:59.278Z</time>
      </trkpt>
      <trkpt lat="45.95842" lon="6.84867">
        <ele>2290</ele>
        <time>2026-08-04T08:05:00.278Z</time>
      </trkpt>
      <trkpt lat="45.95842" lon="6.84867">
        <ele>2290</ele>
        <time>2026-08-04T08:05:01.278Z</time>
      </trkpt>
      <trkpt lat="45.95842" lon="6.84867">
        <ele>2290</ele>
        <time>2026-08-04T08:05:02.278Z</time>
      </trkpt>
      <trkpt lat="45.95842" lon="6.84867">
        <ele>2290</ele>
        <time>2026-08-04T08:05:03.278Z</time>
      </trkpt>
      <trkpt lat="45.95842" lon="6.84867">
        <ele>2290</ele>
        <time>2026-08-04T08:05:04.278Z</time>
      </trkpt>
      <trkpt lat="45.95842" lon="6.84867">
        <ele>2290</ele>
        <time>2026-08-04T08:05:05.278Z</time>
      </trkpt>
      <trkpt lat="45.95842" lon="6.84867">
        <ele>2290</ele>
        <time>2026-08-04T08:05:06.278Z</time>
      </trkpt>
      <trkpt lat="45.95842" lon="6.84867">
        <ele>2290</ele>
        <time>2026-08-04T08:05:07.278Z</time>
      </trkpt>
      <trkpt lat="45.95842" lon="6.84867">
        <ele>2290</ele>
        <time>2026-08-04T08:05:08.278Z</time>
      </trkpt>
      <trkpt lat="45.95842" lon="6.84867">
        <ele>2290</ele>
        <time>2026-08-04T08:05:09.278Z</time>
      </trkpt>
      <trkpt lat="45.95842" lon="6.84867">
        <ele>2290</ele>
        <time>2026-08-04T08:05:10.278Z</time>
      </trkpt>
      <trkpt lat="45.95842" lon="6.84867">
        <ele>2290</ele>
        <time>2026-08-04T08:05:11.278Z</time>
      </trkpt>
      <trkpt lat="45.95842" lon="6.84867">
        <ele>2290</ele>
        <time>2026-08-04T08:05:12.278Z</time>
      </trkpt>
      <trkpt lat="45.95842" lon="6.84867">
        <ele>2290</ele>
        <time>2026-08-04T08:05:13.278Z</time>
      </trkpt>
      <trkpt lat="45.95842" lon="6.84867">
        <ele>2290</ele>
        <time>2026-08-04T08:05:14.278Z</time>
      </trkpt>
      <trkpt lat="45.95842" lon="6.84867">
        <ele>2290</ele>
        <time>2026-08-04T08:05:15.278Z</time>
      </trkpt>
      <trkpt lat="45.95842" lon="6.84867">
        <ele>2290</ele>
        <time>2026-08-04T08:05:16.278Z</time>
      </trkpt>
      <trkpt lat="45.95842" lon="6.84867">
        <ele>2290</ele>
        <time>2026-08-04T08:05:17.278Z</time>
      </trkpt>
      <trkpt lat="45.95842" lon="6.84867">
        <ele>2290</ele>
        <time>2026-08-04T08:05:18.278Z</time>
      </trkpt>
      <trkpt lat="45.95842" lon="6.84867">
        <ele>2290</ele>
        <time>2026-08-04T08:05:19.278Z</time>
      </trkpt>
      <trkpt lat="45.95842" lon="6.84867">
        <ele>2290</ele>
        <time>2026-08-04T08:05:20.278Z</time>
      </trkpt>
      <trkpt lat="45.95842" lon="6.84867">
        <ele>2290</ele>
        <time>2026-08-04T08:05:21.278Z</time>
      </trkpt>
      <trkpt lat="45.95842" lon="6.84867">
        <ele>2290</ele>
        <time>2026-08-04T08:05:22.278Z</time>
      </trkpt>
      <trkpt lat="45.95842" lon="6.84867">
        <ele>2290</ele>
        <time>2026-08-04T08:05:23.278Z</time>
      </trkpt>
      <trkpt lat="45.95842" lon="6.84867">
        <ele>2290</ele>
        <time>2026-08-04T08:05:24.278Z</time>
      </trkpt>
      <trkpt lat="45.95842" lon="6.84867">
        <ele>2290</ele>
        <time>2026-08-04T08:05:25.278Z</time>
      </trkpt>
      <trkpt lat="45.95842" lon="6.84867">
        <ele>2290</ele>
        <time>2026-08-04T08:05:26.278Z</time>
      </trkpt>
      <trkpt lat="45.95842" lon="6.84867">
        <ele>2290</ele>
        <time>2026-08-04T08:05:27.278Z</time>
      </trkpt>
      <trkpt lat="45.95842" lon="6.84867">
        <ele>2290</ele>
        <time>2026-08-04T08:05:28.278Z</time>
      </trkpt>
      <trkpt lat="45.95842" lon="6.84867">
        <ele>2290</ele>
        <time>2026-08-04T08:05:29.278Z</time>
      </trkpt>
      <trkpt lat="45.95842" lon="6.84867">
        <ele>2290</ele>
        <time>2026-08-04T08:05:30.278Z</time>
      </trkpt>
      <trkpt lat="45.95842" lon="6.84867">
        <ele>2290</ele>
        <time>2026-08-04T08:05:31.278Z</time>
      </trkpt>
      <trkpt lat="45.95842" lon="6.84867">
        <ele>2290</ele>
        <time>2026-08-04T08:05:32.278Z</time>
      </trkpt>
      <trkpt lat="45.95842" lon="6.84867">
        <ele>2290</ele>
        <time>2026-08-04T08:05:33.278Z</time>
      </trkpt>
      <trkpt lat="45.95842" lon="6.84867">
        <ele>2290</ele>
        <time>2026-08-04T08:05:34.278Z</time>
      </trkpt>
      <trkpt lat="45.95842" lon="6.84867">
        <ele>2290</ele>
        <time>2026-08-04T08:05:35.278Z</time>
      </trkpt>
      <trkpt lat="45.95842" lon="6.84867">
        <ele>2290</ele>
        <time>2026-08-04T08:05:36.278Z</time>
      </trkpt>
      <trkpt lat="45.95842" lon="6.84867">
        <ele>2290</ele>
        <time>2026-08-04T08:05:37.278Z</time>
      </trkpt>
      <trkpt lat="45.95842" lon="6.84867">
        <ele>2290</ele>
        <time>2026-08-04T08:05:38.278Z</time>
      </trkpt>
      <trkpt lat="45.95842" lon="6.84867">
        <ele>2290</ele>
        <time>2026-08-04T08:05:39.278Z</time>
      </trkpt>
      <trkpt lat="45.95842" lon="6.84867">
        <ele>2290</ele>
        <time>2026-08-04T08:05:40.278Z</time>
      </trkpt>
      <trkpt lat="45.95842" lon="6.84867">
        <ele>2290</ele>
        <time>2026-08-04T08:05:41.278Z</time>
      </trkpt>
      <trkpt lat="45.95842" lon="6.84867">
        <ele>2290</ele>
        <time>2026-08-04T08:05:42.278Z</time>
      </trkpt>
      <trkpt lat="45.95843" lon="6.84867">
        <ele>2290</ele>
        <time>2026-08-04T08:05:43.278Z</time>
      </trkpt>
      <trkpt lat="45.95843" lon="6.84867">
        <ele>2290</ele>
        <time>2026-08-04T08:05:44.278Z</time>
      </trkpt>
      <trkpt lat="45.95843" lon="6.84867">
        <ele>2290</ele>
        <time>2026-08-04T08:05:45.278Z</time>
      </trkpt>
      <trkpt lat="45.95843" lon="6.84867">
        <ele>2290</ele>
        <time>2026-08-04T08:05:46.278Z</time>
      </trkpt>
      <trkpt lat="45.95843" lon="6.84867">
        <ele>2290</ele>
        <time>2026-08-04T08:05:47.278Z</time>
      </trkpt>
      <trkpt lat="45.95843" lon="6.84867">
        <ele>2290</ele>
        <time>2026-08-04T08:05:48.278Z</time>
      </trkpt>
      <trkpt lat="45.95843" lon="6.84867">
        <ele>2290</ele>
        <time>2026-08-04T08:05:49.278Z</time>
      </trkpt>
      <trkpt lat="45.95844" lon="6.84867">
        <ele>2290</ele>
        <time>2026-08-04T08:05:50.278Z</time>
      </trkpt>
      <trkpt lat="45.95845" lon="6.84865">
        <ele>2290</ele>
        <time>2026-08-04T08:05:51.278Z</time>
      </trkpt>
      <trkpt lat="45.95847" lon="6.84864">
        <ele>2290</ele>
        <time>2026-08-04T08:05:52.278Z</time>
      </trkpt>
      <trkpt lat="45.95849" lon="6.84863">
        <ele>2290</ele>
        <time>2026-08-04T08:05:53.278Z</time>
      </trkpt>
      <trkpt lat="45.9585" lon="6.84862">
        <ele>2290</ele>
        <time>2026-08-04T08:05:54.278Z</time>
      </trkpt>
      <trkpt lat="45.95852" lon="6.84862">
        <ele>2290</ele>
        <time>2026-08-04T08:05:55.278Z</time>
      </trkpt>
      <trkpt lat="45.95854" lon="6.84862">
        <ele>2289</ele>
        <time>2026-08-04T08:05:56.278Z</time>
      </trkpt>
      <trkpt lat="45.95855" lon="6.84861">
        <ele>2289</ele>
        <time>2026-08-04T08:05:57.278Z</time>
      </trkpt>
      <trkpt lat="45.95857" lon="6.84861">
        <ele>2289</ele>
        <time>2026-08-04T08:05:58.278Z</time>
      </trkpt>
      <trkpt lat="45.95858" lon="6.8486">
        <ele>2288</ele>
        <time>2026-08-04T08:05:59.278Z</time>
      </trkpt>
      <trkpt lat="45.95858" lon="6.8486">
        <ele>2288</ele>
        <time>2026-08-04T08:06:00.278Z</time>
      </trkpt>
      <trkpt lat="45.95859" lon="6.84859">
        <ele>2288</ele>
        <time>2026-08-04T08:06:01.278Z</time>
      </trkpt>
      <trkpt lat="45.9586" lon="6.84859">
        <ele>2288</ele>
        <time>2026-08-04T08:06:02.278Z</time>
      </trkpt>
      <trkpt lat="45.9586" lon="6.84858">
        <ele>2288</ele>
        <time>2026-08-04T08:06:03.278Z</time>
      </trkpt>
      <trkpt lat="45.95861" lon="6.84857">
        <ele>2287</ele>
        <time>2026-08-04T08:06:04.278Z</time>
      </trkpt>
      <trkpt lat="45.95861" lon="6.84855">
        <ele>2287</ele>
        <time>2026-08-04T08:06:05.278Z</time>
      </trkpt>
      <trkpt lat="45.95861" lon="6.84854">
        <ele>2287</ele>
        <time>2026-08-04T08:06:06.278Z</time>
      </trkpt>
      <trkpt lat="45.95862" lon="6.84854">
        <ele>2286</ele>
        <time>2026-08-04T08:06:07.278Z</time>
      </trkpt>
      <trkpt lat="45.95862" lon="6.84853">
        <ele>2286</ele>
        <time>2026-08-04T08:06:08.278Z</time>
      </trkpt>
      <trkpt lat="45.95862" lon="6.84853">
        <ele>2286</ele>
        <time>2026-08-04T08:06:09.278Z</time>
      </trkpt>
      <trkpt lat="45.95863" lon="6.84852">
        <ele>2286</ele>
        <time>2026-08-04T08:06:10.278Z</time>
      </trkpt>
      <trkpt lat="45.95863" lon="6.84852">
        <ele>2286</ele>
        <time>2026-08-04T08:06:11.278Z</time>
      </trkpt>
      <trkpt lat="45.95864" lon="6.84852">
        <ele>2285</ele>
        <time>2026-08-04T08:06:12.278Z</time>
      </trkpt>
      <trkpt lat="45.95864" lon="6.84851">
        <ele>2285</ele>
        <time>2026-08-04T08:06:13.278Z</time>
      </trkpt>
      <trkpt lat="45.95865" lon="6.84851">
        <ele>2285</ele>
        <time>2026-08-04T08:06:14.278Z</time>
      </trkpt>
      <trkpt lat="45.95866" lon="6.84851">
        <ele>2285</ele>
        <time>2026-08-04T08:06:15.278Z</time>
      </trkpt>
      <trkpt lat="45.95866" lon="6.84851">
        <ele>2284</ele>
        <time>2026-08-04T08:06:16.278Z</time>
      </trkpt>
      <trkpt lat="45.95867" lon="6.84851">
        <ele>2284</ele>
        <time>2026-08-04T08:06:17.278Z</time>
      </trkpt>
      <trkpt lat="45.95867" lon="6.84852">
        <ele>2284</ele>
        <time>2026-08-04T08:06:18.278Z</time>
      </trkpt>
      <trkpt lat="45.95868" lon="6.84852">
        <ele>2284</ele>
        <time>2026-08-04T08:06:19.278Z</time>
      </trkpt>
      <trkpt lat="45.95869" lon="6.84854">
        <ele>2283</ele>
        <time>2026-08-04T08:06:20.278Z</time>
      </trkpt>
      <trkpt lat="45.9587" lon="6.84855">
        <ele>2283</ele>
        <time>2026-08-04T08:06:21.278Z</time>
      </trkpt>
      <trkpt lat="45.95871" lon="6.84856">
        <ele>2283</ele>
        <time>2026-08-04T08:06:22.278Z</time>
      </trkpt>
      <trkpt lat="45.95872" lon="6.84857">
        <ele>2283</ele>
        <time>2026-08-04T08:06:23.278Z</time>
      </trkpt>
      <trkpt lat="45.95873" lon="6.84857">
        <ele>2282</ele>
        <time>2026-08-04T08:06:24.278Z</time>
      </trkpt>
      <trkpt lat="45.95874" lon="6.84858">
        <ele>2282</ele>
        <time>2026-08-04T08:06:25.278Z</time>
      </trkpt>
      <trkpt lat="45.95875" lon="6.84858">
        <ele>2282</ele>
        <time>2026-08-04T08:06:26.278Z</time>
      </trkpt>
      <trkpt lat="45.95877" lon="6.84858">
        <ele>2281</ele>
        <time>2026-08-04T08:06:27.278Z</time>
      </trkpt>
      <trkpt lat="45.95878" lon="6.84857">
        <ele>2282</ele>
        <time>2026-08-04T08:06:28.278Z</time>
      </trkpt>
      <trkpt lat="45.95879" lon="6.84857">
        <ele>2282</ele>
        <time>2026-08-04T08:06:29.278Z</time>
      </trkpt>
      <trkpt lat="45.95881" lon="6.84856">
        <ele>2282</ele>
        <time>2026-08-04T08:06:30.278Z</time>
      </trkpt>
      <trkpt lat="45.95882" lon="6.84856">
        <ele>2282</ele>
        <time>2026-08-04T08:06:31.278Z</time>
      </trkpt>
      <trkpt lat="45.95883" lon="6.84856">
        <ele>2282</ele>
        <time>2026-08-04T08:06:32.278Z</time>
      </trkpt>
      <trkpt lat="45.95884" lon="6.84855">
        <ele>2282</ele>
        <time>2026-08-04T08:06:33.278Z</time>
      </trkpt>
      <trkpt lat="45.95885" lon="6.84855">
        <ele>2283</ele>
        <time>2026-08-04T08:06:34.278Z</time>
      </trkpt>
      <trkpt lat="45.95886" lon="6.84854">
        <ele>2283</ele>
        <time>2026-08-04T08:06:35.278Z</time>
      </trkpt>
      <trkpt lat="45.95887" lon="6.84853">
        <ele>2283</ele>
        <time>2026-08-04T08:06:36.278Z</time>
      </trkpt>
      <trkpt lat="45.95887" lon="6.84853">
        <ele>2283</ele>
        <time>2026-08-04T08:06:37.278Z</time>
      </trkpt>
      <trkpt lat="45.95888" lon="6.84852">
        <ele>2283</ele>
        <time>2026-08-04T08:06:38.278Z</time>
      </trkpt>
      <trkpt lat="45.95889" lon="6.84852">
        <ele>2283</ele>
        <time>2026-08-04T08:06:39.278Z</time>
      </trkpt>
      <trkpt lat="45.9589" lon="6.84851">
        <ele>2284</ele>
        <time>2026-08-04T08:06:40.278Z</time>
      </trkpt>
      <trkpt lat="45.95891" lon="6.84851">
        <ele>2284</ele>
        <time>2026-08-04T08:06:41.278Z</time>
      </trkpt>
      <trkpt lat="45.95892" lon="6.8485">
        <ele>2284</ele>
        <time>2026-08-04T08:06:42.278Z</time>
      </trkpt>
      <trkpt lat="45.95893" lon="6.84849">
        <ele>2284</ele>
        <time>2026-08-04T08:06:43.278Z</time>
      </trkpt>
      <trkpt lat="45.95893" lon="6.84849">
        <ele>2284</ele>
        <time>2026-08-04T08:06:44.278Z</time>
      </trkpt>
      <trkpt lat="45.95894" lon="6.84849">
        <ele>2284</ele>
        <time>2026-08-04T08:06:45.278Z</time>
      </trkpt>
      <trkpt lat="45.95896" lon="6.84849">
        <ele>2284</ele>
        <time>2026-08-04T08:06:46.278Z</time>
      </trkpt>
      <trkpt lat="45.95896" lon="6.84849">
        <ele>2284</ele>
        <time>2026-08-04T08:06:47.278Z</time>
      </trkpt>
      <trkpt lat="45.95897" lon="6.8485">
        <ele>2284</ele>
        <time>2026-08-04T08:06:48.278Z</time>
      </trkpt>
      <trkpt lat="45.95898" lon="6.8485">
        <ele>2284</ele>
        <time>2026-08-04T08:06:49.278Z</time>
      </trkpt>
      <trkpt lat="45.95898" lon="6.8485">
        <ele>2284</ele>
        <time>2026-08-04T08:06:50.278Z</time>
      </trkpt>
      <trkpt lat="45.95899" lon="6.84849">
        <ele>2285</ele>
        <time>2026-08-04T08:06:51.278Z</time>
      </trkpt>
      <trkpt lat="45.959" lon="6.84848">
        <ele>2285</ele>
        <time>2026-08-04T08:06:52.278Z</time>
      </trkpt>
      <trkpt lat="45.959" lon="6.84848">
        <ele>2285</ele>
        <time>2026-08-04T08:06:53.278Z</time>
      </trkpt>
      <trkpt lat="45.95901" lon="6.84848">
        <ele>2286</ele>
        <time>2026-08-04T08:06:54.278Z</time>
      </trkpt>
      <trkpt lat="45.95902" lon="6.84848">
        <ele>2287</ele>
        <time>2026-08-04T08:06:55.278Z</time>
      </trkpt>
      <trkpt lat="45.95903" lon="6.84847">
        <ele>2287</ele>
        <time>2026-08-04T08:06:56.278Z</time>
      </trkpt>
      <trkpt lat="45.95903" lon="6.84846">
        <ele>2288</ele>
        <time>2026-08-04T08:06:57.278Z</time>
      </trkpt>
      <trkpt lat="45.95904" lon="6.84845">
        <ele>2288</ele>
        <time>2026-08-04T08:06:58.278Z</time>
      </trkpt>
      <trkpt lat="45.95905" lon="6.84845">
        <ele>2288</ele>
        <time>2026-08-04T08:06:59.278Z</time>
      </trkpt>
      <trkpt lat="45.95906" lon="6.84844">
        <ele>2288</ele>
        <time>2026-08-04T08:07:00.278Z</time>
      </trkpt>
      <trkpt lat="45.95906" lon="6.84844">
        <ele>2288</ele>
        <time>2026-08-04T08:07:01.278Z</time>
      </trkpt>
      <trkpt lat="45.95907" lon="6.84843">
        <ele>2289</ele>
        <time>2026-08-04T08:07:02.278Z</time>
      </trkpt>
      <trkpt lat="45.95907" lon="6.84842">
        <ele>2289</ele>
        <time>2026-08-04T08:07:03.278Z</time>
      </trkpt>
      <trkpt lat="45.95907" lon="6.84841">
        <ele>2289</ele>
        <time>2026-08-04T08:07:04.278Z</time>
      </trkpt>
      <trkpt lat="45.95908" lon="6.8484">
        <ele>2290</ele>
        <time>2026-08-04T08:07:05.278Z</time>
      </trkpt>
      <trkpt lat="45.95909" lon="6.84839">
        <ele>2290</ele>
        <time>2026-08-04T08:07:06.278Z</time>
      </trkpt>
      <trkpt lat="45.95909" lon="6.84838">
        <ele>2291</ele>
        <time>2026-08-04T08:07:07.278Z</time>
      </trkpt>
      <trkpt lat="45.9591" lon="6.84838">
        <ele>2291</ele>
        <time>2026-08-04T08:07:08.278Z</time>
      </trkpt>
      <trkpt lat="45.9591" lon="6.84838">
        <ele>2291</ele>
        <time>2026-08-04T08:07:09.278Z</time>
      </trkpt>
      <trkpt lat="45.9591" lon="6.84838">
        <ele>2292</ele>
        <time>2026-08-04T08:07:10.278Z</time>
      </trkpt>
      <trkpt lat="45.9591" lon="6.84838">
        <ele>2292</ele>
        <time>2026-08-04T08:07:11.278Z</time>
      </trkpt>
      <trkpt lat="45.9591" lon="6.84838">
        <ele>2293</ele>
        <time>2026-08-04T08:07:12.278Z</time>
      </trkpt>
      <trkpt lat="45.9591" lon="6.84838">
        <ele>2294</ele>
        <time>2026-08-04T08:07:13.278Z</time>
      </trkpt>
      <trkpt lat="45.9591" lon="6.84837">
        <ele>2294</ele>
        <time>2026-08-04T08:07:14.278Z</time>
      </trkpt>
      <trkpt lat="45.9591" lon="6.84837">
        <ele>2294</ele>
        <time>2026-08-04T08:07:15.278Z</time>
      </trkpt>
      <trkpt lat="45.9591" lon="6.84837">
        <ele>2294</ele>
        <time>2026-08-04T08:07:16.278Z</time>
      </trkpt>
      <trkpt lat="45.9591" lon="6.84838">
        <ele>2294</ele>
        <time>2026-08-04T08:07:17.278Z</time>
      </trkpt>
      <trkpt lat="45.95909" lon="6.84838">
        <ele>2294</ele>
        <time>2026-08-04T08:07:18.278Z</time>
      </trkpt>
      <trkpt lat="45.95909" lon="6.84838">
        <ele>2294</ele>
        <time>2026-08-04T08:07:19.278Z</time>
      </trkpt>
      <trkpt lat="45.95909" lon="6.84838">
        <ele>2294</ele>
        <time>2026-08-04T08:07:20.278Z</time>
      </trkpt>
      <trkpt lat="45.95909" lon="6.84838">
        <ele>2294</ele>
        <time>2026-08-04T08:07:21.278Z</time>
      </trkpt>
      <trkpt lat="45.95909" lon="6.84838">
        <ele>2294</ele>
        <time>2026-08-04T08:07:22.278Z</time>
      </trkpt>
      <trkpt lat="45.95909" lon="6.84838">
        <ele>2295</ele>
        <time>2026-08-04T08:07:23.278Z</time>
      </trkpt>
      <trkpt lat="45.95909" lon="6.84838">
        <ele>2295</ele>
        <time>2026-08-04T08:07:24.278Z</time>
      </trkpt>
      <trkpt lat="45.95909" lon="6.84838">
        <ele>2295</ele>
        <time>2026-08-04T08:07:25.278Z</time>
      </trkpt>
      <trkpt lat="45.95909" lon="6.84838">
        <ele>2295</ele>
        <time>2026-08-04T08:07:26.278Z</time>
      </trkpt>
      <trkpt lat="45.95909" lon="6.84838">
        <ele>2296</ele>
        <time>2026-08-04T08:07:27.278Z</time>
      </trkpt>
      <trkpt lat="45.95909" lon="6.84838">
        <ele>2296</ele>
        <time>2026-08-04T08:07:28.278Z</time>
      </trkpt>
      <trkpt lat="45.95909" lon="6.84838">
        <ele>2295</ele>
        <time>2026-08-04T08:07:29.278Z</time>
      </trkpt>
      <trkpt lat="45.95909" lon="6.84838">
        <ele>2295</ele>
        <time>2026-08-04T08:07:30.278Z</time>
      </trkpt>
      <trkpt lat="45.9591" lon="6.84839">
        <ele>2295</ele>
        <time>2026-08-04T08:07:31.278Z</time>
      </trkpt>
      <trkpt lat="45.9591" lon="6.8484">
        <ele>2295</ele>
        <time>2026-08-04T08:07:32.278Z</time>
      </trkpt>
      <trkpt lat="45.9591" lon="6.84842">
        <ele>2295</ele>
        <time>2026-08-04T08:07:33.278Z</time>
      </trkpt>
      <trkpt lat="45.95911" lon="6.84844">
        <ele>2295</ele>
        <time>2026-08-04T08:07:34.278Z</time>
      </trkpt>
      <trkpt lat="45.95912" lon="6.84845">
        <ele>2295</ele>
        <time>2026-08-04T08:07:35.278Z</time>
      </trkpt>
      <trkpt lat="45.95913" lon="6.84847">
        <ele>2295</ele>
        <time>2026-08-04T08:07:36.278Z</time>
      </trkpt>
      <trkpt lat="45.95914" lon="6.84849">
        <ele>2295</ele>
        <time>2026-08-04T08:07:37.278Z</time>
      </trkpt>
      <trkpt lat="45.95915" lon="6.84851">
        <ele>2294</ele>
        <time>2026-08-04T08:07:38.278Z</time>
      </trkpt>
      <trkpt lat="45.95916" lon="6.84853">
        <ele>2294</ele>
        <time>2026-08-04T08:07:39.278Z</time>
      </trkpt>
      <trkpt lat="45.95917" lon="6.84855">
        <ele>2293</ele>
        <time>2026-08-04T08:07:40.278Z</time>
      </trkpt>
      <trkpt lat="45.95917" lon="6.84855">
        <ele>2293</ele>
        <time>2026-08-04T08:07:41.278Z</time>
      </trkpt>
      <trkpt lat="45.95917" lon="6.84856">
        <ele>2293</ele>
        <time>2026-08-04T08:07:42.278Z</time>
      </trkpt>
      <trkpt lat="45.95917" lon="6.84856">
        <ele>2293</ele>
        <time>2026-08-04T08:07:43.278Z</time>
      </trkpt>
      <trkpt lat="45.95917" lon="6.84857">
        <ele>2293</ele>
        <time>2026-08-04T08:07:44.278Z</time>
      </trkpt>
      <trkpt lat="45.95917" lon="6.84857">
        <ele>2292</ele>
        <time>2026-08-04T08:07:45.278Z</time>
      </trkpt>
      <trkpt lat="45.95918" lon="6.84857">
        <ele>2292</ele>
        <time>2026-08-04T08:07:46.278Z</time>
      </trkpt>
      <trkpt lat="45.95918" lon="6.84857">
        <ele>2292</ele>
        <time>2026-08-04T08:07:47.278Z</time>
      </trkpt>
      <trkpt lat="45.95918" lon="6.84856">
        <ele>2292</ele>
        <time>2026-08-04T08:07:48.278Z</time>
      </trkpt>
      <trkpt lat="45.95919" lon="6.84856">
        <ele>2292</ele>
        <time>2026-08-04T08:07:49.278Z</time>
      </trkpt>
      <trkpt lat="45.95919" lon="6.84854">
        <ele>2292</ele>
        <time>2026-08-04T08:07:50.278Z</time>
      </trkpt>
      <trkpt lat="45.9592" lon="6.84853">
        <ele>2292</ele>
        <time>2026-08-04T08:07:51.278Z</time>
      </trkpt>
      <trkpt lat="45.95921" lon="6.84853">
        <ele>2292</ele>
        <time>2026-08-04T08:07:52.278Z</time>
      </trkpt>
      <trkpt lat="45.95922" lon="6.84853">
        <ele>2293</ele>
        <time>2026-08-04T08:07:53.278Z</time>
      </trkpt>
      <trkpt lat="45.95923" lon="6.84852">
        <ele>2293</ele>
        <time>2026-08-04T08:07:54.278Z</time>
      </trkpt>
      <trkpt lat="45.95925" lon="6.84852">
        <ele>2293</ele>
        <time>2026-08-04T08:07:55.278Z</time>
      </trkpt>
      <trkpt lat="45.95926" lon="6.84852">
        <ele>2293</ele>
        <time>2026-08-04T08:07:56.278Z</time>
      </trkpt>
      <trkpt lat="45.95927" lon="6.84852">
        <ele>2293</ele>
        <time>2026-08-04T08:07:57.278Z</time>
      </trkpt>
      <trkpt lat="45.95928" lon="6.84852">
        <ele>2294</ele>
        <time>2026-08-04T08:07:58.278Z</time>
      </trkpt>
      <trkpt lat="45.95929" lon="6.84853">
        <ele>2294</ele>
        <time>2026-08-04T08:07:59.278Z</time>
      </trkpt>
      <trkpt lat="45.95929" lon="6.84853">
        <ele>2294</ele>
        <time>2026-08-04T08:08:00.278Z</time>
      </trkpt>
      <trkpt lat="45.9593" lon="6.84853">
        <ele>2294</ele>
        <time>2026-08-04T08:08:01.278Z</time>
      </trkpt>
      <trkpt lat="45.9593" lon="6.84853">
        <ele>2294</ele>
        <time>2026-08-04T08:08:02.278Z</time>
      </trkpt>
      <trkpt lat="45.9593" lon="6.84853">
        <ele>2294</ele>
        <time>2026-08-04T08:08:03.278Z</time>
      </trkpt>
      <trkpt lat="45.9593" lon="6.84853">
        <ele>2294</ele>
        <time>2026-08-04T08:08:04.278Z</time>
      </trkpt>
      <trkpt lat="45.9593" lon="6.84853">
        <ele>2294</ele>
        <time>2026-08-04T08:08:05.278Z</time>
      </trkpt>
      <trkpt lat="45.9593" lon="6.84853">
        <ele>2294</ele>
        <time>2026-08-04T08:08:06.278Z</time>
      </trkpt>
      <trkpt lat="45.9593" lon="6.84853">
        <ele>2295</ele>
        <time>2026-08-04T08:08:07.278Z</time>
      </trkpt>
      <trkpt lat="45.9593" lon="6.84853">
        <ele>2295</ele>
        <time>2026-08-04T08:08:08.278Z</time>
      </trkpt>
      <trkpt lat="45.9593" lon="6.84853">
        <ele>2295</ele>
        <time>2026-08-04T08:08:09.278Z</time>
      </trkpt>
      <trkpt lat="45.9593" lon="6.84853">
        <ele>2295</ele>
        <time>2026-08-04T08:08:10.278Z</time>
      </trkpt>
      <trkpt lat="45.9593" lon="6.84853">
        <ele>2295</ele>
        <time>2026-08-04T08:08:11.278Z</time>
      </trkpt>
      <trkpt lat="45.95931" lon="6.84854">
        <ele>2295</ele>
        <time>2026-08-04T08:08:12.278Z</time>
      </trkpt>
      <trkpt lat="45.95931" lon="6.84855">
        <ele>2295</ele>
        <time>2026-08-04T08:08:13.278Z</time>
      </trkpt>
      <trkpt lat="45.95932" lon="6.84857">
        <ele>2294</ele>
        <time>2026-08-04T08:08:14.278Z</time>
      </trkpt>
      <trkpt lat="45.95933" lon="6.84859">
        <ele>2294</ele>
        <time>2026-08-04T08:08:15.278Z</time>
      </trkpt>
      <trkpt lat="45.95934" lon="6.84859">
        <ele>2294</ele>
        <time>2026-08-04T08:08:16.278Z</time>
      </trkpt>
      <trkpt lat="45.95935" lon="6.8486">
        <ele>2294</ele>
        <time>2026-08-04T08:08:17.278Z</time>
      </trkpt>
      <trkpt lat="45.95937" lon="6.84861">
        <ele>2294</ele>
        <time>2026-08-04T08:08:18.278Z</time>
      </trkpt>
      <trkpt lat="45.95939" lon="6.84861">
        <ele>2294</ele>
        <time>2026-08-04T08:08:19.278Z</time>
      </trkpt>
      <trkpt lat="45.9594" lon="6.84861">
        <ele>2294</ele>
        <time>2026-08-04T08:08:20.278Z</time>
      </trkpt>
      <trkpt lat="45.95942" lon="6.84861">
        <ele>2294</ele>
        <time>2026-08-04T08:08:21.278Z</time>
      </trkpt>
      <trkpt lat="45.95943" lon="6.84861">
        <ele>2294</ele>
        <time>2026-08-04T08:08:22.278Z</time>
      </trkpt>
      <trkpt lat="45.95944" lon="6.84861">
        <ele>2294</ele>
        <time>2026-08-04T08:08:23.278Z</time>
      </trkpt>
      <trkpt lat="45.95945" lon="6.84861">
        <ele>2294</ele>
        <time>2026-08-04T08:08:24.278Z</time>
      </trkpt>
      <trkpt lat="45.95946" lon="6.84861">
        <ele>2294</ele>
        <time>2026-08-04T08:08:25.278Z</time>
      </trkpt>
      <trkpt lat="45.95947" lon="6.8486">
        <ele>2295</ele>
        <time>2026-08-04T08:08:26.278Z</time>
      </trkpt>
      <trkpt lat="45.95949" lon="6.84859">
        <ele>2295</ele>
        <time>2026-08-04T08:08:27.278Z</time>
      </trkpt>
      <trkpt lat="45.95951" lon="6.84858">
        <ele>2295</ele>
        <time>2026-08-04T08:08:28.278Z</time>
      </trkpt>
      <trkpt lat="45.95953" lon="6.84858">
        <ele>2295</ele>
        <time>2026-08-04T08:08:29.278Z</time>
      </trkpt>
      <trkpt lat="45.95955" lon="6.84857">
        <ele>2295</ele>
        <time>2026-08-04T08:08:30.278Z</time>
      </trkpt>
      <trkpt lat="45.95956" lon="6.84857">
        <ele>2295</ele>
        <time>2026-08-04T08:08:31.278Z</time>
      </trkpt>
      <trkpt lat="45.95957" lon="6.84856">
        <ele>2295</ele>
        <time>2026-08-04T08:08:32.278Z</time>
      </trkpt>
      <trkpt lat="45.95958" lon="6.84855">
        <ele>2295</ele>
        <time>2026-08-04T08:08:33.278Z</time>
      </trkpt>
      <trkpt lat="45.95959" lon="6.84855">
        <ele>2295</ele>
        <time>2026-08-04T08:08:34.278Z</time>
      </trkpt>
      <trkpt lat="45.9596" lon="6.84855">
        <ele>2295</ele>
        <time>2026-08-04T08:08:35.278Z</time>
      </trkpt>
      <trkpt lat="45.9596" lon="6.84855">
        <ele>2296</ele>
        <time>2026-08-04T08:08:36.278Z</time>
      </trkpt>
      <trkpt lat="45.9596" lon="6.84856">
        <ele>2296</ele>
        <time>2026-08-04T08:08:37.278Z</time>
      </trkpt>
      <trkpt lat="45.95959" lon="6.84856">
        <ele>2296</ele>
        <time>2026-08-04T08:08:38.278Z</time>
      </trkpt>
      <trkpt lat="45.95958" lon="6.84856">
        <ele>2296</ele>
        <time>2026-08-04T08:08:39.278Z</time>
      </trkpt>
      <trkpt lat="45.95958" lon="6.84856">
        <ele>2296</ele>
        <time>2026-08-04T08:08:40.278Z</time>
      </trkpt>
      <trkpt lat="45.95957" lon="6.84857">
        <ele>2296</ele>
        <time>2026-08-04T08:08:41.278Z</time>
      </trkpt>
      <trkpt lat="45.95956" lon="6.84857">
        <ele>2296</ele>
        <time>2026-08-04T08:08:42.278Z</time>
      </trkpt>
      <trkpt lat="45.95956" lon="6.84857">
        <ele>2296</ele>
        <time>2026-08-04T08:08:43.278Z</time>
      </trkpt>
      <trkpt lat="45.95955" lon="6.84858">
        <ele>2295</ele>
        <time>2026-08-04T08:08:44.278Z</time>
      </trkpt>
      <trkpt lat="45.95954" lon="6.84859">
        <ele>2295</ele>
        <time>2026-08-04T08:08:45.278Z</time>
      </trkpt>
      <trkpt lat="45.95953" lon="6.8486">
        <ele>2295</ele>
        <time>2026-08-04T08:08:46.278Z</time>
      </trkpt>
      <trkpt lat="45.95952" lon="6.84861">
        <ele>2296</ele>
        <time>2026-08-04T08:08:47.278Z</time>
      </trkpt>
      <trkpt lat="45.9595" lon="6.84862">
        <ele>2296</ele>
        <time>2026-08-04T08:08:48.278Z</time>
      </trkpt>
      <trkpt lat="45.95949" lon="6.84862">
        <ele>2296</ele>
        <time>2026-08-04T08:08:49.278Z</time>
      </trkpt>
      <trkpt lat="45.95947" lon="6.84862">
        <ele>2296</ele>
        <time>2026-08-04T08:08:50.278Z</time>
      </trkpt>
      <trkpt lat="45.95946" lon="6.84862">
        <ele>2296</ele>
        <time>2026-08-04T08:08:51.278Z</time>
      </trkpt>
      <trkpt lat="45.95945" lon="6.84861">
        <ele>2296</ele>
        <time>2026-08-04T08:08:52.278Z</time>
      </trkpt>
      <trkpt lat="45.95944" lon="6.84861">
        <ele>2296</ele>
        <time>2026-08-04T08:08:53.278Z</time>
      </trkpt>
      <trkpt lat="45.95942" lon="6.84861">
        <ele>2297</ele>
        <time>2026-08-04T08:08:54.278Z</time>
      </trkpt>
      <trkpt lat="45.95941" lon="6.84861">
        <ele>2297</ele>
        <time>2026-08-04T08:08:55.278Z</time>
      </trkpt>
      <trkpt lat="45.9594" lon="6.84862">
        <ele>2297</ele>
        <time>2026-08-04T08:08:56.278Z</time>
      </trkpt>
      <trkpt lat="45.95938" lon="6.84861">
        <ele>2297</ele>
        <time>2026-08-04T08:08:57.278Z</time>
      </trkpt>
      <trkpt lat="45.95937" lon="6.84861">
        <ele>2297</ele>
        <time>2026-08-04T08:08:58.278Z</time>
      </trkpt>
      <trkpt lat="45.95935" lon="6.8486">
        <ele>2297</ele>
        <time>2026-08-04T08:08:59.278Z</time>
      </trkpt>
      <trkpt lat="45.95934" lon="6.84859">
        <ele>2296</ele>
        <time>2026-08-04T08:09:00.278Z</time>
      </trkpt>
      <trkpt lat="45.95933" lon="6.84857">
        <ele>2296</ele>
        <time>2026-08-04T08:09:01.278Z</time>
      </trkpt>
      <trkpt lat="45.95932" lon="6.84856">
        <ele>2296</ele>
        <time>2026-08-04T08:09:02.278Z</time>
      </trkpt>
      <trkpt lat="45.95931" lon="6.84854">
        <ele>2296</ele>
        <time>2026-08-04T08:09:03.278Z</time>
      </trkpt>
      <trkpt lat="45.9593" lon="6.84854">
        <ele>2296</ele>
        <time>2026-08-04T08:09:04.278Z</time>
      </trkpt>
      <trkpt lat="45.95929" lon="6.84853">
        <ele>2296</ele>
        <time>2026-08-04T08:09:05.278Z</time>
      </trkpt>
      <trkpt lat="45.95929" lon="6.84853">
        <ele>2297</ele>
        <time>2026-08-04T08:09:06.278Z</time>
      </trkpt>
      <trkpt lat="45.95928" lon="6.84852">
        <ele>2297</ele>
        <time>2026-08-04T08:09:07.278Z</time>
      </trkpt>
      <trkpt lat="45.95928" lon="6.84852">
        <ele>2296</ele>
        <time>2026-08-04T08:09:08.278Z</time>
      </trkpt>
      <trkpt lat="45.95927" lon="6.84852">
        <ele>2296</ele>
        <time>2026-08-04T08:09:09.278Z</time>
      </trkpt>
      <trkpt lat="45.95926" lon="6.84851">
        <ele>2296</ele>
        <time>2026-08-04T08:09:10.278Z</time>
      </trkpt>
      <trkpt lat="45.95925" lon="6.84852">
        <ele>2296</ele>
        <time>2026-08-04T08:09:11.278Z</time>
      </trkpt>
      <trkpt lat="45.95924" lon="6.84852">
        <ele>2296</ele>
        <time>2026-08-04T08:09:12.278Z</time>
      </trkpt>
      <trkpt lat="45.95923" lon="6.84852">
        <ele>2296</ele>
        <time>2026-08-04T08:09:13.278Z</time>
      </trkpt>
      <trkpt lat="45.95922" lon="6.84852">
        <ele>2296</ele>
        <time>2026-08-04T08:09:14.278Z</time>
      </trkpt>
      <trkpt lat="45.95921" lon="6.84852">
        <ele>2295</ele>
        <time>2026-08-04T08:09:15.278Z</time>
      </trkpt>
      <trkpt lat="45.9592" lon="6.84852">
        <ele>2295</ele>
        <time>2026-08-04T08:09:16.278Z</time>
      </trkpt>
      <trkpt lat="45.95919" lon="6.84852">
        <ele>2295</ele>
        <time>2026-08-04T08:09:17.278Z</time>
      </trkpt>
      <trkpt lat="45.95918" lon="6.84853">
        <ele>2295</ele>
        <time>2026-08-04T08:09:18.278Z</time>
      </trkpt>
      <trkpt lat="45.95917" lon="6.84854">
        <ele>2295</ele>
        <time>2026-08-04T08:09:19.278Z</time>
      </trkpt>
      <trkpt lat="45.95916" lon="6.84855">
        <ele>2295</ele>
        <time>2026-08-04T08:09:20.278Z</time>
      </trkpt>
      <trkpt lat="45.95915" lon="6.84857">
        <ele>2295</ele>
        <time>2026-08-04T08:09:21.278Z</time>
      </trkpt>
      <trkpt lat="45.95914" lon="6.84859">
        <ele>2295</ele>
        <time>2026-08-04T08:09:22.278Z</time>
      </trkpt>
      <trkpt lat="45.95914" lon="6.8486">
        <ele>2295</ele>
        <time>2026-08-04T08:09:23.278Z</time>
      </trkpt>
      <trkpt lat="45.95914" lon="6.84861">
        <ele>2295</ele>
        <time>2026-08-04T08:09:24.278Z</time>
      </trkpt>
      <trkpt lat="45.95914" lon="6.84862">
        <ele>2295</ele>
        <time>2026-08-04T08:09:25.278Z</time>
      </trkpt>
      <trkpt lat="45.95913" lon="6.84863">
        <ele>2295</ele>
        <time>2026-08-04T08:09:26.278Z</time>
      </trkpt>
      <trkpt lat="45.95913" lon="6.84865">
        <ele>2295</ele>
        <time>2026-08-04T08:09:27.278Z</time>
      </trkpt>
      <trkpt lat="45.95913" lon="6.84866">
        <ele>2296</ele>
        <time>2026-08-04T08:09:28.278Z</time>
      </trkpt>
      <trkpt lat="45.95912" lon="6.84867">
        <ele>2296</ele>
        <time>2026-08-04T08:09:29.278Z</time>
      </trkpt>
      <trkpt lat="45.95912" lon="6.84868">
        <ele>2295</ele>
        <time>2026-08-04T08:09:30.278Z</time>
      </trkpt>
      <trkpt lat="45.95911" lon="6.8487">
        <ele>2295</ele>
        <time>2026-08-04T08:09:31.278Z</time>
      </trkpt>
      <trkpt lat="45.95911" lon="6.84872">
        <ele>2295</ele>
        <time>2026-08-04T08:09:32.278Z</time>
      </trkpt>
      <trkpt lat="45.9591" lon="6.84873">
        <ele>2296</ele>
        <time>2026-08-04T08:09:33.278Z</time>
      </trkpt>
      <trkpt lat="45.95909" lon="6.84874">
        <ele>2296</ele>
        <time>2026-08-04T08:09:34.278Z</time>
      </trkpt>
      <trkpt lat="45.95908" lon="6.84875">
        <ele>2296</ele>
        <time>2026-08-04T08:09:35.279Z</time>
      </trkpt>
      <trkpt lat="45.95907" lon="6.84876">
        <ele>2296</ele>
        <time>2026-08-04T08:09:36.278Z</time>
      </trkpt>
      <trkpt lat="45.95906" lon="6.84877">
        <ele>2296</ele>
        <time>2026-08-04T08:09:37.278Z</time>
      </trkpt>
      <trkpt lat="45.95906" lon="6.84877">
        <ele>2296</ele>
        <time>2026-08-04T08:09:38.278Z</time>
      </trkpt>
      <trkpt lat="45.95905" lon="6.84877">
        <ele>2296</ele>
        <time>2026-08-04T08:09:39.278Z</time>
      </trkpt>
      <trkpt lat="45.95905" lon="6.84878">
        <ele>2296</ele>
        <time>2026-08-04T08:09:40.278Z</time>
      </trkpt>
      <trkpt lat="45.95905" lon="6.84878">
        <ele>2295</ele>
        <time>2026-08-04T08:09:41.278Z</time>
      </trkpt>
      <trkpt lat="45.95904" lon="6.84878">
        <ele>2295</ele>
        <time>2026-08-04T08:09:42.278Z</time>
      </trkpt>
      <trkpt lat="45.95904" lon="6.84879">
        <ele>2296</ele>
        <time>2026-08-04T08:09:43.278Z</time>
      </trkpt>
      <trkpt lat="45.95903" lon="6.8488">
        <ele>2296</ele>
        <time>2026-08-04T08:09:44.278Z</time>
      </trkpt>
      <trkpt lat="45.95903" lon="6.8488">
        <ele>2296</ele>
        <time>2026-08-04T08:09:45.278Z</time>
      </trkpt>
      <trkpt lat="45.95903" lon="6.84881">
        <ele>2296</ele>
        <time>2026-08-04T08:09:46.278Z</time>
      </trkpt>
      <trkpt lat="45.95902" lon="6.84881">
        <ele>2296</ele>
        <time>2026-08-04T08:09:47.278Z</time>
      </trkpt>
      <trkpt lat="45.95902" lon="6.84882">
        <ele>2296</ele>
        <time>2026-08-04T08:09:48.278Z</time>
      </trkpt>
      <trkpt lat="45.95903" lon="6.84883">
        <ele>2296</ele>
        <time>2026-08-04T08:09:49.278Z</time>
      </trkpt>
      <trkpt lat="45.95903" lon="6.84884">
        <ele>2296</ele>
        <time>2026-08-04T08:09:50.278Z</time>
      </trkpt>
      <trkpt lat="45.95903" lon="6.84884">
        <ele>2295</ele>
        <time>2026-08-04T08:09:51.278Z</time>
      </trkpt>
      <trkpt lat="45.95903" lon="6.84885">
        <ele>2295</ele>
        <time>2026-08-04T08:09:52.278Z</time>
      </trkpt>
      <trkpt lat="45.95904" lon="6.84886">
        <ele>2295</ele>
        <time>2026-08-04T08:09:53.278Z</time>
      </trkpt>
      <trkpt lat="45.95904" lon="6.84887">
        <ele>2295</ele>
        <time>2026-08-04T08:09:54.278Z</time>
      </trkpt>
      <trkpt lat="45.95905" lon="6.84888">
        <ele>2295</ele>
        <time>2026-08-04T08:09:55.278Z</time>
      </trkpt>
      <trkpt lat="45.95905" lon="6.84889">
        <ele>2295</ele>
        <time>2026-08-04T08:09:56.278Z</time>
      </trkpt>
      <trkpt lat="45.95906" lon="6.8489">
        <ele>2295</ele>
        <time>2026-08-04T08:09:57.278Z</time>
      </trkpt>
      <trkpt lat="45.95906" lon="6.84891">
        <ele>2295</ele>
        <time>2026-08-04T08:09:58.278Z</time>
      </trkpt>
      <trkpt lat="45.95907" lon="6.84892">
        <ele>2295</ele>
        <time>2026-08-04T08:09:59.278Z</time>
      </trkpt>
      <trkpt lat="45.95907" lon="6.84893">
        <ele>2295</ele>
        <time>2026-08-04T08:10:00.278Z</time>
      </trkpt>
      <trkpt lat="45.95908" lon="6.84894">
        <ele>2295</ele>
        <time>2026-08-04T08:10:01.278Z</time>
      </trkpt>
      <trkpt lat="45.95908" lon="6.84894">
        <ele>2296</ele>
        <time>2026-08-04T08:10:02.278Z</time>
      </trkpt>
      <trkpt lat="45.95909" lon="6.84895">
        <ele>2296</ele>
        <time>2026-08-04T08:10:03.278Z</time>
      </trkpt>
      <trkpt lat="45.9591" lon="6.84895">
        <ele>2296</ele>
        <time>2026-08-04T08:10:04.278Z</time>
      </trkpt>
      <trkpt lat="45.95911" lon="6.84895">
        <ele>2296</ele>
        <time>2026-08-04T08:10:05.278Z</time>
      </trkpt>
      <trkpt lat="45.95913" lon="6.84896">
        <ele>2296</ele>
        <time>2026-08-04T08:10:06.278Z</time>
      </trkpt>
      <trkpt lat="45.95914" lon="6.84896">
        <ele>2296</ele>
        <time>2026-08-04T08:10:07.278Z</time>
      </trkpt>
      <trkpt lat="45.95915" lon="6.84896">
        <ele>2295</ele>
        <time>2026-08-04T08:10:08.278Z</time>
      </trkpt>
      <trkpt lat="45.95916" lon="6.84897">
        <ele>2295</ele>
        <time>2026-08-04T08:10:09.278Z</time>
      </trkpt>
      <trkpt lat="45.95918" lon="6.84897">
        <ele>2295</ele>
        <time>2026-08-04T08:10:10.278Z</time>
      </trkpt>
      <trkpt lat="45.95919" lon="6.84898">
        <ele>2295</ele>
        <time>2026-08-04T08:10:11.278Z</time>
      </trkpt>
      <trkpt lat="45.9592" lon="6.84898">
        <ele>2295</ele>
        <time>2026-08-04T08:10:12.278Z</time>
      </trkpt>
      <trkpt lat="45.95921" lon="6.84899">
        <ele>2295</ele>
        <time>2026-08-04T08:10:13.278Z</time>
      </trkpt>
      <trkpt lat="45.95922" lon="6.849">
        <ele>2295</ele>
        <time>2026-08-04T08:10:14.278Z</time>
      </trkpt>
      <trkpt lat="45.95923" lon="6.84902">
        <ele>2295</ele>
        <time>2026-08-04T08:10:15.278Z</time>
      </trkpt>
      <trkpt lat="45.95923" lon="6.84903">
        <ele>2295</ele>
        <time>2026-08-04T08:10:16.278Z</time>
      </trkpt>
      <trkpt lat="45.95924" lon="6.84904">
        <ele>2296</ele>
        <time>2026-08-04T08:10:17.278Z</time>
      </trkpt>
      <trkpt lat="45.95924" lon="6.84905">
        <ele>2296</ele>
        <time>2026-08-04T08:10:18.278Z</time>
      </trkpt>
      <trkpt lat="45.95925" lon="6.84906">
        <ele>2296</ele>
        <time>2026-08-04T08:10:19.278Z</time>
      </trkpt>
      <trkpt lat="45.95926" lon="6.84906">
        <ele>2296</ele>
        <time>2026-08-04T08:10:20.278Z</time>
      </trkpt>
      <trkpt lat="45.95926" lon="6.84908">
        <ele>2296</ele>
        <time>2026-08-04T08:10:21.278Z</time>
      </trkpt>
      <trkpt lat="45.95927" lon="6.84908">
        <ele>2296</ele>
        <time>2026-08-04T08:10:22.278Z</time>
      </trkpt>
      <trkpt lat="45.95928" lon="6.8491">
        <ele>2296</ele>
        <time>2026-08-04T08:10:23.278Z</time>
      </trkpt>
      <trkpt lat="45.95929" lon="6.84911">
        <ele>2297</ele>
        <time>2026-08-04T08:10:24.278Z</time>
      </trkpt>
      <trkpt lat="45.9593" lon="6.84912">
        <ele>2297</ele>
        <time>2026-08-04T08:10:25.278Z</time>
      </trkpt>
      <trkpt lat="45.95931" lon="6.84913">
        <ele>2297</ele>
        <time>2026-08-04T08:10:26.278Z</time>
      </trkpt>
      <trkpt lat="45.95932" lon="6.84914">
        <ele>2298</ele>
        <time>2026-08-04T08:10:27.278Z</time>
      </trkpt>
      <trkpt lat="45.95933" lon="6.84914">
        <ele>2298</ele>
        <time>2026-08-04T08:10:28.278Z</time>
      </trkpt>
      <trkpt lat="45.95933" lon="6.84915">
        <ele>2298</ele>
        <time>2026-08-04T08:10:29.278Z</time>
      </trkpt>
      <trkpt lat="45.95934" lon="6.84916">
        <ele>2298</ele>
        <time>2026-08-04T08:10:30.278Z</time>
      </trkpt>
      <trkpt lat="45.95934" lon="6.84917">
        <ele>2298</ele>
        <time>2026-08-04T08:10:31.278Z</time>
      </trkpt>
      <trkpt lat="45.95935" lon="6.84918">
        <ele>2298</ele>
        <time>2026-08-04T08:10:32.278Z</time>
      </trkpt>
      <trkpt lat="45.95935" lon="6.84918">
        <ele>2298</ele>
        <time>2026-08-04T08:10:33.278Z</time>
      </trkpt>
      <trkpt lat="45.95936" lon="6.84919">
        <ele>2299</ele>
        <time>2026-08-04T08:10:34.278Z</time>
      </trkpt>
      <trkpt lat="45.95936" lon="6.84919">
        <ele>2299</ele>
        <time>2026-08-04T08:10:35.278Z</time>
      </trkpt>
      <trkpt lat="45.95936" lon="6.8492">
        <ele>2299</ele>
        <time>2026-08-04T08:10:36.278Z</time>
      </trkpt>
      <trkpt lat="45.95936" lon="6.84921">
        <ele>2299</ele>
        <time>2026-08-04T08:10:37.278Z</time>
      </trkpt>
      <trkpt lat="45.95936" lon="6.84923">
        <ele>2299</ele>
        <time>2026-08-04T08:10:38.278Z</time>
      </trkpt>
      <trkpt lat="45.95936" lon="6.84924">
        <ele>2299</ele>
        <time>2026-08-04T08:10:39.278Z</time>
      </trkpt>
      <trkpt lat="45.95936" lon="6.84926">
        <ele>2298</ele>
        <time>2026-08-04T08:10:40.278Z</time>
      </trkpt>
      <trkpt lat="45.95936" lon="6.84927">
        <ele>2298</ele>
        <time>2026-08-04T08:10:41.278Z</time>
      </trkpt>
      <trkpt lat="45.95935" lon="6.84929">
        <ele>2297</ele>
        <time>2026-08-04T08:10:42.278Z</time>
      </trkpt>
      <trkpt lat="45.95935" lon="6.84931">
        <ele>2297</ele>
        <time>2026-08-04T08:10:43.278Z</time>
      </trkpt>
      <trkpt lat="45.95935" lon="6.84933">
        <ele>2297</ele>
        <time>2026-08-04T08:10:44.278Z</time>
      </trkpt>
      <trkpt lat="45.95934" lon="6.84935">
        <ele>2297</ele>
        <time>2026-08-04T08:10:45.278Z</time>
      </trkpt>
      <trkpt lat="45.95935" lon="6.84936">
        <ele>2297</ele>
        <time>2026-08-04T08:10:46.278Z</time>
      </trkpt>
      <trkpt lat="45.95935" lon="6.84937">
        <ele>2298</ele>
        <time>2026-08-04T08:10:47.278Z</time>
      </trkpt>
      <trkpt lat="45.95935" lon="6.84938">
        <ele>2298</ele>
        <time>2026-08-04T08:10:48.278Z</time>
      </trkpt>
      <trkpt lat="45.95935" lon="6.84939">
        <ele>2297</ele>
        <time>2026-08-04T08:10:49.278Z</time>
      </trkpt>
      <trkpt lat="45.95935" lon="6.8494">
        <ele>2297</ele>
        <time>2026-08-04T08:10:50.278Z</time>
      </trkpt>
      <trkpt lat="45.95935" lon="6.84941">
        <ele>2297</ele>
        <time>2026-08-04T08:10:51.278Z</time>
      </trkpt>
      <trkpt lat="45.95935" lon="6.84942">
        <ele>2297</ele>
        <time>2026-08-04T08:10:52.278Z</time>
      </trkpt>
      <trkpt lat="45.95934" lon="6.84943">
        <ele>2297</ele>
        <time>2026-08-04T08:10:53.278Z</time>
      </trkpt>
      <trkpt lat="45.95933" lon="6.84944">
        <ele>2297</ele>
        <time>2026-08-04T08:10:54.278Z</time>
      </trkpt>
      <trkpt lat="45.95933" lon="6.84945">
        <ele>2297</ele>
        <time>2026-08-04T08:10:55.278Z</time>
      </trkpt>
      <trkpt lat="45.95933" lon="6.84947">
        <ele>2297</ele>
        <time>2026-08-04T08:10:56.278Z</time>
      </trkpt>
      <trkpt lat="45.95933" lon="6.84948">
        <ele>2297</ele>
        <time>2026-08-04T08:10:57.278Z</time>
      </trkpt>
      <trkpt lat="45.95932" lon="6.8495">
        <ele>2297</ele>
        <time>2026-08-04T08:10:58.278Z</time>
      </trkpt>
      <trkpt lat="45.95932" lon="6.84951">
        <ele>2297</ele>
        <time>2026-08-04T08:10:59.278Z</time>
      </trkpt>
      <trkpt lat="45.95932" lon="6.84952">
        <ele>2297</ele>
        <time>2026-08-04T08:11:00.278Z</time>
      </trkpt>
      <trkpt lat="45.95932" lon="6.84953">
        <ele>2297</ele>
        <time>2026-08-04T08:11:01.278Z</time>
      </trkpt>
      <trkpt lat="45.95932" lon="6.84953">
        <ele>2297</ele>
        <time>2026-08-04T08:11:02.278Z</time>
      </trkpt>
      <trkpt lat="45.95932" lon="6.84954">
        <ele>2296</ele>
        <time>2026-08-04T08:11:03.278Z</time>
      </trkpt>
      <trkpt lat="45.95933" lon="6.84954">
        <ele>2296</ele>
        <time>2026-08-04T08:11:04.278Z</time>
      </trkpt>
      <trkpt lat="45.95933" lon="6.84955">
        <ele>2295</ele>
        <time>2026-08-04T08:11:05.278Z</time>
      </trkpt>
      <trkpt lat="45.95933" lon="6.84956">
        <ele>2295</ele>
        <time>2026-08-04T08:11:06.278Z</time>
      </trkpt>
      <trkpt lat="45.95933" lon="6.84956">
        <ele>2295</ele>
        <time>2026-08-04T08:11:07.278Z</time>
      </trkpt>
      <trkpt lat="45.95933" lon="6.84956">
        <ele>2295</ele>
        <time>2026-08-04T08:11:08.278Z</time>
      </trkpt>
      <trkpt lat="45.95933" lon="6.84956">
        <ele>2295</ele>
        <time>2026-08-04T08:11:09.278Z</time>
      </trkpt>
      <trkpt lat="45.95933" lon="6.84956">
        <ele>2295</ele>
        <time>2026-08-04T08:11:10.278Z</time>
      </trkpt>
      <trkpt lat="45.95933" lon="6.84956">
        <ele>2295</ele>
        <time>2026-08-04T08:11:11.278Z</time>
      </trkpt>
      <trkpt lat="45.95932" lon="6.84956">
        <ele>2295</ele>
        <time>2026-08-04T08:11:12.278Z</time>
      </trkpt>
      <trkpt lat="45.95932" lon="6.84956">
        <ele>2295</ele>
        <time>2026-08-04T08:11:13.278Z</time>
      </trkpt>
      <trkpt lat="45.95932" lon="6.84956">
        <ele>2295</ele>
        <time>2026-08-04T08:11:14.278Z</time>
      </trkpt>
      <trkpt lat="45.95932" lon="6.84956">
        <ele>2295</ele>
        <time>2026-08-04T08:11:15.278Z</time>
      </trkpt>
      <trkpt lat="45.95932" lon="6.84956">
        <ele>2294</ele>
        <time>2026-08-04T08:11:16.278Z</time>
      </trkpt>
      <trkpt lat="45.95932" lon="6.84956">
        <ele>2294</ele>
        <time>2026-08-04T08:11:17.278Z</time>
      </trkpt>
      <trkpt lat="45.95931" lon="6.84955">
        <ele>2294</ele>
        <time>2026-08-04T08:11:18.278Z</time>
      </trkpt>
      <trkpt lat="45.95932" lon="6.84955">
        <ele>2294</ele>
        <time>2026-08-04T08:11:19.278Z</time>
      </trkpt>
      <trkpt lat="45.95932" lon="6.84955">
        <ele>2294</ele>
        <time>2026-08-04T08:11:20.278Z</time>
      </trkpt>
      <trkpt lat="45.95932" lon="6.84955">
        <ele>2294</ele>
        <time>2026-08-04T08:11:21.278Z</time>
      </trkpt>
      <trkpt lat="45.95932" lon="6.84955">
        <ele>2294</ele>
        <time>2026-08-04T08:11:22.278Z</time>
      </trkpt>
      <trkpt lat="45.95932" lon="6.84955">
        <ele>2294</ele>
        <time>2026-08-04T08:11:23.278Z</time>
      </trkpt>
      <trkpt lat="45.95932" lon="6.84955">
        <ele>2294</ele>
        <time>2026-08-04T08:11:24.278Z</time>
      </trkpt>
      <trkpt lat="45.95932" lon="6.84955">
        <ele>2294</ele>
        <time>2026-08-04T08:11:25.278Z</time>
      </trkpt>
      <trkpt lat="45.95932" lon="6.84955">
        <ele>2294</ele>
        <time>2026-08-04T08:11:26.278Z</time>
      </trkpt>
      <trkpt lat="45.95932" lon="6.84955">
        <ele>2293</ele>
        <time>2026-08-04T08:11:27.278Z</time>
      </trkpt>
      <trkpt lat="45.95932" lon="6.84955">
        <ele>2293</ele>
        <time>2026-08-04T08:11:28.278Z</time>
      </trkpt>
      <trkpt lat="45.95932" lon="6.84955">
        <ele>2293</ele>
        <time>2026-08-04T08:11:29.278Z</time>
      </trkpt>
      <trkpt lat="45.95932" lon="6.84955">
        <ele>2292</ele>
        <time>2026-08-04T08:11:30.278Z</time>
      </trkpt>
      <trkpt lat="45.95932" lon="6.84955">
        <ele>2292</ele>
        <time>2026-08-04T08:11:31.278Z</time>
      </trkpt>
      <trkpt lat="45.95932" lon="6.84955">
        <ele>2292</ele>
        <time>2026-08-04T08:11:32.278Z</time>
      </trkpt>
      <trkpt lat="45.95932" lon="6.84955">
        <ele>2292</ele>
        <time>2026-08-04T08:11:33.278Z</time>
      </trkpt>
      <trkpt lat="45.95932" lon="6.84955">
        <ele>2292</ele>
        <time>2026-08-04T08:11:34.278Z</time>
      </trkpt>
      <trkpt lat="45.95932" lon="6.84955">
        <ele>2292</ele>
        <time>2026-08-04T08:11:35.278Z</time>
      </trkpt>
      <trkpt lat="45.95932" lon="6.84955">
        <ele>2292</ele>
        <time>2026-08-04T08:11:36.278Z</time>
      </trkpt>
      <trkpt lat="45.95932" lon="6.84955">
        <ele>2292</ele>
        <time>2026-08-04T08:11:37.278Z</time>
      </trkpt>
      <trkpt lat="45.95932" lon="6.84955">
        <ele>2292</ele>
        <time>2026-08-04T08:11:38.278Z</time>
      </trkpt>
      <trkpt lat="45.95932" lon="6.84955">
        <ele>2292</ele>
        <time>2026-08-04T08:11:39.278Z</time>
      </trkpt>
      <trkpt lat="45.95932" lon="6.84955">
        <ele>2292</ele>
        <time>2026-08-04T08:11:40.278Z</time>
      </trkpt>
      <trkpt lat="45.95932" lon="6.84955">
        <ele>2292</ele>
        <time>2026-08-04T08:11:41.278Z</time>
      </trkpt>
      <trkpt lat="45.95932" lon="6.84955">
        <ele>2292</ele>
        <time>2026-08-04T08:11:42.278Z</time>
      </trkpt>
      <trkpt lat="45.95932" lon="6.84955">
        <ele>2292</ele>
        <time>2026-08-04T08:11:43.278Z</time>
      </trkpt>
      <trkpt lat="45.95932" lon="6.84955">
        <ele>2292</ele>
        <time>2026-08-04T08:11:44.278Z</time>
      </trkpt>
      <trkpt lat="45.95932" lon="6.84955">
        <ele>2292</ele>
        <time>2026-08-04T08:11:45.278Z</time>
      </trkpt>
      <trkpt lat="45.95933" lon="6.84956">
        <ele>2292</ele>
        <time>2026-08-04T08:11:46.278Z</time>
      </trkpt>
      <trkpt lat="45.95934" lon="6.84957">
        <ele>2292</ele>
        <time>2026-08-04T08:11:47.278Z</time>
      </trkpt>
      <trkpt lat="45.95935" lon="6.84958">
        <ele>2292</ele>
        <time>2026-08-04T08:11:48.278Z</time>
      </trkpt>
      <trkpt lat="45.95937" lon="6.84959">
        <ele>2291</ele>
        <time>2026-08-04T08:11:49.278Z</time>
      </trkpt>
      <trkpt lat="45.95938" lon="6.8496">
        <ele>2291</ele>
        <time>2026-08-04T08:11:50.278Z</time>
      </trkpt>
      <trkpt lat="45.95938" lon="6.84962">
        <ele>2291</ele>
        <time>2026-08-04T08:11:51.278Z</time>
      </trkpt>
      <trkpt lat="45.95938" lon="6.84965">
        <ele>2291</ele>
        <time>2026-08-04T08:11:52.278Z</time>
      </trkpt>
      <trkpt lat="45.95938" lon="6.84967">
        <ele>2291</ele>
        <time>2026-08-04T08:11:53.278Z</time>
      </trkpt>
      <trkpt lat="45.95937" lon="6.84969">
        <ele>2291</ele>
        <time>2026-08-04T08:11:54.278Z</time>
      </trkpt>
      <trkpt lat="45.95937" lon="6.8497">
        <ele>2291</ele>
        <time>2026-08-04T08:11:55.278Z</time>
      </trkpt>
      <trkpt lat="45.95936" lon="6.84972">
        <ele>2291</ele>
        <time>2026-08-04T08:11:56.278Z</time>
      </trkpt>
      <trkpt lat="45.95936" lon="6.84973">
        <ele>2291</ele>
        <time>2026-08-04T08:11:57.278Z</time>
      </trkpt>
      <trkpt lat="45.95935" lon="6.84974">
        <ele>2290</ele>
        <time>2026-08-04T08:11:58.278Z</time>
      </trkpt>
      <trkpt lat="45.95935" lon="6.84975">
        <ele>2290</ele>
        <time>2026-08-04T08:11:59.278Z</time>
      </trkpt>
      <trkpt lat="45.95934" lon="6.84975">
        <ele>2290</ele>
        <time>2026-08-04T08:12:00.278Z</time>
      </trkpt>
      <trkpt lat="45.95933" lon="6.84976">
        <ele>2290</ele>
        <time>2026-08-04T08:12:01.278Z</time>
      </trkpt>
      <trkpt lat="45.95933" lon="6.84977">
        <ele>2289</ele>
        <time>2026-08-04T08:12:02.278Z</time>
      </trkpt>
      <trkpt lat="45.95932" lon="6.84978">
        <ele>2289</ele>
        <time>2026-08-04T08:12:03.278Z</time>
      </trkpt>
      <trkpt lat="45.95932" lon="6.84979">
        <ele>2288</ele>
        <time>2026-08-04T08:12:04.278Z</time>
      </trkpt>
      <trkpt lat="45.95932" lon="6.8498">
        <ele>2288</ele>
        <time>2026-08-04T08:12:05.278Z</time>
      </trkpt>
      <trkpt lat="45.95931" lon="6.84981">
        <ele>2288</ele>
        <time>2026-08-04T08:12:06.278Z</time>
      </trkpt>
      <trkpt lat="45.95932" lon="6.84982">
        <ele>2287</ele>
        <time>2026-08-04T08:12:07.278Z</time>
      </trkpt>
      <trkpt lat="45.95932" lon="6.84983">
        <ele>2287</ele>
        <time>2026-08-04T08:12:08.278Z</time>
      </trkpt>
      <trkpt lat="45.95932" lon="6.84984">
        <ele>2287</ele>
        <time>2026-08-04T08:12:09.278Z</time>
      </trkpt>
      <trkpt lat="45.95932" lon="6.84984">
        <ele>2287</ele>
        <time>2026-08-04T08:12:10.278Z</time>
      </trkpt>
      <trkpt lat="45.95932" lon="6.84985">
        <ele>2287</ele>
        <time>2026-08-04T08:12:11.278Z</time>
      </trkpt>
      <trkpt lat="45.95932" lon="6.84986">
        <ele>2287</ele>
        <time>2026-08-04T08:12:12.278Z</time>
      </trkpt>
      <trkpt lat="45.95931" lon="6.84986">
        <ele>2287</ele>
        <time>2026-08-04T08:12:13.278Z</time>
      </trkpt>
      <trkpt lat="45.95931" lon="6.84987">
        <ele>2287</ele>
        <time>2026-08-04T08:12:14.278Z</time>
      </trkpt>
      <trkpt lat="45.95931" lon="6.84988">
        <ele>2286</ele>
        <time>2026-08-04T08:12:15.278Z</time>
      </trkpt>
      <trkpt lat="45.9593" lon="6.84989">
        <ele>2286</ele>
        <time>2026-08-04T08:12:16.278Z</time>
      </trkpt>
      <trkpt lat="45.9593" lon="6.8499">
        <ele>2286</ele>
        <time>2026-08-04T08:12:17.278Z</time>
      </trkpt>
      <trkpt lat="45.9593" lon="6.84992">
        <ele>2285</ele>
        <time>2026-08-04T08:12:18.278Z</time>
      </trkpt>
      <trkpt lat="45.9593" lon="6.84994">
        <ele>2285</ele>
        <time>2026-08-04T08:12:19.278Z</time>
      </trkpt>
      <trkpt lat="45.9593" lon="6.84996">
        <ele>2284</ele>
        <time>2026-08-04T08:12:20.278Z</time>
      </trkpt>
      <trkpt lat="45.9593" lon="6.84999">
        <ele>2284</ele>
        <time>2026-08-04T08:12:21.278Z</time>
      </trkpt>
      <trkpt lat="45.9593" lon="6.85001">
        <ele>2283</ele>
        <time>2026-08-04T08:12:22.278Z</time>
      </trkpt>
      <trkpt lat="45.95929" lon="6.85002">
        <ele>2283</ele>
        <time>2026-08-04T08:12:23.279Z</time>
      </trkpt>
      <trkpt lat="45.95928" lon="6.85003">
        <ele>2282</ele>
        <time>2026-08-04T08:12:24.278Z</time>
      </trkpt>
      <trkpt lat="45.95928" lon="6.85004">
        <ele>2282</ele>
        <time>2026-08-04T08:12:25.278Z</time>
      </trkpt>
      <trkpt lat="45.95927" lon="6.85006">
        <ele>2281</ele>
        <time>2026-08-04T08:12:26.278Z</time>
      </trkpt>
      <trkpt lat="45.95927" lon="6.85007">
        <ele>2281</ele>
        <time>2026-08-04T08:12:27.278Z</time>
      </trkpt>
      <trkpt lat="45.95927" lon="6.85009">
        <ele>2281</ele>
        <time>2026-08-04T08:12:28.278Z</time>
      </trkpt>
      <trkpt lat="45.95926" lon="6.8501">
        <ele>2281</ele>
        <time>2026-08-04T08:12:29.278Z</time>
      </trkpt>
      <trkpt lat="45.95926" lon="6.85012">
        <ele>2281</ele>
        <time>2026-08-04T08:12:30.278Z</time>
      </trkpt>
      <trkpt lat="45.95925" lon="6.85014">
        <ele>2282</ele>
        <time>2026-08-04T08:12:31.278Z</time>
      </trkpt>
      <trkpt lat="45.95924" lon="6.85015">
        <ele>2282</ele>
        <time>2026-08-04T08:12:32.278Z</time>
      </trkpt>
      <trkpt lat="45.95923" lon="6.85016">
        <ele>2282</ele>
        <time>2026-08-04T08:12:33.278Z</time>
      </trkpt>
      <trkpt lat="45.95922" lon="6.85017">
        <ele>2283</ele>
        <time>2026-08-04T08:12:34.278Z</time>
      </trkpt>
      <trkpt lat="45.95921" lon="6.85018">
        <ele>2283</ele>
        <time>2026-08-04T08:12:35.278Z</time>
      </trkpt>
      <trkpt lat="45.9592" lon="6.85019">
        <ele>2283</ele>
        <time>2026-08-04T08:12:36.278Z</time>
      </trkpt>
      <trkpt lat="45.95919" lon="6.85021">
        <ele>2283</ele>
        <time>2026-08-04T08:12:37.278Z</time>
      </trkpt>
      <trkpt lat="45.95918" lon="6.85022">
        <ele>2282</ele>
        <time>2026-08-04T08:12:38.278Z</time>
      </trkpt>
      <trkpt lat="45.95917" lon="6.85023">
        <ele>2282</ele>
        <time>2026-08-04T08:12:39.278Z</time>
      </trkpt>
      <trkpt lat="45.95916" lon="6.85023">
        <ele>2282</ele>
        <time>2026-08-04T08:12:40.278Z</time>
      </trkpt>
      <trkpt lat="45.95915" lon="6.85024">
        <ele>2283</ele>
        <time>2026-08-04T08:12:41.278Z</time>
      </trkpt>
      <trkpt lat="45.95914" lon="6.85025">
        <ele>2283</ele>
        <time>2026-08-04T08:12:42.278Z</time>
      </trkpt>
      <trkpt lat="45.95914" lon="6.85026">
        <ele>2283</ele>
        <time>2026-08-04T08:12:43.278Z</time>
      </trkpt>
      <trkpt lat="45.95913" lon="6.85026">
        <ele>2283</ele>
        <time>2026-08-04T08:12:44.278Z</time>
      </trkpt>
      <trkpt lat="45.95913" lon="6.85027">
        <ele>2283</ele>
        <time>2026-08-04T08:12:45.278Z</time>
      </trkpt>
      <trkpt lat="45.95912" lon="6.85027">
        <ele>2283</ele>
        <time>2026-08-04T08:12:46.278Z</time>
      </trkpt>
      <trkpt lat="45.95911" lon="6.85028">
        <ele>2283</ele>
        <time>2026-08-04T08:12:47.278Z</time>
      </trkpt>
      <trkpt lat="45.9591" lon="6.85028">
        <ele>2284</ele>
        <time>2026-08-04T08:12:48.278Z</time>
      </trkpt>
      <trkpt lat="45.95909" lon="6.85029">
        <ele>2284</ele>
        <time>2026-08-04T08:12:49.278Z</time>
      </trkpt>
      <trkpt lat="45.95909" lon="6.85031">
        <ele>2284</ele>
        <time>2026-08-04T08:12:50.278Z</time>
      </trkpt>
      <trkpt lat="45.95908" lon="6.85032">
        <ele>2285</ele>
        <time>2026-08-04T08:12:51.278Z</time>
      </trkpt>
      <trkpt lat="45.95908" lon="6.85033">
        <ele>2285</ele>
        <time>2026-08-04T08:12:52.278Z</time>
      </trkpt>
      <trkpt lat="45.95907" lon="6.85034">
        <ele>2285</ele>
        <time>2026-08-04T08:12:53.278Z</time>
      </trkpt>
      <trkpt lat="45.95906" lon="6.85036">
        <ele>2286</ele>
        <time>2026-08-04T08:12:54.278Z</time>
      </trkpt>
      <trkpt lat="45.95906" lon="6.85037">
        <ele>2286</ele>
        <time>2026-08-04T08:12:55.278Z</time>
      </trkpt>
      <trkpt lat="45.95906" lon="6.85038">
        <ele>2286</ele>
        <time>2026-08-04T08:12:56.278Z</time>
      </trkpt>
      <trkpt lat="45.95906" lon="6.85039">
        <ele>2287</ele>
        <time>2026-08-04T08:12:57.278Z</time>
      </trkpt>
      <trkpt lat="45.95907" lon="6.85039">
        <ele>2287</ele>
        <time>2026-08-04T08:12:58.278Z</time>
      </trkpt>
      <trkpt lat="45.95907" lon="6.8504">
        <ele>2287</ele>
        <time>2026-08-04T08:12:59.278Z</time>
      </trkpt>
      <trkpt lat="45.95907" lon="6.85041">
        <ele>2288</ele>
        <time>2026-08-04T08:13:00.278Z</time>
      </trkpt>
      <trkpt lat="45.95908" lon="6.85042">
        <ele>2288</ele>
        <time>2026-08-04T08:13:01.278Z</time>
      </trkpt>
      <trkpt lat="45.95909" lon="6.85043">
        <ele>2288</ele>
        <time>2026-08-04T08:13:02.278Z</time>
      </trkpt>
      <trkpt lat="45.9591" lon="6.85044">
        <ele>2289</ele>
        <time>2026-08-04T08:13:03.278Z</time>
      </trkpt>
      <trkpt lat="45.9591" lon="6.85045">
        <ele>2289</ele>
        <time>2026-08-04T08:13:04.278Z</time>
      </trkpt>
      <trkpt lat="45.9591" lon="6.85046">
        <ele>2289</ele>
        <time>2026-08-04T08:13:05.278Z</time>
      </trkpt>
      <trkpt lat="45.9591" lon="6.85048">
        <ele>2289</ele>
        <time>2026-08-04T08:13:06.278Z</time>
      </trkpt>
      <trkpt lat="45.9591" lon="6.85049">
        <ele>2289</ele>
        <time>2026-08-04T08:13:07.278Z</time>
      </trkpt>
      <trkpt lat="45.9591" lon="6.85051">
        <ele>2289</ele>
        <time>2026-08-04T08:13:08.278Z</time>
      </trkpt>
      <trkpt lat="45.95909" lon="6.85053">
        <ele>2289</ele>
        <time>2026-08-04T08:13:09.278Z</time>
      </trkpt>
      <trkpt lat="45.95909" lon="6.85054">
        <ele>2290</ele>
        <time>2026-08-04T08:13:10.278Z</time>
      </trkpt>
      <trkpt lat="45.95908" lon="6.85055">
        <ele>2290</ele>
        <time>2026-08-04T08:13:11.278Z</time>
      </trkpt>
      <trkpt lat="45.95907" lon="6.85055">
        <ele>2290</ele>
        <time>2026-08-04T08:13:12.278Z</time>
      </trkpt>
      <trkpt lat="45.95906" lon="6.85055">
        <ele>2289</ele>
        <time>2026-08-04T08:13:13.278Z</time>
      </trkpt>
      <trkpt lat="45.95906" lon="6.85056">
        <ele>2289</ele>
        <time>2026-08-04T08:13:14.278Z</time>
      </trkpt>
      <trkpt lat="45.95905" lon="6.85056">
        <ele>2289</ele>
        <time>2026-08-04T08:13:15.278Z</time>
      </trkpt>
      <trkpt lat="45.95905" lon="6.85057">
        <ele>2289</ele>
        <time>2026-08-04T08:13:16.278Z</time>
      </trkpt>
      <trkpt lat="45.95905" lon="6.85057">
        <ele>2289</ele>
        <time>2026-08-04T08:13:17.278Z</time>
      </trkpt>
      <trkpt lat="45.95905" lon="6.85057">
        <ele>2289</ele>
        <time>2026-08-04T08:13:18.278Z</time>
      </trkpt>
      <trkpt lat="45.95904" lon="6.85057">
        <ele>2289</ele>
        <time>2026-08-04T08:13:19.278Z</time>
      </trkpt>
      <trkpt lat="45.95903" lon="6.85058">
        <ele>2289</ele>
        <time>2026-08-04T08:13:20.278Z</time>
      </trkpt>
      <trkpt lat="45.95903" lon="6.85058">
        <ele>2289</ele>
        <time>2026-08-04T08:13:21.278Z</time>
      </trkpt>
      <trkpt lat="45.95903" lon="6.85058">
        <ele>2289</ele>
        <time>2026-08-04T08:13:22.278Z</time>
      </trkpt>
      <trkpt lat="45.95902" lon="6.85059">
        <ele>2289</ele>
        <time>2026-08-04T08:13:23.278Z</time>
      </trkpt>
      <trkpt lat="45.95902" lon="6.85059">
        <ele>2289</ele>
        <time>2026-08-04T08:13:24.278Z</time>
      </trkpt>
      <trkpt lat="45.95901" lon="6.85059">
        <ele>2289</ele>
        <time>2026-08-04T08:13:25.278Z</time>
      </trkpt>
      <trkpt lat="45.95901" lon="6.8506">
        <ele>2288</ele>
        <time>2026-08-04T08:13:26.278Z</time>
      </trkpt>
      <trkpt lat="45.959" lon="6.8506">
        <ele>2288</ele>
        <time>2026-08-04T08:13:27.278Z</time>
      </trkpt>
      <trkpt lat="45.95899" lon="6.85061">
        <ele>2288</ele>
        <time>2026-08-04T08:13:28.278Z</time>
      </trkpt>
      <trkpt lat="45.95899" lon="6.85062">
        <ele>2288</ele>
        <time>2026-08-04T08:13:29.278Z</time>
      </trkpt>
      <trkpt lat="45.95898" lon="6.85063">
        <ele>2288</ele>
        <time>2026-08-04T08:13:30.278Z</time>
      </trkpt>
      <trkpt lat="45.95897" lon="6.85063">
        <ele>2288</ele>
        <time>2026-08-04T08:13:31.278Z</time>
      </trkpt>
      <trkpt lat="45.95897" lon="6.85064">
        <ele>2288</ele>
        <time>2026-08-04T08:13:32.278Z</time>
      </trkpt>
      <trkpt lat="45.95896" lon="6.85064">
        <ele>2288</ele>
        <time>2026-08-04T08:13:33.278Z</time>
      </trkpt>
      <trkpt lat="45.95896" lon="6.85064">
        <ele>2288</ele>
        <time>2026-08-04T08:13:34.278Z</time>
      </trkpt>
      <trkpt lat="45.95895" lon="6.85064">
        <ele>2287</ele>
        <time>2026-08-04T08:13:35.278Z</time>
      </trkpt>
      <trkpt lat="45.95895" lon="6.85065">
        <ele>2287</ele>
        <time>2026-08-04T08:13:36.278Z</time>
      </trkpt>
      <trkpt lat="45.95895" lon="6.85065">
        <ele>2287</ele>
        <time>2026-08-04T08:13:37.278Z</time>
      </trkpt>
      <trkpt lat="45.95895" lon="6.85065">
        <ele>2287</ele>
        <time>2026-08-04T08:13:38.278Z</time>
      </trkpt>
      <trkpt lat="45.95895" lon="6.85065">
        <ele>2287</ele>
        <time>2026-08-04T08:13:39.278Z</time>
      </trkpt>
      <trkpt lat="45.95894" lon="6.85065">
        <ele>2287</ele>
        <time>2026-08-04T08:13:40.278Z</time>
      </trkpt>
      <trkpt lat="45.95893" lon="6.85065">
        <ele>2287</ele>
        <time>2026-08-04T08:13:41.278Z</time>
      </trkpt>
      <trkpt lat="45.95892" lon="6.85066">
        <ele>2287</ele>
        <time>2026-08-04T08:13:42.278Z</time>
      </trkpt>
      <trkpt lat="45.95891" lon="6.85066">
        <ele>2287</ele>
        <time>2026-08-04T08:13:43.278Z</time>
      </trkpt>
      <trkpt lat="45.95891" lon="6.85067">
        <ele>2287</ele>
        <time>2026-08-04T08:13:44.278Z</time>
      </trkpt>
      <trkpt lat="45.95891" lon="6.85067">
        <ele>2287</ele>
        <time>2026-08-04T08:13:45.278Z</time>
      </trkpt>
      <trkpt lat="45.95891" lon="6.85068">
        <ele>2287</ele>
        <time>2026-08-04T08:13:46.278Z</time>
      </trkpt>
      <trkpt lat="45.95891" lon="6.85069">
        <ele>2287</ele>
        <time>2026-08-04T08:13:47.278Z</time>
      </trkpt>
      <trkpt lat="45.95891" lon="6.8507">
        <ele>2288</ele>
        <time>2026-08-04T08:13:48.278Z</time>
      </trkpt>
      <trkpt lat="45.9589" lon="6.85071">
        <ele>2288</ele>
        <time>2026-08-04T08:13:49.278Z</time>
      </trkpt>
      <trkpt lat="45.9589" lon="6.85072">
        <ele>2288</ele>
        <time>2026-08-04T08:13:50.278Z</time>
      </trkpt>
      <trkpt lat="45.9589" lon="6.85073">
        <ele>2288</ele>
        <time>2026-08-04T08:13:51.278Z</time>
      </trkpt>
      <trkpt lat="45.9589" lon="6.85073">
        <ele>2288</ele>
        <time>2026-08-04T08:13:52.278Z</time>
      </trkpt>
      <trkpt lat="45.9589" lon="6.85074">
        <ele>2288</ele>
        <time>2026-08-04T08:13:53.278Z</time>
      </trkpt>
      <trkpt lat="45.95889" lon="6.85075">
        <ele>2288</ele>
        <time>2026-08-04T08:13:54.278Z</time>
      </trkpt>
      <trkpt lat="45.95889" lon="6.85075">
        <ele>2288</ele>
        <time>2026-08-04T08:13:55.278Z</time>
      </trkpt>
      <trkpt lat="45.95887" lon="6.85074">
        <ele>2288</ele>
        <time>2026-08-04T08:13:56.278Z</time>
      </trkpt>
      <trkpt lat="45.95886" lon="6.85074">
        <ele>2288</ele>
        <time>2026-08-04T08:13:57.278Z</time>
      </trkpt>
      <trkpt lat="45.95885" lon="6.85075">
        <ele>2288</ele>
        <time>2026-08-04T08:13:58.278Z</time>
      </trkpt>
      <trkpt lat="45.95884" lon="6.85076">
        <ele>2289</ele>
        <time>2026-08-04T08:13:59.278Z</time>
      </trkpt>
      <trkpt lat="45.95882" lon="6.85076">
        <ele>2289</ele>
        <time>2026-08-04T08:14:00.278Z</time>
      </trkpt>
      <trkpt lat="45.95881" lon="6.85076">
        <ele>2289</ele>
        <time>2026-08-04T08:14:01.278Z</time>
      </trkpt>
      <trkpt lat="45.95881" lon="6.85077">
        <ele>2289</ele>
        <time>2026-08-04T08:14:02.278Z</time>
      </trkpt>
      <trkpt lat="45.9588" lon="6.85077">
        <ele>2290</ele>
        <time>2026-08-04T08:14:03.278Z</time>
      </trkpt>
      <trkpt lat="45.95879" lon="6.85078">
        <ele>2290</ele>
        <time>2026-08-04T08:14:04.278Z</time>
      </trkpt>
      <trkpt lat="45.95878" lon="6.85078">
        <ele>2290</ele>
        <time>2026-08-04T08:14:05.278Z</time>
      </trkpt>
      <trkpt lat="45.95877" lon="6.85079">
        <ele>2290</ele>
        <time>2026-08-04T08:14:06.278Z</time>
      </trkpt>
      <trkpt lat="45.95876" lon="6.8508">
        <ele>2290</ele>
        <time>2026-08-04T08:14:07.278Z</time>
      </trkpt>
      <trkpt lat="45.95875" lon="6.8508">
        <ele>2291</ele>
        <time>2026-08-04T08:14:08.278Z</time>
      </trkpt>
      <trkpt lat="45.95874" lon="6.85081">
        <ele>2291</ele>
        <time>2026-08-04T08:14:09.278Z</time>
      </trkpt>
      <trkpt lat="45.95872" lon="6.85081">
        <ele>2291</ele>
        <time>2026-08-04T08:14:10.278Z</time>
      </trkpt>
      <trkpt lat="45.9587" lon="6.85081">
        <ele>2292</ele>
        <time>2026-08-04T08:14:11.278Z</time>
      </trkpt>
      <trkpt lat="45.95869" lon="6.85082">
        <ele>2292</ele>
        <time>2026-08-04T08:14:12.278Z</time>
      </trkpt>
      <trkpt lat="45.95868" lon="6.85083">
        <ele>2292</ele>
        <time>2026-08-04T08:14:13.278Z</time>
      </trkpt>
      <trkpt lat="45.95867" lon="6.85083">
        <ele>2292</ele>
        <time>2026-08-04T08:14:14.278Z</time>
      </trkpt>
      <trkpt lat="45.95867" lon="6.85084">
        <ele>2293</ele>
        <time>2026-08-04T08:14:15.278Z</time>
      </trkpt>
      <trkpt lat="45.95866" lon="6.85085">
        <ele>2293</ele>
        <time>2026-08-04T08:14:16.278Z</time>
      </trkpt>
      <trkpt lat="45.95866" lon="6.85085">
        <ele>2293</ele>
        <time>2026-08-04T08:14:17.278Z</time>
      </trkpt>
      <trkpt lat="45.95866" lon="6.85086">
        <ele>2293</ele>
        <time>2026-08-04T08:14:18.278Z</time>
      </trkpt>
      <trkpt lat="45.95865" lon="6.85086">
        <ele>2293</ele>
        <time>2026-08-04T08:14:19.278Z</time>
      </trkpt>
      <trkpt lat="45.95864" lon="6.85085">
        <ele>2293</ele>
        <time>2026-08-04T08:14:20.278Z</time>
      </trkpt>
      <trkpt lat="45.95864" lon="6.85085">
        <ele>2292</ele>
        <time>2026-08-04T08:14:21.278Z</time>
      </trkpt>
      <trkpt lat="45.95864" lon="6.85085">
        <ele>2292</ele>
        <time>2026-08-04T08:14:22.278Z</time>
      </trkpt>
      <trkpt lat="45.95863" lon="6.85085">
        <ele>2292</ele>
        <time>2026-08-04T08:14:23.278Z</time>
      </trkpt>
      <trkpt lat="45.95863" lon="6.85085">
        <ele>2291</ele>
        <time>2026-08-04T08:14:24.278Z</time>
      </trkpt>
      <trkpt lat="45.95862" lon="6.85085">
        <ele>2291</ele>
        <time>2026-08-04T08:14:25.278Z</time>
      </trkpt>
      <trkpt lat="45.95862" lon="6.85084">
        <ele>2291</ele>
        <time>2026-08-04T08:14:26.278Z</time>
      </trkpt>
      <trkpt lat="45.95862" lon="6.85084">
        <ele>2291</ele>
        <time>2026-08-04T08:14:27.278Z</time>
      </trkpt>
      <trkpt lat="45.95861" lon="6.85084">
        <ele>2291</ele>
        <time>2026-08-04T08:14:28.278Z</time>
      </trkpt>
      <trkpt lat="45.95861" lon="6.85085">
        <ele>2291</ele>
        <time>2026-08-04T08:14:29.278Z</time>
      </trkpt>
      <trkpt lat="45.9586" lon="6.85085">
        <ele>2291</ele>
        <time>2026-08-04T08:14:30.278Z</time>
      </trkpt>
      <trkpt lat="45.95859" lon="6.85086">
        <ele>2291</ele>
        <time>2026-08-04T08:14:31.278Z</time>
      </trkpt>
      <trkpt lat="45.95857" lon="6.85086">
        <ele>2291</ele>
        <time>2026-08-04T08:14:32.278Z</time>
      </trkpt>
      <trkpt lat="45.95856" lon="6.85086">
        <ele>2291</ele>
        <time>2026-08-04T08:14:33.278Z</time>
      </trkpt>
      <trkpt lat="45.95854" lon="6.85086">
        <ele>2291</ele>
        <time>2026-08-04T08:14:34.278Z</time>
      </trkpt>
      <trkpt lat="45.95854" lon="6.85087">
        <ele>2292</ele>
        <time>2026-08-04T08:14:35.278Z</time>
      </trkpt>
      <trkpt lat="45.95854" lon="6.85087">
        <ele>2292</ele>
        <time>2026-08-04T08:14:36.278Z</time>
      </trkpt>
      <trkpt lat="45.95854" lon="6.85088">
        <ele>2292</ele>
        <time>2026-08-04T08:14:37.278Z</time>
      </trkpt>
      <trkpt lat="45.95853" lon="6.85089">
        <ele>2292</ele>
        <time>2026-08-04T08:14:38.278Z</time>
      </trkpt>
      <trkpt lat="45.95853" lon="6.8509">
        <ele>2292</ele>
        <time>2026-08-04T08:14:39.278Z</time>
      </trkpt>
      <trkpt lat="45.95852" lon="6.8509">
        <ele>2292</ele>
        <time>2026-08-04T08:14:40.278Z</time>
      </trkpt>
      <trkpt lat="45.95852" lon="6.85091">
        <ele>2292</ele>
        <time>2026-08-04T08:14:41.278Z</time>
      </trkpt>
      <trkpt lat="45.95851" lon="6.85092">
        <ele>2292</ele>
        <time>2026-08-04T08:14:42.278Z</time>
      </trkpt>
      <trkpt lat="45.9585" lon="6.85093">
        <ele>2291</ele>
        <time>2026-08-04T08:14:43.278Z</time>
      </trkpt>
      <trkpt lat="45.95849" lon="6.85093">
        <ele>2292</ele>
        <time>2026-08-04T08:14:44.278Z</time>
      </trkpt>
      <trkpt lat="45.95849" lon="6.85093">
        <ele>2292</ele>
        <time>2026-08-04T08:14:45.278Z</time>
      </trkpt>
      <trkpt lat="45.95848" lon="6.85094">
        <ele>2292</ele>
        <time>2026-08-04T08:14:46.278Z</time>
      </trkpt>
      <trkpt lat="45.95848" lon="6.85094">
        <ele>2292</ele>
        <time>2026-08-04T08:14:47.278Z</time>
      </trkpt>
      <trkpt lat="45.95847" lon="6.85094">
        <ele>2292</ele>
        <time>2026-08-04T08:14:48.278Z</time>
      </trkpt>
      <trkpt lat="45.95847" lon="6.85094">
        <ele>2292</ele>
        <time>2026-08-04T08:14:49.278Z</time>
      </trkpt>
      <trkpt lat="45.95847" lon="6.85094">
        <ele>2292</ele>
        <time>2026-08-04T08:14:50.278Z</time>
      </trkpt>
      <trkpt lat="45.95847" lon="6.85094">
        <ele>2293</ele>
        <time>2026-08-04T08:14:51.278Z</time>
      </trkpt>
      <trkpt lat="45.95847" lon="6.85094">
        <ele>2293</ele>
        <time>2026-08-04T08:14:52.278Z</time>
      </trkpt>
      <trkpt lat="45.95847" lon="6.85094">
        <ele>2293</ele>
        <time>2026-08-04T08:14:53.278Z</time>
      </trkpt>
      <trkpt lat="45.95847" lon="6.85094">
        <ele>2293</ele>
        <time>2026-08-04T08:14:54.278Z</time>
      </trkpt>
      <trkpt lat="45.95847" lon="6.85094">
        <ele>2294</ele>
        <time>2026-08-04T08:14:55.278Z</time>
      </trkpt>
      <trkpt lat="45.95847" lon="6.85094">
        <ele>2294</ele>
        <time>2026-08-04T08:14:56.278Z</time>
      </trkpt>
      <trkpt lat="45.95847" lon="6.85094">
        <ele>2294</ele>
        <time>2026-08-04T08:14:57.278Z</time>
      </trkpt>
      <trkpt lat="45.95847" lon="6.85094">
        <ele>2294</ele>
        <time>2026-08-04T08:14:58.278Z</time>
      </trkpt>
      <trkpt lat="45.95847" lon="6.85094">
        <ele>2294</ele>
        <time>2026-08-04T08:14:59.278Z</time>
      </trkpt>
      <trkpt lat="45.95846" lon="6.85094">
        <ele>2294</ele>
        <time>2026-08-04T08:15:00.278Z</time>
      </trkpt>
      <trkpt lat="45.95846" lon="6.85095">
        <ele>2293</ele>
        <time>2026-08-04T08:15:01.278Z</time>
      </trkpt>
      <trkpt lat="45.95846" lon="6.85095">
        <ele>2293</ele>
        <time>2026-08-04T08:15:02.278Z</time>
      </trkpt>
      <trkpt lat="45.95846" lon="6.85095">
        <ele>2293</ele>
        <time>2026-08-04T08:15:03.278Z</time>
      </trkpt>
      <trkpt lat="45.95845" lon="6.85096">
        <ele>2293</ele>
        <time>2026-08-04T08:15:04.278Z</time>
      </trkpt>
      <trkpt lat="45.95845" lon="6.85097">
        <ele>2293</ele>
        <time>2026-08-04T08:15:05.278Z</time>
      </trkpt>
      <trkpt lat="45.95845" lon="6.85098">
        <ele>2293</ele>
        <time>2026-08-04T08:15:06.278Z</time>
      </trkpt>
      <trkpt lat="45.95846" lon="6.85099">
        <ele>2293</ele>
        <time>2026-08-04T08:15:07.278Z</time>
      </trkpt>
      <trkpt lat="45.95846" lon="6.85099">
        <ele>2293</ele>
        <time>2026-08-04T08:15:08.278Z</time>
      </trkpt>
      <trkpt lat="45.95845" lon="6.851">
        <ele>2293</ele>
        <time>2026-08-04T08:15:09.278Z</time>
      </trkpt>
      <trkpt lat="45.95845" lon="6.851">
        <ele>2293</ele>
        <time>2026-08-04T08:15:10.278Z</time>
      </trkpt>
      <trkpt lat="45.95845" lon="6.85101">
        <ele>2293</ele>
        <time>2026-08-04T08:15:11.278Z</time>
      </trkpt>
      <trkpt lat="45.95844" lon="6.85102">
        <ele>2293</ele>
        <time>2026-08-04T08:15:12.278Z</time>
      </trkpt>
      <trkpt lat="45.95844" lon="6.85103">
        <ele>2293</ele>
        <time>2026-08-04T08:15:13.278Z</time>
      </trkpt>
      <trkpt lat="45.95843" lon="6.85104">
        <ele>2293</ele>
        <time>2026-08-04T08:15:14.278Z</time>
      </trkpt>
      <trkpt lat="45.95843" lon="6.85104">
        <ele>2294</ele>
        <time>2026-08-04T08:15:15.278Z</time>
      </trkpt>
      <trkpt lat="45.95842" lon="6.85104">
        <ele>2294</ele>
        <time>2026-08-04T08:15:16.278Z</time>
      </trkpt>
      <trkpt lat="45.95842" lon="6.85104">
        <ele>2295</ele>
        <time>2026-08-04T08:15:17.278Z</time>
      </trkpt>
      <trkpt lat="45.95842" lon="6.85104">
        <ele>2295</ele>
        <time>2026-08-04T08:15:18.278Z</time>
      </trkpt>
      <trkpt lat="45.95841" lon="6.85105">
        <ele>2296</ele>
        <time>2026-08-04T08:15:19.278Z</time>
      </trkpt>
      <trkpt lat="45.95841" lon="6.85105">
        <ele>2296</ele>
        <time>2026-08-04T08:15:20.278Z</time>
      </trkpt>
      <trkpt lat="45.95841" lon="6.85106">
        <ele>2296</ele>
        <time>2026-08-04T08:15:21.278Z</time>
      </trkpt>
      <trkpt lat="45.95841" lon="6.85107">
        <ele>2296</ele>
        <time>2026-08-04T08:15:22.278Z</time>
      </trkpt>
      <trkpt lat="45.95842" lon="6.85108">
        <ele>2296</ele>
        <time>2026-08-04T08:15:23.278Z</time>
      </trkpt>
      <trkpt lat="45.95842" lon="6.85109">
        <ele>2297</ele>
        <time>2026-08-04T08:15:24.278Z</time>
      </trkpt>
      <trkpt lat="45.95842" lon="6.8511">
        <ele>2297</ele>
        <time>2026-08-04T08:15:25.278Z</time>
      </trkpt>
      <trkpt lat="45.95842" lon="6.85111">
        <ele>2297</ele>
        <time>2026-08-04T08:15:26.278Z</time>
      </trkpt>
      <trkpt lat="45.95841" lon="6.85112">
        <ele>2297</ele>
        <time>2026-08-04T08:15:27.278Z</time>
      </trkpt>
      <trkpt lat="45.95841" lon="6.85112">
        <ele>2297</ele>
        <time>2026-08-04T08:15:28.278Z</time>
      </trkpt>
      <trkpt lat="45.95841" lon="6.85113">
        <ele>2297</ele>
        <time>2026-08-04T08:15:29.278Z</time>
      </trkpt>
      <trkpt lat="45.9584" lon="6.85113">
        <ele>2297</ele>
        <time>2026-08-04T08:15:30.278Z</time>
      </trkpt>
      <trkpt lat="45.9584" lon="6.85114">
        <ele>2297</ele>
        <time>2026-08-04T08:15:31.278Z</time>
      </trkpt>
      <trkpt lat="45.9584" lon="6.85114">
        <ele>2297</ele>
        <time>2026-08-04T08:15:32.278Z</time>
      </trkpt>
      <trkpt lat="45.9584" lon="6.85114">
        <ele>2297</ele>
        <time>2026-08-04T08:15:33.278Z</time>
      </trkpt>
      <trkpt lat="45.9584" lon="6.85115">
        <ele>2298</ele>
        <time>2026-08-04T08:15:34.278Z</time>
      </trkpt>
      <trkpt lat="45.9584" lon="6.85115">
        <ele>2298</ele>
        <time>2026-08-04T08:15:35.278Z</time>
      </trkpt>
      <trkpt lat="45.9584" lon="6.85116">
        <ele>2298</ele>
        <time>2026-08-04T08:15:36.278Z</time>
      </trkpt>
      <trkpt lat="45.9584" lon="6.85116">
        <ele>2298</ele>
        <time>2026-08-04T08:15:37.278Z</time>
      </trkpt>
      <trkpt lat="45.9584" lon="6.85117">
        <ele>2298</ele>
        <time>2026-08-04T08:15:38.278Z</time>
      </trkpt>
      <trkpt lat="45.95841" lon="6.85118">
        <ele>2299</ele>
        <time>2026-08-04T08:15:39.278Z</time>
      </trkpt>
      <trkpt lat="45.95841" lon="6.85119">
        <ele>2299</ele>
        <time>2026-08-04T08:15:40.278Z</time>
      </trkpt>
      <trkpt lat="45.9584" lon="6.85119">
        <ele>2299</ele>
        <time>2026-08-04T08:15:41.278Z</time>
      </trkpt>
      <trkpt lat="45.9584" lon="6.8512">
        <ele>2299</ele>
        <time>2026-08-04T08:15:42.278Z</time>
      </trkpt>
      <trkpt lat="45.9584" lon="6.8512">
        <ele>2300</ele>
        <time>2026-08-04T08:15:43.278Z</time>
      </trkpt>
      <trkpt lat="45.9584" lon="6.85121">
        <ele>2300</ele>
        <time>2026-08-04T08:15:44.278Z</time>
      </trkpt>
      <trkpt lat="45.9584" lon="6.85121">
        <ele>2300</ele>
        <time>2026-08-04T08:15:45.278Z</time>
      </trkpt>
      <trkpt lat="45.9584" lon="6.85121">
        <ele>2300</ele>
        <time>2026-08-04T08:15:46.278Z</time>
      </trkpt>
      <trkpt lat="45.9584" lon="6.85122">
        <ele>2300</ele>
        <time>2026-08-04T08:15:47.278Z</time>
      </trkpt>
      <trkpt lat="45.9584" lon="6.85123">
        <ele>2300</ele>
        <time>2026-08-04T08:15:48.278Z</time>
      </trkpt>
      <trkpt lat="45.95841" lon="6.85124">
        <ele>2300</ele>
        <time>2026-08-04T08:15:49.278Z</time>
      </trkpt>
      <trkpt lat="45.95841" lon="6.85125">
        <ele>2300</ele>
        <time>2026-08-04T08:15:50.278Z</time>
      </trkpt>
      <trkpt lat="45.95841" lon="6.85126">
        <ele>2301</ele>
        <time>2026-08-04T08:15:51.278Z</time>
      </trkpt>
      <trkpt lat="45.95841" lon="6.85127">
        <ele>2301</ele>
        <time>2026-08-04T08:15:52.278Z</time>
      </trkpt>
      <trkpt lat="45.95841" lon="6.85129">
        <ele>2301</ele>
        <time>2026-08-04T08:15:53.278Z</time>
      </trkpt>
      <trkpt lat="45.9584" lon="6.8513">
        <ele>2302</ele>
        <time>2026-08-04T08:15:54.278Z</time>
      </trkpt>
      <trkpt lat="45.9584" lon="6.85131">
        <ele>2303</ele>
        <time>2026-08-04T08:15:55.278Z</time>
      </trkpt>
      <trkpt lat="45.9584" lon="6.85132">
        <ele>2303</ele>
        <time>2026-08-04T08:15:56.278Z</time>
      </trkpt>
      <trkpt lat="45.9584" lon="6.85133">
        <ele>2303</ele>
        <time>2026-08-04T08:15:57.278Z</time>
      </trkpt>
      <trkpt lat="45.9584" lon="6.85134">
        <ele>2303</ele>
        <time>2026-08-04T08:15:58.278Z</time>
      </trkpt>
      <trkpt lat="45.95841" lon="6.85135">
        <ele>2304</ele>
        <time>2026-08-04T08:15:59.278Z</time>
      </trkpt>
      <trkpt lat="45.95841" lon="6.85136">
        <ele>2304</ele>
        <time>2026-08-04T08:16:00.278Z</time>
      </trkpt>
      <trkpt lat="45.95841" lon="6.85137">
        <ele>2304</ele>
        <time>2026-08-04T08:16:01.278Z</time>
      </trkpt>
      <trkpt lat="45.9584" lon="6.85137">
        <ele>2304</ele>
        <time>2026-08-04T08:16:02.278Z</time>
      </trkpt>
      <trkpt lat="45.9584" lon="6.85138">
        <ele>2305</ele>
        <time>2026-08-04T08:16:03.278Z</time>
      </trkpt>
      <trkpt lat="45.95839" lon="6.85139">
        <ele>2305</ele>
        <time>2026-08-04T08:16:04.278Z</time>
      </trkpt>
      <trkpt lat="45.95839" lon="6.8514">
        <ele>2306</ele>
        <time>2026-08-04T08:16:05.278Z</time>
      </trkpt>
      <trkpt lat="45.95839" lon="6.8514">
        <ele>2306</ele>
        <time>2026-08-04T08:16:06.278Z</time>
      </trkpt>
      <trkpt lat="45.95839" lon="6.85141">
        <ele>2306</ele>
        <time>2026-08-04T08:16:07.278Z</time>
      </trkpt>
      <trkpt lat="45.95838" lon="6.85142">
        <ele>2306</ele>
        <time>2026-08-04T08:16:08.278Z</time>
      </trkpt>
      <trkpt lat="45.95838" lon="6.85142">
        <ele>2307</ele>
        <time>2026-08-04T08:16:09.278Z</time>
      </trkpt>
      <trkpt lat="45.95838" lon="6.85143">
        <ele>2307</ele>
        <time>2026-08-04T08:16:10.278Z</time>
      </trkpt>
      <trkpt lat="45.95837" lon="6.85144">
        <ele>2307</ele>
        <time>2026-08-04T08:16:11.278Z</time>
      </trkpt>
      <trkpt lat="45.95837" lon="6.85145">
        <ele>2307</ele>
        <time>2026-08-04T08:16:12.278Z</time>
      </trkpt>
      <trkpt lat="45.95837" lon="6.85145">
        <ele>2307</ele>
        <time>2026-08-04T08:16:13.278Z</time>
      </trkpt>
      <trkpt lat="45.95837" lon="6.85146">
        <ele>2308</ele>
        <time>2026-08-04T08:16:14.278Z</time>
      </trkpt>
      <trkpt lat="45.95837" lon="6.85147">
        <ele>2308</ele>
        <time>2026-08-04T08:16:15.278Z</time>
      </trkpt>
      <trkpt lat="45.95838" lon="6.85148">
        <ele>2308</ele>
        <time>2026-08-04T08:16:16.278Z</time>
      </trkpt>
      <trkpt lat="45.95838" lon="6.85149">
        <ele>2308</ele>
        <time>2026-08-04T08:16:17.278Z</time>
      </trkpt>
      <trkpt lat="45.95838" lon="6.8515">
        <ele>2309</ele>
        <time>2026-08-04T08:16:18.278Z</time>
      </trkpt>
      <trkpt lat="45.95839" lon="6.85152">
        <ele>2309</ele>
        <time>2026-08-04T08:16:19.278Z</time>
      </trkpt>
      <trkpt lat="45.95839" lon="6.85153">
        <ele>2310</ele>
        <time>2026-08-04T08:16:20.278Z</time>
      </trkpt>
      <trkpt lat="45.95839" lon="6.85154">
        <ele>2310</ele>
        <time>2026-08-04T08:16:21.278Z</time>
      </trkpt>
      <trkpt lat="45.95839" lon="6.85156">
        <ele>2310</ele>
        <time>2026-08-04T08:16:22.278Z</time>
      </trkpt>
      <trkpt lat="45.95838" lon="6.85157">
        <ele>2310</ele>
        <time>2026-08-04T08:16:23.278Z</time>
      </trkpt>
      <trkpt lat="45.95838" lon="6.85157">
        <ele>2310</ele>
        <time>2026-08-04T08:16:24.278Z</time>
      </trkpt>
      <trkpt lat="45.95837" lon="6.85158">
        <ele>2310</ele>
        <time>2026-08-04T08:16:25.278Z</time>
      </trkpt>
      <trkpt lat="45.95837" lon="6.85159">
        <ele>2310</ele>
        <time>2026-08-04T08:16:26.278Z</time>
      </trkpt>
      <trkpt lat="45.95837" lon="6.8516">
        <ele>2311</ele>
        <time>2026-08-04T08:16:27.278Z</time>
      </trkpt>
      <trkpt lat="45.95836" lon="6.85161">
        <ele>2311</ele>
        <time>2026-08-04T08:16:28.278Z</time>
      </trkpt>
      <trkpt lat="45.95836" lon="6.85162">
        <ele>2311</ele>
        <time>2026-08-04T08:16:29.278Z</time>
      </trkpt>
      <trkpt lat="45.95836" lon="6.85163">
        <ele>2311</ele>
        <time>2026-08-04T08:16:30.278Z</time>
      </trkpt>
      <trkpt lat="45.95836" lon="6.85165">
        <ele>2312</ele>
        <time>2026-08-04T08:16:31.278Z</time>
      </trkpt>
      <trkpt lat="45.95835" lon="6.85166">
        <ele>2312</ele>
        <time>2026-08-04T08:16:32.278Z</time>
      </trkpt>
      <trkpt lat="45.95835" lon="6.85167">
        <ele>2312</ele>
        <time>2026-08-04T08:16:33.278Z</time>
      </trkpt>
      <trkpt lat="45.95834" lon="6.85168">
        <ele>2312</ele>
        <time>2026-08-04T08:16:34.278Z</time>
      </trkpt>
      <trkpt lat="45.95834" lon="6.8517">
        <ele>2313</ele>
        <time>2026-08-04T08:16:35.278Z</time>
      </trkpt>
      <trkpt lat="45.95833" lon="6.85171">
        <ele>2313</ele>
        <time>2026-08-04T08:16:36.278Z</time>
      </trkpt>
      <trkpt lat="45.95832" lon="6.85173">
        <ele>2313</ele>
        <time>2026-08-04T08:16:37.278Z</time>
      </trkpt>
      <trkpt lat="45.95831" lon="6.85174">
        <ele>2313</ele>
        <time>2026-08-04T08:16:38.278Z</time>
      </trkpt>
      <trkpt lat="45.95831" lon="6.85175">
        <ele>2314</ele>
        <time>2026-08-04T08:16:39.278Z</time>
      </trkpt>
      <trkpt lat="45.95831" lon="6.85176">
        <ele>2314</ele>
        <time>2026-08-04T08:16:40.278Z</time>
      </trkpt>
      <trkpt lat="45.95831" lon="6.85178">
        <ele>2314</ele>
        <time>2026-08-04T08:16:41.278Z</time>
      </trkpt>
      <trkpt lat="45.95831" lon="6.8518">
        <ele>2314</ele>
        <time>2026-08-04T08:16:42.278Z</time>
      </trkpt>
      <trkpt lat="45.95831" lon="6.85182">
        <ele>2315</ele>
        <time>2026-08-04T08:16:43.278Z</time>
      </trkpt>
      <trkpt lat="45.9583" lon="6.85184">
        <ele>2315</ele>
        <time>2026-08-04T08:16:44.278Z</time>
      </trkpt>
      <trkpt lat="45.9583" lon="6.85185">
        <ele>2315</ele>
        <time>2026-08-04T08:16:45.278Z</time>
      </trkpt>
      <trkpt lat="45.95829" lon="6.85186">
        <ele>2315</ele>
        <time>2026-08-04T08:16:46.278Z</time>
      </trkpt>
      <trkpt lat="45.95828" lon="6.85187">
        <ele>2316</ele>
        <time>2026-08-04T08:16:47.278Z</time>
      </trkpt>
      <trkpt lat="45.95827" lon="6.85188">
        <ele>2316</ele>
        <time>2026-08-04T08:16:48.278Z</time>
      </trkpt>
      <trkpt lat="45.95826" lon="6.85188">
        <ele>2316</ele>
        <time>2026-08-04T08:16:49.278Z</time>
      </trkpt>
      <trkpt lat="45.95825" lon="6.8519">
        <ele>2317</ele>
        <time>2026-08-04T08:16:50.278Z</time>
      </trkpt>
      <trkpt lat="45.95824" lon="6.85191">
        <ele>2317</ele>
        <time>2026-08-04T08:16:51.278Z</time>
      </trkpt>
      <trkpt lat="45.95823" lon="6.85192">
        <ele>2317</ele>
        <time>2026-08-04T08:16:52.278Z</time>
      </trkpt>
      <trkpt lat="45.95822" lon="6.85193">
        <ele>2317</ele>
        <time>2026-08-04T08:16:53.278Z</time>
      </trkpt>
      <trkpt lat="45.95822" lon="6.85194">
        <ele>2317</ele>
        <time>2026-08-04T08:16:54.278Z</time>
      </trkpt>
      <trkpt lat="45.95821" lon="6.85195">
        <ele>2317</ele>
        <time>2026-08-04T08:16:55.278Z</time>
      </trkpt>
      <trkpt lat="45.9582" lon="6.85197">
        <ele>2317</ele>
        <time>2026-08-04T08:16:56.278Z</time>
      </trkpt>
      <trkpt lat="45.9582" lon="6.85198">
        <ele>2317</ele>
        <time>2026-08-04T08:16:57.278Z</time>
      </trkpt>
      <trkpt lat="45.95819" lon="6.852">
        <ele>2318</ele>
        <time>2026-08-04T08:16:58.278Z</time>
      </trkpt>
      <trkpt lat="45.95819" lon="6.85201">
        <ele>2318</ele>
        <time>2026-08-04T08:16:59.278Z</time>
      </trkpt>
      <trkpt lat="45.95818" lon="6.85202">
        <ele>2318</ele>
        <time>2026-08-04T08:17:00.278Z</time>
      </trkpt>
      <trkpt lat="45.95818" lon="6.85203">
        <ele>2318</ele>
        <time>2026-08-04T08:17:01.278Z</time>
      </trkpt>
      <trkpt lat="45.95818" lon="6.85204">
        <ele>2318</ele>
        <time>2026-08-04T08:17:02.278Z</time>
      </trkpt>
      <trkpt lat="45.95817" lon="6.85205">
        <ele>2318</ele>
        <time>2026-08-04T08:17:03.278Z</time>
      </trkpt>
      <trkpt lat="45.95817" lon="6.85206">
        <ele>2318</ele>
        <time>2026-08-04T08:17:04.278Z</time>
      </trkpt>
      <trkpt lat="45.95817" lon="6.85207">
        <ele>2318</ele>
        <time>2026-08-04T08:17:05.278Z</time>
      </trkpt>
      <trkpt lat="45.95817" lon="6.85208">
        <ele>2318</ele>
        <time>2026-08-04T08:17:06.278Z</time>
      </trkpt>
      <trkpt lat="45.95818" lon="6.8521">
        <ele>2319</ele>
        <time>2026-08-04T08:17:07.278Z</time>
      </trkpt>
      <trkpt lat="45.95818" lon="6.85211">
        <ele>2319</ele>
        <time>2026-08-04T08:17:08.278Z</time>
      </trkpt>
      <trkpt lat="45.95818" lon="6.85212">
        <ele>2319</ele>
        <time>2026-08-04T08:17:09.278Z</time>
      </trkpt>
      <trkpt lat="45.95818" lon="6.85213">
        <ele>2319</ele>
        <time>2026-08-04T08:17:10.278Z</time>
      </trkpt>
      <trkpt lat="45.95818" lon="6.85214">
        <ele>2319</ele>
        <time>2026-08-04T08:17:11.278Z</time>
      </trkpt>
      <trkpt lat="45.95817" lon="6.85216">
        <ele>2319</ele>
        <time>2026-08-04T08:17:12.278Z</time>
      </trkpt>
      <trkpt lat="45.95817" lon="6.85217">
        <ele>2319</ele>
        <time>2026-08-04T08:17:13.278Z</time>
      </trkpt>
      <trkpt lat="45.95816" lon="6.85219">
        <ele>2318</ele>
        <time>2026-08-04T08:17:14.278Z</time>
      </trkpt>
      <trkpt lat="45.95816" lon="6.8522">
        <ele>2318</ele>
        <time>2026-08-04T08:17:15.278Z</time>
      </trkpt>
      <trkpt lat="45.95816" lon="6.85221">
        <ele>2318</ele>
        <time>2026-08-04T08:17:16.278Z</time>
      </trkpt>
      <trkpt lat="45.95816" lon="6.85223">
        <ele>2317</ele>
        <time>2026-08-04T08:17:17.278Z</time>
      </trkpt>
      <trkpt lat="45.95816" lon="6.85224">
        <ele>2317</ele>
        <time>2026-08-04T08:17:18.278Z</time>
      </trkpt>
      <trkpt lat="45.95815" lon="6.85225">
        <ele>2317</ele>
        <time>2026-08-04T08:17:19.278Z</time>
      </trkpt>
      <trkpt lat="45.95815" lon="6.85227">
        <ele>2317</ele>
        <time>2026-08-04T08:17:20.278Z</time>
      </trkpt>
      <trkpt lat="45.95815" lon="6.85228">
        <ele>2317</ele>
        <time>2026-08-04T08:17:21.278Z</time>
      </trkpt>
      <trkpt lat="45.95814" lon="6.8523">
        <ele>2317</ele>
        <time>2026-08-04T08:17:22.278Z</time>
      </trkpt>
      <trkpt lat="45.95814" lon="6.85231">
        <ele>2317</ele>
        <time>2026-08-04T08:17:23.278Z</time>
      </trkpt>
      <trkpt lat="45.95813" lon="6.85233">
        <ele>2317</ele>
        <time>2026-08-04T08:17:24.278Z</time>
      </trkpt>
      <trkpt lat="45.95812" lon="6.85234">
        <ele>2317</ele>
        <time>2026-08-04T08:17:25.278Z</time>
      </trkpt>
      <trkpt lat="45.95812" lon="6.85235">
        <ele>2317</ele>
        <time>2026-08-04T08:17:26.278Z</time>
      </trkpt>
      <trkpt lat="45.95811" lon="6.85236">
        <ele>2317</ele>
        <time>2026-08-04T08:17:27.278Z</time>
      </trkpt>
      <trkpt lat="45.95811" lon="6.85236">
        <ele>2317</ele>
        <time>2026-08-04T08:17:28.278Z</time>
      </trkpt>
      <trkpt lat="45.9581" lon="6.85236">
        <ele>2318</ele>
        <time>2026-08-04T08:17:29.278Z</time>
      </trkpt>
      <trkpt lat="45.9581" lon="6.85237">
        <ele>2318</ele>
        <time>2026-08-04T08:17:30.278Z</time>
      </trkpt>
      <trkpt lat="45.95809" lon="6.85237">
        <ele>2319</ele>
        <time>2026-08-04T08:17:31.278Z</time>
      </trkpt>
      <trkpt lat="45.95809" lon="6.85238">
        <ele>2319</ele>
        <time>2026-08-04T08:17:32.278Z</time>
      </trkpt>
      <trkpt lat="45.95809" lon="6.85238">
        <ele>2320</ele>
        <time>2026-08-04T08:17:33.279Z</time>
      </trkpt>
      <trkpt lat="45.95809" lon="6.85239">
        <ele>2320</ele>
        <time>2026-08-04T08:17:34.278Z</time>
      </trkpt>
      <trkpt lat="45.95809" lon="6.85239">
        <ele>2320</ele>
        <time>2026-08-04T08:17:35.278Z</time>
      </trkpt>
      <trkpt lat="45.95808" lon="6.8524">
        <ele>2321</ele>
        <time>2026-08-04T08:17:36.278Z</time>
      </trkpt>
      <trkpt lat="45.95808" lon="6.85241">
        <ele>2321</ele>
        <time>2026-08-04T08:17:37.278Z</time>
      </trkpt>
      <trkpt lat="45.95807" lon="6.85242">
        <ele>2322</ele>
        <time>2026-08-04T08:17:38.278Z</time>
      </trkpt>
      <trkpt lat="45.95807" lon="6.85242">
        <ele>2322</ele>
        <time>2026-08-04T08:17:39.278Z</time>
      </trkpt>
      <trkpt lat="45.95807" lon="6.85244">
        <ele>2323</ele>
        <time>2026-08-04T08:17:40.278Z</time>
      </trkpt>
      <trkpt lat="45.95807" lon="6.85244">
        <ele>2323</ele>
        <time>2026-08-04T08:17:41.278Z</time>
      </trkpt>
      <trkpt lat="45.95808" lon="6.85245">
        <ele>2324</ele>
        <time>2026-08-04T08:17:42.278Z</time>
      </trkpt>
      <trkpt lat="45.95808" lon="6.85245">
        <ele>2324</ele>
        <time>2026-08-04T08:17:43.278Z</time>
      </trkpt>
      <trkpt lat="45.95808" lon="6.85245">
        <ele>2324</ele>
        <time>2026-08-04T08:17:44.278Z</time>
      </trkpt>
      <trkpt lat="45.95809" lon="6.85246">
        <ele>2324</ele>
        <time>2026-08-04T08:17:45.278Z</time>
      </trkpt>
      <trkpt lat="45.95809" lon="6.85247">
        <ele>2324</ele>
        <time>2026-08-04T08:17:46.278Z</time>
      </trkpt>
      <trkpt lat="45.95809" lon="6.85249">
        <ele>2325</ele>
        <time>2026-08-04T08:17:47.278Z</time>
      </trkpt>
      <trkpt lat="45.95808" lon="6.8525">
        <ele>2325</ele>
        <time>2026-08-04T08:17:48.278Z</time>
      </trkpt>
      <trkpt lat="45.95808" lon="6.8525">
        <ele>2326</ele>
        <time>2026-08-04T08:17:49.278Z</time>
      </trkpt>
      <trkpt lat="45.95807" lon="6.85251">
        <ele>2326</ele>
        <time>2026-08-04T08:17:50.278Z</time>
      </trkpt>
      <trkpt lat="45.95807" lon="6.85252">
        <ele>2327</ele>
        <time>2026-08-04T08:17:51.278Z</time>
      </trkpt>
      <trkpt lat="45.95807" lon="6.85252">
        <ele>2327</ele>
        <time>2026-08-04T08:17:52.278Z</time>
      </trkpt>
      <trkpt lat="45.95806" lon="6.85253">
        <ele>2327</ele>
        <time>2026-08-04T08:17:53.278Z</time>
      </trkpt>
      <trkpt lat="45.95807" lon="6.85254">
        <ele>2327</ele>
        <time>2026-08-04T08:17:54.278Z</time>
      </trkpt>
      <trkpt lat="45.95807" lon="6.85255">
        <ele>2327</ele>
        <time>2026-08-04T08:17:55.278Z</time>
      </trkpt>
      <trkpt lat="45.95807" lon="6.85256">
        <ele>2327</ele>
        <time>2026-08-04T08:17:56.278Z</time>
      </trkpt>
      <trkpt lat="45.95808" lon="6.85257">
        <ele>2327</ele>
        <time>2026-08-04T08:17:57.278Z</time>
      </trkpt>
      <trkpt lat="45.95808" lon="6.85258">
        <ele>2328</ele>
        <time>2026-08-04T08:17:58.278Z</time>
      </trkpt>
      <trkpt lat="45.95808" lon="6.85259">
        <ele>2328</ele>
        <time>2026-08-04T08:17:59.278Z</time>
      </trkpt>
      <trkpt lat="45.95808" lon="6.8526">
        <ele>2328</ele>
        <time>2026-08-04T08:18:00.278Z</time>
      </trkpt>
      <trkpt lat="45.95808" lon="6.85261">
        <ele>2328</ele>
        <time>2026-08-04T08:18:01.278Z</time>
      </trkpt>
      <trkpt lat="45.95808" lon="6.85261">
        <ele>2328</ele>
        <time>2026-08-04T08:18:02.278Z</time>
      </trkpt>
      <trkpt lat="45.95807" lon="6.85262">
        <ele>2329</ele>
        <time>2026-08-04T08:18:03.278Z</time>
      </trkpt>
      <trkpt lat="45.95807" lon="6.85262">
        <ele>2328</ele>
        <time>2026-08-04T08:18:04.278Z</time>
      </trkpt>
      <trkpt lat="45.95807" lon="6.85263">
        <ele>2328</ele>
        <time>2026-08-04T08:18:05.278Z</time>
      </trkpt>
      <trkpt lat="45.95807" lon="6.85264">
        <ele>2329</ele>
        <time>2026-08-04T08:18:06.278Z</time>
      </trkpt>
      <trkpt lat="45.95807" lon="6.85265">
        <ele>2329</ele>
        <time>2026-08-04T08:18:07.278Z</time>
      </trkpt>
      <trkpt lat="45.95808" lon="6.85266">
        <ele>2329</ele>
        <time>2026-08-04T08:18:08.278Z</time>
      </trkpt>
      <trkpt lat="45.95808" lon="6.85267">
        <ele>2329</ele>
        <time>2026-08-04T08:18:09.278Z</time>
      </trkpt>
      <trkpt lat="45.95808" lon="6.85267">
        <ele>2330</ele>
        <time>2026-08-04T08:18:10.278Z</time>
      </trkpt>
      <trkpt lat="45.95808" lon="6.85268">
        <ele>2330</ele>
        <time>2026-08-04T08:18:11.278Z</time>
      </trkpt>
      <trkpt lat="45.95809" lon="6.8527">
        <ele>2331</ele>
        <time>2026-08-04T08:18:12.278Z</time>
      </trkpt>
      <trkpt lat="45.95809" lon="6.85271">
        <ele>2331</ele>
        <time>2026-08-04T08:18:13.278Z</time>
      </trkpt>
      <trkpt lat="45.9581" lon="6.85272">
        <ele>2331</ele>
        <time>2026-08-04T08:18:14.278Z</time>
      </trkpt>
      <trkpt lat="45.9581" lon="6.85273">
        <ele>2332</ele>
        <time>2026-08-04T08:18:15.278Z</time>
      </trkpt>
      <trkpt lat="45.9581" lon="6.85274">
        <ele>2332</ele>
        <time>2026-08-04T08:18:16.278Z</time>
      </trkpt>
      <trkpt lat="45.95809" lon="6.85275">
        <ele>2332</ele>
        <time>2026-08-04T08:18:17.278Z</time>
      </trkpt>
      <trkpt lat="45.95809" lon="6.85276">
        <ele>2332</ele>
        <time>2026-08-04T08:18:18.278Z</time>
      </trkpt>
      <trkpt lat="45.95809" lon="6.85276">
        <ele>2332</ele>
        <time>2026-08-04T08:18:19.278Z</time>
      </trkpt>
      <trkpt lat="45.95809" lon="6.85277">
        <ele>2332</ele>
        <time>2026-08-04T08:18:20.278Z</time>
      </trkpt>
      <trkpt lat="45.95809" lon="6.85278">
        <ele>2332</ele>
        <time>2026-08-04T08:18:21.278Z</time>
      </trkpt>
      <trkpt lat="45.95809" lon="6.85279">
        <ele>2332</ele>
        <time>2026-08-04T08:18:22.278Z</time>
      </trkpt>
      <trkpt lat="45.9581" lon="6.8528">
        <ele>2333</ele>
        <time>2026-08-04T08:18:23.278Z</time>
      </trkpt>
      <trkpt lat="45.9581" lon="6.85281">
        <ele>2333</ele>
        <time>2026-08-04T08:18:24.278Z</time>
      </trkpt>
      <trkpt lat="45.9581" lon="6.85282">
        <ele>2333</ele>
        <time>2026-08-04T08:18:25.278Z</time>
      </trkpt>
      <trkpt lat="45.95811" lon="6.85283">
        <ele>2334</ele>
        <time>2026-08-04T08:18:26.278Z</time>
      </trkpt>
      <trkpt lat="45.95811" lon="6.85283">
        <ele>2334</ele>
        <time>2026-08-04T08:18:27.278Z</time>
      </trkpt>
      <trkpt lat="45.9581" lon="6.85284">
        <ele>2334</ele>
        <time>2026-08-04T08:18:28.278Z</time>
      </trkpt>
      <trkpt lat="45.9581" lon="6.85285">
        <ele>2334</ele>
        <time>2026-08-04T08:18:29.278Z</time>
      </trkpt>
      <trkpt lat="45.9581" lon="6.85286">
        <ele>2334</ele>
        <time>2026-08-04T08:18:30.278Z</time>
      </trkpt>
      <trkpt lat="45.9581" lon="6.85287">
        <ele>2334</ele>
        <time>2026-08-04T08:18:31.278Z</time>
      </trkpt>
      <trkpt lat="45.9581" lon="6.85288">
        <ele>2334</ele>
        <time>2026-08-04T08:18:32.279Z</time>
      </trkpt>
      <trkpt lat="45.95811" lon="6.85289">
        <ele>2335</ele>
        <time>2026-08-04T08:18:33.278Z</time>
      </trkpt>
      <trkpt lat="45.95811" lon="6.85291">
        <ele>2335</ele>
        <time>2026-08-04T08:18:34.278Z</time>
      </trkpt>
      <trkpt lat="45.95811" lon="6.85292">
        <ele>2335</ele>
        <time>2026-08-04T08:18:35.278Z</time>
      </trkpt>
      <trkpt lat="45.95811" lon="6.85293">
        <ele>2335</ele>
        <time>2026-08-04T08:18:36.278Z</time>
      </trkpt>
      <trkpt lat="45.9581" lon="6.85293">
        <ele>2335</ele>
        <time>2026-08-04T08:18:37.278Z</time>
      </trkpt>
      <trkpt lat="45.9581" lon="6.85294">
        <ele>2336</ele>
        <time>2026-08-04T08:18:38.278Z</time>
      </trkpt>
      <trkpt lat="45.9581" lon="6.85294">
        <ele>2336</ele>
        <time>2026-08-04T08:18:39.278Z</time>
      </trkpt>
      <trkpt lat="45.9581" lon="6.85294">
        <ele>2336</ele>
        <time>2026-08-04T08:18:40.278Z</time>
      </trkpt>
      <trkpt lat="45.9581" lon="6.85294">
        <ele>2336</ele>
        <time>2026-08-04T08:18:41.278Z</time>
      </trkpt>
      <trkpt lat="45.95809" lon="6.85294">
        <ele>2337</ele>
        <time>2026-08-04T08:18:42.278Z</time>
      </trkpt>
      <trkpt lat="45.95809" lon="6.85293">
        <ele>2337</ele>
        <time>2026-08-04T08:18:43.278Z</time>
      </trkpt>
      <trkpt lat="45.95808" lon="6.85292">
        <ele>2337</ele>
        <time>2026-08-04T08:18:44.278Z</time>
      </trkpt>
      <trkpt lat="45.95808" lon="6.85292">
        <ele>2337</ele>
        <time>2026-08-04T08:18:45.278Z</time>
      </trkpt>
      <trkpt lat="45.95807" lon="6.85292">
        <ele>2337</ele>
        <time>2026-08-04T08:18:46.278Z</time>
      </trkpt>
      <trkpt lat="45.95807" lon="6.85292">
        <ele>2337</ele>
        <time>2026-08-04T08:18:47.278Z</time>
      </trkpt>
      <trkpt lat="45.95807" lon="6.85291">
        <ele>2337</ele>
        <time>2026-08-04T08:18:48.278Z</time>
      </trkpt>
      <trkpt lat="45.95806" lon="6.85291">
        <ele>2337</ele>
        <time>2026-08-04T08:18:49.278Z</time>
      </trkpt>
      <trkpt lat="45.95806" lon="6.85291">
        <ele>2337</ele>
        <time>2026-08-04T08:18:50.278Z</time>
      </trkpt>
      <trkpt lat="45.95807" lon="6.85291">
        <ele>2338</ele>
        <time>2026-08-04T08:18:51.278Z</time>
      </trkpt>
      <trkpt lat="45.95808" lon="6.85291">
        <ele>2338</ele>
        <time>2026-08-04T08:18:52.278Z</time>
      </trkpt>
      <trkpt lat="45.95808" lon="6.85291">
        <ele>2338</ele>
        <time>2026-08-04T08:18:53.278Z</time>
      </trkpt>
      <trkpt lat="45.95809" lon="6.85292">
        <ele>2338</ele>
        <time>2026-08-04T08:18:54.278Z</time>
      </trkpt>
      <trkpt lat="45.9581" lon="6.85292">
        <ele>2338</ele>
        <time>2026-08-04T08:18:55.278Z</time>
      </trkpt>
      <trkpt lat="45.95811" lon="6.85293">
        <ele>2338</ele>
        <time>2026-08-04T08:18:56.278Z</time>
      </trkpt>
      <trkpt lat="45.95812" lon="6.85293">
        <ele>2338</ele>
        <time>2026-08-04T08:18:57.278Z</time>
      </trkpt>
      <trkpt lat="45.95813" lon="6.85293">
        <ele>2338</ele>
        <time>2026-08-04T08:18:58.278Z</time>
      </trkpt>
      <trkpt lat="45.95814" lon="6.85294">
        <ele>2338</ele>
        <time>2026-08-04T08:18:59.278Z</time>
      </trkpt>
      <trkpt lat="45.95816" lon="6.85294">
        <ele>2339</ele>
        <time>2026-08-04T08:19:00.278Z</time>
      </trkpt>
      <trkpt lat="45.95817" lon="6.85294">
        <ele>2339</ele>
        <time>2026-08-04T08:19:01.278Z</time>
      </trkpt>
      <trkpt lat="45.95817" lon="6.85295">
        <ele>2339</ele>
        <time>2026-08-04T08:19:02.278Z</time>
      </trkpt>
      <trkpt lat="45.95818" lon="6.85296">
        <ele>2339</ele>
        <time>2026-08-04T08:19:03.278Z</time>
      </trkpt>
      <trkpt lat="45.95818" lon="6.85296">
        <ele>2339</ele>
        <time>2026-08-04T08:19:04.278Z</time>
      </trkpt>
      <trkpt lat="45.95817" lon="6.85297">
        <ele>2339</ele>
        <time>2026-08-04T08:19:05.278Z</time>
      </trkpt>
      <trkpt lat="45.95817" lon="6.85297">
        <ele>2339</ele>
        <time>2026-08-04T08:19:06.278Z</time>
      </trkpt>
      <trkpt lat="45.95817" lon="6.85298">
        <ele>2338</ele>
        <time>2026-08-04T08:19:07.278Z</time>
      </trkpt>
      <trkpt lat="45.95817" lon="6.85298">
        <ele>2338</ele>
        <time>2026-08-04T08:19:08.278Z</time>
      </trkpt>
      <trkpt lat="45.95817" lon="6.85298">
        <ele>2338</ele>
        <time>2026-08-04T08:19:09.278Z</time>
      </trkpt>
      <trkpt lat="45.95817" lon="6.85298">
        <ele>2338</ele>
        <time>2026-08-04T08:19:10.278Z</time>
      </trkpt>
      <trkpt lat="45.95816" lon="6.85297">
        <ele>2337</ele>
        <time>2026-08-04T08:19:11.278Z</time>
      </trkpt>
      <trkpt lat="45.95816" lon="6.85297">
        <ele>2337</ele>
        <time>2026-08-04T08:19:12.278Z</time>
      </trkpt>
      <trkpt lat="45.95815" lon="6.85296">
        <ele>2337</ele>
        <time>2026-08-04T08:19:13.278Z</time>
      </trkpt>
      <trkpt lat="45.95813" lon="6.85296">
        <ele>2336</ele>
        <time>2026-08-04T08:19:14.278Z</time>
      </trkpt>
      <trkpt lat="45.95812" lon="6.85296">
        <ele>2336</ele>
        <time>2026-08-04T08:19:15.278Z</time>
      </trkpt>
      <trkpt lat="45.95811" lon="6.85295">
        <ele>2336</ele>
        <time>2026-08-04T08:19:16.278Z</time>
      </trkpt>
      <trkpt lat="45.9581" lon="6.85296">
        <ele>2336</ele>
        <time>2026-08-04T08:19:17.278Z</time>
      </trkpt>
      <trkpt lat="45.95809" lon="6.85296">
        <ele>2336</ele>
        <time>2026-08-04T08:19:18.278Z</time>
      </trkpt>
      <trkpt lat="45.95807" lon="6.85297">
        <ele>2336</ele>
        <time>2026-08-04T08:19:19.278Z</time>
      </trkpt>
      <trkpt lat="45.95805" lon="6.85297">
        <ele>2336</ele>
        <time>2026-08-04T08:19:20.278Z</time>
      </trkpt>
      <trkpt lat="45.95804" lon="6.85297">
        <ele>2336</ele>
        <time>2026-08-04T08:19:21.278Z</time>
      </trkpt>
      <trkpt lat="45.95802" lon="6.85297">
        <ele>2336</ele>
        <time>2026-08-04T08:19:22.278Z</time>
      </trkpt>
      <trkpt lat="45.95801" lon="6.85297">
        <ele>2336</ele>
        <time>2026-08-04T08:19:23.278Z</time>
      </trkpt>
      <trkpt lat="45.958" lon="6.85297">
        <ele>2335</ele>
        <time>2026-08-04T08:19:24.278Z</time>
      </trkpt>
      <trkpt lat="45.95799" lon="6.85297">
        <ele>2335</ele>
        <time>2026-08-04T08:19:25.278Z</time>
      </trkpt>
      <trkpt lat="45.95798" lon="6.85297">
        <ele>2335</ele>
        <time>2026-08-04T08:19:26.278Z</time>
      </trkpt>
      <trkpt lat="45.95796" lon="6.85296">
        <ele>2335</ele>
        <time>2026-08-04T08:19:27.278Z</time>
      </trkpt>
      <trkpt lat="45.95795" lon="6.85296">
        <ele>2335</ele>
        <time>2026-08-04T08:19:28.278Z</time>
      </trkpt>
      <trkpt lat="45.95794" lon="6.85296">
        <ele>2335</ele>
        <time>2026-08-04T08:19:29.278Z</time>
      </trkpt>
      <trkpt lat="45.95793" lon="6.85296">
        <ele>2335</ele>
        <time>2026-08-04T08:19:30.278Z</time>
      </trkpt>
      <trkpt lat="45.95792" lon="6.85295">
        <ele>2335</ele>
        <time>2026-08-04T08:19:31.278Z</time>
      </trkpt>
      <trkpt lat="45.9579" lon="6.85295">
        <ele>2335</ele>
        <time>2026-08-04T08:19:32.278Z</time>
      </trkpt>
      <trkpt lat="45.95789" lon="6.85294">
        <ele>2336</ele>
        <time>2026-08-04T08:19:33.278Z</time>
      </trkpt>
      <trkpt lat="45.95788" lon="6.85294">
        <ele>2336</ele>
        <time>2026-08-04T08:19:34.278Z</time>
      </trkpt>
      <trkpt lat="45.95787" lon="6.85294">
        <ele>2336</ele>
        <time>2026-08-04T08:19:35.278Z</time>
      </trkpt>
      <trkpt lat="45.95786" lon="6.85294">
        <ele>2336</ele>
        <time>2026-08-04T08:19:36.278Z</time>
      </trkpt>
      <trkpt lat="45.95785" lon="6.85294">
        <ele>2336</ele>
        <time>2026-08-04T08:19:37.278Z</time>
      </trkpt>
      <trkpt lat="45.95784" lon="6.85294">
        <ele>2337</ele>
        <time>2026-08-04T08:19:38.278Z</time>
      </trkpt>
      <trkpt lat="45.95783" lon="6.85294">
        <ele>2337</ele>
        <time>2026-08-04T08:19:39.278Z</time>
      </trkpt>
      <trkpt lat="45.95782" lon="6.85293">
        <ele>2338</ele>
        <time>2026-08-04T08:19:40.278Z</time>
      </trkpt>
      <trkpt lat="45.95781" lon="6.85293">
        <ele>2338</ele>
        <time>2026-08-04T08:19:41.278Z</time>
      </trkpt>
      <trkpt lat="45.9578" lon="6.85293">
        <ele>2338</ele>
        <time>2026-08-04T08:19:42.278Z</time>
      </trkpt>
      <trkpt lat="45.95779" lon="6.85292">
        <ele>2338</ele>
        <time>2026-08-04T08:19:43.278Z</time>
      </trkpt>
      <trkpt lat="45.95779" lon="6.85292">
        <ele>2338</ele>
        <time>2026-08-04T08:19:44.278Z</time>
      </trkpt>
      <trkpt lat="45.95779" lon="6.85292">
        <ele>2338</ele>
        <time>2026-08-04T08:19:45.278Z</time>
      </trkpt>
      <trkpt lat="45.95778" lon="6.85292">
        <ele>2338</ele>
        <time>2026-08-04T08:19:46.278Z</time>
      </trkpt>
      <trkpt lat="45.95778" lon="6.85292">
        <ele>2337</ele>
        <time>2026-08-04T08:19:47.278Z</time>
      </trkpt>
      <trkpt lat="45.95777" lon="6.85292">
        <ele>2337</ele>
        <time>2026-08-04T08:19:48.278Z</time>
      </trkpt>
      <trkpt lat="45.95777" lon="6.85292">
        <ele>2337</ele>
        <time>2026-08-04T08:19:49.278Z</time>
      </trkpt>
      <trkpt lat="45.95776" lon="6.85292">
        <ele>2337</ele>
        <time>2026-08-04T08:19:50.278Z</time>
      </trkpt>
      <trkpt lat="45.95775" lon="6.85292">
        <ele>2337</ele>
        <time>2026-08-04T08:19:51.278Z</time>
      </trkpt>
      <trkpt lat="45.95775" lon="6.85291">
        <ele>2337</ele>
        <time>2026-08-04T08:19:52.278Z</time>
      </trkpt>
      <trkpt lat="45.95774" lon="6.85291">
        <ele>2338</ele>
        <time>2026-08-04T08:19:53.278Z</time>
      </trkpt>
      <trkpt lat="45.95773" lon="6.8529">
        <ele>2338</ele>
        <time>2026-08-04T08:19:54.278Z</time>
      </trkpt>
      <trkpt lat="45.95772" lon="6.8529">
        <ele>2338</ele>
        <time>2026-08-04T08:19:55.278Z</time>
      </trkpt>
      <trkpt lat="45.95771" lon="6.85289">
        <ele>2338</ele>
        <time>2026-08-04T08:19:56.278Z</time>
      </trkpt>
      <trkpt lat="45.95769" lon="6.85289">
        <ele>2338</ele>
        <time>2026-08-04T08:19:57.278Z</time>
      </trkpt>
      <trkpt lat="45.95768" lon="6.85289">
        <ele>2338</ele>
        <time>2026-08-04T08:19:58.278Z</time>
      </trkpt>
      <trkpt lat="45.95767" lon="6.85288">
        <ele>2338</ele>
        <time>2026-08-04T08:19:59.278Z</time>
      </trkpt>
      <trkpt lat="45.95765" lon="6.85288">
        <ele>2338</ele>
        <time>2026-08-04T08:20:00.278Z</time>
      </trkpt>
      <trkpt lat="45.95764" lon="6.85288">
        <ele>2338</ele>
        <time>2026-08-04T08:20:01.278Z</time>
      </trkpt>
      <trkpt lat="45.95763" lon="6.85287">
        <ele>2339</ele>
        <time>2026-08-04T08:20:02.278Z</time>
      </trkpt>
      <trkpt lat="45.95762" lon="6.85287">
        <ele>2339</ele>
        <time>2026-08-04T08:20:03.278Z</time>
      </trkpt>
      <trkpt lat="45.95762" lon="6.85287">
        <ele>2339</ele>
        <time>2026-08-04T08:20:04.278Z</time>
      </trkpt>
      <trkpt lat="45.95761" lon="6.85288">
        <ele>2340</ele>
        <time>2026-08-04T08:20:05.278Z</time>
      </trkpt>
      <trkpt lat="45.95761" lon="6.85289">
        <ele>2340</ele>
        <time>2026-08-04T08:20:06.278Z</time>
      </trkpt>
      <trkpt lat="45.95761" lon="6.8529">
        <ele>2340</ele>
        <time>2026-08-04T08:20:07.278Z</time>
      </trkpt>
      <trkpt lat="45.95761" lon="6.85291">
        <ele>2340</ele>
        <time>2026-08-04T08:20:08.278Z</time>
      </trkpt>
      <trkpt lat="45.9576" lon="6.85292">
        <ele>2340</ele>
        <time>2026-08-04T08:20:09.278Z</time>
      </trkpt>
      <trkpt lat="45.9576" lon="6.85292">
        <ele>2340</ele>
        <time>2026-08-04T08:20:10.278Z</time>
      </trkpt>
      <trkpt lat="45.95759" lon="6.85292">
        <ele>2340</ele>
        <time>2026-08-04T08:20:11.278Z</time>
      </trkpt>
      <trkpt lat="45.95758" lon="6.85293">
        <ele>2340</ele>
        <time>2026-08-04T08:20:12.278Z</time>
      </trkpt>
      <trkpt lat="45.95756" lon="6.85293">
        <ele>2340</ele>
        <time>2026-08-04T08:20:13.278Z</time>
      </trkpt>
      <trkpt lat="45.95755" lon="6.85294">
        <ele>2340</ele>
        <time>2026-08-04T08:20:14.278Z</time>
      </trkpt>
      <trkpt lat="45.95755" lon="6.85294">
        <ele>2340</ele>
        <time>2026-08-04T08:20:15.278Z</time>
      </trkpt>
      <trkpt lat="45.95754" lon="6.85295">
        <ele>2341</ele>
        <time>2026-08-04T08:20:16.278Z</time>
      </trkpt>
      <trkpt lat="45.95754" lon="6.85296">
        <ele>2341</ele>
        <time>2026-08-04T08:20:17.278Z</time>
      </trkpt>
      <trkpt lat="45.95753" lon="6.85296">
        <ele>2341</ele>
        <time>2026-08-04T08:20:18.278Z</time>
      </trkpt>
      <trkpt lat="45.95753" lon="6.85297">
        <ele>2341</ele>
        <time>2026-08-04T08:20:19.278Z</time>
      </trkpt>
      <trkpt lat="45.95752" lon="6.85298">
        <ele>2341</ele>
        <time>2026-08-04T08:20:20.278Z</time>
      </trkpt>
      <trkpt lat="45.95752" lon="6.85299">
        <ele>2342</ele>
        <time>2026-08-04T08:20:21.278Z</time>
      </trkpt>
      <trkpt lat="45.95752" lon="6.853">
        <ele>2343</ele>
        <time>2026-08-04T08:20:22.278Z</time>
      </trkpt>
      <trkpt lat="45.95752" lon="6.853">
        <ele>2343</ele>
        <time>2026-08-04T08:20:23.278Z</time>
      </trkpt>
      <trkpt lat="45.95751" lon="6.85301">
        <ele>2343</ele>
        <time>2026-08-04T08:20:24.278Z</time>
      </trkpt>
      <trkpt lat="45.95751" lon="6.85302">
        <ele>2343</ele>
        <time>2026-08-04T08:20:25.278Z</time>
      </trkpt>
      <trkpt lat="45.9575" lon="6.85302">
        <ele>2343</ele>
        <time>2026-08-04T08:20:26.278Z</time>
      </trkpt>
      <trkpt lat="45.9575" lon="6.85302">
        <ele>2343</ele>
        <time>2026-08-04T08:20:27.278Z</time>
      </trkpt>
      <trkpt lat="45.95749" lon="6.85303">
        <ele>2343</ele>
        <time>2026-08-04T08:20:28.278Z</time>
      </trkpt>
      <trkpt lat="45.95749" lon="6.85303">
        <ele>2343</ele>
        <time>2026-08-04T08:20:29.278Z</time>
      </trkpt>
      <trkpt lat="45.95748" lon="6.85303">
        <ele>2343</ele>
        <time>2026-08-04T08:20:30.278Z</time>
      </trkpt>
      <trkpt lat="45.95748" lon="6.85302">
        <ele>2343</ele>
        <time>2026-08-04T08:20:31.278Z</time>
      </trkpt>
      <trkpt lat="45.95747" lon="6.85301">
        <ele>2344</ele>
        <time>2026-08-04T08:20:32.278Z</time>
      </trkpt>
      <trkpt lat="45.95747" lon="6.85301">
        <ele>2344</ele>
        <time>2026-08-04T08:20:33.278Z</time>
      </trkpt>
      <trkpt lat="45.95746" lon="6.85302">
        <ele>2345</ele>
        <time>2026-08-04T08:20:34.278Z</time>
      </trkpt>
      <trkpt lat="45.95746" lon="6.85303">
        <ele>2345</ele>
        <time>2026-08-04T08:20:35.278Z</time>
      </trkpt>
      <trkpt lat="45.95745" lon="6.85303">
        <ele>2345</ele>
        <time>2026-08-04T08:20:36.278Z</time>
      </trkpt>
      <trkpt lat="45.95744" lon="6.85304">
        <ele>2345</ele>
        <time>2026-08-04T08:20:37.278Z</time>
      </trkpt>
      <trkpt lat="45.95744" lon="6.85304">
        <ele>2345</ele>
        <time>2026-08-04T08:20:38.278Z</time>
      </trkpt>
      <trkpt lat="45.95743" lon="6.85305">
        <ele>2346</ele>
        <time>2026-08-04T08:20:39.278Z</time>
      </trkpt>
      <trkpt lat="45.95742" lon="6.85305">
        <ele>2346</ele>
        <time>2026-08-04T08:20:40.278Z</time>
      </trkpt>
      <trkpt lat="45.95741" lon="6.85305">
        <ele>2346</ele>
        <time>2026-08-04T08:20:41.278Z</time>
      </trkpt>
      <trkpt lat="45.9574" lon="6.85305">
        <ele>2346</ele>
        <time>2026-08-04T08:20:42.278Z</time>
      </trkpt>
      <trkpt lat="45.95739" lon="6.85306">
        <ele>2347</ele>
        <time>2026-08-04T08:20:43.278Z</time>
      </trkpt>
      <trkpt lat="45.95738" lon="6.85306">
        <ele>2347</ele>
        <time>2026-08-04T08:20:44.278Z</time>
      </trkpt>
      <trkpt lat="45.95737" lon="6.85306">
        <ele>2347</ele>
        <time>2026-08-04T08:20:45.278Z</time>
      </trkpt>
      <trkpt lat="45.95737" lon="6.85307">
        <ele>2347</ele>
        <time>2026-08-04T08:20:46.278Z</time>
      </trkpt>
      <trkpt lat="45.95736" lon="6.85307">
        <ele>2347</ele>
        <time>2026-08-04T08:20:47.278Z</time>
      </trkpt>
      <trkpt lat="45.95735" lon="6.85308">
        <ele>2347</ele>
        <time>2026-08-04T08:20:48.278Z</time>
      </trkpt>
      <trkpt lat="45.95735" lon="6.85308">
        <ele>2347</ele>
        <time>2026-08-04T08:20:49.278Z</time>
      </trkpt>
      <trkpt lat="45.95734" lon="6.85309">
        <ele>2347</ele>
        <time>2026-08-04T08:20:50.278Z</time>
      </trkpt>
      <trkpt lat="45.95734" lon="6.8531">
        <ele>2347</ele>
        <time>2026-08-04T08:20:51.278Z</time>
      </trkpt>
      <trkpt lat="45.95733" lon="6.8531">
        <ele>2348</ele>
        <time>2026-08-04T08:20:52.278Z</time>
      </trkpt>
      <trkpt lat="45.95733" lon="6.85311">
        <ele>2348</ele>
        <time>2026-08-04T08:20:53.278Z</time>
      </trkpt>
      <trkpt lat="45.95732" lon="6.85312">
        <ele>2348</ele>
        <time>2026-08-04T08:20:54.278Z</time>
      </trkpt>
      <trkpt lat="45.95732" lon="6.85313">
        <ele>2349</ele>
        <time>2026-08-04T08:20:55.278Z</time>
      </trkpt>
      <trkpt lat="45.95731" lon="6.85313">
        <ele>2349</ele>
        <time>2026-08-04T08:20:56.278Z</time>
      </trkpt>
      <trkpt lat="45.95731" lon="6.85314">
        <ele>2349</ele>
        <time>2026-08-04T08:20:57.278Z</time>
      </trkpt>
      <trkpt lat="45.9573" lon="6.85314">
        <ele>2350</ele>
        <time>2026-08-04T08:20:58.278Z</time>
      </trkpt>
      <trkpt lat="45.9573" lon="6.85314">
        <ele>2350</ele>
        <time>2026-08-04T08:20:59.278Z</time>
      </trkpt>
      <trkpt lat="45.95729" lon="6.85314">
        <ele>2350</ele>
        <time>2026-08-04T08:21:00.278Z</time>
      </trkpt>
      <trkpt lat="45.95729" lon="6.85315">
        <ele>2351</ele>
        <time>2026-08-04T08:21:01.278Z</time>
      </trkpt>
      <trkpt lat="45.95729" lon="6.85315">
        <ele>2351</ele>
        <time>2026-08-04T08:21:02.278Z</time>
      </trkpt>
      <trkpt lat="45.95728" lon="6.85315">
        <ele>2351</ele>
        <time>2026-08-04T08:21:03.278Z</time>
      </trkpt>
      <trkpt lat="45.95728" lon="6.85316">
        <ele>2351</ele>
        <time>2026-08-04T08:21:04.278Z</time>
      </trkpt>
      <trkpt lat="45.95728" lon="6.85317">
        <ele>2351</ele>
        <time>2026-08-04T08:21:05.278Z</time>
      </trkpt>
      <trkpt lat="45.95728" lon="6.85317">
        <ele>2351</ele>
        <time>2026-08-04T08:21:06.278Z</time>
      </trkpt>
      <trkpt lat="45.95728" lon="6.85318">
        <ele>2351</ele>
        <time>2026-08-04T08:21:07.278Z</time>
      </trkpt>
      <trkpt lat="45.95728" lon="6.85319">
        <ele>2351</ele>
        <time>2026-08-04T08:21:08.278Z</time>
      </trkpt>
      <trkpt lat="45.95727" lon="6.8532">
        <ele>2351</ele>
        <time>2026-08-04T08:21:09.278Z</time>
      </trkpt>
      <trkpt lat="45.95727" lon="6.8532">
        <ele>2352</ele>
        <time>2026-08-04T08:21:10.278Z</time>
      </trkpt>
      <trkpt lat="45.95726" lon="6.8532">
        <ele>2352</ele>
        <time>2026-08-04T08:21:11.278Z</time>
      </trkpt>
      <trkpt lat="45.95726" lon="6.85321">
        <ele>2352</ele>
        <time>2026-08-04T08:21:12.278Z</time>
      </trkpt>
      <trkpt lat="45.95726" lon="6.85322">
        <ele>2353</ele>
        <time>2026-08-04T08:21:13.278Z</time>
      </trkpt>
      <trkpt lat="45.95725" lon="6.85322">
        <ele>2353</ele>
        <time>2026-08-04T08:21:14.278Z</time>
      </trkpt>
      <trkpt lat="45.95725" lon="6.85323">
        <ele>2353</ele>
        <time>2026-08-04T08:21:15.278Z</time>
      </trkpt>
      <trkpt lat="45.95725" lon="6.85324">
        <ele>2353</ele>
        <time>2026-08-04T08:21:16.278Z</time>
      </trkpt>
      <trkpt lat="45.95724" lon="6.85325">
        <ele>2353</ele>
        <time>2026-08-04T08:21:17.278Z</time>
      </trkpt>
      <trkpt lat="45.95724" lon="6.85326">
        <ele>2353</ele>
        <time>2026-08-04T08:21:18.278Z</time>
      </trkpt>
      <trkpt lat="45.95723" lon="6.85326">
        <ele>2354</ele>
        <time>2026-08-04T08:21:19.278Z</time>
      </trkpt>
      <trkpt lat="45.95723" lon="6.85326">
        <ele>2354</ele>
        <time>2026-08-04T08:21:20.278Z</time>
      </trkpt>
      <trkpt lat="45.95723" lon="6.85326">
        <ele>2354</ele>
        <time>2026-08-04T08:21:21.278Z</time>
      </trkpt>
      <trkpt lat="45.95723" lon="6.85327">
        <ele>2355</ele>
        <time>2026-08-04T08:21:22.278Z</time>
      </trkpt>
      <trkpt lat="45.95723" lon="6.85328">
        <ele>2355</ele>
        <time>2026-08-04T08:21:23.278Z</time>
      </trkpt>
      <trkpt lat="45.95724" lon="6.85329">
        <ele>2356</ele>
        <time>2026-08-04T08:21:24.278Z</time>
      </trkpt>
      <trkpt lat="45.95724" lon="6.85329">
        <ele>2356</ele>
        <time>2026-08-04T08:21:25.278Z</time>
      </trkpt>
      <trkpt lat="45.95724" lon="6.8533">
        <ele>2357</ele>
        <time>2026-08-04T08:21:26.278Z</time>
      </trkpt>
      <trkpt lat="45.95724" lon="6.8533">
        <ele>2357</ele>
        <time>2026-08-04T08:21:27.278Z</time>
      </trkpt>
      <trkpt lat="45.95724" lon="6.85331">
        <ele>2357</ele>
        <time>2026-08-04T08:21:28.278Z</time>
      </trkpt>
      <trkpt lat="45.95724" lon="6.85331">
        <ele>2357</ele>
        <time>2026-08-04T08:21:29.278Z</time>
      </trkpt>
      <trkpt lat="45.95723" lon="6.85331">
        <ele>2357</ele>
        <time>2026-08-04T08:21:30.278Z</time>
      </trkpt>
      <trkpt lat="45.95723" lon="6.85332">
        <ele>2358</ele>
        <time>2026-08-04T08:21:31.278Z</time>
      </trkpt>
      <trkpt lat="45.95723" lon="6.85332">
        <ele>2358</ele>
        <time>2026-08-04T08:21:32.278Z</time>
      </trkpt>
      <trkpt lat="45.95722" lon="6.85332">
        <ele>2358</ele>
        <time>2026-08-04T08:21:33.278Z</time>
      </trkpt>
      <trkpt lat="45.95722" lon="6.85333">
        <ele>2358</ele>
        <time>2026-08-04T08:21:34.278Z</time>
      </trkpt>
      <trkpt lat="45.95722" lon="6.85334">
        <ele>2359</ele>
        <time>2026-08-04T08:21:35.278Z</time>
      </trkpt>
      <trkpt lat="45.95721" lon="6.85334">
        <ele>2359</ele>
        <time>2026-08-04T08:21:36.278Z</time>
      </trkpt>
      <trkpt lat="45.9572" lon="6.85334">
        <ele>2359</ele>
        <time>2026-08-04T08:21:37.278Z</time>
      </trkpt>
      <trkpt lat="45.95719" lon="6.85335">
        <ele>2359</ele>
        <time>2026-08-04T08:21:38.278Z</time>
      </trkpt>
      <trkpt lat="45.95719" lon="6.85335">
        <ele>2359</ele>
        <time>2026-08-04T08:21:39.278Z</time>
      </trkpt>
      <trkpt lat="45.95718" lon="6.85336">
        <ele>2359</ele>
        <time>2026-08-04T08:21:40.278Z</time>
      </trkpt>
      <trkpt lat="45.95718" lon="6.85336">
        <ele>2359</ele>
        <time>2026-08-04T08:21:41.278Z</time>
      </trkpt>
      <trkpt lat="45.95717" lon="6.85336">
        <ele>2360</ele>
        <time>2026-08-04T08:21:42.278Z</time>
      </trkpt>
      <trkpt lat="45.95717" lon="6.85336">
        <ele>2360</ele>
        <time>2026-08-04T08:21:43.278Z</time>
      </trkpt>
      <trkpt lat="45.95717" lon="6.85336">
        <ele>2360</ele>
        <time>2026-08-04T08:21:44.278Z</time>
      </trkpt>
      <trkpt lat="45.95717" lon="6.85336">
        <ele>2360</ele>
        <time>2026-08-04T08:21:45.278Z</time>
      </trkpt>
      <trkpt lat="45.95717" lon="6.85336">
        <ele>2361</ele>
        <time>2026-08-04T08:21:46.278Z</time>
      </trkpt>
      <trkpt lat="45.95717" lon="6.85336">
        <ele>2361</ele>
        <time>2026-08-04T08:21:47.278Z</time>
      </trkpt>
      <trkpt lat="45.95717" lon="6.85336">
        <ele>2361</ele>
        <time>2026-08-04T08:21:48.278Z</time>
      </trkpt>
      <trkpt lat="45.95717" lon="6.85336">
        <ele>2361</ele>
        <time>2026-08-04T08:21:49.278Z</time>
      </trkpt>
      <trkpt lat="45.95717" lon="6.85336">
        <ele>2361</ele>
        <time>2026-08-04T08:21:50.278Z</time>
      </trkpt>
      <trkpt lat="45.95717" lon="6.85337">
        <ele>2362</ele>
        <time>2026-08-04T08:21:51.278Z</time>
      </trkpt>
      <trkpt lat="45.95718" lon="6.85337">
        <ele>2362</ele>
        <time>2026-08-04T08:21:52.278Z</time>
      </trkpt>
      <trkpt lat="45.95718" lon="6.85338">
        <ele>2362</ele>
        <time>2026-08-04T08:21:53.278Z</time>
      </trkpt>
      <trkpt lat="45.95719" lon="6.85338">
        <ele>2363</ele>
        <time>2026-08-04T08:21:54.278Z</time>
      </trkpt>
      <trkpt lat="45.95719" lon="6.85339">
        <ele>2363</ele>
        <time>2026-08-04T08:21:55.278Z</time>
      </trkpt>
      <trkpt lat="45.95719" lon="6.8534">
        <ele>2363</ele>
        <time>2026-08-04T08:21:56.278Z</time>
      </trkpt>
      <trkpt lat="45.9572" lon="6.85341">
        <ele>2364</ele>
        <time>2026-08-04T08:21:57.278Z</time>
      </trkpt>
      <trkpt lat="45.9572" lon="6.85342">
        <ele>2364</ele>
        <time>2026-08-04T08:21:58.278Z</time>
      </trkpt>
      <trkpt lat="45.9572" lon="6.85344">
        <ele>2364</ele>
        <time>2026-08-04T08:21:59.278Z</time>
      </trkpt>
      <trkpt lat="45.9572" lon="6.85345">
        <ele>2364</ele>
        <time>2026-08-04T08:22:00.278Z</time>
      </trkpt>
      <trkpt lat="45.95721" lon="6.85346">
        <ele>2364</ele>
        <time>2026-08-04T08:22:01.278Z</time>
      </trkpt>
      <trkpt lat="45.95721" lon="6.85347">
        <ele>2364</ele>
        <time>2026-08-04T08:22:02.278Z</time>
      </trkpt>
      <trkpt lat="45.95721" lon="6.85348">
        <ele>2364</ele>
        <time>2026-08-04T08:22:03.278Z</time>
      </trkpt>
      <trkpt lat="45.95721" lon="6.85349">
        <ele>2364</ele>
        <time>2026-08-04T08:22:04.278Z</time>
      </trkpt>
      <trkpt lat="45.95722" lon="6.8535">
        <ele>2364</ele>
        <time>2026-08-04T08:22:05.278Z</time>
      </trkpt>
      <trkpt lat="45.95722" lon="6.85352">
        <ele>2364</ele>
        <time>2026-08-04T08:22:06.278Z</time>
      </trkpt>
      <trkpt lat="45.95723" lon="6.85353">
        <ele>2364</ele>
        <time>2026-08-04T08:22:07.278Z</time>
      </trkpt>
      <trkpt lat="45.95723" lon="6.85355">
        <ele>2365</ele>
        <time>2026-08-04T08:22:08.278Z</time>
      </trkpt>
      <trkpt lat="45.95723" lon="6.85357">
        <ele>2365</ele>
        <time>2026-08-04T08:22:09.278Z</time>
      </trkpt>
      <trkpt lat="45.95724" lon="6.85358">
        <ele>2365</ele>
        <time>2026-08-04T08:22:10.278Z</time>
      </trkpt>
      <trkpt lat="45.95724" lon="6.8536">
        <ele>2365</ele>
        <time>2026-08-04T08:22:11.278Z</time>
      </trkpt>
      <trkpt lat="45.95725" lon="6.85361">
        <ele>2365</ele>
        <time>2026-08-04T08:22:12.278Z</time>
      </trkpt>
      <trkpt lat="45.95726" lon="6.85362">
        <ele>2365</ele>
        <time>2026-08-04T08:22:13.278Z</time>
      </trkpt>
      <trkpt lat="45.95727" lon="6.85363">
        <ele>2365</ele>
        <time>2026-08-04T08:22:14.278Z</time>
      </trkpt>
      <trkpt lat="45.95727" lon="6.85364">
        <ele>2365</ele>
        <time>2026-08-04T08:22:15.278Z</time>
      </trkpt>
      <trkpt lat="45.95728" lon="6.85366">
        <ele>2365</ele>
        <time>2026-08-04T08:22:16.278Z</time>
      </trkpt>
      <trkpt lat="45.95728" lon="6.85367">
        <ele>2365</ele>
        <time>2026-08-04T08:22:17.278Z</time>
      </trkpt>
      <trkpt lat="45.95729" lon="6.85367">
        <ele>2365</ele>
        <time>2026-08-04T08:22:18.278Z</time>
      </trkpt>
      <trkpt lat="45.95729" lon="6.85367">
        <ele>2365</ele>
        <time>2026-08-04T08:22:19.278Z</time>
      </trkpt>
      <trkpt lat="45.95728" lon="6.85368">
        <ele>2365</ele>
        <time>2026-08-04T08:22:20.278Z</time>
      </trkpt>
      <trkpt lat="45.95728" lon="6.85368">
        <ele>2366</ele>
        <time>2026-08-04T08:22:21.278Z</time>
      </trkpt>
      <trkpt lat="45.95728" lon="6.85369">
        <ele>2366</ele>
        <time>2026-08-04T08:22:22.278Z</time>
      </trkpt>
      <trkpt lat="45.95728" lon="6.85369">
        <ele>2366</ele>
        <time>2026-08-04T08:22:23.278Z</time>
      </trkpt>
      <trkpt lat="45.95727" lon="6.85369">
        <ele>2366</ele>
        <time>2026-08-04T08:22:24.278Z</time>
      </trkpt>
      <trkpt lat="45.95726" lon="6.85369">
        <ele>2366</ele>
        <time>2026-08-04T08:22:25.278Z</time>
      </trkpt>
      <trkpt lat="45.95725" lon="6.85369">
        <ele>2366</ele>
        <time>2026-08-04T08:22:26.278Z</time>
      </trkpt>
      <trkpt lat="45.95725" lon="6.8537">
        <ele>2366</ele>
        <time>2026-08-04T08:22:27.278Z</time>
      </trkpt>
      <trkpt lat="45.95724" lon="6.8537">
        <ele>2367</ele>
        <time>2026-08-04T08:22:28.278Z</time>
      </trkpt>
      <trkpt lat="45.95723" lon="6.85371">
        <ele>2367</ele>
        <time>2026-08-04T08:22:29.278Z</time>
      </trkpt>
      <trkpt lat="45.95723" lon="6.85371">
        <ele>2367</ele>
        <time>2026-08-04T08:22:30.278Z</time>
      </trkpt>
      <trkpt lat="45.95722" lon="6.85371">
        <ele>2367</ele>
        <time>2026-08-04T08:22:31.278Z</time>
      </trkpt>
      <trkpt lat="45.95721" lon="6.8537">
        <ele>2368</ele>
        <time>2026-08-04T08:22:32.278Z</time>
      </trkpt>
      <trkpt lat="45.95721" lon="6.8537">
        <ele>2368</ele>
        <time>2026-08-04T08:22:33.278Z</time>
      </trkpt>
      <trkpt lat="45.9572" lon="6.85369">
        <ele>2368</ele>
        <time>2026-08-04T08:22:34.278Z</time>
      </trkpt>
      <trkpt lat="45.9572" lon="6.85369">
        <ele>2369</ele>
        <time>2026-08-04T08:22:35.278Z</time>
      </trkpt>
      <trkpt lat="45.95719" lon="6.85369">
        <ele>2369</ele>
        <time>2026-08-04T08:22:36.278Z</time>
      </trkpt>
      <trkpt lat="45.95718" lon="6.8537">
        <ele>2369</ele>
        <time>2026-08-04T08:22:37.278Z</time>
      </trkpt>
      <trkpt lat="45.95717" lon="6.85371">
        <ele>2369</ele>
        <time>2026-08-04T08:22:38.278Z</time>
      </trkpt>
      <trkpt lat="45.95717" lon="6.85372">
        <ele>2369</ele>
        <time>2026-08-04T08:22:39.278Z</time>
      </trkpt>
      <trkpt lat="45.95717" lon="6.85374">
        <ele>2369</ele>
        <time>2026-08-04T08:22:40.278Z</time>
      </trkpt>
      <trkpt lat="45.95717" lon="6.85375">
        <ele>2369</ele>
        <time>2026-08-04T08:22:41.279Z</time>
      </trkpt>
      <trkpt lat="45.95718" lon="6.85376">
        <ele>2369</ele>
        <time>2026-08-04T08:22:42.278Z</time>
      </trkpt>
      <trkpt lat="45.95717" lon="6.85378">
        <ele>2370</ele>
        <time>2026-08-04T08:22:43.278Z</time>
      </trkpt>
      <trkpt lat="45.95717" lon="6.85379">
        <ele>2370</ele>
        <time>2026-08-04T08:22:44.278Z</time>
      </trkpt>
      <trkpt lat="45.95716" lon="6.8538">
        <ele>2370</ele>
        <time>2026-08-04T08:22:45.278Z</time>
      </trkpt>
      <trkpt lat="45.95716" lon="6.8538">
        <ele>2370</ele>
        <time>2026-08-04T08:22:46.278Z</time>
      </trkpt>
      <trkpt lat="45.95715" lon="6.8538">
        <ele>2371</ele>
        <time>2026-08-04T08:22:47.278Z</time>
      </trkpt>
      <trkpt lat="45.95715" lon="6.8538">
        <ele>2371</ele>
        <time>2026-08-04T08:22:48.278Z</time>
      </trkpt>
      <trkpt lat="45.95715" lon="6.85381">
        <ele>2371</ele>
        <time>2026-08-04T08:22:49.278Z</time>
      </trkpt>
      <trkpt lat="45.95714" lon="6.85381">
        <ele>2372</ele>
        <time>2026-08-04T08:22:50.278Z</time>
      </trkpt>
      <trkpt lat="45.95714" lon="6.85381">
        <ele>2372</ele>
        <time>2026-08-04T08:22:51.278Z</time>
      </trkpt>
      <trkpt lat="45.95713" lon="6.85381">
        <ele>2372</ele>
        <time>2026-08-04T08:22:52.278Z</time>
      </trkpt>
      <trkpt lat="45.95712" lon="6.85382">
        <ele>2372</ele>
        <time>2026-08-04T08:22:53.278Z</time>
      </trkpt>
      <trkpt lat="45.95712" lon="6.85383">
        <ele>2372</ele>
        <time>2026-08-04T08:22:54.278Z</time>
      </trkpt>
      <trkpt lat="45.95711" lon="6.85383">
        <ele>2372</ele>
        <time>2026-08-04T08:22:55.278Z</time>
      </trkpt>
      <trkpt lat="45.9571" lon="6.85384">
        <ele>2372</ele>
        <time>2026-08-04T08:22:56.278Z</time>
      </trkpt>
      <trkpt lat="45.9571" lon="6.85383">
        <ele>2373</ele>
        <time>2026-08-04T08:22:57.278Z</time>
      </trkpt>
      <trkpt lat="45.95709" lon="6.85383">
        <ele>2373</ele>
        <time>2026-08-04T08:22:58.278Z</time>
      </trkpt>
      <trkpt lat="45.95709" lon="6.85381">
        <ele>2373</ele>
        <time>2026-08-04T08:22:59.278Z</time>
      </trkpt>
      <trkpt lat="45.95709" lon="6.85381">
        <ele>2374</ele>
        <time>2026-08-04T08:23:00.278Z</time>
      </trkpt>
      <trkpt lat="45.95708" lon="6.8538">
        <ele>2374</ele>
        <time>2026-08-04T08:23:01.278Z</time>
      </trkpt>
      <trkpt lat="45.95708" lon="6.85381">
        <ele>2374</ele>
        <time>2026-08-04T08:23:02.278Z</time>
      </trkpt>
      <trkpt lat="45.95707" lon="6.85381">
        <ele>2375</ele>
        <time>2026-08-04T08:23:03.278Z</time>
      </trkpt>
      <trkpt lat="45.95707" lon="6.85381">
        <ele>2375</ele>
        <time>2026-08-04T08:23:04.278Z</time>
      </trkpt>
      <trkpt lat="45.95707" lon="6.85382">
        <ele>2376</ele>
        <time>2026-08-04T08:23:05.278Z</time>
      </trkpt>
      <trkpt lat="45.95706" lon="6.85383">
        <ele>2376</ele>
        <time>2026-08-04T08:23:06.278Z</time>
      </trkpt>
      <trkpt lat="45.95705" lon="6.85384">
        <ele>2376</ele>
        <time>2026-08-04T08:23:07.278Z</time>
      </trkpt>
      <trkpt lat="45.95705" lon="6.85385">
        <ele>2377</ele>
        <time>2026-08-04T08:23:08.278Z</time>
      </trkpt>
      <trkpt lat="45.95704" lon="6.85385">
        <ele>2377</ele>
        <time>2026-08-04T08:23:09.278Z</time>
      </trkpt>
      <trkpt lat="45.95703" lon="6.85386">
        <ele>2378</ele>
        <time>2026-08-04T08:23:10.278Z</time>
      </trkpt>
      <trkpt lat="45.95703" lon="6.85386">
        <ele>2378</ele>
        <time>2026-08-04T08:23:11.278Z</time>
      </trkpt>
      <trkpt lat="45.95702" lon="6.85386">
        <ele>2379</ele>
        <time>2026-08-04T08:23:12.278Z</time>
      </trkpt>
      <trkpt lat="45.95702" lon="6.85386">
        <ele>2380</ele>
        <time>2026-08-04T08:23:13.278Z</time>
      </trkpt>
      <trkpt lat="45.95701" lon="6.85386">
        <ele>2380</ele>
        <time>2026-08-04T08:23:14.278Z</time>
      </trkpt>
      <trkpt lat="45.95701" lon="6.85387">
        <ele>2381</ele>
        <time>2026-08-04T08:23:15.278Z</time>
      </trkpt>
      <trkpt lat="45.957" lon="6.85387">
        <ele>2381</ele>
        <time>2026-08-04T08:23:16.278Z</time>
      </trkpt>
      <trkpt lat="45.957" lon="6.85388">
        <ele>2381</ele>
        <time>2026-08-04T08:23:17.278Z</time>
      </trkpt>
      <trkpt lat="45.95699" lon="6.85389">
        <ele>2380</ele>
        <time>2026-08-04T08:23:18.278Z</time>
      </trkpt>
      <trkpt lat="45.95699" lon="6.85389">
        <ele>2380</ele>
        <time>2026-08-04T08:23:19.278Z</time>
      </trkpt>
      <trkpt lat="45.95698" lon="6.8539">
        <ele>2380</ele>
        <time>2026-08-04T08:23:20.278Z</time>
      </trkpt>
      <trkpt lat="45.95698" lon="6.85391">
        <ele>2379</ele>
        <time>2026-08-04T08:23:21.278Z</time>
      </trkpt>
      <trkpt lat="45.95698" lon="6.85392">
        <ele>2379</ele>
        <time>2026-08-04T08:23:22.278Z</time>
      </trkpt>
      <trkpt lat="45.95698" lon="6.85393">
        <ele>2379</ele>
        <time>2026-08-04T08:23:23.278Z</time>
      </trkpt>
      <trkpt lat="45.95697" lon="6.85393">
        <ele>2379</ele>
        <time>2026-08-04T08:23:24.278Z</time>
      </trkpt>
      <trkpt lat="45.95697" lon="6.85394">
        <ele>2379</ele>
        <time>2026-08-04T08:23:25.278Z</time>
      </trkpt>
      <trkpt lat="45.95698" lon="6.85395">
        <ele>2380</ele>
        <time>2026-08-04T08:23:26.278Z</time>
      </trkpt>
      <trkpt lat="45.95697" lon="6.85396">
        <ele>2381</ele>
        <time>2026-08-04T08:23:27.278Z</time>
      </trkpt>
      <trkpt lat="45.95696" lon="6.85397">
        <ele>2381</ele>
        <time>2026-08-04T08:23:28.278Z</time>
      </trkpt>
      <trkpt lat="45.95696" lon="6.85397">
        <ele>2382</ele>
        <time>2026-08-04T08:23:29.278Z</time>
      </trkpt>
      <trkpt lat="45.95695" lon="6.85397">
        <ele>2382</ele>
        <time>2026-08-04T08:23:30.278Z</time>
      </trkpt>
      <trkpt lat="45.95695" lon="6.85397">
        <ele>2382</ele>
        <time>2026-08-04T08:23:31.278Z</time>
      </trkpt>
      <trkpt lat="45.95695" lon="6.85397">
        <ele>2383</ele>
        <time>2026-08-04T08:23:32.278Z</time>
      </trkpt>
      <trkpt lat="45.95695" lon="6.85398">
        <ele>2383</ele>
        <time>2026-08-04T08:23:33.278Z</time>
      </trkpt>
      <trkpt lat="45.95694" lon="6.85399">
        <ele>2384</ele>
        <time>2026-08-04T08:23:34.278Z</time>
      </trkpt>
      <trkpt lat="45.95694" lon="6.85399">
        <ele>2384</ele>
        <time>2026-08-04T08:23:35.278Z</time>
      </trkpt>
      <trkpt lat="45.95693" lon="6.85398">
        <ele>2384</ele>
        <time>2026-08-04T08:23:36.278Z</time>
      </trkpt>
      <trkpt lat="45.95693" lon="6.85398">
        <ele>2384</ele>
        <time>2026-08-04T08:23:37.278Z</time>
      </trkpt>
      <trkpt lat="45.95692" lon="6.85398">
        <ele>2384</ele>
        <time>2026-08-04T08:23:38.278Z</time>
      </trkpt>
      <trkpt lat="45.95692" lon="6.85398">
        <ele>2385</ele>
        <time>2026-08-04T08:23:39.278Z</time>
      </trkpt>
      <trkpt lat="45.95691" lon="6.85398">
        <ele>2385</ele>
        <time>2026-08-04T08:23:40.278Z</time>
      </trkpt>
      <trkpt lat="45.9569" lon="6.85398">
        <ele>2386</ele>
        <time>2026-08-04T08:23:41.278Z</time>
      </trkpt>
      <trkpt lat="45.9569" lon="6.85397">
        <ele>2386</ele>
        <time>2026-08-04T08:23:42.278Z</time>
      </trkpt>
      <trkpt lat="45.95689" lon="6.85397">
        <ele>2387</ele>
        <time>2026-08-04T08:23:43.278Z</time>
      </trkpt>
      <trkpt lat="45.95689" lon="6.85398">
        <ele>2387</ele>
        <time>2026-08-04T08:23:44.278Z</time>
      </trkpt>
      <trkpt lat="45.95688" lon="6.85398">
        <ele>2387</ele>
        <time>2026-08-04T08:23:45.278Z</time>
      </trkpt>
      <trkpt lat="45.95688" lon="6.85398">
        <ele>2387</ele>
        <time>2026-08-04T08:23:46.278Z</time>
      </trkpt>
      <trkpt lat="45.95688" lon="6.85399">
        <ele>2387</ele>
        <time>2026-08-04T08:23:47.278Z</time>
      </trkpt>
      <trkpt lat="45.95687" lon="6.85399">
        <ele>2387</ele>
        <time>2026-08-04T08:23:48.278Z</time>
      </trkpt>
      <trkpt lat="45.95687" lon="6.85399">
        <ele>2388</ele>
        <time>2026-08-04T08:23:49.278Z</time>
      </trkpt>
      <trkpt lat="45.95686" lon="6.85399">
        <ele>2388</ele>
        <time>2026-08-04T08:23:50.278Z</time>
      </trkpt>
      <trkpt lat="45.95686" lon="6.85399">
        <ele>2388</ele>
        <time>2026-08-04T08:23:51.278Z</time>
      </trkpt>
      <trkpt lat="45.95685" lon="6.85398">
        <ele>2388</ele>
        <time>2026-08-04T08:23:52.278Z</time>
      </trkpt>
      <trkpt lat="45.95684" lon="6.85398">
        <ele>2388</ele>
        <time>2026-08-04T08:23:53.278Z</time>
      </trkpt>
      <trkpt lat="45.95684" lon="6.85398">
        <ele>2389</ele>
        <time>2026-08-04T08:23:54.278Z</time>
      </trkpt>
      <trkpt lat="45.95684" lon="6.85398">
        <ele>2389</ele>
        <time>2026-08-04T08:23:55.278Z</time>
      </trkpt>
      <trkpt lat="45.95684" lon="6.85399">
        <ele>2390</ele>
        <time>2026-08-04T08:23:56.278Z</time>
      </trkpt>
      <trkpt lat="45.95683" lon="6.85399">
        <ele>2390</ele>
        <time>2026-08-04T08:23:57.278Z</time>
      </trkpt>
      <trkpt lat="45.95683" lon="6.854">
        <ele>2391</ele>
        <time>2026-08-04T08:23:58.278Z</time>
      </trkpt>
      <trkpt lat="45.95683" lon="6.85401">
        <ele>2391</ele>
        <time>2026-08-04T08:23:59.278Z</time>
      </trkpt>
      <trkpt lat="45.95683" lon="6.85402">
        <ele>2392</ele>
        <time>2026-08-04T08:24:00.278Z</time>
      </trkpt>
      <trkpt lat="45.95683" lon="6.85402">
        <ele>2392</ele>
        <time>2026-08-04T08:24:01.278Z</time>
      </trkpt>
      <trkpt lat="45.95683" lon="6.85402">
        <ele>2392</ele>
        <time>2026-08-04T08:24:02.278Z</time>
      </trkpt>
      <trkpt lat="45.95682" lon="6.85403">
        <ele>2392</ele>
        <time>2026-08-04T08:24:03.278Z</time>
      </trkpt>
      <trkpt lat="45.95682" lon="6.85403">
        <ele>2393</ele>
        <time>2026-08-04T08:24:04.278Z</time>
      </trkpt>
      <trkpt lat="45.95682" lon="6.85403">
        <ele>2393</ele>
        <time>2026-08-04T08:24:05.278Z</time>
      </trkpt>
      <trkpt lat="45.95681" lon="6.85403">
        <ele>2393</ele>
        <time>2026-08-04T08:24:06.278Z</time>
      </trkpt>
      <trkpt lat="45.9568" lon="6.85403">
        <ele>2393</ele>
        <time>2026-08-04T08:24:07.278Z</time>
      </trkpt>
      <trkpt lat="45.9568" lon="6.85403">
        <ele>2394</ele>
        <time>2026-08-04T08:24:08.278Z</time>
      </trkpt>
      <trkpt lat="45.9568" lon="6.85403">
        <ele>2394</ele>
        <time>2026-08-04T08:24:09.278Z</time>
      </trkpt>
      <trkpt lat="45.95678" lon="6.85403">
        <ele>2394</ele>
        <time>2026-08-04T08:24:10.278Z</time>
      </trkpt>
      <trkpt lat="45.95677" lon="6.85403">
        <ele>2394</ele>
        <time>2026-08-04T08:24:11.278Z</time>
      </trkpt>
      <trkpt lat="45.95676" lon="6.85403">
        <ele>2394</ele>
        <time>2026-08-04T08:24:12.278Z</time>
      </trkpt>
      <trkpt lat="45.95675" lon="6.85403">
        <ele>2395</ele>
        <time>2026-08-04T08:24:13.278Z</time>
      </trkpt>
      <trkpt lat="45.95674" lon="6.85404">
        <ele>2395</ele>
        <time>2026-08-04T08:24:14.278Z</time>
      </trkpt>
      <trkpt lat="45.95673" lon="6.85403">
        <ele>2395</ele>
        <time>2026-08-04T08:24:15.278Z</time>
      </trkpt>
      <trkpt lat="45.95673" lon="6.85402">
        <ele>2396</ele>
        <time>2026-08-04T08:24:16.278Z</time>
      </trkpt>
      <trkpt lat="45.95672" lon="6.85402">
        <ele>2396</ele>
        <time>2026-08-04T08:24:17.278Z</time>
      </trkpt>
      <trkpt lat="45.95672" lon="6.85401">
        <ele>2396</ele>
        <time>2026-08-04T08:24:18.278Z</time>
      </trkpt>
      <trkpt lat="45.95672" lon="6.854">
        <ele>2396</ele>
        <time>2026-08-04T08:24:19.278Z</time>
      </trkpt>
      <trkpt lat="45.95672" lon="6.85399">
        <ele>2396</ele>
        <time>2026-08-04T08:24:20.278Z</time>
      </trkpt>
      <trkpt lat="45.95672" lon="6.85398">
        <ele>2397</ele>
        <time>2026-08-04T08:24:21.278Z</time>
      </trkpt>
      <trkpt lat="45.95672" lon="6.85397">
        <ele>2397</ele>
        <time>2026-08-04T08:24:22.278Z</time>
      </trkpt>
      <trkpt lat="45.95672" lon="6.85396">
        <ele>2397</ele>
        <time>2026-08-04T08:24:23.278Z</time>
      </trkpt>
      <trkpt lat="45.95672" lon="6.85396">
        <ele>2397</ele>
        <time>2026-08-04T08:24:24.278Z</time>
      </trkpt>
      <trkpt lat="45.95672" lon="6.85395">
        <ele>2397</ele>
        <time>2026-08-04T08:24:25.278Z</time>
      </trkpt>
      <trkpt lat="45.95671" lon="6.85395">
        <ele>2398</ele>
        <time>2026-08-04T08:24:26.278Z</time>
      </trkpt>
      <trkpt lat="45.95671" lon="6.85395">
        <ele>2398</ele>
        <time>2026-08-04T08:24:27.278Z</time>
      </trkpt>
      <trkpt lat="45.9567" lon="6.85396">
        <ele>2398</ele>
        <time>2026-08-04T08:24:28.278Z</time>
      </trkpt>
      <trkpt lat="45.9567" lon="6.85396">
        <ele>2398</ele>
        <time>2026-08-04T08:24:29.278Z</time>
      </trkpt>
      <trkpt lat="45.95669" lon="6.85396">
        <ele>2398</ele>
        <time>2026-08-04T08:24:30.278Z</time>
      </trkpt>
      <trkpt lat="45.95669" lon="6.85396">
        <ele>2398</ele>
        <time>2026-08-04T08:24:31.278Z</time>
      </trkpt>
      <trkpt lat="45.95668" lon="6.85396">
        <ele>2398</ele>
        <time>2026-08-04T08:24:32.278Z</time>
      </trkpt>
      <trkpt lat="45.95668" lon="6.85395">
        <ele>2398</ele>
        <time>2026-08-04T08:24:33.278Z</time>
      </trkpt>
      <trkpt lat="45.95668" lon="6.85394">
        <ele>2398</ele>
        <time>2026-08-04T08:24:34.278Z</time>
      </trkpt>
      <trkpt lat="45.95668" lon="6.85393">
        <ele>2397</ele>
        <time>2026-08-04T08:24:35.278Z</time>
      </trkpt>
      <trkpt lat="45.95667" lon="6.85392">
        <ele>2397</ele>
        <time>2026-08-04T08:24:36.278Z</time>
      </trkpt>
      <trkpt lat="45.95666" lon="6.85391">
        <ele>2397</ele>
        <time>2026-08-04T08:24:37.278Z</time>
      </trkpt>
      <trkpt lat="45.95666" lon="6.85391">
        <ele>2397</ele>
        <time>2026-08-04T08:24:38.278Z</time>
      </trkpt>
      <trkpt lat="45.95666" lon="6.85391">
        <ele>2397</ele>
        <time>2026-08-04T08:24:39.278Z</time>
      </trkpt>
      <trkpt lat="45.95665" lon="6.85392">
        <ele>2397</ele>
        <time>2026-08-04T08:24:40.278Z</time>
      </trkpt>
      <trkpt lat="45.95664" lon="6.85393">
        <ele>2397</ele>
        <time>2026-08-04T08:24:41.278Z</time>
      </trkpt>
      <trkpt lat="45.95663" lon="6.85394">
        <ele>2397</ele>
        <time>2026-08-04T08:24:42.278Z</time>
      </trkpt>
      <trkpt lat="45.95663" lon="6.85395">
        <ele>2397</ele>
        <time>2026-08-04T08:24:43.278Z</time>
      </trkpt>
      <trkpt lat="45.95663" lon="6.85396">
        <ele>2397</ele>
        <time>2026-08-04T08:24:44.278Z</time>
      </trkpt>
      <trkpt lat="45.95663" lon="6.85398">
        <ele>2398</ele>
        <time>2026-08-04T08:24:45.278Z</time>
      </trkpt>
      <trkpt lat="45.95663" lon="6.85399">
        <ele>2398</ele>
        <time>2026-08-04T08:24:46.278Z</time>
      </trkpt>
      <trkpt lat="45.95664" lon="6.85399">
        <ele>2398</ele>
        <time>2026-08-04T08:24:47.278Z</time>
      </trkpt>
      <trkpt lat="45.95665" lon="6.854">
        <ele>2399</ele>
        <time>2026-08-04T08:24:48.278Z</time>
      </trkpt>
      <trkpt lat="45.95666" lon="6.85401">
        <ele>2399</ele>
        <time>2026-08-04T08:24:49.278Z</time>
      </trkpt>
      <trkpt lat="45.95666" lon="6.85403">
        <ele>2399</ele>
        <time>2026-08-04T08:24:50.278Z</time>
      </trkpt>
      <trkpt lat="45.95666" lon="6.85403">
        <ele>2400</ele>
        <time>2026-08-04T08:24:51.278Z</time>
      </trkpt>
      <trkpt lat="45.95666" lon="6.85404">
        <ele>2400</ele>
        <time>2026-08-04T08:24:52.278Z</time>
      </trkpt>
      <trkpt lat="45.95665" lon="6.85404">
        <ele>2400</ele>
        <time>2026-08-04T08:24:53.278Z</time>
      </trkpt>
      <trkpt lat="45.95664" lon="6.85403">
        <ele>2400</ele>
        <time>2026-08-04T08:24:54.278Z</time>
      </trkpt>
      <trkpt lat="45.95664" lon="6.85403">
        <ele>2400</ele>
        <time>2026-08-04T08:24:55.278Z</time>
      </trkpt>
      <trkpt lat="45.95663" lon="6.85403">
        <ele>2400</ele>
        <time>2026-08-04T08:24:56.278Z</time>
      </trkpt>
      <trkpt lat="45.95663" lon="6.85402">
        <ele>2400</ele>
        <time>2026-08-04T08:24:57.278Z</time>
      </trkpt>
      <trkpt lat="45.95662" lon="6.85401">
        <ele>2400</ele>
        <time>2026-08-04T08:24:58.278Z</time>
      </trkpt>
      <trkpt lat="45.95661" lon="6.85401">
        <ele>2399</ele>
        <time>2026-08-04T08:24:59.278Z</time>
      </trkpt>
      <trkpt lat="45.9566" lon="6.85401">
        <ele>2400</ele>
        <time>2026-08-04T08:25:00.278Z</time>
      </trkpt>
      <trkpt lat="45.95659" lon="6.85401">
        <ele>2400</ele>
        <time>2026-08-04T08:25:01.278Z</time>
      </trkpt>
      <trkpt lat="45.95658" lon="6.85401">
        <ele>2400</ele>
        <time>2026-08-04T08:25:02.278Z</time>
      </trkpt>
      <trkpt lat="45.95657" lon="6.85401">
        <ele>2400</ele>
        <time>2026-08-04T08:25:03.278Z</time>
      </trkpt>
      <trkpt lat="45.95655" lon="6.85401">
        <ele>2400</ele>
        <time>2026-08-04T08:25:04.278Z</time>
      </trkpt>
      <trkpt lat="45.95654" lon="6.854">
        <ele>2400</ele>
        <time>2026-08-04T08:25:05.278Z</time>
      </trkpt>
      <trkpt lat="45.95653" lon="6.854">
        <ele>2400</ele>
        <time>2026-08-04T08:25:06.278Z</time>
      </trkpt>
      <trkpt lat="45.95652" lon="6.85399">
        <ele>2400</ele>
        <time>2026-08-04T08:25:07.278Z</time>
      </trkpt>
      <trkpt lat="45.95651" lon="6.85398">
        <ele>2400</ele>
        <time>2026-08-04T08:25:08.278Z</time>
      </trkpt>
      <trkpt lat="45.9565" lon="6.85398">
        <ele>2400</ele>
        <time>2026-08-04T08:25:09.278Z</time>
      </trkpt>
      <trkpt lat="45.95649" lon="6.85398">
        <ele>2400</ele>
        <time>2026-08-04T08:25:10.278Z</time>
      </trkpt>
      <trkpt lat="45.95648" lon="6.85397">
        <ele>2400</ele>
        <time>2026-08-04T08:25:11.278Z</time>
      </trkpt>
      <trkpt lat="45.95647" lon="6.85398">
        <ele>2400</ele>
        <time>2026-08-04T08:25:12.278Z</time>
      </trkpt>
      <trkpt lat="45.95645" lon="6.85398">
        <ele>2400</ele>
        <time>2026-08-04T08:25:13.278Z</time>
      </trkpt>
      <trkpt lat="45.95644" lon="6.85398">
        <ele>2400</ele>
        <time>2026-08-04T08:25:14.278Z</time>
      </trkpt>
      <trkpt lat="45.95643" lon="6.85398">
        <ele>2400</ele>
        <time>2026-08-04T08:25:15.278Z</time>
      </trkpt>
      <trkpt lat="45.95642" lon="6.85399">
        <ele>2400</ele>
        <time>2026-08-04T08:25:16.278Z</time>
      </trkpt>
      <trkpt lat="45.95641" lon="6.85399">
        <ele>2400</ele>
        <time>2026-08-04T08:25:17.278Z</time>
      </trkpt>
      <trkpt lat="45.95641" lon="6.85401">
        <ele>2400</ele>
        <time>2026-08-04T08:25:18.278Z</time>
      </trkpt>
      <trkpt lat="45.9564" lon="6.85402">
        <ele>2400</ele>
        <time>2026-08-04T08:25:19.278Z</time>
      </trkpt>
      <trkpt lat="45.95639" lon="6.85403">
        <ele>2400</ele>
        <time>2026-08-04T08:25:20.278Z</time>
      </trkpt>
      <trkpt lat="45.95639" lon="6.85404">
        <ele>2401</ele>
        <time>2026-08-04T08:25:21.278Z</time>
      </trkpt>
      <trkpt lat="45.95638" lon="6.85405">
        <ele>2401</ele>
        <time>2026-08-04T08:25:22.278Z</time>
      </trkpt>
      <trkpt lat="45.95637" lon="6.85406">
        <ele>2401</ele>
        <time>2026-08-04T08:25:23.278Z</time>
      </trkpt>
      <trkpt lat="45.95637" lon="6.85406">
        <ele>2401</ele>
        <time>2026-08-04T08:25:24.278Z</time>
      </trkpt>
      <trkpt lat="45.95636" lon="6.85407">
        <ele>2400</ele>
        <time>2026-08-04T08:25:25.278Z</time>
      </trkpt>
      <trkpt lat="45.95635" lon="6.85407">
        <ele>2400</ele>
        <time>2026-08-04T08:25:26.278Z</time>
      </trkpt>
      <trkpt lat="45.95634" lon="6.85407">
        <ele>2400</ele>
        <time>2026-08-04T08:25:27.278Z</time>
      </trkpt>
      <trkpt lat="45.95633" lon="6.85406">
        <ele>2401</ele>
        <time>2026-08-04T08:25:28.278Z</time>
      </trkpt>
      <trkpt lat="45.95632" lon="6.85407">
        <ele>2401</ele>
        <time>2026-08-04T08:25:29.278Z</time>
      </trkpt>
      <trkpt lat="45.95631" lon="6.85407">
        <ele>2401</ele>
        <time>2026-08-04T08:25:30.278Z</time>
      </trkpt>
      <trkpt lat="45.95631" lon="6.85407">
        <ele>2402</ele>
        <time>2026-08-04T08:25:31.278Z</time>
      </trkpt>
      <trkpt lat="45.9563" lon="6.85407">
        <ele>2402</ele>
        <time>2026-08-04T08:25:32.278Z</time>
      </trkpt>
      <trkpt lat="45.95629" lon="6.85407">
        <ele>2402</ele>
        <time>2026-08-04T08:25:33.278Z</time>
      </trkpt>
      <trkpt lat="45.95629" lon="6.85407">
        <ele>2402</ele>
        <time>2026-08-04T08:25:34.278Z</time>
      </trkpt>
      <trkpt lat="45.95628" lon="6.85407">
        <ele>2402</ele>
        <time>2026-08-04T08:25:35.278Z</time>
      </trkpt>
      <trkpt lat="45.95628" lon="6.85407">
        <ele>2402</ele>
        <time>2026-08-04T08:25:36.278Z</time>
      </trkpt>
      <trkpt lat="45.95628" lon="6.85407">
        <ele>2403</ele>
        <time>2026-08-04T08:25:37.278Z</time>
      </trkpt>
      <trkpt lat="45.95627" lon="6.85407">
        <ele>2403</ele>
        <time>2026-08-04T08:25:38.278Z</time>
      </trkpt>
      <trkpt lat="45.95627" lon="6.85407">
        <ele>2404</ele>
        <time>2026-08-04T08:25:39.278Z</time>
      </trkpt>
      <trkpt lat="45.95627" lon="6.85407">
        <ele>2404</ele>
        <time>2026-08-04T08:25:40.278Z</time>
      </trkpt>
      <trkpt lat="45.95627" lon="6.85407">
        <ele>2404</ele>
        <time>2026-08-04T08:25:41.278Z</time>
      </trkpt>
      <trkpt lat="45.95627" lon="6.85406">
        <ele>2405</ele>
        <time>2026-08-04T08:25:42.278Z</time>
      </trkpt>
      <trkpt lat="45.95627" lon="6.85406">
        <ele>2405</ele>
        <time>2026-08-04T08:25:43.278Z</time>
      </trkpt>
      <trkpt lat="45.95626" lon="6.85406">
        <ele>2405</ele>
        <time>2026-08-04T08:25:44.278Z</time>
      </trkpt>
      <trkpt lat="45.95625" lon="6.85406">
        <ele>2406</ele>
        <time>2026-08-04T08:25:45.278Z</time>
      </trkpt>
      <trkpt lat="45.95625" lon="6.85406">
        <ele>2406</ele>
        <time>2026-08-04T08:25:46.278Z</time>
      </trkpt>
      <trkpt lat="45.95625" lon="6.85406">
        <ele>2406</ele>
        <time>2026-08-04T08:25:47.278Z</time>
      </trkpt>
      <trkpt lat="45.95625" lon="6.85406">
        <ele>2406</ele>
        <time>2026-08-04T08:25:48.278Z</time>
      </trkpt>
      <trkpt lat="45.95625" lon="6.85405">
        <ele>2407</ele>
        <time>2026-08-04T08:25:49.278Z</time>
      </trkpt>
      <trkpt lat="45.95624" lon="6.85405">
        <ele>2407</ele>
        <time>2026-08-04T08:25:50.278Z</time>
      </trkpt>
      <trkpt lat="45.95624" lon="6.85405">
        <ele>2406</ele>
        <time>2026-08-04T08:25:51.278Z</time>
      </trkpt>
      <trkpt lat="45.95623" lon="6.85404">
        <ele>2406</ele>
        <time>2026-08-04T08:25:52.278Z</time>
      </trkpt>
      <trkpt lat="45.95622" lon="6.85404">
        <ele>2407</ele>
        <time>2026-08-04T08:25:53.278Z</time>
      </trkpt>
      <trkpt lat="45.95621" lon="6.85404">
        <ele>2407</ele>
        <time>2026-08-04T08:25:54.278Z</time>
      </trkpt>
      <trkpt lat="45.95621" lon="6.85404">
        <ele>2407</ele>
        <time>2026-08-04T08:25:55.278Z</time>
      </trkpt>
      <trkpt lat="45.9562" lon="6.85404">
        <ele>2407</ele>
        <time>2026-08-04T08:25:56.278Z</time>
      </trkpt>
      <trkpt lat="45.9562" lon="6.85404">
        <ele>2407</ele>
        <time>2026-08-04T08:25:57.278Z</time>
      </trkpt>
      <trkpt lat="45.95619" lon="6.85404">
        <ele>2407</ele>
        <time>2026-08-04T08:25:58.278Z</time>
      </trkpt>
      <trkpt lat="45.95619" lon="6.85405">
        <ele>2407</ele>
        <time>2026-08-04T08:25:59.278Z</time>
      </trkpt>
      <trkpt lat="45.95619" lon="6.85405">
        <ele>2407</ele>
        <time>2026-08-04T08:26:00.278Z</time>
      </trkpt>
      <trkpt lat="45.95618" lon="6.85406">
        <ele>2407</ele>
        <time>2026-08-04T08:26:01.278Z</time>
      </trkpt>
      <trkpt lat="45.95618" lon="6.85406">
        <ele>2408</ele>
        <time>2026-08-04T08:26:02.278Z</time>
      </trkpt>
      <trkpt lat="45.95618" lon="6.85406">
        <ele>2408</ele>
        <time>2026-08-04T08:26:03.278Z</time>
      </trkpt>
      <trkpt lat="45.95617" lon="6.85406">
        <ele>2408</ele>
        <time>2026-08-04T08:26:04.278Z</time>
      </trkpt>
      <trkpt lat="45.95617" lon="6.85406">
        <ele>2408</ele>
        <time>2026-08-04T08:26:05.278Z</time>
      </trkpt>
      <trkpt lat="45.95617" lon="6.85405">
        <ele>2409</ele>
        <time>2026-08-04T08:26:06.278Z</time>
      </trkpt>
      <trkpt lat="45.95616" lon="6.85405">
        <ele>2409</ele>
        <time>2026-08-04T08:26:07.278Z</time>
      </trkpt>
      <trkpt lat="45.95616" lon="6.85404">
        <ele>2409</ele>
        <time>2026-08-04T08:26:08.278Z</time>
      </trkpt>
      <trkpt lat="45.95615" lon="6.85404">
        <ele>2410</ele>
        <time>2026-08-04T08:26:09.278Z</time>
      </trkpt>
      <trkpt lat="45.95615" lon="6.85403">
        <ele>2410</ele>
        <time>2026-08-04T08:26:10.278Z</time>
      </trkpt>
      <trkpt lat="45.95614" lon="6.85403">
        <ele>2410</ele>
        <time>2026-08-04T08:26:11.278Z</time>
      </trkpt>
      <trkpt lat="45.95613" lon="6.85402">
        <ele>2410</ele>
        <time>2026-08-04T08:26:12.278Z</time>
      </trkpt>
      <trkpt lat="45.95612" lon="6.85402">
        <ele>2411</ele>
        <time>2026-08-04T08:26:13.278Z</time>
      </trkpt>
      <trkpt lat="45.95612" lon="6.85402">
        <ele>2411</ele>
        <time>2026-08-04T08:26:14.278Z</time>
      </trkpt>
      <trkpt lat="45.95612" lon="6.85403">
        <ele>2411</ele>
        <time>2026-08-04T08:26:15.278Z</time>
      </trkpt>
      <trkpt lat="45.95612" lon="6.85403">
        <ele>2411</ele>
        <time>2026-08-04T08:26:16.278Z</time>
      </trkpt>
      <trkpt lat="45.95611" lon="6.85403">
        <ele>2411</ele>
        <time>2026-08-04T08:26:17.278Z</time>
      </trkpt>
      <trkpt lat="45.9561" lon="6.85403">
        <ele>2411</ele>
        <time>2026-08-04T08:26:18.278Z</time>
      </trkpt>
      <trkpt lat="45.9561" lon="6.85404">
        <ele>2412</ele>
        <time>2026-08-04T08:26:19.278Z</time>
      </trkpt>
      <trkpt lat="45.95609" lon="6.85404">
        <ele>2412</ele>
        <time>2026-08-04T08:26:20.278Z</time>
      </trkpt>
      <trkpt lat="45.95609" lon="6.85405">
        <ele>2412</ele>
        <time>2026-08-04T08:26:21.278Z</time>
      </trkpt>
      <trkpt lat="45.95609" lon="6.85406">
        <ele>2412</ele>
        <time>2026-08-04T08:26:22.278Z</time>
      </trkpt>
      <trkpt lat="45.95609" lon="6.85407">
        <ele>2412</ele>
        <time>2026-08-04T08:26:23.278Z</time>
      </trkpt>
      <trkpt lat="45.95609" lon="6.85408">
        <ele>2413</ele>
        <time>2026-08-04T08:26:24.278Z</time>
      </trkpt>
      <trkpt lat="45.95609" lon="6.85408">
        <ele>2413</ele>
        <time>2026-08-04T08:26:25.278Z</time>
      </trkpt>
      <trkpt lat="45.9561" lon="6.85408">
        <ele>2413</ele>
        <time>2026-08-04T08:26:26.278Z</time>
      </trkpt>
      <trkpt lat="45.95611" lon="6.85409">
        <ele>2413</ele>
        <time>2026-08-04T08:26:27.278Z</time>
      </trkpt>
      <trkpt lat="45.95612" lon="6.85409">
        <ele>2414</ele>
        <time>2026-08-04T08:26:28.278Z</time>
      </trkpt>
      <trkpt lat="45.95612" lon="6.8541">
        <ele>2414</ele>
        <time>2026-08-04T08:26:29.278Z</time>
      </trkpt>
      <trkpt lat="45.95613" lon="6.85411">
        <ele>2415</ele>
        <time>2026-08-04T08:26:30.278Z</time>
      </trkpt>
      <trkpt lat="45.95613" lon="6.85411">
        <ele>2415</ele>
        <time>2026-08-04T08:26:31.278Z</time>
      </trkpt>
      <trkpt lat="45.95613" lon="6.85412">
        <ele>2416</ele>
        <time>2026-08-04T08:26:32.278Z</time>
      </trkpt>
      <trkpt lat="45.95614" lon="6.85412">
        <ele>2416</ele>
        <time>2026-08-04T08:26:33.278Z</time>
      </trkpt>
      <trkpt lat="45.95614" lon="6.85412">
        <ele>2417</ele>
        <time>2026-08-04T08:26:34.278Z</time>
      </trkpt>
      <trkpt lat="45.95614" lon="6.85412">
        <ele>2418</ele>
        <time>2026-08-04T08:26:35.278Z</time>
      </trkpt>
      <trkpt lat="45.95613" lon="6.85413">
        <ele>2418</ele>
        <time>2026-08-04T08:26:36.278Z</time>
      </trkpt>
      <trkpt lat="45.95613" lon="6.85413">
        <ele>2418</ele>
        <time>2026-08-04T08:26:37.278Z</time>
      </trkpt>
      <trkpt lat="45.95612" lon="6.85413">
        <ele>2419</ele>
        <time>2026-08-04T08:26:38.278Z</time>
      </trkpt>
      <trkpt lat="45.95612" lon="6.85414">
        <ele>2419</ele>
        <time>2026-08-04T08:26:39.278Z</time>
      </trkpt>
      <trkpt lat="45.95612" lon="6.85414">
        <ele>2420</ele>
        <time>2026-08-04T08:26:40.278Z</time>
      </trkpt>
      <trkpt lat="45.95611" lon="6.85415">
        <ele>2420</ele>
        <time>2026-08-04T08:26:41.278Z</time>
      </trkpt>
      <trkpt lat="45.9561" lon="6.85415">
        <ele>2420</ele>
        <time>2026-08-04T08:26:42.278Z</time>
      </trkpt>
      <trkpt lat="45.9561" lon="6.85416">
        <ele>2419</ele>
        <time>2026-08-04T08:26:43.278Z</time>
      </trkpt>
      <trkpt lat="45.95609" lon="6.85416">
        <ele>2419</ele>
        <time>2026-08-04T08:26:44.278Z</time>
      </trkpt>
      <trkpt lat="45.95609" lon="6.85417">
        <ele>2419</ele>
        <time>2026-08-04T08:26:45.278Z</time>
      </trkpt>
      <trkpt lat="45.95608" lon="6.85418">
        <ele>2419</ele>
        <time>2026-08-04T08:26:46.278Z</time>
      </trkpt>
      <trkpt lat="45.95608" lon="6.85418">
        <ele>2419</ele>
        <time>2026-08-04T08:26:47.278Z</time>
      </trkpt>
      <trkpt lat="45.95608" lon="6.85419">
        <ele>2418</ele>
        <time>2026-08-04T08:26:48.278Z</time>
      </trkpt>
      <trkpt lat="45.95608" lon="6.8542">
        <ele>2418</ele>
        <time>2026-08-04T08:26:49.278Z</time>
      </trkpt>
      <trkpt lat="45.95608" lon="6.8542">
        <ele>2418</ele>
        <time>2026-08-04T08:26:50.278Z</time>
      </trkpt>
      <trkpt lat="45.95608" lon="6.85421">
        <ele>2418</ele>
        <time>2026-08-04T08:26:51.278Z</time>
      </trkpt>
      <trkpt lat="45.95608" lon="6.85422">
        <ele>2418</ele>
        <time>2026-08-04T08:26:52.278Z</time>
      </trkpt>
      <trkpt lat="45.95608" lon="6.85423">
        <ele>2418</ele>
        <time>2026-08-04T08:26:53.278Z</time>
      </trkpt>
      <trkpt lat="45.95608" lon="6.85424">
        <ele>2418</ele>
        <time>2026-08-04T08:26:54.278Z</time>
      </trkpt>
      <trkpt lat="45.95609" lon="6.85424">
        <ele>2418</ele>
        <time>2026-08-04T08:26:55.278Z</time>
      </trkpt>
      <trkpt lat="45.95609" lon="6.85424">
        <ele>2418</ele>
        <time>2026-08-04T08:26:56.278Z</time>
      </trkpt>
      <trkpt lat="45.9561" lon="6.85424">
        <ele>2418</ele>
        <time>2026-08-04T08:26:57.278Z</time>
      </trkpt>
      <trkpt lat="45.95611" lon="6.85425">
        <ele>2419</ele>
        <time>2026-08-04T08:26:58.278Z</time>
      </trkpt>
      <trkpt lat="45.95611" lon="6.85425">
        <ele>2419</ele>
        <time>2026-08-04T08:26:59.278Z</time>
      </trkpt>
      <trkpt lat="45.95612" lon="6.85426">
        <ele>2419</ele>
        <time>2026-08-04T08:27:00.278Z</time>
      </trkpt>
      <trkpt lat="45.95612" lon="6.85427">
        <ele>2419</ele>
        <time>2026-08-04T08:27:01.278Z</time>
      </trkpt>
      <trkpt lat="45.95612" lon="6.85427">
        <ele>2419</ele>
        <time>2026-08-04T08:27:02.278Z</time>
      </trkpt>
      <trkpt lat="45.95613" lon="6.85427">
        <ele>2419</ele>
        <time>2026-08-04T08:27:03.278Z</time>
      </trkpt>
      <trkpt lat="45.95614" lon="6.85428">
        <ele>2420</ele>
        <time>2026-08-04T08:27:04.278Z</time>
      </trkpt>
      <trkpt lat="45.95615" lon="6.85429">
        <ele>2420</ele>
        <time>2026-08-04T08:27:05.278Z</time>
      </trkpt>
      <trkpt lat="45.95615" lon="6.8543">
        <ele>2421</ele>
        <time>2026-08-04T08:27:06.278Z</time>
      </trkpt>
      <trkpt lat="45.95615" lon="6.85431">
        <ele>2421</ele>
        <time>2026-08-04T08:27:07.278Z</time>
      </trkpt>
      <trkpt lat="45.95616" lon="6.85432">
        <ele>2421</ele>
        <time>2026-08-04T08:27:08.278Z</time>
      </trkpt>
      <trkpt lat="45.95616" lon="6.85432">
        <ele>2421</ele>
        <time>2026-08-04T08:27:09.278Z</time>
      </trkpt>
      <trkpt lat="45.95617" lon="6.85433">
        <ele>2421</ele>
        <time>2026-08-04T08:27:10.278Z</time>
      </trkpt>
      <trkpt lat="45.95617" lon="6.85433">
        <ele>2421</ele>
        <time>2026-08-04T08:27:11.278Z</time>
      </trkpt>
      <trkpt lat="45.95618" lon="6.85434">
        <ele>2421</ele>
        <time>2026-08-04T08:27:12.278Z</time>
      </trkpt>
      <trkpt lat="45.95619" lon="6.85435">
        <ele>2421</ele>
        <time>2026-08-04T08:27:13.278Z</time>
      </trkpt>
      <trkpt lat="45.9562" lon="6.85435">
        <ele>2421</ele>
        <time>2026-08-04T08:27:14.278Z</time>
      </trkpt>
      <trkpt lat="45.9562" lon="6.85436">
        <ele>2421</ele>
        <time>2026-08-04T08:27:15.278Z</time>
      </trkpt>
      <trkpt lat="45.95621" lon="6.85437">
        <ele>2421</ele>
        <time>2026-08-04T08:27:16.278Z</time>
      </trkpt>
      <trkpt lat="45.95622" lon="6.85437">
        <ele>2422</ele>
        <time>2026-08-04T08:27:17.278Z</time>
      </trkpt>
      <trkpt lat="45.95622" lon="6.85438">
        <ele>2422</ele>
        <time>2026-08-04T08:27:18.278Z</time>
      </trkpt>
      <trkpt lat="45.95622" lon="6.85438">
        <ele>2422</ele>
        <time>2026-08-04T08:27:19.278Z</time>
      </trkpt>
      <trkpt lat="45.95623" lon="6.85439">
        <ele>2423</ele>
        <time>2026-08-04T08:27:20.278Z</time>
      </trkpt>
      <trkpt lat="45.95624" lon="6.85439">
        <ele>2423</ele>
        <time>2026-08-04T08:27:21.278Z</time>
      </trkpt>
      <trkpt lat="45.95625" lon="6.8544">
        <ele>2423</ele>
        <time>2026-08-04T08:27:22.278Z</time>
      </trkpt>
      <trkpt lat="45.95626" lon="6.85441">
        <ele>2423</ele>
        <time>2026-08-04T08:27:23.278Z</time>
      </trkpt>
      <trkpt lat="45.95627" lon="6.85443">
        <ele>2423</ele>
        <time>2026-08-04T08:27:24.278Z</time>
      </trkpt>
      <trkpt lat="45.95627" lon="6.85444">
        <ele>2424</ele>
        <time>2026-08-04T08:27:25.278Z</time>
      </trkpt>
      <trkpt lat="45.95628" lon="6.85445">
        <ele>2424</ele>
        <time>2026-08-04T08:27:26.278Z</time>
      </trkpt>
      <trkpt lat="45.95628" lon="6.85446">
        <ele>2424</ele>
        <time>2026-08-04T08:27:27.278Z</time>
      </trkpt>
      <trkpt lat="45.95629" lon="6.85446">
        <ele>2424</ele>
        <time>2026-08-04T08:27:28.278Z</time>
      </trkpt>
      <trkpt lat="45.95629" lon="6.85447">
        <ele>2424</ele>
        <time>2026-08-04T08:27:29.278Z</time>
      </trkpt>
      <trkpt lat="45.95629" lon="6.85448">
        <ele>2424</ele>
        <time>2026-08-04T08:27:30.278Z</time>
      </trkpt>
      <trkpt lat="45.95629" lon="6.85449">
        <ele>2424</ele>
        <time>2026-08-04T08:27:31.278Z</time>
      </trkpt>
      <trkpt lat="45.95629" lon="6.85449">
        <ele>2425</ele>
        <time>2026-08-04T08:27:32.278Z</time>
      </trkpt>
      <trkpt lat="45.95629" lon="6.8545">
        <ele>2425</ele>
        <time>2026-08-04T08:27:33.278Z</time>
      </trkpt>
      <trkpt lat="45.9563" lon="6.85451">
        <ele>2425</ele>
        <time>2026-08-04T08:27:34.278Z</time>
      </trkpt>
      <trkpt lat="45.9563" lon="6.85452">
        <ele>2425</ele>
        <time>2026-08-04T08:27:35.278Z</time>
      </trkpt>
      <trkpt lat="45.95631" lon="6.85454">
        <ele>2425</ele>
        <time>2026-08-04T08:27:36.278Z</time>
      </trkpt>
      <trkpt lat="45.95632" lon="6.85455">
        <ele>2425</ele>
        <time>2026-08-04T08:27:37.278Z</time>
      </trkpt>
      <trkpt lat="45.95633" lon="6.85456">
        <ele>2425</ele>
        <time>2026-08-04T08:27:38.278Z</time>
      </trkpt>
      <trkpt lat="45.95633" lon="6.85456">
        <ele>2425</ele>
        <time>2026-08-04T08:27:39.278Z</time>
      </trkpt>
      <trkpt lat="45.95634" lon="6.85457">
        <ele>2425</ele>
        <time>2026-08-04T08:27:40.278Z</time>
      </trkpt>
      <trkpt lat="45.95634" lon="6.85458">
        <ele>2425</ele>
        <time>2026-08-04T08:27:41.278Z</time>
      </trkpt>
      <trkpt lat="45.95635" lon="6.85458">
        <ele>2425</ele>
        <time>2026-08-04T08:27:42.278Z</time>
      </trkpt>
      <trkpt lat="45.95636" lon="6.85458">
        <ele>2425</ele>
        <time>2026-08-04T08:27:43.278Z</time>
      </trkpt>
      <trkpt lat="45.95637" lon="6.85459">
        <ele>2425</ele>
        <time>2026-08-04T08:27:44.278Z</time>
      </trkpt>
      <trkpt lat="45.95638" lon="6.8546">
        <ele>2425</ele>
        <time>2026-08-04T08:27:45.278Z</time>
      </trkpt>
      <trkpt lat="45.95639" lon="6.85461">
        <ele>2426</ele>
        <time>2026-08-04T08:27:46.278Z</time>
      </trkpt>
      <trkpt lat="45.9564" lon="6.85462">
        <ele>2426</ele>
        <time>2026-08-04T08:27:47.278Z</time>
      </trkpt>
      <trkpt lat="45.9564" lon="6.85464">
        <ele>2426</ele>
        <time>2026-08-04T08:27:48.278Z</time>
      </trkpt>
      <trkpt lat="45.95641" lon="6.85465">
        <ele>2427</ele>
        <time>2026-08-04T08:27:49.278Z</time>
      </trkpt>
      <trkpt lat="45.95641" lon="6.85466">
        <ele>2427</ele>
        <time>2026-08-04T08:27:50.278Z</time>
      </trkpt>
      <trkpt lat="45.95641" lon="6.85466">
        <ele>2427</ele>
        <time>2026-08-04T08:27:51.278Z</time>
      </trkpt>
      <trkpt lat="45.95642" lon="6.85467">
        <ele>2427</ele>
        <time>2026-08-04T08:27:52.278Z</time>
      </trkpt>
      <trkpt lat="45.95642" lon="6.85468">
        <ele>2427</ele>
        <time>2026-08-04T08:27:53.278Z</time>
      </trkpt>
      <trkpt lat="45.95643" lon="6.85469">
        <ele>2428</ele>
        <time>2026-08-04T08:27:54.278Z</time>
      </trkpt>
      <trkpt lat="45.95644" lon="6.8547">
        <ele>2428</ele>
        <time>2026-08-04T08:27:55.279Z</time>
      </trkpt>
      <trkpt lat="45.95644" lon="6.85471">
        <ele>2428</ele>
        <time>2026-08-04T08:27:56.278Z</time>
      </trkpt>
      <trkpt lat="45.95645" lon="6.85472">
        <ele>2428</ele>
        <time>2026-08-04T08:27:57.278Z</time>
      </trkpt>
      <trkpt lat="45.95646" lon="6.85473">
        <ele>2428</ele>
        <time>2026-08-04T08:27:58.278Z</time>
      </trkpt>
      <trkpt lat="45.95647" lon="6.85474">
        <ele>2428</ele>
        <time>2026-08-04T08:27:59.278Z</time>
      </trkpt>
      <trkpt lat="45.95647" lon="6.85475">
        <ele>2428</ele>
        <time>2026-08-04T08:28:00.278Z</time>
      </trkpt>
      <trkpt lat="45.95648" lon="6.85476">
        <ele>2428</ele>
        <time>2026-08-04T08:28:01.278Z</time>
      </trkpt>
      <trkpt lat="45.95649" lon="6.85477">
        <ele>2428</ele>
        <time>2026-08-04T08:28:02.278Z</time>
      </trkpt>
      <trkpt lat="45.95649" lon="6.85477">
        <ele>2429</ele>
        <time>2026-08-04T08:28:03.278Z</time>
      </trkpt>
      <trkpt lat="45.9565" lon="6.85478">
        <ele>2429</ele>
        <time>2026-08-04T08:28:04.278Z</time>
      </trkpt>
      <trkpt lat="45.95651" lon="6.85478">
        <ele>2429</ele>
        <time>2026-08-04T08:28:05.278Z</time>
      </trkpt>
      <trkpt lat="45.95652" lon="6.85478">
        <ele>2430</ele>
        <time>2026-08-04T08:28:06.278Z</time>
      </trkpt>
      <trkpt lat="45.95653" lon="6.85478">
        <ele>2430</ele>
        <time>2026-08-04T08:28:07.278Z</time>
      </trkpt>
      <trkpt lat="45.95654" lon="6.85478">
        <ele>2430</ele>
        <time>2026-08-04T08:28:08.278Z</time>
      </trkpt>
      <trkpt lat="45.95655" lon="6.85478">
        <ele>2430</ele>
        <time>2026-08-04T08:28:09.278Z</time>
      </trkpt>
      <trkpt lat="45.95656" lon="6.85478">
        <ele>2431</ele>
        <time>2026-08-04T08:28:10.278Z</time>
      </trkpt>
      <trkpt lat="45.95657" lon="6.85478">
        <ele>2431</ele>
        <time>2026-08-04T08:28:11.278Z</time>
      </trkpt>
      <trkpt lat="45.95657" lon="6.85478">
        <ele>2431</ele>
        <time>2026-08-04T08:28:12.278Z</time>
      </trkpt>
      <trkpt lat="45.95658" lon="6.85478">
        <ele>2431</ele>
        <time>2026-08-04T08:28:13.278Z</time>
      </trkpt>
      <trkpt lat="45.95659" lon="6.85478">
        <ele>2431</ele>
        <time>2026-08-04T08:28:14.278Z</time>
      </trkpt>
      <trkpt lat="45.9566" lon="6.85478">
        <ele>2431</ele>
        <time>2026-08-04T08:28:15.278Z</time>
      </trkpt>
      <trkpt lat="45.95661" lon="6.85478">
        <ele>2431</ele>
        <time>2026-08-04T08:28:16.278Z</time>
      </trkpt>
      <trkpt lat="45.95662" lon="6.85478">
        <ele>2431</ele>
        <time>2026-08-04T08:28:17.278Z</time>
      </trkpt>
      <trkpt lat="45.95663" lon="6.85478">
        <ele>2431</ele>
        <time>2026-08-04T08:28:18.278Z</time>
      </trkpt>
      <trkpt lat="45.95665" lon="6.8548">
        <ele>2431</ele>
        <time>2026-08-04T08:28:19.278Z</time>
      </trkpt>
      <trkpt lat="45.95666" lon="6.85481">
        <ele>2431</ele>
        <time>2026-08-04T08:28:20.278Z</time>
      </trkpt>
      <trkpt lat="45.95668" lon="6.85481">
        <ele>2431</ele>
        <time>2026-08-04T08:28:21.278Z</time>
      </trkpt>
      <trkpt lat="45.9567" lon="6.85482">
        <ele>2431</ele>
        <time>2026-08-04T08:28:22.278Z</time>
      </trkpt>
      <trkpt lat="45.95671" lon="6.85483">
        <ele>2431</ele>
        <time>2026-08-04T08:28:23.278Z</time>
      </trkpt>
      <trkpt lat="45.95672" lon="6.85484">
        <ele>2432</ele>
        <time>2026-08-04T08:28:24.278Z</time>
      </trkpt>
      <trkpt lat="45.95673" lon="6.85485">
        <ele>2432</ele>
        <time>2026-08-04T08:28:25.278Z</time>
      </trkpt>
      <trkpt lat="45.95674" lon="6.85486">
        <ele>2432</ele>
        <time>2026-08-04T08:28:26.278Z</time>
      </trkpt>
      <trkpt lat="45.95675" lon="6.85486">
        <ele>2433</ele>
        <time>2026-08-04T08:28:27.278Z</time>
      </trkpt>
      <trkpt lat="45.95676" lon="6.85487">
        <ele>2434</ele>
        <time>2026-08-04T08:28:28.278Z</time>
      </trkpt>
      <trkpt lat="45.95676" lon="6.85487">
        <ele>2434</ele>
        <time>2026-08-04T08:28:29.278Z</time>
      </trkpt>
      <trkpt lat="45.95677" lon="6.85487">
        <ele>2434</ele>
        <time>2026-08-04T08:28:30.278Z</time>
      </trkpt>
      <trkpt lat="45.95678" lon="6.85488">
        <ele>2434</ele>
        <time>2026-08-04T08:28:31.278Z</time>
      </trkpt>
      <trkpt lat="45.95679" lon="6.85489">
        <ele>2433</ele>
        <time>2026-08-04T08:28:32.278Z</time>
      </trkpt>
      <trkpt lat="45.9568" lon="6.8549">
        <ele>2433</ele>
        <time>2026-08-04T08:28:33.278Z</time>
      </trkpt>
      <trkpt lat="45.95681" lon="6.85491">
        <ele>2432</ele>
        <time>2026-08-04T08:28:34.278Z</time>
      </trkpt>
      <trkpt lat="45.95682" lon="6.85492">
        <ele>2432</ele>
        <time>2026-08-04T08:28:35.278Z</time>
      </trkpt>
      <trkpt lat="45.95683" lon="6.85492">
        <ele>2432</ele>
        <time>2026-08-04T08:28:36.278Z</time>
      </trkpt>
      <trkpt lat="45.95684" lon="6.85493">
        <ele>2432</ele>
        <time>2026-08-04T08:28:37.278Z</time>
      </trkpt>
      <trkpt lat="45.95685" lon="6.85493">
        <ele>2431</ele>
        <time>2026-08-04T08:28:38.278Z</time>
      </trkpt>
      <trkpt lat="45.95686" lon="6.85493">
        <ele>2431</ele>
        <time>2026-08-04T08:28:39.278Z</time>
      </trkpt>
      <trkpt lat="45.95687" lon="6.85493">
        <ele>2431</ele>
        <time>2026-08-04T08:28:40.278Z</time>
      </trkpt>
      <trkpt lat="45.95688" lon="6.85492">
        <ele>2431</ele>
        <time>2026-08-04T08:28:41.278Z</time>
      </trkpt>
      <trkpt lat="45.95688" lon="6.85492">
        <ele>2431</ele>
        <time>2026-08-04T08:28:42.278Z</time>
      </trkpt>
      <trkpt lat="45.95689" lon="6.85491">
        <ele>2432</ele>
        <time>2026-08-04T08:28:43.278Z</time>
      </trkpt>
      <trkpt lat="45.9569" lon="6.85491">
        <ele>2432</ele>
        <time>2026-08-04T08:28:44.278Z</time>
      </trkpt>
      <trkpt lat="45.95691" lon="6.85491">
        <ele>2432</ele>
        <time>2026-08-04T08:28:45.278Z</time>
      </trkpt>
      <trkpt lat="45.95692" lon="6.85491">
        <ele>2431</ele>
        <time>2026-08-04T08:28:46.278Z</time>
      </trkpt>
      <trkpt lat="45.95693" lon="6.85491">
        <ele>2431</ele>
        <time>2026-08-04T08:28:47.278Z</time>
      </trkpt>
      <trkpt lat="45.95695" lon="6.85491">
        <ele>2431</ele>
        <time>2026-08-04T08:28:48.278Z</time>
      </trkpt>
      <trkpt lat="45.95695" lon="6.85491">
        <ele>2431</ele>
        <time>2026-08-04T08:28:49.278Z</time>
      </trkpt>
      <trkpt lat="45.95696" lon="6.85491">
        <ele>2431</ele>
        <time>2026-08-04T08:28:50.278Z</time>
      </trkpt>
      <trkpt lat="45.95697" lon="6.85492">
        <ele>2431</ele>
        <time>2026-08-04T08:28:51.278Z</time>
      </trkpt>
      <trkpt lat="45.95697" lon="6.85493">
        <ele>2431</ele>
        <time>2026-08-04T08:28:52.278Z</time>
      </trkpt>
      <trkpt lat="45.95698" lon="6.85494">
        <ele>2430</ele>
        <time>2026-08-04T08:28:53.278Z</time>
      </trkpt>
      <trkpt lat="45.95698" lon="6.85494">
        <ele>2430</ele>
        <time>2026-08-04T08:28:54.278Z</time>
      </trkpt>
      <trkpt lat="45.95699" lon="6.85494">
        <ele>2431</ele>
        <time>2026-08-04T08:28:55.278Z</time>
      </trkpt>
      <trkpt lat="45.95699" lon="6.85495">
        <ele>2431</ele>
        <time>2026-08-04T08:28:56.278Z</time>
      </trkpt>
      <trkpt lat="45.957" lon="6.85495">
        <ele>2431</ele>
        <time>2026-08-04T08:28:57.278Z</time>
      </trkpt>
      <trkpt lat="45.95701" lon="6.85495">
        <ele>2431</ele>
        <time>2026-08-04T08:28:58.278Z</time>
      </trkpt>
      <trkpt lat="45.95701" lon="6.85496">
        <ele>2431</ele>
        <time>2026-08-04T08:28:59.278Z</time>
      </trkpt>
      <trkpt lat="45.95702" lon="6.85496">
        <ele>2431</ele>
        <time>2026-08-04T08:29:00.278Z</time>
      </trkpt>
      <trkpt lat="45.95703" lon="6.85496">
        <ele>2431</ele>
        <time>2026-08-04T08:29:01.278Z</time>
      </trkpt>
      <trkpt lat="45.95704" lon="6.85495">
        <ele>2431</ele>
        <time>2026-08-04T08:29:02.278Z</time>
      </trkpt>
      <trkpt lat="45.95704" lon="6.85495">
        <ele>2431</ele>
        <time>2026-08-04T08:29:03.278Z</time>
      </trkpt>
      <trkpt lat="45.95705" lon="6.85496">
        <ele>2431</ele>
        <time>2026-08-04T08:29:04.278Z</time>
      </trkpt>
      <trkpt lat="45.95705" lon="6.85496">
        <ele>2432</ele>
        <time>2026-08-04T08:29:05.278Z</time>
      </trkpt>
      <trkpt lat="45.95706" lon="6.85497">
        <ele>2432</ele>
        <time>2026-08-04T08:29:06.278Z</time>
      </trkpt>
      <trkpt lat="45.95706" lon="6.85498">
        <ele>2432</ele>
        <time>2026-08-04T08:29:07.278Z</time>
      </trkpt>
      <trkpt lat="45.95706" lon="6.85499">
        <ele>2432</ele>
        <time>2026-08-04T08:29:08.278Z</time>
      </trkpt>
      <trkpt lat="45.95707" lon="6.85499">
        <ele>2432</ele>
        <time>2026-08-04T08:29:09.279Z</time>
      </trkpt>
      <trkpt lat="45.95708" lon="6.855">
        <ele>2432</ele>
        <time>2026-08-04T08:29:10.278Z</time>
      </trkpt>
      <trkpt lat="45.95708" lon="6.855">
        <ele>2432</ele>
        <time>2026-08-04T08:29:11.278Z</time>
      </trkpt>
      <trkpt lat="45.95709" lon="6.855">
        <ele>2432</ele>
        <time>2026-08-04T08:29:12.278Z</time>
      </trkpt>
      <trkpt lat="45.9571" lon="6.855">
        <ele>2432</ele>
        <time>2026-08-04T08:29:13.278Z</time>
      </trkpt>
      <trkpt lat="45.95711" lon="6.855">
        <ele>2432</ele>
        <time>2026-08-04T08:29:14.278Z</time>
      </trkpt>
      <trkpt lat="45.95711" lon="6.855">
        <ele>2433</ele>
        <time>2026-08-04T08:29:15.278Z</time>
      </trkpt>
      <trkpt lat="45.95711" lon="6.855">
        <ele>2433</ele>
        <time>2026-08-04T08:29:16.278Z</time>
      </trkpt>
      <trkpt lat="45.95712" lon="6.855">
        <ele>2433</ele>
        <time>2026-08-04T08:29:17.278Z</time>
      </trkpt>
      <trkpt lat="45.95712" lon="6.855">
        <ele>2433</ele>
        <time>2026-08-04T08:29:18.278Z</time>
      </trkpt>
      <trkpt lat="45.95712" lon="6.855">
        <ele>2434</ele>
        <time>2026-08-04T08:29:19.278Z</time>
      </trkpt>
      <trkpt lat="45.95713" lon="6.855">
        <ele>2434</ele>
        <time>2026-08-04T08:29:20.278Z</time>
      </trkpt>
      <trkpt lat="45.95713" lon="6.855">
        <ele>2434</ele>
        <time>2026-08-04T08:29:21.278Z</time>
      </trkpt>
      <trkpt lat="45.95715" lon="6.855">
        <ele>2433</ele>
        <time>2026-08-04T08:29:22.278Z</time>
      </trkpt>
      <trkpt lat="45.95716" lon="6.85501">
        <ele>2433</ele>
        <time>2026-08-04T08:29:23.278Z</time>
      </trkpt>
      <trkpt lat="45.95716" lon="6.85501">
        <ele>2433</ele>
        <time>2026-08-04T08:29:24.278Z</time>
      </trkpt>
      <trkpt lat="45.95717" lon="6.85502">
        <ele>2432</ele>
        <time>2026-08-04T08:29:25.278Z</time>
      </trkpt>
      <trkpt lat="45.95717" lon="6.85503">
        <ele>2432</ele>
        <time>2026-08-04T08:29:26.278Z</time>
      </trkpt>
      <trkpt lat="45.95718" lon="6.85504">
        <ele>2431</ele>
        <time>2026-08-04T08:29:27.278Z</time>
      </trkpt>
      <trkpt lat="45.95718" lon="6.85505">
        <ele>2431</ele>
        <time>2026-08-04T08:29:28.278Z</time>
      </trkpt>
      <trkpt lat="45.95718" lon="6.85505">
        <ele>2430</ele>
        <time>2026-08-04T08:29:29.278Z</time>
      </trkpt>
      <trkpt lat="45.95719" lon="6.85505">
        <ele>2431</ele>
        <time>2026-08-04T08:29:30.278Z</time>
      </trkpt>
      <trkpt lat="45.9572" lon="6.85505">
        <ele>2431</ele>
        <time>2026-08-04T08:29:31.278Z</time>
      </trkpt>
      <trkpt lat="45.9572" lon="6.85505">
        <ele>2431</ele>
        <time>2026-08-04T08:29:32.278Z</time>
      </trkpt>
      <trkpt lat="45.95721" lon="6.85505">
        <ele>2431</ele>
        <time>2026-08-04T08:29:33.278Z</time>
      </trkpt>
      <trkpt lat="45.95721" lon="6.85505">
        <ele>2432</ele>
        <time>2026-08-04T08:29:34.278Z</time>
      </trkpt>
      <trkpt lat="45.95722" lon="6.85504">
        <ele>2432</ele>
        <time>2026-08-04T08:29:35.278Z</time>
      </trkpt>
      <trkpt lat="45.95722" lon="6.85504">
        <ele>2432</ele>
        <time>2026-08-04T08:29:36.278Z</time>
      </trkpt>
      <trkpt lat="45.95723" lon="6.85505">
        <ele>2432</ele>
        <time>2026-08-04T08:29:37.278Z</time>
      </trkpt>
      <trkpt lat="45.95724" lon="6.85506">
        <ele>2432</ele>
        <time>2026-08-04T08:29:38.278Z</time>
      </trkpt>
      <trkpt lat="45.95725" lon="6.85507">
        <ele>2432</ele>
        <time>2026-08-04T08:29:39.278Z</time>
      </trkpt>
      <trkpt lat="45.95726" lon="6.85507">
        <ele>2432</ele>
        <time>2026-08-04T08:29:40.278Z</time>
      </trkpt>
      <trkpt lat="45.95727" lon="6.85508">
        <ele>2432</ele>
        <time>2026-08-04T08:29:41.278Z</time>
      </trkpt>
      <trkpt lat="45.95727" lon="6.85509">
        <ele>2432</ele>
        <time>2026-08-04T08:29:42.278Z</time>
      </trkpt>
      <trkpt lat="45.95728" lon="6.85509">
        <ele>2432</ele>
        <time>2026-08-04T08:29:43.278Z</time>
      </trkpt>
      <trkpt lat="45.95729" lon="6.8551">
        <ele>2432</ele>
        <time>2026-08-04T08:29:44.278Z</time>
      </trkpt>
      <trkpt lat="45.95731" lon="6.85511">
        <ele>2432</ele>
        <time>2026-08-04T08:29:45.278Z</time>
      </trkpt>
      <trkpt lat="45.95731" lon="6.85513">
        <ele>2432</ele>
        <time>2026-08-04T08:29:46.278Z</time>
      </trkpt>
      <trkpt lat="45.95732" lon="6.85514">
        <ele>2432</ele>
        <time>2026-08-04T08:29:47.278Z</time>
      </trkpt>
      <trkpt lat="45.95733" lon="6.85515">
        <ele>2432</ele>
        <time>2026-08-04T08:29:48.278Z</time>
      </trkpt>
      <trkpt lat="45.95734" lon="6.85516">
        <ele>2432</ele>
        <time>2026-08-04T08:29:49.278Z</time>
      </trkpt>
      <trkpt lat="45.95734" lon="6.85517">
        <ele>2432</ele>
        <time>2026-08-04T08:29:50.278Z</time>
      </trkpt>
      <trkpt lat="45.95735" lon="6.85518">
        <ele>2432</ele>
        <time>2026-08-04T08:29:51.278Z</time>
      </trkpt>
      <trkpt lat="45.95736" lon="6.85519">
        <ele>2432</ele>
        <time>2026-08-04T08:29:52.278Z</time>
      </trkpt>
      <trkpt lat="45.95737" lon="6.85521">
        <ele>2432</ele>
        <time>2026-08-04T08:29:53.278Z</time>
      </trkpt>
      <trkpt lat="45.95738" lon="6.85522">
        <ele>2432</ele>
        <time>2026-08-04T08:29:54.278Z</time>
      </trkpt>
      <trkpt lat="45.95739" lon="6.85523">
        <ele>2432</ele>
        <time>2026-08-04T08:29:55.278Z</time>
      </trkpt>
      <trkpt lat="45.95739" lon="6.85524">
        <ele>2432</ele>
        <time>2026-08-04T08:29:56.278Z</time>
      </trkpt>
      <trkpt lat="45.9574" lon="6.85526">
        <ele>2432</ele>
        <time>2026-08-04T08:29:57.278Z</time>
      </trkpt>
      <trkpt lat="45.95741" lon="6.85527">
        <ele>2432</ele>
        <time>2026-08-04T08:29:58.278Z</time>
      </trkpt>
      <trkpt lat="45.95742" lon="6.85528">
        <ele>2433</ele>
        <time>2026-08-04T08:29:59.278Z</time>
      </trkpt>
      <trkpt lat="45.95742" lon="6.85529">
        <ele>2433</ele>
        <time>2026-08-04T08:30:00.278Z</time>
      </trkpt>
      <trkpt lat="45.95743" lon="6.8553">
        <ele>2433</ele>
        <time>2026-08-04T08:30:01.278Z</time>
      </trkpt>
      <trkpt lat="45.95744" lon="6.85531">
        <ele>2432</ele>
        <time>2026-08-04T08:30:02.278Z</time>
      </trkpt>
      <trkpt lat="45.95744" lon="6.85533">
        <ele>2432</ele>
        <time>2026-08-04T08:30:03.278Z</time>
      </trkpt>
      <trkpt lat="45.95745" lon="6.85534">
        <ele>2432</ele>
        <time>2026-08-04T08:30:04.278Z</time>
      </trkpt>
      <trkpt lat="45.95746" lon="6.85535">
        <ele>2432</ele>
        <time>2026-08-04T08:30:05.278Z</time>
      </trkpt>
      <trkpt lat="45.95747" lon="6.85536">
        <ele>2432</ele>
        <time>2026-08-04T08:30:06.278Z</time>
      </trkpt>
      <trkpt lat="45.95748" lon="6.85537">
        <ele>2432</ele>
        <time>2026-08-04T08:30:07.278Z</time>
      </trkpt>
      <trkpt lat="45.95749" lon="6.85538">
        <ele>2432</ele>
        <time>2026-08-04T08:30:08.278Z</time>
      </trkpt>
      <trkpt lat="45.9575" lon="6.85538">
        <ele>2432</ele>
        <time>2026-08-04T08:30:09.278Z</time>
      </trkpt>
      <trkpt lat="45.95751" lon="6.85538">
        <ele>2432</ele>
        <time>2026-08-04T08:30:10.278Z</time>
      </trkpt>
      <trkpt lat="45.95752" lon="6.85538">
        <ele>2432</ele>
        <time>2026-08-04T08:30:11.278Z</time>
      </trkpt>
      <trkpt lat="45.95753" lon="6.85538">
        <ele>2432</ele>
        <time>2026-08-04T08:30:12.278Z</time>
      </trkpt>
      <trkpt lat="45.95754" lon="6.85539">
        <ele>2432</ele>
        <time>2026-08-04T08:30:13.278Z</time>
      </trkpt>
      <trkpt lat="45.95755" lon="6.85539">
        <ele>2432</ele>
        <time>2026-08-04T08:30:14.278Z</time>
      </trkpt>
      <trkpt lat="45.95756" lon="6.8554">
        <ele>2432</ele>
        <time>2026-08-04T08:30:15.278Z</time>
      </trkpt>
      <trkpt lat="45.95757" lon="6.8554">
        <ele>2432</ele>
        <time>2026-08-04T08:30:16.278Z</time>
      </trkpt>
      <trkpt lat="45.95758" lon="6.8554">
        <ele>2432</ele>
        <time>2026-08-04T08:30:17.278Z</time>
      </trkpt>
      <trkpt lat="45.95759" lon="6.85541">
        <ele>2432</ele>
        <time>2026-08-04T08:30:18.278Z</time>
      </trkpt>
      <trkpt lat="45.9576" lon="6.85541">
        <ele>2432</ele>
        <time>2026-08-04T08:30:19.278Z</time>
      </trkpt>
      <trkpt lat="45.95761" lon="6.85541">
        <ele>2432</ele>
        <time>2026-08-04T08:30:20.278Z</time>
      </trkpt>
      <trkpt lat="45.95761" lon="6.85541">
        <ele>2432</ele>
        <time>2026-08-04T08:30:21.278Z</time>
      </trkpt>
      <trkpt lat="45.95763" lon="6.85542">
        <ele>2432</ele>
        <time>2026-08-04T08:30:22.278Z</time>
      </trkpt>
      <trkpt lat="45.95763" lon="6.85542">
        <ele>2432</ele>
        <time>2026-08-04T08:30:23.278Z</time>
      </trkpt>
      <trkpt lat="45.95764" lon="6.85543">
        <ele>2432</ele>
        <time>2026-08-04T08:30:24.278Z</time>
      </trkpt>
      <trkpt lat="45.95765" lon="6.85544">
        <ele>2432</ele>
        <time>2026-08-04T08:30:25.278Z</time>
      </trkpt>
      <trkpt lat="45.95766" lon="6.85545">
        <ele>2432</ele>
        <time>2026-08-04T08:30:26.278Z</time>
      </trkpt>
      <trkpt lat="45.95767" lon="6.85545">
        <ele>2432</ele>
        <time>2026-08-04T08:30:27.278Z</time>
      </trkpt>
      <trkpt lat="45.95768" lon="6.85545">
        <ele>2433</ele>
        <time>2026-08-04T08:30:28.278Z</time>
      </trkpt>
      <trkpt lat="45.95769" lon="6.85545">
        <ele>2433</ele>
        <time>2026-08-04T08:30:29.278Z</time>
      </trkpt>
      <trkpt lat="45.9577" lon="6.85546">
        <ele>2434</ele>
        <time>2026-08-04T08:30:30.278Z</time>
      </trkpt>
      <trkpt lat="45.95771" lon="6.85546">
        <ele>2434</ele>
        <time>2026-08-04T08:30:31.278Z</time>
      </trkpt>
      <trkpt lat="45.95773" lon="6.85546">
        <ele>2434</ele>
        <time>2026-08-04T08:30:32.278Z</time>
      </trkpt>
      <trkpt lat="45.95774" lon="6.85547">
        <ele>2435</ele>
        <time>2026-08-04T08:30:33.278Z</time>
      </trkpt>
      <trkpt lat="45.95775" lon="6.85547">
        <ele>2435</ele>
        <time>2026-08-04T08:30:34.278Z</time>
      </trkpt>
      <trkpt lat="45.95776" lon="6.85547">
        <ele>2435</ele>
        <time>2026-08-04T08:30:35.278Z</time>
      </trkpt>
      <trkpt lat="45.95778" lon="6.85548">
        <ele>2435</ele>
        <time>2026-08-04T08:30:36.278Z</time>
      </trkpt>
      <trkpt lat="45.95779" lon="6.85549">
        <ele>2434</ele>
        <time>2026-08-04T08:30:37.278Z</time>
      </trkpt>
      <trkpt lat="45.95781" lon="6.8555">
        <ele>2434</ele>
        <time>2026-08-04T08:30:38.278Z</time>
      </trkpt>
      <trkpt lat="45.95782" lon="6.8555">
        <ele>2434</ele>
        <time>2026-08-04T08:30:39.278Z</time>
      </trkpt>
      <trkpt lat="45.95783" lon="6.85551">
        <ele>2434</ele>
        <time>2026-08-04T08:30:40.278Z</time>
      </trkpt>
      <trkpt lat="45.95784" lon="6.85551">
        <ele>2434</ele>
        <time>2026-08-04T08:30:41.278Z</time>
      </trkpt>
      <trkpt lat="45.95785" lon="6.85551">
        <ele>2434</ele>
        <time>2026-08-04T08:30:42.278Z</time>
      </trkpt>
      <trkpt lat="45.95786" lon="6.85552">
        <ele>2434</ele>
        <time>2026-08-04T08:30:43.278Z</time>
      </trkpt>
      <trkpt lat="45.95786" lon="6.85552">
        <ele>2434</ele>
        <time>2026-08-04T08:30:44.278Z</time>
      </trkpt>
      <trkpt lat="45.95787" lon="6.85552">
        <ele>2434</ele>
        <time>2026-08-04T08:30:45.278Z</time>
      </trkpt>
      <trkpt lat="45.95787" lon="6.85553">
        <ele>2434</ele>
        <time>2026-08-04T08:30:46.278Z</time>
      </trkpt>
      <trkpt lat="45.95787" lon="6.85553">
        <ele>2434</ele>
        <time>2026-08-04T08:30:47.278Z</time>
      </trkpt>
      <trkpt lat="45.95787" lon="6.85553">
        <ele>2434</ele>
        <time>2026-08-04T08:30:48.278Z</time>
      </trkpt>
      <trkpt lat="45.95787" lon="6.85553">
        <ele>2434</ele>
        <time>2026-08-04T08:30:49.278Z</time>
      </trkpt>
      <trkpt lat="45.95787" lon="6.85553">
        <ele>2434</ele>
        <time>2026-08-04T08:30:50.278Z</time>
      </trkpt>
      <trkpt lat="45.95787" lon="6.85553">
        <ele>2434</ele>
        <time>2026-08-04T08:30:51.278Z</time>
      </trkpt>
      <trkpt lat="45.95787" lon="6.85554">
        <ele>2434</ele>
        <time>2026-08-04T08:30:52.278Z</time>
      </trkpt>
      <trkpt lat="45.95787" lon="6.85554">
        <ele>2434</ele>
        <time>2026-08-04T08:30:53.278Z</time>
      </trkpt>
      <trkpt lat="45.95788" lon="6.85554">
        <ele>2433</ele>
        <time>2026-08-04T08:30:54.278Z</time>
      </trkpt>
      <trkpt lat="45.95788" lon="6.85554">
        <ele>2432</ele>
        <time>2026-08-04T08:30:55.278Z</time>
      </trkpt>
      <trkpt lat="45.95788" lon="6.85554">
        <ele>2432</ele>
        <time>2026-08-04T08:30:56.278Z</time>
      </trkpt>
      <trkpt lat="45.95789" lon="6.85554">
        <ele>2431</ele>
        <time>2026-08-04T08:30:57.278Z</time>
      </trkpt>
      <trkpt lat="45.95789" lon="6.85555">
        <ele>2431</ele>
        <time>2026-08-04T08:30:58.278Z</time>
      </trkpt>
      <trkpt lat="45.95789" lon="6.85555">
        <ele>2431</ele>
        <time>2026-08-04T08:30:59.278Z</time>
      </trkpt>
      <trkpt lat="45.95789" lon="6.85555">
        <ele>2430</ele>
        <time>2026-08-04T08:31:00.278Z</time>
      </trkpt>
      <trkpt lat="45.95789" lon="6.85555">
        <ele>2430</ele>
        <time>2026-08-04T08:31:01.278Z</time>
      </trkpt>
      <trkpt lat="45.95789" lon="6.85555">
        <ele>2430</ele>
        <time>2026-08-04T08:31:02.279Z</time>
      </trkpt>
      <trkpt lat="45.95789" lon="6.85555">
        <ele>2430</ele>
        <time>2026-08-04T08:31:03.278Z</time>
      </trkpt>
      <trkpt lat="45.95789" lon="6.85555">
        <ele>2430</ele>
        <time>2026-08-04T08:31:04.278Z</time>
      </trkpt>
      <trkpt lat="45.95789" lon="6.85555">
        <ele>2431</ele>
        <time>2026-08-04T08:31:05.278Z</time>
      </trkpt>
      <trkpt lat="45.95789" lon="6.85555">
        <ele>2431</ele>
        <time>2026-08-04T08:31:06.278Z</time>
      </trkpt>
      <trkpt lat="45.95789" lon="6.85555">
        <ele>2431</ele>
        <time>2026-08-04T08:31:07.278Z</time>
      </trkpt>
      <trkpt lat="45.95789" lon="6.85555">
        <ele>2431</ele>
        <time>2026-08-04T08:31:08.278Z</time>
      </trkpt>
      <trkpt lat="45.95789" lon="6.85555">
        <ele>2432</ele>
        <time>2026-08-04T08:31:09.278Z</time>
      </trkpt>
      <trkpt lat="45.95789" lon="6.85555">
        <ele>2432</ele>
        <time>2026-08-04T08:31:10.278Z</time>
      </trkpt>
      <trkpt lat="45.95789" lon="6.85555">
        <ele>2432</ele>
        <time>2026-08-04T08:31:11.278Z</time>
      </trkpt>
      <trkpt lat="45.95789" lon="6.85555">
        <ele>2432</ele>
        <time>2026-08-04T08:31:12.278Z</time>
      </trkpt>
      <trkpt lat="45.95789" lon="6.85555">
        <ele>2432</ele>
        <time>2026-08-04T08:31:13.278Z</time>
      </trkpt>
      <trkpt lat="45.95789" lon="6.85555">
        <ele>2433</ele>
        <time>2026-08-04T08:31:14.278Z</time>
      </trkpt>
      <trkpt lat="45.95789" lon="6.85555">
        <ele>2433</ele>
        <time>2026-08-04T08:31:15.278Z</time>
      </trkpt>
      <trkpt lat="45.95789" lon="6.85555">
        <ele>2433</ele>
        <time>2026-08-04T08:31:16.278Z</time>
      </trkpt>
      <trkpt lat="45.95789" lon="6.85555">
        <ele>2433</ele>
        <time>2026-08-04T08:31:17.278Z</time>
      </trkpt>
      <trkpt lat="45.95789" lon="6.85555">
        <ele>2433</ele>
        <time>2026-08-04T08:31:18.278Z</time>
      </trkpt>
      <trkpt lat="45.95789" lon="6.85555">
        <ele>2433</ele>
        <time>2026-08-04T08:31:19.278Z</time>
      </trkpt>
      <trkpt lat="45.95789" lon="6.85555">
        <ele>2433</ele>
        <time>2026-08-04T08:31:20.278Z</time>
      </trkpt>
      <trkpt lat="45.95789" lon="6.85555">
        <ele>2433</ele>
        <time>2026-08-04T08:31:21.278Z</time>
      </trkpt>
      <trkpt lat="45.95789" lon="6.85556">
        <ele>2433</ele>
        <time>2026-08-04T08:31:22.278Z</time>
      </trkpt>
      <trkpt lat="45.95789" lon="6.85556">
        <ele>2433</ele>
        <time>2026-08-04T08:31:23.278Z</time>
      </trkpt>
      <trkpt lat="45.95791" lon="6.85556">
        <ele>2433</ele>
        <time>2026-08-04T08:31:24.278Z</time>
      </trkpt>
      <trkpt lat="45.95792" lon="6.85557">
        <ele>2433</ele>
        <time>2026-08-04T08:31:25.278Z</time>
      </trkpt>
      <trkpt lat="45.95793" lon="6.85557">
        <ele>2432</ele>
        <time>2026-08-04T08:31:26.278Z</time>
      </trkpt>
      <trkpt lat="45.95795" lon="6.85557">
        <ele>2432</ele>
        <time>2026-08-04T08:31:27.278Z</time>
      </trkpt>
      <trkpt lat="45.95796" lon="6.85558">
        <ele>2432</ele>
        <time>2026-08-04T08:31:28.278Z</time>
      </trkpt>
      <trkpt lat="45.95798" lon="6.85558">
        <ele>2432</ele>
        <time>2026-08-04T08:31:29.278Z</time>
      </trkpt>
      <trkpt lat="45.95799" lon="6.85559">
        <ele>2432</ele>
        <time>2026-08-04T08:31:30.278Z</time>
      </trkpt>
      <trkpt lat="45.958" lon="6.85559">
        <ele>2432</ele>
        <time>2026-08-04T08:31:31.278Z</time>
      </trkpt>
      <trkpt lat="45.95801" lon="6.85559">
        <ele>2432</ele>
        <time>2026-08-04T08:31:32.278Z</time>
      </trkpt>
      <trkpt lat="45.95801" lon="6.85559">
        <ele>2432</ele>
        <time>2026-08-04T08:31:33.278Z</time>
      </trkpt>
      <trkpt lat="45.95801" lon="6.85559">
        <ele>2432</ele>
        <time>2026-08-04T08:31:34.278Z</time>
      </trkpt>
      <trkpt lat="45.95801" lon="6.85559">
        <ele>2432</ele>
        <time>2026-08-04T08:31:35.278Z</time>
      </trkpt>
      <trkpt lat="45.95801" lon="6.85559">
        <ele>2432</ele>
        <time>2026-08-04T08:31:36.278Z</time>
      </trkpt>
      <trkpt lat="45.95802" lon="6.85559">
        <ele>2432</ele>
        <time>2026-08-04T08:31:37.278Z</time>
      </trkpt>
      <trkpt lat="45.95802" lon="6.85558">
        <ele>2432</ele>
        <time>2026-08-04T08:31:38.278Z</time>
      </trkpt>
      <trkpt lat="45.95803" lon="6.85557">
        <ele>2433</ele>
        <time>2026-08-04T08:31:39.278Z</time>
      </trkpt>
      <trkpt lat="45.95803" lon="6.85557">
        <ele>2433</ele>
        <time>2026-08-04T08:31:40.278Z</time>
      </trkpt>
      <trkpt lat="45.95804" lon="6.85557">
        <ele>2433</ele>
        <time>2026-08-04T08:31:41.278Z</time>
      </trkpt>
      <trkpt lat="45.95805" lon="6.85557">
        <ele>2433</ele>
        <time>2026-08-04T08:31:42.278Z</time>
      </trkpt>
      <trkpt lat="45.95806" lon="6.85557">
        <ele>2432</ele>
        <time>2026-08-04T08:31:43.278Z</time>
      </trkpt>
      <trkpt lat="45.95806" lon="6.85558">
        <ele>2432</ele>
        <time>2026-08-04T08:31:44.278Z</time>
      </trkpt>
      <trkpt lat="45.95806" lon="6.85558">
        <ele>2432</ele>
        <time>2026-08-04T08:31:45.278Z</time>
      </trkpt>
      <trkpt lat="45.95807" lon="6.85559">
        <ele>2432</ele>
        <time>2026-08-04T08:31:46.278Z</time>
      </trkpt>
      <trkpt lat="45.95807" lon="6.85559">
        <ele>2433</ele>
        <time>2026-08-04T08:31:47.278Z</time>
      </trkpt>
      <trkpt lat="45.95809" lon="6.85559">
        <ele>2433</ele>
        <time>2026-08-04T08:31:48.278Z</time>
      </trkpt>
      <trkpt lat="45.9581" lon="6.85559">
        <ele>2433</ele>
        <time>2026-08-04T08:31:49.278Z</time>
      </trkpt>
      <trkpt lat="45.95811" lon="6.85559">
        <ele>2434</ele>
        <time>2026-08-04T08:31:50.278Z</time>
      </trkpt>
      <trkpt lat="45.95813" lon="6.85559">
        <ele>2434</ele>
        <time>2026-08-04T08:31:51.278Z</time>
      </trkpt>
      <trkpt lat="45.95814" lon="6.8556">
        <ele>2434</ele>
        <time>2026-08-04T08:31:52.278Z</time>
      </trkpt>
      <trkpt lat="45.95815" lon="6.8556">
        <ele>2434</ele>
        <time>2026-08-04T08:31:53.278Z</time>
      </trkpt>
      <trkpt lat="45.95816" lon="6.85561">
        <ele>2434</ele>
        <time>2026-08-04T08:31:54.278Z</time>
      </trkpt>
      <trkpt lat="45.95818" lon="6.85561">
        <ele>2435</ele>
        <time>2026-08-04T08:31:55.278Z</time>
      </trkpt>
      <trkpt lat="45.95819" lon="6.85561">
        <ele>2435</ele>
        <time>2026-08-04T08:31:56.278Z</time>
      </trkpt>
      <trkpt lat="45.9582" lon="6.85562">
        <ele>2436</ele>
        <time>2026-08-04T08:31:57.278Z</time>
      </trkpt>
      <trkpt lat="45.95821" lon="6.85563">
        <ele>2436</ele>
        <time>2026-08-04T08:31:58.278Z</time>
      </trkpt>
      <trkpt lat="45.95821" lon="6.85563">
        <ele>2436</ele>
        <time>2026-08-04T08:31:59.278Z</time>
      </trkpt>
      <trkpt lat="45.9582" lon="6.85563">
        <ele>2437</ele>
        <time>2026-08-04T08:32:00.278Z</time>
      </trkpt>
      <trkpt lat="45.9582" lon="6.85564">
        <ele>2437</ele>
        <time>2026-08-04T08:32:01.278Z</time>
      </trkpt>
      <trkpt lat="45.95819" lon="6.85565">
        <ele>2437</ele>
        <time>2026-08-04T08:32:02.278Z</time>
      </trkpt>
      <trkpt lat="45.95818" lon="6.85565">
        <ele>2437</ele>
        <time>2026-08-04T08:32:03.278Z</time>
      </trkpt>
      <trkpt lat="45.95818" lon="6.85566">
        <ele>2437</ele>
        <time>2026-08-04T08:32:04.278Z</time>
      </trkpt>
      <trkpt lat="45.95817" lon="6.85567">
        <ele>2437</ele>
        <time>2026-08-04T08:32:05.278Z</time>
      </trkpt>
      <trkpt lat="45.95816" lon="6.85567">
        <ele>2437</ele>
        <time>2026-08-04T08:32:06.278Z</time>
      </trkpt>
      <trkpt lat="45.95815" lon="6.85568">
        <ele>2437</ele>
        <time>2026-08-04T08:32:07.278Z</time>
      </trkpt>
      <trkpt lat="45.95814" lon="6.85569">
        <ele>2437</ele>
        <time>2026-08-04T08:32:08.278Z</time>
      </trkpt>
      <trkpt lat="45.95814" lon="6.8557">
        <ele>2437</ele>
        <time>2026-08-04T08:32:09.278Z</time>
      </trkpt>
      <trkpt lat="45.95814" lon="6.85571">
        <ele>2437</ele>
        <time>2026-08-04T08:32:10.278Z</time>
      </trkpt>
      <trkpt lat="45.95814" lon="6.85572">
        <ele>2437</ele>
        <time>2026-08-04T08:32:11.278Z</time>
      </trkpt>
      <trkpt lat="45.95813" lon="6.85572">
        <ele>2437</ele>
        <time>2026-08-04T08:32:12.278Z</time>
      </trkpt>
      <trkpt lat="45.95813" lon="6.85573">
        <ele>2438</ele>
        <time>2026-08-04T08:32:13.278Z</time>
      </trkpt>
      <trkpt lat="45.95812" lon="6.85573">
        <ele>2438</ele>
        <time>2026-08-04T08:32:14.278Z</time>
      </trkpt>
      <trkpt lat="45.95811" lon="6.85573">
        <ele>2438</ele>
        <time>2026-08-04T08:32:15.278Z</time>
      </trkpt>
      <trkpt lat="45.9581" lon="6.85573">
        <ele>2438</ele>
        <time>2026-08-04T08:32:16.278Z</time>
      </trkpt>
      <trkpt lat="45.95808" lon="6.85573">
        <ele>2437</ele>
        <time>2026-08-04T08:32:17.278Z</time>
      </trkpt>
      <trkpt lat="45.95807" lon="6.85573">
        <ele>2437</ele>
        <time>2026-08-04T08:32:18.278Z</time>
      </trkpt>
      <trkpt lat="45.95807" lon="6.85573">
        <ele>2437</ele>
        <time>2026-08-04T08:32:19.278Z</time>
      </trkpt>
      <trkpt lat="45.95806" lon="6.85573">
        <ele>2437</ele>
        <time>2026-08-04T08:32:20.278Z</time>
      </trkpt>
      <trkpt lat="45.95806" lon="6.85574">
        <ele>2438</ele>
        <time>2026-08-04T08:32:21.278Z</time>
      </trkpt>
      <trkpt lat="45.95806" lon="6.85574">
        <ele>2438</ele>
        <time>2026-08-04T08:32:22.278Z</time>
      </trkpt>
      <trkpt lat="45.95806" lon="6.85574">
        <ele>2439</ele>
        <time>2026-08-04T08:32:23.278Z</time>
      </trkpt>
      <trkpt lat="45.95806" lon="6.85574">
        <ele>2439</ele>
        <time>2026-08-04T08:32:24.278Z</time>
      </trkpt>
      <trkpt lat="45.95806" lon="6.85574">
        <ele>2439</ele>
        <time>2026-08-04T08:32:25.278Z</time>
      </trkpt>
      <trkpt lat="45.95806" lon="6.85574">
        <ele>2439</ele>
        <time>2026-08-04T08:32:26.278Z</time>
      </trkpt>
      <trkpt lat="45.95806" lon="6.85574">
        <ele>2439</ele>
        <time>2026-08-04T08:32:27.278Z</time>
      </trkpt>
      <trkpt lat="45.95806" lon="6.85574">
        <ele>2439</ele>
        <time>2026-08-04T08:32:28.278Z</time>
      </trkpt>
      <trkpt lat="45.95807" lon="6.85575">
        <ele>2440</ele>
        <time>2026-08-04T08:32:29.278Z</time>
      </trkpt>
      <trkpt lat="45.95808" lon="6.85575">
        <ele>2440</ele>
        <time>2026-08-04T08:32:30.278Z</time>
      </trkpt>
      <trkpt lat="45.95809" lon="6.85575">
        <ele>2440</ele>
        <time>2026-08-04T08:32:31.278Z</time>
      </trkpt>
      <trkpt lat="45.9581" lon="6.85575">
        <ele>2441</ele>
        <time>2026-08-04T08:32:32.278Z</time>
      </trkpt>
      <trkpt lat="45.95811" lon="6.85575">
        <ele>2441</ele>
        <time>2026-08-04T08:32:33.278Z</time>
      </trkpt>
      <trkpt lat="45.95812" lon="6.85575">
        <ele>2441</ele>
        <time>2026-08-04T08:32:34.278Z</time>
      </trkpt>
      <trkpt lat="45.95813" lon="6.85575">
        <ele>2442</ele>
        <time>2026-08-04T08:32:35.278Z</time>
      </trkpt>
      <trkpt lat="45.95813" lon="6.85575">
        <ele>2442</ele>
        <time>2026-08-04T08:32:36.278Z</time>
      </trkpt>
      <trkpt lat="45.95814" lon="6.85575">
        <ele>2443</ele>
        <time>2026-08-04T08:32:37.278Z</time>
      </trkpt>
      <trkpt lat="45.95816" lon="6.85575">
        <ele>2443</ele>
        <time>2026-08-04T08:32:38.278Z</time>
      </trkpt>
      <trkpt lat="45.95817" lon="6.85575">
        <ele>2443</ele>
        <time>2026-08-04T08:32:39.278Z</time>
      </trkpt>
      <trkpt lat="45.95818" lon="6.85576">
        <ele>2443</ele>
        <time>2026-08-04T08:32:40.278Z</time>
      </trkpt>
      <trkpt lat="45.9582" lon="6.85577">
        <ele>2443</ele>
        <time>2026-08-04T08:32:41.278Z</time>
      </trkpt>
      <trkpt lat="45.9582" lon="6.85577">
        <ele>2443</ele>
        <time>2026-08-04T08:32:42.278Z</time>
      </trkpt>
      <trkpt lat="45.95822" lon="6.85578">
        <ele>2443</ele>
        <time>2026-08-04T08:32:43.278Z</time>
      </trkpt>
      <trkpt lat="45.95823" lon="6.85579">
        <ele>2443</ele>
        <time>2026-08-04T08:32:44.278Z</time>
      </trkpt>
      <trkpt lat="45.95823" lon="6.8558">
        <ele>2443</ele>
        <time>2026-08-04T08:32:45.278Z</time>
      </trkpt>
      <trkpt lat="45.95823" lon="6.85581">
        <ele>2443</ele>
        <time>2026-08-04T08:32:46.278Z</time>
      </trkpt>
      <trkpt lat="45.95824" lon="6.85582">
        <ele>2443</ele>
        <time>2026-08-04T08:32:47.278Z</time>
      </trkpt>
      <trkpt lat="45.95825" lon="6.85584">
        <ele>2443</ele>
        <time>2026-08-04T08:32:48.278Z</time>
      </trkpt>
      <trkpt lat="45.95825" lon="6.85584">
        <ele>2444</ele>
        <time>2026-08-04T08:32:49.278Z</time>
      </trkpt>
      <trkpt lat="45.95827" lon="6.85586">
        <ele>2444</ele>
        <time>2026-08-04T08:32:50.278Z</time>
      </trkpt>
      <trkpt lat="45.95827" lon="6.85587">
        <ele>2444</ele>
        <time>2026-08-04T08:32:51.278Z</time>
      </trkpt>
      <trkpt lat="45.95827" lon="6.85587">
        <ele>2444</ele>
        <time>2026-08-04T08:32:52.278Z</time>
      </trkpt>
      <trkpt lat="45.95827" lon="6.85588">
        <ele>2444</ele>
        <time>2026-08-04T08:32:53.278Z</time>
      </trkpt>
      <trkpt lat="45.95827" lon="6.85588">
        <ele>2444</ele>
        <time>2026-08-04T08:32:54.278Z</time>
      </trkpt>
      <trkpt lat="45.95828" lon="6.85588">
        <ele>2444</ele>
        <time>2026-08-04T08:32:55.278Z</time>
      </trkpt>
      <trkpt lat="45.95829" lon="6.85589">
        <ele>2444</ele>
        <time>2026-08-04T08:32:56.278Z</time>
      </trkpt>
      <trkpt lat="45.95829" lon="6.85589">
        <ele>2445</ele>
        <time>2026-08-04T08:32:57.278Z</time>
      </trkpt>
      <trkpt lat="45.9583" lon="6.8559">
        <ele>2445</ele>
        <time>2026-08-04T08:32:58.278Z</time>
      </trkpt>
      <trkpt lat="45.95831" lon="6.8559">
        <ele>2445</ele>
        <time>2026-08-04T08:32:59.278Z</time>
      </trkpt>
      <trkpt lat="45.95832" lon="6.85591">
        <ele>2445</ele>
        <time>2026-08-04T08:33:00.278Z</time>
      </trkpt>
      <trkpt lat="45.95833" lon="6.85592">
        <ele>2445</ele>
        <time>2026-08-04T08:33:01.278Z</time>
      </trkpt>
      <trkpt lat="45.95833" lon="6.85593">
        <ele>2446</ele>
        <time>2026-08-04T08:33:02.278Z</time>
      </trkpt>
      <trkpt lat="45.95834" lon="6.85594">
        <ele>2446</ele>
        <time>2026-08-04T08:33:03.278Z</time>
      </trkpt>
      <trkpt lat="45.95834" lon="6.85596">
        <ele>2446</ele>
        <time>2026-08-04T08:33:04.278Z</time>
      </trkpt>
      <trkpt lat="45.95835" lon="6.85597">
        <ele>2447</ele>
        <time>2026-08-04T08:33:05.278Z</time>
      </trkpt>
      <trkpt lat="45.95836" lon="6.85598">
        <ele>2447</ele>
        <time>2026-08-04T08:33:06.278Z</time>
      </trkpt>
      <trkpt lat="45.95837" lon="6.85599">
        <ele>2447</ele>
        <time>2026-08-04T08:33:07.278Z</time>
      </trkpt>
      <trkpt lat="45.95838" lon="6.85599">
        <ele>2448</ele>
        <time>2026-08-04T08:33:08.278Z</time>
      </trkpt>
      <trkpt lat="45.95838" lon="6.856">
        <ele>2448</ele>
        <time>2026-08-04T08:33:09.278Z</time>
      </trkpt>
      <trkpt lat="45.95839" lon="6.85602">
        <ele>2447</ele>
        <time>2026-08-04T08:33:10.278Z</time>
      </trkpt>
      <trkpt lat="45.95839" lon="6.85603">
        <ele>2447</ele>
        <time>2026-08-04T08:33:11.278Z</time>
      </trkpt>
      <trkpt lat="45.9584" lon="6.85604">
        <ele>2447</ele>
        <time>2026-08-04T08:33:12.278Z</time>
      </trkpt>
      <trkpt lat="45.9584" lon="6.85605">
        <ele>2447</ele>
        <time>2026-08-04T08:33:13.278Z</time>
      </trkpt>
      <trkpt lat="45.9584" lon="6.85606">
        <ele>2447</ele>
        <time>2026-08-04T08:33:14.278Z</time>
      </trkpt>
      <trkpt lat="45.9584" lon="6.85606">
        <ele>2447</ele>
        <time>2026-08-04T08:33:15.278Z</time>
      </trkpt>
      <trkpt lat="45.9584" lon="6.85606">
        <ele>2447</ele>
        <time>2026-08-04T08:33:16.278Z</time>
      </trkpt>
      <trkpt lat="45.9584" lon="6.85607">
        <ele>2447</ele>
        <time>2026-08-04T08:33:17.278Z</time>
      </trkpt>
      <trkpt lat="45.9584" lon="6.85607">
        <ele>2448</ele>
        <time>2026-08-04T08:33:18.278Z</time>
      </trkpt>
      <trkpt lat="45.9584" lon="6.85608">
        <ele>2448</ele>
        <time>2026-08-04T08:33:19.278Z</time>
      </trkpt>
      <trkpt lat="45.95841" lon="6.85608">
        <ele>2448</ele>
        <time>2026-08-04T08:33:20.278Z</time>
      </trkpt>
      <trkpt lat="45.95842" lon="6.85609">
        <ele>2448</ele>
        <time>2026-08-04T08:33:21.278Z</time>
      </trkpt>
      <trkpt lat="45.95843" lon="6.85609">
        <ele>2449</ele>
        <time>2026-08-04T08:33:22.278Z</time>
      </trkpt>
      <trkpt lat="45.95844" lon="6.8561">
        <ele>2449</ele>
        <time>2026-08-04T08:33:23.278Z</time>
      </trkpt>
      <trkpt lat="45.95845" lon="6.85611">
        <ele>2449</ele>
        <time>2026-08-04T08:33:24.278Z</time>
      </trkpt>
      <trkpt lat="45.95846" lon="6.85612">
        <ele>2448</ele>
        <time>2026-08-04T08:33:25.278Z</time>
      </trkpt>
      <trkpt lat="45.95847" lon="6.85613">
        <ele>2449</ele>
        <time>2026-08-04T08:33:26.278Z</time>
      </trkpt>
      <trkpt lat="45.95848" lon="6.85613">
        <ele>2449</ele>
        <time>2026-08-04T08:33:27.278Z</time>
      </trkpt>
      <trkpt lat="45.95849" lon="6.85614">
        <ele>2449</ele>
        <time>2026-08-04T08:33:28.278Z</time>
      </trkpt>
      <trkpt lat="45.9585" lon="6.85615">
        <ele>2449</ele>
        <time>2026-08-04T08:33:29.279Z</time>
      </trkpt>
      <trkpt lat="45.95851" lon="6.85616">
        <ele>2450</ele>
        <time>2026-08-04T08:33:30.278Z</time>
      </trkpt>
      <trkpt lat="45.95851" lon="6.85616">
        <ele>2450</ele>
        <time>2026-08-04T08:33:31.278Z</time>
      </trkpt>
      <trkpt lat="45.95852" lon="6.85617">
        <ele>2450</ele>
        <time>2026-08-04T08:33:32.278Z</time>
      </trkpt>
      <trkpt lat="45.95852" lon="6.85618">
        <ele>2450</ele>
        <time>2026-08-04T08:33:33.278Z</time>
      </trkpt>
      <trkpt lat="45.95853" lon="6.85619">
        <ele>2450</ele>
        <time>2026-08-04T08:33:34.278Z</time>
      </trkpt>
      <trkpt lat="45.95853" lon="6.85619">
        <ele>2450</ele>
        <time>2026-08-04T08:33:35.278Z</time>
      </trkpt>
      <trkpt lat="45.95854" lon="6.8562">
        <ele>2450</ele>
        <time>2026-08-04T08:33:36.278Z</time>
      </trkpt>
      <trkpt lat="45.95855" lon="6.85621">
        <ele>2450</ele>
        <time>2026-08-04T08:33:37.278Z</time>
      </trkpt>
      <trkpt lat="45.95855" lon="6.85621">
        <ele>2450</ele>
        <time>2026-08-04T08:33:38.278Z</time>
      </trkpt>
      <trkpt lat="45.95856" lon="6.85622">
        <ele>2450</ele>
        <time>2026-08-04T08:33:39.278Z</time>
      </trkpt>
      <trkpt lat="45.95856" lon="6.85622">
        <ele>2450</ele>
        <time>2026-08-04T08:33:40.278Z</time>
      </trkpt>
      <trkpt lat="45.95856" lon="6.85623">
        <ele>2450</ele>
        <time>2026-08-04T08:33:41.278Z</time>
      </trkpt>
      <trkpt lat="45.95857" lon="6.85623">
        <ele>2450</ele>
        <time>2026-08-04T08:33:42.278Z</time>
      </trkpt>
      <trkpt lat="45.95857" lon="6.85623">
        <ele>2450</ele>
        <time>2026-08-04T08:33:43.278Z</time>
      </trkpt>
      <trkpt lat="45.95858" lon="6.85624">
        <ele>2450</ele>
        <time>2026-08-04T08:33:44.278Z</time>
      </trkpt>
      <trkpt lat="45.95858" lon="6.85624">
        <ele>2450</ele>
        <time>2026-08-04T08:33:45.278Z</time>
      </trkpt>
      <trkpt lat="45.95858" lon="6.85625">
        <ele>2450</ele>
        <time>2026-08-04T08:33:46.278Z</time>
      </trkpt>
      <trkpt lat="45.95859" lon="6.85625">
        <ele>2450</ele>
        <time>2026-08-04T08:33:47.278Z</time>
      </trkpt>
      <trkpt lat="45.95859" lon="6.85626">
        <ele>2450</ele>
        <time>2026-08-04T08:33:48.278Z</time>
      </trkpt>
      <trkpt lat="45.95859" lon="6.85626">
        <ele>2451</ele>
        <time>2026-08-04T08:33:49.278Z</time>
      </trkpt>
      <trkpt lat="45.9586" lon="6.85627">
        <ele>2451</ele>
        <time>2026-08-04T08:33:50.278Z</time>
      </trkpt>
      <trkpt lat="45.9586" lon="6.85627">
        <ele>2451</ele>
        <time>2026-08-04T08:33:51.278Z</time>
      </trkpt>
      <trkpt lat="45.9586" lon="6.85628">
        <ele>2451</ele>
        <time>2026-08-04T08:33:52.278Z</time>
      </trkpt>
      <trkpt lat="45.95861" lon="6.85629">
        <ele>2450</ele>
        <time>2026-08-04T08:33:53.278Z</time>
      </trkpt>
      <trkpt lat="45.95861" lon="6.8563">
        <ele>2450</ele>
        <time>2026-08-04T08:33:54.278Z</time>
      </trkpt>
      <trkpt lat="45.95862" lon="6.8563">
        <ele>2450</ele>
        <time>2026-08-04T08:33:55.278Z</time>
      </trkpt>
      <trkpt lat="45.95863" lon="6.85631">
        <ele>2450</ele>
        <time>2026-08-04T08:33:56.278Z</time>
      </trkpt>
      <trkpt lat="45.95863" lon="6.85633">
        <ele>2450</ele>
        <time>2026-08-04T08:33:57.278Z</time>
      </trkpt>
      <trkpt lat="45.95864" lon="6.85634">
        <ele>2450</ele>
        <time>2026-08-04T08:33:58.278Z</time>
      </trkpt>
      <trkpt lat="45.95865" lon="6.85634">
        <ele>2450</ele>
        <time>2026-08-04T08:33:59.278Z</time>
      </trkpt>
      <trkpt lat="45.95866" lon="6.85635">
        <ele>2450</ele>
        <time>2026-08-04T08:34:00.278Z</time>
      </trkpt>
      <trkpt lat="45.95867" lon="6.85636">
        <ele>2450</ele>
        <time>2026-08-04T08:34:01.278Z</time>
      </trkpt>
      <trkpt lat="45.95868" lon="6.85636">
        <ele>2450</ele>
        <time>2026-08-04T08:34:02.278Z</time>
      </trkpt>
      <trkpt lat="45.95869" lon="6.85637">
        <ele>2451</ele>
        <time>2026-08-04T08:34:03.278Z</time>
      </trkpt>
      <trkpt lat="45.95869" lon="6.85638">
        <ele>2451</ele>
        <time>2026-08-04T08:34:04.278Z</time>
      </trkpt>
      <trkpt lat="45.9587" lon="6.85639">
        <ele>2451</ele>
        <time>2026-08-04T08:34:05.278Z</time>
      </trkpt>
      <trkpt lat="45.9587" lon="6.85641">
        <ele>2451</ele>
        <time>2026-08-04T08:34:06.278Z</time>
      </trkpt>
      <trkpt lat="45.95871" lon="6.85642">
        <ele>2451</ele>
        <time>2026-08-04T08:34:07.278Z</time>
      </trkpt>
      <trkpt lat="45.95871" lon="6.85642">
        <ele>2451</ele>
        <time>2026-08-04T08:34:08.278Z</time>
      </trkpt>
      <trkpt lat="45.95872" lon="6.85643">
        <ele>2451</ele>
        <time>2026-08-04T08:34:09.278Z</time>
      </trkpt>
      <trkpt lat="45.95873" lon="6.85644">
        <ele>2451</ele>
        <time>2026-08-04T08:34:10.278Z</time>
      </trkpt>
      <trkpt lat="45.95874" lon="6.85644">
        <ele>2451</ele>
        <time>2026-08-04T08:34:11.278Z</time>
      </trkpt>
      <trkpt lat="45.95876" lon="6.85646">
        <ele>2451</ele>
        <time>2026-08-04T08:34:12.278Z</time>
      </trkpt>
      <trkpt lat="45.95877" lon="6.85646">
        <ele>2451</ele>
        <time>2026-08-04T08:34:13.278Z</time>
      </trkpt>
      <trkpt lat="45.95877" lon="6.85647">
        <ele>2451</ele>
        <time>2026-08-04T08:34:14.278Z</time>
      </trkpt>
      <trkpt lat="45.95878" lon="6.85648">
        <ele>2452</ele>
        <time>2026-08-04T08:34:15.278Z</time>
      </trkpt>
      <trkpt lat="45.95878" lon="6.85648">
        <ele>2452</ele>
        <time>2026-08-04T08:34:16.278Z</time>
      </trkpt>
      <trkpt lat="45.95879" lon="6.85649">
        <ele>2452</ele>
        <time>2026-08-04T08:34:17.278Z</time>
      </trkpt>
      <trkpt lat="45.9588" lon="6.8565">
        <ele>2452</ele>
        <time>2026-08-04T08:34:18.278Z</time>
      </trkpt>
      <trkpt lat="45.9588" lon="6.85651">
        <ele>2451</ele>
        <time>2026-08-04T08:34:19.278Z</time>
      </trkpt>
      <trkpt lat="45.95881" lon="6.85653">
        <ele>2451</ele>
        <time>2026-08-04T08:34:20.278Z</time>
      </trkpt>
      <trkpt lat="45.95881" lon="6.85654">
        <ele>2451</ele>
        <time>2026-08-04T08:34:21.278Z</time>
      </trkpt>
      <trkpt lat="45.95881" lon="6.85655">
        <ele>2451</ele>
        <time>2026-08-04T08:34:22.278Z</time>
      </trkpt>
      <trkpt lat="45.95881" lon="6.85656">
        <ele>2451</ele>
        <time>2026-08-04T08:34:23.278Z</time>
      </trkpt>
      <trkpt lat="45.95881" lon="6.85656">
        <ele>2451</ele>
        <time>2026-08-04T08:34:24.278Z</time>
      </trkpt>
      <trkpt lat="45.95882" lon="6.85657">
        <ele>2451</ele>
        <time>2026-08-04T08:34:25.278Z</time>
      </trkpt>
      <trkpt lat="45.95883" lon="6.85658">
        <ele>2452</ele>
        <time>2026-08-04T08:34:26.278Z</time>
      </trkpt>
      <trkpt lat="45.95883" lon="6.85658">
        <ele>2452</ele>
        <time>2026-08-04T08:34:27.278Z</time>
      </trkpt>
      <trkpt lat="45.95884" lon="6.85659">
        <ele>2453</ele>
        <time>2026-08-04T08:34:28.278Z</time>
      </trkpt>
      <trkpt lat="45.95885" lon="6.85659">
        <ele>2453</ele>
        <time>2026-08-04T08:34:29.278Z</time>
      </trkpt>
      <trkpt lat="45.95885" lon="6.8566">
        <ele>2453</ele>
        <time>2026-08-04T08:34:30.278Z</time>
      </trkpt>
      <trkpt lat="45.95886" lon="6.8566">
        <ele>2453</ele>
        <time>2026-08-04T08:34:31.278Z</time>
      </trkpt>
      <trkpt lat="45.95886" lon="6.85661">
        <ele>2453</ele>
        <time>2026-08-04T08:34:32.278Z</time>
      </trkpt>
      <trkpt lat="45.95887" lon="6.85662">
        <ele>2454</ele>
        <time>2026-08-04T08:34:33.278Z</time>
      </trkpt>
      <trkpt lat="45.95887" lon="6.85662">
        <ele>2453</ele>
        <time>2026-08-04T08:34:34.278Z</time>
      </trkpt>
      <trkpt lat="45.95888" lon="6.85663">
        <ele>2454</ele>
        <time>2026-08-04T08:34:35.278Z</time>
      </trkpt>
      <trkpt lat="45.95888" lon="6.85664">
        <ele>2454</ele>
        <time>2026-08-04T08:34:36.278Z</time>
      </trkpt>
      <trkpt lat="45.95889" lon="6.85665">
        <ele>2454</ele>
        <time>2026-08-04T08:34:37.278Z</time>
      </trkpt>
      <trkpt lat="45.95889" lon="6.85666">
        <ele>2454</ele>
        <time>2026-08-04T08:34:38.278Z</time>
      </trkpt>
      <trkpt lat="45.9589" lon="6.85668">
        <ele>2455</ele>
        <time>2026-08-04T08:34:39.278Z</time>
      </trkpt>
      <trkpt lat="45.9589" lon="6.85669">
        <ele>2455</ele>
        <time>2026-08-04T08:34:40.278Z</time>
      </trkpt>
      <trkpt lat="45.95891" lon="6.8567">
        <ele>2456</ele>
        <time>2026-08-04T08:34:41.278Z</time>
      </trkpt>
      <trkpt lat="45.95892" lon="6.85671">
        <ele>2456</ele>
        <time>2026-08-04T08:34:42.278Z</time>
      </trkpt>
      <trkpt lat="45.95893" lon="6.85672">
        <ele>2456</ele>
        <time>2026-08-04T08:34:43.278Z</time>
      </trkpt>
      <trkpt lat="45.95893" lon="6.85673">
        <ele>2457</ele>
        <time>2026-08-04T08:34:44.278Z</time>
      </trkpt>
      <trkpt lat="45.95894" lon="6.85674">
        <ele>2457</ele>
        <time>2026-08-04T08:34:45.278Z</time>
      </trkpt>
      <trkpt lat="45.95894" lon="6.85675">
        <ele>2457</ele>
        <time>2026-08-04T08:34:46.278Z</time>
      </trkpt>
      <trkpt lat="45.95895" lon="6.85676">
        <ele>2457</ele>
        <time>2026-08-04T08:34:47.278Z</time>
      </trkpt>
      <trkpt lat="45.95896" lon="6.85677">
        <ele>2457</ele>
        <time>2026-08-04T08:34:48.278Z</time>
      </trkpt>
      <trkpt lat="45.95896" lon="6.85678">
        <ele>2457</ele>
        <time>2026-08-04T08:34:49.278Z</time>
      </trkpt>
      <trkpt lat="45.95897" lon="6.8568">
        <ele>2458</ele>
        <time>2026-08-04T08:34:50.278Z</time>
      </trkpt>
      <trkpt lat="45.95897" lon="6.85681">
        <ele>2458</ele>
        <time>2026-08-04T08:34:51.278Z</time>
      </trkpt>
      <trkpt lat="45.95898" lon="6.85682">
        <ele>2458</ele>
        <time>2026-08-04T08:34:52.278Z</time>
      </trkpt>
      <trkpt lat="45.95898" lon="6.85683">
        <ele>2458</ele>
        <time>2026-08-04T08:34:53.278Z</time>
      </trkpt>
      <trkpt lat="45.95899" lon="6.85684">
        <ele>2458</ele>
        <time>2026-08-04T08:34:54.278Z</time>
      </trkpt>
      <trkpt lat="45.959" lon="6.85684">
        <ele>2458</ele>
        <time>2026-08-04T08:34:55.278Z</time>
      </trkpt>
      <trkpt lat="45.95901" lon="6.85685">
        <ele>2458</ele>
        <time>2026-08-04T08:34:56.278Z</time>
      </trkpt>
      <trkpt lat="45.95902" lon="6.85686">
        <ele>2459</ele>
        <time>2026-08-04T08:34:57.278Z</time>
      </trkpt>
      <trkpt lat="45.95902" lon="6.85686">
        <ele>2459</ele>
        <time>2026-08-04T08:34:58.278Z</time>
      </trkpt>
      <trkpt lat="45.95903" lon="6.85686">
        <ele>2459</ele>
        <time>2026-08-04T08:34:59.278Z</time>
      </trkpt>
      <trkpt lat="45.95903" lon="6.85686">
        <ele>2459</ele>
        <time>2026-08-04T08:35:00.278Z</time>
      </trkpt>
      <trkpt lat="45.95904" lon="6.85687">
        <ele>2460</ele>
        <time>2026-08-04T08:35:01.278Z</time>
      </trkpt>
      <trkpt lat="45.95904" lon="6.85688">
        <ele>2460</ele>
        <time>2026-08-04T08:35:02.278Z</time>
      </trkpt>
      <trkpt lat="45.95905" lon="6.85689">
        <ele>2460</ele>
        <time>2026-08-04T08:35:03.278Z</time>
      </trkpt>
      <trkpt lat="45.95905" lon="6.85689">
        <ele>2461</ele>
        <time>2026-08-04T08:35:04.278Z</time>
      </trkpt>
      <trkpt lat="45.95906" lon="6.85691">
        <ele>2461</ele>
        <time>2026-08-04T08:35:05.278Z</time>
      </trkpt>
      <trkpt lat="45.95906" lon="6.85692">
        <ele>2461</ele>
        <time>2026-08-04T08:35:06.278Z</time>
      </trkpt>
      <trkpt lat="45.95906" lon="6.85694">
        <ele>2460</ele>
        <time>2026-08-04T08:35:07.278Z</time>
      </trkpt>
      <trkpt lat="45.95907" lon="6.85695">
        <ele>2460</ele>
        <time>2026-08-04T08:35:08.278Z</time>
      </trkpt>
      <trkpt lat="45.95908" lon="6.85696">
        <ele>2460</ele>
        <time>2026-08-04T08:35:09.278Z</time>
      </trkpt>
      <trkpt lat="45.95908" lon="6.85697">
        <ele>2460</ele>
        <time>2026-08-04T08:35:10.278Z</time>
      </trkpt>
      <trkpt lat="45.95909" lon="6.85698">
        <ele>2460</ele>
        <time>2026-08-04T08:35:11.278Z</time>
      </trkpt>
      <trkpt lat="45.9591" lon="6.85699">
        <ele>2460</ele>
        <time>2026-08-04T08:35:12.278Z</time>
      </trkpt>
      <trkpt lat="45.95911" lon="6.857">
        <ele>2460</ele>
        <time>2026-08-04T08:35:13.278Z</time>
      </trkpt>
      <trkpt lat="45.95912" lon="6.857">
        <ele>2460</ele>
        <time>2026-08-04T08:35:14.278Z</time>
      </trkpt>
      <trkpt lat="45.95913" lon="6.85701">
        <ele>2460</ele>
        <time>2026-08-04T08:35:15.278Z</time>
      </trkpt>
      <trkpt lat="45.95915" lon="6.85703">
        <ele>2460</ele>
        <time>2026-08-04T08:35:16.278Z</time>
      </trkpt>
      <trkpt lat="45.95917" lon="6.85705">
        <ele>2460</ele>
        <time>2026-08-04T08:35:17.278Z</time>
      </trkpt>
      <trkpt lat="45.95918" lon="6.85706">
        <ele>2460</ele>
        <time>2026-08-04T08:35:18.278Z</time>
      </trkpt>
      <trkpt lat="45.9592" lon="6.85708">
        <ele>2460</ele>
        <time>2026-08-04T08:35:19.278Z</time>
      </trkpt>
      <trkpt lat="45.95922" lon="6.8571">
        <ele>2460</ele>
        <time>2026-08-04T08:35:20.278Z</time>
      </trkpt>
      <trkpt lat="45.95923" lon="6.85712">
        <ele>2460</ele>
        <time>2026-08-04T08:35:21.278Z</time>
      </trkpt>
      <trkpt lat="45.95925" lon="6.85713">
        <ele>2460</ele>
        <time>2026-08-04T08:35:22.278Z</time>
      </trkpt>
      <trkpt lat="45.95926" lon="6.85715">
        <ele>2460</ele>
        <time>2026-08-04T08:35:23.278Z</time>
      </trkpt>
      <trkpt lat="45.95927" lon="6.85716">
        <ele>2460</ele>
        <time>2026-08-04T08:35:24.278Z</time>
      </trkpt>
      <trkpt lat="45.95927" lon="6.85718">
        <ele>2460</ele>
        <time>2026-08-04T08:35:25.278Z</time>
      </trkpt>
      <trkpt lat="45.95928" lon="6.85719">
        <ele>2461</ele>
        <time>2026-08-04T08:35:26.278Z</time>
      </trkpt>
      <trkpt lat="45.95928" lon="6.85719">
        <ele>2461</ele>
        <time>2026-08-04T08:35:27.278Z</time>
      </trkpt>
      <trkpt lat="45.95929" lon="6.8572">
        <ele>2461</ele>
        <time>2026-08-04T08:35:28.278Z</time>
      </trkpt>
      <trkpt lat="45.9593" lon="6.8572">
        <ele>2462</ele>
        <time>2026-08-04T08:35:29.278Z</time>
      </trkpt>
      <trkpt lat="45.95931" lon="6.85721">
        <ele>2462</ele>
        <time>2026-08-04T08:35:30.278Z</time>
      </trkpt>
      <trkpt lat="45.95933" lon="6.85721">
        <ele>2462</ele>
        <time>2026-08-04T08:35:31.278Z</time>
      </trkpt>
      <trkpt lat="45.95934" lon="6.85722">
        <ele>2462</ele>
        <time>2026-08-04T08:35:32.278Z</time>
      </trkpt>
      <trkpt lat="45.95936" lon="6.85722">
        <ele>2463</ele>
        <time>2026-08-04T08:35:33.278Z</time>
      </trkpt>
      <trkpt lat="45.95937" lon="6.85722">
        <ele>2463</ele>
        <time>2026-08-04T08:35:34.278Z</time>
      </trkpt>
      <trkpt lat="45.95938" lon="6.85722">
        <ele>2463</ele>
        <time>2026-08-04T08:35:35.278Z</time>
      </trkpt>
      <trkpt lat="45.9594" lon="6.85722">
        <ele>2463</ele>
        <time>2026-08-04T08:35:36.278Z</time>
      </trkpt>
      <trkpt lat="45.95941" lon="6.85722">
        <ele>2463</ele>
        <time>2026-08-04T08:35:37.278Z</time>
      </trkpt>
      <trkpt lat="45.95942" lon="6.85722">
        <ele>2463</ele>
        <time>2026-08-04T08:35:38.278Z</time>
      </trkpt>
      <trkpt lat="45.95943" lon="6.85721">
        <ele>2463</ele>
        <time>2026-08-04T08:35:39.278Z</time>
      </trkpt>
      <trkpt lat="45.95944" lon="6.8572">
        <ele>2463</ele>
        <time>2026-08-04T08:35:40.278Z</time>
      </trkpt>
      <trkpt lat="45.95945" lon="6.85719">
        <ele>2463</ele>
        <time>2026-08-04T08:35:41.278Z</time>
      </trkpt>
      <trkpt lat="45.95946" lon="6.8572">
        <ele>2464</ele>
        <time>2026-08-04T08:35:42.278Z</time>
      </trkpt>
      <trkpt lat="45.95947" lon="6.8572">
        <ele>2464</ele>
        <time>2026-08-04T08:35:43.278Z</time>
      </trkpt>
      <trkpt lat="45.95949" lon="6.85721">
        <ele>2464</ele>
        <time>2026-08-04T08:35:44.278Z</time>
      </trkpt>
      <trkpt lat="45.95949" lon="6.85721">
        <ele>2464</ele>
        <time>2026-08-04T08:35:45.279Z</time>
      </trkpt>
      <trkpt lat="45.9595" lon="6.85721">
        <ele>2464</ele>
        <time>2026-08-04T08:35:46.278Z</time>
      </trkpt>
      <trkpt lat="45.9595" lon="6.85721">
        <ele>2464</ele>
        <time>2026-08-04T08:35:47.278Z</time>
      </trkpt>
      <trkpt lat="45.95952" lon="6.85722">
        <ele>2464</ele>
        <time>2026-08-04T08:35:48.278Z</time>
      </trkpt>
      <trkpt lat="45.95953" lon="6.85722">
        <ele>2464</ele>
        <time>2026-08-04T08:35:49.278Z</time>
      </trkpt>
      <trkpt lat="45.95954" lon="6.85723">
        <ele>2464</ele>
        <time>2026-08-04T08:35:50.278Z</time>
      </trkpt>
      <trkpt lat="45.95955" lon="6.85723">
        <ele>2464</ele>
        <time>2026-08-04T08:35:51.278Z</time>
      </trkpt>
      <trkpt lat="45.95957" lon="6.85723">
        <ele>2463</ele>
        <time>2026-08-04T08:35:52.278Z</time>
      </trkpt>
      <trkpt lat="45.95959" lon="6.85724">
        <ele>2463</ele>
        <time>2026-08-04T08:35:53.278Z</time>
      </trkpt>
      <trkpt lat="45.95961" lon="6.85724">
        <ele>2463</ele>
        <time>2026-08-04T08:35:54.278Z</time>
      </trkpt>
      <trkpt lat="45.95962" lon="6.85725">
        <ele>2463</ele>
        <time>2026-08-04T08:35:55.278Z</time>
      </trkpt>
      <trkpt lat="45.95964" lon="6.85725">
        <ele>2463</ele>
        <time>2026-08-04T08:35:56.278Z</time>
      </trkpt>
      <trkpt lat="45.95966" lon="6.85725">
        <ele>2463</ele>
        <time>2026-08-04T08:35:57.278Z</time>
      </trkpt>
      <trkpt lat="45.95967" lon="6.85726">
        <ele>2463</ele>
        <time>2026-08-04T08:35:58.278Z</time>
      </trkpt>
      <trkpt lat="45.95967" lon="6.85726">
        <ele>2463</ele>
        <time>2026-08-04T08:35:59.278Z</time>
      </trkpt>
      <trkpt lat="45.95968" lon="6.85726">
        <ele>2462</ele>
        <time>2026-08-04T08:36:00.278Z</time>
      </trkpt>
      <trkpt lat="45.95969" lon="6.85727">
        <ele>2462</ele>
        <time>2026-08-04T08:36:01.278Z</time>
      </trkpt>
      <trkpt lat="45.9597" lon="6.85727">
        <ele>2463</ele>
        <time>2026-08-04T08:36:02.278Z</time>
      </trkpt>
      <trkpt lat="45.95971" lon="6.85726">
        <ele>2463</ele>
        <time>2026-08-04T08:36:03.278Z</time>
      </trkpt>
      <trkpt lat="45.95973" lon="6.85727">
        <ele>2463</ele>
        <time>2026-08-04T08:36:04.278Z</time>
      </trkpt>
      <trkpt lat="45.95974" lon="6.85727">
        <ele>2463</ele>
        <time>2026-08-04T08:36:05.278Z</time>
      </trkpt>
      <trkpt lat="45.95975" lon="6.85728">
        <ele>2463</ele>
        <time>2026-08-04T08:36:06.278Z</time>
      </trkpt>
      <trkpt lat="45.95977" lon="6.85729">
        <ele>2463</ele>
        <time>2026-08-04T08:36:07.278Z</time>
      </trkpt>
      <trkpt lat="45.95978" lon="6.8573">
        <ele>2463</ele>
        <time>2026-08-04T08:36:08.278Z</time>
      </trkpt>
      <trkpt lat="45.95979" lon="6.8573">
        <ele>2463</ele>
        <time>2026-08-04T08:36:09.278Z</time>
      </trkpt>
      <trkpt lat="45.9598" lon="6.85731">
        <ele>2463</ele>
        <time>2026-08-04T08:36:10.278Z</time>
      </trkpt>
      <trkpt lat="45.95981" lon="6.85731">
        <ele>2463</ele>
        <time>2026-08-04T08:36:11.278Z</time>
      </trkpt>
      <trkpt lat="45.95983" lon="6.85731">
        <ele>2463</ele>
        <time>2026-08-04T08:36:12.278Z</time>
      </trkpt>
      <trkpt lat="45.95984" lon="6.85731">
        <ele>2463</ele>
        <time>2026-08-04T08:36:13.278Z</time>
      </trkpt>
      <trkpt lat="45.95985" lon="6.85731">
        <ele>2463</ele>
        <time>2026-08-04T08:36:14.278Z</time>
      </trkpt>
      <trkpt lat="45.95986" lon="6.85731">
        <ele>2463</ele>
        <time>2026-08-04T08:36:15.278Z</time>
      </trkpt>
      <trkpt lat="45.95987" lon="6.85731">
        <ele>2463</ele>
        <time>2026-08-04T08:36:16.278Z</time>
      </trkpt>
      <trkpt lat="45.95988" lon="6.85731">
        <ele>2463</ele>
        <time>2026-08-04T08:36:17.278Z</time>
      </trkpt>
      <trkpt lat="45.95988" lon="6.85731">
        <ele>2463</ele>
        <time>2026-08-04T08:36:18.278Z</time>
      </trkpt>
      <trkpt lat="45.95989" lon="6.85731">
        <ele>2463</ele>
        <time>2026-08-04T08:36:19.278Z</time>
      </trkpt>
      <trkpt lat="45.95989" lon="6.85731">
        <ele>2463</ele>
        <time>2026-08-04T08:36:20.278Z</time>
      </trkpt>
      <trkpt lat="45.9599" lon="6.85731">
        <ele>2464</ele>
        <time>2026-08-04T08:36:21.278Z</time>
      </trkpt>
      <trkpt lat="45.95991" lon="6.85731">
        <ele>2464</ele>
        <time>2026-08-04T08:36:22.278Z</time>
      </trkpt>
      <trkpt lat="45.95991" lon="6.85731">
        <ele>2464</ele>
        <time>2026-08-04T08:36:23.278Z</time>
      </trkpt>
      <trkpt lat="45.95992" lon="6.85732">
        <ele>2464</ele>
        <time>2026-08-04T08:36:24.278Z</time>
      </trkpt>
      <trkpt lat="45.95992" lon="6.85732">
        <ele>2464</ele>
        <time>2026-08-04T08:36:25.278Z</time>
      </trkpt>
      <trkpt lat="45.95993" lon="6.85732">
        <ele>2463</ele>
        <time>2026-08-04T08:36:26.278Z</time>
      </trkpt>
      <trkpt lat="45.95993" lon="6.85732">
        <ele>2463</ele>
        <time>2026-08-04T08:36:27.278Z</time>
      </trkpt>
      <trkpt lat="45.95993" lon="6.85732">
        <ele>2463</ele>
        <time>2026-08-04T08:36:28.278Z</time>
      </trkpt>
      <trkpt lat="45.95993" lon="6.85732">
        <ele>2463</ele>
        <time>2026-08-04T08:36:29.278Z</time>
      </trkpt>
      <trkpt lat="45.95993" lon="6.85732">
        <ele>2463</ele>
        <time>2026-08-04T08:36:30.278Z</time>
      </trkpt>
      <trkpt lat="45.95994" lon="6.85732">
        <ele>2463</ele>
        <time>2026-08-04T08:36:31.278Z</time>
      </trkpt>
      <trkpt lat="45.95995" lon="6.85732">
        <ele>2463</ele>
        <time>2026-08-04T08:36:32.278Z</time>
      </trkpt>
      <trkpt lat="45.95996" lon="6.85731">
        <ele>2462</ele>
        <time>2026-08-04T08:36:33.278Z</time>
      </trkpt>
      <trkpt lat="45.95998" lon="6.85732">
        <ele>2462</ele>
        <time>2026-08-04T08:36:34.278Z</time>
      </trkpt>
      <trkpt lat="45.95999" lon="6.85732">
        <ele>2462</ele>
        <time>2026-08-04T08:36:35.278Z</time>
      </trkpt>
      <trkpt lat="45.96" lon="6.85732">
        <ele>2462</ele>
        <time>2026-08-04T08:36:36.278Z</time>
      </trkpt>
      <trkpt lat="45.96001" lon="6.85731">
        <ele>2462</ele>
        <time>2026-08-04T08:36:37.278Z</time>
      </trkpt>
      <trkpt lat="45.96003" lon="6.85732">
        <ele>2461</ele>
        <time>2026-08-04T08:36:38.278Z</time>
      </trkpt>
      <trkpt lat="45.96004" lon="6.85732">
        <ele>2461</ele>
        <time>2026-08-04T08:36:39.278Z</time>
      </trkpt>
      <trkpt lat="45.96007" lon="6.85732">
        <ele>2461</ele>
        <time>2026-08-04T08:36:40.278Z</time>
      </trkpt>
      <trkpt lat="45.96008" lon="6.85731">
        <ele>2461</ele>
        <time>2026-08-04T08:36:41.278Z</time>
      </trkpt>
      <trkpt lat="45.96009" lon="6.85731">
        <ele>2461</ele>
        <time>2026-08-04T08:36:42.278Z</time>
      </trkpt>
      <trkpt lat="45.9601" lon="6.85731">
        <ele>2461</ele>
        <time>2026-08-04T08:36:43.278Z</time>
      </trkpt>
      <trkpt lat="45.96011" lon="6.8573">
        <ele>2461</ele>
        <time>2026-08-04T08:36:44.278Z</time>
      </trkpt>
      <trkpt lat="45.96012" lon="6.8573">
        <ele>2461</ele>
        <time>2026-08-04T08:36:45.278Z</time>
      </trkpt>
      <trkpt lat="45.96013" lon="6.8573">
        <ele>2462</ele>
        <time>2026-08-04T08:36:46.278Z</time>
      </trkpt>
      <trkpt lat="45.96013" lon="6.85729">
        <ele>2462</ele>
        <time>2026-08-04T08:36:47.278Z</time>
      </trkpt>
      <trkpt lat="45.96014" lon="6.85729">
        <ele>2462</ele>
        <time>2026-08-04T08:36:48.278Z</time>
      </trkpt>
      <trkpt lat="45.96015" lon="6.85728">
        <ele>2461</ele>
        <time>2026-08-04T08:36:49.278Z</time>
      </trkpt>
      <trkpt lat="45.96016" lon="6.85728">
        <ele>2461</ele>
        <time>2026-08-04T08:36:50.278Z</time>
      </trkpt>
      <trkpt lat="45.96018" lon="6.85728">
        <ele>2461</ele>
        <time>2026-08-04T08:36:51.278Z</time>
      </trkpt>
      <trkpt lat="45.96018" lon="6.85727">
        <ele>2461</ele>
        <time>2026-08-04T08:36:52.278Z</time>
      </trkpt>
      <trkpt lat="45.96019" lon="6.85727">
        <ele>2461</ele>
        <time>2026-08-04T08:36:53.278Z</time>
      </trkpt>
      <trkpt lat="45.9602" lon="6.85726">
        <ele>2461</ele>
        <time>2026-08-04T08:36:54.278Z</time>
      </trkpt>
      <trkpt lat="45.96021" lon="6.85726">
        <ele>2461</ele>
        <time>2026-08-04T08:36:55.278Z</time>
      </trkpt>
      <trkpt lat="45.96021" lon="6.85726">
        <ele>2461</ele>
        <time>2026-08-04T08:36:56.278Z</time>
      </trkpt>
      <trkpt lat="45.96022" lon="6.85726">
        <ele>2462</ele>
        <time>2026-08-04T08:36:57.278Z</time>
      </trkpt>
      <trkpt lat="45.96022" lon="6.85727">
        <ele>2462</ele>
        <time>2026-08-04T08:36:58.278Z</time>
      </trkpt>
      <trkpt lat="45.96023" lon="6.85727">
        <ele>2462</ele>
        <time>2026-08-04T08:36:59.278Z</time>
      </trkpt>
      <trkpt lat="45.96024" lon="6.85726">
        <ele>2462</ele>
        <time>2026-08-04T08:37:00.278Z</time>
      </trkpt>
      <trkpt lat="45.96025" lon="6.85726">
        <ele>2462</ele>
        <time>2026-08-04T08:37:01.278Z</time>
      </trkpt>
      <trkpt lat="45.96026" lon="6.85726">
        <ele>2462</ele>
        <time>2026-08-04T08:37:02.278Z</time>
      </trkpt>
      <trkpt lat="45.96026" lon="6.85726">
        <ele>2462</ele>
        <time>2026-08-04T08:37:03.278Z</time>
      </trkpt>
      <trkpt lat="45.96026" lon="6.85726">
        <ele>2463</ele>
        <time>2026-08-04T08:37:04.278Z</time>
      </trkpt>
      <trkpt lat="45.96026" lon="6.85726">
        <ele>2463</ele>
        <time>2026-08-04T08:37:05.278Z</time>
      </trkpt>
      <trkpt lat="45.96026" lon="6.85725">
        <ele>2464</ele>
        <time>2026-08-04T08:37:06.278Z</time>
      </trkpt>
      <trkpt lat="45.96027" lon="6.85724">
        <ele>2464</ele>
        <time>2026-08-04T08:37:07.278Z</time>
      </trkpt>
      <trkpt lat="45.96028" lon="6.85724">
        <ele>2464</ele>
        <time>2026-08-04T08:37:08.278Z</time>
      </trkpt>
      <trkpt lat="45.96028" lon="6.85723">
        <ele>2464</ele>
        <time>2026-08-04T08:37:09.278Z</time>
      </trkpt>
      <trkpt lat="45.96029" lon="6.85724">
        <ele>2464</ele>
        <time>2026-08-04T08:37:10.278Z</time>
      </trkpt>
      <trkpt lat="45.96029" lon="6.85724">
        <ele>2464</ele>
        <time>2026-08-04T08:37:11.278Z</time>
      </trkpt>
      <trkpt lat="45.96029" lon="6.85724">
        <ele>2464</ele>
        <time>2026-08-04T08:37:12.278Z</time>
      </trkpt>
      <trkpt lat="45.96029" lon="6.85724">
        <ele>2464</ele>
        <time>2026-08-04T08:37:13.278Z</time>
      </trkpt>
      <trkpt lat="45.96029" lon="6.85724">
        <ele>2464</ele>
        <time>2026-08-04T08:37:14.278Z</time>
      </trkpt>
      <trkpt lat="45.96028" lon="6.85725">
        <ele>2464</ele>
        <time>2026-08-04T08:37:15.278Z</time>
      </trkpt>
      <trkpt lat="45.96028" lon="6.85725">
        <ele>2463</ele>
        <time>2026-08-04T08:37:16.278Z</time>
      </trkpt>
      <trkpt lat="45.96027" lon="6.85726">
        <ele>2463</ele>
        <time>2026-08-04T08:37:17.278Z</time>
      </trkpt>
      <trkpt lat="45.96027" lon="6.85726">
        <ele>2463</ele>
        <time>2026-08-04T08:37:18.278Z</time>
      </trkpt>
      <trkpt lat="45.96027" lon="6.85727">
        <ele>2463</ele>
        <time>2026-08-04T08:37:19.278Z</time>
      </trkpt>
      <trkpt lat="45.96027" lon="6.85727">
        <ele>2463</ele>
        <time>2026-08-04T08:37:20.278Z</time>
      </trkpt>
      <trkpt lat="45.96027" lon="6.85728">
        <ele>2463</ele>
        <time>2026-08-04T08:37:21.278Z</time>
      </trkpt>
      <trkpt lat="45.96026" lon="6.85728">
        <ele>2463</ele>
        <time>2026-08-04T08:37:22.278Z</time>
      </trkpt>
      <trkpt lat="45.96026" lon="6.85728">
        <ele>2463</ele>
        <time>2026-08-04T08:37:23.278Z</time>
      </trkpt>
      <trkpt lat="45.96026" lon="6.85728">
        <ele>2463</ele>
        <time>2026-08-04T08:37:24.278Z</time>
      </trkpt>
      <trkpt lat="45.96026" lon="6.85727">
        <ele>2463</ele>
        <time>2026-08-04T08:37:25.278Z</time>
      </trkpt>
      <trkpt lat="45.96026" lon="6.85726">
        <ele>2463</ele>
        <time>2026-08-04T08:37:26.278Z</time>
      </trkpt>
      <trkpt lat="45.96027" lon="6.85725">
        <ele>2463</ele>
        <time>2026-08-04T08:37:27.278Z</time>
      </trkpt>
      <trkpt lat="45.96028" lon="6.85725">
        <ele>2463</ele>
        <time>2026-08-04T08:37:28.278Z</time>
      </trkpt>
      <trkpt lat="45.96029" lon="6.85724">
        <ele>2464</ele>
        <time>2026-08-04T08:37:29.278Z</time>
      </trkpt>
      <trkpt lat="45.9603" lon="6.85724">
        <ele>2464</ele>
        <time>2026-08-04T08:37:30.278Z</time>
      </trkpt>
      <trkpt lat="45.9603" lon="6.85723">
        <ele>2464</ele>
        <time>2026-08-04T08:37:31.278Z</time>
      </trkpt>
      <trkpt lat="45.96031" lon="6.85723">
        <ele>2464</ele>
        <time>2026-08-04T08:37:32.278Z</time>
      </trkpt>
      <trkpt lat="45.96032" lon="6.85723">
        <ele>2464</ele>
        <time>2026-08-04T08:37:33.278Z</time>
      </trkpt>
      <trkpt lat="45.96032" lon="6.85722">
        <ele>2463</ele>
        <time>2026-08-04T08:37:34.278Z</time>
      </trkpt>
      <trkpt lat="45.96033" lon="6.85722">
        <ele>2464</ele>
        <time>2026-08-04T08:37:35.278Z</time>
      </trkpt>
      <trkpt lat="45.96033" lon="6.85721">
        <ele>2464</ele>
        <time>2026-08-04T08:37:36.278Z</time>
      </trkpt>
      <trkpt lat="45.96034" lon="6.85721">
        <ele>2464</ele>
        <time>2026-08-04T08:37:37.278Z</time>
      </trkpt>
      <trkpt lat="45.96034" lon="6.8572">
        <ele>2464</ele>
        <time>2026-08-04T08:37:38.278Z</time>
      </trkpt>
      <trkpt lat="45.96034" lon="6.8572">
        <ele>2464</ele>
        <time>2026-08-04T08:37:39.278Z</time>
      </trkpt>
      <trkpt lat="45.96035" lon="6.8572">
        <ele>2464</ele>
        <time>2026-08-04T08:37:40.278Z</time>
      </trkpt>
      <trkpt lat="45.96035" lon="6.8572">
        <ele>2465</ele>
        <time>2026-08-04T08:37:41.278Z</time>
      </trkpt>
      <trkpt lat="45.96035" lon="6.85719">
        <ele>2465</ele>
        <time>2026-08-04T08:37:42.278Z</time>
      </trkpt>
      <trkpt lat="45.96035" lon="6.85719">
        <ele>2465</ele>
        <time>2026-08-04T08:37:43.278Z</time>
      </trkpt>
      <trkpt lat="45.96035" lon="6.85719">
        <ele>2464</ele>
        <time>2026-08-04T08:37:44.278Z</time>
      </trkpt>
      <trkpt lat="45.96035" lon="6.85719">
        <ele>2464</ele>
        <time>2026-08-04T08:37:45.278Z</time>
      </trkpt>
      <trkpt lat="45.96035" lon="6.85719">
        <ele>2465</ele>
        <time>2026-08-04T08:37:46.278Z</time>
      </trkpt>
      <trkpt lat="45.96035" lon="6.85719">
        <ele>2465</ele>
        <time>2026-08-04T08:37:47.278Z</time>
      </trkpt>
      <trkpt lat="45.96035" lon="6.85719">
        <ele>2465</ele>
        <time>2026-08-04T08:37:48.278Z</time>
      </trkpt>
      <trkpt lat="45.96035" lon="6.85718">
        <ele>2465</ele>
        <time>2026-08-04T08:37:49.278Z</time>
      </trkpt>
      <trkpt lat="45.96035" lon="6.85718">
        <ele>2466</ele>
        <time>2026-08-04T08:37:50.278Z</time>
      </trkpt>
      <trkpt lat="45.96035" lon="6.85718">
        <ele>2466</ele>
        <time>2026-08-04T08:37:51.278Z</time>
      </trkpt>
      <trkpt lat="45.96036" lon="6.85718">
        <ele>2466</ele>
        <time>2026-08-04T08:37:52.278Z</time>
      </trkpt>
      <trkpt lat="45.96036" lon="6.85718">
        <ele>2466</ele>
        <time>2026-08-04T08:37:53.278Z</time>
      </trkpt>
      <trkpt lat="45.96036" lon="6.85718">
        <ele>2466</ele>
        <time>2026-08-04T08:37:54.278Z</time>
      </trkpt>
      <trkpt lat="45.96037" lon="6.85718">
        <ele>2466</ele>
        <time>2026-08-04T08:37:55.278Z</time>
      </trkpt>
      <trkpt lat="45.96037" lon="6.85717">
        <ele>2466</ele>
        <time>2026-08-04T08:37:56.278Z</time>
      </trkpt>
      <trkpt lat="45.96037" lon="6.85716">
        <ele>2466</ele>
        <time>2026-08-04T08:37:57.278Z</time>
      </trkpt>
      <trkpt lat="45.96037" lon="6.85716">
        <ele>2467</ele>
        <time>2026-08-04T08:37:58.278Z</time>
      </trkpt>
      <trkpt lat="45.96038" lon="6.85715">
        <ele>2467</ele>
        <time>2026-08-04T08:37:59.278Z</time>
      </trkpt>
      <trkpt lat="45.96038" lon="6.85714">
        <ele>2467</ele>
        <time>2026-08-04T08:38:00.278Z</time>
      </trkpt>
      <trkpt lat="45.96038" lon="6.85714">
        <ele>2467</ele>
        <time>2026-08-04T08:38:01.278Z</time>
      </trkpt>
      <trkpt lat="45.96039" lon="6.85713">
        <ele>2467</ele>
        <time>2026-08-04T08:38:02.278Z</time>
      </trkpt>
      <trkpt lat="45.96039" lon="6.85711">
        <ele>2467</ele>
        <time>2026-08-04T08:38:03.278Z</time>
      </trkpt>
      <trkpt lat="45.9604" lon="6.8571">
        <ele>2467</ele>
        <time>2026-08-04T08:38:04.278Z</time>
      </trkpt>
      <trkpt lat="45.9604" lon="6.8571">
        <ele>2468</ele>
        <time>2026-08-04T08:38:05.278Z</time>
      </trkpt>
      <trkpt lat="45.9604" lon="6.85709">
        <ele>2468</ele>
        <time>2026-08-04T08:38:06.278Z</time>
      </trkpt>
      <trkpt lat="45.96041" lon="6.85708">
        <ele>2469</ele>
        <time>2026-08-04T08:38:07.278Z</time>
      </trkpt>
      <trkpt lat="45.96041" lon="6.85707">
        <ele>2469</ele>
        <time>2026-08-04T08:38:08.278Z</time>
      </trkpt>
      <trkpt lat="45.96041" lon="6.85706">
        <ele>2470</ele>
        <time>2026-08-04T08:38:09.278Z</time>
      </trkpt>
      <trkpt lat="45.96042" lon="6.85706">
        <ele>2470</ele>
        <time>2026-08-04T08:38:10.278Z</time>
      </trkpt>
      <trkpt lat="45.96042" lon="6.85706">
        <ele>2471</ele>
        <time>2026-08-04T08:38:11.278Z</time>
      </trkpt>
      <trkpt lat="45.96042" lon="6.85705">
        <ele>2471</ele>
        <time>2026-08-04T08:38:12.278Z</time>
      </trkpt>
      <trkpt lat="45.96042" lon="6.85704">
        <ele>2472</ele>
        <time>2026-08-04T08:38:13.278Z</time>
      </trkpt>
      <trkpt lat="45.96042" lon="6.85702">
        <ele>2472</ele>
        <time>2026-08-04T08:38:14.278Z</time>
      </trkpt>
      <trkpt lat="45.96042" lon="6.85701">
        <ele>2472</ele>
        <time>2026-08-04T08:38:15.278Z</time>
      </trkpt>
      <trkpt lat="45.96043" lon="6.857">
        <ele>2472</ele>
        <time>2026-08-04T08:38:16.278Z</time>
      </trkpt>
      <trkpt lat="45.96043" lon="6.85698">
        <ele>2472</ele>
        <time>2026-08-04T08:38:17.278Z</time>
      </trkpt>
      <trkpt lat="45.96043" lon="6.85697">
        <ele>2472</ele>
        <time>2026-08-04T08:38:18.278Z</time>
      </trkpt>
      <trkpt lat="45.96043" lon="6.85695">
        <ele>2472</ele>
        <time>2026-08-04T08:38:19.278Z</time>
      </trkpt>
      <trkpt lat="45.96044" lon="6.85694">
        <ele>2473</ele>
        <time>2026-08-04T08:38:20.278Z</time>
      </trkpt>
      <trkpt lat="45.96044" lon="6.85692">
        <ele>2473</ele>
        <time>2026-08-04T08:38:21.278Z</time>
      </trkpt>
      <trkpt lat="45.96043" lon="6.85691">
        <ele>2473</ele>
        <time>2026-08-04T08:38:22.278Z</time>
      </trkpt>
      <trkpt lat="45.96043" lon="6.85689">
        <ele>2473</ele>
        <time>2026-08-04T08:38:23.278Z</time>
      </trkpt>
      <trkpt lat="45.96044" lon="6.85689">
        <ele>2473</ele>
        <time>2026-08-04T08:38:24.278Z</time>
      </trkpt>
      <trkpt lat="45.96045" lon="6.85688">
        <ele>2473</ele>
        <time>2026-08-04T08:38:25.278Z</time>
      </trkpt>
      <trkpt lat="45.96045" lon="6.85688">
        <ele>2473</ele>
        <time>2026-08-04T08:38:26.278Z</time>
      </trkpt>
      <trkpt lat="45.96046" lon="6.85687">
        <ele>2473</ele>
        <time>2026-08-04T08:38:27.278Z</time>
      </trkpt>
      <trkpt lat="45.96046" lon="6.85687">
        <ele>2474</ele>
        <time>2026-08-04T08:38:28.278Z</time>
      </trkpt>
      <trkpt lat="45.96046" lon="6.85686">
        <ele>2475</ele>
        <time>2026-08-04T08:38:29.278Z</time>
      </trkpt>
      <trkpt lat="45.96046" lon="6.85685">
        <ele>2475</ele>
        <time>2026-08-04T08:38:30.278Z</time>
      </trkpt>
      <trkpt lat="45.96047" lon="6.85684">
        <ele>2475</ele>
        <time>2026-08-04T08:38:31.278Z</time>
      </trkpt>
      <trkpt lat="45.96047" lon="6.85683">
        <ele>2475</ele>
        <time>2026-08-04T08:38:32.278Z</time>
      </trkpt>
      <trkpt lat="45.96048" lon="6.85683">
        <ele>2475</ele>
        <time>2026-08-04T08:38:33.278Z</time>
      </trkpt>
      <trkpt lat="45.96048" lon="6.85682">
        <ele>2475</ele>
        <time>2026-08-04T08:38:34.278Z</time>
      </trkpt>
      <trkpt lat="45.96048" lon="6.85682">
        <ele>2476</ele>
        <time>2026-08-04T08:38:35.278Z</time>
      </trkpt>
      <trkpt lat="45.96049" lon="6.85682">
        <ele>2476</ele>
        <time>2026-08-04T08:38:36.278Z</time>
      </trkpt>
      <trkpt lat="45.96049" lon="6.85682">
        <ele>2476</ele>
        <time>2026-08-04T08:38:37.278Z</time>
      </trkpt>
      <trkpt lat="45.96049" lon="6.85683">
        <ele>2476</ele>
        <time>2026-08-04T08:38:38.278Z</time>
      </trkpt>
      <trkpt lat="45.9605" lon="6.85683">
        <ele>2476</ele>
        <time>2026-08-04T08:38:39.278Z</time>
      </trkpt>
      <trkpt lat="45.96051" lon="6.85683">
        <ele>2476</ele>
        <time>2026-08-04T08:38:40.278Z</time>
      </trkpt>
      <trkpt lat="45.96051" lon="6.85684">
        <ele>2477</ele>
        <time>2026-08-04T08:38:41.278Z</time>
      </trkpt>
      <trkpt lat="45.96052" lon="6.85684">
        <ele>2477</ele>
        <time>2026-08-04T08:38:42.278Z</time>
      </trkpt>
      <trkpt lat="45.96052" lon="6.85684">
        <ele>2477</ele>
        <time>2026-08-04T08:38:43.278Z</time>
      </trkpt>
      <trkpt lat="45.96053" lon="6.85684">
        <ele>2478</ele>
        <time>2026-08-04T08:38:44.278Z</time>
      </trkpt>
      <trkpt lat="45.96053" lon="6.85684">
        <ele>2478</ele>
        <time>2026-08-04T08:38:45.278Z</time>
      </trkpt>
      <trkpt lat="45.96054" lon="6.85684">
        <ele>2478</ele>
        <time>2026-08-04T08:38:46.278Z</time>
      </trkpt>
      <trkpt lat="45.96054" lon="6.85684">
        <ele>2479</ele>
        <time>2026-08-04T08:38:47.278Z</time>
      </trkpt>
      <trkpt lat="45.96054" lon="6.85684">
        <ele>2479</ele>
        <time>2026-08-04T08:38:48.278Z</time>
      </trkpt>
      <trkpt lat="45.96054" lon="6.85684">
        <ele>2480</ele>
        <time>2026-08-04T08:38:49.278Z</time>
      </trkpt>
      <trkpt lat="45.96054" lon="6.85684">
        <ele>2480</ele>
        <time>2026-08-04T08:38:50.278Z</time>
      </trkpt>
      <trkpt lat="45.96054" lon="6.85684">
        <ele>2480</ele>
        <time>2026-08-04T08:38:51.278Z</time>
      </trkpt>
      <trkpt lat="45.96054" lon="6.85684">
        <ele>2480</ele>
        <time>2026-08-04T08:38:52.278Z</time>
      </trkpt>
      <trkpt lat="45.96055" lon="6.85684">
        <ele>2480</ele>
        <time>2026-08-04T08:38:53.278Z</time>
      </trkpt>
      <trkpt lat="45.96055" lon="6.85684">
        <ele>2480</ele>
        <time>2026-08-04T08:38:54.278Z</time>
      </trkpt>
      <trkpt lat="45.96054" lon="6.85684">
        <ele>2480</ele>
        <time>2026-08-04T08:38:55.278Z</time>
      </trkpt>
      <trkpt lat="45.96054" lon="6.85684">
        <ele>2480</ele>
        <time>2026-08-04T08:38:56.278Z</time>
      </trkpt>
      <trkpt lat="45.96054" lon="6.85684">
        <ele>2479</ele>
        <time>2026-08-04T08:38:57.278Z</time>
      </trkpt>
      <trkpt lat="45.96054" lon="6.85684">
        <ele>2479</ele>
        <time>2026-08-04T08:38:58.278Z</time>
      </trkpt>
      <trkpt lat="45.96054" lon="6.85684">
        <ele>2479</ele>
        <time>2026-08-04T08:38:59.278Z</time>
      </trkpt>
      <trkpt lat="45.96054" lon="6.85684">
        <ele>2479</ele>
        <time>2026-08-04T08:39:00.278Z</time>
      </trkpt>
      <trkpt lat="45.96054" lon="6.85684">
        <ele>2479</ele>
        <time>2026-08-04T08:39:01.278Z</time>
      </trkpt>
      <trkpt lat="45.96054" lon="6.85684">
        <ele>2479</ele>
        <time>2026-08-04T08:39:02.278Z</time>
      </trkpt>
      <trkpt lat="45.96054" lon="6.85684">
        <ele>2479</ele>
        <time>2026-08-04T08:39:03.278Z</time>
      </trkpt>
      <trkpt lat="45.96054" lon="6.85684">
        <ele>2479</ele>
        <time>2026-08-04T08:39:04.278Z</time>
      </trkpt>
      <trkpt lat="45.96054" lon="6.85684">
        <ele>2479</ele>
        <time>2026-08-04T08:39:05.278Z</time>
      </trkpt>
      <trkpt lat="45.96054" lon="6.85684">
        <ele>2479</ele>
        <time>2026-08-04T08:39:06.278Z</time>
      </trkpt>
      <trkpt lat="45.96054" lon="6.85684">
        <ele>2478</ele>
        <time>2026-08-04T08:39:07.278Z</time>
      </trkpt>
      <trkpt lat="45.96054" lon="6.85684">
        <ele>2478</ele>
        <time>2026-08-04T08:39:08.278Z</time>
      </trkpt>
      <trkpt lat="45.96054" lon="6.85684">
        <ele>2478</ele>
        <time>2026-08-04T08:39:09.278Z</time>
      </trkpt>
      <trkpt lat="45.96054" lon="6.85684">
        <ele>2478</ele>
        <time>2026-08-04T08:39:10.278Z</time>
      </trkpt>
      <trkpt lat="45.96054" lon="6.85684">
        <ele>2478</ele>
        <time>2026-08-04T08:39:11.278Z</time>
      </trkpt>
      <trkpt lat="45.96054" lon="6.85684">
        <ele>2478</ele>
        <time>2026-08-04T08:39:12.278Z</time>
      </trkpt>
      <trkpt lat="45.96054" lon="6.85683">
        <ele>2478</ele>
        <time>2026-08-04T08:39:13.278Z</time>
      </trkpt>
      <trkpt lat="45.96054" lon="6.85682">
        <ele>2478</ele>
        <time>2026-08-04T08:39:14.278Z</time>
      </trkpt>
      <trkpt lat="45.96054" lon="6.85681">
        <ele>2478</ele>
        <time>2026-08-04T08:39:15.278Z</time>
      </trkpt>
      <trkpt lat="45.96054" lon="6.85681">
        <ele>2478</ele>
        <time>2026-08-04T08:39:16.278Z</time>
      </trkpt>
      <trkpt lat="45.96054" lon="6.8568">
        <ele>2478</ele>
        <time>2026-08-04T08:39:17.278Z</time>
      </trkpt>
      <trkpt lat="45.96054" lon="6.8568">
        <ele>2478</ele>
        <time>2026-08-04T08:39:18.278Z</time>
      </trkpt>
      <trkpt lat="45.96054" lon="6.8568">
        <ele>2478</ele>
        <time>2026-08-04T08:39:19.278Z</time>
      </trkpt>
      <trkpt lat="45.96054" lon="6.8568">
        <ele>2478</ele>
        <time>2026-08-04T08:39:20.278Z</time>
      </trkpt>
      <trkpt lat="45.96054" lon="6.8568">
        <ele>2478</ele>
        <time>2026-08-04T08:39:21.278Z</time>
      </trkpt>
      <trkpt lat="45.96054" lon="6.8568">
        <ele>2478</ele>
        <time>2026-08-04T08:39:22.278Z</time>
      </trkpt>
      <trkpt lat="45.96053" lon="6.8568">
        <ele>2478</ele>
        <time>2026-08-04T08:39:23.278Z</time>
      </trkpt>
      <trkpt lat="45.96053" lon="6.8568">
        <ele>2478</ele>
        <time>2026-08-04T08:39:24.278Z</time>
      </trkpt>
      <trkpt lat="45.96052" lon="6.8568">
        <ele>2477</ele>
        <time>2026-08-04T08:39:25.278Z</time>
      </trkpt>
      <trkpt lat="45.96052" lon="6.8568">
        <ele>2477</ele>
        <time>2026-08-04T08:39:26.278Z</time>
      </trkpt>
      <trkpt lat="45.96052" lon="6.8568">
        <ele>2477</ele>
        <time>2026-08-04T08:39:27.278Z</time>
      </trkpt>
      <trkpt lat="45.96052" lon="6.8568">
        <ele>2477</ele>
        <time>2026-08-04T08:39:28.278Z</time>
      </trkpt>
      <trkpt lat="45.96052" lon="6.8568">
        <ele>2477</ele>
        <time>2026-08-04T08:39:29.278Z</time>
      </trkpt>
      <trkpt lat="45.96052" lon="6.85679">
        <ele>2477</ele>
        <time>2026-08-04T08:39:30.278Z</time>
      </trkpt>
      <trkpt lat="45.96053" lon="6.85678">
        <ele>2477</ele>
        <time>2026-08-04T08:39:31.278Z</time>
      </trkpt>
      <trkpt lat="45.96055" lon="6.85677">
        <ele>2478</ele>
        <time>2026-08-04T08:39:32.278Z</time>
      </trkpt>
      <trkpt lat="45.96056" lon="6.85675">
        <ele>2478</ele>
        <time>2026-08-04T08:39:33.278Z</time>
      </trkpt>
      <trkpt lat="45.96057" lon="6.85673">
        <ele>2477</ele>
        <time>2026-08-04T08:39:34.278Z</time>
      </trkpt>
      <trkpt lat="45.96058" lon="6.85672">
        <ele>2478</ele>
        <time>2026-08-04T08:39:35.278Z</time>
      </trkpt>
      <trkpt lat="45.96058" lon="6.85671">
        <ele>2478</ele>
        <time>2026-08-04T08:39:36.278Z</time>
      </trkpt>
      <trkpt lat="45.96059" lon="6.85669">
        <ele>2478</ele>
        <time>2026-08-04T08:39:37.278Z</time>
      </trkpt>
      <trkpt lat="45.96059" lon="6.85668">
        <ele>2478</ele>
        <time>2026-08-04T08:39:38.278Z</time>
      </trkpt>
      <trkpt lat="45.96059" lon="6.85666">
        <ele>2478</ele>
        <time>2026-08-04T08:39:39.278Z</time>
      </trkpt>
      <trkpt lat="45.9606" lon="6.85665">
        <ele>2478</ele>
        <time>2026-08-04T08:39:40.278Z</time>
      </trkpt>
      <trkpt lat="45.9606" lon="6.85663">
        <ele>2478</ele>
        <time>2026-08-04T08:39:41.278Z</time>
      </trkpt>
      <trkpt lat="45.96061" lon="6.85662">
        <ele>2478</ele>
        <time>2026-08-04T08:39:42.278Z</time>
      </trkpt>
      <trkpt lat="45.96061" lon="6.85662">
        <ele>2479</ele>
        <time>2026-08-04T08:39:43.278Z</time>
      </trkpt>
      <trkpt lat="45.96062" lon="6.85661">
        <ele>2479</ele>
        <time>2026-08-04T08:39:44.278Z</time>
      </trkpt>
      <trkpt lat="45.96062" lon="6.8566">
        <ele>2479</ele>
        <time>2026-08-04T08:39:45.278Z</time>
      </trkpt>
      <trkpt lat="45.96063" lon="6.85659">
        <ele>2479</ele>
        <time>2026-08-04T08:39:46.278Z</time>
      </trkpt>
      <trkpt lat="45.96063" lon="6.85658">
        <ele>2479</ele>
        <time>2026-08-04T08:39:47.278Z</time>
      </trkpt>
      <trkpt lat="45.96063" lon="6.85656">
        <ele>2480</ele>
        <time>2026-08-04T08:39:48.278Z</time>
      </trkpt>
      <trkpt lat="45.96063" lon="6.85655">
        <ele>2480</ele>
        <time>2026-08-04T08:39:49.278Z</time>
      </trkpt>
      <trkpt lat="45.96063" lon="6.85654">
        <ele>2480</ele>
        <time>2026-08-04T08:39:50.278Z</time>
      </trkpt>
      <trkpt lat="45.96064" lon="6.85653">
        <ele>2480</ele>
        <time>2026-08-04T08:39:51.278Z</time>
      </trkpt>
      <trkpt lat="45.96065" lon="6.85652">
        <ele>2481</ele>
        <time>2026-08-04T08:39:52.278Z</time>
      </trkpt>
      <trkpt lat="45.96065" lon="6.85651">
        <ele>2481</ele>
        <time>2026-08-04T08:39:53.278Z</time>
      </trkpt>
      <trkpt lat="45.96066" lon="6.85651">
        <ele>2481</ele>
        <time>2026-08-04T08:39:54.278Z</time>
      </trkpt>
      <trkpt lat="45.96067" lon="6.8565">
        <ele>2482</ele>
        <time>2026-08-04T08:39:55.278Z</time>
      </trkpt>
      <trkpt lat="45.96067" lon="6.85649">
        <ele>2482</ele>
        <time>2026-08-04T08:39:56.278Z</time>
      </trkpt>
      <trkpt lat="45.96068" lon="6.85648">
        <ele>2483</ele>
        <time>2026-08-04T08:39:57.278Z</time>
      </trkpt>
      <trkpt lat="45.96068" lon="6.85647">
        <ele>2483</ele>
        <time>2026-08-04T08:39:58.278Z</time>
      </trkpt>
      <trkpt lat="45.96067" lon="6.85646">
        <ele>2484</ele>
        <time>2026-08-04T08:39:59.278Z</time>
      </trkpt>
      <trkpt lat="45.96067" lon="6.85646">
        <ele>2484</ele>
        <time>2026-08-04T08:40:00.278Z</time>
      </trkpt>
      <trkpt lat="45.96067" lon="6.85645">
        <ele>2484</ele>
        <time>2026-08-04T08:40:01.278Z</time>
      </trkpt>
      <trkpt lat="45.96066" lon="6.85645">
        <ele>2485</ele>
        <time>2026-08-04T08:40:02.278Z</time>
      </trkpt>
      <trkpt lat="45.96067" lon="6.85644">
        <ele>2485</ele>
        <time>2026-08-04T08:40:03.278Z</time>
      </trkpt>
      <trkpt lat="45.96067" lon="6.85644">
        <ele>2485</ele>
        <time>2026-08-04T08:40:04.278Z</time>
      </trkpt>
      <trkpt lat="45.96066" lon="6.85644">
        <ele>2485</ele>
        <time>2026-08-04T08:40:05.278Z</time>
      </trkpt>
      <trkpt lat="45.96066" lon="6.85644">
        <ele>2485</ele>
        <time>2026-08-04T08:40:06.278Z</time>
      </trkpt>
      <trkpt lat="45.96065" lon="6.85644">
        <ele>2484</ele>
        <time>2026-08-04T08:40:07.278Z</time>
      </trkpt>
      <trkpt lat="45.96064" lon="6.85642">
        <ele>2485</ele>
        <time>2026-08-04T08:40:08.278Z</time>
      </trkpt>
      <trkpt lat="45.96064" lon="6.85641">
        <ele>2485</ele>
        <time>2026-08-04T08:40:09.278Z</time>
      </trkpt>
      <trkpt lat="45.96064" lon="6.8564">
        <ele>2485</ele>
        <time>2026-08-04T08:40:10.278Z</time>
      </trkpt>
      <trkpt lat="45.96065" lon="6.85639">
        <ele>2484</ele>
        <time>2026-08-04T08:40:11.278Z</time>
      </trkpt>
      <trkpt lat="45.96065" lon="6.85638">
        <ele>2484</ele>
        <time>2026-08-04T08:40:12.278Z</time>
      </trkpt>
      <trkpt lat="45.96065" lon="6.85637">
        <ele>2484</ele>
        <time>2026-08-04T08:40:13.278Z</time>
      </trkpt>
      <trkpt lat="45.96065" lon="6.85636">
        <ele>2485</ele>
        <time>2026-08-04T08:40:14.278Z</time>
      </trkpt>
      <trkpt lat="45.96065" lon="6.85635">
        <ele>2485</ele>
        <time>2026-08-04T08:40:15.278Z</time>
      </trkpt>
      <trkpt lat="45.96066" lon="6.85634">
        <ele>2486</ele>
        <time>2026-08-04T08:40:16.278Z</time>
      </trkpt>
      <trkpt lat="45.96066" lon="6.85634">
        <ele>2486</ele>
        <time>2026-08-04T08:40:17.278Z</time>
      </trkpt>
      <trkpt lat="45.96067" lon="6.85634">
        <ele>2487</ele>
        <time>2026-08-04T08:40:18.278Z</time>
      </trkpt>
      <trkpt lat="45.96067" lon="6.85633">
        <ele>2486</ele>
        <time>2026-08-04T08:40:19.278Z</time>
      </trkpt>
      <trkpt lat="45.96067" lon="6.85633">
        <ele>2486</ele>
        <time>2026-08-04T08:40:20.278Z</time>
      </trkpt>
      <trkpt lat="45.96068" lon="6.85633">
        <ele>2486</ele>
        <time>2026-08-04T08:40:21.278Z</time>
      </trkpt>
      <trkpt lat="45.96068" lon="6.85633">
        <ele>2486</ele>
        <time>2026-08-04T08:40:22.278Z</time>
      </trkpt>
      <trkpt lat="45.96068" lon="6.85633">
        <ele>2486</ele>
        <time>2026-08-04T08:40:23.278Z</time>
      </trkpt>
      <trkpt lat="45.96069" lon="6.85633">
        <ele>2486</ele>
        <time>2026-08-04T08:40:24.278Z</time>
      </trkpt>
      <trkpt lat="45.9607" lon="6.85633">
        <ele>2486</ele>
        <time>2026-08-04T08:40:25.278Z</time>
      </trkpt>
      <trkpt lat="45.9607" lon="6.85634">
        <ele>2486</ele>
        <time>2026-08-04T08:40:26.278Z</time>
      </trkpt>
      <trkpt lat="45.96071" lon="6.85634">
        <ele>2486</ele>
        <time>2026-08-04T08:40:27.278Z</time>
      </trkpt>
      <trkpt lat="45.96072" lon="6.85634">
        <ele>2487</ele>
        <time>2026-08-04T08:40:28.278Z</time>
      </trkpt>
      <trkpt lat="45.96072" lon="6.85634">
        <ele>2487</ele>
        <time>2026-08-04T08:40:29.278Z</time>
      </trkpt>
      <trkpt lat="45.96073" lon="6.85633">
        <ele>2487</ele>
        <time>2026-08-04T08:40:30.278Z</time>
      </trkpt>
      <trkpt lat="45.96073" lon="6.85633">
        <ele>2488</ele>
        <time>2026-08-04T08:40:31.278Z</time>
      </trkpt>
      <trkpt lat="45.96074" lon="6.85633">
        <ele>2488</ele>
        <time>2026-08-04T08:40:32.278Z</time>
      </trkpt>
      <trkpt lat="45.96074" lon="6.85632">
        <ele>2488</ele>
        <time>2026-08-04T08:40:33.278Z</time>
      </trkpt>
      <trkpt lat="45.96075" lon="6.85632">
        <ele>2488</ele>
        <time>2026-08-04T08:40:34.278Z</time>
      </trkpt>
      <trkpt lat="45.96075" lon="6.85632">
        <ele>2489</ele>
        <time>2026-08-04T08:40:35.278Z</time>
      </trkpt>
      <trkpt lat="45.96076" lon="6.85632">
        <ele>2489</ele>
        <time>2026-08-04T08:40:36.278Z</time>
      </trkpt>
      <trkpt lat="45.96076" lon="6.85633">
        <ele>2490</ele>
        <time>2026-08-04T08:40:37.278Z</time>
      </trkpt>
      <trkpt lat="45.96077" lon="6.85633">
        <ele>2490</ele>
        <time>2026-08-04T08:40:38.278Z</time>
      </trkpt>
      <trkpt lat="45.96077" lon="6.85633">
        <ele>2490</ele>
        <time>2026-08-04T08:40:39.278Z</time>
      </trkpt>
      <trkpt lat="45.96078" lon="6.85632">
        <ele>2491</ele>
        <time>2026-08-04T08:40:40.278Z</time>
      </trkpt>
      <trkpt lat="45.96078" lon="6.85632">
        <ele>2492</ele>
        <time>2026-08-04T08:40:41.278Z</time>
      </trkpt>
      <trkpt lat="45.96078" lon="6.85631">
        <ele>2492</ele>
        <time>2026-08-04T08:40:42.278Z</time>
      </trkpt>
      <trkpt lat="45.96078" lon="6.8563">
        <ele>2493</ele>
        <time>2026-08-04T08:40:43.278Z</time>
      </trkpt>
      <trkpt lat="45.96078" lon="6.85628">
        <ele>2493</ele>
        <time>2026-08-04T08:40:44.278Z</time>
      </trkpt>
      <trkpt lat="45.96078" lon="6.85627">
        <ele>2493</ele>
        <time>2026-08-04T08:40:45.278Z</time>
      </trkpt>
      <trkpt lat="45.96077" lon="6.85626">
        <ele>2493</ele>
        <time>2026-08-04T08:40:46.278Z</time>
      </trkpt>
      <trkpt lat="45.96077" lon="6.85625">
        <ele>2492</ele>
        <time>2026-08-04T08:40:47.278Z</time>
      </trkpt>
      <trkpt lat="45.96077" lon="6.85624">
        <ele>2492</ele>
        <time>2026-08-04T08:40:48.278Z</time>
      </trkpt>
      <trkpt lat="45.96077" lon="6.85623">
        <ele>2492</ele>
        <time>2026-08-04T08:40:49.278Z</time>
      </trkpt>
      <trkpt lat="45.96078" lon="6.85623">
        <ele>2492</ele>
        <time>2026-08-04T08:40:50.278Z</time>
      </trkpt>
      <trkpt lat="45.96078" lon="6.85622">
        <ele>2492</ele>
        <time>2026-08-04T08:40:51.278Z</time>
      </trkpt>
      <trkpt lat="45.96079" lon="6.85622">
        <ele>2492</ele>
        <time>2026-08-04T08:40:52.278Z</time>
      </trkpt>
      <trkpt lat="45.9608" lon="6.85622">
        <ele>2493</ele>
        <time>2026-08-04T08:40:53.278Z</time>
      </trkpt>
      <trkpt lat="45.9608" lon="6.85622">
        <ele>2493</ele>
        <time>2026-08-04T08:40:54.278Z</time>
      </trkpt>
      <trkpt lat="45.96081" lon="6.85622">
        <ele>2493</ele>
        <time>2026-08-04T08:40:55.278Z</time>
      </trkpt>
      <trkpt lat="45.96081" lon="6.85621">
        <ele>2494</ele>
        <time>2026-08-04T08:40:56.278Z</time>
      </trkpt>
      <trkpt lat="45.96081" lon="6.85621">
        <ele>2494</ele>
        <time>2026-08-04T08:40:57.278Z</time>
      </trkpt>
      <trkpt lat="45.96082" lon="6.85621">
        <ele>2494</ele>
        <time>2026-08-04T08:40:58.278Z</time>
      </trkpt>
      <trkpt lat="45.96082" lon="6.85621">
        <ele>2494</ele>
        <time>2026-08-04T08:40:59.278Z</time>
      </trkpt>
      <trkpt lat="45.96082" lon="6.85621">
        <ele>2495</ele>
        <time>2026-08-04T08:41:00.278Z</time>
      </trkpt>
      <trkpt lat="45.96083" lon="6.8562">
        <ele>2495</ele>
        <time>2026-08-04T08:41:01.278Z</time>
      </trkpt>
      <trkpt lat="45.96083" lon="6.8562">
        <ele>2495</ele>
        <time>2026-08-04T08:41:02.278Z</time>
      </trkpt>
      <trkpt lat="45.96084" lon="6.8562">
        <ele>2496</ele>
        <time>2026-08-04T08:41:03.278Z</time>
      </trkpt>
      <trkpt lat="45.96085" lon="6.8562">
        <ele>2496</ele>
        <time>2026-08-04T08:41:04.278Z</time>
      </trkpt>
      <trkpt lat="45.96086" lon="6.85619">
        <ele>2497</ele>
        <time>2026-08-04T08:41:05.278Z</time>
      </trkpt>
      <trkpt lat="45.96086" lon="6.85619">
        <ele>2497</ele>
        <time>2026-08-04T08:41:06.278Z</time>
      </trkpt>
      <trkpt lat="45.96086" lon="6.85619">
        <ele>2497</ele>
        <time>2026-08-04T08:41:07.278Z</time>
      </trkpt>
      <trkpt lat="45.96087" lon="6.85619">
        <ele>2497</ele>
        <time>2026-08-04T08:41:08.278Z</time>
      </trkpt>
      <trkpt lat="45.96087" lon="6.85619">
        <ele>2497</ele>
        <time>2026-08-04T08:41:09.278Z</time>
      </trkpt>
      <trkpt lat="45.96087" lon="6.85618">
        <ele>2497</ele>
        <time>2026-08-04T08:41:10.278Z</time>
      </trkpt>
      <trkpt lat="45.96088" lon="6.85618">
        <ele>2497</ele>
        <time>2026-08-04T08:41:11.278Z</time>
      </trkpt>
      <trkpt lat="45.96088" lon="6.85619">
        <ele>2497</ele>
        <time>2026-08-04T08:41:12.278Z</time>
      </trkpt>
      <trkpt lat="45.96088" lon="6.85619">
        <ele>2497</ele>
        <time>2026-08-04T08:41:13.278Z</time>
      </trkpt>
      <trkpt lat="45.96088" lon="6.85619">
        <ele>2497</ele>
        <time>2026-08-04T08:41:14.278Z</time>
      </trkpt>
      <trkpt lat="45.96087" lon="6.85619">
        <ele>2497</ele>
        <time>2026-08-04T08:41:15.278Z</time>
      </trkpt>
      <trkpt lat="45.96087" lon="6.85618">
        <ele>2497</ele>
        <time>2026-08-04T08:41:16.278Z</time>
      </trkpt>
      <trkpt lat="45.96087" lon="6.85618">
        <ele>2497</ele>
        <time>2026-08-04T08:41:17.278Z</time>
      </trkpt>
      <trkpt lat="45.96086" lon="6.85618">
        <ele>2497</ele>
        <time>2026-08-04T08:41:18.278Z</time>
      </trkpt>
      <trkpt lat="45.96085" lon="6.85618">
        <ele>2497</ele>
        <time>2026-08-04T08:41:19.278Z</time>
      </trkpt>
      <trkpt lat="45.96084" lon="6.85618">
        <ele>2498</ele>
        <time>2026-08-04T08:41:20.278Z</time>
      </trkpt>
      <trkpt lat="45.96084" lon="6.85618">
        <ele>2497</ele>
        <time>2026-08-04T08:41:21.278Z</time>
      </trkpt>
      <trkpt lat="45.96083" lon="6.85617">
        <ele>2498</ele>
        <time>2026-08-04T08:41:22.278Z</time>
      </trkpt>
      <trkpt lat="45.96083" lon="6.85617">
        <ele>2497</ele>
        <time>2026-08-04T08:41:23.278Z</time>
      </trkpt>
      <trkpt lat="45.96082" lon="6.85616">
        <ele>2497</ele>
        <time>2026-08-04T08:41:24.278Z</time>
      </trkpt>
      <trkpt lat="45.96082" lon="6.85615">
        <ele>2497</ele>
        <time>2026-08-04T08:41:25.278Z</time>
      </trkpt>
      <trkpt lat="45.96081" lon="6.85614">
        <ele>2497</ele>
        <time>2026-08-04T08:41:26.278Z</time>
      </trkpt>
      <trkpt lat="45.96081" lon="6.85613">
        <ele>2497</ele>
        <time>2026-08-04T08:41:27.278Z</time>
      </trkpt>
      <trkpt lat="45.96081" lon="6.85612">
        <ele>2497</ele>
        <time>2026-08-04T08:41:28.278Z</time>
      </trkpt>
      <trkpt lat="45.96081" lon="6.85611">
        <ele>2497</ele>
        <time>2026-08-04T08:41:29.278Z</time>
      </trkpt>
      <trkpt lat="45.96081" lon="6.8561">
        <ele>2497</ele>
        <time>2026-08-04T08:41:30.278Z</time>
      </trkpt>
      <trkpt lat="45.9608" lon="6.85609">
        <ele>2496</ele>
        <time>2026-08-04T08:41:31.278Z</time>
      </trkpt>
      <trkpt lat="45.9608" lon="6.85608">
        <ele>2496</ele>
        <time>2026-08-04T08:41:32.278Z</time>
      </trkpt>
      <trkpt lat="45.9608" lon="6.85607">
        <ele>2496</ele>
        <time>2026-08-04T08:41:33.278Z</time>
      </trkpt>
      <trkpt lat="45.96079" lon="6.85606">
        <ele>2496</ele>
        <time>2026-08-04T08:41:34.278Z</time>
      </trkpt>
      <trkpt lat="45.96079" lon="6.85605">
        <ele>2496</ele>
        <time>2026-08-04T08:41:35.278Z</time>
      </trkpt>
      <trkpt lat="45.96078" lon="6.85603">
        <ele>2496</ele>
        <time>2026-08-04T08:41:36.278Z</time>
      </trkpt>
      <trkpt lat="45.96078" lon="6.85601">
        <ele>2495</ele>
        <time>2026-08-04T08:41:37.278Z</time>
      </trkpt>
      <trkpt lat="45.96078" lon="6.85598">
        <ele>2495</ele>
        <time>2026-08-04T08:41:38.278Z</time>
      </trkpt>
      <trkpt lat="45.96078" lon="6.85595">
        <ele>2495</ele>
        <time>2026-08-04T08:41:39.278Z</time>
      </trkpt>
      <trkpt lat="45.96078" lon="6.85592">
        <ele>2495</ele>
        <time>2026-08-04T08:41:40.278Z</time>
      </trkpt>
      <trkpt lat="45.96079" lon="6.8559">
        <ele>2495</ele>
        <time>2026-08-04T08:41:41.278Z</time>
      </trkpt>
      <trkpt lat="45.96079" lon="6.85588">
        <ele>2495</ele>
        <time>2026-08-04T08:41:42.278Z</time>
      </trkpt>
      <trkpt lat="45.9608" lon="6.85587">
        <ele>2496</ele>
        <time>2026-08-04T08:41:43.278Z</time>
      </trkpt>
      <trkpt lat="45.96081" lon="6.85587">
        <ele>2496</ele>
        <time>2026-08-04T08:41:44.278Z</time>
      </trkpt>
      <trkpt lat="45.96082" lon="6.85586">
        <ele>2496</ele>
        <time>2026-08-04T08:41:45.278Z</time>
      </trkpt>
      <trkpt lat="45.96082" lon="6.85584">
        <ele>2496</ele>
        <time>2026-08-04T08:41:46.278Z</time>
      </trkpt>
      <trkpt lat="45.96082" lon="6.85583">
        <ele>2496</ele>
        <time>2026-08-04T08:41:47.278Z</time>
      </trkpt>
      <trkpt lat="45.96082" lon="6.85581">
        <ele>2497</ele>
        <time>2026-08-04T08:41:48.278Z</time>
      </trkpt>
      <trkpt lat="45.96082" lon="6.8558">
        <ele>2497</ele>
        <time>2026-08-04T08:41:49.278Z</time>
      </trkpt>
      <trkpt lat="45.96082" lon="6.85578">
        <ele>2498</ele>
        <time>2026-08-04T08:41:50.278Z</time>
      </trkpt>
      <trkpt lat="45.96082" lon="6.85577">
        <ele>2498</ele>
        <time>2026-08-04T08:41:51.278Z</time>
      </trkpt>
      <trkpt lat="45.96082" lon="6.85576">
        <ele>2498</ele>
        <time>2026-08-04T08:41:52.278Z</time>
      </trkpt>
      <trkpt lat="45.96083" lon="6.85575">
        <ele>2498</ele>
        <time>2026-08-04T08:41:53.278Z</time>
      </trkpt>
      <trkpt lat="45.96084" lon="6.85574">
        <ele>2498</ele>
        <time>2026-08-04T08:41:54.278Z</time>
      </trkpt>
      <trkpt lat="45.96084" lon="6.85574">
        <ele>2498</ele>
        <time>2026-08-04T08:41:55.278Z</time>
      </trkpt>
      <trkpt lat="45.96085" lon="6.85573">
        <ele>2499</ele>
        <time>2026-08-04T08:41:56.278Z</time>
      </trkpt>
      <trkpt lat="45.96085" lon="6.85572">
        <ele>2499</ele>
        <time>2026-08-04T08:41:57.278Z</time>
      </trkpt>
      <trkpt lat="45.96086" lon="6.8557">
        <ele>2499</ele>
        <time>2026-08-04T08:41:58.278Z</time>
      </trkpt>
      <trkpt lat="45.96086" lon="6.8557">
        <ele>2499</ele>
        <time>2026-08-04T08:41:59.278Z</time>
      </trkpt>
      <trkpt lat="45.96087" lon="6.85569">
        <ele>2499</ele>
        <time>2026-08-04T08:42:00.278Z</time>
      </trkpt>
      <trkpt lat="45.96087" lon="6.85568">
        <ele>2500</ele>
        <time>2026-08-04T08:42:01.278Z</time>
      </trkpt>
      <trkpt lat="45.96087" lon="6.85567">
        <ele>2500</ele>
        <time>2026-08-04T08:42:02.278Z</time>
      </trkpt>
      <trkpt lat="45.96088" lon="6.85566">
        <ele>2501</ele>
        <time>2026-08-04T08:42:03.278Z</time>
      </trkpt>
      <trkpt lat="45.96087" lon="6.85566">
        <ele>2502</ele>
        <time>2026-08-04T08:42:04.278Z</time>
      </trkpt>
      <trkpt lat="45.96088" lon="6.85564">
        <ele>2502</ele>
        <time>2026-08-04T08:42:05.278Z</time>
      </trkpt>
      <trkpt lat="45.96088" lon="6.85563">
        <ele>2503</ele>
        <time>2026-08-04T08:42:06.278Z</time>
      </trkpt>
      <trkpt lat="45.96088" lon="6.85562">
        <ele>2503</ele>
        <time>2026-08-04T08:42:07.278Z</time>
      </trkpt>
      <trkpt lat="45.96089" lon="6.85561">
        <ele>2503</ele>
        <time>2026-08-04T08:42:08.278Z</time>
      </trkpt>
      <trkpt lat="45.96089" lon="6.85559">
        <ele>2504</ele>
        <time>2026-08-04T08:42:09.278Z</time>
      </trkpt>
      <trkpt lat="45.9609" lon="6.85558">
        <ele>2504</ele>
        <time>2026-08-04T08:42:10.278Z</time>
      </trkpt>
      <trkpt lat="45.96091" lon="6.85558">
        <ele>2504</ele>
        <time>2026-08-04T08:42:11.278Z</time>
      </trkpt>
      <trkpt lat="45.96091" lon="6.85557">
        <ele>2505</ele>
        <time>2026-08-04T08:42:12.278Z</time>
      </trkpt>
      <trkpt lat="45.96092" lon="6.85557">
        <ele>2505</ele>
        <time>2026-08-04T08:42:13.278Z</time>
      </trkpt>
      <trkpt lat="45.96093" lon="6.85557">
        <ele>2505</ele>
        <time>2026-08-04T08:42:14.278Z</time>
      </trkpt>
      <trkpt lat="45.96093" lon="6.85556">
        <ele>2505</ele>
        <time>2026-08-04T08:42:15.278Z</time>
      </trkpt>
      <trkpt lat="45.96094" lon="6.85555">
        <ele>2505</ele>
        <time>2026-08-04T08:42:16.278Z</time>
      </trkpt>
      <trkpt lat="45.96094" lon="6.85554">
        <ele>2505</ele>
        <time>2026-08-04T08:42:17.278Z</time>
      </trkpt>
      <trkpt lat="45.96094" lon="6.85553">
        <ele>2505</ele>
        <time>2026-08-04T08:42:18.278Z</time>
      </trkpt>
      <trkpt lat="45.96095" lon="6.85551">
        <ele>2505</ele>
        <time>2026-08-04T08:42:19.278Z</time>
      </trkpt>
      <trkpt lat="45.96095" lon="6.85549">
        <ele>2506</ele>
        <time>2026-08-04T08:42:20.278Z</time>
      </trkpt>
      <trkpt lat="45.96095" lon="6.85547">
        <ele>2506</ele>
        <time>2026-08-04T08:42:21.278Z</time>
      </trkpt>
      <trkpt lat="45.96096" lon="6.85546">
        <ele>2506</ele>
        <time>2026-08-04T08:42:22.278Z</time>
      </trkpt>
      <trkpt lat="45.96096" lon="6.85544">
        <ele>2506</ele>
        <time>2026-08-04T08:42:23.278Z</time>
      </trkpt>
      <trkpt lat="45.96097" lon="6.85543">
        <ele>2507</ele>
        <time>2026-08-04T08:42:24.278Z</time>
      </trkpt>
      <trkpt lat="45.96098" lon="6.85542">
        <ele>2507</ele>
        <time>2026-08-04T08:42:25.278Z</time>
      </trkpt>
      <trkpt lat="45.96098" lon="6.85541">
        <ele>2507</ele>
        <time>2026-08-04T08:42:26.278Z</time>
      </trkpt>
      <trkpt lat="45.96099" lon="6.85541">
        <ele>2507</ele>
        <time>2026-08-04T08:42:27.278Z</time>
      </trkpt>
      <trkpt lat="45.961" lon="6.8554">
        <ele>2508</ele>
        <time>2026-08-04T08:42:28.278Z</time>
      </trkpt>
      <trkpt lat="45.96101" lon="6.8554">
        <ele>2508</ele>
        <time>2026-08-04T08:42:29.278Z</time>
      </trkpt>
      <trkpt lat="45.96101" lon="6.85539">
        <ele>2508</ele>
        <time>2026-08-04T08:42:30.278Z</time>
      </trkpt>
      <trkpt lat="45.96102" lon="6.85538">
        <ele>2509</ele>
        <time>2026-08-04T08:42:31.278Z</time>
      </trkpt>
      <trkpt lat="45.96102" lon="6.85537">
        <ele>2509</ele>
        <time>2026-08-04T08:42:32.278Z</time>
      </trkpt>
      <trkpt lat="45.96102" lon="6.85536">
        <ele>2509</ele>
        <time>2026-08-04T08:42:33.278Z</time>
      </trkpt>
      <trkpt lat="45.96103" lon="6.85535">
        <ele>2509</ele>
        <time>2026-08-04T08:42:34.278Z</time>
      </trkpt>
      <trkpt lat="45.96103" lon="6.85534">
        <ele>2510</ele>
        <time>2026-08-04T08:42:35.278Z</time>
      </trkpt>
      <trkpt lat="45.96104" lon="6.85534">
        <ele>2510</ele>
        <time>2026-08-04T08:42:36.278Z</time>
      </trkpt>
      <trkpt lat="45.96104" lon="6.85533">
        <ele>2510</ele>
        <time>2026-08-04T08:42:37.278Z</time>
      </trkpt>
      <trkpt lat="45.96104" lon="6.85532">
        <ele>2510</ele>
        <time>2026-08-04T08:42:38.278Z</time>
      </trkpt>
      <trkpt lat="45.96104" lon="6.85531">
        <ele>2510</ele>
        <time>2026-08-04T08:42:39.278Z</time>
      </trkpt>
      <trkpt lat="45.96104" lon="6.8553">
        <ele>2510</ele>
        <time>2026-08-04T08:42:40.278Z</time>
      </trkpt>
      <trkpt lat="45.96105" lon="6.85529">
        <ele>2511</ele>
        <time>2026-08-04T08:42:41.278Z</time>
      </trkpt>
      <trkpt lat="45.96105" lon="6.85528">
        <ele>2511</ele>
        <time>2026-08-04T08:42:42.278Z</time>
      </trkpt>
      <trkpt lat="45.96105" lon="6.85527">
        <ele>2512</ele>
        <time>2026-08-04T08:42:43.278Z</time>
      </trkpt>
      <trkpt lat="45.96106" lon="6.85527">
        <ele>2512</ele>
        <time>2026-08-04T08:42:44.278Z</time>
      </trkpt>
      <trkpt lat="45.96106" lon="6.85526">
        <ele>2512</ele>
        <time>2026-08-04T08:42:45.278Z</time>
      </trkpt>
      <trkpt lat="45.96107" lon="6.85526">
        <ele>2512</ele>
        <time>2026-08-04T08:42:46.278Z</time>
      </trkpt>
      <trkpt lat="45.96108" lon="6.85526">
        <ele>2512</ele>
        <time>2026-08-04T08:42:47.278Z</time>
      </trkpt>
      <trkpt lat="45.96108" lon="6.85526">
        <ele>2513</ele>
        <time>2026-08-04T08:42:48.278Z</time>
      </trkpt>
      <trkpt lat="45.96108" lon="6.85525">
        <ele>2513</ele>
        <time>2026-08-04T08:42:49.278Z</time>
      </trkpt>
      <trkpt lat="45.96109" lon="6.85525">
        <ele>2513</ele>
        <time>2026-08-04T08:42:50.278Z</time>
      </trkpt>
      <trkpt lat="45.96109" lon="6.85524">
        <ele>2514</ele>
        <time>2026-08-04T08:42:51.278Z</time>
      </trkpt>
      <trkpt lat="45.96109" lon="6.85523">
        <ele>2514</ele>
        <time>2026-08-04T08:42:52.278Z</time>
      </trkpt>
      <trkpt lat="45.96109" lon="6.85522">
        <ele>2514</ele>
        <time>2026-08-04T08:42:53.278Z</time>
      </trkpt>
      <trkpt lat="45.9611" lon="6.85521">
        <ele>2515</ele>
        <time>2026-08-04T08:42:54.278Z</time>
      </trkpt>
      <trkpt lat="45.9611" lon="6.8552">
        <ele>2515</ele>
        <time>2026-08-04T08:42:55.278Z</time>
      </trkpt>
      <trkpt lat="45.9611" lon="6.8552">
        <ele>2515</ele>
        <time>2026-08-04T08:42:56.278Z</time>
      </trkpt>
      <trkpt lat="45.96111" lon="6.8552">
        <ele>2516</ele>
        <time>2026-08-04T08:42:57.278Z</time>
      </trkpt>
      <trkpt lat="45.96112" lon="6.8552">
        <ele>2516</ele>
        <time>2026-08-04T08:42:58.278Z</time>
      </trkpt>
      <trkpt lat="45.96113" lon="6.8552">
        <ele>2516</ele>
        <time>2026-08-04T08:42:59.278Z</time>
      </trkpt>
      <trkpt lat="45.96113" lon="6.85521">
        <ele>2517</ele>
        <time>2026-08-04T08:43:00.278Z</time>
      </trkpt>
      <trkpt lat="45.96114" lon="6.85522">
        <ele>2517</ele>
        <time>2026-08-04T08:43:01.278Z</time>
      </trkpt>
      <trkpt lat="45.96114" lon="6.85522">
        <ele>2517</ele>
        <time>2026-08-04T08:43:02.278Z</time>
      </trkpt>
      <trkpt lat="45.96115" lon="6.85523">
        <ele>2517</ele>
        <time>2026-08-04T08:43:03.278Z</time>
      </trkpt>
      <trkpt lat="45.96115" lon="6.85522">
        <ele>2517</ele>
        <time>2026-08-04T08:43:04.278Z</time>
      </trkpt>
      <trkpt lat="45.96115" lon="6.85521">
        <ele>2518</ele>
        <time>2026-08-04T08:43:05.278Z</time>
      </trkpt>
      <trkpt lat="45.96116" lon="6.85521">
        <ele>2518</ele>
        <time>2026-08-04T08:43:06.278Z</time>
      </trkpt>
      <trkpt lat="45.96116" lon="6.85519">
        <ele>2518</ele>
        <time>2026-08-04T08:43:07.278Z</time>
      </trkpt>
      <trkpt lat="45.96116" lon="6.85517">
        <ele>2518</ele>
        <time>2026-08-04T08:43:08.278Z</time>
      </trkpt>
      <trkpt lat="45.96116" lon="6.85517">
        <ele>2518</ele>
        <time>2026-08-04T08:43:09.278Z</time>
      </trkpt>
      <trkpt lat="45.96117" lon="6.85516">
        <ele>2518</ele>
        <time>2026-08-04T08:43:10.278Z</time>
      </trkpt>
      <trkpt lat="45.96117" lon="6.85516">
        <ele>2519</ele>
        <time>2026-08-04T08:43:11.278Z</time>
      </trkpt>
      <trkpt lat="45.96118" lon="6.85515">
        <ele>2519</ele>
        <time>2026-08-04T08:43:12.278Z</time>
      </trkpt>
      <trkpt lat="45.96118" lon="6.85514">
        <ele>2519</ele>
        <time>2026-08-04T08:43:13.278Z</time>
      </trkpt>
      <trkpt lat="45.96119" lon="6.85514">
        <ele>2519</ele>
        <time>2026-08-04T08:43:14.278Z</time>
      </trkpt>
      <trkpt lat="45.96119" lon="6.85514">
        <ele>2519</ele>
        <time>2026-08-04T08:43:15.278Z</time>
      </trkpt>
      <trkpt lat="45.9612" lon="6.85514">
        <ele>2520</ele>
        <time>2026-08-04T08:43:16.278Z</time>
      </trkpt>
      <trkpt lat="45.96121" lon="6.85515">
        <ele>2520</ele>
        <time>2026-08-04T08:43:17.278Z</time>
      </trkpt>
      <trkpt lat="45.96121" lon="6.85515">
        <ele>2520</ele>
        <time>2026-08-04T08:43:18.278Z</time>
      </trkpt>
      <trkpt lat="45.96122" lon="6.85515">
        <ele>2520</ele>
        <time>2026-08-04T08:43:19.278Z</time>
      </trkpt>
      <trkpt lat="45.96123" lon="6.85515">
        <ele>2520</ele>
        <time>2026-08-04T08:43:20.278Z</time>
      </trkpt>
      <trkpt lat="45.96123" lon="6.85515">
        <ele>2520</ele>
        <time>2026-08-04T08:43:21.278Z</time>
      </trkpt>
      <trkpt lat="45.96124" lon="6.85514">
        <ele>2521</ele>
        <time>2026-08-04T08:43:22.278Z</time>
      </trkpt>
      <trkpt lat="45.96125" lon="6.85514">
        <ele>2521</ele>
        <time>2026-08-04T08:43:23.278Z</time>
      </trkpt>
      <trkpt lat="45.96126" lon="6.85513">
        <ele>2521</ele>
        <time>2026-08-04T08:43:24.278Z</time>
      </trkpt>
      <trkpt lat="45.96126" lon="6.85512">
        <ele>2521</ele>
        <time>2026-08-04T08:43:25.278Z</time>
      </trkpt>
      <trkpt lat="45.96127" lon="6.85511">
        <ele>2521</ele>
        <time>2026-08-04T08:43:26.278Z</time>
      </trkpt>
      <trkpt lat="45.96127" lon="6.8551">
        <ele>2521</ele>
        <time>2026-08-04T08:43:27.278Z</time>
      </trkpt>
      <trkpt lat="45.96128" lon="6.85509">
        <ele>2521</ele>
        <time>2026-08-04T08:43:28.278Z</time>
      </trkpt>
      <trkpt lat="45.9613" lon="6.85509">
        <ele>2521</ele>
        <time>2026-08-04T08:43:29.278Z</time>
      </trkpt>
      <trkpt lat="45.96131" lon="6.85509">
        <ele>2521</ele>
        <time>2026-08-04T08:43:30.278Z</time>
      </trkpt>
      <trkpt lat="45.96132" lon="6.85508">
        <ele>2522</ele>
        <time>2026-08-04T08:43:31.278Z</time>
      </trkpt>
      <trkpt lat="45.96133" lon="6.85508">
        <ele>2522</ele>
        <time>2026-08-04T08:43:32.278Z</time>
      </trkpt>
      <trkpt lat="45.96134" lon="6.85508">
        <ele>2522</ele>
        <time>2026-08-04T08:43:33.278Z</time>
      </trkpt>
      <trkpt lat="45.96135" lon="6.85508">
        <ele>2522</ele>
        <time>2026-08-04T08:43:34.278Z</time>
      </trkpt>
      <trkpt lat="45.96137" lon="6.85507">
        <ele>2522</ele>
        <time>2026-08-04T08:43:35.278Z</time>
      </trkpt>
      <trkpt lat="45.96138" lon="6.85506">
        <ele>2522</ele>
        <time>2026-08-04T08:43:36.278Z</time>
      </trkpt>
      <trkpt lat="45.9614" lon="6.85505">
        <ele>2522</ele>
        <time>2026-08-04T08:43:37.278Z</time>
      </trkpt>
      <trkpt lat="45.96141" lon="6.85505">
        <ele>2522</ele>
        <time>2026-08-04T08:43:38.278Z</time>
      </trkpt>
      <trkpt lat="45.96142" lon="6.85504">
        <ele>2522</ele>
        <time>2026-08-04T08:43:39.278Z</time>
      </trkpt>
      <trkpt lat="45.96144" lon="6.85503">
        <ele>2521</ele>
        <time>2026-08-04T08:43:40.278Z</time>
      </trkpt>
      <trkpt lat="45.96146" lon="6.85502">
        <ele>2521</ele>
        <time>2026-08-04T08:43:41.278Z</time>
      </trkpt>
      <trkpt lat="45.96147" lon="6.855">
        <ele>2521</ele>
        <time>2026-08-04T08:43:42.278Z</time>
      </trkpt>
      <trkpt lat="45.96148" lon="6.85499">
        <ele>2521</ele>
        <time>2026-08-04T08:43:43.278Z</time>
      </trkpt>
      <trkpt lat="45.96149" lon="6.85498">
        <ele>2521</ele>
        <time>2026-08-04T08:43:44.278Z</time>
      </trkpt>
      <trkpt lat="45.9615" lon="6.85498">
        <ele>2520</ele>
        <time>2026-08-04T08:43:45.278Z</time>
      </trkpt>
      <trkpt lat="45.96151" lon="6.85497">
        <ele>2520</ele>
        <time>2026-08-04T08:43:46.278Z</time>
      </trkpt>
      <trkpt lat="45.96152" lon="6.85497">
        <ele>2520</ele>
        <time>2026-08-04T08:43:47.278Z</time>
      </trkpt>
      <trkpt lat="45.96152" lon="6.85495">
        <ele>2520</ele>
        <time>2026-08-04T08:43:48.278Z</time>
      </trkpt>
      <trkpt lat="45.96152" lon="6.85495">
        <ele>2521</ele>
        <time>2026-08-04T08:43:49.278Z</time>
      </trkpt>
      <trkpt lat="45.96153" lon="6.85495">
        <ele>2520</ele>
        <time>2026-08-04T08:43:50.278Z</time>
      </trkpt>
      <trkpt lat="45.96153" lon="6.85495">
        <ele>2520</ele>
        <time>2026-08-04T08:43:51.278Z</time>
      </trkpt>
      <trkpt lat="45.96154" lon="6.85495">
        <ele>2520</ele>
        <time>2026-08-04T08:43:52.278Z</time>
      </trkpt>
      <trkpt lat="45.96154" lon="6.85495">
        <ele>2520</ele>
        <time>2026-08-04T08:43:53.278Z</time>
      </trkpt>
      <trkpt lat="45.96154" lon="6.85494">
        <ele>2521</ele>
        <time>2026-08-04T08:43:54.278Z</time>
      </trkpt>
      <trkpt lat="45.96155" lon="6.85494">
        <ele>2521</ele>
        <time>2026-08-04T08:43:55.278Z</time>
      </trkpt>
      <trkpt lat="45.96156" lon="6.85493">
        <ele>2521</ele>
        <time>2026-08-04T08:43:56.278Z</time>
      </trkpt>
      <trkpt lat="45.96156" lon="6.85493">
        <ele>2522</ele>
        <time>2026-08-04T08:43:57.278Z</time>
      </trkpt>
      <trkpt lat="45.96157" lon="6.85492">
        <ele>2522</ele>
        <time>2026-08-04T08:43:58.278Z</time>
      </trkpt>
      <trkpt lat="45.96158" lon="6.85491">
        <ele>2522</ele>
        <time>2026-08-04T08:43:59.278Z</time>
      </trkpt>
      <trkpt lat="45.96158" lon="6.8549">
        <ele>2522</ele>
        <time>2026-08-04T08:44:00.278Z</time>
      </trkpt>
      <trkpt lat="45.96159" lon="6.8549">
        <ele>2522</ele>
        <time>2026-08-04T08:44:01.278Z</time>
      </trkpt>
      <trkpt lat="45.9616" lon="6.8549">
        <ele>2523</ele>
        <time>2026-08-04T08:44:02.278Z</time>
      </trkpt>
      <trkpt lat="45.9616" lon="6.8549">
        <ele>2523</ele>
        <time>2026-08-04T08:44:03.278Z</time>
      </trkpt>
      <trkpt lat="45.96161" lon="6.8549">
        <ele>2523</ele>
        <time>2026-08-04T08:44:04.278Z</time>
      </trkpt>
      <trkpt lat="45.96161" lon="6.8549">
        <ele>2523</ele>
        <time>2026-08-04T08:44:05.278Z</time>
      </trkpt>
      <trkpt lat="45.96162" lon="6.85489">
        <ele>2524</ele>
        <time>2026-08-04T08:44:06.278Z</time>
      </trkpt>
      <trkpt lat="45.96162" lon="6.85489">
        <ele>2524</ele>
        <time>2026-08-04T08:44:07.278Z</time>
      </trkpt>
      <trkpt lat="45.96163" lon="6.85489">
        <ele>2525</ele>
        <time>2026-08-04T08:44:08.278Z</time>
      </trkpt>
      <trkpt lat="45.96163" lon="6.85489">
        <ele>2525</ele>
        <time>2026-08-04T08:44:09.278Z</time>
      </trkpt>
      <trkpt lat="45.96164" lon="6.85489">
        <ele>2524</ele>
        <time>2026-08-04T08:44:10.278Z</time>
      </trkpt>
      <trkpt lat="45.96165" lon="6.85488">
        <ele>2524</ele>
        <time>2026-08-04T08:44:11.278Z</time>
      </trkpt>
      <trkpt lat="45.96165" lon="6.85488">
        <ele>2524</ele>
        <time>2026-08-04T08:44:12.278Z</time>
      </trkpt>
      <trkpt lat="45.96166" lon="6.85488">
        <ele>2525</ele>
        <time>2026-08-04T08:44:13.278Z</time>
      </trkpt>
      <trkpt lat="45.96166" lon="6.85488">
        <ele>2525</ele>
        <time>2026-08-04T08:44:14.278Z</time>
      </trkpt>
      <trkpt lat="45.96167" lon="6.85488">
        <ele>2526</ele>
        <time>2026-08-04T08:44:15.278Z</time>
      </trkpt>
      <trkpt lat="45.96167" lon="6.85488">
        <ele>2526</ele>
        <time>2026-08-04T08:44:16.278Z</time>
      </trkpt>
      <trkpt lat="45.96168" lon="6.85488">
        <ele>2527</ele>
        <time>2026-08-04T08:44:17.279Z</time>
      </trkpt>
      <trkpt lat="45.96168" lon="6.85488">
        <ele>2527</ele>
        <time>2026-08-04T08:44:18.278Z</time>
      </trkpt>
      <trkpt lat="45.96169" lon="6.85488">
        <ele>2527</ele>
        <time>2026-08-04T08:44:19.278Z</time>
      </trkpt>
      <trkpt lat="45.96169" lon="6.85488">
        <ele>2527</ele>
        <time>2026-08-04T08:44:20.278Z</time>
      </trkpt>
      <trkpt lat="45.9617" lon="6.85488">
        <ele>2528</ele>
        <time>2026-08-04T08:44:21.278Z</time>
      </trkpt>
      <trkpt lat="45.9617" lon="6.85488">
        <ele>2528</ele>
        <time>2026-08-04T08:44:22.278Z</time>
      </trkpt>
      <trkpt lat="45.96171" lon="6.85489">
        <ele>2528</ele>
        <time>2026-08-04T08:44:23.278Z</time>
      </trkpt>
      <trkpt lat="45.96171" lon="6.85489">
        <ele>2528</ele>
        <time>2026-08-04T08:44:24.278Z</time>
      </trkpt>
      <trkpt lat="45.96171" lon="6.85488">
        <ele>2529</ele>
        <time>2026-08-04T08:44:25.278Z</time>
      </trkpt>
      <trkpt lat="45.96171" lon="6.85488">
        <ele>2529</ele>
        <time>2026-08-04T08:44:26.278Z</time>
      </trkpt>
      <trkpt lat="45.96172" lon="6.85487">
        <ele>2530</ele>
        <time>2026-08-04T08:44:27.278Z</time>
      </trkpt>
      <trkpt lat="45.96172" lon="6.85486">
        <ele>2530</ele>
        <time>2026-08-04T08:44:28.278Z</time>
      </trkpt>
      <trkpt lat="45.96172" lon="6.85486">
        <ele>2531</ele>
        <time>2026-08-04T08:44:29.278Z</time>
      </trkpt>
      <trkpt lat="45.96173" lon="6.85487">
        <ele>2531</ele>
        <time>2026-08-04T08:44:30.278Z</time>
      </trkpt>
      <trkpt lat="45.96173" lon="6.85487">
        <ele>2531</ele>
        <time>2026-08-04T08:44:31.278Z</time>
      </trkpt>
      <trkpt lat="45.96173" lon="6.85488">
        <ele>2531</ele>
        <time>2026-08-04T08:44:32.278Z</time>
      </trkpt>
      <trkpt lat="45.96174" lon="6.85488">
        <ele>2531</ele>
        <time>2026-08-04T08:44:33.278Z</time>
      </trkpt>
      <trkpt lat="45.96174" lon="6.85488">
        <ele>2531</ele>
        <time>2026-08-04T08:44:34.278Z</time>
      </trkpt>
      <trkpt lat="45.96175" lon="6.85488">
        <ele>2531</ele>
        <time>2026-08-04T08:44:35.278Z</time>
      </trkpt>
      <trkpt lat="45.96176" lon="6.85488">
        <ele>2532</ele>
        <time>2026-08-04T08:44:36.278Z</time>
      </trkpt>
      <trkpt lat="45.96177" lon="6.85488">
        <ele>2532</ele>
        <time>2026-08-04T08:44:37.278Z</time>
      </trkpt>
      <trkpt lat="45.96177" lon="6.85487">
        <ele>2532</ele>
        <time>2026-08-04T08:44:38.278Z</time>
      </trkpt>
      <trkpt lat="45.96177" lon="6.85486">
        <ele>2532</ele>
        <time>2026-08-04T08:44:39.278Z</time>
      </trkpt>
      <trkpt lat="45.96177" lon="6.85486">
        <ele>2532</ele>
        <time>2026-08-04T08:44:40.278Z</time>
      </trkpt>
      <trkpt lat="45.96177" lon="6.85485">
        <ele>2533</ele>
        <time>2026-08-04T08:44:41.278Z</time>
      </trkpt>
      <trkpt lat="45.96177" lon="6.85484">
        <ele>2533</ele>
        <time>2026-08-04T08:44:42.278Z</time>
      </trkpt>
      <trkpt lat="45.96177" lon="6.85484">
        <ele>2533</ele>
        <time>2026-08-04T08:44:43.278Z</time>
      </trkpt>
      <trkpt lat="45.96177" lon="6.85483">
        <ele>2533</ele>
        <time>2026-08-04T08:44:44.278Z</time>
      </trkpt>
      <trkpt lat="45.96178" lon="6.85482">
        <ele>2533</ele>
        <time>2026-08-04T08:44:45.278Z</time>
      </trkpt>
      <trkpt lat="45.96178" lon="6.85482">
        <ele>2534</ele>
        <time>2026-08-04T08:44:46.278Z</time>
      </trkpt>
      <trkpt lat="45.96179" lon="6.85482">
        <ele>2534</ele>
        <time>2026-08-04T08:44:47.278Z</time>
      </trkpt>
      <trkpt lat="45.96179" lon="6.85483">
        <ele>2534</ele>
        <time>2026-08-04T08:44:48.278Z</time>
      </trkpt>
      <trkpt lat="45.9618" lon="6.85484">
        <ele>2534</ele>
        <time>2026-08-04T08:44:49.278Z</time>
      </trkpt>
      <trkpt lat="45.9618" lon="6.85484">
        <ele>2534</ele>
        <time>2026-08-04T08:44:50.278Z</time>
      </trkpt>
      <trkpt lat="45.9618" lon="6.85483">
        <ele>2534</ele>
        <time>2026-08-04T08:44:51.278Z</time>
      </trkpt>
      <trkpt lat="45.96181" lon="6.85483">
        <ele>2534</ele>
        <time>2026-08-04T08:44:52.278Z</time>
      </trkpt>
      <trkpt lat="45.96181" lon="6.85483">
        <ele>2534</ele>
        <time>2026-08-04T08:44:53.278Z</time>
      </trkpt>
      <trkpt lat="45.96181" lon="6.85483">
        <ele>2534</ele>
        <time>2026-08-04T08:44:54.278Z</time>
      </trkpt>
      <trkpt lat="45.96182" lon="6.85483">
        <ele>2533</ele>
        <time>2026-08-04T08:44:55.278Z</time>
      </trkpt>
      <trkpt lat="45.96183" lon="6.85483">
        <ele>2533</ele>
        <time>2026-08-04T08:44:56.278Z</time>
      </trkpt>
      <trkpt lat="45.96183" lon="6.85484">
        <ele>2534</ele>
        <time>2026-08-04T08:44:57.278Z</time>
      </trkpt>
      <trkpt lat="45.96183" lon="6.85485">
        <ele>2534</ele>
        <time>2026-08-04T08:44:58.278Z</time>
      </trkpt>
      <trkpt lat="45.96184" lon="6.85486">
        <ele>2534</ele>
        <time>2026-08-04T08:44:59.278Z</time>
      </trkpt>
      <trkpt lat="45.96184" lon="6.85487">
        <ele>2535</ele>
        <time>2026-08-04T08:45:00.278Z</time>
      </trkpt>
      <trkpt lat="45.96184" lon="6.85487">
        <ele>2535</ele>
        <time>2026-08-04T08:45:01.278Z</time>
      </trkpt>
      <trkpt lat="45.96184" lon="6.85487">
        <ele>2535</ele>
        <time>2026-08-04T08:45:02.278Z</time>
      </trkpt>
      <trkpt lat="45.96185" lon="6.85487">
        <ele>2536</ele>
        <time>2026-08-04T08:45:03.278Z</time>
      </trkpt>
      <trkpt lat="45.96185" lon="6.85488">
        <ele>2536</ele>
        <time>2026-08-04T08:45:04.278Z</time>
      </trkpt>
      <trkpt lat="45.96186" lon="6.85488">
        <ele>2536</ele>
        <time>2026-08-04T08:45:05.278Z</time>
      </trkpt>
      <trkpt lat="45.96186" lon="6.85489">
        <ele>2536</ele>
        <time>2026-08-04T08:45:06.278Z</time>
      </trkpt>
      <trkpt lat="45.96186" lon="6.85489">
        <ele>2537</ele>
        <time>2026-08-04T08:45:07.278Z</time>
      </trkpt>
      <trkpt lat="45.96187" lon="6.85489">
        <ele>2537</ele>
        <time>2026-08-04T08:45:08.278Z</time>
      </trkpt>
      <trkpt lat="45.96187" lon="6.8549">
        <ele>2537</ele>
        <time>2026-08-04T08:45:09.278Z</time>
      </trkpt>
      <trkpt lat="45.96187" lon="6.8549">
        <ele>2537</ele>
        <time>2026-08-04T08:45:10.278Z</time>
      </trkpt>
      <trkpt lat="45.96188" lon="6.85491">
        <ele>2538</ele>
        <time>2026-08-04T08:45:11.278Z</time>
      </trkpt>
      <trkpt lat="45.96188" lon="6.85491">
        <ele>2538</ele>
        <time>2026-08-04T08:45:12.278Z</time>
      </trkpt>
      <trkpt lat="45.96189" lon="6.8549">
        <ele>2538</ele>
        <time>2026-08-04T08:45:13.278Z</time>
      </trkpt>
      <trkpt lat="45.96189" lon="6.8549">
        <ele>2538</ele>
        <time>2026-08-04T08:45:14.278Z</time>
      </trkpt>
      <trkpt lat="45.9619" lon="6.85491">
        <ele>2538</ele>
        <time>2026-08-04T08:45:15.278Z</time>
      </trkpt>
      <trkpt lat="45.9619" lon="6.85491">
        <ele>2538</ele>
        <time>2026-08-04T08:45:16.278Z</time>
      </trkpt>
      <trkpt lat="45.96191" lon="6.85492">
        <ele>2539</ele>
        <time>2026-08-04T08:45:17.278Z</time>
      </trkpt>
      <trkpt lat="45.96191" lon="6.85492">
        <ele>2539</ele>
        <time>2026-08-04T08:45:18.278Z</time>
      </trkpt>
      <trkpt lat="45.96191" lon="6.85492">
        <ele>2539</ele>
        <time>2026-08-04T08:45:19.278Z</time>
      </trkpt>
      <trkpt lat="45.96192" lon="6.85491">
        <ele>2540</ele>
        <time>2026-08-04T08:45:20.278Z</time>
      </trkpt>
      <trkpt lat="45.96192" lon="6.8549">
        <ele>2541</ele>
        <time>2026-08-04T08:45:21.278Z</time>
      </trkpt>
      <trkpt lat="45.96193" lon="6.8549">
        <ele>2541</ele>
        <time>2026-08-04T08:45:22.278Z</time>
      </trkpt>
      <trkpt lat="45.96194" lon="6.85489">
        <ele>2542</ele>
        <time>2026-08-04T08:45:23.278Z</time>
      </trkpt>
      <trkpt lat="45.96194" lon="6.85489">
        <ele>2542</ele>
        <time>2026-08-04T08:45:24.278Z</time>
      </trkpt>
      <trkpt lat="45.96195" lon="6.85489">
        <ele>2543</ele>
        <time>2026-08-04T08:45:25.278Z</time>
      </trkpt>
      <trkpt lat="45.96196" lon="6.85488">
        <ele>2543</ele>
        <time>2026-08-04T08:45:26.278Z</time>
      </trkpt>
      <trkpt lat="45.96197" lon="6.85488">
        <ele>2543</ele>
        <time>2026-08-04T08:45:27.278Z</time>
      </trkpt>
      <trkpt lat="45.96198" lon="6.85488">
        <ele>2543</ele>
        <time>2026-08-04T08:45:28.278Z</time>
      </trkpt>
      <trkpt lat="45.96199" lon="6.85487">
        <ele>2543</ele>
        <time>2026-08-04T08:45:29.278Z</time>
      </trkpt>
      <trkpt lat="45.962" lon="6.85486">
        <ele>2543</ele>
        <time>2026-08-04T08:45:30.278Z</time>
      </trkpt>
      <trkpt lat="45.96201" lon="6.85486">
        <ele>2543</ele>
        <time>2026-08-04T08:45:31.278Z</time>
      </trkpt>
      <trkpt lat="45.96202" lon="6.85485">
        <ele>2543</ele>
        <time>2026-08-04T08:45:32.278Z</time>
      </trkpt>
      <trkpt lat="45.96203" lon="6.85485">
        <ele>2543</ele>
        <time>2026-08-04T08:45:33.278Z</time>
      </trkpt>
      <trkpt lat="45.96204" lon="6.85484">
        <ele>2543</ele>
        <time>2026-08-04T08:45:34.278Z</time>
      </trkpt>
      <trkpt lat="45.96205" lon="6.85484">
        <ele>2544</ele>
        <time>2026-08-04T08:45:35.278Z</time>
      </trkpt>
      <trkpt lat="45.96206" lon="6.85484">
        <ele>2544</ele>
        <time>2026-08-04T08:45:36.278Z</time>
      </trkpt>
      <trkpt lat="45.96207" lon="6.85485">
        <ele>2544</ele>
        <time>2026-08-04T08:45:37.278Z</time>
      </trkpt>
      <trkpt lat="45.96208" lon="6.85486">
        <ele>2544</ele>
        <time>2026-08-04T08:45:38.278Z</time>
      </trkpt>
      <trkpt lat="45.96209" lon="6.85486">
        <ele>2544</ele>
        <time>2026-08-04T08:45:39.278Z</time>
      </trkpt>
      <trkpt lat="45.96209" lon="6.85488">
        <ele>2544</ele>
        <time>2026-08-04T08:45:40.278Z</time>
      </trkpt>
      <trkpt lat="45.9621" lon="6.85489">
        <ele>2544</ele>
        <time>2026-08-04T08:45:41.278Z</time>
      </trkpt>
      <trkpt lat="45.96211" lon="6.8549">
        <ele>2544</ele>
        <time>2026-08-04T08:45:42.278Z</time>
      </trkpt>
      <trkpt lat="45.96211" lon="6.85491">
        <ele>2544</ele>
        <time>2026-08-04T08:45:43.278Z</time>
      </trkpt>
      <trkpt lat="45.96212" lon="6.85491">
        <ele>2544</ele>
        <time>2026-08-04T08:45:44.278Z</time>
      </trkpt>
      <trkpt lat="45.96212" lon="6.85491">
        <ele>2544</ele>
        <time>2026-08-04T08:45:45.278Z</time>
      </trkpt>
      <trkpt lat="45.96212" lon="6.85491">
        <ele>2545</ele>
        <time>2026-08-04T08:45:46.278Z</time>
      </trkpt>
      <trkpt lat="45.96212" lon="6.85491">
        <ele>2545</ele>
        <time>2026-08-04T08:45:47.278Z</time>
      </trkpt>
      <trkpt lat="45.96212" lon="6.85491">
        <ele>2546</ele>
        <time>2026-08-04T08:45:48.278Z</time>
      </trkpt>
      <trkpt lat="45.96212" lon="6.85491">
        <ele>2546</ele>
        <time>2026-08-04T08:45:49.278Z</time>
      </trkpt>
      <trkpt lat="45.96212" lon="6.85491">
        <ele>2547</ele>
        <time>2026-08-04T08:45:50.278Z</time>
      </trkpt>
      <trkpt lat="45.96212" lon="6.85491">
        <ele>2547</ele>
        <time>2026-08-04T08:45:51.278Z</time>
      </trkpt>
      <trkpt lat="45.96212" lon="6.85491">
        <ele>2548</ele>
        <time>2026-08-04T08:45:52.278Z</time>
      </trkpt>
      <trkpt lat="45.96212" lon="6.85491">
        <ele>2548</ele>
        <time>2026-08-04T08:45:53.278Z</time>
      </trkpt>
      <trkpt lat="45.96212" lon="6.85491">
        <ele>2547</ele>
        <time>2026-08-04T08:45:54.278Z</time>
      </trkpt>
      <trkpt lat="45.96211" lon="6.8549">
        <ele>2547</ele>
        <time>2026-08-04T08:45:55.278Z</time>
      </trkpt>
      <trkpt lat="45.96211" lon="6.85489">
        <ele>2547</ele>
        <time>2026-08-04T08:45:56.278Z</time>
      </trkpt>
      <trkpt lat="45.96211" lon="6.85488">
        <ele>2547</ele>
        <time>2026-08-04T08:45:57.278Z</time>
      </trkpt>
      <trkpt lat="45.96211" lon="6.85487">
        <ele>2546</ele>
        <time>2026-08-04T08:45:58.278Z</time>
      </trkpt>
      <trkpt lat="45.9621" lon="6.85485">
        <ele>2546</ele>
        <time>2026-08-04T08:45:59.278Z</time>
      </trkpt>
      <trkpt lat="45.96211" lon="6.85484">
        <ele>2546</ele>
        <time>2026-08-04T08:46:00.278Z</time>
      </trkpt>
      <trkpt lat="45.96211" lon="6.85484">
        <ele>2546</ele>
        <time>2026-08-04T08:46:01.278Z</time>
      </trkpt>
      <trkpt lat="45.96212" lon="6.85483">
        <ele>2546</ele>
        <time>2026-08-04T08:46:02.278Z</time>
      </trkpt>
      <trkpt lat="45.96212" lon="6.85483">
        <ele>2547</ele>
        <time>2026-08-04T08:46:03.278Z</time>
      </trkpt>
      <trkpt lat="45.96213" lon="6.85483">
        <ele>2547</ele>
        <time>2026-08-04T08:46:04.278Z</time>
      </trkpt>
      <trkpt lat="45.96213" lon="6.85484">
        <ele>2547</ele>
        <time>2026-08-04T08:46:05.278Z</time>
      </trkpt>
      <trkpt lat="45.96214" lon="6.85485">
        <ele>2547</ele>
        <time>2026-08-04T08:46:06.278Z</time>
      </trkpt>
      <trkpt lat="45.96214" lon="6.85485">
        <ele>2547</ele>
        <time>2026-08-04T08:46:07.278Z</time>
      </trkpt>
      <trkpt lat="45.96214" lon="6.85486">
        <ele>2547</ele>
        <time>2026-08-04T08:46:08.278Z</time>
      </trkpt>
      <trkpt lat="45.96214" lon="6.85486">
        <ele>2548</ele>
        <time>2026-08-04T08:46:09.278Z</time>
      </trkpt>
      <trkpt lat="45.96214" lon="6.85486">
        <ele>2549</ele>
        <time>2026-08-04T08:46:10.278Z</time>
      </trkpt>
      <trkpt lat="45.96214" lon="6.85486">
        <ele>2550</ele>
        <time>2026-08-04T08:46:11.278Z</time>
      </trkpt>
      <trkpt lat="45.96214" lon="6.85486">
        <ele>2550</ele>
        <time>2026-08-04T08:46:12.278Z</time>
      </trkpt>
      <trkpt lat="45.96214" lon="6.85485">
        <ele>2551</ele>
        <time>2026-08-04T08:46:13.278Z</time>
      </trkpt>
      <trkpt lat="45.96214" lon="6.85485">
        <ele>2551</ele>
        <time>2026-08-04T08:46:14.278Z</time>
      </trkpt>
      <trkpt lat="45.96214" lon="6.85484">
        <ele>2552</ele>
        <time>2026-08-04T08:46:15.278Z</time>
      </trkpt>
      <trkpt lat="45.96214" lon="6.85484">
        <ele>2552</ele>
        <time>2026-08-04T08:46:16.278Z</time>
      </trkpt>
      <trkpt lat="45.96214" lon="6.85483">
        <ele>2552</ele>
        <time>2026-08-04T08:46:17.278Z</time>
      </trkpt>
      <trkpt lat="45.96215" lon="6.85482">
        <ele>2552</ele>
        <time>2026-08-04T08:46:18.278Z</time>
      </trkpt>
      <trkpt lat="45.96215" lon="6.85482">
        <ele>2552</ele>
        <time>2026-08-04T08:46:19.278Z</time>
      </trkpt>
      <trkpt lat="45.96216" lon="6.85481">
        <ele>2552</ele>
        <time>2026-08-04T08:46:20.278Z</time>
      </trkpt>
      <trkpt lat="45.96216" lon="6.85481">
        <ele>2552</ele>
        <time>2026-08-04T08:46:21.278Z</time>
      </trkpt>
      <trkpt lat="45.96217" lon="6.85481">
        <ele>2551</ele>
        <time>2026-08-04T08:46:22.278Z</time>
      </trkpt>
      <trkpt lat="45.96217" lon="6.85481">
        <ele>2551</ele>
        <time>2026-08-04T08:46:23.278Z</time>
      </trkpt>
      <trkpt lat="45.96218" lon="6.8548">
        <ele>2550</ele>
        <time>2026-08-04T08:46:24.278Z</time>
      </trkpt>
      <trkpt lat="45.96218" lon="6.8548">
        <ele>2550</ele>
        <time>2026-08-04T08:46:25.278Z</time>
      </trkpt>
      <trkpt lat="45.96219" lon="6.85479">
        <ele>2551</ele>
        <time>2026-08-04T08:46:26.278Z</time>
      </trkpt>
      <trkpt lat="45.9622" lon="6.85478">
        <ele>2551</ele>
        <time>2026-08-04T08:46:27.278Z</time>
      </trkpt>
      <trkpt lat="45.96221" lon="6.85478">
        <ele>2551</ele>
        <time>2026-08-04T08:46:28.278Z</time>
      </trkpt>
      <trkpt lat="45.96222" lon="6.85477">
        <ele>2552</ele>
        <time>2026-08-04T08:46:29.278Z</time>
      </trkpt>
      <trkpt lat="45.96223" lon="6.85477">
        <ele>2552</ele>
        <time>2026-08-04T08:46:30.278Z</time>
      </trkpt>
      <trkpt lat="45.96224" lon="6.85477">
        <ele>2552</ele>
        <time>2026-08-04T08:46:31.278Z</time>
      </trkpt>
      <trkpt lat="45.96225" lon="6.85477">
        <ele>2552</ele>
        <time>2026-08-04T08:46:32.278Z</time>
      </trkpt>
      <trkpt lat="45.96227" lon="6.85477">
        <ele>2553</ele>
        <time>2026-08-04T08:46:33.278Z</time>
      </trkpt>
      <trkpt lat="45.96227" lon="6.85476">
        <ele>2553</ele>
        <time>2026-08-04T08:46:34.278Z</time>
      </trkpt>
      <trkpt lat="45.96228" lon="6.85476">
        <ele>2553</ele>
        <time>2026-08-04T08:46:35.278Z</time>
      </trkpt>
      <trkpt lat="45.96229" lon="6.85475">
        <ele>2553</ele>
        <time>2026-08-04T08:46:36.278Z</time>
      </trkpt>
      <trkpt lat="45.9623" lon="6.85475">
        <ele>2553</ele>
        <time>2026-08-04T08:46:37.278Z</time>
      </trkpt>
      <trkpt lat="45.96231" lon="6.85475">
        <ele>2552</ele>
        <time>2026-08-04T08:46:38.278Z</time>
      </trkpt>
      <trkpt lat="45.96232" lon="6.85475">
        <ele>2552</ele>
        <time>2026-08-04T08:46:39.278Z</time>
      </trkpt>
      <trkpt lat="45.96233" lon="6.85475">
        <ele>2552</ele>
        <time>2026-08-04T08:46:40.278Z</time>
      </trkpt>
      <trkpt lat="45.96234" lon="6.85475">
        <ele>2552</ele>
        <time>2026-08-04T08:46:41.278Z</time>
      </trkpt>
      <trkpt lat="45.96235" lon="6.85475">
        <ele>2552</ele>
        <time>2026-08-04T08:46:42.278Z</time>
      </trkpt>
      <trkpt lat="45.96235" lon="6.85474">
        <ele>2552</ele>
        <time>2026-08-04T08:46:43.278Z</time>
      </trkpt>
      <trkpt lat="45.96236" lon="6.85473">
        <ele>2552</ele>
        <time>2026-08-04T08:46:44.278Z</time>
      </trkpt>
      <trkpt lat="45.96237" lon="6.85473">
        <ele>2552</ele>
        <time>2026-08-04T08:46:45.278Z</time>
      </trkpt>
      <trkpt lat="45.96238" lon="6.85473">
        <ele>2552</ele>
        <time>2026-08-04T08:46:46.278Z</time>
      </trkpt>
      <trkpt lat="45.9624" lon="6.85473">
        <ele>2552</ele>
        <time>2026-08-04T08:46:47.278Z</time>
      </trkpt>
      <trkpt lat="45.96241" lon="6.85473">
        <ele>2552</ele>
        <time>2026-08-04T08:46:48.278Z</time>
      </trkpt>
      <trkpt lat="45.96242" lon="6.85474">
        <ele>2552</ele>
        <time>2026-08-04T08:46:49.278Z</time>
      </trkpt>
      <trkpt lat="45.96243" lon="6.85474">
        <ele>2552</ele>
        <time>2026-08-04T08:46:50.278Z</time>
      </trkpt>
      <trkpt lat="45.96244" lon="6.85475">
        <ele>2552</ele>
        <time>2026-08-04T08:46:51.278Z</time>
      </trkpt>
      <trkpt lat="45.96245" lon="6.85475">
        <ele>2552</ele>
        <time>2026-08-04T08:46:52.278Z</time>
      </trkpt>
      <trkpt lat="45.96245" lon="6.85475">
        <ele>2552</ele>
        <time>2026-08-04T08:46:53.278Z</time>
      </trkpt>
      <trkpt lat="45.96246" lon="6.85475">
        <ele>2552</ele>
        <time>2026-08-04T08:46:54.278Z</time>
      </trkpt>
      <trkpt lat="45.96247" lon="6.85475">
        <ele>2552</ele>
        <time>2026-08-04T08:46:55.278Z</time>
      </trkpt>
      <trkpt lat="45.96248" lon="6.85475">
        <ele>2552</ele>
        <time>2026-08-04T08:46:56.278Z</time>
      </trkpt>
      <trkpt lat="45.96249" lon="6.85475">
        <ele>2552</ele>
        <time>2026-08-04T08:46:57.278Z</time>
      </trkpt>
      <trkpt lat="45.9625" lon="6.85474">
        <ele>2552</ele>
        <time>2026-08-04T08:46:58.278Z</time>
      </trkpt>
      <trkpt lat="45.9625" lon="6.85473">
        <ele>2553</ele>
        <time>2026-08-04T08:46:59.278Z</time>
      </trkpt>
      <trkpt lat="45.96251" lon="6.85472">
        <ele>2553</ele>
        <time>2026-08-04T08:47:00.278Z</time>
      </trkpt>
      <trkpt lat="45.96252" lon="6.85471">
        <ele>2554</ele>
        <time>2026-08-04T08:47:01.278Z</time>
      </trkpt>
      <trkpt lat="45.96252" lon="6.85471">
        <ele>2554</ele>
        <time>2026-08-04T08:47:02.278Z</time>
      </trkpt>
      <trkpt lat="45.96253" lon="6.85471">
        <ele>2554</ele>
        <time>2026-08-04T08:47:03.278Z</time>
      </trkpt>
      <trkpt lat="45.96254" lon="6.85471">
        <ele>2555</ele>
        <time>2026-08-04T08:47:04.278Z</time>
      </trkpt>
      <trkpt lat="45.96255" lon="6.85471">
        <ele>2555</ele>
        <time>2026-08-04T08:47:05.278Z</time>
      </trkpt>
      <trkpt lat="45.96256" lon="6.85471">
        <ele>2555</ele>
        <time>2026-08-04T08:47:06.278Z</time>
      </trkpt>
      <trkpt lat="45.96257" lon="6.8547">
        <ele>2555</ele>
        <time>2026-08-04T08:47:07.278Z</time>
      </trkpt>
      <trkpt lat="45.96258" lon="6.8547">
        <ele>2555</ele>
        <time>2026-08-04T08:47:08.278Z</time>
      </trkpt>
      <trkpt lat="45.96259" lon="6.8547">
        <ele>2556</ele>
        <time>2026-08-04T08:47:09.278Z</time>
      </trkpt>
      <trkpt lat="45.9626" lon="6.8547">
        <ele>2556</ele>
        <time>2026-08-04T08:47:10.278Z</time>
      </trkpt>
      <trkpt lat="45.96261" lon="6.85471">
        <ele>2556</ele>
        <time>2026-08-04T08:47:11.278Z</time>
      </trkpt>
      <trkpt lat="45.96262" lon="6.85472">
        <ele>2556</ele>
        <time>2026-08-04T08:47:12.278Z</time>
      </trkpt>
      <trkpt lat="45.96264" lon="6.85473">
        <ele>2556</ele>
        <time>2026-08-04T08:47:13.278Z</time>
      </trkpt>
      <trkpt lat="45.96264" lon="6.85473">
        <ele>2556</ele>
        <time>2026-08-04T08:47:14.278Z</time>
      </trkpt>
      <trkpt lat="45.96266" lon="6.85473">
        <ele>2555</ele>
        <time>2026-08-04T08:47:15.278Z</time>
      </trkpt>
      <trkpt lat="45.96267" lon="6.85473">
        <ele>2555</ele>
        <time>2026-08-04T08:47:16.278Z</time>
      </trkpt>
      <trkpt lat="45.96268" lon="6.85474">
        <ele>2555</ele>
        <time>2026-08-04T08:47:17.278Z</time>
      </trkpt>
      <trkpt lat="45.96269" lon="6.85476">
        <ele>2555</ele>
        <time>2026-08-04T08:47:18.278Z</time>
      </trkpt>
      <trkpt lat="45.9627" lon="6.85476">
        <ele>2555</ele>
        <time>2026-08-04T08:47:19.278Z</time>
      </trkpt>
      <trkpt lat="45.96271" lon="6.85477">
        <ele>2555</ele>
        <time>2026-08-04T08:47:20.278Z</time>
      </trkpt>
      <trkpt lat="45.96272" lon="6.85478">
        <ele>2555</ele>
        <time>2026-08-04T08:47:21.278Z</time>
      </trkpt>
      <trkpt lat="45.96273" lon="6.85478">
        <ele>2555</ele>
        <time>2026-08-04T08:47:22.278Z</time>
      </trkpt>
      <trkpt lat="45.96275" lon="6.85479">
        <ele>2555</ele>
        <time>2026-08-04T08:47:23.278Z</time>
      </trkpt>
      <trkpt lat="45.96275" lon="6.8548">
        <ele>2555</ele>
        <time>2026-08-04T08:47:24.278Z</time>
      </trkpt>
      <trkpt lat="45.96276" lon="6.85481">
        <ele>2556</ele>
        <time>2026-08-04T08:47:25.278Z</time>
      </trkpt>
      <trkpt lat="45.96277" lon="6.85481">
        <ele>2555</ele>
        <time>2026-08-04T08:47:26.278Z</time>
      </trkpt>
      <trkpt lat="45.96278" lon="6.85481">
        <ele>2555</ele>
        <time>2026-08-04T08:47:27.278Z</time>
      </trkpt>
      <trkpt lat="45.96279" lon="6.8548">
        <ele>2555</ele>
        <time>2026-08-04T08:47:28.278Z</time>
      </trkpt>
      <trkpt lat="45.96279" lon="6.85479">
        <ele>2555</ele>
        <time>2026-08-04T08:47:29.278Z</time>
      </trkpt>
      <trkpt lat="45.9628" lon="6.85479">
        <ele>2555</ele>
        <time>2026-08-04T08:47:30.278Z</time>
      </trkpt>
      <trkpt lat="45.96281" lon="6.85478">
        <ele>2555</ele>
        <time>2026-08-04T08:47:31.278Z</time>
      </trkpt>
      <trkpt lat="45.96282" lon="6.85477">
        <ele>2555</ele>
        <time>2026-08-04T08:47:32.278Z</time>
      </trkpt>
      <trkpt lat="45.96284" lon="6.85477">
        <ele>2555</ele>
        <time>2026-08-04T08:47:33.278Z</time>
      </trkpt>
      <trkpt lat="45.96284" lon="6.85476">
        <ele>2555</ele>
        <time>2026-08-04T08:47:34.278Z</time>
      </trkpt>
      <trkpt lat="45.96285" lon="6.85475">
        <ele>2556</ele>
        <time>2026-08-04T08:47:35.278Z</time>
      </trkpt>
      <trkpt lat="45.96286" lon="6.85475">
        <ele>2556</ele>
        <time>2026-08-04T08:47:36.278Z</time>
      </trkpt>
      <trkpt lat="45.96287" lon="6.85474">
        <ele>2557</ele>
        <time>2026-08-04T08:47:37.278Z</time>
      </trkpt>
      <trkpt lat="45.96288" lon="6.85473">
        <ele>2558</ele>
        <time>2026-08-04T08:47:38.278Z</time>
      </trkpt>
      <trkpt lat="45.96288" lon="6.85473">
        <ele>2558</ele>
        <time>2026-08-04T08:47:39.278Z</time>
      </trkpt>
      <trkpt lat="45.96289" lon="6.85472">
        <ele>2559</ele>
        <time>2026-08-04T08:47:40.278Z</time>
      </trkpt>
      <trkpt lat="45.96291" lon="6.85472">
        <ele>2559</ele>
        <time>2026-08-04T08:47:41.278Z</time>
      </trkpt>
      <trkpt lat="45.96292" lon="6.85472">
        <ele>2560</ele>
        <time>2026-08-04T08:47:42.278Z</time>
      </trkpt>
      <trkpt lat="45.96293" lon="6.85472">
        <ele>2560</ele>
        <time>2026-08-04T08:47:43.278Z</time>
      </trkpt>
      <trkpt lat="45.96294" lon="6.85471">
        <ele>2560</ele>
        <time>2026-08-04T08:47:44.278Z</time>
      </trkpt>
      <trkpt lat="45.96295" lon="6.85471">
        <ele>2560</ele>
        <time>2026-08-04T08:47:45.278Z</time>
      </trkpt>
      <trkpt lat="45.96296" lon="6.8547">
        <ele>2560</ele>
        <time>2026-08-04T08:47:46.278Z</time>
      </trkpt>
      <trkpt lat="45.96297" lon="6.8547">
        <ele>2561</ele>
        <time>2026-08-04T08:47:47.278Z</time>
      </trkpt>
      <trkpt lat="45.96298" lon="6.8547">
        <ele>2561</ele>
        <time>2026-08-04T08:47:48.278Z</time>
      </trkpt>
      <trkpt lat="45.96299" lon="6.8547">
        <ele>2562</ele>
        <time>2026-08-04T08:47:49.278Z</time>
      </trkpt>
      <trkpt lat="45.96299" lon="6.8547">
        <ele>2562</ele>
        <time>2026-08-04T08:47:50.278Z</time>
      </trkpt>
      <trkpt lat="45.963" lon="6.85469">
        <ele>2562</ele>
        <time>2026-08-04T08:47:51.278Z</time>
      </trkpt>
      <trkpt lat="45.96301" lon="6.85469">
        <ele>2563</ele>
        <time>2026-08-04T08:47:52.278Z</time>
      </trkpt>
      <trkpt lat="45.96302" lon="6.85468">
        <ele>2563</ele>
        <time>2026-08-04T08:47:53.278Z</time>
      </trkpt>
      <trkpt lat="45.96303" lon="6.85468">
        <ele>2563</ele>
        <time>2026-08-04T08:47:54.278Z</time>
      </trkpt>
      <trkpt lat="45.96304" lon="6.85468">
        <ele>2564</ele>
        <time>2026-08-04T08:47:55.278Z</time>
      </trkpt>
      <trkpt lat="45.96306" lon="6.85467">
        <ele>2564</ele>
        <time>2026-08-04T08:47:56.278Z</time>
      </trkpt>
      <trkpt lat="45.96307" lon="6.85467">
        <ele>2564</ele>
        <time>2026-08-04T08:47:57.278Z</time>
      </trkpt>
      <trkpt lat="45.96308" lon="6.85467">
        <ele>2564</ele>
        <time>2026-08-04T08:47:58.278Z</time>
      </trkpt>
      <trkpt lat="45.96309" lon="6.85467">
        <ele>2564</ele>
        <time>2026-08-04T08:47:59.278Z</time>
      </trkpt>
      <trkpt lat="45.9631" lon="6.85467">
        <ele>2564</ele>
        <time>2026-08-04T08:48:00.278Z</time>
      </trkpt>
      <trkpt lat="45.96311" lon="6.85467">
        <ele>2563</ele>
        <time>2026-08-04T08:48:01.278Z</time>
      </trkpt>
      <trkpt lat="45.96311" lon="6.85466">
        <ele>2563</ele>
        <time>2026-08-04T08:48:02.278Z</time>
      </trkpt>
      <trkpt lat="45.96312" lon="6.85466">
        <ele>2563</ele>
        <time>2026-08-04T08:48:03.278Z</time>
      </trkpt>
      <trkpt lat="45.96313" lon="6.85466">
        <ele>2563</ele>
        <time>2026-08-04T08:48:04.278Z</time>
      </trkpt>
      <trkpt lat="45.96314" lon="6.85465">
        <ele>2563</ele>
        <time>2026-08-04T08:48:05.278Z</time>
      </trkpt>
      <trkpt lat="45.96315" lon="6.85464">
        <ele>2564</ele>
        <time>2026-08-04T08:48:06.278Z</time>
      </trkpt>
      <trkpt lat="45.96315" lon="6.85464">
        <ele>2564</ele>
        <time>2026-08-04T08:48:07.278Z</time>
      </trkpt>
      <trkpt lat="45.96316" lon="6.85463">
        <ele>2564</ele>
        <time>2026-08-04T08:48:08.278Z</time>
      </trkpt>
      <trkpt lat="45.96317" lon="6.85463">
        <ele>2564</ele>
        <time>2026-08-04T08:48:09.278Z</time>
      </trkpt>
      <trkpt lat="45.96317" lon="6.85462">
        <ele>2563</ele>
        <time>2026-08-04T08:48:10.278Z</time>
      </trkpt>
      <trkpt lat="45.96317" lon="6.85461">
        <ele>2563</ele>
        <time>2026-08-04T08:48:11.278Z</time>
      </trkpt>
      <trkpt lat="45.96318" lon="6.8546">
        <ele>2563</ele>
        <time>2026-08-04T08:48:12.278Z</time>
      </trkpt>
      <trkpt lat="45.96318" lon="6.85458">
        <ele>2563</ele>
        <time>2026-08-04T08:48:13.278Z</time>
      </trkpt>
      <trkpt lat="45.96319" lon="6.85457">
        <ele>2562</ele>
        <time>2026-08-04T08:48:14.278Z</time>
      </trkpt>
      <trkpt lat="45.96319" lon="6.85456">
        <ele>2562</ele>
        <time>2026-08-04T08:48:15.278Z</time>
      </trkpt>
      <trkpt lat="45.96321" lon="6.85455">
        <ele>2561</ele>
        <time>2026-08-04T08:48:16.278Z</time>
      </trkpt>
      <trkpt lat="45.96322" lon="6.85454">
        <ele>2561</ele>
        <time>2026-08-04T08:48:17.278Z</time>
      </trkpt>
      <trkpt lat="45.96323" lon="6.85455">
        <ele>2560</ele>
        <time>2026-08-04T08:48:18.278Z</time>
      </trkpt>
      <trkpt lat="45.96324" lon="6.85455">
        <ele>2560</ele>
        <time>2026-08-04T08:48:19.278Z</time>
      </trkpt>
      <trkpt lat="45.96325" lon="6.85455">
        <ele>2560</ele>
        <time>2026-08-04T08:48:20.278Z</time>
      </trkpt>
      <trkpt lat="45.96327" lon="6.85455">
        <ele>2559</ele>
        <time>2026-08-04T08:48:21.278Z</time>
      </trkpt>
      <trkpt lat="45.96328" lon="6.85454">
        <ele>2559</ele>
        <time>2026-08-04T08:48:22.278Z</time>
      </trkpt>
      <trkpt lat="45.9633" lon="6.85454">
        <ele>2559</ele>
        <time>2026-08-04T08:48:23.278Z</time>
      </trkpt>
      <trkpt lat="45.96332" lon="6.85453">
        <ele>2559</ele>
        <time>2026-08-04T08:48:24.278Z</time>
      </trkpt>
      <trkpt lat="45.96333" lon="6.85452">
        <ele>2559</ele>
        <time>2026-08-04T08:48:25.278Z</time>
      </trkpt>
      <trkpt lat="45.96335" lon="6.85452">
        <ele>2559</ele>
        <time>2026-08-04T08:48:26.278Z</time>
      </trkpt>
      <trkpt lat="45.96336" lon="6.85451">
        <ele>2559</ele>
        <time>2026-08-04T08:48:27.278Z</time>
      </trkpt>
      <trkpt lat="45.96338" lon="6.85451">
        <ele>2558</ele>
        <time>2026-08-04T08:48:28.278Z</time>
      </trkpt>
      <trkpt lat="45.9634" lon="6.8545">
        <ele>2558</ele>
        <time>2026-08-04T08:48:29.278Z</time>
      </trkpt>
      <trkpt lat="45.9634" lon="6.85449">
        <ele>2557</ele>
        <time>2026-08-04T08:48:30.278Z</time>
      </trkpt>
      <trkpt lat="45.96341" lon="6.85449">
        <ele>2557</ele>
        <time>2026-08-04T08:48:31.278Z</time>
      </trkpt>
      <trkpt lat="45.96341" lon="6.85448">
        <ele>2557</ele>
        <time>2026-08-04T08:48:32.278Z</time>
      </trkpt>
      <trkpt lat="45.96342" lon="6.85448">
        <ele>2556</ele>
        <time>2026-08-04T08:48:33.278Z</time>
      </trkpt>
      <trkpt lat="45.96342" lon="6.85448">
        <ele>2556</ele>
        <time>2026-08-04T08:48:34.278Z</time>
      </trkpt>
      <trkpt lat="45.96342" lon="6.85448">
        <ele>2556</ele>
        <time>2026-08-04T08:48:35.278Z</time>
      </trkpt>
      <trkpt lat="45.96342" lon="6.85447">
        <ele>2556</ele>
        <time>2026-08-04T08:48:36.278Z</time>
      </trkpt>
      <trkpt lat="45.96342" lon="6.85447">
        <ele>2555</ele>
        <time>2026-08-04T08:48:37.278Z</time>
      </trkpt>
      <trkpt lat="45.96342" lon="6.85447">
        <ele>2555</ele>
        <time>2026-08-04T08:48:38.278Z</time>
      </trkpt>
      <trkpt lat="45.96342" lon="6.85447">
        <ele>2555</ele>
        <time>2026-08-04T08:48:39.278Z</time>
      </trkpt>
      <trkpt lat="45.96342" lon="6.85446">
        <ele>2556</ele>
        <time>2026-08-04T08:48:40.278Z</time>
      </trkpt>
      <trkpt lat="45.96342" lon="6.85446">
        <ele>2556</ele>
        <time>2026-08-04T08:48:41.278Z</time>
      </trkpt>
      <trkpt lat="45.96342" lon="6.85446">
        <ele>2555</ele>
        <time>2026-08-04T08:48:42.278Z</time>
      </trkpt>
      <trkpt lat="45.96342" lon="6.85445">
        <ele>2556</ele>
        <time>2026-08-04T08:48:43.278Z</time>
      </trkpt>
      <trkpt lat="45.96342" lon="6.85444">
        <ele>2556</ele>
        <time>2026-08-04T08:48:44.278Z</time>
      </trkpt>
      <trkpt lat="45.96342" lon="6.85443">
        <ele>2556</ele>
        <time>2026-08-04T08:48:45.278Z</time>
      </trkpt>
      <trkpt lat="45.96342" lon="6.85443">
        <ele>2556</ele>
        <time>2026-08-04T08:48:46.278Z</time>
      </trkpt>
      <trkpt lat="45.96342" lon="6.85442">
        <ele>2556</ele>
        <time>2026-08-04T08:48:47.278Z</time>
      </trkpt>
      <trkpt lat="45.96343" lon="6.85442">
        <ele>2556</ele>
        <time>2026-08-04T08:48:48.278Z</time>
      </trkpt>
      <trkpt lat="45.96343" lon="6.85442">
        <ele>2556</ele>
        <time>2026-08-04T08:48:49.278Z</time>
      </trkpt>
      <trkpt lat="45.96343" lon="6.85442">
        <ele>2556</ele>
        <time>2026-08-04T08:48:50.278Z</time>
      </trkpt>
      <trkpt lat="45.96343" lon="6.85442">
        <ele>2556</ele>
        <time>2026-08-04T08:48:51.278Z</time>
      </trkpt>
      <trkpt lat="45.96343" lon="6.85442">
        <ele>2556</ele>
        <time>2026-08-04T08:48:52.278Z</time>
      </trkpt>
      <trkpt lat="45.96343" lon="6.85442">
        <ele>2556</ele>
        <time>2026-08-04T08:48:53.278Z</time>
      </trkpt>
      <trkpt lat="45.96343" lon="6.85442">
        <ele>2555</ele>
        <time>2026-08-04T08:48:54.278Z</time>
      </trkpt>
      <trkpt lat="45.96343" lon="6.85442">
        <ele>2555</ele>
        <time>2026-08-04T08:48:55.278Z</time>
      </trkpt>
      <trkpt lat="45.96343" lon="6.85442">
        <ele>2555</ele>
        <time>2026-08-04T08:48:56.278Z</time>
      </trkpt>
      <trkpt lat="45.96343" lon="6.85442">
        <ele>2555</ele>
        <time>2026-08-04T08:48:57.278Z</time>
      </trkpt>
      <trkpt lat="45.96343" lon="6.85442">
        <ele>2555</ele>
        <time>2026-08-04T08:48:58.278Z</time>
      </trkpt>
      <trkpt lat="45.96343" lon="6.85442">
        <ele>2555</ele>
        <time>2026-08-04T08:48:59.278Z</time>
      </trkpt>
      <trkpt lat="45.96343" lon="6.85442">
        <ele>2555</ele>
        <time>2026-08-04T08:49:00.278Z</time>
      </trkpt>
      <trkpt lat="45.96343" lon="6.85442">
        <ele>2555</ele>
        <time>2026-08-04T08:49:01.278Z</time>
      </trkpt>
      <trkpt lat="45.96343" lon="6.85442">
        <ele>2555</ele>
        <time>2026-08-04T08:49:02.278Z</time>
      </trkpt>
      <trkpt lat="45.96343" lon="6.85442">
        <ele>2555</ele>
        <time>2026-08-04T08:49:03.278Z</time>
      </trkpt>
      <trkpt lat="45.96343" lon="6.85442">
        <ele>2555</ele>
        <time>2026-08-04T08:49:04.278Z</time>
      </trkpt>
      <trkpt lat="45.96343" lon="6.85442">
        <ele>2555</ele>
        <time>2026-08-04T08:49:05.278Z</time>
      </trkpt>
      <trkpt lat="45.96343" lon="6.85442">
        <ele>2555</ele>
        <time>2026-08-04T08:49:06.278Z</time>
      </trkpt>
      <trkpt lat="45.96343" lon="6.85442">
        <ele>2555</ele>
        <time>2026-08-04T08:49:07.278Z</time>
      </trkpt>
      <trkpt lat="45.96343" lon="6.85442">
        <ele>2555</ele>
        <time>2026-08-04T08:49:08.278Z</time>
      </trkpt>
      <trkpt lat="45.96343" lon="6.85442">
        <ele>2555</ele>
        <time>2026-08-04T08:49:09.278Z</time>
      </trkpt>
      <trkpt lat="45.96343" lon="6.85442">
        <ele>2555</ele>
        <time>2026-08-04T08:49:10.278Z</time>
      </trkpt>
      <trkpt lat="45.96343" lon="6.85442">
        <ele>2555</ele>
        <time>2026-08-04T08:49:11.278Z</time>
      </trkpt>
      <trkpt lat="45.96343" lon="6.85442">
        <ele>2555</ele>
        <time>2026-08-04T08:49:12.278Z</time>
      </trkpt>
      <trkpt lat="45.96343" lon="6.85442">
        <ele>2555</ele>
        <time>2026-08-04T08:49:13.278Z</time>
      </trkpt>
      <trkpt lat="45.96343" lon="6.85442">
        <ele>2555</ele>
        <time>2026-08-04T08:49:14.278Z</time>
      </trkpt>
      <trkpt lat="45.96343" lon="6.85442">
        <ele>2555</ele>
        <time>2026-08-04T08:49:15.278Z</time>
      </trkpt>
      <trkpt lat="45.96343" lon="6.85442">
        <ele>2555</ele>
        <time>2026-08-04T08:49:16.278Z</time>
      </trkpt>
      <trkpt lat="45.96343" lon="6.85442">
        <ele>2555</ele>
        <time>2026-08-04T08:49:17.278Z</time>
      </trkpt>
      <trkpt lat="45.96343" lon="6.85442">
        <ele>2555</ele>
        <time>2026-08-04T08:49:18.278Z</time>
      </trkpt>
      <trkpt lat="45.96343" lon="6.85442">
        <ele>2555</ele>
        <time>2026-08-04T08:49:19.278Z</time>
      </trkpt>
      <trkpt lat="45.96343" lon="6.85442">
        <ele>2555</ele>
        <time>2026-08-04T08:49:20.278Z</time>
      </trkpt>
      <trkpt lat="45.96343" lon="6.85442">
        <ele>2555</ele>
        <time>2026-08-04T08:49:21.278Z</time>
      </trkpt>
      <trkpt lat="45.96343" lon="6.85442">
        <ele>2555</ele>
        <time>2026-08-04T08:49:22.278Z</time>
      </trkpt>
      <trkpt lat="45.96343" lon="6.85442">
        <ele>2555</ele>
        <time>2026-08-04T08:49:23.278Z</time>
      </trkpt>
      <trkpt lat="45.96343" lon="6.85442">
        <ele>2555</ele>
        <time>2026-08-04T08:49:24.278Z</time>
      </trkpt>
      <trkpt lat="45.96343" lon="6.85442">
        <ele>2555</ele>
        <time>2026-08-04T08:49:25.278Z</time>
      </trkpt>
      <trkpt lat="45.96343" lon="6.85442">
        <ele>2555</ele>
        <time>2026-08-04T08:49:26.278Z</time>
      </trkpt>
      <trkpt lat="45.96343" lon="6.85442">
        <ele>2556</ele>
        <time>2026-08-04T08:49:27.278Z</time>
      </trkpt>
      <trkpt lat="45.96343" lon="6.85442">
        <ele>2556</ele>
        <time>2026-08-04T08:49:28.278Z</time>
      </trkpt>
      <trkpt lat="45.96343" lon="6.85442">
        <ele>2556</ele>
        <time>2026-08-04T08:49:29.278Z</time>
      </trkpt>
      <trkpt lat="45.96343" lon="6.85442">
        <ele>2556</ele>
        <time>2026-08-04T08:49:30.278Z</time>
      </trkpt>
      <trkpt lat="45.96343" lon="6.85442">
        <ele>2556</ele>
        <time>2026-08-04T08:49:31.278Z</time>
      </trkpt>
      <trkpt lat="45.96343" lon="6.85442">
        <ele>2556</ele>
        <time>2026-08-04T08:49:32.278Z</time>
      </trkpt>
      <trkpt lat="45.96343" lon="6.85442">
        <ele>2556</ele>
        <time>2026-08-04T08:49:33.278Z</time>
      </trkpt>
      <trkpt lat="45.96343" lon="6.85442">
        <ele>2556</ele>
        <time>2026-08-04T08:49:34.278Z</time>
      </trkpt>
      <trkpt lat="45.96343" lon="6.85442">
        <ele>2556</ele>
        <time>2026-08-04T08:49:35.278Z</time>
      </trkpt>
      <trkpt lat="45.96343" lon="6.85442">
        <ele>2556</ele>
        <time>2026-08-04T08:49:36.278Z</time>
      </trkpt>
      <trkpt lat="45.96343" lon="6.85442">
        <ele>2556</ele>
        <time>2026-08-04T08:49:37.278Z</time>
      </trkpt>
      <trkpt lat="45.96343" lon="6.85442">
        <ele>2556</ele>
        <time>2026-08-04T08:49:38.278Z</time>
      </trkpt>
      <trkpt lat="45.96343" lon="6.85442">
        <ele>2556</ele>
        <time>2026-08-04T08:49:39.278Z</time>
      </trkpt>
      <trkpt lat="45.96343" lon="6.85442">
        <ele>2556</ele>
        <time>2026-08-04T08:49:40.278Z</time>
      </trkpt>
      <trkpt lat="45.96343" lon="6.85442">
        <ele>2556</ele>
        <time>2026-08-04T08:49:41.278Z</time>
      </trkpt>
      <trkpt lat="45.96343" lon="6.85442">
        <ele>2556</ele>
        <time>2026-08-04T08:49:42.278Z</time>
      </trkpt>
      <trkpt lat="45.96343" lon="6.85442">
        <ele>2556</ele>
        <time>2026-08-04T08:49:43.278Z</time>
      </trkpt>
      <trkpt lat="45.96343" lon="6.85442">
        <ele>2556</ele>
        <time>2026-08-04T08:49:44.278Z</time>
      </trkpt>
      <trkpt lat="45.96343" lon="6.85442">
        <ele>2556</ele>
        <time>2026-08-04T08:49:45.278Z</time>
      </trkpt>
      <trkpt lat="45.96343" lon="6.85442">
        <ele>2556</ele>
        <time>2026-08-04T08:49:46.278Z</time>
      </trkpt>
      <trkpt lat="45.96343" lon="6.85442">
        <ele>2556</ele>
        <time>2026-08-04T08:49:47.278Z</time>
      </trkpt>
      <trkpt lat="45.96343" lon="6.85442">
        <ele>2556</ele>
        <time>2026-08-04T08:49:48.278Z</time>
      </trkpt>
      <trkpt lat="45.96343" lon="6.85442">
        <ele>2556</ele>
        <time>2026-08-04T08:49:49.278Z</time>
      </trkpt>
      <trkpt lat="45.96343" lon="6.85442">
        <ele>2556</ele>
        <time>2026-08-04T08:49:50.278Z</time>
      </trkpt>
      <trkpt lat="45.96343" lon="6.85442">
        <ele>2556</ele>
        <time>2026-08-04T08:49:51.278Z</time>
      </trkpt>
      <trkpt lat="45.96343" lon="6.85442">
        <ele>2556</ele>
        <time>2026-08-04T08:49:52.278Z</time>
      </trkpt>
      <trkpt lat="45.96343" lon="6.85442">
        <ele>2556</ele>
        <time>2026-08-04T08:49:53.278Z</time>
      </trkpt>
      <trkpt lat="45.96343" lon="6.85442">
        <ele>2556</ele>
        <time>2026-08-04T08:49:54.278Z</time>
      </trkpt>
      <trkpt lat="45.96343" lon="6.85442">
        <ele>2556</ele>
        <time>2026-08-04T08:49:55.278Z</time>
      </trkpt>
      <trkpt lat="45.96343" lon="6.85442">
        <ele>2556</ele>
        <time>2026-08-04T08:49:56.278Z</time>
      </trkpt>
      <trkpt lat="45.96343" lon="6.85442">
        <ele>2556</ele>
        <time>2026-08-04T08:49:57.278Z</time>
      </trkpt>
      <trkpt lat="45.96343" lon="6.85442">
        <ele>2556</ele>
        <time>2026-08-04T08:49:58.278Z</time>
      </trkpt>
      <trkpt lat="45.96343" lon="6.85442">
        <ele>2556</ele>
        <time>2026-08-04T08:49:59.278Z</time>
      </trkpt>
      <trkpt lat="45.96343" lon="6.85442">
        <ele>2556</ele>
        <time>2026-08-04T08:50:00.278Z</time>
      </trkpt>
      <trkpt lat="45.96343" lon="6.85442">
        <ele>2556</ele>
        <time>2026-08-04T08:50:01.278Z</time>
      </trkpt>
      <trkpt lat="45.96344" lon="6.85442">
        <ele>2556</ele>
        <time>2026-08-04T08:50:02.278Z</time>
      </trkpt>
      <trkpt lat="45.96344" lon="6.85442">
        <ele>2556</ele>
        <time>2026-08-04T08:50:03.278Z</time>
      </trkpt>
      <trkpt lat="45.96344" lon="6.85442">
        <ele>2556</ele>
        <time>2026-08-04T08:50:04.278Z</time>
      </trkpt>
      <trkpt lat="45.96344" lon="6.85442">
        <ele>2556</ele>
        <time>2026-08-04T08:50:05.278Z</time>
      </trkpt>
      <trkpt lat="45.96344" lon="6.85442">
        <ele>2556</ele>
        <time>2026-08-04T08:50:06.278Z</time>
      </trkpt>
      <trkpt lat="45.96344" lon="6.85442">
        <ele>2556</ele>
        <time>2026-08-04T08:50:07.278Z</time>
      </trkpt>
      <trkpt lat="45.96344" lon="6.85442">
        <ele>2556</ele>
        <time>2026-08-04T08:50:08.278Z</time>
      </trkpt>
      <trkpt lat="45.96344" lon="6.85441">
        <ele>2556</ele>
        <time>2026-08-04T08:50:09.278Z</time>
      </trkpt>
      <trkpt lat="45.96344" lon="6.85441">
        <ele>2556</ele>
        <time>2026-08-04T08:50:10.278Z</time>
      </trkpt>
      <trkpt lat="45.96344" lon="6.8544">
        <ele>2556</ele>
        <time>2026-08-04T08:50:11.278Z</time>
      </trkpt>
      <trkpt lat="45.96344" lon="6.85439">
        <ele>2556</ele>
        <time>2026-08-04T08:50:12.278Z</time>
      </trkpt>
      <trkpt lat="45.96344" lon="6.85438">
        <ele>2556</ele>
        <time>2026-08-04T08:50:13.278Z</time>
      </trkpt>
      <trkpt lat="45.96345" lon="6.85437">
        <ele>2556</ele>
        <time>2026-08-04T08:50:14.278Z</time>
      </trkpt>
      <trkpt lat="45.96345" lon="6.85437">
        <ele>2556</ele>
        <time>2026-08-04T08:50:15.278Z</time>
      </trkpt>
      <trkpt lat="45.96345" lon="6.85436">
        <ele>2556</ele>
        <time>2026-08-04T08:50:16.278Z</time>
      </trkpt>
      <trkpt lat="45.96345" lon="6.85436">
        <ele>2555</ele>
        <time>2026-08-04T08:50:17.278Z</time>
      </trkpt>
      <trkpt lat="45.96345" lon="6.85436">
        <ele>2555</ele>
        <time>2026-08-04T08:50:18.278Z</time>
      </trkpt>
      <trkpt lat="45.96345" lon="6.85436">
        <ele>2555</ele>
        <time>2026-08-04T08:50:19.278Z</time>
      </trkpt>
      <trkpt lat="45.96345" lon="6.85436">
        <ele>2555</ele>
        <time>2026-08-04T08:50:20.278Z</time>
      </trkpt>
      <trkpt lat="45.96345" lon="6.85436">
        <ele>2555</ele>
        <time>2026-08-04T08:50:21.278Z</time>
      </trkpt>
      <trkpt lat="45.96345" lon="6.85436">
        <ele>2555</ele>
        <time>2026-08-04T08:50:22.278Z</time>
      </trkpt>
      <trkpt lat="45.96345" lon="6.85436">
        <ele>2555</ele>
        <time>2026-08-04T08:50:23.278Z</time>
      </trkpt>
      <trkpt lat="45.96345" lon="6.85436">
        <ele>2555</ele>
        <time>2026-08-04T08:50:24.278Z</time>
      </trkpt>
      <trkpt lat="45.96345" lon="6.85436">
        <ele>2555</ele>
        <time>2026-08-04T08:50:25.278Z</time>
      </trkpt>
      <trkpt lat="45.96345" lon="6.85436">
        <ele>2555</ele>
        <time>2026-08-04T08:50:26.279Z</time>
      </trkpt>
      <trkpt lat="45.96345" lon="6.85436">
        <ele>2555</ele>
        <time>2026-08-04T08:50:27.278Z</time>
      </trkpt>
      <trkpt lat="45.96345" lon="6.85436">
        <ele>2555</ele>
        <time>2026-08-04T08:50:28.278Z</time>
      </trkpt>
      <trkpt lat="45.96345" lon="6.85436">
        <ele>2555</ele>
        <time>2026-08-04T08:50:29.278Z</time>
      </trkpt>
      <trkpt lat="45.96345" lon="6.85436">
        <ele>2555</ele>
        <time>2026-08-04T08:50:30.278Z</time>
      </trkpt>
      <trkpt lat="45.96345" lon="6.85436">
        <ele>2555</ele>
        <time>2026-08-04T08:50:31.278Z</time>
      </trkpt>
      <trkpt lat="45.96345" lon="6.85436">
        <ele>2555</ele>
        <time>2026-08-04T08:50:32.278Z</time>
      </trkpt>
      <trkpt lat="45.96345" lon="6.85436">
        <ele>2555</ele>
        <time>2026-08-04T08:50:33.278Z</time>
      </trkpt>
      <trkpt lat="45.96345" lon="6.85436">
        <ele>2555</ele>
        <time>2026-08-04T08:50:34.278Z</time>
      </trkpt>
      <trkpt lat="45.96345" lon="6.85436">
        <ele>2556</ele>
        <time>2026-08-04T08:50:35.278Z</time>
      </trkpt>
      <trkpt lat="45.96345" lon="6.85436">
        <ele>2556</ele>
        <time>2026-08-04T08:50:36.278Z</time>
      </trkpt>
      <trkpt lat="45.96345" lon="6.85436">
        <ele>2556</ele>
        <time>2026-08-04T08:50:37.278Z</time>
      </trkpt>
      <trkpt lat="45.96345" lon="6.85436">
        <ele>2556</ele>
        <time>2026-08-04T08:50:38.278Z</time>
      </trkpt>
      <trkpt lat="45.96345" lon="6.85436">
        <ele>2556</ele>
        <time>2026-08-04T08:50:39.278Z</time>
      </trkpt>
      <trkpt lat="45.96345" lon="6.85436">
        <ele>2556</ele>
        <time>2026-08-04T08:50:40.278Z</time>
      </trkpt>
      <trkpt lat="45.96345" lon="6.85436">
        <ele>2556</ele>
        <time>2026-08-04T08:50:41.278Z</time>
      </trkpt>
      <trkpt lat="45.96345" lon="6.85436">
        <ele>2556</ele>
        <time>2026-08-04T08:50:42.278Z</time>
      </trkpt>
      <trkpt lat="45.96345" lon="6.85436">
        <ele>2556</ele>
        <time>2026-08-04T08:50:43.278Z</time>
      </trkpt>
      <trkpt lat="45.96345" lon="6.85436">
        <ele>2556</ele>
        <time>2026-08-04T08:50:44.278Z</time>
      </trkpt>
      <trkpt lat="45.96345" lon="6.85436">
        <ele>2556</ele>
        <time>2026-08-04T08:50:45.278Z</time>
      </trkpt>
      <trkpt lat="45.96345" lon="6.85436">
        <ele>2556</ele>
        <time>2026-08-04T08:50:46.278Z</time>
      </trkpt>
      <trkpt lat="45.96345" lon="6.85436">
        <ele>2556</ele>
        <time>2026-08-04T08:50:47.278Z</time>
      </trkpt>
      <trkpt lat="45.96345" lon="6.85436">
        <ele>2556</ele>
        <time>2026-08-04T08:50:48.278Z</time>
      </trkpt>
      <trkpt lat="45.96345" lon="6.85436">
        <ele>2556</ele>
        <time>2026-08-04T08:50:49.278Z</time>
      </trkpt>
      <trkpt lat="45.96345" lon="6.85436">
        <ele>2556</ele>
        <time>2026-08-04T08:50:50.278Z</time>
      </trkpt>
      <trkpt lat="45.96345" lon="6.85436">
        <ele>2556</ele>
        <time>2026-08-04T08:50:51.278Z</time>
      </trkpt>
      <trkpt lat="45.96345" lon="6.85436">
        <ele>2556</ele>
        <time>2026-08-04T08:50:52.278Z</time>
      </trkpt>
      <trkpt lat="45.96345" lon="6.85436">
        <ele>2556</ele>
        <time>2026-08-04T08:50:53.278Z</time>
      </trkpt>
      <trkpt lat="45.96345" lon="6.85436">
        <ele>2556</ele>
        <time>2026-08-04T08:50:54.278Z</time>
      </trkpt>
      <trkpt lat="45.96345" lon="6.85436">
        <ele>2556</ele>
        <time>2026-08-04T08:50:55.278Z</time>
      </trkpt>
      <trkpt lat="45.96345" lon="6.85436">
        <ele>2556</ele>
        <time>2026-08-04T08:50:56.278Z</time>
      </trkpt>
      <trkpt lat="45.96345" lon="6.85436">
        <ele>2556</ele>
        <time>2026-08-04T08:50:57.278Z</time>
      </trkpt>
      <trkpt lat="45.96345" lon="6.85437">
        <ele>2556</ele>
        <time>2026-08-04T08:50:58.278Z</time>
      </trkpt>
      <trkpt lat="45.96345" lon="6.85438">
        <ele>2556</ele>
        <time>2026-08-04T08:50:59.278Z</time>
      </trkpt>
      <trkpt lat="45.96346" lon="6.85439">
        <ele>2555</ele>
        <time>2026-08-04T08:51:00.278Z</time>
      </trkpt>
      <trkpt lat="45.96346" lon="6.8544">
        <ele>2555</ele>
        <time>2026-08-04T08:51:01.278Z</time>
      </trkpt>
      <trkpt lat="45.96347" lon="6.85441">
        <ele>2555</ele>
        <time>2026-08-04T08:51:02.278Z</time>
      </trkpt>
      <trkpt lat="45.96348" lon="6.85442">
        <ele>2555</ele>
        <time>2026-08-04T08:51:03.278Z</time>
      </trkpt>
      <trkpt lat="45.96348" lon="6.85443">
        <ele>2555</ele>
        <time>2026-08-04T08:51:04.278Z</time>
      </trkpt>
      <trkpt lat="45.96348" lon="6.85444">
        <ele>2555</ele>
        <time>2026-08-04T08:51:05.278Z</time>
      </trkpt>
      <trkpt lat="45.96348" lon="6.85445">
        <ele>2555</ele>
        <time>2026-08-04T08:51:06.278Z</time>
      </trkpt>
      <trkpt lat="45.96349" lon="6.85446">
        <ele>2555</ele>
        <time>2026-08-04T08:51:07.278Z</time>
      </trkpt>
      <trkpt lat="45.96349" lon="6.85446">
        <ele>2554</ele>
        <time>2026-08-04T08:51:08.278Z</time>
      </trkpt>
      <trkpt lat="45.96349" lon="6.85446">
        <ele>2554</ele>
        <time>2026-08-04T08:51:09.278Z</time>
      </trkpt>
      <trkpt lat="45.96349" lon="6.85446">
        <ele>2554</ele>
        <time>2026-08-04T08:51:10.278Z</time>
      </trkpt>
      <trkpt lat="45.96349" lon="6.85446">
        <ele>2554</ele>
        <time>2026-08-04T08:51:11.278Z</time>
      </trkpt>
      <trkpt lat="45.9635" lon="6.85445">
        <ele>2554</ele>
        <time>2026-08-04T08:51:12.278Z</time>
      </trkpt>
      <trkpt lat="45.9635" lon="6.85445">
        <ele>2554</ele>
        <time>2026-08-04T08:51:13.278Z</time>
      </trkpt>
      <trkpt lat="45.9635" lon="6.85445">
        <ele>2554</ele>
        <time>2026-08-04T08:51:14.278Z</time>
      </trkpt>
      <trkpt lat="45.9635" lon="6.85445">
        <ele>2554</ele>
        <time>2026-08-04T08:51:15.278Z</time>
      </trkpt>
      <trkpt lat="45.96351" lon="6.85445">
        <ele>2554</ele>
        <time>2026-08-04T08:51:16.278Z</time>
      </trkpt>
      <trkpt lat="45.96352" lon="6.85445">
        <ele>2553</ele>
        <time>2026-08-04T08:51:17.278Z</time>
      </trkpt>
      <trkpt lat="45.96352" lon="6.85446">
        <ele>2553</ele>
        <time>2026-08-04T08:51:18.278Z</time>
      </trkpt>
      <trkpt lat="45.96352" lon="6.85446">
        <ele>2553</ele>
        <time>2026-08-04T08:51:19.278Z</time>
      </trkpt>
      <trkpt lat="45.96352" lon="6.85445">
        <ele>2553</ele>
        <time>2026-08-04T08:51:20.278Z</time>
      </trkpt>
      <trkpt lat="45.96352" lon="6.85445">
        <ele>2553</ele>
        <time>2026-08-04T08:51:21.278Z</time>
      </trkpt>
      <trkpt lat="45.96352" lon="6.85444">
        <ele>2553</ele>
        <time>2026-08-04T08:51:22.278Z</time>
      </trkpt>
      <trkpt lat="45.96352" lon="6.85443">
        <ele>2553</ele>
        <time>2026-08-04T08:51:23.278Z</time>
      </trkpt>
      <trkpt lat="45.96353" lon="6.85442">
        <ele>2552</ele>
        <time>2026-08-04T08:51:24.278Z</time>
      </trkpt>
      <trkpt lat="45.96353" lon="6.85441">
        <ele>2552</ele>
        <time>2026-08-04T08:51:25.278Z</time>
      </trkpt>
      <trkpt lat="45.96353" lon="6.8544">
        <ele>2552</ele>
        <time>2026-08-04T08:51:26.278Z</time>
      </trkpt>
      <trkpt lat="45.96354" lon="6.85439">
        <ele>2551</ele>
        <time>2026-08-04T08:51:27.278Z</time>
      </trkpt>
      <trkpt lat="45.96354" lon="6.85439">
        <ele>2551</ele>
        <time>2026-08-04T08:51:28.278Z</time>
      </trkpt>
      <trkpt lat="45.96355" lon="6.85439">
        <ele>2550</ele>
        <time>2026-08-04T08:51:29.278Z</time>
      </trkpt>
      <trkpt lat="45.96355" lon="6.85439">
        <ele>2550</ele>
        <time>2026-08-04T08:51:30.278Z</time>
      </trkpt>
      <trkpt lat="45.96356" lon="6.8544">
        <ele>2550</ele>
        <time>2026-08-04T08:51:31.278Z</time>
      </trkpt>
      <trkpt lat="45.96356" lon="6.8544">
        <ele>2550</ele>
        <time>2026-08-04T08:51:32.278Z</time>
      </trkpt>
      <trkpt lat="45.96357" lon="6.8544">
        <ele>2550</ele>
        <time>2026-08-04T08:51:33.278Z</time>
      </trkpt>
      <trkpt lat="45.96357" lon="6.8544">
        <ele>2550</ele>
        <time>2026-08-04T08:51:34.278Z</time>
      </trkpt>
      <trkpt lat="45.96358" lon="6.85439">
        <ele>2550</ele>
        <time>2026-08-04T08:51:35.278Z</time>
      </trkpt>
      <trkpt lat="45.96358" lon="6.85439">
        <ele>2549</ele>
        <time>2026-08-04T08:51:36.278Z</time>
      </trkpt>
      <trkpt lat="45.96359" lon="6.85439">
        <ele>2549</ele>
        <time>2026-08-04T08:51:37.278Z</time>
      </trkpt>
      <trkpt lat="45.9636" lon="6.85438">
        <ele>2549</ele>
        <time>2026-08-04T08:51:38.278Z</time>
      </trkpt>
      <trkpt lat="45.9636" lon="6.85438">
        <ele>2548</ele>
        <time>2026-08-04T08:51:39.278Z</time>
      </trkpt>
      <trkpt lat="45.9636" lon="6.85437">
        <ele>2548</ele>
        <time>2026-08-04T08:51:40.278Z</time>
      </trkpt>
      <trkpt lat="45.9636" lon="6.85436">
        <ele>2548</ele>
        <time>2026-08-04T08:51:41.278Z</time>
      </trkpt>
      <trkpt lat="45.9636" lon="6.85435">
        <ele>2548</ele>
        <time>2026-08-04T08:51:42.278Z</time>
      </trkpt>
      <trkpt lat="45.96361" lon="6.85434">
        <ele>2547</ele>
        <time>2026-08-04T08:51:43.278Z</time>
      </trkpt>
      <trkpt lat="45.96361" lon="6.85433">
        <ele>2547</ele>
        <time>2026-08-04T08:51:44.278Z</time>
      </trkpt>
      <trkpt lat="45.96362" lon="6.85433">
        <ele>2547</ele>
        <time>2026-08-04T08:51:45.278Z</time>
      </trkpt>
      <trkpt lat="45.96362" lon="6.85433">
        <ele>2547</ele>
        <time>2026-08-04T08:51:46.278Z</time>
      </trkpt>
      <trkpt lat="45.96363" lon="6.85433">
        <ele>2546</ele>
        <time>2026-08-04T08:51:47.278Z</time>
      </trkpt>
      <trkpt lat="45.96364" lon="6.85434">
        <ele>2546</ele>
        <time>2026-08-04T08:51:48.278Z</time>
      </trkpt>
      <trkpt lat="45.96366" lon="6.85435">
        <ele>2545</ele>
        <time>2026-08-04T08:51:49.278Z</time>
      </trkpt>
      <trkpt lat="45.96366" lon="6.85437">
        <ele>2545</ele>
        <time>2026-08-04T08:51:50.278Z</time>
      </trkpt>
      <trkpt lat="45.96367" lon="6.85438">
        <ele>2545</ele>
        <time>2026-08-04T08:51:51.278Z</time>
      </trkpt>
      <trkpt lat="45.96368" lon="6.85438">
        <ele>2544</ele>
        <time>2026-08-04T08:51:52.278Z</time>
      </trkpt>
      <trkpt lat="45.9637" lon="6.85439">
        <ele>2544</ele>
        <time>2026-08-04T08:51:53.278Z</time>
      </trkpt>
      <trkpt lat="45.96371" lon="6.85441">
        <ele>2544</ele>
        <time>2026-08-04T08:51:54.278Z</time>
      </trkpt>
      <trkpt lat="45.96371" lon="6.85442">
        <ele>2543</ele>
        <time>2026-08-04T08:51:55.278Z</time>
      </trkpt>
      <trkpt lat="45.96372" lon="6.85444">
        <ele>2543</ele>
        <time>2026-08-04T08:51:56.278Z</time>
      </trkpt>
      <trkpt lat="45.96373" lon="6.85445">
        <ele>2543</ele>
        <time>2026-08-04T08:51:57.278Z</time>
      </trkpt>
      <trkpt lat="45.96373" lon="6.85447">
        <ele>2543</ele>
        <time>2026-08-04T08:51:58.278Z</time>
      </trkpt>
      <trkpt lat="45.96374" lon="6.85448">
        <ele>2542</ele>
        <time>2026-08-04T08:51:59.278Z</time>
      </trkpt>
      <trkpt lat="45.96376" lon="6.8545">
        <ele>2542</ele>
        <time>2026-08-04T08:52:00.278Z</time>
      </trkpt>
      <trkpt lat="45.96376" lon="6.85451">
        <ele>2542</ele>
        <time>2026-08-04T08:52:01.278Z</time>
      </trkpt>
      <trkpt lat="45.96377" lon="6.85452">
        <ele>2542</ele>
        <time>2026-08-04T08:52:02.278Z</time>
      </trkpt>
      <trkpt lat="45.96378" lon="6.85453">
        <ele>2542</ele>
        <time>2026-08-04T08:52:03.278Z</time>
      </trkpt>
      <trkpt lat="45.96379" lon="6.85454">
        <ele>2542</ele>
        <time>2026-08-04T08:52:04.278Z</time>
      </trkpt>
      <trkpt lat="45.9638" lon="6.85455">
        <ele>2542</ele>
        <time>2026-08-04T08:52:05.278Z</time>
      </trkpt>
      <trkpt lat="45.96381" lon="6.85456">
        <ele>2542</ele>
        <time>2026-08-04T08:52:06.278Z</time>
      </trkpt>
      <trkpt lat="45.96381" lon="6.85456">
        <ele>2542</ele>
        <time>2026-08-04T08:52:07.278Z</time>
      </trkpt>
      <trkpt lat="45.96383" lon="6.85457">
        <ele>2542</ele>
        <time>2026-08-04T08:52:08.278Z</time>
      </trkpt>
      <trkpt lat="45.96384" lon="6.85457">
        <ele>2542</ele>
        <time>2026-08-04T08:52:09.278Z</time>
      </trkpt>
      <trkpt lat="45.96385" lon="6.85457">
        <ele>2542</ele>
        <time>2026-08-04T08:52:10.278Z</time>
      </trkpt>
      <trkpt lat="45.96386" lon="6.85457">
        <ele>2542</ele>
        <time>2026-08-04T08:52:11.278Z</time>
      </trkpt>
      <trkpt lat="45.96387" lon="6.85457">
        <ele>2542</ele>
        <time>2026-08-04T08:52:12.278Z</time>
      </trkpt>
      <trkpt lat="45.96388" lon="6.85457">
        <ele>2542</ele>
        <time>2026-08-04T08:52:13.278Z</time>
      </trkpt>
      <trkpt lat="45.96389" lon="6.85457">
        <ele>2542</ele>
        <time>2026-08-04T08:52:14.278Z</time>
      </trkpt>
      <trkpt lat="45.9639" lon="6.85457">
        <ele>2542</ele>
        <time>2026-08-04T08:52:15.278Z</time>
      </trkpt>
      <trkpt lat="45.96391" lon="6.85458">
        <ele>2542</ele>
        <time>2026-08-04T08:52:16.278Z</time>
      </trkpt>
      <trkpt lat="45.96392" lon="6.85459">
        <ele>2542</ele>
        <time>2026-08-04T08:52:17.278Z</time>
      </trkpt>
      <trkpt lat="45.96393" lon="6.8546">
        <ele>2541</ele>
        <time>2026-08-04T08:52:18.278Z</time>
      </trkpt>
      <trkpt lat="45.96394" lon="6.85462">
        <ele>2541</ele>
        <time>2026-08-04T08:52:19.278Z</time>
      </trkpt>
      <trkpt lat="45.96395" lon="6.85463">
        <ele>2541</ele>
        <time>2026-08-04T08:52:20.278Z</time>
      </trkpt>
      <trkpt lat="45.96396" lon="6.85464">
        <ele>2541</ele>
        <time>2026-08-04T08:52:21.278Z</time>
      </trkpt>
      <trkpt lat="45.96397" lon="6.85464">
        <ele>2541</ele>
        <time>2026-08-04T08:52:22.278Z</time>
      </trkpt>
      <trkpt lat="45.96397" lon="6.85465">
        <ele>2541</ele>
        <time>2026-08-04T08:52:23.278Z</time>
      </trkpt>
      <trkpt lat="45.96398" lon="6.85467">
        <ele>2541</ele>
        <time>2026-08-04T08:52:24.278Z</time>
      </trkpt>
      <trkpt lat="45.96398" lon="6.85468">
        <ele>2541</ele>
        <time>2026-08-04T08:52:25.278Z</time>
      </trkpt>
      <trkpt lat="45.96398" lon="6.85469">
        <ele>2541</ele>
        <time>2026-08-04T08:52:26.278Z</time>
      </trkpt>
      <trkpt lat="45.96398" lon="6.8547">
        <ele>2541</ele>
        <time>2026-08-04T08:52:27.278Z</time>
      </trkpt>
      <trkpt lat="45.96398" lon="6.85471">
        <ele>2541</ele>
        <time>2026-08-04T08:52:28.278Z</time>
      </trkpt>
      <trkpt lat="45.96399" lon="6.85472">
        <ele>2541</ele>
        <time>2026-08-04T08:52:29.278Z</time>
      </trkpt>
      <trkpt lat="45.964" lon="6.85473">
        <ele>2541</ele>
        <time>2026-08-04T08:52:30.278Z</time>
      </trkpt>
      <trkpt lat="45.964" lon="6.85473">
        <ele>2541</ele>
        <time>2026-08-04T08:52:31.278Z</time>
      </trkpt>
      <trkpt lat="45.964" lon="6.85474">
        <ele>2542</ele>
        <time>2026-08-04T08:52:32.278Z</time>
      </trkpt>
      <trkpt lat="45.96401" lon="6.85476">
        <ele>2542</ele>
        <time>2026-08-04T08:52:33.278Z</time>
      </trkpt>
      <trkpt lat="45.96401" lon="6.85477">
        <ele>2542</ele>
        <time>2026-08-04T08:52:34.278Z</time>
      </trkpt>
      <trkpt lat="45.96401" lon="6.85478">
        <ele>2542</ele>
        <time>2026-08-04T08:52:35.278Z</time>
      </trkpt>
      <trkpt lat="45.96401" lon="6.85479">
        <ele>2543</ele>
        <time>2026-08-04T08:52:36.278Z</time>
      </trkpt>
      <trkpt lat="45.96401" lon="6.85479">
        <ele>2543</ele>
        <time>2026-08-04T08:52:37.278Z</time>
      </trkpt>
      <trkpt lat="45.96401" lon="6.8548">
        <ele>2543</ele>
        <time>2026-08-04T08:52:38.278Z</time>
      </trkpt>
      <trkpt lat="45.96401" lon="6.8548">
        <ele>2543</ele>
        <time>2026-08-04T08:52:39.278Z</time>
      </trkpt>
      <trkpt lat="45.96401" lon="6.85481">
        <ele>2543</ele>
        <time>2026-08-04T08:52:40.278Z</time>
      </trkpt>
      <trkpt lat="45.96401" lon="6.85482">
        <ele>2543</ele>
        <time>2026-08-04T08:52:41.278Z</time>
      </trkpt>
      <trkpt lat="45.96401" lon="6.85482">
        <ele>2543</ele>
        <time>2026-08-04T08:52:42.278Z</time>
      </trkpt>
      <trkpt lat="45.96401" lon="6.85483">
        <ele>2543</ele>
        <time>2026-08-04T08:52:43.278Z</time>
      </trkpt>
      <trkpt lat="45.96401" lon="6.85483">
        <ele>2543</ele>
        <time>2026-08-04T08:52:44.278Z</time>
      </trkpt>
      <trkpt lat="45.96401" lon="6.85483">
        <ele>2543</ele>
        <time>2026-08-04T08:52:45.278Z</time>
      </trkpt>
      <trkpt lat="45.96401" lon="6.85483">
        <ele>2543</ele>
        <time>2026-08-04T08:52:46.278Z</time>
      </trkpt>
      <trkpt lat="45.96401" lon="6.85483">
        <ele>2543</ele>
        <time>2026-08-04T08:52:47.278Z</time>
      </trkpt>
      <trkpt lat="45.96401" lon="6.85482">
        <ele>2543</ele>
        <time>2026-08-04T08:52:48.278Z</time>
      </trkpt>
      <trkpt lat="45.96401" lon="6.85482">
        <ele>2542</ele>
        <time>2026-08-04T08:52:49.278Z</time>
      </trkpt>
      <trkpt lat="45.96402" lon="6.85482">
        <ele>2542</ele>
        <time>2026-08-04T08:52:50.278Z</time>
      </trkpt>
      <trkpt lat="45.96402" lon="6.85481">
        <ele>2542</ele>
        <time>2026-08-04T08:52:51.278Z</time>
      </trkpt>
      <trkpt lat="45.96403" lon="6.8548">
        <ele>2542</ele>
        <time>2026-08-04T08:52:52.278Z</time>
      </trkpt>
      <trkpt lat="45.96403" lon="6.8548">
        <ele>2542</ele>
        <time>2026-08-04T08:52:53.278Z</time>
      </trkpt>
      <trkpt lat="45.96404" lon="6.8548">
        <ele>2542</ele>
        <time>2026-08-04T08:52:54.278Z</time>
      </trkpt>
      <trkpt lat="45.96405" lon="6.8548">
        <ele>2542</ele>
        <time>2026-08-04T08:52:55.278Z</time>
      </trkpt>
      <trkpt lat="45.96406" lon="6.8548">
        <ele>2542</ele>
        <time>2026-08-04T08:52:56.278Z</time>
      </trkpt>
      <trkpt lat="45.96407" lon="6.8548">
        <ele>2542</ele>
        <time>2026-08-04T08:52:57.278Z</time>
      </trkpt>
      <trkpt lat="45.96408" lon="6.85481">
        <ele>2543</ele>
        <time>2026-08-04T08:52:58.278Z</time>
      </trkpt>
      <trkpt lat="45.96409" lon="6.85481">
        <ele>2543</ele>
        <time>2026-08-04T08:52:59.278Z</time>
      </trkpt>
      <trkpt lat="45.9641" lon="6.85481">
        <ele>2543</ele>
        <time>2026-08-04T08:53:00.278Z</time>
      </trkpt>
      <trkpt lat="45.96411" lon="6.8548">
        <ele>2543</ele>
        <time>2026-08-04T08:53:01.278Z</time>
      </trkpt>
      <trkpt lat="45.96411" lon="6.8548">
        <ele>2543</ele>
        <time>2026-08-04T08:53:02.278Z</time>
      </trkpt>
      <trkpt lat="45.96412" lon="6.8548">
        <ele>2543</ele>
        <time>2026-08-04T08:53:03.278Z</time>
      </trkpt>
      <trkpt lat="45.96413" lon="6.8548">
        <ele>2543</ele>
        <time>2026-08-04T08:53:04.278Z</time>
      </trkpt>
      <trkpt lat="45.96413" lon="6.8548">
        <ele>2543</ele>
        <time>2026-08-04T08:53:05.278Z</time>
      </trkpt>
      <trkpt lat="45.96414" lon="6.8548">
        <ele>2542</ele>
        <time>2026-08-04T08:53:06.278Z</time>
      </trkpt>
      <trkpt lat="45.96414" lon="6.85481">
        <ele>2542</ele>
        <time>2026-08-04T08:53:07.278Z</time>
      </trkpt>
      <trkpt lat="45.96415" lon="6.85481">
        <ele>2543</ele>
        <time>2026-08-04T08:53:08.278Z</time>
      </trkpt>
      <trkpt lat="45.96416" lon="6.85482">
        <ele>2543</ele>
        <time>2026-08-04T08:53:09.278Z</time>
      </trkpt>
      <trkpt lat="45.96417" lon="6.85482">
        <ele>2543</ele>
        <time>2026-08-04T08:53:10.278Z</time>
      </trkpt>
      <trkpt lat="45.96417" lon="6.85483">
        <ele>2543</ele>
        <time>2026-08-04T08:53:11.278Z</time>
      </trkpt>
      <trkpt lat="45.96418" lon="6.85484">
        <ele>2543</ele>
        <time>2026-08-04T08:53:12.278Z</time>
      </trkpt>
      <trkpt lat="45.96418" lon="6.85485">
        <ele>2543</ele>
        <time>2026-08-04T08:53:13.278Z</time>
      </trkpt>
      <trkpt lat="45.96419" lon="6.85486">
        <ele>2543</ele>
        <time>2026-08-04T08:53:14.278Z</time>
      </trkpt>
      <trkpt lat="45.9642" lon="6.85487">
        <ele>2543</ele>
        <time>2026-08-04T08:53:15.278Z</time>
      </trkpt>
      <trkpt lat="45.96421" lon="6.85488">
        <ele>2542</ele>
        <time>2026-08-04T08:53:16.278Z</time>
      </trkpt>
      <trkpt lat="45.96421" lon="6.85488">
        <ele>2542</ele>
        <time>2026-08-04T08:53:17.278Z</time>
      </trkpt>
      <trkpt lat="45.96422" lon="6.85489">
        <ele>2542</ele>
        <time>2026-08-04T08:53:18.278Z</time>
      </trkpt>
      <trkpt lat="45.96423" lon="6.8549">
        <ele>2542</ele>
        <time>2026-08-04T08:53:19.278Z</time>
      </trkpt>
      <trkpt lat="45.96423" lon="6.8549">
        <ele>2542</ele>
        <time>2026-08-04T08:53:20.278Z</time>
      </trkpt>
      <trkpt lat="45.96423" lon="6.8549">
        <ele>2542</ele>
        <time>2026-08-04T08:53:21.278Z</time>
      </trkpt>
      <trkpt lat="45.96423" lon="6.8549">
        <ele>2542</ele>
        <time>2026-08-04T08:53:22.278Z</time>
      </trkpt>
      <trkpt lat="45.96423" lon="6.85491">
        <ele>2542</ele>
        <time>2026-08-04T08:53:23.278Z</time>
      </trkpt>
      <trkpt lat="45.96423" lon="6.85491">
        <ele>2542</ele>
        <time>2026-08-04T08:53:24.278Z</time>
      </trkpt>
      <trkpt lat="45.96424" lon="6.85491">
        <ele>2542</ele>
        <time>2026-08-04T08:53:25.278Z</time>
      </trkpt>
      <trkpt lat="45.96424" lon="6.85492">
        <ele>2542</ele>
        <time>2026-08-04T08:53:26.278Z</time>
      </trkpt>
      <trkpt lat="45.96424" lon="6.85492">
        <ele>2542</ele>
        <time>2026-08-04T08:53:27.278Z</time>
      </trkpt>
      <trkpt lat="45.96424" lon="6.85492">
        <ele>2542</ele>
        <time>2026-08-04T08:53:28.278Z</time>
      </trkpt>
      <trkpt lat="45.96424" lon="6.85492">
        <ele>2541</ele>
        <time>2026-08-04T08:53:29.278Z</time>
      </trkpt>
      <trkpt lat="45.96424" lon="6.85492">
        <ele>2541</ele>
        <time>2026-08-04T08:53:30.278Z</time>
      </trkpt>
      <trkpt lat="45.96424" lon="6.85492">
        <ele>2540</ele>
        <time>2026-08-04T08:53:31.279Z</time>
      </trkpt>
      <trkpt lat="45.96425" lon="6.85492">
        <ele>2539</ele>
        <time>2026-08-04T08:53:32.278Z</time>
      </trkpt>
      <trkpt lat="45.96425" lon="6.85492">
        <ele>2539</ele>
        <time>2026-08-04T08:53:33.278Z</time>
      </trkpt>
      <trkpt lat="45.96425" lon="6.85492">
        <ele>2539</ele>
        <time>2026-08-04T08:53:34.278Z</time>
      </trkpt>
      <trkpt lat="45.96425" lon="6.85492">
        <ele>2539</ele>
        <time>2026-08-04T08:53:35.278Z</time>
      </trkpt>
      <trkpt lat="45.96425" lon="6.85492">
        <ele>2539</ele>
        <time>2026-08-04T08:53:36.278Z</time>
      </trkpt>
      <trkpt lat="45.96425" lon="6.85492">
        <ele>2539</ele>
        <time>2026-08-04T08:53:37.278Z</time>
      </trkpt>
      <trkpt lat="45.96425" lon="6.85492">
        <ele>2540</ele>
        <time>2026-08-04T08:53:38.278Z</time>
      </trkpt>
      <trkpt lat="45.96425" lon="6.85492">
        <ele>2540</ele>
        <time>2026-08-04T08:53:39.278Z</time>
      </trkpt>
      <trkpt lat="45.96425" lon="6.85492">
        <ele>2540</ele>
        <time>2026-08-04T08:53:40.278Z</time>
      </trkpt>
      <trkpt lat="45.96425" lon="6.85492">
        <ele>2540</ele>
        <time>2026-08-04T08:53:41.278Z</time>
      </trkpt>
      <trkpt lat="45.96425" lon="6.85492">
        <ele>2540</ele>
        <time>2026-08-04T08:53:42.278Z</time>
      </trkpt>
      <trkpt lat="45.96424" lon="6.85492">
        <ele>2541</ele>
        <time>2026-08-04T08:53:43.278Z</time>
      </trkpt>
      <trkpt lat="45.96424" lon="6.85492">
        <ele>2541</ele>
        <time>2026-08-04T08:53:44.278Z</time>
      </trkpt>
      <trkpt lat="45.96424" lon="6.85492">
        <ele>2541</ele>
        <time>2026-08-04T08:53:45.278Z</time>
      </trkpt>
      <trkpt lat="45.96424" lon="6.85492">
        <ele>2541</ele>
        <time>2026-08-04T08:53:46.278Z</time>
      </trkpt>
      <trkpt lat="45.96424" lon="6.85492">
        <ele>2541</ele>
        <time>2026-08-04T08:53:47.278Z</time>
      </trkpt>
      <trkpt lat="45.96424" lon="6.85492">
        <ele>2541</ele>
        <time>2026-08-04T08:53:48.278Z</time>
      </trkpt>
      <trkpt lat="45.96424" lon="6.85492">
        <ele>2541</ele>
        <time>2026-08-04T08:53:49.278Z</time>
      </trkpt>
      <trkpt lat="45.96424" lon="6.85492">
        <ele>2541</ele>
        <time>2026-08-04T08:53:50.278Z</time>
      </trkpt>
      <trkpt lat="45.96424" lon="6.85492">
        <ele>2542</ele>
        <time>2026-08-04T08:53:51.278Z</time>
      </trkpt>
      <trkpt lat="45.96424" lon="6.85492">
        <ele>2542</ele>
        <time>2026-08-04T08:53:52.278Z</time>
      </trkpt>
      <trkpt lat="45.96424" lon="6.85492">
        <ele>2542</ele>
        <time>2026-08-04T08:53:53.278Z</time>
      </trkpt>
      <trkpt lat="45.96424" lon="6.85492">
        <ele>2542</ele>
        <time>2026-08-04T08:53:54.278Z</time>
      </trkpt>
      <trkpt lat="45.96423" lon="6.8549">
        <ele>2542</ele>
        <time>2026-08-04T08:53:55.278Z</time>
      </trkpt>
      <trkpt lat="45.96423" lon="6.85489">
        <ele>2542</ele>
        <time>2026-08-04T08:53:56.278Z</time>
      </trkpt>
      <trkpt lat="45.96422" lon="6.85488">
        <ele>2542</ele>
        <time>2026-08-04T08:53:57.278Z</time>
      </trkpt>
      <trkpt lat="45.96421" lon="6.85486">
        <ele>2542</ele>
        <time>2026-08-04T08:53:58.278Z</time>
      </trkpt>
      <trkpt lat="45.9642" lon="6.85485">
        <ele>2542</ele>
        <time>2026-08-04T08:53:59.278Z</time>
      </trkpt>
      <trkpt lat="45.96418" lon="6.85482">
        <ele>2543</ele>
        <time>2026-08-04T08:54:00.278Z</time>
      </trkpt>
      <trkpt lat="45.96417" lon="6.8548">
        <ele>2543</ele>
        <time>2026-08-04T08:54:01.278Z</time>
      </trkpt>
      <trkpt lat="45.96416" lon="6.85478">
        <ele>2543</ele>
        <time>2026-08-04T08:54:02.278Z</time>
      </trkpt>
      <trkpt lat="45.96415" lon="6.85476">
        <ele>2544</ele>
        <time>2026-08-04T08:54:03.278Z</time>
      </trkpt>
      <trkpt lat="45.96415" lon="6.85475">
        <ele>2544</ele>
        <time>2026-08-04T08:54:04.278Z</time>
      </trkpt>
      <trkpt lat="45.96414" lon="6.85473">
        <ele>2545</ele>
        <time>2026-08-04T08:54:05.278Z</time>
      </trkpt>
      <trkpt lat="45.96414" lon="6.85473">
        <ele>2545</ele>
        <time>2026-08-04T08:54:06.278Z</time>
      </trkpt>
      <trkpt lat="45.96414" lon="6.85472">
        <ele>2546</ele>
        <time>2026-08-04T08:54:07.278Z</time>
      </trkpt>
      <trkpt lat="45.96414" lon="6.85472">
        <ele>2546</ele>
        <time>2026-08-04T08:54:08.278Z</time>
      </trkpt>
      <trkpt lat="45.96413" lon="6.8547">
        <ele>2547</ele>
        <time>2026-08-04T08:54:09.278Z</time>
      </trkpt>
      <trkpt lat="45.96413" lon="6.85469">
        <ele>2547</ele>
        <time>2026-08-04T08:54:10.278Z</time>
      </trkpt>
      <trkpt lat="45.96412" lon="6.85468">
        <ele>2548</ele>
        <time>2026-08-04T08:54:11.278Z</time>
      </trkpt>
      <trkpt lat="45.96411" lon="6.85467">
        <ele>2548</ele>
        <time>2026-08-04T08:54:12.278Z</time>
      </trkpt>
      <trkpt lat="45.9641" lon="6.85466">
        <ele>2548</ele>
        <time>2026-08-04T08:54:13.278Z</time>
      </trkpt>
      <trkpt lat="45.96409" lon="6.85466">
        <ele>2548</ele>
        <time>2026-08-04T08:54:14.278Z</time>
      </trkpt>
      <trkpt lat="45.96408" lon="6.85465">
        <ele>2548</ele>
        <time>2026-08-04T08:54:15.278Z</time>
      </trkpt>
      <trkpt lat="45.96407" lon="6.85464">
        <ele>2548</ele>
        <time>2026-08-04T08:54:16.278Z</time>
      </trkpt>
      <trkpt lat="45.96407" lon="6.85463">
        <ele>2548</ele>
        <time>2026-08-04T08:54:17.278Z</time>
      </trkpt>
      <trkpt lat="45.96407" lon="6.85462">
        <ele>2548</ele>
        <time>2026-08-04T08:54:18.278Z</time>
      </trkpt>
      <trkpt lat="45.96407" lon="6.85461">
        <ele>2548</ele>
        <time>2026-08-04T08:54:19.278Z</time>
      </trkpt>
      <trkpt lat="45.96407" lon="6.8546">
        <ele>2547</ele>
        <time>2026-08-04T08:54:20.278Z</time>
      </trkpt>
      <trkpt lat="45.96407" lon="6.85459">
        <ele>2547</ele>
        <time>2026-08-04T08:54:21.278Z</time>
      </trkpt>
      <trkpt lat="45.96406" lon="6.85459">
        <ele>2547</ele>
        <time>2026-08-04T08:54:22.278Z</time>
      </trkpt>
      <trkpt lat="45.96406" lon="6.85458">
        <ele>2546</ele>
        <time>2026-08-04T08:54:23.278Z</time>
      </trkpt>
      <trkpt lat="45.96404" lon="6.85457">
        <ele>2546</ele>
        <time>2026-08-04T08:54:24.278Z</time>
      </trkpt>
      <trkpt lat="45.96403" lon="6.85457">
        <ele>2546</ele>
        <time>2026-08-04T08:54:25.278Z</time>
      </trkpt>
      <trkpt lat="45.96402" lon="6.85457">
        <ele>2546</ele>
        <time>2026-08-04T08:54:26.278Z</time>
      </trkpt>
      <trkpt lat="45.96401" lon="6.85457">
        <ele>2546</ele>
        <time>2026-08-04T08:54:27.278Z</time>
      </trkpt>
      <trkpt lat="45.964" lon="6.85456">
        <ele>2546</ele>
        <time>2026-08-04T08:54:28.278Z</time>
      </trkpt>
      <trkpt lat="45.96399" lon="6.85454">
        <ele>2546</ele>
        <time>2026-08-04T08:54:29.278Z</time>
      </trkpt>
      <trkpt lat="45.96399" lon="6.85452">
        <ele>2545</ele>
        <time>2026-08-04T08:54:30.278Z</time>
      </trkpt>
      <trkpt lat="45.96399" lon="6.8545">
        <ele>2546</ele>
        <time>2026-08-04T08:54:31.278Z</time>
      </trkpt>
      <trkpt lat="45.96399" lon="6.85448">
        <ele>2546</ele>
        <time>2026-08-04T08:54:32.278Z</time>
      </trkpt>
      <trkpt lat="45.964" lon="6.85447">
        <ele>2546</ele>
        <time>2026-08-04T08:54:33.278Z</time>
      </trkpt>
      <trkpt lat="45.964" lon="6.85446">
        <ele>2546</ele>
        <time>2026-08-04T08:54:34.278Z</time>
      </trkpt>
      <trkpt lat="45.96401" lon="6.85445">
        <ele>2546</ele>
        <time>2026-08-04T08:54:35.278Z</time>
      </trkpt>
      <trkpt lat="45.96401" lon="6.85444">
        <ele>2545</ele>
        <time>2026-08-04T08:54:36.278Z</time>
      </trkpt>
      <trkpt lat="45.96402" lon="6.85444">
        <ele>2545</ele>
        <time>2026-08-04T08:54:37.278Z</time>
      </trkpt>
      <trkpt lat="45.96402" lon="6.85443">
        <ele>2545</ele>
        <time>2026-08-04T08:54:38.278Z</time>
      </trkpt>
      <trkpt lat="45.96402" lon="6.85442">
        <ele>2545</ele>
        <time>2026-08-04T08:54:39.278Z</time>
      </trkpt>
      <trkpt lat="45.96402" lon="6.85441">
        <ele>2545</ele>
        <time>2026-08-04T08:54:40.278Z</time>
      </trkpt>
      <trkpt lat="45.96402" lon="6.85441">
        <ele>2544</ele>
        <time>2026-08-04T08:54:41.278Z</time>
      </trkpt>
      <trkpt lat="45.96402" lon="6.8544">
        <ele>2544</ele>
        <time>2026-08-04T08:54:42.278Z</time>
      </trkpt>
      <trkpt lat="45.96403" lon="6.85438">
        <ele>2544</ele>
        <time>2026-08-04T08:54:43.278Z</time>
      </trkpt>
      <trkpt lat="45.96403" lon="6.85436">
        <ele>2544</ele>
        <time>2026-08-04T08:54:44.278Z</time>
      </trkpt>
      <trkpt lat="45.96404" lon="6.85435">
        <ele>2543</ele>
        <time>2026-08-04T08:54:45.278Z</time>
      </trkpt>
      <trkpt lat="45.96405" lon="6.85434">
        <ele>2543</ele>
        <time>2026-08-04T08:54:46.278Z</time>
      </trkpt>
      <trkpt lat="45.96406" lon="6.85433">
        <ele>2542</ele>
        <time>2026-08-04T08:54:47.278Z</time>
      </trkpt>
      <trkpt lat="45.96407" lon="6.85432">
        <ele>2542</ele>
        <time>2026-08-04T08:54:48.278Z</time>
      </trkpt>
      <trkpt lat="45.96408" lon="6.85432">
        <ele>2542</ele>
        <time>2026-08-04T08:54:49.278Z</time>
      </trkpt>
      <trkpt lat="45.96409" lon="6.85431">
        <ele>2542</ele>
        <time>2026-08-04T08:54:50.278Z</time>
      </trkpt>
      <trkpt lat="45.9641" lon="6.85431">
        <ele>2542</ele>
        <time>2026-08-04T08:54:51.278Z</time>
      </trkpt>
      <trkpt lat="45.96411" lon="6.8543">
        <ele>2542</ele>
        <time>2026-08-04T08:54:52.278Z</time>
      </trkpt>
      <trkpt lat="45.96413" lon="6.8543">
        <ele>2542</ele>
        <time>2026-08-04T08:54:53.278Z</time>
      </trkpt>
      <trkpt lat="45.96414" lon="6.8543">
        <ele>2542</ele>
        <time>2026-08-04T08:54:54.278Z</time>
      </trkpt>
      <trkpt lat="45.96415" lon="6.8543">
        <ele>2541</ele>
        <time>2026-08-04T08:54:55.278Z</time>
      </trkpt>
      <trkpt lat="45.96415" lon="6.8543">
        <ele>2541</ele>
        <time>2026-08-04T08:54:56.278Z</time>
      </trkpt>
      <trkpt lat="45.96415" lon="6.85429">
        <ele>2541</ele>
        <time>2026-08-04T08:54:57.278Z</time>
      </trkpt>
      <trkpt lat="45.96416" lon="6.85429">
        <ele>2541</ele>
        <time>2026-08-04T08:54:58.278Z</time>
      </trkpt>
      <trkpt lat="45.96416" lon="6.8543">
        <ele>2541</ele>
        <time>2026-08-04T08:54:59.278Z</time>
      </trkpt>
      <trkpt lat="45.96417" lon="6.8543">
        <ele>2541</ele>
        <time>2026-08-04T08:55:00.278Z</time>
      </trkpt>
      <trkpt lat="45.96418" lon="6.85431">
        <ele>2541</ele>
        <time>2026-08-04T08:55:01.278Z</time>
      </trkpt>
      <trkpt lat="45.96419" lon="6.85432">
        <ele>2541</ele>
        <time>2026-08-04T08:55:02.278Z</time>
      </trkpt>
      <trkpt lat="45.9642" lon="6.85433">
        <ele>2541</ele>
        <time>2026-08-04T08:55:03.278Z</time>
      </trkpt>
      <trkpt lat="45.96421" lon="6.85433">
        <ele>2541</ele>
        <time>2026-08-04T08:55:04.278Z</time>
      </trkpt>
      <trkpt lat="45.96423" lon="6.85434">
        <ele>2541</ele>
        <time>2026-08-04T08:55:05.278Z</time>
      </trkpt>
      <trkpt lat="45.96424" lon="6.85434">
        <ele>2541</ele>
        <time>2026-08-04T08:55:06.278Z</time>
      </trkpt>
      <trkpt lat="45.96425" lon="6.85434">
        <ele>2541</ele>
        <time>2026-08-04T08:55:07.278Z</time>
      </trkpt>
      <trkpt lat="45.96427" lon="6.85434">
        <ele>2541</ele>
        <time>2026-08-04T08:55:08.278Z</time>
      </trkpt>
      <trkpt lat="45.96428" lon="6.85433">
        <ele>2541</ele>
        <time>2026-08-04T08:55:09.278Z</time>
      </trkpt>
      <trkpt lat="45.96429" lon="6.85433">
        <ele>2541</ele>
        <time>2026-08-04T08:55:10.278Z</time>
      </trkpt>
      <trkpt lat="45.96429" lon="6.85432">
        <ele>2541</ele>
        <time>2026-08-04T08:55:11.278Z</time>
      </trkpt>
      <trkpt lat="45.9643" lon="6.85432">
        <ele>2541</ele>
        <time>2026-08-04T08:55:12.278Z</time>
      </trkpt>
      <trkpt lat="45.96431" lon="6.85431">
        <ele>2541</ele>
        <time>2026-08-04T08:55:13.278Z</time>
      </trkpt>
      <trkpt lat="45.96432" lon="6.8543">
        <ele>2541</ele>
        <time>2026-08-04T08:55:14.278Z</time>
      </trkpt>
      <trkpt lat="45.96432" lon="6.85429">
        <ele>2540</ele>
        <time>2026-08-04T08:55:15.278Z</time>
      </trkpt>
      <trkpt lat="45.96433" lon="6.85428">
        <ele>2540</ele>
        <time>2026-08-04T08:55:16.278Z</time>
      </trkpt>
      <trkpt lat="45.96434" lon="6.85427">
        <ele>2540</ele>
        <time>2026-08-04T08:55:17.278Z</time>
      </trkpt>
      <trkpt lat="45.96434" lon="6.85427">
        <ele>2541</ele>
        <time>2026-08-04T08:55:18.278Z</time>
      </trkpt>
      <trkpt lat="45.96435" lon="6.85426">
        <ele>2541</ele>
        <time>2026-08-04T08:55:19.278Z</time>
      </trkpt>
      <trkpt lat="45.96435" lon="6.85425">
        <ele>2541</ele>
        <time>2026-08-04T08:55:20.278Z</time>
      </trkpt>
      <trkpt lat="45.96435" lon="6.85425">
        <ele>2542</ele>
        <time>2026-08-04T08:55:21.278Z</time>
      </trkpt>
      <trkpt lat="45.96435" lon="6.85424">
        <ele>2542</ele>
        <time>2026-08-04T08:55:22.278Z</time>
      </trkpt>
      <trkpt lat="45.96436" lon="6.85424">
        <ele>2542</ele>
        <time>2026-08-04T08:55:23.278Z</time>
      </trkpt>
      <trkpt lat="45.96436" lon="6.85424">
        <ele>2542</ele>
        <time>2026-08-04T08:55:24.278Z</time>
      </trkpt>
      <trkpt lat="45.96436" lon="6.85424">
        <ele>2542</ele>
        <time>2026-08-04T08:55:25.278Z</time>
      </trkpt>
      <trkpt lat="45.96436" lon="6.85424">
        <ele>2542</ele>
        <time>2026-08-04T08:55:26.278Z</time>
      </trkpt>
      <trkpt lat="45.96436" lon="6.85424">
        <ele>2543</ele>
        <time>2026-08-04T08:55:27.278Z</time>
      </trkpt>
      <trkpt lat="45.96436" lon="6.85424">
        <ele>2542</ele>
        <time>2026-08-04T08:55:28.278Z</time>
      </trkpt>
      <trkpt lat="45.96436" lon="6.85424">
        <ele>2542</ele>
        <time>2026-08-04T08:55:29.278Z</time>
      </trkpt>
      <trkpt lat="45.96436" lon="6.85424">
        <ele>2542</ele>
        <time>2026-08-04T08:55:30.278Z</time>
      </trkpt>
      <trkpt lat="45.96436" lon="6.85424">
        <ele>2542</ele>
        <time>2026-08-04T08:55:31.278Z</time>
      </trkpt>
      <trkpt lat="45.96436" lon="6.85424">
        <ele>2542</ele>
        <time>2026-08-04T08:55:32.278Z</time>
      </trkpt>
      <trkpt lat="45.96436" lon="6.85424">
        <ele>2543</ele>
        <time>2026-08-04T08:55:33.278Z</time>
      </trkpt>
      <trkpt lat="45.96436" lon="6.85424">
        <ele>2543</ele>
        <time>2026-08-04T08:55:34.278Z</time>
      </trkpt>
      <trkpt lat="45.96436" lon="6.85424">
        <ele>2543</ele>
        <time>2026-08-04T08:55:35.278Z</time>
      </trkpt>
      <trkpt lat="45.96436" lon="6.85424">
        <ele>2544</ele>
        <time>2026-08-04T08:55:36.278Z</time>
      </trkpt>
      <trkpt lat="45.96436" lon="6.85424">
        <ele>2544</ele>
        <time>2026-08-04T08:55:37.278Z</time>
      </trkpt>
      <trkpt lat="45.96436" lon="6.85424">
        <ele>2544</ele>
        <time>2026-08-04T08:55:38.278Z</time>
      </trkpt>
      <trkpt lat="45.96436" lon="6.85424">
        <ele>2544</ele>
        <time>2026-08-04T08:55:39.278Z</time>
      </trkpt>
      <trkpt lat="45.96436" lon="6.85424">
        <ele>2544</ele>
        <time>2026-08-04T08:55:40.278Z</time>
      </trkpt>
      <trkpt lat="45.96436" lon="6.85424">
        <ele>2545</ele>
        <time>2026-08-04T08:55:41.278Z</time>
      </trkpt>
      <trkpt lat="45.96436" lon="6.85424">
        <ele>2545</ele>
        <time>2026-08-04T08:55:42.278Z</time>
      </trkpt>
      <trkpt lat="45.96436" lon="6.85424">
        <ele>2545</ele>
        <time>2026-08-04T08:55:43.278Z</time>
      </trkpt>
      <trkpt lat="45.96436" lon="6.85424">
        <ele>2545</ele>
        <time>2026-08-04T08:55:44.278Z</time>
      </trkpt>
      <trkpt lat="45.96436" lon="6.85424">
        <ele>2545</ele>
        <time>2026-08-04T08:55:45.278Z</time>
      </trkpt>
      <trkpt lat="45.96436" lon="6.85424">
        <ele>2545</ele>
        <time>2026-08-04T08:55:46.278Z</time>
      </trkpt>
      <trkpt lat="45.96436" lon="6.85424">
        <ele>2545</ele>
        <time>2026-08-04T08:55:47.278Z</time>
      </trkpt>
      <trkpt lat="45.96436" lon="6.85424">
        <ele>2545</ele>
        <time>2026-08-04T08:55:48.278Z</time>
      </trkpt>
      <trkpt lat="45.96436" lon="6.85424">
        <ele>2545</ele>
        <time>2026-08-04T08:55:49.278Z</time>
      </trkpt>
      <trkpt lat="45.96436" lon="6.85424">
        <ele>2545</ele>
        <time>2026-08-04T08:55:50.278Z</time>
      </trkpt>
      <trkpt lat="45.96436" lon="6.85424">
        <ele>2545</ele>
        <time>2026-08-04T08:55:51.278Z</time>
      </trkpt>
      <trkpt lat="45.96436" lon="6.85424">
        <ele>2545</ele>
        <time>2026-08-04T08:55:52.278Z</time>
      </trkpt>
      <trkpt lat="45.96436" lon="6.85424">
        <ele>2545</ele>
        <time>2026-08-04T08:55:53.278Z</time>
      </trkpt>
      <trkpt lat="45.96436" lon="6.85424">
        <ele>2545</ele>
        <time>2026-08-04T08:55:54.278Z</time>
      </trkpt>
      <trkpt lat="45.96436" lon="6.85424">
        <ele>2545</ele>
        <time>2026-08-04T08:55:55.278Z</time>
      </trkpt>
      <trkpt lat="45.96436" lon="6.85424">
        <ele>2545</ele>
        <time>2026-08-04T08:55:56.278Z</time>
      </trkpt>
      <trkpt lat="45.96436" lon="6.85424">
        <ele>2544</ele>
        <time>2026-08-04T08:55:57.278Z</time>
      </trkpt>
      <trkpt lat="45.96436" lon="6.85424">
        <ele>2544</ele>
        <time>2026-08-04T08:55:58.278Z</time>
      </trkpt>
      <trkpt lat="45.96436" lon="6.85424">
        <ele>2544</ele>
        <time>2026-08-04T08:55:59.278Z</time>
      </trkpt>
      <trkpt lat="45.96436" lon="6.85424">
        <ele>2544</ele>
        <time>2026-08-04T08:56:00.278Z</time>
      </trkpt>
      <trkpt lat="45.96436" lon="6.85424">
        <ele>2544</ele>
        <time>2026-08-04T08:56:01.278Z</time>
      </trkpt>
      <trkpt lat="45.96436" lon="6.85424">
        <ele>2544</ele>
        <time>2026-08-04T08:56:02.278Z</time>
      </trkpt>
      <trkpt lat="45.96436" lon="6.85424">
        <ele>2544</ele>
        <time>2026-08-04T08:56:03.278Z</time>
      </trkpt>
      <trkpt lat="45.96436" lon="6.85424">
        <ele>2544</ele>
        <time>2026-08-04T08:56:04.278Z</time>
      </trkpt>
      <trkpt lat="45.96436" lon="6.85424">
        <ele>2544</ele>
        <time>2026-08-04T08:56:05.278Z</time>
      </trkpt>
      <trkpt lat="45.96436" lon="6.85424">
        <ele>2544</ele>
        <time>2026-08-04T08:56:06.278Z</time>
      </trkpt>
      <trkpt lat="45.96436" lon="6.85424">
        <ele>2544</ele>
        <time>2026-08-04T08:56:07.278Z</time>
      </trkpt>
      <trkpt lat="45.96436" lon="6.85424">
        <ele>2544</ele>
        <time>2026-08-04T08:56:08.278Z</time>
      </trkpt>
      <trkpt lat="45.96436" lon="6.85424">
        <ele>2544</ele>
        <time>2026-08-04T08:56:09.278Z</time>
      </trkpt>
      <trkpt lat="45.96436" lon="6.85424">
        <ele>2544</ele>
        <time>2026-08-04T08:56:10.278Z</time>
      </trkpt>
      <trkpt lat="45.96437" lon="6.85424">
        <ele>2544</ele>
        <time>2026-08-04T08:56:11.278Z</time>
      </trkpt>
      <trkpt lat="45.96437" lon="6.85425">
        <ele>2544</ele>
        <time>2026-08-04T08:56:12.278Z</time>
      </trkpt>
      <trkpt lat="45.96438" lon="6.85425">
        <ele>2544</ele>
        <time>2026-08-04T08:56:13.278Z</time>
      </trkpt>
      <trkpt lat="45.96439" lon="6.85424">
        <ele>2544</ele>
        <time>2026-08-04T08:56:14.278Z</time>
      </trkpt>
      <trkpt lat="45.96441" lon="6.85424">
        <ele>2544</ele>
        <time>2026-08-04T08:56:15.278Z</time>
      </trkpt>
      <trkpt lat="45.96443" lon="6.85425">
        <ele>2544</ele>
        <time>2026-08-04T08:56:16.278Z</time>
      </trkpt>
      <trkpt lat="45.96445" lon="6.85425">
        <ele>2543</ele>
        <time>2026-08-04T08:56:17.278Z</time>
      </trkpt>
      <trkpt lat="45.96447" lon="6.85425">
        <ele>2543</ele>
        <time>2026-08-04T08:56:18.278Z</time>
      </trkpt>
      <trkpt lat="45.96448" lon="6.85425">
        <ele>2543</ele>
        <time>2026-08-04T08:56:19.278Z</time>
      </trkpt>
      <trkpt lat="45.9645" lon="6.85426">
        <ele>2542</ele>
        <time>2026-08-04T08:56:20.278Z</time>
      </trkpt>
      <trkpt lat="45.96452" lon="6.85427">
        <ele>2542</ele>
        <time>2026-08-04T08:56:21.278Z</time>
      </trkpt>
      <trkpt lat="45.96454" lon="6.85427">
        <ele>2542</ele>
        <time>2026-08-04T08:56:22.278Z</time>
      </trkpt>
      <trkpt lat="45.96454" lon="6.85427">
        <ele>2542</ele>
        <time>2026-08-04T08:56:23.278Z</time>
      </trkpt>
      <trkpt lat="45.96455" lon="6.85426">
        <ele>2542</ele>
        <time>2026-08-04T08:56:24.278Z</time>
      </trkpt>
      <trkpt lat="45.96456" lon="6.85426">
        <ele>2542</ele>
        <time>2026-08-04T08:56:25.278Z</time>
      </trkpt>
      <trkpt lat="45.96457" lon="6.85426">
        <ele>2542</ele>
        <time>2026-08-04T08:56:26.278Z</time>
      </trkpt>
      <trkpt lat="45.96458" lon="6.85426">
        <ele>2541</ele>
        <time>2026-08-04T08:56:27.278Z</time>
      </trkpt>
      <trkpt lat="45.96459" lon="6.85426">
        <ele>2541</ele>
        <time>2026-08-04T08:56:28.278Z</time>
      </trkpt>
      <trkpt lat="45.9646" lon="6.85426">
        <ele>2541</ele>
        <time>2026-08-04T08:56:29.278Z</time>
      </trkpt>
      <trkpt lat="45.96461" lon="6.85426">
        <ele>2540</ele>
        <time>2026-08-04T08:56:30.278Z</time>
      </trkpt>
      <trkpt lat="45.96462" lon="6.85426">
        <ele>2540</ele>
        <time>2026-08-04T08:56:31.278Z</time>
      </trkpt>
      <trkpt lat="45.96463" lon="6.85426">
        <ele>2540</ele>
        <time>2026-08-04T08:56:32.278Z</time>
      </trkpt>
      <trkpt lat="45.96463" lon="6.85426">
        <ele>2540</ele>
        <time>2026-08-04T08:56:33.278Z</time>
      </trkpt>
      <trkpt lat="45.96464" lon="6.85426">
        <ele>2540</ele>
        <time>2026-08-04T08:56:34.278Z</time>
      </trkpt>
      <trkpt lat="45.96464" lon="6.85426">
        <ele>2540</ele>
        <time>2026-08-04T08:56:35.278Z</time>
      </trkpt>
      <trkpt lat="45.96464" lon="6.85425">
        <ele>2539</ele>
        <time>2026-08-04T08:56:36.278Z</time>
      </trkpt>
      <trkpt lat="45.96464" lon="6.85425">
        <ele>2539</ele>
        <time>2026-08-04T08:56:37.278Z</time>
      </trkpt>
      <trkpt lat="45.96464" lon="6.85425">
        <ele>2538</ele>
        <time>2026-08-04T08:56:38.278Z</time>
      </trkpt>
      <trkpt lat="45.96464" lon="6.85425">
        <ele>2537</ele>
        <time>2026-08-04T08:56:39.278Z</time>
      </trkpt>
      <trkpt lat="45.96464" lon="6.85425">
        <ele>2537</ele>
        <time>2026-08-04T08:56:40.278Z</time>
      </trkpt>
      <trkpt lat="45.96464" lon="6.85425">
        <ele>2537</ele>
        <time>2026-08-04T08:56:41.278Z</time>
      </trkpt>
      <trkpt lat="45.96464" lon="6.85425">
        <ele>2536</ele>
        <time>2026-08-04T08:56:42.278Z</time>
      </trkpt>
      <trkpt lat="45.96464" lon="6.85425">
        <ele>2536</ele>
        <time>2026-08-04T08:56:43.278Z</time>
      </trkpt>
      <trkpt lat="45.96464" lon="6.85425">
        <ele>2536</ele>
        <time>2026-08-04T08:56:44.278Z</time>
      </trkpt>
      <trkpt lat="45.96464" lon="6.85425">
        <ele>2536</ele>
        <time>2026-08-04T08:56:45.278Z</time>
      </trkpt>
      <trkpt lat="45.96464" lon="6.85425">
        <ele>2536</ele>
        <time>2026-08-04T08:56:46.278Z</time>
      </trkpt>
      <trkpt lat="45.96464" lon="6.85424">
        <ele>2537</ele>
        <time>2026-08-04T08:56:47.278Z</time>
      </trkpt>
      <trkpt lat="45.96465" lon="6.85423">
        <ele>2537</ele>
        <time>2026-08-04T08:56:48.278Z</time>
      </trkpt>
      <trkpt lat="45.96465" lon="6.85423">
        <ele>2537</ele>
        <time>2026-08-04T08:56:49.278Z</time>
      </trkpt>
      <trkpt lat="45.96465" lon="6.85422">
        <ele>2537</ele>
        <time>2026-08-04T08:56:50.278Z</time>
      </trkpt>
      <trkpt lat="45.96465" lon="6.85422">
        <ele>2538</ele>
        <time>2026-08-04T08:56:51.278Z</time>
      </trkpt>
      <trkpt lat="45.96465" lon="6.85421">
        <ele>2538</ele>
        <time>2026-08-04T08:56:52.278Z</time>
      </trkpt>
      <trkpt lat="45.96466" lon="6.85421">
        <ele>2538</ele>
        <time>2026-08-04T08:56:53.278Z</time>
      </trkpt>
      <trkpt lat="45.96466" lon="6.85421">
        <ele>2538</ele>
        <time>2026-08-04T08:56:54.278Z</time>
      </trkpt>
      <trkpt lat="45.96467" lon="6.85421">
        <ele>2538</ele>
        <time>2026-08-04T08:56:55.278Z</time>
      </trkpt>
      <trkpt lat="45.96468" lon="6.85421">
        <ele>2538</ele>
        <time>2026-08-04T08:56:56.278Z</time>
      </trkpt>
      <trkpt lat="45.96469" lon="6.8542">
        <ele>2538</ele>
        <time>2026-08-04T08:56:57.278Z</time>
      </trkpt>
      <trkpt lat="45.96469" lon="6.85419">
        <ele>2538</ele>
        <time>2026-08-04T08:56:58.278Z</time>
      </trkpt>
      <trkpt lat="45.96469" lon="6.85418">
        <ele>2539</ele>
        <time>2026-08-04T08:56:59.278Z</time>
      </trkpt>
      <trkpt lat="45.9647" lon="6.85418">
        <ele>2539</ele>
        <time>2026-08-04T08:57:00.278Z</time>
      </trkpt>
      <trkpt lat="45.9647" lon="6.85417">
        <ele>2540</ele>
        <time>2026-08-04T08:57:01.278Z</time>
      </trkpt>
      <trkpt lat="45.9647" lon="6.85417">
        <ele>2540</ele>
        <time>2026-08-04T08:57:02.278Z</time>
      </trkpt>
      <trkpt lat="45.9647" lon="6.85416">
        <ele>2541</ele>
        <time>2026-08-04T08:57:03.278Z</time>
      </trkpt>
      <trkpt lat="45.9647" lon="6.85416">
        <ele>2541</ele>
        <time>2026-08-04T08:57:04.278Z</time>
      </trkpt>
      <trkpt lat="45.9647" lon="6.85416">
        <ele>2541</ele>
        <time>2026-08-04T08:57:05.278Z</time>
      </trkpt>
      <trkpt lat="45.9647" lon="6.85416">
        <ele>2541</ele>
        <time>2026-08-04T08:57:06.278Z</time>
      </trkpt>
      <trkpt lat="45.9647" lon="6.85416">
        <ele>2542</ele>
        <time>2026-08-04T08:57:07.278Z</time>
      </trkpt>
      <trkpt lat="45.9647" lon="6.85416">
        <ele>2542</ele>
        <time>2026-08-04T08:57:08.278Z</time>
      </trkpt>
      <trkpt lat="45.9647" lon="6.85415">
        <ele>2542</ele>
        <time>2026-08-04T08:57:09.278Z</time>
      </trkpt>
      <trkpt lat="45.9647" lon="6.85415">
        <ele>2541</ele>
        <time>2026-08-04T08:57:10.278Z</time>
      </trkpt>
      <trkpt lat="45.9647" lon="6.85415">
        <ele>2541</ele>
        <time>2026-08-04T08:57:11.278Z</time>
      </trkpt>
      <trkpt lat="45.9647" lon="6.85415">
        <ele>2540</ele>
        <time>2026-08-04T08:57:12.278Z</time>
      </trkpt>
      <trkpt lat="45.9647" lon="6.85415">
        <ele>2540</ele>
        <time>2026-08-04T08:57:13.278Z</time>
      </trkpt>
      <trkpt lat="45.9647" lon="6.85415">
        <ele>2540</ele>
        <time>2026-08-04T08:57:14.278Z</time>
      </trkpt>
      <trkpt lat="45.9647" lon="6.85415">
        <ele>2539</ele>
        <time>2026-08-04T08:57:15.278Z</time>
      </trkpt>
      <trkpt lat="45.9647" lon="6.85415">
        <ele>2539</ele>
        <time>2026-08-04T08:57:16.278Z</time>
      </trkpt>
      <trkpt lat="45.9647" lon="6.85415">
        <ele>2539</ele>
        <time>2026-08-04T08:57:17.278Z</time>
      </trkpt>
      <trkpt lat="45.9647" lon="6.85415">
        <ele>2539</ele>
        <time>2026-08-04T08:57:18.278Z</time>
      </trkpt>
      <trkpt lat="45.9647" lon="6.85415">
        <ele>2539</ele>
        <time>2026-08-04T08:57:19.278Z</time>
      </trkpt>
      <trkpt lat="45.9647" lon="6.85415">
        <ele>2539</ele>
        <time>2026-08-04T08:57:20.278Z</time>
      </trkpt>
      <trkpt lat="45.9647" lon="6.85415">
        <ele>2539</ele>
        <time>2026-08-04T08:57:21.278Z</time>
      </trkpt>
      <trkpt lat="45.9647" lon="6.85415">
        <ele>2539</ele>
        <time>2026-08-04T08:57:22.278Z</time>
      </trkpt>
      <trkpt lat="45.9647" lon="6.85415">
        <ele>2539</ele>
        <time>2026-08-04T08:57:23.278Z</time>
      </trkpt>
      <trkpt lat="45.9647" lon="6.85415">
        <ele>2539</ele>
        <time>2026-08-04T08:57:24.278Z</time>
      </trkpt>
      <trkpt lat="45.9647" lon="6.85415">
        <ele>2539</ele>
        <time>2026-08-04T08:57:25.278Z</time>
      </trkpt>
      <trkpt lat="45.9647" lon="6.85415">
        <ele>2538</ele>
        <time>2026-08-04T08:57:26.278Z</time>
      </trkpt>
      <trkpt lat="45.9647" lon="6.85415">
        <ele>2538</ele>
        <time>2026-08-04T08:57:27.278Z</time>
      </trkpt>
      <trkpt lat="45.9647" lon="6.85415">
        <ele>2538</ele>
        <time>2026-08-04T08:57:28.278Z</time>
      </trkpt>
      <trkpt lat="45.9647" lon="6.85415">
        <ele>2538</ele>
        <time>2026-08-04T08:57:29.278Z</time>
      </trkpt>
      <trkpt lat="45.9647" lon="6.85415">
        <ele>2538</ele>
        <time>2026-08-04T08:57:30.278Z</time>
      </trkpt>
      <trkpt lat="45.9647" lon="6.85415">
        <ele>2538</ele>
        <time>2026-08-04T08:57:31.278Z</time>
      </trkpt>
      <trkpt lat="45.9647" lon="6.85415">
        <ele>2538</ele>
        <time>2026-08-04T08:57:32.278Z</time>
      </trkpt>
      <trkpt lat="45.9647" lon="6.85415">
        <ele>2538</ele>
        <time>2026-08-04T08:57:33.278Z</time>
      </trkpt>
      <trkpt lat="45.9647" lon="6.85414">
        <ele>2538</ele>
        <time>2026-08-04T08:57:34.278Z</time>
      </trkpt>
      <trkpt lat="45.9647" lon="6.85414">
        <ele>2538</ele>
        <time>2026-08-04T08:57:35.278Z</time>
      </trkpt>
      <trkpt lat="45.9647" lon="6.85414">
        <ele>2538</ele>
        <time>2026-08-04T08:57:36.278Z</time>
      </trkpt>
      <trkpt lat="45.9647" lon="6.85414">
        <ele>2539</ele>
        <time>2026-08-04T08:57:37.278Z</time>
      </trkpt>
      <trkpt lat="45.9647" lon="6.85414">
        <ele>2539</ele>
        <time>2026-08-04T08:57:38.278Z</time>
      </trkpt>
      <trkpt lat="45.9647" lon="6.85414">
        <ele>2539</ele>
        <time>2026-08-04T08:57:39.278Z</time>
      </trkpt>
      <trkpt lat="45.9647" lon="6.85414">
        <ele>2539</ele>
        <time>2026-08-04T08:57:40.278Z</time>
      </trkpt>
      <trkpt lat="45.9647" lon="6.85414">
        <ele>2539</ele>
        <time>2026-08-04T08:57:41.278Z</time>
      </trkpt>
      <trkpt lat="45.9647" lon="6.85414">
        <ele>2539</ele>
        <time>2026-08-04T08:57:42.278Z</time>
      </trkpt>
      <trkpt lat="45.9647" lon="6.85414">
        <ele>2539</ele>
        <time>2026-08-04T08:57:43.278Z</time>
      </trkpt>
      <trkpt lat="45.9647" lon="6.85414">
        <ele>2539</ele>
        <time>2026-08-04T08:57:44.278Z</time>
      </trkpt>
      <trkpt lat="45.9647" lon="6.85414">
        <ele>2539</ele>
        <time>2026-08-04T08:57:45.278Z</time>
      </trkpt>
      <trkpt lat="45.9647" lon="6.85414">
        <ele>2539</ele>
        <time>2026-08-04T08:57:46.278Z</time>
      </trkpt>
      <trkpt lat="45.9647" lon="6.85414">
        <ele>2539</ele>
        <time>2026-08-04T08:57:47.278Z</time>
      </trkpt>
      <trkpt lat="45.9647" lon="6.85414">
        <ele>2539</ele>
        <time>2026-08-04T08:57:48.278Z</time>
      </trkpt>
      <trkpt lat="45.9647" lon="6.85414">
        <ele>2539</ele>
        <time>2026-08-04T08:57:49.278Z</time>
      </trkpt>
      <trkpt lat="45.9647" lon="6.85414">
        <ele>2539</ele>
        <time>2026-08-04T08:57:50.278Z</time>
      </trkpt>
      <trkpt lat="45.9647" lon="6.85414">
        <ele>2539</ele>
        <time>2026-08-04T08:57:51.278Z</time>
      </trkpt>
      <trkpt lat="45.9647" lon="6.85414">
        <ele>2539</ele>
        <time>2026-08-04T08:57:52.278Z</time>
      </trkpt>
      <trkpt lat="45.9647" lon="6.85414">
        <ele>2539</ele>
        <time>2026-08-04T08:57:53.278Z</time>
      </trkpt>
      <trkpt lat="45.9647" lon="6.85414">
        <ele>2539</ele>
        <time>2026-08-04T08:57:54.278Z</time>
      </trkpt>
      <trkpt lat="45.9647" lon="6.85414">
        <ele>2539</ele>
        <time>2026-08-04T08:57:55.278Z</time>
      </trkpt>
      <trkpt lat="45.9647" lon="6.85414">
        <ele>2539</ele>
        <time>2026-08-04T08:57:56.278Z</time>
      </trkpt>
      <trkpt lat="45.9647" lon="6.85414">
        <ele>2539</ele>
        <time>2026-08-04T08:57:57.278Z</time>
      </trkpt>
      <trkpt lat="45.9647" lon="6.85414">
        <ele>2539</ele>
        <time>2026-08-04T08:57:58.278Z</time>
      </trkpt>
      <trkpt lat="45.9647" lon="6.85414">
        <ele>2539</ele>
        <time>2026-08-04T08:57:59.278Z</time>
      </trkpt>
      <trkpt lat="45.9647" lon="6.85414">
        <ele>2539</ele>
        <time>2026-08-04T08:58:00.278Z</time>
      </trkpt>
      <trkpt lat="45.9647" lon="6.85414">
        <ele>2539</ele>
        <time>2026-08-04T08:58:01.278Z</time>
      </trkpt>
      <trkpt lat="45.9647" lon="6.85414">
        <ele>2539</ele>
        <time>2026-08-04T08:58:02.278Z</time>
      </trkpt>
      <trkpt lat="45.9647" lon="6.85414">
        <ele>2539</ele>
        <time>2026-08-04T08:58:03.278Z</time>
      </trkpt>
      <trkpt lat="45.9647" lon="6.85414">
        <ele>2539</ele>
        <time>2026-08-04T08:58:04.278Z</time>
      </trkpt>
      <trkpt lat="45.9647" lon="6.85414">
        <ele>2539</ele>
        <time>2026-08-04T08:58:05.278Z</time>
      </trkpt>
      <trkpt lat="45.9647" lon="6.85413">
        <ele>2539</ele>
        <time>2026-08-04T08:58:06.278Z</time>
      </trkpt>
      <trkpt lat="45.9647" lon="6.85413">
        <ele>2539</ele>
        <time>2026-08-04T08:58:07.278Z</time>
      </trkpt>
      <trkpt lat="45.9647" lon="6.85414">
        <ele>2539</ele>
        <time>2026-08-04T08:58:08.278Z</time>
      </trkpt>
      <trkpt lat="45.9647" lon="6.85414">
        <ele>2539</ele>
        <time>2026-08-04T08:58:09.278Z</time>
      </trkpt>
      <trkpt lat="45.9647" lon="6.85414">
        <ele>2539</ele>
        <time>2026-08-04T08:58:10.278Z</time>
      </trkpt>
      <trkpt lat="45.9647" lon="6.85414">
        <ele>2539</ele>
        <time>2026-08-04T08:58:11.278Z</time>
      </trkpt>
      <trkpt lat="45.9647" lon="6.85414">
        <ele>2539</ele>
        <time>2026-08-04T08:58:12.278Z</time>
      </trkpt>
      <trkpt lat="45.9647" lon="6.85414">
        <ele>2539</ele>
        <time>2026-08-04T08:58:13.278Z</time>
      </trkpt>
      <trkpt lat="45.9647" lon="6.85414">
        <ele>2539</ele>
        <time>2026-08-04T08:58:14.278Z</time>
      </trkpt>
      <trkpt lat="45.9647" lon="6.85414">
        <ele>2539</ele>
        <time>2026-08-04T08:58:15.278Z</time>
      </trkpt>
      <trkpt lat="45.9647" lon="6.85414">
        <ele>2539</ele>
        <time>2026-08-04T08:58:16.278Z</time>
      </trkpt>
      <trkpt lat="45.9647" lon="6.85414">
        <ele>2539</ele>
        <time>2026-08-04T08:58:17.278Z</time>
      </trkpt>
      <trkpt lat="45.9647" lon="6.85414">
        <ele>2539</ele>
        <time>2026-08-04T08:58:18.278Z</time>
      </trkpt>
      <trkpt lat="45.9647" lon="6.85414">
        <ele>2539</ele>
        <time>2026-08-04T08:58:19.278Z</time>
      </trkpt>
      <trkpt lat="45.9647" lon="6.85414">
        <ele>2539</ele>
        <time>2026-08-04T08:58:20.278Z</time>
      </trkpt>
      <trkpt lat="45.9647" lon="6.85414">
        <ele>2539</ele>
        <time>2026-08-04T08:58:21.278Z</time>
      </trkpt>
      <trkpt lat="45.9647" lon="6.85414">
        <ele>2539</ele>
        <time>2026-08-04T08:58:22.278Z</time>
      </trkpt>
      <trkpt lat="45.9647" lon="6.85414">
        <ele>2539</ele>
        <time>2026-08-04T08:58:23.278Z</time>
      </trkpt>
      <trkpt lat="45.9647" lon="6.85414">
        <ele>2539</ele>
        <time>2026-08-04T08:58:24.278Z</time>
      </trkpt>
      <trkpt lat="45.9647" lon="6.85414">
        <ele>2539</ele>
        <time>2026-08-04T08:58:25.278Z</time>
      </trkpt>
      <trkpt lat="45.9647" lon="6.85414">
        <ele>2539</ele>
        <time>2026-08-04T08:58:26.278Z</time>
      </trkpt>
      <trkpt lat="45.96471" lon="6.85414">
        <ele>2539</ele>
        <time>2026-08-04T08:58:27.278Z</time>
      </trkpt>
      <trkpt lat="45.96471" lon="6.85414">
        <ele>2539</ele>
        <time>2026-08-04T08:58:28.278Z</time>
      </trkpt>
      <trkpt lat="45.96471" lon="6.85414">
        <ele>2539</ele>
        <time>2026-08-04T08:58:29.278Z</time>
      </trkpt>
      <trkpt lat="45.96472" lon="6.85414">
        <ele>2539</ele>
        <time>2026-08-04T08:58:30.278Z</time>
      </trkpt>
      <trkpt lat="45.96473" lon="6.85414">
        <ele>2539</ele>
        <time>2026-08-04T08:58:31.278Z</time>
      </trkpt>
      <trkpt lat="45.96474" lon="6.85415">
        <ele>2539</ele>
        <time>2026-08-04T08:58:32.278Z</time>
      </trkpt>
      <trkpt lat="45.96476" lon="6.85414">
        <ele>2539</ele>
        <time>2026-08-04T08:58:33.278Z</time>
      </trkpt>
      <trkpt lat="45.96477" lon="6.85414">
        <ele>2538</ele>
        <time>2026-08-04T08:58:34.278Z</time>
      </trkpt>
      <trkpt lat="45.96478" lon="6.85415">
        <ele>2538</ele>
        <time>2026-08-04T08:58:35.278Z</time>
      </trkpt>
      <trkpt lat="45.9648" lon="6.85415">
        <ele>2538</ele>
        <time>2026-08-04T08:58:36.278Z</time>
      </trkpt>
      <trkpt lat="45.96481" lon="6.85416">
        <ele>2539</ele>
        <time>2026-08-04T08:58:37.278Z</time>
      </trkpt>
      <trkpt lat="45.96483" lon="6.85416">
        <ele>2538</ele>
        <time>2026-08-04T08:58:38.278Z</time>
      </trkpt>
      <trkpt lat="45.96484" lon="6.85416">
        <ele>2538</ele>
        <time>2026-08-04T08:58:39.278Z</time>
      </trkpt>
      <trkpt lat="45.96485" lon="6.85416">
        <ele>2538</ele>
        <time>2026-08-04T08:58:40.278Z</time>
      </trkpt>
      <trkpt lat="45.96486" lon="6.85415">
        <ele>2538</ele>
        <time>2026-08-04T08:58:41.278Z</time>
      </trkpt>
      <trkpt lat="45.96487" lon="6.85415">
        <ele>2538</ele>
        <time>2026-08-04T08:58:42.278Z</time>
      </trkpt>
      <trkpt lat="45.96487" lon="6.85415">
        <ele>2538</ele>
        <time>2026-08-04T08:58:43.278Z</time>
      </trkpt>
      <trkpt lat="45.96487" lon="6.85415">
        <ele>2538</ele>
        <time>2026-08-04T08:58:44.278Z</time>
      </trkpt>
      <trkpt lat="45.96487" lon="6.85414">
        <ele>2538</ele>
        <time>2026-08-04T08:58:45.279Z</time>
      </trkpt>
      <trkpt lat="45.96487" lon="6.85414">
        <ele>2538</ele>
        <time>2026-08-04T08:58:46.278Z</time>
      </trkpt>
      <trkpt lat="45.96488" lon="6.85415">
        <ele>2538</ele>
        <time>2026-08-04T08:58:47.278Z</time>
      </trkpt>
      <trkpt lat="45.96488" lon="6.85415">
        <ele>2538</ele>
        <time>2026-08-04T08:58:48.278Z</time>
      </trkpt>
      <trkpt lat="45.96488" lon="6.85415">
        <ele>2539</ele>
        <time>2026-08-04T08:58:49.278Z</time>
      </trkpt>
      <trkpt lat="45.96488" lon="6.85415">
        <ele>2539</ele>
        <time>2026-08-04T08:58:50.278Z</time>
      </trkpt>
      <trkpt lat="45.96488" lon="6.85415">
        <ele>2539</ele>
        <time>2026-08-04T08:58:51.278Z</time>
      </trkpt>
      <trkpt lat="45.96488" lon="6.85415">
        <ele>2540</ele>
        <time>2026-08-04T08:58:52.278Z</time>
      </trkpt>
      <trkpt lat="45.96488" lon="6.85415">
        <ele>2540</ele>
        <time>2026-08-04T08:58:53.278Z</time>
      </trkpt>
      <trkpt lat="45.96488" lon="6.85415">
        <ele>2540</ele>
        <time>2026-08-04T08:58:54.278Z</time>
      </trkpt>
      <trkpt lat="45.96488" lon="6.85415">
        <ele>2539</ele>
        <time>2026-08-04T08:58:55.278Z</time>
      </trkpt>
      <trkpt lat="45.96488" lon="6.85415">
        <ele>2539</ele>
        <time>2026-08-04T08:58:56.278Z</time>
      </trkpt>
      <trkpt lat="45.96488" lon="6.85415">
        <ele>2539</ele>
        <time>2026-08-04T08:58:57.278Z</time>
      </trkpt>
      <trkpt lat="45.96488" lon="6.85415">
        <ele>2538</ele>
        <time>2026-08-04T08:58:58.278Z</time>
      </trkpt>
      <trkpt lat="45.96489" lon="6.85415">
        <ele>2538</ele>
        <time>2026-08-04T08:58:59.278Z</time>
      </trkpt>
      <trkpt lat="45.9649" lon="6.85416">
        <ele>2538</ele>
        <time>2026-08-04T08:59:00.278Z</time>
      </trkpt>
      <trkpt lat="45.96491" lon="6.85416">
        <ele>2538</ele>
        <time>2026-08-04T08:59:01.278Z</time>
      </trkpt>
      <trkpt lat="45.96493" lon="6.85416">
        <ele>2538</ele>
        <time>2026-08-04T08:59:02.278Z</time>
      </trkpt>
      <trkpt lat="45.96494" lon="6.85415">
        <ele>2538</ele>
        <time>2026-08-04T08:59:03.278Z</time>
      </trkpt>
      <trkpt lat="45.96495" lon="6.85415">
        <ele>2538</ele>
        <time>2026-08-04T08:59:04.278Z</time>
      </trkpt>
      <trkpt lat="45.96497" lon="6.85415">
        <ele>2538</ele>
        <time>2026-08-04T08:59:05.278Z</time>
      </trkpt>
      <trkpt lat="45.96498" lon="6.85416">
        <ele>2538</ele>
        <time>2026-08-04T08:59:06.278Z</time>
      </trkpt>
      <trkpt lat="45.96499" lon="6.85416">
        <ele>2538</ele>
        <time>2026-08-04T08:59:07.278Z</time>
      </trkpt>
      <trkpt lat="45.965" lon="6.85416">
        <ele>2537</ele>
        <time>2026-08-04T08:59:08.278Z</time>
      </trkpt>
      <trkpt lat="45.96501" lon="6.85416">
        <ele>2537</ele>
        <time>2026-08-04T08:59:09.278Z</time>
      </trkpt>
      <trkpt lat="45.96501" lon="6.85416">
        <ele>2537</ele>
        <time>2026-08-04T08:59:10.278Z</time>
      </trkpt>
      <trkpt lat="45.96502" lon="6.85416">
        <ele>2537</ele>
        <time>2026-08-04T08:59:11.278Z</time>
      </trkpt>
      <trkpt lat="45.96503" lon="6.85416">
        <ele>2537</ele>
        <time>2026-08-04T08:59:12.278Z</time>
      </trkpt>
      <trkpt lat="45.96504" lon="6.85417">
        <ele>2536</ele>
        <time>2026-08-04T08:59:13.278Z</time>
      </trkpt>
      <trkpt lat="45.96505" lon="6.85418">
        <ele>2536</ele>
        <time>2026-08-04T08:59:14.278Z</time>
      </trkpt>
      <trkpt lat="45.96506" lon="6.85418">
        <ele>2536</ele>
        <time>2026-08-04T08:59:15.278Z</time>
      </trkpt>
      <trkpt lat="45.96506" lon="6.85419">
        <ele>2536</ele>
        <time>2026-08-04T08:59:16.278Z</time>
      </trkpt>
      <trkpt lat="45.96507" lon="6.85419">
        <ele>2536</ele>
        <time>2026-08-04T08:59:17.278Z</time>
      </trkpt>
      <trkpt lat="45.96508" lon="6.85418">
        <ele>2536</ele>
        <time>2026-08-04T08:59:18.278Z</time>
      </trkpt>
      <trkpt lat="45.96509" lon="6.85417">
        <ele>2536</ele>
        <time>2026-08-04T08:59:19.278Z</time>
      </trkpt>
      <trkpt lat="45.9651" lon="6.85417">
        <ele>2536</ele>
        <time>2026-08-04T08:59:20.278Z</time>
      </trkpt>
      <trkpt lat="45.96511" lon="6.85417">
        <ele>2536</ele>
        <time>2026-08-04T08:59:21.278Z</time>
      </trkpt>
      <trkpt lat="45.96512" lon="6.85417">
        <ele>2536</ele>
        <time>2026-08-04T08:59:22.278Z</time>
      </trkpt>
      <trkpt lat="45.96513" lon="6.85417">
        <ele>2536</ele>
        <time>2026-08-04T08:59:23.278Z</time>
      </trkpt>
      <trkpt lat="45.96514" lon="6.85417">
        <ele>2535</ele>
        <time>2026-08-04T08:59:24.278Z</time>
      </trkpt>
      <trkpt lat="45.96515" lon="6.85416">
        <ele>2535</ele>
        <time>2026-08-04T08:59:25.278Z</time>
      </trkpt>
      <trkpt lat="45.96516" lon="6.85415">
        <ele>2535</ele>
        <time>2026-08-04T08:59:26.278Z</time>
      </trkpt>
      <trkpt lat="45.96517" lon="6.85414">
        <ele>2535</ele>
        <time>2026-08-04T08:59:27.278Z</time>
      </trkpt>
      <trkpt lat="45.96517" lon="6.85414">
        <ele>2534</ele>
        <time>2026-08-04T08:59:28.278Z</time>
      </trkpt>
      <trkpt lat="45.96518" lon="6.85413">
        <ele>2534</ele>
        <time>2026-08-04T08:59:29.278Z</time>
      </trkpt>
      <trkpt lat="45.96518" lon="6.85412">
        <ele>2534</ele>
        <time>2026-08-04T08:59:30.278Z</time>
      </trkpt>
      <trkpt lat="45.96519" lon="6.85411">
        <ele>2535</ele>
        <time>2026-08-04T08:59:31.278Z</time>
      </trkpt>
      <trkpt lat="45.96519" lon="6.85411">
        <ele>2535</ele>
        <time>2026-08-04T08:59:32.278Z</time>
      </trkpt>
      <trkpt lat="45.96519" lon="6.85411">
        <ele>2535</ele>
        <time>2026-08-04T08:59:33.278Z</time>
      </trkpt>
      <trkpt lat="45.96519" lon="6.8541">
        <ele>2535</ele>
        <time>2026-08-04T08:59:34.278Z</time>
      </trkpt>
      <trkpt lat="45.96519" lon="6.8541">
        <ele>2536</ele>
        <time>2026-08-04T08:59:35.278Z</time>
      </trkpt>
      <trkpt lat="45.96519" lon="6.8541">
        <ele>2536</ele>
        <time>2026-08-04T08:59:36.278Z</time>
      </trkpt>
      <trkpt lat="45.96518" lon="6.8541">
        <ele>2537</ele>
        <time>2026-08-04T08:59:37.278Z</time>
      </trkpt>
      <trkpt lat="45.96518" lon="6.8541">
        <ele>2537</ele>
        <time>2026-08-04T08:59:38.278Z</time>
      </trkpt>
      <trkpt lat="45.96518" lon="6.8541">
        <ele>2537</ele>
        <time>2026-08-04T08:59:39.278Z</time>
      </trkpt>
      <trkpt lat="45.96519" lon="6.8541">
        <ele>2538</ele>
        <time>2026-08-04T08:59:40.278Z</time>
      </trkpt>
      <trkpt lat="45.96519" lon="6.8541">
        <ele>2538</ele>
        <time>2026-08-04T08:59:41.278Z</time>
      </trkpt>
      <trkpt lat="45.96519" lon="6.8541">
        <ele>2539</ele>
        <time>2026-08-04T08:59:42.278Z</time>
      </trkpt>
      <trkpt lat="45.96519" lon="6.8541">
        <ele>2539</ele>
        <time>2026-08-04T08:59:43.278Z</time>
      </trkpt>
      <trkpt lat="45.96519" lon="6.8541">
        <ele>2539</ele>
        <time>2026-08-04T08:59:44.278Z</time>
      </trkpt>
      <trkpt lat="45.96519" lon="6.8541">
        <ele>2539</ele>
        <time>2026-08-04T08:59:45.278Z</time>
      </trkpt>
      <trkpt lat="45.96519" lon="6.8541">
        <ele>2539</ele>
        <time>2026-08-04T08:59:46.278Z</time>
      </trkpt>
      <trkpt lat="45.96519" lon="6.8541">
        <ele>2539</ele>
        <time>2026-08-04T08:59:47.278Z</time>
      </trkpt>
      <trkpt lat="45.96519" lon="6.8541">
        <ele>2539</ele>
        <time>2026-08-04T08:59:48.278Z</time>
      </trkpt>
      <trkpt lat="45.96519" lon="6.8541">
        <ele>2539</ele>
        <time>2026-08-04T08:59:49.278Z</time>
      </trkpt>
      <trkpt lat="45.96519" lon="6.8541">
        <ele>2539</ele>
        <time>2026-08-04T08:59:50.278Z</time>
      </trkpt>
      <trkpt lat="45.96519" lon="6.8541">
        <ele>2539</ele>
        <time>2026-08-04T08:59:51.278Z</time>
      </trkpt>
      <trkpt lat="45.96519" lon="6.8541">
        <ele>2539</ele>
        <time>2026-08-04T08:59:52.278Z</time>
      </trkpt>
      <trkpt lat="45.96519" lon="6.8541">
        <ele>2539</ele>
        <time>2026-08-04T08:59:53.278Z</time>
      </trkpt>
      <trkpt lat="45.96519" lon="6.8541">
        <ele>2539</ele>
        <time>2026-08-04T08:59:54.278Z</time>
      </trkpt>
      <trkpt lat="45.96519" lon="6.8541">
        <ele>2539</ele>
        <time>2026-08-04T08:59:55.278Z</time>
      </trkpt>
      <trkpt lat="45.96519" lon="6.8541">
        <ele>2539</ele>
        <time>2026-08-04T08:59:56.278Z</time>
      </trkpt>
      <trkpt lat="45.96519" lon="6.8541">
        <ele>2539</ele>
        <time>2026-08-04T08:59:57.278Z</time>
      </trkpt>
      <trkpt lat="45.96519" lon="6.8541">
        <ele>2539</ele>
        <time>2026-08-04T08:59:58.278Z</time>
      </trkpt>
      <trkpt lat="45.96519" lon="6.8541">
        <ele>2539</ele>
        <time>2026-08-04T08:59:59.278Z</time>
      </trkpt>
      <trkpt lat="45.96519" lon="6.8541">
        <ele>2539</ele>
        <time>2026-08-04T09:00:00.278Z</time>
      </trkpt>
      <trkpt lat="45.96519" lon="6.8541">
        <ele>2539</ele>
        <time>2026-08-04T09:00:01.278Z</time>
      </trkpt>
      <trkpt lat="45.96519" lon="6.8541">
        <ele>2539</ele>
        <time>2026-08-04T09:00:02.278Z</time>
      </trkpt>
      <trkpt lat="45.96519" lon="6.8541">
        <ele>2539</ele>
        <time>2026-08-04T09:00:03.278Z</time>
      </trkpt>
      <trkpt lat="45.96519" lon="6.8541">
        <ele>2539</ele>
        <time>2026-08-04T09:00:04.278Z</time>
      </trkpt>
      <trkpt lat="45.96519" lon="6.8541">
        <ele>2539</ele>
        <time>2026-08-04T09:00:05.278Z</time>
      </trkpt>
      <trkpt lat="45.96519" lon="6.8541">
        <ele>2539</ele>
        <time>2026-08-04T09:00:06.278Z</time>
      </trkpt>
      <trkpt lat="45.96519" lon="6.8541">
        <ele>2539</ele>
        <time>2026-08-04T09:00:07.278Z</time>
      </trkpt>
      <trkpt lat="45.96519" lon="6.8541">
        <ele>2540</ele>
        <time>2026-08-04T09:00:08.278Z</time>
      </trkpt>
      <trkpt lat="45.96519" lon="6.8541">
        <ele>2540</ele>
        <time>2026-08-04T09:00:09.278Z</time>
      </trkpt>
      <trkpt lat="45.96519" lon="6.8541">
        <ele>2540</ele>
        <time>2026-08-04T09:00:10.278Z</time>
      </trkpt>
      <trkpt lat="45.96519" lon="6.8541">
        <ele>2540</ele>
        <time>2026-08-04T09:00:11.278Z</time>
      </trkpt>
      <trkpt lat="45.96519" lon="6.8541">
        <ele>2540</ele>
        <time>2026-08-04T09:00:12.278Z</time>
      </trkpt>
      <trkpt lat="45.96519" lon="6.8541">
        <ele>2540</ele>
        <time>2026-08-04T09:00:13.278Z</time>
      </trkpt>
      <trkpt lat="45.96519" lon="6.8541">
        <ele>2540</ele>
        <time>2026-08-04T09:00:14.278Z</time>
      </trkpt>
      <trkpt lat="45.96519" lon="6.8541">
        <ele>2540</ele>
        <time>2026-08-04T09:00:15.278Z</time>
      </trkpt>
      <trkpt lat="45.96519" lon="6.85411">
        <ele>2540</ele>
        <time>2026-08-04T09:00:16.278Z</time>
      </trkpt>
      <trkpt lat="45.96519" lon="6.85411">
        <ele>2540</ele>
        <time>2026-08-04T09:00:17.278Z</time>
      </trkpt>
      <trkpt lat="45.96519" lon="6.85411">
        <ele>2540</ele>
        <time>2026-08-04T09:00:18.278Z</time>
      </trkpt>
      <trkpt lat="45.96519" lon="6.85411">
        <ele>2540</ele>
        <time>2026-08-04T09:00:19.278Z</time>
      </trkpt>
      <trkpt lat="45.96519" lon="6.85411">
        <ele>2540</ele>
        <time>2026-08-04T09:00:20.278Z</time>
      </trkpt>
      <trkpt lat="45.96519" lon="6.85411">
        <ele>2540</ele>
        <time>2026-08-04T09:00:21.278Z</time>
      </trkpt>
      <trkpt lat="45.96519" lon="6.85411">
        <ele>2540</ele>
        <time>2026-08-04T09:00:22.278Z</time>
      </trkpt>
      <trkpt lat="45.96519" lon="6.85411">
        <ele>2540</ele>
        <time>2026-08-04T09:00:23.278Z</time>
      </trkpt>
      <trkpt lat="45.96519" lon="6.85411">
        <ele>2540</ele>
        <time>2026-08-04T09:00:24.278Z</time>
      </trkpt>
      <trkpt lat="45.96519" lon="6.85411">
        <ele>2540</ele>
        <time>2026-08-04T09:00:25.278Z</time>
      </trkpt>
      <trkpt lat="45.96519" lon="6.85411">
        <ele>2540</ele>
        <time>2026-08-04T09:00:26.278Z</time>
      </trkpt>
      <trkpt lat="45.96519" lon="6.85411">
        <ele>2540</ele>
        <time>2026-08-04T09:00:27.278Z</time>
      </trkpt>
      <trkpt lat="45.96519" lon="6.85411">
        <ele>2540</ele>
        <time>2026-08-04T09:00:28.278Z</time>
      </trkpt>
      <trkpt lat="45.96519" lon="6.85411">
        <ele>2540</ele>
        <time>2026-08-04T09:00:29.278Z</time>
      </trkpt>
      <trkpt lat="45.96518" lon="6.85412">
        <ele>2540</ele>
        <time>2026-08-04T09:00:30.278Z</time>
      </trkpt>
      <trkpt lat="45.96517" lon="6.85413">
        <ele>2540</ele>
        <time>2026-08-04T09:00:31.278Z</time>
      </trkpt>
      <trkpt lat="45.96516" lon="6.85413">
        <ele>2539</ele>
        <time>2026-08-04T09:00:32.278Z</time>
      </trkpt>
      <trkpt lat="45.96514" lon="6.85414">
        <ele>2539</ele>
        <time>2026-08-04T09:00:33.278Z</time>
      </trkpt>
      <trkpt lat="45.96513" lon="6.85414">
        <ele>2539</ele>
        <time>2026-08-04T09:00:34.278Z</time>
      </trkpt>
      <trkpt lat="45.96511" lon="6.85416">
        <ele>2539</ele>
        <time>2026-08-04T09:00:35.278Z</time>
      </trkpt>
      <trkpt lat="45.9651" lon="6.85417">
        <ele>2539</ele>
        <time>2026-08-04T09:00:36.278Z</time>
      </trkpt>
      <trkpt lat="45.96508" lon="6.85417">
        <ele>2539</ele>
        <time>2026-08-04T09:00:37.278Z</time>
      </trkpt>
      <trkpt lat="45.96507" lon="6.85418">
        <ele>2539</ele>
        <time>2026-08-04T09:00:38.278Z</time>
      </trkpt>
      <trkpt lat="45.96505" lon="6.85419">
        <ele>2539</ele>
        <time>2026-08-04T09:00:39.278Z</time>
      </trkpt>
      <trkpt lat="45.96504" lon="6.8542">
        <ele>2539</ele>
        <time>2026-08-04T09:00:40.278Z</time>
      </trkpt>
      <trkpt lat="45.96503" lon="6.8542">
        <ele>2538</ele>
        <time>2026-08-04T09:00:41.278Z</time>
      </trkpt>
      <trkpt lat="45.96502" lon="6.85421">
        <ele>2538</ele>
        <time>2026-08-04T09:00:42.278Z</time>
      </trkpt>
      <trkpt lat="45.965" lon="6.85422">
        <ele>2538</ele>
        <time>2026-08-04T09:00:43.278Z</time>
      </trkpt>
      <trkpt lat="45.96499" lon="6.85423">
        <ele>2538</ele>
        <time>2026-08-04T09:00:44.278Z</time>
      </trkpt>
      <trkpt lat="45.96498" lon="6.85423">
        <ele>2538</ele>
        <time>2026-08-04T09:00:45.278Z</time>
      </trkpt>
      <trkpt lat="45.96497" lon="6.85424">
        <ele>2537</ele>
        <time>2026-08-04T09:00:46.278Z</time>
      </trkpt>
      <trkpt lat="45.96495" lon="6.85425">
        <ele>2537</ele>
        <time>2026-08-04T09:00:47.278Z</time>
      </trkpt>
      <trkpt lat="45.96494" lon="6.85425">
        <ele>2537</ele>
        <time>2026-08-04T09:00:48.278Z</time>
      </trkpt>
      <trkpt lat="45.96493" lon="6.85426">
        <ele>2537</ele>
        <time>2026-08-04T09:00:49.278Z</time>
      </trkpt>
      <trkpt lat="45.96492" lon="6.85426">
        <ele>2537</ele>
        <time>2026-08-04T09:00:50.278Z</time>
      </trkpt>
      <trkpt lat="45.96489" lon="6.85427">
        <ele>2537</ele>
        <time>2026-08-04T09:00:51.278Z</time>
      </trkpt>
      <trkpt lat="45.96487" lon="6.85427">
        <ele>2537</ele>
        <time>2026-08-04T09:00:52.278Z</time>
      </trkpt>
      <trkpt lat="45.96485" lon="6.85428">
        <ele>2537</ele>
        <time>2026-08-04T09:00:53.278Z</time>
      </trkpt>
      <trkpt lat="45.96485" lon="6.85429">
        <ele>2537</ele>
        <time>2026-08-04T09:00:54.279Z</time>
      </trkpt>
      <trkpt lat="45.96485" lon="6.8543">
        <ele>2537</ele>
        <time>2026-08-04T09:00:55.278Z</time>
      </trkpt>
      <trkpt lat="45.96485" lon="6.85431">
        <ele>2538</ele>
        <time>2026-08-04T09:00:56.278Z</time>
      </trkpt>
      <trkpt lat="45.96484" lon="6.85432">
        <ele>2538</ele>
        <time>2026-08-04T09:00:57.278Z</time>
      </trkpt>
      <trkpt lat="45.96484" lon="6.85433">
        <ele>2539</ele>
        <time>2026-08-04T09:00:58.278Z</time>
      </trkpt>
      <trkpt lat="45.96483" lon="6.85433">
        <ele>2539</ele>
        <time>2026-08-04T09:00:59.278Z</time>
      </trkpt>
      <trkpt lat="45.96482" lon="6.85434">
        <ele>2539</ele>
        <time>2026-08-04T09:01:00.278Z</time>
      </trkpt>
      <trkpt lat="45.96481" lon="6.85435">
        <ele>2539</ele>
        <time>2026-08-04T09:01:01.278Z</time>
      </trkpt>
      <trkpt lat="45.9648" lon="6.85435">
        <ele>2540</ele>
        <time>2026-08-04T09:01:02.278Z</time>
      </trkpt>
      <trkpt lat="45.9648" lon="6.85436">
        <ele>2539</ele>
        <time>2026-08-04T09:01:03.278Z</time>
      </trkpt>
      <trkpt lat="45.96479" lon="6.85437">
        <ele>2539</ele>
        <time>2026-08-04T09:01:04.278Z</time>
      </trkpt>
      <trkpt lat="45.96478" lon="6.85437">
        <ele>2539</ele>
        <time>2026-08-04T09:01:05.278Z</time>
      </trkpt>
      <trkpt lat="45.96477" lon="6.85437">
        <ele>2539</ele>
        <time>2026-08-04T09:01:06.278Z</time>
      </trkpt>
      <trkpt lat="45.96477" lon="6.85437">
        <ele>2539</ele>
        <time>2026-08-04T09:01:07.278Z</time>
      </trkpt>
      <trkpt lat="45.96477" lon="6.85437">
        <ele>2538</ele>
        <time>2026-08-04T09:01:08.278Z</time>
      </trkpt>
      <trkpt lat="45.96476" lon="6.85436">
        <ele>2538</ele>
        <time>2026-08-04T09:01:09.278Z</time>
      </trkpt>
      <trkpt lat="45.96476" lon="6.85437">
        <ele>2537</ele>
        <time>2026-08-04T09:01:10.278Z</time>
      </trkpt>
      <trkpt lat="45.96475" lon="6.85437">
        <ele>2537</ele>
        <time>2026-08-04T09:01:11.278Z</time>
      </trkpt>
      <trkpt lat="45.96475" lon="6.85437">
        <ele>2537</ele>
        <time>2026-08-04T09:01:12.278Z</time>
      </trkpt>
      <trkpt lat="45.96474" lon="6.85436">
        <ele>2537</ele>
        <time>2026-08-04T09:01:13.278Z</time>
      </trkpt>
      <trkpt lat="45.96474" lon="6.85436">
        <ele>2537</ele>
        <time>2026-08-04T09:01:14.278Z</time>
      </trkpt>
      <trkpt lat="45.96473" lon="6.85435">
        <ele>2537</ele>
        <time>2026-08-04T09:01:15.278Z</time>
      </trkpt>
      <trkpt lat="45.96473" lon="6.85435">
        <ele>2537</ele>
        <time>2026-08-04T09:01:16.278Z</time>
      </trkpt>
      <trkpt lat="45.96473" lon="6.85435">
        <ele>2537</ele>
        <time>2026-08-04T09:01:17.278Z</time>
      </trkpt>
      <trkpt lat="45.96473" lon="6.85435">
        <ele>2537</ele>
        <time>2026-08-04T09:01:18.278Z</time>
      </trkpt>
      <trkpt lat="45.96473" lon="6.85435">
        <ele>2537</ele>
        <time>2026-08-04T09:01:19.278Z</time>
      </trkpt>
      <trkpt lat="45.96473" lon="6.85435">
        <ele>2537</ele>
        <time>2026-08-04T09:01:20.278Z</time>
      </trkpt>
      <trkpt lat="45.96473" lon="6.85434">
        <ele>2537</ele>
        <time>2026-08-04T09:01:21.278Z</time>
      </trkpt>
      <trkpt lat="45.96473" lon="6.85434">
        <ele>2536</ele>
        <time>2026-08-04T09:01:22.278Z</time>
      </trkpt>
      <trkpt lat="45.96473" lon="6.85434">
        <ele>2536</ele>
        <time>2026-08-04T09:01:23.278Z</time>
      </trkpt>
      <trkpt lat="45.96473" lon="6.85434">
        <ele>2536</ele>
        <time>2026-08-04T09:01:24.278Z</time>
      </trkpt>
      <trkpt lat="45.96473" lon="6.85435">
        <ele>2535</ele>
        <time>2026-08-04T09:01:25.278Z</time>
      </trkpt>
      <trkpt lat="45.96472" lon="6.85435">
        <ele>2535</ele>
        <time>2026-08-04T09:01:26.278Z</time>
      </trkpt>
      <trkpt lat="45.96471" lon="6.85435">
        <ele>2535</ele>
        <time>2026-08-04T09:01:27.278Z</time>
      </trkpt>
      <trkpt lat="45.96471" lon="6.85434">
        <ele>2534</ele>
        <time>2026-08-04T09:01:28.278Z</time>
      </trkpt>
      <trkpt lat="45.9647" lon="6.85434">
        <ele>2534</ele>
        <time>2026-08-04T09:01:29.278Z</time>
      </trkpt>
      <trkpt lat="45.9647" lon="6.85434">
        <ele>2533</ele>
        <time>2026-08-04T09:01:30.278Z</time>
      </trkpt>
      <trkpt lat="45.96469" lon="6.85434">
        <ele>2533</ele>
        <time>2026-08-04T09:01:31.278Z</time>
      </trkpt>
      <trkpt lat="45.96469" lon="6.85434">
        <ele>2533</ele>
        <time>2026-08-04T09:01:32.278Z</time>
      </trkpt>
      <trkpt lat="45.96468" lon="6.85434">
        <ele>2532</ele>
        <time>2026-08-04T09:01:33.278Z</time>
      </trkpt>
      <trkpt lat="45.96467" lon="6.85435">
        <ele>2532</ele>
        <time>2026-08-04T09:01:34.278Z</time>
      </trkpt>
      <trkpt lat="45.96467" lon="6.85436">
        <ele>2532</ele>
        <time>2026-08-04T09:01:35.278Z</time>
      </trkpt>
      <trkpt lat="45.96466" lon="6.85436">
        <ele>2531</ele>
        <time>2026-08-04T09:01:36.278Z</time>
      </trkpt>
      <trkpt lat="45.96465" lon="6.85437">
        <ele>2531</ele>
        <time>2026-08-04T09:01:37.278Z</time>
      </trkpt>
      <trkpt lat="45.96464" lon="6.85437">
        <ele>2531</ele>
        <time>2026-08-04T09:01:38.278Z</time>
      </trkpt>
      <trkpt lat="45.96463" lon="6.85437">
        <ele>2531</ele>
        <time>2026-08-04T09:01:39.278Z</time>
      </trkpt>
      <trkpt lat="45.96462" lon="6.85437">
        <ele>2531</ele>
        <time>2026-08-04T09:01:40.278Z</time>
      </trkpt>
      <trkpt lat="45.96461" lon="6.85437">
        <ele>2531</ele>
        <time>2026-08-04T09:01:41.278Z</time>
      </trkpt>
      <trkpt lat="45.9646" lon="6.85437">
        <ele>2531</ele>
        <time>2026-08-04T09:01:42.278Z</time>
      </trkpt>
      <trkpt lat="45.96459" lon="6.85436">
        <ele>2531</ele>
        <time>2026-08-04T09:01:43.278Z</time>
      </trkpt>
      <trkpt lat="45.96458" lon="6.85435">
        <ele>2531</ele>
        <time>2026-08-04T09:01:44.278Z</time>
      </trkpt>
      <trkpt lat="45.96457" lon="6.85434">
        <ele>2531</ele>
        <time>2026-08-04T09:01:45.278Z</time>
      </trkpt>
      <trkpt lat="45.96457" lon="6.85433">
        <ele>2531</ele>
        <time>2026-08-04T09:01:46.278Z</time>
      </trkpt>
      <trkpt lat="45.96456" lon="6.85432">
        <ele>2531</ele>
        <time>2026-08-04T09:01:47.278Z</time>
      </trkpt>
      <trkpt lat="45.96455" lon="6.85432">
        <ele>2531</ele>
        <time>2026-08-04T09:01:48.278Z</time>
      </trkpt>
      <trkpt lat="45.96454" lon="6.85431">
        <ele>2531</ele>
        <time>2026-08-04T09:01:49.278Z</time>
      </trkpt>
      <trkpt lat="45.96453" lon="6.8543">
        <ele>2531</ele>
        <time>2026-08-04T09:01:50.278Z</time>
      </trkpt>
      <trkpt lat="45.96452" lon="6.8543">
        <ele>2532</ele>
        <time>2026-08-04T09:01:51.278Z</time>
      </trkpt>
      <trkpt lat="45.96451" lon="6.8543">
        <ele>2532</ele>
        <time>2026-08-04T09:01:52.278Z</time>
      </trkpt>
      <trkpt lat="45.9645" lon="6.8543">
        <ele>2532</ele>
        <time>2026-08-04T09:01:53.278Z</time>
      </trkpt>
      <trkpt lat="45.96449" lon="6.85429">
        <ele>2533</ele>
        <time>2026-08-04T09:01:54.278Z</time>
      </trkpt>
      <trkpt lat="45.96449" lon="6.85429">
        <ele>2533</ele>
        <time>2026-08-04T09:01:55.278Z</time>
      </trkpt>
      <trkpt lat="45.96448" lon="6.85429">
        <ele>2534</ele>
        <time>2026-08-04T09:01:56.278Z</time>
      </trkpt>
      <trkpt lat="45.96447" lon="6.85429">
        <ele>2535</ele>
        <time>2026-08-04T09:01:57.278Z</time>
      </trkpt>
      <trkpt lat="45.96446" lon="6.85428">
        <ele>2535</ele>
        <time>2026-08-04T09:01:58.278Z</time>
      </trkpt>
      <trkpt lat="45.96445" lon="6.85428">
        <ele>2535</ele>
        <time>2026-08-04T09:01:59.278Z</time>
      </trkpt>
      <trkpt lat="45.96445" lon="6.85428">
        <ele>2536</ele>
        <time>2026-08-04T09:02:00.278Z</time>
      </trkpt>
      <trkpt lat="45.96444" lon="6.85428">
        <ele>2536</ele>
        <time>2026-08-04T09:02:01.278Z</time>
      </trkpt>
      <trkpt lat="45.96443" lon="6.85427">
        <ele>2537</ele>
        <time>2026-08-04T09:02:02.278Z</time>
      </trkpt>
      <trkpt lat="45.96442" lon="6.85427">
        <ele>2537</ele>
        <time>2026-08-04T09:02:03.278Z</time>
      </trkpt>
      <trkpt lat="45.96442" lon="6.85428">
        <ele>2537</ele>
        <time>2026-08-04T09:02:04.278Z</time>
      </trkpt>
      <trkpt lat="45.96441" lon="6.85428">
        <ele>2537</ele>
        <time>2026-08-04T09:02:05.278Z</time>
      </trkpt>
      <trkpt lat="45.96441" lon="6.85429">
        <ele>2538</ele>
        <time>2026-08-04T09:02:06.278Z</time>
      </trkpt>
      <trkpt lat="45.9644" lon="6.85429">
        <ele>2538</ele>
        <time>2026-08-04T09:02:07.278Z</time>
      </trkpt>
      <trkpt lat="45.9644" lon="6.8543">
        <ele>2538</ele>
        <time>2026-08-04T09:02:08.278Z</time>
      </trkpt>
      <trkpt lat="45.96439" lon="6.8543">
        <ele>2537</ele>
        <time>2026-08-04T09:02:09.278Z</time>
      </trkpt>
      <trkpt lat="45.96438" lon="6.8543">
        <ele>2537</ele>
        <time>2026-08-04T09:02:10.278Z</time>
      </trkpt>
      <trkpt lat="45.96437" lon="6.85431">
        <ele>2537</ele>
        <time>2026-08-04T09:02:11.278Z</time>
      </trkpt>
      <trkpt lat="45.96436" lon="6.85432">
        <ele>2537</ele>
        <time>2026-08-04T09:02:12.278Z</time>
      </trkpt>
      <trkpt lat="45.96435" lon="6.85432">
        <ele>2537</ele>
        <time>2026-08-04T09:02:13.278Z</time>
      </trkpt>
      <trkpt lat="45.96435" lon="6.85432">
        <ele>2537</ele>
        <time>2026-08-04T09:02:14.278Z</time>
      </trkpt>
      <trkpt lat="45.96434" lon="6.85432">
        <ele>2537</ele>
        <time>2026-08-04T09:02:15.278Z</time>
      </trkpt>
      <trkpt lat="45.96434" lon="6.85432">
        <ele>2537</ele>
        <time>2026-08-04T09:02:16.278Z</time>
      </trkpt>
      <trkpt lat="45.96433" lon="6.85433">
        <ele>2537</ele>
        <time>2026-08-04T09:02:17.278Z</time>
      </trkpt>
      <trkpt lat="45.96433" lon="6.85433">
        <ele>2537</ele>
        <time>2026-08-04T09:02:18.278Z</time>
      </trkpt>
      <trkpt lat="45.96432" lon="6.85433">
        <ele>2537</ele>
        <time>2026-08-04T09:02:19.278Z</time>
      </trkpt>
      <trkpt lat="45.96432" lon="6.85433">
        <ele>2537</ele>
        <time>2026-08-04T09:02:20.278Z</time>
      </trkpt>
      <trkpt lat="45.96431" lon="6.85433">
        <ele>2536</ele>
        <time>2026-08-04T09:02:21.278Z</time>
      </trkpt>
      <trkpt lat="45.96431" lon="6.85434">
        <ele>2536</ele>
        <time>2026-08-04T09:02:22.278Z</time>
      </trkpt>
      <trkpt lat="45.96431" lon="6.85434">
        <ele>2536</ele>
        <time>2026-08-04T09:02:23.278Z</time>
      </trkpt>
      <trkpt lat="45.9643" lon="6.85434">
        <ele>2536</ele>
        <time>2026-08-04T09:02:24.278Z</time>
      </trkpt>
      <trkpt lat="45.9643" lon="6.85434">
        <ele>2536</ele>
        <time>2026-08-04T09:02:25.278Z</time>
      </trkpt>
      <trkpt lat="45.9643" lon="6.85433">
        <ele>2536</ele>
        <time>2026-08-04T09:02:26.278Z</time>
      </trkpt>
      <trkpt lat="45.96431" lon="6.85433">
        <ele>2536</ele>
        <time>2026-08-04T09:02:27.278Z</time>
      </trkpt>
      <trkpt lat="45.96431" lon="6.85433">
        <ele>2537</ele>
        <time>2026-08-04T09:02:28.278Z</time>
      </trkpt>
      <trkpt lat="45.96431" lon="6.85433">
        <ele>2537</ele>
        <time>2026-08-04T09:02:29.278Z</time>
      </trkpt>
      <trkpt lat="45.96431" lon="6.85433">
        <ele>2538</ele>
        <time>2026-08-04T09:02:30.278Z</time>
      </trkpt>
      <trkpt lat="45.96432" lon="6.85432">
        <ele>2538</ele>
        <time>2026-08-04T09:02:31.278Z</time>
      </trkpt>
      <trkpt lat="45.96432" lon="6.85431">
        <ele>2538</ele>
        <time>2026-08-04T09:02:32.278Z</time>
      </trkpt>
      <trkpt lat="45.96432" lon="6.8543">
        <ele>2538</ele>
        <time>2026-08-04T09:02:33.278Z</time>
      </trkpt>
      <trkpt lat="45.96431" lon="6.85429">
        <ele>2538</ele>
        <time>2026-08-04T09:02:34.278Z</time>
      </trkpt>
      <trkpt lat="45.96431" lon="6.85428">
        <ele>2538</ele>
        <time>2026-08-04T09:02:35.278Z</time>
      </trkpt>
      <trkpt lat="45.96431" lon="6.85426">
        <ele>2538</ele>
        <time>2026-08-04T09:02:36.278Z</time>
      </trkpt>
      <trkpt lat="45.96431" lon="6.85425">
        <ele>2538</ele>
        <time>2026-08-04T09:02:37.278Z</time>
      </trkpt>
      <trkpt lat="45.96431" lon="6.85424">
        <ele>2538</ele>
        <time>2026-08-04T09:02:38.278Z</time>
      </trkpt>
      <trkpt lat="45.96432" lon="6.85424">
        <ele>2539</ele>
        <time>2026-08-04T09:02:39.278Z</time>
      </trkpt>
      <trkpt lat="45.96432" lon="6.85424">
        <ele>2539</ele>
        <time>2026-08-04T09:02:40.278Z</time>
      </trkpt>
      <trkpt lat="45.96432" lon="6.85424">
        <ele>2540</ele>
        <time>2026-08-04T09:02:41.278Z</time>
      </trkpt>
      <trkpt lat="45.96432" lon="6.85424">
        <ele>2540</ele>
        <time>2026-08-04T09:02:42.278Z</time>
      </trkpt>
      <trkpt lat="45.96432" lon="6.85424">
        <ele>2540</ele>
        <time>2026-08-04T09:02:43.278Z</time>
      </trkpt>
      <trkpt lat="45.96432" lon="6.85425">
        <ele>2540</ele>
        <time>2026-08-04T09:02:44.278Z</time>
      </trkpt>
      <trkpt lat="45.96431" lon="6.85425">
        <ele>2540</ele>
        <time>2026-08-04T09:02:45.278Z</time>
      </trkpt>
      <trkpt lat="45.9643" lon="6.85426">
        <ele>2540</ele>
        <time>2026-08-04T09:02:46.278Z</time>
      </trkpt>
      <trkpt lat="45.96429" lon="6.85425">
        <ele>2540</ele>
        <time>2026-08-04T09:02:47.278Z</time>
      </trkpt>
      <trkpt lat="45.96428" lon="6.85425">
        <ele>2540</ele>
        <time>2026-08-04T09:02:48.278Z</time>
      </trkpt>
      <trkpt lat="45.96428" lon="6.85425">
        <ele>2540</ele>
        <time>2026-08-04T09:02:49.278Z</time>
      </trkpt>
      <trkpt lat="45.96427" lon="6.85425">
        <ele>2540</ele>
        <time>2026-08-04T09:02:50.278Z</time>
      </trkpt>
      <trkpt lat="45.96426" lon="6.85425">
        <ele>2540</ele>
        <time>2026-08-04T09:02:51.278Z</time>
      </trkpt>
      <trkpt lat="45.96426" lon="6.85425">
        <ele>2540</ele>
        <time>2026-08-04T09:02:52.278Z</time>
      </trkpt>
      <trkpt lat="45.96425" lon="6.85425">
        <ele>2539</ele>
        <time>2026-08-04T09:02:53.278Z</time>
      </trkpt>
      <trkpt lat="45.96424" lon="6.85426">
        <ele>2539</ele>
        <time>2026-08-04T09:02:54.278Z</time>
      </trkpt>
      <trkpt lat="45.96423" lon="6.85426">
        <ele>2539</ele>
        <time>2026-08-04T09:02:55.278Z</time>
      </trkpt>
      <trkpt lat="45.96423" lon="6.85427">
        <ele>2539</ele>
        <time>2026-08-04T09:02:56.278Z</time>
      </trkpt>
      <trkpt lat="45.96422" lon="6.85427">
        <ele>2539</ele>
        <time>2026-08-04T09:02:57.278Z</time>
      </trkpt>
      <trkpt lat="45.96421" lon="6.85427">
        <ele>2539</ele>
        <time>2026-08-04T09:02:58.278Z</time>
      </trkpt>
      <trkpt lat="45.96419" lon="6.85427">
        <ele>2539</ele>
        <time>2026-08-04T09:02:59.278Z</time>
      </trkpt>
      <trkpt lat="45.96418" lon="6.85428">
        <ele>2538</ele>
        <time>2026-08-04T09:03:00.278Z</time>
      </trkpt>
      <trkpt lat="45.96416" lon="6.85428">
        <ele>2538</ele>
        <time>2026-08-04T09:03:01.278Z</time>
      </trkpt>
      <trkpt lat="45.96414" lon="6.85428">
        <ele>2538</ele>
        <time>2026-08-04T09:03:02.278Z</time>
      </trkpt>
      <trkpt lat="45.96413" lon="6.85428">
        <ele>2537</ele>
        <time>2026-08-04T09:03:03.278Z</time>
      </trkpt>
      <trkpt lat="45.96412" lon="6.85428">
        <ele>2537</ele>
        <time>2026-08-04T09:03:04.278Z</time>
      </trkpt>
      <trkpt lat="45.96411" lon="6.85428">
        <ele>2537</ele>
        <time>2026-08-04T09:03:05.278Z</time>
      </trkpt>
      <trkpt lat="45.9641" lon="6.85428">
        <ele>2537</ele>
        <time>2026-08-04T09:03:06.278Z</time>
      </trkpt>
      <trkpt lat="45.96409" lon="6.85428">
        <ele>2537</ele>
        <time>2026-08-04T09:03:07.278Z</time>
      </trkpt>
      <trkpt lat="45.96408" lon="6.85428">
        <ele>2538</ele>
        <time>2026-08-04T09:03:08.278Z</time>
      </trkpt>
      <trkpt lat="45.96408" lon="6.85428">
        <ele>2538</ele>
        <time>2026-08-04T09:03:09.278Z</time>
      </trkpt>
      <trkpt lat="45.96407" lon="6.85428">
        <ele>2538</ele>
        <time>2026-08-04T09:03:10.278Z</time>
      </trkpt>
      <trkpt lat="45.96407" lon="6.85428">
        <ele>2538</ele>
        <time>2026-08-04T09:03:11.278Z</time>
      </trkpt>
      <trkpt lat="45.96407" lon="6.85427">
        <ele>2538</ele>
        <time>2026-08-04T09:03:12.278Z</time>
      </trkpt>
      <trkpt lat="45.96406" lon="6.85427">
        <ele>2539</ele>
        <time>2026-08-04T09:03:13.278Z</time>
      </trkpt>
      <trkpt lat="45.96405" lon="6.85427">
        <ele>2539</ele>
        <time>2026-08-04T09:03:14.278Z</time>
      </trkpt>
      <trkpt lat="45.96404" lon="6.85426">
        <ele>2539</ele>
        <time>2026-08-04T09:03:15.278Z</time>
      </trkpt>
      <trkpt lat="45.96403" lon="6.85426">
        <ele>2540</ele>
        <time>2026-08-04T09:03:16.278Z</time>
      </trkpt>
      <trkpt lat="45.96403" lon="6.85426">
        <ele>2540</ele>
        <time>2026-08-04T09:03:17.278Z</time>
      </trkpt>
      <trkpt lat="45.96401" lon="6.85426">
        <ele>2540</ele>
        <time>2026-08-04T09:03:18.278Z</time>
      </trkpt>
      <trkpt lat="45.964" lon="6.85427">
        <ele>2539</ele>
        <time>2026-08-04T09:03:19.278Z</time>
      </trkpt>
      <trkpt lat="45.96399" lon="6.85427">
        <ele>2539</ele>
        <time>2026-08-04T09:03:20.278Z</time>
      </trkpt>
      <trkpt lat="45.96398" lon="6.85427">
        <ele>2539</ele>
        <time>2026-08-04T09:03:21.278Z</time>
      </trkpt>
      <trkpt lat="45.96396" lon="6.85428">
        <ele>2539</ele>
        <time>2026-08-04T09:03:22.278Z</time>
      </trkpt>
      <trkpt lat="45.96395" lon="6.85428">
        <ele>2539</ele>
        <time>2026-08-04T09:03:23.278Z</time>
      </trkpt>
      <trkpt lat="45.96394" lon="6.85429">
        <ele>2538</ele>
        <time>2026-08-04T09:03:24.278Z</time>
      </trkpt>
      <trkpt lat="45.96392" lon="6.85428">
        <ele>2538</ele>
        <time>2026-08-04T09:03:25.278Z</time>
      </trkpt>
      <trkpt lat="45.96391" lon="6.85428">
        <ele>2538</ele>
        <time>2026-08-04T09:03:26.278Z</time>
      </trkpt>
      <trkpt lat="45.9639" lon="6.85429">
        <ele>2538</ele>
        <time>2026-08-04T09:03:27.278Z</time>
      </trkpt>
      <trkpt lat="45.96389" lon="6.85429">
        <ele>2538</ele>
        <time>2026-08-04T09:03:28.278Z</time>
      </trkpt>
      <trkpt lat="45.96388" lon="6.85428">
        <ele>2538</ele>
        <time>2026-08-04T09:03:29.278Z</time>
      </trkpt>
      <trkpt lat="45.96387" lon="6.85428">
        <ele>2538</ele>
        <time>2026-08-04T09:03:30.278Z</time>
      </trkpt>
      <trkpt lat="45.96386" lon="6.85428">
        <ele>2538</ele>
        <time>2026-08-04T09:03:31.278Z</time>
      </trkpt>
      <trkpt lat="45.96385" lon="6.85428">
        <ele>2538</ele>
        <time>2026-08-04T09:03:32.278Z</time>
      </trkpt>
      <trkpt lat="45.96383" lon="6.85428">
        <ele>2538</ele>
        <time>2026-08-04T09:03:33.278Z</time>
      </trkpt>
      <trkpt lat="45.96382" lon="6.85428">
        <ele>2537</ele>
        <time>2026-08-04T09:03:34.278Z</time>
      </trkpt>
      <trkpt lat="45.96382" lon="6.85429">
        <ele>2537</ele>
        <time>2026-08-04T09:03:35.278Z</time>
      </trkpt>
      <trkpt lat="45.96381" lon="6.85431">
        <ele>2537</ele>
        <time>2026-08-04T09:03:36.278Z</time>
      </trkpt>
      <trkpt lat="45.96381" lon="6.85433">
        <ele>2537</ele>
        <time>2026-08-04T09:03:37.278Z</time>
      </trkpt>
      <trkpt lat="45.9638" lon="6.85434">
        <ele>2538</ele>
        <time>2026-08-04T09:03:38.278Z</time>
      </trkpt>
      <trkpt lat="45.9638" lon="6.85435">
        <ele>2538</ele>
        <time>2026-08-04T09:03:39.278Z</time>
      </trkpt>
      <trkpt lat="45.96379" lon="6.85435">
        <ele>2538</ele>
        <time>2026-08-04T09:03:40.278Z</time>
      </trkpt>
      <trkpt lat="45.96378" lon="6.85435">
        <ele>2538</ele>
        <time>2026-08-04T09:03:41.278Z</time>
      </trkpt>
      <trkpt lat="45.96378" lon="6.85435">
        <ele>2538</ele>
        <time>2026-08-04T09:03:42.278Z</time>
      </trkpt>
      <trkpt lat="45.96377" lon="6.85435">
        <ele>2538</ele>
        <time>2026-08-04T09:03:43.278Z</time>
      </trkpt>
      <trkpt lat="45.96376" lon="6.85435">
        <ele>2538</ele>
        <time>2026-08-04T09:03:44.278Z</time>
      </trkpt>
      <trkpt lat="45.96376" lon="6.85435">
        <ele>2538</ele>
        <time>2026-08-04T09:03:45.278Z</time>
      </trkpt>
      <trkpt lat="45.96375" lon="6.85435">
        <ele>2538</ele>
        <time>2026-08-04T09:03:46.278Z</time>
      </trkpt>
      <trkpt lat="45.96375" lon="6.85435">
        <ele>2538</ele>
        <time>2026-08-04T09:03:47.278Z</time>
      </trkpt>
      <trkpt lat="45.96374" lon="6.85435">
        <ele>2538</ele>
        <time>2026-08-04T09:03:48.278Z</time>
      </trkpt>
      <trkpt lat="45.96374" lon="6.85435">
        <ele>2538</ele>
        <time>2026-08-04T09:03:49.278Z</time>
      </trkpt>
      <trkpt lat="45.96373" lon="6.85435">
        <ele>2539</ele>
        <time>2026-08-04T09:03:50.278Z</time>
      </trkpt>
      <trkpt lat="45.96373" lon="6.85435">
        <ele>2539</ele>
        <time>2026-08-04T09:03:51.278Z</time>
      </trkpt>
      <trkpt lat="45.96373" lon="6.85435">
        <ele>2539</ele>
        <time>2026-08-04T09:03:52.278Z</time>
      </trkpt>
      <trkpt lat="45.96372" lon="6.85436">
        <ele>2539</ele>
        <time>2026-08-04T09:03:53.278Z</time>
      </trkpt>
      <trkpt lat="45.96372" lon="6.85436">
        <ele>2539</ele>
        <time>2026-08-04T09:03:54.278Z</time>
      </trkpt>
      <trkpt lat="45.96372" lon="6.85436">
        <ele>2539</ele>
        <time>2026-08-04T09:03:55.278Z</time>
      </trkpt>
      <trkpt lat="45.96372" lon="6.85436">
        <ele>2540</ele>
        <time>2026-08-04T09:03:56.278Z</time>
      </trkpt>
      <trkpt lat="45.96372" lon="6.85436">
        <ele>2540</ele>
        <time>2026-08-04T09:03:57.278Z</time>
      </trkpt>
      <trkpt lat="45.96372" lon="6.85436">
        <ele>2540</ele>
        <time>2026-08-04T09:03:58.278Z</time>
      </trkpt>
      <trkpt lat="45.96372" lon="6.85435">
        <ele>2540</ele>
        <time>2026-08-04T09:03:59.278Z</time>
      </trkpt>
      <trkpt lat="45.96371" lon="6.85435">
        <ele>2540</ele>
        <time>2026-08-04T09:04:00.278Z</time>
      </trkpt>
      <trkpt lat="45.96371" lon="6.85435">
        <ele>2540</ele>
        <time>2026-08-04T09:04:01.278Z</time>
      </trkpt>
      <trkpt lat="45.96371" lon="6.85435">
        <ele>2540</ele>
        <time>2026-08-04T09:04:02.278Z</time>
      </trkpt>
      <trkpt lat="45.96371" lon="6.85435">
        <ele>2540</ele>
        <time>2026-08-04T09:04:03.278Z</time>
      </trkpt>
      <trkpt lat="45.9637" lon="6.85435">
        <ele>2540</ele>
        <time>2026-08-04T09:04:04.278Z</time>
      </trkpt>
      <trkpt lat="45.9637" lon="6.85436">
        <ele>2540</ele>
        <time>2026-08-04T09:04:05.278Z</time>
      </trkpt>
      <trkpt lat="45.96369" lon="6.85436">
        <ele>2540</ele>
        <time>2026-08-04T09:04:06.278Z</time>
      </trkpt>
      <trkpt lat="45.96369" lon="6.85437">
        <ele>2540</ele>
        <time>2026-08-04T09:04:07.278Z</time>
      </trkpt>
      <trkpt lat="45.96368" lon="6.85437">
        <ele>2539</ele>
        <time>2026-08-04T09:04:08.278Z</time>
      </trkpt>
      <trkpt lat="45.96368" lon="6.85437">
        <ele>2539</ele>
        <time>2026-08-04T09:04:09.278Z</time>
      </trkpt>
      <trkpt lat="45.96368" lon="6.85437">
        <ele>2539</ele>
        <time>2026-08-04T09:04:10.278Z</time>
      </trkpt>
      <trkpt lat="45.96367" lon="6.85438">
        <ele>2539</ele>
        <time>2026-08-04T09:04:11.278Z</time>
      </trkpt>
      <trkpt lat="45.96366" lon="6.85438">
        <ele>2539</ele>
        <time>2026-08-04T09:04:12.278Z</time>
      </trkpt>
      <trkpt lat="45.96366" lon="6.85439">
        <ele>2539</ele>
        <time>2026-08-04T09:04:13.278Z</time>
      </trkpt>
      <trkpt lat="45.96365" lon="6.85439">
        <ele>2539</ele>
        <time>2026-08-04T09:04:14.278Z</time>
      </trkpt>
      <trkpt lat="45.96365" lon="6.8544">
        <ele>2539</ele>
        <time>2026-08-04T09:04:15.278Z</time>
      </trkpt>
      <trkpt lat="45.96364" lon="6.85441">
        <ele>2539</ele>
        <time>2026-08-04T09:04:16.278Z</time>
      </trkpt>
      <trkpt lat="45.96364" lon="6.85441">
        <ele>2539</ele>
        <time>2026-08-04T09:04:17.278Z</time>
      </trkpt>
      <trkpt lat="45.96364" lon="6.85442">
        <ele>2539</ele>
        <time>2026-08-04T09:04:18.278Z</time>
      </trkpt>
      <trkpt lat="45.96364" lon="6.85443">
        <ele>2539</ele>
        <time>2026-08-04T09:04:19.278Z</time>
      </trkpt>
      <trkpt lat="45.96364" lon="6.85445">
        <ele>2539</ele>
        <time>2026-08-04T09:04:20.278Z</time>
      </trkpt>
      <trkpt lat="45.96364" lon="6.85446">
        <ele>2540</ele>
        <time>2026-08-04T09:04:21.278Z</time>
      </trkpt>
      <trkpt lat="45.96363" lon="6.85447">
        <ele>2540</ele>
        <time>2026-08-04T09:04:22.278Z</time>
      </trkpt>
      <trkpt lat="45.96363" lon="6.85448">
        <ele>2540</ele>
        <time>2026-08-04T09:04:23.278Z</time>
      </trkpt>
      <trkpt lat="45.96363" lon="6.85448">
        <ele>2540</ele>
        <time>2026-08-04T09:04:24.278Z</time>
      </trkpt>
      <trkpt lat="45.96362" lon="6.85449">
        <ele>2541</ele>
        <time>2026-08-04T09:04:25.278Z</time>
      </trkpt>
      <trkpt lat="45.96361" lon="6.85449">
        <ele>2541</ele>
        <time>2026-08-04T09:04:26.278Z</time>
      </trkpt>
      <trkpt lat="45.9636" lon="6.85449">
        <ele>2541</ele>
        <time>2026-08-04T09:04:27.278Z</time>
      </trkpt>
      <trkpt lat="45.9636" lon="6.85449">
        <ele>2541</ele>
        <time>2026-08-04T09:04:28.278Z</time>
      </trkpt>
      <trkpt lat="45.96359" lon="6.85448">
        <ele>2542</ele>
        <time>2026-08-04T09:04:29.278Z</time>
      </trkpt>
      <trkpt lat="45.96359" lon="6.85448">
        <ele>2542</ele>
        <time>2026-08-04T09:04:30.278Z</time>
      </trkpt>
      <trkpt lat="45.96358" lon="6.85447">
        <ele>2542</ele>
        <time>2026-08-04T09:04:31.278Z</time>
      </trkpt>
      <trkpt lat="45.96358" lon="6.85447">
        <ele>2543</ele>
        <time>2026-08-04T09:04:32.278Z</time>
      </trkpt>
      <trkpt lat="45.96357" lon="6.85447">
        <ele>2543</ele>
        <time>2026-08-04T09:04:33.278Z</time>
      </trkpt>
      <trkpt lat="45.96357" lon="6.85448">
        <ele>2543</ele>
        <time>2026-08-04T09:04:34.278Z</time>
      </trkpt>
      <trkpt lat="45.96357" lon="6.85449">
        <ele>2543</ele>
        <time>2026-08-04T09:04:35.278Z</time>
      </trkpt>
      <trkpt lat="45.96356" lon="6.8545">
        <ele>2543</ele>
        <time>2026-08-04T09:04:36.278Z</time>
      </trkpt>
      <trkpt lat="45.96356" lon="6.8545">
        <ele>2543</ele>
        <time>2026-08-04T09:04:37.278Z</time>
      </trkpt>
      <trkpt lat="45.96356" lon="6.85452">
        <ele>2543</ele>
        <time>2026-08-04T09:04:38.278Z</time>
      </trkpt>
      <trkpt lat="45.96356" lon="6.85452">
        <ele>2543</ele>
        <time>2026-08-04T09:04:39.278Z</time>
      </trkpt>
      <trkpt lat="45.96356" lon="6.85453">
        <ele>2544</ele>
        <time>2026-08-04T09:04:40.278Z</time>
      </trkpt>
      <trkpt lat="45.96356" lon="6.85454">
        <ele>2544</ele>
        <time>2026-08-04T09:04:41.278Z</time>
      </trkpt>
      <trkpt lat="45.96356" lon="6.85455">
        <ele>2544</ele>
        <time>2026-08-04T09:04:42.278Z</time>
      </trkpt>
      <trkpt lat="45.96355" lon="6.85455">
        <ele>2544</ele>
        <time>2026-08-04T09:04:43.278Z</time>
      </trkpt>
      <trkpt lat="45.96355" lon="6.85456">
        <ele>2545</ele>
        <time>2026-08-04T09:04:44.278Z</time>
      </trkpt>
      <trkpt lat="45.96355" lon="6.85457">
        <ele>2545</ele>
        <time>2026-08-04T09:04:45.278Z</time>
      </trkpt>
      <trkpt lat="45.96355" lon="6.85458">
        <ele>2545</ele>
        <time>2026-08-04T09:04:46.278Z</time>
      </trkpt>
      <trkpt lat="45.96355" lon="6.8546">
        <ele>2545</ele>
        <time>2026-08-04T09:04:47.278Z</time>
      </trkpt>
      <trkpt lat="45.96354" lon="6.85461">
        <ele>2546</ele>
        <time>2026-08-04T09:04:48.278Z</time>
      </trkpt>
      <trkpt lat="45.96354" lon="6.85462">
        <ele>2546</ele>
        <time>2026-08-04T09:04:49.278Z</time>
      </trkpt>
      <trkpt lat="45.96353" lon="6.85463">
        <ele>2546</ele>
        <time>2026-08-04T09:04:50.278Z</time>
      </trkpt>
      <trkpt lat="45.96353" lon="6.85463">
        <ele>2546</ele>
        <time>2026-08-04T09:04:51.278Z</time>
      </trkpt>
      <trkpt lat="45.96352" lon="6.85464">
        <ele>2546</ele>
        <time>2026-08-04T09:04:52.278Z</time>
      </trkpt>
      <trkpt lat="45.96352" lon="6.85464">
        <ele>2547</ele>
        <time>2026-08-04T09:04:53.278Z</time>
      </trkpt>
      <trkpt lat="45.96352" lon="6.85465">
        <ele>2547</ele>
        <time>2026-08-04T09:04:54.278Z</time>
      </trkpt>
      <trkpt lat="45.96351" lon="6.85466">
        <ele>2547</ele>
        <time>2026-08-04T09:04:55.278Z</time>
      </trkpt>
      <trkpt lat="45.96351" lon="6.85466">
        <ele>2547</ele>
        <time>2026-08-04T09:04:56.278Z</time>
      </trkpt>
      <trkpt lat="45.9635" lon="6.85466">
        <ele>2548</ele>
        <time>2026-08-04T09:04:57.278Z</time>
      </trkpt>
      <trkpt lat="45.96349" lon="6.85466">
        <ele>2548</ele>
        <time>2026-08-04T09:04:58.278Z</time>
      </trkpt>
      <trkpt lat="45.96349" lon="6.85466">
        <ele>2548</ele>
        <time>2026-08-04T09:04:59.278Z</time>
      </trkpt>
      <trkpt lat="45.96348" lon="6.85466">
        <ele>2548</ele>
        <time>2026-08-04T09:05:00.278Z</time>
      </trkpt>
      <trkpt lat="45.96347" lon="6.85466">
        <ele>2548</ele>
        <time>2026-08-04T09:05:01.278Z</time>
      </trkpt>
      <trkpt lat="45.96347" lon="6.85465">
        <ele>2549</ele>
        <time>2026-08-04T09:05:02.278Z</time>
      </trkpt>
      <trkpt lat="45.96346" lon="6.85464">
        <ele>2549</ele>
        <time>2026-08-04T09:05:03.278Z</time>
      </trkpt>
      <trkpt lat="45.96346" lon="6.85464">
        <ele>2549</ele>
        <time>2026-08-04T09:05:04.278Z</time>
      </trkpt>
      <trkpt lat="45.96345" lon="6.85462">
        <ele>2548</ele>
        <time>2026-08-04T09:05:05.278Z</time>
      </trkpt>
      <trkpt lat="45.96345" lon="6.85461">
        <ele>2548</ele>
        <time>2026-08-04T09:05:06.278Z</time>
      </trkpt>
      <trkpt lat="45.96344" lon="6.8546">
        <ele>2549</ele>
        <time>2026-08-04T09:05:07.278Z</time>
      </trkpt>
      <trkpt lat="45.96344" lon="6.85459">
        <ele>2549</ele>
        <time>2026-08-04T09:05:08.278Z</time>
      </trkpt>
      <trkpt lat="45.96343" lon="6.85458">
        <ele>2549</ele>
        <time>2026-08-04T09:05:09.278Z</time>
      </trkpt>
      <trkpt lat="45.96342" lon="6.85458">
        <ele>2549</ele>
        <time>2026-08-04T09:05:10.278Z</time>
      </trkpt>
      <trkpt lat="45.96342" lon="6.85458">
        <ele>2549</ele>
        <time>2026-08-04T09:05:11.278Z</time>
      </trkpt>
      <trkpt lat="45.96341" lon="6.85457">
        <ele>2549</ele>
        <time>2026-08-04T09:05:12.278Z</time>
      </trkpt>
      <trkpt lat="45.9634" lon="6.85456">
        <ele>2549</ele>
        <time>2026-08-04T09:05:13.278Z</time>
      </trkpt>
      <trkpt lat="45.96339" lon="6.85456">
        <ele>2550</ele>
        <time>2026-08-04T09:05:14.278Z</time>
      </trkpt>
      <trkpt lat="45.96338" lon="6.85455">
        <ele>2550</ele>
        <time>2026-08-04T09:05:15.278Z</time>
      </trkpt>
      <trkpt lat="45.96337" lon="6.85454">
        <ele>2550</ele>
        <time>2026-08-04T09:05:16.278Z</time>
      </trkpt>
      <trkpt lat="45.96336" lon="6.85454">
        <ele>2550</ele>
        <time>2026-08-04T09:05:17.278Z</time>
      </trkpt>
      <trkpt lat="45.96335" lon="6.85454">
        <ele>2551</ele>
        <time>2026-08-04T09:05:18.278Z</time>
      </trkpt>
      <trkpt lat="45.96334" lon="6.85454">
        <ele>2551</ele>
        <time>2026-08-04T09:05:19.278Z</time>
      </trkpt>
      <trkpt lat="45.96333" lon="6.85454">
        <ele>2551</ele>
        <time>2026-08-04T09:05:20.278Z</time>
      </trkpt>
      <trkpt lat="45.96333" lon="6.85454">
        <ele>2551</ele>
        <time>2026-08-04T09:05:21.278Z</time>
      </trkpt>
      <trkpt lat="45.96332" lon="6.85454">
        <ele>2551</ele>
        <time>2026-08-04T09:05:22.278Z</time>
      </trkpt>
      <trkpt lat="45.96331" lon="6.85454">
        <ele>2551</ele>
        <time>2026-08-04T09:05:23.278Z</time>
      </trkpt>
      <trkpt lat="45.9633" lon="6.85455">
        <ele>2552</ele>
        <time>2026-08-04T09:05:24.278Z</time>
      </trkpt>
      <trkpt lat="45.96329" lon="6.85455">
        <ele>2552</ele>
        <time>2026-08-04T09:05:25.278Z</time>
      </trkpt>
      <trkpt lat="45.96327" lon="6.85456">
        <ele>2552</ele>
        <time>2026-08-04T09:05:26.278Z</time>
      </trkpt>
      <trkpt lat="45.96326" lon="6.85457">
        <ele>2552</ele>
        <time>2026-08-04T09:05:27.278Z</time>
      </trkpt>
      <trkpt lat="45.96325" lon="6.85457">
        <ele>2552</ele>
        <time>2026-08-04T09:05:28.278Z</time>
      </trkpt>
      <trkpt lat="45.96324" lon="6.85458">
        <ele>2552</ele>
        <time>2026-08-04T09:05:29.278Z</time>
      </trkpt>
      <trkpt lat="45.96323" lon="6.85458">
        <ele>2553</ele>
        <time>2026-08-04T09:05:30.278Z</time>
      </trkpt>
      <trkpt lat="45.96322" lon="6.85459">
        <ele>2553</ele>
        <time>2026-08-04T09:05:31.278Z</time>
      </trkpt>
      <trkpt lat="45.96321" lon="6.8546">
        <ele>2554</ele>
        <time>2026-08-04T09:05:32.278Z</time>
      </trkpt>
      <trkpt lat="45.9632" lon="6.85461">
        <ele>2554</ele>
        <time>2026-08-04T09:05:33.278Z</time>
      </trkpt>
      <trkpt lat="45.9632" lon="6.85462">
        <ele>2554</ele>
        <time>2026-08-04T09:05:34.278Z</time>
      </trkpt>
      <trkpt lat="45.96319" lon="6.85463">
        <ele>2555</ele>
        <time>2026-08-04T09:05:35.278Z</time>
      </trkpt>
      <trkpt lat="45.96318" lon="6.85464">
        <ele>2555</ele>
        <time>2026-08-04T09:05:36.278Z</time>
      </trkpt>
      <trkpt lat="45.96318" lon="6.85464">
        <ele>2556</ele>
        <time>2026-08-04T09:05:37.278Z</time>
      </trkpt>
      <trkpt lat="45.96317" lon="6.85465">
        <ele>2556</ele>
        <time>2026-08-04T09:05:38.278Z</time>
      </trkpt>
      <trkpt lat="45.96316" lon="6.85465">
        <ele>2556</ele>
        <time>2026-08-04T09:05:39.278Z</time>
      </trkpt>
      <trkpt lat="45.96315" lon="6.85466">
        <ele>2556</ele>
        <time>2026-08-04T09:05:40.278Z</time>
      </trkpt>
      <trkpt lat="45.96315" lon="6.85466">
        <ele>2556</ele>
        <time>2026-08-04T09:05:41.278Z</time>
      </trkpt>
      <trkpt lat="45.96314" lon="6.85466">
        <ele>2556</ele>
        <time>2026-08-04T09:05:42.278Z</time>
      </trkpt>
      <trkpt lat="45.96313" lon="6.85467">
        <ele>2556</ele>
        <time>2026-08-04T09:05:43.278Z</time>
      </trkpt>
      <trkpt lat="45.96312" lon="6.85467">
        <ele>2556</ele>
        <time>2026-08-04T09:05:44.278Z</time>
      </trkpt>
      <trkpt lat="45.96312" lon="6.85468">
        <ele>2556</ele>
        <time>2026-08-04T09:05:45.278Z</time>
      </trkpt>
      <trkpt lat="45.96311" lon="6.85468">
        <ele>2556</ele>
        <time>2026-08-04T09:05:46.278Z</time>
      </trkpt>
      <trkpt lat="45.96311" lon="6.85468">
        <ele>2556</ele>
        <time>2026-08-04T09:05:47.278Z</time>
      </trkpt>
      <trkpt lat="45.9631" lon="6.85469">
        <ele>2556</ele>
        <time>2026-08-04T09:05:48.278Z</time>
      </trkpt>
      <trkpt lat="45.9631" lon="6.85469">
        <ele>2556</ele>
        <time>2026-08-04T09:05:49.278Z</time>
      </trkpt>
      <trkpt lat="45.96309" lon="6.8547">
        <ele>2556</ele>
        <time>2026-08-04T09:05:50.278Z</time>
      </trkpt>
      <trkpt lat="45.96308" lon="6.85471">
        <ele>2556</ele>
        <time>2026-08-04T09:05:51.278Z</time>
      </trkpt>
      <trkpt lat="45.96307" lon="6.85471">
        <ele>2556</ele>
        <time>2026-08-04T09:05:52.278Z</time>
      </trkpt>
      <trkpt lat="45.96306" lon="6.85472">
        <ele>2557</ele>
        <time>2026-08-04T09:05:53.278Z</time>
      </trkpt>
      <trkpt lat="45.96305" lon="6.85472">
        <ele>2557</ele>
        <time>2026-08-04T09:05:54.278Z</time>
      </trkpt>
      <trkpt lat="45.96304" lon="6.85472">
        <ele>2557</ele>
        <time>2026-08-04T09:05:55.278Z</time>
      </trkpt>
      <trkpt lat="45.96303" lon="6.85472">
        <ele>2558</ele>
        <time>2026-08-04T09:05:56.278Z</time>
      </trkpt>
      <trkpt lat="45.96303" lon="6.85472">
        <ele>2558</ele>
        <time>2026-08-04T09:05:57.278Z</time>
      </trkpt>
      <trkpt lat="45.96301" lon="6.85473">
        <ele>2558</ele>
        <time>2026-08-04T09:05:58.278Z</time>
      </trkpt>
      <trkpt lat="45.963" lon="6.85473">
        <ele>2558</ele>
        <time>2026-08-04T09:05:59.278Z</time>
      </trkpt>
      <trkpt lat="45.963" lon="6.85473">
        <ele>2558</ele>
        <time>2026-08-04T09:06:00.278Z</time>
      </trkpt>
      <trkpt lat="45.96299" lon="6.85474">
        <ele>2558</ele>
        <time>2026-08-04T09:06:01.278Z</time>
      </trkpt>
      <trkpt lat="45.96298" lon="6.85474">
        <ele>2558</ele>
        <time>2026-08-04T09:06:02.278Z</time>
      </trkpt>
      <trkpt lat="45.96297" lon="6.85473">
        <ele>2558</ele>
        <time>2026-08-04T09:06:03.278Z</time>
      </trkpt>
      <trkpt lat="45.96297" lon="6.85473">
        <ele>2558</ele>
        <time>2026-08-04T09:06:04.278Z</time>
      </trkpt>
      <trkpt lat="45.96296" lon="6.85472">
        <ele>2558</ele>
        <time>2026-08-04T09:06:05.278Z</time>
      </trkpt>
      <trkpt lat="45.96295" lon="6.85472">
        <ele>2558</ele>
        <time>2026-08-04T09:06:06.278Z</time>
      </trkpt>
      <trkpt lat="45.96294" lon="6.85472">
        <ele>2558</ele>
        <time>2026-08-04T09:06:07.278Z</time>
      </trkpt>
      <trkpt lat="45.96293" lon="6.85473">
        <ele>2558</ele>
        <time>2026-08-04T09:06:08.278Z</time>
      </trkpt>
      <trkpt lat="45.96292" lon="6.85473">
        <ele>2558</ele>
        <time>2026-08-04T09:06:09.278Z</time>
      </trkpt>
      <trkpt lat="45.96291" lon="6.85473">
        <ele>2558</ele>
        <time>2026-08-04T09:06:10.278Z</time>
      </trkpt>
      <trkpt lat="45.9629" lon="6.85473">
        <ele>2558</ele>
        <time>2026-08-04T09:06:11.278Z</time>
      </trkpt>
      <trkpt lat="45.96289" lon="6.85474">
        <ele>2557</ele>
        <time>2026-08-04T09:06:12.278Z</time>
      </trkpt>
      <trkpt lat="45.96288" lon="6.85475">
        <ele>2557</ele>
        <time>2026-08-04T09:06:13.278Z</time>
      </trkpt>
      <trkpt lat="45.96287" lon="6.85476">
        <ele>2557</ele>
        <time>2026-08-04T09:06:14.278Z</time>
      </trkpt>
      <trkpt lat="45.96286" lon="6.85476">
        <ele>2557</ele>
        <time>2026-08-04T09:06:15.278Z</time>
      </trkpt>
      <trkpt lat="45.96285" lon="6.85477">
        <ele>2557</ele>
        <time>2026-08-04T09:06:16.278Z</time>
      </trkpt>
      <trkpt lat="45.96284" lon="6.85477">
        <ele>2558</ele>
        <time>2026-08-04T09:06:17.278Z</time>
      </trkpt>
      <trkpt lat="45.96284" lon="6.85478">
        <ele>2557</ele>
        <time>2026-08-04T09:06:18.278Z</time>
      </trkpt>
      <trkpt lat="45.96283" lon="6.85477">
        <ele>2557</ele>
        <time>2026-08-04T09:06:19.278Z</time>
      </trkpt>
      <trkpt lat="45.96282" lon="6.85477">
        <ele>2557</ele>
        <time>2026-08-04T09:06:20.278Z</time>
      </trkpt>
      <trkpt lat="45.96282" lon="6.85478">
        <ele>2557</ele>
        <time>2026-08-04T09:06:21.278Z</time>
      </trkpt>
      <trkpt lat="45.96281" lon="6.85478">
        <ele>2557</ele>
        <time>2026-08-04T09:06:22.278Z</time>
      </trkpt>
      <trkpt lat="45.9628" lon="6.85479">
        <ele>2557</ele>
        <time>2026-08-04T09:06:23.278Z</time>
      </trkpt>
      <trkpt lat="45.96279" lon="6.85479">
        <ele>2557</ele>
        <time>2026-08-04T09:06:24.278Z</time>
      </trkpt>
      <trkpt lat="45.96278" lon="6.85479">
        <ele>2557</ele>
        <time>2026-08-04T09:06:25.278Z</time>
      </trkpt>
      <trkpt lat="45.96278" lon="6.85479">
        <ele>2557</ele>
        <time>2026-08-04T09:06:26.278Z</time>
      </trkpt>
      <trkpt lat="45.96277" lon="6.8548">
        <ele>2558</ele>
        <time>2026-08-04T09:06:27.278Z</time>
      </trkpt>
      <trkpt lat="45.96276" lon="6.8548">
        <ele>2558</ele>
        <time>2026-08-04T09:06:28.278Z</time>
      </trkpt>
      <trkpt lat="45.96276" lon="6.85481">
        <ele>2558</ele>
        <time>2026-08-04T09:06:29.278Z</time>
      </trkpt>
      <trkpt lat="45.96275" lon="6.85481">
        <ele>2558</ele>
        <time>2026-08-04T09:06:30.278Z</time>
      </trkpt>
      <trkpt lat="45.96274" lon="6.8548">
        <ele>2557</ele>
        <time>2026-08-04T09:06:31.278Z</time>
      </trkpt>
      <trkpt lat="45.96273" lon="6.8548">
        <ele>2557</ele>
        <time>2026-08-04T09:06:32.278Z</time>
      </trkpt>
      <trkpt lat="45.96272" lon="6.85479">
        <ele>2557</ele>
        <time>2026-08-04T09:06:33.278Z</time>
      </trkpt>
      <trkpt lat="45.96272" lon="6.85478">
        <ele>2558</ele>
        <time>2026-08-04T09:06:34.278Z</time>
      </trkpt>
      <trkpt lat="45.9627" lon="6.85478">
        <ele>2558</ele>
        <time>2026-08-04T09:06:35.278Z</time>
      </trkpt>
      <trkpt lat="45.96268" lon="6.85478">
        <ele>2558</ele>
        <time>2026-08-04T09:06:36.278Z</time>
      </trkpt>
      <trkpt lat="45.96267" lon="6.85477">
        <ele>2558</ele>
        <time>2026-08-04T09:06:37.278Z</time>
      </trkpt>
      <trkpt lat="45.96266" lon="6.85476">
        <ele>2557</ele>
        <time>2026-08-04T09:06:38.278Z</time>
      </trkpt>
      <trkpt lat="45.96265" lon="6.85475">
        <ele>2557</ele>
        <time>2026-08-04T09:06:39.278Z</time>
      </trkpt>
      <trkpt lat="45.96264" lon="6.85474">
        <ele>2557</ele>
        <time>2026-08-04T09:06:40.278Z</time>
      </trkpt>
      <trkpt lat="45.96263" lon="6.85474">
        <ele>2557</ele>
        <time>2026-08-04T09:06:41.278Z</time>
      </trkpt>
      <trkpt lat="45.96263" lon="6.85474">
        <ele>2557</ele>
        <time>2026-08-04T09:06:42.278Z</time>
      </trkpt>
      <trkpt lat="45.96262" lon="6.85473">
        <ele>2556</ele>
        <time>2026-08-04T09:06:43.278Z</time>
      </trkpt>
      <trkpt lat="45.96262" lon="6.85473">
        <ele>2556</ele>
        <time>2026-08-04T09:06:44.278Z</time>
      </trkpt>
      <trkpt lat="45.96261" lon="6.85473">
        <ele>2556</ele>
        <time>2026-08-04T09:06:45.278Z</time>
      </trkpt>
      <trkpt lat="45.96261" lon="6.85473">
        <ele>2556</ele>
        <time>2026-08-04T09:06:46.278Z</time>
      </trkpt>
      <trkpt lat="45.9626" lon="6.85473">
        <ele>2555</ele>
        <time>2026-08-04T09:06:47.278Z</time>
      </trkpt>
      <trkpt lat="45.9626" lon="6.85473">
        <ele>2555</ele>
        <time>2026-08-04T09:06:48.278Z</time>
      </trkpt>
      <trkpt lat="45.9626" lon="6.85474">
        <ele>2555</ele>
        <time>2026-08-04T09:06:49.278Z</time>
      </trkpt>
      <trkpt lat="45.96259" lon="6.85474">
        <ele>2555</ele>
        <time>2026-08-04T09:06:50.278Z</time>
      </trkpt>
      <trkpt lat="45.96259" lon="6.85474">
        <ele>2555</ele>
        <time>2026-08-04T09:06:51.278Z</time>
      </trkpt>
      <trkpt lat="45.96259" lon="6.85473">
        <ele>2555</ele>
        <time>2026-08-04T09:06:52.278Z</time>
      </trkpt>
      <trkpt lat="45.96259" lon="6.85473">
        <ele>2555</ele>
        <time>2026-08-04T09:06:53.278Z</time>
      </trkpt>
      <trkpt lat="45.96259" lon="6.85474">
        <ele>2555</ele>
        <time>2026-08-04T09:06:54.278Z</time>
      </trkpt>
      <trkpt lat="45.96259" lon="6.85474">
        <ele>2555</ele>
        <time>2026-08-04T09:06:55.278Z</time>
      </trkpt>
      <trkpt lat="45.96258" lon="6.85475">
        <ele>2554</ele>
        <time>2026-08-04T09:06:56.278Z</time>
      </trkpt>
      <trkpt lat="45.96258" lon="6.85475">
        <ele>2554</ele>
        <time>2026-08-04T09:06:57.278Z</time>
      </trkpt>
      <trkpt lat="45.96257" lon="6.85476">
        <ele>2554</ele>
        <time>2026-08-04T09:06:58.278Z</time>
      </trkpt>
      <trkpt lat="45.96257" lon="6.85476">
        <ele>2554</ele>
        <time>2026-08-04T09:06:59.278Z</time>
      </trkpt>
      <trkpt lat="45.96256" lon="6.85477">
        <ele>2553</ele>
        <time>2026-08-04T09:07:00.278Z</time>
      </trkpt>
      <trkpt lat="45.96256" lon="6.85477">
        <ele>2553</ele>
        <time>2026-08-04T09:07:01.278Z</time>
      </trkpt>
      <trkpt lat="45.96255" lon="6.85477">
        <ele>2553</ele>
        <time>2026-08-04T09:07:02.278Z</time>
      </trkpt>
      <trkpt lat="45.96255" lon="6.85477">
        <ele>2553</ele>
        <time>2026-08-04T09:07:03.278Z</time>
      </trkpt>
      <trkpt lat="45.96255" lon="6.85477">
        <ele>2553</ele>
        <time>2026-08-04T09:07:04.278Z</time>
      </trkpt>
      <trkpt lat="45.96254" lon="6.85477">
        <ele>2553</ele>
        <time>2026-08-04T09:07:05.278Z</time>
      </trkpt>
      <trkpt lat="45.96253" lon="6.85476">
        <ele>2553</ele>
        <time>2026-08-04T09:07:06.278Z</time>
      </trkpt>
      <trkpt lat="45.96252" lon="6.85476">
        <ele>2553</ele>
        <time>2026-08-04T09:07:07.278Z</time>
      </trkpt>
      <trkpt lat="45.96251" lon="6.85476">
        <ele>2552</ele>
        <time>2026-08-04T09:07:08.278Z</time>
      </trkpt>
      <trkpt lat="45.96251" lon="6.85475">
        <ele>2552</ele>
        <time>2026-08-04T09:07:09.278Z</time>
      </trkpt>
      <trkpt lat="45.96251" lon="6.85474">
        <ele>2552</ele>
        <time>2026-08-04T09:07:10.278Z</time>
      </trkpt>
      <trkpt lat="45.9625" lon="6.85473">
        <ele>2552</ele>
        <time>2026-08-04T09:07:11.278Z</time>
      </trkpt>
      <trkpt lat="45.9625" lon="6.85473">
        <ele>2552</ele>
        <time>2026-08-04T09:07:12.278Z</time>
      </trkpt>
      <trkpt lat="45.96249" lon="6.85473">
        <ele>2552</ele>
        <time>2026-08-04T09:07:13.278Z</time>
      </trkpt>
      <trkpt lat="45.96248" lon="6.85472">
        <ele>2552</ele>
        <time>2026-08-04T09:07:14.278Z</time>
      </trkpt>
      <trkpt lat="45.96248" lon="6.85472">
        <ele>2552</ele>
        <time>2026-08-04T09:07:15.278Z</time>
      </trkpt>
      <trkpt lat="45.96247" lon="6.85472">
        <ele>2551</ele>
        <time>2026-08-04T09:07:16.278Z</time>
      </trkpt>
      <trkpt lat="45.96246" lon="6.85472">
        <ele>2551</ele>
        <time>2026-08-04T09:07:17.278Z</time>
      </trkpt>
      <trkpt lat="45.96246" lon="6.85472">
        <ele>2551</ele>
        <time>2026-08-04T09:07:18.278Z</time>
      </trkpt>
      <trkpt lat="45.96245" lon="6.85471">
        <ele>2551</ele>
        <time>2026-08-04T09:07:19.278Z</time>
      </trkpt>
      <trkpt lat="45.96245" lon="6.85471">
        <ele>2551</ele>
        <time>2026-08-04T09:07:20.278Z</time>
      </trkpt>
      <trkpt lat="45.96245" lon="6.85471">
        <ele>2551</ele>
        <time>2026-08-04T09:07:21.278Z</time>
      </trkpt>
      <trkpt lat="45.96245" lon="6.85471">
        <ele>2550</ele>
        <time>2026-08-04T09:07:22.278Z</time>
      </trkpt>
      <trkpt lat="45.96244" lon="6.85472">
        <ele>2550</ele>
        <time>2026-08-04T09:07:23.278Z</time>
      </trkpt>
      <trkpt lat="45.96244" lon="6.85472">
        <ele>2550</ele>
        <time>2026-08-04T09:07:24.278Z</time>
      </trkpt>
      <trkpt lat="45.96243" lon="6.85472">
        <ele>2550</ele>
        <time>2026-08-04T09:07:25.278Z</time>
      </trkpt>
      <trkpt lat="45.96243" lon="6.85473">
        <ele>2550</ele>
        <time>2026-08-04T09:07:26.278Z</time>
      </trkpt>
      <trkpt lat="45.96242" lon="6.85473">
        <ele>2550</ele>
        <time>2026-08-04T09:07:27.278Z</time>
      </trkpt>
      <trkpt lat="45.96241" lon="6.85474">
        <ele>2550</ele>
        <time>2026-08-04T09:07:28.278Z</time>
      </trkpt>
      <trkpt lat="45.9624" lon="6.85473">
        <ele>2551</ele>
        <time>2026-08-04T09:07:29.278Z</time>
      </trkpt>
      <trkpt lat="45.96239" lon="6.85473">
        <ele>2551</ele>
        <time>2026-08-04T09:07:30.278Z</time>
      </trkpt>
      <trkpt lat="45.96238" lon="6.85472">
        <ele>2551</ele>
        <time>2026-08-04T09:07:31.278Z</time>
      </trkpt>
      <trkpt lat="45.96238" lon="6.85472">
        <ele>2550</ele>
        <time>2026-08-04T09:07:32.278Z</time>
      </trkpt>
      <trkpt lat="45.96237" lon="6.85472">
        <ele>2550</ele>
        <time>2026-08-04T09:07:33.278Z</time>
      </trkpt>
      <trkpt lat="45.96236" lon="6.85473">
        <ele>2550</ele>
        <time>2026-08-04T09:07:34.278Z</time>
      </trkpt>
      <trkpt lat="45.96236" lon="6.85473">
        <ele>2550</ele>
        <time>2026-08-04T09:07:35.278Z</time>
      </trkpt>
      <trkpt lat="45.96235" lon="6.85474">
        <ele>2550</ele>
        <time>2026-08-04T09:07:36.278Z</time>
      </trkpt>
      <trkpt lat="45.96234" lon="6.85474">
        <ele>2550</ele>
        <time>2026-08-04T09:07:37.278Z</time>
      </trkpt>
      <trkpt lat="45.96234" lon="6.85474">
        <ele>2551</ele>
        <time>2026-08-04T09:07:38.278Z</time>
      </trkpt>
      <trkpt lat="45.96233" lon="6.85474">
        <ele>2551</ele>
        <time>2026-08-04T09:07:39.278Z</time>
      </trkpt>
      <trkpt lat="45.96232" lon="6.85474">
        <ele>2551</ele>
        <time>2026-08-04T09:07:40.278Z</time>
      </trkpt>
      <trkpt lat="45.96232" lon="6.85474">
        <ele>2551</ele>
        <time>2026-08-04T09:07:41.278Z</time>
      </trkpt>
      <trkpt lat="45.96231" lon="6.85475">
        <ele>2550</ele>
        <time>2026-08-04T09:07:42.278Z</time>
      </trkpt>
      <trkpt lat="45.9623" lon="6.85475">
        <ele>2550</ele>
        <time>2026-08-04T09:07:43.278Z</time>
      </trkpt>
      <trkpt lat="45.96229" lon="6.85476">
        <ele>2550</ele>
        <time>2026-08-04T09:07:44.278Z</time>
      </trkpt>
      <trkpt lat="45.96229" lon="6.85476">
        <ele>2549</ele>
        <time>2026-08-04T09:07:45.278Z</time>
      </trkpt>
      <trkpt lat="45.96228" lon="6.85476">
        <ele>2549</ele>
        <time>2026-08-04T09:07:46.278Z</time>
      </trkpt>
      <trkpt lat="45.96227" lon="6.85477">
        <ele>2549</ele>
        <time>2026-08-04T09:07:47.278Z</time>
      </trkpt>
      <trkpt lat="45.96226" lon="6.85477">
        <ele>2549</ele>
        <time>2026-08-04T09:07:48.278Z</time>
      </trkpt>
      <trkpt lat="45.96225" lon="6.85477">
        <ele>2549</ele>
        <time>2026-08-04T09:07:49.278Z</time>
      </trkpt>
      <trkpt lat="45.96224" lon="6.85477">
        <ele>2549</ele>
        <time>2026-08-04T09:07:50.278Z</time>
      </trkpt>
      <trkpt lat="45.96223" lon="6.85477">
        <ele>2549</ele>
        <time>2026-08-04T09:07:51.278Z</time>
      </trkpt>
      <trkpt lat="45.96222" lon="6.85477">
        <ele>2548</ele>
        <time>2026-08-04T09:07:52.278Z</time>
      </trkpt>
      <trkpt lat="45.96221" lon="6.85477">
        <ele>2548</ele>
        <time>2026-08-04T09:07:53.278Z</time>
      </trkpt>
      <trkpt lat="45.9622" lon="6.85476">
        <ele>2548</ele>
        <time>2026-08-04T09:07:54.278Z</time>
      </trkpt>
      <trkpt lat="45.96219" lon="6.85476">
        <ele>2548</ele>
        <time>2026-08-04T09:07:55.278Z</time>
      </trkpt>
      <trkpt lat="45.96218" lon="6.85477">
        <ele>2548</ele>
        <time>2026-08-04T09:07:56.278Z</time>
      </trkpt>
      <trkpt lat="45.96217" lon="6.85477">
        <ele>2548</ele>
        <time>2026-08-04T09:07:57.278Z</time>
      </trkpt>
      <trkpt lat="45.96216" lon="6.85478">
        <ele>2548</ele>
        <time>2026-08-04T09:07:58.278Z</time>
      </trkpt>
      <trkpt lat="45.96215" lon="6.85478">
        <ele>2547</ele>
        <time>2026-08-04T09:07:59.278Z</time>
      </trkpt>
      <trkpt lat="45.96215" lon="6.85479">
        <ele>2547</ele>
        <time>2026-08-04T09:08:00.278Z</time>
      </trkpt>
      <trkpt lat="45.96215" lon="6.8548">
        <ele>2548</ele>
        <time>2026-08-04T09:08:01.278Z</time>
      </trkpt>
      <trkpt lat="45.96215" lon="6.8548">
        <ele>2548</ele>
        <time>2026-08-04T09:08:02.278Z</time>
      </trkpt>
      <trkpt lat="45.96214" lon="6.85481">
        <ele>2548</ele>
        <time>2026-08-04T09:08:03.278Z</time>
      </trkpt>
      <trkpt lat="45.96214" lon="6.85481">
        <ele>2548</ele>
        <time>2026-08-04T09:08:04.278Z</time>
      </trkpt>
      <trkpt lat="45.96214" lon="6.85481">
        <ele>2548</ele>
        <time>2026-08-04T09:08:05.278Z</time>
      </trkpt>
      <trkpt lat="45.96214" lon="6.8548">
        <ele>2548</ele>
        <time>2026-08-04T09:08:06.278Z</time>
      </trkpt>
      <trkpt lat="45.96214" lon="6.8548">
        <ele>2548</ele>
        <time>2026-08-04T09:08:07.278Z</time>
      </trkpt>
      <trkpt lat="45.96214" lon="6.85479">
        <ele>2547</ele>
        <time>2026-08-04T09:08:08.278Z</time>
      </trkpt>
      <trkpt lat="45.96214" lon="6.85479">
        <ele>2547</ele>
        <time>2026-08-04T09:08:09.278Z</time>
      </trkpt>
      <trkpt lat="45.96213" lon="6.8548">
        <ele>2547</ele>
        <time>2026-08-04T09:08:10.278Z</time>
      </trkpt>
      <trkpt lat="45.96213" lon="6.8548">
        <ele>2548</ele>
        <time>2026-08-04T09:08:11.278Z</time>
      </trkpt>
      <trkpt lat="45.96213" lon="6.8548">
        <ele>2548</ele>
        <time>2026-08-04T09:08:12.278Z</time>
      </trkpt>
      <trkpt lat="45.96213" lon="6.8548">
        <ele>2548</ele>
        <time>2026-08-04T09:08:13.278Z</time>
      </trkpt>
      <trkpt lat="45.96213" lon="6.8548">
        <ele>2548</ele>
        <time>2026-08-04T09:08:14.278Z</time>
      </trkpt>
      <trkpt lat="45.96213" lon="6.85481">
        <ele>2548</ele>
        <time>2026-08-04T09:08:15.278Z</time>
      </trkpt>
      <trkpt lat="45.96213" lon="6.85481">
        <ele>2548</ele>
        <time>2026-08-04T09:08:16.278Z</time>
      </trkpt>
      <trkpt lat="45.96213" lon="6.85481">
        <ele>2548</ele>
        <time>2026-08-04T09:08:17.278Z</time>
      </trkpt>
      <trkpt lat="45.96213" lon="6.85481">
        <ele>2548</ele>
        <time>2026-08-04T09:08:18.278Z</time>
      </trkpt>
      <trkpt lat="45.96213" lon="6.85481">
        <ele>2548</ele>
        <time>2026-08-04T09:08:19.278Z</time>
      </trkpt>
      <trkpt lat="45.96213" lon="6.85481">
        <ele>2548</ele>
        <time>2026-08-04T09:08:20.278Z</time>
      </trkpt>
      <trkpt lat="45.96213" lon="6.85481">
        <ele>2549</ele>
        <time>2026-08-04T09:08:21.278Z</time>
      </trkpt>
      <trkpt lat="45.96213" lon="6.85481">
        <ele>2549</ele>
        <time>2026-08-04T09:08:22.278Z</time>
      </trkpt>
      <trkpt lat="45.96213" lon="6.85481">
        <ele>2549</ele>
        <time>2026-08-04T09:08:23.278Z</time>
      </trkpt>
      <trkpt lat="45.96213" lon="6.85481">
        <ele>2549</ele>
        <time>2026-08-04T09:08:24.278Z</time>
      </trkpt>
      <trkpt lat="45.96213" lon="6.85481">
        <ele>2549</ele>
        <time>2026-08-04T09:08:25.278Z</time>
      </trkpt>
      <trkpt lat="45.96213" lon="6.85481">
        <ele>2550</ele>
        <time>2026-08-04T09:08:26.278Z</time>
      </trkpt>
      <trkpt lat="45.96213" lon="6.85481">
        <ele>2550</ele>
        <time>2026-08-04T09:08:27.278Z</time>
      </trkpt>
      <trkpt lat="45.96213" lon="6.85481">
        <ele>2550</ele>
        <time>2026-08-04T09:08:28.278Z</time>
      </trkpt>
      <trkpt lat="45.96213" lon="6.85481">
        <ele>2550</ele>
        <time>2026-08-04T09:08:29.278Z</time>
      </trkpt>
      <trkpt lat="45.96213" lon="6.85481">
        <ele>2550</ele>
        <time>2026-08-04T09:08:30.278Z</time>
      </trkpt>
      <trkpt lat="45.96213" lon="6.85481">
        <ele>2550</ele>
        <time>2026-08-04T09:08:31.278Z</time>
      </trkpt>
      <trkpt lat="45.96213" lon="6.85481">
        <ele>2550</ele>
        <time>2026-08-04T09:08:32.278Z</time>
      </trkpt>
      <trkpt lat="45.96213" lon="6.85481">
        <ele>2550</ele>
        <time>2026-08-04T09:08:33.278Z</time>
      </trkpt>
      <trkpt lat="45.96213" lon="6.85481">
        <ele>2550</ele>
        <time>2026-08-04T09:08:34.278Z</time>
      </trkpt>
      <trkpt lat="45.96213" lon="6.85481">
        <ele>2550</ele>
        <time>2026-08-04T09:08:35.278Z</time>
      </trkpt>
      <trkpt lat="45.96213" lon="6.85481">
        <ele>2550</ele>
        <time>2026-08-04T09:08:36.278Z</time>
      </trkpt>
      <trkpt lat="45.96213" lon="6.85481">
        <ele>2550</ele>
        <time>2026-08-04T09:08:37.278Z</time>
      </trkpt>
      <trkpt lat="45.96213" lon="6.85481">
        <ele>2550</ele>
        <time>2026-08-04T09:08:38.278Z</time>
      </trkpt>
      <trkpt lat="45.96213" lon="6.85481">
        <ele>2550</ele>
        <time>2026-08-04T09:08:39.278Z</time>
      </trkpt>
      <trkpt lat="45.96213" lon="6.85481">
        <ele>2550</ele>
        <time>2026-08-04T09:08:40.278Z</time>
      </trkpt>
      <trkpt lat="45.96213" lon="6.85481">
        <ele>2550</ele>
        <time>2026-08-04T09:08:41.278Z</time>
      </trkpt>
      <trkpt lat="45.96213" lon="6.85481">
        <ele>2550</ele>
        <time>2026-08-04T09:08:42.278Z</time>
      </trkpt>
      <trkpt lat="45.96213" lon="6.85481">
        <ele>2550</ele>
        <time>2026-08-04T09:08:43.278Z</time>
      </trkpt>
      <trkpt lat="45.96213" lon="6.85481">
        <ele>2550</ele>
        <time>2026-08-04T09:08:44.278Z</time>
      </trkpt>
      <trkpt lat="45.96213" lon="6.85481">
        <ele>2550</ele>
        <time>2026-08-04T09:08:45.278Z</time>
      </trkpt>
      <trkpt lat="45.96213" lon="6.85481">
        <ele>2550</ele>
        <time>2026-08-04T09:08:46.278Z</time>
      </trkpt>
      <trkpt lat="45.96213" lon="6.85481">
        <ele>2550</ele>
        <time>2026-08-04T09:08:47.278Z</time>
      </trkpt>
      <trkpt lat="45.96213" lon="6.85481">
        <ele>2550</ele>
        <time>2026-08-04T09:08:48.278Z</time>
      </trkpt>
      <trkpt lat="45.96213" lon="6.85481">
        <ele>2550</ele>
        <time>2026-08-04T09:08:49.278Z</time>
      </trkpt>
      <trkpt lat="45.96213" lon="6.85481">
        <ele>2549</ele>
        <time>2026-08-04T09:08:50.278Z</time>
      </trkpt>
      <trkpt lat="45.96213" lon="6.85481">
        <ele>2549</ele>
        <time>2026-08-04T09:08:51.278Z</time>
      </trkpt>
      <trkpt lat="45.96213" lon="6.85481">
        <ele>2549</ele>
        <time>2026-08-04T09:08:52.278Z</time>
      </trkpt>
      <trkpt lat="45.96213" lon="6.85481">
        <ele>2549</ele>
        <time>2026-08-04T09:08:53.278Z</time>
      </trkpt>
      <trkpt lat="45.96213" lon="6.85481">
        <ele>2549</ele>
        <time>2026-08-04T09:08:54.278Z</time>
      </trkpt>
      <trkpt lat="45.96213" lon="6.85481">
        <ele>2549</ele>
        <time>2026-08-04T09:08:55.278Z</time>
      </trkpt>
      <trkpt lat="45.96213" lon="6.85481">
        <ele>2549</ele>
        <time>2026-08-04T09:08:56.278Z</time>
      </trkpt>
      <trkpt lat="45.96212" lon="6.85482">
        <ele>2549</ele>
        <time>2026-08-04T09:08:57.278Z</time>
      </trkpt>
      <trkpt lat="45.9621" lon="6.85482">
        <ele>2549</ele>
        <time>2026-08-04T09:08:58.278Z</time>
      </trkpt>
      <trkpt lat="45.96208" lon="6.85483">
        <ele>2549</ele>
        <time>2026-08-04T09:08:59.278Z</time>
      </trkpt>
      <trkpt lat="45.96205" lon="6.85484">
        <ele>2548</ele>
        <time>2026-08-04T09:09:00.278Z</time>
      </trkpt>
      <trkpt lat="45.96203" lon="6.85485">
        <ele>2548</ele>
        <time>2026-08-04T09:09:01.278Z</time>
      </trkpt>
      <trkpt lat="45.96201" lon="6.85486">
        <ele>2547</ele>
        <time>2026-08-04T09:09:02.278Z</time>
      </trkpt>
      <trkpt lat="45.962" lon="6.85487">
        <ele>2547</ele>
        <time>2026-08-04T09:09:03.278Z</time>
      </trkpt>
      <trkpt lat="45.96198" lon="6.85488">
        <ele>2546</ele>
        <time>2026-08-04T09:09:04.278Z</time>
      </trkpt>
      <trkpt lat="45.96196" lon="6.85489">
        <ele>2546</ele>
        <time>2026-08-04T09:09:05.278Z</time>
      </trkpt>
      <trkpt lat="45.96194" lon="6.8549">
        <ele>2545</ele>
        <time>2026-08-04T09:09:06.278Z</time>
      </trkpt>
      <trkpt lat="45.96193" lon="6.8549">
        <ele>2545</ele>
        <time>2026-08-04T09:09:07.278Z</time>
      </trkpt>
      <trkpt lat="45.96192" lon="6.8549">
        <ele>2544</ele>
        <time>2026-08-04T09:09:08.278Z</time>
      </trkpt>
      <trkpt lat="45.96192" lon="6.85491">
        <ele>2544</ele>
        <time>2026-08-04T09:09:09.278Z</time>
      </trkpt>
      <trkpt lat="45.96191" lon="6.85491">
        <ele>2543</ele>
        <time>2026-08-04T09:09:10.278Z</time>
      </trkpt>
      <trkpt lat="45.96191" lon="6.85492">
        <ele>2543</ele>
        <time>2026-08-04T09:09:11.278Z</time>
      </trkpt>
      <trkpt lat="45.9619" lon="6.85492">
        <ele>2542</ele>
        <time>2026-08-04T09:09:12.278Z</time>
      </trkpt>
      <trkpt lat="45.9619" lon="6.85491">
        <ele>2542</ele>
        <time>2026-08-04T09:09:13.278Z</time>
      </trkpt>
      <trkpt lat="45.9619" lon="6.85491">
        <ele>2541</ele>
        <time>2026-08-04T09:09:14.278Z</time>
      </trkpt>
      <trkpt lat="45.96189" lon="6.8549">
        <ele>2541</ele>
        <time>2026-08-04T09:09:15.278Z</time>
      </trkpt>
      <trkpt lat="45.96189" lon="6.8549">
        <ele>2541</ele>
        <time>2026-08-04T09:09:16.278Z</time>
      </trkpt>
      <trkpt lat="45.96188" lon="6.8549">
        <ele>2541</ele>
        <time>2026-08-04T09:09:17.278Z</time>
      </trkpt>
      <trkpt lat="45.96187" lon="6.8549">
        <ele>2541</ele>
        <time>2026-08-04T09:09:18.278Z</time>
      </trkpt>
      <trkpt lat="45.96186" lon="6.8549">
        <ele>2541</ele>
        <time>2026-08-04T09:09:19.278Z</time>
      </trkpt>
      <trkpt lat="45.96186" lon="6.85489">
        <ele>2540</ele>
        <time>2026-08-04T09:09:20.278Z</time>
      </trkpt>
      <trkpt lat="45.96185" lon="6.85488">
        <ele>2540</ele>
        <time>2026-08-04T09:09:21.278Z</time>
      </trkpt>
      <trkpt lat="45.96185" lon="6.85487">
        <ele>2539</ele>
        <time>2026-08-04T09:09:22.278Z</time>
      </trkpt>
      <trkpt lat="45.96184" lon="6.85486">
        <ele>2539</ele>
        <time>2026-08-04T09:09:23.278Z</time>
      </trkpt>
      <trkpt lat="45.96183" lon="6.85486">
        <ele>2539</ele>
        <time>2026-08-04T09:09:24.278Z</time>
      </trkpt>
      <trkpt lat="45.96183" lon="6.85485">
        <ele>2538</ele>
        <time>2026-08-04T09:09:25.278Z</time>
      </trkpt>
      <trkpt lat="45.96182" lon="6.85484">
        <ele>2538</ele>
        <time>2026-08-04T09:09:26.278Z</time>
      </trkpt>
      <trkpt lat="45.96182" lon="6.85483">
        <ele>2538</ele>
        <time>2026-08-04T09:09:27.278Z</time>
      </trkpt>
      <trkpt lat="45.96181" lon="6.85482">
        <ele>2538</ele>
        <time>2026-08-04T09:09:28.278Z</time>
      </trkpt>
      <trkpt lat="45.9618" lon="6.85482">
        <ele>2537</ele>
        <time>2026-08-04T09:09:29.278Z</time>
      </trkpt>
      <trkpt lat="45.9618" lon="6.85482">
        <ele>2537</ele>
        <time>2026-08-04T09:09:30.278Z</time>
      </trkpt>
      <trkpt lat="45.96179" lon="6.85483">
        <ele>2537</ele>
        <time>2026-08-04T09:09:31.278Z</time>
      </trkpt>
      <trkpt lat="45.96179" lon="6.85483">
        <ele>2536</ele>
        <time>2026-08-04T09:09:32.278Z</time>
      </trkpt>
      <trkpt lat="45.96178" lon="6.85483">
        <ele>2536</ele>
        <time>2026-08-04T09:09:33.278Z</time>
      </trkpt>
      <trkpt lat="45.96178" lon="6.85482">
        <ele>2536</ele>
        <time>2026-08-04T09:09:34.278Z</time>
      </trkpt>
      <trkpt lat="45.96178" lon="6.85481">
        <ele>2536</ele>
        <time>2026-08-04T09:09:35.278Z</time>
      </trkpt>
      <trkpt lat="45.96178" lon="6.85481">
        <ele>2536</ele>
        <time>2026-08-04T09:09:36.278Z</time>
      </trkpt>
      <trkpt lat="45.96177" lon="6.85481">
        <ele>2536</ele>
        <time>2026-08-04T09:09:37.278Z</time>
      </trkpt>
      <trkpt lat="45.96177" lon="6.85482">
        <ele>2536</ele>
        <time>2026-08-04T09:09:38.278Z</time>
      </trkpt>
      <trkpt lat="45.96177" lon="6.85482">
        <ele>2536</ele>
        <time>2026-08-04T09:09:39.278Z</time>
      </trkpt>
      <trkpt lat="45.96177" lon="6.85483">
        <ele>2536</ele>
        <time>2026-08-04T09:09:40.278Z</time>
      </trkpt>
      <trkpt lat="45.96176" lon="6.85484">
        <ele>2535</ele>
        <time>2026-08-04T09:09:41.278Z</time>
      </trkpt>
      <trkpt lat="45.96176" lon="6.85485">
        <ele>2535</ele>
        <time>2026-08-04T09:09:42.278Z</time>
      </trkpt>
      <trkpt lat="45.96175" lon="6.85486">
        <ele>2534</ele>
        <time>2026-08-04T09:09:43.278Z</time>
      </trkpt>
      <trkpt lat="45.96175" lon="6.85486">
        <ele>2534</ele>
        <time>2026-08-04T09:09:44.278Z</time>
      </trkpt>
      <trkpt lat="45.96174" lon="6.85486">
        <ele>2533</ele>
        <time>2026-08-04T09:09:45.278Z</time>
      </trkpt>
      <trkpt lat="45.96174" lon="6.85486">
        <ele>2533</ele>
        <time>2026-08-04T09:09:46.278Z</time>
      </trkpt>
      <trkpt lat="45.96173" lon="6.85487">
        <ele>2532</ele>
        <time>2026-08-04T09:09:47.278Z</time>
      </trkpt>
      <trkpt lat="45.96172" lon="6.85486">
        <ele>2532</ele>
        <time>2026-08-04T09:09:48.278Z</time>
      </trkpt>
      <trkpt lat="45.96172" lon="6.85486">
        <ele>2532</ele>
        <time>2026-08-04T09:09:49.278Z</time>
      </trkpt>
      <trkpt lat="45.96171" lon="6.85486">
        <ele>2532</ele>
        <time>2026-08-04T09:09:50.278Z</time>
      </trkpt>
      <trkpt lat="45.9617" lon="6.85485">
        <ele>2531</ele>
        <time>2026-08-04T09:09:51.278Z</time>
      </trkpt>
      <trkpt lat="45.9617" lon="6.85486">
        <ele>2531</ele>
        <time>2026-08-04T09:09:52.278Z</time>
      </trkpt>
      <trkpt lat="45.96169" lon="6.85487">
        <ele>2531</ele>
        <time>2026-08-04T09:09:53.278Z</time>
      </trkpt>
      <trkpt lat="45.96168" lon="6.85487">
        <ele>2531</ele>
        <time>2026-08-04T09:09:54.278Z</time>
      </trkpt>
      <trkpt lat="45.96167" lon="6.85486">
        <ele>2530</ele>
        <time>2026-08-04T09:09:55.278Z</time>
      </trkpt>
      <trkpt lat="45.96167" lon="6.85486">
        <ele>2530</ele>
        <time>2026-08-04T09:09:56.278Z</time>
      </trkpt>
      <trkpt lat="45.96167" lon="6.85486">
        <ele>2530</ele>
        <time>2026-08-04T09:09:57.278Z</time>
      </trkpt>
      <trkpt lat="45.96166" lon="6.85486">
        <ele>2529</ele>
        <time>2026-08-04T09:09:58.278Z</time>
      </trkpt>
      <trkpt lat="45.96166" lon="6.85486">
        <ele>2529</ele>
        <time>2026-08-04T09:09:59.278Z</time>
      </trkpt>
      <trkpt lat="45.96166" lon="6.85486">
        <ele>2529</ele>
        <time>2026-08-04T09:10:00.278Z</time>
      </trkpt>
      <trkpt lat="45.96165" lon="6.85486">
        <ele>2528</ele>
        <time>2026-08-04T09:10:01.278Z</time>
      </trkpt>
      <trkpt lat="45.96164" lon="6.85486">
        <ele>2528</ele>
        <time>2026-08-04T09:10:02.278Z</time>
      </trkpt>
      <trkpt lat="45.96164" lon="6.85486">
        <ele>2528</ele>
        <time>2026-08-04T09:10:03.278Z</time>
      </trkpt>
      <trkpt lat="45.96163" lon="6.85486">
        <ele>2528</ele>
        <time>2026-08-04T09:10:04.278Z</time>
      </trkpt>
      <trkpt lat="45.96162" lon="6.85487">
        <ele>2527</ele>
        <time>2026-08-04T09:10:05.278Z</time>
      </trkpt>
      <trkpt lat="45.96162" lon="6.85487">
        <ele>2527</ele>
        <time>2026-08-04T09:10:06.278Z</time>
      </trkpt>
      <trkpt lat="45.96161" lon="6.85488">
        <ele>2527</ele>
        <time>2026-08-04T09:10:07.278Z</time>
      </trkpt>
      <trkpt lat="45.96161" lon="6.85488">
        <ele>2527</ele>
        <time>2026-08-04T09:10:08.278Z</time>
      </trkpt>
      <trkpt lat="45.9616" lon="6.85489">
        <ele>2527</ele>
        <time>2026-08-04T09:10:09.278Z</time>
      </trkpt>
      <trkpt lat="45.96159" lon="6.85489">
        <ele>2527</ele>
        <time>2026-08-04T09:10:10.278Z</time>
      </trkpt>
      <trkpt lat="45.96159" lon="6.85489">
        <ele>2526</ele>
        <time>2026-08-04T09:10:11.278Z</time>
      </trkpt>
      <trkpt lat="45.96159" lon="6.85489">
        <ele>2526</ele>
        <time>2026-08-04T09:10:12.278Z</time>
      </trkpt>
      <trkpt lat="45.96158" lon="6.85489">
        <ele>2525</ele>
        <time>2026-08-04T09:10:13.278Z</time>
      </trkpt>
      <trkpt lat="45.96158" lon="6.85489">
        <ele>2525</ele>
        <time>2026-08-04T09:10:14.278Z</time>
      </trkpt>
      <trkpt lat="45.96158" lon="6.85489">
        <ele>2525</ele>
        <time>2026-08-04T09:10:15.278Z</time>
      </trkpt>
      <trkpt lat="45.96157" lon="6.8549">
        <ele>2525</ele>
        <time>2026-08-04T09:10:16.278Z</time>
      </trkpt>
      <trkpt lat="45.96156" lon="6.85491">
        <ele>2524</ele>
        <time>2026-08-04T09:10:17.278Z</time>
      </trkpt>
      <trkpt lat="45.96156" lon="6.85492">
        <ele>2524</ele>
        <time>2026-08-04T09:10:18.278Z</time>
      </trkpt>
      <trkpt lat="45.96156" lon="6.85492">
        <ele>2524</ele>
        <time>2026-08-04T09:10:19.278Z</time>
      </trkpt>
      <trkpt lat="45.96155" lon="6.85492">
        <ele>2524</ele>
        <time>2026-08-04T09:10:20.278Z</time>
      </trkpt>
      <trkpt lat="45.96155" lon="6.85493">
        <ele>2524</ele>
        <time>2026-08-04T09:10:21.278Z</time>
      </trkpt>
      <trkpt lat="45.96155" lon="6.85493">
        <ele>2524</ele>
        <time>2026-08-04T09:10:22.278Z</time>
      </trkpt>
      <trkpt lat="45.96154" lon="6.85492">
        <ele>2524</ele>
        <time>2026-08-04T09:10:23.278Z</time>
      </trkpt>
      <trkpt lat="45.96154" lon="6.85492">
        <ele>2524</ele>
        <time>2026-08-04T09:10:24.278Z</time>
      </trkpt>
      <trkpt lat="45.96154" lon="6.85492">
        <ele>2524</ele>
        <time>2026-08-04T09:10:25.278Z</time>
      </trkpt>
      <trkpt lat="45.96154" lon="6.85492">
        <ele>2523</ele>
        <time>2026-08-04T09:10:26.278Z</time>
      </trkpt>
      <trkpt lat="45.96154" lon="6.85492">
        <ele>2523</ele>
        <time>2026-08-04T09:10:27.278Z</time>
      </trkpt>
      <trkpt lat="45.96154" lon="6.85492">
        <ele>2523</ele>
        <time>2026-08-04T09:10:28.278Z</time>
      </trkpt>
      <trkpt lat="45.96154" lon="6.85492">
        <ele>2523</ele>
        <time>2026-08-04T09:10:29.278Z</time>
      </trkpt>
      <trkpt lat="45.96154" lon="6.85492">
        <ele>2523</ele>
        <time>2026-08-04T09:10:30.278Z</time>
      </trkpt>
      <trkpt lat="45.96154" lon="6.85492">
        <ele>2523</ele>
        <time>2026-08-04T09:10:31.278Z</time>
      </trkpt>
      <trkpt lat="45.96154" lon="6.85492">
        <ele>2523</ele>
        <time>2026-08-04T09:10:32.278Z</time>
      </trkpt>
      <trkpt lat="45.96154" lon="6.85492">
        <ele>2523</ele>
        <time>2026-08-04T09:10:33.278Z</time>
      </trkpt>
      <trkpt lat="45.96154" lon="6.85492">
        <ele>2523</ele>
        <time>2026-08-04T09:10:34.278Z</time>
      </trkpt>
      <trkpt lat="45.96154" lon="6.85492">
        <ele>2523</ele>
        <time>2026-08-04T09:10:35.278Z</time>
      </trkpt>
      <trkpt lat="45.96154" lon="6.85492">
        <ele>2523</ele>
        <time>2026-08-04T09:10:36.278Z</time>
      </trkpt>
      <trkpt lat="45.96154" lon="6.85492">
        <ele>2523</ele>
        <time>2026-08-04T09:10:37.278Z</time>
      </trkpt>
      <trkpt lat="45.96154" lon="6.85492">
        <ele>2523</ele>
        <time>2026-08-04T09:10:38.278Z</time>
      </trkpt>
      <trkpt lat="45.96154" lon="6.85492">
        <ele>2523</ele>
        <time>2026-08-04T09:10:39.278Z</time>
      </trkpt>
      <trkpt lat="45.96154" lon="6.85492">
        <ele>2523</ele>
        <time>2026-08-04T09:10:40.278Z</time>
      </trkpt>
      <trkpt lat="45.96154" lon="6.85492">
        <ele>2522</ele>
        <time>2026-08-04T09:10:41.278Z</time>
      </trkpt>
      <trkpt lat="45.96154" lon="6.85492">
        <ele>2522</ele>
        <time>2026-08-04T09:10:42.278Z</time>
      </trkpt>
      <trkpt lat="45.96154" lon="6.85492">
        <ele>2522</ele>
        <time>2026-08-04T09:10:43.278Z</time>
      </trkpt>
      <trkpt lat="45.96154" lon="6.85492">
        <ele>2522</ele>
        <time>2026-08-04T09:10:44.278Z</time>
      </trkpt>
      <trkpt lat="45.96154" lon="6.85492">
        <ele>2522</ele>
        <time>2026-08-04T09:10:45.278Z</time>
      </trkpt>
      <trkpt lat="45.96154" lon="6.85492">
        <ele>2522</ele>
        <time>2026-08-04T09:10:46.278Z</time>
      </trkpt>
      <trkpt lat="45.96154" lon="6.85492">
        <ele>2522</ele>
        <time>2026-08-04T09:10:47.278Z</time>
      </trkpt>
      <trkpt lat="45.96154" lon="6.85492">
        <ele>2521</ele>
        <time>2026-08-04T09:10:48.278Z</time>
      </trkpt>
      <trkpt lat="45.96154" lon="6.85492">
        <ele>2521</ele>
        <time>2026-08-04T09:10:49.278Z</time>
      </trkpt>
      <trkpt lat="45.96154" lon="6.85492">
        <ele>2521</ele>
        <time>2026-08-04T09:10:50.278Z</time>
      </trkpt>
      <trkpt lat="45.96154" lon="6.85492">
        <ele>2521</ele>
        <time>2026-08-04T09:10:51.278Z</time>
      </trkpt>
      <trkpt lat="45.96154" lon="6.85492">
        <ele>2521</ele>
        <time>2026-08-04T09:10:52.278Z</time>
      </trkpt>
      <trkpt lat="45.96154" lon="6.85493">
        <ele>2521</ele>
        <time>2026-08-04T09:10:53.278Z</time>
      </trkpt>
      <trkpt lat="45.96152" lon="6.85494">
        <ele>2521</ele>
        <time>2026-08-04T09:10:54.278Z</time>
      </trkpt>
      <trkpt lat="45.9615" lon="6.85496">
        <ele>2521</ele>
        <time>2026-08-04T09:10:55.278Z</time>
      </trkpt>
      <trkpt lat="45.96149" lon="6.85498">
        <ele>2520</ele>
        <time>2026-08-04T09:10:56.278Z</time>
      </trkpt>
      <trkpt lat="45.96147" lon="6.85499">
        <ele>2520</ele>
        <time>2026-08-04T09:10:57.278Z</time>
      </trkpt>
      <trkpt lat="45.96145" lon="6.85501">
        <ele>2519</ele>
        <time>2026-08-04T09:10:58.278Z</time>
      </trkpt>
      <trkpt lat="45.96143" lon="6.85502">
        <ele>2519</ele>
        <time>2026-08-04T09:10:59.278Z</time>
      </trkpt>
      <trkpt lat="45.96141" lon="6.85503">
        <ele>2519</ele>
        <time>2026-08-04T09:11:00.278Z</time>
      </trkpt>
      <trkpt lat="45.96139" lon="6.85504">
        <ele>2519</ele>
        <time>2026-08-04T09:11:01.278Z</time>
      </trkpt>
      <trkpt lat="45.96137" lon="6.85506">
        <ele>2519</ele>
        <time>2026-08-04T09:11:02.278Z</time>
      </trkpt>
      <trkpt lat="45.96136" lon="6.85507">
        <ele>2518</ele>
        <time>2026-08-04T09:11:03.278Z</time>
      </trkpt>
      <trkpt lat="45.96135" lon="6.85508">
        <ele>2518</ele>
        <time>2026-08-04T09:11:04.278Z</time>
      </trkpt>
      <trkpt lat="45.96134" lon="6.85508">
        <ele>2518</ele>
        <time>2026-08-04T09:11:05.278Z</time>
      </trkpt>
      <trkpt lat="45.96132" lon="6.85509">
        <ele>2518</ele>
        <time>2026-08-04T09:11:06.278Z</time>
      </trkpt>
      <trkpt lat="45.96131" lon="6.85509">
        <ele>2518</ele>
        <time>2026-08-04T09:11:07.278Z</time>
      </trkpt>
      <trkpt lat="45.9613" lon="6.85509">
        <ele>2518</ele>
        <time>2026-08-04T09:11:08.278Z</time>
      </trkpt>
      <trkpt lat="45.96129" lon="6.85509">
        <ele>2518</ele>
        <time>2026-08-04T09:11:09.278Z</time>
      </trkpt>
      <trkpt lat="45.96128" lon="6.85509">
        <ele>2518</ele>
        <time>2026-08-04T09:11:10.278Z</time>
      </trkpt>
      <trkpt lat="45.96126" lon="6.8551">
        <ele>2518</ele>
        <time>2026-08-04T09:11:11.278Z</time>
      </trkpt>
      <trkpt lat="45.96125" lon="6.85511">
        <ele>2518</ele>
        <time>2026-08-04T09:11:12.278Z</time>
      </trkpt>
      <trkpt lat="45.96124" lon="6.85511">
        <ele>2519</ele>
        <time>2026-08-04T09:11:13.278Z</time>
      </trkpt>
      <trkpt lat="45.96124" lon="6.85513">
        <ele>2519</ele>
        <time>2026-08-04T09:11:14.278Z</time>
      </trkpt>
      <trkpt lat="45.96123" lon="6.85514">
        <ele>2519</ele>
        <time>2026-08-04T09:11:15.278Z</time>
      </trkpt>
      <trkpt lat="45.96122" lon="6.85515">
        <ele>2519</ele>
        <time>2026-08-04T09:11:16.278Z</time>
      </trkpt>
      <trkpt lat="45.96121" lon="6.85516">
        <ele>2519</ele>
        <time>2026-08-04T09:11:17.278Z</time>
      </trkpt>
      <trkpt lat="45.9612" lon="6.85517">
        <ele>2519</ele>
        <time>2026-08-04T09:11:18.278Z</time>
      </trkpt>
      <trkpt lat="45.96119" lon="6.85517">
        <ele>2519</ele>
        <time>2026-08-04T09:11:19.278Z</time>
      </trkpt>
      <trkpt lat="45.96118" lon="6.85517">
        <ele>2519</ele>
        <time>2026-08-04T09:11:20.278Z</time>
      </trkpt>
      <trkpt lat="45.96118" lon="6.85517">
        <ele>2519</ele>
        <time>2026-08-04T09:11:21.278Z</time>
      </trkpt>
      <trkpt lat="45.96117" lon="6.85518">
        <ele>2519</ele>
        <time>2026-08-04T09:11:22.278Z</time>
      </trkpt>
      <trkpt lat="45.96116" lon="6.85519">
        <ele>2518</ele>
        <time>2026-08-04T09:11:23.278Z</time>
      </trkpt>
      <trkpt lat="45.96115" lon="6.85519">
        <ele>2518</ele>
        <time>2026-08-04T09:11:24.278Z</time>
      </trkpt>
      <trkpt lat="45.96115" lon="6.85521">
        <ele>2518</ele>
        <time>2026-08-04T09:11:25.278Z</time>
      </trkpt>
      <trkpt lat="45.96115" lon="6.85522">
        <ele>2518</ele>
        <time>2026-08-04T09:11:26.278Z</time>
      </trkpt>
      <trkpt lat="45.96114" lon="6.85523">
        <ele>2518</ele>
        <time>2026-08-04T09:11:27.278Z</time>
      </trkpt>
      <trkpt lat="45.96114" lon="6.85524">
        <ele>2518</ele>
        <time>2026-08-04T09:11:28.278Z</time>
      </trkpt>
      <trkpt lat="45.96113" lon="6.85524">
        <ele>2517</ele>
        <time>2026-08-04T09:11:29.278Z</time>
      </trkpt>
      <trkpt lat="45.96112" lon="6.85524">
        <ele>2517</ele>
        <time>2026-08-04T09:11:30.278Z</time>
      </trkpt>
      <trkpt lat="45.96112" lon="6.85523">
        <ele>2517</ele>
        <time>2026-08-04T09:11:31.278Z</time>
      </trkpt>
      <trkpt lat="45.96111" lon="6.85522">
        <ele>2517</ele>
        <time>2026-08-04T09:11:32.278Z</time>
      </trkpt>
      <trkpt lat="45.96111" lon="6.85522">
        <ele>2517</ele>
        <time>2026-08-04T09:11:33.278Z</time>
      </trkpt>
      <trkpt lat="45.9611" lon="6.85521">
        <ele>2516</ele>
        <time>2026-08-04T09:11:34.278Z</time>
      </trkpt>
      <trkpt lat="45.9611" lon="6.85521">
        <ele>2515</ele>
        <time>2026-08-04T09:11:35.278Z</time>
      </trkpt>
      <trkpt lat="45.96109" lon="6.85522">
        <ele>2515</ele>
        <time>2026-08-04T09:11:36.278Z</time>
      </trkpt>
      <trkpt lat="45.96109" lon="6.85523">
        <ele>2515</ele>
        <time>2026-08-04T09:11:37.278Z</time>
      </trkpt>
      <trkpt lat="45.96109" lon="6.85524">
        <ele>2514</ele>
        <time>2026-08-04T09:11:38.278Z</time>
      </trkpt>
      <trkpt lat="45.96108" lon="6.85524">
        <ele>2514</ele>
        <time>2026-08-04T09:11:39.278Z</time>
      </trkpt>
      <trkpt lat="45.96108" lon="6.85525">
        <ele>2513</ele>
        <time>2026-08-04T09:11:40.278Z</time>
      </trkpt>
      <trkpt lat="45.96107" lon="6.85526">
        <ele>2513</ele>
        <time>2026-08-04T09:11:41.278Z</time>
      </trkpt>
      <trkpt lat="45.96107" lon="6.85526">
        <ele>2512</ele>
        <time>2026-08-04T09:11:42.278Z</time>
      </trkpt>
      <trkpt lat="45.96106" lon="6.85527">
        <ele>2512</ele>
        <time>2026-08-04T09:11:43.278Z</time>
      </trkpt>
      <trkpt lat="45.96105" lon="6.85528">
        <ele>2512</ele>
        <time>2026-08-04T09:11:44.278Z</time>
      </trkpt>
      <trkpt lat="45.96104" lon="6.85531">
        <ele>2512</ele>
        <time>2026-08-04T09:11:45.278Z</time>
      </trkpt>
      <trkpt lat="45.96104" lon="6.85532">
        <ele>2512</ele>
        <time>2026-08-04T09:11:46.278Z</time>
      </trkpt>
      <trkpt lat="45.96103" lon="6.85534">
        <ele>2512</ele>
        <time>2026-08-04T09:11:47.278Z</time>
      </trkpt>
      <trkpt lat="45.96102" lon="6.85536">
        <ele>2512</ele>
        <time>2026-08-04T09:11:48.278Z</time>
      </trkpt>
      <trkpt lat="45.96102" lon="6.85538">
        <ele>2512</ele>
        <time>2026-08-04T09:11:49.278Z</time>
      </trkpt>
      <trkpt lat="45.96101" lon="6.8554">
        <ele>2511</ele>
        <time>2026-08-04T09:11:50.278Z</time>
      </trkpt>
      <trkpt lat="45.96101" lon="6.85541">
        <ele>2511</ele>
        <time>2026-08-04T09:11:51.278Z</time>
      </trkpt>
      <trkpt lat="45.961" lon="6.85542">
        <ele>2511</ele>
        <time>2026-08-04T09:11:52.278Z</time>
      </trkpt>
      <trkpt lat="45.96099" lon="6.85542">
        <ele>2511</ele>
        <time>2026-08-04T09:11:53.278Z</time>
      </trkpt>
      <trkpt lat="45.96098" lon="6.85543">
        <ele>2510</ele>
        <time>2026-08-04T09:11:54.278Z</time>
      </trkpt>
      <trkpt lat="45.96098" lon="6.85544">
        <ele>2510</ele>
        <time>2026-08-04T09:11:55.278Z</time>
      </trkpt>
      <trkpt lat="45.96097" lon="6.85545">
        <ele>2510</ele>
        <time>2026-08-04T09:11:56.278Z</time>
      </trkpt>
      <trkpt lat="45.96096" lon="6.85547">
        <ele>2509</ele>
        <time>2026-08-04T09:11:57.278Z</time>
      </trkpt>
      <trkpt lat="45.96096" lon="6.85549">
        <ele>2509</ele>
        <time>2026-08-04T09:11:58.278Z</time>
      </trkpt>
      <trkpt lat="45.96095" lon="6.85551">
        <ele>2509</ele>
        <time>2026-08-04T09:11:59.278Z</time>
      </trkpt>
      <trkpt lat="45.96094" lon="6.85553">
        <ele>2508</ele>
        <time>2026-08-04T09:12:00.278Z</time>
      </trkpt>
      <trkpt lat="45.96094" lon="6.85555">
        <ele>2508</ele>
        <time>2026-08-04T09:12:01.278Z</time>
      </trkpt>
      <trkpt lat="45.96093" lon="6.85557">
        <ele>2508</ele>
        <time>2026-08-04T09:12:02.278Z</time>
      </trkpt>
      <trkpt lat="45.96093" lon="6.85559">
        <ele>2508</ele>
        <time>2026-08-04T09:12:03.278Z</time>
      </trkpt>
      <trkpt lat="45.96092" lon="6.8556">
        <ele>2507</ele>
        <time>2026-08-04T09:12:04.278Z</time>
      </trkpt>
      <trkpt lat="45.96091" lon="6.85562">
        <ele>2507</ele>
        <time>2026-08-04T09:12:05.278Z</time>
      </trkpt>
      <trkpt lat="45.96091" lon="6.85563">
        <ele>2507</ele>
        <time>2026-08-04T09:12:06.278Z</time>
      </trkpt>
      <trkpt lat="45.9609" lon="6.85564">
        <ele>2506</ele>
        <time>2026-08-04T09:12:07.278Z</time>
      </trkpt>
      <trkpt lat="45.96089" lon="6.85565">
        <ele>2506</ele>
        <time>2026-08-04T09:12:08.278Z</time>
      </trkpt>
      <trkpt lat="45.96089" lon="6.85567">
        <ele>2505</ele>
        <time>2026-08-04T09:12:09.278Z</time>
      </trkpt>
      <trkpt lat="45.96088" lon="6.85568">
        <ele>2505</ele>
        <time>2026-08-04T09:12:10.278Z</time>
      </trkpt>
      <trkpt lat="45.96087" lon="6.85569">
        <ele>2505</ele>
        <time>2026-08-04T09:12:11.278Z</time>
      </trkpt>
      <trkpt lat="45.96087" lon="6.8557">
        <ele>2504</ele>
        <time>2026-08-04T09:12:12.278Z</time>
      </trkpt>
      <trkpt lat="45.96086" lon="6.85571">
        <ele>2504</ele>
        <time>2026-08-04T09:12:13.278Z</time>
      </trkpt>
      <trkpt lat="45.96086" lon="6.85571">
        <ele>2503</ele>
        <time>2026-08-04T09:12:14.278Z</time>
      </trkpt>
      <trkpt lat="45.96085" lon="6.85572">
        <ele>2503</ele>
        <time>2026-08-04T09:12:15.278Z</time>
      </trkpt>
      <trkpt lat="45.96084" lon="6.85573">
        <ele>2502</ele>
        <time>2026-08-04T09:12:16.278Z</time>
      </trkpt>
      <trkpt lat="45.96083" lon="6.85574">
        <ele>2502</ele>
        <time>2026-08-04T09:12:17.278Z</time>
      </trkpt>
      <trkpt lat="45.96083" lon="6.85576">
        <ele>2502</ele>
        <time>2026-08-04T09:12:18.278Z</time>
      </trkpt>
      <trkpt lat="45.96082" lon="6.85578">
        <ele>2501</ele>
        <time>2026-08-04T09:12:19.278Z</time>
      </trkpt>
      <trkpt lat="45.96082" lon="6.8558">
        <ele>2501</ele>
        <time>2026-08-04T09:12:20.278Z</time>
      </trkpt>
      <trkpt lat="45.96082" lon="6.85582">
        <ele>2501</ele>
        <time>2026-08-04T09:12:21.278Z</time>
      </trkpt>
      <trkpt lat="45.96082" lon="6.85584">
        <ele>2501</ele>
        <time>2026-08-04T09:12:22.278Z</time>
      </trkpt>
      <trkpt lat="45.96082" lon="6.85586">
        <ele>2500</ele>
        <time>2026-08-04T09:12:23.278Z</time>
      </trkpt>
      <trkpt lat="45.96082" lon="6.85588">
        <ele>2500</ele>
        <time>2026-08-04T09:12:24.278Z</time>
      </trkpt>
      <trkpt lat="45.96081" lon="6.85589">
        <ele>2500</ele>
        <time>2026-08-04T09:12:25.278Z</time>
      </trkpt>
      <trkpt lat="45.9608" lon="6.8559">
        <ele>2500</ele>
        <time>2026-08-04T09:12:26.278Z</time>
      </trkpt>
      <trkpt lat="45.96079" lon="6.85591">
        <ele>2500</ele>
        <time>2026-08-04T09:12:27.278Z</time>
      </trkpt>
      <trkpt lat="45.96079" lon="6.85593">
        <ele>2500</ele>
        <time>2026-08-04T09:12:28.278Z</time>
      </trkpt>
      <trkpt lat="45.96079" lon="6.85595">
        <ele>2499</ele>
        <time>2026-08-04T09:12:29.278Z</time>
      </trkpt>
      <trkpt lat="45.96078" lon="6.85598">
        <ele>2499</ele>
        <time>2026-08-04T09:12:30.278Z</time>
      </trkpt>
      <trkpt lat="45.96077" lon="6.85601">
        <ele>2499</ele>
        <time>2026-08-04T09:12:31.278Z</time>
      </trkpt>
      <trkpt lat="45.96077" lon="6.85603">
        <ele>2499</ele>
        <time>2026-08-04T09:12:32.278Z</time>
      </trkpt>
      <trkpt lat="45.96076" lon="6.85605">
        <ele>2499</ele>
        <time>2026-08-04T09:12:33.278Z</time>
      </trkpt>
      <trkpt lat="45.96075" lon="6.85606">
        <ele>2499</ele>
        <time>2026-08-04T09:12:34.278Z</time>
      </trkpt>
      <trkpt lat="45.96074" lon="6.85608">
        <ele>2498</ele>
        <time>2026-08-04T09:12:35.278Z</time>
      </trkpt>
      <trkpt lat="45.96074" lon="6.85608">
        <ele>2498</ele>
        <time>2026-08-04T09:12:36.278Z</time>
      </trkpt>
      <trkpt lat="45.96074" lon="6.85609">
        <ele>2497</ele>
        <time>2026-08-04T09:12:37.278Z</time>
      </trkpt>
      <trkpt lat="45.96073" lon="6.8561">
        <ele>2497</ele>
        <time>2026-08-04T09:12:38.278Z</time>
      </trkpt>
      <trkpt lat="45.96073" lon="6.8561">
        <ele>2496</ele>
        <time>2026-08-04T09:12:39.278Z</time>
      </trkpt>
      <trkpt lat="45.96073" lon="6.85611">
        <ele>2496</ele>
        <time>2026-08-04T09:12:40.278Z</time>
      </trkpt>
      <trkpt lat="45.96073" lon="6.85612">
        <ele>2496</ele>
        <time>2026-08-04T09:12:41.278Z</time>
      </trkpt>
      <trkpt lat="45.96073" lon="6.85613">
        <ele>2495</ele>
        <time>2026-08-04T09:12:42.278Z</time>
      </trkpt>
      <trkpt lat="45.96072" lon="6.85614">
        <ele>2494</ele>
        <time>2026-08-04T09:12:43.278Z</time>
      </trkpt>
      <trkpt lat="45.96072" lon="6.85616">
        <ele>2494</ele>
        <time>2026-08-04T09:12:44.278Z</time>
      </trkpt>
      <trkpt lat="45.96072" lon="6.85617">
        <ele>2494</ele>
        <time>2026-08-04T09:12:45.278Z</time>
      </trkpt>
      <trkpt lat="45.96072" lon="6.85619">
        <ele>2494</ele>
        <time>2026-08-04T09:12:46.278Z</time>
      </trkpt>
      <trkpt lat="45.96071" lon="6.85619">
        <ele>2493</ele>
        <time>2026-08-04T09:12:47.278Z</time>
      </trkpt>
      <trkpt lat="45.96071" lon="6.85619">
        <ele>2493</ele>
        <time>2026-08-04T09:12:48.278Z</time>
      </trkpt>
      <trkpt lat="45.9607" lon="6.85619">
        <ele>2493</ele>
        <time>2026-08-04T09:12:49.278Z</time>
      </trkpt>
      <trkpt lat="45.96069" lon="6.85619">
        <ele>2493</ele>
        <time>2026-08-04T09:12:50.278Z</time>
      </trkpt>
      <trkpt lat="45.96069" lon="6.85619">
        <ele>2493</ele>
        <time>2026-08-04T09:12:51.278Z</time>
      </trkpt>
      <trkpt lat="45.96069" lon="6.8562">
        <ele>2493</ele>
        <time>2026-08-04T09:12:52.278Z</time>
      </trkpt>
      <trkpt lat="45.96068" lon="6.85621">
        <ele>2492</ele>
        <time>2026-08-04T09:12:53.278Z</time>
      </trkpt>
      <trkpt lat="45.96068" lon="6.85622">
        <ele>2492</ele>
        <time>2026-08-04T09:12:54.278Z</time>
      </trkpt>
      <trkpt lat="45.96068" lon="6.85623">
        <ele>2492</ele>
        <time>2026-08-04T09:12:55.278Z</time>
      </trkpt>
      <trkpt lat="45.96068" lon="6.85624">
        <ele>2492</ele>
        <time>2026-08-04T09:12:56.278Z</time>
      </trkpt>
      <trkpt lat="45.96068" lon="6.85625">
        <ele>2492</ele>
        <time>2026-08-04T09:12:57.278Z</time>
      </trkpt>
      <trkpt lat="45.96068" lon="6.85626">
        <ele>2492</ele>
        <time>2026-08-04T09:12:58.278Z</time>
      </trkpt>
      <trkpt lat="45.96068" lon="6.85626">
        <ele>2492</ele>
        <time>2026-08-04T09:12:59.278Z</time>
      </trkpt>
      <trkpt lat="45.96068" lon="6.85627">
        <ele>2491</ele>
        <time>2026-08-04T09:13:00.278Z</time>
      </trkpt>
      <trkpt lat="45.96067" lon="6.85627">
        <ele>2491</ele>
        <time>2026-08-04T09:13:01.278Z</time>
      </trkpt>
      <trkpt lat="45.96067" lon="6.85628">
        <ele>2490</ele>
        <time>2026-08-04T09:13:02.278Z</time>
      </trkpt>
      <trkpt lat="45.96067" lon="6.85629">
        <ele>2490</ele>
        <time>2026-08-04T09:13:03.278Z</time>
      </trkpt>
      <trkpt lat="45.96067" lon="6.8563">
        <ele>2489</ele>
        <time>2026-08-04T09:13:04.278Z</time>
      </trkpt>
      <trkpt lat="45.96068" lon="6.85631">
        <ele>2489</ele>
        <time>2026-08-04T09:13:05.278Z</time>
      </trkpt>
      <trkpt lat="45.96068" lon="6.85632">
        <ele>2489</ele>
        <time>2026-08-04T09:13:06.278Z</time>
      </trkpt>
      <trkpt lat="45.96068" lon="6.85633">
        <ele>2489</ele>
        <time>2026-08-04T09:13:07.278Z</time>
      </trkpt>
      <trkpt lat="45.96068" lon="6.85634">
        <ele>2489</ele>
        <time>2026-08-04T09:13:08.278Z</time>
      </trkpt>
      <trkpt lat="45.96068" lon="6.85636">
        <ele>2489</ele>
        <time>2026-08-04T09:13:09.278Z</time>
      </trkpt>
      <trkpt lat="45.96068" lon="6.85636">
        <ele>2489</ele>
        <time>2026-08-04T09:13:10.278Z</time>
      </trkpt>
      <trkpt lat="45.96067" lon="6.85637">
        <ele>2488</ele>
        <time>2026-08-04T09:13:11.278Z</time>
      </trkpt>
      <trkpt lat="45.96067" lon="6.85638">
        <ele>2488</ele>
        <time>2026-08-04T09:13:12.278Z</time>
      </trkpt>
      <trkpt lat="45.96066" lon="6.85639">
        <ele>2488</ele>
        <time>2026-08-04T09:13:13.278Z</time>
      </trkpt>
      <trkpt lat="45.96066" lon="6.85641">
        <ele>2487</ele>
        <time>2026-08-04T09:13:14.278Z</time>
      </trkpt>
      <trkpt lat="45.96066" lon="6.85642">
        <ele>2486</ele>
        <time>2026-08-04T09:13:15.278Z</time>
      </trkpt>
      <trkpt lat="45.96065" lon="6.85644">
        <ele>2486</ele>
        <time>2026-08-04T09:13:16.278Z</time>
      </trkpt>
      <trkpt lat="45.96064" lon="6.85647">
        <ele>2485</ele>
        <time>2026-08-04T09:13:17.278Z</time>
      </trkpt>
      <trkpt lat="45.96064" lon="6.85648">
        <ele>2485</ele>
        <time>2026-08-04T09:13:18.278Z</time>
      </trkpt>
      <trkpt lat="45.96063" lon="6.8565">
        <ele>2484</ele>
        <time>2026-08-04T09:13:19.278Z</time>
      </trkpt>
      <trkpt lat="45.96063" lon="6.85652">
        <ele>2484</ele>
        <time>2026-08-04T09:13:20.278Z</time>
      </trkpt>
      <trkpt lat="45.96063" lon="6.85653">
        <ele>2484</ele>
        <time>2026-08-04T09:13:21.278Z</time>
      </trkpt>
      <trkpt lat="45.96063" lon="6.85655">
        <ele>2484</ele>
        <time>2026-08-04T09:13:22.278Z</time>
      </trkpt>
      <trkpt lat="45.96063" lon="6.85657">
        <ele>2484</ele>
        <time>2026-08-04T09:13:23.278Z</time>
      </trkpt>
      <trkpt lat="45.96063" lon="6.85658">
        <ele>2483</ele>
        <time>2026-08-04T09:13:24.278Z</time>
      </trkpt>
      <trkpt lat="45.96063" lon="6.85659">
        <ele>2483</ele>
        <time>2026-08-04T09:13:25.278Z</time>
      </trkpt>
      <trkpt lat="45.96063" lon="6.8566">
        <ele>2483</ele>
        <time>2026-08-04T09:13:26.278Z</time>
      </trkpt>
      <trkpt lat="45.96062" lon="6.8566">
        <ele>2482</ele>
        <time>2026-08-04T09:13:27.278Z</time>
      </trkpt>
      <trkpt lat="45.96061" lon="6.8566">
        <ele>2481</ele>
        <time>2026-08-04T09:13:28.278Z</time>
      </trkpt>
      <trkpt lat="45.9606" lon="6.8566">
        <ele>2480</ele>
        <time>2026-08-04T09:13:29.278Z</time>
      </trkpt>
      <trkpt lat="45.96059" lon="6.8566">
        <ele>2480</ele>
        <time>2026-08-04T09:13:30.278Z</time>
      </trkpt>
      <trkpt lat="45.96058" lon="6.8566">
        <ele>2479</ele>
        <time>2026-08-04T09:13:31.278Z</time>
      </trkpt>
      <trkpt lat="45.96058" lon="6.85661">
        <ele>2479</ele>
        <time>2026-08-04T09:13:32.278Z</time>
      </trkpt>
      <trkpt lat="45.96057" lon="6.85662">
        <ele>2479</ele>
        <time>2026-08-04T09:13:33.278Z</time>
      </trkpt>
      <trkpt lat="45.96057" lon="6.85664">
        <ele>2479</ele>
        <time>2026-08-04T09:13:34.278Z</time>
      </trkpt>
      <trkpt lat="45.96057" lon="6.85666">
        <ele>2479</ele>
        <time>2026-08-04T09:13:35.278Z</time>
      </trkpt>
      <trkpt lat="45.96056" lon="6.85668">
        <ele>2479</ele>
        <time>2026-08-04T09:13:36.278Z</time>
      </trkpt>
      <trkpt lat="45.96056" lon="6.85669">
        <ele>2479</ele>
        <time>2026-08-04T09:13:37.278Z</time>
      </trkpt>
      <trkpt lat="45.96055" lon="6.85671">
        <ele>2480</ele>
        <time>2026-08-04T09:13:38.278Z</time>
      </trkpt>
      <trkpt lat="45.96055" lon="6.85672">
        <ele>2480</ele>
        <time>2026-08-04T09:13:39.278Z</time>
      </trkpt>
      <trkpt lat="45.96054" lon="6.85674">
        <ele>2479</ele>
        <time>2026-08-04T09:13:40.278Z</time>
      </trkpt>
      <trkpt lat="45.96053" lon="6.85675">
        <ele>2479</ele>
        <time>2026-08-04T09:13:41.278Z</time>
      </trkpt>
      <trkpt lat="45.96053" lon="6.85676">
        <ele>2479</ele>
        <time>2026-08-04T09:13:42.278Z</time>
      </trkpt>
      <trkpt lat="45.96053" lon="6.85677">
        <ele>2479</ele>
        <time>2026-08-04T09:13:43.278Z</time>
      </trkpt>
      <trkpt lat="45.96052" lon="6.85678">
        <ele>2479</ele>
        <time>2026-08-04T09:13:44.278Z</time>
      </trkpt>
      <trkpt lat="45.96052" lon="6.85679">
        <ele>2478</ele>
        <time>2026-08-04T09:13:45.278Z</time>
      </trkpt>
      <trkpt lat="45.96052" lon="6.85679">
        <ele>2477</ele>
        <time>2026-08-04T09:13:46.278Z</time>
      </trkpt>
      <trkpt lat="45.96052" lon="6.85679">
        <ele>2477</ele>
        <time>2026-08-04T09:13:47.278Z</time>
      </trkpt>
      <trkpt lat="45.96052" lon="6.8568">
        <ele>2477</ele>
        <time>2026-08-04T09:13:48.278Z</time>
      </trkpt>
      <trkpt lat="45.96052" lon="6.8568">
        <ele>2477</ele>
        <time>2026-08-04T09:13:49.278Z</time>
      </trkpt>
      <trkpt lat="45.96052" lon="6.8568">
        <ele>2477</ele>
        <time>2026-08-04T09:13:50.278Z</time>
      </trkpt>
      <trkpt lat="45.96052" lon="6.85681">
        <ele>2477</ele>
        <time>2026-08-04T09:13:51.278Z</time>
      </trkpt>
      <trkpt lat="45.96052" lon="6.85681">
        <ele>2476</ele>
        <time>2026-08-04T09:13:52.278Z</time>
      </trkpt>
      <trkpt lat="45.96052" lon="6.85681">
        <ele>2476</ele>
        <time>2026-08-04T09:13:53.278Z</time>
      </trkpt>
      <trkpt lat="45.96052" lon="6.85682">
        <ele>2476</ele>
        <time>2026-08-04T09:13:54.278Z</time>
      </trkpt>
      <trkpt lat="45.96052" lon="6.85683">
        <ele>2476</ele>
        <time>2026-08-04T09:13:55.278Z</time>
      </trkpt>
      <trkpt lat="45.96051" lon="6.85683">
        <ele>2476</ele>
        <time>2026-08-04T09:13:56.278Z</time>
      </trkpt>
      <trkpt lat="45.96051" lon="6.85684">
        <ele>2476</ele>
        <time>2026-08-04T09:13:57.278Z</time>
      </trkpt>
      <trkpt lat="45.9605" lon="6.85683">
        <ele>2476</ele>
        <time>2026-08-04T09:13:58.278Z</time>
      </trkpt>
      <trkpt lat="45.9605" lon="6.85683">
        <ele>2476</ele>
        <time>2026-08-04T09:13:59.278Z</time>
      </trkpt>
      <trkpt lat="45.96049" lon="6.85682">
        <ele>2476</ele>
        <time>2026-08-04T09:14:00.278Z</time>
      </trkpt>
      <trkpt lat="45.96049" lon="6.85682">
        <ele>2475</ele>
        <time>2026-08-04T09:14:01.278Z</time>
      </trkpt>
      <trkpt lat="45.96049" lon="6.85681">
        <ele>2475</ele>
        <time>2026-08-04T09:14:02.278Z</time>
      </trkpt>
      <trkpt lat="45.96049" lon="6.85682">
        <ele>2475</ele>
        <time>2026-08-04T09:14:03.278Z</time>
      </trkpt>
      <trkpt lat="45.96049" lon="6.85682">
        <ele>2475</ele>
        <time>2026-08-04T09:14:04.278Z</time>
      </trkpt>
      <trkpt lat="45.96049" lon="6.85682">
        <ele>2474</ele>
        <time>2026-08-04T09:14:05.278Z</time>
      </trkpt>
      <trkpt lat="45.96049" lon="6.85682">
        <ele>2474</ele>
        <time>2026-08-04T09:14:06.278Z</time>
      </trkpt>
      <trkpt lat="45.96049" lon="6.85682">
        <ele>2474</ele>
        <time>2026-08-04T09:14:07.278Z</time>
      </trkpt>
      <trkpt lat="45.96049" lon="6.85682">
        <ele>2475</ele>
        <time>2026-08-04T09:14:08.278Z</time>
      </trkpt>
      <trkpt lat="45.96049" lon="6.85682">
        <ele>2475</ele>
        <time>2026-08-04T09:14:09.278Z</time>
      </trkpt>
      <trkpt lat="45.96049" lon="6.85682">
        <ele>2475</ele>
        <time>2026-08-04T09:14:10.278Z</time>
      </trkpt>
      <trkpt lat="45.96049" lon="6.85682">
        <ele>2475</ele>
        <time>2026-08-04T09:14:11.278Z</time>
      </trkpt>
      <trkpt lat="45.96049" lon="6.85682">
        <ele>2475</ele>
        <time>2026-08-04T09:14:12.278Z</time>
      </trkpt>
      <trkpt lat="45.96049" lon="6.85682">
        <ele>2475</ele>
        <time>2026-08-04T09:14:13.278Z</time>
      </trkpt>
      <trkpt lat="45.96049" lon="6.85682">
        <ele>2475</ele>
        <time>2026-08-04T09:14:14.278Z</time>
      </trkpt>
      <trkpt lat="45.96049" lon="6.85682">
        <ele>2475</ele>
        <time>2026-08-04T09:14:15.278Z</time>
      </trkpt>
      <trkpt lat="45.96049" lon="6.85682">
        <ele>2475</ele>
        <time>2026-08-04T09:14:16.278Z</time>
      </trkpt>
      <trkpt lat="45.96049" lon="6.85682">
        <ele>2475</ele>
        <time>2026-08-04T09:14:17.278Z</time>
      </trkpt>
      <trkpt lat="45.96049" lon="6.85682">
        <ele>2475</ele>
        <time>2026-08-04T09:14:18.278Z</time>
      </trkpt>
      <trkpt lat="45.96049" lon="6.85682">
        <ele>2475</ele>
        <time>2026-08-04T09:14:19.278Z</time>
      </trkpt>
      <trkpt lat="45.96049" lon="6.85682">
        <ele>2475</ele>
        <time>2026-08-04T09:14:20.278Z</time>
      </trkpt>
      <trkpt lat="45.96049" lon="6.85682">
        <ele>2475</ele>
        <time>2026-08-04T09:14:21.278Z</time>
      </trkpt>
      <trkpt lat="45.96049" lon="6.85682">
        <ele>2475</ele>
        <time>2026-08-04T09:14:22.278Z</time>
      </trkpt>
      <trkpt lat="45.96049" lon="6.85682">
        <ele>2475</ele>
        <time>2026-08-04T09:14:23.278Z</time>
      </trkpt>
      <trkpt lat="45.96049" lon="6.85682">
        <ele>2475</ele>
        <time>2026-08-04T09:14:24.278Z</time>
      </trkpt>
      <trkpt lat="45.96049" lon="6.85683">
        <ele>2475</ele>
        <time>2026-08-04T09:14:25.278Z</time>
      </trkpt>
      <trkpt lat="45.96049" lon="6.85683">
        <ele>2475</ele>
        <time>2026-08-04T09:14:26.278Z</time>
      </trkpt>
      <trkpt lat="45.96049" lon="6.85683">
        <ele>2475</ele>
        <time>2026-08-04T09:14:27.278Z</time>
      </trkpt>
      <trkpt lat="45.96049" lon="6.85683">
        <ele>2475</ele>
        <time>2026-08-04T09:14:28.278Z</time>
      </trkpt>
      <trkpt lat="45.96049" lon="6.85683">
        <ele>2475</ele>
        <time>2026-08-04T09:14:29.278Z</time>
      </trkpt>
      <trkpt lat="45.9605" lon="6.85683">
        <ele>2475</ele>
        <time>2026-08-04T09:14:30.278Z</time>
      </trkpt>
      <trkpt lat="45.9605" lon="6.85683">
        <ele>2475</ele>
        <time>2026-08-04T09:14:31.278Z</time>
      </trkpt>
      <trkpt lat="45.9605" lon="6.85683">
        <ele>2475</ele>
        <time>2026-08-04T09:14:32.278Z</time>
      </trkpt>
      <trkpt lat="45.9605" lon="6.85683">
        <ele>2475</ele>
        <time>2026-08-04T09:14:33.278Z</time>
      </trkpt>
      <trkpt lat="45.9605" lon="6.85683">
        <ele>2475</ele>
        <time>2026-08-04T09:14:34.278Z</time>
      </trkpt>
      <trkpt lat="45.9605" lon="6.85683">
        <ele>2475</ele>
        <time>2026-08-04T09:14:35.278Z</time>
      </trkpt>
      <trkpt lat="45.9605" lon="6.85683">
        <ele>2475</ele>
        <time>2026-08-04T09:14:36.278Z</time>
      </trkpt>
      <trkpt lat="45.9605" lon="6.85683">
        <ele>2475</ele>
        <time>2026-08-04T09:14:37.278Z</time>
      </trkpt>
      <trkpt lat="45.9605" lon="6.85683">
        <ele>2475</ele>
        <time>2026-08-04T09:14:38.278Z</time>
      </trkpt>
      <trkpt lat="45.9605" lon="6.85683">
        <ele>2475</ele>
        <time>2026-08-04T09:14:39.279Z</time>
      </trkpt>
      <trkpt lat="45.9605" lon="6.85683">
        <ele>2475</ele>
        <time>2026-08-04T09:14:40.278Z</time>
      </trkpt>
      <trkpt lat="45.9605" lon="6.85683">
        <ele>2475</ele>
        <time>2026-08-04T09:14:41.278Z</time>
      </trkpt>
      <trkpt lat="45.9605" lon="6.85683">
        <ele>2475</ele>
        <time>2026-08-04T09:14:42.278Z</time>
      </trkpt>
      <trkpt lat="45.9605" lon="6.85683">
        <ele>2474</ele>
        <time>2026-08-04T09:14:43.278Z</time>
      </trkpt>
      <trkpt lat="45.9605" lon="6.85683">
        <ele>2474</ele>
        <time>2026-08-04T09:14:44.278Z</time>
      </trkpt>
      <trkpt lat="45.9605" lon="6.85683">
        <ele>2474</ele>
        <time>2026-08-04T09:14:45.278Z</time>
      </trkpt>
      <trkpt lat="45.9605" lon="6.85683">
        <ele>2474</ele>
        <time>2026-08-04T09:14:46.278Z</time>
      </trkpt>
      <trkpt lat="45.9605" lon="6.85683">
        <ele>2474</ele>
        <time>2026-08-04T09:14:47.278Z</time>
      </trkpt>
      <trkpt lat="45.9605" lon="6.85683">
        <ele>2474</ele>
        <time>2026-08-04T09:14:48.278Z</time>
      </trkpt>
      <trkpt lat="45.9605" lon="6.85683">
        <ele>2474</ele>
        <time>2026-08-04T09:14:49.278Z</time>
      </trkpt>
      <trkpt lat="45.9605" lon="6.85683">
        <ele>2474</ele>
        <time>2026-08-04T09:14:50.278Z</time>
      </trkpt>
      <trkpt lat="45.9605" lon="6.85683">
        <ele>2474</ele>
        <time>2026-08-04T09:14:51.278Z</time>
      </trkpt>
      <trkpt lat="45.9605" lon="6.85683">
        <ele>2474</ele>
        <time>2026-08-04T09:14:52.278Z</time>
      </trkpt>
      <trkpt lat="45.9605" lon="6.85683">
        <ele>2474</ele>
        <time>2026-08-04T09:14:53.278Z</time>
      </trkpt>
      <trkpt lat="45.9605" lon="6.85683">
        <ele>2474</ele>
        <time>2026-08-04T09:14:54.278Z</time>
      </trkpt>
      <trkpt lat="45.9605" lon="6.85683">
        <ele>2474</ele>
        <time>2026-08-04T09:14:55.278Z</time>
      </trkpt>
      <trkpt lat="45.9605" lon="6.85683">
        <ele>2474</ele>
        <time>2026-08-04T09:14:56.278Z</time>
      </trkpt>
      <trkpt lat="45.9605" lon="6.85683">
        <ele>2474</ele>
        <time>2026-08-04T09:14:57.278Z</time>
      </trkpt>
      <trkpt lat="45.9605" lon="6.85683">
        <ele>2474</ele>
        <time>2026-08-04T09:14:58.278Z</time>
      </trkpt>
      <trkpt lat="45.9605" lon="6.85683">
        <ele>2474</ele>
        <time>2026-08-04T09:14:59.278Z</time>
      </trkpt>
      <trkpt lat="45.9605" lon="6.85683">
        <ele>2474</ele>
        <time>2026-08-04T09:15:00.278Z</time>
      </trkpt>
      <trkpt lat="45.9605" lon="6.85683">
        <ele>2474</ele>
        <time>2026-08-04T09:15:01.278Z</time>
      </trkpt>
      <trkpt lat="45.9605" lon="6.85683">
        <ele>2474</ele>
        <time>2026-08-04T09:15:02.278Z</time>
      </trkpt>
      <trkpt lat="45.9605" lon="6.85683">
        <ele>2474</ele>
        <time>2026-08-04T09:15:03.278Z</time>
      </trkpt>
      <trkpt lat="45.9605" lon="6.85683">
        <ele>2474</ele>
        <time>2026-08-04T09:15:04.278Z</time>
      </trkpt>
      <trkpt lat="45.9605" lon="6.85683">
        <ele>2474</ele>
        <time>2026-08-04T09:15:05.278Z</time>
      </trkpt>
      <trkpt lat="45.9605" lon="6.85682">
        <ele>2474</ele>
        <time>2026-08-04T09:15:06.278Z</time>
      </trkpt>
      <trkpt lat="45.9605" lon="6.85682">
        <ele>2474</ele>
        <time>2026-08-04T09:15:07.278Z</time>
      </trkpt>
      <trkpt lat="45.9605" lon="6.85682">
        <ele>2474</ele>
        <time>2026-08-04T09:15:08.278Z</time>
      </trkpt>
      <trkpt lat="45.9605" lon="6.85682">
        <ele>2474</ele>
        <time>2026-08-04T09:15:09.278Z</time>
      </trkpt>
      <trkpt lat="45.9605" lon="6.85682">
        <ele>2474</ele>
        <time>2026-08-04T09:15:10.278Z</time>
      </trkpt>
      <trkpt lat="45.9605" lon="6.85682">
        <ele>2474</ele>
        <time>2026-08-04T09:15:11.278Z</time>
      </trkpt>
      <trkpt lat="45.9605" lon="6.85682">
        <ele>2474</ele>
        <time>2026-08-04T09:15:12.278Z</time>
      </trkpt>
      <trkpt lat="45.9605" lon="6.85682">
        <ele>2474</ele>
        <time>2026-08-04T09:15:13.278Z</time>
      </trkpt>
      <trkpt lat="45.9605" lon="6.85682">
        <ele>2474</ele>
        <time>2026-08-04T09:15:14.278Z</time>
      </trkpt>
      <trkpt lat="45.9605" lon="6.85682">
        <ele>2474</ele>
        <time>2026-08-04T09:15:15.278Z</time>
      </trkpt>
      <trkpt lat="45.9605" lon="6.85682">
        <ele>2474</ele>
        <time>2026-08-04T09:15:16.278Z</time>
      </trkpt>
      <trkpt lat="45.9605" lon="6.85682">
        <ele>2474</ele>
        <time>2026-08-04T09:15:17.278Z</time>
      </trkpt>
      <trkpt lat="45.9605" lon="6.85682">
        <ele>2474</ele>
        <time>2026-08-04T09:15:18.278Z</time>
      </trkpt>
      <trkpt lat="45.9605" lon="6.85682">
        <ele>2474</ele>
        <time>2026-08-04T09:15:19.278Z</time>
      </trkpt>
      <trkpt lat="45.9605" lon="6.85682">
        <ele>2474</ele>
        <time>2026-08-04T09:15:20.278Z</time>
      </trkpt>
      <trkpt lat="45.9605" lon="6.85682">
        <ele>2474</ele>
        <time>2026-08-04T09:15:21.278Z</time>
      </trkpt>
      <trkpt lat="45.9605" lon="6.85682">
        <ele>2474</ele>
        <time>2026-08-04T09:15:22.278Z</time>
      </trkpt>
      <trkpt lat="45.9605" lon="6.85682">
        <ele>2474</ele>
        <time>2026-08-04T09:15:23.278Z</time>
      </trkpt>
      <trkpt lat="45.9605" lon="6.85682">
        <ele>2474</ele>
        <time>2026-08-04T09:15:24.278Z</time>
      </trkpt>
      <trkpt lat="45.9605" lon="6.85682">
        <ele>2474</ele>
        <time>2026-08-04T09:15:25.278Z</time>
      </trkpt>
      <trkpt lat="45.9605" lon="6.85683">
        <ele>2474</ele>
        <time>2026-08-04T09:15:26.278Z</time>
      </trkpt>
      <trkpt lat="45.9605" lon="6.85683">
        <ele>2474</ele>
        <time>2026-08-04T09:15:27.278Z</time>
      </trkpt>
      <trkpt lat="45.9605" lon="6.85683">
        <ele>2474</ele>
        <time>2026-08-04T09:15:28.278Z</time>
      </trkpt>
      <trkpt lat="45.9605" lon="6.85683">
        <ele>2474</ele>
        <time>2026-08-04T09:15:29.278Z</time>
      </trkpt>
      <trkpt lat="45.9605" lon="6.85683">
        <ele>2474</ele>
        <time>2026-08-04T09:15:30.278Z</time>
      </trkpt>
      <trkpt lat="45.9605" lon="6.85683">
        <ele>2474</ele>
        <time>2026-08-04T09:15:31.278Z</time>
      </trkpt>
      <trkpt lat="45.9605" lon="6.85683">
        <ele>2474</ele>
        <time>2026-08-04T09:15:32.279Z</time>
      </trkpt>
      <trkpt lat="45.9605" lon="6.85683">
        <ele>2474</ele>
        <time>2026-08-04T09:15:33.278Z</time>
      </trkpt>
      <trkpt lat="45.9605" lon="6.85683">
        <ele>2474</ele>
        <time>2026-08-04T09:15:34.278Z</time>
      </trkpt>
      <trkpt lat="45.96049" lon="6.85683">
        <ele>2474</ele>
        <time>2026-08-04T09:15:35.278Z</time>
      </trkpt>
      <trkpt lat="45.96049" lon="6.85683">
        <ele>2474</ele>
        <time>2026-08-04T09:15:36.278Z</time>
      </trkpt>
      <trkpt lat="45.96049" lon="6.85684">
        <ele>2474</ele>
        <time>2026-08-04T09:15:37.278Z</time>
      </trkpt>
      <trkpt lat="45.96049" lon="6.85684">
        <ele>2474</ele>
        <time>2026-08-04T09:15:38.278Z</time>
      </trkpt>
      <trkpt lat="45.96049" lon="6.85685">
        <ele>2474</ele>
        <time>2026-08-04T09:15:39.278Z</time>
      </trkpt>
      <trkpt lat="45.96049" lon="6.85685">
        <ele>2474</ele>
        <time>2026-08-04T09:15:40.278Z</time>
      </trkpt>
      <trkpt lat="45.96049" lon="6.85686">
        <ele>2474</ele>
        <time>2026-08-04T09:15:41.278Z</time>
      </trkpt>
      <trkpt lat="45.96049" lon="6.85687">
        <ele>2474</ele>
        <time>2026-08-04T09:15:42.278Z</time>
      </trkpt>
      <trkpt lat="45.96048" lon="6.85687">
        <ele>2474</ele>
        <time>2026-08-04T09:15:43.278Z</time>
      </trkpt>
      <trkpt lat="45.96048" lon="6.85689">
        <ele>2474</ele>
        <time>2026-08-04T09:15:44.278Z</time>
      </trkpt>
      <trkpt lat="45.96048" lon="6.85691">
        <ele>2474</ele>
        <time>2026-08-04T09:15:45.278Z</time>
      </trkpt>
      <trkpt lat="45.96048" lon="6.85694">
        <ele>2474</ele>
        <time>2026-08-04T09:15:46.278Z</time>
      </trkpt>
      <trkpt lat="45.96048" lon="6.85696">
        <ele>2474</ele>
        <time>2026-08-04T09:15:47.278Z</time>
      </trkpt>
      <trkpt lat="45.96047" lon="6.85698">
        <ele>2474</ele>
        <time>2026-08-04T09:15:48.278Z</time>
      </trkpt>
      <trkpt lat="45.96046" lon="6.857">
        <ele>2474</ele>
        <time>2026-08-04T09:15:49.278Z</time>
      </trkpt>
      <trkpt lat="45.96046" lon="6.85701">
        <ele>2473</ele>
        <time>2026-08-04T09:15:50.278Z</time>
      </trkpt>
      <trkpt lat="45.96045" lon="6.85703">
        <ele>2473</ele>
        <time>2026-08-04T09:15:51.278Z</time>
      </trkpt>
      <trkpt lat="45.96045" lon="6.85704">
        <ele>2473</ele>
        <time>2026-08-04T09:15:52.278Z</time>
      </trkpt>
      <trkpt lat="45.96045" lon="6.85706">
        <ele>2473</ele>
        <time>2026-08-04T09:15:53.278Z</time>
      </trkpt>
      <trkpt lat="45.96044" lon="6.85707">
        <ele>2473</ele>
        <time>2026-08-04T09:15:54.278Z</time>
      </trkpt>
      <trkpt lat="45.96044" lon="6.85707">
        <ele>2473</ele>
        <time>2026-08-04T09:15:55.278Z</time>
      </trkpt>
      <trkpt lat="45.96044" lon="6.85708">
        <ele>2473</ele>
        <time>2026-08-04T09:15:56.278Z</time>
      </trkpt>
      <trkpt lat="45.96043" lon="6.85709">
        <ele>2473</ele>
        <time>2026-08-04T09:15:57.278Z</time>
      </trkpt>
      <trkpt lat="45.96043" lon="6.85711">
        <ele>2473</ele>
        <time>2026-08-04T09:15:58.278Z</time>
      </trkpt>
      <trkpt lat="45.96043" lon="6.85711">
        <ele>2473</ele>
        <time>2026-08-04T09:15:59.278Z</time>
      </trkpt>
      <trkpt lat="45.96042" lon="6.85712">
        <ele>2473</ele>
        <time>2026-08-04T09:16:00.278Z</time>
      </trkpt>
      <trkpt lat="45.96042" lon="6.85712">
        <ele>2472</ele>
        <time>2026-08-04T09:16:01.278Z</time>
      </trkpt>
      <trkpt lat="45.96041" lon="6.85712">
        <ele>2472</ele>
        <time>2026-08-04T09:16:02.278Z</time>
      </trkpt>
      <trkpt lat="45.96041" lon="6.85712">
        <ele>2472</ele>
        <time>2026-08-04T09:16:03.278Z</time>
      </trkpt>
      <trkpt lat="45.9604" lon="6.85712">
        <ele>2472</ele>
        <time>2026-08-04T09:16:04.278Z</time>
      </trkpt>
      <trkpt lat="45.9604" lon="6.85712">
        <ele>2472</ele>
        <time>2026-08-04T09:16:05.278Z</time>
      </trkpt>
      <trkpt lat="45.9604" lon="6.85712">
        <ele>2472</ele>
        <time>2026-08-04T09:16:06.278Z</time>
      </trkpt>
      <trkpt lat="45.9604" lon="6.85712">
        <ele>2472</ele>
        <time>2026-08-04T09:16:07.278Z</time>
      </trkpt>
      <trkpt lat="45.9604" lon="6.85712">
        <ele>2473</ele>
        <time>2026-08-04T09:16:08.278Z</time>
      </trkpt>
      <trkpt lat="45.9604" lon="6.85712">
        <ele>2473</ele>
        <time>2026-08-04T09:16:09.278Z</time>
      </trkpt>
      <trkpt lat="45.96039" lon="6.85712">
        <ele>2473</ele>
        <time>2026-08-04T09:16:10.278Z</time>
      </trkpt>
      <trkpt lat="45.96039" lon="6.85712">
        <ele>2474</ele>
        <time>2026-08-04T09:16:11.278Z</time>
      </trkpt>
      <trkpt lat="45.96039" lon="6.85712">
        <ele>2474</ele>
        <time>2026-08-04T09:16:12.278Z</time>
      </trkpt>
      <trkpt lat="45.96039" lon="6.85712">
        <ele>2474</ele>
        <time>2026-08-04T09:16:13.278Z</time>
      </trkpt>
      <trkpt lat="45.9604" lon="6.85712">
        <ele>2474</ele>
        <time>2026-08-04T09:16:14.278Z</time>
      </trkpt>
      <trkpt lat="45.9604" lon="6.85712">
        <ele>2475</ele>
        <time>2026-08-04T09:16:15.278Z</time>
      </trkpt>
      <trkpt lat="45.9604" lon="6.85712">
        <ele>2474</ele>
        <time>2026-08-04T09:16:16.278Z</time>
      </trkpt>
      <trkpt lat="45.9604" lon="6.85712">
        <ele>2474</ele>
        <time>2026-08-04T09:16:17.278Z</time>
      </trkpt>
      <trkpt lat="45.9604" lon="6.85712">
        <ele>2474</ele>
        <time>2026-08-04T09:16:18.278Z</time>
      </trkpt>
      <trkpt lat="45.96041" lon="6.85713">
        <ele>2474</ele>
        <time>2026-08-04T09:16:19.278Z</time>
      </trkpt>
      <trkpt lat="45.96041" lon="6.85713">
        <ele>2474</ele>
        <time>2026-08-04T09:16:20.278Z</time>
      </trkpt>
      <trkpt lat="45.9604" lon="6.85714">
        <ele>2474</ele>
        <time>2026-08-04T09:16:21.278Z</time>
      </trkpt>
      <trkpt lat="45.9604" lon="6.85714">
        <ele>2474</ele>
        <time>2026-08-04T09:16:22.278Z</time>
      </trkpt>
      <trkpt lat="45.9604" lon="6.85714">
        <ele>2473</ele>
        <time>2026-08-04T09:16:23.278Z</time>
      </trkpt>
      <trkpt lat="45.9604" lon="6.85715">
        <ele>2473</ele>
        <time>2026-08-04T09:16:24.278Z</time>
      </trkpt>
      <trkpt lat="45.9604" lon="6.85716">
        <ele>2473</ele>
        <time>2026-08-04T09:16:25.279Z</time>
      </trkpt>
      <trkpt lat="45.9604" lon="6.85716">
        <ele>2472</ele>
        <time>2026-08-04T09:16:26.278Z</time>
      </trkpt>
      <trkpt lat="45.9604" lon="6.85716">
        <ele>2472</ele>
        <time>2026-08-04T09:16:27.278Z</time>
      </trkpt>
      <trkpt lat="45.96039" lon="6.85716">
        <ele>2471</ele>
        <time>2026-08-04T09:16:28.278Z</time>
      </trkpt>
      <trkpt lat="45.96039" lon="6.85716">
        <ele>2471</ele>
        <time>2026-08-04T09:16:29.278Z</time>
      </trkpt>
      <trkpt lat="45.96039" lon="6.85716">
        <ele>2471</ele>
        <time>2026-08-04T09:16:30.278Z</time>
      </trkpt>
      <trkpt lat="45.96039" lon="6.85716">
        <ele>2470</ele>
        <time>2026-08-04T09:16:31.278Z</time>
      </trkpt>
      <trkpt lat="45.96039" lon="6.85717">
        <ele>2470</ele>
        <time>2026-08-04T09:16:32.278Z</time>
      </trkpt>
      <trkpt lat="45.96039" lon="6.85717">
        <ele>2470</ele>
        <time>2026-08-04T09:16:33.278Z</time>
      </trkpt>
      <trkpt lat="45.96038" lon="6.85718">
        <ele>2470</ele>
        <time>2026-08-04T09:16:34.278Z</time>
      </trkpt>
      <trkpt lat="45.96037" lon="6.85718">
        <ele>2470</ele>
        <time>2026-08-04T09:16:35.278Z</time>
      </trkpt>
      <trkpt lat="45.96037" lon="6.85718">
        <ele>2469</ele>
        <time>2026-08-04T09:16:36.278Z</time>
      </trkpt>
      <trkpt lat="45.96036" lon="6.85718">
        <ele>2469</ele>
        <time>2026-08-04T09:16:37.278Z</time>
      </trkpt>
      <trkpt lat="45.96036" lon="6.85719">
        <ele>2468</ele>
        <time>2026-08-04T09:16:38.278Z</time>
      </trkpt>
      <trkpt lat="45.96035" lon="6.85719">
        <ele>2468</ele>
        <time>2026-08-04T09:16:39.278Z</time>
      </trkpt>
      <trkpt lat="45.96035" lon="6.85719">
        <ele>2468</ele>
        <time>2026-08-04T09:16:40.278Z</time>
      </trkpt>
      <trkpt lat="45.96035" lon="6.85719">
        <ele>2468</ele>
        <time>2026-08-04T09:16:41.278Z</time>
      </trkpt>
      <trkpt lat="45.96035" lon="6.8572">
        <ele>2467</ele>
        <time>2026-08-04T09:16:42.278Z</time>
      </trkpt>
      <trkpt lat="45.96035" lon="6.8572">
        <ele>2467</ele>
        <time>2026-08-04T09:16:43.278Z</time>
      </trkpt>
      <trkpt lat="45.96034" lon="6.85721">
        <ele>2467</ele>
        <time>2026-08-04T09:16:44.278Z</time>
      </trkpt>
      <trkpt lat="45.96034" lon="6.85721">
        <ele>2466</ele>
        <time>2026-08-04T09:16:45.278Z</time>
      </trkpt>
      <trkpt lat="45.96033" lon="6.85721">
        <ele>2466</ele>
        <time>2026-08-04T09:16:46.278Z</time>
      </trkpt>
      <trkpt lat="45.96033" lon="6.85722">
        <ele>2465</ele>
        <time>2026-08-04T09:16:47.278Z</time>
      </trkpt>
      <trkpt lat="45.96032" lon="6.85723">
        <ele>2465</ele>
        <time>2026-08-04T09:16:48.278Z</time>
      </trkpt>
      <trkpt lat="45.96031" lon="6.85723">
        <ele>2465</ele>
        <time>2026-08-04T09:16:49.278Z</time>
      </trkpt>
      <trkpt lat="45.9603" lon="6.85724">
        <ele>2465</ele>
        <time>2026-08-04T09:16:50.278Z</time>
      </trkpt>
      <trkpt lat="45.96029" lon="6.85724">
        <ele>2464</ele>
        <time>2026-08-04T09:16:51.278Z</time>
      </trkpt>
      <trkpt lat="45.96028" lon="6.85724">
        <ele>2464</ele>
        <time>2026-08-04T09:16:52.278Z</time>
      </trkpt>
      <trkpt lat="45.96027" lon="6.85725">
        <ele>2464</ele>
        <time>2026-08-04T09:16:53.278Z</time>
      </trkpt>
      <trkpt lat="45.96026" lon="6.85725">
        <ele>2464</ele>
        <time>2026-08-04T09:16:54.278Z</time>
      </trkpt>
      <trkpt lat="45.96026" lon="6.85725">
        <ele>2463</ele>
        <time>2026-08-04T09:16:55.278Z</time>
      </trkpt>
      <trkpt lat="45.96025" lon="6.85725">
        <ele>2463</ele>
        <time>2026-08-04T09:16:56.278Z</time>
      </trkpt>
      <trkpt lat="45.96025" lon="6.85725">
        <ele>2463</ele>
        <time>2026-08-04T09:16:57.278Z</time>
      </trkpt>
      <trkpt lat="45.96025" lon="6.85726">
        <ele>2463</ele>
        <time>2026-08-04T09:16:58.278Z</time>
      </trkpt>
      <trkpt lat="45.96025" lon="6.85726">
        <ele>2462</ele>
        <time>2026-08-04T09:16:59.278Z</time>
      </trkpt>
      <trkpt lat="45.96025" lon="6.85726">
        <ele>2462</ele>
        <time>2026-08-04T09:17:00.278Z</time>
      </trkpt>
      <trkpt lat="45.96025" lon="6.85726">
        <ele>2463</ele>
        <time>2026-08-04T09:17:01.278Z</time>
      </trkpt>
      <trkpt lat="45.96025" lon="6.85727">
        <ele>2463</ele>
        <time>2026-08-04T09:17:02.278Z</time>
      </trkpt>
      <trkpt lat="45.96024" lon="6.85728">
        <ele>2463</ele>
        <time>2026-08-04T09:17:03.278Z</time>
      </trkpt>
      <trkpt lat="45.96024" lon="6.85728">
        <ele>2463</ele>
        <time>2026-08-04T09:17:04.278Z</time>
      </trkpt>
      <trkpt lat="45.96023" lon="6.85727">
        <ele>2463</ele>
        <time>2026-08-04T09:17:05.278Z</time>
      </trkpt>
      <trkpt lat="45.96023" lon="6.85727">
        <ele>2463</ele>
        <time>2026-08-04T09:17:06.278Z</time>
      </trkpt>
      <trkpt lat="45.96022" lon="6.85727">
        <ele>2462</ele>
        <time>2026-08-04T09:17:07.278Z</time>
      </trkpt>
      <trkpt lat="45.96021" lon="6.85727">
        <ele>2462</ele>
        <time>2026-08-04T09:17:08.278Z</time>
      </trkpt>
      <trkpt lat="45.9602" lon="6.85727">
        <ele>2462</ele>
        <time>2026-08-04T09:17:09.278Z</time>
      </trkpt>
      <trkpt lat="45.96019" lon="6.85728">
        <ele>2461</ele>
        <time>2026-08-04T09:17:10.278Z</time>
      </trkpt>
      <trkpt lat="45.96018" lon="6.85728">
        <ele>2461</ele>
        <time>2026-08-04T09:17:11.278Z</time>
      </trkpt>
      <trkpt lat="45.96016" lon="6.85728">
        <ele>2461</ele>
        <time>2026-08-04T09:17:12.278Z</time>
      </trkpt>
      <trkpt lat="45.96015" lon="6.85728">
        <ele>2461</ele>
        <time>2026-08-04T09:17:13.278Z</time>
      </trkpt>
      <trkpt lat="45.96013" lon="6.85729">
        <ele>2461</ele>
        <time>2026-08-04T09:17:14.278Z</time>
      </trkpt>
      <trkpt lat="45.96012" lon="6.8573">
        <ele>2461</ele>
        <time>2026-08-04T09:17:15.278Z</time>
      </trkpt>
      <trkpt lat="45.9601" lon="6.85731">
        <ele>2461</ele>
        <time>2026-08-04T09:17:16.278Z</time>
      </trkpt>
      <trkpt lat="45.96009" lon="6.85732">
        <ele>2461</ele>
        <time>2026-08-04T09:17:17.278Z</time>
      </trkpt>
      <trkpt lat="45.96007" lon="6.85733">
        <ele>2461</ele>
        <time>2026-08-04T09:17:18.278Z</time>
      </trkpt>
      <trkpt lat="45.96005" lon="6.85733">
        <ele>2461</ele>
        <time>2026-08-04T09:17:19.278Z</time>
      </trkpt>
      <trkpt lat="45.96003" lon="6.85733">
        <ele>2461</ele>
        <time>2026-08-04T09:17:20.278Z</time>
      </trkpt>
      <trkpt lat="45.96001" lon="6.85733">
        <ele>2461</ele>
        <time>2026-08-04T09:17:21.278Z</time>
      </trkpt>
      <trkpt lat="45.95999" lon="6.85732">
        <ele>2461</ele>
        <time>2026-08-04T09:17:22.278Z</time>
      </trkpt>
      <trkpt lat="45.95998" lon="6.85732">
        <ele>2461</ele>
        <time>2026-08-04T09:17:23.278Z</time>
      </trkpt>
      <trkpt lat="45.95996" lon="6.85732">
        <ele>2461</ele>
        <time>2026-08-04T09:17:24.278Z</time>
      </trkpt>
      <trkpt lat="45.95995" lon="6.85732">
        <ele>2461</ele>
        <time>2026-08-04T09:17:25.278Z</time>
      </trkpt>
      <trkpt lat="45.95994" lon="6.85732">
        <ele>2461</ele>
        <time>2026-08-04T09:17:26.278Z</time>
      </trkpt>
      <trkpt lat="45.95992" lon="6.85732">
        <ele>2461</ele>
        <time>2026-08-04T09:17:27.278Z</time>
      </trkpt>
      <trkpt lat="45.95991" lon="6.85731">
        <ele>2461</ele>
        <time>2026-08-04T09:17:28.278Z</time>
      </trkpt>
      <trkpt lat="45.95991" lon="6.85731">
        <ele>2461</ele>
        <time>2026-08-04T09:17:29.278Z</time>
      </trkpt>
      <trkpt lat="45.9599" lon="6.85731">
        <ele>2461</ele>
        <time>2026-08-04T09:17:30.278Z</time>
      </trkpt>
      <trkpt lat="45.95989" lon="6.85731">
        <ele>2461</ele>
        <time>2026-08-04T09:17:31.278Z</time>
      </trkpt>
      <trkpt lat="45.95988" lon="6.85731">
        <ele>2461</ele>
        <time>2026-08-04T09:17:32.278Z</time>
      </trkpt>
      <trkpt lat="45.95987" lon="6.85731">
        <ele>2462</ele>
        <time>2026-08-04T09:17:33.278Z</time>
      </trkpt>
      <trkpt lat="45.95986" lon="6.8573">
        <ele>2462</ele>
        <time>2026-08-04T09:17:34.278Z</time>
      </trkpt>
      <trkpt lat="45.95986" lon="6.8573">
        <ele>2462</ele>
        <time>2026-08-04T09:17:35.278Z</time>
      </trkpt>
      <trkpt lat="45.95985" lon="6.85729">
        <ele>2462</ele>
        <time>2026-08-04T09:17:36.278Z</time>
      </trkpt>
      <trkpt lat="45.95984" lon="6.85729">
        <ele>2462</ele>
        <time>2026-08-04T09:17:37.278Z</time>
      </trkpt>
      <trkpt lat="45.95984" lon="6.85729">
        <ele>2463</ele>
        <time>2026-08-04T09:17:38.278Z</time>
      </trkpt>
      <trkpt lat="45.95984" lon="6.85729">
        <ele>2463</ele>
        <time>2026-08-04T09:17:39.278Z</time>
      </trkpt>
      <trkpt lat="45.95984" lon="6.85729">
        <ele>2462</ele>
        <time>2026-08-04T09:17:40.278Z</time>
      </trkpt>
      <trkpt lat="45.95984" lon="6.85729">
        <ele>2462</ele>
        <time>2026-08-04T09:17:41.278Z</time>
      </trkpt>
      <trkpt lat="45.95983" lon="6.8573">
        <ele>2462</ele>
        <time>2026-08-04T09:17:42.278Z</time>
      </trkpt>
      <trkpt lat="45.95983" lon="6.8573">
        <ele>2462</ele>
        <time>2026-08-04T09:17:43.278Z</time>
      </trkpt>
      <trkpt lat="45.95982" lon="6.8573">
        <ele>2462</ele>
        <time>2026-08-04T09:17:44.278Z</time>
      </trkpt>
      <trkpt lat="45.9598" lon="6.85731">
        <ele>2461</ele>
        <time>2026-08-04T09:17:45.278Z</time>
      </trkpt>
      <trkpt lat="45.95979" lon="6.85731">
        <ele>2461</ele>
        <time>2026-08-04T09:17:46.278Z</time>
      </trkpt>
      <trkpt lat="45.95978" lon="6.85731">
        <ele>2461</ele>
        <time>2026-08-04T09:17:47.278Z</time>
      </trkpt>
      <trkpt lat="45.95976" lon="6.8573">
        <ele>2461</ele>
        <time>2026-08-04T09:17:48.278Z</time>
      </trkpt>
      <trkpt lat="45.95975" lon="6.85729">
        <ele>2462</ele>
        <time>2026-08-04T09:17:49.278Z</time>
      </trkpt>
      <trkpt lat="45.95974" lon="6.85728">
        <ele>2461</ele>
        <time>2026-08-04T09:17:50.278Z</time>
      </trkpt>
      <trkpt lat="45.95973" lon="6.85728">
        <ele>2461</ele>
        <time>2026-08-04T09:17:51.278Z</time>
      </trkpt>
      <trkpt lat="45.95972" lon="6.85727">
        <ele>2461</ele>
        <time>2026-08-04T09:17:52.278Z</time>
      </trkpt>
      <trkpt lat="45.95971" lon="6.85727">
        <ele>2461</ele>
        <time>2026-08-04T09:17:53.278Z</time>
      </trkpt>
      <trkpt lat="45.9597" lon="6.85727">
        <ele>2461</ele>
        <time>2026-08-04T09:17:54.278Z</time>
      </trkpt>
      <trkpt lat="45.95969" lon="6.85727">
        <ele>2460</ele>
        <time>2026-08-04T09:17:55.278Z</time>
      </trkpt>
      <trkpt lat="45.95968" lon="6.85727">
        <ele>2460</ele>
        <time>2026-08-04T09:17:56.278Z</time>
      </trkpt>
      <trkpt lat="45.95967" lon="6.85727">
        <ele>2460</ele>
        <time>2026-08-04T09:17:57.278Z</time>
      </trkpt>
      <trkpt lat="45.95967" lon="6.85727">
        <ele>2460</ele>
        <time>2026-08-04T09:17:58.278Z</time>
      </trkpt>
      <trkpt lat="45.95966" lon="6.85727">
        <ele>2461</ele>
        <time>2026-08-04T09:17:59.278Z</time>
      </trkpt>
      <trkpt lat="45.95964" lon="6.85727">
        <ele>2461</ele>
        <time>2026-08-04T09:18:00.278Z</time>
      </trkpt>
      <trkpt lat="45.95963" lon="6.85726">
        <ele>2461</ele>
        <time>2026-08-04T09:18:01.278Z</time>
      </trkpt>
      <trkpt lat="45.95961" lon="6.85726">
        <ele>2461</ele>
        <time>2026-08-04T09:18:02.278Z</time>
      </trkpt>
      <trkpt lat="45.95959" lon="6.85726">
        <ele>2461</ele>
        <time>2026-08-04T09:18:03.278Z</time>
      </trkpt>
      <trkpt lat="45.95957" lon="6.85725">
        <ele>2461</ele>
        <time>2026-08-04T09:18:04.278Z</time>
      </trkpt>
      <trkpt lat="45.95955" lon="6.85725">
        <ele>2461</ele>
        <time>2026-08-04T09:18:05.278Z</time>
      </trkpt>
      <trkpt lat="45.95953" lon="6.85724">
        <ele>2462</ele>
        <time>2026-08-04T09:18:06.278Z</time>
      </trkpt>
      <trkpt lat="45.95952" lon="6.85723">
        <ele>2462</ele>
        <time>2026-08-04T09:18:07.278Z</time>
      </trkpt>
      <trkpt lat="45.9595" lon="6.85722">
        <ele>2462</ele>
        <time>2026-08-04T09:18:08.278Z</time>
      </trkpt>
      <trkpt lat="45.95949" lon="6.85722">
        <ele>2463</ele>
        <time>2026-08-04T09:18:09.278Z</time>
      </trkpt>
      <trkpt lat="45.95948" lon="6.85721">
        <ele>2463</ele>
        <time>2026-08-04T09:18:10.278Z</time>
      </trkpt>
      <trkpt lat="45.95947" lon="6.85721">
        <ele>2463</ele>
        <time>2026-08-04T09:18:11.278Z</time>
      </trkpt>
      <trkpt lat="45.95946" lon="6.85721">
        <ele>2464</ele>
        <time>2026-08-04T09:18:12.278Z</time>
      </trkpt>
      <trkpt lat="45.95945" lon="6.85721">
        <ele>2464</ele>
        <time>2026-08-04T09:18:13.278Z</time>
      </trkpt>
      <trkpt lat="45.95944" lon="6.8572">
        <ele>2465</ele>
        <time>2026-08-04T09:18:14.278Z</time>
      </trkpt>
      <trkpt lat="45.95943" lon="6.8572">
        <ele>2465</ele>
        <time>2026-08-04T09:18:15.278Z</time>
      </trkpt>
      <trkpt lat="45.95942" lon="6.85721">
        <ele>2466</ele>
        <time>2026-08-04T09:18:16.278Z</time>
      </trkpt>
      <trkpt lat="45.9594" lon="6.85721">
        <ele>2466</ele>
        <time>2026-08-04T09:18:17.278Z</time>
      </trkpt>
      <trkpt lat="45.95939" lon="6.85721">
        <ele>2466</ele>
        <time>2026-08-04T09:18:18.278Z</time>
      </trkpt>
      <trkpt lat="45.95938" lon="6.85721">
        <ele>2466</ele>
        <time>2026-08-04T09:18:19.278Z</time>
      </trkpt>
      <trkpt lat="45.95937" lon="6.85721">
        <ele>2466</ele>
        <time>2026-08-04T09:18:20.278Z</time>
      </trkpt>
      <trkpt lat="45.95936" lon="6.85721">
        <ele>2466</ele>
        <time>2026-08-04T09:18:21.278Z</time>
      </trkpt>
      <trkpt lat="45.95936" lon="6.85721">
        <ele>2466</ele>
        <time>2026-08-04T09:18:22.278Z</time>
      </trkpt>
      <trkpt lat="45.95935" lon="6.85721">
        <ele>2466</ele>
        <time>2026-08-04T09:18:23.278Z</time>
      </trkpt>
      <trkpt lat="45.95935" lon="6.85721">
        <ele>2466</ele>
        <time>2026-08-04T09:18:24.278Z</time>
      </trkpt>
      <trkpt lat="45.95935" lon="6.85721">
        <ele>2466</ele>
        <time>2026-08-04T09:18:25.278Z</time>
      </trkpt>
      <trkpt lat="45.95934" lon="6.85721">
        <ele>2466</ele>
        <time>2026-08-04T09:18:26.278Z</time>
      </trkpt>
      <trkpt lat="45.95932" lon="6.8572">
        <ele>2466</ele>
        <time>2026-08-04T09:18:27.278Z</time>
      </trkpt>
      <trkpt lat="45.95931" lon="6.8572">
        <ele>2467</ele>
        <time>2026-08-04T09:18:28.278Z</time>
      </trkpt>
      <trkpt lat="45.9593" lon="6.85719">
        <ele>2467</ele>
        <time>2026-08-04T09:18:29.278Z</time>
      </trkpt>
      <trkpt lat="45.95929" lon="6.85719">
        <ele>2467</ele>
        <time>2026-08-04T09:18:30.278Z</time>
      </trkpt>
      <trkpt lat="45.95928" lon="6.85718">
        <ele>2467</ele>
        <time>2026-08-04T09:18:31.278Z</time>
      </trkpt>
      <trkpt lat="45.95927" lon="6.85718">
        <ele>2467</ele>
        <time>2026-08-04T09:18:32.278Z</time>
      </trkpt>
      <trkpt lat="45.95926" lon="6.85717">
        <ele>2468</ele>
        <time>2026-08-04T09:18:33.278Z</time>
      </trkpt>
      <trkpt lat="45.95925" lon="6.85716">
        <ele>2467</ele>
        <time>2026-08-04T09:18:34.278Z</time>
      </trkpt>
      <trkpt lat="45.95925" lon="6.85715">
        <ele>2467</ele>
        <time>2026-08-04T09:18:35.278Z</time>
      </trkpt>
      <trkpt lat="45.95925" lon="6.85715">
        <ele>2467</ele>
        <time>2026-08-04T09:18:36.278Z</time>
      </trkpt>
      <trkpt lat="45.95925" lon="6.85714">
        <ele>2467</ele>
        <time>2026-08-04T09:18:37.278Z</time>
      </trkpt>
      <trkpt lat="45.95925" lon="6.85714">
        <ele>2467</ele>
        <time>2026-08-04T09:18:38.278Z</time>
      </trkpt>
      <trkpt lat="45.95925" lon="6.85712">
        <ele>2467</ele>
        <time>2026-08-04T09:18:39.278Z</time>
      </trkpt>
      <trkpt lat="45.95924" lon="6.85711">
        <ele>2466</ele>
        <time>2026-08-04T09:18:40.278Z</time>
      </trkpt>
      <trkpt lat="45.95923" lon="6.8571">
        <ele>2466</ele>
        <time>2026-08-04T09:18:41.278Z</time>
      </trkpt>
      <trkpt lat="45.95922" lon="6.85709">
        <ele>2467</ele>
        <time>2026-08-04T09:18:42.278Z</time>
      </trkpt>
      <trkpt lat="45.9592" lon="6.85708">
        <ele>2467</ele>
        <time>2026-08-04T09:18:43.278Z</time>
      </trkpt>
      <trkpt lat="45.95919" lon="6.85706">
        <ele>2467</ele>
        <time>2026-08-04T09:18:44.278Z</time>
      </trkpt>
      <trkpt lat="45.95917" lon="6.85704">
        <ele>2467</ele>
        <time>2026-08-04T09:18:45.278Z</time>
      </trkpt>
      <trkpt lat="45.95916" lon="6.85702">
        <ele>2466</ele>
        <time>2026-08-04T09:18:46.278Z</time>
      </trkpt>
      <trkpt lat="45.95914" lon="6.85701">
        <ele>2466</ele>
        <time>2026-08-04T09:18:47.278Z</time>
      </trkpt>
      <trkpt lat="45.95913" lon="6.85699">
        <ele>2466</ele>
        <time>2026-08-04T09:18:48.278Z</time>
      </trkpt>
      <trkpt lat="45.95911" lon="6.85698">
        <ele>2466</ele>
        <time>2026-08-04T09:18:49.278Z</time>
      </trkpt>
      <trkpt lat="45.9591" lon="6.85697">
        <ele>2466</ele>
        <time>2026-08-04T09:18:50.278Z</time>
      </trkpt>
      <trkpt lat="45.95909" lon="6.85697">
        <ele>2466</ele>
        <time>2026-08-04T09:18:51.278Z</time>
      </trkpt>
      <trkpt lat="45.95908" lon="6.85695">
        <ele>2467</ele>
        <time>2026-08-04T09:18:52.278Z</time>
      </trkpt>
      <trkpt lat="45.95907" lon="6.85694">
        <ele>2467</ele>
        <time>2026-08-04T09:18:53.278Z</time>
      </trkpt>
      <trkpt lat="45.95906" lon="6.85693">
        <ele>2467</ele>
        <time>2026-08-04T09:18:54.278Z</time>
      </trkpt>
      <trkpt lat="45.95906" lon="6.85692">
        <ele>2468</ele>
        <time>2026-08-04T09:18:55.278Z</time>
      </trkpt>
      <trkpt lat="45.95905" lon="6.85691">
        <ele>2468</ele>
        <time>2026-08-04T09:18:56.278Z</time>
      </trkpt>
      <trkpt lat="45.95904" lon="6.8569">
        <ele>2468</ele>
        <time>2026-08-04T09:18:57.278Z</time>
      </trkpt>
      <trkpt lat="45.95904" lon="6.85689">
        <ele>2468</ele>
        <time>2026-08-04T09:18:58.278Z</time>
      </trkpt>
      <trkpt lat="45.95904" lon="6.85688">
        <ele>2468</ele>
        <time>2026-08-04T09:18:59.278Z</time>
      </trkpt>
      <trkpt lat="45.95903" lon="6.85686">
        <ele>2468</ele>
        <time>2026-08-04T09:19:00.278Z</time>
      </trkpt>
      <trkpt lat="45.95903" lon="6.85685">
        <ele>2468</ele>
        <time>2026-08-04T09:19:01.278Z</time>
      </trkpt>
      <trkpt lat="45.95902" lon="6.85685">
        <ele>2468</ele>
        <time>2026-08-04T09:19:02.278Z</time>
      </trkpt>
      <trkpt lat="45.95901" lon="6.85684">
        <ele>2467</ele>
        <time>2026-08-04T09:19:03.278Z</time>
      </trkpt>
      <trkpt lat="45.95901" lon="6.85684">
        <ele>2467</ele>
        <time>2026-08-04T09:19:04.278Z</time>
      </trkpt>
      <trkpt lat="45.959" lon="6.85683">
        <ele>2466</ele>
        <time>2026-08-04T09:19:05.278Z</time>
      </trkpt>
      <trkpt lat="45.95899" lon="6.85682">
        <ele>2466</ele>
        <time>2026-08-04T09:19:06.278Z</time>
      </trkpt>
      <trkpt lat="45.95899" lon="6.85681">
        <ele>2466</ele>
        <time>2026-08-04T09:19:07.278Z</time>
      </trkpt>
      <trkpt lat="45.95898" lon="6.8568">
        <ele>2465</ele>
        <time>2026-08-04T09:19:08.278Z</time>
      </trkpt>
      <trkpt lat="45.95898" lon="6.8568">
        <ele>2465</ele>
        <time>2026-08-04T09:19:09.278Z</time>
      </trkpt>
      <trkpt lat="45.95897" lon="6.85679">
        <ele>2465</ele>
        <time>2026-08-04T09:19:10.278Z</time>
      </trkpt>
      <trkpt lat="45.95897" lon="6.85678">
        <ele>2465</ele>
        <time>2026-08-04T09:19:11.278Z</time>
      </trkpt>
      <trkpt lat="45.95897" lon="6.85677">
        <ele>2464</ele>
        <time>2026-08-04T09:19:12.278Z</time>
      </trkpt>
      <trkpt lat="45.95896" lon="6.85676">
        <ele>2464</ele>
        <time>2026-08-04T09:19:13.278Z</time>
      </trkpt>
      <trkpt lat="45.95896" lon="6.85676">
        <ele>2464</ele>
        <time>2026-08-04T09:19:14.278Z</time>
      </trkpt>
      <trkpt lat="45.95896" lon="6.85675">
        <ele>2463</ele>
        <time>2026-08-04T09:19:15.278Z</time>
      </trkpt>
      <trkpt lat="45.95895" lon="6.85674">
        <ele>2463</ele>
        <time>2026-08-04T09:19:16.278Z</time>
      </trkpt>
      <trkpt lat="45.95895" lon="6.85673">
        <ele>2462</ele>
        <time>2026-08-04T09:19:17.278Z</time>
      </trkpt>
      <trkpt lat="45.95895" lon="6.85672">
        <ele>2462</ele>
        <time>2026-08-04T09:19:18.278Z</time>
      </trkpt>
      <trkpt lat="45.95894" lon="6.8567">
        <ele>2462</ele>
        <time>2026-08-04T09:19:19.278Z</time>
      </trkpt>
      <trkpt lat="45.95894" lon="6.85669">
        <ele>2462</ele>
        <time>2026-08-04T09:19:20.278Z</time>
      </trkpt>
      <trkpt lat="45.95894" lon="6.85669">
        <ele>2462</ele>
        <time>2026-08-04T09:19:21.278Z</time>
      </trkpt>
      <trkpt lat="45.95893" lon="6.85668">
        <ele>2462</ele>
        <time>2026-08-04T09:19:22.278Z</time>
      </trkpt>
      <trkpt lat="45.95893" lon="6.85668">
        <ele>2462</ele>
        <time>2026-08-04T09:19:23.278Z</time>
      </trkpt>
      <trkpt lat="45.95893" lon="6.85667">
        <ele>2461</ele>
        <time>2026-08-04T09:19:24.278Z</time>
      </trkpt>
      <trkpt lat="45.95894" lon="6.85667">
        <ele>2461</ele>
        <time>2026-08-04T09:19:25.278Z</time>
      </trkpt>
      <trkpt lat="45.95894" lon="6.85667">
        <ele>2461</ele>
        <time>2026-08-04T09:19:26.278Z</time>
      </trkpt>
      <trkpt lat="45.95894" lon="6.85668">
        <ele>2461</ele>
        <time>2026-08-04T09:19:27.278Z</time>
      </trkpt>
      <trkpt lat="45.95894" lon="6.85668">
        <ele>2461</ele>
        <time>2026-08-04T09:19:28.278Z</time>
      </trkpt>
      <trkpt lat="45.95894" lon="6.85669">
        <ele>2461</ele>
        <time>2026-08-04T09:19:29.278Z</time>
      </trkpt>
      <trkpt lat="45.95894" lon="6.85669">
        <ele>2461</ele>
        <time>2026-08-04T09:19:30.278Z</time>
      </trkpt>
      <trkpt lat="45.95893" lon="6.85669">
        <ele>2461</ele>
        <time>2026-08-04T09:19:31.278Z</time>
      </trkpt>
      <trkpt lat="45.95893" lon="6.85669">
        <ele>2461</ele>
        <time>2026-08-04T09:19:32.278Z</time>
      </trkpt>
      <trkpt lat="45.95892" lon="6.85669">
        <ele>2461</ele>
        <time>2026-08-04T09:19:33.278Z</time>
      </trkpt>
      <trkpt lat="45.95892" lon="6.85669">
        <ele>2461</ele>
        <time>2026-08-04T09:19:34.278Z</time>
      </trkpt>
      <trkpt lat="45.95891" lon="6.85668">
        <ele>2462</ele>
        <time>2026-08-04T09:19:35.278Z</time>
      </trkpt>
      <trkpt lat="45.9589" lon="6.85667">
        <ele>2462</ele>
        <time>2026-08-04T09:19:36.278Z</time>
      </trkpt>
      <trkpt lat="45.9589" lon="6.85666">
        <ele>2462</ele>
        <time>2026-08-04T09:19:37.278Z</time>
      </trkpt>
      <trkpt lat="45.95889" lon="6.85665">
        <ele>2463</ele>
        <time>2026-08-04T09:19:38.278Z</time>
      </trkpt>
      <trkpt lat="45.95889" lon="6.85664">
        <ele>2463</ele>
        <time>2026-08-04T09:19:39.278Z</time>
      </trkpt>
      <trkpt lat="45.95889" lon="6.85663">
        <ele>2463</ele>
        <time>2026-08-04T09:19:40.278Z</time>
      </trkpt>
      <trkpt lat="45.95888" lon="6.85662">
        <ele>2462</ele>
        <time>2026-08-04T09:19:41.278Z</time>
      </trkpt>
      <trkpt lat="45.95888" lon="6.85662">
        <ele>2462</ele>
        <time>2026-08-04T09:19:42.278Z</time>
      </trkpt>
      <trkpt lat="45.95887" lon="6.85661">
        <ele>2461</ele>
        <time>2026-08-04T09:19:43.278Z</time>
      </trkpt>
      <trkpt lat="45.95887" lon="6.85661">
        <ele>2461</ele>
        <time>2026-08-04T09:19:44.278Z</time>
      </trkpt>
      <trkpt lat="45.95887" lon="6.8566">
        <ele>2461</ele>
        <time>2026-08-04T09:19:45.278Z</time>
      </trkpt>
      <trkpt lat="45.95886" lon="6.85659">
        <ele>2461</ele>
        <time>2026-08-04T09:19:46.278Z</time>
      </trkpt>
      <trkpt lat="45.95886" lon="6.85659">
        <ele>2461</ele>
        <time>2026-08-04T09:19:47.278Z</time>
      </trkpt>
      <trkpt lat="45.95885" lon="6.85658">
        <ele>2461</ele>
        <time>2026-08-04T09:19:48.278Z</time>
      </trkpt>
      <trkpt lat="45.95885" lon="6.85658">
        <ele>2460</ele>
        <time>2026-08-04T09:19:49.278Z</time>
      </trkpt>
      <trkpt lat="45.95884" lon="6.85657">
        <ele>2460</ele>
        <time>2026-08-04T09:19:50.278Z</time>
      </trkpt>
      <trkpt lat="45.95884" lon="6.85657">
        <ele>2460</ele>
        <time>2026-08-04T09:19:51.278Z</time>
      </trkpt>
      <trkpt lat="45.95883" lon="6.85656">
        <ele>2460</ele>
        <time>2026-08-04T09:19:52.278Z</time>
      </trkpt>
      <trkpt lat="45.95883" lon="6.85655">
        <ele>2460</ele>
        <time>2026-08-04T09:19:53.278Z</time>
      </trkpt>
      <trkpt lat="45.95882" lon="6.85655">
        <ele>2460</ele>
        <time>2026-08-04T09:19:54.278Z</time>
      </trkpt>
      <trkpt lat="45.95882" lon="6.85654">
        <ele>2460</ele>
        <time>2026-08-04T09:19:55.278Z</time>
      </trkpt>
      <trkpt lat="45.95881" lon="6.85654">
        <ele>2460</ele>
        <time>2026-08-04T09:19:56.278Z</time>
      </trkpt>
      <trkpt lat="45.95881" lon="6.85653">
        <ele>2460</ele>
        <time>2026-08-04T09:19:57.278Z</time>
      </trkpt>
      <trkpt lat="45.9588" lon="6.85652">
        <ele>2460</ele>
        <time>2026-08-04T09:19:58.278Z</time>
      </trkpt>
      <trkpt lat="45.95879" lon="6.85651">
        <ele>2459</ele>
        <time>2026-08-04T09:19:59.278Z</time>
      </trkpt>
      <trkpt lat="45.95879" lon="6.85651">
        <ele>2459</ele>
        <time>2026-08-04T09:20:00.278Z</time>
      </trkpt>
      <trkpt lat="45.95879" lon="6.8565">
        <ele>2459</ele>
        <time>2026-08-04T09:20:01.278Z</time>
      </trkpt>
      <trkpt lat="45.95879" lon="6.85649">
        <ele>2459</ele>
        <time>2026-08-04T09:20:02.278Z</time>
      </trkpt>
      <trkpt lat="45.95878" lon="6.85648">
        <ele>2459</ele>
        <time>2026-08-04T09:20:03.278Z</time>
      </trkpt>
      <trkpt lat="45.95878" lon="6.85647">
        <ele>2459</ele>
        <time>2026-08-04T09:20:04.278Z</time>
      </trkpt>
      <trkpt lat="45.95877" lon="6.85646">
        <ele>2459</ele>
        <time>2026-08-04T09:20:05.278Z</time>
      </trkpt>
      <trkpt lat="45.95877" lon="6.85646">
        <ele>2458</ele>
        <time>2026-08-04T09:20:06.278Z</time>
      </trkpt>
      <trkpt lat="45.95876" lon="6.85645">
        <ele>2458</ele>
        <time>2026-08-04T09:20:07.278Z</time>
      </trkpt>
      <trkpt lat="45.95875" lon="6.85644">
        <ele>2458</ele>
        <time>2026-08-04T09:20:08.278Z</time>
      </trkpt>
      <trkpt lat="45.95875" lon="6.85644">
        <ele>2458</ele>
        <time>2026-08-04T09:20:09.278Z</time>
      </trkpt>
      <trkpt lat="45.95874" lon="6.85644">
        <ele>2458</ele>
        <time>2026-08-04T09:20:10.278Z</time>
      </trkpt>
      <trkpt lat="45.95874" lon="6.85643">
        <ele>2457</ele>
        <time>2026-08-04T09:20:11.278Z</time>
      </trkpt>
      <trkpt lat="45.95873" lon="6.85643">
        <ele>2457</ele>
        <time>2026-08-04T09:20:12.278Z</time>
      </trkpt>
      <trkpt lat="45.95872" lon="6.85642">
        <ele>2457</ele>
        <time>2026-08-04T09:20:13.278Z</time>
      </trkpt>
      <trkpt lat="45.95871" lon="6.85641">
        <ele>2457</ele>
        <time>2026-08-04T09:20:14.278Z</time>
      </trkpt>
      <trkpt lat="45.9587" lon="6.8564">
        <ele>2458</ele>
        <time>2026-08-04T09:20:15.278Z</time>
      </trkpt>
      <trkpt lat="45.95869" lon="6.85639">
        <ele>2458</ele>
        <time>2026-08-04T09:20:16.278Z</time>
      </trkpt>
      <trkpt lat="45.95869" lon="6.85638">
        <ele>2457</ele>
        <time>2026-08-04T09:20:17.278Z</time>
      </trkpt>
      <trkpt lat="45.95868" lon="6.85636">
        <ele>2457</ele>
        <time>2026-08-04T09:20:18.278Z</time>
      </trkpt>
      <trkpt lat="45.95868" lon="6.85635">
        <ele>2457</ele>
        <time>2026-08-04T09:20:19.278Z</time>
      </trkpt>
      <trkpt lat="45.95867" lon="6.85634">
        <ele>2457</ele>
        <time>2026-08-04T09:20:20.278Z</time>
      </trkpt>
      <trkpt lat="45.95866" lon="6.85634">
        <ele>2457</ele>
        <time>2026-08-04T09:20:21.278Z</time>
      </trkpt>
      <trkpt lat="45.95865" lon="6.85633">
        <ele>2457</ele>
        <time>2026-08-04T09:20:22.278Z</time>
      </trkpt>
      <trkpt lat="45.95864" lon="6.85632">
        <ele>2457</ele>
        <time>2026-08-04T09:20:23.278Z</time>
      </trkpt>
      <trkpt lat="45.95862" lon="6.85631">
        <ele>2457</ele>
        <time>2026-08-04T09:20:24.278Z</time>
      </trkpt>
      <trkpt lat="45.95862" lon="6.8563">
        <ele>2456</ele>
        <time>2026-08-04T09:20:25.278Z</time>
      </trkpt>
      <trkpt lat="45.95861" lon="6.85629">
        <ele>2456</ele>
        <time>2026-08-04T09:20:26.278Z</time>
      </trkpt>
      <trkpt lat="45.95861" lon="6.85628">
        <ele>2455</ele>
        <time>2026-08-04T09:20:27.278Z</time>
      </trkpt>
      <trkpt lat="45.9586" lon="6.85627">
        <ele>2455</ele>
        <time>2026-08-04T09:20:28.278Z</time>
      </trkpt>
      <trkpt lat="45.9586" lon="6.85627">
        <ele>2454</ele>
        <time>2026-08-04T09:20:29.278Z</time>
      </trkpt>
      <trkpt lat="45.9586" lon="6.85626">
        <ele>2454</ele>
        <time>2026-08-04T09:20:30.278Z</time>
      </trkpt>
      <trkpt lat="45.95859" lon="6.85625">
        <ele>2454</ele>
        <time>2026-08-04T09:20:31.278Z</time>
      </trkpt>
      <trkpt lat="45.95859" lon="6.85624">
        <ele>2454</ele>
        <time>2026-08-04T09:20:32.278Z</time>
      </trkpt>
      <trkpt lat="45.95858" lon="6.85623">
        <ele>2454</ele>
        <time>2026-08-04T09:20:33.278Z</time>
      </trkpt>
      <trkpt lat="45.95858" lon="6.85621">
        <ele>2453</ele>
        <time>2026-08-04T09:20:34.278Z</time>
      </trkpt>
      <trkpt lat="45.95857" lon="6.85621">
        <ele>2453</ele>
        <time>2026-08-04T09:20:35.278Z</time>
      </trkpt>
      <trkpt lat="45.95857" lon="6.8562">
        <ele>2453</ele>
        <time>2026-08-04T09:20:36.278Z</time>
      </trkpt>
      <trkpt lat="45.95857" lon="6.85619">
        <ele>2452</ele>
        <time>2026-08-04T09:20:37.278Z</time>
      </trkpt>
      <trkpt lat="45.95856" lon="6.85618">
        <ele>2452</ele>
        <time>2026-08-04T09:20:38.278Z</time>
      </trkpt>
      <trkpt lat="45.95855" lon="6.85617">
        <ele>2452</ele>
        <time>2026-08-04T09:20:39.278Z</time>
      </trkpt>
      <trkpt lat="45.95855" lon="6.85616">
        <ele>2452</ele>
        <time>2026-08-04T09:20:40.278Z</time>
      </trkpt>
      <trkpt lat="45.95854" lon="6.85616">
        <ele>2452</ele>
        <time>2026-08-04T09:20:41.278Z</time>
      </trkpt>
      <trkpt lat="45.95854" lon="6.85615">
        <ele>2451</ele>
        <time>2026-08-04T09:20:42.278Z</time>
      </trkpt>
      <trkpt lat="45.95853" lon="6.85614">
        <ele>2451</ele>
        <time>2026-08-04T09:20:43.278Z</time>
      </trkpt>
      <trkpt lat="45.95853" lon="6.85614">
        <ele>2450</ele>
        <time>2026-08-04T09:20:44.278Z</time>
      </trkpt>
      <trkpt lat="45.95852" lon="6.85613">
        <ele>2450</ele>
        <time>2026-08-04T09:20:45.278Z</time>
      </trkpt>
      <trkpt lat="45.95852" lon="6.85613">
        <ele>2450</ele>
        <time>2026-08-04T09:20:46.278Z</time>
      </trkpt>
      <trkpt lat="45.95852" lon="6.85613">
        <ele>2450</ele>
        <time>2026-08-04T09:20:47.278Z</time>
      </trkpt>
      <trkpt lat="45.95852" lon="6.85613">
        <ele>2450</ele>
        <time>2026-08-04T09:20:48.278Z</time>
      </trkpt>
      <trkpt lat="45.95851" lon="6.85612">
        <ele>2451</ele>
        <time>2026-08-04T09:20:49.278Z</time>
      </trkpt>
      <trkpt lat="45.9585" lon="6.85612">
        <ele>2451</ele>
        <time>2026-08-04T09:20:50.278Z</time>
      </trkpt>
      <trkpt lat="45.9585" lon="6.85612">
        <ele>2451</ele>
        <time>2026-08-04T09:20:51.278Z</time>
      </trkpt>
      <trkpt lat="45.95849" lon="6.85612">
        <ele>2451</ele>
        <time>2026-08-04T09:20:52.278Z</time>
      </trkpt>
      <trkpt lat="45.95849" lon="6.85612">
        <ele>2451</ele>
        <time>2026-08-04T09:20:53.278Z</time>
      </trkpt>
      <trkpt lat="45.95848" lon="6.85611">
        <ele>2452</ele>
        <time>2026-08-04T09:20:54.278Z</time>
      </trkpt>
      <trkpt lat="45.95848" lon="6.8561">
        <ele>2452</ele>
        <time>2026-08-04T09:20:55.278Z</time>
      </trkpt>
      <trkpt lat="45.95847" lon="6.85609">
        <ele>2453</ele>
        <time>2026-08-04T09:20:56.278Z</time>
      </trkpt>
      <trkpt lat="45.95846" lon="6.85608">
        <ele>2454</ele>
        <time>2026-08-04T09:20:57.278Z</time>
      </trkpt>
      <trkpt lat="45.95846" lon="6.85607">
        <ele>2454</ele>
        <time>2026-08-04T09:20:58.278Z</time>
      </trkpt>
      <trkpt lat="45.95845" lon="6.85607">
        <ele>2454</ele>
        <time>2026-08-04T09:20:59.278Z</time>
      </trkpt>
      <trkpt lat="45.95845" lon="6.85606">
        <ele>2455</ele>
        <time>2026-08-04T09:21:00.278Z</time>
      </trkpt>
      <trkpt lat="45.95844" lon="6.85606">
        <ele>2455</ele>
        <time>2026-08-04T09:21:01.278Z</time>
      </trkpt>
      <trkpt lat="45.95843" lon="6.85606">
        <ele>2455</ele>
        <time>2026-08-04T09:21:02.278Z</time>
      </trkpt>
      <trkpt lat="45.95842" lon="6.85605">
        <ele>2455</ele>
        <time>2026-08-04T09:21:03.278Z</time>
      </trkpt>
      <trkpt lat="45.95842" lon="6.85605">
        <ele>2455</ele>
        <time>2026-08-04T09:21:04.278Z</time>
      </trkpt>
      <trkpt lat="45.95841" lon="6.85604">
        <ele>2455</ele>
        <time>2026-08-04T09:21:05.278Z</time>
      </trkpt>
      <trkpt lat="45.95841" lon="6.85604">
        <ele>2455</ele>
        <time>2026-08-04T09:21:06.278Z</time>
      </trkpt>
      <trkpt lat="45.9584" lon="6.85603">
        <ele>2454</ele>
        <time>2026-08-04T09:21:07.278Z</time>
      </trkpt>
      <trkpt lat="45.9584" lon="6.85602">
        <ele>2454</ele>
        <time>2026-08-04T09:21:08.278Z</time>
      </trkpt>
      <trkpt lat="45.9584" lon="6.85602">
        <ele>2453</ele>
        <time>2026-08-04T09:21:09.278Z</time>
      </trkpt>
      <trkpt lat="45.9584" lon="6.85601">
        <ele>2452</ele>
        <time>2026-08-04T09:21:10.278Z</time>
      </trkpt>
      <trkpt lat="45.95839" lon="6.85601">
        <ele>2452</ele>
        <time>2026-08-04T09:21:11.278Z</time>
      </trkpt>
      <trkpt lat="45.95839" lon="6.856">
        <ele>2451</ele>
        <time>2026-08-04T09:21:12.278Z</time>
      </trkpt>
      <trkpt lat="45.95839" lon="6.85599">
        <ele>2451</ele>
        <time>2026-08-04T09:21:13.278Z</time>
      </trkpt>
      <trkpt lat="45.95838" lon="6.85598">
        <ele>2450</ele>
        <time>2026-08-04T09:21:14.278Z</time>
      </trkpt>
      <trkpt lat="45.95838" lon="6.85598">
        <ele>2449</ele>
        <time>2026-08-04T09:21:15.278Z</time>
      </trkpt>
      <trkpt lat="45.95837" lon="6.85597">
        <ele>2448</ele>
        <time>2026-08-04T09:21:16.278Z</time>
      </trkpt>
      <trkpt lat="45.95836" lon="6.85596">
        <ele>2448</ele>
        <time>2026-08-04T09:21:17.278Z</time>
      </trkpt>
      <trkpt lat="45.95836" lon="6.85596">
        <ele>2447</ele>
        <time>2026-08-04T09:21:18.278Z</time>
      </trkpt>
      <trkpt lat="45.95835" lon="6.85596">
        <ele>2447</ele>
        <time>2026-08-04T09:21:19.278Z</time>
      </trkpt>
      <trkpt lat="45.95835" lon="6.85595">
        <ele>2447</ele>
        <time>2026-08-04T09:21:20.278Z</time>
      </trkpt>
      <trkpt lat="45.95834" lon="6.85595">
        <ele>2447</ele>
        <time>2026-08-04T09:21:21.278Z</time>
      </trkpt>
      <trkpt lat="45.95834" lon="6.85594">
        <ele>2447</ele>
        <time>2026-08-04T09:21:22.278Z</time>
      </trkpt>
      <trkpt lat="45.95833" lon="6.85594">
        <ele>2447</ele>
        <time>2026-08-04T09:21:23.278Z</time>
      </trkpt>
      <trkpt lat="45.95832" lon="6.85593">
        <ele>2447</ele>
        <time>2026-08-04T09:21:24.278Z</time>
      </trkpt>
      <trkpt lat="45.95831" lon="6.85593">
        <ele>2447</ele>
        <time>2026-08-04T09:21:25.278Z</time>
      </trkpt>
      <trkpt lat="45.9583" lon="6.85592">
        <ele>2447</ele>
        <time>2026-08-04T09:21:26.278Z</time>
      </trkpt>
      <trkpt lat="45.95829" lon="6.85592">
        <ele>2447</ele>
        <time>2026-08-04T09:21:27.278Z</time>
      </trkpt>
      <trkpt lat="45.95828" lon="6.85591">
        <ele>2447</ele>
        <time>2026-08-04T09:21:28.278Z</time>
      </trkpt>
      <trkpt lat="45.95827" lon="6.8559">
        <ele>2447</ele>
        <time>2026-08-04T09:21:29.278Z</time>
      </trkpt>
      <trkpt lat="45.95826" lon="6.85588">
        <ele>2447</ele>
        <time>2026-08-04T09:21:30.278Z</time>
      </trkpt>
      <trkpt lat="45.95826" lon="6.85587">
        <ele>2448</ele>
        <time>2026-08-04T09:21:31.278Z</time>
      </trkpt>
      <trkpt lat="45.95825" lon="6.85586">
        <ele>2447</ele>
        <time>2026-08-04T09:21:32.278Z</time>
      </trkpt>
      <trkpt lat="45.95825" lon="6.85585">
        <ele>2447</ele>
        <time>2026-08-04T09:21:33.278Z</time>
      </trkpt>
      <trkpt lat="45.95824" lon="6.85583">
        <ele>2447</ele>
        <time>2026-08-04T09:21:34.278Z</time>
      </trkpt>
      <trkpt lat="45.95824" lon="6.85582">
        <ele>2447</ele>
        <time>2026-08-04T09:21:35.278Z</time>
      </trkpt>
      <trkpt lat="45.95823" lon="6.85581">
        <ele>2447</ele>
        <time>2026-08-04T09:21:36.278Z</time>
      </trkpt>
      <trkpt lat="45.95822" lon="6.8558">
        <ele>2447</ele>
        <time>2026-08-04T09:21:37.278Z</time>
      </trkpt>
      <trkpt lat="45.95822" lon="6.85579">
        <ele>2447</ele>
        <time>2026-08-04T09:21:38.278Z</time>
      </trkpt>
      <trkpt lat="45.95821" lon="6.85578">
        <ele>2447</ele>
        <time>2026-08-04T09:21:39.278Z</time>
      </trkpt>
      <trkpt lat="45.95821" lon="6.85577">
        <ele>2447</ele>
        <time>2026-08-04T09:21:40.278Z</time>
      </trkpt>
      <trkpt lat="45.9582" lon="6.85576">
        <ele>2448</ele>
        <time>2026-08-04T09:21:41.278Z</time>
      </trkpt>
      <trkpt lat="45.95819" lon="6.85575">
        <ele>2448</ele>
        <time>2026-08-04T09:21:42.278Z</time>
      </trkpt>
      <trkpt lat="45.95818" lon="6.85575">
        <ele>2448</ele>
        <time>2026-08-04T09:21:43.278Z</time>
      </trkpt>
      <trkpt lat="45.95817" lon="6.85574">
        <ele>2448</ele>
        <time>2026-08-04T09:21:44.278Z</time>
      </trkpt>
      <trkpt lat="45.95817" lon="6.85573">
        <ele>2448</ele>
        <time>2026-08-04T09:21:45.278Z</time>
      </trkpt>
      <trkpt lat="45.95816" lon="6.85573">
        <ele>2448</ele>
        <time>2026-08-04T09:21:46.278Z</time>
      </trkpt>
      <trkpt lat="45.95815" lon="6.85572">
        <ele>2448</ele>
        <time>2026-08-04T09:21:47.278Z</time>
      </trkpt>
      <trkpt lat="45.95813" lon="6.85572">
        <ele>2448</ele>
        <time>2026-08-04T09:21:48.278Z</time>
      </trkpt>
      <trkpt lat="45.95812" lon="6.85571">
        <ele>2448</ele>
        <time>2026-08-04T09:21:49.278Z</time>
      </trkpt>
      <trkpt lat="45.95811" lon="6.85571">
        <ele>2448</ele>
        <time>2026-08-04T09:21:50.278Z</time>
      </trkpt>
      <trkpt lat="45.9581" lon="6.85571">
        <ele>2449</ele>
        <time>2026-08-04T09:21:51.278Z</time>
      </trkpt>
      <trkpt lat="45.95809" lon="6.85571">
        <ele>2449</ele>
        <time>2026-08-04T09:21:52.278Z</time>
      </trkpt>
      <trkpt lat="45.95808" lon="6.85571">
        <ele>2449</ele>
        <time>2026-08-04T09:21:53.278Z</time>
      </trkpt>
      <trkpt lat="45.95807" lon="6.85571">
        <ele>2449</ele>
        <time>2026-08-04T09:21:54.278Z</time>
      </trkpt>
      <trkpt lat="45.95807" lon="6.85571">
        <ele>2449</ele>
        <time>2026-08-04T09:21:55.278Z</time>
      </trkpt>
      <trkpt lat="45.95806" lon="6.85571">
        <ele>2450</ele>
        <time>2026-08-04T09:21:56.278Z</time>
      </trkpt>
      <trkpt lat="45.95805" lon="6.85571">
        <ele>2450</ele>
        <time>2026-08-04T09:21:57.278Z</time>
      </trkpt>
      <trkpt lat="45.95804" lon="6.85571">
        <ele>2451</ele>
        <time>2026-08-04T09:21:58.278Z</time>
      </trkpt>
      <trkpt lat="45.95803" lon="6.8557">
        <ele>2451</ele>
        <time>2026-08-04T09:21:59.278Z</time>
      </trkpt>
      <trkpt lat="45.95802" lon="6.8557">
        <ele>2451</ele>
        <time>2026-08-04T09:22:00.278Z</time>
      </trkpt>
      <trkpt lat="45.95801" lon="6.8557">
        <ele>2451</ele>
        <time>2026-08-04T09:22:01.278Z</time>
      </trkpt>
      <trkpt lat="45.958" lon="6.8557">
        <ele>2451</ele>
        <time>2026-08-04T09:22:02.278Z</time>
      </trkpt>
      <trkpt lat="45.958" lon="6.8557">
        <ele>2452</ele>
        <time>2026-08-04T09:22:03.278Z</time>
      </trkpt>
      <trkpt lat="45.95799" lon="6.85569">
        <ele>2452</ele>
        <time>2026-08-04T09:22:04.278Z</time>
      </trkpt>
      <trkpt lat="45.95798" lon="6.85569">
        <ele>2452</ele>
        <time>2026-08-04T09:22:05.278Z</time>
      </trkpt>
      <trkpt lat="45.95798" lon="6.85569">
        <ele>2452</ele>
        <time>2026-08-04T09:22:06.278Z</time>
      </trkpt>
      <trkpt lat="45.95798" lon="6.85569">
        <ele>2452</ele>
        <time>2026-08-04T09:22:07.278Z</time>
      </trkpt>
      <trkpt lat="45.95799" lon="6.85569">
        <ele>2451</ele>
        <time>2026-08-04T09:22:08.278Z</time>
      </trkpt>
      <trkpt lat="45.958" lon="6.85569">
        <ele>2451</ele>
        <time>2026-08-04T09:22:09.278Z</time>
      </trkpt>
      <trkpt lat="45.95801" lon="6.85569">
        <ele>2451</ele>
        <time>2026-08-04T09:22:10.278Z</time>
      </trkpt>
      <trkpt lat="45.95801" lon="6.85569">
        <ele>2451</ele>
        <time>2026-08-04T09:22:11.278Z</time>
      </trkpt>
      <trkpt lat="45.95802" lon="6.85569">
        <ele>2450</ele>
        <time>2026-08-04T09:22:12.278Z</time>
      </trkpt>
      <trkpt lat="45.95803" lon="6.85569">
        <ele>2450</ele>
        <time>2026-08-04T09:22:13.278Z</time>
      </trkpt>
      <trkpt lat="45.95803" lon="6.85569">
        <ele>2450</ele>
        <time>2026-08-04T09:22:14.278Z</time>
      </trkpt>
      <trkpt lat="45.95803" lon="6.85568">
        <ele>2449</ele>
        <time>2026-08-04T09:22:15.278Z</time>
      </trkpt>
      <trkpt lat="45.95803" lon="6.85567">
        <ele>2449</ele>
        <time>2026-08-04T09:22:16.278Z</time>
      </trkpt>
      <trkpt lat="45.95802" lon="6.85566">
        <ele>2449</ele>
        <time>2026-08-04T09:22:17.278Z</time>
      </trkpt>
      <trkpt lat="45.95803" lon="6.85566">
        <ele>2449</ele>
        <time>2026-08-04T09:22:18.278Z</time>
      </trkpt>
      <trkpt lat="45.95803" lon="6.85565">
        <ele>2449</ele>
        <time>2026-08-04T09:22:19.278Z</time>
      </trkpt>
      <trkpt lat="45.95804" lon="6.85565">
        <ele>2448</ele>
        <time>2026-08-04T09:22:20.278Z</time>
      </trkpt>
      <trkpt lat="45.95805" lon="6.85565">
        <ele>2447</ele>
        <time>2026-08-04T09:22:21.278Z</time>
      </trkpt>
      <trkpt lat="45.95806" lon="6.85565">
        <ele>2447</ele>
        <time>2026-08-04T09:22:22.278Z</time>
      </trkpt>
      <trkpt lat="45.95807" lon="6.85565">
        <ele>2446</ele>
        <time>2026-08-04T09:22:23.278Z</time>
      </trkpt>
      <trkpt lat="45.95807" lon="6.85565">
        <ele>2445</ele>
        <time>2026-08-04T09:22:24.278Z</time>
      </trkpt>
      <trkpt lat="45.95808" lon="6.85565">
        <ele>2445</ele>
        <time>2026-08-04T09:22:25.278Z</time>
      </trkpt>
      <trkpt lat="45.95808" lon="6.85564">
        <ele>2445</ele>
        <time>2026-08-04T09:22:26.278Z</time>
      </trkpt>
      <trkpt lat="45.95809" lon="6.85564">
        <ele>2444</ele>
        <time>2026-08-04T09:22:27.278Z</time>
      </trkpt>
      <trkpt lat="45.9581" lon="6.85564">
        <ele>2444</ele>
        <time>2026-08-04T09:22:28.278Z</time>
      </trkpt>
      <trkpt lat="45.95811" lon="6.85564">
        <ele>2444</ele>
        <time>2026-08-04T09:22:29.278Z</time>
      </trkpt>
      <trkpt lat="45.95812" lon="6.85563">
        <ele>2443</ele>
        <time>2026-08-04T09:22:30.278Z</time>
      </trkpt>
      <trkpt lat="45.95812" lon="6.85563">
        <ele>2443</ele>
        <time>2026-08-04T09:22:31.278Z</time>
      </trkpt>
      <trkpt lat="45.95813" lon="6.85562">
        <ele>2443</ele>
        <time>2026-08-04T09:22:32.278Z</time>
      </trkpt>
      <trkpt lat="45.95814" lon="6.85561">
        <ele>2442</ele>
        <time>2026-08-04T09:22:33.278Z</time>
      </trkpt>
      <trkpt lat="45.95815" lon="6.85561">
        <ele>2442</ele>
        <time>2026-08-04T09:22:34.278Z</time>
      </trkpt>
      <trkpt lat="45.95816" lon="6.85561">
        <ele>2441</ele>
        <time>2026-08-04T09:22:35.278Z</time>
      </trkpt>
      <trkpt lat="45.95817" lon="6.85561">
        <ele>2441</ele>
        <time>2026-08-04T09:22:36.278Z</time>
      </trkpt>
      <trkpt lat="45.95817" lon="6.8556">
        <ele>2441</ele>
        <time>2026-08-04T09:22:37.278Z</time>
      </trkpt>
      <trkpt lat="45.95818" lon="6.8556">
        <ele>2440</ele>
        <time>2026-08-04T09:22:38.278Z</time>
      </trkpt>
      <trkpt lat="45.95818" lon="6.85559">
        <ele>2441</ele>
        <time>2026-08-04T09:22:39.278Z</time>
      </trkpt>
      <trkpt lat="45.95818" lon="6.85559">
        <ele>2441</ele>
        <time>2026-08-04T09:22:40.278Z</time>
      </trkpt>
      <trkpt lat="45.95817" lon="6.85559">
        <ele>2441</ele>
        <time>2026-08-04T09:22:41.278Z</time>
      </trkpt>
      <trkpt lat="45.95816" lon="6.85558">
        <ele>2441</ele>
        <time>2026-08-04T09:22:42.278Z</time>
      </trkpt>
      <trkpt lat="45.95814" lon="6.85558">
        <ele>2441</ele>
        <time>2026-08-04T09:22:43.278Z</time>
      </trkpt>
      <trkpt lat="45.95813" lon="6.85557">
        <ele>2441</ele>
        <time>2026-08-04T09:22:44.278Z</time>
      </trkpt>
      <trkpt lat="45.95812" lon="6.85557">
        <ele>2441</ele>
        <time>2026-08-04T09:22:45.278Z</time>
      </trkpt>
      <trkpt lat="45.95811" lon="6.85556">
        <ele>2441</ele>
        <time>2026-08-04T09:22:46.278Z</time>
      </trkpt>
      <trkpt lat="45.9581" lon="6.85555">
        <ele>2441</ele>
        <time>2026-08-04T09:22:47.278Z</time>
      </trkpt>
      <trkpt lat="45.95809" lon="6.85555">
        <ele>2441</ele>
        <time>2026-08-04T09:22:48.278Z</time>
      </trkpt>
      <trkpt lat="45.95808" lon="6.85555">
        <ele>2440</ele>
        <time>2026-08-04T09:22:49.278Z</time>
      </trkpt>
      <trkpt lat="45.95807" lon="6.85554">
        <ele>2440</ele>
        <time>2026-08-04T09:22:50.278Z</time>
      </trkpt>
      <trkpt lat="45.95806" lon="6.85553">
        <ele>2440</ele>
        <time>2026-08-04T09:22:51.278Z</time>
      </trkpt>
      <trkpt lat="45.95805" lon="6.85553">
        <ele>2440</ele>
        <time>2026-08-04T09:22:52.278Z</time>
      </trkpt>
      <trkpt lat="45.95804" lon="6.85552">
        <ele>2440</ele>
        <time>2026-08-04T09:22:53.278Z</time>
      </trkpt>
      <trkpt lat="45.95804" lon="6.85552">
        <ele>2440</ele>
        <time>2026-08-04T09:22:54.278Z</time>
      </trkpt>
      <trkpt lat="45.95803" lon="6.85551">
        <ele>2440</ele>
        <time>2026-08-04T09:22:55.278Z</time>
      </trkpt>
      <trkpt lat="45.95802" lon="6.85551">
        <ele>2440</ele>
        <time>2026-08-04T09:22:56.278Z</time>
      </trkpt>
      <trkpt lat="45.95801" lon="6.85551">
        <ele>2440</ele>
        <time>2026-08-04T09:22:57.278Z</time>
      </trkpt>
      <trkpt lat="45.958" lon="6.85552">
        <ele>2440</ele>
        <time>2026-08-04T09:22:58.278Z</time>
      </trkpt>
      <trkpt lat="45.95799" lon="6.85552">
        <ele>2440</ele>
        <time>2026-08-04T09:22:59.278Z</time>
      </trkpt>
      <trkpt lat="45.95797" lon="6.85553">
        <ele>2439</ele>
        <time>2026-08-04T09:23:00.278Z</time>
      </trkpt>
      <trkpt lat="45.95797" lon="6.85552">
        <ele>2439</ele>
        <time>2026-08-04T09:23:01.278Z</time>
      </trkpt>
      <trkpt lat="45.95796" lon="6.85552">
        <ele>2439</ele>
        <time>2026-08-04T09:23:02.278Z</time>
      </trkpt>
      <trkpt lat="45.95794" lon="6.85551">
        <ele>2439</ele>
        <time>2026-08-04T09:23:03.278Z</time>
      </trkpt>
      <trkpt lat="45.95793" lon="6.85551">
        <ele>2438</ele>
        <time>2026-08-04T09:23:04.278Z</time>
      </trkpt>
      <trkpt lat="45.95791" lon="6.85551">
        <ele>2438</ele>
        <time>2026-08-04T09:23:05.278Z</time>
      </trkpt>
      <trkpt lat="45.9579" lon="6.85551">
        <ele>2438</ele>
        <time>2026-08-04T09:23:06.278Z</time>
      </trkpt>
      <trkpt lat="45.95789" lon="6.85551">
        <ele>2438</ele>
        <time>2026-08-04T09:23:07.278Z</time>
      </trkpt>
      <trkpt lat="45.95787" lon="6.85551">
        <ele>2438</ele>
        <time>2026-08-04T09:23:08.278Z</time>
      </trkpt>
      <trkpt lat="45.95786" lon="6.85551">
        <ele>2438</ele>
        <time>2026-08-04T09:23:09.278Z</time>
      </trkpt>
      <trkpt lat="45.95785" lon="6.85551">
        <ele>2438</ele>
        <time>2026-08-04T09:23:10.278Z</time>
      </trkpt>
      <trkpt lat="45.95784" lon="6.85551">
        <ele>2438</ele>
        <time>2026-08-04T09:23:11.278Z</time>
      </trkpt>
      <trkpt lat="45.95782" lon="6.8555">
        <ele>2437</ele>
        <time>2026-08-04T09:23:12.278Z</time>
      </trkpt>
      <trkpt lat="45.9578" lon="6.8555">
        <ele>2437</ele>
        <time>2026-08-04T09:23:13.278Z</time>
      </trkpt>
      <trkpt lat="45.95779" lon="6.8555">
        <ele>2437</ele>
        <time>2026-08-04T09:23:14.278Z</time>
      </trkpt>
      <trkpt lat="45.95777" lon="6.8555">
        <ele>2437</ele>
        <time>2026-08-04T09:23:15.278Z</time>
      </trkpt>
      <trkpt lat="45.95776" lon="6.8555">
        <ele>2437</ele>
        <time>2026-08-04T09:23:16.278Z</time>
      </trkpt>
      <trkpt lat="45.95773" lon="6.85549">
        <ele>2437</ele>
        <time>2026-08-04T09:23:17.278Z</time>
      </trkpt>
      <trkpt lat="45.95772" lon="6.85549">
        <ele>2437</ele>
        <time>2026-08-04T09:23:18.278Z</time>
      </trkpt>
      <trkpt lat="45.9577" lon="6.85548">
        <ele>2437</ele>
        <time>2026-08-04T09:23:19.278Z</time>
      </trkpt>
      <trkpt lat="45.95768" lon="6.85547">
        <ele>2437</ele>
        <time>2026-08-04T09:23:20.278Z</time>
      </trkpt>
      <trkpt lat="45.95766" lon="6.85546">
        <ele>2438</ele>
        <time>2026-08-04T09:23:21.278Z</time>
      </trkpt>
      <trkpt lat="45.95764" lon="6.85546">
        <ele>2438</ele>
        <time>2026-08-04T09:23:22.278Z</time>
      </trkpt>
      <trkpt lat="45.95762" lon="6.85545">
        <ele>2439</ele>
        <time>2026-08-04T09:23:23.278Z</time>
      </trkpt>
      <trkpt lat="45.95761" lon="6.85544">
        <ele>2439</ele>
        <time>2026-08-04T09:23:24.278Z</time>
      </trkpt>
      <trkpt lat="45.95759" lon="6.85543">
        <ele>2440</ele>
        <time>2026-08-04T09:23:25.278Z</time>
      </trkpt>
      <trkpt lat="45.95757" lon="6.85542">
        <ele>2440</ele>
        <time>2026-08-04T09:23:26.278Z</time>
      </trkpt>
      <trkpt lat="45.95756" lon="6.85541">
        <ele>2440</ele>
        <time>2026-08-04T09:23:27.278Z</time>
      </trkpt>
      <trkpt lat="45.95754" lon="6.85541">
        <ele>2440</ele>
        <time>2026-08-04T09:23:28.278Z</time>
      </trkpt>
      <trkpt lat="45.95753" lon="6.8554">
        <ele>2441</ele>
        <time>2026-08-04T09:23:29.278Z</time>
      </trkpt>
      <trkpt lat="45.95751" lon="6.8554">
        <ele>2441</ele>
        <time>2026-08-04T09:23:30.278Z</time>
      </trkpt>
      <trkpt lat="45.95749" lon="6.85539">
        <ele>2441</ele>
        <time>2026-08-04T09:23:31.278Z</time>
      </trkpt>
      <trkpt lat="45.95747" lon="6.85539">
        <ele>2441</ele>
        <time>2026-08-04T09:23:32.278Z</time>
      </trkpt>
      <trkpt lat="45.95746" lon="6.85538">
        <ele>2441</ele>
        <time>2026-08-04T09:23:33.278Z</time>
      </trkpt>
      <trkpt lat="45.95744" lon="6.85536">
        <ele>2441</ele>
        <time>2026-08-04T09:23:34.278Z</time>
      </trkpt>
      <trkpt lat="45.95743" lon="6.85535">
        <ele>2440</ele>
        <time>2026-08-04T09:23:35.278Z</time>
      </trkpt>
      <trkpt lat="45.95742" lon="6.85534">
        <ele>2440</ele>
        <time>2026-08-04T09:23:36.278Z</time>
      </trkpt>
      <trkpt lat="45.95741" lon="6.85532">
        <ele>2439</ele>
        <time>2026-08-04T09:23:37.278Z</time>
      </trkpt>
      <trkpt lat="45.9574" lon="6.85531">
        <ele>2439</ele>
        <time>2026-08-04T09:23:38.278Z</time>
      </trkpt>
      <trkpt lat="45.95739" lon="6.8553">
        <ele>2438</ele>
        <time>2026-08-04T09:23:39.278Z</time>
      </trkpt>
      <trkpt lat="45.95738" lon="6.85529">
        <ele>2438</ele>
        <time>2026-08-04T09:23:40.278Z</time>
      </trkpt>
      <trkpt lat="45.95737" lon="6.85528">
        <ele>2438</ele>
        <time>2026-08-04T09:23:41.278Z</time>
      </trkpt>
      <trkpt lat="45.95736" lon="6.85526">
        <ele>2438</ele>
        <time>2026-08-04T09:23:42.278Z</time>
      </trkpt>
      <trkpt lat="45.95735" lon="6.85525">
        <ele>2438</ele>
        <time>2026-08-04T09:23:43.278Z</time>
      </trkpt>
      <trkpt lat="45.95734" lon="6.85524">
        <ele>2437</ele>
        <time>2026-08-04T09:23:44.278Z</time>
      </trkpt>
      <trkpt lat="45.95733" lon="6.85523">
        <ele>2437</ele>
        <time>2026-08-04T09:23:45.278Z</time>
      </trkpt>
      <trkpt lat="45.95733" lon="6.85522">
        <ele>2437</ele>
        <time>2026-08-04T09:23:46.278Z</time>
      </trkpt>
      <trkpt lat="45.95732" lon="6.8552">
        <ele>2437</ele>
        <time>2026-08-04T09:23:47.278Z</time>
      </trkpt>
      <trkpt lat="45.95731" lon="6.8552">
        <ele>2437</ele>
        <time>2026-08-04T09:23:48.278Z</time>
      </trkpt>
      <trkpt lat="45.95731" lon="6.85519">
        <ele>2437</ele>
        <time>2026-08-04T09:23:49.278Z</time>
      </trkpt>
      <trkpt lat="45.9573" lon="6.85518">
        <ele>2437</ele>
        <time>2026-08-04T09:23:50.278Z</time>
      </trkpt>
      <trkpt lat="45.9573" lon="6.85517">
        <ele>2436</ele>
        <time>2026-08-04T09:23:51.278Z</time>
      </trkpt>
      <trkpt lat="45.9573" lon="6.85516">
        <ele>2436</ele>
        <time>2026-08-04T09:23:52.278Z</time>
      </trkpt>
      <trkpt lat="45.9573" lon="6.85516">
        <ele>2435</ele>
        <time>2026-08-04T09:23:53.278Z</time>
      </trkpt>
      <trkpt lat="45.95729" lon="6.85515">
        <ele>2435</ele>
        <time>2026-08-04T09:23:54.278Z</time>
      </trkpt>
      <trkpt lat="45.95729" lon="6.85515">
        <ele>2434</ele>
        <time>2026-08-04T09:23:55.278Z</time>
      </trkpt>
      <trkpt lat="45.95729" lon="6.85514">
        <ele>2434</ele>
        <time>2026-08-04T09:23:56.278Z</time>
      </trkpt>
      <trkpt lat="45.95728" lon="6.85513">
        <ele>2433</ele>
        <time>2026-08-04T09:23:57.278Z</time>
      </trkpt>
      <trkpt lat="45.95728" lon="6.85512">
        <ele>2433</ele>
        <time>2026-08-04T09:23:58.278Z</time>
      </trkpt>
      <trkpt lat="45.95728" lon="6.85512">
        <ele>2433</ele>
        <time>2026-08-04T09:23:59.278Z</time>
      </trkpt>
      <trkpt lat="45.95727" lon="6.85511">
        <ele>2433</ele>
        <time>2026-08-04T09:24:00.278Z</time>
      </trkpt>
      <trkpt lat="45.95727" lon="6.85511">
        <ele>2433</ele>
        <time>2026-08-04T09:24:01.278Z</time>
      </trkpt>
      <trkpt lat="45.95727" lon="6.85511">
        <ele>2433</ele>
        <time>2026-08-04T09:24:02.278Z</time>
      </trkpt>
      <trkpt lat="45.95727" lon="6.85511">
        <ele>2433</ele>
        <time>2026-08-04T09:24:03.278Z</time>
      </trkpt>
      <trkpt lat="45.95726" lon="6.85511">
        <ele>2433</ele>
        <time>2026-08-04T09:24:04.278Z</time>
      </trkpt>
      <trkpt lat="45.95726" lon="6.85511">
        <ele>2432</ele>
        <time>2026-08-04T09:24:05.278Z</time>
      </trkpt>
      <trkpt lat="45.95725" lon="6.8551">
        <ele>2432</ele>
        <time>2026-08-04T09:24:06.278Z</time>
      </trkpt>
      <trkpt lat="45.95724" lon="6.85509">
        <ele>2432</ele>
        <time>2026-08-04T09:24:07.278Z</time>
      </trkpt>
      <trkpt lat="45.95723" lon="6.85508">
        <ele>2432</ele>
        <time>2026-08-04T09:24:08.278Z</time>
      </trkpt>
      <trkpt lat="45.95722" lon="6.85508">
        <ele>2432</ele>
        <time>2026-08-04T09:24:09.278Z</time>
      </trkpt>
      <trkpt lat="45.95721" lon="6.85508">
        <ele>2432</ele>
        <time>2026-08-04T09:24:10.278Z</time>
      </trkpt>
      <trkpt lat="45.95721" lon="6.85507">
        <ele>2432</ele>
        <time>2026-08-04T09:24:11.278Z</time>
      </trkpt>
      <trkpt lat="45.95721" lon="6.85507">
        <ele>2433</ele>
        <time>2026-08-04T09:24:12.278Z</time>
      </trkpt>
      <trkpt lat="45.9572" lon="6.85506">
        <ele>2433</ele>
        <time>2026-08-04T09:24:13.278Z</time>
      </trkpt>
      <trkpt lat="45.9572" lon="6.85505">
        <ele>2434</ele>
        <time>2026-08-04T09:24:14.278Z</time>
      </trkpt>
      <trkpt lat="45.95719" lon="6.85504">
        <ele>2434</ele>
        <time>2026-08-04T09:24:15.278Z</time>
      </trkpt>
      <trkpt lat="45.95719" lon="6.85503">
        <ele>2434</ele>
        <time>2026-08-04T09:24:16.278Z</time>
      </trkpt>
      <trkpt lat="45.95718" lon="6.85503">
        <ele>2435</ele>
        <time>2026-08-04T09:24:17.278Z</time>
      </trkpt>
      <trkpt lat="45.95718" lon="6.85502">
        <ele>2435</ele>
        <time>2026-08-04T09:24:18.278Z</time>
      </trkpt>
      <trkpt lat="45.95717" lon="6.85501">
        <ele>2435</ele>
        <time>2026-08-04T09:24:19.278Z</time>
      </trkpt>
      <trkpt lat="45.95717" lon="6.85501">
        <ele>2435</ele>
        <time>2026-08-04T09:24:20.278Z</time>
      </trkpt>
      <trkpt lat="45.95716" lon="6.855">
        <ele>2435</ele>
        <time>2026-08-04T09:24:21.278Z</time>
      </trkpt>
      <trkpt lat="45.95715" lon="6.85499">
        <ele>2435</ele>
        <time>2026-08-04T09:24:22.278Z</time>
      </trkpt>
      <trkpt lat="45.95715" lon="6.85499">
        <ele>2435</ele>
        <time>2026-08-04T09:24:23.278Z</time>
      </trkpt>
      <trkpt lat="45.95715" lon="6.85498">
        <ele>2435</ele>
        <time>2026-08-04T09:24:24.278Z</time>
      </trkpt>
      <trkpt lat="45.95715" lon="6.85497">
        <ele>2435</ele>
        <time>2026-08-04T09:24:25.278Z</time>
      </trkpt>
      <trkpt lat="45.95714" lon="6.85497">
        <ele>2435</ele>
        <time>2026-08-04T09:24:26.278Z</time>
      </trkpt>
      <trkpt lat="45.95714" lon="6.85497">
        <ele>2435</ele>
        <time>2026-08-04T09:24:27.278Z</time>
      </trkpt>
      <trkpt lat="45.95714" lon="6.85496">
        <ele>2435</ele>
        <time>2026-08-04T09:24:28.278Z</time>
      </trkpt>
      <trkpt lat="45.95713" lon="6.85496">
        <ele>2435</ele>
        <time>2026-08-04T09:24:29.278Z</time>
      </trkpt>
      <trkpt lat="45.95713" lon="6.85496">
        <ele>2435</ele>
        <time>2026-08-04T09:24:30.278Z</time>
      </trkpt>
      <trkpt lat="45.95713" lon="6.85496">
        <ele>2435</ele>
        <time>2026-08-04T09:24:31.278Z</time>
      </trkpt>
      <trkpt lat="45.95712" lon="6.85496">
        <ele>2435</ele>
        <time>2026-08-04T09:24:32.278Z</time>
      </trkpt>
      <trkpt lat="45.95711" lon="6.85496">
        <ele>2435</ele>
        <time>2026-08-04T09:24:33.278Z</time>
      </trkpt>
      <trkpt lat="45.95711" lon="6.85495">
        <ele>2435</ele>
        <time>2026-08-04T09:24:34.278Z</time>
      </trkpt>
      <trkpt lat="45.9571" lon="6.85495">
        <ele>2435</ele>
        <time>2026-08-04T09:24:35.278Z</time>
      </trkpt>
      <trkpt lat="45.9571" lon="6.85495">
        <ele>2435</ele>
        <time>2026-08-04T09:24:36.278Z</time>
      </trkpt>
      <trkpt lat="45.95709" lon="6.85495">
        <ele>2434</ele>
        <time>2026-08-04T09:24:37.278Z</time>
      </trkpt>
      <trkpt lat="45.95708" lon="6.85495">
        <ele>2434</ele>
        <time>2026-08-04T09:24:38.278Z</time>
      </trkpt>
      <trkpt lat="45.95708" lon="6.85494">
        <ele>2434</ele>
        <time>2026-08-04T09:24:39.278Z</time>
      </trkpt>
      <trkpt lat="45.95707" lon="6.85494">
        <ele>2435</ele>
        <time>2026-08-04T09:24:40.278Z</time>
      </trkpt>
      <trkpt lat="45.95706" lon="6.85493">
        <ele>2435</ele>
        <time>2026-08-04T09:24:41.278Z</time>
      </trkpt>
      <trkpt lat="45.95706" lon="6.85492">
        <ele>2434</ele>
        <time>2026-08-04T09:24:42.278Z</time>
      </trkpt>
      <trkpt lat="45.95705" lon="6.85492">
        <ele>2434</ele>
        <time>2026-08-04T09:24:43.278Z</time>
      </trkpt>
      <trkpt lat="45.95705" lon="6.85491">
        <ele>2434</ele>
        <time>2026-08-04T09:24:44.278Z</time>
      </trkpt>
      <trkpt lat="45.95704" lon="6.85491">
        <ele>2434</ele>
        <time>2026-08-04T09:24:45.278Z</time>
      </trkpt>
      <trkpt lat="45.95704" lon="6.85491">
        <ele>2433</ele>
        <time>2026-08-04T09:24:46.278Z</time>
      </trkpt>
      <trkpt lat="45.95704" lon="6.8549">
        <ele>2433</ele>
        <time>2026-08-04T09:24:47.278Z</time>
      </trkpt>
      <trkpt lat="45.95704" lon="6.8549">
        <ele>2433</ele>
        <time>2026-08-04T09:24:48.278Z</time>
      </trkpt>
      <trkpt lat="45.95703" lon="6.8549">
        <ele>2433</ele>
        <time>2026-08-04T09:24:49.278Z</time>
      </trkpt>
      <trkpt lat="45.95703" lon="6.85491">
        <ele>2433</ele>
        <time>2026-08-04T09:24:50.278Z</time>
      </trkpt>
      <trkpt lat="45.95703" lon="6.85491">
        <ele>2433</ele>
        <time>2026-08-04T09:24:51.278Z</time>
      </trkpt>
      <trkpt lat="45.95702" lon="6.85491">
        <ele>2433</ele>
        <time>2026-08-04T09:24:52.278Z</time>
      </trkpt>
      <trkpt lat="45.95702" lon="6.85491">
        <ele>2432</ele>
        <time>2026-08-04T09:24:53.278Z</time>
      </trkpt>
      <trkpt lat="45.95702" lon="6.85491">
        <ele>2432</ele>
        <time>2026-08-04T09:24:54.278Z</time>
      </trkpt>
      <trkpt lat="45.95701" lon="6.85491">
        <ele>2432</ele>
        <time>2026-08-04T09:24:55.278Z</time>
      </trkpt>
      <trkpt lat="45.95701" lon="6.85491">
        <ele>2432</ele>
        <time>2026-08-04T09:24:56.278Z</time>
      </trkpt>
      <trkpt lat="45.95701" lon="6.85491">
        <ele>2432</ele>
        <time>2026-08-04T09:24:57.278Z</time>
      </trkpt>
      <trkpt lat="45.95701" lon="6.85492">
        <ele>2432</ele>
        <time>2026-08-04T09:24:58.278Z</time>
      </trkpt>
      <trkpt lat="45.957" lon="6.85492">
        <ele>2431</ele>
        <time>2026-08-04T09:24:59.278Z</time>
      </trkpt>
      <trkpt lat="45.957" lon="6.85492">
        <ele>2431</ele>
        <time>2026-08-04T09:25:00.278Z</time>
      </trkpt>
      <trkpt lat="45.957" lon="6.85493">
        <ele>2431</ele>
        <time>2026-08-04T09:25:01.278Z</time>
      </trkpt>
      <trkpt lat="45.95699" lon="6.85493">
        <ele>2431</ele>
        <time>2026-08-04T09:25:02.278Z</time>
      </trkpt>
      <trkpt lat="45.95699" lon="6.85493">
        <ele>2431</ele>
        <time>2026-08-04T09:25:03.278Z</time>
      </trkpt>
      <trkpt lat="45.95698" lon="6.85493">
        <ele>2431</ele>
        <time>2026-08-04T09:25:04.278Z</time>
      </trkpt>
      <trkpt lat="45.95698" lon="6.85493">
        <ele>2431</ele>
        <time>2026-08-04T09:25:05.278Z</time>
      </trkpt>
      <trkpt lat="45.95696" lon="6.85493">
        <ele>2430</ele>
        <time>2026-08-04T09:25:06.278Z</time>
      </trkpt>
      <trkpt lat="45.95695" lon="6.85493">
        <ele>2430</ele>
        <time>2026-08-04T09:25:07.278Z</time>
      </trkpt>
      <trkpt lat="45.95694" lon="6.85493">
        <ele>2430</ele>
        <time>2026-08-04T09:25:08.278Z</time>
      </trkpt>
      <trkpt lat="45.95694" lon="6.85492">
        <ele>2430</ele>
        <time>2026-08-04T09:25:09.278Z</time>
      </trkpt>
      <trkpt lat="45.95692" lon="6.85492">
        <ele>2430</ele>
        <time>2026-08-04T09:25:10.278Z</time>
      </trkpt>
      <trkpt lat="45.95691" lon="6.85492">
        <ele>2430</ele>
        <time>2026-08-04T09:25:11.278Z</time>
      </trkpt>
      <trkpt lat="45.9569" lon="6.85492">
        <ele>2431</ele>
        <time>2026-08-04T09:25:12.278Z</time>
      </trkpt>
      <trkpt lat="45.9569" lon="6.85493">
        <ele>2431</ele>
        <time>2026-08-04T09:25:13.278Z</time>
      </trkpt>
      <trkpt lat="45.95689" lon="6.85493">
        <ele>2431</ele>
        <time>2026-08-04T09:25:14.278Z</time>
      </trkpt>
      <trkpt lat="45.95689" lon="6.85494">
        <ele>2431</ele>
        <time>2026-08-04T09:25:15.278Z</time>
      </trkpt>
      <trkpt lat="45.95688" lon="6.85495">
        <ele>2431</ele>
        <time>2026-08-04T09:25:16.279Z</time>
      </trkpt>
      <trkpt lat="45.95688" lon="6.85495">
        <ele>2432</ele>
        <time>2026-08-04T09:25:17.278Z</time>
      </trkpt>
      <trkpt lat="45.95687" lon="6.85496">
        <ele>2432</ele>
        <time>2026-08-04T09:25:18.278Z</time>
      </trkpt>
      <trkpt lat="45.95686" lon="6.85497">
        <ele>2432</ele>
        <time>2026-08-04T09:25:19.278Z</time>
      </trkpt>
      <trkpt lat="45.95685" lon="6.85496">
        <ele>2432</ele>
        <time>2026-08-04T09:25:20.278Z</time>
      </trkpt>
      <trkpt lat="45.95684" lon="6.85496">
        <ele>2432</ele>
        <time>2026-08-04T09:25:21.278Z</time>
      </trkpt>
      <trkpt lat="45.95684" lon="6.85496">
        <ele>2432</ele>
        <time>2026-08-04T09:25:22.278Z</time>
      </trkpt>
      <trkpt lat="45.95682" lon="6.85495">
        <ele>2433</ele>
        <time>2026-08-04T09:25:23.278Z</time>
      </trkpt>
      <trkpt lat="45.95681" lon="6.85494">
        <ele>2433</ele>
        <time>2026-08-04T09:25:24.278Z</time>
      </trkpt>
      <trkpt lat="45.9568" lon="6.85494">
        <ele>2433</ele>
        <time>2026-08-04T09:25:25.278Z</time>
      </trkpt>
      <trkpt lat="45.95679" lon="6.85493">
        <ele>2433</ele>
        <time>2026-08-04T09:25:26.278Z</time>
      </trkpt>
      <trkpt lat="45.95678" lon="6.85492">
        <ele>2433</ele>
        <time>2026-08-04T09:25:27.278Z</time>
      </trkpt>
      <trkpt lat="45.95677" lon="6.85491">
        <ele>2433</ele>
        <time>2026-08-04T09:25:28.278Z</time>
      </trkpt>
      <trkpt lat="45.95677" lon="6.8549">
        <ele>2433</ele>
        <time>2026-08-04T09:25:29.278Z</time>
      </trkpt>
      <trkpt lat="45.95676" lon="6.8549">
        <ele>2433</ele>
        <time>2026-08-04T09:25:30.278Z</time>
      </trkpt>
      <trkpt lat="45.95675" lon="6.85489">
        <ele>2433</ele>
        <time>2026-08-04T09:25:31.278Z</time>
      </trkpt>
      <trkpt lat="45.95675" lon="6.85489">
        <ele>2433</ele>
        <time>2026-08-04T09:25:32.278Z</time>
      </trkpt>
      <trkpt lat="45.95674" lon="6.85489">
        <ele>2433</ele>
        <time>2026-08-04T09:25:33.278Z</time>
      </trkpt>
      <trkpt lat="45.95673" lon="6.85488">
        <ele>2433</ele>
        <time>2026-08-04T09:25:34.278Z</time>
      </trkpt>
      <trkpt lat="45.95672" lon="6.85487">
        <ele>2433</ele>
        <time>2026-08-04T09:25:35.278Z</time>
      </trkpt>
      <trkpt lat="45.9567" lon="6.85486">
        <ele>2433</ele>
        <time>2026-08-04T09:25:36.278Z</time>
      </trkpt>
      <trkpt lat="45.95669" lon="6.85485">
        <ele>2433</ele>
        <time>2026-08-04T09:25:37.278Z</time>
      </trkpt>
      <trkpt lat="45.95667" lon="6.85484">
        <ele>2433</ele>
        <time>2026-08-04T09:25:38.278Z</time>
      </trkpt>
      <trkpt lat="45.95665" lon="6.85483">
        <ele>2433</ele>
        <time>2026-08-04T09:25:39.278Z</time>
      </trkpt>
      <trkpt lat="45.95663" lon="6.85482">
        <ele>2433</ele>
        <time>2026-08-04T09:25:40.278Z</time>
      </trkpt>
      <trkpt lat="45.95662" lon="6.85481">
        <ele>2433</ele>
        <time>2026-08-04T09:25:41.278Z</time>
      </trkpt>
      <trkpt lat="45.9566" lon="6.8548">
        <ele>2433</ele>
        <time>2026-08-04T09:25:42.278Z</time>
      </trkpt>
      <trkpt lat="45.95659" lon="6.8548">
        <ele>2433</ele>
        <time>2026-08-04T09:25:43.278Z</time>
      </trkpt>
      <trkpt lat="45.95659" lon="6.85479">
        <ele>2433</ele>
        <time>2026-08-04T09:25:44.278Z</time>
      </trkpt>
      <trkpt lat="45.95657" lon="6.8548">
        <ele>2433</ele>
        <time>2026-08-04T09:25:45.278Z</time>
      </trkpt>
      <trkpt lat="45.95657" lon="6.8548">
        <ele>2433</ele>
        <time>2026-08-04T09:25:46.278Z</time>
      </trkpt>
      <trkpt lat="45.95656" lon="6.8548">
        <ele>2433</ele>
        <time>2026-08-04T09:25:47.278Z</time>
      </trkpt>
      <trkpt lat="45.95655" lon="6.8548">
        <ele>2433</ele>
        <time>2026-08-04T09:25:48.278Z</time>
      </trkpt>
      <trkpt lat="45.95654" lon="6.8548">
        <ele>2432</ele>
        <time>2026-08-04T09:25:49.278Z</time>
      </trkpt>
      <trkpt lat="45.95653" lon="6.8548">
        <ele>2432</ele>
        <time>2026-08-04T09:25:50.278Z</time>
      </trkpt>
      <trkpt lat="45.95652" lon="6.85479">
        <ele>2432</ele>
        <time>2026-08-04T09:25:51.278Z</time>
      </trkpt>
      <trkpt lat="45.95652" lon="6.85479">
        <ele>2431</ele>
        <time>2026-08-04T09:25:52.278Z</time>
      </trkpt>
      <trkpt lat="45.95651" lon="6.85479">
        <ele>2431</ele>
        <time>2026-08-04T09:25:53.278Z</time>
      </trkpt>
      <trkpt lat="45.9565" lon="6.85479">
        <ele>2431</ele>
        <time>2026-08-04T09:25:54.278Z</time>
      </trkpt>
      <trkpt lat="45.95649" lon="6.85479">
        <ele>2431</ele>
        <time>2026-08-04T09:25:55.278Z</time>
      </trkpt>
      <trkpt lat="45.95648" lon="6.85479">
        <ele>2431</ele>
        <time>2026-08-04T09:25:56.278Z</time>
      </trkpt>
      <trkpt lat="45.95647" lon="6.85478">
        <ele>2432</ele>
        <time>2026-08-04T09:25:57.278Z</time>
      </trkpt>
      <trkpt lat="45.95646" lon="6.85478">
        <ele>2432</ele>
        <time>2026-08-04T09:25:58.278Z</time>
      </trkpt>
      <trkpt lat="45.95646" lon="6.85478">
        <ele>2432</ele>
        <time>2026-08-04T09:25:59.278Z</time>
      </trkpt>
      <trkpt lat="45.95646" lon="6.85477">
        <ele>2432</ele>
        <time>2026-08-04T09:26:00.278Z</time>
      </trkpt>
      <trkpt lat="45.95645" lon="6.85477">
        <ele>2432</ele>
        <time>2026-08-04T09:26:01.278Z</time>
      </trkpt>
      <trkpt lat="45.95644" lon="6.85476">
        <ele>2432</ele>
        <time>2026-08-04T09:26:02.278Z</time>
      </trkpt>
      <trkpt lat="45.95644" lon="6.85475">
        <ele>2432</ele>
        <time>2026-08-04T09:26:03.278Z</time>
      </trkpt>
      <trkpt lat="45.95643" lon="6.85474">
        <ele>2432</ele>
        <time>2026-08-04T09:26:04.278Z</time>
      </trkpt>
      <trkpt lat="45.95643" lon="6.85473">
        <ele>2432</ele>
        <time>2026-08-04T09:26:05.278Z</time>
      </trkpt>
      <trkpt lat="45.95642" lon="6.85472">
        <ele>2432</ele>
        <time>2026-08-04T09:26:06.278Z</time>
      </trkpt>
      <trkpt lat="45.95641" lon="6.85471">
        <ele>2432</ele>
        <time>2026-08-04T09:26:07.278Z</time>
      </trkpt>
      <trkpt lat="45.9564" lon="6.8547">
        <ele>2431</ele>
        <time>2026-08-04T09:26:08.278Z</time>
      </trkpt>
      <trkpt lat="45.9564" lon="6.8547">
        <ele>2431</ele>
        <time>2026-08-04T09:26:09.278Z</time>
      </trkpt>
      <trkpt lat="45.9564" lon="6.85469">
        <ele>2431</ele>
        <time>2026-08-04T09:26:10.278Z</time>
      </trkpt>
      <trkpt lat="45.95639" lon="6.85468">
        <ele>2430</ele>
        <time>2026-08-04T09:26:11.278Z</time>
      </trkpt>
      <trkpt lat="45.95639" lon="6.85468">
        <ele>2430</ele>
        <time>2026-08-04T09:26:12.278Z</time>
      </trkpt>
      <trkpt lat="45.95639" lon="6.85467">
        <ele>2430</ele>
        <time>2026-08-04T09:26:13.278Z</time>
      </trkpt>
      <trkpt lat="45.95639" lon="6.85466">
        <ele>2429</ele>
        <time>2026-08-04T09:26:14.278Z</time>
      </trkpt>
      <trkpt lat="45.95639" lon="6.85464">
        <ele>2429</ele>
        <time>2026-08-04T09:26:15.278Z</time>
      </trkpt>
      <trkpt lat="45.95638" lon="6.85463">
        <ele>2428</ele>
        <time>2026-08-04T09:26:16.278Z</time>
      </trkpt>
      <trkpt lat="45.95637" lon="6.85462">
        <ele>2428</ele>
        <time>2026-08-04T09:26:17.279Z</time>
      </trkpt>
      <trkpt lat="45.95635" lon="6.85461">
        <ele>2428</ele>
        <time>2026-08-04T09:26:18.278Z</time>
      </trkpt>
      <trkpt lat="45.95634" lon="6.8546">
        <ele>2428</ele>
        <time>2026-08-04T09:26:19.278Z</time>
      </trkpt>
      <trkpt lat="45.95633" lon="6.8546">
        <ele>2428</ele>
        <time>2026-08-04T09:26:20.278Z</time>
      </trkpt>
      <trkpt lat="45.95632" lon="6.85459">
        <ele>2428</ele>
        <time>2026-08-04T09:26:21.278Z</time>
      </trkpt>
      <trkpt lat="45.95631" lon="6.85458">
        <ele>2427</ele>
        <time>2026-08-04T09:26:22.278Z</time>
      </trkpt>
      <trkpt lat="45.9563" lon="6.85457">
        <ele>2427</ele>
        <time>2026-08-04T09:26:23.278Z</time>
      </trkpt>
      <trkpt lat="45.9563" lon="6.85457">
        <ele>2428</ele>
        <time>2026-08-04T09:26:24.278Z</time>
      </trkpt>
      <trkpt lat="45.95629" lon="6.85456">
        <ele>2428</ele>
        <time>2026-08-04T09:26:25.278Z</time>
      </trkpt>
      <trkpt lat="45.95628" lon="6.85456">
        <ele>2428</ele>
        <time>2026-08-04T09:26:26.278Z</time>
      </trkpt>
      <trkpt lat="45.95627" lon="6.85455">
        <ele>2428</ele>
        <time>2026-08-04T09:26:27.278Z</time>
      </trkpt>
      <trkpt lat="45.95627" lon="6.85454">
        <ele>2428</ele>
        <time>2026-08-04T09:26:28.278Z</time>
      </trkpt>
      <trkpt lat="45.95626" lon="6.85454">
        <ele>2428</ele>
        <time>2026-08-04T09:26:29.278Z</time>
      </trkpt>
      <trkpt lat="45.95625" lon="6.85453">
        <ele>2428</ele>
        <time>2026-08-04T09:26:30.278Z</time>
      </trkpt>
      <trkpt lat="45.95625" lon="6.85453">
        <ele>2428</ele>
        <time>2026-08-04T09:26:31.278Z</time>
      </trkpt>
      <trkpt lat="45.95624" lon="6.85453">
        <ele>2428</ele>
        <time>2026-08-04T09:26:32.278Z</time>
      </trkpt>
      <trkpt lat="45.95623" lon="6.85452">
        <ele>2428</ele>
        <time>2026-08-04T09:26:33.278Z</time>
      </trkpt>
      <trkpt lat="45.95623" lon="6.85452">
        <ele>2428</ele>
        <time>2026-08-04T09:26:34.278Z</time>
      </trkpt>
      <trkpt lat="45.95622" lon="6.85451">
        <ele>2428</ele>
        <time>2026-08-04T09:26:35.278Z</time>
      </trkpt>
      <trkpt lat="45.95622" lon="6.85451">
        <ele>2428</ele>
        <time>2026-08-04T09:26:36.278Z</time>
      </trkpt>
      <trkpt lat="45.95621" lon="6.85451">
        <ele>2428</ele>
        <time>2026-08-04T09:26:37.278Z</time>
      </trkpt>
      <trkpt lat="45.95621" lon="6.85451">
        <ele>2428</ele>
        <time>2026-08-04T09:26:38.278Z</time>
      </trkpt>
      <trkpt lat="45.9562" lon="6.85451">
        <ele>2428</ele>
        <time>2026-08-04T09:26:39.278Z</time>
      </trkpt>
      <trkpt lat="45.9562" lon="6.85452">
        <ele>2428</ele>
        <time>2026-08-04T09:26:40.278Z</time>
      </trkpt>
      <trkpt lat="45.9562" lon="6.85452">
        <ele>2428</ele>
        <time>2026-08-04T09:26:41.278Z</time>
      </trkpt>
      <trkpt lat="45.9562" lon="6.85452">
        <ele>2428</ele>
        <time>2026-08-04T09:26:42.278Z</time>
      </trkpt>
      <trkpt lat="45.95619" lon="6.85452">
        <ele>2428</ele>
        <time>2026-08-04T09:26:43.278Z</time>
      </trkpt>
      <trkpt lat="45.95619" lon="6.85453">
        <ele>2426</ele>
        <time>2026-08-04T09:27:04.582Z</time>
      </trkpt>
      <trkpt lat="45.95619" lon="6.85453">
        <ele>2426</ele>
        <time>2026-08-04T09:27:05.582Z</time>
      </trkpt>
      <trkpt lat="45.95619" lon="6.85453">
        <ele>2426</ele>
        <time>2026-08-04T09:27:06.582Z</time>
      </trkpt>
      <trkpt lat="45.95619" lon="6.85453">
        <ele>2426</ele>
        <time>2026-08-04T09:27:07.582Z</time>
      </trkpt>
      <trkpt lat="45.95618" lon="6.85454">
        <ele>2426</ele>
        <time>2026-08-04T09:27:32.131Z</time>
      </trkpt>
      <trkpt lat="45.95618" lon="6.85454">
        <ele>2426</ele>
        <time>2026-08-04T09:27:33.131Z</time>
      </trkpt>
      <trkpt lat="45.95618" lon="6.85454">
        <ele>2426</ele>
        <time>2026-08-04T09:27:34.131Z</time>
      </trkpt>
      <trkpt lat="45.95618" lon="6.85454">
        <ele>2426</ele>
        <time>2026-08-04T09:27:35.131Z</time>
      </trkpt>
      <trkpt lat="45.95618" lon="6.85454">
        <ele>2426</ele>
        <time>2026-08-04T09:27:36.131Z</time>
      </trkpt>
      <trkpt lat="45.95618" lon="6.85454">
        <ele>2426</ele>
        <time>2026-08-04T09:27:37.131Z</time>
      </trkpt>
      <trkpt lat="45.95618" lon="6.85454">
        <ele>2426</ele>
        <time>2026-08-04T09:27:38.131Z</time>
      </trkpt>
      <trkpt lat="45.95618" lon="6.85454">
        <ele>2426</ele>
        <time>2026-08-04T09:27:39.131Z</time>
      </trkpt>
      <trkpt lat="45.95618" lon="6.85454">
        <ele>2426</ele>
        <time>2026-08-04T09:27:40.131Z</time>
      </trkpt>
      <trkpt lat="45.95618" lon="6.85454">
        <ele>2426</ele>
        <time>2026-08-04T09:27:41.131Z</time>
      </trkpt>
      <trkpt lat="45.95618" lon="6.85454">
        <ele>2426</ele>
        <time>2026-08-04T09:27:42.131Z</time>
      </trkpt>
      <trkpt lat="45.95618" lon="6.85454">
        <ele>2426</ele>
        <time>2026-08-04T09:27:43.131Z</time>
      </trkpt>
      <trkpt lat="45.95618" lon="6.85454">
        <ele>2426</ele>
        <time>2026-08-04T09:27:44.131Z</time>
      </trkpt>
      <trkpt lat="45.95618" lon="6.85454">
        <ele>2426</ele>
        <time>2026-08-04T09:27:45.131Z</time>
      </trkpt>
      <trkpt lat="45.95618" lon="6.85454">
        <ele>2426</ele>
        <time>2026-08-04T09:27:46.131Z</time>
      </trkpt>
      <trkpt lat="45.95618" lon="6.85454">
        <ele>2426</ele>
        <time>2026-08-04T09:27:47.131Z</time>
      </trkpt>
      <trkpt lat="45.95618" lon="6.85454">
        <ele>2426</ele>
        <time>2026-08-04T09:27:48.131Z</time>
      </trkpt>
      <trkpt lat="45.95618" lon="6.85454">
        <ele>2426</ele>
        <time>2026-08-04T09:27:49.131Z</time>
      </trkpt>
      <trkpt lat="45.95618" lon="6.85454">
        <ele>2426</ele>
        <time>2026-08-04T09:27:50.131Z</time>
      </trkpt>
      <trkpt lat="45.95618" lon="6.85454">
        <ele>2426</ele>
        <time>2026-08-04T09:27:51.131Z</time>
      </trkpt>
      <trkpt lat="45.95618" lon="6.85454">
        <ele>2426</ele>
        <time>2026-08-04T09:27:52.131Z</time>
      </trkpt>
      <trkpt lat="45.95618" lon="6.85454">
        <ele>2426</ele>
        <time>2026-08-04T09:27:53.131Z</time>
      </trkpt>
      <trkpt lat="45.95618" lon="6.85454">
        <ele>2426</ele>
        <time>2026-08-04T09:27:54.131Z</time>
      </trkpt>
      <trkpt lat="45.95618" lon="6.85454">
        <ele>2426</ele>
        <time>2026-08-04T09:27:55.131Z</time>
      </trkpt>
      <trkpt lat="45.95618" lon="6.85454">
        <ele>2426</ele>
        <time>2026-08-04T09:27:56.131Z</time>
      </trkpt>
      <trkpt lat="45.95618" lon="6.85454">
        <ele>2426</ele>
        <time>2026-08-04T09:27:57.131Z</time>
      </trkpt>
      <trkpt lat="45.95618" lon="6.85454">
        <ele>2426</ele>
        <time>2026-08-04T09:27:58.131Z</time>
      </trkpt>
      <trkpt lat="45.95618" lon="6.85454">
        <ele>2426</ele>
        <time>2026-08-04T09:27:59.131Z</time>
      </trkpt>
      <trkpt lat="45.95618" lon="6.85454">
        <ele>2426</ele>
        <time>2026-08-04T09:28:00.131Z</time>
      </trkpt>
      <trkpt lat="45.95618" lon="6.85454">
        <ele>2426</ele>
        <time>2026-08-04T09:28:01.131Z</time>
      </trkpt>
      <trkpt lat="45.95618" lon="6.85454">
        <ele>2426</ele>
        <time>2026-08-04T09:28:02.131Z</time>
      </trkpt>
      <trkpt lat="45.95618" lon="6.85454">
        <ele>2426</ele>
        <time>2026-08-04T09:28:03.131Z</time>
      </trkpt>
      <trkpt lat="45.95618" lon="6.85454">
        <ele>2426</ele>
        <time>2026-08-04T09:28:04.131Z</time>
      </trkpt>
      <trkpt lat="45.95618" lon="6.85454">
        <ele>2426</ele>
        <time>2026-08-04T09:28:05.131Z</time>
      </trkpt>
      <trkpt lat="45.95618" lon="6.85454">
        <ele>2426</ele>
        <time>2026-08-04T09:28:06.131Z</time>
      </trkpt>
      <trkpt lat="45.95618" lon="6.85454">
        <ele>2426</ele>
        <time>2026-08-04T09:28:07.131Z</time>
      </trkpt>
      <trkpt lat="45.95618" lon="6.85454">
        <ele>2426</ele>
        <time>2026-08-04T09:28:08.131Z</time>
      </trkpt>
      <trkpt lat="45.95618" lon="6.85454">
        <ele>2426</ele>
        <time>2026-08-04T09:28:09.132Z</time>
      </trkpt>
      <trkpt lat="45.95618" lon="6.85454">
        <ele>2426</ele>
        <time>2026-08-04T09:28:10.131Z</time>
      </trkpt>
      <trkpt lat="45.95618" lon="6.85454">
        <ele>2426</ele>
        <time>2026-08-04T09:28:11.131Z</time>
      </trkpt>
      <trkpt lat="45.95618" lon="6.85454">
        <ele>2426</ele>
        <time>2026-08-04T09:28:12.131Z</time>
      </trkpt>
      <trkpt lat="45.95618" lon="6.85454">
        <ele>2426</ele>
        <time>2026-08-04T09:28:13.131Z</time>
      </trkpt>
      <trkpt lat="45.95618" lon="6.85454">
        <ele>2426</ele>
        <time>2026-08-04T09:28:14.131Z</time>
      </trkpt>
      <trkpt lat="45.95618" lon="6.85454">
        <ele>2426</ele>
        <time>2026-08-04T09:28:15.131Z</time>
      </trkpt>
      <trkpt lat="45.95618" lon="6.85454">
        <ele>2426</ele>
        <time>2026-08-04T09:28:16.131Z</time>
      </trkpt>
      <trkpt lat="45.95618" lon="6.85454">
        <ele>2426</ele>
        <time>2026-08-04T09:28:17.131Z</time>
      </trkpt>
      <trkpt lat="45.95618" lon="6.85454">
        <ele>2426</ele>
        <time>2026-08-04T09:28:18.131Z</time>
      </trkpt>
      <trkpt lat="45.95618" lon="6.85454">
        <ele>2426</ele>
        <time>2026-08-04T09:28:19.131Z</time>
      </trkpt>
      <trkpt lat="45.95618" lon="6.85454">
        <ele>2426</ele>
        <time>2026-08-04T09:28:20.131Z</time>
      </trkpt>
      <trkpt lat="45.95618" lon="6.85454">
        <ele>2426</ele>
        <time>2026-08-04T09:28:21.131Z</time>
      </trkpt>
      <trkpt lat="45.95618" lon="6.85454">
        <ele>2426</ele>
        <time>2026-08-04T09:28:22.131Z</time>
      </trkpt>
      <trkpt lat="45.95618" lon="6.85454">
        <ele>2426</ele>
        <time>2026-08-04T09:28:23.131Z</time>
      </trkpt>
      <trkpt lat="45.95618" lon="6.85454">
        <ele>2426</ele>
        <time>2026-08-04T09:28:24.131Z</time>
      </trkpt>
      <trkpt lat="45.95618" lon="6.85454">
        <ele>2426</ele>
        <time>2026-08-04T09:28:25.131Z</time>
      </trkpt>
      <trkpt lat="45.95618" lon="6.85454">
        <ele>2426</ele>
        <time>2026-08-04T09:28:26.131Z</time>
      </trkpt>
      <trkpt lat="45.95618" lon="6.85454">
        <ele>2426</ele>
        <time>2026-08-04T09:28:27.131Z</time>
      </trkpt>
      <trkpt lat="45.95618" lon="6.85454">
        <ele>2426</ele>
        <time>2026-08-04T09:28:28.132Z</time>
      </trkpt>
      <trkpt lat="45.95617" lon="6.85454">
        <ele>2426</ele>
        <time>2026-08-04T09:28:29.131Z</time>
      </trkpt>
      <trkpt lat="45.95617" lon="6.85454">
        <ele>2426</ele>
        <time>2026-08-04T09:28:30.131Z</time>
      </trkpt>
      <trkpt lat="45.95616" lon="6.85454">
        <ele>2426</ele>
        <time>2026-08-04T09:28:31.131Z</time>
      </trkpt>
      <trkpt lat="45.95615" lon="6.85454">
        <ele>2426</ele>
        <time>2026-08-04T09:28:32.131Z</time>
      </trkpt>
      <trkpt lat="45.95614" lon="6.85454">
        <ele>2426</ele>
        <time>2026-08-04T09:28:33.131Z</time>
      </trkpt>
      <trkpt lat="45.95613" lon="6.85455">
        <ele>2426</ele>
        <time>2026-08-04T09:28:34.131Z</time>
      </trkpt>
      <trkpt lat="45.95612" lon="6.85455">
        <ele>2427</ele>
        <time>2026-08-04T09:28:35.131Z</time>
      </trkpt>
      <trkpt lat="45.95611" lon="6.85455">
        <ele>2427</ele>
        <time>2026-08-04T09:28:36.131Z</time>
      </trkpt>
      <trkpt lat="45.9561" lon="6.85454">
        <ele>2427</ele>
        <time>2026-08-04T09:28:37.131Z</time>
      </trkpt>
      <trkpt lat="45.95609" lon="6.85453">
        <ele>2427</ele>
        <time>2026-08-04T09:28:38.131Z</time>
      </trkpt>
      <trkpt lat="45.95609" lon="6.85453">
        <ele>2426</ele>
        <time>2026-08-04T09:28:39.131Z</time>
      </trkpt>
      <trkpt lat="45.95608" lon="6.85453">
        <ele>2426</ele>
        <time>2026-08-04T09:28:40.131Z</time>
      </trkpt>
      <trkpt lat="45.95608" lon="6.85453">
        <ele>2426</ele>
        <time>2026-08-04T09:28:41.131Z</time>
      </trkpt>
      <trkpt lat="45.95608" lon="6.85454">
        <ele>2426</ele>
        <time>2026-08-04T09:28:42.131Z</time>
      </trkpt>
      <trkpt lat="45.95608" lon="6.85455">
        <ele>2426</ele>
        <time>2026-08-04T09:28:43.131Z</time>
      </trkpt>
      <trkpt lat="45.95608" lon="6.85456">
        <ele>2426</ele>
        <time>2026-08-04T09:28:44.131Z</time>
      </trkpt>
      <trkpt lat="45.95607" lon="6.85457">
        <ele>2426</ele>
        <time>2026-08-04T09:28:45.131Z</time>
      </trkpt>
      <trkpt lat="45.95607" lon="6.85458">
        <ele>2425</ele>
        <time>2026-08-04T09:28:46.131Z</time>
      </trkpt>
      <trkpt lat="45.95606" lon="6.85458">
        <ele>2425</ele>
        <time>2026-08-04T09:28:47.131Z</time>
      </trkpt>
      <trkpt lat="45.95606" lon="6.85458">
        <ele>2425</ele>
        <time>2026-08-04T09:28:48.131Z</time>
      </trkpt>
      <trkpt lat="45.95606" lon="6.85458">
        <ele>2425</ele>
        <time>2026-08-04T09:28:49.131Z</time>
      </trkpt>
      <trkpt lat="45.95606" lon="6.85458">
        <ele>2424</ele>
        <time>2026-08-04T09:28:50.131Z</time>
      </trkpt>
      <trkpt lat="45.95606" lon="6.85458">
        <ele>2424</ele>
        <time>2026-08-04T09:28:51.131Z</time>
      </trkpt>
      <trkpt lat="45.95606" lon="6.85458">
        <ele>2424</ele>
        <time>2026-08-04T09:28:52.131Z</time>
      </trkpt>
      <trkpt lat="45.95605" lon="6.85458">
        <ele>2424</ele>
        <time>2026-08-04T09:28:53.131Z</time>
      </trkpt>
      <trkpt lat="45.95605" lon="6.85458">
        <ele>2424</ele>
        <time>2026-08-04T09:28:54.131Z</time>
      </trkpt>
      <trkpt lat="45.95605" lon="6.85458">
        <ele>2424</ele>
        <time>2026-08-04T09:28:55.131Z</time>
      </trkpt>
      <trkpt lat="45.95605" lon="6.85458">
        <ele>2424</ele>
        <time>2026-08-04T09:28:56.131Z</time>
      </trkpt>
      <trkpt lat="45.95605" lon="6.85458">
        <ele>2424</ele>
        <time>2026-08-04T09:28:57.131Z</time>
      </trkpt>
      <trkpt lat="45.95605" lon="6.85458">
        <ele>2424</ele>
        <time>2026-08-04T09:28:58.131Z</time>
      </trkpt>
      <trkpt lat="45.95605" lon="6.85458">
        <ele>2424</ele>
        <time>2026-08-04T09:28:59.131Z</time>
      </trkpt>
      <trkpt lat="45.95605" lon="6.85458">
        <ele>2424</ele>
        <time>2026-08-04T09:29:00.131Z</time>
      </trkpt>
      <trkpt lat="45.95605" lon="6.85458">
        <ele>2424</ele>
        <time>2026-08-04T09:29:01.132Z</time>
      </trkpt>
      <trkpt lat="45.95605" lon="6.85458">
        <ele>2424</ele>
        <time>2026-08-04T09:29:02.131Z</time>
      </trkpt>
      <trkpt lat="45.95605" lon="6.85458">
        <ele>2424</ele>
        <time>2026-08-04T09:29:03.131Z</time>
      </trkpt>
      <trkpt lat="45.95605" lon="6.85458">
        <ele>2424</ele>
        <time>2026-08-04T09:29:04.131Z</time>
      </trkpt>
      <trkpt lat="45.95605" lon="6.85458">
        <ele>2424</ele>
        <time>2026-08-04T09:29:05.131Z</time>
      </trkpt>
      <trkpt lat="45.95605" lon="6.85458">
        <ele>2424</ele>
        <time>2026-08-04T09:29:06.131Z</time>
      </trkpt>
      <trkpt lat="45.95605" lon="6.85458">
        <ele>2424</ele>
        <time>2026-08-04T09:29:07.131Z</time>
      </trkpt>
      <trkpt lat="45.95605" lon="6.85458">
        <ele>2424</ele>
        <time>2026-08-04T09:29:08.131Z</time>
      </trkpt>
      <trkpt lat="45.95605" lon="6.85458">
        <ele>2423</ele>
        <time>2026-08-04T09:29:09.131Z</time>
      </trkpt>
      <trkpt lat="45.95605" lon="6.85458">
        <ele>2423</ele>
        <time>2026-08-04T09:29:10.131Z</time>
      </trkpt>
      <trkpt lat="45.95605" lon="6.85458">
        <ele>2423</ele>
        <time>2026-08-04T09:29:11.131Z</time>
      </trkpt>
      <trkpt lat="45.95605" lon="6.85458">
        <ele>2423</ele>
        <time>2026-08-04T09:29:12.131Z</time>
      </trkpt>
      <trkpt lat="45.95605" lon="6.85458">
        <ele>2423</ele>
        <time>2026-08-04T09:29:13.131Z</time>
      </trkpt>
      <trkpt lat="45.95605" lon="6.85458">
        <ele>2423</ele>
        <time>2026-08-04T09:29:14.132Z</time>
      </trkpt>
      <trkpt lat="45.95605" lon="6.85458">
        <ele>2423</ele>
        <time>2026-08-04T09:29:15.131Z</time>
      </trkpt>
      <trkpt lat="45.95605" lon="6.85458">
        <ele>2423</ele>
        <time>2026-08-04T09:29:16.131Z</time>
      </trkpt>
      <trkpt lat="45.95605" lon="6.85458">
        <ele>2423</ele>
        <time>2026-08-04T09:29:17.131Z</time>
      </trkpt>
      <trkpt lat="45.95605" lon="6.85458">
        <ele>2423</ele>
        <time>2026-08-04T09:29:18.131Z</time>
      </trkpt>
      <trkpt lat="45.95605" lon="6.85458">
        <ele>2423</ele>
        <time>2026-08-04T09:29:19.131Z</time>
      </trkpt>
      <trkpt lat="45.95605" lon="6.85458">
        <ele>2423</ele>
        <time>2026-08-04T09:29:20.131Z</time>
      </trkpt>
      <trkpt lat="45.95605" lon="6.85459">
        <ele>2423</ele>
        <time>2026-08-04T09:29:21.131Z</time>
      </trkpt>
      <trkpt lat="45.95604" lon="6.8546">
        <ele>2423</ele>
        <time>2026-08-04T09:29:22.131Z</time>
      </trkpt>
      <trkpt lat="45.95602" lon="6.85461">
        <ele>2423</ele>
        <time>2026-08-04T09:29:23.131Z</time>
      </trkpt>
      <trkpt lat="45.95601" lon="6.85461">
        <ele>2422</ele>
        <time>2026-08-04T09:29:24.131Z</time>
      </trkpt>
      <trkpt lat="45.956" lon="6.85461">
        <ele>2422</ele>
        <time>2026-08-04T09:29:25.131Z</time>
      </trkpt>
      <trkpt lat="45.95599" lon="6.85461">
        <ele>2422</ele>
        <time>2026-08-04T09:29:26.131Z</time>
      </trkpt>
      <trkpt lat="45.95598" lon="6.85462">
        <ele>2422</ele>
        <time>2026-08-04T09:29:27.131Z</time>
      </trkpt>
      <trkpt lat="45.95597" lon="6.85461">
        <ele>2421</ele>
        <time>2026-08-04T09:29:28.131Z</time>
      </trkpt>
      <trkpt lat="45.95596" lon="6.85461">
        <ele>2421</ele>
        <time>2026-08-04T09:29:29.131Z</time>
      </trkpt>
      <trkpt lat="45.95596" lon="6.85461">
        <ele>2421</ele>
        <time>2026-08-04T09:29:30.131Z</time>
      </trkpt>
      <trkpt lat="45.95595" lon="6.8546">
        <ele>2421</ele>
        <time>2026-08-04T09:29:31.131Z</time>
      </trkpt>
      <trkpt lat="45.95594" lon="6.8546">
        <ele>2420</ele>
        <time>2026-08-04T09:29:32.131Z</time>
      </trkpt>
      <trkpt lat="45.95593" lon="6.8546">
        <ele>2420</ele>
        <time>2026-08-04T09:29:33.131Z</time>
      </trkpt>
      <trkpt lat="45.95592" lon="6.85459">
        <ele>2419</ele>
        <time>2026-08-04T09:29:34.131Z</time>
      </trkpt>
      <trkpt lat="45.95592" lon="6.85458">
        <ele>2419</ele>
        <time>2026-08-04T09:29:35.131Z</time>
      </trkpt>
      <trkpt lat="45.95591" lon="6.85457">
        <ele>2419</ele>
        <time>2026-08-04T09:29:36.131Z</time>
      </trkpt>
      <trkpt lat="45.9559" lon="6.85456">
        <ele>2419</ele>
        <time>2026-08-04T09:29:37.131Z</time>
      </trkpt>
      <trkpt lat="45.95589" lon="6.85455">
        <ele>2418</ele>
        <time>2026-08-04T09:29:38.132Z</time>
      </trkpt>
      <trkpt lat="45.95589" lon="6.85455">
        <ele>2418</ele>
        <time>2026-08-04T09:29:39.131Z</time>
      </trkpt>
      <trkpt lat="45.95589" lon="6.85455">
        <ele>2417</ele>
        <time>2026-08-04T09:29:40.131Z</time>
      </trkpt>
      <trkpt lat="45.95589" lon="6.85454">
        <ele>2417</ele>
        <time>2026-08-04T09:29:41.131Z</time>
      </trkpt>
      <trkpt lat="45.95589" lon="6.85454">
        <ele>2417</ele>
        <time>2026-08-04T09:29:42.131Z</time>
      </trkpt>
      <trkpt lat="45.9559" lon="6.85453">
        <ele>2416</ele>
        <time>2026-08-04T09:29:43.131Z</time>
      </trkpt>
      <trkpt lat="45.95591" lon="6.85453">
        <ele>2416</ele>
        <time>2026-08-04T09:29:44.131Z</time>
      </trkpt>
      <trkpt lat="45.95592" lon="6.85453">
        <ele>2416</ele>
        <time>2026-08-04T09:29:45.131Z</time>
      </trkpt>
      <trkpt lat="45.95593" lon="6.85452">
        <ele>2416</ele>
        <time>2026-08-04T09:29:46.131Z</time>
      </trkpt>
      <trkpt lat="45.95593" lon="6.85451">
        <ele>2416</ele>
        <time>2026-08-04T09:29:47.131Z</time>
      </trkpt>
      <trkpt lat="45.95593" lon="6.8545">
        <ele>2416</ele>
        <time>2026-08-04T09:29:48.131Z</time>
      </trkpt>
      <trkpt lat="45.95593" lon="6.85448">
        <ele>2416</ele>
        <time>2026-08-04T09:29:49.131Z</time>
      </trkpt>
      <trkpt lat="45.95593" lon="6.85447">
        <ele>2416</ele>
        <time>2026-08-04T09:29:50.131Z</time>
      </trkpt>
      <trkpt lat="45.95594" lon="6.85446">
        <ele>2417</ele>
        <time>2026-08-04T09:29:51.131Z</time>
      </trkpt>
      <trkpt lat="45.95594" lon="6.85444">
        <ele>2417</ele>
        <time>2026-08-04T09:29:52.131Z</time>
      </trkpt>
      <trkpt lat="45.95594" lon="6.85444">
        <ele>2417</ele>
        <time>2026-08-04T09:29:53.131Z</time>
      </trkpt>
      <trkpt lat="45.95594" lon="6.85444">
        <ele>2418</ele>
        <time>2026-08-04T09:29:54.131Z</time>
      </trkpt>
      <trkpt lat="45.95594" lon="6.85443">
        <ele>2418</ele>
        <time>2026-08-04T09:29:55.131Z</time>
      </trkpt>
      <trkpt lat="45.95594" lon="6.85443">
        <ele>2417</ele>
        <time>2026-08-04T09:29:56.131Z</time>
      </trkpt>
      <trkpt lat="45.95594" lon="6.85443">
        <ele>2417</ele>
        <time>2026-08-04T09:29:57.131Z</time>
      </trkpt>
      <trkpt lat="45.95594" lon="6.85443">
        <ele>2417</ele>
        <time>2026-08-04T09:29:58.131Z</time>
      </trkpt>
      <trkpt lat="45.95594" lon="6.85443">
        <ele>2417</ele>
        <time>2026-08-04T09:29:59.131Z</time>
      </trkpt>
      <trkpt lat="45.95594" lon="6.85443">
        <ele>2417</ele>
        <time>2026-08-04T09:30:00.131Z</time>
      </trkpt>
      <trkpt lat="45.95594" lon="6.85442">
        <ele>2417</ele>
        <time>2026-08-04T09:30:01.131Z</time>
      </trkpt>
      <trkpt lat="45.95594" lon="6.85442">
        <ele>2417</ele>
        <time>2026-08-04T09:30:02.131Z</time>
      </trkpt>
      <trkpt lat="45.95594" lon="6.85442">
        <ele>2417</ele>
        <time>2026-08-04T09:30:03.131Z</time>
      </trkpt>
      <trkpt lat="45.95594" lon="6.85441">
        <ele>2417</ele>
        <time>2026-08-04T09:30:04.131Z</time>
      </trkpt>
      <trkpt lat="45.95593" lon="6.85441">
        <ele>2417</ele>
        <time>2026-08-04T09:30:05.131Z</time>
      </trkpt>
      <trkpt lat="45.95593" lon="6.8544">
        <ele>2417</ele>
        <time>2026-08-04T09:30:06.131Z</time>
      </trkpt>
      <trkpt lat="45.95593" lon="6.85438">
        <ele>2417</ele>
        <time>2026-08-04T09:30:07.131Z</time>
      </trkpt>
      <trkpt lat="45.95593" lon="6.85437">
        <ele>2416</ele>
        <time>2026-08-04T09:30:08.131Z</time>
      </trkpt>
      <trkpt lat="45.95593" lon="6.85436">
        <ele>2416</ele>
        <time>2026-08-04T09:30:09.131Z</time>
      </trkpt>
      <trkpt lat="45.95593" lon="6.85434">
        <ele>2416</ele>
        <time>2026-08-04T09:30:10.131Z</time>
      </trkpt>
      <trkpt lat="45.95593" lon="6.85433">
        <ele>2415</ele>
        <time>2026-08-04T09:30:11.131Z</time>
      </trkpt>
      <trkpt lat="45.95593" lon="6.85432">
        <ele>2415</ele>
        <time>2026-08-04T09:30:12.131Z</time>
      </trkpt>
      <trkpt lat="45.95593" lon="6.85431">
        <ele>2414</ele>
        <time>2026-08-04T09:30:13.131Z</time>
      </trkpt>
      <trkpt lat="45.95593" lon="6.85431">
        <ele>2414</ele>
        <time>2026-08-04T09:30:14.131Z</time>
      </trkpt>
      <trkpt lat="45.95592" lon="6.85431">
        <ele>2414</ele>
        <time>2026-08-04T09:30:15.131Z</time>
      </trkpt>
      <trkpt lat="45.95592" lon="6.85431">
        <ele>2413</ele>
        <time>2026-08-04T09:30:16.131Z</time>
      </trkpt>
      <trkpt lat="45.95592" lon="6.85432">
        <ele>2413</ele>
        <time>2026-08-04T09:30:17.131Z</time>
      </trkpt>
      <trkpt lat="45.95591" lon="6.85433">
        <ele>2413</ele>
        <time>2026-08-04T09:30:18.131Z</time>
      </trkpt>
      <trkpt lat="45.9559" lon="6.85434">
        <ele>2413</ele>
        <time>2026-08-04T09:30:19.131Z</time>
      </trkpt>
      <trkpt lat="45.95589" lon="6.85434">
        <ele>2413</ele>
        <time>2026-08-04T09:30:20.131Z</time>
      </trkpt>
      <trkpt lat="45.95588" lon="6.85435">
        <ele>2413</ele>
        <time>2026-08-04T09:30:21.131Z</time>
      </trkpt>
      <trkpt lat="45.95587" lon="6.85436">
        <ele>2413</ele>
        <time>2026-08-04T09:30:22.131Z</time>
      </trkpt>
      <trkpt lat="45.95586" lon="6.85436">
        <ele>2413</ele>
        <time>2026-08-04T09:30:23.131Z</time>
      </trkpt>
      <trkpt lat="45.95585" lon="6.85437">
        <ele>2413</ele>
        <time>2026-08-04T09:30:24.131Z</time>
      </trkpt>
      <trkpt lat="45.95584" lon="6.85437">
        <ele>2413</ele>
        <time>2026-08-04T09:30:25.131Z</time>
      </trkpt>
      <trkpt lat="45.95583" lon="6.85438">
        <ele>2413</ele>
        <time>2026-08-04T09:30:26.131Z</time>
      </trkpt>
      <trkpt lat="45.95583" lon="6.85439">
        <ele>2413</ele>
        <time>2026-08-04T09:30:27.131Z</time>
      </trkpt>
      <trkpt lat="45.95582" lon="6.85439">
        <ele>2413</ele>
        <time>2026-08-04T09:30:28.131Z</time>
      </trkpt>
      <trkpt lat="45.95582" lon="6.8544">
        <ele>2413</ele>
        <time>2026-08-04T09:30:29.131Z</time>
      </trkpt>
      <trkpt lat="45.95581" lon="6.85441">
        <ele>2413</ele>
        <time>2026-08-04T09:30:30.131Z</time>
      </trkpt>
      <trkpt lat="45.9558" lon="6.85441">
        <ele>2413</ele>
        <time>2026-08-04T09:30:31.131Z</time>
      </trkpt>
      <trkpt lat="45.9558" lon="6.85442">
        <ele>2413</ele>
        <time>2026-08-04T09:30:32.131Z</time>
      </trkpt>
      <trkpt lat="45.95579" lon="6.85443">
        <ele>2412</ele>
        <time>2026-08-04T09:30:33.131Z</time>
      </trkpt>
      <trkpt lat="45.95578" lon="6.85444">
        <ele>2412</ele>
        <time>2026-08-04T09:30:34.131Z</time>
      </trkpt>
      <trkpt lat="45.95577" lon="6.85444">
        <ele>2412</ele>
        <time>2026-08-04T09:30:35.131Z</time>
      </trkpt>
      <trkpt lat="45.95576" lon="6.85445">
        <ele>2412</ele>
        <time>2026-08-04T09:30:36.131Z</time>
      </trkpt>
      <trkpt lat="45.95575" lon="6.85445">
        <ele>2412</ele>
        <time>2026-08-04T09:30:37.131Z</time>
      </trkpt>
      <trkpt lat="45.95574" lon="6.85446">
        <ele>2412</ele>
        <time>2026-08-04T09:30:38.131Z</time>
      </trkpt>
      <trkpt lat="45.95573" lon="6.85447">
        <ele>2412</ele>
        <time>2026-08-04T09:30:39.131Z</time>
      </trkpt>
      <trkpt lat="45.95572" lon="6.85448">
        <ele>2412</ele>
        <time>2026-08-04T09:30:40.131Z</time>
      </trkpt>
      <trkpt lat="45.95571" lon="6.85448">
        <ele>2413</ele>
        <time>2026-08-04T09:30:41.131Z</time>
      </trkpt>
      <trkpt lat="45.95569" lon="6.85448">
        <ele>2413</ele>
        <time>2026-08-04T09:30:42.131Z</time>
      </trkpt>
      <trkpt lat="45.95568" lon="6.85448">
        <ele>2413</ele>
        <time>2026-08-04T09:30:43.131Z</time>
      </trkpt>
      <trkpt lat="45.95567" lon="6.85448">
        <ele>2413</ele>
        <time>2026-08-04T09:30:44.131Z</time>
      </trkpt>
      <trkpt lat="45.95566" lon="6.85447">
        <ele>2413</ele>
        <time>2026-08-04T09:30:45.131Z</time>
      </trkpt>
      <trkpt lat="45.95565" lon="6.85447">
        <ele>2413</ele>
        <time>2026-08-04T09:30:46.131Z</time>
      </trkpt>
      <trkpt lat="45.95564" lon="6.85448">
        <ele>2413</ele>
        <time>2026-08-04T09:30:47.131Z</time>
      </trkpt>
      <trkpt lat="45.95563" lon="6.85449">
        <ele>2413</ele>
        <time>2026-08-04T09:30:48.131Z</time>
      </trkpt>
      <trkpt lat="45.95563" lon="6.8545">
        <ele>2412</ele>
        <time>2026-08-04T09:30:49.131Z</time>
      </trkpt>
      <trkpt lat="45.95562" lon="6.8545">
        <ele>2412</ele>
        <time>2026-08-04T09:30:50.131Z</time>
      </trkpt>
      <trkpt lat="45.95561" lon="6.85449">
        <ele>2411</ele>
        <time>2026-08-04T09:30:51.131Z</time>
      </trkpt>
      <trkpt lat="45.9556" lon="6.85449">
        <ele>2411</ele>
        <time>2026-08-04T09:30:52.131Z</time>
      </trkpt>
      <trkpt lat="45.95559" lon="6.85449">
        <ele>2411</ele>
        <time>2026-08-04T09:30:53.131Z</time>
      </trkpt>
      <trkpt lat="45.95559" lon="6.85449">
        <ele>2411</ele>
        <time>2026-08-04T09:30:54.131Z</time>
      </trkpt>
      <trkpt lat="45.95557" lon="6.85449">
        <ele>2410</ele>
        <time>2026-08-04T09:30:55.131Z</time>
      </trkpt>
      <trkpt lat="45.95557" lon="6.85449">
        <ele>2410</ele>
        <time>2026-08-04T09:30:56.131Z</time>
      </trkpt>
      <trkpt lat="45.95556" lon="6.85449">
        <ele>2410</ele>
        <time>2026-08-04T09:30:57.131Z</time>
      </trkpt>
      <trkpt lat="45.95555" lon="6.85448">
        <ele>2410</ele>
        <time>2026-08-04T09:30:58.131Z</time>
      </trkpt>
      <trkpt lat="45.95554" lon="6.85448">
        <ele>2410</ele>
        <time>2026-08-04T09:30:59.131Z</time>
      </trkpt>
      <trkpt lat="45.95553" lon="6.85448">
        <ele>2410</ele>
        <time>2026-08-04T09:31:00.131Z</time>
      </trkpt>
      <trkpt lat="45.95552" lon="6.85448">
        <ele>2410</ele>
        <time>2026-08-04T09:31:01.131Z</time>
      </trkpt>
      <trkpt lat="45.95551" lon="6.85449">
        <ele>2410</ele>
        <time>2026-08-04T09:31:02.131Z</time>
      </trkpt>
      <trkpt lat="45.95551" lon="6.85449">
        <ele>2410</ele>
        <time>2026-08-04T09:31:03.131Z</time>
      </trkpt>
      <trkpt lat="45.9555" lon="6.85449">
        <ele>2410</ele>
        <time>2026-08-04T09:31:04.131Z</time>
      </trkpt>
      <trkpt lat="45.9555" lon="6.8545">
        <ele>2410</ele>
        <time>2026-08-04T09:31:05.131Z</time>
      </trkpt>
      <trkpt lat="45.9555" lon="6.8545">
        <ele>2410</ele>
        <time>2026-08-04T09:31:06.131Z</time>
      </trkpt>
      <trkpt lat="45.9555" lon="6.85451">
        <ele>2410</ele>
        <time>2026-08-04T09:31:07.131Z</time>
      </trkpt>
      <trkpt lat="45.95549" lon="6.85452">
        <ele>2410</ele>
        <time>2026-08-04T09:31:08.131Z</time>
      </trkpt>
      <trkpt lat="45.95549" lon="6.85454">
        <ele>2410</ele>
        <time>2026-08-04T09:31:09.131Z</time>
      </trkpt>
      <trkpt lat="45.95548" lon="6.85455">
        <ele>2410</ele>
        <time>2026-08-04T09:31:10.131Z</time>
      </trkpt>
      <trkpt lat="45.95548" lon="6.85455">
        <ele>2410</ele>
        <time>2026-08-04T09:31:11.131Z</time>
      </trkpt>
      <trkpt lat="45.95547" lon="6.85456">
        <ele>2410</ele>
        <time>2026-08-04T09:31:12.131Z</time>
      </trkpt>
      <trkpt lat="45.95546" lon="6.85457">
        <ele>2410</ele>
        <time>2026-08-04T09:31:13.131Z</time>
      </trkpt>
      <trkpt lat="45.95546" lon="6.85457">
        <ele>2410</ele>
        <time>2026-08-04T09:31:14.131Z</time>
      </trkpt>
      <trkpt lat="45.95545" lon="6.85457">
        <ele>2410</ele>
        <time>2026-08-04T09:31:15.131Z</time>
      </trkpt>
      <trkpt lat="45.95545" lon="6.85457">
        <ele>2410</ele>
        <time>2026-08-04T09:31:16.131Z</time>
      </trkpt>
      <trkpt lat="45.95544" lon="6.85458">
        <ele>2410</ele>
        <time>2026-08-04T09:31:17.131Z</time>
      </trkpt>
      <trkpt lat="45.95544" lon="6.85458">
        <ele>2410</ele>
        <time>2026-08-04T09:31:18.131Z</time>
      </trkpt>
      <trkpt lat="45.95543" lon="6.85459">
        <ele>2410</ele>
        <time>2026-08-04T09:31:19.132Z</time>
      </trkpt>
      <trkpt lat="45.95542" lon="6.85459">
        <ele>2410</ele>
        <time>2026-08-04T09:31:20.131Z</time>
      </trkpt>
      <trkpt lat="45.95541" lon="6.8546">
        <ele>2410</ele>
        <time>2026-08-04T09:31:21.131Z</time>
      </trkpt>
      <trkpt lat="45.9554" lon="6.85461">
        <ele>2410</ele>
        <time>2026-08-04T09:31:22.131Z</time>
      </trkpt>
      <trkpt lat="45.9554" lon="6.85461">
        <ele>2410</ele>
        <time>2026-08-04T09:31:23.131Z</time>
      </trkpt>
      <trkpt lat="45.95539" lon="6.85461">
        <ele>2410</ele>
        <time>2026-08-04T09:31:24.131Z</time>
      </trkpt>
      <trkpt lat="45.95538" lon="6.85461">
        <ele>2410</ele>
        <time>2026-08-04T09:31:25.131Z</time>
      </trkpt>
      <trkpt lat="45.95537" lon="6.8546">
        <ele>2410</ele>
        <time>2026-08-04T09:31:26.131Z</time>
      </trkpt>
      <trkpt lat="45.95536" lon="6.8546">
        <ele>2410</ele>
        <time>2026-08-04T09:31:27.131Z</time>
      </trkpt>
      <trkpt lat="45.95535" lon="6.8546">
        <ele>2410</ele>
        <time>2026-08-04T09:31:28.132Z</time>
      </trkpt>
      <trkpt lat="45.95535" lon="6.8546">
        <ele>2410</ele>
        <time>2026-08-04T09:31:29.131Z</time>
      </trkpt>
      <trkpt lat="45.95534" lon="6.8546">
        <ele>2410</ele>
        <time>2026-08-04T09:31:30.131Z</time>
      </trkpt>
      <trkpt lat="45.95534" lon="6.85459">
        <ele>2410</ele>
        <time>2026-08-04T09:31:31.131Z</time>
      </trkpt>
      <trkpt lat="45.95534" lon="6.85459">
        <ele>2410</ele>
        <time>2026-08-04T09:31:32.131Z</time>
      </trkpt>
      <trkpt lat="45.95534" lon="6.8546">
        <ele>2409</ele>
        <time>2026-08-04T09:31:33.131Z</time>
      </trkpt>
      <trkpt lat="45.95533" lon="6.85461">
        <ele>2410</ele>
        <time>2026-08-04T09:31:34.131Z</time>
      </trkpt>
      <trkpt lat="45.95533" lon="6.85461">
        <ele>2410</ele>
        <time>2026-08-04T09:31:35.131Z</time>
      </trkpt>
      <trkpt lat="45.95533" lon="6.85463">
        <ele>2409</ele>
        <time>2026-08-04T09:31:55.646Z</time>
      </trkpt>
      <trkpt lat="45.95533" lon="6.85463">
        <ele>2409</ele>
        <time>2026-08-04T09:31:56.646Z</time>
      </trkpt>
      <trkpt lat="45.95533" lon="6.85463">
        <ele>2409</ele>
        <time>2026-08-04T09:31:57.646Z</time>
      </trkpt>
      <trkpt lat="45.95533" lon="6.85463">
        <ele>2409</ele>
        <time>2026-08-04T09:31:58.646Z</time>
      </trkpt>
      <trkpt lat="45.95533" lon="6.85463">
        <ele>2409</ele>
        <time>2026-08-04T09:31:59.646Z</time>
      </trkpt>
      <trkpt lat="45.95533" lon="6.85463">
        <ele>2409</ele>
        <time>2026-08-04T09:32:00.646Z</time>
      </trkpt>
      <trkpt lat="45.95533" lon="6.85463">
        <ele>2409</ele>
        <time>2026-08-04T09:32:01.646Z</time>
      </trkpt>
      <trkpt lat="45.95533" lon="6.85463">
        <ele>2409</ele>
        <time>2026-08-04T09:32:02.646Z</time>
      </trkpt>
      <trkpt lat="45.95533" lon="6.85463">
        <ele>2409</ele>
        <time>2026-08-04T09:32:03.646Z</time>
      </trkpt>
      <trkpt lat="45.95533" lon="6.85463">
        <ele>2409</ele>
        <time>2026-08-04T09:32:04.646Z</time>
      </trkpt>
      <trkpt lat="45.95533" lon="6.85463">
        <ele>2409</ele>
        <time>2026-08-04T09:32:05.646Z</time>
      </trkpt>
      <trkpt lat="45.95533" lon="6.85463">
        <ele>2409</ele>
        <time>2026-08-04T09:32:06.646Z</time>
      </trkpt>
      <trkpt lat="45.95533" lon="6.85464">
        <ele>2409</ele>
        <time>2026-08-04T09:32:07.646Z</time>
      </trkpt>
      <trkpt lat="45.95533" lon="6.85465">
        <ele>2409</ele>
        <time>2026-08-04T09:32:08.646Z</time>
      </trkpt>
      <trkpt lat="45.95531" lon="6.85466">
        <ele>2409</ele>
        <time>2026-08-04T09:32:09.646Z</time>
      </trkpt>
      <trkpt lat="45.9553" lon="6.85468">
        <ele>2409</ele>
        <time>2026-08-04T09:32:10.646Z</time>
      </trkpt>
      <trkpt lat="45.95529" lon="6.8547">
        <ele>2409</ele>
        <time>2026-08-04T09:32:11.646Z</time>
      </trkpt>
      <trkpt lat="45.95528" lon="6.85471">
        <ele>2408</ele>
        <time>2026-08-04T09:32:12.646Z</time>
      </trkpt>
      <trkpt lat="45.95527" lon="6.85472">
        <ele>2408</ele>
        <time>2026-08-04T09:32:13.646Z</time>
      </trkpt>
      <trkpt lat="45.95525" lon="6.85472">
        <ele>2408</ele>
        <time>2026-08-04T09:32:14.646Z</time>
      </trkpt>
      <trkpt lat="45.95524" lon="6.85472">
        <ele>2408</ele>
        <time>2026-08-04T09:32:15.646Z</time>
      </trkpt>
      <trkpt lat="45.95523" lon="6.85473">
        <ele>2408</ele>
        <time>2026-08-04T09:32:16.646Z</time>
      </trkpt>
      <trkpt lat="45.95523" lon="6.85474">
        <ele>2408</ele>
        <time>2026-08-04T09:32:17.646Z</time>
      </trkpt>
      <trkpt lat="45.95522" lon="6.85474">
        <ele>2408</ele>
        <time>2026-08-04T09:32:18.646Z</time>
      </trkpt>
      <trkpt lat="45.95522" lon="6.85475">
        <ele>2408</ele>
        <time>2026-08-04T09:32:19.646Z</time>
      </trkpt>
      <trkpt lat="45.95521" lon="6.85476">
        <ele>2408</ele>
        <time>2026-08-04T09:32:20.646Z</time>
      </trkpt>
      <trkpt lat="45.9552" lon="6.85477">
        <ele>2408</ele>
        <time>2026-08-04T09:32:21.646Z</time>
      </trkpt>
      <trkpt lat="45.95519" lon="6.85477">
        <ele>2407</ele>
        <time>2026-08-04T09:32:22.646Z</time>
      </trkpt>
      <trkpt lat="45.95518" lon="6.85478">
        <ele>2407</ele>
        <time>2026-08-04T09:32:23.646Z</time>
      </trkpt>
      <trkpt lat="45.95517" lon="6.85478">
        <ele>2407</ele>
        <time>2026-08-04T09:32:24.646Z</time>
      </trkpt>
      <trkpt lat="45.95516" lon="6.85478">
        <ele>2406</ele>
        <time>2026-08-04T09:32:25.646Z</time>
      </trkpt>
      <trkpt lat="45.95515" lon="6.85478">
        <ele>2406</ele>
        <time>2026-08-04T09:32:26.646Z</time>
      </trkpt>
      <trkpt lat="45.95514" lon="6.85478">
        <ele>2406</ele>
        <time>2026-08-04T09:32:27.646Z</time>
      </trkpt>
      <trkpt lat="45.95514" lon="6.85479">
        <ele>2405</ele>
        <time>2026-08-04T09:32:28.646Z</time>
      </trkpt>
      <trkpt lat="45.95513" lon="6.85479">
        <ele>2405</ele>
        <time>2026-08-04T09:32:29.646Z</time>
      </trkpt>
      <trkpt lat="45.95513" lon="6.85479">
        <ele>2405</ele>
        <time>2026-08-04T09:32:30.646Z</time>
      </trkpt>
      <trkpt lat="45.95513" lon="6.85479">
        <ele>2405</ele>
        <time>2026-08-04T09:32:31.646Z</time>
      </trkpt>
      <trkpt lat="45.95512" lon="6.85479">
        <ele>2405</ele>
        <time>2026-08-04T09:32:32.646Z</time>
      </trkpt>
      <trkpt lat="45.95511" lon="6.85479">
        <ele>2405</ele>
        <time>2026-08-04T09:32:33.646Z</time>
      </trkpt>
      <trkpt lat="45.95511" lon="6.85479">
        <ele>2405</ele>
        <time>2026-08-04T09:32:34.646Z</time>
      </trkpt>
      <trkpt lat="45.9551" lon="6.85479">
        <ele>2405</ele>
        <time>2026-08-04T09:32:35.646Z</time>
      </trkpt>
      <trkpt lat="45.95509" lon="6.85479">
        <ele>2405</ele>
        <time>2026-08-04T09:32:36.646Z</time>
      </trkpt>
      <trkpt lat="45.95508" lon="6.85478">
        <ele>2405</ele>
        <time>2026-08-04T09:32:37.646Z</time>
      </trkpt>
      <trkpt lat="45.95507" lon="6.85478">
        <ele>2405</ele>
        <time>2026-08-04T09:32:38.646Z</time>
      </trkpt>
      <trkpt lat="45.95507" lon="6.85479">
        <ele>2405</ele>
        <time>2026-08-04T09:32:39.646Z</time>
      </trkpt>
      <trkpt lat="45.95506" lon="6.85479">
        <ele>2405</ele>
        <time>2026-08-04T09:32:40.646Z</time>
      </trkpt>
      <trkpt lat="45.95506" lon="6.8548">
        <ele>2405</ele>
        <time>2026-08-04T09:32:41.646Z</time>
      </trkpt>
      <trkpt lat="45.95505" lon="6.85481">
        <ele>2405</ele>
        <time>2026-08-04T09:32:42.646Z</time>
      </trkpt>
      <trkpt lat="45.95505" lon="6.85482">
        <ele>2405</ele>
        <time>2026-08-04T09:32:43.646Z</time>
      </trkpt>
      <trkpt lat="45.95505" lon="6.85484">
        <ele>2405</ele>
        <time>2026-08-04T09:32:44.646Z</time>
      </trkpt>
      <trkpt lat="45.95505" lon="6.85485">
        <ele>2405</ele>
        <time>2026-08-04T09:32:45.646Z</time>
      </trkpt>
      <trkpt lat="45.95505" lon="6.85486">
        <ele>2404</ele>
        <time>2026-08-04T09:32:46.646Z</time>
      </trkpt>
      <trkpt lat="45.95506" lon="6.85486">
        <ele>2404</ele>
        <time>2026-08-04T09:32:47.646Z</time>
      </trkpt>
      <trkpt lat="45.95507" lon="6.85487">
        <ele>2405</ele>
        <time>2026-08-04T09:32:48.646Z</time>
      </trkpt>
      <trkpt lat="45.95507" lon="6.85487">
        <ele>2405</ele>
        <time>2026-08-04T09:32:49.646Z</time>
      </trkpt>
      <trkpt lat="45.95508" lon="6.85488">
        <ele>2405</ele>
        <time>2026-08-04T09:32:50.646Z</time>
      </trkpt>
      <trkpt lat="45.95508" lon="6.8549">
        <ele>2405</ele>
        <time>2026-08-04T09:32:51.646Z</time>
      </trkpt>
      <trkpt lat="45.95507" lon="6.85491">
        <ele>2404</ele>
        <time>2026-08-04T09:32:52.646Z</time>
      </trkpt>
      <trkpt lat="45.95506" lon="6.85493">
        <ele>2404</ele>
        <time>2026-08-04T09:32:53.646Z</time>
      </trkpt>
      <trkpt lat="45.95506" lon="6.85495">
        <ele>2404</ele>
        <time>2026-08-04T09:32:54.646Z</time>
      </trkpt>
      <trkpt lat="45.95505" lon="6.85497">
        <ele>2404</ele>
        <time>2026-08-04T09:32:55.646Z</time>
      </trkpt>
      <trkpt lat="45.95504" lon="6.85499">
        <ele>2404</ele>
        <time>2026-08-04T09:32:56.646Z</time>
      </trkpt>
      <trkpt lat="45.95503" lon="6.855">
        <ele>2404</ele>
        <time>2026-08-04T09:32:57.646Z</time>
      </trkpt>
      <trkpt lat="45.95502" lon="6.85501">
        <ele>2403</ele>
        <time>2026-08-04T09:32:58.646Z</time>
      </trkpt>
      <trkpt lat="45.95501" lon="6.855">
        <ele>2404</ele>
        <time>2026-08-04T09:32:59.646Z</time>
      </trkpt>
      <trkpt lat="45.955" lon="6.85499">
        <ele>2404</ele>
        <time>2026-08-04T09:33:00.646Z</time>
      </trkpt>
      <trkpt lat="45.955" lon="6.85498">
        <ele>2404</ele>
        <time>2026-08-04T09:33:01.646Z</time>
      </trkpt>
      <trkpt lat="45.955" lon="6.85497">
        <ele>2404</ele>
        <time>2026-08-04T09:33:02.646Z</time>
      </trkpt>
      <trkpt lat="45.955" lon="6.85497">
        <ele>2404</ele>
        <time>2026-08-04T09:33:03.646Z</time>
      </trkpt>
      <trkpt lat="45.955" lon="6.85497">
        <ele>2403</ele>
        <time>2026-08-04T09:33:04.646Z</time>
      </trkpt>
      <trkpt lat="45.955" lon="6.85496">
        <ele>2403</ele>
        <time>2026-08-04T09:33:05.646Z</time>
      </trkpt>
      <trkpt lat="45.95499" lon="6.85496">
        <ele>2403</ele>
        <time>2026-08-04T09:33:06.646Z</time>
      </trkpt>
      <trkpt lat="45.95499" lon="6.85495">
        <ele>2403</ele>
        <time>2026-08-04T09:33:07.646Z</time>
      </trkpt>
      <trkpt lat="45.95498" lon="6.85495">
        <ele>2403</ele>
        <time>2026-08-04T09:33:08.646Z</time>
      </trkpt>
      <trkpt lat="45.95498" lon="6.85495">
        <ele>2402</ele>
        <time>2026-08-04T09:33:09.646Z</time>
      </trkpt>
      <trkpt lat="45.95497" lon="6.85494">
        <ele>2402</ele>
        <time>2026-08-04T09:33:10.646Z</time>
      </trkpt>
      <trkpt lat="45.95496" lon="6.85492">
        <ele>2402</ele>
        <time>2026-08-04T09:33:11.646Z</time>
      </trkpt>
      <trkpt lat="45.95495" lon="6.8549">
        <ele>2401</ele>
        <time>2026-08-04T09:33:12.646Z</time>
      </trkpt>
      <trkpt lat="45.95494" lon="6.85489">
        <ele>2401</ele>
        <time>2026-08-04T09:33:13.646Z</time>
      </trkpt>
      <trkpt lat="45.95493" lon="6.85487">
        <ele>2401</ele>
        <time>2026-08-04T09:33:14.646Z</time>
      </trkpt>
      <trkpt lat="45.95493" lon="6.85486">
        <ele>2401</ele>
        <time>2026-08-04T09:33:15.646Z</time>
      </trkpt>
      <trkpt lat="45.95492" lon="6.85485">
        <ele>2401</ele>
        <time>2026-08-04T09:33:16.646Z</time>
      </trkpt>
      <trkpt lat="45.95491" lon="6.85485">
        <ele>2401</ele>
        <time>2026-08-04T09:33:17.646Z</time>
      </trkpt>
      <trkpt lat="45.9549" lon="6.85484">
        <ele>2401</ele>
        <time>2026-08-04T09:33:18.646Z</time>
      </trkpt>
      <trkpt lat="45.9549" lon="6.85484">
        <ele>2401</ele>
        <time>2026-08-04T09:33:19.646Z</time>
      </trkpt>
      <trkpt lat="45.95489" lon="6.85483">
        <ele>2401</ele>
        <time>2026-08-04T09:33:20.646Z</time>
      </trkpt>
      <trkpt lat="45.95489" lon="6.85483">
        <ele>2400</ele>
        <time>2026-08-04T09:33:21.646Z</time>
      </trkpt>
      <trkpt lat="45.95489" lon="6.85483">
        <ele>2400</ele>
        <time>2026-08-04T09:33:22.646Z</time>
      </trkpt>
      <trkpt lat="45.95489" lon="6.85483">
        <ele>2400</ele>
        <time>2026-08-04T09:33:23.646Z</time>
      </trkpt>
      <trkpt lat="45.95489" lon="6.85483">
        <ele>2399</ele>
        <time>2026-08-04T09:33:24.646Z</time>
      </trkpt>
      <trkpt lat="45.95489" lon="6.85483">
        <ele>2399</ele>
        <time>2026-08-04T09:33:25.646Z</time>
      </trkpt>
      <trkpt lat="45.95488" lon="6.85484">
        <ele>2399</ele>
        <time>2026-08-04T09:33:26.646Z</time>
      </trkpt>
      <trkpt lat="45.95488" lon="6.85483">
        <ele>2399</ele>
        <time>2026-08-04T09:33:27.646Z</time>
      </trkpt>
      <trkpt lat="45.95487" lon="6.85483">
        <ele>2399</ele>
        <time>2026-08-04T09:33:28.646Z</time>
      </trkpt>
      <trkpt lat="45.95487" lon="6.85483">
        <ele>2399</ele>
        <time>2026-08-04T09:33:29.646Z</time>
      </trkpt>
      <trkpt lat="45.95486" lon="6.85483">
        <ele>2399</ele>
        <time>2026-08-04T09:33:30.646Z</time>
      </trkpt>
      <trkpt lat="45.95486" lon="6.85483">
        <ele>2399</ele>
        <time>2026-08-04T09:33:31.646Z</time>
      </trkpt>
      <trkpt lat="45.95486" lon="6.85483">
        <ele>2399</ele>
        <time>2026-08-04T09:33:32.646Z</time>
      </trkpt>
      <trkpt lat="45.95486" lon="6.85483">
        <ele>2399</ele>
        <time>2026-08-04T09:33:33.646Z</time>
      </trkpt>
      <trkpt lat="45.95486" lon="6.85483">
        <ele>2398</ele>
        <time>2026-08-04T09:33:34.646Z</time>
      </trkpt>
      <trkpt lat="45.95486" lon="6.85482">
        <ele>2399</ele>
        <time>2026-08-04T09:33:35.646Z</time>
      </trkpt>
      <trkpt lat="45.95485" lon="6.85482">
        <ele>2399</ele>
        <time>2026-08-04T09:33:36.646Z</time>
      </trkpt>
      <trkpt lat="45.95485" lon="6.85482">
        <ele>2399</ele>
        <time>2026-08-04T09:33:37.646Z</time>
      </trkpt>
      <trkpt lat="45.95484" lon="6.85482">
        <ele>2399</ele>
        <time>2026-08-04T09:33:38.646Z</time>
      </trkpt>
      <trkpt lat="45.95483" lon="6.85482">
        <ele>2399</ele>
        <time>2026-08-04T09:33:39.646Z</time>
      </trkpt>
      <trkpt lat="45.95482" lon="6.85482">
        <ele>2398</ele>
        <time>2026-08-04T09:33:40.646Z</time>
      </trkpt>
      <trkpt lat="45.95482" lon="6.85481">
        <ele>2398</ele>
        <time>2026-08-04T09:33:41.646Z</time>
      </trkpt>
      <trkpt lat="45.95481" lon="6.85481">
        <ele>2398</ele>
        <time>2026-08-04T09:33:42.646Z</time>
      </trkpt>
      <trkpt lat="45.95481" lon="6.85481">
        <ele>2398</ele>
        <time>2026-08-04T09:33:43.646Z</time>
      </trkpt>
      <trkpt lat="45.95481" lon="6.85481">
        <ele>2397</ele>
        <time>2026-08-04T09:33:44.646Z</time>
      </trkpt>
      <trkpt lat="45.9548" lon="6.8548">
        <ele>2397</ele>
        <time>2026-08-04T09:33:45.646Z</time>
      </trkpt>
      <trkpt lat="45.9548" lon="6.8548">
        <ele>2397</ele>
        <time>2026-08-04T09:33:46.646Z</time>
      </trkpt>
      <trkpt lat="45.9548" lon="6.8548">
        <ele>2397</ele>
        <time>2026-08-04T09:33:47.646Z</time>
      </trkpt>
      <trkpt lat="45.9548" lon="6.8548">
        <ele>2397</ele>
        <time>2026-08-04T09:33:48.646Z</time>
      </trkpt>
      <trkpt lat="45.9548" lon="6.85479">
        <ele>2397</ele>
        <time>2026-08-04T09:33:49.646Z</time>
      </trkpt>
      <trkpt lat="45.9548" lon="6.85479">
        <ele>2397</ele>
        <time>2026-08-04T09:33:50.646Z</time>
      </trkpt>
      <trkpt lat="45.9548" lon="6.85478">
        <ele>2397</ele>
        <time>2026-08-04T09:33:51.646Z</time>
      </trkpt>
      <trkpt lat="45.9548" lon="6.85478">
        <ele>2397</ele>
        <time>2026-08-04T09:33:52.646Z</time>
      </trkpt>
      <trkpt lat="45.95479" lon="6.85478">
        <ele>2397</ele>
        <time>2026-08-04T09:33:53.646Z</time>
      </trkpt>
      <trkpt lat="45.95477" lon="6.85477">
        <ele>2397</ele>
        <time>2026-08-04T09:33:54.646Z</time>
      </trkpt>
      <trkpt lat="45.95476" lon="6.85477">
        <ele>2397</ele>
        <time>2026-08-04T09:33:55.646Z</time>
      </trkpt>
      <trkpt lat="45.95475" lon="6.85477">
        <ele>2397</ele>
        <time>2026-08-04T09:33:56.646Z</time>
      </trkpt>
      <trkpt lat="45.95474" lon="6.85477">
        <ele>2397</ele>
        <time>2026-08-04T09:33:57.646Z</time>
      </trkpt>
      <trkpt lat="45.95474" lon="6.85477">
        <ele>2397</ele>
        <time>2026-08-04T09:33:58.646Z</time>
      </trkpt>
      <trkpt lat="45.95473" lon="6.85477">
        <ele>2397</ele>
        <time>2026-08-04T09:33:59.646Z</time>
      </trkpt>
      <trkpt lat="45.95473" lon="6.85477">
        <ele>2397</ele>
        <time>2026-08-04T09:34:00.646Z</time>
      </trkpt>
      <trkpt lat="45.95472" lon="6.85477">
        <ele>2397</ele>
        <time>2026-08-04T09:34:01.646Z</time>
      </trkpt>
      <trkpt lat="45.95472" lon="6.85477">
        <ele>2397</ele>
        <time>2026-08-04T09:34:02.646Z</time>
      </trkpt>
      <trkpt lat="45.95472" lon="6.85478">
        <ele>2397</ele>
        <time>2026-08-04T09:34:03.646Z</time>
      </trkpt>
      <trkpt lat="45.95472" lon="6.85478">
        <ele>2396</ele>
        <time>2026-08-04T09:34:04.646Z</time>
      </trkpt>
      <trkpt lat="45.95472" lon="6.85479">
        <ele>2396</ele>
        <time>2026-08-04T09:34:05.646Z</time>
      </trkpt>
      <trkpt lat="45.95472" lon="6.85479">
        <ele>2396</ele>
        <time>2026-08-04T09:34:06.646Z</time>
      </trkpt>
      <trkpt lat="45.95472" lon="6.85479">
        <ele>2396</ele>
        <time>2026-08-04T09:34:07.646Z</time>
      </trkpt>
      <trkpt lat="45.95472" lon="6.85479">
        <ele>2396</ele>
        <time>2026-08-04T09:34:08.646Z</time>
      </trkpt>
      <trkpt lat="45.95472" lon="6.85479">
        <ele>2396</ele>
        <time>2026-08-04T09:34:09.646Z</time>
      </trkpt>
      <trkpt lat="45.95472" lon="6.85479">
        <ele>2395</ele>
        <time>2026-08-04T09:34:10.646Z</time>
      </trkpt>
      <trkpt lat="45.95472" lon="6.85479">
        <ele>2395</ele>
        <time>2026-08-04T09:34:11.646Z</time>
      </trkpt>
      <trkpt lat="45.95472" lon="6.85479">
        <ele>2395</ele>
        <time>2026-08-04T09:34:12.646Z</time>
      </trkpt>
      <trkpt lat="45.95472" lon="6.85479">
        <ele>2395</ele>
        <time>2026-08-04T09:34:13.646Z</time>
      </trkpt>
      <trkpt lat="45.95472" lon="6.85479">
        <ele>2395</ele>
        <time>2026-08-04T09:34:14.646Z</time>
      </trkpt>
      <trkpt lat="45.95472" lon="6.85479">
        <ele>2395</ele>
        <time>2026-08-04T09:34:15.646Z</time>
      </trkpt>
      <trkpt lat="45.95472" lon="6.85479">
        <ele>2395</ele>
        <time>2026-08-04T09:34:16.646Z</time>
      </trkpt>
      <trkpt lat="45.95472" lon="6.85479">
        <ele>2395</ele>
        <time>2026-08-04T09:34:17.646Z</time>
      </trkpt>
      <trkpt lat="45.95472" lon="6.85479">
        <ele>2395</ele>
        <time>2026-08-04T09:34:18.646Z</time>
      </trkpt>
      <trkpt lat="45.95472" lon="6.85479">
        <ele>2395</ele>
        <time>2026-08-04T09:34:19.646Z</time>
      </trkpt>
      <trkpt lat="45.95472" lon="6.85479">
        <ele>2395</ele>
        <time>2026-08-04T09:34:20.646Z</time>
      </trkpt>
      <trkpt lat="45.95472" lon="6.85479">
        <ele>2395</ele>
        <time>2026-08-04T09:34:21.646Z</time>
      </trkpt>
      <trkpt lat="45.95472" lon="6.85479">
        <ele>2395</ele>
        <time>2026-08-04T09:34:22.646Z</time>
      </trkpt>
      <trkpt lat="45.95472" lon="6.85479">
        <ele>2395</ele>
        <time>2026-08-04T09:34:23.646Z</time>
      </trkpt>
      <trkpt lat="45.95472" lon="6.85479">
        <ele>2395</ele>
        <time>2026-08-04T09:34:24.646Z</time>
      </trkpt>
      <trkpt lat="45.95472" lon="6.85479">
        <ele>2395</ele>
        <time>2026-08-04T09:34:25.646Z</time>
      </trkpt>
      <trkpt lat="45.95472" lon="6.85479">
        <ele>2395</ele>
        <time>2026-08-04T09:34:26.646Z</time>
      </trkpt>
      <trkpt lat="45.95472" lon="6.85479">
        <ele>2395</ele>
        <time>2026-08-04T09:34:27.646Z</time>
      </trkpt>
      <trkpt lat="45.95472" lon="6.85479">
        <ele>2395</ele>
        <time>2026-08-04T09:34:28.646Z</time>
      </trkpt>
      <trkpt lat="45.95472" lon="6.85479">
        <ele>2395</ele>
        <time>2026-08-04T09:34:29.646Z</time>
      </trkpt>
      <trkpt lat="45.95472" lon="6.85479">
        <ele>2395</ele>
        <time>2026-08-04T09:34:30.646Z</time>
      </trkpt>
      <trkpt lat="45.95472" lon="6.85479">
        <ele>2395</ele>
        <time>2026-08-04T09:34:31.646Z</time>
      </trkpt>
      <trkpt lat="45.95472" lon="6.85479">
        <ele>2395</ele>
        <time>2026-08-04T09:34:32.646Z</time>
      </trkpt>
      <trkpt lat="45.95472" lon="6.85479">
        <ele>2395</ele>
        <time>2026-08-04T09:34:33.646Z</time>
      </trkpt>
      <trkpt lat="45.95472" lon="6.85479">
        <ele>2395</ele>
        <time>2026-08-04T09:34:34.646Z</time>
      </trkpt>
      <trkpt lat="45.95472" lon="6.85479">
        <ele>2395</ele>
        <time>2026-08-04T09:34:35.646Z</time>
      </trkpt>
      <trkpt lat="45.95472" lon="6.85479">
        <ele>2395</ele>
        <time>2026-08-04T09:34:36.646Z</time>
      </trkpt>
      <trkpt lat="45.95472" lon="6.85479">
        <ele>2395</ele>
        <time>2026-08-04T09:34:37.646Z</time>
      </trkpt>
      <trkpt lat="45.95472" lon="6.85479">
        <ele>2395</ele>
        <time>2026-08-04T09:34:38.646Z</time>
      </trkpt>
      <trkpt lat="45.95472" lon="6.85479">
        <ele>2395</ele>
        <time>2026-08-04T09:34:39.646Z</time>
      </trkpt>
      <trkpt lat="45.95472" lon="6.85479">
        <ele>2395</ele>
        <time>2026-08-04T09:34:40.646Z</time>
      </trkpt>
      <trkpt lat="45.95472" lon="6.85479">
        <ele>2395</ele>
        <time>2026-08-04T09:34:41.646Z</time>
      </trkpt>
      <trkpt lat="45.95472" lon="6.8548">
        <ele>2395</ele>
        <time>2026-08-04T09:34:42.646Z</time>
      </trkpt>
      <trkpt lat="45.95472" lon="6.8548">
        <ele>2395</ele>
        <time>2026-08-04T09:34:43.646Z</time>
      </trkpt>
      <trkpt lat="45.95472" lon="6.8548">
        <ele>2395</ele>
        <time>2026-08-04T09:34:44.646Z</time>
      </trkpt>
      <trkpt lat="45.95472" lon="6.8548">
        <ele>2395</ele>
        <time>2026-08-04T09:34:45.646Z</time>
      </trkpt>
      <trkpt lat="45.95472" lon="6.8548">
        <ele>2395</ele>
        <time>2026-08-04T09:34:46.646Z</time>
      </trkpt>
      <trkpt lat="45.95472" lon="6.8548">
        <ele>2395</ele>
        <time>2026-08-04T09:34:47.646Z</time>
      </trkpt>
      <trkpt lat="45.95472" lon="6.8548">
        <ele>2395</ele>
        <time>2026-08-04T09:34:48.646Z</time>
      </trkpt>
      <trkpt lat="45.95472" lon="6.8548">
        <ele>2395</ele>
        <time>2026-08-04T09:34:49.646Z</time>
      </trkpt>
      <trkpt lat="45.95472" lon="6.8548">
        <ele>2395</ele>
        <time>2026-08-04T09:34:50.646Z</time>
      </trkpt>
      <trkpt lat="45.95472" lon="6.8548">
        <ele>2395</ele>
        <time>2026-08-04T09:34:51.646Z</time>
      </trkpt>
      <trkpt lat="45.95472" lon="6.8548">
        <ele>2395</ele>
        <time>2026-08-04T09:34:52.646Z</time>
      </trkpt>
      <trkpt lat="45.95472" lon="6.8548">
        <ele>2395</ele>
        <time>2026-08-04T09:34:53.646Z</time>
      </trkpt>
      <trkpt lat="45.95472" lon="6.8548">
        <ele>2395</ele>
        <time>2026-08-04T09:34:54.646Z</time>
      </trkpt>
      <trkpt lat="45.95472" lon="6.8548">
        <ele>2395</ele>
        <time>2026-08-04T09:34:55.646Z</time>
      </trkpt>
      <trkpt lat="45.95472" lon="6.8548">
        <ele>2395</ele>
        <time>2026-08-04T09:34:56.646Z</time>
      </trkpt>
      <trkpt lat="45.95472" lon="6.8548">
        <ele>2395</ele>
        <time>2026-08-04T09:34:57.646Z</time>
      </trkpt>
      <trkpt lat="45.95472" lon="6.8548">
        <ele>2395</ele>
        <time>2026-08-04T09:34:58.646Z</time>
      </trkpt>
      <trkpt lat="45.95472" lon="6.8548">
        <ele>2395</ele>
        <time>2026-08-04T09:34:59.646Z</time>
      </trkpt>
      <trkpt lat="45.95472" lon="6.8548">
        <ele>2395</ele>
        <time>2026-08-04T09:35:00.646Z</time>
      </trkpt>
      <trkpt lat="45.95472" lon="6.8548">
        <ele>2395</ele>
        <time>2026-08-04T09:35:01.646Z</time>
      </trkpt>
      <trkpt lat="45.95472" lon="6.8548">
        <ele>2395</ele>
        <time>2026-08-04T09:35:02.646Z</time>
      </trkpt>
      <trkpt lat="45.95472" lon="6.8548">
        <ele>2395</ele>
        <time>2026-08-04T09:35:03.646Z</time>
      </trkpt>
      <trkpt lat="45.95472" lon="6.8548">
        <ele>2395</ele>
        <time>2026-08-04T09:35:04.646Z</time>
      </trkpt>
      <trkpt lat="45.95472" lon="6.8548">
        <ele>2395</ele>
        <time>2026-08-04T09:35:05.646Z</time>
      </trkpt>
      <trkpt lat="45.95472" lon="6.8548">
        <ele>2395</ele>
        <time>2026-08-04T09:35:06.646Z</time>
      </trkpt>
      <trkpt lat="45.95472" lon="6.8548">
        <ele>2395</ele>
        <time>2026-08-04T09:35:07.646Z</time>
      </trkpt>
      <trkpt lat="45.95472" lon="6.8548">
        <ele>2395</ele>
        <time>2026-08-04T09:35:08.646Z</time>
      </trkpt>
      <trkpt lat="45.95472" lon="6.8548">
        <ele>2395</ele>
        <time>2026-08-04T09:35:09.646Z</time>
      </trkpt>
      <trkpt lat="45.95472" lon="6.8548">
        <ele>2395</ele>
        <time>2026-08-04T09:35:10.646Z</time>
      </trkpt>
      <trkpt lat="45.95471" lon="6.8548">
        <ele>2395</ele>
        <time>2026-08-04T09:35:11.646Z</time>
      </trkpt>
      <trkpt lat="45.95471" lon="6.8548">
        <ele>2395</ele>
        <time>2026-08-04T09:35:12.646Z</time>
      </trkpt>
      <trkpt lat="45.95471" lon="6.8548">
        <ele>2395</ele>
        <time>2026-08-04T09:35:13.646Z</time>
      </trkpt>
      <trkpt lat="45.9547" lon="6.8548">
        <ele>2395</ele>
        <time>2026-08-04T09:35:14.646Z</time>
      </trkpt>
      <trkpt lat="45.9547" lon="6.8548">
        <ele>2395</ele>
        <time>2026-08-04T09:35:15.646Z</time>
      </trkpt>
      <trkpt lat="45.9547" lon="6.8548">
        <ele>2395</ele>
        <time>2026-08-04T09:35:16.646Z</time>
      </trkpt>
      <trkpt lat="45.9547" lon="6.8548">
        <ele>2395</ele>
        <time>2026-08-04T09:35:17.646Z</time>
      </trkpt>
      <trkpt lat="45.95469" lon="6.8548">
        <ele>2395</ele>
        <time>2026-08-04T09:35:18.646Z</time>
      </trkpt>
      <trkpt lat="45.95469" lon="6.8548">
        <ele>2395</ele>
        <time>2026-08-04T09:35:19.646Z</time>
      </trkpt>
      <trkpt lat="45.95469" lon="6.8548">
        <ele>2395</ele>
        <time>2026-08-04T09:35:20.646Z</time>
      </trkpt>
      <trkpt lat="45.95468" lon="6.8548">
        <ele>2395</ele>
        <time>2026-08-04T09:35:21.646Z</time>
      </trkpt>
      <trkpt lat="45.95468" lon="6.8548">
        <ele>2395</ele>
        <time>2026-08-04T09:35:22.646Z</time>
      </trkpt>
      <trkpt lat="45.95468" lon="6.85479">
        <ele>2395</ele>
        <time>2026-08-04T09:35:23.646Z</time>
      </trkpt>
      <trkpt lat="45.95467" lon="6.85479">
        <ele>2395</ele>
        <time>2026-08-04T09:35:24.646Z</time>
      </trkpt>
      <trkpt lat="45.95467" lon="6.85478">
        <ele>2395</ele>
        <time>2026-08-04T09:35:25.646Z</time>
      </trkpt>
      <trkpt lat="45.95467" lon="6.85478">
        <ele>2395</ele>
        <time>2026-08-04T09:35:26.646Z</time>
      </trkpt>
      <trkpt lat="45.95466" lon="6.85478">
        <ele>2395</ele>
        <time>2026-08-04T09:35:27.646Z</time>
      </trkpt>
      <trkpt lat="45.95466" lon="6.85478">
        <ele>2395</ele>
        <time>2026-08-04T09:35:28.646Z</time>
      </trkpt>
      <trkpt lat="45.95465" lon="6.85478">
        <ele>2395</ele>
        <time>2026-08-04T09:35:29.646Z</time>
      </trkpt>
      <trkpt lat="45.95464" lon="6.85478">
        <ele>2395</ele>
        <time>2026-08-04T09:35:30.646Z</time>
      </trkpt>
      <trkpt lat="45.95463" lon="6.85478">
        <ele>2395</ele>
        <time>2026-08-04T09:35:31.646Z</time>
      </trkpt>
      <trkpt lat="45.95462" lon="6.85479">
        <ele>2394</ele>
        <time>2026-08-04T09:35:32.646Z</time>
      </trkpt>
      <trkpt lat="45.95462" lon="6.85478">
        <ele>2394</ele>
        <time>2026-08-04T09:35:33.646Z</time>
      </trkpt>
      <trkpt lat="45.95461" lon="6.85478">
        <ele>2394</ele>
        <time>2026-08-04T09:35:34.646Z</time>
      </trkpt>
      <trkpt lat="45.9546" lon="6.85478">
        <ele>2393</ele>
        <time>2026-08-04T09:35:35.646Z</time>
      </trkpt>
      <trkpt lat="45.95459" lon="6.85478">
        <ele>2392</ele>
        <time>2026-08-04T09:35:36.646Z</time>
      </trkpt>
      <trkpt lat="45.95458" lon="6.85478">
        <ele>2392</ele>
        <time>2026-08-04T09:35:37.646Z</time>
      </trkpt>
      <trkpt lat="45.95457" lon="6.85478">
        <ele>2391</ele>
        <time>2026-08-04T09:35:38.646Z</time>
      </trkpt>
      <trkpt lat="45.95456" lon="6.85478">
        <ele>2391</ele>
        <time>2026-08-04T09:35:39.646Z</time>
      </trkpt>
      <trkpt lat="45.95456" lon="6.85478">
        <ele>2390</ele>
        <time>2026-08-04T09:35:40.646Z</time>
      </trkpt>
      <trkpt lat="45.95455" lon="6.85479">
        <ele>2390</ele>
        <time>2026-08-04T09:35:41.646Z</time>
      </trkpt>
      <trkpt lat="45.95455" lon="6.85478">
        <ele>2390</ele>
        <time>2026-08-04T09:35:42.646Z</time>
      </trkpt>
      <trkpt lat="45.95454" lon="6.85477">
        <ele>2389</ele>
        <time>2026-08-04T09:35:43.646Z</time>
      </trkpt>
      <trkpt lat="45.95454" lon="6.85476">
        <ele>2389</ele>
        <time>2026-08-04T09:35:44.646Z</time>
      </trkpt>
      <trkpt lat="45.95454" lon="6.85474">
        <ele>2389</ele>
        <time>2026-08-04T09:35:45.646Z</time>
      </trkpt>
      <trkpt lat="45.95453" lon="6.85473">
        <ele>2388</ele>
        <time>2026-08-04T09:35:46.646Z</time>
      </trkpt>
      <trkpt lat="45.95453" lon="6.85472">
        <ele>2388</ele>
        <time>2026-08-04T09:35:47.646Z</time>
      </trkpt>
      <trkpt lat="45.95453" lon="6.85471">
        <ele>2388</ele>
        <time>2026-08-04T09:35:48.646Z</time>
      </trkpt>
      <trkpt lat="45.95452" lon="6.85469">
        <ele>2387</ele>
        <time>2026-08-04T09:35:49.646Z</time>
      </trkpt>
      <trkpt lat="45.95452" lon="6.85468">
        <ele>2387</ele>
        <time>2026-08-04T09:35:50.646Z</time>
      </trkpt>
      <trkpt lat="45.95452" lon="6.85467">
        <ele>2387</ele>
        <time>2026-08-04T09:35:51.646Z</time>
      </trkpt>
      <trkpt lat="45.95451" lon="6.85466">
        <ele>2387</ele>
        <time>2026-08-04T09:35:52.646Z</time>
      </trkpt>
      <trkpt lat="45.95451" lon="6.85464">
        <ele>2387</ele>
        <time>2026-08-04T09:35:53.646Z</time>
      </trkpt>
      <trkpt lat="45.9545" lon="6.85463">
        <ele>2387</ele>
        <time>2026-08-04T09:35:54.646Z</time>
      </trkpt>
      <trkpt lat="45.9545" lon="6.85462">
        <ele>2386</ele>
        <time>2026-08-04T09:35:55.646Z</time>
      </trkpt>
      <trkpt lat="45.95449" lon="6.85461">
        <ele>2386</ele>
        <time>2026-08-04T09:35:56.646Z</time>
      </trkpt>
      <trkpt lat="45.95449" lon="6.8546">
        <ele>2385</ele>
        <time>2026-08-04T09:35:57.646Z</time>
      </trkpt>
      <trkpt lat="45.95449" lon="6.85459">
        <ele>2384</ele>
        <time>2026-08-04T09:35:58.646Z</time>
      </trkpt>
      <trkpt lat="45.95448" lon="6.85457">
        <ele>2383</ele>
        <time>2026-08-04T09:35:59.646Z</time>
      </trkpt>
      <trkpt lat="45.95448" lon="6.85456">
        <ele>2383</ele>
        <time>2026-08-04T09:36:00.646Z</time>
      </trkpt>
      <trkpt lat="45.95447" lon="6.85455">
        <ele>2382</ele>
        <time>2026-08-04T09:36:01.646Z</time>
      </trkpt>
      <trkpt lat="45.95447" lon="6.85454">
        <ele>2381</ele>
        <time>2026-08-04T09:36:02.646Z</time>
      </trkpt>
      <trkpt lat="45.95446" lon="6.85454">
        <ele>2381</ele>
        <time>2026-08-04T09:36:03.646Z</time>
      </trkpt>
      <trkpt lat="45.95446" lon="6.85453">
        <ele>2381</ele>
        <time>2026-08-04T09:36:04.646Z</time>
      </trkpt>
      <trkpt lat="45.95446" lon="6.85453">
        <ele>2380</ele>
        <time>2026-08-04T09:36:05.646Z</time>
      </trkpt>
      <trkpt lat="45.95446" lon="6.85453">
        <ele>2380</ele>
        <time>2026-08-04T09:36:06.646Z</time>
      </trkpt>
      <trkpt lat="45.95446" lon="6.85453">
        <ele>2380</ele>
        <time>2026-08-04T09:36:07.646Z</time>
      </trkpt>
      <trkpt lat="45.95446" lon="6.85453">
        <ele>2380</ele>
        <time>2026-08-04T09:36:08.646Z</time>
      </trkpt>
      <trkpt lat="45.95446" lon="6.85453">
        <ele>2380</ele>
        <time>2026-08-04T09:36:09.646Z</time>
      </trkpt>
      <trkpt lat="45.95446" lon="6.85452">
        <ele>2380</ele>
        <time>2026-08-04T09:36:10.646Z</time>
      </trkpt>
      <trkpt lat="45.95445" lon="6.85452">
        <ele>2379</ele>
        <time>2026-08-04T09:36:11.646Z</time>
      </trkpt>
      <trkpt lat="45.95445" lon="6.85452">
        <ele>2379</ele>
        <time>2026-08-04T09:36:12.646Z</time>
      </trkpt>
      <trkpt lat="45.95444" lon="6.85451">
        <ele>2379</ele>
        <time>2026-08-04T09:36:13.646Z</time>
      </trkpt>
      <trkpt lat="45.95444" lon="6.8545">
        <ele>2378</ele>
        <time>2026-08-04T09:36:14.646Z</time>
      </trkpt>
      <trkpt lat="45.95443" lon="6.85449">
        <ele>2378</ele>
        <time>2026-08-04T09:36:15.646Z</time>
      </trkpt>
      <trkpt lat="45.95441" lon="6.85448">
        <ele>2378</ele>
        <time>2026-08-04T09:36:16.646Z</time>
      </trkpt>
      <trkpt lat="45.9544" lon="6.85447">
        <ele>2377</ele>
        <time>2026-08-04T09:36:17.646Z</time>
      </trkpt>
      <trkpt lat="45.95439" lon="6.85446">
        <ele>2377</ele>
        <time>2026-08-04T09:36:18.646Z</time>
      </trkpt>
      <trkpt lat="45.95438" lon="6.85446">
        <ele>2377</ele>
        <time>2026-08-04T09:36:19.646Z</time>
      </trkpt>
      <trkpt lat="45.95437" lon="6.85445">
        <ele>2376</ele>
        <time>2026-08-04T09:36:20.646Z</time>
      </trkpt>
      <trkpt lat="45.95436" lon="6.85444">
        <ele>2376</ele>
        <time>2026-08-04T09:36:21.646Z</time>
      </trkpt>
      <trkpt lat="45.95435" lon="6.85443">
        <ele>2376</ele>
        <time>2026-08-04T09:36:22.646Z</time>
      </trkpt>
      <trkpt lat="45.95433" lon="6.85443">
        <ele>2376</ele>
        <time>2026-08-04T09:36:23.646Z</time>
      </trkpt>
      <trkpt lat="45.95432" lon="6.85442">
        <ele>2376</ele>
        <time>2026-08-04T09:36:24.646Z</time>
      </trkpt>
      <trkpt lat="45.95431" lon="6.85441">
        <ele>2376</ele>
        <time>2026-08-04T09:36:25.646Z</time>
      </trkpt>
      <trkpt lat="45.9543" lon="6.8544">
        <ele>2375</ele>
        <time>2026-08-04T09:36:26.646Z</time>
      </trkpt>
      <trkpt lat="45.95429" lon="6.85439">
        <ele>2374</ele>
        <time>2026-08-04T09:36:27.646Z</time>
      </trkpt>
      <trkpt lat="45.95428" lon="6.85439">
        <ele>2374</ele>
        <time>2026-08-04T09:36:28.646Z</time>
      </trkpt>
      <trkpt lat="45.95427" lon="6.85438">
        <ele>2374</ele>
        <time>2026-08-04T09:36:29.646Z</time>
      </trkpt>
      <trkpt lat="45.95426" lon="6.85438">
        <ele>2373</ele>
        <time>2026-08-04T09:36:30.646Z</time>
      </trkpt>
      <trkpt lat="45.95425" lon="6.85438">
        <ele>2373</ele>
        <time>2026-08-04T09:36:31.646Z</time>
      </trkpt>
      <trkpt lat="45.95424" lon="6.85438">
        <ele>2372</ele>
        <time>2026-08-04T09:36:32.646Z</time>
      </trkpt>
      <trkpt lat="45.95423" lon="6.85438">
        <ele>2372</ele>
        <time>2026-08-04T09:36:33.646Z</time>
      </trkpt>
      <trkpt lat="45.95421" lon="6.85438">
        <ele>2372</ele>
        <time>2026-08-04T09:36:34.646Z</time>
      </trkpt>
      <trkpt lat="45.9542" lon="6.85438">
        <ele>2372</ele>
        <time>2026-08-04T09:36:35.646Z</time>
      </trkpt>
      <trkpt lat="45.95419" lon="6.85438">
        <ele>2372</ele>
        <time>2026-08-04T09:36:36.646Z</time>
      </trkpt>
      <trkpt lat="45.95418" lon="6.85439">
        <ele>2372</ele>
        <time>2026-08-04T09:36:37.646Z</time>
      </trkpt>
      <trkpt lat="45.95418" lon="6.85439">
        <ele>2373</ele>
        <time>2026-08-04T09:36:38.646Z</time>
      </trkpt>
      <trkpt lat="45.95418" lon="6.85439">
        <ele>2373</ele>
        <time>2026-08-04T09:36:39.646Z</time>
      </trkpt>
      <trkpt lat="45.95418" lon="6.8544">
        <ele>2373</ele>
        <time>2026-08-04T09:36:40.647Z</time>
      </trkpt>
      <trkpt lat="45.95419" lon="6.8544">
        <ele>2373</ele>
        <time>2026-08-04T09:36:41.646Z</time>
      </trkpt>
      <trkpt lat="45.9542" lon="6.85442">
        <ele>2373</ele>
        <time>2026-08-04T09:36:42.646Z</time>
      </trkpt>
      <trkpt lat="45.95421" lon="6.85443">
        <ele>2372</ele>
        <time>2026-08-04T09:36:43.646Z</time>
      </trkpt>
      <trkpt lat="45.95422" lon="6.85444">
        <ele>2372</ele>
        <time>2026-08-04T09:36:44.646Z</time>
      </trkpt>
      <trkpt lat="45.95423" lon="6.85445">
        <ele>2372</ele>
        <time>2026-08-04T09:36:45.646Z</time>
      </trkpt>
      <trkpt lat="45.95424" lon="6.85446">
        <ele>2371</ele>
        <time>2026-08-04T09:36:46.646Z</time>
      </trkpt>
      <trkpt lat="45.95424" lon="6.85447">
        <ele>2371</ele>
        <time>2026-08-04T09:36:47.646Z</time>
      </trkpt>
      <trkpt lat="45.95423" lon="6.85448">
        <ele>2370</ele>
        <time>2026-08-04T09:36:48.646Z</time>
      </trkpt>
      <trkpt lat="45.95422" lon="6.85449">
        <ele>2369</ele>
        <time>2026-08-04T09:36:49.646Z</time>
      </trkpt>
      <trkpt lat="45.95421" lon="6.8545">
        <ele>2369</ele>
        <time>2026-08-04T09:36:50.646Z</time>
      </trkpt>
      <trkpt lat="45.95419" lon="6.8545">
        <ele>2369</ele>
        <time>2026-08-04T09:36:51.646Z</time>
      </trkpt>
      <trkpt lat="45.95418" lon="6.8545">
        <ele>2368</ele>
        <time>2026-08-04T09:36:52.646Z</time>
      </trkpt>
      <trkpt lat="45.95417" lon="6.8545">
        <ele>2368</ele>
        <time>2026-08-04T09:36:53.646Z</time>
      </trkpt>
      <trkpt lat="45.95416" lon="6.8545">
        <ele>2368</ele>
        <time>2026-08-04T09:36:54.646Z</time>
      </trkpt>
      <trkpt lat="45.95415" lon="6.8545">
        <ele>2367</ele>
        <time>2026-08-04T09:36:55.646Z</time>
      </trkpt>
      <trkpt lat="45.95414" lon="6.8545">
        <ele>2367</ele>
        <time>2026-08-04T09:36:56.646Z</time>
      </trkpt>
      <trkpt lat="45.95412" lon="6.8545">
        <ele>2366</ele>
        <time>2026-08-04T09:36:57.646Z</time>
      </trkpt>
      <trkpt lat="45.95411" lon="6.85449">
        <ele>2366</ele>
        <time>2026-08-04T09:36:58.646Z</time>
      </trkpt>
      <trkpt lat="45.9541" lon="6.85449">
        <ele>2366</ele>
        <time>2026-08-04T09:36:59.646Z</time>
      </trkpt>
      <trkpt lat="45.95409" lon="6.8545">
        <ele>2365</ele>
        <time>2026-08-04T09:37:00.646Z</time>
      </trkpt>
      <trkpt lat="45.95408" lon="6.8545">
        <ele>2365</ele>
        <time>2026-08-04T09:37:01.646Z</time>
      </trkpt>
      <trkpt lat="45.95407" lon="6.8545">
        <ele>2365</ele>
        <time>2026-08-04T09:37:02.646Z</time>
      </trkpt>
      <trkpt lat="45.95405" lon="6.8545">
        <ele>2365</ele>
        <time>2026-08-04T09:37:03.646Z</time>
      </trkpt>
      <trkpt lat="45.95404" lon="6.85449">
        <ele>2364</ele>
        <time>2026-08-04T09:37:04.646Z</time>
      </trkpt>
      <trkpt lat="45.95403" lon="6.85448">
        <ele>2364</ele>
        <time>2026-08-04T09:37:05.646Z</time>
      </trkpt>
      <trkpt lat="45.95402" lon="6.85448">
        <ele>2363</ele>
        <time>2026-08-04T09:37:06.646Z</time>
      </trkpt>
      <trkpt lat="45.95402" lon="6.85448">
        <ele>2362</ele>
        <time>2026-08-04T09:37:07.646Z</time>
      </trkpt>
      <trkpt lat="45.95402" lon="6.85449">
        <ele>2362</ele>
        <time>2026-08-04T09:37:08.646Z</time>
      </trkpt>
      <trkpt lat="45.95403" lon="6.8545">
        <ele>2362</ele>
        <time>2026-08-04T09:37:09.646Z</time>
      </trkpt>
      <trkpt lat="45.95404" lon="6.85452">
        <ele>2361</ele>
        <time>2026-08-04T09:37:10.646Z</time>
      </trkpt>
      <trkpt lat="45.95405" lon="6.85454">
        <ele>2361</ele>
        <time>2026-08-04T09:37:11.646Z</time>
      </trkpt>
      <trkpt lat="45.95406" lon="6.85455">
        <ele>2361</ele>
        <time>2026-08-04T09:37:12.646Z</time>
      </trkpt>
      <trkpt lat="45.95407" lon="6.85456">
        <ele>2361</ele>
        <time>2026-08-04T09:37:13.646Z</time>
      </trkpt>
      <trkpt lat="45.95408" lon="6.85457">
        <ele>2360</ele>
        <time>2026-08-04T09:37:14.646Z</time>
      </trkpt>
      <trkpt lat="45.95409" lon="6.85459">
        <ele>2360</ele>
        <time>2026-08-04T09:37:15.646Z</time>
      </trkpt>
      <trkpt lat="45.9541" lon="6.8546">
        <ele>2359</ele>
        <time>2026-08-04T09:37:16.646Z</time>
      </trkpt>
      <trkpt lat="45.95411" lon="6.85461">
        <ele>2358</ele>
        <time>2026-08-04T09:37:17.646Z</time>
      </trkpt>
      <trkpt lat="45.95411" lon="6.85462">
        <ele>2358</ele>
        <time>2026-08-04T09:37:18.646Z</time>
      </trkpt>
      <trkpt lat="45.95411" lon="6.85462">
        <ele>2357</ele>
        <time>2026-08-04T09:37:19.646Z</time>
      </trkpt>
      <trkpt lat="45.9541" lon="6.85462">
        <ele>2357</ele>
        <time>2026-08-04T09:37:20.646Z</time>
      </trkpt>
      <trkpt lat="45.95408" lon="6.85462">
        <ele>2357</ele>
        <time>2026-08-04T09:37:21.646Z</time>
      </trkpt>
      <trkpt lat="45.95407" lon="6.85462">
        <ele>2357</ele>
        <time>2026-08-04T09:37:22.646Z</time>
      </trkpt>
      <trkpt lat="45.95406" lon="6.85462">
        <ele>2357</ele>
        <time>2026-08-04T09:37:23.646Z</time>
      </trkpt>
      <trkpt lat="45.95404" lon="6.85462">
        <ele>2357</ele>
        <time>2026-08-04T09:37:24.646Z</time>
      </trkpt>
      <trkpt lat="45.95403" lon="6.85462">
        <ele>2357</ele>
        <time>2026-08-04T09:37:25.646Z</time>
      </trkpt>
      <trkpt lat="45.95402" lon="6.85462">
        <ele>2356</ele>
        <time>2026-08-04T09:37:26.646Z</time>
      </trkpt>
      <trkpt lat="45.954" lon="6.85462">
        <ele>2356</ele>
        <time>2026-08-04T09:37:27.646Z</time>
      </trkpt>
      <trkpt lat="45.95399" lon="6.85462">
        <ele>2356</ele>
        <time>2026-08-04T09:37:28.646Z</time>
      </trkpt>
      <trkpt lat="45.95397" lon="6.85461">
        <ele>2356</ele>
        <time>2026-08-04T09:37:29.646Z</time>
      </trkpt>
      <trkpt lat="45.95395" lon="6.85461">
        <ele>2356</ele>
        <time>2026-08-04T09:37:30.646Z</time>
      </trkpt>
      <trkpt lat="45.95394" lon="6.8546">
        <ele>2356</ele>
        <time>2026-08-04T09:37:31.646Z</time>
      </trkpt>
      <trkpt lat="45.95392" lon="6.85459">
        <ele>2356</ele>
        <time>2026-08-04T09:37:32.646Z</time>
      </trkpt>
      <trkpt lat="45.95391" lon="6.85458">
        <ele>2355</ele>
        <time>2026-08-04T09:37:33.646Z</time>
      </trkpt>
      <trkpt lat="45.95389" lon="6.85458">
        <ele>2355</ele>
        <time>2026-08-04T09:37:34.646Z</time>
      </trkpt>
      <trkpt lat="45.95388" lon="6.85458">
        <ele>2354</ele>
        <time>2026-08-04T09:37:35.646Z</time>
      </trkpt>
      <trkpt lat="45.95386" lon="6.85458">
        <ele>2354</ele>
        <time>2026-08-04T09:37:36.646Z</time>
      </trkpt>
      <trkpt lat="45.95384" lon="6.85457">
        <ele>2354</ele>
        <time>2026-08-04T09:37:37.646Z</time>
      </trkpt>
      <trkpt lat="45.95383" lon="6.85457">
        <ele>2353</ele>
        <time>2026-08-04T09:37:38.646Z</time>
      </trkpt>
      <trkpt lat="45.95382" lon="6.85457">
        <ele>2353</ele>
        <time>2026-08-04T09:37:39.646Z</time>
      </trkpt>
      <trkpt lat="45.95381" lon="6.85457">
        <ele>2352</ele>
        <time>2026-08-04T09:37:40.646Z</time>
      </trkpt>
      <trkpt lat="45.95381" lon="6.85458">
        <ele>2351</ele>
        <time>2026-08-04T09:37:41.646Z</time>
      </trkpt>
      <trkpt lat="45.95382" lon="6.85459">
        <ele>2351</ele>
        <time>2026-08-04T09:37:42.646Z</time>
      </trkpt>
      <trkpt lat="45.95383" lon="6.8546">
        <ele>2350</ele>
        <time>2026-08-04T09:37:43.646Z</time>
      </trkpt>
      <trkpt lat="45.95384" lon="6.85461">
        <ele>2349</ele>
        <time>2026-08-04T09:37:44.646Z</time>
      </trkpt>
      <trkpt lat="45.95385" lon="6.85462">
        <ele>2349</ele>
        <time>2026-08-04T09:37:45.646Z</time>
      </trkpt>
      <trkpt lat="45.95386" lon="6.85463">
        <ele>2348</ele>
        <time>2026-08-04T09:37:46.646Z</time>
      </trkpt>
      <trkpt lat="45.95387" lon="6.85465">
        <ele>2348</ele>
        <time>2026-08-04T09:37:47.646Z</time>
      </trkpt>
      <trkpt lat="45.95386" lon="6.85465">
        <ele>2347</ele>
        <time>2026-08-04T09:37:48.646Z</time>
      </trkpt>
      <trkpt lat="45.95385" lon="6.85466">
        <ele>2347</ele>
        <time>2026-08-04T09:37:49.646Z</time>
      </trkpt>
      <trkpt lat="45.95384" lon="6.85466">
        <ele>2347</ele>
        <time>2026-08-04T09:37:50.646Z</time>
      </trkpt>
      <trkpt lat="45.95383" lon="6.85467">
        <ele>2347</ele>
        <time>2026-08-04T09:37:51.646Z</time>
      </trkpt>
      <trkpt lat="45.95381" lon="6.85467">
        <ele>2347</ele>
        <time>2026-08-04T09:37:52.646Z</time>
      </trkpt>
      <trkpt lat="45.9538" lon="6.85467">
        <ele>2346</ele>
        <time>2026-08-04T09:37:53.646Z</time>
      </trkpt>
      <trkpt lat="45.95378" lon="6.85468">
        <ele>2346</ele>
        <time>2026-08-04T09:37:54.646Z</time>
      </trkpt>
      <trkpt lat="45.95377" lon="6.85468">
        <ele>2346</ele>
        <time>2026-08-04T09:37:55.646Z</time>
      </trkpt>
      <trkpt lat="45.95375" lon="6.85467">
        <ele>2345</ele>
        <time>2026-08-04T09:37:56.646Z</time>
      </trkpt>
      <trkpt lat="45.95373" lon="6.85466">
        <ele>2345</ele>
        <time>2026-08-04T09:37:57.646Z</time>
      </trkpt>
      <trkpt lat="45.95371" lon="6.85466">
        <ele>2345</ele>
        <time>2026-08-04T09:37:58.646Z</time>
      </trkpt>
      <trkpt lat="45.9537" lon="6.85465">
        <ele>2344</ele>
        <time>2026-08-04T09:37:59.646Z</time>
      </trkpt>
      <trkpt lat="45.95368" lon="6.85465">
        <ele>2344</ele>
        <time>2026-08-04T09:38:00.646Z</time>
      </trkpt>
      <trkpt lat="45.95367" lon="6.85465">
        <ele>2344</ele>
        <time>2026-08-04T09:38:01.646Z</time>
      </trkpt>
      <trkpt lat="45.95366" lon="6.85464">
        <ele>2343</ele>
        <time>2026-08-04T09:38:02.646Z</time>
      </trkpt>
      <trkpt lat="45.95365" lon="6.85463">
        <ele>2343</ele>
        <time>2026-08-04T09:38:03.646Z</time>
      </trkpt>
      <trkpt lat="45.95364" lon="6.85462">
        <ele>2343</ele>
        <time>2026-08-04T09:38:04.646Z</time>
      </trkpt>
      <trkpt lat="45.95363" lon="6.85461">
        <ele>2342</ele>
        <time>2026-08-04T09:38:05.646Z</time>
      </trkpt>
      <trkpt lat="45.95362" lon="6.85462">
        <ele>2342</ele>
        <time>2026-08-04T09:38:06.646Z</time>
      </trkpt>
      <trkpt lat="45.95361" lon="6.85462">
        <ele>2342</ele>
        <time>2026-08-04T09:38:07.646Z</time>
      </trkpt>
      <trkpt lat="45.9536" lon="6.85462">
        <ele>2341</ele>
        <time>2026-08-04T09:38:08.646Z</time>
      </trkpt>
      <trkpt lat="45.95359" lon="6.85462">
        <ele>2341</ele>
        <time>2026-08-04T09:38:09.646Z</time>
      </trkpt>
      <trkpt lat="45.95358" lon="6.85462">
        <ele>2340</ele>
        <time>2026-08-04T09:38:10.646Z</time>
      </trkpt>
      <trkpt lat="45.95356" lon="6.85462">
        <ele>2340</ele>
        <time>2026-08-04T09:38:11.646Z</time>
      </trkpt>
      <trkpt lat="45.95355" lon="6.85462">
        <ele>2339</ele>
        <time>2026-08-04T09:38:12.646Z</time>
      </trkpt>
      <trkpt lat="45.95353" lon="6.85461">
        <ele>2339</ele>
        <time>2026-08-04T09:38:13.646Z</time>
      </trkpt>
      <trkpt lat="45.95351" lon="6.85461">
        <ele>2339</ele>
        <time>2026-08-04T09:38:14.646Z</time>
      </trkpt>
      <trkpt lat="45.9535" lon="6.8546">
        <ele>2338</ele>
        <time>2026-08-04T09:38:15.646Z</time>
      </trkpt>
      <trkpt lat="45.95349" lon="6.8546">
        <ele>2338</ele>
        <time>2026-08-04T09:38:16.646Z</time>
      </trkpt>
      <trkpt lat="45.95348" lon="6.85459">
        <ele>2337</ele>
        <time>2026-08-04T09:38:17.646Z</time>
      </trkpt>
      <trkpt lat="45.95348" lon="6.85458">
        <ele>2337</ele>
        <time>2026-08-04T09:38:18.646Z</time>
      </trkpt>
      <trkpt lat="45.95346" lon="6.85458">
        <ele>2336</ele>
        <time>2026-08-04T09:38:19.646Z</time>
      </trkpt>
      <trkpt lat="45.95346" lon="6.85457">
        <ele>2336</ele>
        <time>2026-08-04T09:38:20.646Z</time>
      </trkpt>
      <trkpt lat="45.95345" lon="6.85456">
        <ele>2336</ele>
        <time>2026-08-04T09:38:21.646Z</time>
      </trkpt>
      <trkpt lat="45.95344" lon="6.85455">
        <ele>2336</ele>
        <time>2026-08-04T09:38:22.646Z</time>
      </trkpt>
      <trkpt lat="45.95343" lon="6.85454">
        <ele>2335</ele>
        <time>2026-08-04T09:38:23.646Z</time>
      </trkpt>
      <trkpt lat="45.95343" lon="6.85452">
        <ele>2335</ele>
        <time>2026-08-04T09:38:24.646Z</time>
      </trkpt>
      <trkpt lat="45.95342" lon="6.85452">
        <ele>2334</ele>
        <time>2026-08-04T09:38:25.646Z</time>
      </trkpt>
      <trkpt lat="45.95342" lon="6.85452">
        <ele>2334</ele>
        <time>2026-08-04T09:38:26.646Z</time>
      </trkpt>
      <trkpt lat="45.95342" lon="6.85453">
        <ele>2333</ele>
        <time>2026-08-04T09:38:27.646Z</time>
      </trkpt>
      <trkpt lat="45.95342" lon="6.85454">
        <ele>2333</ele>
        <time>2026-08-04T09:38:28.646Z</time>
      </trkpt>
      <trkpt lat="45.95342" lon="6.85454">
        <ele>2332</ele>
        <time>2026-08-04T09:38:29.646Z</time>
      </trkpt>
      <trkpt lat="45.95342" lon="6.85455">
        <ele>2332</ele>
        <time>2026-08-04T09:38:30.646Z</time>
      </trkpt>
      <trkpt lat="45.95342" lon="6.85455">
        <ele>2332</ele>
        <time>2026-08-04T09:38:31.646Z</time>
      </trkpt>
      <trkpt lat="45.95341" lon="6.85455">
        <ele>2332</ele>
        <time>2026-08-04T09:38:32.646Z</time>
      </trkpt>
      <trkpt lat="45.95341" lon="6.85454">
        <ele>2332</ele>
        <time>2026-08-04T09:38:33.646Z</time>
      </trkpt>
      <trkpt lat="45.95341" lon="6.85454">
        <ele>2332</ele>
        <time>2026-08-04T09:38:34.646Z</time>
      </trkpt>
      <trkpt lat="45.95341" lon="6.85454">
        <ele>2332</ele>
        <time>2026-08-04T09:38:35.646Z</time>
      </trkpt>
      <trkpt lat="45.95342" lon="6.85454">
        <ele>2331</ele>
        <time>2026-08-04T09:38:36.646Z</time>
      </trkpt>
      <trkpt lat="45.95343" lon="6.85454">
        <ele>2331</ele>
        <time>2026-08-04T09:38:37.646Z</time>
      </trkpt>
      <trkpt lat="45.95343" lon="6.85454">
        <ele>2331</ele>
        <time>2026-08-04T09:38:38.646Z</time>
      </trkpt>
      <trkpt lat="45.95344" lon="6.85455">
        <ele>2331</ele>
        <time>2026-08-04T09:38:39.646Z</time>
      </trkpt>
      <trkpt lat="45.95344" lon="6.85456">
        <ele>2331</ele>
        <time>2026-08-04T09:38:40.646Z</time>
      </trkpt>
      <trkpt lat="45.95344" lon="6.85456">
        <ele>2331</ele>
        <time>2026-08-04T09:38:41.646Z</time>
      </trkpt>
      <trkpt lat="45.95345" lon="6.85458">
        <ele>2331</ele>
        <time>2026-08-04T09:38:42.646Z</time>
      </trkpt>
      <trkpt lat="45.95345" lon="6.85459">
        <ele>2331</ele>
        <time>2026-08-04T09:38:43.646Z</time>
      </trkpt>
      <trkpt lat="45.95346" lon="6.8546">
        <ele>2331</ele>
        <time>2026-08-04T09:38:44.646Z</time>
      </trkpt>
      <trkpt lat="45.95346" lon="6.85462">
        <ele>2331</ele>
        <time>2026-08-04T09:38:45.646Z</time>
      </trkpt>
      <trkpt lat="45.95347" lon="6.85464">
        <ele>2332</ele>
        <time>2026-08-04T09:38:46.646Z</time>
      </trkpt>
      <trkpt lat="45.95348" lon="6.85465">
        <ele>2332</ele>
        <time>2026-08-04T09:38:47.646Z</time>
      </trkpt>
      <trkpt lat="45.95348" lon="6.85466">
        <ele>2332</ele>
        <time>2026-08-04T09:38:48.646Z</time>
      </trkpt>
      <trkpt lat="45.95348" lon="6.85467">
        <ele>2331</ele>
        <time>2026-08-04T09:38:49.646Z</time>
      </trkpt>
      <trkpt lat="45.95349" lon="6.85468">
        <ele>2331</ele>
        <time>2026-08-04T09:38:50.646Z</time>
      </trkpt>
      <trkpt lat="45.95349" lon="6.85469">
        <ele>2331</ele>
        <time>2026-08-04T09:38:51.646Z</time>
      </trkpt>
      <trkpt lat="45.95349" lon="6.8547">
        <ele>2330</ele>
        <time>2026-08-04T09:38:52.646Z</time>
      </trkpt>
      <trkpt lat="45.95351" lon="6.85471">
        <ele>2330</ele>
        <time>2026-08-04T09:38:53.646Z</time>
      </trkpt>
      <trkpt lat="45.95352" lon="6.85473">
        <ele>2330</ele>
        <time>2026-08-04T09:38:54.646Z</time>
      </trkpt>
      <trkpt lat="45.95352" lon="6.85474">
        <ele>2329</ele>
        <time>2026-08-04T09:38:55.646Z</time>
      </trkpt>
      <trkpt lat="45.95353" lon="6.85476">
        <ele>2329</ele>
        <time>2026-08-04T09:38:56.646Z</time>
      </trkpt>
      <trkpt lat="45.95354" lon="6.85477">
        <ele>2329</ele>
        <time>2026-08-04T09:38:57.646Z</time>
      </trkpt>
      <trkpt lat="45.95353" lon="6.85479">
        <ele>2328</ele>
        <time>2026-08-04T09:38:58.646Z</time>
      </trkpt>
      <trkpt lat="45.95353" lon="6.8548">
        <ele>2328</ele>
        <time>2026-08-04T09:38:59.646Z</time>
      </trkpt>
      <trkpt lat="45.95353" lon="6.85481">
        <ele>2328</ele>
        <time>2026-08-04T09:39:00.646Z</time>
      </trkpt>
      <trkpt lat="45.95352" lon="6.85481">
        <ele>2327</ele>
        <time>2026-08-04T09:39:01.646Z</time>
      </trkpt>
      <trkpt lat="45.95351" lon="6.85481">
        <ele>2326</ele>
        <time>2026-08-04T09:39:02.646Z</time>
      </trkpt>
      <trkpt lat="45.9535" lon="6.8548">
        <ele>2326</ele>
        <time>2026-08-04T09:39:03.646Z</time>
      </trkpt>
      <trkpt lat="45.9535" lon="6.8548">
        <ele>2325</ele>
        <time>2026-08-04T09:39:04.646Z</time>
      </trkpt>
      <trkpt lat="45.95349" lon="6.85479">
        <ele>2325</ele>
        <time>2026-08-04T09:39:05.646Z</time>
      </trkpt>
      <trkpt lat="45.95348" lon="6.85479">
        <ele>2325</ele>
        <time>2026-08-04T09:39:06.646Z</time>
      </trkpt>
      <trkpt lat="45.95347" lon="6.85478">
        <ele>2324</ele>
        <time>2026-08-04T09:39:07.646Z</time>
      </trkpt>
      <trkpt lat="45.95346" lon="6.85477">
        <ele>2324</ele>
        <time>2026-08-04T09:39:08.646Z</time>
      </trkpt>
      <trkpt lat="45.95344" lon="6.85476">
        <ele>2324</ele>
        <time>2026-08-04T09:39:09.646Z</time>
      </trkpt>
      <trkpt lat="45.95343" lon="6.85476">
        <ele>2324</ele>
        <time>2026-08-04T09:39:10.646Z</time>
      </trkpt>
      <trkpt lat="45.95342" lon="6.85475">
        <ele>2324</ele>
        <time>2026-08-04T09:39:11.646Z</time>
      </trkpt>
      <trkpt lat="45.95342" lon="6.85475">
        <ele>2324</ele>
        <time>2026-08-04T09:39:12.646Z</time>
      </trkpt>
      <trkpt lat="45.95341" lon="6.85475">
        <ele>2324</ele>
        <time>2026-08-04T09:39:13.646Z</time>
      </trkpt>
      <trkpt lat="45.9534" lon="6.85474">
        <ele>2324</ele>
        <time>2026-08-04T09:39:14.646Z</time>
      </trkpt>
      <trkpt lat="45.95338" lon="6.85473">
        <ele>2324</ele>
        <time>2026-08-04T09:39:15.646Z</time>
      </trkpt>
      <trkpt lat="45.95337" lon="6.85471">
        <ele>2324</ele>
        <time>2026-08-04T09:39:16.646Z</time>
      </trkpt>
      <trkpt lat="45.95336" lon="6.85471">
        <ele>2324</ele>
        <time>2026-08-04T09:39:17.646Z</time>
      </trkpt>
      <trkpt lat="45.95335" lon="6.8547">
        <ele>2323</ele>
        <time>2026-08-04T09:39:18.646Z</time>
      </trkpt>
      <trkpt lat="45.95334" lon="6.85469">
        <ele>2323</ele>
        <time>2026-08-04T09:39:19.646Z</time>
      </trkpt>
      <trkpt lat="45.95334" lon="6.85469">
        <ele>2322</ele>
        <time>2026-08-04T09:39:20.646Z</time>
      </trkpt>
      <trkpt lat="45.95334" lon="6.8547">
        <ele>2322</ele>
        <time>2026-08-04T09:39:21.646Z</time>
      </trkpt>
      <trkpt lat="45.95334" lon="6.85472">
        <ele>2321</ele>
        <time>2026-08-04T09:39:22.646Z</time>
      </trkpt>
      <trkpt lat="45.95335" lon="6.85474">
        <ele>2321</ele>
        <time>2026-08-04T09:39:23.646Z</time>
      </trkpt>
      <trkpt lat="45.95336" lon="6.85476">
        <ele>2321</ele>
        <time>2026-08-04T09:39:24.646Z</time>
      </trkpt>
      <trkpt lat="45.95336" lon="6.85477">
        <ele>2320</ele>
        <time>2026-08-04T09:39:25.646Z</time>
      </trkpt>
      <trkpt lat="45.95337" lon="6.85478">
        <ele>2320</ele>
        <time>2026-08-04T09:39:26.646Z</time>
      </trkpt>
      <trkpt lat="45.95338" lon="6.8548">
        <ele>2320</ele>
        <time>2026-08-04T09:39:27.646Z</time>
      </trkpt>
      <trkpt lat="45.95338" lon="6.85482">
        <ele>2319</ele>
        <time>2026-08-04T09:39:28.646Z</time>
      </trkpt>
      <trkpt lat="45.95338" lon="6.85484">
        <ele>2319</ele>
        <time>2026-08-04T09:39:29.646Z</time>
      </trkpt>
      <trkpt lat="45.95339" lon="6.85485">
        <ele>2319</ele>
        <time>2026-08-04T09:39:30.646Z</time>
      </trkpt>
      <trkpt lat="45.9534" lon="6.85487">
        <ele>2319</ele>
        <time>2026-08-04T09:39:31.646Z</time>
      </trkpt>
      <trkpt lat="45.9534" lon="6.8549">
        <ele>2319</ele>
        <time>2026-08-04T09:39:32.647Z</time>
      </trkpt>
      <trkpt lat="45.9534" lon="6.85491">
        <ele>2318</ele>
        <time>2026-08-04T09:39:33.646Z</time>
      </trkpt>
      <trkpt lat="45.9534" lon="6.85493">
        <ele>2318</ele>
        <time>2026-08-04T09:39:34.647Z</time>
      </trkpt>
      <trkpt lat="45.9534" lon="6.85495">
        <ele>2318</ele>
        <time>2026-08-04T09:39:35.646Z</time>
      </trkpt>
      <trkpt lat="45.95341" lon="6.85497">
        <ele>2317</ele>
        <time>2026-08-04T09:39:36.646Z</time>
      </trkpt>
      <trkpt lat="45.95341" lon="6.855">
        <ele>2317</ele>
        <time>2026-08-04T09:39:37.646Z</time>
      </trkpt>
      <trkpt lat="45.95342" lon="6.85502">
        <ele>2317</ele>
        <time>2026-08-04T09:39:38.646Z</time>
      </trkpt>
      <trkpt lat="45.95343" lon="6.85505">
        <ele>2316</ele>
        <time>2026-08-04T09:39:39.646Z</time>
      </trkpt>
      <trkpt lat="45.95343" lon="6.85507">
        <ele>2316</ele>
        <time>2026-08-04T09:39:40.646Z</time>
      </trkpt>
      <trkpt lat="45.95342" lon="6.85508">
        <ele>2315</ele>
        <time>2026-08-04T09:39:41.646Z</time>
      </trkpt>
      <trkpt lat="45.95341" lon="6.85508">
        <ele>2315</ele>
        <time>2026-08-04T09:39:42.646Z</time>
      </trkpt>
      <trkpt lat="45.9534" lon="6.85508">
        <ele>2315</ele>
        <time>2026-08-04T09:39:43.646Z</time>
      </trkpt>
      <trkpt lat="45.95338" lon="6.85507">
        <ele>2315</ele>
        <time>2026-08-04T09:39:44.646Z</time>
      </trkpt>
      <trkpt lat="45.95337" lon="6.85507">
        <ele>2315</ele>
        <time>2026-08-04T09:39:45.646Z</time>
      </trkpt>
      <trkpt lat="45.95337" lon="6.85507">
        <ele>2314</ele>
        <time>2026-08-04T09:39:46.646Z</time>
      </trkpt>
      <trkpt lat="45.95336" lon="6.85508">
        <ele>2314</ele>
        <time>2026-08-04T09:39:47.646Z</time>
      </trkpt>
      <trkpt lat="45.95336" lon="6.85509">
        <ele>2314</ele>
        <time>2026-08-04T09:39:48.646Z</time>
      </trkpt>
      <trkpt lat="45.95335" lon="6.8551">
        <ele>2314</ele>
        <time>2026-08-04T09:39:49.646Z</time>
      </trkpt>
      <trkpt lat="45.95335" lon="6.85511">
        <ele>2313</ele>
        <time>2026-08-04T09:39:50.646Z</time>
      </trkpt>
      <trkpt lat="45.95335" lon="6.85513">
        <ele>2313</ele>
        <time>2026-08-04T09:39:51.646Z</time>
      </trkpt>
      <trkpt lat="45.95335" lon="6.85514">
        <ele>2313</ele>
        <time>2026-08-04T09:39:52.646Z</time>
      </trkpt>
      <trkpt lat="45.95335" lon="6.85515">
        <ele>2312</ele>
        <time>2026-08-04T09:39:53.646Z</time>
      </trkpt>
      <trkpt lat="45.95336" lon="6.85516">
        <ele>2312</ele>
        <time>2026-08-04T09:39:54.646Z</time>
      </trkpt>
      <trkpt lat="45.95337" lon="6.85517">
        <ele>2312</ele>
        <time>2026-08-04T09:39:55.646Z</time>
      </trkpt>
      <trkpt lat="45.95337" lon="6.85518">
        <ele>2312</ele>
        <time>2026-08-04T09:39:56.646Z</time>
      </trkpt>
      <trkpt lat="45.95338" lon="6.85519">
        <ele>2311</ele>
        <time>2026-08-04T09:39:57.646Z</time>
      </trkpt>
      <trkpt lat="45.95338" lon="6.85521">
        <ele>2311</ele>
        <time>2026-08-04T09:39:58.646Z</time>
      </trkpt>
      <trkpt lat="45.95339" lon="6.85522">
        <ele>2311</ele>
        <time>2026-08-04T09:39:59.646Z</time>
      </trkpt>
      <trkpt lat="45.95339" lon="6.85523">
        <ele>2310</ele>
        <time>2026-08-04T09:40:00.646Z</time>
      </trkpt>
      <trkpt lat="45.95339" lon="6.85524">
        <ele>2310</ele>
        <time>2026-08-04T09:40:01.646Z</time>
      </trkpt>
      <trkpt lat="45.95339" lon="6.85525">
        <ele>2310</ele>
        <time>2026-08-04T09:40:02.646Z</time>
      </trkpt>
      <trkpt lat="45.95339" lon="6.85526">
        <ele>2310</ele>
        <time>2026-08-04T09:40:03.646Z</time>
      </trkpt>
      <trkpt lat="45.95338" lon="6.85526">
        <ele>2309</ele>
        <time>2026-08-04T09:40:04.646Z</time>
      </trkpt>
      <trkpt lat="45.95338" lon="6.85526">
        <ele>2309</ele>
        <time>2026-08-04T09:40:05.646Z</time>
      </trkpt>
      <trkpt lat="45.95336" lon="6.85527">
        <ele>2308</ele>
        <time>2026-08-04T09:40:06.646Z</time>
      </trkpt>
      <trkpt lat="45.95335" lon="6.85527">
        <ele>2308</ele>
        <time>2026-08-04T09:40:07.646Z</time>
      </trkpt>
      <trkpt lat="45.95334" lon="6.85526">
        <ele>2308</ele>
        <time>2026-08-04T09:40:08.646Z</time>
      </trkpt>
      <trkpt lat="45.95333" lon="6.85526">
        <ele>2307</ele>
        <time>2026-08-04T09:40:09.646Z</time>
      </trkpt>
      <trkpt lat="45.95332" lon="6.85525">
        <ele>2307</ele>
        <time>2026-08-04T09:40:10.646Z</time>
      </trkpt>
      <trkpt lat="45.95331" lon="6.85525">
        <ele>2307</ele>
        <time>2026-08-04T09:40:11.646Z</time>
      </trkpt>
      <trkpt lat="45.9533" lon="6.85524">
        <ele>2306</ele>
        <time>2026-08-04T09:40:12.646Z</time>
      </trkpt>
      <trkpt lat="45.95329" lon="6.85524">
        <ele>2306</ele>
        <time>2026-08-04T09:40:13.646Z</time>
      </trkpt>
      <trkpt lat="45.95328" lon="6.85523">
        <ele>2306</ele>
        <time>2026-08-04T09:40:14.646Z</time>
      </trkpt>
      <trkpt lat="45.95326" lon="6.85523">
        <ele>2305</ele>
        <time>2026-08-04T09:40:15.646Z</time>
      </trkpt>
      <trkpt lat="45.95325" lon="6.85522">
        <ele>2305</ele>
        <time>2026-08-04T09:40:16.646Z</time>
      </trkpt>
      <trkpt lat="45.95323" lon="6.85522">
        <ele>2304</ele>
        <time>2026-08-04T09:40:17.646Z</time>
      </trkpt>
      <trkpt lat="45.95321" lon="6.85521">
        <ele>2304</ele>
        <time>2026-08-04T09:40:18.646Z</time>
      </trkpt>
      <trkpt lat="45.9532" lon="6.8552">
        <ele>2303</ele>
        <time>2026-08-04T09:40:19.646Z</time>
      </trkpt>
      <trkpt lat="45.95318" lon="6.85519">
        <ele>2303</ele>
        <time>2026-08-04T09:40:20.646Z</time>
      </trkpt>
      <trkpt lat="45.95317" lon="6.85518">
        <ele>2302</ele>
        <time>2026-08-04T09:40:21.646Z</time>
      </trkpt>
      <trkpt lat="45.95315" lon="6.85516">
        <ele>2302</ele>
        <time>2026-08-04T09:40:22.646Z</time>
      </trkpt>
      <trkpt lat="45.95313" lon="6.85515">
        <ele>2302</ele>
        <time>2026-08-04T09:40:23.646Z</time>
      </trkpt>
      <trkpt lat="45.95312" lon="6.85513">
        <ele>2301</ele>
        <time>2026-08-04T09:40:24.646Z</time>
      </trkpt>
      <trkpt lat="45.95311" lon="6.85512">
        <ele>2301</ele>
        <time>2026-08-04T09:40:25.646Z</time>
      </trkpt>
      <trkpt lat="45.9531" lon="6.85511">
        <ele>2300</ele>
        <time>2026-08-04T09:40:26.646Z</time>
      </trkpt>
      <trkpt lat="45.9531" lon="6.8551">
        <ele>2300</ele>
        <time>2026-08-04T09:40:27.646Z</time>
      </trkpt>
      <trkpt lat="45.95309" lon="6.85511">
        <ele>2300</ele>
        <time>2026-08-04T09:40:28.646Z</time>
      </trkpt>
      <trkpt lat="45.95309" lon="6.85512">
        <ele>2299</ele>
        <time>2026-08-04T09:40:29.646Z</time>
      </trkpt>
      <trkpt lat="45.9531" lon="6.85514">
        <ele>2299</ele>
        <time>2026-08-04T09:40:30.646Z</time>
      </trkpt>
      <trkpt lat="45.95311" lon="6.85516">
        <ele>2298</ele>
        <time>2026-08-04T09:40:31.646Z</time>
      </trkpt>
      <trkpt lat="45.95311" lon="6.85517">
        <ele>2298</ele>
        <time>2026-08-04T09:40:32.646Z</time>
      </trkpt>
      <trkpt lat="45.95312" lon="6.85519">
        <ele>2298</ele>
        <time>2026-08-04T09:40:33.646Z</time>
      </trkpt>
      <trkpt lat="45.95313" lon="6.8552">
        <ele>2298</ele>
        <time>2026-08-04T09:40:34.646Z</time>
      </trkpt>
      <trkpt lat="45.95313" lon="6.85522">
        <ele>2298</ele>
        <time>2026-08-04T09:40:35.646Z</time>
      </trkpt>
      <trkpt lat="45.95313" lon="6.85523">
        <ele>2298</ele>
        <time>2026-08-04T09:40:36.646Z</time>
      </trkpt>
      <trkpt lat="45.95314" lon="6.85525">
        <ele>2298</ele>
        <time>2026-08-04T09:40:37.646Z</time>
      </trkpt>
      <trkpt lat="45.95314" lon="6.85526">
        <ele>2298</ele>
        <time>2026-08-04T09:40:38.646Z</time>
      </trkpt>
      <trkpt lat="45.95315" lon="6.85529">
        <ele>2298</ele>
        <time>2026-08-04T09:40:39.646Z</time>
      </trkpt>
      <trkpt lat="45.95316" lon="6.8553">
        <ele>2298</ele>
        <time>2026-08-04T09:40:40.646Z</time>
      </trkpt>
      <trkpt lat="45.95317" lon="6.85532">
        <ele>2298</ele>
        <time>2026-08-04T09:40:41.646Z</time>
      </trkpt>
      <trkpt lat="45.95318" lon="6.85534">
        <ele>2298</ele>
        <time>2026-08-04T09:40:42.646Z</time>
      </trkpt>
      <trkpt lat="45.95319" lon="6.85536">
        <ele>2298</ele>
        <time>2026-08-04T09:40:43.646Z</time>
      </trkpt>
      <trkpt lat="45.95319" lon="6.85538">
        <ele>2297</ele>
        <time>2026-08-04T09:40:44.646Z</time>
      </trkpt>
      <trkpt lat="45.95318" lon="6.85539">
        <ele>2297</ele>
        <time>2026-08-04T09:40:45.646Z</time>
      </trkpt>
      <trkpt lat="45.95318" lon="6.85539">
        <ele>2297</ele>
        <time>2026-08-04T09:40:46.646Z</time>
      </trkpt>
      <trkpt lat="45.95317" lon="6.85539">
        <ele>2296</ele>
        <time>2026-08-04T09:40:47.646Z</time>
      </trkpt>
      <trkpt lat="45.95316" lon="6.85539">
        <ele>2295</ele>
        <time>2026-08-04T09:40:48.646Z</time>
      </trkpt>
      <trkpt lat="45.95314" lon="6.8554">
        <ele>2295</ele>
        <time>2026-08-04T09:40:49.646Z</time>
      </trkpt>
      <trkpt lat="45.95313" lon="6.85539">
        <ele>2294</ele>
        <time>2026-08-04T09:40:50.646Z</time>
      </trkpt>
      <trkpt lat="45.95312" lon="6.85539">
        <ele>2294</ele>
        <time>2026-08-04T09:40:51.646Z</time>
      </trkpt>
      <trkpt lat="45.9531" lon="6.85538">
        <ele>2294</ele>
        <time>2026-08-04T09:40:52.646Z</time>
      </trkpt>
      <trkpt lat="45.95309" lon="6.85538">
        <ele>2293</ele>
        <time>2026-08-04T09:40:53.646Z</time>
      </trkpt>
      <trkpt lat="45.95308" lon="6.85537">
        <ele>2293</ele>
        <time>2026-08-04T09:40:54.646Z</time>
      </trkpt>
      <trkpt lat="45.95306" lon="6.85536">
        <ele>2292</ele>
        <time>2026-08-04T09:40:55.646Z</time>
      </trkpt>
      <trkpt lat="45.95304" lon="6.85535">
        <ele>2292</ele>
        <time>2026-08-04T09:40:56.646Z</time>
      </trkpt>
      <trkpt lat="45.95303" lon="6.85534">
        <ele>2291</ele>
        <time>2026-08-04T09:40:57.646Z</time>
      </trkpt>
      <trkpt lat="45.95302" lon="6.85533">
        <ele>2291</ele>
        <time>2026-08-04T09:40:58.646Z</time>
      </trkpt>
      <trkpt lat="45.95301" lon="6.85532">
        <ele>2290</ele>
        <time>2026-08-04T09:40:59.646Z</time>
      </trkpt>
      <trkpt lat="45.953" lon="6.85531">
        <ele>2290</ele>
        <time>2026-08-04T09:41:00.646Z</time>
      </trkpt>
      <trkpt lat="45.95298" lon="6.8553">
        <ele>2290</ele>
        <time>2026-08-04T09:41:01.646Z</time>
      </trkpt>
      <trkpt lat="45.95297" lon="6.85529">
        <ele>2289</ele>
        <time>2026-08-04T09:41:02.646Z</time>
      </trkpt>
      <trkpt lat="45.95296" lon="6.85527">
        <ele>2289</ele>
        <time>2026-08-04T09:41:03.646Z</time>
      </trkpt>
      <trkpt lat="45.95295" lon="6.85527">
        <ele>2288</ele>
        <time>2026-08-04T09:41:04.646Z</time>
      </trkpt>
      <trkpt lat="45.95294" lon="6.85526">
        <ele>2288</ele>
        <time>2026-08-04T09:41:05.646Z</time>
      </trkpt>
      <trkpt lat="45.95293" lon="6.85526">
        <ele>2288</ele>
        <time>2026-08-04T09:41:06.646Z</time>
      </trkpt>
      <trkpt lat="45.95291" lon="6.85525">
        <ele>2287</ele>
        <time>2026-08-04T09:41:07.646Z</time>
      </trkpt>
      <trkpt lat="45.9529" lon="6.85524">
        <ele>2287</ele>
        <time>2026-08-04T09:41:08.646Z</time>
      </trkpt>
      <trkpt lat="45.95289" lon="6.85523">
        <ele>2287</ele>
        <time>2026-08-04T09:41:09.646Z</time>
      </trkpt>
      <trkpt lat="45.95288" lon="6.85522">
        <ele>2286</ele>
        <time>2026-08-04T09:41:10.646Z</time>
      </trkpt>
      <trkpt lat="45.95287" lon="6.85521">
        <ele>2286</ele>
        <time>2026-08-04T09:41:11.646Z</time>
      </trkpt>
      <trkpt lat="45.95286" lon="6.85521">
        <ele>2286</ele>
        <time>2026-08-04T09:41:12.646Z</time>
      </trkpt>
      <trkpt lat="45.95286" lon="6.8552">
        <ele>2286</ele>
        <time>2026-08-04T09:41:13.646Z</time>
      </trkpt>
      <trkpt lat="45.95285" lon="6.85519">
        <ele>2285</ele>
        <time>2026-08-04T09:41:14.646Z</time>
      </trkpt>
      <trkpt lat="45.95283" lon="6.85519">
        <ele>2285</ele>
        <time>2026-08-04T09:41:15.646Z</time>
      </trkpt>
      <trkpt lat="45.95282" lon="6.85518">
        <ele>2284</ele>
        <time>2026-08-04T09:41:16.646Z</time>
      </trkpt>
      <trkpt lat="45.95281" lon="6.85518">
        <ele>2284</ele>
        <time>2026-08-04T09:41:17.646Z</time>
      </trkpt>
      <trkpt lat="45.9528" lon="6.85517">
        <ele>2284</ele>
        <time>2026-08-04T09:41:18.646Z</time>
      </trkpt>
      <trkpt lat="45.95279" lon="6.85517">
        <ele>2283</ele>
        <time>2026-08-04T09:41:19.646Z</time>
      </trkpt>
      <trkpt lat="45.95278" lon="6.85516">
        <ele>2283</ele>
        <time>2026-08-04T09:41:20.646Z</time>
      </trkpt>
      <trkpt lat="45.95277" lon="6.85515">
        <ele>2283</ele>
        <time>2026-08-04T09:41:21.646Z</time>
      </trkpt>
      <trkpt lat="45.95276" lon="6.85513">
        <ele>2283</ele>
        <time>2026-08-04T09:41:22.646Z</time>
      </trkpt>
      <trkpt lat="45.95275" lon="6.85512">
        <ele>2282</ele>
        <time>2026-08-04T09:41:23.646Z</time>
      </trkpt>
      <trkpt lat="45.95274" lon="6.85511">
        <ele>2282</ele>
        <time>2026-08-04T09:41:24.646Z</time>
      </trkpt>
      <trkpt lat="45.95272" lon="6.8551">
        <ele>2282</ele>
        <time>2026-08-04T09:41:25.646Z</time>
      </trkpt>
      <trkpt lat="45.95271" lon="6.85508">
        <ele>2282</ele>
        <time>2026-08-04T09:41:26.646Z</time>
      </trkpt>
      <trkpt lat="45.9527" lon="6.85507">
        <ele>2282</ele>
        <time>2026-08-04T09:41:27.646Z</time>
      </trkpt>
      <trkpt lat="45.95269" lon="6.85506">
        <ele>2281</ele>
        <time>2026-08-04T09:41:28.646Z</time>
      </trkpt>
      <trkpt lat="45.95269" lon="6.85505">
        <ele>2281</ele>
        <time>2026-08-04T09:41:29.646Z</time>
      </trkpt>
      <trkpt lat="45.95268" lon="6.85504">
        <ele>2280</ele>
        <time>2026-08-04T09:41:30.646Z</time>
      </trkpt>
      <trkpt lat="45.95267" lon="6.85503">
        <ele>2280</ele>
        <time>2026-08-04T09:41:31.646Z</time>
      </trkpt>
      <trkpt lat="45.95266" lon="6.85502">
        <ele>2280</ele>
        <time>2026-08-04T09:41:32.646Z</time>
      </trkpt>
      <trkpt lat="45.95265" lon="6.855">
        <ele>2279</ele>
        <time>2026-08-04T09:41:33.646Z</time>
      </trkpt>
      <trkpt lat="45.95264" lon="6.85498">
        <ele>2279</ele>
        <time>2026-08-04T09:41:34.646Z</time>
      </trkpt>
      <trkpt lat="45.95264" lon="6.85496">
        <ele>2279</ele>
        <time>2026-08-04T09:41:35.646Z</time>
      </trkpt>
      <trkpt lat="45.95263" lon="6.85494">
        <ele>2278</ele>
        <time>2026-08-04T09:41:36.646Z</time>
      </trkpt>
      <trkpt lat="45.95263" lon="6.85493">
        <ele>2278</ele>
        <time>2026-08-04T09:41:37.646Z</time>
      </trkpt>
      <trkpt lat="45.95262" lon="6.85491">
        <ele>2278</ele>
        <time>2026-08-04T09:41:38.646Z</time>
      </trkpt>
      <trkpt lat="45.95261" lon="6.8549">
        <ele>2277</ele>
        <time>2026-08-04T09:41:39.646Z</time>
      </trkpt>
      <trkpt lat="45.95261" lon="6.85489">
        <ele>2277</ele>
        <time>2026-08-04T09:41:40.646Z</time>
      </trkpt>
      <trkpt lat="45.95261" lon="6.85489">
        <ele>2276</ele>
        <time>2026-08-04T09:41:41.646Z</time>
      </trkpt>
      <trkpt lat="45.9526" lon="6.85488">
        <ele>2276</ele>
        <time>2026-08-04T09:41:42.646Z</time>
      </trkpt>
      <trkpt lat="45.9526" lon="6.85488">
        <ele>2276</ele>
        <time>2026-08-04T09:41:43.646Z</time>
      </trkpt>
      <trkpt lat="45.9526" lon="6.85488">
        <ele>2276</ele>
        <time>2026-08-04T09:41:44.646Z</time>
      </trkpt>
      <trkpt lat="45.9526" lon="6.85488">
        <ele>2275</ele>
        <time>2026-08-04T09:41:45.646Z</time>
      </trkpt>
      <trkpt lat="45.9526" lon="6.85488">
        <ele>2275</ele>
        <time>2026-08-04T09:41:46.646Z</time>
      </trkpt>
      <trkpt lat="45.9526" lon="6.85488">
        <ele>2275</ele>
        <time>2026-08-04T09:41:47.646Z</time>
      </trkpt>
      <trkpt lat="45.9526" lon="6.85488">
        <ele>2274</ele>
        <time>2026-08-04T09:41:48.646Z</time>
      </trkpt>
      <trkpt lat="45.9526" lon="6.85488">
        <ele>2274</ele>
        <time>2026-08-04T09:41:49.646Z</time>
      </trkpt>
      <trkpt lat="45.9526" lon="6.85489">
        <ele>2274</ele>
        <time>2026-08-04T09:41:50.646Z</time>
      </trkpt>
      <trkpt lat="45.95261" lon="6.85489">
        <ele>2274</ele>
        <time>2026-08-04T09:41:51.646Z</time>
      </trkpt>
      <trkpt lat="45.95261" lon="6.85489">
        <ele>2274</ele>
        <time>2026-08-04T09:41:52.646Z</time>
      </trkpt>
      <trkpt lat="45.95261" lon="6.8549">
        <ele>2273</ele>
        <time>2026-08-04T09:41:53.646Z</time>
      </trkpt>
      <trkpt lat="45.95262" lon="6.8549">
        <ele>2273</ele>
        <time>2026-08-04T09:41:54.646Z</time>
      </trkpt>
      <trkpt lat="45.95262" lon="6.85491">
        <ele>2273</ele>
        <time>2026-08-04T09:41:55.646Z</time>
      </trkpt>
      <trkpt lat="45.95263" lon="6.85492">
        <ele>2273</ele>
        <time>2026-08-04T09:41:56.646Z</time>
      </trkpt>
      <trkpt lat="45.95263" lon="6.85493">
        <ele>2273</ele>
        <time>2026-08-04T09:41:57.646Z</time>
      </trkpt>
      <trkpt lat="45.95264" lon="6.85495">
        <ele>2273</ele>
        <time>2026-08-04T09:41:58.646Z</time>
      </trkpt>
      <trkpt lat="45.95264" lon="6.85496">
        <ele>2273</ele>
        <time>2026-08-04T09:41:59.646Z</time>
      </trkpt>
      <trkpt lat="45.95265" lon="6.85498">
        <ele>2273</ele>
        <time>2026-08-04T09:42:00.646Z</time>
      </trkpt>
      <trkpt lat="45.95265" lon="6.85499">
        <ele>2274</ele>
        <time>2026-08-04T09:42:01.646Z</time>
      </trkpt>
      <trkpt lat="45.95266" lon="6.85499">
        <ele>2274</ele>
        <time>2026-08-04T09:42:02.646Z</time>
      </trkpt>
      <trkpt lat="45.95266" lon="6.855">
        <ele>2274</ele>
        <time>2026-08-04T09:42:03.646Z</time>
      </trkpt>
      <trkpt lat="45.95267" lon="6.85501">
        <ele>2274</ele>
        <time>2026-08-04T09:42:04.646Z</time>
      </trkpt>
      <trkpt lat="45.95267" lon="6.85502">
        <ele>2275</ele>
        <time>2026-08-04T09:42:05.646Z</time>
      </trkpt>
      <trkpt lat="45.95267" lon="6.85502">
        <ele>2275</ele>
        <time>2026-08-04T09:42:06.646Z</time>
      </trkpt>
      <trkpt lat="45.95267" lon="6.85502">
        <ele>2275</ele>
        <time>2026-08-04T09:42:07.646Z</time>
      </trkpt>
      <trkpt lat="45.95267" lon="6.85502">
        <ele>2275</ele>
        <time>2026-08-04T09:42:08.646Z</time>
      </trkpt>
      <trkpt lat="45.95267" lon="6.85501">
        <ele>2275</ele>
        <time>2026-08-04T09:42:09.646Z</time>
      </trkpt>
      <trkpt lat="45.95267" lon="6.85501">
        <ele>2275</ele>
        <time>2026-08-04T09:42:10.646Z</time>
      </trkpt>
      <trkpt lat="45.95268" lon="6.85501">
        <ele>2276</ele>
        <time>2026-08-04T09:42:11.646Z</time>
      </trkpt>
      <trkpt lat="45.95268" lon="6.85502">
        <ele>2276</ele>
        <time>2026-08-04T09:42:12.646Z</time>
      </trkpt>
      <trkpt lat="45.95269" lon="6.85502">
        <ele>2277</ele>
        <time>2026-08-04T09:42:13.646Z</time>
      </trkpt>
      <trkpt lat="45.9527" lon="6.85503">
        <ele>2277</ele>
        <time>2026-08-04T09:42:14.646Z</time>
      </trkpt>
      <trkpt lat="45.9527" lon="6.85504">
        <ele>2277</ele>
        <time>2026-08-04T09:42:15.646Z</time>
      </trkpt>
      <trkpt lat="45.9527" lon="6.85506">
        <ele>2277</ele>
        <time>2026-08-04T09:42:16.646Z</time>
      </trkpt>
      <trkpt lat="45.95271" lon="6.85508">
        <ele>2277</ele>
        <time>2026-08-04T09:42:17.646Z</time>
      </trkpt>
      <trkpt lat="45.95272" lon="6.85508">
        <ele>2277</ele>
        <time>2026-08-04T09:42:18.646Z</time>
      </trkpt>
      <trkpt lat="45.95272" lon="6.85509">
        <ele>2278</ele>
        <time>2026-08-04T09:42:19.646Z</time>
      </trkpt>
      <trkpt lat="45.95274" lon="6.8551">
        <ele>2278</ele>
        <time>2026-08-04T09:42:20.646Z</time>
      </trkpt>
      <trkpt lat="45.95275" lon="6.85511">
        <ele>2278</ele>
        <time>2026-08-04T09:42:21.646Z</time>
      </trkpt>
      <trkpt lat="45.95275" lon="6.85512">
        <ele>2278</ele>
        <time>2026-08-04T09:42:22.646Z</time>
      </trkpt>
      <trkpt lat="45.95276" lon="6.85513">
        <ele>2278</ele>
        <time>2026-08-04T09:42:23.646Z</time>
      </trkpt>
      <trkpt lat="45.95277" lon="6.85514">
        <ele>2278</ele>
        <time>2026-08-04T09:42:24.646Z</time>
      </trkpt>
      <trkpt lat="45.95278" lon="6.85515">
        <ele>2279</ele>
        <time>2026-08-04T09:42:25.646Z</time>
      </trkpt>
      <trkpt lat="45.95279" lon="6.85516">
        <ele>2279</ele>
        <time>2026-08-04T09:42:26.646Z</time>
      </trkpt>
      <trkpt lat="45.95279" lon="6.85517">
        <ele>2280</ele>
        <time>2026-08-04T09:42:27.646Z</time>
      </trkpt>
      <trkpt lat="45.9528" lon="6.85518">
        <ele>2280</ele>
        <time>2026-08-04T09:42:28.646Z</time>
      </trkpt>
      <trkpt lat="45.95281" lon="6.85519">
        <ele>2281</ele>
        <time>2026-08-04T09:42:29.646Z</time>
      </trkpt>
      <trkpt lat="45.95282" lon="6.85519">
        <ele>2281</ele>
        <time>2026-08-04T09:42:30.646Z</time>
      </trkpt>
      <trkpt lat="45.95283" lon="6.8552">
        <ele>2281</ele>
        <time>2026-08-04T09:42:31.646Z</time>
      </trkpt>
      <trkpt lat="45.95284" lon="6.85521">
        <ele>2281</ele>
        <time>2026-08-04T09:42:32.646Z</time>
      </trkpt>
      <trkpt lat="45.95284" lon="6.85522">
        <ele>2282</ele>
        <time>2026-08-04T09:42:33.646Z</time>
      </trkpt>
      <trkpt lat="45.95285" lon="6.85522">
        <ele>2281</ele>
        <time>2026-08-04T09:42:34.646Z</time>
      </trkpt>
      <trkpt lat="45.95286" lon="6.85523">
        <ele>2281</ele>
        <time>2026-08-04T09:42:35.646Z</time>
      </trkpt>
      <trkpt lat="45.95288" lon="6.85523">
        <ele>2281</ele>
        <time>2026-08-04T09:42:36.646Z</time>
      </trkpt>
      <trkpt lat="45.95289" lon="6.85524">
        <ele>2281</ele>
        <time>2026-08-04T09:42:37.646Z</time>
      </trkpt>
      <trkpt lat="45.9529" lon="6.85524">
        <ele>2280</ele>
        <time>2026-08-04T09:42:38.646Z</time>
      </trkpt>
      <trkpt lat="45.95291" lon="6.85524">
        <ele>2280</ele>
        <time>2026-08-04T09:42:39.646Z</time>
      </trkpt>
      <trkpt lat="45.95292" lon="6.85524">
        <ele>2279</ele>
        <time>2026-08-04T09:42:40.646Z</time>
      </trkpt>
      <trkpt lat="45.95293" lon="6.85524">
        <ele>2279</ele>
        <time>2026-08-04T09:42:41.646Z</time>
      </trkpt>
      <trkpt lat="45.95295" lon="6.85525">
        <ele>2279</ele>
        <time>2026-08-04T09:42:42.646Z</time>
      </trkpt>
      <trkpt lat="45.95296" lon="6.85525">
        <ele>2279</ele>
        <time>2026-08-04T09:42:43.646Z</time>
      </trkpt>
      <trkpt lat="45.95297" lon="6.85525">
        <ele>2280</ele>
        <time>2026-08-04T09:42:44.646Z</time>
      </trkpt>
      <trkpt lat="45.95298" lon="6.85526">
        <ele>2280</ele>
        <time>2026-08-04T09:42:45.646Z</time>
      </trkpt>
      <trkpt lat="45.95299" lon="6.85527">
        <ele>2281</ele>
        <time>2026-08-04T09:42:46.646Z</time>
      </trkpt>
      <trkpt lat="45.953" lon="6.85528">
        <ele>2281</ele>
        <time>2026-08-04T09:42:47.646Z</time>
      </trkpt>
      <trkpt lat="45.95301" lon="6.85528">
        <ele>2282</ele>
        <time>2026-08-04T09:42:48.646Z</time>
      </trkpt>
      <trkpt lat="45.95302" lon="6.85529">
        <ele>2282</ele>
        <time>2026-08-04T09:42:49.646Z</time>
      </trkpt>
      <trkpt lat="45.95304" lon="6.85529">
        <ele>2282</ele>
        <time>2026-08-04T09:42:50.646Z</time>
      </trkpt>
      <trkpt lat="45.95305" lon="6.8553">
        <ele>2283</ele>
        <time>2026-08-04T09:42:51.646Z</time>
      </trkpt>
      <trkpt lat="45.95306" lon="6.85531">
        <ele>2283</ele>
        <time>2026-08-04T09:42:52.646Z</time>
      </trkpt>
      <trkpt lat="45.95308" lon="6.85533">
        <ele>2284</ele>
        <time>2026-08-04T09:42:53.646Z</time>
      </trkpt>
      <trkpt lat="45.95309" lon="6.85533">
        <ele>2285</ele>
        <time>2026-08-04T09:42:54.646Z</time>
      </trkpt>
      <trkpt lat="45.95309" lon="6.85534">
        <ele>2285</ele>
        <time>2026-08-04T09:42:55.646Z</time>
      </trkpt>
      <trkpt lat="45.9531" lon="6.85535">
        <ele>2285</ele>
        <time>2026-08-04T09:42:56.646Z</time>
      </trkpt>
      <trkpt lat="45.95311" lon="6.85535">
        <ele>2285</ele>
        <time>2026-08-04T09:42:57.646Z</time>
      </trkpt>
      <trkpt lat="45.95311" lon="6.85535">
        <ele>2286</ele>
        <time>2026-08-04T09:42:58.646Z</time>
      </trkpt>
      <trkpt lat="45.95311" lon="6.85536">
        <ele>2286</ele>
        <time>2026-08-04T09:42:59.646Z</time>
      </trkpt>
      <trkpt lat="45.95312" lon="6.85536">
        <ele>2286</ele>
        <time>2026-08-04T09:43:00.646Z</time>
      </trkpt>
      <trkpt lat="45.95312" lon="6.85537">
        <ele>2285</ele>
        <time>2026-08-04T09:43:01.646Z</time>
      </trkpt>
      <trkpt lat="45.95312" lon="6.85538">
        <ele>2285</ele>
        <time>2026-08-04T09:43:02.646Z</time>
      </trkpt>
      <trkpt lat="45.95312" lon="6.85539">
        <ele>2285</ele>
        <time>2026-08-04T09:43:03.646Z</time>
      </trkpt>
      <trkpt lat="45.95312" lon="6.8554">
        <ele>2285</ele>
        <time>2026-08-04T09:43:04.646Z</time>
      </trkpt>
      <trkpt lat="45.95312" lon="6.85541">
        <ele>2285</ele>
        <time>2026-08-04T09:43:05.646Z</time>
      </trkpt>
      <trkpt lat="45.95312" lon="6.85542">
        <ele>2285</ele>
        <time>2026-08-04T09:43:06.646Z</time>
      </trkpt>
      <trkpt lat="45.95312" lon="6.85543">
        <ele>2285</ele>
        <time>2026-08-04T09:43:07.646Z</time>
      </trkpt>
      <trkpt lat="45.95313" lon="6.85544">
        <ele>2285</ele>
        <time>2026-08-04T09:43:08.646Z</time>
      </trkpt>
      <trkpt lat="45.95313" lon="6.85544">
        <ele>2285</ele>
        <time>2026-08-04T09:43:09.646Z</time>
      </trkpt>
      <trkpt lat="45.95313" lon="6.85545">
        <ele>2284</ele>
        <time>2026-08-04T09:43:10.646Z</time>
      </trkpt>
      <trkpt lat="45.95313" lon="6.85546">
        <ele>2284</ele>
        <time>2026-08-04T09:43:11.646Z</time>
      </trkpt>
      <trkpt lat="45.95313" lon="6.85547">
        <ele>2284</ele>
        <time>2026-08-04T09:43:12.646Z</time>
      </trkpt>
      <trkpt lat="45.95313" lon="6.85547">
        <ele>2284</ele>
        <time>2026-08-04T09:43:13.646Z</time>
      </trkpt>
      <trkpt lat="45.95313" lon="6.85548">
        <ele>2284</ele>
        <time>2026-08-04T09:43:14.646Z</time>
      </trkpt>
      <trkpt lat="45.95314" lon="6.85549">
        <ele>2284</ele>
        <time>2026-08-04T09:43:15.646Z</time>
      </trkpt>
      <trkpt lat="45.95314" lon="6.8555">
        <ele>2284</ele>
        <time>2026-08-04T09:43:16.646Z</time>
      </trkpt>
      <trkpt lat="45.95314" lon="6.8555">
        <ele>2284</ele>
        <time>2026-08-04T09:43:17.646Z</time>
      </trkpt>
      <trkpt lat="45.95314" lon="6.8555">
        <ele>2284</ele>
        <time>2026-08-04T09:43:18.646Z</time>
      </trkpt>
      <trkpt lat="45.95314" lon="6.85551">
        <ele>2284</ele>
        <time>2026-08-04T09:43:19.646Z</time>
      </trkpt>
      <trkpt lat="45.95314" lon="6.85552">
        <ele>2284</ele>
        <time>2026-08-04T09:43:20.646Z</time>
      </trkpt>
      <trkpt lat="45.95314" lon="6.85552">
        <ele>2284</ele>
        <time>2026-08-04T09:43:21.646Z</time>
      </trkpt>
      <trkpt lat="45.95314" lon="6.85553">
        <ele>2285</ele>
        <time>2026-08-04T09:43:22.646Z</time>
      </trkpt>
      <trkpt lat="45.95314" lon="6.85554">
        <ele>2285</ele>
        <time>2026-08-04T09:43:23.646Z</time>
      </trkpt>
      <trkpt lat="45.95314" lon="6.85555">
        <ele>2285</ele>
        <time>2026-08-04T09:43:24.646Z</time>
      </trkpt>
      <trkpt lat="45.95314" lon="6.85556">
        <ele>2285</ele>
        <time>2026-08-04T09:43:25.646Z</time>
      </trkpt>
      <trkpt lat="45.95314" lon="6.85557">
        <ele>2285</ele>
        <time>2026-08-04T09:43:26.646Z</time>
      </trkpt>
      <trkpt lat="45.95314" lon="6.85558">
        <ele>2284</ele>
        <time>2026-08-04T09:43:27.646Z</time>
      </trkpt>
      <trkpt lat="45.95314" lon="6.85558">
        <ele>2284</ele>
        <time>2026-08-04T09:43:28.646Z</time>
      </trkpt>
      <trkpt lat="45.95314" lon="6.85559">
        <ele>2283</ele>
        <time>2026-08-04T09:43:29.646Z</time>
      </trkpt>
      <trkpt lat="45.95314" lon="6.8556">
        <ele>2283</ele>
        <time>2026-08-04T09:43:30.646Z</time>
      </trkpt>
      <trkpt lat="45.95314" lon="6.85561">
        <ele>2283</ele>
        <time>2026-08-04T09:43:31.646Z</time>
      </trkpt>
      <trkpt lat="45.95314" lon="6.85562">
        <ele>2283</ele>
        <time>2026-08-04T09:43:32.646Z</time>
      </trkpt>
      <trkpt lat="45.95314" lon="6.85563">
        <ele>2283</ele>
        <time>2026-08-04T09:43:33.646Z</time>
      </trkpt>
      <trkpt lat="45.95314" lon="6.85564">
        <ele>2282</ele>
        <time>2026-08-04T09:43:34.646Z</time>
      </trkpt>
      <trkpt lat="45.95314" lon="6.85565">
        <ele>2282</ele>
        <time>2026-08-04T09:43:35.646Z</time>
      </trkpt>
      <trkpt lat="45.95314" lon="6.85566">
        <ele>2282</ele>
        <time>2026-08-04T09:43:36.646Z</time>
      </trkpt>
      <trkpt lat="45.95313" lon="6.85567">
        <ele>2283</ele>
        <time>2026-08-04T09:43:37.646Z</time>
      </trkpt>
      <trkpt lat="45.95313" lon="6.85568">
        <ele>2283</ele>
        <time>2026-08-04T09:43:38.646Z</time>
      </trkpt>
      <trkpt lat="45.95313" lon="6.85569">
        <ele>2283</ele>
        <time>2026-08-04T09:43:39.646Z</time>
      </trkpt>
      <trkpt lat="45.95312" lon="6.8557">
        <ele>2282</ele>
        <time>2026-08-04T09:43:40.646Z</time>
      </trkpt>
      <trkpt lat="45.95312" lon="6.85571">
        <ele>2282</ele>
        <time>2026-08-04T09:43:41.646Z</time>
      </trkpt>
      <trkpt lat="45.95311" lon="6.85572">
        <ele>2283</ele>
        <time>2026-08-04T09:43:42.646Z</time>
      </trkpt>
      <trkpt lat="45.9531" lon="6.85573">
        <ele>2283</ele>
        <time>2026-08-04T09:43:43.646Z</time>
      </trkpt>
      <trkpt lat="45.95309" lon="6.85573">
        <ele>2283</ele>
        <time>2026-08-04T09:43:44.646Z</time>
      </trkpt>
      <trkpt lat="45.95307" lon="6.85572">
        <ele>2283</ele>
        <time>2026-08-04T09:43:45.646Z</time>
      </trkpt>
      <trkpt lat="45.95306" lon="6.85571">
        <ele>2282</ele>
        <time>2026-08-04T09:43:46.646Z</time>
      </trkpt>
      <trkpt lat="45.95305" lon="6.8557">
        <ele>2282</ele>
        <time>2026-08-04T09:43:47.646Z</time>
      </trkpt>
      <trkpt lat="45.95304" lon="6.85569">
        <ele>2282</ele>
        <time>2026-08-04T09:43:48.646Z</time>
      </trkpt>
      <trkpt lat="45.95303" lon="6.85568">
        <ele>2282</ele>
        <time>2026-08-04T09:43:49.646Z</time>
      </trkpt>
      <trkpt lat="45.95301" lon="6.85567">
        <ele>2282</ele>
        <time>2026-08-04T09:43:50.646Z</time>
      </trkpt>
      <trkpt lat="45.953" lon="6.85566">
        <ele>2282</ele>
        <time>2026-08-04T09:43:51.646Z</time>
      </trkpt>
      <trkpt lat="45.95299" lon="6.85565">
        <ele>2281</ele>
        <time>2026-08-04T09:43:52.646Z</time>
      </trkpt>
      <trkpt lat="45.95298" lon="6.85563">
        <ele>2281</ele>
        <time>2026-08-04T09:43:53.646Z</time>
      </trkpt>
      <trkpt lat="45.95296" lon="6.85562">
        <ele>2281</ele>
        <time>2026-08-04T09:43:54.646Z</time>
      </trkpt>
      <trkpt lat="45.95295" lon="6.8556">
        <ele>2280</ele>
        <time>2026-08-04T09:43:55.646Z</time>
      </trkpt>
      <trkpt lat="45.95294" lon="6.85559">
        <ele>2280</ele>
        <time>2026-08-04T09:43:56.646Z</time>
      </trkpt>
      <trkpt lat="45.95293" lon="6.85558">
        <ele>2280</ele>
        <time>2026-08-04T09:43:57.646Z</time>
      </trkpt>
      <trkpt lat="45.95292" lon="6.85557">
        <ele>2280</ele>
        <time>2026-08-04T09:43:58.646Z</time>
      </trkpt>
      <trkpt lat="45.95291" lon="6.85555">
        <ele>2279</ele>
        <time>2026-08-04T09:43:59.646Z</time>
      </trkpt>
      <trkpt lat="45.9529" lon="6.85555">
        <ele>2279</ele>
        <time>2026-08-04T09:44:00.646Z</time>
      </trkpt>
      <trkpt lat="45.95289" lon="6.85554">
        <ele>2278</ele>
        <time>2026-08-04T09:44:01.646Z</time>
      </trkpt>
      <trkpt lat="45.95289" lon="6.85553">
        <ele>2278</ele>
        <time>2026-08-04T09:44:02.646Z</time>
      </trkpt>
      <trkpt lat="45.95288" lon="6.85552">
        <ele>2277</ele>
        <time>2026-08-04T09:44:03.646Z</time>
      </trkpt>
      <trkpt lat="45.95288" lon="6.85551">
        <ele>2276</ele>
        <time>2026-08-04T09:44:04.646Z</time>
      </trkpt>
      <trkpt lat="45.95286" lon="6.8555">
        <ele>2276</ele>
        <time>2026-08-04T09:44:05.646Z</time>
      </trkpt>
      <trkpt lat="45.95284" lon="6.85549">
        <ele>2275</ele>
        <time>2026-08-04T09:44:06.646Z</time>
      </trkpt>
      <trkpt lat="45.95282" lon="6.85549">
        <ele>2275</ele>
        <time>2026-08-04T09:44:07.646Z</time>
      </trkpt>
      <trkpt lat="45.9528" lon="6.85549">
        <ele>2274</ele>
        <time>2026-08-04T09:44:08.646Z</time>
      </trkpt>
      <trkpt lat="45.95279" lon="6.85549">
        <ele>2274</ele>
        <time>2026-08-04T09:44:09.646Z</time>
      </trkpt>
      <trkpt lat="45.95277" lon="6.85549">
        <ele>2274</ele>
        <time>2026-08-04T09:44:10.646Z</time>
      </trkpt>
      <trkpt lat="45.95277" lon="6.85549">
        <ele>2273</ele>
        <time>2026-08-04T09:44:11.646Z</time>
      </trkpt>
      <trkpt lat="45.95276" lon="6.85548">
        <ele>2273</ele>
        <time>2026-08-04T09:44:12.646Z</time>
      </trkpt>
      <trkpt lat="45.95276" lon="6.85548">
        <ele>2272</ele>
        <time>2026-08-04T09:44:13.646Z</time>
      </trkpt>
      <trkpt lat="45.95275" lon="6.85548">
        <ele>2272</ele>
        <time>2026-08-04T09:44:14.646Z</time>
      </trkpt>
      <trkpt lat="45.95275" lon="6.85548">
        <ele>2272</ele>
        <time>2026-08-04T09:44:15.646Z</time>
      </trkpt>
      <trkpt lat="45.95275" lon="6.85549">
        <ele>2271</ele>
        <time>2026-08-04T09:44:16.646Z</time>
      </trkpt>
      <trkpt lat="45.95275" lon="6.85549">
        <ele>2271</ele>
        <time>2026-08-04T09:44:17.646Z</time>
      </trkpt>
      <trkpt lat="45.95275" lon="6.85549">
        <ele>2270</ele>
        <time>2026-08-04T09:44:18.646Z</time>
      </trkpt>
      <trkpt lat="45.95275" lon="6.85549">
        <ele>2270</ele>
        <time>2026-08-04T09:44:19.646Z</time>
      </trkpt>
      <trkpt lat="45.95275" lon="6.85549">
        <ele>2270</ele>
        <time>2026-08-04T09:44:20.646Z</time>
      </trkpt>
      <trkpt lat="45.95275" lon="6.85549">
        <ele>2270</ele>
        <time>2026-08-04T09:44:21.646Z</time>
      </trkpt>
      <trkpt lat="45.95275" lon="6.85549">
        <ele>2270</ele>
        <time>2026-08-04T09:44:22.646Z</time>
      </trkpt>
      <trkpt lat="45.95275" lon="6.85549">
        <ele>2270</ele>
        <time>2026-08-04T09:44:23.646Z</time>
      </trkpt>
      <trkpt lat="45.95275" lon="6.85549">
        <ele>2271</ele>
        <time>2026-08-04T09:44:24.646Z</time>
      </trkpt>
      <trkpt lat="45.95275" lon="6.85549">
        <ele>2271</ele>
        <time>2026-08-04T09:44:25.646Z</time>
      </trkpt>
      <trkpt lat="45.95275" lon="6.85549">
        <ele>2272</ele>
        <time>2026-08-04T09:44:26.646Z</time>
      </trkpt>
      <trkpt lat="45.95275" lon="6.85549">
        <ele>2272</ele>
        <time>2026-08-04T09:44:27.646Z</time>
      </trkpt>
      <trkpt lat="45.95275" lon="6.85549">
        <ele>2272</ele>
        <time>2026-08-04T09:44:28.646Z</time>
      </trkpt>
      <trkpt lat="45.95275" lon="6.85549">
        <ele>2272</ele>
        <time>2026-08-04T09:44:29.646Z</time>
      </trkpt>
      <trkpt lat="45.95275" lon="6.85549">
        <ele>2271</ele>
        <time>2026-08-04T09:44:30.646Z</time>
      </trkpt>
      <trkpt lat="45.95275" lon="6.85549">
        <ele>2271</ele>
        <time>2026-08-04T09:44:31.646Z</time>
      </trkpt>
      <trkpt lat="45.95275" lon="6.85549">
        <ele>2271</ele>
        <time>2026-08-04T09:44:32.646Z</time>
      </trkpt>
      <trkpt lat="45.95275" lon="6.85549">
        <ele>2271</ele>
        <time>2026-08-04T09:44:33.646Z</time>
      </trkpt>
      <trkpt lat="45.95275" lon="6.85549">
        <ele>2271</ele>
        <time>2026-08-04T09:44:34.646Z</time>
      </trkpt>
      <trkpt lat="45.95275" lon="6.85549">
        <ele>2271</ele>
        <time>2026-08-04T09:44:35.646Z</time>
      </trkpt>
      <trkpt lat="45.95275" lon="6.85549">
        <ele>2270</ele>
        <time>2026-08-04T09:44:36.646Z</time>
      </trkpt>
      <trkpt lat="45.95275" lon="6.85549">
        <ele>2270</ele>
        <time>2026-08-04T09:44:37.646Z</time>
      </trkpt>
      <trkpt lat="45.95275" lon="6.85549">
        <ele>2270</ele>
        <time>2026-08-04T09:44:38.646Z</time>
      </trkpt>
      <trkpt lat="45.95275" lon="6.85549">
        <ele>2270</ele>
        <time>2026-08-04T09:44:39.646Z</time>
      </trkpt>
      <trkpt lat="45.95275" lon="6.85549">
        <ele>2270</ele>
        <time>2026-08-04T09:44:40.646Z</time>
      </trkpt>
      <trkpt lat="45.95275" lon="6.85549">
        <ele>2270</ele>
        <time>2026-08-04T09:44:41.646Z</time>
      </trkpt>
      <trkpt lat="45.95275" lon="6.85549">
        <ele>2270</ele>
        <time>2026-08-04T09:44:42.646Z</time>
      </trkpt>
      <trkpt lat="45.95275" lon="6.85549">
        <ele>2270</ele>
        <time>2026-08-04T09:44:43.646Z</time>
      </trkpt>
      <trkpt lat="45.95275" lon="6.85549">
        <ele>2270</ele>
        <time>2026-08-04T09:44:44.646Z</time>
      </trkpt>
      <trkpt lat="45.95275" lon="6.85549">
        <ele>2270</ele>
        <time>2026-08-04T09:44:45.646Z</time>
      </trkpt>
      <trkpt lat="45.95275" lon="6.85549">
        <ele>2270</ele>
        <time>2026-08-04T09:44:46.646Z</time>
      </trkpt>
      <trkpt lat="45.95275" lon="6.85549">
        <ele>2270</ele>
        <time>2026-08-04T09:44:47.646Z</time>
      </trkpt>
      <trkpt lat="45.95275" lon="6.85549">
        <ele>2270</ele>
        <time>2026-08-04T09:44:48.646Z</time>
      </trkpt>
      <trkpt lat="45.95275" lon="6.85549">
        <ele>2270</ele>
        <time>2026-08-04T09:44:49.646Z</time>
      </trkpt>
      <trkpt lat="45.95275" lon="6.85549">
        <ele>2270</ele>
        <time>2026-08-04T09:44:50.646Z</time>
      </trkpt>
      <trkpt lat="45.95275" lon="6.85549">
        <ele>2270</ele>
        <time>2026-08-04T09:44:51.646Z</time>
      </trkpt>
      <trkpt lat="45.95275" lon="6.85549">
        <ele>2270</ele>
        <time>2026-08-04T09:44:52.646Z</time>
      </trkpt>
      <trkpt lat="45.95275" lon="6.85549">
        <ele>2270</ele>
        <time>2026-08-04T09:44:53.646Z</time>
      </trkpt>
      <trkpt lat="45.95275" lon="6.85549">
        <ele>2270</ele>
        <time>2026-08-04T09:44:54.646Z</time>
      </trkpt>
      <trkpt lat="45.95275" lon="6.85549">
        <ele>2270</ele>
        <time>2026-08-04T09:44:55.646Z</time>
      </trkpt>
      <trkpt lat="45.95275" lon="6.85549">
        <ele>2270</ele>
        <time>2026-08-04T09:44:56.646Z</time>
      </trkpt>
      <trkpt lat="45.95275" lon="6.85549">
        <ele>2270</ele>
        <time>2026-08-04T09:44:57.646Z</time>
      </trkpt>
      <trkpt lat="45.95275" lon="6.85549">
        <ele>2270</ele>
        <time>2026-08-04T09:44:58.646Z</time>
      </trkpt>
      <trkpt lat="45.95275" lon="6.85549">
        <ele>2270</ele>
        <time>2026-08-04T09:44:59.646Z</time>
      </trkpt>
      <trkpt lat="45.95275" lon="6.85549">
        <ele>2270</ele>
        <time>2026-08-04T09:45:00.646Z</time>
      </trkpt>
      <trkpt lat="45.95275" lon="6.85549">
        <ele>2270</ele>
        <time>2026-08-04T09:45:01.646Z</time>
      </trkpt>
      <trkpt lat="45.95275" lon="6.85549">
        <ele>2270</ele>
        <time>2026-08-04T09:45:02.646Z</time>
      </trkpt>
      <trkpt lat="45.95275" lon="6.85549">
        <ele>2270</ele>
        <time>2026-08-04T09:45:03.646Z</time>
      </trkpt>
      <trkpt lat="45.95275" lon="6.85549">
        <ele>2270</ele>
        <time>2026-08-04T09:45:04.646Z</time>
      </trkpt>
      <trkpt lat="45.95275" lon="6.85549">
        <ele>2270</ele>
        <time>2026-08-04T09:45:05.646Z</time>
      </trkpt>
      <trkpt lat="45.95275" lon="6.85549">
        <ele>2270</ele>
        <time>2026-08-04T09:45:06.646Z</time>
      </trkpt>
      <trkpt lat="45.95276" lon="6.85549">
        <ele>2270</ele>
        <time>2026-08-04T09:45:07.646Z</time>
      </trkpt>
      <trkpt lat="45.95277" lon="6.8555">
        <ele>2270</ele>
        <time>2026-08-04T09:45:08.646Z</time>
      </trkpt>
      <trkpt lat="45.95278" lon="6.85552">
        <ele>2270</ele>
        <time>2026-08-04T09:45:09.646Z</time>
      </trkpt>
      <trkpt lat="45.95279" lon="6.85555">
        <ele>2270</ele>
        <time>2026-08-04T09:45:10.646Z</time>
      </trkpt>
      <trkpt lat="45.9528" lon="6.85558">
        <ele>2270</ele>
        <time>2026-08-04T09:45:11.646Z</time>
      </trkpt>
      <trkpt lat="45.95281" lon="6.8556">
        <ele>2270</ele>
        <time>2026-08-04T09:45:12.646Z</time>
      </trkpt>
      <trkpt lat="45.95282" lon="6.85562">
        <ele>2270</ele>
        <time>2026-08-04T09:45:13.646Z</time>
      </trkpt>
      <trkpt lat="45.95283" lon="6.85565">
        <ele>2270</ele>
        <time>2026-08-04T09:45:14.646Z</time>
      </trkpt>
      <trkpt lat="45.95284" lon="6.85567">
        <ele>2270</ele>
        <time>2026-08-04T09:45:15.646Z</time>
      </trkpt>
      <trkpt lat="45.95285" lon="6.85571">
        <ele>2270</ele>
        <time>2026-08-04T09:45:16.646Z</time>
      </trkpt>
      <trkpt lat="45.95286" lon="6.85573">
        <ele>2269</ele>
        <time>2026-08-04T09:45:17.646Z</time>
      </trkpt>
      <trkpt lat="45.95287" lon="6.85575">
        <ele>2269</ele>
        <time>2026-08-04T09:45:18.646Z</time>
      </trkpt>
      <trkpt lat="45.95287" lon="6.85577">
        <ele>2268</ele>
        <time>2026-08-04T09:45:19.646Z</time>
      </trkpt>
      <trkpt lat="45.95288" lon="6.85579">
        <ele>2268</ele>
        <time>2026-08-04T09:45:20.646Z</time>
      </trkpt>
      <trkpt lat="45.95288" lon="6.85581">
        <ele>2267</ele>
        <time>2026-08-04T09:45:21.646Z</time>
      </trkpt>
      <trkpt lat="45.95288" lon="6.85582">
        <ele>2267</ele>
        <time>2026-08-04T09:45:22.646Z</time>
      </trkpt>
      <trkpt lat="45.95288" lon="6.85585">
        <ele>2266</ele>
        <time>2026-08-04T09:45:23.646Z</time>
      </trkpt>
      <trkpt lat="45.95289" lon="6.85586">
        <ele>2266</ele>
        <time>2026-08-04T09:45:24.646Z</time>
      </trkpt>
      <trkpt lat="45.95289" lon="6.85589">
        <ele>2266</ele>
        <time>2026-08-04T09:45:25.646Z</time>
      </trkpt>
      <trkpt lat="45.95289" lon="6.85591">
        <ele>2266</ele>
        <time>2026-08-04T09:45:26.646Z</time>
      </trkpt>
      <trkpt lat="45.95289" lon="6.85594">
        <ele>2266</ele>
        <time>2026-08-04T09:45:27.646Z</time>
      </trkpt>
      <trkpt lat="45.95289" lon="6.85597">
        <ele>2266</ele>
        <time>2026-08-04T09:45:28.646Z</time>
      </trkpt>
      <trkpt lat="45.9529" lon="6.85599">
        <ele>2266</ele>
        <time>2026-08-04T09:45:29.646Z</time>
      </trkpt>
      <trkpt lat="45.9529" lon="6.85602">
        <ele>2266</ele>
        <time>2026-08-04T09:45:30.646Z</time>
      </trkpt>
      <trkpt lat="45.95291" lon="6.85604">
        <ele>2266</ele>
        <time>2026-08-04T09:45:31.646Z</time>
      </trkpt>
      <trkpt lat="45.95291" lon="6.85607">
        <ele>2266</ele>
        <time>2026-08-04T09:45:32.646Z</time>
      </trkpt>
      <trkpt lat="45.9529" lon="6.85609">
        <ele>2266</ele>
        <time>2026-08-04T09:45:33.646Z</time>
      </trkpt>
      <trkpt lat="45.9529" lon="6.85612">
        <ele>2266</ele>
        <time>2026-08-04T09:45:34.646Z</time>
      </trkpt>
      <trkpt lat="45.95289" lon="6.85615">
        <ele>2266</ele>
        <time>2026-08-04T09:45:35.646Z</time>
      </trkpt>
      <trkpt lat="45.95289" lon="6.85618">
        <ele>2266</ele>
        <time>2026-08-04T09:45:36.646Z</time>
      </trkpt>
      <trkpt lat="45.95288" lon="6.85621">
        <ele>2266</ele>
        <time>2026-08-04T09:45:37.646Z</time>
      </trkpt>
      <trkpt lat="45.95287" lon="6.85623">
        <ele>2265</ele>
        <time>2026-08-04T09:45:38.646Z</time>
      </trkpt>
      <trkpt lat="45.95286" lon="6.85624">
        <ele>2265</ele>
        <time>2026-08-04T09:45:39.646Z</time>
      </trkpt>
      <trkpt lat="45.95284" lon="6.85626">
        <ele>2265</ele>
        <time>2026-08-04T09:45:40.646Z</time>
      </trkpt>
      <trkpt lat="45.95282" lon="6.85627">
        <ele>2265</ele>
        <time>2026-08-04T09:45:41.646Z</time>
      </trkpt>
      <trkpt lat="45.9528" lon="6.85626">
        <ele>2265</ele>
        <time>2026-08-04T09:45:42.646Z</time>
      </trkpt>
      <trkpt lat="45.95279" lon="6.85624">
        <ele>2265</ele>
        <time>2026-08-04T09:45:43.646Z</time>
      </trkpt>
      <trkpt lat="45.95278" lon="6.85621">
        <ele>2264</ele>
        <time>2026-08-04T09:45:44.646Z</time>
      </trkpt>
      <trkpt lat="45.95277" lon="6.85619">
        <ele>2264</ele>
        <time>2026-08-04T09:45:45.646Z</time>
      </trkpt>
      <trkpt lat="45.95277" lon="6.85616">
        <ele>2264</ele>
        <time>2026-08-04T09:45:46.646Z</time>
      </trkpt>
      <trkpt lat="45.95276" lon="6.85613">
        <ele>2263</ele>
        <time>2026-08-04T09:45:47.646Z</time>
      </trkpt>
      <trkpt lat="45.95275" lon="6.8561">
        <ele>2263</ele>
        <time>2026-08-04T09:45:48.646Z</time>
      </trkpt>
      <trkpt lat="45.95274" lon="6.85608">
        <ele>2263</ele>
        <time>2026-08-04T09:45:49.646Z</time>
      </trkpt>
      <trkpt lat="45.95272" lon="6.85606">
        <ele>2262</ele>
        <time>2026-08-04T09:45:50.646Z</time>
      </trkpt>
      <trkpt lat="45.95271" lon="6.85604">
        <ele>2262</ele>
        <time>2026-08-04T09:45:51.646Z</time>
      </trkpt>
      <trkpt lat="45.95269" lon="6.85602">
        <ele>2262</ele>
        <time>2026-08-04T09:45:52.646Z</time>
      </trkpt>
      <trkpt lat="45.95268" lon="6.856">
        <ele>2261</ele>
        <time>2026-08-04T09:45:53.646Z</time>
      </trkpt>
      <trkpt lat="45.95266" lon="6.85598">
        <ele>2260</ele>
        <time>2026-08-04T09:45:54.646Z</time>
      </trkpt>
      <trkpt lat="45.95264" lon="6.85596">
        <ele>2260</ele>
        <time>2026-08-04T09:45:55.646Z</time>
      </trkpt>
      <trkpt lat="45.95263" lon="6.85595">
        <ele>2259</ele>
        <time>2026-08-04T09:45:56.646Z</time>
      </trkpt>
      <trkpt lat="45.95261" lon="6.85594">
        <ele>2258</ele>
        <time>2026-08-04T09:45:57.647Z</time>
      </trkpt>
      <trkpt lat="45.95259" lon="6.85593">
        <ele>2257</ele>
        <time>2026-08-04T09:45:58.646Z</time>
      </trkpt>
      <trkpt lat="45.95257" lon="6.85592">
        <ele>2257</ele>
        <time>2026-08-04T09:45:59.646Z</time>
      </trkpt>
      <trkpt lat="45.95256" lon="6.85592">
        <ele>2256</ele>
        <time>2026-08-04T09:46:00.646Z</time>
      </trkpt>
      <trkpt lat="45.95254" lon="6.85591">
        <ele>2255</ele>
        <time>2026-08-04T09:46:01.646Z</time>
      </trkpt>
      <trkpt lat="45.95252" lon="6.85591">
        <ele>2255</ele>
        <time>2026-08-04T09:46:02.646Z</time>
      </trkpt>
      <trkpt lat="45.9525" lon="6.8559">
        <ele>2254</ele>
        <time>2026-08-04T09:46:03.646Z</time>
      </trkpt>
      <trkpt lat="45.95248" lon="6.8559">
        <ele>2254</ele>
        <time>2026-08-04T09:46:04.646Z</time>
      </trkpt>
      <trkpt lat="45.95246" lon="6.8559">
        <ele>2254</ele>
        <time>2026-08-04T09:46:05.646Z</time>
      </trkpt>
      <trkpt lat="45.95244" lon="6.85589">
        <ele>2254</ele>
        <time>2026-08-04T09:46:06.646Z</time>
      </trkpt>
      <trkpt lat="45.95243" lon="6.85588">
        <ele>2253</ele>
        <time>2026-08-04T09:46:07.646Z</time>
      </trkpt>
      <trkpt lat="45.95241" lon="6.85587">
        <ele>2253</ele>
        <time>2026-08-04T09:46:08.646Z</time>
      </trkpt>
      <trkpt lat="45.95239" lon="6.85585">
        <ele>2253</ele>
        <time>2026-08-04T09:46:09.646Z</time>
      </trkpt>
      <trkpt lat="45.95237" lon="6.85584">
        <ele>2252</ele>
        <time>2026-08-04T09:46:10.646Z</time>
      </trkpt>
      <trkpt lat="45.95235" lon="6.85583">
        <ele>2252</ele>
        <time>2026-08-04T09:46:11.646Z</time>
      </trkpt>
      <trkpt lat="45.95234" lon="6.85581">
        <ele>2252</ele>
        <time>2026-08-04T09:46:12.646Z</time>
      </trkpt>
      <trkpt lat="45.95232" lon="6.85578">
        <ele>2251</ele>
        <time>2026-08-04T09:46:13.646Z</time>
      </trkpt>
      <trkpt lat="45.95231" lon="6.85576">
        <ele>2251</ele>
        <time>2026-08-04T09:46:14.646Z</time>
      </trkpt>
      <trkpt lat="45.95229" lon="6.85574">
        <ele>2251</ele>
        <time>2026-08-04T09:46:15.646Z</time>
      </trkpt>
      <trkpt lat="45.95228" lon="6.85572">
        <ele>2250</ele>
        <time>2026-08-04T09:46:16.646Z</time>
      </trkpt>
      <trkpt lat="45.95227" lon="6.8557">
        <ele>2250</ele>
        <time>2026-08-04T09:46:17.646Z</time>
      </trkpt>
      <trkpt lat="45.95225" lon="6.85568">
        <ele>2249</ele>
        <time>2026-08-04T09:46:18.646Z</time>
      </trkpt>
      <trkpt lat="45.95224" lon="6.85565">
        <ele>2249</ele>
        <time>2026-08-04T09:46:19.646Z</time>
      </trkpt>
      <trkpt lat="45.95223" lon="6.85563">
        <ele>2248</ele>
        <time>2026-08-04T09:46:20.646Z</time>
      </trkpt>
      <trkpt lat="45.95222" lon="6.8556">
        <ele>2247</ele>
        <time>2026-08-04T09:46:21.646Z</time>
      </trkpt>
      <trkpt lat="45.9522" lon="6.85558">
        <ele>2247</ele>
        <time>2026-08-04T09:46:22.646Z</time>
      </trkpt>
      <trkpt lat="45.95219" lon="6.85556">
        <ele>2246</ele>
        <time>2026-08-04T09:46:23.646Z</time>
      </trkpt>
      <trkpt lat="45.95218" lon="6.85554">
        <ele>2245</ele>
        <time>2026-08-04T09:46:24.646Z</time>
      </trkpt>
      <trkpt lat="45.95217" lon="6.85552">
        <ele>2244</ele>
        <time>2026-08-04T09:46:25.646Z</time>
      </trkpt>
      <trkpt lat="45.95216" lon="6.8555">
        <ele>2244</ele>
        <time>2026-08-04T09:46:26.646Z</time>
      </trkpt>
      <trkpt lat="45.95215" lon="6.85548">
        <ele>2243</ele>
        <time>2026-08-04T09:46:27.646Z</time>
      </trkpt>
      <trkpt lat="45.95214" lon="6.85546">
        <ele>2243</ele>
        <time>2026-08-04T09:46:28.646Z</time>
      </trkpt>
      <trkpt lat="45.95213" lon="6.85545">
        <ele>2242</ele>
        <time>2026-08-04T09:46:29.646Z</time>
      </trkpt>
      <trkpt lat="45.95212" lon="6.85542">
        <ele>2242</ele>
        <time>2026-08-04T09:46:30.646Z</time>
      </trkpt>
      <trkpt lat="45.95211" lon="6.8554">
        <ele>2241</ele>
        <time>2026-08-04T09:46:31.646Z</time>
      </trkpt>
      <trkpt lat="45.9521" lon="6.85539">
        <ele>2241</ele>
        <time>2026-08-04T09:46:32.646Z</time>
      </trkpt>
      <trkpt lat="45.95209" lon="6.85537">
        <ele>2240</ele>
        <time>2026-08-04T09:46:33.646Z</time>
      </trkpt>
      <trkpt lat="45.95208" lon="6.85535">
        <ele>2240</ele>
        <time>2026-08-04T09:46:34.646Z</time>
      </trkpt>
      <trkpt lat="45.95207" lon="6.85534">
        <ele>2239</ele>
        <time>2026-08-04T09:46:35.646Z</time>
      </trkpt>
      <trkpt lat="45.95206" lon="6.85532">
        <ele>2239</ele>
        <time>2026-08-04T09:46:36.646Z</time>
      </trkpt>
      <trkpt lat="45.95205" lon="6.85531">
        <ele>2238</ele>
        <time>2026-08-04T09:46:37.646Z</time>
      </trkpt>
      <trkpt lat="45.95204" lon="6.8553">
        <ele>2238</ele>
        <time>2026-08-04T09:46:38.646Z</time>
      </trkpt>
      <trkpt lat="45.95202" lon="6.8553">
        <ele>2237</ele>
        <time>2026-08-04T09:46:39.646Z</time>
      </trkpt>
      <trkpt lat="45.95201" lon="6.8553">
        <ele>2237</ele>
        <time>2026-08-04T09:46:40.646Z</time>
      </trkpt>
      <trkpt lat="45.952" lon="6.85529">
        <ele>2237</ele>
        <time>2026-08-04T09:46:41.646Z</time>
      </trkpt>
      <trkpt lat="45.95198" lon="6.85529">
        <ele>2237</ele>
        <time>2026-08-04T09:46:42.646Z</time>
      </trkpt>
      <trkpt lat="45.95197" lon="6.85529">
        <ele>2237</ele>
        <time>2026-08-04T09:46:43.646Z</time>
      </trkpt>
      <trkpt lat="45.95195" lon="6.85528">
        <ele>2236</ele>
        <time>2026-08-04T09:46:44.646Z</time>
      </trkpt>
      <trkpt lat="45.95194" lon="6.85528">
        <ele>2235</ele>
        <time>2026-08-04T09:46:45.646Z</time>
      </trkpt>
      <trkpt lat="45.95192" lon="6.85527">
        <ele>2234</ele>
        <time>2026-08-04T09:46:46.646Z</time>
      </trkpt>
      <trkpt lat="45.95191" lon="6.85527">
        <ele>2234</ele>
        <time>2026-08-04T09:46:47.646Z</time>
      </trkpt>
      <trkpt lat="45.95189" lon="6.85526">
        <ele>2233</ele>
        <time>2026-08-04T09:46:48.646Z</time>
      </trkpt>
      <trkpt lat="45.95187" lon="6.85526">
        <ele>2232</ele>
        <time>2026-08-04T09:46:49.646Z</time>
      </trkpt>
      <trkpt lat="45.95186" lon="6.85525">
        <ele>2232</ele>
        <time>2026-08-04T09:46:50.646Z</time>
      </trkpt>
      <trkpt lat="45.95184" lon="6.85525">
        <ele>2231</ele>
        <time>2026-08-04T09:46:51.646Z</time>
      </trkpt>
      <trkpt lat="45.95182" lon="6.85525">
        <ele>2231</ele>
        <time>2026-08-04T09:46:52.646Z</time>
      </trkpt>
      <trkpt lat="45.95181" lon="6.85525">
        <ele>2230</ele>
        <time>2026-08-04T09:46:53.646Z</time>
      </trkpt>
      <trkpt lat="45.9518" lon="6.85525">
        <ele>2229</ele>
        <time>2026-08-04T09:46:54.646Z</time>
      </trkpt>
      <trkpt lat="45.95179" lon="6.85525">
        <ele>2229</ele>
        <time>2026-08-04T09:46:55.646Z</time>
      </trkpt>
      <trkpt lat="45.95178" lon="6.85526">
        <ele>2229</ele>
        <time>2026-08-04T09:46:56.646Z</time>
      </trkpt>
      <trkpt lat="45.95177" lon="6.85526">
        <ele>2228</ele>
        <time>2026-08-04T09:46:57.646Z</time>
      </trkpt>
      <trkpt lat="45.95176" lon="6.85527">
        <ele>2228</ele>
        <time>2026-08-04T09:46:58.646Z</time>
      </trkpt>
      <trkpt lat="45.95176" lon="6.85527">
        <ele>2227</ele>
        <time>2026-08-04T09:46:59.646Z</time>
      </trkpt>
      <trkpt lat="45.95176" lon="6.85527">
        <ele>2227</ele>
        <time>2026-08-04T09:47:00.646Z</time>
      </trkpt>
      <trkpt lat="45.95176" lon="6.85527">
        <ele>2227</ele>
        <time>2026-08-04T09:47:01.646Z</time>
      </trkpt>
      <trkpt lat="45.95176" lon="6.85527">
        <ele>2226</ele>
        <time>2026-08-04T09:47:02.646Z</time>
      </trkpt>
      <trkpt lat="45.95176" lon="6.85527">
        <ele>2226</ele>
        <time>2026-08-04T09:47:03.646Z</time>
      </trkpt>
      <trkpt lat="45.95176" lon="6.85527">
        <ele>2226</ele>
        <time>2026-08-04T09:47:04.646Z</time>
      </trkpt>
      <trkpt lat="45.95176" lon="6.85527">
        <ele>2226</ele>
        <time>2026-08-04T09:47:05.646Z</time>
      </trkpt>
      <trkpt lat="45.95176" lon="6.85527">
        <ele>2226</ele>
        <time>2026-08-04T09:47:06.646Z</time>
      </trkpt>
      <trkpt lat="45.95176" lon="6.85527">
        <ele>2226</ele>
        <time>2026-08-04T09:47:07.646Z</time>
      </trkpt>
      <trkpt lat="45.95176" lon="6.85527">
        <ele>2226</ele>
        <time>2026-08-04T09:47:08.646Z</time>
      </trkpt>
      <trkpt lat="45.95176" lon="6.85527">
        <ele>2226</ele>
        <time>2026-08-04T09:47:09.646Z</time>
      </trkpt>
      <trkpt lat="45.95176" lon="6.85527">
        <ele>2226</ele>
        <time>2026-08-04T09:47:10.646Z</time>
      </trkpt>
      <trkpt lat="45.95176" lon="6.85527">
        <ele>2226</ele>
        <time>2026-08-04T09:47:11.646Z</time>
      </trkpt>
      <trkpt lat="45.95176" lon="6.85527">
        <ele>2226</ele>
        <time>2026-08-04T09:47:12.646Z</time>
      </trkpt>
      <trkpt lat="45.95176" lon="6.85527">
        <ele>2227</ele>
        <time>2026-08-04T09:47:13.646Z</time>
      </trkpt>
      <trkpt lat="45.95176" lon="6.85527">
        <ele>2227</ele>
        <time>2026-08-04T09:47:14.646Z</time>
      </trkpt>
      <trkpt lat="45.95176" lon="6.85527">
        <ele>2227</ele>
        <time>2026-08-04T09:47:15.646Z</time>
      </trkpt>
      <trkpt lat="45.95176" lon="6.85527">
        <ele>2227</ele>
        <time>2026-08-04T09:47:16.646Z</time>
      </trkpt>
      <trkpt lat="45.95176" lon="6.85526">
        <ele>2227</ele>
        <time>2026-08-04T09:47:17.646Z</time>
      </trkpt>
      <trkpt lat="45.95175" lon="6.85524">
        <ele>2226</ele>
        <time>2026-08-04T09:47:18.646Z</time>
      </trkpt>
      <trkpt lat="45.95174" lon="6.85522">
        <ele>2226</ele>
        <time>2026-08-04T09:47:19.646Z</time>
      </trkpt>
      <trkpt lat="45.95173" lon="6.8552">
        <ele>2226</ele>
        <time>2026-08-04T09:47:20.646Z</time>
      </trkpt>
      <trkpt lat="45.95171" lon="6.85518">
        <ele>2226</ele>
        <time>2026-08-04T09:47:21.646Z</time>
      </trkpt>
      <trkpt lat="45.9517" lon="6.85517">
        <ele>2225</ele>
        <time>2026-08-04T09:47:22.646Z</time>
      </trkpt>
      <trkpt lat="45.95168" lon="6.85515">
        <ele>2225</ele>
        <time>2026-08-04T09:47:23.646Z</time>
      </trkpt>
      <trkpt lat="45.95166" lon="6.85514">
        <ele>2224</ele>
        <time>2026-08-04T09:47:24.646Z</time>
      </trkpt>
      <trkpt lat="45.95165" lon="6.85513">
        <ele>2224</ele>
        <time>2026-08-04T09:47:25.646Z</time>
      </trkpt>
      <trkpt lat="45.95163" lon="6.85511">
        <ele>2223</ele>
        <time>2026-08-04T09:47:26.646Z</time>
      </trkpt>
      <trkpt lat="45.95161" lon="6.85511">
        <ele>2223</ele>
        <time>2026-08-04T09:47:27.646Z</time>
      </trkpt>
      <trkpt lat="45.95159" lon="6.8551">
        <ele>2222</ele>
        <time>2026-08-04T09:47:28.646Z</time>
      </trkpt>
      <trkpt lat="45.95158" lon="6.85508">
        <ele>2222</ele>
        <time>2026-08-04T09:47:29.646Z</time>
      </trkpt>
      <trkpt lat="45.95157" lon="6.85507">
        <ele>2221</ele>
        <time>2026-08-04T09:47:30.646Z</time>
      </trkpt>
      <trkpt lat="45.95155" lon="6.85506">
        <ele>2221</ele>
        <time>2026-08-04T09:47:31.646Z</time>
      </trkpt>
      <trkpt lat="45.95154" lon="6.85505">
        <ele>2220</ele>
        <time>2026-08-04T09:47:32.646Z</time>
      </trkpt>
      <trkpt lat="45.95153" lon="6.85504">
        <ele>2220</ele>
        <time>2026-08-04T09:47:33.646Z</time>
      </trkpt>
      <trkpt lat="45.95152" lon="6.85504">
        <ele>2219</ele>
        <time>2026-08-04T09:47:34.646Z</time>
      </trkpt>
      <trkpt lat="45.9515" lon="6.85504">
        <ele>2219</ele>
        <time>2026-08-04T09:47:35.646Z</time>
      </trkpt>
      <trkpt lat="45.95148" lon="6.85505">
        <ele>2219</ele>
        <time>2026-08-04T09:47:36.646Z</time>
      </trkpt>
      <trkpt lat="45.95147" lon="6.85505">
        <ele>2218</ele>
        <time>2026-08-04T09:47:37.646Z</time>
      </trkpt>
      <trkpt lat="45.95145" lon="6.85506">
        <ele>2218</ele>
        <time>2026-08-04T09:47:38.646Z</time>
      </trkpt>
      <trkpt lat="45.95144" lon="6.85507">
        <ele>2217</ele>
        <time>2026-08-04T09:47:39.646Z</time>
      </trkpt>
      <trkpt lat="45.95143" lon="6.85509">
        <ele>2217</ele>
        <time>2026-08-04T09:47:40.646Z</time>
      </trkpt>
      <trkpt lat="45.95143" lon="6.8551">
        <ele>2216</ele>
        <time>2026-08-04T09:47:41.646Z</time>
      </trkpt>
      <trkpt lat="45.95143" lon="6.85512">
        <ele>2216</ele>
        <time>2026-08-04T09:47:42.646Z</time>
      </trkpt>
      <trkpt lat="45.95142" lon="6.85513">
        <ele>2216</ele>
        <time>2026-08-04T09:47:43.646Z</time>
      </trkpt>
      <trkpt lat="45.95142" lon="6.85513">
        <ele>2216</ele>
        <time>2026-08-04T09:47:44.646Z</time>
      </trkpt>
      <trkpt lat="45.95142" lon="6.85513">
        <ele>2216</ele>
        <time>2026-08-04T09:47:45.646Z</time>
      </trkpt>
      <trkpt lat="45.95142" lon="6.85513">
        <ele>2216</ele>
        <time>2026-08-04T09:47:46.646Z</time>
      </trkpt>
      <trkpt lat="45.95142" lon="6.85513">
        <ele>2216</ele>
        <time>2026-08-04T09:47:47.646Z</time>
      </trkpt>
      <trkpt lat="45.95142" lon="6.85514">
        <ele>2216</ele>
        <time>2026-08-04T09:47:48.646Z</time>
      </trkpt>
      <trkpt lat="45.95142" lon="6.85513">
        <ele>2216</ele>
        <time>2026-08-04T09:47:49.646Z</time>
      </trkpt>
      <trkpt lat="45.95142" lon="6.85513">
        <ele>2216</ele>
        <time>2026-08-04T09:47:50.646Z</time>
      </trkpt>
      <trkpt lat="45.95142" lon="6.85513">
        <ele>2216</ele>
        <time>2026-08-04T09:47:51.646Z</time>
      </trkpt>
      <trkpt lat="45.95142" lon="6.85513">
        <ele>2216</ele>
        <time>2026-08-04T09:47:52.646Z</time>
      </trkpt>
      <trkpt lat="45.95142" lon="6.85513">
        <ele>2216</ele>
        <time>2026-08-04T09:47:53.646Z</time>
      </trkpt>
      <trkpt lat="45.95143" lon="6.85513">
        <ele>2216</ele>
        <time>2026-08-04T09:47:54.646Z</time>
      </trkpt>
      <trkpt lat="45.95143" lon="6.85513">
        <ele>2216</ele>
        <time>2026-08-04T09:47:55.646Z</time>
      </trkpt>
      <trkpt lat="45.95143" lon="6.85513">
        <ele>2217</ele>
        <time>2026-08-04T09:47:56.646Z</time>
      </trkpt>
      <trkpt lat="45.95143" lon="6.85513">
        <ele>2217</ele>
        <time>2026-08-04T09:47:57.646Z</time>
      </trkpt>
      <trkpt lat="45.95143" lon="6.85513">
        <ele>2217</ele>
        <time>2026-08-04T09:47:58.646Z</time>
      </trkpt>
      <trkpt lat="45.95143" lon="6.85513">
        <ele>2218</ele>
        <time>2026-08-04T09:47:59.646Z</time>
      </trkpt>
      <trkpt lat="45.95143" lon="6.85513">
        <ele>2218</ele>
        <time>2026-08-04T09:48:00.646Z</time>
      </trkpt>
      <trkpt lat="45.95143" lon="6.85513">
        <ele>2218</ele>
        <time>2026-08-04T09:48:01.646Z</time>
      </trkpt>
      <trkpt lat="45.95143" lon="6.85513">
        <ele>2218</ele>
        <time>2026-08-04T09:48:02.646Z</time>
      </trkpt>
      <trkpt lat="45.95143" lon="6.85513">
        <ele>2218</ele>
        <time>2026-08-04T09:48:03.646Z</time>
      </trkpt>
      <trkpt lat="45.95143" lon="6.85513">
        <ele>2218</ele>
        <time>2026-08-04T09:48:04.646Z</time>
      </trkpt>
      <trkpt lat="45.95143" lon="6.85513">
        <ele>2218</ele>
        <time>2026-08-04T09:48:05.646Z</time>
      </trkpt>
      <trkpt lat="45.95143" lon="6.85513">
        <ele>2218</ele>
        <time>2026-08-04T09:48:06.646Z</time>
      </trkpt>
      <trkpt lat="45.95143" lon="6.85513">
        <ele>2218</ele>
        <time>2026-08-04T09:48:07.646Z</time>
      </trkpt>
      <trkpt lat="45.95143" lon="6.85513">
        <ele>2218</ele>
        <time>2026-08-04T09:48:08.646Z</time>
      </trkpt>
      <trkpt lat="45.95143" lon="6.85513">
        <ele>2219</ele>
        <time>2026-08-04T09:48:09.646Z</time>
      </trkpt>
      <trkpt lat="45.95143" lon="6.85513">
        <ele>2219</ele>
        <time>2026-08-04T09:48:10.646Z</time>
      </trkpt>
      <trkpt lat="45.95143" lon="6.85513">
        <ele>2219</ele>
        <time>2026-08-04T09:48:11.646Z</time>
      </trkpt>
      <trkpt lat="45.95143" lon="6.85513">
        <ele>2219</ele>
        <time>2026-08-04T09:48:12.646Z</time>
      </trkpt>
      <trkpt lat="45.95143" lon="6.85513">
        <ele>2219</ele>
        <time>2026-08-04T09:48:13.646Z</time>
      </trkpt>
      <trkpt lat="45.95143" lon="6.85513">
        <ele>2219</ele>
        <time>2026-08-04T09:48:14.646Z</time>
      </trkpt>
      <trkpt lat="45.95143" lon="6.85513">
        <ele>2219</ele>
        <time>2026-08-04T09:48:15.646Z</time>
      </trkpt>
      <trkpt lat="45.95143" lon="6.85513">
        <ele>2219</ele>
        <time>2026-08-04T09:48:16.646Z</time>
      </trkpt>
      <trkpt lat="45.95143" lon="6.85513">
        <ele>2219</ele>
        <time>2026-08-04T09:48:17.646Z</time>
      </trkpt>
      <trkpt lat="45.95143" lon="6.85513">
        <ele>2219</ele>
        <time>2026-08-04T09:48:18.646Z</time>
      </trkpt>
      <trkpt lat="45.95143" lon="6.85513">
        <ele>2219</ele>
        <time>2026-08-04T09:48:19.646Z</time>
      </trkpt>
      <trkpt lat="45.95143" lon="6.85513">
        <ele>2219</ele>
        <time>2026-08-04T09:48:20.646Z</time>
      </trkpt>
      <trkpt lat="45.95143" lon="6.85513">
        <ele>2219</ele>
        <time>2026-08-04T09:48:21.646Z</time>
      </trkpt>
      <trkpt lat="45.95143" lon="6.85513">
        <ele>2219</ele>
        <time>2026-08-04T09:48:22.646Z</time>
      </trkpt>
      <trkpt lat="45.95143" lon="6.85513">
        <ele>2219</ele>
        <time>2026-08-04T09:48:23.646Z</time>
      </trkpt>
      <trkpt lat="45.95143" lon="6.85513">
        <ele>2219</ele>
        <time>2026-08-04T09:48:24.646Z</time>
      </trkpt>
      <trkpt lat="45.95143" lon="6.85513">
        <ele>2218</ele>
        <time>2026-08-04T09:48:25.646Z</time>
      </trkpt>
      <trkpt lat="45.95143" lon="6.85513">
        <ele>2218</ele>
        <time>2026-08-04T09:48:26.646Z</time>
      </trkpt>
      <trkpt lat="45.95143" lon="6.85513">
        <ele>2218</ele>
        <time>2026-08-04T09:48:27.646Z</time>
      </trkpt>
      <trkpt lat="45.95143" lon="6.85513">
        <ele>2218</ele>
        <time>2026-08-04T09:48:28.646Z</time>
      </trkpt>
      <trkpt lat="45.95143" lon="6.85513">
        <ele>2218</ele>
        <time>2026-08-04T09:48:29.646Z</time>
      </trkpt>
      <trkpt lat="45.95143" lon="6.85513">
        <ele>2218</ele>
        <time>2026-08-04T09:48:30.646Z</time>
      </trkpt>
      <trkpt lat="45.95143" lon="6.85513">
        <ele>2218</ele>
        <time>2026-08-04T09:48:31.646Z</time>
      </trkpt>
      <trkpt lat="45.95143" lon="6.85513">
        <ele>2218</ele>
        <time>2026-08-04T09:48:32.646Z</time>
      </trkpt>
      <trkpt lat="45.95143" lon="6.85513">
        <ele>2218</ele>
        <time>2026-08-04T09:48:33.646Z</time>
      </trkpt>
      <trkpt lat="45.95143" lon="6.85512">
        <ele>2218</ele>
        <time>2026-08-04T09:48:34.646Z</time>
      </trkpt>
      <trkpt lat="45.95143" lon="6.85512">
        <ele>2218</ele>
        <time>2026-08-04T09:48:35.646Z</time>
      </trkpt>
      <trkpt lat="45.95143" lon="6.85512">
        <ele>2218</ele>
        <time>2026-08-04T09:48:36.646Z</time>
      </trkpt>
      <trkpt lat="45.95143" lon="6.85512">
        <ele>2218</ele>
        <time>2026-08-04T09:48:37.646Z</time>
      </trkpt>
      <trkpt lat="45.95143" lon="6.85512">
        <ele>2218</ele>
        <time>2026-08-04T09:48:38.646Z</time>
      </trkpt>
      <trkpt lat="45.95143" lon="6.85513">
        <ele>2218</ele>
        <time>2026-08-04T09:48:39.646Z</time>
      </trkpt>
      <trkpt lat="45.95142" lon="6.85514">
        <ele>2218</ele>
        <time>2026-08-04T09:48:40.646Z</time>
      </trkpt>
      <trkpt lat="45.95142" lon="6.85517">
        <ele>2218</ele>
        <time>2026-08-04T09:48:41.646Z</time>
      </trkpt>
      <trkpt lat="45.95141" lon="6.85519">
        <ele>2218</ele>
        <time>2026-08-04T09:48:42.646Z</time>
      </trkpt>
      <trkpt lat="45.95141" lon="6.85521">
        <ele>2218</ele>
        <time>2026-08-04T09:48:43.646Z</time>
      </trkpt>
      <trkpt lat="45.9514" lon="6.85523">
        <ele>2217</ele>
        <time>2026-08-04T09:48:44.646Z</time>
      </trkpt>
      <trkpt lat="45.9514" lon="6.85525">
        <ele>2217</ele>
        <time>2026-08-04T09:48:45.646Z</time>
      </trkpt>
      <trkpt lat="45.95139" lon="6.85527">
        <ele>2217</ele>
        <time>2026-08-04T09:48:46.646Z</time>
      </trkpt>
      <trkpt lat="45.95139" lon="6.85528">
        <ele>2217</ele>
        <time>2026-08-04T09:48:47.646Z</time>
      </trkpt>
      <trkpt lat="45.95138" lon="6.8553">
        <ele>2216</ele>
        <time>2026-08-04T09:48:48.646Z</time>
      </trkpt>
      <trkpt lat="45.95138" lon="6.85532">
        <ele>2216</ele>
        <time>2026-08-04T09:48:49.646Z</time>
      </trkpt>
      <trkpt lat="45.95138" lon="6.85534">
        <ele>2215</ele>
        <time>2026-08-04T09:48:50.646Z</time>
      </trkpt>
      <trkpt lat="45.95137" lon="6.85536">
        <ele>2215</ele>
        <time>2026-08-04T09:48:51.646Z</time>
      </trkpt>
      <trkpt lat="45.95136" lon="6.85538">
        <ele>2214</ele>
        <time>2026-08-04T09:48:52.646Z</time>
      </trkpt>
      <trkpt lat="45.95135" lon="6.85539">
        <ele>2214</ele>
        <time>2026-08-04T09:48:53.646Z</time>
      </trkpt>
      <trkpt lat="45.95133" lon="6.85541">
        <ele>2213</ele>
        <time>2026-08-04T09:48:54.646Z</time>
      </trkpt>
      <trkpt lat="45.95132" lon="6.85541">
        <ele>2213</ele>
        <time>2026-08-04T09:48:55.646Z</time>
      </trkpt>
      <trkpt lat="45.9513" lon="6.8554">
        <ele>2213</ele>
        <time>2026-08-04T09:48:56.646Z</time>
      </trkpt>
      <trkpt lat="45.95129" lon="6.8554">
        <ele>2212</ele>
        <time>2026-08-04T09:48:57.646Z</time>
      </trkpt>
      <trkpt lat="45.95127" lon="6.85539">
        <ele>2212</ele>
        <time>2026-08-04T09:48:58.646Z</time>
      </trkpt>
      <trkpt lat="45.95126" lon="6.85538">
        <ele>2211</ele>
        <time>2026-08-04T09:48:59.646Z</time>
      </trkpt>
      <trkpt lat="45.95124" lon="6.85536">
        <ele>2210</ele>
        <time>2026-08-04T09:49:00.646Z</time>
      </trkpt>
      <trkpt lat="45.95123" lon="6.85534">
        <ele>2209</ele>
        <time>2026-08-04T09:49:01.646Z</time>
      </trkpt>
      <trkpt lat="45.95122" lon="6.85533">
        <ele>2209</ele>
        <time>2026-08-04T09:49:02.646Z</time>
      </trkpt>
      <trkpt lat="45.95121" lon="6.8553">
        <ele>2208</ele>
        <time>2026-08-04T09:49:03.646Z</time>
      </trkpt>
      <trkpt lat="45.9512" lon="6.85528">
        <ele>2208</ele>
        <time>2026-08-04T09:49:04.646Z</time>
      </trkpt>
      <trkpt lat="45.95119" lon="6.85526">
        <ele>2207</ele>
        <time>2026-08-04T09:49:05.646Z</time>
      </trkpt>
      <trkpt lat="45.95118" lon="6.85525">
        <ele>2207</ele>
        <time>2026-08-04T09:49:06.646Z</time>
      </trkpt>
      <trkpt lat="45.95116" lon="6.85524">
        <ele>2206</ele>
        <time>2026-08-04T09:49:07.646Z</time>
      </trkpt>
      <trkpt lat="45.95115" lon="6.85523">
        <ele>2206</ele>
        <time>2026-08-04T09:49:08.646Z</time>
      </trkpt>
      <trkpt lat="45.95114" lon="6.85521">
        <ele>2206</ele>
        <time>2026-08-04T09:49:09.646Z</time>
      </trkpt>
      <trkpt lat="45.95113" lon="6.8552">
        <ele>2206</ele>
        <time>2026-08-04T09:49:10.646Z</time>
      </trkpt>
      <trkpt lat="45.95112" lon="6.85518">
        <ele>2205</ele>
        <time>2026-08-04T09:49:11.646Z</time>
      </trkpt>
      <trkpt lat="45.9511" lon="6.85517">
        <ele>2205</ele>
        <time>2026-08-04T09:49:12.646Z</time>
      </trkpt>
      <trkpt lat="45.95109" lon="6.85516">
        <ele>2205</ele>
        <time>2026-08-04T09:49:13.646Z</time>
      </trkpt>
      <trkpt lat="45.95107" lon="6.85515">
        <ele>2204</ele>
        <time>2026-08-04T09:49:14.646Z</time>
      </trkpt>
      <trkpt lat="45.95106" lon="6.85514">
        <ele>2204</ele>
        <time>2026-08-04T09:49:15.646Z</time>
      </trkpt>
      <trkpt lat="45.95104" lon="6.85513">
        <ele>2203</ele>
        <time>2026-08-04T09:49:16.646Z</time>
      </trkpt>
      <trkpt lat="45.95103" lon="6.85513">
        <ele>2202</ele>
        <time>2026-08-04T09:49:17.646Z</time>
      </trkpt>
      <trkpt lat="45.95101" lon="6.85513">
        <ele>2202</ele>
        <time>2026-08-04T09:49:18.646Z</time>
      </trkpt>
      <trkpt lat="45.95099" lon="6.85512">
        <ele>2201</ele>
        <time>2026-08-04T09:49:19.646Z</time>
      </trkpt>
      <trkpt lat="45.95098" lon="6.85512">
        <ele>2201</ele>
        <time>2026-08-04T09:49:20.646Z</time>
      </trkpt>
      <trkpt lat="45.95097" lon="6.85513">
        <ele>2200</ele>
        <time>2026-08-04T09:49:21.646Z</time>
      </trkpt>
      <trkpt lat="45.95096" lon="6.85513">
        <ele>2200</ele>
        <time>2026-08-04T09:49:22.646Z</time>
      </trkpt>
      <trkpt lat="45.95094" lon="6.85513">
        <ele>2200</ele>
        <time>2026-08-04T09:49:23.646Z</time>
      </trkpt>
      <trkpt lat="45.95093" lon="6.85514">
        <ele>2199</ele>
        <time>2026-08-04T09:49:24.646Z</time>
      </trkpt>
      <trkpt lat="45.95092" lon="6.85513">
        <ele>2199</ele>
        <time>2026-08-04T09:49:25.646Z</time>
      </trkpt>
      <trkpt lat="45.9509" lon="6.85513">
        <ele>2199</ele>
        <time>2026-08-04T09:49:26.646Z</time>
      </trkpt>
      <trkpt lat="45.95089" lon="6.85513">
        <ele>2199</ele>
        <time>2026-08-04T09:49:27.646Z</time>
      </trkpt>
      <trkpt lat="45.95087" lon="6.85514">
        <ele>2198</ele>
        <time>2026-08-04T09:49:28.646Z</time>
      </trkpt>
      <trkpt lat="45.95086" lon="6.85514">
        <ele>2198</ele>
        <time>2026-08-04T09:49:29.646Z</time>
      </trkpt>
      <trkpt lat="45.95084" lon="6.85513">
        <ele>2198</ele>
        <time>2026-08-04T09:49:30.646Z</time>
      </trkpt>
      <trkpt lat="45.95083" lon="6.85513">
        <ele>2197</ele>
        <time>2026-08-04T09:49:31.646Z</time>
      </trkpt>
      <trkpt lat="45.95081" lon="6.85513">
        <ele>2197</ele>
        <time>2026-08-04T09:49:32.646Z</time>
      </trkpt>
      <trkpt lat="45.9508" lon="6.85513">
        <ele>2196</ele>
        <time>2026-08-04T09:49:33.646Z</time>
      </trkpt>
      <trkpt lat="45.95078" lon="6.85512">
        <ele>2196</ele>
        <time>2026-08-04T09:49:34.646Z</time>
      </trkpt>
      <trkpt lat="45.95077" lon="6.85512">
        <ele>2196</ele>
        <time>2026-08-04T09:49:35.646Z</time>
      </trkpt>
      <trkpt lat="45.95075" lon="6.85511">
        <ele>2195</ele>
        <time>2026-08-04T09:49:36.646Z</time>
      </trkpt>
      <trkpt lat="45.95074" lon="6.8551">
        <ele>2195</ele>
        <time>2026-08-04T09:49:37.646Z</time>
      </trkpt>
      <trkpt lat="45.95073" lon="6.8551">
        <ele>2194</ele>
        <time>2026-08-04T09:49:38.646Z</time>
      </trkpt>
      <trkpt lat="45.95071" lon="6.8551">
        <ele>2194</ele>
        <time>2026-08-04T09:49:39.646Z</time>
      </trkpt>
      <trkpt lat="45.9507" lon="6.85509">
        <ele>2193</ele>
        <time>2026-08-04T09:49:40.646Z</time>
      </trkpt>
      <trkpt lat="45.95069" lon="6.85509">
        <ele>2192</ele>
        <time>2026-08-04T09:49:41.646Z</time>
      </trkpt>
      <trkpt lat="45.95068" lon="6.85509">
        <ele>2192</ele>
        <time>2026-08-04T09:49:42.646Z</time>
      </trkpt>
      <trkpt lat="45.95066" lon="6.85508">
        <ele>2192</ele>
        <time>2026-08-04T09:49:43.646Z</time>
      </trkpt>
      <trkpt lat="45.95064" lon="6.85508">
        <ele>2191</ele>
        <time>2026-08-04T09:49:44.646Z</time>
      </trkpt>
      <trkpt lat="45.95063" lon="6.85508">
        <ele>2190</ele>
        <time>2026-08-04T09:49:45.646Z</time>
      </trkpt>
      <trkpt lat="45.95062" lon="6.85508">
        <ele>2190</ele>
        <time>2026-08-04T09:49:46.646Z</time>
      </trkpt>
      <trkpt lat="45.95061" lon="6.85508">
        <ele>2189</ele>
        <time>2026-08-04T09:49:47.646Z</time>
      </trkpt>
      <trkpt lat="45.95059" lon="6.85508">
        <ele>2189</ele>
        <time>2026-08-04T09:49:48.646Z</time>
      </trkpt>
      <trkpt lat="45.95058" lon="6.85507">
        <ele>2188</ele>
        <time>2026-08-04T09:49:49.646Z</time>
      </trkpt>
      <trkpt lat="45.95056" lon="6.85507">
        <ele>2187</ele>
        <time>2026-08-04T09:49:50.646Z</time>
      </trkpt>
      <trkpt lat="45.95055" lon="6.85506">
        <ele>2187</ele>
        <time>2026-08-04T09:49:51.646Z</time>
      </trkpt>
      <trkpt lat="45.95054" lon="6.85506">
        <ele>2186</ele>
        <time>2026-08-04T09:49:52.646Z</time>
      </trkpt>
      <trkpt lat="45.95053" lon="6.85506">
        <ele>2186</ele>
        <time>2026-08-04T09:49:53.646Z</time>
      </trkpt>
      <trkpt lat="45.95051" lon="6.85506">
        <ele>2185</ele>
        <time>2026-08-04T09:49:54.646Z</time>
      </trkpt>
      <trkpt lat="45.9505" lon="6.85506">
        <ele>2184</ele>
        <time>2026-08-04T09:49:55.646Z</time>
      </trkpt>
      <trkpt lat="45.95049" lon="6.85506">
        <ele>2184</ele>
        <time>2026-08-04T09:49:56.646Z</time>
      </trkpt>
      <trkpt lat="45.95047" lon="6.85507">
        <ele>2183</ele>
        <time>2026-08-04T09:49:57.646Z</time>
      </trkpt>
      <trkpt lat="45.95046" lon="6.85508">
        <ele>2182</ele>
        <time>2026-08-04T09:49:58.646Z</time>
      </trkpt>
      <trkpt lat="45.95045" lon="6.85508">
        <ele>2182</ele>
        <time>2026-08-04T09:49:59.646Z</time>
      </trkpt>
      <trkpt lat="45.95044" lon="6.85509">
        <ele>2181</ele>
        <time>2026-08-04T09:50:00.646Z</time>
      </trkpt>
      <trkpt lat="45.95043" lon="6.85511">
        <ele>2181</ele>
        <time>2026-08-04T09:50:01.646Z</time>
      </trkpt>
      <trkpt lat="45.95041" lon="6.85512">
        <ele>2181</ele>
        <time>2026-08-04T09:50:02.646Z</time>
      </trkpt>
      <trkpt lat="45.9504" lon="6.85513">
        <ele>2181</ele>
        <time>2026-08-04T09:50:03.646Z</time>
      </trkpt>
      <trkpt lat="45.95038" lon="6.85514">
        <ele>2180</ele>
        <time>2026-08-04T09:50:04.646Z</time>
      </trkpt>
      <trkpt lat="45.95037" lon="6.85515">
        <ele>2180</ele>
        <time>2026-08-04T09:50:05.646Z</time>
      </trkpt>
      <trkpt lat="45.95035" lon="6.85516">
        <ele>2180</ele>
        <time>2026-08-04T09:50:06.646Z</time>
      </trkpt>
      <trkpt lat="45.95034" lon="6.85518">
        <ele>2180</ele>
        <time>2026-08-04T09:50:07.646Z</time>
      </trkpt>
      <trkpt lat="45.95033" lon="6.85519">
        <ele>2179</ele>
        <time>2026-08-04T09:50:08.646Z</time>
      </trkpt>
      <trkpt lat="45.95031" lon="6.85521">
        <ele>2179</ele>
        <time>2026-08-04T09:50:09.646Z</time>
      </trkpt>
      <trkpt lat="45.95029" lon="6.85522">
        <ele>2179</ele>
        <time>2026-08-04T09:50:10.646Z</time>
      </trkpt>
      <trkpt lat="45.95027" lon="6.85524">
        <ele>2178</ele>
        <time>2026-08-04T09:50:11.646Z</time>
      </trkpt>
      <trkpt lat="45.95026" lon="6.85525">
        <ele>2178</ele>
        <time>2026-08-04T09:50:12.646Z</time>
      </trkpt>
      <trkpt lat="45.95024" lon="6.85527">
        <ele>2178</ele>
        <time>2026-08-04T09:50:13.646Z</time>
      </trkpt>
      <trkpt lat="45.95022" lon="6.85528">
        <ele>2177</ele>
        <time>2026-08-04T09:50:14.646Z</time>
      </trkpt>
      <trkpt lat="45.95021" lon="6.85531">
        <ele>2177</ele>
        <time>2026-08-04T09:50:15.646Z</time>
      </trkpt>
      <trkpt lat="45.9502" lon="6.85532">
        <ele>2176</ele>
        <time>2026-08-04T09:50:16.646Z</time>
      </trkpt>
      <trkpt lat="45.95018" lon="6.85535">
        <ele>2176</ele>
        <time>2026-08-04T09:50:17.646Z</time>
      </trkpt>
      <trkpt lat="45.95017" lon="6.85537">
        <ele>2175</ele>
        <time>2026-08-04T09:50:18.646Z</time>
      </trkpt>
      <trkpt lat="45.95016" lon="6.85539">
        <ele>2174</ele>
        <time>2026-08-04T09:50:19.646Z</time>
      </trkpt>
      <trkpt lat="45.95015" lon="6.85542">
        <ele>2174</ele>
        <time>2026-08-04T09:50:20.646Z</time>
      </trkpt>
      <trkpt lat="45.95015" lon="6.85544">
        <ele>2173</ele>
        <time>2026-08-04T09:50:21.646Z</time>
      </trkpt>
      <trkpt lat="45.95015" lon="6.85546">
        <ele>2173</ele>
        <time>2026-08-04T09:50:22.646Z</time>
      </trkpt>
      <trkpt lat="45.95015" lon="6.85548">
        <ele>2173</ele>
        <time>2026-08-04T09:50:23.646Z</time>
      </trkpt>
      <trkpt lat="45.95015" lon="6.85549">
        <ele>2172</ele>
        <time>2026-08-04T09:50:24.646Z</time>
      </trkpt>
      <trkpt lat="45.95015" lon="6.85551">
        <ele>2172</ele>
        <time>2026-08-04T09:50:25.646Z</time>
      </trkpt>
      <trkpt lat="45.95015" lon="6.85553">
        <ele>2171</ele>
        <time>2026-08-04T09:50:26.646Z</time>
      </trkpt>
      <trkpt lat="45.95015" lon="6.85556">
        <ele>2171</ele>
        <time>2026-08-04T09:50:27.646Z</time>
      </trkpt>
      <trkpt lat="45.95015" lon="6.85558">
        <ele>2171</ele>
        <time>2026-08-04T09:50:28.646Z</time>
      </trkpt>
      <trkpt lat="45.95015" lon="6.85562">
        <ele>2170</ele>
        <time>2026-08-04T09:50:29.646Z</time>
      </trkpt>
      <trkpt lat="45.95014" lon="6.85566">
        <ele>2170</ele>
        <time>2026-08-04T09:50:30.646Z</time>
      </trkpt>
      <trkpt lat="45.95013" lon="6.8557">
        <ele>2169</ele>
        <time>2026-08-04T09:50:31.646Z</time>
      </trkpt>
      <trkpt lat="45.95013" lon="6.85573">
        <ele>2169</ele>
        <time>2026-08-04T09:50:32.646Z</time>
      </trkpt>
      <trkpt lat="45.95013" lon="6.85577">
        <ele>2168</ele>
        <time>2026-08-04T09:50:33.646Z</time>
      </trkpt>
      <trkpt lat="45.95013" lon="6.8558">
        <ele>2168</ele>
        <time>2026-08-04T09:50:34.646Z</time>
      </trkpt>
      <trkpt lat="45.95014" lon="6.85584">
        <ele>2168</ele>
        <time>2026-08-04T09:50:35.646Z</time>
      </trkpt>
      <trkpt lat="45.95014" lon="6.85587">
        <ele>2167</ele>
        <time>2026-08-04T09:50:36.646Z</time>
      </trkpt>
      <trkpt lat="45.95016" lon="6.8559">
        <ele>2167</ele>
        <time>2026-08-04T09:50:37.646Z</time>
      </trkpt>
      <trkpt lat="45.95017" lon="6.85592">
        <ele>2167</ele>
        <time>2026-08-04T09:50:38.646Z</time>
      </trkpt>
      <trkpt lat="45.95018" lon="6.85595">
        <ele>2166</ele>
        <time>2026-08-04T09:50:39.646Z</time>
      </trkpt>
      <trkpt lat="45.9502" lon="6.85597">
        <ele>2166</ele>
        <time>2026-08-04T09:50:40.646Z</time>
      </trkpt>
      <trkpt lat="45.95022" lon="6.856">
        <ele>2166</ele>
        <time>2026-08-04T09:50:41.646Z</time>
      </trkpt>
      <trkpt lat="45.95023" lon="6.85602">
        <ele>2166</ele>
        <time>2026-08-04T09:50:42.646Z</time>
      </trkpt>
      <trkpt lat="45.95025" lon="6.85605">
        <ele>2166</ele>
        <time>2026-08-04T09:50:43.646Z</time>
      </trkpt>
      <trkpt lat="45.95027" lon="6.85607">
        <ele>2166</ele>
        <time>2026-08-04T09:50:44.646Z</time>
      </trkpt>
      <trkpt lat="45.95029" lon="6.85609">
        <ele>2166</ele>
        <time>2026-08-04T09:50:45.646Z</time>
      </trkpt>
      <trkpt lat="45.95031" lon="6.85612">
        <ele>2166</ele>
        <time>2026-08-04T09:50:46.646Z</time>
      </trkpt>
      <trkpt lat="45.95032" lon="6.85614">
        <ele>2166</ele>
        <time>2026-08-04T09:50:47.646Z</time>
      </trkpt>
      <trkpt lat="45.95034" lon="6.85616">
        <ele>2166</ele>
        <time>2026-08-04T09:50:48.646Z</time>
      </trkpt>
      <trkpt lat="45.95035" lon="6.85619">
        <ele>2166</ele>
        <time>2026-08-04T09:50:49.647Z</time>
      </trkpt>
      <trkpt lat="45.95036" lon="6.85621">
        <ele>2166</ele>
        <time>2026-08-04T09:50:50.646Z</time>
      </trkpt>
      <trkpt lat="45.95038" lon="6.85623">
        <ele>2165</ele>
        <time>2026-08-04T09:50:51.646Z</time>
      </trkpt>
      <trkpt lat="45.95039" lon="6.85625">
        <ele>2165</ele>
        <time>2026-08-04T09:50:52.646Z</time>
      </trkpt>
      <trkpt lat="45.9504" lon="6.85628">
        <ele>2165</ele>
        <time>2026-08-04T09:50:53.646Z</time>
      </trkpt>
      <trkpt lat="45.95041" lon="6.8563">
        <ele>2165</ele>
        <time>2026-08-04T09:50:54.646Z</time>
      </trkpt>
      <trkpt lat="45.95042" lon="6.85632">
        <ele>2164</ele>
        <time>2026-08-04T09:50:55.646Z</time>
      </trkpt>
      <trkpt lat="45.95043" lon="6.85633">
        <ele>2164</ele>
        <time>2026-08-04T09:50:56.646Z</time>
      </trkpt>
      <trkpt lat="45.95044" lon="6.85635">
        <ele>2163</ele>
        <time>2026-08-04T09:50:57.646Z</time>
      </trkpt>
      <trkpt lat="45.95045" lon="6.85637">
        <ele>2163</ele>
        <time>2026-08-04T09:50:58.646Z</time>
      </trkpt>
      <trkpt lat="45.95046" lon="6.85639">
        <ele>2162</ele>
        <time>2026-08-04T09:50:59.646Z</time>
      </trkpt>
      <trkpt lat="45.95047" lon="6.8564">
        <ele>2162</ele>
        <time>2026-08-04T09:51:00.646Z</time>
      </trkpt>
      <trkpt lat="45.95048" lon="6.85641">
        <ele>2161</ele>
        <time>2026-08-04T09:51:01.646Z</time>
      </trkpt>
      <trkpt lat="45.95049" lon="6.85642">
        <ele>2161</ele>
        <time>2026-08-04T09:51:02.646Z</time>
      </trkpt>
      <trkpt lat="45.9505" lon="6.85642">
        <ele>2161</ele>
        <time>2026-08-04T09:51:03.646Z</time>
      </trkpt>
      <trkpt lat="45.9505" lon="6.85642">
        <ele>2161</ele>
        <time>2026-08-04T09:51:04.646Z</time>
      </trkpt>
      <trkpt lat="45.95051" lon="6.85642">
        <ele>2160</ele>
        <time>2026-08-04T09:51:05.646Z</time>
      </trkpt>
      <trkpt lat="45.95051" lon="6.85642">
        <ele>2160</ele>
        <time>2026-08-04T09:51:06.646Z</time>
      </trkpt>
      <trkpt lat="45.95051" lon="6.85642">
        <ele>2160</ele>
        <time>2026-08-04T09:51:07.646Z</time>
      </trkpt>
      <trkpt lat="45.95051" lon="6.85642">
        <ele>2159</ele>
        <time>2026-08-04T09:51:08.646Z</time>
      </trkpt>
      <trkpt lat="45.95051" lon="6.85642">
        <ele>2159</ele>
        <time>2026-08-04T09:51:09.646Z</time>
      </trkpt>
      <trkpt lat="45.95051" lon="6.85642">
        <ele>2159</ele>
        <time>2026-08-04T09:51:10.646Z</time>
      </trkpt>
      <trkpt lat="45.95051" lon="6.85642">
        <ele>2159</ele>
        <time>2026-08-04T09:51:11.646Z</time>
      </trkpt>
      <trkpt lat="45.95051" lon="6.85641">
        <ele>2159</ele>
        <time>2026-08-04T09:51:12.646Z</time>
      </trkpt>
      <trkpt lat="45.95051" lon="6.85641">
        <ele>2159</ele>
        <time>2026-08-04T09:51:13.646Z</time>
      </trkpt>
      <trkpt lat="45.95051" lon="6.85642">
        <ele>2159</ele>
        <time>2026-08-04T09:51:14.646Z</time>
      </trkpt>
      <trkpt lat="45.95051" lon="6.85641">
        <ele>2159</ele>
        <time>2026-08-04T09:51:15.646Z</time>
      </trkpt>
      <trkpt lat="45.95051" lon="6.85641">
        <ele>2159</ele>
        <time>2026-08-04T09:51:16.646Z</time>
      </trkpt>
      <trkpt lat="45.95051" lon="6.85641">
        <ele>2159</ele>
        <time>2026-08-04T09:51:17.646Z</time>
      </trkpt>
      <trkpt lat="45.95051" lon="6.85641">
        <ele>2159</ele>
        <time>2026-08-04T09:51:18.646Z</time>
      </trkpt>
      <trkpt lat="45.95051" lon="6.85641">
        <ele>2159</ele>
        <time>2026-08-04T09:51:19.646Z</time>
      </trkpt>
      <trkpt lat="45.95051" lon="6.85641">
        <ele>2159</ele>
        <time>2026-08-04T09:51:20.646Z</time>
      </trkpt>
      <trkpt lat="45.95051" lon="6.85641">
        <ele>2159</ele>
        <time>2026-08-04T09:51:21.646Z</time>
      </trkpt>
      <trkpt lat="45.95051" lon="6.85641">
        <ele>2159</ele>
        <time>2026-08-04T09:51:22.646Z</time>
      </trkpt>
      <trkpt lat="45.95051" lon="6.85641">
        <ele>2159</ele>
        <time>2026-08-04T09:51:23.646Z</time>
      </trkpt>
      <trkpt lat="45.95051" lon="6.85641">
        <ele>2159</ele>
        <time>2026-08-04T09:51:24.646Z</time>
      </trkpt>
      <trkpt lat="45.95051" lon="6.85641">
        <ele>2159</ele>
        <time>2026-08-04T09:51:25.646Z</time>
      </trkpt>
      <trkpt lat="45.95051" lon="6.85641">
        <ele>2159</ele>
        <time>2026-08-04T09:51:26.646Z</time>
      </trkpt>
      <trkpt lat="45.95051" lon="6.85641">
        <ele>2159</ele>
        <time>2026-08-04T09:51:27.646Z</time>
      </trkpt>
      <trkpt lat="45.95051" lon="6.85641">
        <ele>2159</ele>
        <time>2026-08-04T09:51:28.646Z</time>
      </trkpt>
      <trkpt lat="45.95051" lon="6.85641">
        <ele>2159</ele>
        <time>2026-08-04T09:51:29.646Z</time>
      </trkpt>
      <trkpt lat="45.95051" lon="6.85641">
        <ele>2159</ele>
        <time>2026-08-04T09:51:30.646Z</time>
      </trkpt>
      <trkpt lat="45.95051" lon="6.85641">
        <ele>2159</ele>
        <time>2026-08-04T09:51:31.646Z</time>
      </trkpt>
      <trkpt lat="45.95051" lon="6.85641">
        <ele>2159</ele>
        <time>2026-08-04T09:51:32.646Z</time>
      </trkpt>
      <trkpt lat="45.95051" lon="6.85641">
        <ele>2159</ele>
        <time>2026-08-04T09:51:33.646Z</time>
      </trkpt>
      <trkpt lat="45.95051" lon="6.85641">
        <ele>2159</ele>
        <time>2026-08-04T09:51:34.646Z</time>
      </trkpt>
      <trkpt lat="45.95051" lon="6.85641">
        <ele>2159</ele>
        <time>2026-08-04T09:51:35.646Z</time>
      </trkpt>
      <trkpt lat="45.95051" lon="6.85641">
        <ele>2159</ele>
        <time>2026-08-04T09:51:36.646Z</time>
      </trkpt>
      <trkpt lat="45.95051" lon="6.85641">
        <ele>2159</ele>
        <time>2026-08-04T09:51:37.646Z</time>
      </trkpt>
      <trkpt lat="45.95051" lon="6.85641">
        <ele>2159</ele>
        <time>2026-08-04T09:51:38.646Z</time>
      </trkpt>
      <trkpt lat="45.95051" lon="6.85641">
        <ele>2159</ele>
        <time>2026-08-04T09:51:39.646Z</time>
      </trkpt>
      <trkpt lat="45.95051" lon="6.85641">
        <ele>2159</ele>
        <time>2026-08-04T09:51:40.646Z</time>
      </trkpt>
      <trkpt lat="45.95051" lon="6.85641">
        <ele>2159</ele>
        <time>2026-08-04T09:51:41.646Z</time>
      </trkpt>
      <trkpt lat="45.95051" lon="6.85641">
        <ele>2159</ele>
        <time>2026-08-04T09:51:42.646Z</time>
      </trkpt>
      <trkpt lat="45.95051" lon="6.85641">
        <ele>2159</ele>
        <time>2026-08-04T09:51:43.646Z</time>
      </trkpt>
      <trkpt lat="45.95051" lon="6.85641">
        <ele>2159</ele>
        <time>2026-08-04T09:51:44.646Z</time>
      </trkpt>
      <trkpt lat="45.95051" lon="6.85642">
        <ele>2159</ele>
        <time>2026-08-04T09:51:45.646Z</time>
      </trkpt>
      <trkpt lat="45.95051" lon="6.85642">
        <ele>2159</ele>
        <time>2026-08-04T09:51:46.646Z</time>
      </trkpt>
      <trkpt lat="45.95051" lon="6.85642">
        <ele>2159</ele>
        <time>2026-08-04T09:51:47.646Z</time>
      </trkpt>
      <trkpt lat="45.95051" lon="6.85642">
        <ele>2159</ele>
        <time>2026-08-04T09:51:48.646Z</time>
      </trkpt>
      <trkpt lat="45.95051" lon="6.85642">
        <ele>2159</ele>
        <time>2026-08-04T09:51:49.646Z</time>
      </trkpt>
      <trkpt lat="45.95051" lon="6.85642">
        <ele>2159</ele>
        <time>2026-08-04T09:51:50.646Z</time>
      </trkpt>
      <trkpt lat="45.95051" lon="6.85642">
        <ele>2159</ele>
        <time>2026-08-04T09:51:51.646Z</time>
      </trkpt>
      <trkpt lat="45.95051" lon="6.85642">
        <ele>2159</ele>
        <time>2026-08-04T09:51:52.646Z</time>
      </trkpt>
      <trkpt lat="45.95051" lon="6.85642">
        <ele>2159</ele>
        <time>2026-08-04T09:51:53.646Z</time>
      </trkpt>
      <trkpt lat="45.95051" lon="6.85642">
        <ele>2159</ele>
        <time>2026-08-04T09:51:54.646Z</time>
      </trkpt>
      <trkpt lat="45.95051" lon="6.85642">
        <ele>2158</ele>
        <time>2026-08-04T09:51:55.646Z</time>
      </trkpt>
      <trkpt lat="45.95051" lon="6.85642">
        <ele>2158</ele>
        <time>2026-08-04T09:51:56.646Z</time>
      </trkpt>
      <trkpt lat="45.95051" lon="6.85642">
        <ele>2158</ele>
        <time>2026-08-04T09:51:57.646Z</time>
      </trkpt>
      <trkpt lat="45.95051" lon="6.85642">
        <ele>2158</ele>
        <time>2026-08-04T09:51:58.646Z</time>
      </trkpt>
      <trkpt lat="45.95051" lon="6.85642">
        <ele>2158</ele>
        <time>2026-08-04T09:51:59.646Z</time>
      </trkpt>
      <trkpt lat="45.95051" lon="6.85642">
        <ele>2158</ele>
        <time>2026-08-04T09:52:00.646Z</time>
      </trkpt>
      <trkpt lat="45.95051" lon="6.85642">
        <ele>2158</ele>
        <time>2026-08-04T09:52:01.646Z</time>
      </trkpt>
      <trkpt lat="45.95051" lon="6.85642">
        <ele>2158</ele>
        <time>2026-08-04T09:52:02.646Z</time>
      </trkpt>
      <trkpt lat="45.95051" lon="6.85642">
        <ele>2158</ele>
        <time>2026-08-04T09:52:03.646Z</time>
      </trkpt>
      <trkpt lat="45.95051" lon="6.85642">
        <ele>2158</ele>
        <time>2026-08-04T09:52:04.646Z</time>
      </trkpt>
      <trkpt lat="45.95051" lon="6.85645">
        <ele>2158</ele>
        <time>2026-08-04T09:52:05.646Z</time>
      </trkpt>
      <trkpt lat="45.95051" lon="6.85648">
        <ele>2158</ele>
        <time>2026-08-04T09:52:06.646Z</time>
      </trkpt>
      <trkpt lat="45.95051" lon="6.85651">
        <ele>2158</ele>
        <time>2026-08-04T09:52:07.646Z</time>
      </trkpt>
      <trkpt lat="45.95051" lon="6.85654">
        <ele>2158</ele>
        <time>2026-08-04T09:52:08.646Z</time>
      </trkpt>
      <trkpt lat="45.95051" lon="6.85658">
        <ele>2159</ele>
        <time>2026-08-04T09:52:09.646Z</time>
      </trkpt>
      <trkpt lat="45.95051" lon="6.85661">
        <ele>2159</ele>
        <time>2026-08-04T09:52:10.646Z</time>
      </trkpt>
      <trkpt lat="45.95051" lon="6.85665">
        <ele>2158</ele>
        <time>2026-08-04T09:52:11.646Z</time>
      </trkpt>
      <trkpt lat="45.95051" lon="6.85669">
        <ele>2158</ele>
        <time>2026-08-04T09:52:12.646Z</time>
      </trkpt>
      <trkpt lat="45.95051" lon="6.85673">
        <ele>2157</ele>
        <time>2026-08-04T09:52:13.646Z</time>
      </trkpt>
      <trkpt lat="45.95051" lon="6.85677">
        <ele>2157</ele>
        <time>2026-08-04T09:52:14.646Z</time>
      </trkpt>
      <trkpt lat="45.95051" lon="6.8568">
        <ele>2156</ele>
        <time>2026-08-04T09:52:15.646Z</time>
      </trkpt>
      <trkpt lat="45.9505" lon="6.85684">
        <ele>2156</ele>
        <time>2026-08-04T09:52:16.646Z</time>
      </trkpt>
      <trkpt lat="45.95049" lon="6.85687">
        <ele>2155</ele>
        <time>2026-08-04T09:52:17.646Z</time>
      </trkpt>
      <trkpt lat="45.95048" lon="6.85689">
        <ele>2155</ele>
        <time>2026-08-04T09:52:18.646Z</time>
      </trkpt>
      <trkpt lat="45.95047" lon="6.85691">
        <ele>2155</ele>
        <time>2026-08-04T09:52:19.646Z</time>
      </trkpt>
      <trkpt lat="45.95045" lon="6.85692">
        <ele>2154</ele>
        <time>2026-08-04T09:52:20.646Z</time>
      </trkpt>
      <trkpt lat="45.95042" lon="6.85692">
        <ele>2153</ele>
        <time>2026-08-04T09:52:21.646Z</time>
      </trkpt>
      <trkpt lat="45.95041" lon="6.85692">
        <ele>2153</ele>
        <time>2026-08-04T09:52:22.646Z</time>
      </trkpt>
      <trkpt lat="45.9504" lon="6.85691">
        <ele>2153</ele>
        <time>2026-08-04T09:52:23.646Z</time>
      </trkpt>
      <trkpt lat="45.95038" lon="6.8569">
        <ele>2152</ele>
        <time>2026-08-04T09:52:24.646Z</time>
      </trkpt>
      <trkpt lat="45.95036" lon="6.85688">
        <ele>2152</ele>
        <time>2026-08-04T09:52:25.646Z</time>
      </trkpt>
      <trkpt lat="45.95035" lon="6.85686">
        <ele>2151</ele>
        <time>2026-08-04T09:52:26.646Z</time>
      </trkpt>
      <trkpt lat="45.95034" lon="6.85685">
        <ele>2151</ele>
        <time>2026-08-04T09:52:27.646Z</time>
      </trkpt>
      <trkpt lat="45.95033" lon="6.85683">
        <ele>2151</ele>
        <time>2026-08-04T09:52:28.646Z</time>
      </trkpt>
      <trkpt lat="45.95032" lon="6.85682">
        <ele>2150</ele>
        <time>2026-08-04T09:52:29.646Z</time>
      </trkpt>
      <trkpt lat="45.95031" lon="6.8568">
        <ele>2150</ele>
        <time>2026-08-04T09:52:30.646Z</time>
      </trkpt>
      <trkpt lat="45.9503" lon="6.85678">
        <ele>2149</ele>
        <time>2026-08-04T09:52:31.646Z</time>
      </trkpt>
      <trkpt lat="45.95028" lon="6.85676">
        <ele>2149</ele>
        <time>2026-08-04T09:52:32.646Z</time>
      </trkpt>
      <trkpt lat="45.95027" lon="6.85674">
        <ele>2148</ele>
        <time>2026-08-04T09:52:33.646Z</time>
      </trkpt>
      <trkpt lat="45.95027" lon="6.85672">
        <ele>2148</ele>
        <time>2026-08-04T09:52:34.646Z</time>
      </trkpt>
      <trkpt lat="45.95026" lon="6.8567">
        <ele>2148</ele>
        <time>2026-08-04T09:52:35.646Z</time>
      </trkpt>
      <trkpt lat="45.95025" lon="6.85669">
        <ele>2147</ele>
        <time>2026-08-04T09:52:36.646Z</time>
      </trkpt>
      <trkpt lat="45.95024" lon="6.85668">
        <ele>2147</ele>
        <time>2026-08-04T09:52:37.646Z</time>
      </trkpt>
      <trkpt lat="45.95023" lon="6.85667">
        <ele>2146</ele>
        <time>2026-08-04T09:52:38.646Z</time>
      </trkpt>
      <trkpt lat="45.95021" lon="6.85665">
        <ele>2146</ele>
        <time>2026-08-04T09:52:39.646Z</time>
      </trkpt>
      <trkpt lat="45.9502" lon="6.85664">
        <ele>2145</ele>
        <time>2026-08-04T09:52:40.646Z</time>
      </trkpt>
      <trkpt lat="45.95019" lon="6.85663">
        <ele>2145</ele>
        <time>2026-08-04T09:52:41.646Z</time>
      </trkpt>
      <trkpt lat="45.95017" lon="6.85662">
        <ele>2144</ele>
        <time>2026-08-04T09:52:42.646Z</time>
      </trkpt>
      <trkpt lat="45.95016" lon="6.85662">
        <ele>2144</ele>
        <time>2026-08-04T09:52:43.646Z</time>
      </trkpt>
      <trkpt lat="45.95014" lon="6.85663">
        <ele>2144</ele>
        <time>2026-08-04T09:52:44.646Z</time>
      </trkpt>
      <trkpt lat="45.95012" lon="6.85663">
        <ele>2143</ele>
        <time>2026-08-04T09:52:45.646Z</time>
      </trkpt>
      <trkpt lat="45.9501" lon="6.85664">
        <ele>2143</ele>
        <time>2026-08-04T09:52:46.646Z</time>
      </trkpt>
      <trkpt lat="45.95008" lon="6.85664">
        <ele>2143</ele>
        <time>2026-08-04T09:52:47.646Z</time>
      </trkpt>
      <trkpt lat="45.95005" lon="6.85664">
        <ele>2143</ele>
        <time>2026-08-04T09:52:48.646Z</time>
      </trkpt>
      <trkpt lat="45.95003" lon="6.85665">
        <ele>2142</ele>
        <time>2026-08-04T09:52:49.646Z</time>
      </trkpt>
      <trkpt lat="45.95001" lon="6.85665">
        <ele>2142</ele>
        <time>2026-08-04T09:52:50.646Z</time>
      </trkpt>
      <trkpt lat="45.94998" lon="6.85664">
        <ele>2142</ele>
        <time>2026-08-04T09:52:51.646Z</time>
      </trkpt>
      <trkpt lat="45.94996" lon="6.85664">
        <ele>2141</ele>
        <time>2026-08-04T09:52:52.646Z</time>
      </trkpt>
      <trkpt lat="45.94994" lon="6.85663">
        <ele>2141</ele>
        <time>2026-08-04T09:52:53.646Z</time>
      </trkpt>
      <trkpt lat="45.94991" lon="6.85662">
        <ele>2140</ele>
        <time>2026-08-04T09:52:54.646Z</time>
      </trkpt>
      <trkpt lat="45.94989" lon="6.85662">
        <ele>2140</ele>
        <time>2026-08-04T09:52:55.646Z</time>
      </trkpt>
      <trkpt lat="45.94986" lon="6.85661">
        <ele>2139</ele>
        <time>2026-08-04T09:52:56.646Z</time>
      </trkpt>
      <trkpt lat="45.94984" lon="6.8566">
        <ele>2138</ele>
        <time>2026-08-04T09:52:57.646Z</time>
      </trkpt>
      <trkpt lat="45.94983" lon="6.85659">
        <ele>2138</ele>
        <time>2026-08-04T09:52:58.646Z</time>
      </trkpt>
      <trkpt lat="45.94981" lon="6.85657">
        <ele>2137</ele>
        <time>2026-08-04T09:52:59.646Z</time>
      </trkpt>
      <trkpt lat="45.94979" lon="6.85657">
        <ele>2136</ele>
        <time>2026-08-04T09:53:00.646Z</time>
      </trkpt>
      <trkpt lat="45.94977" lon="6.85656">
        <ele>2136</ele>
        <time>2026-08-04T09:53:01.646Z</time>
      </trkpt>
      <trkpt lat="45.94975" lon="6.85656">
        <ele>2135</ele>
        <time>2026-08-04T09:53:02.646Z</time>
      </trkpt>
      <trkpt lat="45.94974" lon="6.85655">
        <ele>2134</ele>
        <time>2026-08-04T09:53:03.646Z</time>
      </trkpt>
      <trkpt lat="45.94971" lon="6.85654">
        <ele>2134</ele>
        <time>2026-08-04T09:53:04.646Z</time>
      </trkpt>
      <trkpt lat="45.94969" lon="6.85653">
        <ele>2133</ele>
        <time>2026-08-04T09:53:05.646Z</time>
      </trkpt>
      <trkpt lat="45.94967" lon="6.85653">
        <ele>2133</ele>
        <time>2026-08-04T09:53:06.646Z</time>
      </trkpt>
      <trkpt lat="45.94964" lon="6.85652">
        <ele>2132</ele>
        <time>2026-08-04T09:53:07.646Z</time>
      </trkpt>
      <trkpt lat="45.94962" lon="6.85652">
        <ele>2132</ele>
        <time>2026-08-04T09:53:08.646Z</time>
      </trkpt>
      <trkpt lat="45.9496" lon="6.85652">
        <ele>2132</ele>
        <time>2026-08-04T09:53:09.646Z</time>
      </trkpt>
      <trkpt lat="45.94958" lon="6.85651">
        <ele>2131</ele>
        <time>2026-08-04T09:53:10.646Z</time>
      </trkpt>
      <trkpt lat="45.94956" lon="6.85651">
        <ele>2131</ele>
        <time>2026-08-04T09:53:11.646Z</time>
      </trkpt>
      <trkpt lat="45.94954" lon="6.8565">
        <ele>2130</ele>
        <time>2026-08-04T09:53:12.646Z</time>
      </trkpt>
      <trkpt lat="45.94952" lon="6.8565">
        <ele>2130</ele>
        <time>2026-08-04T09:53:13.646Z</time>
      </trkpt>
      <trkpt lat="45.9495" lon="6.85649">
        <ele>2130</ele>
        <time>2026-08-04T09:53:14.646Z</time>
      </trkpt>
      <trkpt lat="45.94948" lon="6.85649">
        <ele>2129</ele>
        <time>2026-08-04T09:53:15.646Z</time>
      </trkpt>
      <trkpt lat="45.94947" lon="6.85649">
        <ele>2128</ele>
        <time>2026-08-04T09:53:16.646Z</time>
      </trkpt>
      <trkpt lat="45.94944" lon="6.85649">
        <ele>2128</ele>
        <time>2026-08-04T09:53:17.646Z</time>
      </trkpt>
      <trkpt lat="45.94942" lon="6.85649">
        <ele>2128</ele>
        <time>2026-08-04T09:53:18.646Z</time>
      </trkpt>
      <trkpt lat="45.94941" lon="6.85649">
        <ele>2127</ele>
        <time>2026-08-04T09:53:19.646Z</time>
      </trkpt>
      <trkpt lat="45.94938" lon="6.85648">
        <ele>2126</ele>
        <time>2026-08-04T09:53:20.646Z</time>
      </trkpt>
      <trkpt lat="45.94936" lon="6.85648">
        <ele>2126</ele>
        <time>2026-08-04T09:53:21.646Z</time>
      </trkpt>
      <trkpt lat="45.94934" lon="6.85647">
        <ele>2125</ele>
        <time>2026-08-04T09:53:22.646Z</time>
      </trkpt>
      <trkpt lat="45.94932" lon="6.85647">
        <ele>2124</ele>
        <time>2026-08-04T09:53:23.646Z</time>
      </trkpt>
      <trkpt lat="45.9493" lon="6.85647">
        <ele>2122</ele>
        <time>2026-08-04T09:53:24.646Z</time>
      </trkpt>
      <trkpt lat="45.94928" lon="6.85647">
        <ele>2121</ele>
        <time>2026-08-04T09:53:25.646Z</time>
      </trkpt>
      <trkpt lat="45.94926" lon="6.85647">
        <ele>2121</ele>
        <time>2026-08-04T09:53:26.646Z</time>
      </trkpt>
      <trkpt lat="45.94925" lon="6.85647">
        <ele>2120</ele>
        <time>2026-08-04T09:53:27.646Z</time>
      </trkpt>
      <trkpt lat="45.94922" lon="6.85648">
        <ele>2119</ele>
        <time>2026-08-04T09:53:28.646Z</time>
      </trkpt>
      <trkpt lat="45.9492" lon="6.85648">
        <ele>2119</ele>
        <time>2026-08-04T09:53:29.646Z</time>
      </trkpt>
      <trkpt lat="45.94918" lon="6.85648">
        <ele>2118</ele>
        <time>2026-08-04T09:53:30.646Z</time>
      </trkpt>
      <trkpt lat="45.94917" lon="6.85648">
        <ele>2118</ele>
        <time>2026-08-04T09:53:31.646Z</time>
      </trkpt>
      <trkpt lat="45.94915" lon="6.85647">
        <ele>2117</ele>
        <time>2026-08-04T09:53:32.646Z</time>
      </trkpt>
      <trkpt lat="45.94914" lon="6.85647">
        <ele>2117</ele>
        <time>2026-08-04T09:53:33.646Z</time>
      </trkpt>
      <trkpt lat="45.94912" lon="6.85646">
        <ele>2116</ele>
        <time>2026-08-04T09:53:34.646Z</time>
      </trkpt>
      <trkpt lat="45.9491" lon="6.85645">
        <ele>2116</ele>
        <time>2026-08-04T09:53:35.646Z</time>
      </trkpt>
      <trkpt lat="45.9491" lon="6.85643">
        <ele>2115</ele>
        <time>2026-08-04T09:53:36.646Z</time>
      </trkpt>
      <trkpt lat="45.94909" lon="6.8564">
        <ele>2115</ele>
        <time>2026-08-04T09:53:37.646Z</time>
      </trkpt>
      <trkpt lat="45.94909" lon="6.85637">
        <ele>2115</ele>
        <time>2026-08-04T09:53:38.646Z</time>
      </trkpt>
      <trkpt lat="45.9491" lon="6.85634">
        <ele>2114</ele>
        <time>2026-08-04T09:53:39.646Z</time>
      </trkpt>
      <trkpt lat="45.9491" lon="6.8563">
        <ele>2113</ele>
        <time>2026-08-04T09:53:40.646Z</time>
      </trkpt>
      <trkpt lat="45.9491" lon="6.85627">
        <ele>2113</ele>
        <time>2026-08-04T09:53:41.646Z</time>
      </trkpt>
      <trkpt lat="45.94911" lon="6.85624">
        <ele>2112</ele>
        <time>2026-08-04T09:53:42.646Z</time>
      </trkpt>
      <trkpt lat="45.94911" lon="6.8562">
        <ele>2112</ele>
        <time>2026-08-04T09:53:43.646Z</time>
      </trkpt>
      <trkpt lat="45.94912" lon="6.85617">
        <ele>2112</ele>
        <time>2026-08-04T09:53:44.646Z</time>
      </trkpt>
      <trkpt lat="45.94912" lon="6.85614">
        <ele>2111</ele>
        <time>2026-08-04T09:53:45.646Z</time>
      </trkpt>
      <trkpt lat="45.94913" lon="6.8561">
        <ele>2111</ele>
        <time>2026-08-04T09:53:46.646Z</time>
      </trkpt>
      <trkpt lat="45.94913" lon="6.85607">
        <ele>2110</ele>
        <time>2026-08-04T09:53:47.646Z</time>
      </trkpt>
      <trkpt lat="45.94913" lon="6.85604">
        <ele>2110</ele>
        <time>2026-08-04T09:53:48.646Z</time>
      </trkpt>
      <trkpt lat="45.94914" lon="6.85601">
        <ele>2109</ele>
        <time>2026-08-04T09:53:49.646Z</time>
      </trkpt>
      <trkpt lat="45.94914" lon="6.85598">
        <ele>2109</ele>
        <time>2026-08-04T09:53:50.646Z</time>
      </trkpt>
      <trkpt lat="45.94914" lon="6.85595">
        <ele>2108</ele>
        <time>2026-08-04T09:53:51.646Z</time>
      </trkpt>
      <trkpt lat="45.94914" lon="6.85592">
        <ele>2108</ele>
        <time>2026-08-04T09:53:52.646Z</time>
      </trkpt>
      <trkpt lat="45.94914" lon="6.85589">
        <ele>2107</ele>
        <time>2026-08-04T09:53:53.646Z</time>
      </trkpt>
      <trkpt lat="45.94913" lon="6.85586">
        <ele>2107</ele>
        <time>2026-08-04T09:53:54.646Z</time>
      </trkpt>
      <trkpt lat="45.94913" lon="6.85583">
        <ele>2106</ele>
        <time>2026-08-04T09:53:55.646Z</time>
      </trkpt>
      <trkpt lat="45.94912" lon="6.8558">
        <ele>2106</ele>
        <time>2026-08-04T09:53:56.646Z</time>
      </trkpt>
      <trkpt lat="45.94911" lon="6.85578">
        <ele>2105</ele>
        <time>2026-08-04T09:53:57.646Z</time>
      </trkpt>
      <trkpt lat="45.9491" lon="6.85575">
        <ele>2105</ele>
        <time>2026-08-04T09:53:58.646Z</time>
      </trkpt>
      <trkpt lat="45.94909" lon="6.85573">
        <ele>2104</ele>
        <time>2026-08-04T09:53:59.646Z</time>
      </trkpt>
      <trkpt lat="45.94908" lon="6.8557">
        <ele>2104</ele>
        <time>2026-08-04T09:54:00.646Z</time>
      </trkpt>
      <trkpt lat="45.94907" lon="6.85568">
        <ele>2103</ele>
        <time>2026-08-04T09:54:01.646Z</time>
      </trkpt>
      <trkpt lat="45.94906" lon="6.85566">
        <ele>2103</ele>
        <time>2026-08-04T09:54:02.646Z</time>
      </trkpt>
      <trkpt lat="45.94905" lon="6.85564">
        <ele>2102</ele>
        <time>2026-08-04T09:54:03.646Z</time>
      </trkpt>
      <trkpt lat="45.94903" lon="6.85562">
        <ele>2102</ele>
        <time>2026-08-04T09:54:04.646Z</time>
      </trkpt>
      <trkpt lat="45.94902" lon="6.85559">
        <ele>2101</ele>
        <time>2026-08-04T09:54:05.646Z</time>
      </trkpt>
      <trkpt lat="45.94901" lon="6.85557">
        <ele>2101</ele>
        <time>2026-08-04T09:54:06.646Z</time>
      </trkpt>
      <trkpt lat="45.94899" lon="6.85554">
        <ele>2101</ele>
        <time>2026-08-04T09:54:07.646Z</time>
      </trkpt>
      <trkpt lat="45.94898" lon="6.85551">
        <ele>2100</ele>
        <time>2026-08-04T09:54:08.646Z</time>
      </trkpt>
      <trkpt lat="45.94897" lon="6.85547">
        <ele>2100</ele>
        <time>2026-08-04T09:54:09.646Z</time>
      </trkpt>
      <trkpt lat="45.94895" lon="6.85545">
        <ele>2100</ele>
        <time>2026-08-04T09:54:10.646Z</time>
      </trkpt>
      <trkpt lat="45.94894" lon="6.85542">
        <ele>2100</ele>
        <time>2026-08-04T09:54:11.646Z</time>
      </trkpt>
      <trkpt lat="45.94893" lon="6.85539">
        <ele>2099</ele>
        <time>2026-08-04T09:54:12.646Z</time>
      </trkpt>
      <trkpt lat="45.94892" lon="6.85536">
        <ele>2099</ele>
        <time>2026-08-04T09:54:13.646Z</time>
      </trkpt>
      <trkpt lat="45.94891" lon="6.85532">
        <ele>2098</ele>
        <time>2026-08-04T09:54:14.646Z</time>
      </trkpt>
      <trkpt lat="45.94891" lon="6.85529">
        <ele>2098</ele>
        <time>2026-08-04T09:54:15.646Z</time>
      </trkpt>
      <trkpt lat="45.9489" lon="6.85526">
        <ele>2097</ele>
        <time>2026-08-04T09:54:16.646Z</time>
      </trkpt>
      <trkpt lat="45.94889" lon="6.85523">
        <ele>2097</ele>
        <time>2026-08-04T09:54:17.646Z</time>
      </trkpt>
      <trkpt lat="45.94888" lon="6.85521">
        <ele>2097</ele>
        <time>2026-08-04T09:54:18.646Z</time>
      </trkpt>
      <trkpt lat="45.94886" lon="6.85519">
        <ele>2097</ele>
        <time>2026-08-04T09:54:19.646Z</time>
      </trkpt>
      <trkpt lat="45.94885" lon="6.85515">
        <ele>2096</ele>
        <time>2026-08-04T09:54:20.646Z</time>
      </trkpt>
      <trkpt lat="45.94883" lon="6.85513">
        <ele>2096</ele>
        <time>2026-08-04T09:54:21.646Z</time>
      </trkpt>
      <trkpt lat="45.94882" lon="6.8551">
        <ele>2095</ele>
        <time>2026-08-04T09:54:22.646Z</time>
      </trkpt>
      <trkpt lat="45.9488" lon="6.85508">
        <ele>2094</ele>
        <time>2026-08-04T09:54:23.646Z</time>
      </trkpt>
      <trkpt lat="45.94879" lon="6.85505">
        <ele>2094</ele>
        <time>2026-08-04T09:54:24.646Z</time>
      </trkpt>
      <trkpt lat="45.94877" lon="6.85503">
        <ele>2093</ele>
        <time>2026-08-04T09:54:25.646Z</time>
      </trkpt>
      <trkpt lat="45.94875" lon="6.85501">
        <ele>2093</ele>
        <time>2026-08-04T09:54:26.646Z</time>
      </trkpt>
      <trkpt lat="45.94874" lon="6.85499">
        <ele>2092</ele>
        <time>2026-08-04T09:54:27.646Z</time>
      </trkpt>
      <trkpt lat="45.94872" lon="6.85498">
        <ele>2092</ele>
        <time>2026-08-04T09:54:28.646Z</time>
      </trkpt>
      <trkpt lat="45.9487" lon="6.85495">
        <ele>2092</ele>
        <time>2026-08-04T09:54:29.646Z</time>
      </trkpt>
      <trkpt lat="45.94868" lon="6.85493">
        <ele>2091</ele>
        <time>2026-08-04T09:54:30.646Z</time>
      </trkpt>
      <trkpt lat="45.94866" lon="6.85491">
        <ele>2091</ele>
        <time>2026-08-04T09:54:31.646Z</time>
      </trkpt>
      <trkpt lat="45.94864" lon="6.85489">
        <ele>2091</ele>
        <time>2026-08-04T09:54:32.646Z</time>
      </trkpt>
      <trkpt lat="45.94862" lon="6.85487">
        <ele>2090</ele>
        <time>2026-08-04T09:54:33.646Z</time>
      </trkpt>
      <trkpt lat="45.94861" lon="6.85486">
        <ele>2090</ele>
        <time>2026-08-04T09:54:34.646Z</time>
      </trkpt>
      <trkpt lat="45.94859" lon="6.85484">
        <ele>2089</ele>
        <time>2026-08-04T09:54:35.646Z</time>
      </trkpt>
      <trkpt lat="45.94857" lon="6.85483">
        <ele>2089</ele>
        <time>2026-08-04T09:54:36.646Z</time>
      </trkpt>
      <trkpt lat="45.94856" lon="6.85481">
        <ele>2089</ele>
        <time>2026-08-04T09:54:37.646Z</time>
      </trkpt>
      <trkpt lat="45.94854" lon="6.85479">
        <ele>2088</ele>
        <time>2026-08-04T09:54:38.646Z</time>
      </trkpt>
      <trkpt lat="45.94852" lon="6.85478">
        <ele>2087</ele>
        <time>2026-08-04T09:54:39.646Z</time>
      </trkpt>
      <trkpt lat="45.9485" lon="6.85476">
        <ele>2087</ele>
        <time>2026-08-04T09:54:40.646Z</time>
      </trkpt>
      <trkpt lat="45.94849" lon="6.85475">
        <ele>2086</ele>
        <time>2026-08-04T09:54:41.646Z</time>
      </trkpt>
      <trkpt lat="45.94847" lon="6.85473">
        <ele>2086</ele>
        <time>2026-08-04T09:54:42.646Z</time>
      </trkpt>
      <trkpt lat="45.94845" lon="6.85472">
        <ele>2085</ele>
        <time>2026-08-04T09:54:43.646Z</time>
      </trkpt>
      <trkpt lat="45.94843" lon="6.85471">
        <ele>2085</ele>
        <time>2026-08-04T09:54:44.646Z</time>
      </trkpt>
      <trkpt lat="45.94842" lon="6.85471">
        <ele>2084</ele>
        <time>2026-08-04T09:54:45.646Z</time>
      </trkpt>
      <trkpt lat="45.9484" lon="6.85471">
        <ele>2084</ele>
        <time>2026-08-04T09:54:46.646Z</time>
      </trkpt>
      <trkpt lat="45.94839" lon="6.85471">
        <ele>2083</ele>
        <time>2026-08-04T09:54:47.646Z</time>
      </trkpt>
      <trkpt lat="45.94837" lon="6.85472">
        <ele>2083</ele>
        <time>2026-08-04T09:54:48.646Z</time>
      </trkpt>
      <trkpt lat="45.94836" lon="6.85473">
        <ele>2082</ele>
        <time>2026-08-04T09:54:49.646Z</time>
      </trkpt>
      <trkpt lat="45.94834" lon="6.85474">
        <ele>2082</ele>
        <time>2026-08-04T09:54:50.646Z</time>
      </trkpt>
      <trkpt lat="45.94833" lon="6.85475">
        <ele>2081</ele>
        <time>2026-08-04T09:54:51.646Z</time>
      </trkpt>
      <trkpt lat="45.94832" lon="6.85476">
        <ele>2081</ele>
        <time>2026-08-04T09:54:52.646Z</time>
      </trkpt>
      <trkpt lat="45.94831" lon="6.85477">
        <ele>2081</ele>
        <time>2026-08-04T09:54:53.646Z</time>
      </trkpt>
      <trkpt lat="45.9483" lon="6.85478">
        <ele>2080</ele>
        <time>2026-08-04T09:54:54.646Z</time>
      </trkpt>
      <trkpt lat="45.94829" lon="6.85479">
        <ele>2080</ele>
        <time>2026-08-04T09:54:55.646Z</time>
      </trkpt>
      <trkpt lat="45.94828" lon="6.85481">
        <ele>2080</ele>
        <time>2026-08-04T09:54:56.646Z</time>
      </trkpt>
      <trkpt lat="45.94826" lon="6.85482">
        <ele>2079</ele>
        <time>2026-08-04T09:54:57.646Z</time>
      </trkpt>
      <trkpt lat="45.94825" lon="6.85483">
        <ele>2079</ele>
        <time>2026-08-04T09:54:58.646Z</time>
      </trkpt>
      <trkpt lat="45.94824" lon="6.85484">
        <ele>2079</ele>
        <time>2026-08-04T09:54:59.646Z</time>
      </trkpt>
      <trkpt lat="45.94823" lon="6.85485">
        <ele>2078</ele>
        <time>2026-08-04T09:55:00.646Z</time>
      </trkpt>
      <trkpt lat="45.94822" lon="6.85486">
        <ele>2078</ele>
        <time>2026-08-04T09:55:01.646Z</time>
      </trkpt>
      <trkpt lat="45.94821" lon="6.85487">
        <ele>2078</ele>
        <time>2026-08-04T09:55:02.646Z</time>
      </trkpt>
      <trkpt lat="45.9482" lon="6.85488">
        <ele>2078</ele>
        <time>2026-08-04T09:55:03.646Z</time>
      </trkpt>
      <trkpt lat="45.94819" lon="6.85489">
        <ele>2078</ele>
        <time>2026-08-04T09:55:04.646Z</time>
      </trkpt>
      <trkpt lat="45.94819" lon="6.8549">
        <ele>2077</ele>
        <time>2026-08-04T09:55:05.646Z</time>
      </trkpt>
      <trkpt lat="45.94818" lon="6.8549">
        <ele>2077</ele>
        <time>2026-08-04T09:55:06.646Z</time>
      </trkpt>
      <trkpt lat="45.94818" lon="6.8549">
        <ele>2077</ele>
        <time>2026-08-04T09:55:07.646Z</time>
      </trkpt>
      <trkpt lat="45.94818" lon="6.8549">
        <ele>2076</ele>
        <time>2026-08-04T09:55:08.646Z</time>
      </trkpt>
      <trkpt lat="45.94817" lon="6.8549">
        <ele>2076</ele>
        <time>2026-08-04T09:55:09.646Z</time>
      </trkpt>
      <trkpt lat="45.94817" lon="6.8549">
        <ele>2075</ele>
        <time>2026-08-04T09:55:10.646Z</time>
      </trkpt>
      <trkpt lat="45.94816" lon="6.85491">
        <ele>2075</ele>
        <time>2026-08-04T09:55:11.646Z</time>
      </trkpt>
      <trkpt lat="45.94815" lon="6.85492">
        <ele>2075</ele>
        <time>2026-08-04T09:55:12.646Z</time>
      </trkpt>
      <trkpt lat="45.94814" lon="6.85493">
        <ele>2075</ele>
        <time>2026-08-04T09:55:13.647Z</time>
      </trkpt>
      <trkpt lat="45.94813" lon="6.85494">
        <ele>2075</ele>
        <time>2026-08-04T09:55:14.646Z</time>
      </trkpt>
      <trkpt lat="45.94811" lon="6.85495">
        <ele>2074</ele>
        <time>2026-08-04T09:55:15.646Z</time>
      </trkpt>
      <trkpt lat="45.9481" lon="6.85496">
        <ele>2074</ele>
        <time>2026-08-04T09:55:16.646Z</time>
      </trkpt>
      <trkpt lat="45.94809" lon="6.85496">
        <ele>2073</ele>
        <time>2026-08-04T09:55:17.646Z</time>
      </trkpt>
      <trkpt lat="45.94807" lon="6.85496">
        <ele>2073</ele>
        <time>2026-08-04T09:55:18.646Z</time>
      </trkpt>
      <trkpt lat="45.94806" lon="6.85496">
        <ele>2072</ele>
        <time>2026-08-04T09:55:19.646Z</time>
      </trkpt>
      <trkpt lat="45.94805" lon="6.85497">
        <ele>2071</ele>
        <time>2026-08-04T09:55:20.646Z</time>
      </trkpt>
      <trkpt lat="45.94804" lon="6.85497">
        <ele>2071</ele>
        <time>2026-08-04T09:55:21.646Z</time>
      </trkpt>
      <trkpt lat="45.94802" lon="6.85498">
        <ele>2070</ele>
        <time>2026-08-04T09:55:22.646Z</time>
      </trkpt>
      <trkpt lat="45.94801" lon="6.85499">
        <ele>2070</ele>
        <time>2026-08-04T09:55:23.646Z</time>
      </trkpt>
      <trkpt lat="45.94801" lon="6.855">
        <ele>2069</ele>
        <time>2026-08-04T09:55:24.646Z</time>
      </trkpt>
      <trkpt lat="45.94799" lon="6.85502">
        <ele>2069</ele>
        <time>2026-08-04T09:55:25.646Z</time>
      </trkpt>
      <trkpt lat="45.94798" lon="6.85503">
        <ele>2069</ele>
        <time>2026-08-04T09:55:26.646Z</time>
      </trkpt>
      <trkpt lat="45.94797" lon="6.85504">
        <ele>2068</ele>
        <time>2026-08-04T09:55:27.646Z</time>
      </trkpt>
      <trkpt lat="45.94796" lon="6.85505">
        <ele>2068</ele>
        <time>2026-08-04T09:55:28.646Z</time>
      </trkpt>
      <trkpt lat="45.94794" lon="6.85506">
        <ele>2067</ele>
        <time>2026-08-04T09:55:29.646Z</time>
      </trkpt>
      <trkpt lat="45.94793" lon="6.85507">
        <ele>2067</ele>
        <time>2026-08-04T09:55:30.646Z</time>
      </trkpt>
      <trkpt lat="45.94792" lon="6.85509">
        <ele>2067</ele>
        <time>2026-08-04T09:55:31.646Z</time>
      </trkpt>
      <trkpt lat="45.9479" lon="6.8551">
        <ele>2067</ele>
        <time>2026-08-04T09:55:32.646Z</time>
      </trkpt>
      <trkpt lat="45.94788" lon="6.85512">
        <ele>2066</ele>
        <time>2026-08-04T09:55:33.646Z</time>
      </trkpt>
      <trkpt lat="45.94787" lon="6.85514">
        <ele>2066</ele>
        <time>2026-08-04T09:55:34.646Z</time>
      </trkpt>
      <trkpt lat="45.94786" lon="6.85516">
        <ele>2066</ele>
        <time>2026-08-04T09:55:35.646Z</time>
      </trkpt>
      <trkpt lat="45.94785" lon="6.85518">
        <ele>2065</ele>
        <time>2026-08-04T09:55:36.646Z</time>
      </trkpt>
      <trkpt lat="45.94784" lon="6.8552">
        <ele>2065</ele>
        <time>2026-08-04T09:55:37.646Z</time>
      </trkpt>
      <trkpt lat="45.94783" lon="6.85522">
        <ele>2064</ele>
        <time>2026-08-04T09:55:38.646Z</time>
      </trkpt>
      <trkpt lat="45.94783" lon="6.85524">
        <ele>2064</ele>
        <time>2026-08-04T09:55:39.646Z</time>
      </trkpt>
      <trkpt lat="45.94782" lon="6.85526">
        <ele>2064</ele>
        <time>2026-08-04T09:55:40.646Z</time>
      </trkpt>
      <trkpt lat="45.94781" lon="6.85529">
        <ele>2064</ele>
        <time>2026-08-04T09:55:41.646Z</time>
      </trkpt>
      <trkpt lat="45.9478" lon="6.85532">
        <ele>2063</ele>
        <time>2026-08-04T09:55:42.646Z</time>
      </trkpt>
      <trkpt lat="45.9478" lon="6.85535">
        <ele>2063</ele>
        <time>2026-08-04T09:55:43.646Z</time>
      </trkpt>
      <trkpt lat="45.94779" lon="6.85539">
        <ele>2062</ele>
        <time>2026-08-04T09:55:44.646Z</time>
      </trkpt>
      <trkpt lat="45.94779" lon="6.85542">
        <ele>2062</ele>
        <time>2026-08-04T09:55:45.646Z</time>
      </trkpt>
      <trkpt lat="45.94779" lon="6.85545">
        <ele>2061</ele>
        <time>2026-08-04T09:55:46.646Z</time>
      </trkpt>
      <trkpt lat="45.94778" lon="6.85548">
        <ele>2061</ele>
        <time>2026-08-04T09:55:47.646Z</time>
      </trkpt>
      <trkpt lat="45.94778" lon="6.85551">
        <ele>2061</ele>
        <time>2026-08-04T09:55:48.646Z</time>
      </trkpt>
      <trkpt lat="45.94777" lon="6.85554">
        <ele>2061</ele>
        <time>2026-08-04T09:55:49.646Z</time>
      </trkpt>
      <trkpt lat="45.94777" lon="6.85557">
        <ele>2061</ele>
        <time>2026-08-04T09:55:50.646Z</time>
      </trkpt>
      <trkpt lat="45.94777" lon="6.85559">
        <ele>2060</ele>
        <time>2026-08-04T09:55:51.646Z</time>
      </trkpt>
      <trkpt lat="45.94776" lon="6.85562">
        <ele>2060</ele>
        <time>2026-08-04T09:55:52.646Z</time>
      </trkpt>
      <trkpt lat="45.94775" lon="6.85564">
        <ele>2060</ele>
        <time>2026-08-04T09:55:53.646Z</time>
      </trkpt>
      <trkpt lat="45.94774" lon="6.85566">
        <ele>2059</ele>
        <time>2026-08-04T09:55:54.646Z</time>
      </trkpt>
      <trkpt lat="45.94773" lon="6.85568">
        <ele>2059</ele>
        <time>2026-08-04T09:55:55.646Z</time>
      </trkpt>
      <trkpt lat="45.94772" lon="6.8557">
        <ele>2059</ele>
        <time>2026-08-04T09:55:56.646Z</time>
      </trkpt>
      <trkpt lat="45.94771" lon="6.85571">
        <ele>2058</ele>
        <time>2026-08-04T09:55:57.646Z</time>
      </trkpt>
      <trkpt lat="45.94769" lon="6.85573">
        <ele>2057</ele>
        <time>2026-08-04T09:55:58.646Z</time>
      </trkpt>
      <trkpt lat="45.94768" lon="6.85574">
        <ele>2057</ele>
        <time>2026-08-04T09:55:59.646Z</time>
      </trkpt>
      <trkpt lat="45.94767" lon="6.85575">
        <ele>2056</ele>
        <time>2026-08-04T09:56:00.646Z</time>
      </trkpt>
      <trkpt lat="45.94766" lon="6.85576">
        <ele>2056</ele>
        <time>2026-08-04T09:56:01.646Z</time>
      </trkpt>
      <trkpt lat="45.94764" lon="6.85578">
        <ele>2055</ele>
        <time>2026-08-04T09:56:02.646Z</time>
      </trkpt>
      <trkpt lat="45.94763" lon="6.85579">
        <ele>2054</ele>
        <time>2026-08-04T09:56:03.646Z</time>
      </trkpt>
      <trkpt lat="45.94762" lon="6.8558">
        <ele>2054</ele>
        <time>2026-08-04T09:56:04.646Z</time>
      </trkpt>
      <trkpt lat="45.94761" lon="6.85581">
        <ele>2053</ele>
        <time>2026-08-04T09:56:05.646Z</time>
      </trkpt>
      <trkpt lat="45.9476" lon="6.85583">
        <ele>2053</ele>
        <time>2026-08-04T09:56:06.646Z</time>
      </trkpt>
      <trkpt lat="45.9476" lon="6.85585">
        <ele>2053</ele>
        <time>2026-08-04T09:56:07.646Z</time>
      </trkpt>
      <trkpt lat="45.94759" lon="6.85587">
        <ele>2052</ele>
        <time>2026-08-04T09:56:08.646Z</time>
      </trkpt>
      <trkpt lat="45.94758" lon="6.85589">
        <ele>2052</ele>
        <time>2026-08-04T09:56:09.646Z</time>
      </trkpt>
      <trkpt lat="45.94757" lon="6.85591">
        <ele>2051</ele>
        <time>2026-08-04T09:56:10.646Z</time>
      </trkpt>
      <trkpt lat="45.94757" lon="6.85594">
        <ele>2051</ele>
        <time>2026-08-04T09:56:11.646Z</time>
      </trkpt>
      <trkpt lat="45.94756" lon="6.85596">
        <ele>2050</ele>
        <time>2026-08-04T09:56:12.646Z</time>
      </trkpt>
      <trkpt lat="45.94755" lon="6.85598">
        <ele>2050</ele>
        <time>2026-08-04T09:56:13.646Z</time>
      </trkpt>
      <trkpt lat="45.94754" lon="6.85601">
        <ele>2050</ele>
        <time>2026-08-04T09:56:14.646Z</time>
      </trkpt>
      <trkpt lat="45.94754" lon="6.85604">
        <ele>2049</ele>
        <time>2026-08-04T09:56:15.646Z</time>
      </trkpt>
      <trkpt lat="45.94753" lon="6.85606">
        <ele>2049</ele>
        <time>2026-08-04T09:56:16.646Z</time>
      </trkpt>
      <trkpt lat="45.94751" lon="6.85608">
        <ele>2049</ele>
        <time>2026-08-04T09:56:17.646Z</time>
      </trkpt>
      <trkpt lat="45.9475" lon="6.85609">
        <ele>2049</ele>
        <time>2026-08-04T09:56:18.646Z</time>
      </trkpt>
      <trkpt lat="45.94747" lon="6.8561">
        <ele>2048</ele>
        <time>2026-08-04T09:56:19.646Z</time>
      </trkpt>
      <trkpt lat="45.94745" lon="6.85609">
        <ele>2048</ele>
        <time>2026-08-04T09:56:20.646Z</time>
      </trkpt>
      <trkpt lat="45.94743" lon="6.85608">
        <ele>2047</ele>
        <time>2026-08-04T09:56:21.646Z</time>
      </trkpt>
      <trkpt lat="45.94741" lon="6.85606">
        <ele>2047</ele>
        <time>2026-08-04T09:56:22.646Z</time>
      </trkpt>
      <trkpt lat="45.9474" lon="6.85604">
        <ele>2046</ele>
        <time>2026-08-04T09:56:23.646Z</time>
      </trkpt>
      <trkpt lat="45.94739" lon="6.85602">
        <ele>2046</ele>
        <time>2026-08-04T09:56:24.646Z</time>
      </trkpt>
      <trkpt lat="45.94738" lon="6.85599">
        <ele>2045</ele>
        <time>2026-08-04T09:56:25.646Z</time>
      </trkpt>
      <trkpt lat="45.94737" lon="6.85597">
        <ele>2044</ele>
        <time>2026-08-04T09:56:26.646Z</time>
      </trkpt>
      <trkpt lat="45.94736" lon="6.85594">
        <ele>2044</ele>
        <time>2026-08-04T09:56:27.646Z</time>
      </trkpt>
      <trkpt lat="45.94734" lon="6.85592">
        <ele>2043</ele>
        <time>2026-08-04T09:56:28.646Z</time>
      </trkpt>
      <trkpt lat="45.94733" lon="6.8559">
        <ele>2042</ele>
        <time>2026-08-04T09:56:29.646Z</time>
      </trkpt>
      <trkpt lat="45.94732" lon="6.85588">
        <ele>2042</ele>
        <time>2026-08-04T09:56:30.646Z</time>
      </trkpt>
      <trkpt lat="45.9473" lon="6.85586">
        <ele>2041</ele>
        <time>2026-08-04T09:56:31.646Z</time>
      </trkpt>
      <trkpt lat="45.94729" lon="6.85584">
        <ele>2040</ele>
        <time>2026-08-04T09:56:32.646Z</time>
      </trkpt>
      <trkpt lat="45.94728" lon="6.85582">
        <ele>2040</ele>
        <time>2026-08-04T09:56:33.646Z</time>
      </trkpt>
      <trkpt lat="45.94727" lon="6.8558">
        <ele>2040</ele>
        <time>2026-08-04T09:56:34.646Z</time>
      </trkpt>
      <trkpt lat="45.94726" lon="6.85579">
        <ele>2039</ele>
        <time>2026-08-04T09:56:35.646Z</time>
      </trkpt>
      <trkpt lat="45.94724" lon="6.85577">
        <ele>2039</ele>
        <time>2026-08-04T09:56:36.646Z</time>
      </trkpt>
      <trkpt lat="45.94723" lon="6.85576">
        <ele>2039</ele>
        <time>2026-08-04T09:56:37.646Z</time>
      </trkpt>
      <trkpt lat="45.94722" lon="6.85575">
        <ele>2038</ele>
        <time>2026-08-04T09:56:38.646Z</time>
      </trkpt>
      <trkpt lat="45.9472" lon="6.85573">
        <ele>2038</ele>
        <time>2026-08-04T09:56:39.646Z</time>
      </trkpt>
      <trkpt lat="45.94719" lon="6.85572">
        <ele>2038</ele>
        <time>2026-08-04T09:56:40.646Z</time>
      </trkpt>
      <trkpt lat="45.94717" lon="6.85571">
        <ele>2037</ele>
        <time>2026-08-04T09:56:41.646Z</time>
      </trkpt>
      <trkpt lat="45.94716" lon="6.8557">
        <ele>2037</ele>
        <time>2026-08-04T09:56:42.646Z</time>
      </trkpt>
      <trkpt lat="45.94715" lon="6.85569">
        <ele>2036</ele>
        <time>2026-08-04T09:56:43.646Z</time>
      </trkpt>
      <trkpt lat="45.94713" lon="6.85568">
        <ele>2036</ele>
        <time>2026-08-04T09:56:44.646Z</time>
      </trkpt>
      <trkpt lat="45.94711" lon="6.85568">
        <ele>2035</ele>
        <time>2026-08-04T09:56:45.646Z</time>
      </trkpt>
      <trkpt lat="45.94709" lon="6.85567">
        <ele>2035</ele>
        <time>2026-08-04T09:56:46.646Z</time>
      </trkpt>
      <trkpt lat="45.94707" lon="6.85567">
        <ele>2035</ele>
        <time>2026-08-04T09:56:47.646Z</time>
      </trkpt>
      <trkpt lat="45.94706" lon="6.85566">
        <ele>2034</ele>
        <time>2026-08-04T09:56:48.646Z</time>
      </trkpt>
      <trkpt lat="45.94704" lon="6.85566">
        <ele>2034</ele>
        <time>2026-08-04T09:56:49.646Z</time>
      </trkpt>
      <trkpt lat="45.94702" lon="6.85565">
        <ele>2033</ele>
        <time>2026-08-04T09:56:50.646Z</time>
      </trkpt>
      <trkpt lat="45.94701" lon="6.85564">
        <ele>2033</ele>
        <time>2026-08-04T09:56:51.646Z</time>
      </trkpt>
      <trkpt lat="45.94699" lon="6.85564">
        <ele>2033</ele>
        <time>2026-08-04T09:56:52.646Z</time>
      </trkpt>
      <trkpt lat="45.94698" lon="6.85563">
        <ele>2032</ele>
        <time>2026-08-04T09:56:53.646Z</time>
      </trkpt>
      <trkpt lat="45.94696" lon="6.85563">
        <ele>2032</ele>
        <time>2026-08-04T09:56:54.646Z</time>
      </trkpt>
      <trkpt lat="45.94694" lon="6.85562">
        <ele>2032</ele>
        <time>2026-08-04T09:56:55.646Z</time>
      </trkpt>
      <trkpt lat="45.94692" lon="6.85562">
        <ele>2031</ele>
        <time>2026-08-04T09:56:56.646Z</time>
      </trkpt>
      <trkpt lat="45.94691" lon="6.85561">
        <ele>2031</ele>
        <time>2026-08-04T09:56:57.646Z</time>
      </trkpt>
      <trkpt lat="45.94689" lon="6.85561">
        <ele>2030</ele>
        <time>2026-08-04T09:56:58.646Z</time>
      </trkpt>
      <trkpt lat="45.94687" lon="6.8556">
        <ele>2030</ele>
        <time>2026-08-04T09:56:59.646Z</time>
      </trkpt>
      <trkpt lat="45.94685" lon="6.85559">
        <ele>2029</ele>
        <time>2026-08-04T09:57:00.646Z</time>
      </trkpt>
      <trkpt lat="45.94683" lon="6.85558">
        <ele>2029</ele>
        <time>2026-08-04T09:57:01.646Z</time>
      </trkpt>
      <trkpt lat="45.94682" lon="6.85557">
        <ele>2028</ele>
        <time>2026-08-04T09:57:02.646Z</time>
      </trkpt>
      <trkpt lat="45.9468" lon="6.85556">
        <ele>2028</ele>
        <time>2026-08-04T09:57:03.646Z</time>
      </trkpt>
      <trkpt lat="45.94678" lon="6.85555">
        <ele>2027</ele>
        <time>2026-08-04T09:57:04.646Z</time>
      </trkpt>
      <trkpt lat="45.94676" lon="6.85553">
        <ele>2026</ele>
        <time>2026-08-04T09:57:05.646Z</time>
      </trkpt>
      <trkpt lat="45.94675" lon="6.85552">
        <ele>2026</ele>
        <time>2026-08-04T09:57:06.646Z</time>
      </trkpt>
      <trkpt lat="45.94674" lon="6.8555">
        <ele>2025</ele>
        <time>2026-08-04T09:57:07.646Z</time>
      </trkpt>
      <trkpt lat="45.94673" lon="6.85548">
        <ele>2025</ele>
        <time>2026-08-04T09:57:08.646Z</time>
      </trkpt>
      <trkpt lat="45.94672" lon="6.85546">
        <ele>2025</ele>
        <time>2026-08-04T09:57:09.646Z</time>
      </trkpt>
      <trkpt lat="45.94671" lon="6.85545">
        <ele>2025</ele>
        <time>2026-08-04T09:57:10.646Z</time>
      </trkpt>
      <trkpt lat="45.9467" lon="6.85543">
        <ele>2025</ele>
        <time>2026-08-04T09:57:11.646Z</time>
      </trkpt>
      <trkpt lat="45.94669" lon="6.85542">
        <ele>2024</ele>
        <time>2026-08-04T09:57:12.646Z</time>
      </trkpt>
      <trkpt lat="45.94668" lon="6.8554">
        <ele>2024</ele>
        <time>2026-08-04T09:57:13.646Z</time>
      </trkpt>
      <trkpt lat="45.94667" lon="6.85538">
        <ele>2024</ele>
        <time>2026-08-04T09:57:14.646Z</time>
      </trkpt>
      <trkpt lat="45.94666" lon="6.85536">
        <ele>2024</ele>
        <time>2026-08-04T09:57:15.646Z</time>
      </trkpt>
      <trkpt lat="45.94665" lon="6.85533">
        <ele>2023</ele>
        <time>2026-08-04T09:57:16.646Z</time>
      </trkpt>
      <trkpt lat="45.94665" lon="6.85531">
        <ele>2023</ele>
        <time>2026-08-04T09:57:17.646Z</time>
      </trkpt>
      <trkpt lat="45.94664" lon="6.85528">
        <ele>2023</ele>
        <time>2026-08-04T09:57:18.646Z</time>
      </trkpt>
      <trkpt lat="45.94664" lon="6.85526">
        <ele>2022</ele>
        <time>2026-08-04T09:57:19.646Z</time>
      </trkpt>
      <trkpt lat="45.94663" lon="6.85523">
        <ele>2022</ele>
        <time>2026-08-04T09:57:20.646Z</time>
      </trkpt>
      <trkpt lat="45.94663" lon="6.85521">
        <ele>2021</ele>
        <time>2026-08-04T09:57:21.646Z</time>
      </trkpt>
      <trkpt lat="45.94662" lon="6.85519">
        <ele>2021</ele>
        <time>2026-08-04T09:57:22.646Z</time>
      </trkpt>
      <trkpt lat="45.94662" lon="6.85517">
        <ele>2020</ele>
        <time>2026-08-04T09:57:23.646Z</time>
      </trkpt>
      <trkpt lat="45.94661" lon="6.85514">
        <ele>2020</ele>
        <time>2026-08-04T09:57:24.646Z</time>
      </trkpt>
      <trkpt lat="45.94661" lon="6.85511">
        <ele>2019</ele>
        <time>2026-08-04T09:57:25.646Z</time>
      </trkpt>
      <trkpt lat="45.94661" lon="6.85509">
        <ele>2019</ele>
        <time>2026-08-04T09:57:26.646Z</time>
      </trkpt>
      <trkpt lat="45.94661" lon="6.85506">
        <ele>2018</ele>
        <time>2026-08-04T09:57:27.646Z</time>
      </trkpt>
      <trkpt lat="45.9466" lon="6.85504">
        <ele>2018</ele>
        <time>2026-08-04T09:57:28.646Z</time>
      </trkpt>
      <trkpt lat="45.9466" lon="6.85501">
        <ele>2017</ele>
        <time>2026-08-04T09:57:29.646Z</time>
      </trkpt>
      <trkpt lat="45.94659" lon="6.85499">
        <ele>2017</ele>
        <time>2026-08-04T09:57:30.646Z</time>
      </trkpt>
      <trkpt lat="45.94658" lon="6.85497">
        <ele>2016</ele>
        <time>2026-08-04T09:57:31.646Z</time>
      </trkpt>
      <trkpt lat="45.94657" lon="6.85496">
        <ele>2016</ele>
        <time>2026-08-04T09:57:32.646Z</time>
      </trkpt>
      <trkpt lat="45.94656" lon="6.85493">
        <ele>2016</ele>
        <time>2026-08-04T09:57:33.646Z</time>
      </trkpt>
      <trkpt lat="45.94655" lon="6.85491">
        <ele>2015</ele>
        <time>2026-08-04T09:57:34.646Z</time>
      </trkpt>
      <trkpt lat="45.94654" lon="6.8549">
        <ele>2015</ele>
        <time>2026-08-04T09:57:35.646Z</time>
      </trkpt>
      <trkpt lat="45.94653" lon="6.85487">
        <ele>2014</ele>
        <time>2026-08-04T09:57:36.646Z</time>
      </trkpt>
      <trkpt lat="45.94652" lon="6.85485">
        <ele>2014</ele>
        <time>2026-08-04T09:57:37.646Z</time>
      </trkpt>
      <trkpt lat="45.94651" lon="6.85483">
        <ele>2013</ele>
        <time>2026-08-04T09:57:38.646Z</time>
      </trkpt>
      <trkpt lat="45.94649" lon="6.85482">
        <ele>2013</ele>
        <time>2026-08-04T09:57:39.646Z</time>
      </trkpt>
      <trkpt lat="45.94649" lon="6.8548">
        <ele>2013</ele>
        <time>2026-08-04T09:57:40.646Z</time>
      </trkpt>
      <trkpt lat="45.94648" lon="6.85478">
        <ele>2012</ele>
        <time>2026-08-04T09:57:41.646Z</time>
      </trkpt>
      <trkpt lat="45.94646" lon="6.85476">
        <ele>2012</ele>
        <time>2026-08-04T09:57:42.646Z</time>
      </trkpt>
      <trkpt lat="45.94646" lon="6.85475">
        <ele>2011</ele>
        <time>2026-08-04T09:57:43.646Z</time>
      </trkpt>
      <trkpt lat="45.94645" lon="6.85474">
        <ele>2011</ele>
        <time>2026-08-04T09:57:44.646Z</time>
      </trkpt>
      <trkpt lat="45.94644" lon="6.85472">
        <ele>2010</ele>
        <time>2026-08-04T09:57:45.646Z</time>
      </trkpt>
      <trkpt lat="45.94643" lon="6.8547">
        <ele>2010</ele>
        <time>2026-08-04T09:57:46.646Z</time>
      </trkpt>
      <trkpt lat="45.94642" lon="6.85468">
        <ele>2010</ele>
        <time>2026-08-04T09:57:47.646Z</time>
      </trkpt>
      <trkpt lat="45.94641" lon="6.85467">
        <ele>2009</ele>
        <time>2026-08-04T09:57:48.646Z</time>
      </trkpt>
      <trkpt lat="45.9464" lon="6.85465">
        <ele>2009</ele>
        <time>2026-08-04T09:57:49.646Z</time>
      </trkpt>
      <trkpt lat="45.94639" lon="6.85463">
        <ele>2009</ele>
        <time>2026-08-04T09:57:50.646Z</time>
      </trkpt>
      <trkpt lat="45.94638" lon="6.85462">
        <ele>2008</ele>
        <time>2026-08-04T09:57:51.646Z</time>
      </trkpt>
      <trkpt lat="45.94636" lon="6.8546">
        <ele>2008</ele>
        <time>2026-08-04T09:57:52.646Z</time>
      </trkpt>
      <trkpt lat="45.94635" lon="6.85459">
        <ele>2007</ele>
        <time>2026-08-04T09:57:53.646Z</time>
      </trkpt>
      <trkpt lat="45.94634" lon="6.85457">
        <ele>2007</ele>
        <time>2026-08-04T09:57:54.646Z</time>
      </trkpt>
      <trkpt lat="45.94633" lon="6.85455">
        <ele>2006</ele>
        <time>2026-08-04T09:57:55.646Z</time>
      </trkpt>
      <trkpt lat="45.94632" lon="6.85454">
        <ele>2006</ele>
        <time>2026-08-04T09:57:56.646Z</time>
      </trkpt>
      <trkpt lat="45.9463" lon="6.85452">
        <ele>2005</ele>
        <time>2026-08-04T09:57:57.646Z</time>
      </trkpt>
      <trkpt lat="45.94629" lon="6.85451">
        <ele>2005</ele>
        <time>2026-08-04T09:57:58.646Z</time>
      </trkpt>
      <trkpt lat="45.94628" lon="6.8545">
        <ele>2004</ele>
        <time>2026-08-04T09:57:59.646Z</time>
      </trkpt>
      <trkpt lat="45.94627" lon="6.85448">
        <ele>2004</ele>
        <time>2026-08-04T09:58:00.646Z</time>
      </trkpt>
      <trkpt lat="45.94625" lon="6.85446">
        <ele>2004</ele>
        <time>2026-08-04T09:58:01.646Z</time>
      </trkpt>
      <trkpt lat="45.94624" lon="6.85445">
        <ele>2003</ele>
        <time>2026-08-04T09:58:02.646Z</time>
      </trkpt>
      <trkpt lat="45.94623" lon="6.85443">
        <ele>2003</ele>
        <time>2026-08-04T09:58:03.646Z</time>
      </trkpt>
      <trkpt lat="45.94622" lon="6.85441">
        <ele>2003</ele>
        <time>2026-08-04T09:58:04.646Z</time>
      </trkpt>
      <trkpt lat="45.94621" lon="6.85439">
        <ele>2002</ele>
        <time>2026-08-04T09:58:05.646Z</time>
      </trkpt>
      <trkpt lat="45.94619" lon="6.85438">
        <ele>2002</ele>
        <time>2026-08-04T09:58:06.646Z</time>
      </trkpt>
      <trkpt lat="45.94618" lon="6.85437">
        <ele>2001</ele>
        <time>2026-08-04T09:58:07.646Z</time>
      </trkpt>
      <trkpt lat="45.94617" lon="6.85435">
        <ele>2001</ele>
        <time>2026-08-04T09:58:08.646Z</time>
      </trkpt>
      <trkpt lat="45.94616" lon="6.85434">
        <ele>2000</ele>
        <time>2026-08-04T09:58:09.646Z</time>
      </trkpt>
      <trkpt lat="45.94614" lon="6.85432">
        <ele>2000</ele>
        <time>2026-08-04T09:58:10.646Z</time>
      </trkpt>
      <trkpt lat="45.94613" lon="6.85431">
        <ele>2000</ele>
        <time>2026-08-04T09:58:11.646Z</time>
      </trkpt>
      <trkpt lat="45.94612" lon="6.8543">
        <ele>1999</ele>
        <time>2026-08-04T09:58:12.646Z</time>
      </trkpt>
      <trkpt lat="45.94611" lon="6.8543">
        <ele>1999</ele>
        <time>2026-08-04T09:58:13.646Z</time>
      </trkpt>
      <trkpt lat="45.94609" lon="6.85429">
        <ele>1998</ele>
        <time>2026-08-04T09:58:14.646Z</time>
      </trkpt>
      <trkpt lat="45.94609" lon="6.85429">
        <ele>1997</ele>
        <time>2026-08-04T09:58:15.646Z</time>
      </trkpt>
      <trkpt lat="45.94608" lon="6.85429">
        <ele>1996</ele>
        <time>2026-08-04T09:58:16.646Z</time>
      </trkpt>
      <trkpt lat="45.94608" lon="6.85429">
        <ele>1996</ele>
        <time>2026-08-04T09:58:17.646Z</time>
      </trkpt>
      <trkpt lat="45.94608" lon="6.85429">
        <ele>1995</ele>
        <time>2026-08-04T09:58:18.646Z</time>
      </trkpt>
      <trkpt lat="45.94608" lon="6.85429">
        <ele>1995</ele>
        <time>2026-08-04T09:58:19.646Z</time>
      </trkpt>
      <trkpt lat="45.94608" lon="6.85429">
        <ele>1995</ele>
        <time>2026-08-04T09:58:20.646Z</time>
      </trkpt>
      <trkpt lat="45.94607" lon="6.85428">
        <ele>1994</ele>
        <time>2026-08-04T09:58:21.646Z</time>
      </trkpt>
      <trkpt lat="45.94606" lon="6.85427">
        <ele>1994</ele>
        <time>2026-08-04T09:58:22.646Z</time>
      </trkpt>
      <trkpt lat="45.94605" lon="6.85425">
        <ele>1994</ele>
        <time>2026-08-04T09:58:23.646Z</time>
      </trkpt>
      <trkpt lat="45.94604" lon="6.85424">
        <ele>1994</ele>
        <time>2026-08-04T09:58:24.646Z</time>
      </trkpt>
      <trkpt lat="45.94602" lon="6.85422">
        <ele>1993</ele>
        <time>2026-08-04T09:58:25.646Z</time>
      </trkpt>
      <trkpt lat="45.94601" lon="6.85421">
        <ele>1993</ele>
        <time>2026-08-04T09:58:26.646Z</time>
      </trkpt>
      <trkpt lat="45.946" lon="6.8542">
        <ele>1992</ele>
        <time>2026-08-04T09:58:27.646Z</time>
      </trkpt>
      <trkpt lat="45.94599" lon="6.85418">
        <ele>1992</ele>
        <time>2026-08-04T09:58:28.646Z</time>
      </trkpt>
      <trkpt lat="45.94598" lon="6.85418">
        <ele>1991</ele>
        <time>2026-08-04T09:58:29.646Z</time>
      </trkpt>
      <trkpt lat="45.94596" lon="6.85417">
        <ele>1991</ele>
        <time>2026-08-04T09:58:30.646Z</time>
      </trkpt>
      <trkpt lat="45.94595" lon="6.85416">
        <ele>1991</ele>
        <time>2026-08-04T09:58:31.646Z</time>
      </trkpt>
      <trkpt lat="45.94594" lon="6.85415">
        <ele>1991</ele>
        <time>2026-08-04T09:58:32.646Z</time>
      </trkpt>
      <trkpt lat="45.94592" lon="6.85415">
        <ele>1990</ele>
        <time>2026-08-04T09:58:33.646Z</time>
      </trkpt>
      <trkpt lat="45.94591" lon="6.85414">
        <ele>1990</ele>
        <time>2026-08-04T09:58:34.646Z</time>
      </trkpt>
      <trkpt lat="45.9459" lon="6.85413">
        <ele>1990</ele>
        <time>2026-08-04T09:58:35.646Z</time>
      </trkpt>
      <trkpt lat="45.94589" lon="6.85412">
        <ele>1989</ele>
        <time>2026-08-04T09:58:36.646Z</time>
      </trkpt>
      <trkpt lat="45.94587" lon="6.85412">
        <ele>1989</ele>
        <time>2026-08-04T09:58:37.646Z</time>
      </trkpt>
      <trkpt lat="45.94586" lon="6.85411">
        <ele>1989</ele>
        <time>2026-08-04T09:58:38.646Z</time>
      </trkpt>
      <trkpt lat="45.94584" lon="6.8541">
        <ele>1988</ele>
        <time>2026-08-04T09:58:39.646Z</time>
      </trkpt>
      <trkpt lat="45.94582" lon="6.85409">
        <ele>1988</ele>
        <time>2026-08-04T09:58:40.646Z</time>
      </trkpt>
      <trkpt lat="45.94581" lon="6.85409">
        <ele>1987</ele>
        <time>2026-08-04T09:58:41.646Z</time>
      </trkpt>
      <trkpt lat="45.94579" lon="6.85408">
        <ele>1987</ele>
        <time>2026-08-04T09:58:42.646Z</time>
      </trkpt>
      <trkpt lat="45.94577" lon="6.85408">
        <ele>1986</ele>
        <time>2026-08-04T09:58:43.646Z</time>
      </trkpt>
      <trkpt lat="45.94575" lon="6.85407">
        <ele>1986</ele>
        <time>2026-08-04T09:58:44.646Z</time>
      </trkpt>
      <trkpt lat="45.94573" lon="6.85406">
        <ele>1986</ele>
        <time>2026-08-04T09:58:45.646Z</time>
      </trkpt>
      <trkpt lat="45.94572" lon="6.85405">
        <ele>1985</ele>
        <time>2026-08-04T09:58:46.646Z</time>
      </trkpt>
      <trkpt lat="45.9457" lon="6.85404">
        <ele>1985</ele>
        <time>2026-08-04T09:58:47.646Z</time>
      </trkpt>
      <trkpt lat="45.94568" lon="6.85403">
        <ele>1985</ele>
        <time>2026-08-04T09:58:48.646Z</time>
      </trkpt>
      <trkpt lat="45.94566" lon="6.85402">
        <ele>1984</ele>
        <time>2026-08-04T09:58:49.646Z</time>
      </trkpt>
      <trkpt lat="45.94565" lon="6.85401">
        <ele>1984</ele>
        <time>2026-08-04T09:58:50.646Z</time>
      </trkpt>
      <trkpt lat="45.94563" lon="6.854">
        <ele>1983</ele>
        <time>2026-08-04T09:58:51.646Z</time>
      </trkpt>
      <trkpt lat="45.94562" lon="6.85399">
        <ele>1983</ele>
        <time>2026-08-04T09:58:52.646Z</time>
      </trkpt>
      <trkpt lat="45.94561" lon="6.85398">
        <ele>1983</ele>
        <time>2026-08-04T09:58:53.646Z</time>
      </trkpt>
      <trkpt lat="45.9456" lon="6.85398">
        <ele>1982</ele>
        <time>2026-08-04T09:58:54.646Z</time>
      </trkpt>
      <trkpt lat="45.94558" lon="6.85397">
        <ele>1982</ele>
        <time>2026-08-04T09:58:55.646Z</time>
      </trkpt>
      <trkpt lat="45.94557" lon="6.85396">
        <ele>1981</ele>
        <time>2026-08-04T09:58:56.646Z</time>
      </trkpt>
      <trkpt lat="45.94555" lon="6.85395">
        <ele>1981</ele>
        <time>2026-08-04T09:58:57.646Z</time>
      </trkpt>
      <trkpt lat="45.94554" lon="6.85394">
        <ele>1981</ele>
        <time>2026-08-04T09:58:58.646Z</time>
      </trkpt>
      <trkpt lat="45.94552" lon="6.85393">
        <ele>1980</ele>
        <time>2026-08-04T09:58:59.646Z</time>
      </trkpt>
      <trkpt lat="45.94551" lon="6.85392">
        <ele>1980</ele>
        <time>2026-08-04T09:59:00.646Z</time>
      </trkpt>
      <trkpt lat="45.94549" lon="6.85391">
        <ele>1979</ele>
        <time>2026-08-04T09:59:01.646Z</time>
      </trkpt>
      <trkpt lat="45.94547" lon="6.85389">
        <ele>1979</ele>
        <time>2026-08-04T09:59:02.646Z</time>
      </trkpt>
      <trkpt lat="45.94546" lon="6.85387">
        <ele>1978</ele>
        <time>2026-08-04T09:59:03.646Z</time>
      </trkpt>
      <trkpt lat="45.94544" lon="6.85385">
        <ele>1978</ele>
        <time>2026-08-04T09:59:04.646Z</time>
      </trkpt>
      <trkpt lat="45.94542" lon="6.85384">
        <ele>1977</ele>
        <time>2026-08-04T09:59:05.646Z</time>
      </trkpt>
      <trkpt lat="45.94541" lon="6.85383">
        <ele>1977</ele>
        <time>2026-08-04T09:59:06.646Z</time>
      </trkpt>
      <trkpt lat="45.94539" lon="6.85381">
        <ele>1976</ele>
        <time>2026-08-04T09:59:07.646Z</time>
      </trkpt>
      <trkpt lat="45.94537" lon="6.85379">
        <ele>1976</ele>
        <time>2026-08-04T09:59:08.646Z</time>
      </trkpt>
      <trkpt lat="45.94536" lon="6.85378">
        <ele>1975</ele>
        <time>2026-08-04T09:59:09.646Z</time>
      </trkpt>
      <trkpt lat="45.94535" lon="6.85376">
        <ele>1975</ele>
        <time>2026-08-04T09:59:10.646Z</time>
      </trkpt>
      <trkpt lat="45.94533" lon="6.85374">
        <ele>1974</ele>
        <time>2026-08-04T09:59:11.646Z</time>
      </trkpt>
      <trkpt lat="45.94532" lon="6.85373">
        <ele>1974</ele>
        <time>2026-08-04T09:59:12.646Z</time>
      </trkpt>
      <trkpt lat="45.94531" lon="6.85371">
        <ele>1974</ele>
        <time>2026-08-04T09:59:13.646Z</time>
      </trkpt>
      <trkpt lat="45.94529" lon="6.85369">
        <ele>1973</ele>
        <time>2026-08-04T09:59:14.646Z</time>
      </trkpt>
      <trkpt lat="45.94528" lon="6.85367">
        <ele>1973</ele>
        <time>2026-08-04T09:59:15.646Z</time>
      </trkpt>
      <trkpt lat="45.94527" lon="6.85366">
        <ele>1973</ele>
        <time>2026-08-04T09:59:16.646Z</time>
      </trkpt>
      <trkpt lat="45.94526" lon="6.85364">
        <ele>1972</ele>
        <time>2026-08-04T09:59:17.646Z</time>
      </trkpt>
      <trkpt lat="45.94525" lon="6.85362">
        <ele>1972</ele>
        <time>2026-08-04T09:59:18.646Z</time>
      </trkpt>
      <trkpt lat="45.94523" lon="6.85361">
        <ele>1971</ele>
        <time>2026-08-04T09:59:19.646Z</time>
      </trkpt>
      <trkpt lat="45.94523" lon="6.8536">
        <ele>1971</ele>
        <time>2026-08-04T09:59:20.646Z</time>
      </trkpt>
      <trkpt lat="45.94521" lon="6.85358">
        <ele>1970</ele>
        <time>2026-08-04T09:59:21.646Z</time>
      </trkpt>
      <trkpt lat="45.9452" lon="6.85357">
        <ele>1970</ele>
        <time>2026-08-04T09:59:22.646Z</time>
      </trkpt>
      <trkpt lat="45.94519" lon="6.85355">
        <ele>1969</ele>
        <time>2026-08-04T09:59:23.646Z</time>
      </trkpt>
      <trkpt lat="45.94517" lon="6.85354">
        <ele>1969</ele>
        <time>2026-08-04T09:59:24.646Z</time>
      </trkpt>
      <trkpt lat="45.94516" lon="6.85353">
        <ele>1968</ele>
        <time>2026-08-04T09:59:25.646Z</time>
      </trkpt>
      <trkpt lat="45.94515" lon="6.85351">
        <ele>1968</ele>
        <time>2026-08-04T09:59:26.646Z</time>
      </trkpt>
      <trkpt lat="45.94514" lon="6.8535">
        <ele>1967</ele>
        <time>2026-08-04T09:59:27.646Z</time>
      </trkpt>
      <trkpt lat="45.94512" lon="6.85348">
        <ele>1967</ele>
        <time>2026-08-04T09:59:28.646Z</time>
      </trkpt>
      <trkpt lat="45.94511" lon="6.85346">
        <ele>1966</ele>
        <time>2026-08-04T09:59:29.646Z</time>
      </trkpt>
      <trkpt lat="45.9451" lon="6.85344">
        <ele>1966</ele>
        <time>2026-08-04T09:59:30.646Z</time>
      </trkpt>
      <trkpt lat="45.94508" lon="6.85342">
        <ele>1966</ele>
        <time>2026-08-04T09:59:31.646Z</time>
      </trkpt>
      <trkpt lat="45.94507" lon="6.8534">
        <ele>1965</ele>
        <time>2026-08-04T09:59:32.646Z</time>
      </trkpt>
      <trkpt lat="45.94506" lon="6.85338">
        <ele>1965</ele>
        <time>2026-08-04T09:59:33.646Z</time>
      </trkpt>
      <trkpt lat="45.94505" lon="6.85336">
        <ele>1964</ele>
        <time>2026-08-04T09:59:34.646Z</time>
      </trkpt>
      <trkpt lat="45.94504" lon="6.85334">
        <ele>1964</ele>
        <time>2026-08-04T09:59:35.646Z</time>
      </trkpt>
      <trkpt lat="45.94503" lon="6.85331">
        <ele>1963</ele>
        <time>2026-08-04T09:59:36.646Z</time>
      </trkpt>
      <trkpt lat="45.94502" lon="6.85329">
        <ele>1963</ele>
        <time>2026-08-04T09:59:37.646Z</time>
      </trkpt>
      <trkpt lat="45.94501" lon="6.85327">
        <ele>1963</ele>
        <time>2026-08-04T09:59:38.646Z</time>
      </trkpt>
      <trkpt lat="45.945" lon="6.85324">
        <ele>1963</ele>
        <time>2026-08-04T09:59:39.646Z</time>
      </trkpt>
      <trkpt lat="45.94498" lon="6.85321">
        <ele>1962</ele>
        <time>2026-08-04T09:59:40.646Z</time>
      </trkpt>
      <trkpt lat="45.94497" lon="6.85318">
        <ele>1962</ele>
        <time>2026-08-04T09:59:41.646Z</time>
      </trkpt>
      <trkpt lat="45.94496" lon="6.85316">
        <ele>1962</ele>
        <time>2026-08-04T09:59:42.646Z</time>
      </trkpt>
      <trkpt lat="45.94496" lon="6.85314">
        <ele>1962</ele>
        <time>2026-08-04T09:59:43.646Z</time>
      </trkpt>
      <trkpt lat="45.94494" lon="6.85311">
        <ele>1961</ele>
        <time>2026-08-04T09:59:44.646Z</time>
      </trkpt>
      <trkpt lat="45.94493" lon="6.85309">
        <ele>1961</ele>
        <time>2026-08-04T09:59:45.646Z</time>
      </trkpt>
      <trkpt lat="45.94492" lon="6.85308">
        <ele>1960</ele>
        <time>2026-08-04T09:59:46.646Z</time>
      </trkpt>
      <trkpt lat="45.94491" lon="6.85307">
        <ele>1960</ele>
        <time>2026-08-04T09:59:47.646Z</time>
      </trkpt>
      <trkpt lat="45.9449" lon="6.85307">
        <ele>1960</ele>
        <time>2026-08-04T09:59:48.646Z</time>
      </trkpt>
      <trkpt lat="45.94489" lon="6.85307">
        <ele>1960</ele>
        <time>2026-08-04T09:59:49.646Z</time>
      </trkpt>
      <trkpt lat="45.94488" lon="6.85308">
        <ele>1959</ele>
        <time>2026-08-04T09:59:50.646Z</time>
      </trkpt>
      <trkpt lat="45.94488" lon="6.85309">
        <ele>1959</ele>
        <time>2026-08-04T09:59:51.646Z</time>
      </trkpt>
      <trkpt lat="45.94488" lon="6.85311">
        <ele>1959</ele>
        <time>2026-08-04T09:59:52.646Z</time>
      </trkpt>
      <trkpt lat="45.94489" lon="6.85314">
        <ele>1959</ele>
        <time>2026-08-04T09:59:53.646Z</time>
      </trkpt>
      <trkpt lat="45.94489" lon="6.85317">
        <ele>1959</ele>
        <time>2026-08-04T09:59:54.646Z</time>
      </trkpt>
      <trkpt lat="45.9449" lon="6.8532">
        <ele>1959</ele>
        <time>2026-08-04T09:59:55.646Z</time>
      </trkpt>
      <trkpt lat="45.94492" lon="6.85323">
        <ele>1959</ele>
        <time>2026-08-04T09:59:56.646Z</time>
      </trkpt>
      <trkpt lat="45.94493" lon="6.85327">
        <ele>1959</ele>
        <time>2026-08-04T09:59:57.646Z</time>
      </trkpt>
      <trkpt lat="45.94494" lon="6.8533">
        <ele>1959</ele>
        <time>2026-08-04T09:59:58.646Z</time>
      </trkpt>
      <trkpt lat="45.94496" lon="6.85332">
        <ele>1959</ele>
        <time>2026-08-04T09:59:59.646Z</time>
      </trkpt>
      <trkpt lat="45.94496" lon="6.85335">
        <ele>1959</ele>
        <time>2026-08-04T10:00:00.646Z</time>
      </trkpt>
      <trkpt lat="45.94497" lon="6.85338">
        <ele>1959</ele>
        <time>2026-08-04T10:00:01.646Z</time>
      </trkpt>
      <trkpt lat="45.94498" lon="6.85341">
        <ele>1959</ele>
        <time>2026-08-04T10:00:02.646Z</time>
      </trkpt>
      <trkpt lat="45.94498" lon="6.85343">
        <ele>1958</ele>
        <time>2026-08-04T10:00:03.646Z</time>
      </trkpt>
      <trkpt lat="45.94499" lon="6.85346">
        <ele>1959</ele>
        <time>2026-08-04T10:00:04.646Z</time>
      </trkpt>
      <trkpt lat="45.94499" lon="6.85349">
        <ele>1959</ele>
        <time>2026-08-04T10:00:05.646Z</time>
      </trkpt>
      <trkpt lat="45.945" lon="6.85352">
        <ele>1958</ele>
        <time>2026-08-04T10:00:06.646Z</time>
      </trkpt>
      <trkpt lat="45.945" lon="6.85354">
        <ele>1958</ele>
        <time>2026-08-04T10:00:07.646Z</time>
      </trkpt>
      <trkpt lat="45.945" lon="6.85357">
        <ele>1958</ele>
        <time>2026-08-04T10:00:08.646Z</time>
      </trkpt>
      <trkpt lat="45.94501" lon="6.85359">
        <ele>1958</ele>
        <time>2026-08-04T10:00:09.646Z</time>
      </trkpt>
      <trkpt lat="45.94501" lon="6.85362">
        <ele>1957</ele>
        <time>2026-08-04T10:00:10.646Z</time>
      </trkpt>
      <trkpt lat="45.94502" lon="6.85363">
        <ele>1957</ele>
        <time>2026-08-04T10:00:11.646Z</time>
      </trkpt>
      <trkpt lat="45.94502" lon="6.85366">
        <ele>1957</ele>
        <time>2026-08-04T10:00:12.646Z</time>
      </trkpt>
      <trkpt lat="45.94502" lon="6.85367">
        <ele>1957</ele>
        <time>2026-08-04T10:00:13.646Z</time>
      </trkpt>
      <trkpt lat="45.94502" lon="6.8537">
        <ele>1957</ele>
        <time>2026-08-04T10:00:14.646Z</time>
      </trkpt>
      <trkpt lat="45.94502" lon="6.85371">
        <ele>1957</ele>
        <time>2026-08-04T10:00:15.646Z</time>
      </trkpt>
      <trkpt lat="45.94503" lon="6.85373">
        <ele>1957</ele>
        <time>2026-08-04T10:00:16.646Z</time>
      </trkpt>
      <trkpt lat="45.94503" lon="6.85376">
        <ele>1958</ele>
        <time>2026-08-04T10:00:17.646Z</time>
      </trkpt>
      <trkpt lat="45.94503" lon="6.8538">
        <ele>1958</ele>
        <time>2026-08-04T10:00:18.646Z</time>
      </trkpt>
      <trkpt lat="45.94503" lon="6.85382">
        <ele>1958</ele>
        <time>2026-08-04T10:00:19.646Z</time>
      </trkpt>
      <trkpt lat="45.94504" lon="6.85385">
        <ele>1957</ele>
        <time>2026-08-04T10:00:20.646Z</time>
      </trkpt>
      <trkpt lat="45.94504" lon="6.85386">
        <ele>1957</ele>
        <time>2026-08-04T10:00:21.646Z</time>
      </trkpt>
      <trkpt lat="45.94506" lon="6.85389">
        <ele>1957</ele>
        <time>2026-08-04T10:00:22.646Z</time>
      </trkpt>
      <trkpt lat="45.94506" lon="6.85392">
        <ele>1957</ele>
        <time>2026-08-04T10:00:23.646Z</time>
      </trkpt>
      <trkpt lat="45.94507" lon="6.85394">
        <ele>1956</ele>
        <time>2026-08-04T10:00:24.646Z</time>
      </trkpt>
      <trkpt lat="45.94508" lon="6.85397">
        <ele>1956</ele>
        <time>2026-08-04T10:00:25.646Z</time>
      </trkpt>
      <trkpt lat="45.94509" lon="6.854">
        <ele>1956</ele>
        <time>2026-08-04T10:00:26.646Z</time>
      </trkpt>
      <trkpt lat="45.9451" lon="6.85402">
        <ele>1956</ele>
        <time>2026-08-04T10:00:27.646Z</time>
      </trkpt>
      <trkpt lat="45.9451" lon="6.85404">
        <ele>1956</ele>
        <time>2026-08-04T10:00:28.646Z</time>
      </trkpt>
      <trkpt lat="45.94511" lon="6.85407">
        <ele>1956</ele>
        <time>2026-08-04T10:00:29.646Z</time>
      </trkpt>
      <trkpt lat="45.94512" lon="6.8541">
        <ele>1956</ele>
        <time>2026-08-04T10:00:30.646Z</time>
      </trkpt>
      <trkpt lat="45.94512" lon="6.85413">
        <ele>1956</ele>
        <time>2026-08-04T10:00:31.646Z</time>
      </trkpt>
      <trkpt lat="45.94512" lon="6.85415">
        <ele>1956</ele>
        <time>2026-08-04T10:00:32.646Z</time>
      </trkpt>
      <trkpt lat="45.94513" lon="6.85417">
        <ele>1956</ele>
        <time>2026-08-04T10:00:33.646Z</time>
      </trkpt>
      <trkpt lat="45.94514" lon="6.8542">
        <ele>1956</ele>
        <time>2026-08-04T10:00:34.646Z</time>
      </trkpt>
      <trkpt lat="45.94515" lon="6.85422">
        <ele>1956</ele>
        <time>2026-08-04T10:00:35.646Z</time>
      </trkpt>
      <trkpt lat="45.94516" lon="6.85425">
        <ele>1956</ele>
        <time>2026-08-04T10:00:36.646Z</time>
      </trkpt>
      <trkpt lat="45.94517" lon="6.85427">
        <ele>1956</ele>
        <time>2026-08-04T10:00:37.646Z</time>
      </trkpt>
      <trkpt lat="45.94518" lon="6.8543">
        <ele>1955</ele>
        <time>2026-08-04T10:00:38.646Z</time>
      </trkpt>
      <trkpt lat="45.94519" lon="6.85433">
        <ele>1955</ele>
        <time>2026-08-04T10:00:39.646Z</time>
      </trkpt>
      <trkpt lat="45.94519" lon="6.85437">
        <ele>1955</ele>
        <time>2026-08-04T10:00:40.646Z</time>
      </trkpt>
      <trkpt lat="45.9452" lon="6.8544">
        <ele>1954</ele>
        <time>2026-08-04T10:00:41.646Z</time>
      </trkpt>
      <trkpt lat="45.94521" lon="6.85442">
        <ele>1954</ele>
        <time>2026-08-04T10:00:42.646Z</time>
      </trkpt>
      <trkpt lat="45.94522" lon="6.85445">
        <ele>1953</ele>
        <time>2026-08-04T10:00:43.646Z</time>
      </trkpt>
      <trkpt lat="45.94523" lon="6.85448">
        <ele>1953</ele>
        <time>2026-08-04T10:00:44.646Z</time>
      </trkpt>
      <trkpt lat="45.94524" lon="6.8545">
        <ele>1953</ele>
        <time>2026-08-04T10:00:45.646Z</time>
      </trkpt>
      <trkpt lat="45.94525" lon="6.85453">
        <ele>1953</ele>
        <time>2026-08-04T10:00:46.646Z</time>
      </trkpt>
      <trkpt lat="45.94526" lon="6.85455">
        <ele>1952</ele>
        <time>2026-08-04T10:00:47.646Z</time>
      </trkpt>
      <trkpt lat="45.94528" lon="6.85457">
        <ele>1952</ele>
        <time>2026-08-04T10:00:48.646Z</time>
      </trkpt>
      <trkpt lat="45.94528" lon="6.85459">
        <ele>1952</ele>
        <time>2026-08-04T10:00:49.646Z</time>
      </trkpt>
      <trkpt lat="45.94529" lon="6.85462">
        <ele>1951</ele>
        <time>2026-08-04T10:00:50.646Z</time>
      </trkpt>
      <trkpt lat="45.9453" lon="6.85465">
        <ele>1950</ele>
        <time>2026-08-04T10:00:51.646Z</time>
      </trkpt>
      <trkpt lat="45.9453" lon="6.85467">
        <ele>1950</ele>
        <time>2026-08-04T10:00:52.646Z</time>
      </trkpt>
      <trkpt lat="45.94531" lon="6.8547">
        <ele>1949</ele>
        <time>2026-08-04T10:00:53.646Z</time>
      </trkpt>
      <trkpt lat="45.94532" lon="6.85472">
        <ele>1949</ele>
        <time>2026-08-04T10:00:54.646Z</time>
      </trkpt>
      <trkpt lat="45.94533" lon="6.85474">
        <ele>1949</ele>
        <time>2026-08-04T10:00:55.646Z</time>
      </trkpt>
      <trkpt lat="45.94535" lon="6.85477">
        <ele>1948</ele>
        <time>2026-08-04T10:00:56.646Z</time>
      </trkpt>
      <trkpt lat="45.94536" lon="6.8548">
        <ele>1948</ele>
        <time>2026-08-04T10:00:57.646Z</time>
      </trkpt>
      <trkpt lat="45.94537" lon="6.85483">
        <ele>1948</ele>
        <time>2026-08-04T10:00:58.646Z</time>
      </trkpt>
      <trkpt lat="45.94538" lon="6.85485">
        <ele>1947</ele>
        <time>2026-08-04T10:00:59.646Z</time>
      </trkpt>
      <trkpt lat="45.9454" lon="6.85488">
        <ele>1947</ele>
        <time>2026-08-04T10:01:00.646Z</time>
      </trkpt>
      <trkpt lat="45.94541" lon="6.85491">
        <ele>1946</ele>
        <time>2026-08-04T10:01:01.646Z</time>
      </trkpt>
      <trkpt lat="45.94542" lon="6.85493">
        <ele>1946</ele>
        <time>2026-08-04T10:01:02.646Z</time>
      </trkpt>
      <trkpt lat="45.94543" lon="6.85495">
        <ele>1945</ele>
        <time>2026-08-04T10:01:03.646Z</time>
      </trkpt>
      <trkpt lat="45.94545" lon="6.85498">
        <ele>1945</ele>
        <time>2026-08-04T10:01:04.646Z</time>
      </trkpt>
      <trkpt lat="45.94546" lon="6.85501">
        <ele>1945</ele>
        <time>2026-08-04T10:01:05.646Z</time>
      </trkpt>
      <trkpt lat="45.94548" lon="6.85504">
        <ele>1944</ele>
        <time>2026-08-04T10:01:06.646Z</time>
      </trkpt>
      <trkpt lat="45.94549" lon="6.85506">
        <ele>1944</ele>
        <time>2026-08-04T10:01:07.646Z</time>
      </trkpt>
      <trkpt lat="45.9455" lon="6.85509">
        <ele>1943</ele>
        <time>2026-08-04T10:01:08.646Z</time>
      </trkpt>
      <trkpt lat="45.94551" lon="6.85512">
        <ele>1943</ele>
        <time>2026-08-04T10:01:09.646Z</time>
      </trkpt>
      <trkpt lat="45.94552" lon="6.85515">
        <ele>1943</ele>
        <time>2026-08-04T10:01:10.646Z</time>
      </trkpt>
      <trkpt lat="45.94553" lon="6.85517">
        <ele>1942</ele>
        <time>2026-08-04T10:01:11.646Z</time>
      </trkpt>
      <trkpt lat="45.94555" lon="6.8552">
        <ele>1942</ele>
        <time>2026-08-04T10:01:12.646Z</time>
      </trkpt>
      <trkpt lat="45.94556" lon="6.85523">
        <ele>1942</ele>
        <time>2026-08-04T10:01:13.646Z</time>
      </trkpt>
      <trkpt lat="45.94557" lon="6.85526">
        <ele>1942</ele>
        <time>2026-08-04T10:01:14.646Z</time>
      </trkpt>
      <trkpt lat="45.94558" lon="6.85529">
        <ele>1942</ele>
        <time>2026-08-04T10:01:15.646Z</time>
      </trkpt>
      <trkpt lat="45.94559" lon="6.85532">
        <ele>1942</ele>
        <time>2026-08-04T10:01:16.646Z</time>
      </trkpt>
      <trkpt lat="45.9456" lon="6.85536">
        <ele>1942</ele>
        <time>2026-08-04T10:01:17.646Z</time>
      </trkpt>
      <trkpt lat="45.94561" lon="6.85539">
        <ele>1942</ele>
        <time>2026-08-04T10:01:18.646Z</time>
      </trkpt>
      <trkpt lat="45.94562" lon="6.85541">
        <ele>1942</ele>
        <time>2026-08-04T10:01:19.646Z</time>
      </trkpt>
      <trkpt lat="45.94563" lon="6.85544">
        <ele>1942</ele>
        <time>2026-08-04T10:01:20.646Z</time>
      </trkpt>
      <trkpt lat="45.94564" lon="6.85546">
        <ele>1942</ele>
        <time>2026-08-04T10:01:21.646Z</time>
      </trkpt>
      <trkpt lat="45.94565" lon="6.85549">
        <ele>1942</ele>
        <time>2026-08-04T10:01:22.646Z</time>
      </trkpt>
      <trkpt lat="45.94566" lon="6.85552">
        <ele>1942</ele>
        <time>2026-08-04T10:01:23.646Z</time>
      </trkpt>
      <trkpt lat="45.94568" lon="6.85555">
        <ele>1942</ele>
        <time>2026-08-04T10:01:24.646Z</time>
      </trkpt>
      <trkpt lat="45.94569" lon="6.85557">
        <ele>1941</ele>
        <time>2026-08-04T10:01:25.646Z</time>
      </trkpt>
      <trkpt lat="45.9457" lon="6.85559">
        <ele>1941</ele>
        <time>2026-08-04T10:01:26.646Z</time>
      </trkpt>
      <trkpt lat="45.94571" lon="6.85562">
        <ele>1940</ele>
        <time>2026-08-04T10:01:27.646Z</time>
      </trkpt>
      <trkpt lat="45.94572" lon="6.85565">
        <ele>1940</ele>
        <time>2026-08-04T10:01:28.646Z</time>
      </trkpt>
      <trkpt lat="45.94573" lon="6.85567">
        <ele>1939</ele>
        <time>2026-08-04T10:01:29.646Z</time>
      </trkpt>
      <trkpt lat="45.94574" lon="6.85571">
        <ele>1939</ele>
        <time>2026-08-04T10:01:30.646Z</time>
      </trkpt>
      <trkpt lat="45.94575" lon="6.85573">
        <ele>1939</ele>
        <time>2026-08-04T10:01:31.646Z</time>
      </trkpt>
      <trkpt lat="45.94576" lon="6.85576">
        <ele>1939</ele>
        <time>2026-08-04T10:01:32.646Z</time>
      </trkpt>
      <trkpt lat="45.94578" lon="6.85579">
        <ele>1939</ele>
        <time>2026-08-04T10:01:33.646Z</time>
      </trkpt>
      <trkpt lat="45.94579" lon="6.85581">
        <ele>1939</ele>
        <time>2026-08-04T10:01:34.646Z</time>
      </trkpt>
      <trkpt lat="45.9458" lon="6.85584">
        <ele>1939</ele>
        <time>2026-08-04T10:01:35.646Z</time>
      </trkpt>
      <trkpt lat="45.94582" lon="6.85587">
        <ele>1938</ele>
        <time>2026-08-04T10:01:36.646Z</time>
      </trkpt>
      <trkpt lat="45.94584" lon="6.8559">
        <ele>1938</ele>
        <time>2026-08-04T10:01:37.646Z</time>
      </trkpt>
      <trkpt lat="45.94585" lon="6.85592">
        <ele>1938</ele>
        <time>2026-08-04T10:01:38.646Z</time>
      </trkpt>
      <trkpt lat="45.94587" lon="6.85595">
        <ele>1937</ele>
        <time>2026-08-04T10:01:39.646Z</time>
      </trkpt>
      <trkpt lat="45.94588" lon="6.85597">
        <ele>1937</ele>
        <time>2026-08-04T10:01:40.646Z</time>
      </trkpt>
      <trkpt lat="45.9459" lon="6.856">
        <ele>1937</ele>
        <time>2026-08-04T10:01:41.646Z</time>
      </trkpt>
      <trkpt lat="45.94591" lon="6.85602">
        <ele>1937</ele>
        <time>2026-08-04T10:01:42.646Z</time>
      </trkpt>
      <trkpt lat="45.94592" lon="6.85604">
        <ele>1936</ele>
        <time>2026-08-04T10:01:43.646Z</time>
      </trkpt>
      <trkpt lat="45.94593" lon="6.85606">
        <ele>1936</ele>
        <time>2026-08-04T10:01:44.646Z</time>
      </trkpt>
      <trkpt lat="45.94594" lon="6.85608">
        <ele>1935</ele>
        <time>2026-08-04T10:01:45.646Z</time>
      </trkpt>
      <trkpt lat="45.94595" lon="6.85609">
        <ele>1935</ele>
        <time>2026-08-04T10:01:46.646Z</time>
      </trkpt>
      <trkpt lat="45.94595" lon="6.8561">
        <ele>1934</ele>
        <time>2026-08-04T10:01:47.646Z</time>
      </trkpt>
      <trkpt lat="45.94596" lon="6.85612">
        <ele>1933</ele>
        <time>2026-08-04T10:01:48.646Z</time>
      </trkpt>
      <trkpt lat="45.94596" lon="6.85613">
        <ele>1933</ele>
        <time>2026-08-04T10:01:49.646Z</time>
      </trkpt>
      <trkpt lat="45.94597" lon="6.85614">
        <ele>1933</ele>
        <time>2026-08-04T10:01:50.646Z</time>
      </trkpt>
      <trkpt lat="45.94597" lon="6.85616">
        <ele>1932</ele>
        <time>2026-08-04T10:01:51.646Z</time>
      </trkpt>
      <trkpt lat="45.94597" lon="6.85617">
        <ele>1932</ele>
        <time>2026-08-04T10:01:52.646Z</time>
      </trkpt>
      <trkpt lat="45.94598" lon="6.85619">
        <ele>1931</ele>
        <time>2026-08-04T10:01:53.646Z</time>
      </trkpt>
      <trkpt lat="45.94598" lon="6.8562">
        <ele>1931</ele>
        <time>2026-08-04T10:01:54.646Z</time>
      </trkpt>
      <trkpt lat="45.94599" lon="6.85623">
        <ele>1931</ele>
        <time>2026-08-04T10:01:55.646Z</time>
      </trkpt>
      <trkpt lat="45.94599" lon="6.85624">
        <ele>1931</ele>
        <time>2026-08-04T10:01:56.646Z</time>
      </trkpt>
      <trkpt lat="45.946" lon="6.85627">
        <ele>1931</ele>
        <time>2026-08-04T10:01:57.646Z</time>
      </trkpt>
      <trkpt lat="45.946" lon="6.85629">
        <ele>1931</ele>
        <time>2026-08-04T10:01:58.646Z</time>
      </trkpt>
      <trkpt lat="45.94601" lon="6.85631">
        <ele>1931</ele>
        <time>2026-08-04T10:01:59.646Z</time>
      </trkpt>
      <trkpt lat="45.94602" lon="6.85633">
        <ele>1931</ele>
        <time>2026-08-04T10:02:00.646Z</time>
      </trkpt>
      <trkpt lat="45.94602" lon="6.85636">
        <ele>1931</ele>
        <time>2026-08-04T10:02:01.646Z</time>
      </trkpt>
      <trkpt lat="45.94603" lon="6.85639">
        <ele>1931</ele>
        <time>2026-08-04T10:02:02.646Z</time>
      </trkpt>
      <trkpt lat="45.94603" lon="6.85642">
        <ele>1931</ele>
        <time>2026-08-04T10:02:03.646Z</time>
      </trkpt>
      <trkpt lat="45.94604" lon="6.85645">
        <ele>1930</ele>
        <time>2026-08-04T10:02:04.646Z</time>
      </trkpt>
      <trkpt lat="45.94605" lon="6.85649">
        <ele>1930</ele>
        <time>2026-08-04T10:02:05.646Z</time>
      </trkpt>
      <trkpt lat="45.94606" lon="6.85653">
        <ele>1929</ele>
        <time>2026-08-04T10:02:06.646Z</time>
      </trkpt>
      <trkpt lat="45.94607" lon="6.85656">
        <ele>1929</ele>
        <time>2026-08-04T10:02:07.646Z</time>
      </trkpt>
      <trkpt lat="45.94608" lon="6.85659">
        <ele>1929</ele>
        <time>2026-08-04T10:02:08.646Z</time>
      </trkpt>
      <trkpt lat="45.94609" lon="6.85662">
        <ele>1929</ele>
        <time>2026-08-04T10:02:09.646Z</time>
      </trkpt>
      <trkpt lat="45.9461" lon="6.85664">
        <ele>1928</ele>
        <time>2026-08-04T10:02:10.646Z</time>
      </trkpt>
      <trkpt lat="45.94611" lon="6.85667">
        <ele>1928</ele>
        <time>2026-08-04T10:02:11.646Z</time>
      </trkpt>
      <trkpt lat="45.94611" lon="6.85669">
        <ele>1928</ele>
        <time>2026-08-04T10:02:12.646Z</time>
      </trkpt>
      <trkpt lat="45.94611" lon="6.85671">
        <ele>1929</ele>
        <time>2026-08-04T10:02:13.646Z</time>
      </trkpt>
      <trkpt lat="45.94612" lon="6.85672">
        <ele>1929</ele>
        <time>2026-08-04T10:02:14.646Z</time>
      </trkpt>
      <trkpt lat="45.94612" lon="6.85674">
        <ele>1929</ele>
        <time>2026-08-04T10:02:15.646Z</time>
      </trkpt>
      <trkpt lat="45.94612" lon="6.85676">
        <ele>1929</ele>
        <time>2026-08-04T10:02:16.646Z</time>
      </trkpt>
      <trkpt lat="45.94613" lon="6.85678">
        <ele>1929</ele>
        <time>2026-08-04T10:02:17.646Z</time>
      </trkpt>
      <trkpt lat="45.94613" lon="6.85679">
        <ele>1928</ele>
        <time>2026-08-04T10:02:18.646Z</time>
      </trkpt>
      <trkpt lat="45.94614" lon="6.85681">
        <ele>1928</ele>
        <time>2026-08-04T10:02:19.646Z</time>
      </trkpt>
      <trkpt lat="45.94615" lon="6.85683">
        <ele>1928</ele>
        <time>2026-08-04T10:02:20.646Z</time>
      </trkpt>
      <trkpt lat="45.94615" lon="6.85685">
        <ele>1927</ele>
        <time>2026-08-04T10:02:21.646Z</time>
      </trkpt>
      <trkpt lat="45.94615" lon="6.85687">
        <ele>1927</ele>
        <time>2026-08-04T10:02:22.646Z</time>
      </trkpt>
      <trkpt lat="45.94615" lon="6.85689">
        <ele>1927</ele>
        <time>2026-08-04T10:02:23.646Z</time>
      </trkpt>
      <trkpt lat="45.94615" lon="6.85691">
        <ele>1926</ele>
        <time>2026-08-04T10:02:24.646Z</time>
      </trkpt>
      <trkpt lat="45.94615" lon="6.85693">
        <ele>1926</ele>
        <time>2026-08-04T10:02:25.646Z</time>
      </trkpt>
      <trkpt lat="45.94615" lon="6.85695">
        <ele>1926</ele>
        <time>2026-08-04T10:02:26.646Z</time>
      </trkpt>
      <trkpt lat="45.94615" lon="6.85697">
        <ele>1926</ele>
        <time>2026-08-04T10:02:27.646Z</time>
      </trkpt>
      <trkpt lat="45.94616" lon="6.857">
        <ele>1926</ele>
        <time>2026-08-04T10:02:28.646Z</time>
      </trkpt>
      <trkpt lat="45.94617" lon="6.85702">
        <ele>1926</ele>
        <time>2026-08-04T10:02:29.646Z</time>
      </trkpt>
      <trkpt lat="45.94617" lon="6.85703">
        <ele>1926</ele>
        <time>2026-08-04T10:02:30.646Z</time>
      </trkpt>
      <trkpt lat="45.94618" lon="6.85706">
        <ele>1925</ele>
        <time>2026-08-04T10:02:31.646Z</time>
      </trkpt>
      <trkpt lat="45.94619" lon="6.85707">
        <ele>1925</ele>
        <time>2026-08-04T10:02:32.646Z</time>
      </trkpt>
      <trkpt lat="45.9462" lon="6.85709">
        <ele>1924</ele>
        <time>2026-08-04T10:02:33.646Z</time>
      </trkpt>
      <trkpt lat="45.94621" lon="6.8571">
        <ele>1923</ele>
        <time>2026-08-04T10:02:34.646Z</time>
      </trkpt>
      <trkpt lat="45.94622" lon="6.85712">
        <ele>1923</ele>
        <time>2026-08-04T10:02:35.646Z</time>
      </trkpt>
      <trkpt lat="45.94622" lon="6.85714">
        <ele>1922</ele>
        <time>2026-08-04T10:02:36.646Z</time>
      </trkpt>
      <trkpt lat="45.94623" lon="6.85716">
        <ele>1922</ele>
        <time>2026-08-04T10:02:37.646Z</time>
      </trkpt>
      <trkpt lat="45.94625" lon="6.85718">
        <ele>1922</ele>
        <time>2026-08-04T10:02:38.646Z</time>
      </trkpt>
      <trkpt lat="45.94626" lon="6.85719">
        <ele>1921</ele>
        <time>2026-08-04T10:02:39.646Z</time>
      </trkpt>
      <trkpt lat="45.94628" lon="6.85721">
        <ele>1921</ele>
        <time>2026-08-04T10:02:40.646Z</time>
      </trkpt>
      <trkpt lat="45.94629" lon="6.85723">
        <ele>1921</ele>
        <time>2026-08-04T10:02:41.646Z</time>
      </trkpt>
      <trkpt lat="45.94629" lon="6.85725">
        <ele>1920</ele>
        <time>2026-08-04T10:02:42.646Z</time>
      </trkpt>
      <trkpt lat="45.94631" lon="6.85727">
        <ele>1920</ele>
        <time>2026-08-04T10:02:43.646Z</time>
      </trkpt>
      <trkpt lat="45.94632" lon="6.85728">
        <ele>1920</ele>
        <time>2026-08-04T10:02:44.646Z</time>
      </trkpt>
      <trkpt lat="45.94633" lon="6.8573">
        <ele>1919</ele>
        <time>2026-08-04T10:02:45.646Z</time>
      </trkpt>
      <trkpt lat="45.94635" lon="6.85732">
        <ele>1919</ele>
        <time>2026-08-04T10:02:46.646Z</time>
      </trkpt>
      <trkpt lat="45.94636" lon="6.85733">
        <ele>1919</ele>
        <time>2026-08-04T10:02:47.646Z</time>
      </trkpt>
      <trkpt lat="45.94637" lon="6.85735">
        <ele>1918</ele>
        <time>2026-08-04T10:02:48.646Z</time>
      </trkpt>
      <trkpt lat="45.94638" lon="6.85737">
        <ele>1918</ele>
        <time>2026-08-04T10:02:49.646Z</time>
      </trkpt>
      <trkpt lat="45.94639" lon="6.85739">
        <ele>1917</ele>
        <time>2026-08-04T10:02:50.646Z</time>
      </trkpt>
      <trkpt lat="45.9464" lon="6.85741">
        <ele>1917</ele>
        <time>2026-08-04T10:02:51.646Z</time>
      </trkpt>
      <trkpt lat="45.94641" lon="6.85744">
        <ele>1917</ele>
        <time>2026-08-04T10:02:52.646Z</time>
      </trkpt>
      <trkpt lat="45.94642" lon="6.85745">
        <ele>1916</ele>
        <time>2026-08-04T10:02:53.646Z</time>
      </trkpt>
      <trkpt lat="45.94643" lon="6.85747">
        <ele>1916</ele>
        <time>2026-08-04T10:02:54.646Z</time>
      </trkpt>
      <trkpt lat="45.94644" lon="6.85749">
        <ele>1916</ele>
        <time>2026-08-04T10:02:55.646Z</time>
      </trkpt>
      <trkpt lat="45.94645" lon="6.8575">
        <ele>1916</ele>
        <time>2026-08-04T10:02:56.646Z</time>
      </trkpt>
      <trkpt lat="45.94646" lon="6.85752">
        <ele>1916</ele>
        <time>2026-08-04T10:02:57.646Z</time>
      </trkpt>
      <trkpt lat="45.94647" lon="6.85754">
        <ele>1915</ele>
        <time>2026-08-04T10:02:58.646Z</time>
      </trkpt>
      <trkpt lat="45.94647" lon="6.85756">
        <ele>1915</ele>
        <time>2026-08-04T10:02:59.646Z</time>
      </trkpt>
      <trkpt lat="45.94648" lon="6.85758">
        <ele>1915</ele>
        <time>2026-08-04T10:03:00.646Z</time>
      </trkpt>
      <trkpt lat="45.94648" lon="6.85761">
        <ele>1915</ele>
        <time>2026-08-04T10:03:01.646Z</time>
      </trkpt>
      <trkpt lat="45.94649" lon="6.85764">
        <ele>1914</ele>
        <time>2026-08-04T10:03:02.646Z</time>
      </trkpt>
      <trkpt lat="45.9465" lon="6.85767">
        <ele>1914</ele>
        <time>2026-08-04T10:03:03.646Z</time>
      </trkpt>
      <trkpt lat="45.9465" lon="6.85769">
        <ele>1914</ele>
        <time>2026-08-04T10:03:04.646Z</time>
      </trkpt>
      <trkpt lat="45.9465" lon="6.85772">
        <ele>1915</ele>
        <time>2026-08-04T10:03:05.646Z</time>
      </trkpt>
      <trkpt lat="45.9465" lon="6.85775">
        <ele>1915</ele>
        <time>2026-08-04T10:03:06.646Z</time>
      </trkpt>
      <trkpt lat="45.9465" lon="6.85778">
        <ele>1915</ele>
        <time>2026-08-04T10:03:07.646Z</time>
      </trkpt>
      <trkpt lat="45.9465" lon="6.85782">
        <ele>1915</ele>
        <time>2026-08-04T10:03:08.646Z</time>
      </trkpt>
      <trkpt lat="45.9465" lon="6.85784">
        <ele>1915</ele>
        <time>2026-08-04T10:03:09.646Z</time>
      </trkpt>
      <trkpt lat="45.9465" lon="6.85788">
        <ele>1915</ele>
        <time>2026-08-04T10:03:10.646Z</time>
      </trkpt>
      <trkpt lat="45.9465" lon="6.85791">
        <ele>1915</ele>
        <time>2026-08-04T10:03:11.646Z</time>
      </trkpt>
      <trkpt lat="45.9465" lon="6.85793">
        <ele>1915</ele>
        <time>2026-08-04T10:03:12.646Z</time>
      </trkpt>
      <trkpt lat="45.9465" lon="6.85795">
        <ele>1916</ele>
        <time>2026-08-04T10:03:13.646Z</time>
      </trkpt>
      <trkpt lat="45.9465" lon="6.85797">
        <ele>1916</ele>
        <time>2026-08-04T10:03:14.646Z</time>
      </trkpt>
      <trkpt lat="45.9465" lon="6.85799">
        <ele>1916</ele>
        <time>2026-08-04T10:03:15.646Z</time>
      </trkpt>
      <trkpt lat="45.9465" lon="6.85802">
        <ele>1916</ele>
        <time>2026-08-04T10:03:16.646Z</time>
      </trkpt>
      <trkpt lat="45.9465" lon="6.85804">
        <ele>1915</ele>
        <time>2026-08-04T10:03:17.646Z</time>
      </trkpt>
      <trkpt lat="45.9465" lon="6.85807">
        <ele>1915</ele>
        <time>2026-08-04T10:03:18.646Z</time>
      </trkpt>
      <trkpt lat="45.9465" lon="6.85809">
        <ele>1915</ele>
        <time>2026-08-04T10:03:19.646Z</time>
      </trkpt>
      <trkpt lat="45.94651" lon="6.85812">
        <ele>1915</ele>
        <time>2026-08-04T10:03:20.646Z</time>
      </trkpt>
      <trkpt lat="45.94651" lon="6.85814">
        <ele>1915</ele>
        <time>2026-08-04T10:03:21.646Z</time>
      </trkpt>
      <trkpt lat="45.94652" lon="6.85815">
        <ele>1915</ele>
        <time>2026-08-04T10:03:22.646Z</time>
      </trkpt>
      <trkpt lat="45.94651" lon="6.85818">
        <ele>1915</ele>
        <time>2026-08-04T10:03:23.646Z</time>
      </trkpt>
      <trkpt lat="45.94651" lon="6.85821">
        <ele>1915</ele>
        <time>2026-08-04T10:03:24.646Z</time>
      </trkpt>
      <trkpt lat="45.94651" lon="6.85823">
        <ele>1915</ele>
        <time>2026-08-04T10:03:25.646Z</time>
      </trkpt>
      <trkpt lat="45.94652" lon="6.85825">
        <ele>1915</ele>
        <time>2026-08-04T10:03:26.646Z</time>
      </trkpt>
      <trkpt lat="45.94653" lon="6.85827">
        <ele>1915</ele>
        <time>2026-08-04T10:03:27.646Z</time>
      </trkpt>
      <trkpt lat="45.94654" lon="6.85829">
        <ele>1915</ele>
        <time>2026-08-04T10:03:28.646Z</time>
      </trkpt>
      <trkpt lat="45.94654" lon="6.85831">
        <ele>1915</ele>
        <time>2026-08-04T10:03:29.646Z</time>
      </trkpt>
      <trkpt lat="45.94655" lon="6.85832">
        <ele>1915</ele>
        <time>2026-08-04T10:03:30.646Z</time>
      </trkpt>
      <trkpt lat="45.94655" lon="6.85835">
        <ele>1915</ele>
        <time>2026-08-04T10:03:31.646Z</time>
      </trkpt>
      <trkpt lat="45.94655" lon="6.85837">
        <ele>1915</ele>
        <time>2026-08-04T10:03:32.646Z</time>
      </trkpt>
      <trkpt lat="45.94655" lon="6.85839">
        <ele>1916</ele>
        <time>2026-08-04T10:03:33.646Z</time>
      </trkpt>
      <trkpt lat="45.94654" lon="6.85842">
        <ele>1916</ele>
        <time>2026-08-04T10:03:34.646Z</time>
      </trkpt>
      <trkpt lat="45.94654" lon="6.85844">
        <ele>1916</ele>
        <time>2026-08-04T10:03:35.646Z</time>
      </trkpt>
      <trkpt lat="45.94654" lon="6.85845">
        <ele>1916</ele>
        <time>2026-08-04T10:03:36.646Z</time>
      </trkpt>
      <trkpt lat="45.94654" lon="6.85847">
        <ele>1916</ele>
        <time>2026-08-04T10:03:37.646Z</time>
      </trkpt>
      <trkpt lat="45.94654" lon="6.85849">
        <ele>1916</ele>
        <time>2026-08-04T10:03:38.646Z</time>
      </trkpt>
      <trkpt lat="45.94654" lon="6.85851">
        <ele>1915</ele>
        <time>2026-08-04T10:03:39.646Z</time>
      </trkpt>
      <trkpt lat="45.94654" lon="6.85854">
        <ele>1915</ele>
        <time>2026-08-04T10:03:40.646Z</time>
      </trkpt>
      <trkpt lat="45.94655" lon="6.85857">
        <ele>1915</ele>
        <time>2026-08-04T10:03:41.647Z</time>
      </trkpt>
      <trkpt lat="45.94656" lon="6.8586">
        <ele>1914</ele>
        <time>2026-08-04T10:03:42.646Z</time>
      </trkpt>
      <trkpt lat="45.94657" lon="6.85863">
        <ele>1914</ele>
        <time>2026-08-04T10:03:43.646Z</time>
      </trkpt>
      <trkpt lat="45.94659" lon="6.85867">
        <ele>1914</ele>
        <time>2026-08-04T10:03:44.646Z</time>
      </trkpt>
      <trkpt lat="45.9466" lon="6.8587">
        <ele>1914</ele>
        <time>2026-08-04T10:03:45.646Z</time>
      </trkpt>
      <trkpt lat="45.94661" lon="6.85873">
        <ele>1913</ele>
        <time>2026-08-04T10:03:46.646Z</time>
      </trkpt>
      <trkpt lat="45.94662" lon="6.85875">
        <ele>1913</ele>
        <time>2026-08-04T10:03:47.646Z</time>
      </trkpt>
      <trkpt lat="45.94663" lon="6.85878">
        <ele>1912</ele>
        <time>2026-08-04T10:03:48.646Z</time>
      </trkpt>
      <trkpt lat="45.94663" lon="6.85879">
        <ele>1912</ele>
        <time>2026-08-04T10:03:49.646Z</time>
      </trkpt>
      <trkpt lat="45.94663" lon="6.85881">
        <ele>1912</ele>
        <time>2026-08-04T10:03:50.646Z</time>
      </trkpt>
      <trkpt lat="45.94663" lon="6.85882">
        <ele>1912</ele>
        <time>2026-08-04T10:03:51.646Z</time>
      </trkpt>
      <trkpt lat="45.94663" lon="6.85882">
        <ele>1912</ele>
        <time>2026-08-04T10:03:52.646Z</time>
      </trkpt>
      <trkpt lat="45.94663" lon="6.85883">
        <ele>1912</ele>
        <time>2026-08-04T10:03:53.646Z</time>
      </trkpt>
      <trkpt lat="45.94663" lon="6.85884">
        <ele>1912</ele>
        <time>2026-08-04T10:03:54.646Z</time>
      </trkpt>
      <trkpt lat="45.94663" lon="6.85885">
        <ele>1912</ele>
        <time>2026-08-04T10:03:55.646Z</time>
      </trkpt>
      <trkpt lat="45.94663" lon="6.85887">
        <ele>1911</ele>
        <time>2026-08-04T10:03:56.646Z</time>
      </trkpt>
      <trkpt lat="45.94663" lon="6.85888">
        <ele>1911</ele>
        <time>2026-08-04T10:03:57.646Z</time>
      </trkpt>
      <trkpt lat="45.94662" lon="6.85889">
        <ele>1910</ele>
        <time>2026-08-04T10:03:58.646Z</time>
      </trkpt>
      <trkpt lat="45.94662" lon="6.8589">
        <ele>1910</ele>
        <time>2026-08-04T10:03:59.646Z</time>
      </trkpt>
      <trkpt lat="45.94663" lon="6.85891">
        <ele>1910</ele>
        <time>2026-08-04T10:04:00.646Z</time>
      </trkpt>
      <trkpt lat="45.94663" lon="6.85892">
        <ele>1909</ele>
        <time>2026-08-04T10:04:01.646Z</time>
      </trkpt>
      <trkpt lat="45.94663" lon="6.85893">
        <ele>1909</ele>
        <time>2026-08-04T10:04:02.646Z</time>
      </trkpt>
      <trkpt lat="45.94663" lon="6.85894">
        <ele>1908</ele>
        <time>2026-08-04T10:04:03.646Z</time>
      </trkpt>
      <trkpt lat="45.94663" lon="6.85895">
        <ele>1908</ele>
        <time>2026-08-04T10:04:04.646Z</time>
      </trkpt>
      <trkpt lat="45.94663" lon="6.85896">
        <ele>1908</ele>
        <time>2026-08-04T10:04:05.646Z</time>
      </trkpt>
      <trkpt lat="45.94664" lon="6.85898">
        <ele>1908</ele>
        <time>2026-08-04T10:04:06.646Z</time>
      </trkpt>
      <trkpt lat="45.94664" lon="6.85899">
        <ele>1908</ele>
        <time>2026-08-04T10:04:07.646Z</time>
      </trkpt>
      <trkpt lat="45.94664" lon="6.85901">
        <ele>1907</ele>
        <time>2026-08-04T10:04:08.646Z</time>
      </trkpt>
      <trkpt lat="45.94665" lon="6.85903">
        <ele>1907</ele>
        <time>2026-08-04T10:04:09.646Z</time>
      </trkpt>
      <trkpt lat="45.94665" lon="6.85905">
        <ele>1907</ele>
        <time>2026-08-04T10:04:10.646Z</time>
      </trkpt>
      <trkpt lat="45.94666" lon="6.85907">
        <ele>1907</ele>
        <time>2026-08-04T10:04:11.646Z</time>
      </trkpt>
      <trkpt lat="45.94667" lon="6.85909">
        <ele>1906</ele>
        <time>2026-08-04T10:04:12.646Z</time>
      </trkpt>
      <trkpt lat="45.94668" lon="6.85912">
        <ele>1906</ele>
        <time>2026-08-04T10:04:13.646Z</time>
      </trkpt>
      <trkpt lat="45.94668" lon="6.85914">
        <ele>1906</ele>
        <time>2026-08-04T10:04:14.646Z</time>
      </trkpt>
      <trkpt lat="45.94669" lon="6.85916">
        <ele>1905</ele>
        <time>2026-08-04T10:04:15.646Z</time>
      </trkpt>
      <trkpt lat="45.94669" lon="6.85919">
        <ele>1905</ele>
        <time>2026-08-04T10:04:16.646Z</time>
      </trkpt>
      <trkpt lat="45.94669" lon="6.85921">
        <ele>1905</ele>
        <time>2026-08-04T10:04:17.646Z</time>
      </trkpt>
      <trkpt lat="45.9467" lon="6.85924">
        <ele>1904</ele>
        <time>2026-08-04T10:04:18.646Z</time>
      </trkpt>
      <trkpt lat="45.9467" lon="6.85926">
        <ele>1904</ele>
        <time>2026-08-04T10:04:19.646Z</time>
      </trkpt>
      <trkpt lat="45.94671" lon="6.85929">
        <ele>1904</ele>
        <time>2026-08-04T10:04:20.646Z</time>
      </trkpt>
      <trkpt lat="45.94671" lon="6.85931">
        <ele>1903</ele>
        <time>2026-08-04T10:04:21.646Z</time>
      </trkpt>
      <trkpt lat="45.94671" lon="6.85932">
        <ele>1903</ele>
        <time>2026-08-04T10:04:22.646Z</time>
      </trkpt>
      <trkpt lat="45.94671" lon="6.85934">
        <ele>1903</ele>
        <time>2026-08-04T10:04:23.646Z</time>
      </trkpt>
      <trkpt lat="45.94672" lon="6.85936">
        <ele>1902</ele>
        <time>2026-08-04T10:04:24.646Z</time>
      </trkpt>
      <trkpt lat="45.94672" lon="6.85937">
        <ele>1902</ele>
        <time>2026-08-04T10:04:25.646Z</time>
      </trkpt>
      <trkpt lat="45.94672" lon="6.85939">
        <ele>1902</ele>
        <time>2026-08-04T10:04:26.646Z</time>
      </trkpt>
      <trkpt lat="45.94673" lon="6.8594">
        <ele>1902</ele>
        <time>2026-08-04T10:04:27.646Z</time>
      </trkpt>
      <trkpt lat="45.94673" lon="6.85942">
        <ele>1901</ele>
        <time>2026-08-04T10:04:28.646Z</time>
      </trkpt>
      <trkpt lat="45.94674" lon="6.85944">
        <ele>1901</ele>
        <time>2026-08-04T10:04:29.646Z</time>
      </trkpt>
      <trkpt lat="45.94675" lon="6.85946">
        <ele>1900</ele>
        <time>2026-08-04T10:04:30.646Z</time>
      </trkpt>
      <trkpt lat="45.94676" lon="6.85949">
        <ele>1900</ele>
        <time>2026-08-04T10:04:31.646Z</time>
      </trkpt>
      <trkpt lat="45.94677" lon="6.85952">
        <ele>1900</ele>
        <time>2026-08-04T10:04:32.647Z</time>
      </trkpt>
      <trkpt lat="45.94677" lon="6.85955">
        <ele>1899</ele>
        <time>2026-08-04T10:04:33.646Z</time>
      </trkpt>
      <trkpt lat="45.94677" lon="6.85957">
        <ele>1899</ele>
        <time>2026-08-04T10:04:34.646Z</time>
      </trkpt>
      <trkpt lat="45.94677" lon="6.85961">
        <ele>1899</ele>
        <time>2026-08-04T10:04:35.646Z</time>
      </trkpt>
      <trkpt lat="45.94676" lon="6.85964">
        <ele>1899</ele>
        <time>2026-08-04T10:04:36.646Z</time>
      </trkpt>
      <trkpt lat="45.94676" lon="6.85966">
        <ele>1898</ele>
        <time>2026-08-04T10:04:37.646Z</time>
      </trkpt>
      <trkpt lat="45.94677" lon="6.85969">
        <ele>1898</ele>
        <time>2026-08-04T10:04:38.646Z</time>
      </trkpt>
      <trkpt lat="45.94677" lon="6.8597">
        <ele>1898</ele>
        <time>2026-08-04T10:04:39.646Z</time>
      </trkpt>
      <trkpt lat="45.94678" lon="6.85972">
        <ele>1898</ele>
        <time>2026-08-04T10:04:40.646Z</time>
      </trkpt>
      <trkpt lat="45.94678" lon="6.85973">
        <ele>1898</ele>
        <time>2026-08-04T10:04:41.646Z</time>
      </trkpt>
      <trkpt lat="45.94678" lon="6.85974">
        <ele>1898</ele>
        <time>2026-08-04T10:04:42.646Z</time>
      </trkpt>
      <trkpt lat="45.94679" lon="6.85976">
        <ele>1898</ele>
        <time>2026-08-04T10:04:43.646Z</time>
      </trkpt>
      <trkpt lat="45.9468" lon="6.85978">
        <ele>1898</ele>
        <time>2026-08-04T10:04:44.646Z</time>
      </trkpt>
      <trkpt lat="45.94681" lon="6.8598">
        <ele>1898</ele>
        <time>2026-08-04T10:04:45.646Z</time>
      </trkpt>
      <trkpt lat="45.94682" lon="6.85982">
        <ele>1898</ele>
        <time>2026-08-04T10:04:46.646Z</time>
      </trkpt>
      <trkpt lat="45.94683" lon="6.85984">
        <ele>1898</ele>
        <time>2026-08-04T10:04:47.646Z</time>
      </trkpt>
      <trkpt lat="45.94683" lon="6.85987">
        <ele>1897</ele>
        <time>2026-08-04T10:04:48.646Z</time>
      </trkpt>
      <trkpt lat="45.94684" lon="6.8599">
        <ele>1897</ele>
        <time>2026-08-04T10:04:49.646Z</time>
      </trkpt>
      <trkpt lat="45.94685" lon="6.85992">
        <ele>1897</ele>
        <time>2026-08-04T10:04:50.646Z</time>
      </trkpt>
      <trkpt lat="45.94686" lon="6.85994">
        <ele>1897</ele>
        <time>2026-08-04T10:04:51.646Z</time>
      </trkpt>
      <trkpt lat="45.94686" lon="6.85996">
        <ele>1897</ele>
        <time>2026-08-04T10:04:52.646Z</time>
      </trkpt>
      <trkpt lat="45.94687" lon="6.85997">
        <ele>1896</ele>
        <time>2026-08-04T10:04:53.646Z</time>
      </trkpt>
      <trkpt lat="45.94687" lon="6.86">
        <ele>1896</ele>
        <time>2026-08-04T10:04:54.646Z</time>
      </trkpt>
      <trkpt lat="45.94687" lon="6.86003">
        <ele>1896</ele>
        <time>2026-08-04T10:04:55.646Z</time>
      </trkpt>
      <trkpt lat="45.94687" lon="6.86005">
        <ele>1896</ele>
        <time>2026-08-04T10:04:56.646Z</time>
      </trkpt>
      <trkpt lat="45.94687" lon="6.86009">
        <ele>1896</ele>
        <time>2026-08-04T10:04:57.646Z</time>
      </trkpt>
      <trkpt lat="45.94687" lon="6.86011">
        <ele>1896</ele>
        <time>2026-08-04T10:04:58.646Z</time>
      </trkpt>
      <trkpt lat="45.94687" lon="6.86014">
        <ele>1895</ele>
        <time>2026-08-04T10:04:59.646Z</time>
      </trkpt>
      <trkpt lat="45.94688" lon="6.86017">
        <ele>1896</ele>
        <time>2026-08-04T10:05:00.646Z</time>
      </trkpt>
      <trkpt lat="45.94687" lon="6.86021">
        <ele>1896</ele>
        <time>2026-08-04T10:05:01.646Z</time>
      </trkpt>
      <trkpt lat="45.94687" lon="6.86023">
        <ele>1896</ele>
        <time>2026-08-04T10:05:02.646Z</time>
      </trkpt>
      <trkpt lat="45.94686" lon="6.86026">
        <ele>1896</ele>
        <time>2026-08-04T10:05:03.646Z</time>
      </trkpt>
      <trkpt lat="45.94686" lon="6.86028">
        <ele>1896</ele>
        <time>2026-08-04T10:05:04.646Z</time>
      </trkpt>
      <trkpt lat="45.94686" lon="6.86029">
        <ele>1896</ele>
        <time>2026-08-04T10:05:05.646Z</time>
      </trkpt>
      <trkpt lat="45.94686" lon="6.86031">
        <ele>1895</ele>
        <time>2026-08-04T10:05:06.646Z</time>
      </trkpt>
      <trkpt lat="45.94686" lon="6.86033">
        <ele>1895</ele>
        <time>2026-08-04T10:05:07.646Z</time>
      </trkpt>
      <trkpt lat="45.94686" lon="6.86035">
        <ele>1895</ele>
        <time>2026-08-04T10:05:08.646Z</time>
      </trkpt>
      <trkpt lat="45.94686" lon="6.86037">
        <ele>1895</ele>
        <time>2026-08-04T10:05:09.646Z</time>
      </trkpt>
      <trkpt lat="45.94686" lon="6.86039">
        <ele>1895</ele>
        <time>2026-08-04T10:05:10.646Z</time>
      </trkpt>
      <trkpt lat="45.94686" lon="6.8604">
        <ele>1895</ele>
        <time>2026-08-04T10:05:11.646Z</time>
      </trkpt>
      <trkpt lat="45.94686" lon="6.86042">
        <ele>1895</ele>
        <time>2026-08-04T10:05:12.646Z</time>
      </trkpt>
      <trkpt lat="45.94685" lon="6.86044">
        <ele>1895</ele>
        <time>2026-08-04T10:05:13.646Z</time>
      </trkpt>
      <trkpt lat="45.94685" lon="6.86046">
        <ele>1895</ele>
        <time>2026-08-04T10:05:14.646Z</time>
      </trkpt>
      <trkpt lat="45.94684" lon="6.86048">
        <ele>1895</ele>
        <time>2026-08-04T10:05:15.646Z</time>
      </trkpt>
      <trkpt lat="45.94684" lon="6.8605">
        <ele>1896</ele>
        <time>2026-08-04T10:05:16.646Z</time>
      </trkpt>
      <trkpt lat="45.94683" lon="6.86052">
        <ele>1896</ele>
        <time>2026-08-04T10:05:17.646Z</time>
      </trkpt>
      <trkpt lat="45.94683" lon="6.86055">
        <ele>1896</ele>
        <time>2026-08-04T10:05:18.646Z</time>
      </trkpt>
      <trkpt lat="45.94682" lon="6.86056">
        <ele>1896</ele>
        <time>2026-08-04T10:05:19.646Z</time>
      </trkpt>
      <trkpt lat="45.94682" lon="6.86058">
        <ele>1896</ele>
        <time>2026-08-04T10:05:20.646Z</time>
      </trkpt>
      <trkpt lat="45.94682" lon="6.8606">
        <ele>1896</ele>
        <time>2026-08-04T10:05:21.646Z</time>
      </trkpt>
      <trkpt lat="45.94682" lon="6.86061">
        <ele>1896</ele>
        <time>2026-08-04T10:05:22.646Z</time>
      </trkpt>
      <trkpt lat="45.94682" lon="6.86062">
        <ele>1896</ele>
        <time>2026-08-04T10:05:23.646Z</time>
      </trkpt>
      <trkpt lat="45.94682" lon="6.86064">
        <ele>1896</ele>
        <time>2026-08-04T10:05:24.646Z</time>
      </trkpt>
      <trkpt lat="45.94682" lon="6.86065">
        <ele>1896</ele>
        <time>2026-08-04T10:05:25.646Z</time>
      </trkpt>
      <trkpt lat="45.94683" lon="6.86066">
        <ele>1897</ele>
        <time>2026-08-04T10:05:26.646Z</time>
      </trkpt>
      <trkpt lat="45.94683" lon="6.86067">
        <ele>1897</ele>
        <time>2026-08-04T10:05:27.646Z</time>
      </trkpt>
      <trkpt lat="45.94684" lon="6.86068">
        <ele>1897</ele>
        <time>2026-08-04T10:05:28.646Z</time>
      </trkpt>
      <trkpt lat="45.94684" lon="6.86069">
        <ele>1897</ele>
        <time>2026-08-04T10:05:29.646Z</time>
      </trkpt>
      <trkpt lat="45.94684" lon="6.86071">
        <ele>1897</ele>
        <time>2026-08-04T10:05:30.646Z</time>
      </trkpt>
      <trkpt lat="45.94683" lon="6.86072">
        <ele>1898</ele>
        <time>2026-08-04T10:05:31.646Z</time>
      </trkpt>
      <trkpt lat="45.94683" lon="6.86074">
        <ele>1898</ele>
        <time>2026-08-04T10:05:32.646Z</time>
      </trkpt>
      <trkpt lat="45.94682" lon="6.86076">
        <ele>1899</ele>
        <time>2026-08-04T10:05:33.646Z</time>
      </trkpt>
      <trkpt lat="45.94682" lon="6.86078">
        <ele>1899</ele>
        <time>2026-08-04T10:05:34.646Z</time>
      </trkpt>
      <trkpt lat="45.94681" lon="6.8608">
        <ele>1900</ele>
        <time>2026-08-04T10:05:35.646Z</time>
      </trkpt>
      <trkpt lat="45.94681" lon="6.86082">
        <ele>1900</ele>
        <time>2026-08-04T10:05:36.646Z</time>
      </trkpt>
      <trkpt lat="45.94681" lon="6.86083">
        <ele>1901</ele>
        <time>2026-08-04T10:05:37.646Z</time>
      </trkpt>
      <trkpt lat="45.94681" lon="6.86085">
        <ele>1901</ele>
        <time>2026-08-04T10:05:38.646Z</time>
      </trkpt>
      <trkpt lat="45.9468" lon="6.86087">
        <ele>1901</ele>
        <time>2026-08-04T10:05:39.646Z</time>
      </trkpt>
      <trkpt lat="45.94679" lon="6.86089">
        <ele>1901</ele>
        <time>2026-08-04T10:05:40.646Z</time>
      </trkpt>
      <trkpt lat="45.94679" lon="6.86091">
        <ele>1901</ele>
        <time>2026-08-04T10:05:41.646Z</time>
      </trkpt>
      <trkpt lat="45.94679" lon="6.86093">
        <ele>1901</ele>
        <time>2026-08-04T10:05:42.646Z</time>
      </trkpt>
      <trkpt lat="45.9468" lon="6.86096">
        <ele>1901</ele>
        <time>2026-08-04T10:05:43.646Z</time>
      </trkpt>
      <trkpt lat="45.9468" lon="6.86098">
        <ele>1901</ele>
        <time>2026-08-04T10:05:44.646Z</time>
      </trkpt>
      <trkpt lat="45.9468" lon="6.86101">
        <ele>1901</ele>
        <time>2026-08-04T10:05:45.646Z</time>
      </trkpt>
      <trkpt lat="45.94681" lon="6.86103">
        <ele>1901</ele>
        <time>2026-08-04T10:05:46.646Z</time>
      </trkpt>
      <trkpt lat="45.94681" lon="6.86105">
        <ele>1901</ele>
        <time>2026-08-04T10:05:47.646Z</time>
      </trkpt>
      <trkpt lat="45.94681" lon="6.86107">
        <ele>1901</ele>
        <time>2026-08-04T10:05:48.646Z</time>
      </trkpt>
      <trkpt lat="45.94681" lon="6.86109">
        <ele>1901</ele>
        <time>2026-08-04T10:05:49.646Z</time>
      </trkpt>
      <trkpt lat="45.94681" lon="6.86111">
        <ele>1901</ele>
        <time>2026-08-04T10:05:50.646Z</time>
      </trkpt>
      <trkpt lat="45.9468" lon="6.86112">
        <ele>1902</ele>
        <time>2026-08-04T10:05:51.646Z</time>
      </trkpt>
      <trkpt lat="45.94679" lon="6.86113">
        <ele>1902</ele>
        <time>2026-08-04T10:05:52.646Z</time>
      </trkpt>
      <trkpt lat="45.94679" lon="6.86115">
        <ele>1903</ele>
        <time>2026-08-04T10:05:53.646Z</time>
      </trkpt>
      <trkpt lat="45.94679" lon="6.86116">
        <ele>1903</ele>
        <time>2026-08-04T10:05:54.646Z</time>
      </trkpt>
      <trkpt lat="45.94678" lon="6.86118">
        <ele>1904</ele>
        <time>2026-08-04T10:05:55.646Z</time>
      </trkpt>
      <trkpt lat="45.94677" lon="6.86119">
        <ele>1904</ele>
        <time>2026-08-04T10:05:56.646Z</time>
      </trkpt>
      <trkpt lat="45.94677" lon="6.86121">
        <ele>1904</ele>
        <time>2026-08-04T10:05:57.646Z</time>
      </trkpt>
      <trkpt lat="45.94676" lon="6.86123">
        <ele>1904</ele>
        <time>2026-08-04T10:05:58.646Z</time>
      </trkpt>
      <trkpt lat="45.94676" lon="6.86125">
        <ele>1904</ele>
        <time>2026-08-04T10:05:59.646Z</time>
      </trkpt>
      <trkpt lat="45.94675" lon="6.86127">
        <ele>1904</ele>
        <time>2026-08-04T10:06:00.646Z</time>
      </trkpt>
      <trkpt lat="45.94674" lon="6.86129">
        <ele>1904</ele>
        <time>2026-08-04T10:06:01.646Z</time>
      </trkpt>
      <trkpt lat="45.94673" lon="6.86131">
        <ele>1904</ele>
        <time>2026-08-04T10:06:02.646Z</time>
      </trkpt>
      <trkpt lat="45.94672" lon="6.86133">
        <ele>1904</ele>
        <time>2026-08-04T10:06:03.646Z</time>
      </trkpt>
      <trkpt lat="45.94672" lon="6.86135">
        <ele>1904</ele>
        <time>2026-08-04T10:06:04.646Z</time>
      </trkpt>
      <trkpt lat="45.94672" lon="6.86137">
        <ele>1904</ele>
        <time>2026-08-04T10:06:05.646Z</time>
      </trkpt>
      <trkpt lat="45.94672" lon="6.86139">
        <ele>1904</ele>
        <time>2026-08-04T10:06:06.646Z</time>
      </trkpt>
      <trkpt lat="45.94671" lon="6.8614">
        <ele>1904</ele>
        <time>2026-08-04T10:06:07.646Z</time>
      </trkpt>
      <trkpt lat="45.94671" lon="6.86141">
        <ele>1903</ele>
        <time>2026-08-04T10:06:08.646Z</time>
      </trkpt>
      <trkpt lat="45.9467" lon="6.86142">
        <ele>1903</ele>
        <time>2026-08-04T10:06:09.646Z</time>
      </trkpt>
      <trkpt lat="45.94669" lon="6.86144">
        <ele>1903</ele>
        <time>2026-08-04T10:06:10.646Z</time>
      </trkpt>
      <trkpt lat="45.94669" lon="6.86145">
        <ele>1903</ele>
        <time>2026-08-04T10:06:11.646Z</time>
      </trkpt>
      <trkpt lat="45.94668" lon="6.86147">
        <ele>1903</ele>
        <time>2026-08-04T10:06:12.646Z</time>
      </trkpt>
      <trkpt lat="45.94668" lon="6.86148">
        <ele>1903</ele>
        <time>2026-08-04T10:06:13.646Z</time>
      </trkpt>
      <trkpt lat="45.94669" lon="6.8615">
        <ele>1903</ele>
        <time>2026-08-04T10:06:14.646Z</time>
      </trkpt>
      <trkpt lat="45.94669" lon="6.86152">
        <ele>1903</ele>
        <time>2026-08-04T10:06:15.646Z</time>
      </trkpt>
      <trkpt lat="45.94669" lon="6.86154">
        <ele>1903</ele>
        <time>2026-08-04T10:06:16.646Z</time>
      </trkpt>
      <trkpt lat="45.94669" lon="6.86156">
        <ele>1903</ele>
        <time>2026-08-04T10:06:17.646Z</time>
      </trkpt>
      <trkpt lat="45.94669" lon="6.86158">
        <ele>1903</ele>
        <time>2026-08-04T10:06:18.646Z</time>
      </trkpt>
      <trkpt lat="45.94669" lon="6.86161">
        <ele>1903</ele>
        <time>2026-08-04T10:06:19.646Z</time>
      </trkpt>
      <trkpt lat="45.94668" lon="6.86163">
        <ele>1903</ele>
        <time>2026-08-04T10:06:20.646Z</time>
      </trkpt>
      <trkpt lat="45.94668" lon="6.86165">
        <ele>1902</ele>
        <time>2026-08-04T10:06:21.646Z</time>
      </trkpt>
      <trkpt lat="45.94668" lon="6.86167">
        <ele>1902</ele>
        <time>2026-08-04T10:06:22.646Z</time>
      </trkpt>
      <trkpt lat="45.94668" lon="6.86169">
        <ele>1901</ele>
        <time>2026-08-04T10:06:23.646Z</time>
      </trkpt>
      <trkpt lat="45.94668" lon="6.86172">
        <ele>1901</ele>
        <time>2026-08-04T10:06:24.646Z</time>
      </trkpt>
      <trkpt lat="45.94668" lon="6.86173">
        <ele>1901</ele>
        <time>2026-08-04T10:06:25.646Z</time>
      </trkpt>
      <trkpt lat="45.94668" lon="6.86175">
        <ele>1901</ele>
        <time>2026-08-04T10:06:26.646Z</time>
      </trkpt>
      <trkpt lat="45.94667" lon="6.86177">
        <ele>1901</ele>
        <time>2026-08-04T10:06:27.646Z</time>
      </trkpt>
      <trkpt lat="45.94666" lon="6.86179">
        <ele>1901</ele>
        <time>2026-08-04T10:06:28.646Z</time>
      </trkpt>
      <trkpt lat="45.94666" lon="6.86181">
        <ele>1901</ele>
        <time>2026-08-04T10:06:29.646Z</time>
      </trkpt>
      <trkpt lat="45.94666" lon="6.86183">
        <ele>1901</ele>
        <time>2026-08-04T10:06:30.646Z</time>
      </trkpt>
      <trkpt lat="45.94665" lon="6.86184">
        <ele>1901</ele>
        <time>2026-08-04T10:06:31.646Z</time>
      </trkpt>
      <trkpt lat="45.94665" lon="6.86186">
        <ele>1901</ele>
        <time>2026-08-04T10:06:32.646Z</time>
      </trkpt>
      <trkpt lat="45.94665" lon="6.86189">
        <ele>1901</ele>
        <time>2026-08-04T10:06:33.646Z</time>
      </trkpt>
      <trkpt lat="45.94664" lon="6.8619">
        <ele>1901</ele>
        <time>2026-08-04T10:06:34.646Z</time>
      </trkpt>
      <trkpt lat="45.94664" lon="6.86191">
        <ele>1901</ele>
        <time>2026-08-04T10:06:35.646Z</time>
      </trkpt>
      <trkpt lat="45.94664" lon="6.86194">
        <ele>1901</ele>
        <time>2026-08-04T10:06:36.646Z</time>
      </trkpt>
      <trkpt lat="45.94664" lon="6.86196">
        <ele>1901</ele>
        <time>2026-08-04T10:06:37.646Z</time>
      </trkpt>
      <trkpt lat="45.94664" lon="6.86197">
        <ele>1902</ele>
        <time>2026-08-04T10:06:38.646Z</time>
      </trkpt>
      <trkpt lat="45.94663" lon="6.86199">
        <ele>1902</ele>
        <time>2026-08-04T10:06:39.646Z</time>
      </trkpt>
      <trkpt lat="45.94663" lon="6.86201">
        <ele>1902</ele>
        <time>2026-08-04T10:06:40.646Z</time>
      </trkpt>
      <trkpt lat="45.94663" lon="6.86203">
        <ele>1902</ele>
        <time>2026-08-04T10:06:41.646Z</time>
      </trkpt>
      <trkpt lat="45.94663" lon="6.86204">
        <ele>1902</ele>
        <time>2026-08-04T10:06:42.646Z</time>
      </trkpt>
      <trkpt lat="45.94663" lon="6.86206">
        <ele>1902</ele>
        <time>2026-08-04T10:06:43.646Z</time>
      </trkpt>
      <trkpt lat="45.94662" lon="6.86207">
        <ele>1902</ele>
        <time>2026-08-04T10:06:44.646Z</time>
      </trkpt>
      <trkpt lat="45.94662" lon="6.86208">
        <ele>1902</ele>
        <time>2026-08-04T10:06:45.646Z</time>
      </trkpt>
      <trkpt lat="45.94661" lon="6.86209">
        <ele>1902</ele>
        <time>2026-08-04T10:06:46.646Z</time>
      </trkpt>
      <trkpt lat="45.94661" lon="6.8621">
        <ele>1902</ele>
        <time>2026-08-04T10:06:47.646Z</time>
      </trkpt>
      <trkpt lat="45.94661" lon="6.8621">
        <ele>1902</ele>
        <time>2026-08-04T10:06:48.646Z</time>
      </trkpt>
      <trkpt lat="45.9466" lon="6.86211">
        <ele>1902</ele>
        <time>2026-08-04T10:06:49.646Z</time>
      </trkpt>
      <trkpt lat="45.9466" lon="6.86211">
        <ele>1902</ele>
        <time>2026-08-04T10:06:50.646Z</time>
      </trkpt>
      <trkpt lat="45.9466" lon="6.86212">
        <ele>1902</ele>
        <time>2026-08-04T10:06:51.646Z</time>
      </trkpt>
      <trkpt lat="45.9466" lon="6.86213">
        <ele>1902</ele>
        <time>2026-08-04T10:06:52.646Z</time>
      </trkpt>
      <trkpt lat="45.9466" lon="6.86214">
        <ele>1902</ele>
        <time>2026-08-04T10:06:53.646Z</time>
      </trkpt>
      <trkpt lat="45.94659" lon="6.86215">
        <ele>1902</ele>
        <time>2026-08-04T10:06:54.646Z</time>
      </trkpt>
      <trkpt lat="45.94659" lon="6.86216">
        <ele>1902</ele>
        <time>2026-08-04T10:06:55.646Z</time>
      </trkpt>
      <trkpt lat="45.94659" lon="6.86216">
        <ele>1902</ele>
        <time>2026-08-04T10:06:56.646Z</time>
      </trkpt>
      <trkpt lat="45.9466" lon="6.86217">
        <ele>1902</ele>
        <time>2026-08-04T10:06:57.646Z</time>
      </trkpt>
      <trkpt lat="45.94659" lon="6.86219">
        <ele>1902</ele>
        <time>2026-08-04T10:06:58.646Z</time>
      </trkpt>
      <trkpt lat="45.94659" lon="6.86221">
        <ele>1901</ele>
        <time>2026-08-04T10:06:59.646Z</time>
      </trkpt>
      <trkpt lat="45.94659" lon="6.86223">
        <ele>1901</ele>
        <time>2026-08-04T10:07:00.646Z</time>
      </trkpt>
      <trkpt lat="45.94659" lon="6.86225">
        <ele>1901</ele>
        <time>2026-08-04T10:07:01.646Z</time>
      </trkpt>
      <trkpt lat="45.94659" lon="6.86229">
        <ele>1900</ele>
        <time>2026-08-04T10:07:02.646Z</time>
      </trkpt>
      <trkpt lat="45.94658" lon="6.86231">
        <ele>1900</ele>
        <time>2026-08-04T10:07:03.646Z</time>
      </trkpt>
      <trkpt lat="45.94658" lon="6.86233">
        <ele>1899</ele>
        <time>2026-08-04T10:07:04.646Z</time>
      </trkpt>
      <trkpt lat="45.94657" lon="6.86235">
        <ele>1899</ele>
        <time>2026-08-04T10:07:05.646Z</time>
      </trkpt>
      <trkpt lat="45.94656" lon="6.86237">
        <ele>1899</ele>
        <time>2026-08-04T10:07:06.646Z</time>
      </trkpt>
      <trkpt lat="45.94656" lon="6.86238">
        <ele>1898</ele>
        <time>2026-08-04T10:07:07.646Z</time>
      </trkpt>
      <trkpt lat="45.94655" lon="6.8624">
        <ele>1898</ele>
        <time>2026-08-04T10:07:08.646Z</time>
      </trkpt>
      <trkpt lat="45.94654" lon="6.86241">
        <ele>1898</ele>
        <time>2026-08-04T10:07:09.646Z</time>
      </trkpt>
      <trkpt lat="45.94654" lon="6.86243">
        <ele>1898</ele>
        <time>2026-08-04T10:07:10.646Z</time>
      </trkpt>
      <trkpt lat="45.94654" lon="6.86245">
        <ele>1898</ele>
        <time>2026-08-04T10:07:11.646Z</time>
      </trkpt>
      <trkpt lat="45.94654" lon="6.86247">
        <ele>1898</ele>
        <time>2026-08-04T10:07:12.646Z</time>
      </trkpt>
      <trkpt lat="45.94655" lon="6.86248">
        <ele>1898</ele>
        <time>2026-08-04T10:07:13.646Z</time>
      </trkpt>
      <trkpt lat="45.94655" lon="6.8625">
        <ele>1898</ele>
        <time>2026-08-04T10:07:14.646Z</time>
      </trkpt>
      <trkpt lat="45.94656" lon="6.86252">
        <ele>1898</ele>
        <time>2026-08-04T10:07:15.646Z</time>
      </trkpt>
      <trkpt lat="45.94656" lon="6.86253">
        <ele>1898</ele>
        <time>2026-08-04T10:07:16.646Z</time>
      </trkpt>
      <trkpt lat="45.94655" lon="6.86255">
        <ele>1898</ele>
        <time>2026-08-04T10:07:17.646Z</time>
      </trkpt>
      <trkpt lat="45.94655" lon="6.86256">
        <ele>1897</ele>
        <time>2026-08-04T10:07:18.646Z</time>
      </trkpt>
      <trkpt lat="45.94654" lon="6.86258">
        <ele>1897</ele>
        <time>2026-08-04T10:07:19.646Z</time>
      </trkpt>
      <trkpt lat="45.94654" lon="6.86259">
        <ele>1897</ele>
        <time>2026-08-04T10:07:20.646Z</time>
      </trkpt>
      <trkpt lat="45.94654" lon="6.86261">
        <ele>1897</ele>
        <time>2026-08-04T10:07:21.646Z</time>
      </trkpt>
      <trkpt lat="45.94654" lon="6.86262">
        <ele>1897</ele>
        <time>2026-08-04T10:07:22.646Z</time>
      </trkpt>
      <trkpt lat="45.94653" lon="6.86263">
        <ele>1897</ele>
        <time>2026-08-04T10:07:23.646Z</time>
      </trkpt>
      <trkpt lat="45.94653" lon="6.86265">
        <ele>1897</ele>
        <time>2026-08-04T10:07:24.646Z</time>
      </trkpt>
      <trkpt lat="45.94654" lon="6.86266">
        <ele>1896</ele>
        <time>2026-08-04T10:07:25.646Z</time>
      </trkpt>
      <trkpt lat="45.94654" lon="6.86267">
        <ele>1896</ele>
        <time>2026-08-04T10:07:26.646Z</time>
      </trkpt>
      <trkpt lat="45.94654" lon="6.86267">
        <ele>1896</ele>
        <time>2026-08-04T10:07:27.646Z</time>
      </trkpt>
      <trkpt lat="45.94654" lon="6.86268">
        <ele>1896</ele>
        <time>2026-08-04T10:07:28.646Z</time>
      </trkpt>
      <trkpt lat="45.94654" lon="6.86268">
        <ele>1896</ele>
        <time>2026-08-04T10:07:29.646Z</time>
      </trkpt>
      <trkpt lat="45.94654" lon="6.86268">
        <ele>1896</ele>
        <time>2026-08-04T10:07:30.646Z</time>
      </trkpt>
      <trkpt lat="45.94654" lon="6.86268">
        <ele>1896</ele>
        <time>2026-08-04T10:07:31.646Z</time>
      </trkpt>
      <trkpt lat="45.94654" lon="6.86269">
        <ele>1896</ele>
        <time>2026-08-04T10:07:32.646Z</time>
      </trkpt>
      <trkpt lat="45.94654" lon="6.86269">
        <ele>1896</ele>
        <time>2026-08-04T10:07:33.646Z</time>
      </trkpt>
      <trkpt lat="45.94653" lon="6.86269">
        <ele>1896</ele>
        <time>2026-08-04T10:07:34.646Z</time>
      </trkpt>
      <trkpt lat="45.94652" lon="6.8627">
        <ele>1897</ele>
        <time>2026-08-04T10:07:35.646Z</time>
      </trkpt>
      <trkpt lat="45.94652" lon="6.86269">
        <ele>1897</ele>
        <time>2026-08-04T10:07:36.646Z</time>
      </trkpt>
      <trkpt lat="45.94651" lon="6.86269">
        <ele>1897</ele>
        <time>2026-08-04T10:07:37.646Z</time>
      </trkpt>
      <trkpt lat="45.9465" lon="6.86269">
        <ele>1898</ele>
        <time>2026-08-04T10:07:38.646Z</time>
      </trkpt>
      <trkpt lat="45.9465" lon="6.86269">
        <ele>1898</ele>
        <time>2026-08-04T10:07:39.646Z</time>
      </trkpt>
      <trkpt lat="45.94649" lon="6.86269">
        <ele>1898</ele>
        <time>2026-08-04T10:07:40.647Z</time>
      </trkpt>
      <trkpt lat="45.94648" lon="6.86269">
        <ele>1898</ele>
        <time>2026-08-04T10:07:41.646Z</time>
      </trkpt>
      <trkpt lat="45.94648" lon="6.86269">
        <ele>1898</ele>
        <time>2026-08-04T10:07:42.646Z</time>
      </trkpt>
      <trkpt lat="45.94648" lon="6.86269">
        <ele>1899</ele>
        <time>2026-08-04T10:07:43.646Z</time>
      </trkpt>
      <trkpt lat="45.94647" lon="6.8627">
        <ele>1899</ele>
        <time>2026-08-04T10:07:44.646Z</time>
      </trkpt>
      <trkpt lat="45.94647" lon="6.86271">
        <ele>1899</ele>
        <time>2026-08-04T10:07:45.646Z</time>
      </trkpt>
      <trkpt lat="45.94647" lon="6.86271">
        <ele>1899</ele>
        <time>2026-08-04T10:07:46.646Z</time>
      </trkpt>
      <trkpt lat="45.94646" lon="6.86271">
        <ele>1900</ele>
        <time>2026-08-04T10:07:47.646Z</time>
      </trkpt>
      <trkpt lat="45.94646" lon="6.86272">
        <ele>1900</ele>
        <time>2026-08-04T10:07:48.646Z</time>
      </trkpt>
      <trkpt lat="45.94646" lon="6.86272">
        <ele>1900</ele>
        <time>2026-08-04T10:07:49.646Z</time>
      </trkpt>
      <trkpt lat="45.94646" lon="6.86272">
        <ele>1900</ele>
        <time>2026-08-04T10:07:50.646Z</time>
      </trkpt>
      <trkpt lat="45.94646" lon="6.86272">
        <ele>1900</ele>
        <time>2026-08-04T10:07:51.646Z</time>
      </trkpt>
      <trkpt lat="45.94646" lon="6.86272">
        <ele>1900</ele>
        <time>2026-08-04T10:07:52.646Z</time>
      </trkpt>
      <trkpt lat="45.94646" lon="6.86271">
        <ele>1900</ele>
        <time>2026-08-04T10:07:53.646Z</time>
      </trkpt>
      <trkpt lat="45.94646" lon="6.86271">
        <ele>1899</ele>
        <time>2026-08-04T10:07:54.646Z</time>
      </trkpt>
      <trkpt lat="45.94646" lon="6.86271">
        <ele>1899</ele>
        <time>2026-08-04T10:07:55.646Z</time>
      </trkpt>
      <trkpt lat="45.94646" lon="6.86271">
        <ele>1899</ele>
        <time>2026-08-04T10:07:56.646Z</time>
      </trkpt>
      <trkpt lat="45.94646" lon="6.86271">
        <ele>1898</ele>
        <time>2026-08-04T10:07:57.646Z</time>
      </trkpt>
      <trkpt lat="45.94646" lon="6.86271">
        <ele>1898</ele>
        <time>2026-08-04T10:07:58.646Z</time>
      </trkpt>
      <trkpt lat="45.94646" lon="6.86271">
        <ele>1898</ele>
        <time>2026-08-04T10:07:59.646Z</time>
      </trkpt>
      <trkpt lat="45.94646" lon="6.86271">
        <ele>1898</ele>
        <time>2026-08-04T10:08:00.646Z</time>
      </trkpt>
      <trkpt lat="45.94646" lon="6.86271">
        <ele>1898</ele>
        <time>2026-08-04T10:08:01.646Z</time>
      </trkpt>
      <trkpt lat="45.94646" lon="6.86271">
        <ele>1898</ele>
        <time>2026-08-04T10:08:02.646Z</time>
      </trkpt>
      <trkpt lat="45.94646" lon="6.86271">
        <ele>1898</ele>
        <time>2026-08-04T10:08:03.646Z</time>
      </trkpt>
      <trkpt lat="45.94646" lon="6.86271">
        <ele>1898</ele>
        <time>2026-08-04T10:08:04.646Z</time>
      </trkpt>
      <trkpt lat="45.94646" lon="6.86271">
        <ele>1898</ele>
        <time>2026-08-04T10:08:05.646Z</time>
      </trkpt>
      <trkpt lat="45.94646" lon="6.86271">
        <ele>1898</ele>
        <time>2026-08-04T10:08:06.646Z</time>
      </trkpt>
      <trkpt lat="45.94646" lon="6.86271">
        <ele>1898</ele>
        <time>2026-08-04T10:08:07.646Z</time>
      </trkpt>
      <trkpt lat="45.94646" lon="6.86271">
        <ele>1898</ele>
        <time>2026-08-04T10:08:08.646Z</time>
      </trkpt>
      <trkpt lat="45.94646" lon="6.86271">
        <ele>1898</ele>
        <time>2026-08-04T10:08:09.646Z</time>
      </trkpt>
      <trkpt lat="45.94646" lon="6.86271">
        <ele>1898</ele>
        <time>2026-08-04T10:08:10.646Z</time>
      </trkpt>
      <trkpt lat="45.94646" lon="6.86271">
        <ele>1898</ele>
        <time>2026-08-04T10:08:11.646Z</time>
      </trkpt>
      <trkpt lat="45.94646" lon="6.86272">
        <ele>1898</ele>
        <time>2026-08-04T10:08:12.646Z</time>
      </trkpt>
      <trkpt lat="45.94645" lon="6.86273">
        <ele>1898</ele>
        <time>2026-08-04T10:08:13.646Z</time>
      </trkpt>
      <trkpt lat="45.94644" lon="6.86275">
        <ele>1898</ele>
        <time>2026-08-04T10:08:14.646Z</time>
      </trkpt>
      <trkpt lat="45.94642" lon="6.86277">
        <ele>1899</ele>
        <time>2026-08-04T10:08:15.646Z</time>
      </trkpt>
      <trkpt lat="45.94641" lon="6.8628">
        <ele>1898</ele>
        <time>2026-08-04T10:08:16.646Z</time>
      </trkpt>
      <trkpt lat="45.94639" lon="6.86283">
        <ele>1898</ele>
        <time>2026-08-04T10:08:17.646Z</time>
      </trkpt>
      <trkpt lat="45.94637" lon="6.86286">
        <ele>1898</ele>
        <time>2026-08-04T10:08:18.646Z</time>
      </trkpt>
      <trkpt lat="45.94635" lon="6.86289">
        <ele>1899</ele>
        <time>2026-08-04T10:08:19.646Z</time>
      </trkpt>
      <trkpt lat="45.94633" lon="6.86292">
        <ele>1899</ele>
        <time>2026-08-04T10:08:20.646Z</time>
      </trkpt>
      <trkpt lat="45.94631" lon="6.86294">
        <ele>1899</ele>
        <time>2026-08-04T10:08:21.646Z</time>
      </trkpt>
      <trkpt lat="45.94629" lon="6.86296">
        <ele>1899</ele>
        <time>2026-08-04T10:08:22.646Z</time>
      </trkpt>
      <trkpt lat="45.94628" lon="6.86297">
        <ele>1899</ele>
        <time>2026-08-04T10:08:23.646Z</time>
      </trkpt>
      <trkpt lat="45.94627" lon="6.86299">
        <ele>1899</ele>
        <time>2026-08-04T10:08:24.646Z</time>
      </trkpt>
      <trkpt lat="45.94626" lon="6.86302">
        <ele>1899</ele>
        <time>2026-08-04T10:08:25.646Z</time>
      </trkpt>
      <trkpt lat="45.94626" lon="6.86304">
        <ele>1899</ele>
        <time>2026-08-04T10:08:26.646Z</time>
      </trkpt>
      <trkpt lat="45.94627" lon="6.86307">
        <ele>1898</ele>
        <time>2026-08-04T10:08:27.646Z</time>
      </trkpt>
      <trkpt lat="45.94628" lon="6.86309">
        <ele>1898</ele>
        <time>2026-08-04T10:08:28.646Z</time>
      </trkpt>
      <trkpt lat="45.94628" lon="6.86311">
        <ele>1898</ele>
        <time>2026-08-04T10:08:29.646Z</time>
      </trkpt>
      <trkpt lat="45.94628" lon="6.86314">
        <ele>1897</ele>
        <time>2026-08-04T10:08:30.646Z</time>
      </trkpt>
      <trkpt lat="45.94628" lon="6.86315">
        <ele>1897</ele>
        <time>2026-08-04T10:08:31.646Z</time>
      </trkpt>
      <trkpt lat="45.94628" lon="6.86317">
        <ele>1896</ele>
        <time>2026-08-04T10:08:32.646Z</time>
      </trkpt>
      <trkpt lat="45.94629" lon="6.86319">
        <ele>1896</ele>
        <time>2026-08-04T10:08:33.646Z</time>
      </trkpt>
      <trkpt lat="45.94629" lon="6.86322">
        <ele>1895</ele>
        <time>2026-08-04T10:08:34.646Z</time>
      </trkpt>
      <trkpt lat="45.94629" lon="6.86325">
        <ele>1895</ele>
        <time>2026-08-04T10:08:35.646Z</time>
      </trkpt>
      <trkpt lat="45.94629" lon="6.86329">
        <ele>1894</ele>
        <time>2026-08-04T10:08:36.646Z</time>
      </trkpt>
      <trkpt lat="45.9463" lon="6.86332">
        <ele>1894</ele>
        <time>2026-08-04T10:08:37.646Z</time>
      </trkpt>
      <trkpt lat="45.94631" lon="6.86334">
        <ele>1894</ele>
        <time>2026-08-04T10:08:38.646Z</time>
      </trkpt>
      <trkpt lat="45.94631" lon="6.86337">
        <ele>1894</ele>
        <time>2026-08-04T10:08:39.646Z</time>
      </trkpt>
      <trkpt lat="45.94631" lon="6.86339">
        <ele>1894</ele>
        <time>2026-08-04T10:08:40.646Z</time>
      </trkpt>
      <trkpt lat="45.94631" lon="6.86343">
        <ele>1894</ele>
        <time>2026-08-04T10:08:41.646Z</time>
      </trkpt>
      <trkpt lat="45.94632" lon="6.86346">
        <ele>1894</ele>
        <time>2026-08-04T10:08:42.646Z</time>
      </trkpt>
      <trkpt lat="45.94632" lon="6.86348">
        <ele>1894</ele>
        <time>2026-08-04T10:08:43.646Z</time>
      </trkpt>
      <trkpt lat="45.94632" lon="6.86351">
        <ele>1894</ele>
        <time>2026-08-04T10:08:44.646Z</time>
      </trkpt>
      <trkpt lat="45.94632" lon="6.86353">
        <ele>1894</ele>
        <time>2026-08-04T10:08:45.646Z</time>
      </trkpt>
      <trkpt lat="45.94631" lon="6.86356">
        <ele>1894</ele>
        <time>2026-08-04T10:08:46.646Z</time>
      </trkpt>
      <trkpt lat="45.9463" lon="6.86358">
        <ele>1894</ele>
        <time>2026-08-04T10:08:47.646Z</time>
      </trkpt>
      <trkpt lat="45.94629" lon="6.8636">
        <ele>1894</ele>
        <time>2026-08-04T10:08:48.646Z</time>
      </trkpt>
      <trkpt lat="45.94628" lon="6.86364">
        <ele>1894</ele>
        <time>2026-08-04T10:08:49.646Z</time>
      </trkpt>
      <trkpt lat="45.94626" lon="6.86368">
        <ele>1894</ele>
        <time>2026-08-04T10:08:50.646Z</time>
      </trkpt>
      <trkpt lat="45.94625" lon="6.86371">
        <ele>1894</ele>
        <time>2026-08-04T10:08:51.646Z</time>
      </trkpt>
      <trkpt lat="45.94624" lon="6.86374">
        <ele>1893</ele>
        <time>2026-08-04T10:08:52.646Z</time>
      </trkpt>
      <trkpt lat="45.94623" lon="6.86378">
        <ele>1892</ele>
        <time>2026-08-04T10:08:53.646Z</time>
      </trkpt>
      <trkpt lat="45.94622" lon="6.86381">
        <ele>1891</ele>
        <time>2026-08-04T10:08:54.646Z</time>
      </trkpt>
      <trkpt lat="45.9462" lon="6.86383">
        <ele>1890</ele>
        <time>2026-08-04T10:08:55.646Z</time>
      </trkpt>
      <trkpt lat="45.94619" lon="6.86386">
        <ele>1890</ele>
        <time>2026-08-04T10:08:56.646Z</time>
      </trkpt>
      <trkpt lat="45.94618" lon="6.86388">
        <ele>1889</ele>
        <time>2026-08-04T10:08:57.646Z</time>
      </trkpt>
      <trkpt lat="45.94617" lon="6.8639">
        <ele>1889</ele>
        <time>2026-08-04T10:08:58.646Z</time>
      </trkpt>
      <trkpt lat="45.94616" lon="6.86393">
        <ele>1889</ele>
        <time>2026-08-04T10:08:59.646Z</time>
      </trkpt>
      <trkpt lat="45.94615" lon="6.86395">
        <ele>1888</ele>
        <time>2026-08-04T10:09:00.646Z</time>
      </trkpt>
      <trkpt lat="45.94614" lon="6.86397">
        <ele>1888</ele>
        <time>2026-08-04T10:09:01.646Z</time>
      </trkpt>
      <trkpt lat="45.94613" lon="6.864">
        <ele>1887</ele>
        <time>2026-08-04T10:09:02.646Z</time>
      </trkpt>
      <trkpt lat="45.94612" lon="6.86403">
        <ele>1887</ele>
        <time>2026-08-04T10:09:03.646Z</time>
      </trkpt>
      <trkpt lat="45.94611" lon="6.86405">
        <ele>1886</ele>
        <time>2026-08-04T10:09:04.646Z</time>
      </trkpt>
      <trkpt lat="45.94611" lon="6.86408">
        <ele>1886</ele>
        <time>2026-08-04T10:09:05.646Z</time>
      </trkpt>
      <trkpt lat="45.9461" lon="6.8641">
        <ele>1885</ele>
        <time>2026-08-04T10:09:06.646Z</time>
      </trkpt>
      <trkpt lat="45.94609" lon="6.86413">
        <ele>1885</ele>
        <time>2026-08-04T10:09:07.646Z</time>
      </trkpt>
      <trkpt lat="45.94609" lon="6.86415">
        <ele>1885</ele>
        <time>2026-08-04T10:09:08.646Z</time>
      </trkpt>
      <trkpt lat="45.94609" lon="6.86416">
        <ele>1885</ele>
        <time>2026-08-04T10:09:09.646Z</time>
      </trkpt>
      <trkpt lat="45.9461" lon="6.86417">
        <ele>1885</ele>
        <time>2026-08-04T10:09:10.646Z</time>
      </trkpt>
      <trkpt lat="45.94612" lon="6.86418">
        <ele>1884</ele>
        <time>2026-08-04T10:09:11.646Z</time>
      </trkpt>
      <trkpt lat="45.94612" lon="6.86418">
        <ele>1884</ele>
        <time>2026-08-04T10:09:12.646Z</time>
      </trkpt>
      <trkpt lat="45.94614" lon="6.8642">
        <ele>1884</ele>
        <time>2026-08-04T10:09:13.646Z</time>
      </trkpt>
      <trkpt lat="45.94615" lon="6.86424">
        <ele>1883</ele>
        <time>2026-08-04T10:09:14.646Z</time>
      </trkpt>
      <trkpt lat="45.94617" lon="6.86427">
        <ele>1883</ele>
        <time>2026-08-04T10:09:15.646Z</time>
      </trkpt>
      <trkpt lat="45.94619" lon="6.86428">
        <ele>1883</ele>
        <time>2026-08-04T10:09:16.646Z</time>
      </trkpt>
      <trkpt lat="45.94621" lon="6.86429">
        <ele>1882</ele>
        <time>2026-08-04T10:09:17.646Z</time>
      </trkpt>
      <trkpt lat="45.94622" lon="6.8643">
        <ele>1882</ele>
        <time>2026-08-04T10:09:18.646Z</time>
      </trkpt>
      <trkpt lat="45.94623" lon="6.8643">
        <ele>1882</ele>
        <time>2026-08-04T10:09:19.646Z</time>
      </trkpt>
      <trkpt lat="45.94625" lon="6.8643">
        <ele>1882</ele>
        <time>2026-08-04T10:09:20.646Z</time>
      </trkpt>
      <trkpt lat="45.94628" lon="6.86429">
        <ele>1881</ele>
        <time>2026-08-04T10:09:21.646Z</time>
      </trkpt>
      <trkpt lat="45.94631" lon="6.86429">
        <ele>1881</ele>
        <time>2026-08-04T10:09:22.646Z</time>
      </trkpt>
      <trkpt lat="45.94632" lon="6.86429">
        <ele>1881</ele>
        <time>2026-08-04T10:09:23.646Z</time>
      </trkpt>
      <trkpt lat="45.94635" lon="6.86431">
        <ele>1881</ele>
        <time>2026-08-04T10:09:24.646Z</time>
      </trkpt>
      <trkpt lat="45.94638" lon="6.86432">
        <ele>1881</ele>
        <time>2026-08-04T10:09:25.646Z</time>
      </trkpt>
      <trkpt lat="45.94639" lon="6.86434">
        <ele>1880</ele>
        <time>2026-08-04T10:09:26.646Z</time>
      </trkpt>
      <trkpt lat="45.9464" lon="6.86437">
        <ele>1880</ele>
        <time>2026-08-04T10:09:27.646Z</time>
      </trkpt>
      <trkpt lat="45.94641" lon="6.86439">
        <ele>1879</ele>
        <time>2026-08-04T10:09:28.646Z</time>
      </trkpt>
      <trkpt lat="45.94643" lon="6.86441">
        <ele>1879</ele>
        <time>2026-08-04T10:09:29.646Z</time>
      </trkpt>
      <trkpt lat="45.94645" lon="6.86443">
        <ele>1878</ele>
        <time>2026-08-04T10:09:30.646Z</time>
      </trkpt>
      <trkpt lat="45.94646" lon="6.86445">
        <ele>1877</ele>
        <time>2026-08-04T10:09:31.646Z</time>
      </trkpt>
      <trkpt lat="45.94647" lon="6.86446">
        <ele>1876</ele>
        <time>2026-08-04T10:09:32.646Z</time>
      </trkpt>
      <trkpt lat="45.94647" lon="6.86447">
        <ele>1875</ele>
        <time>2026-08-04T10:09:33.646Z</time>
      </trkpt>
      <trkpt lat="45.94648" lon="6.86447">
        <ele>1874</ele>
        <time>2026-08-04T10:09:34.646Z</time>
      </trkpt>
      <trkpt lat="45.94649" lon="6.86449">
        <ele>1874</ele>
        <time>2026-08-04T10:09:35.646Z</time>
      </trkpt>
      <trkpt lat="45.9465" lon="6.86452">
        <ele>1873</ele>
        <time>2026-08-04T10:09:36.646Z</time>
      </trkpt>
      <trkpt lat="45.94651" lon="6.86455">
        <ele>1872</ele>
        <time>2026-08-04T10:09:37.646Z</time>
      </trkpt>
      <trkpt lat="45.94653" lon="6.86457">
        <ele>1871</ele>
        <time>2026-08-04T10:09:38.646Z</time>
      </trkpt>
      <trkpt lat="45.94654" lon="6.86459">
        <ele>1871</ele>
        <time>2026-08-04T10:09:39.646Z</time>
      </trkpt>
      <trkpt lat="45.94655" lon="6.86459">
        <ele>1870</ele>
        <time>2026-08-04T10:09:40.646Z</time>
      </trkpt>
      <trkpt lat="45.94656" lon="6.86461">
        <ele>1869</ele>
        <time>2026-08-04T10:09:41.646Z</time>
      </trkpt>
      <trkpt lat="45.94657" lon="6.86463">
        <ele>1869</ele>
        <time>2026-08-04T10:09:42.646Z</time>
      </trkpt>
      <trkpt lat="45.94658" lon="6.86464">
        <ele>1868</ele>
        <time>2026-08-04T10:09:43.646Z</time>
      </trkpt>
      <trkpt lat="45.94659" lon="6.86465">
        <ele>1868</ele>
        <time>2026-08-04T10:09:44.646Z</time>
      </trkpt>
      <trkpt lat="45.94661" lon="6.86467">
        <ele>1868</ele>
        <time>2026-08-04T10:09:45.646Z</time>
      </trkpt>
      <trkpt lat="45.94662" lon="6.86469">
        <ele>1867</ele>
        <time>2026-08-04T10:09:46.646Z</time>
      </trkpt>
      <trkpt lat="45.94663" lon="6.86471">
        <ele>1867</ele>
        <time>2026-08-04T10:09:47.646Z</time>
      </trkpt>
      <trkpt lat="45.94664" lon="6.86472">
        <ele>1867</ele>
        <time>2026-08-04T10:09:48.646Z</time>
      </trkpt>
      <trkpt lat="45.94664" lon="6.86474">
        <ele>1868</ele>
        <time>2026-08-04T10:09:49.646Z</time>
      </trkpt>
      <trkpt lat="45.94665" lon="6.86476">
        <ele>1868</ele>
        <time>2026-08-04T10:09:50.646Z</time>
      </trkpt>
      <trkpt lat="45.94665" lon="6.86477">
        <ele>1868</ele>
        <time>2026-08-04T10:09:51.646Z</time>
      </trkpt>
      <trkpt lat="45.94665" lon="6.86479">
        <ele>1868</ele>
        <time>2026-08-04T10:09:52.646Z</time>
      </trkpt>
      <trkpt lat="45.94666" lon="6.8648">
        <ele>1868</ele>
        <time>2026-08-04T10:09:53.646Z</time>
      </trkpt>
      <trkpt lat="45.94666" lon="6.86481">
        <ele>1868</ele>
        <time>2026-08-04T10:09:54.646Z</time>
      </trkpt>
      <trkpt lat="45.94666" lon="6.86482">
        <ele>1868</ele>
        <time>2026-08-04T10:09:55.646Z</time>
      </trkpt>
      <trkpt lat="45.94667" lon="6.86484">
        <ele>1868</ele>
        <time>2026-08-04T10:09:56.646Z</time>
      </trkpt>
      <trkpt lat="45.94667" lon="6.86485">
        <ele>1869</ele>
        <time>2026-08-04T10:09:57.646Z</time>
      </trkpt>
      <trkpt lat="45.94667" lon="6.86487">
        <ele>1869</ele>
        <time>2026-08-04T10:09:58.646Z</time>
      </trkpt>
      <trkpt lat="45.94667" lon="6.86488">
        <ele>1869</ele>
        <time>2026-08-04T10:09:59.646Z</time>
      </trkpt>
      <trkpt lat="45.94668" lon="6.86489">
        <ele>1870</ele>
        <time>2026-08-04T10:10:00.646Z</time>
      </trkpt>
      <trkpt lat="45.94669" lon="6.8649">
        <ele>1870</ele>
        <time>2026-08-04T10:10:01.646Z</time>
      </trkpt>
      <trkpt lat="45.94671" lon="6.86491">
        <ele>1870</ele>
        <time>2026-08-04T10:10:02.646Z</time>
      </trkpt>
      <trkpt lat="45.94672" lon="6.86493">
        <ele>1870</ele>
        <time>2026-08-04T10:10:03.646Z</time>
      </trkpt>
      <trkpt lat="45.94673" lon="6.86495">
        <ele>1870</ele>
        <time>2026-08-04T10:10:04.646Z</time>
      </trkpt>
      <trkpt lat="45.94674" lon="6.86498">
        <ele>1870</ele>
        <time>2026-08-04T10:10:05.646Z</time>
      </trkpt>
      <trkpt lat="45.94676" lon="6.86502">
        <ele>1870</ele>
        <time>2026-08-04T10:10:06.646Z</time>
      </trkpt>
      <trkpt lat="45.94678" lon="6.86504">
        <ele>1870</ele>
        <time>2026-08-04T10:10:07.646Z</time>
      </trkpt>
      <trkpt lat="45.94679" lon="6.86505">
        <ele>1871</ele>
        <time>2026-08-04T10:10:08.646Z</time>
      </trkpt>
      <trkpt lat="45.9468" lon="6.86506">
        <ele>1871</ele>
        <time>2026-08-04T10:10:09.646Z</time>
      </trkpt>
      <trkpt lat="45.94683" lon="6.86507">
        <ele>1871</ele>
        <time>2026-08-04T10:10:10.646Z</time>
      </trkpt>
      <trkpt lat="45.94684" lon="6.86508">
        <ele>1871</ele>
        <time>2026-08-04T10:10:11.646Z</time>
      </trkpt>
      <trkpt lat="45.94687" lon="6.8651">
        <ele>1872</ele>
        <time>2026-08-04T10:10:12.646Z</time>
      </trkpt>
      <trkpt lat="45.94688" lon="6.86512">
        <ele>1872</ele>
        <time>2026-08-04T10:10:13.646Z</time>
      </trkpt>
      <trkpt lat="45.9469" lon="6.86515">
        <ele>1872</ele>
        <time>2026-08-04T10:10:14.646Z</time>
      </trkpt>
      <trkpt lat="45.94692" lon="6.86517">
        <ele>1872</ele>
        <time>2026-08-04T10:10:15.646Z</time>
      </trkpt>
      <trkpt lat="45.94693" lon="6.86521">
        <ele>1872</ele>
        <time>2026-08-04T10:10:16.646Z</time>
      </trkpt>
      <trkpt lat="45.94694" lon="6.86524">
        <ele>1872</ele>
        <time>2026-08-04T10:10:17.646Z</time>
      </trkpt>
      <trkpt lat="45.94694" lon="6.86528">
        <ele>1872</ele>
        <time>2026-08-04T10:10:18.646Z</time>
      </trkpt>
      <trkpt lat="45.94695" lon="6.86533">
        <ele>1872</ele>
        <time>2026-08-04T10:10:19.646Z</time>
      </trkpt>
      <trkpt lat="45.94695" lon="6.86536">
        <ele>1872</ele>
        <time>2026-08-04T10:10:20.646Z</time>
      </trkpt>
      <trkpt lat="45.94696" lon="6.8654">
        <ele>1871</ele>
        <time>2026-08-04T10:10:21.646Z</time>
      </trkpt>
      <trkpt lat="45.94696" lon="6.86543">
        <ele>1871</ele>
        <time>2026-08-04T10:10:22.646Z</time>
      </trkpt>
      <trkpt lat="45.94697" lon="6.86545">
        <ele>1871</ele>
        <time>2026-08-04T10:10:23.646Z</time>
      </trkpt>
      <trkpt lat="45.94697" lon="6.86547">
        <ele>1871</ele>
        <time>2026-08-04T10:10:24.646Z</time>
      </trkpt>
      <trkpt lat="45.94697" lon="6.86548">
        <ele>1870</ele>
        <time>2026-08-04T10:10:25.646Z</time>
      </trkpt>
      <trkpt lat="45.94697" lon="6.86551">
        <ele>1870</ele>
        <time>2026-08-04T10:10:26.646Z</time>
      </trkpt>
      <trkpt lat="45.94698" lon="6.86554">
        <ele>1869</ele>
        <time>2026-08-04T10:10:27.646Z</time>
      </trkpt>
      <trkpt lat="45.94698" lon="6.86557">
        <ele>1869</ele>
        <time>2026-08-04T10:10:28.646Z</time>
      </trkpt>
      <trkpt lat="45.94699" lon="6.8656">
        <ele>1868</ele>
        <time>2026-08-04T10:10:29.646Z</time>
      </trkpt>
      <trkpt lat="45.94699" lon="6.86563">
        <ele>1868</ele>
        <time>2026-08-04T10:10:30.646Z</time>
      </trkpt>
      <trkpt lat="45.94699" lon="6.86565">
        <ele>1867</ele>
        <time>2026-08-04T10:10:31.646Z</time>
      </trkpt>
      <trkpt lat="45.947" lon="6.86568">
        <ele>1866</ele>
        <time>2026-08-04T10:10:32.646Z</time>
      </trkpt>
      <trkpt lat="45.94701" lon="6.86569">
        <ele>1865</ele>
        <time>2026-08-04T10:10:33.646Z</time>
      </trkpt>
      <trkpt lat="45.94702" lon="6.86571">
        <ele>1865</ele>
        <time>2026-08-04T10:10:34.646Z</time>
      </trkpt>
      <trkpt lat="45.94702" lon="6.86573">
        <ele>1864</ele>
        <time>2026-08-04T10:10:35.646Z</time>
      </trkpt>
      <trkpt lat="45.94702" lon="6.86575">
        <ele>1864</ele>
        <time>2026-08-04T10:10:36.646Z</time>
      </trkpt>
      <trkpt lat="45.94702" lon="6.86578">
        <ele>1864</ele>
        <time>2026-08-04T10:10:37.646Z</time>
      </trkpt>
      <trkpt lat="45.94703" lon="6.8658">
        <ele>1863</ele>
        <time>2026-08-04T10:10:38.646Z</time>
      </trkpt>
      <trkpt lat="45.94703" lon="6.86583">
        <ele>1863</ele>
        <time>2026-08-04T10:10:39.646Z</time>
      </trkpt>
      <trkpt lat="45.94703" lon="6.86585">
        <ele>1863</ele>
        <time>2026-08-04T10:10:40.646Z</time>
      </trkpt>
      <trkpt lat="45.94704" lon="6.86587">
        <ele>1863</ele>
        <time>2026-08-04T10:10:41.646Z</time>
      </trkpt>
      <trkpt lat="45.94705" lon="6.86588">
        <ele>1862</ele>
        <time>2026-08-04T10:10:42.646Z</time>
      </trkpt>
      <trkpt lat="45.94705" lon="6.86591">
        <ele>1862</ele>
        <time>2026-08-04T10:10:43.646Z</time>
      </trkpt>
      <trkpt lat="45.94706" lon="6.86594">
        <ele>1862</ele>
        <time>2026-08-04T10:10:44.646Z</time>
      </trkpt>
      <trkpt lat="45.94706" lon="6.86595">
        <ele>1861</ele>
        <time>2026-08-04T10:10:45.646Z</time>
      </trkpt>
      <trkpt lat="45.94707" lon="6.86598">
        <ele>1861</ele>
        <time>2026-08-04T10:10:46.646Z</time>
      </trkpt>
      <trkpt lat="45.94707" lon="6.86601">
        <ele>1861</ele>
        <time>2026-08-04T10:10:47.646Z</time>
      </trkpt>
      <trkpt lat="45.94708" lon="6.86603">
        <ele>1861</ele>
        <time>2026-08-04T10:10:48.646Z</time>
      </trkpt>
      <trkpt lat="45.94709" lon="6.86605">
        <ele>1861</ele>
        <time>2026-08-04T10:10:49.646Z</time>
      </trkpt>
      <trkpt lat="45.94711" lon="6.86606">
        <ele>1861</ele>
        <time>2026-08-04T10:10:50.646Z</time>
      </trkpt>
      <trkpt lat="45.94713" lon="6.86607">
        <ele>1861</ele>
        <time>2026-08-04T10:10:51.646Z</time>
      </trkpt>
      <trkpt lat="45.94714" lon="6.86609">
        <ele>1861</ele>
        <time>2026-08-04T10:10:52.646Z</time>
      </trkpt>
      <trkpt lat="45.94716" lon="6.8661">
        <ele>1861</ele>
        <time>2026-08-04T10:10:53.646Z</time>
      </trkpt>
      <trkpt lat="45.94716" lon="6.86611">
        <ele>1861</ele>
        <time>2026-08-04T10:10:54.646Z</time>
      </trkpt>
      <trkpt lat="45.94717" lon="6.86612">
        <ele>1861</ele>
        <time>2026-08-04T10:10:55.646Z</time>
      </trkpt>
      <trkpt lat="45.94719" lon="6.86613">
        <ele>1860</ele>
        <time>2026-08-04T10:10:56.646Z</time>
      </trkpt>
      <trkpt lat="45.9472" lon="6.86614">
        <ele>1860</ele>
        <time>2026-08-04T10:10:57.646Z</time>
      </trkpt>
      <trkpt lat="45.94722" lon="6.86615">
        <ele>1860</ele>
        <time>2026-08-04T10:10:58.646Z</time>
      </trkpt>
      <trkpt lat="45.94724" lon="6.86617">
        <ele>1860</ele>
        <time>2026-08-04T10:10:59.646Z</time>
      </trkpt>
      <trkpt lat="45.94725" lon="6.86618">
        <ele>1860</ele>
        <time>2026-08-04T10:11:00.646Z</time>
      </trkpt>
      <trkpt lat="45.94727" lon="6.8662">
        <ele>1860</ele>
        <time>2026-08-04T10:11:01.646Z</time>
      </trkpt>
      <trkpt lat="45.94728" lon="6.86621">
        <ele>1860</ele>
        <time>2026-08-04T10:11:02.646Z</time>
      </trkpt>
      <trkpt lat="45.94729" lon="6.86622">
        <ele>1860</ele>
        <time>2026-08-04T10:11:03.646Z</time>
      </trkpt>
      <trkpt lat="45.9473" lon="6.86623">
        <ele>1860</ele>
        <time>2026-08-04T10:11:04.646Z</time>
      </trkpt>
      <trkpt lat="45.94731" lon="6.86624">
        <ele>1860</ele>
        <time>2026-08-04T10:11:05.646Z</time>
      </trkpt>
      <trkpt lat="45.94734" lon="6.86624">
        <ele>1860</ele>
        <time>2026-08-04T10:11:06.646Z</time>
      </trkpt>
      <trkpt lat="45.94736" lon="6.86624">
        <ele>1859</ele>
        <time>2026-08-04T10:11:07.646Z</time>
      </trkpt>
      <trkpt lat="45.94738" lon="6.86624">
        <ele>1859</ele>
        <time>2026-08-04T10:11:08.646Z</time>
      </trkpt>
      <trkpt lat="45.9474" lon="6.86623">
        <ele>1860</ele>
        <time>2026-08-04T10:11:09.646Z</time>
      </trkpt>
      <trkpt lat="45.94742" lon="6.86624">
        <ele>1860</ele>
        <time>2026-08-04T10:11:10.646Z</time>
      </trkpt>
      <trkpt lat="45.94744" lon="6.86626">
        <ele>1860</ele>
        <time>2026-08-04T10:11:11.646Z</time>
      </trkpt>
      <trkpt lat="45.94747" lon="6.86627">
        <ele>1860</ele>
        <time>2026-08-04T10:11:12.646Z</time>
      </trkpt>
      <trkpt lat="45.9475" lon="6.86628">
        <ele>1860</ele>
        <time>2026-08-04T10:11:13.646Z</time>
      </trkpt>
      <trkpt lat="45.94752" lon="6.86628">
        <ele>1860</ele>
        <time>2026-08-04T10:11:14.646Z</time>
      </trkpt>
      <trkpt lat="45.94752" lon="6.8663">
        <ele>1860</ele>
        <time>2026-08-04T10:11:15.646Z</time>
      </trkpt>
      <trkpt lat="45.94753" lon="6.86632">
        <ele>1859</ele>
        <time>2026-08-04T10:11:16.646Z</time>
      </trkpt>
      <trkpt lat="45.94753" lon="6.86634">
        <ele>1859</ele>
        <time>2026-08-04T10:11:17.646Z</time>
      </trkpt>
      <trkpt lat="45.94754" lon="6.86635">
        <ele>1858</ele>
        <time>2026-08-04T10:11:18.646Z</time>
      </trkpt>
      <trkpt lat="45.94755" lon="6.86637">
        <ele>1858</ele>
        <time>2026-08-04T10:11:19.646Z</time>
      </trkpt>
      <trkpt lat="45.94755" lon="6.86638">
        <ele>1858</ele>
        <time>2026-08-04T10:11:20.646Z</time>
      </trkpt>
      <trkpt lat="45.94756" lon="6.86639">
        <ele>1857</ele>
        <time>2026-08-04T10:11:21.646Z</time>
      </trkpt>
      <trkpt lat="45.94757" lon="6.86639">
        <ele>1857</ele>
        <time>2026-08-04T10:11:22.646Z</time>
      </trkpt>
      <trkpt lat="45.94758" lon="6.86639">
        <ele>1856</ele>
        <time>2026-08-04T10:11:23.646Z</time>
      </trkpt>
      <trkpt lat="45.9476" lon="6.86639">
        <ele>1856</ele>
        <time>2026-08-04T10:11:24.646Z</time>
      </trkpt>
      <trkpt lat="45.94762" lon="6.86638">
        <ele>1856</ele>
        <time>2026-08-04T10:11:25.646Z</time>
      </trkpt>
      <trkpt lat="45.94763" lon="6.86637">
        <ele>1856</ele>
        <time>2026-08-04T10:11:26.646Z</time>
      </trkpt>
      <trkpt lat="45.94763" lon="6.86637">
        <ele>1855</ele>
        <time>2026-08-04T10:11:27.646Z</time>
      </trkpt>
      <trkpt lat="45.94764" lon="6.86638">
        <ele>1855</ele>
        <time>2026-08-04T10:11:28.646Z</time>
      </trkpt>
      <trkpt lat="45.94766" lon="6.86637">
        <ele>1855</ele>
        <time>2026-08-04T10:11:29.646Z</time>
      </trkpt>
      <trkpt lat="45.94767" lon="6.86636">
        <ele>1855</ele>
        <time>2026-08-04T10:11:30.646Z</time>
      </trkpt>
      <trkpt lat="45.94768" lon="6.86636">
        <ele>1855</ele>
        <time>2026-08-04T10:11:31.646Z</time>
      </trkpt>
      <trkpt lat="45.9477" lon="6.86637">
        <ele>1855</ele>
        <time>2026-08-04T10:11:32.646Z</time>
      </trkpt>
      <trkpt lat="45.94771" lon="6.86639">
        <ele>1855</ele>
        <time>2026-08-04T10:11:33.646Z</time>
      </trkpt>
      <trkpt lat="45.94773" lon="6.86641">
        <ele>1855</ele>
        <time>2026-08-04T10:11:34.646Z</time>
      </trkpt>
      <trkpt lat="45.94774" lon="6.86643">
        <ele>1855</ele>
        <time>2026-08-04T10:11:35.646Z</time>
      </trkpt>
      <trkpt lat="45.94775" lon="6.86645">
        <ele>1855</ele>
        <time>2026-08-04T10:11:36.646Z</time>
      </trkpt>
      <trkpt lat="45.94777" lon="6.86647">
        <ele>1855</ele>
        <time>2026-08-04T10:11:37.646Z</time>
      </trkpt>
      <trkpt lat="45.9478" lon="6.86648">
        <ele>1855</ele>
        <time>2026-08-04T10:11:38.646Z</time>
      </trkpt>
      <trkpt lat="45.94781" lon="6.86649">
        <ele>1854</ele>
        <time>2026-08-04T10:11:39.646Z</time>
      </trkpt>
      <trkpt lat="45.94783" lon="6.8665">
        <ele>1854</ele>
        <time>2026-08-04T10:11:40.646Z</time>
      </trkpt>
      <trkpt lat="45.94784" lon="6.86652">
        <ele>1854</ele>
        <time>2026-08-04T10:11:41.646Z</time>
      </trkpt>
      <trkpt lat="45.94785" lon="6.86653">
        <ele>1853</ele>
        <time>2026-08-04T10:11:42.646Z</time>
      </trkpt>
      <trkpt lat="45.94786" lon="6.86654">
        <ele>1853</ele>
        <time>2026-08-04T10:11:43.646Z</time>
      </trkpt>
      <trkpt lat="45.94786" lon="6.86654">
        <ele>1853</ele>
        <time>2026-08-04T10:11:44.646Z</time>
      </trkpt>
      <trkpt lat="45.94787" lon="6.86654">
        <ele>1852</ele>
        <time>2026-08-04T10:11:45.646Z</time>
      </trkpt>
      <trkpt lat="45.94788" lon="6.86655">
        <ele>1852</ele>
        <time>2026-08-04T10:11:46.646Z</time>
      </trkpt>
      <trkpt lat="45.94789" lon="6.86657">
        <ele>1852</ele>
        <time>2026-08-04T10:11:47.646Z</time>
      </trkpt>
      <trkpt lat="45.9479" lon="6.86659">
        <ele>1852</ele>
        <time>2026-08-04T10:11:48.646Z</time>
      </trkpt>
      <trkpt lat="45.9479" lon="6.8666">
        <ele>1852</ele>
        <time>2026-08-04T10:11:49.646Z</time>
      </trkpt>
      <trkpt lat="45.94791" lon="6.86662">
        <ele>1852</ele>
        <time>2026-08-04T10:11:50.646Z</time>
      </trkpt>
      <trkpt lat="45.94791" lon="6.86663">
        <ele>1853</ele>
        <time>2026-08-04T10:11:51.646Z</time>
      </trkpt>
      <trkpt lat="45.94792" lon="6.86664">
        <ele>1853</ele>
        <time>2026-08-04T10:11:52.646Z</time>
      </trkpt>
      <trkpt lat="45.94792" lon="6.86664">
        <ele>1853</ele>
        <time>2026-08-04T10:11:53.646Z</time>
      </trkpt>
      <trkpt lat="45.94793" lon="6.86664">
        <ele>1853</ele>
        <time>2026-08-04T10:11:54.646Z</time>
      </trkpt>
      <trkpt lat="45.94794" lon="6.86664">
        <ele>1852</ele>
        <time>2026-08-04T10:11:55.646Z</time>
      </trkpt>
      <trkpt lat="45.94794" lon="6.86664">
        <ele>1852</ele>
        <time>2026-08-04T10:11:56.646Z</time>
      </trkpt>
      <trkpt lat="45.94794" lon="6.86664">
        <ele>1852</ele>
        <time>2026-08-04T10:11:57.646Z</time>
      </trkpt>
      <trkpt lat="45.94794" lon="6.86664">
        <ele>1852</ele>
        <time>2026-08-04T10:11:58.646Z</time>
      </trkpt>
      <trkpt lat="45.94794" lon="6.86664">
        <ele>1852</ele>
        <time>2026-08-04T10:11:59.646Z</time>
      </trkpt>
      <trkpt lat="45.94794" lon="6.86664">
        <ele>1852</ele>
        <time>2026-08-04T10:12:00.646Z</time>
      </trkpt>
      <trkpt lat="45.94794" lon="6.86664">
        <ele>1852</ele>
        <time>2026-08-04T10:12:01.646Z</time>
      </trkpt>
      <trkpt lat="45.94794" lon="6.86664">
        <ele>1852</ele>
        <time>2026-08-04T10:12:02.646Z</time>
      </trkpt>
      <trkpt lat="45.94794" lon="6.86664">
        <ele>1852</ele>
        <time>2026-08-04T10:12:03.646Z</time>
      </trkpt>
      <trkpt lat="45.94794" lon="6.86664">
        <ele>1852</ele>
        <time>2026-08-04T10:12:04.646Z</time>
      </trkpt>
      <trkpt lat="45.94794" lon="6.86664">
        <ele>1852</ele>
        <time>2026-08-04T10:12:05.646Z</time>
      </trkpt>
      <trkpt lat="45.94794" lon="6.86664">
        <ele>1852</ele>
        <time>2026-08-04T10:12:06.646Z</time>
      </trkpt>
      <trkpt lat="45.94794" lon="6.86664">
        <ele>1852</ele>
        <time>2026-08-04T10:12:07.646Z</time>
      </trkpt>
      <trkpt lat="45.94794" lon="6.86664">
        <ele>1852</ele>
        <time>2026-08-04T10:12:08.646Z</time>
      </trkpt>
      <trkpt lat="45.94794" lon="6.86664">
        <ele>1852</ele>
        <time>2026-08-04T10:12:09.646Z</time>
      </trkpt>
      <trkpt lat="45.94794" lon="6.86664">
        <ele>1852</ele>
        <time>2026-08-04T10:12:10.646Z</time>
      </trkpt>
      <trkpt lat="45.94794" lon="6.86664">
        <ele>1852</ele>
        <time>2026-08-04T10:12:11.646Z</time>
      </trkpt>
      <trkpt lat="45.94794" lon="6.86664">
        <ele>1852</ele>
        <time>2026-08-04T10:12:12.646Z</time>
      </trkpt>
      <trkpt lat="45.94794" lon="6.86664">
        <ele>1852</ele>
        <time>2026-08-04T10:12:13.646Z</time>
      </trkpt>
      <trkpt lat="45.94794" lon="6.86664">
        <ele>1852</ele>
        <time>2026-08-04T10:12:14.646Z</time>
      </trkpt>
      <trkpt lat="45.94794" lon="6.86664">
        <ele>1852</ele>
        <time>2026-08-04T10:12:15.646Z</time>
      </trkpt>
      <trkpt lat="45.94794" lon="6.86664">
        <ele>1852</ele>
        <time>2026-08-04T10:12:16.646Z</time>
      </trkpt>
      <trkpt lat="45.94794" lon="6.86664">
        <ele>1852</ele>
        <time>2026-08-04T10:12:17.646Z</time>
      </trkpt>
      <trkpt lat="45.94794" lon="6.86664">
        <ele>1852</ele>
        <time>2026-08-04T10:12:18.646Z</time>
      </trkpt>
      <trkpt lat="45.94794" lon="6.86663">
        <ele>1852</ele>
        <time>2026-08-04T10:12:19.646Z</time>
      </trkpt>
      <trkpt lat="45.94795" lon="6.86662">
        <ele>1852</ele>
        <time>2026-08-04T10:12:20.646Z</time>
      </trkpt>
      <trkpt lat="45.94796" lon="6.86662">
        <ele>1852</ele>
        <time>2026-08-04T10:12:21.646Z</time>
      </trkpt>
      <trkpt lat="45.94797" lon="6.86662">
        <ele>1852</ele>
        <time>2026-08-04T10:12:22.646Z</time>
      </trkpt>
      <trkpt lat="45.94798" lon="6.86662">
        <ele>1852</ele>
        <time>2026-08-04T10:12:23.646Z</time>
      </trkpt>
      <trkpt lat="45.94799" lon="6.86663">
        <ele>1852</ele>
        <time>2026-08-04T10:12:24.646Z</time>
      </trkpt>
      <trkpt lat="45.948" lon="6.86663">
        <ele>1852</ele>
        <time>2026-08-04T10:12:25.646Z</time>
      </trkpt>
      <trkpt lat="45.94801" lon="6.86663">
        <ele>1852</ele>
        <time>2026-08-04T10:12:26.646Z</time>
      </trkpt>
      <trkpt lat="45.94802" lon="6.86663">
        <ele>1852</ele>
        <time>2026-08-04T10:12:27.646Z</time>
      </trkpt>
      <trkpt lat="45.94804" lon="6.86663">
        <ele>1852</ele>
        <time>2026-08-04T10:12:28.646Z</time>
      </trkpt>
      <trkpt lat="45.94805" lon="6.86662">
        <ele>1852</ele>
        <time>2026-08-04T10:12:29.646Z</time>
      </trkpt>
      <trkpt lat="45.94807" lon="6.86662">
        <ele>1852</ele>
        <time>2026-08-04T10:12:30.646Z</time>
      </trkpt>
      <trkpt lat="45.94808" lon="6.86662">
        <ele>1852</ele>
        <time>2026-08-04T10:12:31.646Z</time>
      </trkpt>
      <trkpt lat="45.9481" lon="6.86662">
        <ele>1852</ele>
        <time>2026-08-04T10:12:32.646Z</time>
      </trkpt>
      <trkpt lat="45.94812" lon="6.86663">
        <ele>1852</ele>
        <time>2026-08-04T10:12:33.646Z</time>
      </trkpt>
      <trkpt lat="45.94813" lon="6.86663">
        <ele>1852</ele>
        <time>2026-08-04T10:12:34.646Z</time>
      </trkpt>
      <trkpt lat="45.94815" lon="6.86663">
        <ele>1852</ele>
        <time>2026-08-04T10:12:35.646Z</time>
      </trkpt>
      <trkpt lat="45.94816" lon="6.86663">
        <ele>1851</ele>
        <time>2026-08-04T10:12:36.646Z</time>
      </trkpt>
      <trkpt lat="45.94817" lon="6.86663">
        <ele>1851</ele>
        <time>2026-08-04T10:12:37.646Z</time>
      </trkpt>
      <trkpt lat="45.94818" lon="6.86664">
        <ele>1851</ele>
        <time>2026-08-04T10:12:38.646Z</time>
      </trkpt>
      <trkpt lat="45.9482" lon="6.86664">
        <ele>1850</ele>
        <time>2026-08-04T10:12:39.646Z</time>
      </trkpt>
      <trkpt lat="45.94822" lon="6.86665">
        <ele>1850</ele>
        <time>2026-08-04T10:12:40.646Z</time>
      </trkpt>
      <trkpt lat="45.94823" lon="6.86665">
        <ele>1850</ele>
        <time>2026-08-04T10:12:41.646Z</time>
      </trkpt>
      <trkpt lat="45.94825" lon="6.86665">
        <ele>1850</ele>
        <time>2026-08-04T10:12:42.646Z</time>
      </trkpt>
      <trkpt lat="45.94827" lon="6.86665">
        <ele>1850</ele>
        <time>2026-08-04T10:12:43.646Z</time>
      </trkpt>
      <trkpt lat="45.94829" lon="6.86665">
        <ele>1850</ele>
        <time>2026-08-04T10:12:44.646Z</time>
      </trkpt>
      <trkpt lat="45.94831" lon="6.86666">
        <ele>1850</ele>
        <time>2026-08-04T10:12:45.646Z</time>
      </trkpt>
      <trkpt lat="45.94833" lon="6.86668">
        <ele>1849</ele>
        <time>2026-08-04T10:12:46.646Z</time>
      </trkpt>
      <trkpt lat="45.94835" lon="6.8667">
        <ele>1849</ele>
        <time>2026-08-04T10:12:47.646Z</time>
      </trkpt>
      <trkpt lat="45.94837" lon="6.86673">
        <ele>1849</ele>
        <time>2026-08-04T10:12:48.646Z</time>
      </trkpt>
      <trkpt lat="45.94839" lon="6.86676">
        <ele>1848</ele>
        <time>2026-08-04T10:12:49.646Z</time>
      </trkpt>
      <trkpt lat="45.9484" lon="6.8668">
        <ele>1848</ele>
        <time>2026-08-04T10:12:50.646Z</time>
      </trkpt>
      <trkpt lat="45.94842" lon="6.86685">
        <ele>1848</ele>
        <time>2026-08-04T10:12:51.646Z</time>
      </trkpt>
      <trkpt lat="45.94843" lon="6.86689">
        <ele>1848</ele>
        <time>2026-08-04T10:12:52.646Z</time>
      </trkpt>
      <trkpt lat="45.94844" lon="6.86692">
        <ele>1848</ele>
        <time>2026-08-04T10:12:53.646Z</time>
      </trkpt>
      <trkpt lat="45.94845" lon="6.86696">
        <ele>1848</ele>
        <time>2026-08-04T10:12:54.646Z</time>
      </trkpt>
      <trkpt lat="45.94846" lon="6.86699">
        <ele>1847</ele>
        <time>2026-08-04T10:12:55.646Z</time>
      </trkpt>
      <trkpt lat="45.94847" lon="6.86702">
        <ele>1847</ele>
        <time>2026-08-04T10:12:56.646Z</time>
      </trkpt>
      <trkpt lat="45.94849" lon="6.86705">
        <ele>1847</ele>
        <time>2026-08-04T10:12:57.646Z</time>
      </trkpt>
      <trkpt lat="45.9485" lon="6.86707">
        <ele>1847</ele>
        <time>2026-08-04T10:12:58.646Z</time>
      </trkpt>
      <trkpt lat="45.94851" lon="6.86709">
        <ele>1846</ele>
        <time>2026-08-04T10:12:59.646Z</time>
      </trkpt>
      <trkpt lat="45.94852" lon="6.86711">
        <ele>1846</ele>
        <time>2026-08-04T10:13:00.646Z</time>
      </trkpt>
      <trkpt lat="45.94853" lon="6.86713">
        <ele>1846</ele>
        <time>2026-08-04T10:13:01.646Z</time>
      </trkpt>
      <trkpt lat="45.94854" lon="6.86714">
        <ele>1846</ele>
        <time>2026-08-04T10:13:02.646Z</time>
      </trkpt>
      <trkpt lat="45.94855" lon="6.86716">
        <ele>1846</ele>
        <time>2026-08-04T10:13:03.646Z</time>
      </trkpt>
      <trkpt lat="45.94856" lon="6.86716">
        <ele>1846</ele>
        <time>2026-08-04T10:13:04.646Z</time>
      </trkpt>
      <trkpt lat="45.94857" lon="6.86717">
        <ele>1846</ele>
        <time>2026-08-04T10:13:05.646Z</time>
      </trkpt>
      <trkpt lat="45.94859" lon="6.86719">
        <ele>1846</ele>
        <time>2026-08-04T10:13:06.646Z</time>
      </trkpt>
      <trkpt lat="45.9486" lon="6.86721">
        <ele>1846</ele>
        <time>2026-08-04T10:13:07.646Z</time>
      </trkpt>
      <trkpt lat="45.94862" lon="6.86723">
        <ele>1846</ele>
        <time>2026-08-04T10:13:08.646Z</time>
      </trkpt>
      <trkpt lat="45.94863" lon="6.86726">
        <ele>1845</ele>
        <time>2026-08-04T10:13:09.646Z</time>
      </trkpt>
      <trkpt lat="45.94864" lon="6.8673">
        <ele>1845</ele>
        <time>2026-08-04T10:13:10.646Z</time>
      </trkpt>
      <trkpt lat="45.94865" lon="6.86733">
        <ele>1844</ele>
        <time>2026-08-04T10:13:11.646Z</time>
      </trkpt>
      <trkpt lat="45.94866" lon="6.86735">
        <ele>1844</ele>
        <time>2026-08-04T10:13:12.646Z</time>
      </trkpt>
      <trkpt lat="45.94867" lon="6.86738">
        <ele>1843</ele>
        <time>2026-08-04T10:13:13.646Z</time>
      </trkpt>
      <trkpt lat="45.94867" lon="6.8674">
        <ele>1843</ele>
        <time>2026-08-04T10:13:14.646Z</time>
      </trkpt>
      <trkpt lat="45.94867" lon="6.86741">
        <ele>1842</ele>
        <time>2026-08-04T10:13:15.646Z</time>
      </trkpt>
      <trkpt lat="45.94868" lon="6.86742">
        <ele>1842</ele>
        <time>2026-08-04T10:13:16.646Z</time>
      </trkpt>
      <trkpt lat="45.94869" lon="6.86744">
        <ele>1841</ele>
        <time>2026-08-04T10:13:17.646Z</time>
      </trkpt>
      <trkpt lat="45.9487" lon="6.86747">
        <ele>1841</ele>
        <time>2026-08-04T10:13:18.646Z</time>
      </trkpt>
      <trkpt lat="45.94871" lon="6.8675">
        <ele>1841</ele>
        <time>2026-08-04T10:13:19.646Z</time>
      </trkpt>
      <trkpt lat="45.94871" lon="6.86752">
        <ele>1840</ele>
        <time>2026-08-04T10:13:20.646Z</time>
      </trkpt>
      <trkpt lat="45.94872" lon="6.86755">
        <ele>1840</ele>
        <time>2026-08-04T10:13:21.646Z</time>
      </trkpt>
      <trkpt lat="45.94873" lon="6.86757">
        <ele>1839</ele>
        <time>2026-08-04T10:13:22.646Z</time>
      </trkpt>
      <trkpt lat="45.94874" lon="6.86759">
        <ele>1839</ele>
        <time>2026-08-04T10:13:23.646Z</time>
      </trkpt>
      <trkpt lat="45.94875" lon="6.86761">
        <ele>1838</ele>
        <time>2026-08-04T10:13:24.646Z</time>
      </trkpt>
      <trkpt lat="45.94876" lon="6.86763">
        <ele>1838</ele>
        <time>2026-08-04T10:13:25.646Z</time>
      </trkpt>
      <trkpt lat="45.94877" lon="6.86764">
        <ele>1838</ele>
        <time>2026-08-04T10:13:26.646Z</time>
      </trkpt>
      <trkpt lat="45.94878" lon="6.86765">
        <ele>1837</ele>
        <time>2026-08-04T10:13:27.646Z</time>
      </trkpt>
      <trkpt lat="45.94879" lon="6.86767">
        <ele>1837</ele>
        <time>2026-08-04T10:13:28.646Z</time>
      </trkpt>
      <trkpt lat="45.94881" lon="6.86769">
        <ele>1837</ele>
        <time>2026-08-04T10:13:29.646Z</time>
      </trkpt>
      <trkpt lat="45.94882" lon="6.8677">
        <ele>1837</ele>
        <time>2026-08-04T10:13:30.646Z</time>
      </trkpt>
      <trkpt lat="45.94883" lon="6.86771">
        <ele>1837</ele>
        <time>2026-08-04T10:13:31.646Z</time>
      </trkpt>
      <trkpt lat="45.94885" lon="6.86771">
        <ele>1837</ele>
        <time>2026-08-04T10:13:32.646Z</time>
      </trkpt>
      <trkpt lat="45.94886" lon="6.86772">
        <ele>1837</ele>
        <time>2026-08-04T10:13:33.646Z</time>
      </trkpt>
      <trkpt lat="45.94888" lon="6.86774">
        <ele>1836</ele>
        <time>2026-08-04T10:13:34.646Z</time>
      </trkpt>
      <trkpt lat="45.94889" lon="6.86777">
        <ele>1836</ele>
        <time>2026-08-04T10:13:35.646Z</time>
      </trkpt>
      <trkpt lat="45.94891" lon="6.86778">
        <ele>1836</ele>
        <time>2026-08-04T10:13:36.646Z</time>
      </trkpt>
      <trkpt lat="45.94892" lon="6.86779">
        <ele>1835</ele>
        <time>2026-08-04T10:13:37.646Z</time>
      </trkpt>
      <trkpt lat="45.94894" lon="6.86781">
        <ele>1835</ele>
        <time>2026-08-04T10:13:38.646Z</time>
      </trkpt>
      <trkpt lat="45.94895" lon="6.86782">
        <ele>1835</ele>
        <time>2026-08-04T10:13:39.646Z</time>
      </trkpt>
      <trkpt lat="45.94897" lon="6.86783">
        <ele>1835</ele>
        <time>2026-08-04T10:13:40.646Z</time>
      </trkpt>
      <trkpt lat="45.94899" lon="6.86783">
        <ele>1835</ele>
        <time>2026-08-04T10:13:41.646Z</time>
      </trkpt>
      <trkpt lat="45.94901" lon="6.86784">
        <ele>1834</ele>
        <time>2026-08-04T10:13:42.646Z</time>
      </trkpt>
      <trkpt lat="45.94903" lon="6.86783">
        <ele>1834</ele>
        <time>2026-08-04T10:13:43.646Z</time>
      </trkpt>
      <trkpt lat="45.94904" lon="6.86783">
        <ele>1834</ele>
        <time>2026-08-04T10:13:44.646Z</time>
      </trkpt>
      <trkpt lat="45.94906" lon="6.86783">
        <ele>1833</ele>
        <time>2026-08-04T10:13:45.646Z</time>
      </trkpt>
      <trkpt lat="45.94907" lon="6.86783">
        <ele>1833</ele>
        <time>2026-08-04T10:13:46.646Z</time>
      </trkpt>
      <trkpt lat="45.94909" lon="6.86784">
        <ele>1832</ele>
        <time>2026-08-04T10:13:47.646Z</time>
      </trkpt>
      <trkpt lat="45.9491" lon="6.86785">
        <ele>1832</ele>
        <time>2026-08-04T10:13:48.646Z</time>
      </trkpt>
      <trkpt lat="45.9491" lon="6.86787">
        <ele>1831</ele>
        <time>2026-08-04T10:13:49.646Z</time>
      </trkpt>
      <trkpt lat="45.9491" lon="6.86789">
        <ele>1831</ele>
        <time>2026-08-04T10:13:50.646Z</time>
      </trkpt>
      <trkpt lat="45.94909" lon="6.86791">
        <ele>1830</ele>
        <time>2026-08-04T10:13:51.646Z</time>
      </trkpt>
      <trkpt lat="45.94908" lon="6.86792">
        <ele>1830</ele>
        <time>2026-08-04T10:13:52.646Z</time>
      </trkpt>
      <trkpt lat="45.94908" lon="6.86793">
        <ele>1829</ele>
        <time>2026-08-04T10:13:53.646Z</time>
      </trkpt>
      <trkpt lat="45.94908" lon="6.86794">
        <ele>1829</ele>
        <time>2026-08-04T10:13:54.646Z</time>
      </trkpt>
      <trkpt lat="45.94908" lon="6.86795">
        <ele>1829</ele>
        <time>2026-08-04T10:13:55.646Z</time>
      </trkpt>
      <trkpt lat="45.94909" lon="6.86795">
        <ele>1828</ele>
        <time>2026-08-04T10:13:56.646Z</time>
      </trkpt>
      <trkpt lat="45.94911" lon="6.86795">
        <ele>1828</ele>
        <time>2026-08-04T10:13:57.646Z</time>
      </trkpt>
      <trkpt lat="45.94912" lon="6.86796">
        <ele>1828</ele>
        <time>2026-08-04T10:13:58.646Z</time>
      </trkpt>
      <trkpt lat="45.94913" lon="6.86798">
        <ele>1827</ele>
        <time>2026-08-04T10:13:59.646Z</time>
      </trkpt>
      <trkpt lat="45.94914" lon="6.86799">
        <ele>1827</ele>
        <time>2026-08-04T10:14:00.646Z</time>
      </trkpt>
      <trkpt lat="45.94915" lon="6.86799">
        <ele>1826</ele>
        <time>2026-08-04T10:14:01.646Z</time>
      </trkpt>
      <trkpt lat="45.94916" lon="6.868">
        <ele>1826</ele>
        <time>2026-08-04T10:14:02.646Z</time>
      </trkpt>
      <trkpt lat="45.94917" lon="6.86801">
        <ele>1826</ele>
        <time>2026-08-04T10:14:03.646Z</time>
      </trkpt>
      <trkpt lat="45.94918" lon="6.86802">
        <ele>1826</ele>
        <time>2026-08-04T10:14:04.646Z</time>
      </trkpt>
      <trkpt lat="45.9492" lon="6.86803">
        <ele>1825</ele>
        <time>2026-08-04T10:14:05.646Z</time>
      </trkpt>
      <trkpt lat="45.94921" lon="6.86805">
        <ele>1825</ele>
        <time>2026-08-04T10:14:06.646Z</time>
      </trkpt>
      <trkpt lat="45.94921" lon="6.86806">
        <ele>1825</ele>
        <time>2026-08-04T10:14:07.646Z</time>
      </trkpt>
      <trkpt lat="45.94922" lon="6.86808">
        <ele>1825</ele>
        <time>2026-08-04T10:14:08.646Z</time>
      </trkpt>
      <trkpt lat="45.94923" lon="6.86809">
        <ele>1825</ele>
        <time>2026-08-04T10:14:09.646Z</time>
      </trkpt>
      <trkpt lat="45.94923" lon="6.86811">
        <ele>1825</ele>
        <time>2026-08-04T10:14:10.646Z</time>
      </trkpt>
      <trkpt lat="45.94924" lon="6.86812">
        <ele>1824</ele>
        <time>2026-08-04T10:14:11.646Z</time>
      </trkpt>
      <trkpt lat="45.94925" lon="6.86813">
        <ele>1824</ele>
        <time>2026-08-04T10:14:12.646Z</time>
      </trkpt>
      <trkpt lat="45.94925" lon="6.86814">
        <ele>1823</ele>
        <time>2026-08-04T10:14:13.646Z</time>
      </trkpt>
      <trkpt lat="45.94926" lon="6.86815">
        <ele>1823</ele>
        <time>2026-08-04T10:14:14.646Z</time>
      </trkpt>
      <trkpt lat="45.94926" lon="6.86815">
        <ele>1823</ele>
        <time>2026-08-04T10:14:15.646Z</time>
      </trkpt>
      <trkpt lat="45.94927" lon="6.86815">
        <ele>1822</ele>
        <time>2026-08-04T10:14:16.646Z</time>
      </trkpt>
      <trkpt lat="45.94927" lon="6.86815">
        <ele>1822</ele>
        <time>2026-08-04T10:14:17.646Z</time>
      </trkpt>
      <trkpt lat="45.94928" lon="6.86816">
        <ele>1822</ele>
        <time>2026-08-04T10:14:18.646Z</time>
      </trkpt>
      <trkpt lat="45.94929" lon="6.86816">
        <ele>1821</ele>
        <time>2026-08-04T10:14:19.646Z</time>
      </trkpt>
      <trkpt lat="45.94929" lon="6.86816">
        <ele>1821</ele>
        <time>2026-08-04T10:14:20.646Z</time>
      </trkpt>
      <trkpt lat="45.94929" lon="6.86816">
        <ele>1820</ele>
        <time>2026-08-04T10:14:21.646Z</time>
      </trkpt>
      <trkpt lat="45.94929" lon="6.86817">
        <ele>1820</ele>
        <time>2026-08-04T10:14:22.646Z</time>
      </trkpt>
      <trkpt lat="45.9493" lon="6.86817">
        <ele>1819</ele>
        <time>2026-08-04T10:14:23.646Z</time>
      </trkpt>
      <trkpt lat="45.9493" lon="6.86817">
        <ele>1819</ele>
        <time>2026-08-04T10:14:24.646Z</time>
      </trkpt>
      <trkpt lat="45.9493" lon="6.86817">
        <ele>1819</ele>
        <time>2026-08-04T10:14:25.646Z</time>
      </trkpt>
      <trkpt lat="45.94929" lon="6.86818">
        <ele>1819</ele>
        <time>2026-08-04T10:14:26.646Z</time>
      </trkpt>
      <trkpt lat="45.94929" lon="6.86818">
        <ele>1819</ele>
        <time>2026-08-04T10:14:27.646Z</time>
      </trkpt>
      <trkpt lat="45.94929" lon="6.86819">
        <ele>1819</ele>
        <time>2026-08-04T10:14:28.646Z</time>
      </trkpt>
      <trkpt lat="45.94928" lon="6.86821">
        <ele>1820</ele>
        <time>2026-08-04T10:15:05.132Z</time>
      </trkpt>
      <trkpt lat="45.94927" lon="6.86821">
        <ele>1820</ele>
        <time>2026-08-04T10:15:06.132Z</time>
      </trkpt>
      <trkpt lat="45.94926" lon="6.86823">
        <ele>1820</ele>
        <time>2026-08-04T10:15:07.132Z</time>
      </trkpt>
      <trkpt lat="45.94925" lon="6.86825">
        <ele>1820</ele>
        <time>2026-08-04T10:15:08.132Z</time>
      </trkpt>
      <trkpt lat="45.94924" lon="6.86827">
        <ele>1819</ele>
        <time>2026-08-04T10:15:09.132Z</time>
      </trkpt>
      <trkpt lat="45.94923" lon="6.86829">
        <ele>1819</ele>
        <time>2026-08-04T10:15:10.132Z</time>
      </trkpt>
      <trkpt lat="45.94922" lon="6.86831">
        <ele>1818</ele>
        <time>2026-08-04T10:15:11.132Z</time>
      </trkpt>
      <trkpt lat="45.94921" lon="6.86832">
        <ele>1818</ele>
        <time>2026-08-04T10:15:12.132Z</time>
      </trkpt>
      <trkpt lat="45.9492" lon="6.86834">
        <ele>1818</ele>
        <time>2026-08-04T10:15:13.132Z</time>
      </trkpt>
      <trkpt lat="45.94919" lon="6.86836">
        <ele>1817</ele>
        <time>2026-08-04T10:15:14.132Z</time>
      </trkpt>
      <trkpt lat="45.94918" lon="6.86838">
        <ele>1817</ele>
        <time>2026-08-04T10:15:15.132Z</time>
      </trkpt>
      <trkpt lat="45.94918" lon="6.8684">
        <ele>1816</ele>
        <time>2026-08-04T10:15:16.132Z</time>
      </trkpt>
      <trkpt lat="45.94918" lon="6.86841">
        <ele>1816</ele>
        <time>2026-08-04T10:15:17.132Z</time>
      </trkpt>
      <trkpt lat="45.94918" lon="6.86842">
        <ele>1816</ele>
        <time>2026-08-04T10:15:18.132Z</time>
      </trkpt>
      <trkpt lat="45.94918" lon="6.86844">
        <ele>1816</ele>
        <time>2026-08-04T10:15:19.132Z</time>
      </trkpt>
      <trkpt lat="45.94918" lon="6.86844">
        <ele>1815</ele>
        <time>2026-08-04T10:15:20.132Z</time>
      </trkpt>
      <trkpt lat="45.94918" lon="6.86845">
        <ele>1815</ele>
        <time>2026-08-04T10:15:21.132Z</time>
      </trkpt>
      <trkpt lat="45.94917" lon="6.86846">
        <ele>1814</ele>
        <time>2026-08-04T10:15:22.132Z</time>
      </trkpt>
      <trkpt lat="45.94917" lon="6.86847">
        <ele>1814</ele>
        <time>2026-08-04T10:15:23.132Z</time>
      </trkpt>
      <trkpt lat="45.94917" lon="6.86848">
        <ele>1814</ele>
        <time>2026-08-04T10:15:24.132Z</time>
      </trkpt>
      <trkpt lat="45.94917" lon="6.86849">
        <ele>1814</ele>
        <time>2026-08-04T10:15:25.132Z</time>
      </trkpt>
      <trkpt lat="45.94917" lon="6.8685">
        <ele>1814</ele>
        <time>2026-08-04T10:15:26.132Z</time>
      </trkpt>
      <trkpt lat="45.94917" lon="6.86851">
        <ele>1814</ele>
        <time>2026-08-04T10:15:27.132Z</time>
      </trkpt>
      <trkpt lat="45.94917" lon="6.86852">
        <ele>1813</ele>
        <time>2026-08-04T10:15:28.132Z</time>
      </trkpt>
      <trkpt lat="45.94918" lon="6.86854">
        <ele>1813</ele>
        <time>2026-08-04T10:15:29.132Z</time>
      </trkpt>
      <trkpt lat="45.94917" lon="6.86856">
        <ele>1813</ele>
        <time>2026-08-04T10:15:30.132Z</time>
      </trkpt>
      <trkpt lat="45.94917" lon="6.86857">
        <ele>1812</ele>
        <time>2026-08-04T10:15:31.132Z</time>
      </trkpt>
      <trkpt lat="45.94917" lon="6.86859">
        <ele>1812</ele>
        <time>2026-08-04T10:15:32.132Z</time>
      </trkpt>
      <trkpt lat="45.94917" lon="6.86861">
        <ele>1812</ele>
        <time>2026-08-04T10:15:33.132Z</time>
      </trkpt>
      <trkpt lat="45.94918" lon="6.86862">
        <ele>1812</ele>
        <time>2026-08-04T10:15:34.132Z</time>
      </trkpt>
      <trkpt lat="45.94918" lon="6.86864">
        <ele>1812</ele>
        <time>2026-08-04T10:15:35.132Z</time>
      </trkpt>
      <trkpt lat="45.94919" lon="6.86865">
        <ele>1812</ele>
        <time>2026-08-04T10:15:36.132Z</time>
      </trkpt>
      <trkpt lat="45.94919" lon="6.86867">
        <ele>1812</ele>
        <time>2026-08-04T10:15:37.132Z</time>
      </trkpt>
      <trkpt lat="45.9492" lon="6.86869">
        <ele>1812</ele>
        <time>2026-08-04T10:15:38.132Z</time>
      </trkpt>
      <trkpt lat="45.9492" lon="6.86871">
        <ele>1812</ele>
        <time>2026-08-04T10:15:39.132Z</time>
      </trkpt>
      <trkpt lat="45.9492" lon="6.86873">
        <ele>1812</ele>
        <time>2026-08-04T10:15:40.132Z</time>
      </trkpt>
      <trkpt lat="45.9492" lon="6.86875">
        <ele>1812</ele>
        <time>2026-08-04T10:15:41.132Z</time>
      </trkpt>
      <trkpt lat="45.9492" lon="6.86878">
        <ele>1812</ele>
        <time>2026-08-04T10:15:42.132Z</time>
      </trkpt>
      <trkpt lat="45.9492" lon="6.8688">
        <ele>1811</ele>
        <time>2026-08-04T10:15:43.132Z</time>
      </trkpt>
      <trkpt lat="45.9492" lon="6.86881">
        <ele>1811</ele>
        <time>2026-08-04T10:15:44.132Z</time>
      </trkpt>
      <trkpt lat="45.9492" lon="6.86883">
        <ele>1810</ele>
        <time>2026-08-04T10:15:45.132Z</time>
      </trkpt>
      <trkpt lat="45.9492" lon="6.86885">
        <ele>1810</ele>
        <time>2026-08-04T10:15:46.132Z</time>
      </trkpt>
      <trkpt lat="45.9492" lon="6.86888">
        <ele>1809</ele>
        <time>2026-08-04T10:15:47.132Z</time>
      </trkpt>
      <trkpt lat="45.94921" lon="6.8689">
        <ele>1809</ele>
        <time>2026-08-04T10:15:48.132Z</time>
      </trkpt>
      <trkpt lat="45.94921" lon="6.86892">
        <ele>1808</ele>
        <time>2026-08-04T10:15:49.132Z</time>
      </trkpt>
      <trkpt lat="45.94921" lon="6.86894">
        <ele>1808</ele>
        <time>2026-08-04T10:15:50.132Z</time>
      </trkpt>
      <trkpt lat="45.94921" lon="6.86896">
        <ele>1807</ele>
        <time>2026-08-04T10:15:51.132Z</time>
      </trkpt>
      <trkpt lat="45.9492" lon="6.86898">
        <ele>1807</ele>
        <time>2026-08-04T10:15:52.132Z</time>
      </trkpt>
      <trkpt lat="45.9492" lon="6.869">
        <ele>1806</ele>
        <time>2026-08-04T10:15:53.132Z</time>
      </trkpt>
      <trkpt lat="45.9492" lon="6.86902">
        <ele>1806</ele>
        <time>2026-08-04T10:15:54.132Z</time>
      </trkpt>
      <trkpt lat="45.9492" lon="6.86904">
        <ele>1805</ele>
        <time>2026-08-04T10:15:55.132Z</time>
      </trkpt>
      <trkpt lat="45.9492" lon="6.86906">
        <ele>1805</ele>
        <time>2026-08-04T10:15:56.132Z</time>
      </trkpt>
      <trkpt lat="45.94921" lon="6.86908">
        <ele>1804</ele>
        <time>2026-08-04T10:15:57.132Z</time>
      </trkpt>
      <trkpt lat="45.94921" lon="6.86911">
        <ele>1804</ele>
        <time>2026-08-04T10:15:58.132Z</time>
      </trkpt>
      <trkpt lat="45.94921" lon="6.86913">
        <ele>1803</ele>
        <time>2026-08-04T10:15:59.132Z</time>
      </trkpt>
      <trkpt lat="45.9492" lon="6.86917">
        <ele>1803</ele>
        <time>2026-08-04T10:16:00.132Z</time>
      </trkpt>
      <trkpt lat="45.9492" lon="6.86919">
        <ele>1803</ele>
        <time>2026-08-04T10:16:01.132Z</time>
      </trkpt>
      <trkpt lat="45.94919" lon="6.86921">
        <ele>1803</ele>
        <time>2026-08-04T10:16:02.132Z</time>
      </trkpt>
      <trkpt lat="45.94918" lon="6.86924">
        <ele>1802</ele>
        <time>2026-08-04T10:16:03.132Z</time>
      </trkpt>
      <trkpt lat="45.94916" lon="6.86927">
        <ele>1801</ele>
        <time>2026-08-04T10:16:04.132Z</time>
      </trkpt>
      <trkpt lat="45.94915" lon="6.8693">
        <ele>1801</ele>
        <time>2026-08-04T10:16:05.132Z</time>
      </trkpt>
      <trkpt lat="45.94914" lon="6.86932">
        <ele>1800</ele>
        <time>2026-08-04T10:16:06.132Z</time>
      </trkpt>
      <trkpt lat="45.94912" lon="6.86933">
        <ele>1800</ele>
        <time>2026-08-04T10:16:07.132Z</time>
      </trkpt>
      <trkpt lat="45.9491" lon="6.86934">
        <ele>1799</ele>
        <time>2026-08-04T10:16:08.132Z</time>
      </trkpt>
      <trkpt lat="45.94907" lon="6.86934">
        <ele>1799</ele>
        <time>2026-08-04T10:16:09.132Z</time>
      </trkpt>
      <trkpt lat="45.94905" lon="6.86935">
        <ele>1799</ele>
        <time>2026-08-04T10:16:10.132Z</time>
      </trkpt>
      <trkpt lat="45.94903" lon="6.86935">
        <ele>1799</ele>
        <time>2026-08-04T10:16:11.132Z</time>
      </trkpt>
      <trkpt lat="45.94901" lon="6.86936">
        <ele>1799</ele>
        <time>2026-08-04T10:16:12.132Z</time>
      </trkpt>
      <trkpt lat="45.94899" lon="6.86936">
        <ele>1798</ele>
        <time>2026-08-04T10:16:13.132Z</time>
      </trkpt>
      <trkpt lat="45.94897" lon="6.86936">
        <ele>1798</ele>
        <time>2026-08-04T10:16:14.132Z</time>
      </trkpt>
      <trkpt lat="45.94895" lon="6.86937">
        <ele>1798</ele>
        <time>2026-08-04T10:16:15.132Z</time>
      </trkpt>
      <trkpt lat="45.94893" lon="6.86938">
        <ele>1797</ele>
        <time>2026-08-04T10:16:16.132Z</time>
      </trkpt>
      <trkpt lat="45.94891" lon="6.86939">
        <ele>1797</ele>
        <time>2026-08-04T10:16:17.132Z</time>
      </trkpt>
      <trkpt lat="45.94889" lon="6.8694">
        <ele>1797</ele>
        <time>2026-08-04T10:16:18.132Z</time>
      </trkpt>
      <trkpt lat="45.94887" lon="6.86941">
        <ele>1796</ele>
        <time>2026-08-04T10:16:19.132Z</time>
      </trkpt>
      <trkpt lat="45.94885" lon="6.86943">
        <ele>1796</ele>
        <time>2026-08-04T10:16:20.132Z</time>
      </trkpt>
      <trkpt lat="45.94884" lon="6.86944">
        <ele>1796</ele>
        <time>2026-08-04T10:16:21.132Z</time>
      </trkpt>
      <trkpt lat="45.94882" lon="6.86946">
        <ele>1795</ele>
        <time>2026-08-04T10:16:22.132Z</time>
      </trkpt>
      <trkpt lat="45.94881" lon="6.86947">
        <ele>1795</ele>
        <time>2026-08-04T10:16:23.132Z</time>
      </trkpt>
      <trkpt lat="45.9488" lon="6.86949">
        <ele>1794</ele>
        <time>2026-08-04T10:16:24.132Z</time>
      </trkpt>
      <trkpt lat="45.94879" lon="6.8695">
        <ele>1794</ele>
        <time>2026-08-04T10:16:25.132Z</time>
      </trkpt>
      <trkpt lat="45.94877" lon="6.86952">
        <ele>1793</ele>
        <time>2026-08-04T10:16:26.132Z</time>
      </trkpt>
      <trkpt lat="45.94875" lon="6.86954">
        <ele>1793</ele>
        <time>2026-08-04T10:16:27.132Z</time>
      </trkpt>
      <trkpt lat="45.94874" lon="6.86956">
        <ele>1792</ele>
        <time>2026-08-04T10:16:28.132Z</time>
      </trkpt>
      <trkpt lat="45.94873" lon="6.86958">
        <ele>1792</ele>
        <time>2026-08-04T10:16:29.132Z</time>
      </trkpt>
      <trkpt lat="45.94871" lon="6.8696">
        <ele>1791</ele>
        <time>2026-08-04T10:16:30.132Z</time>
      </trkpt>
      <trkpt lat="45.9487" lon="6.86962">
        <ele>1790</ele>
        <time>2026-08-04T10:16:31.132Z</time>
      </trkpt>
      <trkpt lat="45.94868" lon="6.86964">
        <ele>1790</ele>
        <time>2026-08-04T10:16:32.132Z</time>
      </trkpt>
      <trkpt lat="45.94867" lon="6.86966">
        <ele>1789</ele>
        <time>2026-08-04T10:16:33.132Z</time>
      </trkpt>
      <trkpt lat="45.94865" lon="6.86967">
        <ele>1788</ele>
        <time>2026-08-04T10:16:34.132Z</time>
      </trkpt>
      <trkpt lat="45.94864" lon="6.86969">
        <ele>1788</ele>
        <time>2026-08-04T10:16:35.132Z</time>
      </trkpt>
      <trkpt lat="45.94864" lon="6.86971">
        <ele>1787</ele>
        <time>2026-08-04T10:16:36.132Z</time>
      </trkpt>
      <trkpt lat="45.94864" lon="6.86973">
        <ele>1787</ele>
        <time>2026-08-04T10:16:37.132Z</time>
      </trkpt>
      <trkpt lat="45.94864" lon="6.86975">
        <ele>1787</ele>
        <time>2026-08-04T10:16:38.132Z</time>
      </trkpt>
      <trkpt lat="45.94866" lon="6.86977">
        <ele>1787</ele>
        <time>2026-08-04T10:16:39.132Z</time>
      </trkpt>
      <trkpt lat="45.94866" lon="6.86979">
        <ele>1787</ele>
        <time>2026-08-04T10:16:40.132Z</time>
      </trkpt>
      <trkpt lat="45.94867" lon="6.86982">
        <ele>1787</ele>
        <time>2026-08-04T10:16:41.132Z</time>
      </trkpt>
      <trkpt lat="45.94868" lon="6.86985">
        <ele>1787</ele>
        <time>2026-08-04T10:16:42.132Z</time>
      </trkpt>
      <trkpt lat="45.94869" lon="6.86987">
        <ele>1787</ele>
        <time>2026-08-04T10:16:43.132Z</time>
      </trkpt>
      <trkpt lat="45.94869" lon="6.86989">
        <ele>1786</ele>
        <time>2026-08-04T10:16:44.132Z</time>
      </trkpt>
      <trkpt lat="45.9487" lon="6.86991">
        <ele>1786</ele>
        <time>2026-08-04T10:16:45.132Z</time>
      </trkpt>
      <trkpt lat="45.94871" lon="6.86993">
        <ele>1786</ele>
        <time>2026-08-04T10:16:46.132Z</time>
      </trkpt>
      <trkpt lat="45.94871" lon="6.86995">
        <ele>1785</ele>
        <time>2026-08-04T10:16:47.132Z</time>
      </trkpt>
      <trkpt lat="45.94872" lon="6.86996">
        <ele>1785</ele>
        <time>2026-08-04T10:16:48.132Z</time>
      </trkpt>
      <trkpt lat="45.94873" lon="6.86997">
        <ele>1785</ele>
        <time>2026-08-04T10:16:49.132Z</time>
      </trkpt>
      <trkpt lat="45.94874" lon="6.86998">
        <ele>1785</ele>
        <time>2026-08-04T10:16:50.132Z</time>
      </trkpt>
      <trkpt lat="45.94875" lon="6.87">
        <ele>1785</ele>
        <time>2026-08-04T10:16:51.132Z</time>
      </trkpt>
      <trkpt lat="45.94875" lon="6.87001">
        <ele>1785</ele>
        <time>2026-08-04T10:16:52.132Z</time>
      </trkpt>
      <trkpt lat="45.94875" lon="6.87002">
        <ele>1785</ele>
        <time>2026-08-04T10:16:53.132Z</time>
      </trkpt>
      <trkpt lat="45.94874" lon="6.87005">
        <ele>1785</ele>
        <time>2026-08-04T10:16:54.132Z</time>
      </trkpt>
      <trkpt lat="45.94872" lon="6.87007">
        <ele>1784</ele>
        <time>2026-08-04T10:16:55.132Z</time>
      </trkpt>
      <trkpt lat="45.94871" lon="6.87007">
        <ele>1784</ele>
        <time>2026-08-04T10:16:56.132Z</time>
      </trkpt>
      <trkpt lat="45.94869" lon="6.87008">
        <ele>1784</ele>
        <time>2026-08-04T10:16:57.132Z</time>
      </trkpt>
      <trkpt lat="45.94867" lon="6.87009">
        <ele>1784</ele>
        <time>2026-08-04T10:16:58.132Z</time>
      </trkpt>
      <trkpt lat="45.94865" lon="6.87009">
        <ele>1784</ele>
        <time>2026-08-04T10:16:59.132Z</time>
      </trkpt>
      <trkpt lat="45.94863" lon="6.87009">
        <ele>1784</ele>
        <time>2026-08-04T10:17:00.132Z</time>
      </trkpt>
      <trkpt lat="45.94861" lon="6.8701">
        <ele>1784</ele>
        <time>2026-08-04T10:17:01.132Z</time>
      </trkpt>
      <trkpt lat="45.9486" lon="6.8701">
        <ele>1784</ele>
        <time>2026-08-04T10:17:02.132Z</time>
      </trkpt>
      <trkpt lat="45.94858" lon="6.8701">
        <ele>1785</ele>
        <time>2026-08-04T10:17:03.132Z</time>
      </trkpt>
      <trkpt lat="45.94857" lon="6.8701">
        <ele>1785</ele>
        <time>2026-08-04T10:17:04.132Z</time>
      </trkpt>
      <trkpt lat="45.94855" lon="6.8701">
        <ele>1784</ele>
        <time>2026-08-04T10:17:05.132Z</time>
      </trkpt>
      <trkpt lat="45.94854" lon="6.8701">
        <ele>1784</ele>
        <time>2026-08-04T10:17:06.132Z</time>
      </trkpt>
      <trkpt lat="45.94853" lon="6.8701">
        <ele>1784</ele>
        <time>2026-08-04T10:17:07.132Z</time>
      </trkpt>
      <trkpt lat="45.94852" lon="6.87011">
        <ele>1784</ele>
        <time>2026-08-04T10:17:08.132Z</time>
      </trkpt>
      <trkpt lat="45.94851" lon="6.8701">
        <ele>1784</ele>
        <time>2026-08-04T10:17:09.132Z</time>
      </trkpt>
      <trkpt lat="45.9485" lon="6.8701">
        <ele>1784</ele>
        <time>2026-08-04T10:17:10.132Z</time>
      </trkpt>
      <trkpt lat="45.94849" lon="6.8701">
        <ele>1784</ele>
        <time>2026-08-04T10:17:11.132Z</time>
      </trkpt>
      <trkpt lat="45.94848" lon="6.87011">
        <ele>1783</ele>
        <time>2026-08-04T10:17:12.132Z</time>
      </trkpt>
      <trkpt lat="45.94846" lon="6.87012">
        <ele>1783</ele>
        <time>2026-08-04T10:17:13.132Z</time>
      </trkpt>
      <trkpt lat="45.94844" lon="6.87012">
        <ele>1783</ele>
        <time>2026-08-04T10:17:14.132Z</time>
      </trkpt>
      <trkpt lat="45.94842" lon="6.87012">
        <ele>1784</ele>
        <time>2026-08-04T10:17:15.132Z</time>
      </trkpt>
      <trkpt lat="45.94841" lon="6.87012">
        <ele>1784</ele>
        <time>2026-08-04T10:17:16.132Z</time>
      </trkpt>
      <trkpt lat="45.94839" lon="6.87013">
        <ele>1783</ele>
        <time>2026-08-04T10:17:17.132Z</time>
      </trkpt>
      <trkpt lat="45.94838" lon="6.87013">
        <ele>1783</ele>
        <time>2026-08-04T10:17:18.132Z</time>
      </trkpt>
      <trkpt lat="45.94837" lon="6.87013">
        <ele>1783</ele>
        <time>2026-08-04T10:17:19.132Z</time>
      </trkpt>
      <trkpt lat="45.94836" lon="6.87013">
        <ele>1783</ele>
        <time>2026-08-04T10:17:20.132Z</time>
      </trkpt>
      <trkpt lat="45.94836" lon="6.87013">
        <ele>1782</ele>
        <time>2026-08-04T10:17:21.132Z</time>
      </trkpt>
      <trkpt lat="45.94835" lon="6.87014">
        <ele>1782</ele>
        <time>2026-08-04T10:17:22.132Z</time>
      </trkpt>
      <trkpt lat="45.94834" lon="6.87014">
        <ele>1782</ele>
        <time>2026-08-04T10:17:23.132Z</time>
      </trkpt>
      <trkpt lat="45.94833" lon="6.87014">
        <ele>1781</ele>
        <time>2026-08-04T10:17:24.132Z</time>
      </trkpt>
      <trkpt lat="45.94832" lon="6.87015">
        <ele>1781</ele>
        <time>2026-08-04T10:17:25.132Z</time>
      </trkpt>
      <trkpt lat="45.9483" lon="6.87015">
        <ele>1781</ele>
        <time>2026-08-04T10:17:26.132Z</time>
      </trkpt>
      <trkpt lat="45.94829" lon="6.87015">
        <ele>1781</ele>
        <time>2026-08-04T10:17:27.132Z</time>
      </trkpt>
      <trkpt lat="45.94827" lon="6.87016">
        <ele>1781</ele>
        <time>2026-08-04T10:17:28.132Z</time>
      </trkpt>
      <trkpt lat="45.94826" lon="6.87015">
        <ele>1780</ele>
        <time>2026-08-04T10:17:29.132Z</time>
      </trkpt>
      <trkpt lat="45.94824" lon="6.87015">
        <ele>1780</ele>
        <time>2026-08-04T10:17:30.132Z</time>
      </trkpt>
      <trkpt lat="45.94824" lon="6.87015">
        <ele>1780</ele>
        <time>2026-08-04T10:17:31.132Z</time>
      </trkpt>
      <trkpt lat="45.94824" lon="6.87016">
        <ele>1780</ele>
        <time>2026-08-04T10:17:32.132Z</time>
      </trkpt>
      <trkpt lat="45.94823" lon="6.87016">
        <ele>1780</ele>
        <time>2026-08-04T10:17:33.132Z</time>
      </trkpt>
      <trkpt lat="45.94822" lon="6.87016">
        <ele>1779</ele>
        <time>2026-08-04T10:17:34.132Z</time>
      </trkpt>
      <trkpt lat="45.94821" lon="6.87017">
        <ele>1779</ele>
        <time>2026-08-04T10:17:35.132Z</time>
      </trkpt>
      <trkpt lat="45.9482" lon="6.87018">
        <ele>1778</ele>
        <time>2026-08-04T10:17:36.132Z</time>
      </trkpt>
      <trkpt lat="45.94819" lon="6.87018">
        <ele>1778</ele>
        <time>2026-08-04T10:17:37.132Z</time>
      </trkpt>
      <trkpt lat="45.94818" lon="6.87018">
        <ele>1778</ele>
        <time>2026-08-04T10:17:38.132Z</time>
      </trkpt>
      <trkpt lat="45.94817" lon="6.87019">
        <ele>1777</ele>
        <time>2026-08-04T10:17:39.132Z</time>
      </trkpt>
      <trkpt lat="45.94816" lon="6.8702">
        <ele>1777</ele>
        <time>2026-08-04T10:17:40.132Z</time>
      </trkpt>
      <trkpt lat="45.94816" lon="6.87021">
        <ele>1776</ele>
        <time>2026-08-04T10:17:41.132Z</time>
      </trkpt>
      <trkpt lat="45.94815" lon="6.87022">
        <ele>1775</ele>
        <time>2026-08-04T10:17:42.132Z</time>
      </trkpt>
      <trkpt lat="45.94814" lon="6.87022">
        <ele>1775</ele>
        <time>2026-08-04T10:17:43.132Z</time>
      </trkpt>
      <trkpt lat="45.94813" lon="6.87022">
        <ele>1774</ele>
        <time>2026-08-04T10:17:44.132Z</time>
      </trkpt>
      <trkpt lat="45.94813" lon="6.87023">
        <ele>1773</ele>
        <time>2026-08-04T10:17:45.132Z</time>
      </trkpt>
      <trkpt lat="45.94812" lon="6.87023">
        <ele>1773</ele>
        <time>2026-08-04T10:17:46.132Z</time>
      </trkpt>
      <trkpt lat="45.94811" lon="6.87024">
        <ele>1773</ele>
        <time>2026-08-04T10:17:47.132Z</time>
      </trkpt>
      <trkpt lat="45.9481" lon="6.87025">
        <ele>1773</ele>
        <time>2026-08-04T10:17:48.132Z</time>
      </trkpt>
      <trkpt lat="45.94809" lon="6.87024">
        <ele>1772</ele>
        <time>2026-08-04T10:17:49.132Z</time>
      </trkpt>
      <trkpt lat="45.94808" lon="6.87024">
        <ele>1772</ele>
        <time>2026-08-04T10:17:50.132Z</time>
      </trkpt>
      <trkpt lat="45.94807" lon="6.87022">
        <ele>1771</ele>
        <time>2026-08-04T10:17:51.132Z</time>
      </trkpt>
      <trkpt lat="45.94805" lon="6.87021">
        <ele>1771</ele>
        <time>2026-08-04T10:17:52.132Z</time>
      </trkpt>
      <trkpt lat="45.94805" lon="6.87021">
        <ele>1771</ele>
        <time>2026-08-04T10:17:53.132Z</time>
      </trkpt>
      <trkpt lat="45.94804" lon="6.87022">
        <ele>1771</ele>
        <time>2026-08-04T10:17:54.132Z</time>
      </trkpt>
      <trkpt lat="45.94802" lon="6.87023">
        <ele>1771</ele>
        <time>2026-08-04T10:17:55.132Z</time>
      </trkpt>
      <trkpt lat="45.94802" lon="6.87023">
        <ele>1771</ele>
        <time>2026-08-04T10:17:56.132Z</time>
      </trkpt>
      <trkpt lat="45.94801" lon="6.87025">
        <ele>1771</ele>
        <time>2026-08-04T10:17:57.132Z</time>
      </trkpt>
      <trkpt lat="45.948" lon="6.87026">
        <ele>1771</ele>
        <time>2026-08-04T10:17:58.132Z</time>
      </trkpt>
      <trkpt lat="45.94799" lon="6.87027">
        <ele>1771</ele>
        <time>2026-08-04T10:17:59.132Z</time>
      </trkpt>
      <trkpt lat="45.94797" lon="6.87029">
        <ele>1771</ele>
        <time>2026-08-04T10:18:00.132Z</time>
      </trkpt>
      <trkpt lat="45.94796" lon="6.8703">
        <ele>1771</ele>
        <time>2026-08-04T10:18:01.132Z</time>
      </trkpt>
      <trkpt lat="45.94794" lon="6.87031">
        <ele>1771</ele>
        <time>2026-08-04T10:18:02.132Z</time>
      </trkpt>
      <trkpt lat="45.94793" lon="6.87031">
        <ele>1771</ele>
        <time>2026-08-04T10:18:03.132Z</time>
      </trkpt>
      <trkpt lat="45.94791" lon="6.87029">
        <ele>1770</ele>
        <time>2026-08-04T10:18:04.132Z</time>
      </trkpt>
      <trkpt lat="45.94791" lon="6.87026">
        <ele>1770</ele>
        <time>2026-08-04T10:18:05.132Z</time>
      </trkpt>
      <trkpt lat="45.9479" lon="6.87024">
        <ele>1770</ele>
        <time>2026-08-04T10:18:06.132Z</time>
      </trkpt>
      <trkpt lat="45.9479" lon="6.87021">
        <ele>1770</ele>
        <time>2026-08-04T10:18:07.132Z</time>
      </trkpt>
      <trkpt lat="45.9479" lon="6.87018">
        <ele>1769</ele>
        <time>2026-08-04T10:18:08.132Z</time>
      </trkpt>
      <trkpt lat="45.9479" lon="6.87017">
        <ele>1769</ele>
        <time>2026-08-04T10:18:09.132Z</time>
      </trkpt>
      <trkpt lat="45.9479" lon="6.87016">
        <ele>1769</ele>
        <time>2026-08-04T10:18:10.132Z</time>
      </trkpt>
      <trkpt lat="45.94789" lon="6.87015">
        <ele>1769</ele>
        <time>2026-08-04T10:18:11.132Z</time>
      </trkpt>
      <trkpt lat="45.94788" lon="6.87014">
        <ele>1769</ele>
        <time>2026-08-04T10:18:12.132Z</time>
      </trkpt>
      <trkpt lat="45.94788" lon="6.87012">
        <ele>1769</ele>
        <time>2026-08-04T10:18:13.132Z</time>
      </trkpt>
      <trkpt lat="45.94787" lon="6.87011">
        <ele>1769</ele>
        <time>2026-08-04T10:18:14.132Z</time>
      </trkpt>
      <trkpt lat="45.94786" lon="6.87009">
        <ele>1768</ele>
        <time>2026-08-04T10:18:15.132Z</time>
      </trkpt>
      <trkpt lat="45.94786" lon="6.87008">
        <ele>1768</ele>
        <time>2026-08-04T10:18:16.132Z</time>
      </trkpt>
      <trkpt lat="45.94785" lon="6.87008">
        <ele>1768</ele>
        <time>2026-08-04T10:18:17.132Z</time>
      </trkpt>
      <trkpt lat="45.94785" lon="6.87008">
        <ele>1767</ele>
        <time>2026-08-04T10:18:18.132Z</time>
      </trkpt>
      <trkpt lat="45.94785" lon="6.87008">
        <ele>1767</ele>
        <time>2026-08-04T10:18:19.132Z</time>
      </trkpt>
      <trkpt lat="45.94784" lon="6.87009">
        <ele>1766</ele>
        <time>2026-08-04T10:18:20.132Z</time>
      </trkpt>
      <trkpt lat="45.94784" lon="6.87009">
        <ele>1766</ele>
        <time>2026-08-04T10:18:21.132Z</time>
      </trkpt>
      <trkpt lat="45.94783" lon="6.8701">
        <ele>1766</ele>
        <time>2026-08-04T10:18:22.132Z</time>
      </trkpt>
      <trkpt lat="45.94783" lon="6.87011">
        <ele>1765</ele>
        <time>2026-08-04T10:18:23.132Z</time>
      </trkpt>
      <trkpt lat="45.94784" lon="6.87012">
        <ele>1765</ele>
        <time>2026-08-04T10:18:24.132Z</time>
      </trkpt>
      <trkpt lat="45.94783" lon="6.87014">
        <ele>1765</ele>
        <time>2026-08-04T10:18:25.132Z</time>
      </trkpt>
      <trkpt lat="45.94784" lon="6.87014">
        <ele>1765</ele>
        <time>2026-08-04T10:18:26.132Z</time>
      </trkpt>
      <trkpt lat="45.94783" lon="6.87014">
        <ele>1765</ele>
        <time>2026-08-04T10:18:27.132Z</time>
      </trkpt>
      <trkpt lat="45.94782" lon="6.87014">
        <ele>1765</ele>
        <time>2026-08-04T10:18:28.132Z</time>
      </trkpt>
      <trkpt lat="45.94781" lon="6.87015">
        <ele>1765</ele>
        <time>2026-08-04T10:18:29.132Z</time>
      </trkpt>
      <trkpt lat="45.9478" lon="6.87014">
        <ele>1765</ele>
        <time>2026-08-04T10:18:30.132Z</time>
      </trkpt>
      <trkpt lat="45.94779" lon="6.87013">
        <ele>1765</ele>
        <time>2026-08-04T10:18:31.132Z</time>
      </trkpt>
      <trkpt lat="45.94778" lon="6.87011">
        <ele>1764</ele>
        <time>2026-08-04T10:18:32.132Z</time>
      </trkpt>
      <trkpt lat="45.94778" lon="6.8701">
        <ele>1764</ele>
        <time>2026-08-04T10:18:33.132Z</time>
      </trkpt>
      <trkpt lat="45.94777" lon="6.87007">
        <ele>1764</ele>
        <time>2026-08-04T10:18:34.132Z</time>
      </trkpt>
      <trkpt lat="45.94776" lon="6.87005">
        <ele>1763</ele>
        <time>2026-08-04T10:18:35.132Z</time>
      </trkpt>
      <trkpt lat="45.94776" lon="6.87003">
        <ele>1763</ele>
        <time>2026-08-04T10:18:36.132Z</time>
      </trkpt>
      <trkpt lat="45.94776" lon="6.86999">
        <ele>1763</ele>
        <time>2026-08-04T10:18:37.132Z</time>
      </trkpt>
      <trkpt lat="45.94776" lon="6.86997">
        <ele>1763</ele>
        <time>2026-08-04T10:18:38.132Z</time>
      </trkpt>
      <trkpt lat="45.94775" lon="6.86995">
        <ele>1762</ele>
        <time>2026-08-04T10:18:39.132Z</time>
      </trkpt>
      <trkpt lat="45.94775" lon="6.86994">
        <ele>1762</ele>
        <time>2026-08-04T10:18:40.132Z</time>
      </trkpt>
      <trkpt lat="45.94774" lon="6.86991">
        <ele>1762</ele>
        <time>2026-08-04T10:18:41.132Z</time>
      </trkpt>
      <trkpt lat="45.94774" lon="6.86989">
        <ele>1762</ele>
        <time>2026-08-04T10:18:42.132Z</time>
      </trkpt>
      <trkpt lat="45.94774" lon="6.86986">
        <ele>1762</ele>
        <time>2026-08-04T10:18:43.132Z</time>
      </trkpt>
      <trkpt lat="45.94773" lon="6.86984">
        <ele>1761</ele>
        <time>2026-08-04T10:18:44.132Z</time>
      </trkpt>
      <trkpt lat="45.94773" lon="6.86982">
        <ele>1761</ele>
        <time>2026-08-04T10:18:45.132Z</time>
      </trkpt>
      <trkpt lat="45.94772" lon="6.8698">
        <ele>1761</ele>
        <time>2026-08-04T10:18:46.132Z</time>
      </trkpt>
      <trkpt lat="45.94772" lon="6.86978">
        <ele>1760</ele>
        <time>2026-08-04T10:18:47.132Z</time>
      </trkpt>
      <trkpt lat="45.94771" lon="6.86976">
        <ele>1760</ele>
        <time>2026-08-04T10:18:48.132Z</time>
      </trkpt>
      <trkpt lat="45.9477" lon="6.86975">
        <ele>1760</ele>
        <time>2026-08-04T10:18:49.132Z</time>
      </trkpt>
      <trkpt lat="45.94769" lon="6.86973">
        <ele>1760</ele>
        <time>2026-08-04T10:18:50.132Z</time>
      </trkpt>
      <trkpt lat="45.94768" lon="6.86973">
        <ele>1761</ele>
        <time>2026-08-04T10:18:51.132Z</time>
      </trkpt>
      <trkpt lat="45.94769" lon="6.86973">
        <ele>1761</ele>
        <time>2026-08-04T10:18:52.132Z</time>
      </trkpt>
      <trkpt lat="45.94769" lon="6.86974">
        <ele>1761</ele>
        <time>2026-08-04T10:18:53.132Z</time>
      </trkpt>
      <trkpt lat="45.9477" lon="6.86975">
        <ele>1762</ele>
        <time>2026-08-04T10:18:54.132Z</time>
      </trkpt>
      <trkpt lat="45.94771" lon="6.86976">
        <ele>1762</ele>
        <time>2026-08-04T10:18:55.132Z</time>
      </trkpt>
      <trkpt lat="45.94771" lon="6.86977">
        <ele>1762</ele>
        <time>2026-08-04T10:18:56.132Z</time>
      </trkpt>
      <trkpt lat="45.9477" lon="6.86978">
        <ele>1761</ele>
        <time>2026-08-04T10:18:57.132Z</time>
      </trkpt>
      <trkpt lat="45.9477" lon="6.86978">
        <ele>1760</ele>
        <time>2026-08-04T10:18:58.132Z</time>
      </trkpt>
      <trkpt lat="45.94768" lon="6.86977">
        <ele>1760</ele>
        <time>2026-08-04T10:18:59.132Z</time>
      </trkpt>
      <trkpt lat="45.94767" lon="6.86976">
        <ele>1759</ele>
        <time>2026-08-04T10:19:00.132Z</time>
      </trkpt>
      <trkpt lat="45.94765" lon="6.86975">
        <ele>1759</ele>
        <time>2026-08-04T10:19:01.132Z</time>
      </trkpt>
      <trkpt lat="45.94764" lon="6.86974">
        <ele>1758</ele>
        <time>2026-08-04T10:19:02.132Z</time>
      </trkpt>
      <trkpt lat="45.94763" lon="6.86974">
        <ele>1758</ele>
        <time>2026-08-04T10:19:03.132Z</time>
      </trkpt>
      <trkpt lat="45.94762" lon="6.86974">
        <ele>1758</ele>
        <time>2026-08-04T10:19:04.132Z</time>
      </trkpt>
      <trkpt lat="45.9476" lon="6.86974">
        <ele>1758</ele>
        <time>2026-08-04T10:19:05.132Z</time>
      </trkpt>
      <trkpt lat="45.94759" lon="6.86973">
        <ele>1758</ele>
        <time>2026-08-04T10:19:06.132Z</time>
      </trkpt>
      <trkpt lat="45.94758" lon="6.86974">
        <ele>1757</ele>
        <time>2026-08-04T10:19:07.132Z</time>
      </trkpt>
      <trkpt lat="45.94756" lon="6.86974">
        <ele>1757</ele>
        <time>2026-08-04T10:19:08.132Z</time>
      </trkpt>
      <trkpt lat="45.94755" lon="6.86975">
        <ele>1757</ele>
        <time>2026-08-04T10:19:09.132Z</time>
      </trkpt>
      <trkpt lat="45.94753" lon="6.86977">
        <ele>1757</ele>
        <time>2026-08-04T10:19:10.132Z</time>
      </trkpt>
      <trkpt lat="45.9475" lon="6.86978">
        <ele>1757</ele>
        <time>2026-08-04T10:19:11.132Z</time>
      </trkpt>
      <trkpt lat="45.94749" lon="6.86978">
        <ele>1757</ele>
        <time>2026-08-04T10:19:12.132Z</time>
      </trkpt>
      <trkpt lat="45.94747" lon="6.86978">
        <ele>1757</ele>
        <time>2026-08-04T10:19:13.132Z</time>
      </trkpt>
      <trkpt lat="45.94746" lon="6.86978">
        <ele>1757</ele>
        <time>2026-08-04T10:19:14.132Z</time>
      </trkpt>
      <trkpt lat="45.94745" lon="6.86978">
        <ele>1757</ele>
        <time>2026-08-04T10:19:15.132Z</time>
      </trkpt>
      <trkpt lat="45.94744" lon="6.86978">
        <ele>1756</ele>
        <time>2026-08-04T10:19:16.132Z</time>
      </trkpt>
      <trkpt lat="45.94742" lon="6.86978">
        <ele>1756</ele>
        <time>2026-08-04T10:19:17.132Z</time>
      </trkpt>
      <trkpt lat="45.94741" lon="6.86977">
        <ele>1756</ele>
        <time>2026-08-04T10:19:18.132Z</time>
      </trkpt>
      <trkpt lat="45.94739" lon="6.86977">
        <ele>1756</ele>
        <time>2026-08-04T10:19:19.132Z</time>
      </trkpt>
      <trkpt lat="45.94738" lon="6.86976">
        <ele>1757</ele>
        <time>2026-08-04T10:19:20.132Z</time>
      </trkpt>
      <trkpt lat="45.94736" lon="6.86975">
        <ele>1756</ele>
        <time>2026-08-04T10:19:21.132Z</time>
      </trkpt>
      <trkpt lat="45.94736" lon="6.86974">
        <ele>1756</ele>
        <time>2026-08-04T10:19:22.132Z</time>
      </trkpt>
      <trkpt lat="45.94735" lon="6.86972">
        <ele>1755</ele>
        <time>2026-08-04T10:19:23.132Z</time>
      </trkpt>
      <trkpt lat="45.94735" lon="6.86971">
        <ele>1754</ele>
        <time>2026-08-04T10:19:24.132Z</time>
      </trkpt>
      <trkpt lat="45.94734" lon="6.86968">
        <ele>1752</ele>
        <time>2026-08-04T10:19:25.132Z</time>
      </trkpt>
      <trkpt lat="45.94734" lon="6.86966">
        <ele>1751</ele>
        <time>2026-08-04T10:19:26.132Z</time>
      </trkpt>
      <trkpt lat="45.94733" lon="6.86965">
        <ele>1750</ele>
        <time>2026-08-04T10:19:27.132Z</time>
      </trkpt>
      <trkpt lat="45.94733" lon="6.86964">
        <ele>1749</ele>
        <time>2026-08-04T10:19:28.132Z</time>
      </trkpt>
      <trkpt lat="45.94733" lon="6.86964">
        <ele>1748</ele>
        <time>2026-08-04T10:19:29.132Z</time>
      </trkpt>
      <trkpt lat="45.94735" lon="6.86964">
        <ele>1747</ele>
        <time>2026-08-04T10:19:30.132Z</time>
      </trkpt>
      <trkpt lat="45.94736" lon="6.86963">
        <ele>1746</ele>
        <time>2026-08-04T10:19:31.132Z</time>
      </trkpt>
      <trkpt lat="45.94736" lon="6.86963">
        <ele>1746</ele>
        <time>2026-08-04T10:19:32.132Z</time>
      </trkpt>
      <trkpt lat="45.94738" lon="6.86962">
        <ele>1745</ele>
        <time>2026-08-04T10:19:33.132Z</time>
      </trkpt>
      <trkpt lat="45.94739" lon="6.86963">
        <ele>1745</ele>
        <time>2026-08-04T10:19:34.132Z</time>
      </trkpt>
      <trkpt lat="45.9474" lon="6.86963">
        <ele>1744</ele>
        <time>2026-08-04T10:19:35.132Z</time>
      </trkpt>
      <trkpt lat="45.94741" lon="6.86963">
        <ele>1744</ele>
        <time>2026-08-04T10:19:36.132Z</time>
      </trkpt>
      <trkpt lat="45.94742" lon="6.86965">
        <ele>1744</ele>
        <time>2026-08-04T10:19:37.132Z</time>
      </trkpt>
      <trkpt lat="45.94742" lon="6.86966">
        <ele>1743</ele>
        <time>2026-08-04T10:19:38.132Z</time>
      </trkpt>
      <trkpt lat="45.94743" lon="6.86968">
        <ele>1743</ele>
        <time>2026-08-04T10:19:39.132Z</time>
      </trkpt>
      <trkpt lat="45.94744" lon="6.86969">
        <ele>1743</ele>
        <time>2026-08-04T10:19:40.132Z</time>
      </trkpt>
      <trkpt lat="45.94745" lon="6.8697">
        <ele>1742</ele>
        <time>2026-08-04T10:19:41.132Z</time>
      </trkpt>
      <trkpt lat="45.94745" lon="6.86972">
        <ele>1742</ele>
        <time>2026-08-04T10:19:42.132Z</time>
      </trkpt>
      <trkpt lat="45.94746" lon="6.86973">
        <ele>1742</ele>
        <time>2026-08-04T10:19:43.132Z</time>
      </trkpt>
      <trkpt lat="45.94747" lon="6.86973">
        <ele>1742</ele>
        <time>2026-08-04T10:19:44.132Z</time>
      </trkpt>
      <trkpt lat="45.94749" lon="6.86973">
        <ele>1742</ele>
        <time>2026-08-04T10:19:45.132Z</time>
      </trkpt>
      <trkpt lat="45.94749" lon="6.86974">
        <ele>1741</ele>
        <time>2026-08-04T10:19:46.132Z</time>
      </trkpt>
      <trkpt lat="45.94749" lon="6.86975">
        <ele>1741</ele>
        <time>2026-08-04T10:19:47.132Z</time>
      </trkpt>
      <trkpt lat="45.94749" lon="6.86976">
        <ele>1741</ele>
        <time>2026-08-04T10:19:48.132Z</time>
      </trkpt>
      <trkpt lat="45.94749" lon="6.86977">
        <ele>1742</ele>
        <time>2026-08-04T10:19:49.132Z</time>
      </trkpt>
      <trkpt lat="45.94749" lon="6.86979">
        <ele>1742</ele>
        <time>2026-08-04T10:19:50.132Z</time>
      </trkpt>
      <trkpt lat="45.94749" lon="6.86979">
        <ele>1742</ele>
        <time>2026-08-04T10:19:51.132Z</time>
      </trkpt>
      <trkpt lat="45.94749" lon="6.8698">
        <ele>1742</ele>
        <time>2026-08-04T10:19:52.132Z</time>
      </trkpt>
      <trkpt lat="45.94749" lon="6.86981">
        <ele>1741</ele>
        <time>2026-08-04T10:19:53.132Z</time>
      </trkpt>
      <trkpt lat="45.9475" lon="6.86982">
        <ele>1741</ele>
        <time>2026-08-04T10:19:54.132Z</time>
      </trkpt>
      <trkpt lat="45.9475" lon="6.86984">
        <ele>1741</ele>
        <time>2026-08-04T10:19:55.132Z</time>
      </trkpt>
      <trkpt lat="45.9475" lon="6.86986">
        <ele>1741</ele>
        <time>2026-08-04T10:19:56.132Z</time>
      </trkpt>
      <trkpt lat="45.94749" lon="6.86988">
        <ele>1741</ele>
        <time>2026-08-04T10:19:57.132Z</time>
      </trkpt>
      <trkpt lat="45.9475" lon="6.86989">
        <ele>1741</ele>
        <time>2026-08-04T10:19:58.132Z</time>
      </trkpt>
      <trkpt lat="45.9475" lon="6.8699">
        <ele>1740</ele>
        <time>2026-08-04T10:19:59.132Z</time>
      </trkpt>
      <trkpt lat="45.9475" lon="6.86991">
        <ele>1740</ele>
        <time>2026-08-04T10:20:00.132Z</time>
      </trkpt>
      <trkpt lat="45.94751" lon="6.86992">
        <ele>1739</ele>
        <time>2026-08-04T10:20:01.132Z</time>
      </trkpt>
      <trkpt lat="45.94751" lon="6.86993">
        <ele>1738</ele>
        <time>2026-08-04T10:20:02.132Z</time>
      </trkpt>
      <trkpt lat="45.94751" lon="6.86995">
        <ele>1737</ele>
        <time>2026-08-04T10:20:03.132Z</time>
      </trkpt>
      <trkpt lat="45.94751" lon="6.86997">
        <ele>1737</ele>
        <time>2026-08-04T10:20:04.132Z</time>
      </trkpt>
      <trkpt lat="45.94751" lon="6.86999">
        <ele>1736</ele>
        <time>2026-08-04T10:20:05.132Z</time>
      </trkpt>
      <trkpt lat="45.94752" lon="6.87001">
        <ele>1735</ele>
        <time>2026-08-04T10:20:06.132Z</time>
      </trkpt>
      <trkpt lat="45.94752" lon="6.87003">
        <ele>1734</ele>
        <time>2026-08-04T10:20:07.132Z</time>
      </trkpt>
      <trkpt lat="45.94752" lon="6.87005">
        <ele>1732</ele>
        <time>2026-08-04T10:20:08.132Z</time>
      </trkpt>
      <trkpt lat="45.94752" lon="6.87008">
        <ele>1732</ele>
        <time>2026-08-04T10:20:09.132Z</time>
      </trkpt>
      <trkpt lat="45.94752" lon="6.8701">
        <ele>1731</ele>
        <time>2026-08-04T10:20:10.132Z</time>
      </trkpt>
      <trkpt lat="45.94752" lon="6.87012">
        <ele>1731</ele>
        <time>2026-08-04T10:20:11.132Z</time>
      </trkpt>
      <trkpt lat="45.94752" lon="6.87013">
        <ele>1730</ele>
        <time>2026-08-04T10:20:12.132Z</time>
      </trkpt>
      <trkpt lat="45.94752" lon="6.87015">
        <ele>1730</ele>
        <time>2026-08-04T10:20:13.132Z</time>
      </trkpt>
      <trkpt lat="45.94752" lon="6.87017">
        <ele>1730</ele>
        <time>2026-08-04T10:20:14.132Z</time>
      </trkpt>
      <trkpt lat="45.94752" lon="6.8702">
        <ele>1731</ele>
        <time>2026-08-04T10:20:15.132Z</time>
      </trkpt>
      <trkpt lat="45.94752" lon="6.87023">
        <ele>1730</ele>
        <time>2026-08-04T10:20:16.132Z</time>
      </trkpt>
      <trkpt lat="45.94751" lon="6.87026">
        <ele>1730</ele>
        <time>2026-08-04T10:20:17.132Z</time>
      </trkpt>
      <trkpt lat="45.94751" lon="6.87029">
        <ele>1730</ele>
        <time>2026-08-04T10:20:18.132Z</time>
      </trkpt>
      <trkpt lat="45.94751" lon="6.87033">
        <ele>1730</ele>
        <time>2026-08-04T10:20:19.132Z</time>
      </trkpt>
      <trkpt lat="45.94751" lon="6.87035">
        <ele>1729</ele>
        <time>2026-08-04T10:20:20.132Z</time>
      </trkpt>
      <trkpt lat="45.9475" lon="6.87039">
        <ele>1729</ele>
        <time>2026-08-04T10:20:21.132Z</time>
      </trkpt>
      <trkpt lat="45.94749" lon="6.87041">
        <ele>1729</ele>
        <time>2026-08-04T10:20:22.132Z</time>
      </trkpt>
      <trkpt lat="45.94748" lon="6.87043">
        <ele>1728</ele>
        <time>2026-08-04T10:20:23.132Z</time>
      </trkpt>
      <trkpt lat="45.94748" lon="6.87045">
        <ele>1728</ele>
        <time>2026-08-04T10:20:24.132Z</time>
      </trkpt>
      <trkpt lat="45.94748" lon="6.87047">
        <ele>1728</ele>
        <time>2026-08-04T10:20:25.132Z</time>
      </trkpt>
      <trkpt lat="45.94748" lon="6.87048">
        <ele>1727</ele>
        <time>2026-08-04T10:20:26.132Z</time>
      </trkpt>
      <trkpt lat="45.94748" lon="6.8705">
        <ele>1727</ele>
        <time>2026-08-04T10:20:27.132Z</time>
      </trkpt>
      <trkpt lat="45.94748" lon="6.87051">
        <ele>1726</ele>
        <time>2026-08-04T10:20:28.132Z</time>
      </trkpt>
      <trkpt lat="45.94749" lon="6.87053">
        <ele>1726</ele>
        <time>2026-08-04T10:20:29.132Z</time>
      </trkpt>
      <trkpt lat="45.94749" lon="6.87055">
        <ele>1726</ele>
        <time>2026-08-04T10:20:30.132Z</time>
      </trkpt>
      <trkpt lat="45.9475" lon="6.87057">
        <ele>1725</ele>
        <time>2026-08-04T10:20:31.132Z</time>
      </trkpt>
      <trkpt lat="45.9475" lon="6.87058">
        <ele>1724</ele>
        <time>2026-08-04T10:20:32.132Z</time>
      </trkpt>
      <trkpt lat="45.94751" lon="6.87059">
        <ele>1724</ele>
        <time>2026-08-04T10:20:33.132Z</time>
      </trkpt>
      <trkpt lat="45.94751" lon="6.87061">
        <ele>1724</ele>
        <time>2026-08-04T10:20:34.132Z</time>
      </trkpt>
      <trkpt lat="45.94752" lon="6.87062">
        <ele>1723</ele>
        <time>2026-08-04T10:20:35.132Z</time>
      </trkpt>
      <trkpt lat="45.94754" lon="6.87063">
        <ele>1723</ele>
        <time>2026-08-04T10:20:36.132Z</time>
      </trkpt>
      <trkpt lat="45.94754" lon="6.87065">
        <ele>1723</ele>
        <time>2026-08-04T10:20:37.132Z</time>
      </trkpt>
      <trkpt lat="45.94755" lon="6.87066">
        <ele>1723</ele>
        <time>2026-08-04T10:20:38.132Z</time>
      </trkpt>
      <trkpt lat="45.94755" lon="6.87068">
        <ele>1723</ele>
        <time>2026-08-04T10:20:39.132Z</time>
      </trkpt>
      <trkpt lat="45.94756" lon="6.8707">
        <ele>1723</ele>
        <time>2026-08-04T10:20:40.132Z</time>
      </trkpt>
      <trkpt lat="45.94756" lon="6.87073">
        <ele>1723</ele>
        <time>2026-08-04T10:20:41.132Z</time>
      </trkpt>
      <trkpt lat="45.94756" lon="6.87076">
        <ele>1723</ele>
        <time>2026-08-04T10:20:42.132Z</time>
      </trkpt>
      <trkpt lat="45.94756" lon="6.87078">
        <ele>1723</ele>
        <time>2026-08-04T10:20:43.132Z</time>
      </trkpt>
      <trkpt lat="45.94757" lon="6.8708">
        <ele>1723</ele>
        <time>2026-08-04T10:20:44.132Z</time>
      </trkpt>
      <trkpt lat="45.94757" lon="6.87082">
        <ele>1723</ele>
        <time>2026-08-04T10:20:45.132Z</time>
      </trkpt>
      <trkpt lat="45.94758" lon="6.87084">
        <ele>1723</ele>
        <time>2026-08-04T10:20:46.132Z</time>
      </trkpt>
      <trkpt lat="45.94758" lon="6.87087">
        <ele>1722</ele>
        <time>2026-08-04T10:20:47.132Z</time>
      </trkpt>
      <trkpt lat="45.94758" lon="6.87089">
        <ele>1722</ele>
        <time>2026-08-04T10:20:48.132Z</time>
      </trkpt>
      <trkpt lat="45.94758" lon="6.87093">
        <ele>1721</ele>
        <time>2026-08-04T10:20:49.132Z</time>
      </trkpt>
      <trkpt lat="45.94759" lon="6.87095">
        <ele>1721</ele>
        <time>2026-08-04T10:20:50.132Z</time>
      </trkpt>
      <trkpt lat="45.94759" lon="6.87097">
        <ele>1720</ele>
        <time>2026-08-04T10:20:51.132Z</time>
      </trkpt>
      <trkpt lat="45.94759" lon="6.87099">
        <ele>1719</ele>
        <time>2026-08-04T10:20:52.132Z</time>
      </trkpt>
      <trkpt lat="45.9476" lon="6.871">
        <ele>1719</ele>
        <time>2026-08-04T10:20:53.132Z</time>
      </trkpt>
      <trkpt lat="45.9476" lon="6.87102">
        <ele>1718</ele>
        <time>2026-08-04T10:20:54.132Z</time>
      </trkpt>
      <trkpt lat="45.94761" lon="6.87103">
        <ele>1717</ele>
        <time>2026-08-04T10:20:55.132Z</time>
      </trkpt>
      <trkpt lat="45.94762" lon="6.87105">
        <ele>1717</ele>
        <time>2026-08-04T10:20:56.132Z</time>
      </trkpt>
      <trkpt lat="45.94762" lon="6.87106">
        <ele>1716</ele>
        <time>2026-08-04T10:20:57.132Z</time>
      </trkpt>
      <trkpt lat="45.94762" lon="6.87108">
        <ele>1715</ele>
        <time>2026-08-04T10:20:58.132Z</time>
      </trkpt>
      <trkpt lat="45.94762" lon="6.8711">
        <ele>1714</ele>
        <time>2026-08-04T10:20:59.132Z</time>
      </trkpt>
      <trkpt lat="45.94761" lon="6.87112">
        <ele>1713</ele>
        <time>2026-08-04T10:21:00.132Z</time>
      </trkpt>
      <trkpt lat="45.9476" lon="6.87114">
        <ele>1712</ele>
        <time>2026-08-04T10:21:01.132Z</time>
      </trkpt>
      <trkpt lat="45.9476" lon="6.87117">
        <ele>1711</ele>
        <time>2026-08-04T10:21:02.132Z</time>
      </trkpt>
      <trkpt lat="45.94758" lon="6.87119">
        <ele>1710</ele>
        <time>2026-08-04T10:21:03.132Z</time>
      </trkpt>
      <trkpt lat="45.94758" lon="6.87121">
        <ele>1709</ele>
        <time>2026-08-04T10:21:04.132Z</time>
      </trkpt>
      <trkpt lat="45.94758" lon="6.87122">
        <ele>1709</ele>
        <time>2026-08-04T10:21:05.132Z</time>
      </trkpt>
      <trkpt lat="45.94757" lon="6.87124">
        <ele>1708</ele>
        <time>2026-08-04T10:21:06.132Z</time>
      </trkpt>
      <trkpt lat="45.94756" lon="6.87126">
        <ele>1708</ele>
        <time>2026-08-04T10:21:07.132Z</time>
      </trkpt>
      <trkpt lat="45.94755" lon="6.87127">
        <ele>1707</ele>
        <time>2026-08-04T10:21:08.132Z</time>
      </trkpt>
      <trkpt lat="45.94754" lon="6.87129">
        <ele>1707</ele>
        <time>2026-08-04T10:21:09.132Z</time>
      </trkpt>
      <trkpt lat="45.94753" lon="6.8713">
        <ele>1706</ele>
        <time>2026-08-04T10:21:10.132Z</time>
      </trkpt>
      <trkpt lat="45.94752" lon="6.8713">
        <ele>1706</ele>
        <time>2026-08-04T10:21:11.132Z</time>
      </trkpt>
      <trkpt lat="45.94751" lon="6.8713">
        <ele>1705</ele>
        <time>2026-08-04T10:21:12.132Z</time>
      </trkpt>
      <trkpt lat="45.9475" lon="6.8713">
        <ele>1705</ele>
        <time>2026-08-04T10:21:13.132Z</time>
      </trkpt>
      <trkpt lat="45.9475" lon="6.87129">
        <ele>1704</ele>
        <time>2026-08-04T10:21:14.132Z</time>
      </trkpt>
      <trkpt lat="45.9475" lon="6.87129">
        <ele>1704</ele>
        <time>2026-08-04T10:21:15.132Z</time>
      </trkpt>
      <trkpt lat="45.9475" lon="6.8713">
        <ele>1704</ele>
        <time>2026-08-04T10:21:16.132Z</time>
      </trkpt>
      <trkpt lat="45.9475" lon="6.87131">
        <ele>1703</ele>
        <time>2026-08-04T10:21:17.132Z</time>
      </trkpt>
      <trkpt lat="45.94749" lon="6.87132">
        <ele>1703</ele>
        <time>2026-08-04T10:21:18.132Z</time>
      </trkpt>
      <trkpt lat="45.94749" lon="6.87133">
        <ele>1703</ele>
        <time>2026-08-04T10:21:19.132Z</time>
      </trkpt>
      <trkpt lat="45.94749" lon="6.87134">
        <ele>1702</ele>
        <time>2026-08-04T10:21:20.132Z</time>
      </trkpt>
      <trkpt lat="45.94749" lon="6.87135">
        <ele>1702</ele>
        <time>2026-08-04T10:21:21.132Z</time>
      </trkpt>
      <trkpt lat="45.94749" lon="6.87135">
        <ele>1701</ele>
        <time>2026-08-04T10:21:22.132Z</time>
      </trkpt>
      <trkpt lat="45.94749" lon="6.87137">
        <ele>1701</ele>
        <time>2026-08-04T10:21:23.132Z</time>
      </trkpt>
      <trkpt lat="45.94748" lon="6.87139">
        <ele>1700</ele>
        <time>2026-08-04T10:21:24.132Z</time>
      </trkpt>
      <trkpt lat="45.94747" lon="6.8714">
        <ele>1700</ele>
        <time>2026-08-04T10:21:25.132Z</time>
      </trkpt>
      <trkpt lat="45.94746" lon="6.87142">
        <ele>1700</ele>
        <time>2026-08-04T10:21:26.132Z</time>
      </trkpt>
      <trkpt lat="45.94745" lon="6.87144">
        <ele>1700</ele>
        <time>2026-08-04T10:21:27.132Z</time>
      </trkpt>
      <trkpt lat="45.94742" lon="6.87146">
        <ele>1701</ele>
        <time>2026-08-04T10:21:28.132Z</time>
      </trkpt>
      <trkpt lat="45.94739" lon="6.87146">
        <ele>1701</ele>
        <time>2026-08-04T10:21:29.132Z</time>
      </trkpt>
      <trkpt lat="45.94738" lon="6.87146">
        <ele>1701</ele>
        <time>2026-08-04T10:21:30.132Z</time>
      </trkpt>
      <trkpt lat="45.94737" lon="6.87146">
        <ele>1701</ele>
        <time>2026-08-04T10:21:31.132Z</time>
      </trkpt>
      <trkpt lat="45.94737" lon="6.87144">
        <ele>1700</ele>
        <time>2026-08-04T10:21:32.132Z</time>
      </trkpt>
      <trkpt lat="45.94736" lon="6.87143">
        <ele>1700</ele>
        <time>2026-08-04T10:21:33.132Z</time>
      </trkpt>
      <trkpt lat="45.94735" lon="6.87142">
        <ele>1699</ele>
        <time>2026-08-04T10:21:34.132Z</time>
      </trkpt>
      <trkpt lat="45.94735" lon="6.8714">
        <ele>1699</ele>
        <time>2026-08-04T10:21:35.132Z</time>
      </trkpt>
      <trkpt lat="45.94735" lon="6.87138">
        <ele>1698</ele>
        <time>2026-08-04T10:21:36.132Z</time>
      </trkpt>
      <trkpt lat="45.94735" lon="6.87137">
        <ele>1698</ele>
        <time>2026-08-04T10:21:37.132Z</time>
      </trkpt>
      <trkpt lat="45.94734" lon="6.87135">
        <ele>1697</ele>
        <time>2026-08-04T10:21:38.132Z</time>
      </trkpt>
      <trkpt lat="45.94734" lon="6.87134">
        <ele>1697</ele>
        <time>2026-08-04T10:21:39.132Z</time>
      </trkpt>
      <trkpt lat="45.94734" lon="6.87133">
        <ele>1696</ele>
        <time>2026-08-04T10:21:40.132Z</time>
      </trkpt>
      <trkpt lat="45.94733" lon="6.87132">
        <ele>1696</ele>
        <time>2026-08-04T10:21:41.132Z</time>
      </trkpt>
      <trkpt lat="45.94734" lon="6.87132">
        <ele>1695</ele>
        <time>2026-08-04T10:21:42.132Z</time>
      </trkpt>
      <trkpt lat="45.94735" lon="6.87132">
        <ele>1695</ele>
        <time>2026-08-04T10:21:43.132Z</time>
      </trkpt>
      <trkpt lat="45.94735" lon="6.87133">
        <ele>1694</ele>
        <time>2026-08-04T10:21:44.132Z</time>
      </trkpt>
      <trkpt lat="45.94735" lon="6.87133">
        <ele>1694</ele>
        <time>2026-08-04T10:21:45.132Z</time>
      </trkpt>
      <trkpt lat="45.94735" lon="6.87134">
        <ele>1694</ele>
        <time>2026-08-04T10:21:46.132Z</time>
      </trkpt>
      <trkpt lat="45.94736" lon="6.87135">
        <ele>1694</ele>
        <time>2026-08-04T10:21:47.132Z</time>
      </trkpt>
      <trkpt lat="45.94736" lon="6.87136">
        <ele>1694</ele>
        <time>2026-08-04T10:21:48.132Z</time>
      </trkpt>
      <trkpt lat="45.94735" lon="6.87139">
        <ele>1694</ele>
        <time>2026-08-04T10:21:49.132Z</time>
      </trkpt>
      <trkpt lat="45.94734" lon="6.87142">
        <ele>1694</ele>
        <time>2026-08-04T10:21:50.132Z</time>
      </trkpt>
      <trkpt lat="45.94734" lon="6.87144">
        <ele>1693</ele>
        <time>2026-08-04T10:21:51.132Z</time>
      </trkpt>
      <trkpt lat="45.94735" lon="6.87146">
        <ele>1693</ele>
        <time>2026-08-04T10:21:52.132Z</time>
      </trkpt>
      <trkpt lat="45.94735" lon="6.87148">
        <ele>1693</ele>
        <time>2026-08-04T10:21:53.132Z</time>
      </trkpt>
      <trkpt lat="45.94734" lon="6.8715">
        <ele>1693</ele>
        <time>2026-08-04T10:21:54.132Z</time>
      </trkpt>
      <trkpt lat="45.94734" lon="6.87152">
        <ele>1693</ele>
        <time>2026-08-04T10:21:55.132Z</time>
      </trkpt>
      <trkpt lat="45.94734" lon="6.87154">
        <ele>1693</ele>
        <time>2026-08-04T10:21:56.132Z</time>
      </trkpt>
      <trkpt lat="45.94733" lon="6.87156">
        <ele>1693</ele>
        <time>2026-08-04T10:21:57.132Z</time>
      </trkpt>
      <trkpt lat="45.94733" lon="6.87158">
        <ele>1693</ele>
        <time>2026-08-04T10:21:58.132Z</time>
      </trkpt>
      <trkpt lat="45.94733" lon="6.8716">
        <ele>1692</ele>
        <time>2026-08-04T10:21:59.132Z</time>
      </trkpt>
      <trkpt lat="45.94731" lon="6.87163">
        <ele>1693</ele>
        <time>2026-08-04T10:22:00.132Z</time>
      </trkpt>
      <trkpt lat="45.9473" lon="6.87164">
        <ele>1692</ele>
        <time>2026-08-04T10:22:01.132Z</time>
      </trkpt>
      <trkpt lat="45.94728" lon="6.87164">
        <ele>1692</ele>
        <time>2026-08-04T10:22:02.132Z</time>
      </trkpt>
      <trkpt lat="45.94727" lon="6.87163">
        <ele>1692</ele>
        <time>2026-08-04T10:22:03.132Z</time>
      </trkpt>
      <trkpt lat="45.94725" lon="6.87163">
        <ele>1691</ele>
        <time>2026-08-04T10:22:04.132Z</time>
      </trkpt>
      <trkpt lat="45.94724" lon="6.87162">
        <ele>1691</ele>
        <time>2026-08-04T10:22:05.132Z</time>
      </trkpt>
      <trkpt lat="45.94723" lon="6.8716">
        <ele>1691</ele>
        <time>2026-08-04T10:22:06.132Z</time>
      </trkpt>
      <trkpt lat="45.94723" lon="6.87158">
        <ele>1690</ele>
        <time>2026-08-04T10:22:07.132Z</time>
      </trkpt>
      <trkpt lat="45.94722" lon="6.87157">
        <ele>1690</ele>
        <time>2026-08-04T10:22:08.132Z</time>
      </trkpt>
      <trkpt lat="45.94722" lon="6.87155">
        <ele>1690</ele>
        <time>2026-08-04T10:22:09.132Z</time>
      </trkpt>
      <trkpt lat="45.94722" lon="6.87154">
        <ele>1690</ele>
        <time>2026-08-04T10:22:10.132Z</time>
      </trkpt>
      <trkpt lat="45.94722" lon="6.87151">
        <ele>1690</ele>
        <time>2026-08-04T10:22:11.132Z</time>
      </trkpt>
      <trkpt lat="45.94721" lon="6.8715">
        <ele>1689</ele>
        <time>2026-08-04T10:22:12.132Z</time>
      </trkpt>
      <trkpt lat="45.9472" lon="6.87149">
        <ele>1689</ele>
        <time>2026-08-04T10:22:13.132Z</time>
      </trkpt>
      <trkpt lat="45.94719" lon="6.87148">
        <ele>1688</ele>
        <time>2026-08-04T10:22:14.132Z</time>
      </trkpt>
      <trkpt lat="45.94719" lon="6.87146">
        <ele>1688</ele>
        <time>2026-08-04T10:22:15.132Z</time>
      </trkpt>
      <trkpt lat="45.94719" lon="6.87144">
        <ele>1687</ele>
        <time>2026-08-04T10:22:16.132Z</time>
      </trkpt>
      <trkpt lat="45.94718" lon="6.87142">
        <ele>1686</ele>
        <time>2026-08-04T10:22:17.132Z</time>
      </trkpt>
      <trkpt lat="45.94719" lon="6.87141">
        <ele>1686</ele>
        <time>2026-08-04T10:22:18.132Z</time>
      </trkpt>
      <trkpt lat="45.94719" lon="6.87139">
        <ele>1685</ele>
        <time>2026-08-04T10:22:19.132Z</time>
      </trkpt>
      <trkpt lat="45.94718" lon="6.87138">
        <ele>1685</ele>
        <time>2026-08-04T10:22:20.132Z</time>
      </trkpt>
      <trkpt lat="45.94717" lon="6.87137">
        <ele>1685</ele>
        <time>2026-08-04T10:22:21.132Z</time>
      </trkpt>
      <trkpt lat="45.94717" lon="6.87136">
        <ele>1684</ele>
        <time>2026-08-04T10:22:22.132Z</time>
      </trkpt>
      <trkpt lat="45.94717" lon="6.87134">
        <ele>1684</ele>
        <time>2026-08-04T10:22:23.132Z</time>
      </trkpt>
      <trkpt lat="45.94716" lon="6.87133">
        <ele>1683</ele>
        <time>2026-08-04T10:22:24.132Z</time>
      </trkpt>
      <trkpt lat="45.94716" lon="6.87132">
        <ele>1683</ele>
        <time>2026-08-04T10:22:25.132Z</time>
      </trkpt>
      <trkpt lat="45.94716" lon="6.87131">
        <ele>1682</ele>
        <time>2026-08-04T10:22:26.132Z</time>
      </trkpt>
      <trkpt lat="45.94715" lon="6.8713">
        <ele>1681</ele>
        <time>2026-08-04T10:22:27.132Z</time>
      </trkpt>
      <trkpt lat="45.94715" lon="6.87129">
        <ele>1681</ele>
        <time>2026-08-04T10:22:28.132Z</time>
      </trkpt>
      <trkpt lat="45.94715" lon="6.87128">
        <ele>1680</ele>
        <time>2026-08-04T10:22:29.132Z</time>
      </trkpt>
      <trkpt lat="45.94714" lon="6.87126">
        <ele>1680</ele>
        <time>2026-08-04T10:22:30.132Z</time>
      </trkpt>
      <trkpt lat="45.94714" lon="6.87125">
        <ele>1680</ele>
        <time>2026-08-04T10:22:31.132Z</time>
      </trkpt>
      <trkpt lat="45.94713" lon="6.87123">
        <ele>1679</ele>
        <time>2026-08-04T10:22:32.132Z</time>
      </trkpt>
      <trkpt lat="45.94712" lon="6.87121">
        <ele>1679</ele>
        <time>2026-08-04T10:22:33.132Z</time>
      </trkpt>
      <trkpt lat="45.9471" lon="6.87119">
        <ele>1678</ele>
        <time>2026-08-04T10:22:34.132Z</time>
      </trkpt>
      <trkpt lat="45.94709" lon="6.87117">
        <ele>1677</ele>
        <time>2026-08-04T10:22:35.132Z</time>
      </trkpt>
      <trkpt lat="45.94707" lon="6.87115">
        <ele>1677</ele>
        <time>2026-08-04T10:22:36.132Z</time>
      </trkpt>
      <trkpt lat="45.94705" lon="6.87114">
        <ele>1676</ele>
        <time>2026-08-04T10:22:37.132Z</time>
      </trkpt>
      <trkpt lat="45.94704" lon="6.87112">
        <ele>1675</ele>
        <time>2026-08-04T10:22:38.132Z</time>
      </trkpt>
      <trkpt lat="45.94702" lon="6.87111">
        <ele>1675</ele>
        <time>2026-08-04T10:22:39.132Z</time>
      </trkpt>
      <trkpt lat="45.94701" lon="6.87109">
        <ele>1675</ele>
        <time>2026-08-04T10:22:40.132Z</time>
      </trkpt>
      <trkpt lat="45.947" lon="6.87109">
        <ele>1675</ele>
        <time>2026-08-04T10:22:41.132Z</time>
      </trkpt>
      <trkpt lat="45.94698" lon="6.87109">
        <ele>1675</ele>
        <time>2026-08-04T10:22:42.132Z</time>
      </trkpt>
      <trkpt lat="45.94697" lon="6.87108">
        <ele>1676</ele>
        <time>2026-08-04T10:22:43.132Z</time>
      </trkpt>
      <trkpt lat="45.94696" lon="6.87108">
        <ele>1676</ele>
        <time>2026-08-04T10:22:44.132Z</time>
      </trkpt>
      <trkpt lat="45.94695" lon="6.87107">
        <ele>1676</ele>
        <time>2026-08-04T10:22:45.132Z</time>
      </trkpt>
      <trkpt lat="45.94693" lon="6.87105">
        <ele>1676</ele>
        <time>2026-08-04T10:22:46.132Z</time>
      </trkpt>
      <trkpt lat="45.94692" lon="6.87103">
        <ele>1676</ele>
        <time>2026-08-04T10:22:47.132Z</time>
      </trkpt>
      <trkpt lat="45.94691" lon="6.87102">
        <ele>1676</ele>
        <time>2026-08-04T10:22:48.132Z</time>
      </trkpt>
      <trkpt lat="45.94691" lon="6.871">
        <ele>1676</ele>
        <time>2026-08-04T10:22:49.132Z</time>
      </trkpt>
      <trkpt lat="45.9469" lon="6.871">
        <ele>1676</ele>
        <time>2026-08-04T10:22:50.132Z</time>
      </trkpt>
      <trkpt lat="45.9469" lon="6.87099">
        <ele>1676</ele>
        <time>2026-08-04T10:22:51.132Z</time>
      </trkpt>
      <trkpt lat="45.9469" lon="6.87098">
        <ele>1676</ele>
        <time>2026-08-04T10:22:52.132Z</time>
      </trkpt>
      <trkpt lat="45.94689" lon="6.87096">
        <ele>1675</ele>
        <time>2026-08-04T10:22:53.132Z</time>
      </trkpt>
      <trkpt lat="45.94689" lon="6.87094">
        <ele>1675</ele>
        <time>2026-08-04T10:22:54.132Z</time>
      </trkpt>
      <trkpt lat="45.9469" lon="6.87092">
        <ele>1674</ele>
        <time>2026-08-04T10:22:55.132Z</time>
      </trkpt>
      <trkpt lat="45.94689" lon="6.8709">
        <ele>1674</ele>
        <time>2026-08-04T10:22:56.132Z</time>
      </trkpt>
      <trkpt lat="45.94689" lon="6.87088">
        <ele>1674</ele>
        <time>2026-08-04T10:22:57.132Z</time>
      </trkpt>
      <trkpt lat="45.94688" lon="6.87085">
        <ele>1673</ele>
        <time>2026-08-04T10:22:58.132Z</time>
      </trkpt>
      <trkpt lat="45.94688" lon="6.87083">
        <ele>1673</ele>
        <time>2026-08-04T10:22:59.132Z</time>
      </trkpt>
      <trkpt lat="45.94687" lon="6.87082">
        <ele>1673</ele>
        <time>2026-08-04T10:23:00.132Z</time>
      </trkpt>
      <trkpt lat="45.94686" lon="6.8708">
        <ele>1673</ele>
        <time>2026-08-04T10:23:01.132Z</time>
      </trkpt>
      <trkpt lat="45.94685" lon="6.87079">
        <ele>1674</ele>
        <time>2026-08-04T10:23:02.132Z</time>
      </trkpt>
      <trkpt lat="45.94685" lon="6.87077">
        <ele>1673</ele>
        <time>2026-08-04T10:23:03.132Z</time>
      </trkpt>
      <trkpt lat="45.94684" lon="6.87075">
        <ele>1673</ele>
        <time>2026-08-04T10:23:04.132Z</time>
      </trkpt>
      <trkpt lat="45.94684" lon="6.87073">
        <ele>1673</ele>
        <time>2026-08-04T10:23:05.132Z</time>
      </trkpt>
      <trkpt lat="45.94683" lon="6.87071">
        <ele>1673</ele>
        <time>2026-08-04T10:23:06.132Z</time>
      </trkpt>
      <trkpt lat="45.94682" lon="6.87069">
        <ele>1673</ele>
        <time>2026-08-04T10:23:07.132Z</time>
      </trkpt>
      <trkpt lat="45.94681" lon="6.87067">
        <ele>1672</ele>
        <time>2026-08-04T10:23:08.132Z</time>
      </trkpt>
      <trkpt lat="45.9468" lon="6.87066">
        <ele>1671</ele>
        <time>2026-08-04T10:23:09.132Z</time>
      </trkpt>
      <trkpt lat="45.94679" lon="6.87064">
        <ele>1671</ele>
        <time>2026-08-04T10:23:10.132Z</time>
      </trkpt>
      <trkpt lat="45.94678" lon="6.87062">
        <ele>1670</ele>
        <time>2026-08-04T10:23:11.132Z</time>
      </trkpt>
      <trkpt lat="45.94677" lon="6.8706">
        <ele>1669</ele>
        <time>2026-08-04T10:23:12.132Z</time>
      </trkpt>
      <trkpt lat="45.94677" lon="6.87058">
        <ele>1668</ele>
        <time>2026-08-04T10:23:13.132Z</time>
      </trkpt>
      <trkpt lat="45.94677" lon="6.87057">
        <ele>1668</ele>
        <time>2026-08-04T10:23:14.132Z</time>
      </trkpt>
      <trkpt lat="45.94677" lon="6.87055">
        <ele>1667</ele>
        <time>2026-08-04T10:23:15.132Z</time>
      </trkpt>
      <trkpt lat="45.94677" lon="6.87054">
        <ele>1666</ele>
        <time>2026-08-04T10:23:16.132Z</time>
      </trkpt>
      <trkpt lat="45.94676" lon="6.87053">
        <ele>1666</ele>
        <time>2026-08-04T10:23:17.132Z</time>
      </trkpt>
      <trkpt lat="45.94675" lon="6.87053">
        <ele>1665</ele>
        <time>2026-08-04T10:23:18.132Z</time>
      </trkpt>
      <trkpt lat="45.94675" lon="6.87051">
        <ele>1664</ele>
        <time>2026-08-04T10:23:19.132Z</time>
      </trkpt>
      <trkpt lat="45.94674" lon="6.87048">
        <ele>1664</ele>
        <time>2026-08-04T10:23:20.132Z</time>
      </trkpt>
      <trkpt lat="45.94672" lon="6.87046">
        <ele>1663</ele>
        <time>2026-08-04T10:23:21.132Z</time>
      </trkpt>
      <trkpt lat="45.9467" lon="6.87043">
        <ele>1663</ele>
        <time>2026-08-04T10:23:22.132Z</time>
      </trkpt>
      <trkpt lat="45.94669" lon="6.87042">
        <ele>1662</ele>
        <time>2026-08-04T10:23:23.132Z</time>
      </trkpt>
      <trkpt lat="45.94668" lon="6.8704">
        <ele>1662</ele>
        <time>2026-08-04T10:23:24.132Z</time>
      </trkpt>
      <trkpt lat="45.94667" lon="6.87038">
        <ele>1662</ele>
        <time>2026-08-04T10:23:25.132Z</time>
      </trkpt>
      <trkpt lat="45.94667" lon="6.87037">
        <ele>1661</ele>
        <time>2026-08-04T10:23:26.132Z</time>
      </trkpt>
      <trkpt lat="45.94666" lon="6.87035">
        <ele>1661</ele>
        <time>2026-08-04T10:23:27.132Z</time>
      </trkpt>
      <trkpt lat="45.94666" lon="6.87034">
        <ele>1661</ele>
        <time>2026-08-04T10:23:28.132Z</time>
      </trkpt>
      <trkpt lat="45.94665" lon="6.87032">
        <ele>1661</ele>
        <time>2026-08-04T10:23:29.132Z</time>
      </trkpt>
      <trkpt lat="45.94664" lon="6.87031">
        <ele>1662</ele>
        <time>2026-08-04T10:23:30.132Z</time>
      </trkpt>
      <trkpt lat="45.94663" lon="6.8703">
        <ele>1662</ele>
        <time>2026-08-04T10:23:31.132Z</time>
      </trkpt>
      <trkpt lat="45.94662" lon="6.8703">
        <ele>1663</ele>
        <time>2026-08-04T10:23:32.132Z</time>
      </trkpt>
      <trkpt lat="45.9466" lon="6.8703">
        <ele>1664</ele>
        <time>2026-08-04T10:23:33.132Z</time>
      </trkpt>
      <trkpt lat="45.94658" lon="6.87029">
        <ele>1664</ele>
        <time>2026-08-04T10:23:34.132Z</time>
      </trkpt>
      <trkpt lat="45.94658" lon="6.87027">
        <ele>1665</ele>
        <time>2026-08-04T10:23:35.132Z</time>
      </trkpt>
      <trkpt lat="45.94658" lon="6.87025">
        <ele>1665</ele>
        <time>2026-08-04T10:23:36.132Z</time>
      </trkpt>
      <trkpt lat="45.94657" lon="6.87025">
        <ele>1665</ele>
        <time>2026-08-04T10:23:37.132Z</time>
      </trkpt>
      <trkpt lat="45.94656" lon="6.87024">
        <ele>1664</ele>
        <time>2026-08-04T10:23:38.132Z</time>
      </trkpt>
      <trkpt lat="45.94656" lon="6.87024">
        <ele>1664</ele>
        <time>2026-08-04T10:23:39.132Z</time>
      </trkpt>
      <trkpt lat="45.94657" lon="6.87025">
        <ele>1664</ele>
        <time>2026-08-04T10:23:40.132Z</time>
      </trkpt>
      <trkpt lat="45.94658" lon="6.87026">
        <ele>1664</ele>
        <time>2026-08-04T10:23:41.132Z</time>
      </trkpt>
      <trkpt lat="45.94658" lon="6.87027">
        <ele>1664</ele>
        <time>2026-08-04T10:23:42.132Z</time>
      </trkpt>
      <trkpt lat="45.9466" lon="6.87029">
        <ele>1664</ele>
        <time>2026-08-04T10:23:43.133Z</time>
      </trkpt>
      <trkpt lat="45.94661" lon="6.87031">
        <ele>1664</ele>
        <time>2026-08-04T10:23:44.132Z</time>
      </trkpt>
      <trkpt lat="45.94661" lon="6.87032">
        <ele>1664</ele>
        <time>2026-08-04T10:23:45.132Z</time>
      </trkpt>
      <trkpt lat="45.94662" lon="6.87032">
        <ele>1663</ele>
        <time>2026-08-04T10:23:46.132Z</time>
      </trkpt>
      <trkpt lat="45.94663" lon="6.87034">
        <ele>1663</ele>
        <time>2026-08-04T10:23:47.132Z</time>
      </trkpt>
      <trkpt lat="45.94664" lon="6.87035">
        <ele>1664</ele>
        <time>2026-08-04T10:23:48.132Z</time>
      </trkpt>
      <trkpt lat="45.94664" lon="6.87037">
        <ele>1663</ele>
        <time>2026-08-04T10:23:49.132Z</time>
      </trkpt>
      <trkpt lat="45.94665" lon="6.87038">
        <ele>1663</ele>
        <time>2026-08-04T10:23:50.132Z</time>
      </trkpt>
      <trkpt lat="45.94666" lon="6.8704">
        <ele>1663</ele>
        <time>2026-08-04T10:23:51.132Z</time>
      </trkpt>
      <trkpt lat="45.94667" lon="6.87041">
        <ele>1663</ele>
        <time>2026-08-04T10:23:52.132Z</time>
      </trkpt>
      <trkpt lat="45.94667" lon="6.87043">
        <ele>1663</ele>
        <time>2026-08-04T10:23:53.132Z</time>
      </trkpt>
      <trkpt lat="45.94668" lon="6.87044">
        <ele>1663</ele>
        <time>2026-08-04T10:23:54.132Z</time>
      </trkpt>
      <trkpt lat="45.94668" lon="6.87045">
        <ele>1663</ele>
        <time>2026-08-04T10:23:55.132Z</time>
      </trkpt>
      <trkpt lat="45.94668" lon="6.87046">
        <ele>1662</ele>
        <time>2026-08-04T10:23:56.132Z</time>
      </trkpt>
      <trkpt lat="45.94668" lon="6.87048">
        <ele>1662</ele>
        <time>2026-08-04T10:23:57.132Z</time>
      </trkpt>
      <trkpt lat="45.94668" lon="6.87051">
        <ele>1662</ele>
        <time>2026-08-04T10:23:58.132Z</time>
      </trkpt>
      <trkpt lat="45.94669" lon="6.87053">
        <ele>1661</ele>
        <time>2026-08-04T10:23:59.132Z</time>
      </trkpt>
      <trkpt lat="45.94669" lon="6.87055">
        <ele>1661</ele>
        <time>2026-08-04T10:24:00.132Z</time>
      </trkpt>
      <trkpt lat="45.9467" lon="6.87056">
        <ele>1661</ele>
        <time>2026-08-04T10:24:01.132Z</time>
      </trkpt>
      <trkpt lat="45.9467" lon="6.87057">
        <ele>1660</ele>
        <time>2026-08-04T10:24:02.132Z</time>
      </trkpt>
      <trkpt lat="45.94671" lon="6.87059">
        <ele>1660</ele>
        <time>2026-08-04T10:24:03.132Z</time>
      </trkpt>
      <trkpt lat="45.94671" lon="6.8706">
        <ele>1660</ele>
        <time>2026-08-04T10:24:04.132Z</time>
      </trkpt>
      <trkpt lat="45.94672" lon="6.87062">
        <ele>1660</ele>
        <time>2026-08-04T10:24:05.132Z</time>
      </trkpt>
      <trkpt lat="45.94673" lon="6.87064">
        <ele>1659</ele>
        <time>2026-08-04T10:24:06.132Z</time>
      </trkpt>
      <trkpt lat="45.94674" lon="6.87066">
        <ele>1659</ele>
        <time>2026-08-04T10:24:07.132Z</time>
      </trkpt>
      <trkpt lat="45.94675" lon="6.87068">
        <ele>1659</ele>
        <time>2026-08-04T10:24:08.132Z</time>
      </trkpt>
      <trkpt lat="45.94675" lon="6.87071">
        <ele>1659</ele>
        <time>2026-08-04T10:24:09.132Z</time>
      </trkpt>
      <trkpt lat="45.94677" lon="6.87073">
        <ele>1659</ele>
        <time>2026-08-04T10:24:10.132Z</time>
      </trkpt>
      <trkpt lat="45.94678" lon="6.87075">
        <ele>1659</ele>
        <time>2026-08-04T10:24:11.132Z</time>
      </trkpt>
      <trkpt lat="45.94678" lon="6.87075">
        <ele>1660</ele>
        <time>2026-08-04T10:24:12.132Z</time>
      </trkpt>
      <trkpt lat="45.94678" lon="6.87075">
        <ele>1660</ele>
        <time>2026-08-04T10:24:13.133Z</time>
      </trkpt>
      <trkpt lat="45.94678" lon="6.87077">
        <ele>1660</ele>
        <time>2026-08-04T10:24:14.132Z</time>
      </trkpt>
      <trkpt lat="45.94678" lon="6.87079">
        <ele>1660</ele>
        <time>2026-08-04T10:24:15.132Z</time>
      </trkpt>
      <trkpt lat="45.94678" lon="6.87081">
        <ele>1660</ele>
        <time>2026-08-04T10:24:16.132Z</time>
      </trkpt>
      <trkpt lat="45.94679" lon="6.87082">
        <ele>1660</ele>
        <time>2026-08-04T10:24:17.132Z</time>
      </trkpt>
      <trkpt lat="45.9468" lon="6.87084">
        <ele>1660</ele>
        <time>2026-08-04T10:24:18.132Z</time>
      </trkpt>
      <trkpt lat="45.9468" lon="6.87085">
        <ele>1659</ele>
        <time>2026-08-04T10:24:19.132Z</time>
      </trkpt>
      <trkpt lat="45.94681" lon="6.87087">
        <ele>1659</ele>
        <time>2026-08-04T10:24:20.132Z</time>
      </trkpt>
      <trkpt lat="45.94681" lon="6.87091">
        <ele>1659</ele>
        <time>2026-08-04T10:24:21.132Z</time>
      </trkpt>
      <trkpt lat="45.9468" lon="6.87095">
        <ele>1659</ele>
        <time>2026-08-04T10:24:22.132Z</time>
      </trkpt>
      <trkpt lat="45.94681" lon="6.87097">
        <ele>1659</ele>
        <time>2026-08-04T10:24:23.132Z</time>
      </trkpt>
      <trkpt lat="45.94681" lon="6.87099">
        <ele>1658</ele>
        <time>2026-08-04T10:24:24.132Z</time>
      </trkpt>
      <trkpt lat="45.94682" lon="6.87099">
        <ele>1658</ele>
        <time>2026-08-04T10:24:25.132Z</time>
      </trkpt>
      <trkpt lat="45.94682" lon="6.87099">
        <ele>1658</ele>
        <time>2026-08-04T10:24:26.132Z</time>
      </trkpt>
      <trkpt lat="45.94682" lon="6.87099">
        <ele>1657</ele>
        <time>2026-08-04T10:24:27.132Z</time>
      </trkpt>
      <trkpt lat="45.94682" lon="6.871">
        <ele>1657</ele>
        <time>2026-08-04T10:24:28.132Z</time>
      </trkpt>
      <trkpt lat="45.94682" lon="6.87101">
        <ele>1656</ele>
        <time>2026-08-04T10:24:29.132Z</time>
      </trkpt>
      <trkpt lat="45.94683" lon="6.87102">
        <ele>1655</ele>
        <time>2026-08-04T10:24:30.132Z</time>
      </trkpt>
      <trkpt lat="45.94683" lon="6.87103">
        <ele>1655</ele>
        <time>2026-08-04T10:24:31.132Z</time>
      </trkpt>
      <trkpt lat="45.94683" lon="6.87104">
        <ele>1654</ele>
        <time>2026-08-04T10:24:32.132Z</time>
      </trkpt>
      <trkpt lat="45.94683" lon="6.87106">
        <ele>1654</ele>
        <time>2026-08-04T10:24:33.132Z</time>
      </trkpt>
      <trkpt lat="45.94683" lon="6.87107">
        <ele>1653</ele>
        <time>2026-08-04T10:24:34.132Z</time>
      </trkpt>
      <trkpt lat="45.94683" lon="6.87109">
        <ele>1653</ele>
        <time>2026-08-04T10:24:35.132Z</time>
      </trkpt>
      <trkpt lat="45.94682" lon="6.87111">
        <ele>1653</ele>
        <time>2026-08-04T10:24:36.132Z</time>
      </trkpt>
      <trkpt lat="45.94681" lon="6.87113">
        <ele>1652</ele>
        <time>2026-08-04T10:24:37.132Z</time>
      </trkpt>
      <trkpt lat="45.9468" lon="6.87115">
        <ele>1652</ele>
        <time>2026-08-04T10:24:38.132Z</time>
      </trkpt>
      <trkpt lat="45.94678" lon="6.87118">
        <ele>1651</ele>
        <time>2026-08-04T10:24:39.132Z</time>
      </trkpt>
      <trkpt lat="45.94676" lon="6.8712">
        <ele>1651</ele>
        <time>2026-08-04T10:24:40.132Z</time>
      </trkpt>
      <trkpt lat="45.94674" lon="6.87123">
        <ele>1651</ele>
        <time>2026-08-04T10:24:41.132Z</time>
      </trkpt>
      <trkpt lat="45.94673" lon="6.87126">
        <ele>1651</ele>
        <time>2026-08-04T10:24:42.132Z</time>
      </trkpt>
      <trkpt lat="45.94671" lon="6.87129">
        <ele>1651</ele>
        <time>2026-08-04T10:24:43.132Z</time>
      </trkpt>
      <trkpt lat="45.9467" lon="6.87131">
        <ele>1651</ele>
        <time>2026-08-04T10:24:44.132Z</time>
      </trkpt>
      <trkpt lat="45.94669" lon="6.87133">
        <ele>1651</ele>
        <time>2026-08-04T10:24:45.132Z</time>
      </trkpt>
      <trkpt lat="45.94668" lon="6.87134">
        <ele>1652</ele>
        <time>2026-08-04T10:24:46.132Z</time>
      </trkpt>
      <trkpt lat="45.94668" lon="6.87136">
        <ele>1652</ele>
        <time>2026-08-04T10:24:47.132Z</time>
      </trkpt>
      <trkpt lat="45.94669" lon="6.87138">
        <ele>1652</ele>
        <time>2026-08-04T10:24:48.132Z</time>
      </trkpt>
      <trkpt lat="45.94669" lon="6.8714">
        <ele>1652</ele>
        <time>2026-08-04T10:24:49.132Z</time>
      </trkpt>
      <trkpt lat="45.94669" lon="6.87142">
        <ele>1651</ele>
        <time>2026-08-04T10:24:50.132Z</time>
      </trkpt>
      <trkpt lat="45.94668" lon="6.87144">
        <ele>1651</ele>
        <time>2026-08-04T10:24:51.132Z</time>
      </trkpt>
      <trkpt lat="45.94668" lon="6.87147">
        <ele>1651</ele>
        <time>2026-08-04T10:24:52.132Z</time>
      </trkpt>
      <trkpt lat="45.94667" lon="6.8715">
        <ele>1650</ele>
        <time>2026-08-04T10:24:53.132Z</time>
      </trkpt>
      <trkpt lat="45.94667" lon="6.87152">
        <ele>1650</ele>
        <time>2026-08-04T10:24:54.132Z</time>
      </trkpt>
      <trkpt lat="45.94666" lon="6.87155">
        <ele>1649</ele>
        <time>2026-08-04T10:24:55.132Z</time>
      </trkpt>
      <trkpt lat="45.94665" lon="6.87158">
        <ele>1649</ele>
        <time>2026-08-04T10:24:56.132Z</time>
      </trkpt>
      <trkpt lat="45.94665" lon="6.87161">
        <ele>1649</ele>
        <time>2026-08-04T10:24:57.132Z</time>
      </trkpt>
      <trkpt lat="45.94664" lon="6.87163">
        <ele>1648</ele>
        <time>2026-08-04T10:24:58.132Z</time>
      </trkpt>
      <trkpt lat="45.94663" lon="6.87166">
        <ele>1648</ele>
        <time>2026-08-04T10:24:59.132Z</time>
      </trkpt>
      <trkpt lat="45.94662" lon="6.87169">
        <ele>1647</ele>
        <time>2026-08-04T10:25:00.132Z</time>
      </trkpt>
      <trkpt lat="45.94661" lon="6.87171">
        <ele>1647</ele>
        <time>2026-08-04T10:25:01.132Z</time>
      </trkpt>
      <trkpt lat="45.9466" lon="6.87173">
        <ele>1647</ele>
        <time>2026-08-04T10:25:02.132Z</time>
      </trkpt>
      <trkpt lat="45.94658" lon="6.87177">
        <ele>1646</ele>
        <time>2026-08-04T10:25:03.132Z</time>
      </trkpt>
      <trkpt lat="45.94656" lon="6.87182">
        <ele>1645</ele>
        <time>2026-08-04T10:25:04.132Z</time>
      </trkpt>
      <trkpt lat="45.94656" lon="6.87186">
        <ele>1644</ele>
        <time>2026-08-04T10:25:05.132Z</time>
      </trkpt>
      <trkpt lat="45.94655" lon="6.87189">
        <ele>1644</ele>
        <time>2026-08-04T10:25:06.132Z</time>
      </trkpt>
      <trkpt lat="45.94655" lon="6.87192">
        <ele>1643</ele>
        <time>2026-08-04T10:25:07.132Z</time>
      </trkpt>
      <trkpt lat="45.94655" lon="6.87195">
        <ele>1642</ele>
        <time>2026-08-04T10:25:08.132Z</time>
      </trkpt>
      <trkpt lat="45.94655" lon="6.87197">
        <ele>1641</ele>
        <time>2026-08-04T10:25:09.132Z</time>
      </trkpt>
      <trkpt lat="45.94656" lon="6.87199">
        <ele>1640</ele>
        <time>2026-08-04T10:25:10.132Z</time>
      </trkpt>
      <trkpt lat="45.94656" lon="6.87201">
        <ele>1639</ele>
        <time>2026-08-04T10:25:11.132Z</time>
      </trkpt>
      <trkpt lat="45.94657" lon="6.87204">
        <ele>1638</ele>
        <time>2026-08-04T10:25:12.132Z</time>
      </trkpt>
      <trkpt lat="45.94657" lon="6.87206">
        <ele>1638</ele>
        <time>2026-08-04T10:25:13.132Z</time>
      </trkpt>
      <trkpt lat="45.94658" lon="6.87207">
        <ele>1637</ele>
        <time>2026-08-04T10:25:14.132Z</time>
      </trkpt>
      <trkpt lat="45.94659" lon="6.87209">
        <ele>1637</ele>
        <time>2026-08-04T10:25:15.132Z</time>
      </trkpt>
      <trkpt lat="45.9466" lon="6.8721">
        <ele>1637</ele>
        <time>2026-08-04T10:25:16.132Z</time>
      </trkpt>
      <trkpt lat="45.94661" lon="6.87212">
        <ele>1637</ele>
        <time>2026-08-04T10:25:17.132Z</time>
      </trkpt>
      <trkpt lat="45.94661" lon="6.87213">
        <ele>1636</ele>
        <time>2026-08-04T10:25:18.132Z</time>
      </trkpt>
      <trkpt lat="45.94662" lon="6.87214">
        <ele>1636</ele>
        <time>2026-08-04T10:25:19.132Z</time>
      </trkpt>
      <trkpt lat="45.94663" lon="6.87216">
        <ele>1636</ele>
        <time>2026-08-04T10:25:20.132Z</time>
      </trkpt>
      <trkpt lat="45.94664" lon="6.87217">
        <ele>1635</ele>
        <time>2026-08-04T10:25:21.132Z</time>
      </trkpt>
      <trkpt lat="45.94665" lon="6.87218">
        <ele>1635</ele>
        <time>2026-08-04T10:25:22.132Z</time>
      </trkpt>
      <trkpt lat="45.94666" lon="6.87219">
        <ele>1635</ele>
        <time>2026-08-04T10:25:23.132Z</time>
      </trkpt>
      <trkpt lat="45.94666" lon="6.87221">
        <ele>1635</ele>
        <time>2026-08-04T10:25:24.132Z</time>
      </trkpt>
      <trkpt lat="45.94665" lon="6.87225">
        <ele>1635</ele>
        <time>2026-08-04T10:25:25.132Z</time>
      </trkpt>
      <trkpt lat="45.94663" lon="6.87229">
        <ele>1634</ele>
        <time>2026-08-04T10:25:26.132Z</time>
      </trkpt>
      <trkpt lat="45.94663" lon="6.87232">
        <ele>1634</ele>
        <time>2026-08-04T10:25:27.132Z</time>
      </trkpt>
      <trkpt lat="45.94663" lon="6.87235">
        <ele>1634</ele>
        <time>2026-08-04T10:25:28.132Z</time>
      </trkpt>
      <trkpt lat="45.94664" lon="6.87236">
        <ele>1634</ele>
        <time>2026-08-04T10:25:29.132Z</time>
      </trkpt>
      <trkpt lat="45.94665" lon="6.87239">
        <ele>1634</ele>
        <time>2026-08-04T10:25:30.132Z</time>
      </trkpt>
      <trkpt lat="45.94666" lon="6.87242">
        <ele>1633</ele>
        <time>2026-08-04T10:25:31.132Z</time>
      </trkpt>
      <trkpt lat="45.94667" lon="6.87246">
        <ele>1633</ele>
        <time>2026-08-04T10:25:32.132Z</time>
      </trkpt>
      <trkpt lat="45.94667" lon="6.8725">
        <ele>1632</ele>
        <time>2026-08-04T10:25:33.132Z</time>
      </trkpt>
      <trkpt lat="45.94668" lon="6.87254">
        <ele>1632</ele>
        <time>2026-08-04T10:25:34.132Z</time>
      </trkpt>
      <trkpt lat="45.94668" lon="6.87259">
        <ele>1632</ele>
        <time>2026-08-04T10:25:35.132Z</time>
      </trkpt>
      <trkpt lat="45.94668" lon="6.87262">
        <ele>1632</ele>
        <time>2026-08-04T10:25:36.132Z</time>
      </trkpt>
      <trkpt lat="45.94669" lon="6.87264">
        <ele>1631</ele>
        <time>2026-08-04T10:25:37.133Z</time>
      </trkpt>
      <trkpt lat="45.94669" lon="6.87267">
        <ele>1631</ele>
        <time>2026-08-04T10:25:38.132Z</time>
      </trkpt>
      <trkpt lat="45.9467" lon="6.87271">
        <ele>1631</ele>
        <time>2026-08-04T10:25:39.132Z</time>
      </trkpt>
      <trkpt lat="45.9467" lon="6.87274">
        <ele>1630</ele>
        <time>2026-08-04T10:25:40.132Z</time>
      </trkpt>
      <trkpt lat="45.9467" lon="6.87273">
        <ele>1630</ele>
        <time>2026-08-04T10:25:41.132Z</time>
      </trkpt>
      <trkpt lat="45.94667" lon="6.87271">
        <ele>1630</ele>
        <time>2026-08-04T10:25:42.132Z</time>
      </trkpt>
      <trkpt lat="45.94665" lon="6.87268">
        <ele>1630</ele>
        <time>2026-08-04T10:25:43.132Z</time>
      </trkpt>
      <trkpt lat="45.94663" lon="6.87267">
        <ele>1629</ele>
        <time>2026-08-04T10:25:44.132Z</time>
      </trkpt>
      <trkpt lat="45.94662" lon="6.87263">
        <ele>1629</ele>
        <time>2026-08-04T10:25:45.132Z</time>
      </trkpt>
      <trkpt lat="45.9466" lon="6.87259">
        <ele>1629</ele>
        <time>2026-08-04T10:25:46.132Z</time>
      </trkpt>
      <trkpt lat="45.94658" lon="6.87255">
        <ele>1628</ele>
        <time>2026-08-04T10:25:47.132Z</time>
      </trkpt>
      <trkpt lat="45.94657" lon="6.87252">
        <ele>1628</ele>
        <time>2026-08-04T10:25:48.132Z</time>
      </trkpt>
      <trkpt lat="45.94657" lon="6.87248">
        <ele>1627</ele>
        <time>2026-08-04T10:25:49.132Z</time>
      </trkpt>
      <trkpt lat="45.94656" lon="6.87245">
        <ele>1626</ele>
        <time>2026-08-04T10:25:50.132Z</time>
      </trkpt>
      <trkpt lat="45.94655" lon="6.87243">
        <ele>1626</ele>
        <time>2026-08-04T10:25:51.132Z</time>
      </trkpt>
      <trkpt lat="45.94653" lon="6.8724">
        <ele>1625</ele>
        <time>2026-08-04T10:25:52.132Z</time>
      </trkpt>
      <trkpt lat="45.94652" lon="6.87238">
        <ele>1625</ele>
        <time>2026-08-04T10:25:53.132Z</time>
      </trkpt>
      <trkpt lat="45.9465" lon="6.87237">
        <ele>1625</ele>
        <time>2026-08-04T10:25:54.132Z</time>
      </trkpt>
      <trkpt lat="45.94649" lon="6.87234">
        <ele>1625</ele>
        <time>2026-08-04T10:25:55.132Z</time>
      </trkpt>
      <trkpt lat="45.94648" lon="6.87232">
        <ele>1625</ele>
        <time>2026-08-04T10:25:56.132Z</time>
      </trkpt>
      <trkpt lat="45.94647" lon="6.87231">
        <ele>1625</ele>
        <time>2026-08-04T10:25:57.132Z</time>
      </trkpt>
      <trkpt lat="45.94645" lon="6.8723">
        <ele>1625</ele>
        <time>2026-08-04T10:25:58.132Z</time>
      </trkpt>
      <trkpt lat="45.94644" lon="6.8723">
        <ele>1625</ele>
        <time>2026-08-04T10:25:59.132Z</time>
      </trkpt>
      <trkpt lat="45.94642" lon="6.87229">
        <ele>1625</ele>
        <time>2026-08-04T10:26:00.132Z</time>
      </trkpt>
      <trkpt lat="45.94641" lon="6.87227">
        <ele>1625</ele>
        <time>2026-08-04T10:26:01.132Z</time>
      </trkpt>
      <trkpt lat="45.9464" lon="6.87224">
        <ele>1625</ele>
        <time>2026-08-04T10:26:02.132Z</time>
      </trkpt>
      <trkpt lat="45.94638" lon="6.87222">
        <ele>1625</ele>
        <time>2026-08-04T10:26:03.132Z</time>
      </trkpt>
      <trkpt lat="45.94637" lon="6.87219">
        <ele>1625</ele>
        <time>2026-08-04T10:26:04.132Z</time>
      </trkpt>
      <trkpt lat="45.94636" lon="6.87216">
        <ele>1625</ele>
        <time>2026-08-04T10:26:05.132Z</time>
      </trkpt>
      <trkpt lat="45.94634" lon="6.87214">
        <ele>1626</ele>
        <time>2026-08-04T10:26:06.132Z</time>
      </trkpt>
      <trkpt lat="45.94633" lon="6.87212">
        <ele>1626</ele>
        <time>2026-08-04T10:26:07.132Z</time>
      </trkpt>
      <trkpt lat="45.94632" lon="6.87209">
        <ele>1626</ele>
        <time>2026-08-04T10:26:08.132Z</time>
      </trkpt>
      <trkpt lat="45.94631" lon="6.87207">
        <ele>1626</ele>
        <time>2026-08-04T10:26:09.132Z</time>
      </trkpt>
      <trkpt lat="45.9463" lon="6.87204">
        <ele>1626</ele>
        <time>2026-08-04T10:26:10.132Z</time>
      </trkpt>
      <trkpt lat="45.94629" lon="6.87201">
        <ele>1626</ele>
        <time>2026-08-04T10:26:11.132Z</time>
      </trkpt>
      <trkpt lat="45.94628" lon="6.87198">
        <ele>1625</ele>
        <time>2026-08-04T10:26:12.132Z</time>
      </trkpt>
      <trkpt lat="45.94628" lon="6.87195">
        <ele>1624</ele>
        <time>2026-08-04T10:26:13.132Z</time>
      </trkpt>
      <trkpt lat="45.94628" lon="6.87192">
        <ele>1624</ele>
        <time>2026-08-04T10:26:14.132Z</time>
      </trkpt>
      <trkpt lat="45.94629" lon="6.87189">
        <ele>1623</ele>
        <time>2026-08-04T10:26:15.132Z</time>
      </trkpt>
      <trkpt lat="45.94629" lon="6.87187">
        <ele>1622</ele>
        <time>2026-08-04T10:26:16.132Z</time>
      </trkpt>
      <trkpt lat="45.9463" lon="6.87184">
        <ele>1622</ele>
        <time>2026-08-04T10:26:17.132Z</time>
      </trkpt>
      <trkpt lat="45.9463" lon="6.87182">
        <ele>1621</ele>
        <time>2026-08-04T10:26:18.132Z</time>
      </trkpt>
      <trkpt lat="45.94631" lon="6.8718">
        <ele>1621</ele>
        <time>2026-08-04T10:26:19.132Z</time>
      </trkpt>
      <trkpt lat="45.94632" lon="6.87177">
        <ele>1620</ele>
        <time>2026-08-04T10:26:20.132Z</time>
      </trkpt>
      <trkpt lat="45.94632" lon="6.87175">
        <ele>1619</ele>
        <time>2026-08-04T10:26:21.132Z</time>
      </trkpt>
      <trkpt lat="45.94632" lon="6.87172">
        <ele>1618</ele>
        <time>2026-08-04T10:26:22.132Z</time>
      </trkpt>
      <trkpt lat="45.94633" lon="6.87169">
        <ele>1618</ele>
        <time>2026-08-04T10:26:23.132Z</time>
      </trkpt>
      <trkpt lat="45.94633" lon="6.87166">
        <ele>1617</ele>
        <time>2026-08-04T10:26:24.132Z</time>
      </trkpt>
      <trkpt lat="45.94634" lon="6.87163">
        <ele>1616</ele>
        <time>2026-08-04T10:26:25.132Z</time>
      </trkpt>
      <trkpt lat="45.94634" lon="6.87161">
        <ele>1616</ele>
        <time>2026-08-04T10:26:26.132Z</time>
      </trkpt>
      <trkpt lat="45.94634" lon="6.87158">
        <ele>1616</ele>
        <time>2026-08-04T10:26:27.132Z</time>
      </trkpt>
      <trkpt lat="45.94635" lon="6.87156">
        <ele>1616</ele>
        <time>2026-08-04T10:26:28.132Z</time>
      </trkpt>
      <trkpt lat="45.94635" lon="6.87154">
        <ele>1615</ele>
        <time>2026-08-04T10:26:29.132Z</time>
      </trkpt>
      <trkpt lat="45.94635" lon="6.87152">
        <ele>1615</ele>
        <time>2026-08-04T10:26:30.132Z</time>
      </trkpt>
      <trkpt lat="45.94635" lon="6.8715">
        <ele>1615</ele>
        <time>2026-08-04T10:26:31.132Z</time>
      </trkpt>
      <trkpt lat="45.94636" lon="6.87148">
        <ele>1615</ele>
        <time>2026-08-04T10:26:32.132Z</time>
      </trkpt>
      <trkpt lat="45.94636" lon="6.87146">
        <ele>1615</ele>
        <time>2026-08-04T10:26:33.132Z</time>
      </trkpt>
      <trkpt lat="45.94636" lon="6.87145">
        <ele>1615</ele>
        <time>2026-08-04T10:26:34.132Z</time>
      </trkpt>
      <trkpt lat="45.94635" lon="6.87144">
        <ele>1615</ele>
        <time>2026-08-04T10:26:35.132Z</time>
      </trkpt>
      <trkpt lat="45.94635" lon="6.87143">
        <ele>1615</ele>
        <time>2026-08-04T10:26:36.132Z</time>
      </trkpt>
      <trkpt lat="45.94634" lon="6.87142">
        <ele>1614</ele>
        <time>2026-08-04T10:26:37.132Z</time>
      </trkpt>
      <trkpt lat="45.94634" lon="6.8714">
        <ele>1614</ele>
        <time>2026-08-04T10:26:38.132Z</time>
      </trkpt>
      <trkpt lat="45.94634" lon="6.87136">
        <ele>1614</ele>
        <time>2026-08-04T10:26:39.132Z</time>
      </trkpt>
      <trkpt lat="45.94634" lon="6.87133">
        <ele>1614</ele>
        <time>2026-08-04T10:26:40.132Z</time>
      </trkpt>
      <trkpt lat="45.94633" lon="6.87131">
        <ele>1614</ele>
        <time>2026-08-04T10:26:41.132Z</time>
      </trkpt>
      <trkpt lat="45.94632" lon="6.87129">
        <ele>1614</ele>
        <time>2026-08-04T10:26:42.132Z</time>
      </trkpt>
      <trkpt lat="45.94631" lon="6.87127">
        <ele>1613</ele>
        <time>2026-08-04T10:26:43.132Z</time>
      </trkpt>
      <trkpt lat="45.9463" lon="6.87126">
        <ele>1613</ele>
        <time>2026-08-04T10:26:44.132Z</time>
      </trkpt>
      <trkpt lat="45.94629" lon="6.87124">
        <ele>1613</ele>
        <time>2026-08-04T10:26:45.132Z</time>
      </trkpt>
      <trkpt lat="45.94628" lon="6.87122">
        <ele>1613</ele>
        <time>2026-08-04T10:26:46.132Z</time>
      </trkpt>
      <trkpt lat="45.94626" lon="6.87121">
        <ele>1612</ele>
        <time>2026-08-04T10:26:47.133Z</time>
      </trkpt>
      <trkpt lat="45.94624" lon="6.87119">
        <ele>1612</ele>
        <time>2026-08-04T10:26:48.132Z</time>
      </trkpt>
      <trkpt lat="45.94622" lon="6.87117">
        <ele>1612</ele>
        <time>2026-08-04T10:26:49.132Z</time>
      </trkpt>
      <trkpt lat="45.9462" lon="6.87115">
        <ele>1611</ele>
        <time>2026-08-04T10:26:50.132Z</time>
      </trkpt>
      <trkpt lat="45.94619" lon="6.87112">
        <ele>1611</ele>
        <time>2026-08-04T10:26:51.132Z</time>
      </trkpt>
      <trkpt lat="45.94617" lon="6.8711">
        <ele>1611</ele>
        <time>2026-08-04T10:26:52.132Z</time>
      </trkpt>
      <trkpt lat="45.94616" lon="6.87108">
        <ele>1610</ele>
        <time>2026-08-04T10:26:53.132Z</time>
      </trkpt>
      <trkpt lat="45.94615" lon="6.87105">
        <ele>1610</ele>
        <time>2026-08-04T10:26:54.132Z</time>
      </trkpt>
      <trkpt lat="45.94615" lon="6.87102">
        <ele>1610</ele>
        <time>2026-08-04T10:26:55.132Z</time>
      </trkpt>
      <trkpt lat="45.94615" lon="6.871">
        <ele>1610</ele>
        <time>2026-08-04T10:26:56.132Z</time>
      </trkpt>
      <trkpt lat="45.94614" lon="6.87099">
        <ele>1610</ele>
        <time>2026-08-04T10:26:57.132Z</time>
      </trkpt>
      <trkpt lat="45.94614" lon="6.87097">
        <ele>1609</ele>
        <time>2026-08-04T10:26:58.132Z</time>
      </trkpt>
      <trkpt lat="45.94614" lon="6.87095">
        <ele>1609</ele>
        <time>2026-08-04T10:26:59.132Z</time>
      </trkpt>
      <trkpt lat="45.94613" lon="6.87093">
        <ele>1609</ele>
        <time>2026-08-04T10:27:00.132Z</time>
      </trkpt>
      <trkpt lat="45.94613" lon="6.87092">
        <ele>1609</ele>
        <time>2026-08-04T10:27:01.132Z</time>
      </trkpt>
      <trkpt lat="45.94613" lon="6.8709">
        <ele>1609</ele>
        <time>2026-08-04T10:27:02.132Z</time>
      </trkpt>
      <trkpt lat="45.94612" lon="6.87088">
        <ele>1609</ele>
        <time>2026-08-04T10:27:03.132Z</time>
      </trkpt>
      <trkpt lat="45.94612" lon="6.87087">
        <ele>1608</ele>
        <time>2026-08-04T10:27:04.132Z</time>
      </trkpt>
      <trkpt lat="45.9461" lon="6.87085">
        <ele>1608</ele>
        <time>2026-08-04T10:27:05.132Z</time>
      </trkpt>
      <trkpt lat="45.94609" lon="6.87084">
        <ele>1607</ele>
        <time>2026-08-04T10:27:06.132Z</time>
      </trkpt>
      <trkpt lat="45.94607" lon="6.87084">
        <ele>1607</ele>
        <time>2026-08-04T10:27:07.132Z</time>
      </trkpt>
      <trkpt lat="45.94605" lon="6.87084">
        <ele>1606</ele>
        <time>2026-08-04T10:27:08.132Z</time>
      </trkpt>
      <trkpt lat="45.94604" lon="6.87083">
        <ele>1605</ele>
        <time>2026-08-04T10:27:09.132Z</time>
      </trkpt>
      <trkpt lat="45.94602" lon="6.87083">
        <ele>1605</ele>
        <time>2026-08-04T10:27:10.132Z</time>
      </trkpt>
      <trkpt lat="45.946" lon="6.87083">
        <ele>1605</ele>
        <time>2026-08-04T10:27:11.132Z</time>
      </trkpt>
      <trkpt lat="45.94598" lon="6.87082">
        <ele>1605</ele>
        <time>2026-08-04T10:27:12.132Z</time>
      </trkpt>
      <trkpt lat="45.94596" lon="6.87083">
        <ele>1605</ele>
        <time>2026-08-04T10:27:13.132Z</time>
      </trkpt>
      <trkpt lat="45.94595" lon="6.87083">
        <ele>1605</ele>
        <time>2026-08-04T10:27:14.132Z</time>
      </trkpt>
      <trkpt lat="45.94593" lon="6.87083">
        <ele>1605</ele>
        <time>2026-08-04T10:27:15.132Z</time>
      </trkpt>
      <trkpt lat="45.94591" lon="6.87083">
        <ele>1606</ele>
        <time>2026-08-04T10:27:16.132Z</time>
      </trkpt>
      <trkpt lat="45.94589" lon="6.87082">
        <ele>1606</ele>
        <time>2026-08-04T10:27:17.132Z</time>
      </trkpt>
      <trkpt lat="45.94587" lon="6.8708">
        <ele>1606</ele>
        <time>2026-08-04T10:27:18.132Z</time>
      </trkpt>
      <trkpt lat="45.94586" lon="6.87079">
        <ele>1606</ele>
        <time>2026-08-04T10:27:19.132Z</time>
      </trkpt>
      <trkpt lat="45.94584" lon="6.87079">
        <ele>1605</ele>
        <time>2026-08-04T10:27:20.132Z</time>
      </trkpt>
      <trkpt lat="45.94582" lon="6.87078">
        <ele>1605</ele>
        <time>2026-08-04T10:27:21.132Z</time>
      </trkpt>
      <trkpt lat="45.94581" lon="6.87077">
        <ele>1605</ele>
        <time>2026-08-04T10:27:22.132Z</time>
      </trkpt>
      <trkpt lat="45.9458" lon="6.87075">
        <ele>1604</ele>
        <time>2026-08-04T10:27:23.132Z</time>
      </trkpt>
      <trkpt lat="45.94578" lon="6.87074">
        <ele>1604</ele>
        <time>2026-08-04T10:27:24.132Z</time>
      </trkpt>
      <trkpt lat="45.94578" lon="6.87072">
        <ele>1604</ele>
        <time>2026-08-04T10:27:25.132Z</time>
      </trkpt>
      <trkpt lat="45.94577" lon="6.8707">
        <ele>1603</ele>
        <time>2026-08-04T10:27:26.132Z</time>
      </trkpt>
      <trkpt lat="45.94576" lon="6.87068">
        <ele>1602</ele>
        <time>2026-08-04T10:27:27.132Z</time>
      </trkpt>
      <trkpt lat="45.94575" lon="6.87065">
        <ele>1602</ele>
        <time>2026-08-04T10:27:28.132Z</time>
      </trkpt>
      <trkpt lat="45.94574" lon="6.87063">
        <ele>1601</ele>
        <time>2026-08-04T10:27:29.132Z</time>
      </trkpt>
      <trkpt lat="45.94573" lon="6.87061">
        <ele>1600</ele>
        <time>2026-08-04T10:27:30.132Z</time>
      </trkpt>
      <trkpt lat="45.94571" lon="6.87059">
        <ele>1599</ele>
        <time>2026-08-04T10:27:31.132Z</time>
      </trkpt>
      <trkpt lat="45.9457" lon="6.87057">
        <ele>1598</ele>
        <time>2026-08-04T10:27:32.132Z</time>
      </trkpt>
      <trkpt lat="45.94569" lon="6.87055">
        <ele>1598</ele>
        <time>2026-08-04T10:27:33.132Z</time>
      </trkpt>
      <trkpt lat="45.94568" lon="6.87053">
        <ele>1597</ele>
        <time>2026-08-04T10:27:34.132Z</time>
      </trkpt>
      <trkpt lat="45.94567" lon="6.8705">
        <ele>1596</ele>
        <time>2026-08-04T10:27:35.132Z</time>
      </trkpt>
      <trkpt lat="45.94566" lon="6.87047">
        <ele>1596</ele>
        <time>2026-08-04T10:27:36.132Z</time>
      </trkpt>
      <trkpt lat="45.94565" lon="6.87045">
        <ele>1596</ele>
        <time>2026-08-04T10:27:37.132Z</time>
      </trkpt>
      <trkpt lat="45.94564" lon="6.87042">
        <ele>1595</ele>
        <time>2026-08-04T10:27:38.132Z</time>
      </trkpt>
      <trkpt lat="45.94564" lon="6.87039">
        <ele>1595</ele>
        <time>2026-08-04T10:27:39.132Z</time>
      </trkpt>
      <trkpt lat="45.94564" lon="6.87037">
        <ele>1595</ele>
        <time>2026-08-04T10:27:40.132Z</time>
      </trkpt>
      <trkpt lat="45.94564" lon="6.87034">
        <ele>1594</ele>
        <time>2026-08-04T10:27:41.132Z</time>
      </trkpt>
      <trkpt lat="45.94564" lon="6.87032">
        <ele>1594</ele>
        <time>2026-08-04T10:27:42.132Z</time>
      </trkpt>
      <trkpt lat="45.94564" lon="6.87029">
        <ele>1593</ele>
        <time>2026-08-04T10:27:43.132Z</time>
      </trkpt>
      <trkpt lat="45.94564" lon="6.87026">
        <ele>1593</ele>
        <time>2026-08-04T10:27:44.132Z</time>
      </trkpt>
      <trkpt lat="45.94565" lon="6.87023">
        <ele>1592</ele>
        <time>2026-08-04T10:27:45.132Z</time>
      </trkpt>
      <trkpt lat="45.94565" lon="6.8702">
        <ele>1592</ele>
        <time>2026-08-04T10:27:46.132Z</time>
      </trkpt>
      <trkpt lat="45.94566" lon="6.87017">
        <ele>1592</ele>
        <time>2026-08-04T10:27:47.132Z</time>
      </trkpt>
      <trkpt lat="45.94565" lon="6.87015">
        <ele>1591</ele>
        <time>2026-08-04T10:27:48.132Z</time>
      </trkpt>
      <trkpt lat="45.94564" lon="6.87013">
        <ele>1591</ele>
        <time>2026-08-04T10:27:49.132Z</time>
      </trkpt>
      <trkpt lat="45.94564" lon="6.8701">
        <ele>1590</ele>
        <time>2026-08-04T10:27:50.132Z</time>
      </trkpt>
      <trkpt lat="45.94563" lon="6.87008">
        <ele>1590</ele>
        <time>2026-08-04T10:27:51.132Z</time>
      </trkpt>
      <trkpt lat="45.94562" lon="6.87006">
        <ele>1590</ele>
        <time>2026-08-04T10:27:52.132Z</time>
      </trkpt>
      <trkpt lat="45.94561" lon="6.87004">
        <ele>1590</ele>
        <time>2026-08-04T10:27:53.132Z</time>
      </trkpt>
      <trkpt lat="45.94559" lon="6.87002">
        <ele>1590</ele>
        <time>2026-08-04T10:27:54.132Z</time>
      </trkpt>
      <trkpt lat="45.94558" lon="6.86999">
        <ele>1590</ele>
        <time>2026-08-04T10:27:55.132Z</time>
      </trkpt>
      <trkpt lat="45.94557" lon="6.86997">
        <ele>1590</ele>
        <time>2026-08-04T10:27:56.132Z</time>
      </trkpt>
      <trkpt lat="45.94556" lon="6.86994">
        <ele>1590</ele>
        <time>2026-08-04T10:27:57.132Z</time>
      </trkpt>
      <trkpt lat="45.94556" lon="6.86992">
        <ele>1589</ele>
        <time>2026-08-04T10:27:58.132Z</time>
      </trkpt>
      <trkpt lat="45.94555" lon="6.8699">
        <ele>1588</ele>
        <time>2026-08-04T10:27:59.132Z</time>
      </trkpt>
      <trkpt lat="45.94555" lon="6.86987">
        <ele>1588</ele>
        <time>2026-08-04T10:28:00.132Z</time>
      </trkpt>
      <trkpt lat="45.94555" lon="6.86983">
        <ele>1587</ele>
        <time>2026-08-04T10:28:01.132Z</time>
      </trkpt>
      <trkpt lat="45.94554" lon="6.86981">
        <ele>1587</ele>
        <time>2026-08-04T10:28:02.132Z</time>
      </trkpt>
      <trkpt lat="45.94553" lon="6.86978">
        <ele>1586</ele>
        <time>2026-08-04T10:28:03.132Z</time>
      </trkpt>
      <trkpt lat="45.94551" lon="6.86975">
        <ele>1586</ele>
        <time>2026-08-04T10:28:04.132Z</time>
      </trkpt>
      <trkpt lat="45.9455" lon="6.86973">
        <ele>1585</ele>
        <time>2026-08-04T10:28:05.132Z</time>
      </trkpt>
      <trkpt lat="45.9455" lon="6.86971">
        <ele>1585</ele>
        <time>2026-08-04T10:28:06.132Z</time>
      </trkpt>
      <trkpt lat="45.94549" lon="6.86969">
        <ele>1584</ele>
        <time>2026-08-04T10:28:07.132Z</time>
      </trkpt>
      <trkpt lat="45.94547" lon="6.86966">
        <ele>1583</ele>
        <time>2026-08-04T10:28:08.132Z</time>
      </trkpt>
      <trkpt lat="45.94547" lon="6.86964">
        <ele>1582</ele>
        <time>2026-08-04T10:28:09.132Z</time>
      </trkpt>
      <trkpt lat="45.94546" lon="6.8696">
        <ele>1581</ele>
        <time>2026-08-04T10:28:10.132Z</time>
      </trkpt>
      <trkpt lat="45.94545" lon="6.86958">
        <ele>1581</ele>
        <time>2026-08-04T10:28:11.132Z</time>
      </trkpt>
      <trkpt lat="45.94545" lon="6.86955">
        <ele>1580</ele>
        <time>2026-08-04T10:28:12.132Z</time>
      </trkpt>
      <trkpt lat="45.94544" lon="6.86952">
        <ele>1580</ele>
        <time>2026-08-04T10:28:13.132Z</time>
      </trkpt>
      <trkpt lat="45.94543" lon="6.8695">
        <ele>1579</ele>
        <time>2026-08-04T10:28:14.132Z</time>
      </trkpt>
      <trkpt lat="45.94542" lon="6.86948">
        <ele>1579</ele>
        <time>2026-08-04T10:28:15.132Z</time>
      </trkpt>
      <trkpt lat="45.94541" lon="6.86946">
        <ele>1579</ele>
        <time>2026-08-04T10:28:16.132Z</time>
      </trkpt>
      <trkpt lat="45.94541" lon="6.86945">
        <ele>1579</ele>
        <time>2026-08-04T10:28:17.132Z</time>
      </trkpt>
      <trkpt lat="45.94541" lon="6.86944">
        <ele>1578</ele>
        <time>2026-08-04T10:28:18.132Z</time>
      </trkpt>
      <trkpt lat="45.9454" lon="6.86943">
        <ele>1578</ele>
        <time>2026-08-04T10:28:19.132Z</time>
      </trkpt>
      <trkpt lat="45.94539" lon="6.86943">
        <ele>1578</ele>
        <time>2026-08-04T10:28:20.132Z</time>
      </trkpt>
      <trkpt lat="45.94537" lon="6.86942">
        <ele>1578</ele>
        <time>2026-08-04T10:28:21.132Z</time>
      </trkpt>
      <trkpt lat="45.94536" lon="6.86942">
        <ele>1578</ele>
        <time>2026-08-04T10:28:22.132Z</time>
      </trkpt>
      <trkpt lat="45.94535" lon="6.86941">
        <ele>1577</ele>
        <time>2026-08-04T10:28:23.132Z</time>
      </trkpt>
      <trkpt lat="45.94534" lon="6.8694">
        <ele>1577</ele>
        <time>2026-08-04T10:28:24.132Z</time>
      </trkpt>
      <trkpt lat="45.94533" lon="6.86939">
        <ele>1577</ele>
        <time>2026-08-04T10:28:25.132Z</time>
      </trkpt>
      <trkpt lat="45.94532" lon="6.86937">
        <ele>1576</ele>
        <time>2026-08-04T10:28:26.132Z</time>
      </trkpt>
      <trkpt lat="45.94531" lon="6.86935">
        <ele>1576</ele>
        <time>2026-08-04T10:28:27.132Z</time>
      </trkpt>
      <trkpt lat="45.94529" lon="6.86934">
        <ele>1576</ele>
        <time>2026-08-04T10:28:28.132Z</time>
      </trkpt>
      <trkpt lat="45.94528" lon="6.86933">
        <ele>1575</ele>
        <time>2026-08-04T10:28:29.132Z</time>
      </trkpt>
      <trkpt lat="45.94527" lon="6.86933">
        <ele>1575</ele>
        <time>2026-08-04T10:28:30.132Z</time>
      </trkpt>
      <trkpt lat="45.94526" lon="6.86932">
        <ele>1575</ele>
        <time>2026-08-04T10:28:31.132Z</time>
      </trkpt>
      <trkpt lat="45.94524" lon="6.86931">
        <ele>1575</ele>
        <time>2026-08-04T10:28:32.132Z</time>
      </trkpt>
      <trkpt lat="45.94522" lon="6.8693">
        <ele>1576</ele>
        <time>2026-08-04T10:28:33.132Z</time>
      </trkpt>
      <trkpt lat="45.94521" lon="6.8693">
        <ele>1576</ele>
        <time>2026-08-04T10:28:34.132Z</time>
      </trkpt>
      <trkpt lat="45.94519" lon="6.86931">
        <ele>1576</ele>
        <time>2026-08-04T10:28:35.132Z</time>
      </trkpt>
      <trkpt lat="45.94517" lon="6.86932">
        <ele>1577</ele>
        <time>2026-08-04T10:28:36.132Z</time>
      </trkpt>
      <trkpt lat="45.94516" lon="6.86933">
        <ele>1578</ele>
        <time>2026-08-04T10:28:37.132Z</time>
      </trkpt>
      <trkpt lat="45.94515" lon="6.86934">
        <ele>1578</ele>
        <time>2026-08-04T10:28:38.132Z</time>
      </trkpt>
      <trkpt lat="45.94513" lon="6.86935">
        <ele>1579</ele>
        <time>2026-08-04T10:28:39.132Z</time>
      </trkpt>
      <trkpt lat="45.94512" lon="6.86935">
        <ele>1579</ele>
        <time>2026-08-04T10:28:40.132Z</time>
      </trkpt>
      <trkpt lat="45.9451" lon="6.86935">
        <ele>1579</ele>
        <time>2026-08-04T10:28:41.132Z</time>
      </trkpt>
      <trkpt lat="45.94509" lon="6.86934">
        <ele>1580</ele>
        <time>2026-08-04T10:28:42.132Z</time>
      </trkpt>
      <trkpt lat="45.94508" lon="6.86933">
        <ele>1580</ele>
        <time>2026-08-04T10:28:43.132Z</time>
      </trkpt>
      <trkpt lat="45.94507" lon="6.86931">
        <ele>1581</ele>
        <time>2026-08-04T10:28:44.132Z</time>
      </trkpt>
      <trkpt lat="45.94506" lon="6.8693">
        <ele>1582</ele>
        <time>2026-08-04T10:28:45.132Z</time>
      </trkpt>
      <trkpt lat="45.94504" lon="6.8693">
        <ele>1582</ele>
        <time>2026-08-04T10:28:46.132Z</time>
      </trkpt>
      <trkpt lat="45.94503" lon="6.8693">
        <ele>1583</ele>
        <time>2026-08-04T10:28:47.132Z</time>
      </trkpt>
      <trkpt lat="45.94501" lon="6.86931">
        <ele>1584</ele>
        <time>2026-08-04T10:28:48.132Z</time>
      </trkpt>
      <trkpt lat="45.94499" lon="6.86931">
        <ele>1584</ele>
        <time>2026-08-04T10:28:49.132Z</time>
      </trkpt>
      <trkpt lat="45.94496" lon="6.86932">
        <ele>1585</ele>
        <time>2026-08-04T10:28:50.132Z</time>
      </trkpt>
      <trkpt lat="45.94494" lon="6.86932">
        <ele>1585</ele>
        <time>2026-08-04T10:28:51.132Z</time>
      </trkpt>
      <trkpt lat="45.94493" lon="6.86932">
        <ele>1585</ele>
        <time>2026-08-04T10:28:52.132Z</time>
      </trkpt>
      <trkpt lat="45.94491" lon="6.86931">
        <ele>1585</ele>
        <time>2026-08-04T10:28:53.132Z</time>
      </trkpt>
      <trkpt lat="45.94489" lon="6.86931">
        <ele>1584</ele>
        <time>2026-08-04T10:28:54.132Z</time>
      </trkpt>
      <trkpt lat="45.94487" lon="6.86931">
        <ele>1584</ele>
        <time>2026-08-04T10:28:55.132Z</time>
      </trkpt>
      <trkpt lat="45.94485" lon="6.86931">
        <ele>1583</ele>
        <time>2026-08-04T10:28:56.132Z</time>
      </trkpt>
      <trkpt lat="45.94483" lon="6.8693">
        <ele>1581</ele>
        <time>2026-08-04T10:28:57.132Z</time>
      </trkpt>
      <trkpt lat="45.94481" lon="6.86929">
        <ele>1580</ele>
        <time>2026-08-04T10:28:58.132Z</time>
      </trkpt>
      <trkpt lat="45.9448" lon="6.86927">
        <ele>1578</ele>
        <time>2026-08-04T10:28:59.132Z</time>
      </trkpt>
      <trkpt lat="45.94479" lon="6.86927">
        <ele>1577</ele>
        <time>2026-08-04T10:29:00.132Z</time>
      </trkpt>
      <trkpt lat="45.94478" lon="6.86927">
        <ele>1576</ele>
        <time>2026-08-04T10:29:01.132Z</time>
      </trkpt>
      <trkpt lat="45.94477" lon="6.86926">
        <ele>1574</ele>
        <time>2026-08-04T10:29:02.132Z</time>
      </trkpt>
      <trkpt lat="45.94476" lon="6.86925">
        <ele>1573</ele>
        <time>2026-08-04T10:29:03.132Z</time>
      </trkpt>
      <trkpt lat="45.94476" lon="6.86924">
        <ele>1571</ele>
        <time>2026-08-04T10:29:04.132Z</time>
      </trkpt>
      <trkpt lat="45.94475" lon="6.86923">
        <ele>1569</ele>
        <time>2026-08-04T10:29:05.132Z</time>
      </trkpt>
      <trkpt lat="45.94475" lon="6.86921">
        <ele>1568</ele>
        <time>2026-08-04T10:29:06.132Z</time>
      </trkpt>
      <trkpt lat="45.94474" lon="6.8692">
        <ele>1566</ele>
        <time>2026-08-04T10:29:07.132Z</time>
      </trkpt>
      <trkpt lat="45.94473" lon="6.86919">
        <ele>1565</ele>
        <time>2026-08-04T10:29:08.132Z</time>
      </trkpt>
      <trkpt lat="45.94472" lon="6.86917">
        <ele>1564</ele>
        <time>2026-08-04T10:29:09.132Z</time>
      </trkpt>
      <trkpt lat="45.94471" lon="6.86916">
        <ele>1563</ele>
        <time>2026-08-04T10:29:10.132Z</time>
      </trkpt>
      <trkpt lat="45.94469" lon="6.86914">
        <ele>1562</ele>
        <time>2026-08-04T10:29:11.132Z</time>
      </trkpt>
      <trkpt lat="45.94468" lon="6.86912">
        <ele>1561</ele>
        <time>2026-08-04T10:29:12.132Z</time>
      </trkpt>
      <trkpt lat="45.94467" lon="6.86911">
        <ele>1560</ele>
        <time>2026-08-04T10:29:13.132Z</time>
      </trkpt>
      <trkpt lat="45.94466" lon="6.8691">
        <ele>1559</ele>
        <time>2026-08-04T10:29:14.132Z</time>
      </trkpt>
      <trkpt lat="45.94464" lon="6.8691">
        <ele>1558</ele>
        <time>2026-08-04T10:29:15.132Z</time>
      </trkpt>
      <trkpt lat="45.94463" lon="6.86909">
        <ele>1558</ele>
        <time>2026-08-04T10:29:16.132Z</time>
      </trkpt>
      <trkpt lat="45.94461" lon="6.86909">
        <ele>1557</ele>
        <time>2026-08-04T10:29:17.132Z</time>
      </trkpt>
      <trkpt lat="45.9446" lon="6.86908">
        <ele>1557</ele>
        <time>2026-08-04T10:29:18.132Z</time>
      </trkpt>
      <trkpt lat="45.94458" lon="6.86908">
        <ele>1556</ele>
        <time>2026-08-04T10:29:19.132Z</time>
      </trkpt>
      <trkpt lat="45.94456" lon="6.86908">
        <ele>1556</ele>
        <time>2026-08-04T10:29:20.132Z</time>
      </trkpt>
      <trkpt lat="45.94455" lon="6.86908">
        <ele>1556</ele>
        <time>2026-08-04T10:29:21.132Z</time>
      </trkpt>
      <trkpt lat="45.94453" lon="6.86909">
        <ele>1556</ele>
        <time>2026-08-04T10:29:22.132Z</time>
      </trkpt>
      <trkpt lat="45.94451" lon="6.8691">
        <ele>1556</ele>
        <time>2026-08-04T10:29:23.132Z</time>
      </trkpt>
      <trkpt lat="45.9445" lon="6.8691">
        <ele>1556</ele>
        <time>2026-08-04T10:29:24.132Z</time>
      </trkpt>
      <trkpt lat="45.94449" lon="6.8691">
        <ele>1555</ele>
        <time>2026-08-04T10:29:25.132Z</time>
      </trkpt>
      <trkpt lat="45.94447" lon="6.86911">
        <ele>1555</ele>
        <time>2026-08-04T10:29:26.132Z</time>
      </trkpt>
      <trkpt lat="45.94445" lon="6.86912">
        <ele>1554</ele>
        <time>2026-08-04T10:29:27.132Z</time>
      </trkpt>
      <trkpt lat="45.94444" lon="6.86912">
        <ele>1554</ele>
        <time>2026-08-04T10:29:28.132Z</time>
      </trkpt>
      <trkpt lat="45.94443" lon="6.86913">
        <ele>1554</ele>
        <time>2026-08-04T10:29:29.132Z</time>
      </trkpt>
      <trkpt lat="45.94441" lon="6.86915">
        <ele>1553</ele>
        <time>2026-08-04T10:29:30.132Z</time>
      </trkpt>
      <trkpt lat="45.9444" lon="6.86915">
        <ele>1553</ele>
        <time>2026-08-04T10:29:31.132Z</time>
      </trkpt>
      <trkpt lat="45.94439" lon="6.86915">
        <ele>1552</ele>
        <time>2026-08-04T10:29:32.132Z</time>
      </trkpt>
      <trkpt lat="45.94438" lon="6.86915">
        <ele>1552</ele>
        <time>2026-08-04T10:29:33.132Z</time>
      </trkpt>
      <trkpt lat="45.94437" lon="6.86917">
        <ele>1552</ele>
        <time>2026-08-04T10:29:34.132Z</time>
      </trkpt>
      <trkpt lat="45.94436" lon="6.86918">
        <ele>1552</ele>
        <time>2026-08-04T10:29:35.132Z</time>
      </trkpt>
      <trkpt lat="45.94435" lon="6.8692">
        <ele>1552</ele>
        <time>2026-08-04T10:29:36.132Z</time>
      </trkpt>
      <trkpt lat="45.94434" lon="6.86923">
        <ele>1552</ele>
        <time>2026-08-04T10:29:37.132Z</time>
      </trkpt>
      <trkpt lat="45.94432" lon="6.86926">
        <ele>1552</ele>
        <time>2026-08-04T10:29:38.132Z</time>
      </trkpt>
      <trkpt lat="45.94431" lon="6.86928">
        <ele>1552</ele>
        <time>2026-08-04T10:29:39.132Z</time>
      </trkpt>
      <trkpt lat="45.94429" lon="6.8693">
        <ele>1552</ele>
        <time>2026-08-04T10:29:40.132Z</time>
      </trkpt>
      <trkpt lat="45.94427" lon="6.86932">
        <ele>1552</ele>
        <time>2026-08-04T10:29:41.132Z</time>
      </trkpt>
      <trkpt lat="45.94426" lon="6.86935">
        <ele>1552</ele>
        <time>2026-08-04T10:29:42.132Z</time>
      </trkpt>
      <trkpt lat="45.94424" lon="6.86937">
        <ele>1552</ele>
        <time>2026-08-04T10:29:43.132Z</time>
      </trkpt>
      <trkpt lat="45.94423" lon="6.86939">
        <ele>1553</ele>
        <time>2026-08-04T10:29:44.132Z</time>
      </trkpt>
      <trkpt lat="45.94422" lon="6.8694">
        <ele>1553</ele>
        <time>2026-08-04T10:29:45.132Z</time>
      </trkpt>
      <trkpt lat="45.94421" lon="6.86941">
        <ele>1553</ele>
        <time>2026-08-04T10:29:46.132Z</time>
      </trkpt>
      <trkpt lat="45.94421" lon="6.86943">
        <ele>1553</ele>
        <time>2026-08-04T10:29:47.132Z</time>
      </trkpt>
      <trkpt lat="45.9442" lon="6.86945">
        <ele>1554</ele>
        <time>2026-08-04T10:29:48.132Z</time>
      </trkpt>
      <trkpt lat="45.94419" lon="6.86948">
        <ele>1554</ele>
        <time>2026-08-04T10:29:49.132Z</time>
      </trkpt>
      <trkpt lat="45.94418" lon="6.8695">
        <ele>1554</ele>
        <time>2026-08-04T10:29:50.132Z</time>
      </trkpt>
      <trkpt lat="45.94418" lon="6.86952">
        <ele>1555</ele>
        <time>2026-08-04T10:29:51.132Z</time>
      </trkpt>
      <trkpt lat="45.94417" lon="6.86954">
        <ele>1555</ele>
        <time>2026-08-04T10:29:52.132Z</time>
      </trkpt>
      <trkpt lat="45.94416" lon="6.86957">
        <ele>1556</ele>
        <time>2026-08-04T10:29:53.132Z</time>
      </trkpt>
      <trkpt lat="45.94415" lon="6.8696">
        <ele>1557</ele>
        <time>2026-08-04T10:29:54.132Z</time>
      </trkpt>
      <trkpt lat="45.94415" lon="6.86961">
        <ele>1557</ele>
        <time>2026-08-04T10:29:55.132Z</time>
      </trkpt>
      <trkpt lat="45.94414" lon="6.86963">
        <ele>1558</ele>
        <time>2026-08-04T10:29:56.132Z</time>
      </trkpt>
      <trkpt lat="45.94414" lon="6.86964">
        <ele>1558</ele>
        <time>2026-08-04T10:29:57.132Z</time>
      </trkpt>
      <trkpt lat="45.94414" lon="6.86964">
        <ele>1559</ele>
        <time>2026-08-04T10:29:58.132Z</time>
      </trkpt>
      <trkpt lat="45.94414" lon="6.86964">
        <ele>1559</ele>
        <time>2026-08-04T10:29:59.132Z</time>
      </trkpt>
      <trkpt lat="45.94413" lon="6.86964">
        <ele>1559</ele>
        <time>2026-08-04T10:30:00.132Z</time>
      </trkpt>
      <trkpt lat="45.94412" lon="6.86965">
        <ele>1559</ele>
        <time>2026-08-04T10:30:01.132Z</time>
      </trkpt>
      <trkpt lat="45.94411" lon="6.86965">
        <ele>1560</ele>
        <time>2026-08-04T10:30:02.132Z</time>
      </trkpt>
      <trkpt lat="45.9441" lon="6.86966">
        <ele>1560</ele>
        <time>2026-08-04T10:30:03.132Z</time>
      </trkpt>
      <trkpt lat="45.9441" lon="6.86967">
        <ele>1560</ele>
        <time>2026-08-04T10:30:04.132Z</time>
      </trkpt>
      <trkpt lat="45.94409" lon="6.86968">
        <ele>1560</ele>
        <time>2026-08-04T10:30:05.132Z</time>
      </trkpt>
      <trkpt lat="45.94409" lon="6.86968">
        <ele>1560</ele>
        <time>2026-08-04T10:30:06.132Z</time>
      </trkpt>
      <trkpt lat="45.94409" lon="6.86969">
        <ele>1560</ele>
        <time>2026-08-04T10:30:07.132Z</time>
      </trkpt>
      <trkpt lat="45.9441" lon="6.86969">
        <ele>1560</ele>
        <time>2026-08-04T10:30:08.132Z</time>
      </trkpt>
      <trkpt lat="45.9441" lon="6.86969">
        <ele>1560</ele>
        <time>2026-08-04T10:30:09.132Z</time>
      </trkpt>
      <trkpt lat="45.94411" lon="6.8697">
        <ele>1559</ele>
        <time>2026-08-04T10:30:10.132Z</time>
      </trkpt>
      <trkpt lat="45.94411" lon="6.86971">
        <ele>1559</ele>
        <time>2026-08-04T10:30:11.132Z</time>
      </trkpt>
      <trkpt lat="45.94411" lon="6.86973">
        <ele>1559</ele>
        <time>2026-08-04T10:30:12.132Z</time>
      </trkpt>
      <trkpt lat="45.94411" lon="6.86973">
        <ele>1559</ele>
        <time>2026-08-04T10:30:13.132Z</time>
      </trkpt>
      <trkpt lat="45.94411" lon="6.86975">
        <ele>1558</ele>
        <time>2026-08-04T10:30:14.132Z</time>
      </trkpt>
      <trkpt lat="45.94411" lon="6.86976">
        <ele>1558</ele>
        <time>2026-08-04T10:30:15.132Z</time>
      </trkpt>
      <trkpt lat="45.94411" lon="6.86977">
        <ele>1558</ele>
        <time>2026-08-04T10:30:16.132Z</time>
      </trkpt>
      <trkpt lat="45.94411" lon="6.86977">
        <ele>1557</ele>
        <time>2026-08-04T10:30:17.132Z</time>
      </trkpt>
      <trkpt lat="45.94411" lon="6.86977">
        <ele>1557</ele>
        <time>2026-08-04T10:30:18.132Z</time>
      </trkpt>
      <trkpt lat="45.9441" lon="6.86977">
        <ele>1557</ele>
        <time>2026-08-04T10:30:19.132Z</time>
      </trkpt>
      <trkpt lat="45.9441" lon="6.86977">
        <ele>1556</ele>
        <time>2026-08-04T10:30:20.132Z</time>
      </trkpt>
      <trkpt lat="45.94409" lon="6.86978">
        <ele>1555</ele>
        <time>2026-08-04T10:30:21.132Z</time>
      </trkpt>
      <trkpt lat="45.94408" lon="6.86977">
        <ele>1555</ele>
        <time>2026-08-04T10:30:22.132Z</time>
      </trkpt>
      <trkpt lat="45.94406" lon="6.86977">
        <ele>1554</ele>
        <time>2026-08-04T10:30:23.132Z</time>
      </trkpt>
      <trkpt lat="45.94404" lon="6.86977">
        <ele>1553</ele>
        <time>2026-08-04T10:30:24.132Z</time>
      </trkpt>
      <trkpt lat="45.94403" lon="6.86977">
        <ele>1553</ele>
        <time>2026-08-04T10:30:25.132Z</time>
      </trkpt>
      <trkpt lat="45.94401" lon="6.86977">
        <ele>1552</ele>
        <time>2026-08-04T10:30:26.132Z</time>
      </trkpt>
      <trkpt lat="45.94399" lon="6.86976">
        <ele>1552</ele>
        <time>2026-08-04T10:30:27.132Z</time>
      </trkpt>
      <trkpt lat="45.94397" lon="6.86975">
        <ele>1552</ele>
        <time>2026-08-04T10:30:28.132Z</time>
      </trkpt>
      <trkpt lat="45.94396" lon="6.86974">
        <ele>1551</ele>
        <time>2026-08-04T10:30:29.132Z</time>
      </trkpt>
      <trkpt lat="45.94394" lon="6.86973">
        <ele>1550</ele>
        <time>2026-08-04T10:30:30.132Z</time>
      </trkpt>
      <trkpt lat="45.94392" lon="6.86973">
        <ele>1549</ele>
        <time>2026-08-04T10:30:31.132Z</time>
      </trkpt>
      <trkpt lat="45.9439" lon="6.86972">
        <ele>1549</ele>
        <time>2026-08-04T10:30:32.132Z</time>
      </trkpt>
      <trkpt lat="45.94389" lon="6.8697">
        <ele>1548</ele>
        <time>2026-08-04T10:30:33.132Z</time>
      </trkpt>
      <trkpt lat="45.94387" lon="6.86969">
        <ele>1547</ele>
        <time>2026-08-04T10:30:34.132Z</time>
      </trkpt>
      <trkpt lat="45.94386" lon="6.86968">
        <ele>1546</ele>
        <time>2026-08-04T10:30:35.132Z</time>
      </trkpt>
      <trkpt lat="45.94385" lon="6.86967">
        <ele>1545</ele>
        <time>2026-08-04T10:30:36.132Z</time>
      </trkpt>
      <trkpt lat="45.94384" lon="6.86966">
        <ele>1544</ele>
        <time>2026-08-04T10:30:37.132Z</time>
      </trkpt>
      <trkpt lat="45.94383" lon="6.86965">
        <ele>1543</ele>
        <time>2026-08-04T10:30:38.132Z</time>
      </trkpt>
      <trkpt lat="45.94383" lon="6.86964">
        <ele>1542</ele>
        <time>2026-08-04T10:30:39.132Z</time>
      </trkpt>
      <trkpt lat="45.94382" lon="6.86963">
        <ele>1541</ele>
        <time>2026-08-04T10:30:40.132Z</time>
      </trkpt>
      <trkpt lat="45.9438" lon="6.86963">
        <ele>1540</ele>
        <time>2026-08-04T10:30:41.132Z</time>
      </trkpt>
      <trkpt lat="45.94378" lon="6.86961">
        <ele>1540</ele>
        <time>2026-08-04T10:30:42.132Z</time>
      </trkpt>
      <trkpt lat="45.94376" lon="6.86959">
        <ele>1539</ele>
        <time>2026-08-04T10:30:43.132Z</time>
      </trkpt>
      <trkpt lat="45.94374" lon="6.86957">
        <ele>1539</ele>
        <time>2026-08-04T10:30:44.132Z</time>
      </trkpt>
      <trkpt lat="45.94372" lon="6.86955">
        <ele>1539</ele>
        <time>2026-08-04T10:30:45.132Z</time>
      </trkpt>
      <trkpt lat="45.9437" lon="6.86953">
        <ele>1538</ele>
        <time>2026-08-04T10:30:46.132Z</time>
      </trkpt>
      <trkpt lat="45.94368" lon="6.86952">
        <ele>1538</ele>
        <time>2026-08-04T10:30:47.132Z</time>
      </trkpt>
      <trkpt lat="45.94366" lon="6.86952">
        <ele>1538</ele>
        <time>2026-08-04T10:30:48.132Z</time>
      </trkpt>
      <trkpt lat="45.94364" lon="6.86952">
        <ele>1538</ele>
        <time>2026-08-04T10:30:49.132Z</time>
      </trkpt>
      <trkpt lat="45.94362" lon="6.86951">
        <ele>1538</ele>
        <time>2026-08-04T10:30:50.132Z</time>
      </trkpt>
      <trkpt lat="45.9436" lon="6.86951">
        <ele>1538</ele>
        <time>2026-08-04T10:30:51.132Z</time>
      </trkpt>
      <trkpt lat="45.94359" lon="6.86951">
        <ele>1538</ele>
        <time>2026-08-04T10:30:52.132Z</time>
      </trkpt>
      <trkpt lat="45.94357" lon="6.86952">
        <ele>1538</ele>
        <time>2026-08-04T10:30:53.132Z</time>
      </trkpt>
      <trkpt lat="45.94354" lon="6.86953">
        <ele>1538</ele>
        <time>2026-08-04T10:30:54.132Z</time>
      </trkpt>
      <trkpt lat="45.94352" lon="6.86953">
        <ele>1538</ele>
        <time>2026-08-04T10:30:55.132Z</time>
      </trkpt>
      <trkpt lat="45.94349" lon="6.86955">
        <ele>1539</ele>
        <time>2026-08-04T10:30:56.132Z</time>
      </trkpt>
      <trkpt lat="45.94347" lon="6.86958">
        <ele>1539</ele>
        <time>2026-08-04T10:30:57.132Z</time>
      </trkpt>
      <trkpt lat="45.94344" lon="6.8696">
        <ele>1540</ele>
        <time>2026-08-04T10:30:58.132Z</time>
      </trkpt>
      <trkpt lat="45.94343" lon="6.86962">
        <ele>1540</ele>
        <time>2026-08-04T10:30:59.132Z</time>
      </trkpt>
      <trkpt lat="45.9434" lon="6.86964">
        <ele>1540</ele>
        <time>2026-08-04T10:31:00.132Z</time>
      </trkpt>
      <trkpt lat="45.94338" lon="6.86966">
        <ele>1541</ele>
        <time>2026-08-04T10:31:01.132Z</time>
      </trkpt>
      <trkpt lat="45.94336" lon="6.86967">
        <ele>1541</ele>
        <time>2026-08-04T10:31:02.132Z</time>
      </trkpt>
      <trkpt lat="45.94334" lon="6.86967">
        <ele>1542</ele>
        <time>2026-08-04T10:31:03.132Z</time>
      </trkpt>
      <trkpt lat="45.94332" lon="6.86968">
        <ele>1542</ele>
        <time>2026-08-04T10:31:04.132Z</time>
      </trkpt>
      <trkpt lat="45.9433" lon="6.86969">
        <ele>1543</ele>
        <time>2026-08-04T10:31:05.132Z</time>
      </trkpt>
      <trkpt lat="45.94329" lon="6.86969">
        <ele>1543</ele>
        <time>2026-08-04T10:31:06.132Z</time>
      </trkpt>
      <trkpt lat="45.94328" lon="6.86969">
        <ele>1543</ele>
        <time>2026-08-04T10:31:07.132Z</time>
      </trkpt>
      <trkpt lat="45.94326" lon="6.86969">
        <ele>1543</ele>
        <time>2026-08-04T10:31:08.132Z</time>
      </trkpt>
      <trkpt lat="45.94324" lon="6.86968">
        <ele>1542</ele>
        <time>2026-08-04T10:31:09.132Z</time>
      </trkpt>
      <trkpt lat="45.94323" lon="6.86968">
        <ele>1542</ele>
        <time>2026-08-04T10:31:10.132Z</time>
      </trkpt>
      <trkpt lat="45.94321" lon="6.86967">
        <ele>1542</ele>
        <time>2026-08-04T10:31:11.132Z</time>
      </trkpt>
      <trkpt lat="45.94319" lon="6.86966">
        <ele>1541</ele>
        <time>2026-08-04T10:31:12.132Z</time>
      </trkpt>
      <trkpt lat="45.94317" lon="6.86967">
        <ele>1541</ele>
        <time>2026-08-04T10:31:13.132Z</time>
      </trkpt>
      <trkpt lat="45.94315" lon="6.86966">
        <ele>1541</ele>
        <time>2026-08-04T10:31:14.132Z</time>
      </trkpt>
      <trkpt lat="45.94314" lon="6.86966">
        <ele>1541</ele>
        <time>2026-08-04T10:31:15.132Z</time>
      </trkpt>
      <trkpt lat="45.94313" lon="6.86966">
        <ele>1541</ele>
        <time>2026-08-04T10:31:16.132Z</time>
      </trkpt>
      <trkpt lat="45.94311" lon="6.86965">
        <ele>1541</ele>
        <time>2026-08-04T10:31:17.132Z</time>
      </trkpt>
      <trkpt lat="45.9431" lon="6.86964">
        <ele>1542</ele>
        <time>2026-08-04T10:31:18.132Z</time>
      </trkpt>
      <trkpt lat="45.94309" lon="6.86963">
        <ele>1542</ele>
        <time>2026-08-04T10:31:19.132Z</time>
      </trkpt>
      <trkpt lat="45.94307" lon="6.86961">
        <ele>1542</ele>
        <time>2026-08-04T10:31:20.132Z</time>
      </trkpt>
      <trkpt lat="45.94307" lon="6.86959">
        <ele>1542</ele>
        <time>2026-08-04T10:31:21.132Z</time>
      </trkpt>
      <trkpt lat="45.94306" lon="6.86957">
        <ele>1542</ele>
        <time>2026-08-04T10:31:22.132Z</time>
      </trkpt>
      <trkpt lat="45.94305" lon="6.86955">
        <ele>1542</ele>
        <time>2026-08-04T10:31:23.132Z</time>
      </trkpt>
      <trkpt lat="45.94304" lon="6.86951">
        <ele>1542</ele>
        <time>2026-08-04T10:31:24.132Z</time>
      </trkpt>
      <trkpt lat="45.94304" lon="6.86949">
        <ele>1543</ele>
        <time>2026-08-04T10:31:25.132Z</time>
      </trkpt>
      <trkpt lat="45.94303" lon="6.86946">
        <ele>1543</ele>
        <time>2026-08-04T10:31:26.132Z</time>
      </trkpt>
      <trkpt lat="45.94302" lon="6.86944">
        <ele>1543</ele>
        <time>2026-08-04T10:31:27.132Z</time>
      </trkpt>
      <trkpt lat="45.94301" lon="6.86942">
        <ele>1542</ele>
        <time>2026-08-04T10:31:28.132Z</time>
      </trkpt>
      <trkpt lat="45.943" lon="6.86939">
        <ele>1542</ele>
        <time>2026-08-04T10:31:29.132Z</time>
      </trkpt>
      <trkpt lat="45.94299" lon="6.86937">
        <ele>1542</ele>
        <time>2026-08-04T10:31:30.132Z</time>
      </trkpt>
      <trkpt lat="45.94298" lon="6.86936">
        <ele>1542</ele>
        <time>2026-08-04T10:31:31.132Z</time>
      </trkpt>
      <trkpt lat="45.94297" lon="6.86934">
        <ele>1542</ele>
        <time>2026-08-04T10:31:32.132Z</time>
      </trkpt>
      <trkpt lat="45.94295" lon="6.86932">
        <ele>1542</ele>
        <time>2026-08-04T10:31:33.132Z</time>
      </trkpt>
      <trkpt lat="45.94293" lon="6.8693">
        <ele>1542</ele>
        <time>2026-08-04T10:31:34.132Z</time>
      </trkpt>
      <trkpt lat="45.94291" lon="6.86928">
        <ele>1542</ele>
        <time>2026-08-04T10:31:35.132Z</time>
      </trkpt>
      <trkpt lat="45.9429" lon="6.86926">
        <ele>1542</ele>
        <time>2026-08-04T10:31:36.132Z</time>
      </trkpt>
      <trkpt lat="45.94288" lon="6.86924">
        <ele>1542</ele>
        <time>2026-08-04T10:31:37.132Z</time>
      </trkpt>
      <trkpt lat="45.94285" lon="6.86922">
        <ele>1542</ele>
        <time>2026-08-04T10:31:38.132Z</time>
      </trkpt>
      <trkpt lat="45.94284" lon="6.86921">
        <ele>1542</ele>
        <time>2026-08-04T10:31:39.132Z</time>
      </trkpt>
      <trkpt lat="45.94281" lon="6.8692">
        <ele>1542</ele>
        <time>2026-08-04T10:31:40.132Z</time>
      </trkpt>
      <trkpt lat="45.9428" lon="6.8692">
        <ele>1542</ele>
        <time>2026-08-04T10:31:41.132Z</time>
      </trkpt>
      <trkpt lat="45.94278" lon="6.86919">
        <ele>1541</ele>
        <time>2026-08-04T10:31:42.132Z</time>
      </trkpt>
      <trkpt lat="45.94277" lon="6.86918">
        <ele>1541</ele>
        <time>2026-08-04T10:31:43.132Z</time>
      </trkpt>
      <trkpt lat="45.94275" lon="6.86918">
        <ele>1541</ele>
        <time>2026-08-04T10:31:44.132Z</time>
      </trkpt>
      <trkpt lat="45.94274" lon="6.86916">
        <ele>1541</ele>
        <time>2026-08-04T10:31:45.132Z</time>
      </trkpt>
      <trkpt lat="45.94273" lon="6.86915">
        <ele>1541</ele>
        <time>2026-08-04T10:31:46.132Z</time>
      </trkpt>
      <trkpt lat="45.94272" lon="6.86914">
        <ele>1541</ele>
        <time>2026-08-04T10:31:47.132Z</time>
      </trkpt>
      <trkpt lat="45.94271" lon="6.86913">
        <ele>1541</ele>
        <time>2026-08-04T10:31:48.132Z</time>
      </trkpt>
      <trkpt lat="45.94269" lon="6.86912">
        <ele>1541</ele>
        <time>2026-08-04T10:31:49.132Z</time>
      </trkpt>
      <trkpt lat="45.94268" lon="6.86912">
        <ele>1541</ele>
        <time>2026-08-04T10:31:50.132Z</time>
      </trkpt>
      <trkpt lat="45.94266" lon="6.86911">
        <ele>1541</ele>
        <time>2026-08-04T10:31:51.132Z</time>
      </trkpt>
      <trkpt lat="45.94265" lon="6.86911">
        <ele>1541</ele>
        <time>2026-08-04T10:31:52.132Z</time>
      </trkpt>
      <trkpt lat="45.94263" lon="6.86912">
        <ele>1541</ele>
        <time>2026-08-04T10:31:53.132Z</time>
      </trkpt>
      <trkpt lat="45.94262" lon="6.86911">
        <ele>1541</ele>
        <time>2026-08-04T10:31:54.132Z</time>
      </trkpt>
      <trkpt lat="45.94261" lon="6.86911">
        <ele>1541</ele>
        <time>2026-08-04T10:31:55.132Z</time>
      </trkpt>
      <trkpt lat="45.9426" lon="6.86911">
        <ele>1541</ele>
        <time>2026-08-04T10:31:56.132Z</time>
      </trkpt>
      <trkpt lat="45.94259" lon="6.86911">
        <ele>1541</ele>
        <time>2026-08-04T10:31:57.132Z</time>
      </trkpt>
      <trkpt lat="45.94257" lon="6.86912">
        <ele>1541</ele>
        <time>2026-08-04T10:31:58.132Z</time>
      </trkpt>
      <trkpt lat="45.94256" lon="6.86912">
        <ele>1541</ele>
        <time>2026-08-04T10:31:59.132Z</time>
      </trkpt>
      <trkpt lat="45.94255" lon="6.86912">
        <ele>1542</ele>
        <time>2026-08-04T10:32:00.132Z</time>
      </trkpt>
      <trkpt lat="45.94254" lon="6.86912">
        <ele>1542</ele>
        <time>2026-08-04T10:32:01.132Z</time>
      </trkpt>
      <trkpt lat="45.94252" lon="6.86912">
        <ele>1542</ele>
        <time>2026-08-04T10:32:02.132Z</time>
      </trkpt>
      <trkpt lat="45.94251" lon="6.86912">
        <ele>1542</ele>
        <time>2026-08-04T10:32:03.132Z</time>
      </trkpt>
      <trkpt lat="45.9425" lon="6.86912">
        <ele>1542</ele>
        <time>2026-08-04T10:32:04.132Z</time>
      </trkpt>
      <trkpt lat="45.94249" lon="6.86911">
        <ele>1542</ele>
        <time>2026-08-04T10:32:05.132Z</time>
      </trkpt>
      <trkpt lat="45.94248" lon="6.86909">
        <ele>1542</ele>
        <time>2026-08-04T10:32:06.132Z</time>
      </trkpt>
      <trkpt lat="45.94247" lon="6.86909">
        <ele>1542</ele>
        <time>2026-08-04T10:32:07.132Z</time>
      </trkpt>
      <trkpt lat="45.94246" lon="6.86908">
        <ele>1542</ele>
        <time>2026-08-04T10:32:08.132Z</time>
      </trkpt>
      <trkpt lat="45.94245" lon="6.86908">
        <ele>1541</ele>
        <time>2026-08-04T10:32:09.132Z</time>
      </trkpt>
      <trkpt lat="45.94244" lon="6.86907">
        <ele>1541</ele>
        <time>2026-08-04T10:32:10.132Z</time>
      </trkpt>
      <trkpt lat="45.94243" lon="6.86906">
        <ele>1542</ele>
        <time>2026-08-04T10:32:11.132Z</time>
      </trkpt>
      <trkpt lat="45.94242" lon="6.86904">
        <ele>1542</ele>
        <time>2026-08-04T10:32:12.132Z</time>
      </trkpt>
      <trkpt lat="45.94241" lon="6.86902">
        <ele>1542</ele>
        <time>2026-08-04T10:32:13.132Z</time>
      </trkpt>
      <trkpt lat="45.94239" lon="6.869">
        <ele>1542</ele>
        <time>2026-08-04T10:32:14.132Z</time>
      </trkpt>
      <trkpt lat="45.94238" lon="6.86897">
        <ele>1542</ele>
        <time>2026-08-04T10:32:15.132Z</time>
      </trkpt>
      <trkpt lat="45.94237" lon="6.86896">
        <ele>1542</ele>
        <time>2026-08-04T10:32:16.132Z</time>
      </trkpt>
      <trkpt lat="45.94236" lon="6.86894">
        <ele>1542</ele>
        <time>2026-08-04T10:32:17.132Z</time>
      </trkpt>
      <trkpt lat="45.94235" lon="6.86893">
        <ele>1542</ele>
        <time>2026-08-04T10:32:18.132Z</time>
      </trkpt>
      <trkpt lat="45.94234" lon="6.86891">
        <ele>1542</ele>
        <time>2026-08-04T10:32:19.132Z</time>
      </trkpt>
      <trkpt lat="45.94233" lon="6.8689">
        <ele>1542</ele>
        <time>2026-08-04T10:32:20.132Z</time>
      </trkpt>
      <trkpt lat="45.94233" lon="6.86887">
        <ele>1542</ele>
        <time>2026-08-04T10:32:21.132Z</time>
      </trkpt>
      <trkpt lat="45.94233" lon="6.86886">
        <ele>1542</ele>
        <time>2026-08-04T10:32:22.132Z</time>
      </trkpt>
      <trkpt lat="45.94232" lon="6.86884">
        <ele>1542</ele>
        <time>2026-08-04T10:32:23.132Z</time>
      </trkpt>
      <trkpt lat="45.94231" lon="6.86883">
        <ele>1542</ele>
        <time>2026-08-04T10:32:24.132Z</time>
      </trkpt>
      <trkpt lat="45.94231" lon="6.86883">
        <ele>1542</ele>
        <time>2026-08-04T10:32:25.132Z</time>
      </trkpt>
      <trkpt lat="45.94231" lon="6.86883">
        <ele>1542</ele>
        <time>2026-08-04T10:32:26.132Z</time>
      </trkpt>
      <trkpt lat="45.94229" lon="6.86882">
        <ele>1542</ele>
        <time>2026-08-04T10:32:27.132Z</time>
      </trkpt>
      <trkpt lat="45.94228" lon="6.86881">
        <ele>1541</ele>
        <time>2026-08-04T10:32:28.132Z</time>
      </trkpt>
      <trkpt lat="45.94227" lon="6.8688">
        <ele>1541</ele>
        <time>2026-08-04T10:32:29.132Z</time>
      </trkpt>
      <trkpt lat="45.94227" lon="6.86879">
        <ele>1540</ele>
        <time>2026-08-04T10:32:30.132Z</time>
      </trkpt>
      <trkpt lat="45.94226" lon="6.86877">
        <ele>1540</ele>
        <time>2026-08-04T10:32:31.132Z</time>
      </trkpt>
      <trkpt lat="45.94225" lon="6.86876">
        <ele>1540</ele>
        <time>2026-08-04T10:32:32.132Z</time>
      </trkpt>
      <trkpt lat="45.94224" lon="6.86874">
        <ele>1539</ele>
        <time>2026-08-04T10:32:33.132Z</time>
      </trkpt>
      <trkpt lat="45.94223" lon="6.86873">
        <ele>1539</ele>
        <time>2026-08-04T10:32:34.132Z</time>
      </trkpt>
      <trkpt lat="45.94222" lon="6.86872">
        <ele>1539</ele>
        <time>2026-08-04T10:32:35.132Z</time>
      </trkpt>
      <trkpt lat="45.94221" lon="6.86872">
        <ele>1539</ele>
        <time>2026-08-04T10:32:36.132Z</time>
      </trkpt>
      <trkpt lat="45.94219" lon="6.86872">
        <ele>1539</ele>
        <time>2026-08-04T10:32:37.132Z</time>
      </trkpt>
      <trkpt lat="45.94217" lon="6.86872">
        <ele>1540</ele>
        <time>2026-08-04T10:32:38.132Z</time>
      </trkpt>
      <trkpt lat="45.94216" lon="6.86872">
        <ele>1541</ele>
        <time>2026-08-04T10:32:39.132Z</time>
      </trkpt>
      <trkpt lat="45.94214" lon="6.86872">
        <ele>1541</ele>
        <time>2026-08-04T10:32:40.132Z</time>
      </trkpt>
      <trkpt lat="45.94213" lon="6.86871">
        <ele>1541</ele>
        <time>2026-08-04T10:32:41.132Z</time>
      </trkpt>
      <trkpt lat="45.94212" lon="6.8687">
        <ele>1541</ele>
        <time>2026-08-04T10:32:42.132Z</time>
      </trkpt>
      <trkpt lat="45.9421" lon="6.86869">
        <ele>1541</ele>
        <time>2026-08-04T10:32:43.132Z</time>
      </trkpt>
      <trkpt lat="45.94208" lon="6.86868">
        <ele>1541</ele>
        <time>2026-08-04T10:32:44.132Z</time>
      </trkpt>
      <trkpt lat="45.94207" lon="6.86868">
        <ele>1540</ele>
        <time>2026-08-04T10:32:45.132Z</time>
      </trkpt>
      <trkpt lat="45.94204" lon="6.86867">
        <ele>1540</ele>
        <time>2026-08-04T10:32:46.132Z</time>
      </trkpt>
      <trkpt lat="45.94202" lon="6.86867">
        <ele>1540</ele>
        <time>2026-08-04T10:32:47.132Z</time>
      </trkpt>
      <trkpt lat="45.942" lon="6.86867">
        <ele>1540</ele>
        <time>2026-08-04T10:32:48.132Z</time>
      </trkpt>
      <trkpt lat="45.94198" lon="6.86866">
        <ele>1539</ele>
        <time>2026-08-04T10:32:49.132Z</time>
      </trkpt>
      <trkpt lat="45.94196" lon="6.86864">
        <ele>1539</ele>
        <time>2026-08-04T10:32:50.132Z</time>
      </trkpt>
      <trkpt lat="45.94194" lon="6.86863">
        <ele>1539</ele>
        <time>2026-08-04T10:32:51.132Z</time>
      </trkpt>
      <trkpt lat="45.94191" lon="6.86861">
        <ele>1538</ele>
        <time>2026-08-04T10:32:52.132Z</time>
      </trkpt>
      <trkpt lat="45.94189" lon="6.86858">
        <ele>1538</ele>
        <time>2026-08-04T10:32:53.132Z</time>
      </trkpt>
      <trkpt lat="45.94187" lon="6.86856">
        <ele>1537</ele>
        <time>2026-08-04T10:32:54.132Z</time>
      </trkpt>
      <trkpt lat="45.94186" lon="6.86854">
        <ele>1537</ele>
        <time>2026-08-04T10:32:55.132Z</time>
      </trkpt>
      <trkpt lat="45.94184" lon="6.86853">
        <ele>1536</ele>
        <time>2026-08-04T10:32:56.132Z</time>
      </trkpt>
      <trkpt lat="45.94182" lon="6.86853">
        <ele>1536</ele>
        <time>2026-08-04T10:32:57.132Z</time>
      </trkpt>
      <trkpt lat="45.94181" lon="6.86851">
        <ele>1535</ele>
        <time>2026-08-04T10:32:58.132Z</time>
      </trkpt>
      <trkpt lat="45.94179" lon="6.86851">
        <ele>1535</ele>
        <time>2026-08-04T10:32:59.132Z</time>
      </trkpt>
      <trkpt lat="45.94177" lon="6.8685">
        <ele>1534</ele>
        <time>2026-08-04T10:33:00.132Z</time>
      </trkpt>
      <trkpt lat="45.94175" lon="6.8685">
        <ele>1534</ele>
        <time>2026-08-04T10:33:01.132Z</time>
      </trkpt>
      <trkpt lat="45.94172" lon="6.86849">
        <ele>1534</ele>
        <time>2026-08-04T10:33:02.132Z</time>
      </trkpt>
      <trkpt lat="45.9417" lon="6.86849">
        <ele>1534</ele>
        <time>2026-08-04T10:33:03.132Z</time>
      </trkpt>
      <trkpt lat="45.94168" lon="6.86848">
        <ele>1534</ele>
        <time>2026-08-04T10:33:04.132Z</time>
      </trkpt>
      <trkpt lat="45.94165" lon="6.86849">
        <ele>1534</ele>
        <time>2026-08-04T10:33:05.132Z</time>
      </trkpt>
      <trkpt lat="45.94163" lon="6.86849">
        <ele>1534</ele>
        <time>2026-08-04T10:33:06.132Z</time>
      </trkpt>
      <trkpt lat="45.94161" lon="6.8685">
        <ele>1534</ele>
        <time>2026-08-04T10:33:07.132Z</time>
      </trkpt>
      <trkpt lat="45.94159" lon="6.8685">
        <ele>1535</ele>
        <time>2026-08-04T10:33:08.132Z</time>
      </trkpt>
      <trkpt lat="45.94156" lon="6.8685">
        <ele>1535</ele>
        <time>2026-08-04T10:33:09.132Z</time>
      </trkpt>
      <trkpt lat="45.94154" lon="6.86849">
        <ele>1535</ele>
        <time>2026-08-04T10:33:10.132Z</time>
      </trkpt>
      <trkpt lat="45.94152" lon="6.86848">
        <ele>1535</ele>
        <time>2026-08-04T10:33:11.132Z</time>
      </trkpt>
      <trkpt lat="45.9415" lon="6.86847">
        <ele>1535</ele>
        <time>2026-08-04T10:33:12.132Z</time>
      </trkpt>
      <trkpt lat="45.94149" lon="6.86846">
        <ele>1534</ele>
        <time>2026-08-04T10:33:13.132Z</time>
      </trkpt>
      <trkpt lat="45.94147" lon="6.86843">
        <ele>1534</ele>
        <time>2026-08-04T10:33:14.132Z</time>
      </trkpt>
      <trkpt lat="45.94146" lon="6.86839">
        <ele>1534</ele>
        <time>2026-08-04T10:33:15.132Z</time>
      </trkpt>
      <trkpt lat="45.94146" lon="6.86836">
        <ele>1533</ele>
        <time>2026-08-04T10:33:16.132Z</time>
      </trkpt>
      <trkpt lat="45.94145" lon="6.86832">
        <ele>1533</ele>
        <time>2026-08-04T10:33:17.132Z</time>
      </trkpt>
      <trkpt lat="45.94145" lon="6.86828">
        <ele>1533</ele>
        <time>2026-08-04T10:33:18.132Z</time>
      </trkpt>
      <trkpt lat="45.94144" lon="6.86825">
        <ele>1532</ele>
        <time>2026-08-04T10:33:19.132Z</time>
      </trkpt>
      <trkpt lat="45.94144" lon="6.86822">
        <ele>1532</ele>
        <time>2026-08-04T10:33:20.132Z</time>
      </trkpt>
      <trkpt lat="45.94144" lon="6.86818">
        <ele>1532</ele>
        <time>2026-08-04T10:33:21.132Z</time>
      </trkpt>
      <trkpt lat="45.94144" lon="6.86815">
        <ele>1532</ele>
        <time>2026-08-04T10:33:22.132Z</time>
      </trkpt>
      <trkpt lat="45.94144" lon="6.86813">
        <ele>1532</ele>
        <time>2026-08-04T10:33:23.132Z</time>
      </trkpt>
      <trkpt lat="45.94143" lon="6.86811">
        <ele>1531</ele>
        <time>2026-08-04T10:33:24.132Z</time>
      </trkpt>
      <trkpt lat="45.94143" lon="6.86808">
        <ele>1531</ele>
        <time>2026-08-04T10:33:25.132Z</time>
      </trkpt>
      <trkpt lat="45.94141" lon="6.86805">
        <ele>1530</ele>
        <time>2026-08-04T10:33:26.132Z</time>
      </trkpt>
      <trkpt lat="45.94142" lon="6.86803">
        <ele>1530</ele>
        <time>2026-08-04T10:33:27.132Z</time>
      </trkpt>
      <trkpt lat="45.94142" lon="6.86801">
        <ele>1530</ele>
        <time>2026-08-04T10:33:28.132Z</time>
      </trkpt>
      <trkpt lat="45.94141" lon="6.86799">
        <ele>1529</ele>
        <time>2026-08-04T10:33:29.132Z</time>
      </trkpt>
      <trkpt lat="45.94141" lon="6.86798">
        <ele>1528</ele>
        <time>2026-08-04T10:33:30.132Z</time>
      </trkpt>
      <trkpt lat="45.94141" lon="6.86797">
        <ele>1527</ele>
        <time>2026-08-04T10:33:31.132Z</time>
      </trkpt>
      <trkpt lat="45.94141" lon="6.86797">
        <ele>1527</ele>
        <time>2026-08-04T10:33:32.132Z</time>
      </trkpt>
      <trkpt lat="45.94141" lon="6.86797">
        <ele>1526</ele>
        <time>2026-08-04T10:33:33.132Z</time>
      </trkpt>
      <trkpt lat="45.9414" lon="6.86797">
        <ele>1526</ele>
        <time>2026-08-04T10:33:34.132Z</time>
      </trkpt>
      <trkpt lat="45.9414" lon="6.86797">
        <ele>1525</ele>
        <time>2026-08-04T10:33:35.132Z</time>
      </trkpt>
      <trkpt lat="45.94139" lon="6.86796">
        <ele>1525</ele>
        <time>2026-08-04T10:33:36.132Z</time>
      </trkpt>
      <trkpt lat="45.94137" lon="6.86792">
        <ele>1524</ele>
        <time>2026-08-04T10:33:37.132Z</time>
      </trkpt>
      <trkpt lat="45.94136" lon="6.86789">
        <ele>1523</ele>
        <time>2026-08-04T10:33:38.132Z</time>
      </trkpt>
      <trkpt lat="45.94136" lon="6.86787">
        <ele>1523</ele>
        <time>2026-08-04T10:33:39.132Z</time>
      </trkpt>
      <trkpt lat="45.94136" lon="6.86785">
        <ele>1523</ele>
        <time>2026-08-04T10:33:40.132Z</time>
      </trkpt>
      <trkpt lat="45.94136" lon="6.86783">
        <ele>1522</ele>
        <time>2026-08-04T10:33:41.132Z</time>
      </trkpt>
      <trkpt lat="45.94136" lon="6.86781">
        <ele>1522</ele>
        <time>2026-08-04T10:33:42.132Z</time>
      </trkpt>
      <trkpt lat="45.94137" lon="6.8678">
        <ele>1521</ele>
        <time>2026-08-04T10:33:43.132Z</time>
      </trkpt>
      <trkpt lat="45.94137" lon="6.86778">
        <ele>1521</ele>
        <time>2026-08-04T10:33:44.132Z</time>
      </trkpt>
      <trkpt lat="45.94137" lon="6.86777">
        <ele>1520</ele>
        <time>2026-08-04T10:33:45.132Z</time>
      </trkpt>
      <trkpt lat="45.94137" lon="6.86775">
        <ele>1519</ele>
        <time>2026-08-04T10:33:46.132Z</time>
      </trkpt>
      <trkpt lat="45.94137" lon="6.86774">
        <ele>1519</ele>
        <time>2026-08-04T10:33:47.132Z</time>
      </trkpt>
      <trkpt lat="45.94138" lon="6.86772">
        <ele>1518</ele>
        <time>2026-08-04T10:33:48.132Z</time>
      </trkpt>
      <trkpt lat="45.94138" lon="6.86771">
        <ele>1518</ele>
        <time>2026-08-04T10:33:49.132Z</time>
      </trkpt>
      <trkpt lat="45.94138" lon="6.86769">
        <ele>1517</ele>
        <time>2026-08-04T10:33:50.132Z</time>
      </trkpt>
      <trkpt lat="45.94137" lon="6.86766">
        <ele>1517</ele>
        <time>2026-08-04T10:33:51.132Z</time>
      </trkpt>
      <trkpt lat="45.94137" lon="6.86764">
        <ele>1516</ele>
        <time>2026-08-04T10:33:52.132Z</time>
      </trkpt>
      <trkpt lat="45.94138" lon="6.86761">
        <ele>1516</ele>
        <time>2026-08-04T10:33:53.132Z</time>
      </trkpt>
      <trkpt lat="45.94139" lon="6.86758">
        <ele>1516</ele>
        <time>2026-08-04T10:33:54.132Z</time>
      </trkpt>
      <trkpt lat="45.9414" lon="6.86756">
        <ele>1515</ele>
        <time>2026-08-04T10:33:55.132Z</time>
      </trkpt>
      <trkpt lat="45.9414" lon="6.86755">
        <ele>1515</ele>
        <time>2026-08-04T10:33:56.132Z</time>
      </trkpt>
      <trkpt lat="45.94141" lon="6.86753">
        <ele>1515</ele>
        <time>2026-08-04T10:33:57.132Z</time>
      </trkpt>
      <trkpt lat="45.94141" lon="6.86752">
        <ele>1515</ele>
        <time>2026-08-04T10:33:58.132Z</time>
      </trkpt>
      <trkpt lat="45.94141" lon="6.86749">
        <ele>1515</ele>
        <time>2026-08-04T10:33:59.132Z</time>
      </trkpt>
      <trkpt lat="45.94141" lon="6.86747">
        <ele>1515</ele>
        <time>2026-08-04T10:34:00.132Z</time>
      </trkpt>
      <trkpt lat="45.94141" lon="6.86745">
        <ele>1515</ele>
        <time>2026-08-04T10:34:01.132Z</time>
      </trkpt>
      <trkpt lat="45.94141" lon="6.86743">
        <ele>1515</ele>
        <time>2026-08-04T10:34:02.132Z</time>
      </trkpt>
      <trkpt lat="45.94141" lon="6.86741">
        <ele>1515</ele>
        <time>2026-08-04T10:34:03.132Z</time>
      </trkpt>
      <trkpt lat="45.94141" lon="6.86739">
        <ele>1514</ele>
        <time>2026-08-04T10:34:04.132Z</time>
      </trkpt>
      <trkpt lat="45.94141" lon="6.86738">
        <ele>1514</ele>
        <time>2026-08-04T10:34:05.132Z</time>
      </trkpt>
      <trkpt lat="45.94141" lon="6.86736">
        <ele>1513</ele>
        <time>2026-08-04T10:34:06.132Z</time>
      </trkpt>
      <trkpt lat="45.9414" lon="6.86733">
        <ele>1513</ele>
        <time>2026-08-04T10:34:07.132Z</time>
      </trkpt>
      <trkpt lat="45.9414" lon="6.86731">
        <ele>1513</ele>
        <time>2026-08-04T10:34:08.132Z</time>
      </trkpt>
      <trkpt lat="45.9414" lon="6.86729">
        <ele>1513</ele>
        <time>2026-08-04T10:34:09.132Z</time>
      </trkpt>
      <trkpt lat="45.94139" lon="6.86727">
        <ele>1512</ele>
        <time>2026-08-04T10:34:10.132Z</time>
      </trkpt>
      <trkpt lat="45.94139" lon="6.86725">
        <ele>1512</ele>
        <time>2026-08-04T10:34:11.132Z</time>
      </trkpt>
      <trkpt lat="45.94138" lon="6.86722">
        <ele>1511</ele>
        <time>2026-08-04T10:34:12.132Z</time>
      </trkpt>
      <trkpt lat="45.94137" lon="6.8672">
        <ele>1511</ele>
        <time>2026-08-04T10:34:13.132Z</time>
      </trkpt>
      <trkpt lat="45.94136" lon="6.86719">
        <ele>1510</ele>
        <time>2026-08-04T10:34:14.132Z</time>
      </trkpt>
      <trkpt lat="45.94134" lon="6.86717">
        <ele>1510</ele>
        <time>2026-08-04T10:34:15.132Z</time>
      </trkpt>
      <trkpt lat="45.94133" lon="6.86715">
        <ele>1509</ele>
        <time>2026-08-04T10:34:16.132Z</time>
      </trkpt>
      <trkpt lat="45.94132" lon="6.86713">
        <ele>1509</ele>
        <time>2026-08-04T10:34:17.132Z</time>
      </trkpt>
      <trkpt lat="45.94131" lon="6.86711">
        <ele>1508</ele>
        <time>2026-08-04T10:34:18.132Z</time>
      </trkpt>
      <trkpt lat="45.94131" lon="6.86708">
        <ele>1508</ele>
        <time>2026-08-04T10:34:19.132Z</time>
      </trkpt>
      <trkpt lat="45.94131" lon="6.86705">
        <ele>1508</ele>
        <time>2026-08-04T10:34:20.132Z</time>
      </trkpt>
      <trkpt lat="45.94131" lon="6.86703">
        <ele>1508</ele>
        <time>2026-08-04T10:34:21.132Z</time>
      </trkpt>
      <trkpt lat="45.94131" lon="6.867">
        <ele>1507</ele>
        <time>2026-08-04T10:34:22.132Z</time>
      </trkpt>
      <trkpt lat="45.94131" lon="6.86698">
        <ele>1507</ele>
        <time>2026-08-04T10:34:23.132Z</time>
      </trkpt>
      <trkpt lat="45.9413" lon="6.86695">
        <ele>1507</ele>
        <time>2026-08-04T10:34:24.132Z</time>
      </trkpt>
      <trkpt lat="45.9413" lon="6.86692">
        <ele>1507</ele>
        <time>2026-08-04T10:34:25.132Z</time>
      </trkpt>
      <trkpt lat="45.9413" lon="6.86688">
        <ele>1508</ele>
        <time>2026-08-04T10:34:26.132Z</time>
      </trkpt>
      <trkpt lat="45.94129" lon="6.86685">
        <ele>1508</ele>
        <time>2026-08-04T10:34:27.132Z</time>
      </trkpt>
      <trkpt lat="45.94128" lon="6.86682">
        <ele>1508</ele>
        <time>2026-08-04T10:34:28.132Z</time>
      </trkpt>
      <trkpt lat="45.94128" lon="6.86679">
        <ele>1508</ele>
        <time>2026-08-04T10:34:29.132Z</time>
      </trkpt>
      <trkpt lat="45.94128" lon="6.86676">
        <ele>1508</ele>
        <time>2026-08-04T10:34:30.132Z</time>
      </trkpt>
      <trkpt lat="45.94128" lon="6.86673">
        <ele>1508</ele>
        <time>2026-08-04T10:34:31.132Z</time>
      </trkpt>
      <trkpt lat="45.94128" lon="6.8667">
        <ele>1508</ele>
        <time>2026-08-04T10:34:32.132Z</time>
      </trkpt>
      <trkpt lat="45.94128" lon="6.86668">
        <ele>1508</ele>
        <time>2026-08-04T10:34:33.132Z</time>
      </trkpt>
      <trkpt lat="45.94128" lon="6.86667">
        <ele>1508</ele>
        <time>2026-08-04T10:34:34.132Z</time>
      </trkpt>
      <trkpt lat="45.94127" lon="6.86666">
        <ele>1509</ele>
        <time>2026-08-04T10:34:35.132Z</time>
      </trkpt>
      <trkpt lat="45.94126" lon="6.86665">
        <ele>1510</ele>
        <time>2026-08-04T10:34:36.132Z</time>
      </trkpt>
      <trkpt lat="45.94124" lon="6.86664">
        <ele>1511</ele>
        <time>2026-08-04T10:34:37.132Z</time>
      </trkpt>
      <trkpt lat="45.94122" lon="6.86663">
        <ele>1511</ele>
        <time>2026-08-04T10:34:38.132Z</time>
      </trkpt>
      <trkpt lat="45.94121" lon="6.86661">
        <ele>1512</ele>
        <time>2026-08-04T10:34:39.132Z</time>
      </trkpt>
      <trkpt lat="45.94119" lon="6.86659">
        <ele>1512</ele>
        <time>2026-08-04T10:34:40.132Z</time>
      </trkpt>
      <trkpt lat="45.94118" lon="6.86657">
        <ele>1512</ele>
        <time>2026-08-04T10:34:41.132Z</time>
      </trkpt>
      <trkpt lat="45.94116" lon="6.86654">
        <ele>1512</ele>
        <time>2026-08-04T10:34:42.132Z</time>
      </trkpt>
      <trkpt lat="45.94114" lon="6.86652">
        <ele>1511</ele>
        <time>2026-08-04T10:34:43.132Z</time>
      </trkpt>
      <trkpt lat="45.94113" lon="6.86649">
        <ele>1511</ele>
        <time>2026-08-04T10:34:44.132Z</time>
      </trkpt>
      <trkpt lat="45.94113" lon="6.86648">
        <ele>1510</ele>
        <time>2026-08-04T10:34:45.132Z</time>
      </trkpt>
      <trkpt lat="45.94113" lon="6.86647">
        <ele>1510</ele>
        <time>2026-08-04T10:34:46.132Z</time>
      </trkpt>
      <trkpt lat="45.94112" lon="6.86646">
        <ele>1510</ele>
        <time>2026-08-04T10:34:47.132Z</time>
      </trkpt>
      <trkpt lat="45.94111" lon="6.86645">
        <ele>1510</ele>
        <time>2026-08-04T10:34:48.132Z</time>
      </trkpt>
      <trkpt lat="45.9411" lon="6.86643">
        <ele>1509</ele>
        <time>2026-08-04T10:34:49.132Z</time>
      </trkpt>
      <trkpt lat="45.9411" lon="6.86642">
        <ele>1509</ele>
        <time>2026-08-04T10:34:50.132Z</time>
      </trkpt>
      <trkpt lat="45.94109" lon="6.8664">
        <ele>1509</ele>
        <time>2026-08-04T10:34:51.132Z</time>
      </trkpt>
      <trkpt lat="45.94107" lon="6.86638">
        <ele>1509</ele>
        <time>2026-08-04T10:34:52.132Z</time>
      </trkpt>
      <trkpt lat="45.94106" lon="6.86637">
        <ele>1508</ele>
        <time>2026-08-04T10:34:53.132Z</time>
      </trkpt>
      <trkpt lat="45.94105" lon="6.86635">
        <ele>1508</ele>
        <time>2026-08-04T10:34:54.132Z</time>
      </trkpt>
      <trkpt lat="45.94103" lon="6.86632">
        <ele>1508</ele>
        <time>2026-08-04T10:34:55.132Z</time>
      </trkpt>
      <trkpt lat="45.94102" lon="6.86631">
        <ele>1507</ele>
        <time>2026-08-04T10:34:56.132Z</time>
      </trkpt>
      <trkpt lat="45.94102" lon="6.86629">
        <ele>1507</ele>
        <time>2026-08-04T10:34:57.132Z</time>
      </trkpt>
      <trkpt lat="45.94101" lon="6.86627">
        <ele>1506</ele>
        <time>2026-08-04T10:34:58.132Z</time>
      </trkpt>
      <trkpt lat="45.94101" lon="6.86625">
        <ele>1505</ele>
        <time>2026-08-04T10:34:59.132Z</time>
      </trkpt>
      <trkpt lat="45.94102" lon="6.86623">
        <ele>1505</ele>
        <time>2026-08-04T10:35:00.132Z</time>
      </trkpt>
      <trkpt lat="45.94102" lon="6.86621">
        <ele>1504</ele>
        <time>2026-08-04T10:35:01.132Z</time>
      </trkpt>
      <trkpt lat="45.94102" lon="6.86619">
        <ele>1504</ele>
        <time>2026-08-04T10:35:02.132Z</time>
      </trkpt>
      <trkpt lat="45.94102" lon="6.86617">
        <ele>1503</ele>
        <time>2026-08-04T10:35:03.132Z</time>
      </trkpt>
      <trkpt lat="45.94103" lon="6.86616">
        <ele>1502</ele>
        <time>2026-08-04T10:35:04.132Z</time>
      </trkpt>
      <trkpt lat="45.94103" lon="6.86614">
        <ele>1502</ele>
        <time>2026-08-04T10:35:05.132Z</time>
      </trkpt>
      <trkpt lat="45.94102" lon="6.86613">
        <ele>1501</ele>
        <time>2026-08-04T10:35:06.132Z</time>
      </trkpt>
      <trkpt lat="45.94102" lon="6.86611">
        <ele>1501</ele>
        <time>2026-08-04T10:35:07.132Z</time>
      </trkpt>
      <trkpt lat="45.94102" lon="6.8661">
        <ele>1501</ele>
        <time>2026-08-04T10:35:08.132Z</time>
      </trkpt>
      <trkpt lat="45.94102" lon="6.86608">
        <ele>1501</ele>
        <time>2026-08-04T10:35:09.132Z</time>
      </trkpt>
      <trkpt lat="45.94102" lon="6.86607">
        <ele>1500</ele>
        <time>2026-08-04T10:35:10.132Z</time>
      </trkpt>
      <trkpt lat="45.94102" lon="6.86606">
        <ele>1500</ele>
        <time>2026-08-04T10:35:11.132Z</time>
      </trkpt>
      <trkpt lat="45.94102" lon="6.86605">
        <ele>1500</ele>
        <time>2026-08-04T10:35:12.132Z</time>
      </trkpt>
      <trkpt lat="45.94102" lon="6.86603">
        <ele>1501</ele>
        <time>2026-08-04T10:35:13.132Z</time>
      </trkpt>
      <trkpt lat="45.94102" lon="6.86602">
        <ele>1501</ele>
        <time>2026-08-04T10:35:14.132Z</time>
      </trkpt>
      <trkpt lat="45.94102" lon="6.866">
        <ele>1501</ele>
        <time>2026-08-04T10:35:15.132Z</time>
      </trkpt>
      <trkpt lat="45.94103" lon="6.86599">
        <ele>1502</ele>
        <time>2026-08-04T10:35:16.132Z</time>
      </trkpt>
      <trkpt lat="45.94102" lon="6.86598">
        <ele>1502</ele>
        <time>2026-08-04T10:35:17.132Z</time>
      </trkpt>
      <trkpt lat="45.94102" lon="6.86596">
        <ele>1502</ele>
        <time>2026-08-04T10:35:18.132Z</time>
      </trkpt>
      <trkpt lat="45.94102" lon="6.86595">
        <ele>1502</ele>
        <time>2026-08-04T10:35:19.132Z</time>
      </trkpt>
      <trkpt lat="45.94102" lon="6.86594">
        <ele>1503</ele>
        <time>2026-08-04T10:35:20.132Z</time>
      </trkpt>
      <trkpt lat="45.94102" lon="6.86593">
        <ele>1503</ele>
        <time>2026-08-04T10:35:21.132Z</time>
      </trkpt>
      <trkpt lat="45.94101" lon="6.86593">
        <ele>1503</ele>
        <time>2026-08-04T10:35:22.132Z</time>
      </trkpt>
      <trkpt lat="45.94101" lon="6.86593">
        <ele>1504</ele>
        <time>2026-08-04T10:35:23.132Z</time>
      </trkpt>
      <trkpt lat="45.941" lon="6.86593">
        <ele>1505</ele>
        <time>2026-08-04T10:35:24.132Z</time>
      </trkpt>
      <trkpt lat="45.941" lon="6.86594">
        <ele>1505</ele>
        <time>2026-08-04T10:35:25.132Z</time>
      </trkpt>
      <trkpt lat="45.941" lon="6.86595">
        <ele>1505</ele>
        <time>2026-08-04T10:35:26.132Z</time>
      </trkpt>
      <trkpt lat="45.941" lon="6.86596">
        <ele>1506</ele>
        <time>2026-08-04T10:35:27.132Z</time>
      </trkpt>
      <trkpt lat="45.941" lon="6.86597">
        <ele>1506</ele>
        <time>2026-08-04T10:35:28.132Z</time>
      </trkpt>
      <trkpt lat="45.941" lon="6.86598">
        <ele>1506</ele>
        <time>2026-08-04T10:35:29.132Z</time>
      </trkpt>
      <trkpt lat="45.94101" lon="6.86599">
        <ele>1506</ele>
        <time>2026-08-04T10:35:30.132Z</time>
      </trkpt>
      <trkpt lat="45.94102" lon="6.866">
        <ele>1506</ele>
        <time>2026-08-04T10:35:31.132Z</time>
      </trkpt>
      <trkpt lat="45.94102" lon="6.86602">
        <ele>1506</ele>
        <time>2026-08-04T10:35:32.132Z</time>
      </trkpt>
      <trkpt lat="45.94101" lon="6.86604">
        <ele>1506</ele>
        <time>2026-08-04T10:35:33.132Z</time>
      </trkpt>
      <trkpt lat="45.94102" lon="6.86606">
        <ele>1505</ele>
        <time>2026-08-04T10:35:34.132Z</time>
      </trkpt>
      <trkpt lat="45.94101" lon="6.86608">
        <ele>1504</ele>
        <time>2026-08-04T10:35:35.132Z</time>
      </trkpt>
      <trkpt lat="45.941" lon="6.86609">
        <ele>1504</ele>
        <time>2026-08-04T10:35:36.132Z</time>
      </trkpt>
      <trkpt lat="45.94099" lon="6.86609">
        <ele>1503</ele>
        <time>2026-08-04T10:35:37.132Z</time>
      </trkpt>
      <trkpt lat="45.94098" lon="6.86609">
        <ele>1503</ele>
        <time>2026-08-04T10:35:38.132Z</time>
      </trkpt>
      <trkpt lat="45.94097" lon="6.86607">
        <ele>1503</ele>
        <time>2026-08-04T10:35:39.132Z</time>
      </trkpt>
      <trkpt lat="45.94096" lon="6.86605">
        <ele>1503</ele>
        <time>2026-08-04T10:35:40.132Z</time>
      </trkpt>
      <trkpt lat="45.94095" lon="6.86604">
        <ele>1502</ele>
        <time>2026-08-04T10:35:41.132Z</time>
      </trkpt>
      <trkpt lat="45.94094" lon="6.86602">
        <ele>1502</ele>
        <time>2026-08-04T10:35:42.132Z</time>
      </trkpt>
      <trkpt lat="45.94094" lon="6.866">
        <ele>1502</ele>
        <time>2026-08-04T10:35:43.132Z</time>
      </trkpt>
      <trkpt lat="45.94093" lon="6.86598">
        <ele>1502</ele>
        <time>2026-08-04T10:35:44.132Z</time>
      </trkpt>
      <trkpt lat="45.94092" lon="6.86597">
        <ele>1501</ele>
        <time>2026-08-04T10:35:45.132Z</time>
      </trkpt>
      <trkpt lat="45.94091" lon="6.86596">
        <ele>1501</ele>
        <time>2026-08-04T10:35:46.132Z</time>
      </trkpt>
      <trkpt lat="45.9409" lon="6.86594">
        <ele>1500</ele>
        <time>2026-08-04T10:35:47.132Z</time>
      </trkpt>
      <trkpt lat="45.9409" lon="6.86593">
        <ele>1500</ele>
        <time>2026-08-04T10:35:48.132Z</time>
      </trkpt>
      <trkpt lat="45.94089" lon="6.86591">
        <ele>1499</ele>
        <time>2026-08-04T10:35:49.132Z</time>
      </trkpt>
      <trkpt lat="45.94089" lon="6.8659">
        <ele>1499</ele>
        <time>2026-08-04T10:35:50.132Z</time>
      </trkpt>
      <trkpt lat="45.94089" lon="6.8659">
        <ele>1499</ele>
        <time>2026-08-04T10:35:51.132Z</time>
      </trkpt>
      <trkpt lat="45.94088" lon="6.86589">
        <ele>1499</ele>
        <time>2026-08-04T10:35:52.132Z</time>
      </trkpt>
      <trkpt lat="45.94088" lon="6.86589">
        <ele>1498</ele>
        <time>2026-08-04T10:35:53.132Z</time>
      </trkpt>
      <trkpt lat="45.94087" lon="6.86588">
        <ele>1498</ele>
        <time>2026-08-04T10:35:54.132Z</time>
      </trkpt>
      <trkpt lat="45.94087" lon="6.86587">
        <ele>1498</ele>
        <time>2026-08-04T10:35:55.132Z</time>
      </trkpt>
      <trkpt lat="45.94086" lon="6.86585">
        <ele>1497</ele>
        <time>2026-08-04T10:35:56.132Z</time>
      </trkpt>
      <trkpt lat="45.94086" lon="6.86583">
        <ele>1496</ele>
        <time>2026-08-04T10:35:57.132Z</time>
      </trkpt>
      <trkpt lat="45.94086" lon="6.86582">
        <ele>1496</ele>
        <time>2026-08-04T10:35:58.132Z</time>
      </trkpt>
      <trkpt lat="45.94086" lon="6.8658">
        <ele>1495</ele>
        <time>2026-08-04T10:35:59.132Z</time>
      </trkpt>
      <trkpt lat="45.94087" lon="6.86579">
        <ele>1495</ele>
        <time>2026-08-04T10:36:00.132Z</time>
      </trkpt>
      <trkpt lat="45.94088" lon="6.86577">
        <ele>1494</ele>
        <time>2026-08-04T10:36:01.132Z</time>
      </trkpt>
      <trkpt lat="45.94088" lon="6.86575">
        <ele>1494</ele>
        <time>2026-08-04T10:36:02.132Z</time>
      </trkpt>
      <trkpt lat="45.94089" lon="6.86573">
        <ele>1493</ele>
        <time>2026-08-04T10:36:03.132Z</time>
      </trkpt>
      <trkpt lat="45.94089" lon="6.86571">
        <ele>1493</ele>
        <time>2026-08-04T10:36:04.132Z</time>
      </trkpt>
      <trkpt lat="45.94089" lon="6.86569">
        <ele>1493</ele>
        <time>2026-08-04T10:36:05.132Z</time>
      </trkpt>
      <trkpt lat="45.94089" lon="6.86568">
        <ele>1493</ele>
        <time>2026-08-04T10:36:06.132Z</time>
      </trkpt>
      <trkpt lat="45.9409" lon="6.86567">
        <ele>1492</ele>
        <time>2026-08-04T10:36:07.132Z</time>
      </trkpt>
      <trkpt lat="45.9409" lon="6.86565">
        <ele>1492</ele>
        <time>2026-08-04T10:36:08.132Z</time>
      </trkpt>
      <trkpt lat="45.9409" lon="6.86563">
        <ele>1491</ele>
        <time>2026-08-04T10:36:09.132Z</time>
      </trkpt>
      <trkpt lat="45.9409" lon="6.86562">
        <ele>1490</ele>
        <time>2026-08-04T10:36:10.132Z</time>
      </trkpt>
      <trkpt lat="45.9409" lon="6.8656">
        <ele>1489</ele>
        <time>2026-08-04T10:36:11.132Z</time>
      </trkpt>
      <trkpt lat="45.9409" lon="6.86558">
        <ele>1489</ele>
        <time>2026-08-04T10:36:12.132Z</time>
      </trkpt>
      <trkpt lat="45.94089" lon="6.86557">
        <ele>1488</ele>
        <time>2026-08-04T10:36:13.132Z</time>
      </trkpt>
      <trkpt lat="45.94088" lon="6.86554">
        <ele>1488</ele>
        <time>2026-08-04T10:36:14.132Z</time>
      </trkpt>
      <trkpt lat="45.94088" lon="6.86553">
        <ele>1488</ele>
        <time>2026-08-04T10:36:15.132Z</time>
      </trkpt>
      <trkpt lat="45.94086" lon="6.86551">
        <ele>1488</ele>
        <time>2026-08-04T10:36:16.132Z</time>
      </trkpt>
      <trkpt lat="45.94085" lon="6.8655">
        <ele>1488</ele>
        <time>2026-08-04T10:36:17.132Z</time>
      </trkpt>
      <trkpt lat="45.94084" lon="6.86547">
        <ele>1488</ele>
        <time>2026-08-04T10:36:18.132Z</time>
      </trkpt>
      <trkpt lat="45.94084" lon="6.86545">
        <ele>1488</ele>
        <time>2026-08-04T10:36:19.132Z</time>
      </trkpt>
      <trkpt lat="45.94084" lon="6.86543">
        <ele>1488</ele>
        <time>2026-08-04T10:36:20.132Z</time>
      </trkpt>
      <trkpt lat="45.94083" lon="6.8654">
        <ele>1488</ele>
        <time>2026-08-04T10:36:21.132Z</time>
      </trkpt>
      <trkpt lat="45.94083" lon="6.86538">
        <ele>1488</ele>
        <time>2026-08-04T10:36:22.132Z</time>
      </trkpt>
      <trkpt lat="45.94083" lon="6.86536">
        <ele>1488</ele>
        <time>2026-08-04T10:36:23.132Z</time>
      </trkpt>
      <trkpt lat="45.94083" lon="6.86535">
        <ele>1488</ele>
        <time>2026-08-04T10:36:24.132Z</time>
      </trkpt>
      <trkpt lat="45.94082" lon="6.86534">
        <ele>1488</ele>
        <time>2026-08-04T10:36:25.132Z</time>
      </trkpt>
      <trkpt lat="45.94082" lon="6.86532">
        <ele>1488</ele>
        <time>2026-08-04T10:36:26.132Z</time>
      </trkpt>
      <trkpt lat="45.94082" lon="6.86531">
        <ele>1487</ele>
        <time>2026-08-04T10:36:27.132Z</time>
      </trkpt>
      <trkpt lat="45.94082" lon="6.8653">
        <ele>1487</ele>
        <time>2026-08-04T10:36:28.132Z</time>
      </trkpt>
      <trkpt lat="45.94082" lon="6.86528">
        <ele>1487</ele>
        <time>2026-08-04T10:36:29.132Z</time>
      </trkpt>
      <trkpt lat="45.94082" lon="6.86525">
        <ele>1487</ele>
        <time>2026-08-04T10:36:30.132Z</time>
      </trkpt>
      <trkpt lat="45.94081" lon="6.86523">
        <ele>1487</ele>
        <time>2026-08-04T10:36:31.132Z</time>
      </trkpt>
      <trkpt lat="45.94079" lon="6.86522">
        <ele>1487</ele>
        <time>2026-08-04T10:36:32.132Z</time>
      </trkpt>
      <trkpt lat="45.94078" lon="6.8652">
        <ele>1487</ele>
        <time>2026-08-04T10:36:33.132Z</time>
      </trkpt>
      <trkpt lat="45.94078" lon="6.86518">
        <ele>1487</ele>
        <time>2026-08-04T10:36:34.132Z</time>
      </trkpt>
      <trkpt lat="45.94078" lon="6.86516">
        <ele>1487</ele>
        <time>2026-08-04T10:36:35.132Z</time>
      </trkpt>
      <trkpt lat="45.94077" lon="6.86514">
        <ele>1486</ele>
        <time>2026-08-04T10:36:36.132Z</time>
      </trkpt>
      <trkpt lat="45.94077" lon="6.86512">
        <ele>1486</ele>
        <time>2026-08-04T10:36:37.132Z</time>
      </trkpt>
      <trkpt lat="45.94076" lon="6.86509">
        <ele>1485</ele>
        <time>2026-08-04T10:36:38.132Z</time>
      </trkpt>
      <trkpt lat="45.94077" lon="6.86507">
        <ele>1485</ele>
        <time>2026-08-04T10:36:39.132Z</time>
      </trkpt>
      <trkpt lat="45.94077" lon="6.86505">
        <ele>1485</ele>
        <time>2026-08-04T10:36:40.132Z</time>
      </trkpt>
      <trkpt lat="45.94078" lon="6.86502">
        <ele>1485</ele>
        <time>2026-08-04T10:36:41.132Z</time>
      </trkpt>
      <trkpt lat="45.94078" lon="6.865">
        <ele>1485</ele>
        <time>2026-08-04T10:36:42.132Z</time>
      </trkpt>
      <trkpt lat="45.94078" lon="6.86499">
        <ele>1485</ele>
        <time>2026-08-04T10:36:43.132Z</time>
      </trkpt>
      <trkpt lat="45.94077" lon="6.86498">
        <ele>1485</ele>
        <time>2026-08-04T10:36:44.132Z</time>
      </trkpt>
      <trkpt lat="45.94077" lon="6.86497">
        <ele>1485</ele>
        <time>2026-08-04T10:36:45.132Z</time>
      </trkpt>
      <trkpt lat="45.94076" lon="6.86498">
        <ele>1486</ele>
        <time>2026-08-04T10:36:46.132Z</time>
      </trkpt>
      <trkpt lat="45.94074" lon="6.86498">
        <ele>1486</ele>
        <time>2026-08-04T10:36:47.132Z</time>
      </trkpt>
      <trkpt lat="45.94072" lon="6.865">
        <ele>1486</ele>
        <time>2026-08-04T10:36:48.132Z</time>
      </trkpt>
      <trkpt lat="45.94071" lon="6.86501">
        <ele>1487</ele>
        <time>2026-08-04T10:36:49.132Z</time>
      </trkpt>
      <trkpt lat="45.94069" lon="6.86502">
        <ele>1487</ele>
        <time>2026-08-04T10:36:50.132Z</time>
      </trkpt>
      <trkpt lat="45.94067" lon="6.86502">
        <ele>1488</ele>
        <time>2026-08-04T10:36:51.132Z</time>
      </trkpt>
      <trkpt lat="45.94066" lon="6.86502">
        <ele>1488</ele>
        <time>2026-08-04T10:36:52.132Z</time>
      </trkpt>
      <trkpt lat="45.94064" lon="6.86503">
        <ele>1489</ele>
        <time>2026-08-04T10:36:53.132Z</time>
      </trkpt>
      <trkpt lat="45.94063" lon="6.86504">
        <ele>1490</ele>
        <time>2026-08-04T10:36:54.132Z</time>
      </trkpt>
      <trkpt lat="45.94062" lon="6.86505">
        <ele>1490</ele>
        <time>2026-08-04T10:36:55.132Z</time>
      </trkpt>
      <trkpt lat="45.94061" lon="6.86506">
        <ele>1491</ele>
        <time>2026-08-04T10:36:56.132Z</time>
      </trkpt>
      <trkpt lat="45.9406" lon="6.86508">
        <ele>1492</ele>
        <time>2026-08-04T10:36:57.132Z</time>
      </trkpt>
      <trkpt lat="45.9406" lon="6.86508">
        <ele>1492</ele>
        <time>2026-08-04T10:36:58.132Z</time>
      </trkpt>
      <trkpt lat="45.9406" lon="6.86508">
        <ele>1493</ele>
        <time>2026-08-04T10:36:59.132Z</time>
      </trkpt>
      <trkpt lat="45.9406" lon="6.86508">
        <ele>1494</ele>
        <time>2026-08-04T10:37:00.132Z</time>
      </trkpt>
      <trkpt lat="45.94059" lon="6.86508">
        <ele>1494</ele>
        <time>2026-08-04T10:37:01.132Z</time>
      </trkpt>
      <trkpt lat="45.9406" lon="6.86508">
        <ele>1495</ele>
        <time>2026-08-04T10:37:02.132Z</time>
      </trkpt>
      <trkpt lat="45.9406" lon="6.86508">
        <ele>1496</ele>
        <time>2026-08-04T10:37:03.132Z</time>
      </trkpt>
      <trkpt lat="45.9406" lon="6.86509">
        <ele>1496</ele>
        <time>2026-08-04T10:37:04.132Z</time>
      </trkpt>
      <trkpt lat="45.94059" lon="6.86509">
        <ele>1496</ele>
        <time>2026-08-04T10:37:05.132Z</time>
      </trkpt>
      <trkpt lat="45.94058" lon="6.86509">
        <ele>1496</ele>
        <time>2026-08-04T10:37:06.132Z</time>
      </trkpt>
      <trkpt lat="45.94056" lon="6.8651">
        <ele>1496</ele>
        <time>2026-08-04T10:37:07.132Z</time>
      </trkpt>
      <trkpt lat="45.94054" lon="6.86509">
        <ele>1496</ele>
        <time>2026-08-04T10:37:08.132Z</time>
      </trkpt>
      <trkpt lat="45.94052" lon="6.86508">
        <ele>1495</ele>
        <time>2026-08-04T10:37:09.132Z</time>
      </trkpt>
      <trkpt lat="45.94051" lon="6.86507">
        <ele>1495</ele>
        <time>2026-08-04T10:37:10.132Z</time>
      </trkpt>
      <trkpt lat="45.9405" lon="6.86505">
        <ele>1494</ele>
        <time>2026-08-04T10:37:11.132Z</time>
      </trkpt>
      <trkpt lat="45.94049" lon="6.86504">
        <ele>1493</ele>
        <time>2026-08-04T10:37:12.132Z</time>
      </trkpt>
      <trkpt lat="45.94047" lon="6.86502">
        <ele>1492</ele>
        <time>2026-08-04T10:37:13.132Z</time>
      </trkpt>
      <trkpt lat="45.94046" lon="6.865">
        <ele>1491</ele>
        <time>2026-08-04T10:37:14.132Z</time>
      </trkpt>
      <trkpt lat="45.94045" lon="6.86499">
        <ele>1491</ele>
        <time>2026-08-04T10:37:15.132Z</time>
      </trkpt>
      <trkpt lat="45.94044" lon="6.86497">
        <ele>1490</ele>
        <time>2026-08-04T10:37:16.132Z</time>
      </trkpt>
      <trkpt lat="45.94043" lon="6.86496">
        <ele>1489</ele>
        <time>2026-08-04T10:37:17.132Z</time>
      </trkpt>
      <trkpt lat="45.94043" lon="6.86494">
        <ele>1488</ele>
        <time>2026-08-04T10:37:18.132Z</time>
      </trkpt>
      <trkpt lat="45.94043" lon="6.86492">
        <ele>1487</ele>
        <time>2026-08-04T10:37:19.132Z</time>
      </trkpt>
      <trkpt lat="45.94044" lon="6.8649">
        <ele>1486</ele>
        <time>2026-08-04T10:37:20.132Z</time>
      </trkpt>
      <trkpt lat="45.94043" lon="6.86488">
        <ele>1486</ele>
        <time>2026-08-04T10:37:21.132Z</time>
      </trkpt>
      <trkpt lat="45.94043" lon="6.86487">
        <ele>1486</ele>
        <time>2026-08-04T10:37:22.132Z</time>
      </trkpt>
      <trkpt lat="45.94042" lon="6.86485">
        <ele>1486</ele>
        <time>2026-08-04T10:37:23.132Z</time>
      </trkpt>
      <trkpt lat="45.94042" lon="6.86484">
        <ele>1485</ele>
        <time>2026-08-04T10:37:24.132Z</time>
      </trkpt>
      <trkpt lat="45.94041" lon="6.86483">
        <ele>1485</ele>
        <time>2026-08-04T10:37:25.132Z</time>
      </trkpt>
      <trkpt lat="45.9404" lon="6.86482">
        <ele>1485</ele>
        <time>2026-08-04T10:37:26.132Z</time>
      </trkpt>
      <trkpt lat="45.9404" lon="6.8648">
        <ele>1484</ele>
        <time>2026-08-04T10:37:27.132Z</time>
      </trkpt>
      <trkpt lat="45.9404" lon="6.86478">
        <ele>1484</ele>
        <time>2026-08-04T10:37:28.132Z</time>
      </trkpt>
      <trkpt lat="45.94039" lon="6.86476">
        <ele>1483</ele>
        <time>2026-08-04T10:37:29.132Z</time>
      </trkpt>
      <trkpt lat="45.94039" lon="6.86474">
        <ele>1482</ele>
        <time>2026-08-04T10:37:30.132Z</time>
      </trkpt>
      <trkpt lat="45.94038" lon="6.86472">
        <ele>1481</ele>
        <time>2026-08-04T10:37:31.132Z</time>
      </trkpt>
      <trkpt lat="45.94038" lon="6.8647">
        <ele>1481</ele>
        <time>2026-08-04T10:37:32.132Z</time>
      </trkpt>
      <trkpt lat="45.94037" lon="6.86468">
        <ele>1481</ele>
        <time>2026-08-04T10:37:33.132Z</time>
      </trkpt>
      <trkpt lat="45.94037" lon="6.86466">
        <ele>1480</ele>
        <time>2026-08-04T10:37:34.132Z</time>
      </trkpt>
      <trkpt lat="45.94036" lon="6.86465">
        <ele>1480</ele>
        <time>2026-08-04T10:37:35.132Z</time>
      </trkpt>
      <trkpt lat="45.94036" lon="6.86464">
        <ele>1480</ele>
        <time>2026-08-04T10:37:36.132Z</time>
      </trkpt>
      <trkpt lat="45.94036" lon="6.86462">
        <ele>1480</ele>
        <time>2026-08-04T10:37:37.132Z</time>
      </trkpt>
      <trkpt lat="45.94036" lon="6.86461">
        <ele>1480</ele>
        <time>2026-08-04T10:37:38.132Z</time>
      </trkpt>
      <trkpt lat="45.94036" lon="6.8646">
        <ele>1481</ele>
        <time>2026-08-04T10:37:39.132Z</time>
      </trkpt>
      <trkpt lat="45.94036" lon="6.8646">
        <ele>1481</ele>
        <time>2026-08-04T10:37:40.132Z</time>
      </trkpt>
      <trkpt lat="45.94036" lon="6.86459">
        <ele>1481</ele>
        <time>2026-08-04T10:37:41.132Z</time>
      </trkpt>
      <trkpt lat="45.94036" lon="6.86458">
        <ele>1481</ele>
        <time>2026-08-04T10:37:42.132Z</time>
      </trkpt>
      <trkpt lat="45.94036" lon="6.86457">
        <ele>1481</ele>
        <time>2026-08-04T10:37:43.132Z</time>
      </trkpt>
      <trkpt lat="45.94036" lon="6.86457">
        <ele>1482</ele>
        <time>2026-08-04T10:37:44.132Z</time>
      </trkpt>
      <trkpt lat="45.94036" lon="6.86456">
        <ele>1482</ele>
        <time>2026-08-04T10:37:45.132Z</time>
      </trkpt>
      <trkpt lat="45.94036" lon="6.86455">
        <ele>1483</ele>
        <time>2026-08-04T10:37:46.132Z</time>
      </trkpt>
      <trkpt lat="45.94035" lon="6.86454">
        <ele>1483</ele>
        <time>2026-08-04T10:37:47.132Z</time>
      </trkpt>
      <trkpt lat="45.94035" lon="6.86452">
        <ele>1484</ele>
        <time>2026-08-04T10:37:48.132Z</time>
      </trkpt>
      <trkpt lat="45.94035" lon="6.86451">
        <ele>1484</ele>
        <time>2026-08-04T10:37:49.132Z</time>
      </trkpt>
      <trkpt lat="45.94036" lon="6.8645">
        <ele>1484</ele>
        <time>2026-08-04T10:37:50.132Z</time>
      </trkpt>
      <trkpt lat="45.94035" lon="6.86449">
        <ele>1483</ele>
        <time>2026-08-04T10:37:51.132Z</time>
      </trkpt>
      <trkpt lat="45.94035" lon="6.86448">
        <ele>1483</ele>
        <time>2026-08-04T10:37:52.132Z</time>
      </trkpt>
      <trkpt lat="45.94035" lon="6.86447">
        <ele>1483</ele>
        <time>2026-08-04T10:37:53.132Z</time>
      </trkpt>
      <trkpt lat="45.94035" lon="6.86447">
        <ele>1482</ele>
        <time>2026-08-04T10:37:54.132Z</time>
      </trkpt>
      <trkpt lat="45.94035" lon="6.86446">
        <ele>1482</ele>
        <time>2026-08-04T10:37:55.132Z</time>
      </trkpt>
      <trkpt lat="45.94035" lon="6.86444">
        <ele>1482</ele>
        <time>2026-08-04T10:37:56.132Z</time>
      </trkpt>
      <trkpt lat="45.94034" lon="6.86443">
        <ele>1481</ele>
        <time>2026-08-04T10:37:57.132Z</time>
      </trkpt>
      <trkpt lat="45.94035" lon="6.86442">
        <ele>1481</ele>
        <time>2026-08-04T10:37:58.132Z</time>
      </trkpt>
      <trkpt lat="45.94035" lon="6.86441">
        <ele>1481</ele>
        <time>2026-08-04T10:37:59.132Z</time>
      </trkpt>
      <trkpt lat="45.94035" lon="6.8644">
        <ele>1481</ele>
        <time>2026-08-04T10:38:00.132Z</time>
      </trkpt>
      <trkpt lat="45.94035" lon="6.86439">
        <ele>1481</ele>
        <time>2026-08-04T10:38:01.132Z</time>
      </trkpt>
      <trkpt lat="45.94035" lon="6.86439">
        <ele>1481</ele>
        <time>2026-08-04T10:38:02.132Z</time>
      </trkpt>
      <trkpt lat="45.94035" lon="6.86439">
        <ele>1482</ele>
        <time>2026-08-04T10:38:03.132Z</time>
      </trkpt>
      <trkpt lat="45.94035" lon="6.86439">
        <ele>1482</ele>
        <time>2026-08-04T10:38:04.132Z</time>
      </trkpt>
      <trkpt lat="45.94035" lon="6.86439">
        <ele>1482</ele>
        <time>2026-08-04T10:38:05.132Z</time>
      </trkpt>
      <trkpt lat="45.94035" lon="6.86439">
        <ele>1482</ele>
        <time>2026-08-04T10:38:06.132Z</time>
      </trkpt>
      <trkpt lat="45.94035" lon="6.86438">
        <ele>1482</ele>
        <time>2026-08-04T10:38:07.132Z</time>
      </trkpt>
      <trkpt lat="45.94035" lon="6.86438">
        <ele>1482</ele>
        <time>2026-08-04T10:38:08.132Z</time>
      </trkpt>
      <trkpt lat="45.94034" lon="6.86437">
        <ele>1482</ele>
        <time>2026-08-04T10:38:09.132Z</time>
      </trkpt>
      <trkpt lat="45.94034" lon="6.86437">
        <ele>1483</ele>
        <time>2026-08-04T10:38:10.132Z</time>
      </trkpt>
      <trkpt lat="45.94034" lon="6.86436">
        <ele>1483</ele>
        <time>2026-08-04T10:38:11.132Z</time>
      </trkpt>
      <trkpt lat="45.94034" lon="6.86436">
        <ele>1483</ele>
        <time>2026-08-04T10:38:12.132Z</time>
      </trkpt>
      <trkpt lat="45.94033" lon="6.86435">
        <ele>1483</ele>
        <time>2026-08-04T10:38:13.132Z</time>
      </trkpt>
      <trkpt lat="45.94032" lon="6.86435">
        <ele>1483</ele>
        <time>2026-08-04T10:38:14.132Z</time>
      </trkpt>
      <trkpt lat="45.94032" lon="6.86434">
        <ele>1483</ele>
        <time>2026-08-04T10:38:15.132Z</time>
      </trkpt>
      <trkpt lat="45.94031" lon="6.86433">
        <ele>1482</ele>
        <time>2026-08-04T10:38:16.132Z</time>
      </trkpt>
      <trkpt lat="45.94031" lon="6.86433">
        <ele>1482</ele>
        <time>2026-08-04T10:38:17.132Z</time>
      </trkpt>
      <trkpt lat="45.9403" lon="6.86434">
        <ele>1483</ele>
        <time>2026-08-04T10:38:18.132Z</time>
      </trkpt>
      <trkpt lat="45.94029" lon="6.86435">
        <ele>1483</ele>
        <time>2026-08-04T10:38:19.132Z</time>
      </trkpt>
      <trkpt lat="45.94029" lon="6.86434">
        <ele>1483</ele>
        <time>2026-08-04T10:38:20.132Z</time>
      </trkpt>
      <trkpt lat="45.94028" lon="6.86434">
        <ele>1483</ele>
        <time>2026-08-04T10:38:21.132Z</time>
      </trkpt>
      <trkpt lat="45.94028" lon="6.86435">
        <ele>1483</ele>
        <time>2026-08-04T10:38:22.132Z</time>
      </trkpt>
      <trkpt lat="45.94027" lon="6.86436">
        <ele>1483</ele>
        <time>2026-08-04T10:38:23.132Z</time>
      </trkpt>
      <trkpt lat="45.94026" lon="6.86434">
        <ele>1484</ele>
        <time>2026-08-04T10:38:24.132Z</time>
      </trkpt>
      <trkpt lat="45.94026" lon="6.86433">
        <ele>1484</ele>
        <time>2026-08-04T10:38:25.132Z</time>
      </trkpt>
      <trkpt lat="45.94025" lon="6.86433">
        <ele>1484</ele>
        <time>2026-08-04T10:38:26.132Z</time>
      </trkpt>
      <trkpt lat="45.94025" lon="6.86433">
        <ele>1484</ele>
        <time>2026-08-04T10:38:27.132Z</time>
      </trkpt>
      <trkpt lat="45.94024" lon="6.86433">
        <ele>1484</ele>
        <time>2026-08-04T10:38:28.132Z</time>
      </trkpt>
      <trkpt lat="45.94024" lon="6.86433">
        <ele>1484</ele>
        <time>2026-08-04T10:38:29.132Z</time>
      </trkpt>
      <trkpt lat="45.94024" lon="6.86434">
        <ele>1485</ele>
        <time>2026-08-04T10:38:30.132Z</time>
      </trkpt>
      <trkpt lat="45.94024" lon="6.86434">
        <ele>1485</ele>
        <time>2026-08-04T10:38:31.132Z</time>
      </trkpt>
      <trkpt lat="45.94024" lon="6.86435">
        <ele>1485</ele>
        <time>2026-08-04T10:38:32.132Z</time>
      </trkpt>
      <trkpt lat="45.94025" lon="6.86436">
        <ele>1485</ele>
        <time>2026-08-04T10:38:33.132Z</time>
      </trkpt>
      <trkpt lat="45.94025" lon="6.86437">
        <ele>1485</ele>
        <time>2026-08-04T10:38:34.132Z</time>
      </trkpt>
      <trkpt lat="45.94025" lon="6.86437">
        <ele>1485</ele>
        <time>2026-08-04T10:38:35.132Z</time>
      </trkpt>
      <trkpt lat="45.94025" lon="6.86438">
        <ele>1485</ele>
        <time>2026-08-04T10:38:36.132Z</time>
      </trkpt>
      <trkpt lat="45.94025" lon="6.86438">
        <ele>1485</ele>
        <time>2026-08-04T10:38:37.132Z</time>
      </trkpt>
      <trkpt lat="45.94025" lon="6.86438">
        <ele>1485</ele>
        <time>2026-08-04T10:38:38.132Z</time>
      </trkpt>
      <trkpt lat="45.94025" lon="6.86438">
        <ele>1485</ele>
        <time>2026-08-04T10:38:39.132Z</time>
      </trkpt>
      <trkpt lat="45.94025" lon="6.86437">
        <ele>1484</ele>
        <time>2026-08-04T10:38:40.132Z</time>
      </trkpt>
      <trkpt lat="45.94025" lon="6.86437">
        <ele>1484</ele>
        <time>2026-08-04T10:38:41.132Z</time>
      </trkpt>
      <trkpt lat="45.94025" lon="6.86437">
        <ele>1484</ele>
        <time>2026-08-04T10:38:42.132Z</time>
      </trkpt>
      <trkpt lat="45.94025" lon="6.86438">
        <ele>1484</ele>
        <time>2026-08-04T10:38:43.132Z</time>
      </trkpt>
      <trkpt lat="45.94025" lon="6.86439">
        <ele>1485</ele>
        <time>2026-08-04T10:38:44.132Z</time>
      </trkpt>
      <trkpt lat="45.94025" lon="6.86439">
        <ele>1485</ele>
        <time>2026-08-04T10:38:45.132Z</time>
      </trkpt>
      <trkpt lat="45.94024" lon="6.8644">
        <ele>1485</ele>
        <time>2026-08-04T10:38:46.132Z</time>
      </trkpt>
      <trkpt lat="45.94024" lon="6.8644">
        <ele>1485</ele>
        <time>2026-08-04T10:38:47.132Z</time>
      </trkpt>
      <trkpt lat="45.94024" lon="6.86439">
        <ele>1485</ele>
        <time>2026-08-04T10:38:48.132Z</time>
      </trkpt>
      <trkpt lat="45.94024" lon="6.86439">
        <ele>1485</ele>
        <time>2026-08-04T10:38:49.132Z</time>
      </trkpt>
      <trkpt lat="45.94024" lon="6.86438">
        <ele>1485</ele>
        <time>2026-08-04T10:38:50.132Z</time>
      </trkpt>
      <trkpt lat="45.94025" lon="6.86438">
        <ele>1485</ele>
        <time>2026-08-04T10:38:51.132Z</time>
      </trkpt>
      <trkpt lat="45.94025" lon="6.86437">
        <ele>1486</ele>
        <time>2026-08-04T10:38:52.132Z</time>
      </trkpt>
      <trkpt lat="45.94025" lon="6.86438">
        <ele>1486</ele>
        <time>2026-08-04T10:38:53.132Z</time>
      </trkpt>
      <trkpt lat="45.94025" lon="6.86438">
        <ele>1486</ele>
        <time>2026-08-04T10:38:54.132Z</time>
      </trkpt>
      <trkpt lat="45.94026" lon="6.86438">
        <ele>1486</ele>
        <time>2026-08-04T10:38:55.132Z</time>
      </trkpt>
      <trkpt lat="45.94026" lon="6.86438">
        <ele>1486</ele>
        <time>2026-08-04T10:38:56.132Z</time>
      </trkpt>
      <trkpt lat="45.94026" lon="6.86439">
        <ele>1487</ele>
        <time>2026-08-04T10:38:57.132Z</time>
      </trkpt>
      <trkpt lat="45.94026" lon="6.8644">
        <ele>1487</ele>
        <time>2026-08-04T10:38:58.132Z</time>
      </trkpt>
      <trkpt lat="45.94025" lon="6.86441">
        <ele>1486</ele>
        <time>2026-08-04T10:38:59.132Z</time>
      </trkpt>
      <trkpt lat="45.94025" lon="6.86442">
        <ele>1486</ele>
        <time>2026-08-04T10:39:00.132Z</time>
      </trkpt>
      <trkpt lat="45.94024" lon="6.86443">
        <ele>1486</ele>
        <time>2026-08-04T10:39:01.132Z</time>
      </trkpt>
      <trkpt lat="45.94024" lon="6.86444">
        <ele>1486</ele>
        <time>2026-08-04T10:39:02.132Z</time>
      </trkpt>
      <trkpt lat="45.94023" lon="6.86445">
        <ele>1485</ele>
        <time>2026-08-04T10:39:03.132Z</time>
      </trkpt>
      <trkpt lat="45.94022" lon="6.86446">
        <ele>1484</ele>
        <time>2026-08-04T10:39:04.132Z</time>
      </trkpt>
      <trkpt lat="45.94021" lon="6.86448">
        <ele>1484</ele>
        <time>2026-08-04T10:39:05.132Z</time>
      </trkpt>
      <trkpt lat="45.94021" lon="6.86449">
        <ele>1483</ele>
        <time>2026-08-04T10:39:06.132Z</time>
      </trkpt>
      <trkpt lat="45.9402" lon="6.8645">
        <ele>1483</ele>
        <time>2026-08-04T10:39:07.132Z</time>
      </trkpt>
      <trkpt lat="45.94019" lon="6.8645">
        <ele>1482</ele>
        <time>2026-08-04T10:39:08.132Z</time>
      </trkpt>
      <trkpt lat="45.94018" lon="6.8645">
        <ele>1482</ele>
        <time>2026-08-04T10:39:09.132Z</time>
      </trkpt>
      <trkpt lat="45.94017" lon="6.86451">
        <ele>1482</ele>
        <time>2026-08-04T10:39:10.132Z</time>
      </trkpt>
      <trkpt lat="45.94017" lon="6.86452">
        <ele>1481</ele>
        <time>2026-08-04T10:39:11.132Z</time>
      </trkpt>
      <trkpt lat="45.94016" lon="6.86453">
        <ele>1481</ele>
        <time>2026-08-04T10:39:12.132Z</time>
      </trkpt>
      <trkpt lat="45.94016" lon="6.86453">
        <ele>1481</ele>
        <time>2026-08-04T10:39:13.132Z</time>
      </trkpt>
      <trkpt lat="45.94015" lon="6.86454">
        <ele>1481</ele>
        <time>2026-08-04T10:39:14.132Z</time>
      </trkpt>
      <trkpt lat="45.94015" lon="6.86454">
        <ele>1481</ele>
        <time>2026-08-04T10:39:15.132Z</time>
      </trkpt>
      <trkpt lat="45.94014" lon="6.86455">
        <ele>1481</ele>
        <time>2026-08-04T10:39:16.132Z</time>
      </trkpt>
      <trkpt lat="45.94013" lon="6.86455">
        <ele>1481</ele>
        <time>2026-08-04T10:39:17.132Z</time>
      </trkpt>
      <trkpt lat="45.94013" lon="6.86456">
        <ele>1481</ele>
        <time>2026-08-04T10:39:18.132Z</time>
      </trkpt>
      <trkpt lat="45.94012" lon="6.86456">
        <ele>1481</ele>
        <time>2026-08-04T10:39:19.132Z</time>
      </trkpt>
      <trkpt lat="45.94011" lon="6.86457">
        <ele>1481</ele>
        <time>2026-08-04T10:39:20.132Z</time>
      </trkpt>
      <trkpt lat="45.9401" lon="6.86458">
        <ele>1481</ele>
        <time>2026-08-04T10:39:21.132Z</time>
      </trkpt>
      <trkpt lat="45.94009" lon="6.86459">
        <ele>1481</ele>
        <time>2026-08-04T10:39:22.132Z</time>
      </trkpt>
      <trkpt lat="45.94008" lon="6.86459">
        <ele>1482</ele>
        <time>2026-08-04T10:39:23.132Z</time>
      </trkpt>
      <trkpt lat="45.94008" lon="6.86459">
        <ele>1482</ele>
        <time>2026-08-04T10:39:24.132Z</time>
      </trkpt>
      <trkpt lat="45.94007" lon="6.86459">
        <ele>1482</ele>
        <time>2026-08-04T10:39:25.132Z</time>
      </trkpt>
      <trkpt lat="45.94006" lon="6.8646">
        <ele>1483</ele>
        <time>2026-08-04T10:39:26.132Z</time>
      </trkpt>
      <trkpt lat="45.94005" lon="6.8646">
        <ele>1483</ele>
        <time>2026-08-04T10:39:27.132Z</time>
      </trkpt>
      <trkpt lat="45.94005" lon="6.8646">
        <ele>1483</ele>
        <time>2026-08-04T10:39:28.132Z</time>
      </trkpt>
      <trkpt lat="45.94004" lon="6.8646">
        <ele>1483</ele>
        <time>2026-08-04T10:39:29.132Z</time>
      </trkpt>
      <trkpt lat="45.94004" lon="6.8646">
        <ele>1483</ele>
        <time>2026-08-04T10:39:30.132Z</time>
      </trkpt>
      <trkpt lat="45.94003" lon="6.86459">
        <ele>1483</ele>
        <time>2026-08-04T10:39:31.132Z</time>
      </trkpt>
      <trkpt lat="45.94003" lon="6.86459">
        <ele>1483</ele>
        <time>2026-08-04T10:39:32.132Z</time>
      </trkpt>
      <trkpt lat="45.94003" lon="6.86458">
        <ele>1483</ele>
        <time>2026-08-04T10:39:33.132Z</time>
      </trkpt>
      <trkpt lat="45.94002" lon="6.86458">
        <ele>1483</ele>
        <time>2026-08-04T10:39:34.132Z</time>
      </trkpt>
      <trkpt lat="45.94001" lon="6.86459">
        <ele>1483</ele>
        <time>2026-08-04T10:39:35.132Z</time>
      </trkpt>
      <trkpt lat="45.94001" lon="6.86458">
        <ele>1482</ele>
        <time>2026-08-04T10:39:36.132Z</time>
      </trkpt>
      <trkpt lat="45.94" lon="6.86458">
        <ele>1482</ele>
        <time>2026-08-04T10:39:37.132Z</time>
      </trkpt>
      <trkpt lat="45.94" lon="6.86458">
        <ele>1482</ele>
        <time>2026-08-04T10:39:38.132Z</time>
      </trkpt>
      <trkpt lat="45.94" lon="6.86459">
        <ele>1482</ele>
        <time>2026-08-04T10:39:39.132Z</time>
      </trkpt>
      <trkpt lat="45.93999" lon="6.8646">
        <ele>1482</ele>
        <time>2026-08-04T10:39:40.132Z</time>
      </trkpt>
      <trkpt lat="45.93999" lon="6.8646">
        <ele>1482</ele>
        <time>2026-08-04T10:39:41.132Z</time>
      </trkpt>
      <trkpt lat="45.93999" lon="6.86459">
        <ele>1482</ele>
        <time>2026-08-04T10:39:42.132Z</time>
      </trkpt>
      <trkpt lat="45.93999" lon="6.86459">
        <ele>1481</ele>
        <time>2026-08-04T10:39:43.132Z</time>
      </trkpt>
      <trkpt lat="45.93998" lon="6.86459">
        <ele>1481</ele>
        <time>2026-08-04T10:39:44.132Z</time>
      </trkpt>
      <trkpt lat="45.93998" lon="6.8646">
        <ele>1480</ele>
        <time>2026-08-04T10:39:45.132Z</time>
      </trkpt>
      <trkpt lat="45.93998" lon="6.8646">
        <ele>1480</ele>
        <time>2026-08-04T10:39:46.132Z</time>
      </trkpt>
      <trkpt lat="45.93997" lon="6.86461">
        <ele>1480</ele>
        <time>2026-08-04T10:39:47.132Z</time>
      </trkpt>
      <trkpt lat="45.93996" lon="6.86463">
        <ele>1480</ele>
        <time>2026-08-04T10:39:48.132Z</time>
      </trkpt>
      <trkpt lat="45.93995" lon="6.86464">
        <ele>1480</ele>
        <time>2026-08-04T10:39:49.132Z</time>
      </trkpt>
      <trkpt lat="45.93995" lon="6.86465">
        <ele>1480</ele>
        <time>2026-08-04T10:39:50.132Z</time>
      </trkpt>
      <trkpt lat="45.93994" lon="6.86465">
        <ele>1480</ele>
        <time>2026-08-04T10:39:51.132Z</time>
      </trkpt>
      <trkpt lat="45.93994" lon="6.86466">
        <ele>1480</ele>
        <time>2026-08-04T10:39:52.132Z</time>
      </trkpt>
      <trkpt lat="45.93994" lon="6.86466">
        <ele>1480</ele>
        <time>2026-08-04T10:39:53.132Z</time>
      </trkpt>
      <trkpt lat="45.93992" lon="6.86468">
        <ele>1479</ele>
        <time>2026-08-04T10:39:54.132Z</time>
      </trkpt>
      <trkpt lat="45.93991" lon="6.86471">
        <ele>1479</ele>
        <time>2026-08-04T10:39:55.132Z</time>
      </trkpt>
      <trkpt lat="45.93989" lon="6.86474">
        <ele>1479</ele>
        <time>2026-08-04T10:39:56.132Z</time>
      </trkpt>
      <trkpt lat="45.93988" lon="6.86476">
        <ele>1479</ele>
        <time>2026-08-04T10:39:57.132Z</time>
      </trkpt>
      <trkpt lat="45.93987" lon="6.86479">
        <ele>1480</ele>
        <time>2026-08-04T10:39:58.132Z</time>
      </trkpt>
      <trkpt lat="45.93986" lon="6.86481">
        <ele>1480</ele>
        <time>2026-08-04T10:39:59.132Z</time>
      </trkpt>
      <trkpt lat="45.93984" lon="6.86482">
        <ele>1480</ele>
        <time>2026-08-04T10:40:00.132Z</time>
      </trkpt>
      <trkpt lat="45.93983" lon="6.86484">
        <ele>1480</ele>
        <time>2026-08-04T10:40:01.132Z</time>
      </trkpt>
      <trkpt lat="45.93982" lon="6.86484">
        <ele>1480</ele>
        <time>2026-08-04T10:40:02.132Z</time>
      </trkpt>
      <trkpt lat="45.93981" lon="6.86484">
        <ele>1480</ele>
        <time>2026-08-04T10:40:03.132Z</time>
      </trkpt>
      <trkpt lat="45.9398" lon="6.86485">
        <ele>1480</ele>
        <time>2026-08-04T10:40:04.132Z</time>
      </trkpt>
      <trkpt lat="45.93979" lon="6.86486">
        <ele>1480</ele>
        <time>2026-08-04T10:40:05.132Z</time>
      </trkpt>
      <trkpt lat="45.93977" lon="6.86486">
        <ele>1480</ele>
        <time>2026-08-04T10:40:06.132Z</time>
      </trkpt>
      <trkpt lat="45.93976" lon="6.86486">
        <ele>1479</ele>
        <time>2026-08-04T10:40:07.132Z</time>
      </trkpt>
      <trkpt lat="45.93975" lon="6.86486">
        <ele>1479</ele>
        <time>2026-08-04T10:40:08.132Z</time>
      </trkpt>
      <trkpt lat="45.93973" lon="6.86485">
        <ele>1479</ele>
        <time>2026-08-04T10:40:09.132Z</time>
      </trkpt>
      <trkpt lat="45.93972" lon="6.86484">
        <ele>1478</ele>
        <time>2026-08-04T10:40:10.132Z</time>
      </trkpt>
      <trkpt lat="45.93971" lon="6.86484">
        <ele>1478</ele>
        <time>2026-08-04T10:40:11.132Z</time>
      </trkpt>
      <trkpt lat="45.9397" lon="6.86483">
        <ele>1477</ele>
        <time>2026-08-04T10:40:12.132Z</time>
      </trkpt>
      <trkpt lat="45.93969" lon="6.86483">
        <ele>1477</ele>
        <time>2026-08-04T10:40:13.132Z</time>
      </trkpt>
      <trkpt lat="45.93968" lon="6.86482">
        <ele>1476</ele>
        <time>2026-08-04T10:40:14.132Z</time>
      </trkpt>
      <trkpt lat="45.93968" lon="6.86482">
        <ele>1476</ele>
        <time>2026-08-04T10:40:15.132Z</time>
      </trkpt>
      <trkpt lat="45.93967" lon="6.86482">
        <ele>1475</ele>
        <time>2026-08-04T10:40:16.132Z</time>
      </trkpt>
      <trkpt lat="45.93966" lon="6.86481">
        <ele>1474</ele>
        <time>2026-08-04T10:40:17.132Z</time>
      </trkpt>
      <trkpt lat="45.93965" lon="6.8648">
        <ele>1474</ele>
        <time>2026-08-04T10:40:18.132Z</time>
      </trkpt>
      <trkpt lat="45.93965" lon="6.86479">
        <ele>1473</ele>
        <time>2026-08-04T10:40:19.132Z</time>
      </trkpt>
      <trkpt lat="45.93964" lon="6.86478">
        <ele>1472</ele>
        <time>2026-08-04T10:40:20.132Z</time>
      </trkpt>
      <trkpt lat="45.93963" lon="6.86478">
        <ele>1471</ele>
        <time>2026-08-04T10:40:21.132Z</time>
      </trkpt>
      <trkpt lat="45.93962" lon="6.86478">
        <ele>1471</ele>
        <time>2026-08-04T10:40:22.132Z</time>
      </trkpt>
      <trkpt lat="45.93961" lon="6.86479">
        <ele>1470</ele>
        <time>2026-08-04T10:40:23.132Z</time>
      </trkpt>
      <trkpt lat="45.9396" lon="6.86479">
        <ele>1470</ele>
        <time>2026-08-04T10:40:24.132Z</time>
      </trkpt>
      <trkpt lat="45.9396" lon="6.86479">
        <ele>1469</ele>
        <time>2026-08-04T10:40:25.132Z</time>
      </trkpt>
      <trkpt lat="45.9396" lon="6.86478">
        <ele>1469</ele>
        <time>2026-08-04T10:40:26.132Z</time>
      </trkpt>
      <trkpt lat="45.93959" lon="6.86478">
        <ele>1468</ele>
        <time>2026-08-04T10:40:27.132Z</time>
      </trkpt>
      <trkpt lat="45.93958" lon="6.86478">
        <ele>1468</ele>
        <time>2026-08-04T10:40:28.132Z</time>
      </trkpt>
      <trkpt lat="45.93957" lon="6.86478">
        <ele>1467</ele>
        <time>2026-08-04T10:40:29.132Z</time>
      </trkpt>
      <trkpt lat="45.93957" lon="6.86478">
        <ele>1467</ele>
        <time>2026-08-04T10:40:30.132Z</time>
      </trkpt>
      <trkpt lat="45.93957" lon="6.86478">
        <ele>1466</ele>
        <time>2026-08-04T10:40:31.132Z</time>
      </trkpt>
      <trkpt lat="45.93957" lon="6.86478">
        <ele>1466</ele>
        <time>2026-08-04T10:40:32.132Z</time>
      </trkpt>
      <trkpt lat="45.93957" lon="6.86478">
        <ele>1466</ele>
        <time>2026-08-04T10:40:33.132Z</time>
      </trkpt>
      <trkpt lat="45.93957" lon="6.86478">
        <ele>1466</ele>
        <time>2026-08-04T10:40:34.132Z</time>
      </trkpt>
      <trkpt lat="45.93957" lon="6.86478">
        <ele>1466</ele>
        <time>2026-08-04T10:40:35.132Z</time>
      </trkpt>
      <trkpt lat="45.93956" lon="6.86478">
        <ele>1466</ele>
        <time>2026-08-04T10:40:36.132Z</time>
      </trkpt>
      <trkpt lat="45.93956" lon="6.86478">
        <ele>1465</ele>
        <time>2026-08-04T10:40:37.132Z</time>
      </trkpt>
      <trkpt lat="45.93955" lon="6.8648">
        <ele>1465</ele>
        <time>2026-08-04T10:40:38.133Z</time>
      </trkpt>
      <trkpt lat="45.93954" lon="6.8648">
        <ele>1465</ele>
        <time>2026-08-04T10:40:39.132Z</time>
      </trkpt>
      <trkpt lat="45.93953" lon="6.86481">
        <ele>1465</ele>
        <time>2026-08-04T10:40:40.132Z</time>
      </trkpt>
      <trkpt lat="45.93952" lon="6.86481">
        <ele>1466</ele>
        <time>2026-08-04T10:40:41.132Z</time>
      </trkpt>
      <trkpt lat="45.93951" lon="6.86481">
        <ele>1466</ele>
        <time>2026-08-04T10:40:42.132Z</time>
      </trkpt>
      <trkpt lat="45.93951" lon="6.86481">
        <ele>1466</ele>
        <time>2026-08-04T10:40:43.132Z</time>
      </trkpt>
      <trkpt lat="45.93951" lon="6.86482">
        <ele>1466</ele>
        <time>2026-08-04T10:40:44.132Z</time>
      </trkpt>
      <trkpt lat="45.9395" lon="6.86483">
        <ele>1467</ele>
        <time>2026-08-04T10:40:45.132Z</time>
      </trkpt>
      <trkpt lat="45.9395" lon="6.86483">
        <ele>1467</ele>
        <time>2026-08-04T10:40:46.132Z</time>
      </trkpt>
      <trkpt lat="45.9395" lon="6.86483">
        <ele>1467</ele>
        <time>2026-08-04T10:40:47.132Z</time>
      </trkpt>
      <trkpt lat="45.9395" lon="6.86483">
        <ele>1467</ele>
        <time>2026-08-04T10:40:48.132Z</time>
      </trkpt>
      <trkpt lat="45.9395" lon="6.86483">
        <ele>1467</ele>
        <time>2026-08-04T10:40:49.132Z</time>
      </trkpt>
      <trkpt lat="45.9395" lon="6.86483">
        <ele>1467</ele>
        <time>2026-08-04T10:40:50.132Z</time>
      </trkpt>
      <trkpt lat="45.9395" lon="6.86482">
        <ele>1467</ele>
        <time>2026-08-04T10:40:51.132Z</time>
      </trkpt>
      <trkpt lat="45.9395" lon="6.86482">
        <ele>1466</ele>
        <time>2026-08-04T10:40:52.132Z</time>
      </trkpt>
      <trkpt lat="45.9395" lon="6.86482">
        <ele>1466</ele>
        <time>2026-08-04T10:40:53.132Z</time>
      </trkpt>
      <trkpt lat="45.9395" lon="6.86481">
        <ele>1466</ele>
        <time>2026-08-04T10:40:54.132Z</time>
      </trkpt>
      <trkpt lat="45.9395" lon="6.86481">
        <ele>1465</ele>
        <time>2026-08-04T10:40:55.132Z</time>
      </trkpt>
      <trkpt lat="45.93951" lon="6.86481">
        <ele>1465</ele>
        <time>2026-08-04T10:40:56.132Z</time>
      </trkpt>
      <trkpt lat="45.9395" lon="6.86481">
        <ele>1465</ele>
        <time>2026-08-04T10:40:57.132Z</time>
      </trkpt>
      <trkpt lat="45.9395" lon="6.86481">
        <ele>1464</ele>
        <time>2026-08-04T10:40:58.132Z</time>
      </trkpt>
      <trkpt lat="45.9395" lon="6.86481">
        <ele>1464</ele>
        <time>2026-08-04T10:40:59.132Z</time>
      </trkpt>
      <trkpt lat="45.9395" lon="6.86481">
        <ele>1464</ele>
        <time>2026-08-04T10:41:00.132Z</time>
      </trkpt>
      <trkpt lat="45.9395" lon="6.86481">
        <ele>1464</ele>
        <time>2026-08-04T10:41:01.132Z</time>
      </trkpt>
      <trkpt lat="45.9395" lon="6.86481">
        <ele>1465</ele>
        <time>2026-08-04T10:41:02.132Z</time>
      </trkpt>
      <trkpt lat="45.9395" lon="6.86482">
        <ele>1465</ele>
        <time>2026-08-04T10:41:03.132Z</time>
      </trkpt>
      <trkpt lat="45.9395" lon="6.86481">
        <ele>1466</ele>
        <time>2026-08-04T10:41:04.132Z</time>
      </trkpt>
      <trkpt lat="45.9395" lon="6.86481">
        <ele>1466</ele>
        <time>2026-08-04T10:41:05.132Z</time>
      </trkpt>
      <trkpt lat="45.93951" lon="6.86481">
        <ele>1466</ele>
        <time>2026-08-04T10:41:06.132Z</time>
      </trkpt>
      <trkpt lat="45.9395" lon="6.86481">
        <ele>1467</ele>
        <time>2026-08-04T10:41:07.132Z</time>
      </trkpt>
      <trkpt lat="45.9395" lon="6.8648">
        <ele>1467</ele>
        <time>2026-08-04T10:41:08.132Z</time>
      </trkpt>
      <trkpt lat="45.9395" lon="6.8648">
        <ele>1467</ele>
        <time>2026-08-04T10:41:09.132Z</time>
      </trkpt>
      <trkpt lat="45.93949" lon="6.8648">
        <ele>1468</ele>
        <time>2026-08-04T10:41:10.132Z</time>
      </trkpt>
      <trkpt lat="45.93949" lon="6.8648">
        <ele>1468</ele>
        <time>2026-08-04T10:41:11.132Z</time>
      </trkpt>
      <trkpt lat="45.93949" lon="6.86481">
        <ele>1468</ele>
        <time>2026-08-04T10:41:12.132Z</time>
      </trkpt>
      <trkpt lat="45.93949" lon="6.86481">
        <ele>1468</ele>
        <time>2026-08-04T10:41:13.132Z</time>
      </trkpt>
      <trkpt lat="45.9395" lon="6.86481">
        <ele>1468</ele>
        <time>2026-08-04T10:41:14.132Z</time>
      </trkpt>
      <trkpt lat="45.9395" lon="6.86481">
        <ele>1468</ele>
        <time>2026-08-04T10:41:15.132Z</time>
      </trkpt>
      <trkpt lat="45.9395" lon="6.86481">
        <ele>1468</ele>
        <time>2026-08-04T10:41:16.132Z</time>
      </trkpt>
      <trkpt lat="45.9395" lon="6.86481">
        <ele>1468</ele>
        <time>2026-08-04T10:41:17.132Z</time>
      </trkpt>
      <trkpt lat="45.9395" lon="6.86481">
        <ele>1468</ele>
        <time>2026-08-04T10:41:18.132Z</time>
      </trkpt>
      <trkpt lat="45.9395" lon="6.86481">
        <ele>1468</ele>
        <time>2026-08-04T10:41:19.132Z</time>
      </trkpt>
      <trkpt lat="45.9395" lon="6.86481">
        <ele>1469</ele>
        <time>2026-08-04T10:41:20.132Z</time>
      </trkpt>
      <trkpt lat="45.9395" lon="6.86481">
        <ele>1469</ele>
        <time>2026-08-04T10:41:21.132Z</time>
      </trkpt>
      <trkpt lat="45.9395" lon="6.86481">
        <ele>1469</ele>
        <time>2026-08-04T10:41:22.132Z</time>
      </trkpt>
      <trkpt lat="45.9395" lon="6.86481">
        <ele>1470</ele>
        <time>2026-08-04T10:41:23.132Z</time>
      </trkpt>
      <trkpt lat="45.9395" lon="6.86481">
        <ele>1470</ele>
        <time>2026-08-04T10:41:24.132Z</time>
      </trkpt>
      <trkpt lat="45.93949" lon="6.86481">
        <ele>1471</ele>
        <time>2026-08-04T10:41:25.132Z</time>
      </trkpt>
      <trkpt lat="45.93947" lon="6.8648">
        <ele>1471</ele>
        <time>2026-08-04T10:41:26.132Z</time>
      </trkpt>
      <trkpt lat="45.93945" lon="6.86479">
        <ele>1471</ele>
        <time>2026-08-04T10:41:27.132Z</time>
      </trkpt>
      <trkpt lat="45.93943" lon="6.86478">
        <ele>1472</ele>
        <time>2026-08-04T10:41:28.132Z</time>
      </trkpt>
      <trkpt lat="45.93942" lon="6.86478">
        <ele>1472</ele>
        <time>2026-08-04T10:41:29.132Z</time>
      </trkpt>
      <trkpt lat="45.93941" lon="6.86478">
        <ele>1472</ele>
        <time>2026-08-04T10:41:30.132Z</time>
      </trkpt>
      <trkpt lat="45.93939" lon="6.86478">
        <ele>1472</ele>
        <time>2026-08-04T10:41:31.132Z</time>
      </trkpt>
      <trkpt lat="45.93937" lon="6.86478">
        <ele>1472</ele>
        <time>2026-08-04T10:41:32.132Z</time>
      </trkpt>
      <trkpt lat="45.93936" lon="6.86478">
        <ele>1472</ele>
        <time>2026-08-04T10:41:33.132Z</time>
      </trkpt>
      <trkpt lat="45.93934" lon="6.86479">
        <ele>1472</ele>
        <time>2026-08-04T10:41:34.132Z</time>
      </trkpt>
      <trkpt lat="45.93933" lon="6.86479">
        <ele>1472</ele>
        <time>2026-08-04T10:41:35.132Z</time>
      </trkpt>
      <trkpt lat="45.93932" lon="6.86478">
        <ele>1472</ele>
        <time>2026-08-04T10:41:36.132Z</time>
      </trkpt>
      <trkpt lat="45.93932" lon="6.86478">
        <ele>1472</ele>
        <time>2026-08-04T10:41:37.132Z</time>
      </trkpt>
      <trkpt lat="45.93932" lon="6.86478">
        <ele>1472</ele>
        <time>2026-08-04T10:41:38.132Z</time>
      </trkpt>
      <trkpt lat="45.93932" lon="6.86478">
        <ele>1472</ele>
        <time>2026-08-04T10:41:39.132Z</time>
      </trkpt>
      <trkpt lat="45.93933" lon="6.86477">
        <ele>1472</ele>
        <time>2026-08-04T10:41:40.132Z</time>
      </trkpt>
      <trkpt lat="45.93934" lon="6.86476">
        <ele>1472</ele>
        <time>2026-08-04T10:41:41.132Z</time>
      </trkpt>
      <trkpt lat="45.93934" lon="6.86477">
        <ele>1472</ele>
        <time>2026-08-04T10:41:42.132Z</time>
      </trkpt>
      <trkpt lat="45.93933" lon="6.86478">
        <ele>1471</ele>
        <time>2026-08-04T10:41:43.132Z</time>
      </trkpt>
      <trkpt lat="45.93932" lon="6.8648">
        <ele>1470</ele>
        <time>2026-08-04T10:41:44.132Z</time>
      </trkpt>
      <trkpt lat="45.9393" lon="6.86482">
        <ele>1469</ele>
        <time>2026-08-04T10:41:45.132Z</time>
      </trkpt>
      <trkpt lat="45.93929" lon="6.86483">
        <ele>1468</ele>
        <time>2026-08-04T10:41:46.132Z</time>
      </trkpt>
      <trkpt lat="45.93928" lon="6.86483">
        <ele>1468</ele>
        <time>2026-08-04T10:41:47.132Z</time>
      </trkpt>
      <trkpt lat="45.93927" lon="6.86484">
        <ele>1467</ele>
        <time>2026-08-04T10:41:48.132Z</time>
      </trkpt>
      <trkpt lat="45.93926" lon="6.86485">
        <ele>1466</ele>
        <time>2026-08-04T10:41:49.132Z</time>
      </trkpt>
      <trkpt lat="45.93926" lon="6.86485">
        <ele>1466</ele>
        <time>2026-08-04T10:41:50.132Z</time>
      </trkpt>
      <trkpt lat="45.93925" lon="6.86486">
        <ele>1465</ele>
        <time>2026-08-04T10:41:51.132Z</time>
      </trkpt>
      <trkpt lat="45.93924" lon="6.86486">
        <ele>1465</ele>
        <time>2026-08-04T10:41:52.132Z</time>
      </trkpt>
      <trkpt lat="45.93923" lon="6.86486">
        <ele>1464</ele>
        <time>2026-08-04T10:41:53.133Z</time>
      </trkpt>
      <trkpt lat="45.93922" lon="6.86487">
        <ele>1464</ele>
        <time>2026-08-04T10:41:54.132Z</time>
      </trkpt>
      <trkpt lat="45.93921" lon="6.86487">
        <ele>1464</ele>
        <time>2026-08-04T10:41:55.132Z</time>
      </trkpt>
      <trkpt lat="45.9392" lon="6.86488">
        <ele>1464</ele>
        <time>2026-08-04T10:41:56.132Z</time>
      </trkpt>
      <trkpt lat="45.93919" lon="6.86489">
        <ele>1464</ele>
        <time>2026-08-04T10:41:57.132Z</time>
      </trkpt>
      <trkpt lat="45.93919" lon="6.8649">
        <ele>1464</ele>
        <time>2026-08-04T10:41:58.132Z</time>
      </trkpt>
      <trkpt lat="45.93918" lon="6.86491">
        <ele>1464</ele>
        <time>2026-08-04T10:41:59.132Z</time>
      </trkpt>
      <trkpt lat="45.93917" lon="6.86491">
        <ele>1464</ele>
        <time>2026-08-04T10:42:00.132Z</time>
      </trkpt>
      <trkpt lat="45.93917" lon="6.86492">
        <ele>1464</ele>
        <time>2026-08-04T10:42:01.132Z</time>
      </trkpt>
      <trkpt lat="45.93917" lon="6.86492">
        <ele>1464</ele>
        <time>2026-08-04T10:42:02.132Z</time>
      </trkpt>
      <trkpt lat="45.93917" lon="6.86491">
        <ele>1464</ele>
        <time>2026-08-04T10:42:03.132Z</time>
      </trkpt>
      <trkpt lat="45.93917" lon="6.86491">
        <ele>1464</ele>
        <time>2026-08-04T10:42:04.132Z</time>
      </trkpt>
      <trkpt lat="45.93917" lon="6.86491">
        <ele>1464</ele>
        <time>2026-08-04T10:42:05.132Z</time>
      </trkpt>
      <trkpt lat="45.93917" lon="6.8649">
        <ele>1464</ele>
        <time>2026-08-04T10:42:06.132Z</time>
      </trkpt>
      <trkpt lat="45.93917" lon="6.8649">
        <ele>1464</ele>
        <time>2026-08-04T10:42:07.132Z</time>
      </trkpt>
      <trkpt lat="45.93917" lon="6.8649">
        <ele>1465</ele>
        <time>2026-08-04T10:42:08.132Z</time>
      </trkpt>
      <trkpt lat="45.93916" lon="6.86491">
        <ele>1465</ele>
        <time>2026-08-04T10:42:09.132Z</time>
      </trkpt>
      <trkpt lat="45.93915" lon="6.86492">
        <ele>1465</ele>
        <time>2026-08-04T10:42:10.132Z</time>
      </trkpt>
      <trkpt lat="45.93914" lon="6.86492">
        <ele>1465</ele>
        <time>2026-08-04T10:42:11.132Z</time>
      </trkpt>
      <trkpt lat="45.93913" lon="6.86492">
        <ele>1464</ele>
        <time>2026-08-04T10:42:12.132Z</time>
      </trkpt>
      <trkpt lat="45.93912" lon="6.86492">
        <ele>1464</ele>
        <time>2026-08-04T10:42:13.132Z</time>
      </trkpt>
      <trkpt lat="45.93912" lon="6.86492">
        <ele>1464</ele>
        <time>2026-08-04T10:42:14.132Z</time>
      </trkpt>
      <trkpt lat="45.93911" lon="6.86493">
        <ele>1464</ele>
        <time>2026-08-04T10:42:15.132Z</time>
      </trkpt>
      <trkpt lat="45.93911" lon="6.86494">
        <ele>1464</ele>
        <time>2026-08-04T10:42:16.132Z</time>
      </trkpt>
      <trkpt lat="45.93911" lon="6.86494">
        <ele>1464</ele>
        <time>2026-08-04T10:42:17.132Z</time>
      </trkpt>
      <trkpt lat="45.93911" lon="6.86495">
        <ele>1465</ele>
        <time>2026-08-04T10:42:18.132Z</time>
      </trkpt>
      <trkpt lat="45.93911" lon="6.86495">
        <ele>1464</ele>
        <time>2026-08-04T10:42:19.132Z</time>
      </trkpt>
      <trkpt lat="45.93911" lon="6.86494">
        <ele>1464</ele>
        <time>2026-08-04T10:42:20.132Z</time>
      </trkpt>
      <trkpt lat="45.93911" lon="6.86495">
        <ele>1463</ele>
        <time>2026-08-04T10:42:21.132Z</time>
      </trkpt>
      <trkpt lat="45.93911" lon="6.86496">
        <ele>1463</ele>
        <time>2026-08-04T10:42:22.132Z</time>
      </trkpt>
      <trkpt lat="45.93911" lon="6.86496">
        <ele>1463</ele>
        <time>2026-08-04T10:42:23.132Z</time>
      </trkpt>
      <trkpt lat="45.93911" lon="6.86496">
        <ele>1463</ele>
        <time>2026-08-04T10:42:24.132Z</time>
      </trkpt>
      <trkpt lat="45.93911" lon="6.86496">
        <ele>1464</ele>
        <time>2026-08-04T10:42:25.132Z</time>
      </trkpt>
      <trkpt lat="45.93911" lon="6.86496">
        <ele>1464</ele>
        <time>2026-08-04T10:42:26.132Z</time>
      </trkpt>
      <trkpt lat="45.93911" lon="6.86497">
        <ele>1464</ele>
        <time>2026-08-04T10:42:27.132Z</time>
      </trkpt>
      <trkpt lat="45.93911" lon="6.86497">
        <ele>1463</ele>
        <time>2026-08-04T10:42:28.132Z</time>
      </trkpt>
      <trkpt lat="45.93911" lon="6.86496">
        <ele>1463</ele>
        <time>2026-08-04T10:42:29.132Z</time>
      </trkpt>
      <trkpt lat="45.93911" lon="6.86497">
        <ele>1463</ele>
        <time>2026-08-04T10:42:30.132Z</time>
      </trkpt>
      <trkpt lat="45.93911" lon="6.86497">
        <ele>1463</ele>
        <time>2026-08-04T10:42:31.132Z</time>
      </trkpt>
      <trkpt lat="45.93911" lon="6.86497">
        <ele>1463</ele>
        <time>2026-08-04T10:42:32.132Z</time>
      </trkpt>
      <trkpt lat="45.93911" lon="6.86497">
        <ele>1464</ele>
        <time>2026-08-04T10:42:33.132Z</time>
      </trkpt>
      <trkpt lat="45.93911" lon="6.86497">
        <ele>1464</ele>
        <time>2026-08-04T10:42:34.132Z</time>
      </trkpt>
      <trkpt lat="45.93911" lon="6.86497">
        <ele>1464</ele>
        <time>2026-08-04T10:42:35.132Z</time>
      </trkpt>
      <trkpt lat="45.93911" lon="6.86497">
        <ele>1464</ele>
        <time>2026-08-04T10:42:36.132Z</time>
      </trkpt>
      <trkpt lat="45.93911" lon="6.86497">
        <ele>1464</ele>
        <time>2026-08-04T10:42:37.132Z</time>
      </trkpt>
      <trkpt lat="45.93911" lon="6.86497">
        <ele>1464</ele>
        <time>2026-08-04T10:42:38.132Z</time>
      </trkpt>
      <trkpt lat="45.9391" lon="6.86497">
        <ele>1464</ele>
        <time>2026-08-04T10:42:39.132Z</time>
      </trkpt>
      <trkpt lat="45.93909" lon="6.86498">
        <ele>1464</ele>
        <time>2026-08-04T10:42:40.132Z</time>
      </trkpt>
      <trkpt lat="45.93907" lon="6.86499">
        <ele>1464</ele>
        <time>2026-08-04T10:42:41.132Z</time>
      </trkpt>
      <trkpt lat="45.93906" lon="6.865">
        <ele>1463</ele>
        <time>2026-08-04T10:42:42.132Z</time>
      </trkpt>
      <trkpt lat="45.93905" lon="6.86501">
        <ele>1463</ele>
        <time>2026-08-04T10:42:43.132Z</time>
      </trkpt>
      <trkpt lat="45.93903" lon="6.86502">
        <ele>1462</ele>
        <time>2026-08-04T10:42:44.132Z</time>
      </trkpt>
      <trkpt lat="45.93901" lon="6.86504">
        <ele>1462</ele>
        <time>2026-08-04T10:42:45.132Z</time>
      </trkpt>
      <trkpt lat="45.93899" lon="6.86504">
        <ele>1461</ele>
        <time>2026-08-04T10:42:46.132Z</time>
      </trkpt>
      <trkpt lat="45.93897" lon="6.86505">
        <ele>1461</ele>
        <time>2026-08-04T10:42:47.132Z</time>
      </trkpt>
      <trkpt lat="45.93895" lon="6.86504">
        <ele>1461</ele>
        <time>2026-08-04T10:42:48.132Z</time>
      </trkpt>
      <trkpt lat="45.93893" lon="6.86505">
        <ele>1460</ele>
        <time>2026-08-04T10:42:49.132Z</time>
      </trkpt>
      <trkpt lat="45.93891" lon="6.86505">
        <ele>1460</ele>
        <time>2026-08-04T10:42:50.132Z</time>
      </trkpt>
      <trkpt lat="45.93889" lon="6.86504">
        <ele>1460</ele>
        <time>2026-08-04T10:42:51.132Z</time>
      </trkpt>
      <trkpt lat="45.93888" lon="6.86503">
        <ele>1461</ele>
        <time>2026-08-04T10:42:52.132Z</time>
      </trkpt>
      <trkpt lat="45.93886" lon="6.86502">
        <ele>1461</ele>
        <time>2026-08-04T10:42:53.132Z</time>
      </trkpt>
      <trkpt lat="45.93885" lon="6.86501">
        <ele>1460</ele>
        <time>2026-08-04T10:42:54.132Z</time>
      </trkpt>
      <trkpt lat="45.93883" lon="6.865">
        <ele>1460</ele>
        <time>2026-08-04T10:42:55.132Z</time>
      </trkpt>
      <trkpt lat="45.93882" lon="6.86498">
        <ele>1459</ele>
        <time>2026-08-04T10:42:56.132Z</time>
      </trkpt>
      <trkpt lat="45.9388" lon="6.86496">
        <ele>1459</ele>
        <time>2026-08-04T10:42:57.132Z</time>
      </trkpt>
      <trkpt lat="45.93879" lon="6.86495">
        <ele>1459</ele>
        <time>2026-08-04T10:42:58.132Z</time>
      </trkpt>
      <trkpt lat="45.93878" lon="6.86494">
        <ele>1458</ele>
        <time>2026-08-04T10:42:59.132Z</time>
      </trkpt>
      <trkpt lat="45.93877" lon="6.86493">
        <ele>1458</ele>
        <time>2026-08-04T10:43:00.132Z</time>
      </trkpt>
      <trkpt lat="45.93876" lon="6.86493">
        <ele>1458</ele>
        <time>2026-08-04T10:43:01.132Z</time>
      </trkpt>
      <trkpt lat="45.93875" lon="6.86492">
        <ele>1457</ele>
        <time>2026-08-04T10:43:02.132Z</time>
      </trkpt>
      <trkpt lat="45.93873" lon="6.86491">
        <ele>1457</ele>
        <time>2026-08-04T10:43:03.132Z</time>
      </trkpt>
      <trkpt lat="45.93871" lon="6.86489">
        <ele>1457</ele>
        <time>2026-08-04T10:43:04.132Z</time>
      </trkpt>
      <trkpt lat="45.9387" lon="6.86488">
        <ele>1457</ele>
        <time>2026-08-04T10:43:05.132Z</time>
      </trkpt>
      <trkpt lat="45.93868" lon="6.86488">
        <ele>1457</ele>
        <time>2026-08-04T10:43:06.132Z</time>
      </trkpt>
      <trkpt lat="45.93867" lon="6.86487">
        <ele>1457</ele>
        <time>2026-08-04T10:43:07.132Z</time>
      </trkpt>
      <trkpt lat="45.93865" lon="6.86487">
        <ele>1457</ele>
        <time>2026-08-04T10:43:08.132Z</time>
      </trkpt>
      <trkpt lat="45.93863" lon="6.86487">
        <ele>1457</ele>
        <time>2026-08-04T10:43:09.132Z</time>
      </trkpt>
      <trkpt lat="45.93861" lon="6.86487">
        <ele>1457</ele>
        <time>2026-08-04T10:43:10.132Z</time>
      </trkpt>
      <trkpt lat="45.9386" lon="6.86487">
        <ele>1457</ele>
        <time>2026-08-04T10:43:11.132Z</time>
      </trkpt>
      <trkpt lat="45.93858" lon="6.86486">
        <ele>1456</ele>
        <time>2026-08-04T10:43:12.132Z</time>
      </trkpt>
      <trkpt lat="45.93857" lon="6.86484">
        <ele>1456</ele>
        <time>2026-08-04T10:43:13.132Z</time>
      </trkpt>
      <trkpt lat="45.93856" lon="6.86483">
        <ele>1455</ele>
        <time>2026-08-04T10:43:14.132Z</time>
      </trkpt>
      <trkpt lat="45.93855" lon="6.86481">
        <ele>1454</ele>
        <time>2026-08-04T10:43:15.132Z</time>
      </trkpt>
      <trkpt lat="45.93854" lon="6.86481">
        <ele>1454</ele>
        <time>2026-08-04T10:43:16.132Z</time>
      </trkpt>
      <trkpt lat="45.93852" lon="6.8648">
        <ele>1453</ele>
        <time>2026-08-04T10:43:17.132Z</time>
      </trkpt>
      <trkpt lat="45.93851" lon="6.8648">
        <ele>1453</ele>
        <time>2026-08-04T10:43:18.132Z</time>
      </trkpt>
      <trkpt lat="45.9385" lon="6.8648">
        <ele>1452</ele>
        <time>2026-08-04T10:43:19.132Z</time>
      </trkpt>
      <trkpt lat="45.93849" lon="6.8648">
        <ele>1452</ele>
        <time>2026-08-04T10:43:20.132Z</time>
      </trkpt>
      <trkpt lat="45.93848" lon="6.8648">
        <ele>1452</ele>
        <time>2026-08-04T10:43:21.132Z</time>
      </trkpt>
      <trkpt lat="45.93847" lon="6.8648">
        <ele>1451</ele>
        <time>2026-08-04T10:43:22.132Z</time>
      </trkpt>
      <trkpt lat="45.93846" lon="6.8648">
        <ele>1451</ele>
        <time>2026-08-04T10:43:23.132Z</time>
      </trkpt>
      <trkpt lat="45.93845" lon="6.86482">
        <ele>1451</ele>
        <time>2026-08-04T10:43:24.132Z</time>
      </trkpt>
      <trkpt lat="45.93843" lon="6.86482">
        <ele>1450</ele>
        <time>2026-08-04T10:43:25.132Z</time>
      </trkpt>
      <trkpt lat="45.93842" lon="6.86482">
        <ele>1450</ele>
        <time>2026-08-04T10:43:26.132Z</time>
      </trkpt>
      <trkpt lat="45.93841" lon="6.86483">
        <ele>1450</ele>
        <time>2026-08-04T10:43:27.132Z</time>
      </trkpt>
      <trkpt lat="45.93839" lon="6.86483">
        <ele>1450</ele>
        <time>2026-08-04T10:43:28.132Z</time>
      </trkpt>
      <trkpt lat="45.93838" lon="6.86483">
        <ele>1450</ele>
        <time>2026-08-04T10:43:29.132Z</time>
      </trkpt>
      <trkpt lat="45.93836" lon="6.86483">
        <ele>1449</ele>
        <time>2026-08-04T10:43:30.132Z</time>
      </trkpt>
      <trkpt lat="45.93835" lon="6.86484">
        <ele>1449</ele>
        <time>2026-08-04T10:43:31.132Z</time>
      </trkpt>
      <trkpt lat="45.93834" lon="6.86484">
        <ele>1449</ele>
        <time>2026-08-04T10:43:32.132Z</time>
      </trkpt>
      <trkpt lat="45.93832" lon="6.86484">
        <ele>1449</ele>
        <time>2026-08-04T10:43:33.132Z</time>
      </trkpt>
      <trkpt lat="45.93831" lon="6.86484">
        <ele>1448</ele>
        <time>2026-08-04T10:43:34.132Z</time>
      </trkpt>
      <trkpt lat="45.9383" lon="6.86483">
        <ele>1448</ele>
        <time>2026-08-04T10:43:35.132Z</time>
      </trkpt>
      <trkpt lat="45.93829" lon="6.86483">
        <ele>1448</ele>
        <time>2026-08-04T10:43:36.132Z</time>
      </trkpt>
      <trkpt lat="45.93828" lon="6.86483">
        <ele>1448</ele>
        <time>2026-08-04T10:43:37.132Z</time>
      </trkpt>
      <trkpt lat="45.93827" lon="6.86483">
        <ele>1448</ele>
        <time>2026-08-04T10:43:38.132Z</time>
      </trkpt>
      <trkpt lat="45.93825" lon="6.86484">
        <ele>1448</ele>
        <time>2026-08-04T10:43:39.132Z</time>
      </trkpt>
      <trkpt lat="45.93824" lon="6.86486">
        <ele>1448</ele>
        <time>2026-08-04T10:43:40.132Z</time>
      </trkpt>
      <trkpt lat="45.93822" lon="6.86486">
        <ele>1447</ele>
        <time>2026-08-04T10:43:41.132Z</time>
      </trkpt>
      <trkpt lat="45.93821" lon="6.86487">
        <ele>1447</ele>
        <time>2026-08-04T10:43:42.132Z</time>
      </trkpt>
      <trkpt lat="45.93819" lon="6.86487">
        <ele>1447</ele>
        <time>2026-08-04T10:43:43.132Z</time>
      </trkpt>
      <trkpt lat="45.93818" lon="6.86489">
        <ele>1447</ele>
        <time>2026-08-04T10:43:44.132Z</time>
      </trkpt>
      <trkpt lat="45.93817" lon="6.8649">
        <ele>1447</ele>
        <time>2026-08-04T10:43:45.132Z</time>
      </trkpt>
      <trkpt lat="45.93816" lon="6.86491">
        <ele>1447</ele>
        <time>2026-08-04T10:43:46.132Z</time>
      </trkpt>
      <trkpt lat="45.93815" lon="6.86491">
        <ele>1447</ele>
        <time>2026-08-04T10:43:47.132Z</time>
      </trkpt>
      <trkpt lat="45.93814" lon="6.86492">
        <ele>1447</ele>
        <time>2026-08-04T10:43:48.132Z</time>
      </trkpt>
      <trkpt lat="45.93813" lon="6.86492">
        <ele>1447</ele>
        <time>2026-08-04T10:43:49.132Z</time>
      </trkpt>
      <trkpt lat="45.93811" lon="6.86493">
        <ele>1447</ele>
        <time>2026-08-04T10:43:50.132Z</time>
      </trkpt>
      <trkpt lat="45.9381" lon="6.86494">
        <ele>1447</ele>
        <time>2026-08-04T10:43:51.132Z</time>
      </trkpt>
      <trkpt lat="45.93808" lon="6.86494">
        <ele>1447</ele>
        <time>2026-08-04T10:43:52.132Z</time>
      </trkpt>
      <trkpt lat="45.93806" lon="6.86495">
        <ele>1447</ele>
        <time>2026-08-04T10:43:53.132Z</time>
      </trkpt>
      <trkpt lat="45.93804" lon="6.86498">
        <ele>1447</ele>
        <time>2026-08-04T10:43:54.132Z</time>
      </trkpt>
      <trkpt lat="45.93801" lon="6.865">
        <ele>1447</ele>
        <time>2026-08-04T10:43:55.132Z</time>
      </trkpt>
      <trkpt lat="45.93799" lon="6.86501">
        <ele>1447</ele>
        <time>2026-08-04T10:43:56.132Z</time>
      </trkpt>
      <trkpt lat="45.93797" lon="6.86502">
        <ele>1447</ele>
        <time>2026-08-04T10:43:57.132Z</time>
      </trkpt>
      <trkpt lat="45.93795" lon="6.86505">
        <ele>1447</ele>
        <time>2026-08-04T10:43:58.132Z</time>
      </trkpt>
      <trkpt lat="45.93792" lon="6.86508">
        <ele>1447</ele>
        <time>2026-08-04T10:43:59.132Z</time>
      </trkpt>
      <trkpt lat="45.9379" lon="6.86509">
        <ele>1447</ele>
        <time>2026-08-04T10:44:00.132Z</time>
      </trkpt>
      <trkpt lat="45.93789" lon="6.86509">
        <ele>1447</ele>
        <time>2026-08-04T10:44:01.132Z</time>
      </trkpt>
      <trkpt lat="45.93788" lon="6.8651">
        <ele>1447</ele>
        <time>2026-08-04T10:44:02.132Z</time>
      </trkpt>
      <trkpt lat="45.93787" lon="6.86511">
        <ele>1447</ele>
        <time>2026-08-04T10:44:03.132Z</time>
      </trkpt>
      <trkpt lat="45.93786" lon="6.86512">
        <ele>1447</ele>
        <time>2026-08-04T10:44:04.132Z</time>
      </trkpt>
      <trkpt lat="45.93784" lon="6.86513">
        <ele>1448</ele>
        <time>2026-08-04T10:44:05.132Z</time>
      </trkpt>
      <trkpt lat="45.93782" lon="6.86514">
        <ele>1448</ele>
        <time>2026-08-04T10:44:06.132Z</time>
      </trkpt>
      <trkpt lat="45.93781" lon="6.86515">
        <ele>1449</ele>
        <time>2026-08-04T10:44:07.132Z</time>
      </trkpt>
      <trkpt lat="45.9378" lon="6.86514">
        <ele>1449</ele>
        <time>2026-08-04T10:44:08.132Z</time>
      </trkpt>
      <trkpt lat="45.93779" lon="6.86514">
        <ele>1449</ele>
        <time>2026-08-04T10:44:09.132Z</time>
      </trkpt>
      <trkpt lat="45.93779" lon="6.86513">
        <ele>1449</ele>
        <time>2026-08-04T10:44:10.132Z</time>
      </trkpt>
      <trkpt lat="45.93778" lon="6.86513">
        <ele>1449</ele>
        <time>2026-08-04T10:44:11.132Z</time>
      </trkpt>
      <trkpt lat="45.93777" lon="6.86512">
        <ele>1449</ele>
        <time>2026-08-04T10:44:12.132Z</time>
      </trkpt>
      <trkpt lat="45.93776" lon="6.86511">
        <ele>1448</ele>
        <time>2026-08-04T10:44:13.132Z</time>
      </trkpt>
      <trkpt lat="45.93775" lon="6.86511">
        <ele>1448</ele>
        <time>2026-08-04T10:44:14.132Z</time>
      </trkpt>
      <trkpt lat="45.93774" lon="6.86511">
        <ele>1448</ele>
        <time>2026-08-04T10:44:15.132Z</time>
      </trkpt>
      <trkpt lat="45.93774" lon="6.86511">
        <ele>1448</ele>
        <time>2026-08-04T10:44:16.132Z</time>
      </trkpt>
      <trkpt lat="45.93774" lon="6.86511">
        <ele>1448</ele>
        <time>2026-08-04T10:44:17.132Z</time>
      </trkpt>
      <trkpt lat="45.93774" lon="6.86512">
        <ele>1448</ele>
        <time>2026-08-04T10:44:18.132Z</time>
      </trkpt>
      <trkpt lat="45.93774" lon="6.86513">
        <ele>1448</ele>
        <time>2026-08-04T10:44:19.133Z</time>
      </trkpt>
      <trkpt lat="45.93773" lon="6.86513">
        <ele>1447</ele>
        <time>2026-08-04T10:44:20.132Z</time>
      </trkpt>
      <trkpt lat="45.93771" lon="6.86514">
        <ele>1447</ele>
        <time>2026-08-04T10:44:21.132Z</time>
      </trkpt>
      <trkpt lat="45.9377" lon="6.86515">
        <ele>1447</ele>
        <time>2026-08-04T10:44:22.132Z</time>
      </trkpt>
      <trkpt lat="45.93768" lon="6.86517">
        <ele>1447</ele>
        <time>2026-08-04T10:44:23.132Z</time>
      </trkpt>
      <trkpt lat="45.93766" lon="6.86518">
        <ele>1447</ele>
        <time>2026-08-04T10:44:24.132Z</time>
      </trkpt>
      <trkpt lat="45.93763" lon="6.8652">
        <ele>1447</ele>
        <time>2026-08-04T10:44:25.132Z</time>
      </trkpt>
      <trkpt lat="45.93762" lon="6.86521">
        <ele>1446</ele>
        <time>2026-08-04T10:44:26.132Z</time>
      </trkpt>
      <trkpt lat="45.93761" lon="6.86522">
        <ele>1446</ele>
        <time>2026-08-04T10:44:27.132Z</time>
      </trkpt>
      <trkpt lat="45.93759" lon="6.86523">
        <ele>1446</ele>
        <time>2026-08-04T10:44:28.132Z</time>
      </trkpt>
      <trkpt lat="45.93758" lon="6.86525">
        <ele>1445</ele>
        <time>2026-08-04T10:44:29.132Z</time>
      </trkpt>
      <trkpt lat="45.93758" lon="6.86527">
        <ele>1445</ele>
        <time>2026-08-04T10:44:30.132Z</time>
      </trkpt>
      <trkpt lat="45.93756" lon="6.86529">
        <ele>1445</ele>
        <time>2026-08-04T10:44:31.132Z</time>
      </trkpt>
      <trkpt lat="45.93755" lon="6.86531">
        <ele>1445</ele>
        <time>2026-08-04T10:44:32.132Z</time>
      </trkpt>
      <trkpt lat="45.93753" lon="6.86532">
        <ele>1444</ele>
        <time>2026-08-04T10:44:33.132Z</time>
      </trkpt>
      <trkpt lat="45.93752" lon="6.86533">
        <ele>1444</ele>
        <time>2026-08-04T10:44:34.132Z</time>
      </trkpt>
      <trkpt lat="45.93752" lon="6.86534">
        <ele>1444</ele>
        <time>2026-08-04T10:44:35.132Z</time>
      </trkpt>
      <trkpt lat="45.93751" lon="6.86535">
        <ele>1443</ele>
        <time>2026-08-04T10:44:36.132Z</time>
      </trkpt>
      <trkpt lat="45.93749" lon="6.86538">
        <ele>1443</ele>
        <time>2026-08-04T10:44:37.132Z</time>
      </trkpt>
      <trkpt lat="45.93747" lon="6.8654">
        <ele>1443</ele>
        <time>2026-08-04T10:44:38.132Z</time>
      </trkpt>
      <trkpt lat="45.93746" lon="6.86541">
        <ele>1443</ele>
        <time>2026-08-04T10:44:39.132Z</time>
      </trkpt>
      <trkpt lat="45.93745" lon="6.86543">
        <ele>1443</ele>
        <time>2026-08-04T10:44:40.132Z</time>
      </trkpt>
      <trkpt lat="45.93743" lon="6.86544">
        <ele>1442</ele>
        <time>2026-08-04T10:44:41.132Z</time>
      </trkpt>
      <trkpt lat="45.93742" lon="6.86545">
        <ele>1442</ele>
        <time>2026-08-04T10:44:42.132Z</time>
      </trkpt>
      <trkpt lat="45.93741" lon="6.86546">
        <ele>1441</ele>
        <time>2026-08-04T10:44:43.132Z</time>
      </trkpt>
      <trkpt lat="45.9374" lon="6.86548">
        <ele>1440</ele>
        <time>2026-08-04T10:44:44.132Z</time>
      </trkpt>
      <trkpt lat="45.93739" lon="6.86549">
        <ele>1440</ele>
        <time>2026-08-04T10:44:45.132Z</time>
      </trkpt>
      <trkpt lat="45.93739" lon="6.86551">
        <ele>1440</ele>
        <time>2026-08-04T10:44:46.132Z</time>
      </trkpt>
      <trkpt lat="45.93738" lon="6.86553">
        <ele>1439</ele>
        <time>2026-08-04T10:44:47.132Z</time>
      </trkpt>
      <trkpt lat="45.93738" lon="6.86555">
        <ele>1439</ele>
        <time>2026-08-04T10:44:48.132Z</time>
      </trkpt>
      <trkpt lat="45.93738" lon="6.86558">
        <ele>1439</ele>
        <time>2026-08-04T10:44:49.132Z</time>
      </trkpt>
      <trkpt lat="45.93738" lon="6.8656">
        <ele>1439</ele>
        <time>2026-08-04T10:44:50.132Z</time>
      </trkpt>
      <trkpt lat="45.93737" lon="6.86562">
        <ele>1439</ele>
        <time>2026-08-04T10:44:51.132Z</time>
      </trkpt>
      <trkpt lat="45.93735" lon="6.86564">
        <ele>1439</ele>
        <time>2026-08-04T10:44:52.132Z</time>
      </trkpt>
      <trkpt lat="45.93734" lon="6.86565">
        <ele>1438</ele>
        <time>2026-08-04T10:44:53.132Z</time>
      </trkpt>
      <trkpt lat="45.93733" lon="6.86567">
        <ele>1438</ele>
        <time>2026-08-04T10:44:54.132Z</time>
      </trkpt>
      <trkpt lat="45.93731" lon="6.86569">
        <ele>1438</ele>
        <time>2026-08-04T10:44:55.132Z</time>
      </trkpt>
      <trkpt lat="45.93729" lon="6.8657">
        <ele>1438</ele>
        <time>2026-08-04T10:44:56.132Z</time>
      </trkpt>
      <trkpt lat="45.93727" lon="6.86572">
        <ele>1438</ele>
        <time>2026-08-04T10:44:57.132Z</time>
      </trkpt>
      <trkpt lat="45.93725" lon="6.86574">
        <ele>1438</ele>
        <time>2026-08-04T10:44:58.132Z</time>
      </trkpt>
      <trkpt lat="45.93723" lon="6.86576">
        <ele>1439</ele>
        <time>2026-08-04T10:44:59.132Z</time>
      </trkpt>
      <trkpt lat="45.93721" lon="6.86577">
        <ele>1439</ele>
        <time>2026-08-04T10:45:00.132Z</time>
      </trkpt>
      <trkpt lat="45.93719" lon="6.86581">
        <ele>1439</ele>
        <time>2026-08-04T10:45:01.132Z</time>
      </trkpt>
      <trkpt lat="45.93717" lon="6.86583">
        <ele>1438</ele>
        <time>2026-08-04T10:45:02.132Z</time>
      </trkpt>
      <trkpt lat="45.93715" lon="6.86585">
        <ele>1438</ele>
        <time>2026-08-04T10:45:03.132Z</time>
      </trkpt>
      <trkpt lat="45.93713" lon="6.86587">
        <ele>1438</ele>
        <time>2026-08-04T10:45:04.132Z</time>
      </trkpt>
      <trkpt lat="45.93711" lon="6.86589">
        <ele>1437</ele>
        <time>2026-08-04T10:45:05.132Z</time>
      </trkpt>
      <trkpt lat="45.93709" lon="6.8659">
        <ele>1437</ele>
        <time>2026-08-04T10:45:06.132Z</time>
      </trkpt>
      <trkpt lat="45.93708" lon="6.86591">
        <ele>1436</ele>
        <time>2026-08-04T10:45:07.132Z</time>
      </trkpt>
      <trkpt lat="45.93707" lon="6.86592">
        <ele>1436</ele>
        <time>2026-08-04T10:45:08.132Z</time>
      </trkpt>
      <trkpt lat="45.93706" lon="6.86593">
        <ele>1436</ele>
        <time>2026-08-04T10:45:09.132Z</time>
      </trkpt>
      <trkpt lat="45.93704" lon="6.86594">
        <ele>1436</ele>
        <time>2026-08-04T10:45:10.132Z</time>
      </trkpt>
      <trkpt lat="45.93702" lon="6.86594">
        <ele>1435</ele>
        <time>2026-08-04T10:45:11.132Z</time>
      </trkpt>
      <trkpt lat="45.93701" lon="6.86595">
        <ele>1435</ele>
        <time>2026-08-04T10:45:12.132Z</time>
      </trkpt>
      <trkpt lat="45.93699" lon="6.86596">
        <ele>1435</ele>
        <time>2026-08-04T10:45:13.132Z</time>
      </trkpt>
      <trkpt lat="45.93697" lon="6.86597">
        <ele>1435</ele>
        <time>2026-08-04T10:45:14.132Z</time>
      </trkpt>
      <trkpt lat="45.93696" lon="6.86598">
        <ele>1434</ele>
        <time>2026-08-04T10:45:15.132Z</time>
      </trkpt>
      <trkpt lat="45.93695" lon="6.86599">
        <ele>1434</ele>
        <time>2026-08-04T10:45:16.132Z</time>
      </trkpt>
      <trkpt lat="45.93694" lon="6.866">
        <ele>1434</ele>
        <time>2026-08-04T10:45:17.132Z</time>
      </trkpt>
      <trkpt lat="45.93692" lon="6.86601">
        <ele>1434</ele>
        <time>2026-08-04T10:45:18.132Z</time>
      </trkpt>
      <trkpt lat="45.93691" lon="6.86602">
        <ele>1434</ele>
        <time>2026-08-04T10:45:19.132Z</time>
      </trkpt>
      <trkpt lat="45.93689" lon="6.86604">
        <ele>1433</ele>
        <time>2026-08-04T10:45:20.132Z</time>
      </trkpt>
      <trkpt lat="45.93688" lon="6.86605">
        <ele>1433</ele>
        <time>2026-08-04T10:45:21.132Z</time>
      </trkpt>
      <trkpt lat="45.93686" lon="6.86607">
        <ele>1433</ele>
        <time>2026-08-04T10:45:22.132Z</time>
      </trkpt>
      <trkpt lat="45.93685" lon="6.86608">
        <ele>1432</ele>
        <time>2026-08-04T10:45:23.132Z</time>
      </trkpt>
      <trkpt lat="45.93684" lon="6.86609">
        <ele>1432</ele>
        <time>2026-08-04T10:45:24.132Z</time>
      </trkpt>
      <trkpt lat="45.93683" lon="6.8661">
        <ele>1432</ele>
        <time>2026-08-04T10:45:25.132Z</time>
      </trkpt>
      <trkpt lat="45.9368" lon="6.86612">
        <ele>1431</ele>
        <time>2026-08-04T10:45:26.132Z</time>
      </trkpt>
      <trkpt lat="45.93678" lon="6.86614">
        <ele>1431</ele>
        <time>2026-08-04T10:45:27.132Z</time>
      </trkpt>
      <trkpt lat="45.93678" lon="6.86615">
        <ele>1431</ele>
        <time>2026-08-04T10:45:28.132Z</time>
      </trkpt>
      <trkpt lat="45.93677" lon="6.86616">
        <ele>1430</ele>
        <time>2026-08-04T10:45:29.132Z</time>
      </trkpt>
      <trkpt lat="45.93677" lon="6.86617">
        <ele>1430</ele>
        <time>2026-08-04T10:45:30.132Z</time>
      </trkpt>
      <trkpt lat="45.93676" lon="6.86618">
        <ele>1430</ele>
        <time>2026-08-04T10:45:31.132Z</time>
      </trkpt>
      <trkpt lat="45.93676" lon="6.8662">
        <ele>1429</ele>
        <time>2026-08-04T10:45:32.132Z</time>
      </trkpt>
      <trkpt lat="45.93675" lon="6.86621">
        <ele>1429</ele>
        <time>2026-08-04T10:45:33.132Z</time>
      </trkpt>
      <trkpt lat="45.93674" lon="6.86622">
        <ele>1428</ele>
        <time>2026-08-04T10:45:34.132Z</time>
      </trkpt>
      <trkpt lat="45.93674" lon="6.86622">
        <ele>1428</ele>
        <time>2026-08-04T10:45:35.132Z</time>
      </trkpt>
      <trkpt lat="45.93673" lon="6.86623">
        <ele>1428</ele>
        <time>2026-08-04T10:45:36.132Z</time>
      </trkpt>
      <trkpt lat="45.93673" lon="6.86623">
        <ele>1428</ele>
        <time>2026-08-04T10:45:37.132Z</time>
      </trkpt>
      <trkpt lat="45.93672" lon="6.86625">
        <ele>1428</ele>
        <time>2026-08-04T10:45:38.132Z</time>
      </trkpt>
      <trkpt lat="45.93672" lon="6.86626">
        <ele>1428</ele>
        <time>2026-08-04T10:45:39.132Z</time>
      </trkpt>
      <trkpt lat="45.93672" lon="6.86628">
        <ele>1428</ele>
        <time>2026-08-04T10:45:40.132Z</time>
      </trkpt>
      <trkpt lat="45.93671" lon="6.86631">
        <ele>1428</ele>
        <time>2026-08-04T10:45:41.132Z</time>
      </trkpt>
      <trkpt lat="45.93669" lon="6.86633">
        <ele>1428</ele>
        <time>2026-08-04T10:45:42.132Z</time>
      </trkpt>
      <trkpt lat="45.93668" lon="6.86636">
        <ele>1428</ele>
        <time>2026-08-04T10:45:43.132Z</time>
      </trkpt>
      <trkpt lat="45.93667" lon="6.86639">
        <ele>1428</ele>
        <time>2026-08-04T10:45:44.132Z</time>
      </trkpt>
      <trkpt lat="45.93666" lon="6.86642">
        <ele>1428</ele>
        <time>2026-08-04T10:45:45.132Z</time>
      </trkpt>
      <trkpt lat="45.93665" lon="6.86644">
        <ele>1428</ele>
        <time>2026-08-04T10:45:46.132Z</time>
      </trkpt>
      <trkpt lat="45.93664" lon="6.86646">
        <ele>1427</ele>
        <time>2026-08-04T10:45:47.132Z</time>
      </trkpt>
      <trkpt lat="45.93663" lon="6.86648">
        <ele>1427</ele>
        <time>2026-08-04T10:45:48.132Z</time>
      </trkpt>
      <trkpt lat="45.93662" lon="6.8665">
        <ele>1427</ele>
        <time>2026-08-04T10:45:49.132Z</time>
      </trkpt>
      <trkpt lat="45.93661" lon="6.86652">
        <ele>1427</ele>
        <time>2026-08-04T10:45:50.132Z</time>
      </trkpt>
      <trkpt lat="45.9366" lon="6.86655">
        <ele>1427</ele>
        <time>2026-08-04T10:45:51.132Z</time>
      </trkpt>
      <trkpt lat="45.9366" lon="6.86656">
        <ele>1426</ele>
        <time>2026-08-04T10:45:52.132Z</time>
      </trkpt>
      <trkpt lat="45.93659" lon="6.86657">
        <ele>1426</ele>
        <time>2026-08-04T10:45:53.132Z</time>
      </trkpt>
      <trkpt lat="45.93658" lon="6.86659">
        <ele>1426</ele>
        <time>2026-08-04T10:45:54.132Z</time>
      </trkpt>
      <trkpt lat="45.93658" lon="6.8666">
        <ele>1426</ele>
        <time>2026-08-04T10:45:55.132Z</time>
      </trkpt>
      <trkpt lat="45.93657" lon="6.86662">
        <ele>1426</ele>
        <time>2026-08-04T10:45:56.132Z</time>
      </trkpt>
      <trkpt lat="45.93656" lon="6.86663">
        <ele>1426</ele>
        <time>2026-08-04T10:45:57.132Z</time>
      </trkpt>
      <trkpt lat="45.93657" lon="6.86665">
        <ele>1426</ele>
        <time>2026-08-04T10:45:58.132Z</time>
      </trkpt>
      <trkpt lat="45.93656" lon="6.86667">
        <ele>1426</ele>
        <time>2026-08-04T10:45:59.132Z</time>
      </trkpt>
      <trkpt lat="45.93656" lon="6.86669">
        <ele>1426</ele>
        <time>2026-08-04T10:46:00.133Z</time>
      </trkpt>
      <trkpt lat="45.93656" lon="6.86671">
        <ele>1426</ele>
        <time>2026-08-04T10:46:01.132Z</time>
      </trkpt>
      <trkpt lat="45.93656" lon="6.86673">
        <ele>1427</ele>
        <time>2026-08-04T10:46:02.132Z</time>
      </trkpt>
      <trkpt lat="45.93656" lon="6.86674">
        <ele>1427</ele>
        <time>2026-08-04T10:46:03.132Z</time>
      </trkpt>
      <trkpt lat="45.93656" lon="6.86676">
        <ele>1427</ele>
        <time>2026-08-04T10:46:04.132Z</time>
      </trkpt>
      <trkpt lat="45.93656" lon="6.86678">
        <ele>1427</ele>
        <time>2026-08-04T10:46:05.132Z</time>
      </trkpt>
      <trkpt lat="45.93657" lon="6.86679">
        <ele>1427</ele>
        <time>2026-08-04T10:46:06.132Z</time>
      </trkpt>
      <trkpt lat="45.93658" lon="6.86682">
        <ele>1427</ele>
        <time>2026-08-04T10:46:07.132Z</time>
      </trkpt>
      <trkpt lat="45.93658" lon="6.86684">
        <ele>1428</ele>
        <time>2026-08-04T10:46:08.132Z</time>
      </trkpt>
      <trkpt lat="45.93659" lon="6.86686">
        <ele>1428</ele>
        <time>2026-08-04T10:46:09.132Z</time>
      </trkpt>
      <trkpt lat="45.93659" lon="6.86688">
        <ele>1428</ele>
        <time>2026-08-04T10:46:10.132Z</time>
      </trkpt>
      <trkpt lat="45.93659" lon="6.86689">
        <ele>1428</ele>
        <time>2026-08-04T10:46:11.132Z</time>
      </trkpt>
      <trkpt lat="45.93658" lon="6.8669">
        <ele>1428</ele>
        <time>2026-08-04T10:46:12.132Z</time>
      </trkpt>
      <trkpt lat="45.93658" lon="6.86691">
        <ele>1427</ele>
        <time>2026-08-04T10:46:13.132Z</time>
      </trkpt>
      <trkpt lat="45.93657" lon="6.86692">
        <ele>1427</ele>
        <time>2026-08-04T10:46:14.132Z</time>
      </trkpt>
      <trkpt lat="45.93657" lon="6.86694">
        <ele>1426</ele>
        <time>2026-08-04T10:46:15.132Z</time>
      </trkpt>
      <trkpt lat="45.93656" lon="6.86695">
        <ele>1425</ele>
        <time>2026-08-04T10:46:16.132Z</time>
      </trkpt>
      <trkpt lat="45.93655" lon="6.86696">
        <ele>1425</ele>
        <time>2026-08-04T10:46:17.132Z</time>
      </trkpt>
      <trkpt lat="45.93654" lon="6.86698">
        <ele>1424</ele>
        <time>2026-08-04T10:46:18.132Z</time>
      </trkpt>
      <trkpt lat="45.93653" lon="6.86699">
        <ele>1424</ele>
        <time>2026-08-04T10:46:19.132Z</time>
      </trkpt>
      <trkpt lat="45.93653" lon="6.86701">
        <ele>1424</ele>
        <time>2026-08-04T10:46:20.132Z</time>
      </trkpt>
      <trkpt lat="45.93653" lon="6.86703">
        <ele>1423</ele>
        <time>2026-08-04T10:46:21.132Z</time>
      </trkpt>
      <trkpt lat="45.93652" lon="6.86705">
        <ele>1423</ele>
        <time>2026-08-04T10:46:22.132Z</time>
      </trkpt>
      <trkpt lat="45.93652" lon="6.86706">
        <ele>1423</ele>
        <time>2026-08-04T10:46:23.132Z</time>
      </trkpt>
      <trkpt lat="45.93651" lon="6.86707">
        <ele>1423</ele>
        <time>2026-08-04T10:46:24.132Z</time>
      </trkpt>
      <trkpt lat="45.9365" lon="6.86709">
        <ele>1423</ele>
        <time>2026-08-04T10:46:25.132Z</time>
      </trkpt>
      <trkpt lat="45.93649" lon="6.86711">
        <ele>1423</ele>
        <time>2026-08-04T10:46:26.132Z</time>
      </trkpt>
      <trkpt lat="45.93649" lon="6.86713">
        <ele>1423</ele>
        <time>2026-08-04T10:46:27.132Z</time>
      </trkpt>
      <trkpt lat="45.93649" lon="6.86714">
        <ele>1423</ele>
        <time>2026-08-04T10:46:28.132Z</time>
      </trkpt>
      <trkpt lat="45.93648" lon="6.86715">
        <ele>1423</ele>
        <time>2026-08-04T10:46:29.132Z</time>
      </trkpt>
      <trkpt lat="45.93648" lon="6.86717">
        <ele>1423</ele>
        <time>2026-08-04T10:46:30.132Z</time>
      </trkpt>
      <trkpt lat="45.93647" lon="6.8672">
        <ele>1423</ele>
        <time>2026-08-04T10:46:31.132Z</time>
      </trkpt>
      <trkpt lat="45.93646" lon="6.86722">
        <ele>1423</ele>
        <time>2026-08-04T10:46:32.132Z</time>
      </trkpt>
      <trkpt lat="45.93645" lon="6.86725">
        <ele>1422</ele>
        <time>2026-08-04T10:46:33.132Z</time>
      </trkpt>
      <trkpt lat="45.93642" lon="6.86728">
        <ele>1422</ele>
        <time>2026-08-04T10:46:34.132Z</time>
      </trkpt>
      <trkpt lat="45.93641" lon="6.86729">
        <ele>1422</ele>
        <time>2026-08-04T10:46:35.132Z</time>
      </trkpt>
      <trkpt lat="45.93639" lon="6.8673">
        <ele>1421</ele>
        <time>2026-08-04T10:46:36.132Z</time>
      </trkpt>
      <trkpt lat="45.93637" lon="6.86729">
        <ele>1421</ele>
        <time>2026-08-04T10:46:37.132Z</time>
      </trkpt>
      <trkpt lat="45.93637" lon="6.86729">
        <ele>1420</ele>
        <time>2026-08-04T10:46:38.132Z</time>
      </trkpt>
      <trkpt lat="45.93636" lon="6.86728">
        <ele>1420</ele>
        <time>2026-08-04T10:46:39.132Z</time>
      </trkpt>
      <trkpt lat="45.93635" lon="6.86727">
        <ele>1419</ele>
        <time>2026-08-04T10:46:40.132Z</time>
      </trkpt>
      <trkpt lat="45.93634" lon="6.86726">
        <ele>1418</ele>
        <time>2026-08-04T10:46:41.132Z</time>
      </trkpt>
      <trkpt lat="45.93632" lon="6.86724">
        <ele>1417</ele>
        <time>2026-08-04T10:46:42.132Z</time>
      </trkpt>
      <trkpt lat="45.93631" lon="6.86723">
        <ele>1416</ele>
        <time>2026-08-04T10:46:43.132Z</time>
      </trkpt>
      <trkpt lat="45.93629" lon="6.86722">
        <ele>1416</ele>
        <time>2026-08-04T10:46:44.133Z</time>
      </trkpt>
      <trkpt lat="45.93628" lon="6.8672">
        <ele>1415</ele>
        <time>2026-08-04T10:46:45.132Z</time>
      </trkpt>
      <trkpt lat="45.93626" lon="6.86719">
        <ele>1415</ele>
        <time>2026-08-04T10:46:46.132Z</time>
      </trkpt>
      <trkpt lat="45.93624" lon="6.86718">
        <ele>1415</ele>
        <time>2026-08-04T10:46:47.132Z</time>
      </trkpt>
      <trkpt lat="45.93623" lon="6.86717">
        <ele>1415</ele>
        <time>2026-08-04T10:46:48.132Z</time>
      </trkpt>
      <trkpt lat="45.93621" lon="6.86715">
        <ele>1415</ele>
        <time>2026-08-04T10:46:49.132Z</time>
      </trkpt>
      <trkpt lat="45.9362" lon="6.86713">
        <ele>1414</ele>
        <time>2026-08-04T10:46:50.132Z</time>
      </trkpt>
      <trkpt lat="45.93618" lon="6.86711">
        <ele>1414</ele>
        <time>2026-08-04T10:46:51.132Z</time>
      </trkpt>
      <trkpt lat="45.93616" lon="6.8671">
        <ele>1414</ele>
        <time>2026-08-04T10:46:52.132Z</time>
      </trkpt>
      <trkpt lat="45.93614" lon="6.86709">
        <ele>1414</ele>
        <time>2026-08-04T10:46:53.132Z</time>
      </trkpt>
      <trkpt lat="45.93613" lon="6.86709">
        <ele>1414</ele>
        <time>2026-08-04T10:46:54.132Z</time>
      </trkpt>
      <trkpt lat="45.93612" lon="6.86709">
        <ele>1414</ele>
        <time>2026-08-04T10:46:55.132Z</time>
      </trkpt>
      <trkpt lat="45.93611" lon="6.86709">
        <ele>1414</ele>
        <time>2026-08-04T10:46:56.132Z</time>
      </trkpt>
      <trkpt lat="45.9361" lon="6.86709">
        <ele>1414</ele>
        <time>2026-08-04T10:46:57.132Z</time>
      </trkpt>
      <trkpt lat="45.93608" lon="6.86709">
        <ele>1413</ele>
        <time>2026-08-04T10:46:58.132Z</time>
      </trkpt>
      <trkpt lat="45.93606" lon="6.86709">
        <ele>1413</ele>
        <time>2026-08-04T10:46:59.132Z</time>
      </trkpt>
      <trkpt lat="45.93604" lon="6.86709">
        <ele>1413</ele>
        <time>2026-08-04T10:47:00.132Z</time>
      </trkpt>
      <trkpt lat="45.93602" lon="6.86708">
        <ele>1413</ele>
        <time>2026-08-04T10:47:01.132Z</time>
      </trkpt>
      <trkpt lat="45.936" lon="6.86707">
        <ele>1413</ele>
        <time>2026-08-04T10:47:02.132Z</time>
      </trkpt>
      <trkpt lat="45.93598" lon="6.86705">
        <ele>1413</ele>
        <time>2026-08-04T10:47:03.132Z</time>
      </trkpt>
      <trkpt lat="45.93596" lon="6.86704">
        <ele>1413</ele>
        <time>2026-08-04T10:47:04.132Z</time>
      </trkpt>
      <trkpt lat="45.93594" lon="6.86703">
        <ele>1412</ele>
        <time>2026-08-04T10:47:05.132Z</time>
      </trkpt>
      <trkpt lat="45.93592" lon="6.86701">
        <ele>1412</ele>
        <time>2026-08-04T10:47:06.132Z</time>
      </trkpt>
      <trkpt lat="45.9359" lon="6.86699">
        <ele>1412</ele>
        <time>2026-08-04T10:47:07.132Z</time>
      </trkpt>
      <trkpt lat="45.93589" lon="6.86698">
        <ele>1412</ele>
        <time>2026-08-04T10:47:08.132Z</time>
      </trkpt>
      <trkpt lat="45.93588" lon="6.86697">
        <ele>1412</ele>
        <time>2026-08-04T10:47:09.132Z</time>
      </trkpt>
      <trkpt lat="45.93586" lon="6.86696">
        <ele>1412</ele>
        <time>2026-08-04T10:47:10.132Z</time>
      </trkpt>
      <trkpt lat="45.93585" lon="6.86695">
        <ele>1412</ele>
        <time>2026-08-04T10:47:11.132Z</time>
      </trkpt>
      <trkpt lat="45.93584" lon="6.86693">
        <ele>1412</ele>
        <time>2026-08-04T10:47:12.132Z</time>
      </trkpt>
      <trkpt lat="45.93583" lon="6.86691">
        <ele>1412</ele>
        <time>2026-08-04T10:47:13.132Z</time>
      </trkpt>
      <trkpt lat="45.93583" lon="6.86688">
        <ele>1412</ele>
        <time>2026-08-04T10:47:14.132Z</time>
      </trkpt>
      <trkpt lat="45.93582" lon="6.86686">
        <ele>1412</ele>
        <time>2026-08-04T10:47:15.132Z</time>
      </trkpt>
      <trkpt lat="45.93582" lon="6.86684">
        <ele>1411</ele>
        <time>2026-08-04T10:47:16.132Z</time>
      </trkpt>
      <trkpt lat="45.93581" lon="6.86681">
        <ele>1411</ele>
        <time>2026-08-04T10:47:17.132Z</time>
      </trkpt>
      <trkpt lat="45.93581" lon="6.86678">
        <ele>1411</ele>
        <time>2026-08-04T10:47:18.132Z</time>
      </trkpt>
      <trkpt lat="45.9358" lon="6.86675">
        <ele>1411</ele>
        <time>2026-08-04T10:47:19.132Z</time>
      </trkpt>
      <trkpt lat="45.93579" lon="6.86673">
        <ele>1412</ele>
        <time>2026-08-04T10:47:20.132Z</time>
      </trkpt>
      <trkpt lat="45.93578" lon="6.86671">
        <ele>1412</ele>
        <time>2026-08-04T10:47:21.132Z</time>
      </trkpt>
      <trkpt lat="45.93578" lon="6.86668">
        <ele>1412</ele>
        <time>2026-08-04T10:47:22.132Z</time>
      </trkpt>
      <trkpt lat="45.93577" lon="6.86666">
        <ele>1412</ele>
        <time>2026-08-04T10:47:23.132Z</time>
      </trkpt>
      <trkpt lat="45.93577" lon="6.86663">
        <ele>1412</ele>
        <time>2026-08-04T10:47:24.132Z</time>
      </trkpt>
      <trkpt lat="45.93577" lon="6.86661">
        <ele>1412</ele>
        <time>2026-08-04T10:47:25.132Z</time>
      </trkpt>
      <trkpt lat="45.93576" lon="6.8666">
        <ele>1412</ele>
        <time>2026-08-04T10:47:26.132Z</time>
      </trkpt>
      <trkpt lat="45.93576" lon="6.86658">
        <ele>1412</ele>
        <time>2026-08-04T10:47:27.132Z</time>
      </trkpt>
      <trkpt lat="45.93575" lon="6.86656">
        <ele>1412</ele>
        <time>2026-08-04T10:47:28.132Z</time>
      </trkpt>
      <trkpt lat="45.93574" lon="6.86654">
        <ele>1412</ele>
        <time>2026-08-04T10:47:29.132Z</time>
      </trkpt>
      <trkpt lat="45.93572" lon="6.86651">
        <ele>1412</ele>
        <time>2026-08-04T10:47:30.132Z</time>
      </trkpt>
      <trkpt lat="45.93572" lon="6.86648">
        <ele>1412</ele>
        <time>2026-08-04T10:47:31.132Z</time>
      </trkpt>
      <trkpt lat="45.93571" lon="6.86645">
        <ele>1413</ele>
        <time>2026-08-04T10:47:32.132Z</time>
      </trkpt>
      <trkpt lat="45.9357" lon="6.86642">
        <ele>1413</ele>
        <time>2026-08-04T10:47:33.132Z</time>
      </trkpt>
      <trkpt lat="45.9357" lon="6.86639">
        <ele>1413</ele>
        <time>2026-08-04T10:47:34.132Z</time>
      </trkpt>
      <trkpt lat="45.93569" lon="6.86636">
        <ele>1413</ele>
        <time>2026-08-04T10:47:35.132Z</time>
      </trkpt>
      <trkpt lat="45.93568" lon="6.86634">
        <ele>1413</ele>
        <time>2026-08-04T10:47:36.132Z</time>
      </trkpt>
      <trkpt lat="45.93567" lon="6.86632">
        <ele>1412</ele>
        <time>2026-08-04T10:47:37.132Z</time>
      </trkpt>
      <trkpt lat="45.93566" lon="6.86631">
        <ele>1413</ele>
        <time>2026-08-04T10:47:38.132Z</time>
      </trkpt>
      <trkpt lat="45.93565" lon="6.86629">
        <ele>1412</ele>
        <time>2026-08-04T10:47:39.132Z</time>
      </trkpt>
      <trkpt lat="45.93563" lon="6.86628">
        <ele>1412</ele>
        <time>2026-08-04T10:47:40.132Z</time>
      </trkpt>
      <trkpt lat="45.9356" lon="6.86626">
        <ele>1412</ele>
        <time>2026-08-04T10:47:41.132Z</time>
      </trkpt>
      <trkpt lat="45.93559" lon="6.86623">
        <ele>1412</ele>
        <time>2026-08-04T10:47:42.132Z</time>
      </trkpt>
      <trkpt lat="45.93557" lon="6.8662">
        <ele>1412</ele>
        <time>2026-08-04T10:47:43.132Z</time>
      </trkpt>
      <trkpt lat="45.93556" lon="6.86617">
        <ele>1412</ele>
        <time>2026-08-04T10:47:44.132Z</time>
      </trkpt>
      <trkpt lat="45.93555" lon="6.86615">
        <ele>1412</ele>
        <time>2026-08-04T10:47:45.132Z</time>
      </trkpt>
      <trkpt lat="45.93553" lon="6.86614">
        <ele>1412</ele>
        <time>2026-08-04T10:47:46.132Z</time>
      </trkpt>
      <trkpt lat="45.93552" lon="6.86613">
        <ele>1412</ele>
        <time>2026-08-04T10:47:47.132Z</time>
      </trkpt>
      <trkpt lat="45.9355" lon="6.86611">
        <ele>1411</ele>
        <time>2026-08-04T10:47:48.132Z</time>
      </trkpt>
      <trkpt lat="45.93548" lon="6.8661">
        <ele>1411</ele>
        <time>2026-08-04T10:47:49.132Z</time>
      </trkpt>
      <trkpt lat="45.93546" lon="6.86608">
        <ele>1411</ele>
        <time>2026-08-04T10:47:50.132Z</time>
      </trkpt>
      <trkpt lat="45.93545" lon="6.86607">
        <ele>1411</ele>
        <time>2026-08-04T10:47:51.132Z</time>
      </trkpt>
      <trkpt lat="45.93544" lon="6.86605">
        <ele>1411</ele>
        <time>2026-08-04T10:47:52.132Z</time>
      </trkpt>
      <trkpt lat="45.93543" lon="6.86604">
        <ele>1411</ele>
        <time>2026-08-04T10:47:53.132Z</time>
      </trkpt>
      <trkpt lat="45.93543" lon="6.86604">
        <ele>1410</ele>
        <time>2026-08-04T10:47:54.132Z</time>
      </trkpt>
      <trkpt lat="45.93541" lon="6.86601">
        <ele>1410</ele>
        <time>2026-08-04T10:47:55.132Z</time>
      </trkpt>
      <trkpt lat="45.9354" lon="6.86599">
        <ele>1409</ele>
        <time>2026-08-04T10:47:56.132Z</time>
      </trkpt>
      <trkpt lat="45.9354" lon="6.86596">
        <ele>1408</ele>
        <time>2026-08-04T10:47:57.132Z</time>
      </trkpt>
      <trkpt lat="45.93538" lon="6.86593">
        <ele>1407</ele>
        <time>2026-08-04T10:47:58.132Z</time>
      </trkpt>
      <trkpt lat="45.93537" lon="6.86589">
        <ele>1407</ele>
        <time>2026-08-04T10:47:59.132Z</time>
      </trkpt>
      <trkpt lat="45.93536" lon="6.86586">
        <ele>1406</ele>
        <time>2026-08-04T10:48:00.132Z</time>
      </trkpt>
      <trkpt lat="45.93535" lon="6.86584">
        <ele>1406</ele>
        <time>2026-08-04T10:48:01.132Z</time>
      </trkpt>
      <trkpt lat="45.93534" lon="6.86583">
        <ele>1406</ele>
        <time>2026-08-04T10:48:02.132Z</time>
      </trkpt>
      <trkpt lat="45.93533" lon="6.86581">
        <ele>1406</ele>
        <time>2026-08-04T10:48:03.132Z</time>
      </trkpt>
      <trkpt lat="45.93533" lon="6.86579">
        <ele>1406</ele>
        <time>2026-08-04T10:48:04.132Z</time>
      </trkpt>
      <trkpt lat="45.93531" lon="6.86577">
        <ele>1405</ele>
        <time>2026-08-04T10:48:05.132Z</time>
      </trkpt>
      <trkpt lat="45.93531" lon="6.86575">
        <ele>1405</ele>
        <time>2026-08-04T10:48:06.132Z</time>
      </trkpt>
      <trkpt lat="45.93529" lon="6.86572">
        <ele>1404</ele>
        <time>2026-08-04T10:48:07.132Z</time>
      </trkpt>
      <trkpt lat="45.93529" lon="6.86569">
        <ele>1404</ele>
        <time>2026-08-04T10:48:08.132Z</time>
      </trkpt>
      <trkpt lat="45.93528" lon="6.86566">
        <ele>1403</ele>
        <time>2026-08-04T10:48:09.132Z</time>
      </trkpt>
      <trkpt lat="45.93528" lon="6.86563">
        <ele>1403</ele>
        <time>2026-08-04T10:48:10.132Z</time>
      </trkpt>
      <trkpt lat="45.93527" lon="6.8656">
        <ele>1402</ele>
        <time>2026-08-04T10:48:11.132Z</time>
      </trkpt>
      <trkpt lat="45.93526" lon="6.86558">
        <ele>1402</ele>
        <time>2026-08-04T10:48:12.132Z</time>
      </trkpt>
      <trkpt lat="45.93526" lon="6.86555">
        <ele>1402</ele>
        <time>2026-08-04T10:48:13.132Z</time>
      </trkpt>
      <trkpt lat="45.93526" lon="6.86553">
        <ele>1401</ele>
        <time>2026-08-04T10:48:14.132Z</time>
      </trkpt>
      <trkpt lat="45.93526" lon="6.86551">
        <ele>1401</ele>
        <time>2026-08-04T10:48:15.132Z</time>
      </trkpt>
      <trkpt lat="45.93526" lon="6.86549">
        <ele>1400</ele>
        <time>2026-08-04T10:48:16.132Z</time>
      </trkpt>
      <trkpt lat="45.93525" lon="6.86547">
        <ele>1400</ele>
        <time>2026-08-04T10:48:17.132Z</time>
      </trkpt>
      <trkpt lat="45.93524" lon="6.86545">
        <ele>1399</ele>
        <time>2026-08-04T10:48:18.132Z</time>
      </trkpt>
      <trkpt lat="45.93523" lon="6.86544">
        <ele>1399</ele>
        <time>2026-08-04T10:48:19.132Z</time>
      </trkpt>
      <trkpt lat="45.93522" lon="6.86543">
        <ele>1399</ele>
        <time>2026-08-04T10:48:20.132Z</time>
      </trkpt>
      <trkpt lat="45.9352" lon="6.86543">
        <ele>1399</ele>
        <time>2026-08-04T10:48:21.132Z</time>
      </trkpt>
      <trkpt lat="45.93519" lon="6.86542">
        <ele>1399</ele>
        <time>2026-08-04T10:48:22.132Z</time>
      </trkpt>
      <trkpt lat="45.93518" lon="6.86541">
        <ele>1399</ele>
        <time>2026-08-04T10:48:23.132Z</time>
      </trkpt>
      <trkpt lat="45.93517" lon="6.86539">
        <ele>1398</ele>
        <time>2026-08-04T10:48:24.132Z</time>
      </trkpt>
      <trkpt lat="45.93516" lon="6.86538">
        <ele>1398</ele>
        <time>2026-08-04T10:48:25.132Z</time>
      </trkpt>
      <trkpt lat="45.93516" lon="6.86537">
        <ele>1398</ele>
        <time>2026-08-04T10:48:26.132Z</time>
      </trkpt>
      <trkpt lat="45.93515" lon="6.86537">
        <ele>1398</ele>
        <time>2026-08-04T10:48:27.132Z</time>
      </trkpt>
      <trkpt lat="45.93515" lon="6.86537">
        <ele>1398</ele>
        <time>2026-08-04T10:48:28.132Z</time>
      </trkpt>
      <trkpt lat="45.93515" lon="6.86537">
        <ele>1398</ele>
        <time>2026-08-04T10:48:29.132Z</time>
      </trkpt>
      <trkpt lat="45.93514" lon="6.86536">
        <ele>1398</ele>
        <time>2026-08-04T10:48:30.132Z</time>
      </trkpt>
      <trkpt lat="45.93514" lon="6.86535">
        <ele>1398</ele>
        <time>2026-08-04T10:48:31.132Z</time>
      </trkpt>
      <trkpt lat="45.93513" lon="6.86533">
        <ele>1398</ele>
        <time>2026-08-04T10:48:32.132Z</time>
      </trkpt>
      <trkpt lat="45.93512" lon="6.86531">
        <ele>1398</ele>
        <time>2026-08-04T10:48:33.132Z</time>
      </trkpt>
      <trkpt lat="45.93512" lon="6.86529">
        <ele>1398</ele>
        <time>2026-08-04T10:48:34.132Z</time>
      </trkpt>
      <trkpt lat="45.93511" lon="6.86527">
        <ele>1398</ele>
        <time>2026-08-04T10:48:35.132Z</time>
      </trkpt>
      <trkpt lat="45.9351" lon="6.86524">
        <ele>1397</ele>
        <time>2026-08-04T10:48:36.132Z</time>
      </trkpt>
      <trkpt lat="45.9351" lon="6.86522">
        <ele>1397</ele>
        <time>2026-08-04T10:48:37.133Z</time>
      </trkpt>
      <trkpt lat="45.9351" lon="6.86521">
        <ele>1397</ele>
        <time>2026-08-04T10:48:38.132Z</time>
      </trkpt>
      <trkpt lat="45.93509" lon="6.8652">
        <ele>1396</ele>
        <time>2026-08-04T10:48:39.132Z</time>
      </trkpt>
      <trkpt lat="45.93509" lon="6.86519">
        <ele>1395</ele>
        <time>2026-08-04T10:48:40.132Z</time>
      </trkpt>
      <trkpt lat="45.93508" lon="6.86517">
        <ele>1395</ele>
        <time>2026-08-04T10:48:41.132Z</time>
      </trkpt>
      <trkpt lat="45.93507" lon="6.86516">
        <ele>1394</ele>
        <time>2026-08-04T10:48:42.132Z</time>
      </trkpt>
      <trkpt lat="45.93506" lon="6.86515">
        <ele>1393</ele>
        <time>2026-08-04T10:48:43.132Z</time>
      </trkpt>
      <trkpt lat="45.93506" lon="6.86514">
        <ele>1392</ele>
        <time>2026-08-04T10:48:44.132Z</time>
      </trkpt>
      <trkpt lat="45.93505" lon="6.86513">
        <ele>1391</ele>
        <time>2026-08-04T10:48:45.132Z</time>
      </trkpt>
      <trkpt lat="45.93504" lon="6.86511">
        <ele>1391</ele>
        <time>2026-08-04T10:48:46.132Z</time>
      </trkpt>
      <trkpt lat="45.93504" lon="6.86509">
        <ele>1391</ele>
        <time>2026-08-04T10:48:47.132Z</time>
      </trkpt>
      <trkpt lat="45.93503" lon="6.86506">
        <ele>1390</ele>
        <time>2026-08-04T10:48:48.132Z</time>
      </trkpt>
      <trkpt lat="45.93502" lon="6.86504">
        <ele>1390</ele>
        <time>2026-08-04T10:48:49.132Z</time>
      </trkpt>
      <trkpt lat="45.93501" lon="6.86502">
        <ele>1390</ele>
        <time>2026-08-04T10:48:50.132Z</time>
      </trkpt>
      <trkpt lat="45.935" lon="6.865">
        <ele>1390</ele>
        <time>2026-08-04T10:48:51.132Z</time>
      </trkpt>
      <trkpt lat="45.93499" lon="6.86498">
        <ele>1390</ele>
        <time>2026-08-04T10:48:52.132Z</time>
      </trkpt>
      <trkpt lat="45.93498" lon="6.86497">
        <ele>1390</ele>
        <time>2026-08-04T10:48:53.132Z</time>
      </trkpt>
      <trkpt lat="45.93497" lon="6.86495">
        <ele>1390</ele>
        <time>2026-08-04T10:48:54.132Z</time>
      </trkpt>
      <trkpt lat="45.93495" lon="6.86494">
        <ele>1389</ele>
        <time>2026-08-04T10:48:55.132Z</time>
      </trkpt>
      <trkpt lat="45.93494" lon="6.86493">
        <ele>1389</ele>
        <time>2026-08-04T10:48:56.132Z</time>
      </trkpt>
      <trkpt lat="45.93493" lon="6.86493">
        <ele>1389</ele>
        <time>2026-08-04T10:48:57.132Z</time>
      </trkpt>
      <trkpt lat="45.93492" lon="6.86492">
        <ele>1389</ele>
        <time>2026-08-04T10:48:58.132Z</time>
      </trkpt>
      <trkpt lat="45.93491" lon="6.86491">
        <ele>1389</ele>
        <time>2026-08-04T10:48:59.132Z</time>
      </trkpt>
      <trkpt lat="45.9349" lon="6.8649">
        <ele>1389</ele>
        <time>2026-08-04T10:49:00.132Z</time>
      </trkpt>
      <trkpt lat="45.93489" lon="6.86488">
        <ele>1389</ele>
        <time>2026-08-04T10:49:01.132Z</time>
      </trkpt>
      <trkpt lat="45.93488" lon="6.86487">
        <ele>1389</ele>
        <time>2026-08-04T10:49:02.132Z</time>
      </trkpt>
      <trkpt lat="45.93487" lon="6.86485">
        <ele>1389</ele>
        <time>2026-08-04T10:49:03.132Z</time>
      </trkpt>
      <trkpt lat="45.93486" lon="6.86483">
        <ele>1389</ele>
        <time>2026-08-04T10:49:04.132Z</time>
      </trkpt>
      <trkpt lat="45.93485" lon="6.8648">
        <ele>1389</ele>
        <time>2026-08-04T10:49:05.132Z</time>
      </trkpt>
      <trkpt lat="45.93485" lon="6.86477">
        <ele>1389</ele>
        <time>2026-08-04T10:49:06.132Z</time>
      </trkpt>
      <trkpt lat="45.93485" lon="6.86474">
        <ele>1389</ele>
        <time>2026-08-04T10:49:07.132Z</time>
      </trkpt>
      <trkpt lat="45.93484" lon="6.86471">
        <ele>1389</ele>
        <time>2026-08-04T10:49:08.132Z</time>
      </trkpt>
      <trkpt lat="45.93483" lon="6.86468">
        <ele>1389</ele>
        <time>2026-08-04T10:49:09.132Z</time>
      </trkpt>
      <trkpt lat="45.93483" lon="6.86465">
        <ele>1388</ele>
        <time>2026-08-04T10:49:10.132Z</time>
      </trkpt>
      <trkpt lat="45.93483" lon="6.86462">
        <ele>1388</ele>
        <time>2026-08-04T10:49:11.132Z</time>
      </trkpt>
      <trkpt lat="45.93482" lon="6.8646">
        <ele>1388</ele>
        <time>2026-08-04T10:49:12.132Z</time>
      </trkpt>
      <trkpt lat="45.93482" lon="6.86458">
        <ele>1388</ele>
        <time>2026-08-04T10:49:13.132Z</time>
      </trkpt>
      <trkpt lat="45.93482" lon="6.86457">
        <ele>1388</ele>
        <time>2026-08-04T10:49:14.132Z</time>
      </trkpt>
      <trkpt lat="45.93482" lon="6.86457">
        <ele>1387</ele>
        <time>2026-08-04T10:49:15.132Z</time>
      </trkpt>
      <trkpt lat="45.93482" lon="6.86455">
        <ele>1387</ele>
        <time>2026-08-04T10:49:16.132Z</time>
      </trkpt>
      <trkpt lat="45.93481" lon="6.86454">
        <ele>1386</ele>
        <time>2026-08-04T10:49:17.132Z</time>
      </trkpt>
      <trkpt lat="45.93481" lon="6.86453">
        <ele>1385</ele>
        <time>2026-08-04T10:49:18.132Z</time>
      </trkpt>
      <trkpt lat="45.93481" lon="6.86452">
        <ele>1385</ele>
        <time>2026-08-04T10:49:19.132Z</time>
      </trkpt>
      <trkpt lat="45.9348" lon="6.86452">
        <ele>1384</ele>
        <time>2026-08-04T10:49:20.132Z</time>
      </trkpt>
      <trkpt lat="45.93479" lon="6.86451">
        <ele>1383</ele>
        <time>2026-08-04T10:49:21.132Z</time>
      </trkpt>
      <trkpt lat="45.93478" lon="6.86449">
        <ele>1383</ele>
        <time>2026-08-04T10:49:22.132Z</time>
      </trkpt>
      <trkpt lat="45.93477" lon="6.86448">
        <ele>1382</ele>
        <time>2026-08-04T10:49:23.132Z</time>
      </trkpt>
      <trkpt lat="45.93476" lon="6.86446">
        <ele>1381</ele>
        <time>2026-08-04T10:49:24.132Z</time>
      </trkpt>
      <trkpt lat="45.93475" lon="6.86444">
        <ele>1381</ele>
        <time>2026-08-04T10:49:25.132Z</time>
      </trkpt>
      <trkpt lat="45.93474" lon="6.86441">
        <ele>1379</ele>
        <time>2026-08-04T10:49:26.132Z</time>
      </trkpt>
      <trkpt lat="45.93474" lon="6.86439">
        <ele>1378</ele>
        <time>2026-08-04T10:49:27.132Z</time>
      </trkpt>
      <trkpt lat="45.93473" lon="6.86436">
        <ele>1377</ele>
        <time>2026-08-04T10:49:28.132Z</time>
      </trkpt>
      <trkpt lat="45.93472" lon="6.86435">
        <ele>1376</ele>
        <time>2026-08-04T10:49:29.132Z</time>
      </trkpt>
      <trkpt lat="45.93471" lon="6.86433">
        <ele>1375</ele>
        <time>2026-08-04T10:49:30.132Z</time>
      </trkpt>
      <trkpt lat="45.93471" lon="6.86431">
        <ele>1374</ele>
        <time>2026-08-04T10:49:31.132Z</time>
      </trkpt>
      <trkpt lat="45.9347" lon="6.8643">
        <ele>1373</ele>
        <time>2026-08-04T10:49:32.132Z</time>
      </trkpt>
      <trkpt lat="45.9347" lon="6.86429">
        <ele>1372</ele>
        <time>2026-08-04T10:49:33.132Z</time>
      </trkpt>
      <trkpt lat="45.93469" lon="6.86428">
        <ele>1370</ele>
        <time>2026-08-04T10:49:34.132Z</time>
      </trkpt>
      <trkpt lat="45.93468" lon="6.86427">
        <ele>1370</ele>
        <time>2026-08-04T10:49:35.132Z</time>
      </trkpt>
      <trkpt lat="45.93467" lon="6.86426">
        <ele>1369</ele>
        <time>2026-08-04T10:49:36.132Z</time>
      </trkpt>
      <trkpt lat="45.93465" lon="6.86427">
        <ele>1368</ele>
        <time>2026-08-04T10:49:37.132Z</time>
      </trkpt>
      <trkpt lat="45.93464" lon="6.86427">
        <ele>1368</ele>
        <time>2026-08-04T10:49:38.132Z</time>
      </trkpt>
      <trkpt lat="45.93462" lon="6.86428">
        <ele>1368</ele>
        <time>2026-08-04T10:49:39.132Z</time>
      </trkpt>
      <trkpt lat="45.93461" lon="6.86428">
        <ele>1367</ele>
        <time>2026-08-04T10:49:40.132Z</time>
      </trkpt>
      <trkpt lat="45.9346" lon="6.86428">
        <ele>1367</ele>
        <time>2026-08-04T10:49:41.132Z</time>
      </trkpt>
      <trkpt lat="45.93459" lon="6.86429">
        <ele>1367</ele>
        <time>2026-08-04T10:49:42.132Z</time>
      </trkpt>
      <trkpt lat="45.93457" lon="6.86429">
        <ele>1367</ele>
        <time>2026-08-04T10:49:43.132Z</time>
      </trkpt>
      <trkpt lat="45.93455" lon="6.86431">
        <ele>1367</ele>
        <time>2026-08-04T10:49:44.132Z</time>
      </trkpt>
      <trkpt lat="45.93454" lon="6.86432">
        <ele>1367</ele>
        <time>2026-08-04T10:49:45.132Z</time>
      </trkpt>
      <trkpt lat="45.93453" lon="6.86433">
        <ele>1367</ele>
        <time>2026-08-04T10:49:46.132Z</time>
      </trkpt>
      <trkpt lat="45.93452" lon="6.86434">
        <ele>1366</ele>
        <time>2026-08-04T10:49:47.132Z</time>
      </trkpt>
      <trkpt lat="45.93451" lon="6.86436">
        <ele>1366</ele>
        <time>2026-08-04T10:49:48.132Z</time>
      </trkpt>
      <trkpt lat="45.93451" lon="6.86437">
        <ele>1366</ele>
        <time>2026-08-04T10:49:49.132Z</time>
      </trkpt>
      <trkpt lat="45.9345" lon="6.86438">
        <ele>1366</ele>
        <time>2026-08-04T10:49:50.132Z</time>
      </trkpt>
      <trkpt lat="45.93448" lon="6.86438">
        <ele>1366</ele>
        <time>2026-08-04T10:49:51.132Z</time>
      </trkpt>
      <trkpt lat="45.93447" lon="6.8644">
        <ele>1367</ele>
        <time>2026-08-04T10:49:52.132Z</time>
      </trkpt>
      <trkpt lat="45.93445" lon="6.86442">
        <ele>1367</ele>
        <time>2026-08-04T10:49:53.132Z</time>
      </trkpt>
      <trkpt lat="45.93443" lon="6.86443">
        <ele>1367</ele>
        <time>2026-08-04T10:49:54.132Z</time>
      </trkpt>
      <trkpt lat="45.93442" lon="6.86445">
        <ele>1367</ele>
        <time>2026-08-04T10:49:55.132Z</time>
      </trkpt>
      <trkpt lat="45.9344" lon="6.86447">
        <ele>1367</ele>
        <time>2026-08-04T10:49:56.132Z</time>
      </trkpt>
      <trkpt lat="45.93438" lon="6.86449">
        <ele>1367</ele>
        <time>2026-08-04T10:49:57.132Z</time>
      </trkpt>
      <trkpt lat="45.93437" lon="6.86449">
        <ele>1366</ele>
        <time>2026-08-04T10:49:58.132Z</time>
      </trkpt>
      <trkpt lat="45.93435" lon="6.8645">
        <ele>1366</ele>
        <time>2026-08-04T10:49:59.132Z</time>
      </trkpt>
      <trkpt lat="45.93434" lon="6.86451">
        <ele>1366</ele>
        <time>2026-08-04T10:50:00.132Z</time>
      </trkpt>
      <trkpt lat="45.93433" lon="6.86451">
        <ele>1366</ele>
        <time>2026-08-04T10:50:01.132Z</time>
      </trkpt>
      <trkpt lat="45.93431" lon="6.86452">
        <ele>1366</ele>
        <time>2026-08-04T10:50:02.132Z</time>
      </trkpt>
      <trkpt lat="45.9343" lon="6.86453">
        <ele>1366</ele>
        <time>2026-08-04T10:50:03.132Z</time>
      </trkpt>
      <trkpt lat="45.93428" lon="6.86454">
        <ele>1365</ele>
        <time>2026-08-04T10:50:04.132Z</time>
      </trkpt>
      <trkpt lat="45.93426" lon="6.86455">
        <ele>1365</ele>
        <time>2026-08-04T10:50:05.132Z</time>
      </trkpt>
      <trkpt lat="45.93425" lon="6.86456">
        <ele>1364</ele>
        <time>2026-08-04T10:50:06.132Z</time>
      </trkpt>
      <trkpt lat="45.93423" lon="6.86457">
        <ele>1364</ele>
        <time>2026-08-04T10:50:07.132Z</time>
      </trkpt>
      <trkpt lat="45.93421" lon="6.86458">
        <ele>1363</ele>
        <time>2026-08-04T10:50:08.132Z</time>
      </trkpt>
      <trkpt lat="45.93419" lon="6.86459">
        <ele>1363</ele>
        <time>2026-08-04T10:50:09.132Z</time>
      </trkpt>
      <trkpt lat="45.93417" lon="6.86461">
        <ele>1362</ele>
        <time>2026-08-04T10:50:10.132Z</time>
      </trkpt>
      <trkpt lat="45.93415" lon="6.86462">
        <ele>1362</ele>
        <time>2026-08-04T10:50:11.132Z</time>
      </trkpt>
      <trkpt lat="45.93413" lon="6.86464">
        <ele>1361</ele>
        <time>2026-08-04T10:50:12.132Z</time>
      </trkpt>
      <trkpt lat="45.93411" lon="6.86466">
        <ele>1361</ele>
        <time>2026-08-04T10:50:13.132Z</time>
      </trkpt>
      <trkpt lat="45.93409" lon="6.86468">
        <ele>1360</ele>
        <time>2026-08-04T10:50:14.132Z</time>
      </trkpt>
      <trkpt lat="45.93407" lon="6.8647">
        <ele>1360</ele>
        <time>2026-08-04T10:50:15.132Z</time>
      </trkpt>
      <trkpt lat="45.93406" lon="6.86472">
        <ele>1360</ele>
        <time>2026-08-04T10:50:16.132Z</time>
      </trkpt>
      <trkpt lat="45.93404" lon="6.86474">
        <ele>1360</ele>
        <time>2026-08-04T10:50:17.132Z</time>
      </trkpt>
      <trkpt lat="45.93403" lon="6.86474">
        <ele>1360</ele>
        <time>2026-08-04T10:50:18.132Z</time>
      </trkpt>
      <trkpt lat="45.93402" lon="6.86475">
        <ele>1359</ele>
        <time>2026-08-04T10:50:19.132Z</time>
      </trkpt>
      <trkpt lat="45.934" lon="6.86476">
        <ele>1359</ele>
        <time>2026-08-04T10:50:20.132Z</time>
      </trkpt>
      <trkpt lat="45.93399" lon="6.86477">
        <ele>1358</ele>
        <time>2026-08-04T10:50:21.132Z</time>
      </trkpt>
      <trkpt lat="45.93398" lon="6.86478">
        <ele>1358</ele>
        <time>2026-08-04T10:50:22.132Z</time>
      </trkpt>
      <trkpt lat="45.93396" lon="6.86479">
        <ele>1357</ele>
        <time>2026-08-04T10:50:23.132Z</time>
      </trkpt>
      <trkpt lat="45.93394" lon="6.86481">
        <ele>1357</ele>
        <time>2026-08-04T10:50:24.132Z</time>
      </trkpt>
      <trkpt lat="45.93393" lon="6.86482">
        <ele>1356</ele>
        <time>2026-08-04T10:50:25.132Z</time>
      </trkpt>
      <trkpt lat="45.93392" lon="6.86483">
        <ele>1356</ele>
        <time>2026-08-04T10:50:26.132Z</time>
      </trkpt>
      <trkpt lat="45.9339" lon="6.86484">
        <ele>1355</ele>
        <time>2026-08-04T10:50:27.132Z</time>
      </trkpt>
      <trkpt lat="45.93389" lon="6.86485">
        <ele>1355</ele>
        <time>2026-08-04T10:50:28.132Z</time>
      </trkpt>
      <trkpt lat="45.93387" lon="6.86486">
        <ele>1354</ele>
        <time>2026-08-04T10:50:29.132Z</time>
      </trkpt>
      <trkpt lat="45.93386" lon="6.86488">
        <ele>1354</ele>
        <time>2026-08-04T10:50:30.132Z</time>
      </trkpt>
      <trkpt lat="45.93384" lon="6.8649">
        <ele>1353</ele>
        <time>2026-08-04T10:50:31.132Z</time>
      </trkpt>
      <trkpt lat="45.93383" lon="6.86492">
        <ele>1353</ele>
        <time>2026-08-04T10:50:32.132Z</time>
      </trkpt>
      <trkpt lat="45.93381" lon="6.86494">
        <ele>1352</ele>
        <time>2026-08-04T10:50:33.132Z</time>
      </trkpt>
      <trkpt lat="45.93379" lon="6.86496">
        <ele>1352</ele>
        <time>2026-08-04T10:50:34.132Z</time>
      </trkpt>
      <trkpt lat="45.93377" lon="6.86497">
        <ele>1351</ele>
        <time>2026-08-04T10:50:35.132Z</time>
      </trkpt>
      <trkpt lat="45.93376" lon="6.86499">
        <ele>1351</ele>
        <time>2026-08-04T10:50:36.132Z</time>
      </trkpt>
      <trkpt lat="45.93374" lon="6.865">
        <ele>1350</ele>
        <time>2026-08-04T10:50:37.132Z</time>
      </trkpt>
      <trkpt lat="45.93373" lon="6.86501">
        <ele>1350</ele>
        <time>2026-08-04T10:50:38.132Z</time>
      </trkpt>
      <trkpt lat="45.93372" lon="6.86502">
        <ele>1349</ele>
        <time>2026-08-04T10:50:39.132Z</time>
      </trkpt>
      <trkpt lat="45.93371" lon="6.86502">
        <ele>1349</ele>
        <time>2026-08-04T10:50:40.132Z</time>
      </trkpt>
      <trkpt lat="45.93371" lon="6.86501">
        <ele>1348</ele>
        <time>2026-08-04T10:50:41.132Z</time>
      </trkpt>
      <trkpt lat="45.9337" lon="6.865">
        <ele>1348</ele>
        <time>2026-08-04T10:50:42.132Z</time>
      </trkpt>
      <trkpt lat="45.9337" lon="6.86499">
        <ele>1348</ele>
        <time>2026-08-04T10:50:43.132Z</time>
      </trkpt>
      <trkpt lat="45.93371" lon="6.86499">
        <ele>1348</ele>
        <time>2026-08-04T10:50:44.132Z</time>
      </trkpt>
      <trkpt lat="45.93371" lon="6.86499">
        <ele>1347</ele>
        <time>2026-08-04T10:50:45.132Z</time>
      </trkpt>
      <trkpt lat="45.93371" lon="6.86499">
        <ele>1347</ele>
        <time>2026-08-04T10:50:46.132Z</time>
      </trkpt>
      <trkpt lat="45.93371" lon="6.86499">
        <ele>1347</ele>
        <time>2026-08-04T10:50:47.132Z</time>
      </trkpt>
      <trkpt lat="45.93371" lon="6.86499">
        <ele>1347</ele>
        <time>2026-08-04T10:50:48.132Z</time>
      </trkpt>
      <trkpt lat="45.93371" lon="6.86499">
        <ele>1347</ele>
        <time>2026-08-04T10:50:49.132Z</time>
      </trkpt>
      <trkpt lat="45.93371" lon="6.86499">
        <ele>1348</ele>
        <time>2026-08-04T10:50:50.132Z</time>
      </trkpt>
      <trkpt lat="45.93371" lon="6.865">
        <ele>1348</ele>
        <time>2026-08-04T10:50:51.132Z</time>
      </trkpt>
      <trkpt lat="45.93371" lon="6.865">
        <ele>1348</ele>
        <time>2026-08-04T10:50:52.132Z</time>
      </trkpt>
      <trkpt lat="45.9337" lon="6.86501">
        <ele>1347</ele>
        <time>2026-08-04T10:50:53.132Z</time>
      </trkpt>
      <trkpt lat="45.93369" lon="6.86502">
        <ele>1347</ele>
        <time>2026-08-04T10:50:54.132Z</time>
      </trkpt>
      <trkpt lat="45.93368" lon="6.86503">
        <ele>1347</ele>
        <time>2026-08-04T10:50:55.132Z</time>
      </trkpt>
      <trkpt lat="45.93367" lon="6.86504">
        <ele>1347</ele>
        <time>2026-08-04T10:50:56.132Z</time>
      </trkpt>
      <trkpt lat="45.93366" lon="6.86504">
        <ele>1347</ele>
        <time>2026-08-04T10:50:57.132Z</time>
      </trkpt>
      <trkpt lat="45.93365" lon="6.86504">
        <ele>1347</ele>
        <time>2026-08-04T10:50:58.132Z</time>
      </trkpt>
      <trkpt lat="45.93364" lon="6.86506">
        <ele>1347</ele>
        <time>2026-08-04T10:50:59.132Z</time>
      </trkpt>
      <trkpt lat="45.93363" lon="6.86507">
        <ele>1347</ele>
        <time>2026-08-04T10:51:00.132Z</time>
      </trkpt>
      <trkpt lat="45.93361" lon="6.86509">
        <ele>1347</ele>
        <time>2026-08-04T10:51:01.132Z</time>
      </trkpt>
      <trkpt lat="45.9336" lon="6.8651">
        <ele>1346</ele>
        <time>2026-08-04T10:51:02.132Z</time>
      </trkpt>
      <trkpt lat="45.93359" lon="6.86511">
        <ele>1345</ele>
        <time>2026-08-04T10:51:03.132Z</time>
      </trkpt>
      <trkpt lat="45.93358" lon="6.86512">
        <ele>1345</ele>
        <time>2026-08-04T10:51:04.132Z</time>
      </trkpt>
      <trkpt lat="45.93357" lon="6.86514">
        <ele>1344</ele>
        <time>2026-08-04T10:51:05.132Z</time>
      </trkpt>
      <trkpt lat="45.93356" lon="6.86515">
        <ele>1343</ele>
        <time>2026-08-04T10:51:06.132Z</time>
      </trkpt>
      <trkpt lat="45.93355" lon="6.86516">
        <ele>1343</ele>
        <time>2026-08-04T10:51:07.132Z</time>
      </trkpt>
      <trkpt lat="45.93354" lon="6.86518">
        <ele>1342</ele>
        <time>2026-08-04T10:51:08.132Z</time>
      </trkpt>
      <trkpt lat="45.93353" lon="6.86519">
        <ele>1342</ele>
        <time>2026-08-04T10:51:09.132Z</time>
      </trkpt>
      <trkpt lat="45.93351" lon="6.86521">
        <ele>1342</ele>
        <time>2026-08-04T10:51:10.132Z</time>
      </trkpt>
      <trkpt lat="45.9335" lon="6.86523">
        <ele>1341</ele>
        <time>2026-08-04T10:51:11.132Z</time>
      </trkpt>
      <trkpt lat="45.93349" lon="6.86524">
        <ele>1341</ele>
        <time>2026-08-04T10:51:12.132Z</time>
      </trkpt>
      <trkpt lat="45.93347" lon="6.86526">
        <ele>1341</ele>
        <time>2026-08-04T10:51:13.132Z</time>
      </trkpt>
      <trkpt lat="45.93346" lon="6.86527">
        <ele>1341</ele>
        <time>2026-08-04T10:51:14.132Z</time>
      </trkpt>
      <trkpt lat="45.93345" lon="6.86528">
        <ele>1341</ele>
        <time>2026-08-04T10:51:15.132Z</time>
      </trkpt>
      <trkpt lat="45.93343" lon="6.86529">
        <ele>1341</ele>
        <time>2026-08-04T10:51:16.132Z</time>
      </trkpt>
      <trkpt lat="45.93343" lon="6.8653">
        <ele>1341</ele>
        <time>2026-08-04T10:51:17.132Z</time>
      </trkpt>
      <trkpt lat="45.93342" lon="6.86531">
        <ele>1342</ele>
        <time>2026-08-04T10:51:18.132Z</time>
      </trkpt>
      <trkpt lat="45.93342" lon="6.86533">
        <ele>1342</ele>
        <time>2026-08-04T10:51:19.132Z</time>
      </trkpt>
      <trkpt lat="45.93341" lon="6.86534">
        <ele>1342</ele>
        <time>2026-08-04T10:51:20.132Z</time>
      </trkpt>
      <trkpt lat="45.93341" lon="6.86536">
        <ele>1343</ele>
        <time>2026-08-04T10:51:21.132Z</time>
      </trkpt>
      <trkpt lat="45.9334" lon="6.86537">
        <ele>1343</ele>
        <time>2026-08-04T10:51:22.132Z</time>
      </trkpt>
      <trkpt lat="45.93338" lon="6.86538">
        <ele>1343</ele>
        <time>2026-08-04T10:51:23.132Z</time>
      </trkpt>
      <trkpt lat="45.93336" lon="6.86539">
        <ele>1343</ele>
        <time>2026-08-04T10:51:24.132Z</time>
      </trkpt>
      <trkpt lat="45.93334" lon="6.8654">
        <ele>1342</ele>
        <time>2026-08-04T10:51:25.132Z</time>
      </trkpt>
      <trkpt lat="45.93332" lon="6.86541">
        <ele>1342</ele>
        <time>2026-08-04T10:51:26.132Z</time>
      </trkpt>
      <trkpt lat="45.9333" lon="6.86542">
        <ele>1342</ele>
        <time>2026-08-04T10:51:27.132Z</time>
      </trkpt>
      <trkpt lat="45.93329" lon="6.86544">
        <ele>1342</ele>
        <time>2026-08-04T10:51:28.132Z</time>
      </trkpt>
      <trkpt lat="45.93328" lon="6.86544">
        <ele>1342</ele>
        <time>2026-08-04T10:51:29.132Z</time>
      </trkpt>
      <trkpt lat="45.93327" lon="6.86545">
        <ele>1341</ele>
        <time>2026-08-04T10:51:30.132Z</time>
      </trkpt>
      <trkpt lat="45.93326" lon="6.86546">
        <ele>1341</ele>
        <time>2026-08-04T10:51:31.132Z</time>
      </trkpt>
      <trkpt lat="45.93325" lon="6.86547">
        <ele>1341</ele>
        <time>2026-08-04T10:51:32.132Z</time>
      </trkpt>
      <trkpt lat="45.93325" lon="6.86549">
        <ele>1340</ele>
        <time>2026-08-04T10:51:33.132Z</time>
      </trkpt>
      <trkpt lat="45.93323" lon="6.86551">
        <ele>1340</ele>
        <time>2026-08-04T10:51:34.132Z</time>
      </trkpt>
      <trkpt lat="45.93321" lon="6.86553">
        <ele>1339</ele>
        <time>2026-08-04T10:51:35.132Z</time>
      </trkpt>
      <trkpt lat="45.9332" lon="6.86555">
        <ele>1339</ele>
        <time>2026-08-04T10:51:36.132Z</time>
      </trkpt>
      <trkpt lat="45.93318" lon="6.86556">
        <ele>1338</ele>
        <time>2026-08-04T10:51:37.132Z</time>
      </trkpt>
      <trkpt lat="45.93317" lon="6.86558">
        <ele>1338</ele>
        <time>2026-08-04T10:51:38.132Z</time>
      </trkpt>
      <trkpt lat="45.93315" lon="6.86558">
        <ele>1337</ele>
        <time>2026-08-04T10:51:39.132Z</time>
      </trkpt>
      <trkpt lat="45.93314" lon="6.86559">
        <ele>1337</ele>
        <time>2026-08-04T10:51:40.132Z</time>
      </trkpt>
      <trkpt lat="45.93312" lon="6.86559">
        <ele>1336</ele>
        <time>2026-08-04T10:51:41.132Z</time>
      </trkpt>
      <trkpt lat="45.93311" lon="6.86559">
        <ele>1335</ele>
        <time>2026-08-04T10:51:42.132Z</time>
      </trkpt>
      <trkpt lat="45.9331" lon="6.86559">
        <ele>1334</ele>
        <time>2026-08-04T10:51:43.132Z</time>
      </trkpt>
      <trkpt lat="45.93308" lon="6.86559">
        <ele>1334</ele>
        <time>2026-08-04T10:51:44.132Z</time>
      </trkpt>
      <trkpt lat="45.93306" lon="6.86558">
        <ele>1334</ele>
        <time>2026-08-04T10:51:45.132Z</time>
      </trkpt>
      <trkpt lat="45.93304" lon="6.86558">
        <ele>1333</ele>
        <time>2026-08-04T10:51:46.132Z</time>
      </trkpt>
      <trkpt lat="45.93302" lon="6.86557">
        <ele>1333</ele>
        <time>2026-08-04T10:51:47.132Z</time>
      </trkpt>
      <trkpt lat="45.93301" lon="6.86556">
        <ele>1332</ele>
        <time>2026-08-04T10:51:48.132Z</time>
      </trkpt>
      <trkpt lat="45.93299" lon="6.86556">
        <ele>1332</ele>
        <time>2026-08-04T10:51:49.132Z</time>
      </trkpt>
      <trkpt lat="45.93298" lon="6.86555">
        <ele>1331</ele>
        <time>2026-08-04T10:51:50.132Z</time>
      </trkpt>
      <trkpt lat="45.93296" lon="6.86555">
        <ele>1331</ele>
        <time>2026-08-04T10:51:51.132Z</time>
      </trkpt>
      <trkpt lat="45.93294" lon="6.86555">
        <ele>1331</ele>
        <time>2026-08-04T10:51:52.132Z</time>
      </trkpt>
      <trkpt lat="45.93292" lon="6.86554">
        <ele>1331</ele>
        <time>2026-08-04T10:51:53.132Z</time>
      </trkpt>
      <trkpt lat="45.9329" lon="6.86554">
        <ele>1330</ele>
        <time>2026-08-04T10:51:54.132Z</time>
      </trkpt>
      <trkpt lat="45.93289" lon="6.86554">
        <ele>1330</ele>
        <time>2026-08-04T10:51:55.132Z</time>
      </trkpt>
      <trkpt lat="45.93288" lon="6.86554">
        <ele>1330</ele>
        <time>2026-08-04T10:51:56.132Z</time>
      </trkpt>
      <trkpt lat="45.93287" lon="6.86555">
        <ele>1330</ele>
        <time>2026-08-04T10:51:57.132Z</time>
      </trkpt>
      <trkpt lat="45.93286" lon="6.86556">
        <ele>1329</ele>
        <time>2026-08-04T10:51:58.132Z</time>
      </trkpt>
      <trkpt lat="45.93284" lon="6.86557">
        <ele>1329</ele>
        <time>2026-08-04T10:51:59.132Z</time>
      </trkpt>
      <trkpt lat="45.93283" lon="6.86558">
        <ele>1328</ele>
        <time>2026-08-04T10:52:00.132Z</time>
      </trkpt>
      <trkpt lat="45.93281" lon="6.86557">
        <ele>1327</ele>
        <time>2026-08-04T10:52:01.132Z</time>
      </trkpt>
      <trkpt lat="45.93279" lon="6.86557">
        <ele>1327</ele>
        <time>2026-08-04T10:52:02.132Z</time>
      </trkpt>
      <trkpt lat="45.93278" lon="6.86556">
        <ele>1326</ele>
        <time>2026-08-04T10:52:03.132Z</time>
      </trkpt>
      <trkpt lat="45.93276" lon="6.86555">
        <ele>1325</ele>
        <time>2026-08-04T10:52:04.132Z</time>
      </trkpt>
      <trkpt lat="45.93275" lon="6.86553">
        <ele>1325</ele>
        <time>2026-08-04T10:52:05.132Z</time>
      </trkpt>
      <trkpt lat="45.93273" lon="6.86552">
        <ele>1325</ele>
        <time>2026-08-04T10:52:06.132Z</time>
      </trkpt>
      <trkpt lat="45.93272" lon="6.8655">
        <ele>1324</ele>
        <time>2026-08-04T10:52:07.132Z</time>
      </trkpt>
      <trkpt lat="45.9327" lon="6.86548">
        <ele>1323</ele>
        <time>2026-08-04T10:52:08.132Z</time>
      </trkpt>
      <trkpt lat="45.93269" lon="6.86547">
        <ele>1323</ele>
        <time>2026-08-04T10:52:09.132Z</time>
      </trkpt>
      <trkpt lat="45.93267" lon="6.86546">
        <ele>1322</ele>
        <time>2026-08-04T10:52:10.132Z</time>
      </trkpt>
      <trkpt lat="45.93264" lon="6.86545">
        <ele>1321</ele>
        <time>2026-08-04T10:52:11.132Z</time>
      </trkpt>
      <trkpt lat="45.93263" lon="6.86544">
        <ele>1321</ele>
        <time>2026-08-04T10:52:12.132Z</time>
      </trkpt>
      <trkpt lat="45.93262" lon="6.86544">
        <ele>1321</ele>
        <time>2026-08-04T10:52:13.132Z</time>
      </trkpt>
      <trkpt lat="45.93261" lon="6.86544">
        <ele>1321</ele>
        <time>2026-08-04T10:52:14.132Z</time>
      </trkpt>
      <trkpt lat="45.9326" lon="6.86544">
        <ele>1320</ele>
        <time>2026-08-04T10:52:15.132Z</time>
      </trkpt>
      <trkpt lat="45.93258" lon="6.86543">
        <ele>1320</ele>
        <time>2026-08-04T10:52:16.132Z</time>
      </trkpt>
      <trkpt lat="45.93257" lon="6.86544">
        <ele>1320</ele>
        <time>2026-08-04T10:52:17.132Z</time>
      </trkpt>
      <trkpt lat="45.93256" lon="6.86544">
        <ele>1320</ele>
        <time>2026-08-04T10:52:18.132Z</time>
      </trkpt>
      <trkpt lat="45.93255" lon="6.86544">
        <ele>1320</ele>
        <time>2026-08-04T10:52:19.132Z</time>
      </trkpt>
      <trkpt lat="45.93253" lon="6.86546">
        <ele>1320</ele>
        <time>2026-08-04T10:52:20.132Z</time>
      </trkpt>
      <trkpt lat="45.9325" lon="6.86547">
        <ele>1320</ele>
        <time>2026-08-04T10:52:21.132Z</time>
      </trkpt>
      <trkpt lat="45.93247" lon="6.86548">
        <ele>1321</ele>
        <time>2026-08-04T10:52:22.132Z</time>
      </trkpt>
      <trkpt lat="45.93245" lon="6.86549">
        <ele>1321</ele>
        <time>2026-08-04T10:52:23.132Z</time>
      </trkpt>
      <trkpt lat="45.93244" lon="6.8655">
        <ele>1321</ele>
        <time>2026-08-04T10:52:24.132Z</time>
      </trkpt>
      <trkpt lat="45.93243" lon="6.8655">
        <ele>1322</ele>
        <time>2026-08-04T10:52:25.132Z</time>
      </trkpt>
      <trkpt lat="45.93243" lon="6.86549">
        <ele>1322</ele>
        <time>2026-08-04T10:52:26.132Z</time>
      </trkpt>
      <trkpt lat="45.93242" lon="6.86548">
        <ele>1321</ele>
        <time>2026-08-04T10:52:27.132Z</time>
      </trkpt>
      <trkpt lat="45.93241" lon="6.86548">
        <ele>1321</ele>
        <time>2026-08-04T10:52:28.132Z</time>
      </trkpt>
      <trkpt lat="45.93239" lon="6.86547">
        <ele>1321</ele>
        <time>2026-08-04T10:52:29.132Z</time>
      </trkpt>
      <trkpt lat="45.93237" lon="6.86547">
        <ele>1320</ele>
        <time>2026-08-04T10:52:30.132Z</time>
      </trkpt>
      <trkpt lat="45.93235" lon="6.86546">
        <ele>1320</ele>
        <time>2026-08-04T10:52:31.132Z</time>
      </trkpt>
      <trkpt lat="45.93233" lon="6.86544">
        <ele>1319</ele>
        <time>2026-08-04T10:52:32.132Z</time>
      </trkpt>
      <trkpt lat="45.93232" lon="6.86543">
        <ele>1319</ele>
        <time>2026-08-04T10:52:33.132Z</time>
      </trkpt>
      <trkpt lat="45.9323" lon="6.86542">
        <ele>1318</ele>
        <time>2026-08-04T10:52:34.132Z</time>
      </trkpt>
      <trkpt lat="45.93229" lon="6.86541">
        <ele>1318</ele>
        <time>2026-08-04T10:52:35.132Z</time>
      </trkpt>
      <trkpt lat="45.93227" lon="6.8654">
        <ele>1318</ele>
        <time>2026-08-04T10:52:36.132Z</time>
      </trkpt>
      <trkpt lat="45.93226" lon="6.8654">
        <ele>1317</ele>
        <time>2026-08-04T10:52:37.132Z</time>
      </trkpt>
      <trkpt lat="45.93225" lon="6.8654">
        <ele>1317</ele>
        <time>2026-08-04T10:52:38.132Z</time>
      </trkpt>
      <trkpt lat="45.93223" lon="6.86539">
        <ele>1317</ele>
        <time>2026-08-04T10:52:39.132Z</time>
      </trkpt>
      <trkpt lat="45.93222" lon="6.86539">
        <ele>1316</ele>
        <time>2026-08-04T10:52:40.132Z</time>
      </trkpt>
      <trkpt lat="45.93219" lon="6.86538">
        <ele>1316</ele>
        <time>2026-08-04T10:52:41.132Z</time>
      </trkpt>
      <trkpt lat="45.93218" lon="6.86537">
        <ele>1316</ele>
        <time>2026-08-04T10:52:42.132Z</time>
      </trkpt>
      <trkpt lat="45.93217" lon="6.86537">
        <ele>1315</ele>
        <time>2026-08-04T10:52:43.132Z</time>
      </trkpt>
      <trkpt lat="45.93217" lon="6.86535">
        <ele>1315</ele>
        <time>2026-08-04T10:52:44.132Z</time>
      </trkpt>
      <trkpt lat="45.93215" lon="6.86534">
        <ele>1314</ele>
        <time>2026-08-04T10:52:45.132Z</time>
      </trkpt>
      <trkpt lat="45.93213" lon="6.86534">
        <ele>1314</ele>
        <time>2026-08-04T10:52:46.132Z</time>
      </trkpt>
      <trkpt lat="45.93211" lon="6.86534">
        <ele>1313</ele>
        <time>2026-08-04T10:52:47.132Z</time>
      </trkpt>
      <trkpt lat="45.93208" lon="6.86533">
        <ele>1313</ele>
        <time>2026-08-04T10:52:48.132Z</time>
      </trkpt>
      <trkpt lat="45.93207" lon="6.86532">
        <ele>1312</ele>
        <time>2026-08-04T10:52:49.132Z</time>
      </trkpt>
      <trkpt lat="45.93205" lon="6.86531">
        <ele>1311</ele>
        <time>2026-08-04T10:52:50.132Z</time>
      </trkpt>
      <trkpt lat="45.93204" lon="6.86529">
        <ele>1311</ele>
        <time>2026-08-04T10:52:51.132Z</time>
      </trkpt>
      <trkpt lat="45.93202" lon="6.86529">
        <ele>1310</ele>
        <time>2026-08-04T10:52:52.132Z</time>
      </trkpt>
      <trkpt lat="45.93201" lon="6.86532">
        <ele>1310</ele>
        <time>2026-08-04T10:52:53.132Z</time>
      </trkpt>
      <trkpt lat="45.93199" lon="6.86534">
        <ele>1310</ele>
        <time>2026-08-04T10:52:54.132Z</time>
      </trkpt>
      <trkpt lat="45.93198" lon="6.86534">
        <ele>1310</ele>
        <time>2026-08-04T10:52:55.132Z</time>
      </trkpt>
      <trkpt lat="45.93196" lon="6.86535">
        <ele>1309</ele>
        <time>2026-08-04T10:52:56.132Z</time>
      </trkpt>
      <trkpt lat="45.93196" lon="6.86535">
        <ele>1309</ele>
        <time>2026-08-04T10:52:57.132Z</time>
      </trkpt>
      <trkpt lat="45.93196" lon="6.86535">
        <ele>1309</ele>
        <time>2026-08-04T10:52:58.132Z</time>
      </trkpt>
      <trkpt lat="45.93196" lon="6.86535">
        <ele>1309</ele>
        <time>2026-08-04T10:52:59.132Z</time>
      </trkpt>
      <trkpt lat="45.93195" lon="6.86535">
        <ele>1310</ele>
        <time>2026-08-04T10:53:00.132Z</time>
      </trkpt>
      <trkpt lat="45.93193" lon="6.86535">
        <ele>1310</ele>
        <time>2026-08-04T10:53:01.132Z</time>
      </trkpt>
      <trkpt lat="45.93192" lon="6.86535">
        <ele>1310</ele>
        <time>2026-08-04T10:53:02.132Z</time>
      </trkpt>
      <trkpt lat="45.9319" lon="6.86535">
        <ele>1310</ele>
        <time>2026-08-04T10:53:03.132Z</time>
      </trkpt>
      <trkpt lat="45.93188" lon="6.86534">
        <ele>1310</ele>
        <time>2026-08-04T10:53:04.132Z</time>
      </trkpt>
      <trkpt lat="45.93186" lon="6.86532">
        <ele>1310</ele>
        <time>2026-08-04T10:53:05.132Z</time>
      </trkpt>
      <trkpt lat="45.93184" lon="6.86531">
        <ele>1310</ele>
        <time>2026-08-04T10:53:06.132Z</time>
      </trkpt>
      <trkpt lat="45.93182" lon="6.86531">
        <ele>1310</ele>
        <time>2026-08-04T10:53:07.132Z</time>
      </trkpt>
      <trkpt lat="45.93179" lon="6.86531">
        <ele>1309</ele>
        <time>2026-08-04T10:53:08.132Z</time>
      </trkpt>
      <trkpt lat="45.93178" lon="6.86529">
        <ele>1309</ele>
        <time>2026-08-04T10:53:09.132Z</time>
      </trkpt>
      <trkpt lat="45.93176" lon="6.86528">
        <ele>1308</ele>
        <time>2026-08-04T10:53:10.132Z</time>
      </trkpt>
      <trkpt lat="45.93175" lon="6.86528">
        <ele>1307</ele>
        <time>2026-08-04T10:53:11.132Z</time>
      </trkpt>
      <trkpt lat="45.93173" lon="6.86527">
        <ele>1307</ele>
        <time>2026-08-04T10:53:12.132Z</time>
      </trkpt>
      <trkpt lat="45.93172" lon="6.86527">
        <ele>1306</ele>
        <time>2026-08-04T10:53:13.132Z</time>
      </trkpt>
      <trkpt lat="45.9317" lon="6.86527">
        <ele>1306</ele>
        <time>2026-08-04T10:53:14.132Z</time>
      </trkpt>
      <trkpt lat="45.93169" lon="6.86527">
        <ele>1305</ele>
        <time>2026-08-04T10:53:15.132Z</time>
      </trkpt>
      <trkpt lat="45.93168" lon="6.86526">
        <ele>1305</ele>
        <time>2026-08-04T10:53:16.132Z</time>
      </trkpt>
      <trkpt lat="45.93166" lon="6.86526">
        <ele>1304</ele>
        <time>2026-08-04T10:53:17.132Z</time>
      </trkpt>
      <trkpt lat="45.93165" lon="6.86526">
        <ele>1303</ele>
        <time>2026-08-04T10:53:18.132Z</time>
      </trkpt>
      <trkpt lat="45.93163" lon="6.86526">
        <ele>1303</ele>
        <time>2026-08-04T10:53:19.132Z</time>
      </trkpt>
      <trkpt lat="45.93162" lon="6.86527">
        <ele>1302</ele>
        <time>2026-08-04T10:53:20.132Z</time>
      </trkpt>
      <trkpt lat="45.93161" lon="6.86526">
        <ele>1302</ele>
        <time>2026-08-04T10:53:21.132Z</time>
      </trkpt>
      <trkpt lat="45.9316" lon="6.86526">
        <ele>1302</ele>
        <time>2026-08-04T10:53:22.132Z</time>
      </trkpt>
      <trkpt lat="45.93159" lon="6.86526">
        <ele>1301</ele>
        <time>2026-08-04T10:53:23.132Z</time>
      </trkpt>
      <trkpt lat="45.93159" lon="6.86526">
        <ele>1301</ele>
        <time>2026-08-04T10:53:24.132Z</time>
      </trkpt>
      <trkpt lat="45.93158" lon="6.86526">
        <ele>1301</ele>
        <time>2026-08-04T10:53:25.132Z</time>
      </trkpt>
      <trkpt lat="45.93156" lon="6.86526">
        <ele>1301</ele>
        <time>2026-08-04T10:53:26.132Z</time>
      </trkpt>
      <trkpt lat="45.93155" lon="6.86526">
        <ele>1300</ele>
        <time>2026-08-04T10:53:27.132Z</time>
      </trkpt>
      <trkpt lat="45.93154" lon="6.86525">
        <ele>1300</ele>
        <time>2026-08-04T10:53:28.132Z</time>
      </trkpt>
      <trkpt lat="45.93154" lon="6.86525">
        <ele>1299</ele>
        <time>2026-08-04T10:53:29.132Z</time>
      </trkpt>
      <trkpt lat="45.93154" lon="6.86525">
        <ele>1299</ele>
        <time>2026-08-04T10:53:30.132Z</time>
      </trkpt>
      <trkpt lat="45.93154" lon="6.86525">
        <ele>1299</ele>
        <time>2026-08-04T10:53:31.132Z</time>
      </trkpt>
      <trkpt lat="45.93153" lon="6.86524">
        <ele>1298</ele>
        <time>2026-08-04T10:53:32.132Z</time>
      </trkpt>
      <trkpt lat="45.93153" lon="6.86525">
        <ele>1298</ele>
        <time>2026-08-04T10:53:33.132Z</time>
      </trkpt>
      <trkpt lat="45.93153" lon="6.86525">
        <ele>1298</ele>
        <time>2026-08-04T10:53:34.132Z</time>
      </trkpt>
      <trkpt lat="45.93153" lon="6.86525">
        <ele>1298</ele>
        <time>2026-08-04T10:53:35.132Z</time>
      </trkpt>
      <trkpt lat="45.93153" lon="6.86525">
        <ele>1299</ele>
        <time>2026-08-04T10:53:36.132Z</time>
      </trkpt>
      <trkpt lat="45.93153" lon="6.86525">
        <ele>1299</ele>
        <time>2026-08-04T10:53:37.132Z</time>
      </trkpt>
      <trkpt lat="45.93153" lon="6.86525">
        <ele>1299</ele>
        <time>2026-08-04T10:53:38.132Z</time>
      </trkpt>
      <trkpt lat="45.93153" lon="6.86525">
        <ele>1299</ele>
        <time>2026-08-04T10:53:39.132Z</time>
      </trkpt>
      <trkpt lat="45.93153" lon="6.86525">
        <ele>1299</ele>
        <time>2026-08-04T10:53:40.132Z</time>
      </trkpt>
      <trkpt lat="45.93153" lon="6.86525">
        <ele>1300</ele>
        <time>2026-08-04T10:53:41.132Z</time>
      </trkpt>
      <trkpt lat="45.93153" lon="6.86525">
        <ele>1300</ele>
        <time>2026-08-04T10:53:42.132Z</time>
      </trkpt>
      <trkpt lat="45.93153" lon="6.86525">
        <ele>1300</ele>
        <time>2026-08-04T10:53:43.132Z</time>
      </trkpt>
      <trkpt lat="45.93153" lon="6.86525">
        <ele>1300</ele>
        <time>2026-08-04T10:53:44.132Z</time>
      </trkpt>
      <trkpt lat="45.93153" lon="6.86525">
        <ele>1301</ele>
        <time>2026-08-04T10:53:45.132Z</time>
      </trkpt>
      <trkpt lat="45.93153" lon="6.86525">
        <ele>1301</ele>
        <time>2026-08-04T10:53:46.132Z</time>
      </trkpt>
      <trkpt lat="45.93153" lon="6.86525">
        <ele>1301</ele>
        <time>2026-08-04T10:53:47.132Z</time>
      </trkpt>
      <trkpt lat="45.93153" lon="6.86525">
        <ele>1302</ele>
        <time>2026-08-04T10:53:48.132Z</time>
      </trkpt>
      <trkpt lat="45.93153" lon="6.86525">
        <ele>1302</ele>
        <time>2026-08-04T10:53:49.132Z</time>
      </trkpt>
      <trkpt lat="45.93153" lon="6.86525">
        <ele>1302</ele>
        <time>2026-08-04T10:53:50.132Z</time>
      </trkpt>
      <trkpt lat="45.93153" lon="6.86525">
        <ele>1303</ele>
        <time>2026-08-04T10:53:51.132Z</time>
      </trkpt>
      <trkpt lat="45.93153" lon="6.86525">
        <ele>1303</ele>
        <time>2026-08-04T10:53:52.132Z</time>
      </trkpt>
      <trkpt lat="45.93153" lon="6.86525">
        <ele>1304</ele>
        <time>2026-08-04T10:53:53.132Z</time>
      </trkpt>
      <trkpt lat="45.93153" lon="6.86525">
        <ele>1304</ele>
        <time>2026-08-04T10:53:54.132Z</time>
      </trkpt>
      <trkpt lat="45.93153" lon="6.86525">
        <ele>1304</ele>
        <time>2026-08-04T10:53:55.132Z</time>
      </trkpt>
      <trkpt lat="45.93153" lon="6.86525">
        <ele>1304</ele>
        <time>2026-08-04T10:53:56.132Z</time>
      </trkpt>
      <trkpt lat="45.93153" lon="6.86525">
        <ele>1305</ele>
        <time>2026-08-04T10:53:57.132Z</time>
      </trkpt>
      <trkpt lat="45.93153" lon="6.86525">
        <ele>1305</ele>
        <time>2026-08-04T10:53:58.132Z</time>
      </trkpt>
      <trkpt lat="45.93153" lon="6.86525">
        <ele>1305</ele>
        <time>2026-08-04T10:53:59.132Z</time>
      </trkpt>
      <trkpt lat="45.93153" lon="6.86525">
        <ele>1305</ele>
        <time>2026-08-04T10:54:00.132Z</time>
      </trkpt>
      <trkpt lat="45.93153" lon="6.86525">
        <ele>1305</ele>
        <time>2026-08-04T10:54:01.132Z</time>
      </trkpt>
      <trkpt lat="45.93153" lon="6.86525">
        <ele>1305</ele>
        <time>2026-08-04T10:54:02.132Z</time>
      </trkpt>
      <trkpt lat="45.93153" lon="6.86525">
        <ele>1305</ele>
        <time>2026-08-04T10:54:03.132Z</time>
      </trkpt>
      <trkpt lat="45.93153" lon="6.86524">
        <ele>1305</ele>
        <time>2026-08-04T10:54:04.132Z</time>
      </trkpt>
      <trkpt lat="45.93153" lon="6.86524">
        <ele>1305</ele>
        <time>2026-08-04T10:54:05.132Z</time>
      </trkpt>
      <trkpt lat="45.93153" lon="6.86524">
        <ele>1305</ele>
        <time>2026-08-04T10:54:06.132Z</time>
      </trkpt>
      <trkpt lat="45.93153" lon="6.86524">
        <ele>1305</ele>
        <time>2026-08-04T10:54:07.132Z</time>
      </trkpt>
      <trkpt lat="45.93153" lon="6.86524">
        <ele>1305</ele>
        <time>2026-08-04T10:54:08.132Z</time>
      </trkpt>
      <trkpt lat="45.93153" lon="6.86524">
        <ele>1305</ele>
        <time>2026-08-04T10:54:09.132Z</time>
      </trkpt>
      <trkpt lat="45.93153" lon="6.86524">
        <ele>1305</ele>
        <time>2026-08-04T10:54:10.132Z</time>
      </trkpt>
      <trkpt lat="45.93153" lon="6.86523">
        <ele>1305</ele>
        <time>2026-08-04T10:54:11.132Z</time>
      </trkpt>
      <trkpt lat="45.93152" lon="6.86522">
        <ele>1305</ele>
        <time>2026-08-04T10:54:12.132Z</time>
      </trkpt>
      <trkpt lat="45.9315" lon="6.86521">
        <ele>1305</ele>
        <time>2026-08-04T10:54:13.132Z</time>
      </trkpt>
      <trkpt lat="45.93149" lon="6.86519">
        <ele>1305</ele>
        <time>2026-08-04T10:54:14.132Z</time>
      </trkpt>
      <trkpt lat="45.93149" lon="6.86516">
        <ele>1305</ele>
        <time>2026-08-04T10:54:15.132Z</time>
      </trkpt>
      <trkpt lat="45.93148" lon="6.86514">
        <ele>1305</ele>
        <time>2026-08-04T10:54:16.132Z</time>
      </trkpt>
      <trkpt lat="45.93147" lon="6.86512">
        <ele>1305</ele>
        <time>2026-08-04T10:54:17.132Z</time>
      </trkpt>
      <trkpt lat="45.93145" lon="6.86511">
        <ele>1305</ele>
        <time>2026-08-04T10:54:18.132Z</time>
      </trkpt>
      <trkpt lat="45.93143" lon="6.8651">
        <ele>1305</ele>
        <time>2026-08-04T10:54:19.132Z</time>
      </trkpt>
      <trkpt lat="45.9314" lon="6.8651">
        <ele>1305</ele>
        <time>2026-08-04T10:54:20.132Z</time>
      </trkpt>
      <trkpt lat="45.93139" lon="6.86509">
        <ele>1305</ele>
        <time>2026-08-04T10:54:21.132Z</time>
      </trkpt>
      <trkpt lat="45.93137" lon="6.8651">
        <ele>1304</ele>
        <time>2026-08-04T10:54:22.132Z</time>
      </trkpt>
      <trkpt lat="45.93136" lon="6.8651">
        <ele>1304</ele>
        <time>2026-08-04T10:54:23.132Z</time>
      </trkpt>
      <trkpt lat="45.93136" lon="6.86509">
        <ele>1304</ele>
        <time>2026-08-04T10:54:24.132Z</time>
      </trkpt>
      <trkpt lat="45.93136" lon="6.86508">
        <ele>1303</ele>
        <time>2026-08-04T10:54:25.132Z</time>
      </trkpt>
      <trkpt lat="45.93136" lon="6.86507">
        <ele>1302</ele>
        <time>2026-08-04T10:54:26.132Z</time>
      </trkpt>
      <trkpt lat="45.93136" lon="6.86508">
        <ele>1302</ele>
        <time>2026-08-04T10:54:27.132Z</time>
      </trkpt>
      <trkpt lat="45.93135" lon="6.86508">
        <ele>1302</ele>
        <time>2026-08-04T10:54:28.132Z</time>
      </trkpt>
      <trkpt lat="45.93135" lon="6.86507">
        <ele>1301</ele>
        <time>2026-08-04T10:54:29.132Z</time>
      </trkpt>
      <trkpt lat="45.93135" lon="6.86507">
        <ele>1301</ele>
        <time>2026-08-04T10:54:30.132Z</time>
      </trkpt>
      <trkpt lat="45.93133" lon="6.86508">
        <ele>1301</ele>
        <time>2026-08-04T10:54:31.132Z</time>
      </trkpt>
      <trkpt lat="45.93132" lon="6.86508">
        <ele>1301</ele>
        <time>2026-08-04T10:54:32.132Z</time>
      </trkpt>
      <trkpt lat="45.93131" lon="6.86508">
        <ele>1301</ele>
        <time>2026-08-04T10:54:33.132Z</time>
      </trkpt>
      <trkpt lat="45.9313" lon="6.86509">
        <ele>1301</ele>
        <time>2026-08-04T10:54:34.132Z</time>
      </trkpt>
      <trkpt lat="45.93129" lon="6.86509">
        <ele>1301</ele>
        <time>2026-08-04T10:54:35.132Z</time>
      </trkpt>
      <trkpt lat="45.93129" lon="6.86509">
        <ele>1301</ele>
        <time>2026-08-04T10:54:36.132Z</time>
      </trkpt>
      <trkpt lat="45.93128" lon="6.86509">
        <ele>1301</ele>
        <time>2026-08-04T10:54:37.132Z</time>
      </trkpt>
      <trkpt lat="45.93127" lon="6.86509">
        <ele>1301</ele>
        <time>2026-08-04T10:54:38.132Z</time>
      </trkpt>
      <trkpt lat="45.93126" lon="6.86509">
        <ele>1301</ele>
        <time>2026-08-04T10:54:39.132Z</time>
      </trkpt>
      <trkpt lat="45.93126" lon="6.86508">
        <ele>1301</ele>
        <time>2026-08-04T10:54:40.132Z</time>
      </trkpt>
      <trkpt lat="45.93125" lon="6.86507">
        <ele>1301</ele>
        <time>2026-08-04T10:54:41.132Z</time>
      </trkpt>
      <trkpt lat="45.93125" lon="6.86507">
        <ele>1301</ele>
        <time>2026-08-04T10:54:42.132Z</time>
      </trkpt>
      <trkpt lat="45.93125" lon="6.86507">
        <ele>1300</ele>
        <time>2026-08-04T10:54:43.132Z</time>
      </trkpt>
      <trkpt lat="45.93126" lon="6.86506">
        <ele>1300</ele>
        <time>2026-08-04T10:54:44.132Z</time>
      </trkpt>
      <trkpt lat="45.93126" lon="6.86506">
        <ele>1300</ele>
        <time>2026-08-04T10:54:45.132Z</time>
      </trkpt>
      <trkpt lat="45.93122" lon="6.86509">
        <ele>1299</ele>
        <time>2026-08-04T10:54:46.132Z</time>
      </trkpt>
      <trkpt lat="45.93119" lon="6.8651">
        <ele>1298</ele>
        <time>2026-08-04T10:54:47.132Z</time>
      </trkpt>
      <trkpt lat="45.93117" lon="6.8651">
        <ele>1298</ele>
        <time>2026-08-04T10:54:48.132Z</time>
      </trkpt>
      <trkpt lat="45.93116" lon="6.86509">
        <ele>1296</ele>
        <time>2026-08-04T10:54:49.132Z</time>
      </trkpt>
      <trkpt lat="45.93114" lon="6.86508">
        <ele>1295</ele>
        <time>2026-08-04T10:54:50.132Z</time>
      </trkpt>
      <trkpt lat="45.93113" lon="6.86507">
        <ele>1294</ele>
        <time>2026-08-04T10:54:51.132Z</time>
      </trkpt>
      <trkpt lat="45.93111" lon="6.86507">
        <ele>1293</ele>
        <time>2026-08-04T10:54:52.132Z</time>
      </trkpt>
      <trkpt lat="45.93109" lon="6.86507">
        <ele>1292</ele>
        <time>2026-08-04T10:54:53.132Z</time>
      </trkpt>
      <trkpt lat="45.93107" lon="6.86507">
        <ele>1291</ele>
        <time>2026-08-04T10:54:54.132Z</time>
      </trkpt>
      <trkpt lat="45.93105" lon="6.86506">
        <ele>1290</ele>
        <time>2026-08-04T10:54:55.132Z</time>
      </trkpt>
      <trkpt lat="45.93103" lon="6.86504">
        <ele>1289</ele>
        <time>2026-08-04T10:54:56.132Z</time>
      </trkpt>
      <trkpt lat="45.93101" lon="6.86504">
        <ele>1288</ele>
        <time>2026-08-04T10:54:57.132Z</time>
      </trkpt>
      <trkpt lat="45.93099" lon="6.86502">
        <ele>1287</ele>
        <time>2026-08-04T10:54:58.132Z</time>
      </trkpt>
      <trkpt lat="45.93099" lon="6.865">
        <ele>1286</ele>
        <time>2026-08-04T10:54:59.132Z</time>
      </trkpt>
      <trkpt lat="45.93099" lon="6.86498">
        <ele>1285</ele>
        <time>2026-08-04T10:55:00.132Z</time>
      </trkpt>
      <trkpt lat="45.93101" lon="6.86494">
        <ele>1284</ele>
        <time>2026-08-04T10:55:01.132Z</time>
      </trkpt>
      <trkpt lat="45.93102" lon="6.86491">
        <ele>1284</ele>
        <time>2026-08-04T10:55:02.132Z</time>
      </trkpt>
      <trkpt lat="45.93102" lon="6.8649">
        <ele>1284</ele>
        <time>2026-08-04T10:55:03.132Z</time>
      </trkpt>
      <trkpt lat="45.93101" lon="6.86488">
        <ele>1284</ele>
        <time>2026-08-04T10:55:04.132Z</time>
      </trkpt>
      <trkpt lat="45.931" lon="6.86485">
        <ele>1284</ele>
        <time>2026-08-04T10:55:05.132Z</time>
      </trkpt>
      <trkpt lat="45.93099" lon="6.86484">
        <ele>1283</ele>
        <time>2026-08-04T10:55:06.132Z</time>
      </trkpt>
      <trkpt lat="45.93097" lon="6.86482">
        <ele>1283</ele>
        <time>2026-08-04T10:55:07.132Z</time>
      </trkpt>
      <trkpt lat="45.93096" lon="6.8648">
        <ele>1282</ele>
        <time>2026-08-04T10:55:08.132Z</time>
      </trkpt>
      <trkpt lat="45.93094" lon="6.86478">
        <ele>1282</ele>
        <time>2026-08-04T10:55:09.132Z</time>
      </trkpt>
      <trkpt lat="45.93093" lon="6.86477">
        <ele>1281</ele>
        <time>2026-08-04T10:55:10.132Z</time>
      </trkpt>
      <trkpt lat="45.93092" lon="6.86476">
        <ele>1281</ele>
        <time>2026-08-04T10:55:11.132Z</time>
      </trkpt>
      <trkpt lat="45.93091" lon="6.86475">
        <ele>1280</ele>
        <time>2026-08-04T10:55:12.132Z</time>
      </trkpt>
      <trkpt lat="45.93089" lon="6.86474">
        <ele>1280</ele>
        <time>2026-08-04T10:55:13.132Z</time>
      </trkpt>
      <trkpt lat="45.93088" lon="6.86473">
        <ele>1280</ele>
        <time>2026-08-04T10:55:14.132Z</time>
      </trkpt>
      <trkpt lat="45.93087" lon="6.86473">
        <ele>1279</ele>
        <time>2026-08-04T10:55:15.132Z</time>
      </trkpt>
      <trkpt lat="45.93086" lon="6.86474">
        <ele>1279</ele>
        <time>2026-08-04T10:55:16.132Z</time>
      </trkpt>
      <trkpt lat="45.93084" lon="6.86475">
        <ele>1279</ele>
        <time>2026-08-04T10:55:17.132Z</time>
      </trkpt>
      <trkpt lat="45.93082" lon="6.86476">
        <ele>1279</ele>
        <time>2026-08-04T10:55:18.132Z</time>
      </trkpt>
      <trkpt lat="45.9308" lon="6.86476">
        <ele>1279</ele>
        <time>2026-08-04T10:55:19.132Z</time>
      </trkpt>
      <trkpt lat="45.93077" lon="6.86476">
        <ele>1279</ele>
        <time>2026-08-04T10:55:20.132Z</time>
      </trkpt>
      <trkpt lat="45.93076" lon="6.86476">
        <ele>1279</ele>
        <time>2026-08-04T10:55:21.132Z</time>
      </trkpt>
      <trkpt lat="45.93075" lon="6.86476">
        <ele>1279</ele>
        <time>2026-08-04T10:55:22.132Z</time>
      </trkpt>
      <trkpt lat="45.93075" lon="6.86475">
        <ele>1279</ele>
        <time>2026-08-04T10:55:23.132Z</time>
      </trkpt>
      <trkpt lat="45.93076" lon="6.86474">
        <ele>1279</ele>
        <time>2026-08-04T10:55:24.132Z</time>
      </trkpt>
      <trkpt lat="45.93076" lon="6.86473">
        <ele>1279</ele>
        <time>2026-08-04T10:55:25.132Z</time>
      </trkpt>
      <trkpt lat="45.93076" lon="6.86473">
        <ele>1279</ele>
        <time>2026-08-04T10:55:26.132Z</time>
      </trkpt>
      <trkpt lat="45.93075" lon="6.86473">
        <ele>1279</ele>
        <time>2026-08-04T10:55:27.132Z</time>
      </trkpt>
      <trkpt lat="45.93073" lon="6.86474">
        <ele>1279</ele>
        <time>2026-08-04T10:55:28.132Z</time>
      </trkpt>
      <trkpt lat="45.93071" lon="6.86474">
        <ele>1279</ele>
        <time>2026-08-04T10:55:29.132Z</time>
      </trkpt>
      <trkpt lat="45.9307" lon="6.86473">
        <ele>1279</ele>
        <time>2026-08-04T10:55:30.132Z</time>
      </trkpt>
      <trkpt lat="45.93069" lon="6.86473">
        <ele>1278</ele>
        <time>2026-08-04T10:55:31.132Z</time>
      </trkpt>
      <trkpt lat="45.93067" lon="6.86473">
        <ele>1278</ele>
        <time>2026-08-04T10:55:32.132Z</time>
      </trkpt>
      <trkpt lat="45.93066" lon="6.86473">
        <ele>1278</ele>
        <time>2026-08-04T10:55:33.132Z</time>
      </trkpt>
      <trkpt lat="45.93065" lon="6.86473">
        <ele>1278</ele>
        <time>2026-08-04T10:55:34.132Z</time>
      </trkpt>
      <trkpt lat="45.93063" lon="6.86474">
        <ele>1278</ele>
        <time>2026-08-04T10:55:35.132Z</time>
      </trkpt>
      <trkpt lat="45.93062" lon="6.86475">
        <ele>1278</ele>
        <time>2026-08-04T10:55:36.132Z</time>
      </trkpt>
      <trkpt lat="45.93061" lon="6.86476">
        <ele>1278</ele>
        <time>2026-08-04T10:55:37.132Z</time>
      </trkpt>
      <trkpt lat="45.9306" lon="6.86476">
        <ele>1278</ele>
        <time>2026-08-04T10:55:38.132Z</time>
      </trkpt>
      <trkpt lat="45.93059" lon="6.86476">
        <ele>1277</ele>
        <time>2026-08-04T10:55:39.132Z</time>
      </trkpt>
      <trkpt lat="45.93057" lon="6.86477">
        <ele>1277</ele>
        <time>2026-08-04T10:55:40.132Z</time>
      </trkpt>
      <trkpt lat="45.93055" lon="6.86477">
        <ele>1277</ele>
        <time>2026-08-04T10:55:41.132Z</time>
      </trkpt>
      <trkpt lat="45.93055" lon="6.86476">
        <ele>1276</ele>
        <time>2026-08-04T10:55:42.132Z</time>
      </trkpt>
      <trkpt lat="45.93054" lon="6.86476">
        <ele>1276</ele>
        <time>2026-08-04T10:55:43.132Z</time>
      </trkpt>
      <trkpt lat="45.93054" lon="6.86476">
        <ele>1275</ele>
        <time>2026-08-04T10:55:44.132Z</time>
      </trkpt>
      <trkpt lat="45.93052" lon="6.86476">
        <ele>1274</ele>
        <time>2026-08-04T10:55:45.132Z</time>
      </trkpt>
      <trkpt lat="45.9305" lon="6.86477">
        <ele>1273</ele>
        <time>2026-08-04T10:55:46.132Z</time>
      </trkpt>
      <trkpt lat="45.93048" lon="6.86478">
        <ele>1273</ele>
        <time>2026-08-04T10:55:47.132Z</time>
      </trkpt>
      <trkpt lat="45.93047" lon="6.86478">
        <ele>1272</ele>
        <time>2026-08-04T10:55:48.132Z</time>
      </trkpt>
      <trkpt lat="45.93046" lon="6.86479">
        <ele>1271</ele>
        <time>2026-08-04T10:55:49.132Z</time>
      </trkpt>
      <trkpt lat="45.93044" lon="6.86479">
        <ele>1271</ele>
        <time>2026-08-04T10:55:50.132Z</time>
      </trkpt>
      <trkpt lat="45.93043" lon="6.86479">
        <ele>1270</ele>
        <time>2026-08-04T10:55:51.132Z</time>
      </trkpt>
      <trkpt lat="45.93042" lon="6.86479">
        <ele>1270</ele>
        <time>2026-08-04T10:55:52.132Z</time>
      </trkpt>
      <trkpt lat="45.93041" lon="6.86479">
        <ele>1269</ele>
        <time>2026-08-04T10:55:53.132Z</time>
      </trkpt>
      <trkpt lat="45.93039" lon="6.86479">
        <ele>1269</ele>
        <time>2026-08-04T10:55:54.132Z</time>
      </trkpt>
      <trkpt lat="45.93037" lon="6.86479">
        <ele>1269</ele>
        <time>2026-08-04T10:55:55.132Z</time>
      </trkpt>
      <trkpt lat="45.93037" lon="6.86478">
        <ele>1269</ele>
        <time>2026-08-04T10:55:56.132Z</time>
      </trkpt>
      <trkpt lat="45.93036" lon="6.86478">
        <ele>1269</ele>
        <time>2026-08-04T10:55:57.132Z</time>
      </trkpt>
      <trkpt lat="45.93035" lon="6.86477">
        <ele>1269</ele>
        <time>2026-08-04T10:55:58.132Z</time>
      </trkpt>
      <trkpt lat="45.93034" lon="6.86478">
        <ele>1269</ele>
        <time>2026-08-04T10:55:59.132Z</time>
      </trkpt>
      <trkpt lat="45.93032" lon="6.86479">
        <ele>1269</ele>
        <time>2026-08-04T10:56:00.132Z</time>
      </trkpt>
      <trkpt lat="45.93031" lon="6.86481">
        <ele>1269</ele>
        <time>2026-08-04T10:56:01.132Z</time>
      </trkpt>
      <trkpt lat="45.9303" lon="6.86481">
        <ele>1269</ele>
        <time>2026-08-04T10:56:02.132Z</time>
      </trkpt>
      <trkpt lat="45.93028" lon="6.86482">
        <ele>1269</ele>
        <time>2026-08-04T10:56:03.132Z</time>
      </trkpt>
      <trkpt lat="45.93027" lon="6.86482">
        <ele>1269</ele>
        <time>2026-08-04T10:56:04.132Z</time>
      </trkpt>
      <trkpt lat="45.93025" lon="6.86482">
        <ele>1269</ele>
        <time>2026-08-04T10:56:05.132Z</time>
      </trkpt>
      <trkpt lat="45.93023" lon="6.86482">
        <ele>1269</ele>
        <time>2026-08-04T10:56:06.132Z</time>
      </trkpt>
      <trkpt lat="45.93021" lon="6.86482">
        <ele>1268</ele>
        <time>2026-08-04T10:56:07.132Z</time>
      </trkpt>
      <trkpt lat="45.9302" lon="6.86481">
        <ele>1268</ele>
        <time>2026-08-04T10:56:08.132Z</time>
      </trkpt>
      <trkpt lat="45.93018" lon="6.86479">
        <ele>1267</ele>
        <time>2026-08-04T10:56:09.132Z</time>
      </trkpt>
      <trkpt lat="45.93018" lon="6.86478">
        <ele>1266</ele>
        <time>2026-08-04T10:56:10.132Z</time>
      </trkpt>
      <trkpt lat="45.93017" lon="6.86475">
        <ele>1266</ele>
        <time>2026-08-04T10:56:11.132Z</time>
      </trkpt>
      <trkpt lat="45.93014" lon="6.86474">
        <ele>1265</ele>
        <time>2026-08-04T10:56:12.132Z</time>
      </trkpt>
      <trkpt lat="45.93012" lon="6.86473">
        <ele>1265</ele>
        <time>2026-08-04T10:56:13.132Z</time>
      </trkpt>
      <trkpt lat="45.9301" lon="6.86472">
        <ele>1264</ele>
        <time>2026-08-04T10:56:14.132Z</time>
      </trkpt>
      <trkpt lat="45.93007" lon="6.8647">
        <ele>1264</ele>
        <time>2026-08-04T10:56:15.132Z</time>
      </trkpt>
      <trkpt lat="45.93004" lon="6.86469">
        <ele>1263</ele>
        <time>2026-08-04T10:56:16.132Z</time>
      </trkpt>
      <trkpt lat="45.93002" lon="6.86467">
        <ele>1262</ele>
        <time>2026-08-04T10:56:17.132Z</time>
      </trkpt>
      <trkpt lat="45.93002" lon="6.86464">
        <ele>1262</ele>
        <time>2026-08-04T10:56:18.132Z</time>
      </trkpt>
      <trkpt lat="45.93" lon="6.86461">
        <ele>1261</ele>
        <time>2026-08-04T10:56:19.132Z</time>
      </trkpt>
      <trkpt lat="45.92999" lon="6.86458">
        <ele>1261</ele>
        <time>2026-08-04T10:56:20.132Z</time>
      </trkpt>
      <trkpt lat="45.92997" lon="6.86455">
        <ele>1260</ele>
        <time>2026-08-04T10:56:21.132Z</time>
      </trkpt>
      <trkpt lat="45.92995" lon="6.86454">
        <ele>1260</ele>
        <time>2026-08-04T10:56:22.132Z</time>
      </trkpt>
      <trkpt lat="45.92993" lon="6.86453">
        <ele>1259</ele>
        <time>2026-08-04T10:56:23.132Z</time>
      </trkpt>
      <trkpt lat="45.92993" lon="6.86449">
        <ele>1259</ele>
        <time>2026-08-04T10:56:24.132Z</time>
      </trkpt>
      <trkpt lat="45.9299" lon="6.86448">
        <ele>1259</ele>
        <time>2026-08-04T10:56:25.132Z</time>
      </trkpt>
      <trkpt lat="45.9299" lon="6.86446">
        <ele>1258</ele>
        <time>2026-08-04T10:56:26.132Z</time>
      </trkpt>
      <trkpt lat="45.92989" lon="6.86444">
        <ele>1258</ele>
        <time>2026-08-04T10:56:27.132Z</time>
      </trkpt>
      <trkpt lat="45.92988" lon="6.86441">
        <ele>1258</ele>
        <time>2026-08-04T10:56:28.132Z</time>
      </trkpt>
      <trkpt lat="45.92987" lon="6.86438">
        <ele>1258</ele>
        <time>2026-08-04T10:56:29.132Z</time>
      </trkpt>
      <trkpt lat="45.92987" lon="6.86436">
        <ele>1258</ele>
        <time>2026-08-04T10:56:30.132Z</time>
      </trkpt>
      <trkpt lat="45.92986" lon="6.86434">
        <ele>1258</ele>
        <time>2026-08-04T10:56:31.132Z</time>
      </trkpt>
      <trkpt lat="45.92984" lon="6.86433">
        <ele>1258</ele>
        <time>2026-08-04T10:56:32.132Z</time>
      </trkpt>
      <trkpt lat="45.92983" lon="6.8643">
        <ele>1257</ele>
        <time>2026-08-04T10:56:33.132Z</time>
      </trkpt>
      <trkpt lat="45.92982" lon="6.86428">
        <ele>1257</ele>
        <time>2026-08-04T10:56:34.132Z</time>
      </trkpt>
      <trkpt lat="45.92981" lon="6.86426">
        <ele>1257</ele>
        <time>2026-08-04T10:56:35.132Z</time>
      </trkpt>
      <trkpt lat="45.92981" lon="6.86424">
        <ele>1257</ele>
        <time>2026-08-04T10:56:36.132Z</time>
      </trkpt>
      <trkpt lat="45.92981" lon="6.86421">
        <ele>1257</ele>
        <time>2026-08-04T10:56:37.132Z</time>
      </trkpt>
      <trkpt lat="45.9298" lon="6.86419">
        <ele>1257</ele>
        <time>2026-08-04T10:56:38.132Z</time>
      </trkpt>
      <trkpt lat="45.9298" lon="6.86417">
        <ele>1257</ele>
        <time>2026-08-04T10:56:39.132Z</time>
      </trkpt>
      <trkpt lat="45.92979" lon="6.86414">
        <ele>1257</ele>
        <time>2026-08-04T10:56:40.132Z</time>
      </trkpt>
      <trkpt lat="45.92978" lon="6.86412">
        <ele>1257</ele>
        <time>2026-08-04T10:56:41.132Z</time>
      </trkpt>
      <trkpt lat="45.92976" lon="6.8641">
        <ele>1257</ele>
        <time>2026-08-04T10:56:42.132Z</time>
      </trkpt>
      <trkpt lat="45.92975" lon="6.86408">
        <ele>1257</ele>
        <time>2026-08-04T10:56:43.132Z</time>
      </trkpt>
      <trkpt lat="45.92974" lon="6.86406">
        <ele>1258</ele>
        <time>2026-08-04T10:56:44.132Z</time>
      </trkpt>
      <trkpt lat="45.92973" lon="6.86403">
        <ele>1258</ele>
        <time>2026-08-04T10:56:45.132Z</time>
      </trkpt>
      <trkpt lat="45.92972" lon="6.864">
        <ele>1258</ele>
        <time>2026-08-04T10:56:46.132Z</time>
      </trkpt>
      <trkpt lat="45.92972" lon="6.86398">
        <ele>1258</ele>
        <time>2026-08-04T10:56:47.132Z</time>
      </trkpt>
      <trkpt lat="45.92971" lon="6.86397">
        <ele>1258</ele>
        <time>2026-08-04T10:56:48.132Z</time>
      </trkpt>
      <trkpt lat="45.9297" lon="6.86396">
        <ele>1259</ele>
        <time>2026-08-04T10:56:49.132Z</time>
      </trkpt>
      <trkpt lat="45.9297" lon="6.86394">
        <ele>1259</ele>
        <time>2026-08-04T10:56:50.133Z</time>
      </trkpt>
      <trkpt lat="45.9297" lon="6.86392">
        <ele>1259</ele>
        <time>2026-08-04T10:56:51.132Z</time>
      </trkpt>
      <trkpt lat="45.9297" lon="6.8639">
        <ele>1259</ele>
        <time>2026-08-04T10:56:52.132Z</time>
      </trkpt>
      <trkpt lat="45.92969" lon="6.8639">
        <ele>1260</ele>
        <time>2026-08-04T10:56:53.132Z</time>
      </trkpt>
      <trkpt lat="45.92968" lon="6.86389">
        <ele>1260</ele>
        <time>2026-08-04T10:56:54.132Z</time>
      </trkpt>
      <trkpt lat="45.92967" lon="6.86389">
        <ele>1261</ele>
        <time>2026-08-04T10:56:55.132Z</time>
      </trkpt>
      <trkpt lat="45.92965" lon="6.86388">
        <ele>1261</ele>
        <time>2026-08-04T10:56:56.132Z</time>
      </trkpt>
      <trkpt lat="45.92963" lon="6.86388">
        <ele>1261</ele>
        <time>2026-08-04T10:56:57.132Z</time>
      </trkpt>
      <trkpt lat="45.9296" lon="6.86388">
        <ele>1262</ele>
        <time>2026-08-04T10:56:58.132Z</time>
      </trkpt>
      <trkpt lat="45.92958" lon="6.86388">
        <ele>1262</ele>
        <time>2026-08-04T10:56:59.132Z</time>
      </trkpt>
      <trkpt lat="45.92956" lon="6.86387">
        <ele>1262</ele>
        <time>2026-08-04T10:57:00.132Z</time>
      </trkpt>
      <trkpt lat="45.92955" lon="6.86386">
        <ele>1262</ele>
        <time>2026-08-04T10:57:01.132Z</time>
      </trkpt>
      <trkpt lat="45.92953" lon="6.86385">
        <ele>1262</ele>
        <time>2026-08-04T10:57:02.132Z</time>
      </trkpt>
      <trkpt lat="45.92951" lon="6.86384">
        <ele>1263</ele>
        <time>2026-08-04T10:57:03.132Z</time>
      </trkpt>
      <trkpt lat="45.92949" lon="6.86382">
        <ele>1263</ele>
        <time>2026-08-04T10:57:04.132Z</time>
      </trkpt>
      <trkpt lat="45.92947" lon="6.8638">
        <ele>1263</ele>
        <time>2026-08-04T10:57:05.132Z</time>
      </trkpt>
      <trkpt lat="45.92945" lon="6.86379">
        <ele>1263</ele>
        <time>2026-08-04T10:57:06.132Z</time>
      </trkpt>
      <trkpt lat="45.92942" lon="6.86377">
        <ele>1262</ele>
        <time>2026-08-04T10:57:07.132Z</time>
      </trkpt>
      <trkpt lat="45.92941" lon="6.86375">
        <ele>1262</ele>
        <time>2026-08-04T10:57:08.132Z</time>
      </trkpt>
      <trkpt lat="45.92939" lon="6.86373">
        <ele>1262</ele>
        <time>2026-08-04T10:57:09.132Z</time>
      </trkpt>
      <trkpt lat="45.92938" lon="6.86371">
        <ele>1262</ele>
        <time>2026-08-04T10:57:10.132Z</time>
      </trkpt>
      <trkpt lat="45.92936" lon="6.86369">
        <ele>1262</ele>
        <time>2026-08-04T10:57:11.132Z</time>
      </trkpt>
      <trkpt lat="45.92935" lon="6.86367">
        <ele>1261</ele>
        <time>2026-08-04T10:57:12.132Z</time>
      </trkpt>
      <trkpt lat="45.92933" lon="6.86364">
        <ele>1261</ele>
        <time>2026-08-04T10:57:13.132Z</time>
      </trkpt>
      <trkpt lat="45.92931" lon="6.86363">
        <ele>1261</ele>
        <time>2026-08-04T10:57:14.132Z</time>
      </trkpt>
      <trkpt lat="45.92929" lon="6.8636">
        <ele>1261</ele>
        <time>2026-08-04T10:57:15.132Z</time>
      </trkpt>
      <trkpt lat="45.92929" lon="6.86357">
        <ele>1260</ele>
        <time>2026-08-04T10:57:16.132Z</time>
      </trkpt>
      <trkpt lat="45.92929" lon="6.86355">
        <ele>1260</ele>
        <time>2026-08-04T10:57:17.132Z</time>
      </trkpt>
      <trkpt lat="45.92928" lon="6.86352">
        <ele>1259</ele>
        <time>2026-08-04T10:57:18.132Z</time>
      </trkpt>
      <trkpt lat="45.92928" lon="6.86349">
        <ele>1259</ele>
        <time>2026-08-04T10:57:19.132Z</time>
      </trkpt>
      <trkpt lat="45.92928" lon="6.86346">
        <ele>1258</ele>
        <time>2026-08-04T10:57:20.132Z</time>
      </trkpt>
      <trkpt lat="45.92927" lon="6.86344">
        <ele>1258</ele>
        <time>2026-08-04T10:57:21.132Z</time>
      </trkpt>
      <trkpt lat="45.92926" lon="6.86342">
        <ele>1257</ele>
        <time>2026-08-04T10:57:22.132Z</time>
      </trkpt>
      <trkpt lat="45.92925" lon="6.86342">
        <ele>1257</ele>
        <time>2026-08-04T10:57:23.132Z</time>
      </trkpt>
      <trkpt lat="45.92923" lon="6.86341">
        <ele>1257</ele>
        <time>2026-08-04T10:57:24.132Z</time>
      </trkpt>
      <trkpt lat="45.92922" lon="6.86339">
        <ele>1257</ele>
        <time>2026-08-04T10:57:25.132Z</time>
      </trkpt>
      <trkpt lat="45.92921" lon="6.86337">
        <ele>1257</ele>
        <time>2026-08-04T10:57:26.132Z</time>
      </trkpt>
      <trkpt lat="45.9292" lon="6.86335">
        <ele>1257</ele>
        <time>2026-08-04T10:57:27.132Z</time>
      </trkpt>
      <trkpt lat="45.92919" lon="6.86333">
        <ele>1257</ele>
        <time>2026-08-04T10:57:28.132Z</time>
      </trkpt>
      <trkpt lat="45.92917" lon="6.86331">
        <ele>1257</ele>
        <time>2026-08-04T10:57:29.132Z</time>
      </trkpt>
      <trkpt lat="45.92916" lon="6.86329">
        <ele>1257</ele>
        <time>2026-08-04T10:57:30.132Z</time>
      </trkpt>
      <trkpt lat="45.92915" lon="6.86327">
        <ele>1257</ele>
        <time>2026-08-04T10:57:31.132Z</time>
      </trkpt>
      <trkpt lat="45.92915" lon="6.86324">
        <ele>1257</ele>
        <time>2026-08-04T10:57:32.132Z</time>
      </trkpt>
      <trkpt lat="45.92914" lon="6.86321">
        <ele>1257</ele>
        <time>2026-08-04T10:57:33.132Z</time>
      </trkpt>
      <trkpt lat="45.92914" lon="6.86319">
        <ele>1257</ele>
        <time>2026-08-04T10:57:34.132Z</time>
      </trkpt>
      <trkpt lat="45.92913" lon="6.86316">
        <ele>1257</ele>
        <time>2026-08-04T10:57:35.132Z</time>
      </trkpt>
      <trkpt lat="45.92912" lon="6.86314">
        <ele>1257</ele>
        <time>2026-08-04T10:57:36.132Z</time>
      </trkpt>
      <trkpt lat="45.92911" lon="6.86312">
        <ele>1257</ele>
        <time>2026-08-04T10:57:37.132Z</time>
      </trkpt>
      <trkpt lat="45.92911" lon="6.86309">
        <ele>1257</ele>
        <time>2026-08-04T10:57:38.132Z</time>
      </trkpt>
      <trkpt lat="45.9291" lon="6.86307">
        <ele>1257</ele>
        <time>2026-08-04T10:57:39.132Z</time>
      </trkpt>
      <trkpt lat="45.92909" lon="6.86305">
        <ele>1257</ele>
        <time>2026-08-04T10:57:40.132Z</time>
      </trkpt>
      <trkpt lat="45.92909" lon="6.86303">
        <ele>1257</ele>
        <time>2026-08-04T10:57:41.132Z</time>
      </trkpt>
      <trkpt lat="45.92908" lon="6.863">
        <ele>1257</ele>
        <time>2026-08-04T10:57:42.132Z</time>
      </trkpt>
      <trkpt lat="45.92906" lon="6.863">
        <ele>1257</ele>
        <time>2026-08-04T10:57:43.132Z</time>
      </trkpt>
      <trkpt lat="45.92904" lon="6.86299">
        <ele>1257</ele>
        <time>2026-08-04T10:57:44.132Z</time>
      </trkpt>
      <trkpt lat="45.92903" lon="6.86297">
        <ele>1257</ele>
        <time>2026-08-04T10:57:45.132Z</time>
      </trkpt>
      <trkpt lat="45.92901" lon="6.86295">
        <ele>1258</ele>
        <time>2026-08-04T10:57:46.132Z</time>
      </trkpt>
      <trkpt lat="45.929" lon="6.86293">
        <ele>1258</ele>
        <time>2026-08-04T10:57:47.132Z</time>
      </trkpt>
      <trkpt lat="45.92896" lon="6.86293">
        <ele>1258</ele>
        <time>2026-08-04T10:57:48.132Z</time>
      </trkpt>
      <trkpt lat="45.92894" lon="6.86292">
        <ele>1258</ele>
        <time>2026-08-04T10:57:49.132Z</time>
      </trkpt>
      <trkpt lat="45.92894" lon="6.86289">
        <ele>1258</ele>
        <time>2026-08-04T10:57:50.132Z</time>
      </trkpt>
      <trkpt lat="45.92895" lon="6.86285">
        <ele>1258</ele>
        <time>2026-08-04T10:57:51.132Z</time>
      </trkpt>
      <trkpt lat="45.92895" lon="6.86282">
        <ele>1258</ele>
        <time>2026-08-04T10:57:52.132Z</time>
      </trkpt>
      <trkpt lat="45.92894" lon="6.8628">
        <ele>1258</ele>
        <time>2026-08-04T10:57:53.132Z</time>
      </trkpt>
      <trkpt lat="45.92894" lon="6.86277">
        <ele>1258</ele>
        <time>2026-08-04T10:57:54.132Z</time>
      </trkpt>
      <trkpt lat="45.92893" lon="6.86275">
        <ele>1258</ele>
        <time>2026-08-04T10:57:55.132Z</time>
      </trkpt>
      <trkpt lat="45.92893" lon="6.86274">
        <ele>1258</ele>
        <time>2026-08-04T10:57:56.132Z</time>
      </trkpt>
      <trkpt lat="45.92892" lon="6.86272">
        <ele>1258</ele>
        <time>2026-08-04T10:57:57.132Z</time>
      </trkpt>
      <trkpt lat="45.92891" lon="6.86271">
        <ele>1258</ele>
        <time>2026-08-04T10:57:58.132Z</time>
      </trkpt>
      <trkpt lat="45.9289" lon="6.86269">
        <ele>1258</ele>
        <time>2026-08-04T10:57:59.132Z</time>
      </trkpt>
      <trkpt lat="45.92888" lon="6.86268">
        <ele>1259</ele>
        <time>2026-08-04T10:58:00.132Z</time>
      </trkpt>
      <trkpt lat="45.92887" lon="6.86268">
        <ele>1259</ele>
        <time>2026-08-04T10:58:01.132Z</time>
      </trkpt>
      <trkpt lat="45.92886" lon="6.86268">
        <ele>1259</ele>
        <time>2026-08-04T10:58:02.132Z</time>
      </trkpt>
      <trkpt lat="45.92885" lon="6.86267">
        <ele>1260</ele>
        <time>2026-08-04T10:58:03.132Z</time>
      </trkpt>
      <trkpt lat="45.92885" lon="6.86265">
        <ele>1260</ele>
        <time>2026-08-04T10:58:04.132Z</time>
      </trkpt>
      <trkpt lat="45.92884" lon="6.86264">
        <ele>1260</ele>
        <time>2026-08-04T10:58:05.132Z</time>
      </trkpt>
      <trkpt lat="45.92883" lon="6.86263">
        <ele>1259</ele>
        <time>2026-08-04T10:58:06.132Z</time>
      </trkpt>
      <trkpt lat="45.92882" lon="6.86262">
        <ele>1259</ele>
        <time>2026-08-04T10:58:07.132Z</time>
      </trkpt>
      <trkpt lat="45.9288" lon="6.86258">
        <ele>1259</ele>
        <time>2026-08-04T10:58:08.132Z</time>
      </trkpt>
      <trkpt lat="45.92879" lon="6.86256">
        <ele>1259</ele>
        <time>2026-08-04T10:58:09.132Z</time>
      </trkpt>
      <trkpt lat="45.92878" lon="6.86253">
        <ele>1259</ele>
        <time>2026-08-04T10:58:10.132Z</time>
      </trkpt>
      <trkpt lat="45.92876" lon="6.86251">
        <ele>1259</ele>
        <time>2026-08-04T10:58:11.132Z</time>
      </trkpt>
      <trkpt lat="45.92876" lon="6.86248">
        <ele>1259</ele>
        <time>2026-08-04T10:58:12.132Z</time>
      </trkpt>
      <trkpt lat="45.92874" lon="6.86246">
        <ele>1259</ele>
        <time>2026-08-04T10:58:13.132Z</time>
      </trkpt>
      <trkpt lat="45.92872" lon="6.86244">
        <ele>1259</ele>
        <time>2026-08-04T10:58:14.132Z</time>
      </trkpt>
      <trkpt lat="45.92871" lon="6.86241">
        <ele>1259</ele>
        <time>2026-08-04T10:58:15.132Z</time>
      </trkpt>
      <trkpt lat="45.9287" lon="6.86238">
        <ele>1259</ele>
        <time>2026-08-04T10:58:16.132Z</time>
      </trkpt>
      <trkpt lat="45.9287" lon="6.86234">
        <ele>1258</ele>
        <time>2026-08-04T10:58:17.132Z</time>
      </trkpt>
      <trkpt lat="45.9287" lon="6.86231">
        <ele>1258</ele>
        <time>2026-08-04T10:58:18.132Z</time>
      </trkpt>
      <trkpt lat="45.9287" lon="6.86228">
        <ele>1257</ele>
        <time>2026-08-04T10:58:19.132Z</time>
      </trkpt>
      <trkpt lat="45.92869" lon="6.86226">
        <ele>1257</ele>
        <time>2026-08-04T10:58:20.132Z</time>
      </trkpt>
      <trkpt lat="45.92867" lon="6.86223">
        <ele>1257</ele>
        <time>2026-08-04T10:58:21.132Z</time>
      </trkpt>
      <trkpt lat="45.92865" lon="6.86221">
        <ele>1257</ele>
        <time>2026-08-04T10:58:22.132Z</time>
      </trkpt>
      <trkpt lat="45.92862" lon="6.86218">
        <ele>1257</ele>
        <time>2026-08-04T10:58:23.132Z</time>
      </trkpt>
      <trkpt lat="45.9286" lon="6.86215">
        <ele>1257</ele>
        <time>2026-08-04T10:58:24.132Z</time>
      </trkpt>
      <trkpt lat="45.92859" lon="6.86212">
        <ele>1258</ele>
        <time>2026-08-04T10:58:25.132Z</time>
      </trkpt>
      <trkpt lat="45.92858" lon="6.86208">
        <ele>1258</ele>
        <time>2026-08-04T10:58:26.132Z</time>
      </trkpt>
      <trkpt lat="45.92857" lon="6.86205">
        <ele>1258</ele>
        <time>2026-08-04T10:58:27.132Z</time>
      </trkpt>
      <trkpt lat="45.92856" lon="6.86203">
        <ele>1259</ele>
        <time>2026-08-04T10:58:28.132Z</time>
      </trkpt>
      <trkpt lat="45.92854" lon="6.86202">
        <ele>1259</ele>
        <time>2026-08-04T10:58:29.132Z</time>
      </trkpt>
      <trkpt lat="45.92853" lon="6.862">
        <ele>1260</ele>
        <time>2026-08-04T10:58:30.132Z</time>
      </trkpt>
      <trkpt lat="45.92851" lon="6.86199">
        <ele>1260</ele>
        <time>2026-08-04T10:58:31.132Z</time>
      </trkpt>
      <trkpt lat="45.92849" lon="6.86198">
        <ele>1260</ele>
        <time>2026-08-04T10:58:32.132Z</time>
      </trkpt>
      <trkpt lat="45.92847" lon="6.86196">
        <ele>1260</ele>
        <time>2026-08-04T10:58:33.132Z</time>
      </trkpt>
      <trkpt lat="45.92845" lon="6.86195">
        <ele>1261</ele>
        <time>2026-08-04T10:58:34.132Z</time>
      </trkpt>
      <trkpt lat="45.92844" lon="6.86193">
        <ele>1261</ele>
        <time>2026-08-04T10:58:35.132Z</time>
      </trkpt>
      <trkpt lat="45.92843" lon="6.8619">
        <ele>1262</ele>
        <time>2026-08-04T10:58:36.132Z</time>
      </trkpt>
      <trkpt lat="45.92843" lon="6.86187">
        <ele>1262</ele>
        <time>2026-08-04T10:58:37.133Z</time>
      </trkpt>
      <trkpt lat="45.92844" lon="6.86184">
        <ele>1262</ele>
        <time>2026-08-04T10:58:38.132Z</time>
      </trkpt>
      <trkpt lat="45.92844" lon="6.86182">
        <ele>1262</ele>
        <time>2026-08-04T10:58:39.132Z</time>
      </trkpt>
      <trkpt lat="45.92843" lon="6.86179">
        <ele>1262</ele>
        <time>2026-08-04T10:58:40.132Z</time>
      </trkpt>
      <trkpt lat="45.92843" lon="6.86177">
        <ele>1262</ele>
        <time>2026-08-04T10:58:41.132Z</time>
      </trkpt>
      <trkpt lat="45.92842" lon="6.86175">
        <ele>1262</ele>
        <time>2026-08-04T10:58:42.132Z</time>
      </trkpt>
      <trkpt lat="45.92841" lon="6.86173">
        <ele>1262</ele>
        <time>2026-08-04T10:58:43.132Z</time>
      </trkpt>
      <trkpt lat="45.92841" lon="6.86171">
        <ele>1262</ele>
        <time>2026-08-04T10:58:44.132Z</time>
      </trkpt>
      <trkpt lat="45.92841" lon="6.86169">
        <ele>1262</ele>
        <time>2026-08-04T10:58:45.132Z</time>
      </trkpt>
      <trkpt lat="45.92841" lon="6.86167">
        <ele>1262</ele>
        <time>2026-08-04T10:58:46.132Z</time>
      </trkpt>
      <trkpt lat="45.9284" lon="6.86165">
        <ele>1261</ele>
        <time>2026-08-04T10:58:47.132Z</time>
      </trkpt>
      <trkpt lat="45.92838" lon="6.86163">
        <ele>1261</ele>
        <time>2026-08-04T10:58:48.132Z</time>
      </trkpt>
      <trkpt lat="45.92835" lon="6.86162">
        <ele>1261</ele>
        <time>2026-08-04T10:58:49.132Z</time>
      </trkpt>
      <trkpt lat="45.92832" lon="6.8616">
        <ele>1261</ele>
        <time>2026-08-04T10:58:50.132Z</time>
      </trkpt>
      <trkpt lat="45.9283" lon="6.86158">
        <ele>1261</ele>
        <time>2026-08-04T10:58:51.132Z</time>
      </trkpt>
      <trkpt lat="45.92828" lon="6.86156">
        <ele>1260</ele>
        <time>2026-08-04T10:58:52.132Z</time>
      </trkpt>
      <trkpt lat="45.92826" lon="6.86154">
        <ele>1260</ele>
        <time>2026-08-04T10:58:53.132Z</time>
      </trkpt>
      <trkpt lat="45.92825" lon="6.86151">
        <ele>1260</ele>
        <time>2026-08-04T10:58:54.132Z</time>
      </trkpt>
      <trkpt lat="45.92823" lon="6.86149">
        <ele>1260</ele>
        <time>2026-08-04T10:58:55.132Z</time>
      </trkpt>
      <trkpt lat="45.92821" lon="6.86147">
        <ele>1260</ele>
        <time>2026-08-04T10:58:56.132Z</time>
      </trkpt>
      <trkpt lat="45.92818" lon="6.86146">
        <ele>1260</ele>
        <time>2026-08-04T10:58:57.132Z</time>
      </trkpt>
      <trkpt lat="45.92816" lon="6.86144">
        <ele>1260</ele>
        <time>2026-08-04T10:58:58.132Z</time>
      </trkpt>
      <trkpt lat="45.92815" lon="6.86142">
        <ele>1260</ele>
        <time>2026-08-04T10:58:59.132Z</time>
      </trkpt>
      <trkpt lat="45.92813" lon="6.8614">
        <ele>1260</ele>
        <time>2026-08-04T10:59:00.132Z</time>
      </trkpt>
      <trkpt lat="45.92811" lon="6.86138">
        <ele>1260</ele>
        <time>2026-08-04T10:59:01.132Z</time>
      </trkpt>
      <trkpt lat="45.92809" lon="6.86136">
        <ele>1260</ele>
        <time>2026-08-04T10:59:02.132Z</time>
      </trkpt>
      <trkpt lat="45.92808" lon="6.86134">
        <ele>1260</ele>
        <time>2026-08-04T10:59:03.132Z</time>
      </trkpt>
      <trkpt lat="45.92806" lon="6.86131">
        <ele>1259</ele>
        <time>2026-08-04T10:59:04.132Z</time>
      </trkpt>
      <trkpt lat="45.92805" lon="6.8613">
        <ele>1259</ele>
        <time>2026-08-04T10:59:05.132Z</time>
      </trkpt>
      <trkpt lat="45.92803" lon="6.86129">
        <ele>1258</ele>
        <time>2026-08-04T10:59:06.132Z</time>
      </trkpt>
      <trkpt lat="45.92799" lon="6.8613">
        <ele>1258</ele>
        <time>2026-08-04T10:59:07.132Z</time>
      </trkpt>
      <trkpt lat="45.92797" lon="6.8613">
        <ele>1258</ele>
        <time>2026-08-04T10:59:08.132Z</time>
      </trkpt>
      <trkpt lat="45.92795" lon="6.86128">
        <ele>1257</ele>
        <time>2026-08-04T10:59:09.132Z</time>
      </trkpt>
      <trkpt lat="45.92793" lon="6.86126">
        <ele>1257</ele>
        <time>2026-08-04T10:59:10.132Z</time>
      </trkpt>
      <trkpt lat="45.92791" lon="6.86124">
        <ele>1257</ele>
        <time>2026-08-04T10:59:11.132Z</time>
      </trkpt>
      <trkpt lat="45.92789" lon="6.86122">
        <ele>1257</ele>
        <time>2026-08-04T10:59:12.132Z</time>
      </trkpt>
      <trkpt lat="45.92787" lon="6.86121">
        <ele>1256</ele>
        <time>2026-08-04T10:59:13.132Z</time>
      </trkpt>
      <trkpt lat="45.92785" lon="6.8612">
        <ele>1256</ele>
        <time>2026-08-04T10:59:14.132Z</time>
      </trkpt>
      <trkpt lat="45.92785" lon="6.86118">
        <ele>1256</ele>
        <time>2026-08-04T10:59:15.132Z</time>
      </trkpt>
      <trkpt lat="45.92784" lon="6.86116">
        <ele>1255</ele>
        <time>2026-08-04T10:59:16.132Z</time>
      </trkpt>
      <trkpt lat="45.92783" lon="6.86114">
        <ele>1256</ele>
        <time>2026-08-04T10:59:17.132Z</time>
      </trkpt>
      <trkpt lat="45.92782" lon="6.86112">
        <ele>1256</ele>
        <time>2026-08-04T10:59:18.132Z</time>
      </trkpt>
      <trkpt lat="45.92781" lon="6.8611">
        <ele>1256</ele>
        <time>2026-08-04T10:59:19.132Z</time>
      </trkpt>
      <trkpt lat="45.92779" lon="6.86109">
        <ele>1256</ele>
        <time>2026-08-04T10:59:20.132Z</time>
      </trkpt>
      <trkpt lat="45.92778" lon="6.86108">
        <ele>1256</ele>
        <time>2026-08-04T10:59:21.132Z</time>
      </trkpt>
      <trkpt lat="45.92776" lon="6.86106">
        <ele>1256</ele>
        <time>2026-08-04T10:59:22.132Z</time>
      </trkpt>
      <trkpt lat="45.92775" lon="6.86105">
        <ele>1256</ele>
        <time>2026-08-04T10:59:23.132Z</time>
      </trkpt>
      <trkpt lat="45.92773" lon="6.86102">
        <ele>1255</ele>
        <time>2026-08-04T10:59:24.132Z</time>
      </trkpt>
      <trkpt lat="45.92772" lon="6.861">
        <ele>1256</ele>
        <time>2026-08-04T10:59:25.132Z</time>
      </trkpt>
      <trkpt lat="45.92771" lon="6.86098">
        <ele>1256</ele>
        <time>2026-08-04T10:59:26.132Z</time>
      </trkpt>
      <trkpt lat="45.92769" lon="6.86097">
        <ele>1256</ele>
        <time>2026-08-04T10:59:27.132Z</time>
      </trkpt>
      <trkpt lat="45.92767" lon="6.86097">
        <ele>1256</ele>
        <time>2026-08-04T10:59:28.132Z</time>
      </trkpt>
      <trkpt lat="45.92766" lon="6.86095">
        <ele>1256</ele>
        <time>2026-08-04T10:59:29.132Z</time>
      </trkpt>
      <trkpt lat="45.92764" lon="6.86093">
        <ele>1256</ele>
        <time>2026-08-04T10:59:30.132Z</time>
      </trkpt>
      <trkpt lat="45.92763" lon="6.8609">
        <ele>1256</ele>
        <time>2026-08-04T10:59:31.132Z</time>
      </trkpt>
      <trkpt lat="45.92761" lon="6.86088">
        <ele>1256</ele>
        <time>2026-08-04T10:59:32.132Z</time>
      </trkpt>
      <trkpt lat="45.9276" lon="6.86086">
        <ele>1256</ele>
        <time>2026-08-04T10:59:33.132Z</time>
      </trkpt>
      <trkpt lat="45.92759" lon="6.86083">
        <ele>1256</ele>
        <time>2026-08-04T10:59:34.132Z</time>
      </trkpt>
      <trkpt lat="45.92757" lon="6.86081">
        <ele>1256</ele>
        <time>2026-08-04T10:59:35.132Z</time>
      </trkpt>
      <trkpt lat="45.92756" lon="6.86079">
        <ele>1255</ele>
        <time>2026-08-04T10:59:36.132Z</time>
      </trkpt>
      <trkpt lat="45.92755" lon="6.86077">
        <ele>1255</ele>
        <time>2026-08-04T10:59:37.132Z</time>
      </trkpt>
      <trkpt lat="45.92754" lon="6.86074">
        <ele>1255</ele>
        <time>2026-08-04T10:59:38.132Z</time>
      </trkpt>
      <trkpt lat="45.92753" lon="6.86071">
        <ele>1255</ele>
        <time>2026-08-04T10:59:39.132Z</time>
      </trkpt>
      <trkpt lat="45.92752" lon="6.86065">
        <ele>1255</ele>
        <time>2026-08-04T10:59:40.132Z</time>
      </trkpt>
      <trkpt lat="45.9275" lon="6.8606">
        <ele>1255</ele>
        <time>2026-08-04T10:59:41.132Z</time>
      </trkpt>
      <trkpt lat="45.92748" lon="6.86057">
        <ele>1255</ele>
        <time>2026-08-04T10:59:42.132Z</time>
      </trkpt>
      <trkpt lat="45.92746" lon="6.86053">
        <ele>1255</ele>
        <time>2026-08-04T10:59:43.132Z</time>
      </trkpt>
      <trkpt lat="45.92744" lon="6.86051">
        <ele>1255</ele>
        <time>2026-08-04T10:59:44.132Z</time>
      </trkpt>
      <trkpt lat="45.92743" lon="6.86048">
        <ele>1254</ele>
        <time>2026-08-04T10:59:45.132Z</time>
      </trkpt>
      <trkpt lat="45.92742" lon="6.86045">
        <ele>1254</ele>
        <time>2026-08-04T10:59:46.132Z</time>
      </trkpt>
      <trkpt lat="45.92741" lon="6.86042">
        <ele>1253</ele>
        <time>2026-08-04T10:59:47.132Z</time>
      </trkpt>
      <trkpt lat="45.9274" lon="6.86039">
        <ele>1252</ele>
        <time>2026-08-04T10:59:48.132Z</time>
      </trkpt>
      <trkpt lat="45.92739" lon="6.86036">
        <ele>1251</ele>
        <time>2026-08-04T10:59:49.132Z</time>
      </trkpt>
      <trkpt lat="45.92738" lon="6.86033">
        <ele>1251</ele>
        <time>2026-08-04T10:59:50.132Z</time>
      </trkpt>
      <trkpt lat="45.92737" lon="6.86031">
        <ele>1250</ele>
        <time>2026-08-04T10:59:51.132Z</time>
      </trkpt>
      <trkpt lat="45.92736" lon="6.86029">
        <ele>1250</ele>
        <time>2026-08-04T10:59:52.132Z</time>
      </trkpt>
      <trkpt lat="45.92736" lon="6.86026">
        <ele>1249</ele>
        <time>2026-08-04T10:59:53.132Z</time>
      </trkpt>
      <trkpt lat="45.92735" lon="6.86023">
        <ele>1249</ele>
        <time>2026-08-04T10:59:54.132Z</time>
      </trkpt>
      <trkpt lat="45.92735" lon="6.8602">
        <ele>1248</ele>
        <time>2026-08-04T10:59:55.132Z</time>
      </trkpt>
      <trkpt lat="45.92734" lon="6.86018">
        <ele>1248</ele>
        <time>2026-08-04T10:59:56.132Z</time>
      </trkpt>
      <trkpt lat="45.92733" lon="6.86015">
        <ele>1248</ele>
        <time>2026-08-04T10:59:57.132Z</time>
      </trkpt>
      <trkpt lat="45.92732" lon="6.86013">
        <ele>1248</ele>
        <time>2026-08-04T10:59:58.132Z</time>
      </trkpt>
      <trkpt lat="45.92731" lon="6.86011">
        <ele>1248</ele>
        <time>2026-08-04T10:59:59.132Z</time>
      </trkpt>
      <trkpt lat="45.9273" lon="6.86009">
        <ele>1249</ele>
        <time>2026-08-04T11:00:00.132Z</time>
      </trkpt>
      <trkpt lat="45.92729" lon="6.86008">
        <ele>1249</ele>
        <time>2026-08-04T11:00:01.132Z</time>
      </trkpt>
      <trkpt lat="45.92728" lon="6.86006">
        <ele>1250</ele>
        <time>2026-08-04T11:00:02.132Z</time>
      </trkpt>
      <trkpt lat="45.92727" lon="6.86004">
        <ele>1250</ele>
        <time>2026-08-04T11:00:03.132Z</time>
      </trkpt>
      <trkpt lat="45.92726" lon="6.86002">
        <ele>1250</ele>
        <time>2026-08-04T11:00:04.132Z</time>
      </trkpt>
      <trkpt lat="45.92724" lon="6.85999">
        <ele>1251</ele>
        <time>2026-08-04T11:00:05.132Z</time>
      </trkpt>
      <trkpt lat="45.92723" lon="6.85998">
        <ele>1251</ele>
        <time>2026-08-04T11:00:06.132Z</time>
      </trkpt>
      <trkpt lat="45.92723" lon="6.85995">
        <ele>1251</ele>
        <time>2026-08-04T11:00:07.132Z</time>
      </trkpt>
      <trkpt lat="45.92722" lon="6.85993">
        <ele>1251</ele>
        <time>2026-08-04T11:00:08.132Z</time>
      </trkpt>
      <trkpt lat="45.92721" lon="6.85991">
        <ele>1251</ele>
        <time>2026-08-04T11:00:09.132Z</time>
      </trkpt>
      <trkpt lat="45.92719" lon="6.85989">
        <ele>1251</ele>
        <time>2026-08-04T11:00:10.132Z</time>
      </trkpt>
      <trkpt lat="45.92717" lon="6.85987">
        <ele>1252</ele>
        <time>2026-08-04T11:00:11.132Z</time>
      </trkpt>
      <trkpt lat="45.92716" lon="6.85986">
        <ele>1252</ele>
        <time>2026-08-04T11:00:12.132Z</time>
      </trkpt>
      <trkpt lat="45.92714" lon="6.85985">
        <ele>1252</ele>
        <time>2026-08-04T11:00:13.132Z</time>
      </trkpt>
      <trkpt lat="45.92713" lon="6.85983">
        <ele>1252</ele>
        <time>2026-08-04T11:00:14.132Z</time>
      </trkpt>
      <trkpt lat="45.92711" lon="6.85982">
        <ele>1252</ele>
        <time>2026-08-04T11:00:15.132Z</time>
      </trkpt>
      <trkpt lat="45.92709" lon="6.85981">
        <ele>1252</ele>
        <time>2026-08-04T11:00:16.132Z</time>
      </trkpt>
      <trkpt lat="45.92708" lon="6.8598">
        <ele>1252</ele>
        <time>2026-08-04T11:00:17.132Z</time>
      </trkpt>
      <trkpt lat="45.92707" lon="6.85978">
        <ele>1253</ele>
        <time>2026-08-04T11:00:18.132Z</time>
      </trkpt>
      <trkpt lat="45.92705" lon="6.85976">
        <ele>1253</ele>
        <time>2026-08-04T11:00:19.132Z</time>
      </trkpt>
      <trkpt lat="45.92704" lon="6.85974">
        <ele>1253</ele>
        <time>2026-08-04T11:00:20.132Z</time>
      </trkpt>
      <trkpt lat="45.92703" lon="6.85972">
        <ele>1253</ele>
        <time>2026-08-04T11:00:21.132Z</time>
      </trkpt>
      <trkpt lat="45.92703" lon="6.8597">
        <ele>1253</ele>
        <time>2026-08-04T11:00:22.132Z</time>
      </trkpt>
      <trkpt lat="45.92702" lon="6.85968">
        <ele>1253</ele>
        <time>2026-08-04T11:00:23.132Z</time>
      </trkpt>
      <trkpt lat="45.927" lon="6.85965">
        <ele>1253</ele>
        <time>2026-08-04T11:00:24.132Z</time>
      </trkpt>
      <trkpt lat="45.92698" lon="6.85964">
        <ele>1253</ele>
        <time>2026-08-04T11:00:25.132Z</time>
      </trkpt>
      <trkpt lat="45.92697" lon="6.85962">
        <ele>1253</ele>
        <time>2026-08-04T11:00:26.132Z</time>
      </trkpt>
      <trkpt lat="45.92696" lon="6.8596">
        <ele>1253</ele>
        <time>2026-08-04T11:00:27.132Z</time>
      </trkpt>
      <trkpt lat="45.92694" lon="6.85957">
        <ele>1253</ele>
        <time>2026-08-04T11:00:28.132Z</time>
      </trkpt>
      <trkpt lat="45.92692" lon="6.85956">
        <ele>1253</ele>
        <time>2026-08-04T11:00:29.132Z</time>
      </trkpt>
      <trkpt lat="45.92691" lon="6.85953">
        <ele>1253</ele>
        <time>2026-08-04T11:00:30.132Z</time>
      </trkpt>
      <trkpt lat="45.92689" lon="6.8595">
        <ele>1252</ele>
        <time>2026-08-04T11:00:31.132Z</time>
      </trkpt>
      <trkpt lat="45.92689" lon="6.85948">
        <ele>1252</ele>
        <time>2026-08-04T11:00:32.132Z</time>
      </trkpt>
      <trkpt lat="45.92688" lon="6.85946">
        <ele>1252</ele>
        <time>2026-08-04T11:00:33.132Z</time>
      </trkpt>
      <trkpt lat="45.92687" lon="6.85944">
        <ele>1252</ele>
        <time>2026-08-04T11:00:34.132Z</time>
      </trkpt>
      <trkpt lat="45.92686" lon="6.85941">
        <ele>1252</ele>
        <time>2026-08-04T11:00:35.132Z</time>
      </trkpt>
      <trkpt lat="45.92684" lon="6.85938">
        <ele>1252</ele>
        <time>2026-08-04T11:00:36.132Z</time>
      </trkpt>
      <trkpt lat="45.92683" lon="6.85936">
        <ele>1252</ele>
        <time>2026-08-04T11:00:37.132Z</time>
      </trkpt>
      <trkpt lat="45.92682" lon="6.85934">
        <ele>1252</ele>
        <time>2026-08-04T11:00:38.132Z</time>
      </trkpt>
      <trkpt lat="45.92681" lon="6.85932">
        <ele>1252</ele>
        <time>2026-08-04T11:00:39.132Z</time>
      </trkpt>
      <trkpt lat="45.92679" lon="6.8593">
        <ele>1253</ele>
        <time>2026-08-04T11:00:40.132Z</time>
      </trkpt>
      <trkpt lat="45.92676" lon="6.85929">
        <ele>1253</ele>
        <time>2026-08-04T11:00:41.132Z</time>
      </trkpt>
      <trkpt lat="45.92674" lon="6.85927">
        <ele>1253</ele>
        <time>2026-08-04T11:00:42.132Z</time>
      </trkpt>
      <trkpt lat="45.92673" lon="6.85925">
        <ele>1254</ele>
        <time>2026-08-04T11:00:43.132Z</time>
      </trkpt>
      <trkpt lat="45.92672" lon="6.85922">
        <ele>1254</ele>
        <time>2026-08-04T11:00:44.132Z</time>
      </trkpt>
      <trkpt lat="45.92672" lon="6.85919">
        <ele>1254</ele>
        <time>2026-08-04T11:00:45.132Z</time>
      </trkpt>
      <trkpt lat="45.92672" lon="6.85917">
        <ele>1254</ele>
        <time>2026-08-04T11:00:46.132Z</time>
      </trkpt>
      <trkpt lat="45.92671" lon="6.85914">
        <ele>1254</ele>
        <time>2026-08-04T11:00:47.132Z</time>
      </trkpt>
      <trkpt lat="45.9267" lon="6.85913">
        <ele>1254</ele>
        <time>2026-08-04T11:00:48.132Z</time>
      </trkpt>
      <trkpt lat="45.9267" lon="6.85911">
        <ele>1254</ele>
        <time>2026-08-04T11:00:49.132Z</time>
      </trkpt>
      <trkpt lat="45.92669" lon="6.85907">
        <ele>1255</ele>
        <time>2026-08-04T11:00:50.132Z</time>
      </trkpt>
      <trkpt lat="45.92668" lon="6.85905">
        <ele>1255</ele>
        <time>2026-08-04T11:00:51.132Z</time>
      </trkpt>
      <trkpt lat="45.92667" lon="6.85903">
        <ele>1255</ele>
        <time>2026-08-04T11:00:52.132Z</time>
      </trkpt>
      <trkpt lat="45.92665" lon="6.85901">
        <ele>1256</ele>
        <time>2026-08-04T11:00:53.132Z</time>
      </trkpt>
      <trkpt lat="45.92663" lon="6.85899">
        <ele>1256</ele>
        <time>2026-08-04T11:00:54.132Z</time>
      </trkpt>
      <trkpt lat="45.92662" lon="6.85896">
        <ele>1256</ele>
        <time>2026-08-04T11:00:55.132Z</time>
      </trkpt>
      <trkpt lat="45.92662" lon="6.85894">
        <ele>1256</ele>
        <time>2026-08-04T11:00:56.132Z</time>
      </trkpt>
      <trkpt lat="45.92661" lon="6.85891">
        <ele>1256</ele>
        <time>2026-08-04T11:00:57.132Z</time>
      </trkpt>
      <trkpt lat="45.9266" lon="6.85888">
        <ele>1257</ele>
        <time>2026-08-04T11:00:58.132Z</time>
      </trkpt>
      <trkpt lat="45.92658" lon="6.85885">
        <ele>1257</ele>
        <time>2026-08-04T11:00:59.132Z</time>
      </trkpt>
      <trkpt lat="45.92657" lon="6.85884">
        <ele>1258</ele>
        <time>2026-08-04T11:01:00.132Z</time>
      </trkpt>
      <trkpt lat="45.92656" lon="6.85883">
        <ele>1258</ele>
        <time>2026-08-04T11:01:01.132Z</time>
      </trkpt>
      <trkpt lat="45.92655" lon="6.85882">
        <ele>1259</ele>
        <time>2026-08-04T11:01:02.132Z</time>
      </trkpt>
      <trkpt lat="45.92653" lon="6.85882">
        <ele>1259</ele>
        <time>2026-08-04T11:01:03.132Z</time>
      </trkpt>
      <trkpt lat="45.92649" lon="6.85882">
        <ele>1260</ele>
        <time>2026-08-04T11:01:04.132Z</time>
      </trkpt>
      <trkpt lat="45.92647" lon="6.85884">
        <ele>1260</ele>
        <time>2026-08-04T11:01:05.132Z</time>
      </trkpt>
      <trkpt lat="45.92645" lon="6.85884">
        <ele>1260</ele>
        <time>2026-08-04T11:01:06.132Z</time>
      </trkpt>
      <trkpt lat="45.92643" lon="6.85884">
        <ele>1260</ele>
        <time>2026-08-04T11:01:07.132Z</time>
      </trkpt>
      <trkpt lat="45.92641" lon="6.85883">
        <ele>1261</ele>
        <time>2026-08-04T11:01:08.132Z</time>
      </trkpt>
      <trkpt lat="45.9264" lon="6.85882">
        <ele>1260</ele>
        <time>2026-08-04T11:01:09.132Z</time>
      </trkpt>
      <trkpt lat="45.92638" lon="6.8588">
        <ele>1261</ele>
        <time>2026-08-04T11:01:10.132Z</time>
      </trkpt>
      <trkpt lat="45.92636" lon="6.85878">
        <ele>1261</ele>
        <time>2026-08-04T11:01:11.132Z</time>
      </trkpt>
      <trkpt lat="45.92633" lon="6.85878">
        <ele>1261</ele>
        <time>2026-08-04T11:01:12.132Z</time>
      </trkpt>
      <trkpt lat="45.92632" lon="6.85876">
        <ele>1261</ele>
        <time>2026-08-04T11:01:13.132Z</time>
      </trkpt>
      <trkpt lat="45.92631" lon="6.85874">
        <ele>1262</ele>
        <time>2026-08-04T11:01:14.132Z</time>
      </trkpt>
      <trkpt lat="45.92631" lon="6.85872">
        <ele>1262</ele>
        <time>2026-08-04T11:01:15.132Z</time>
      </trkpt>
      <trkpt lat="45.9263" lon="6.85869">
        <ele>1262</ele>
        <time>2026-08-04T11:01:16.132Z</time>
      </trkpt>
      <trkpt lat="45.92629" lon="6.85867">
        <ele>1261</ele>
        <time>2026-08-04T11:01:17.132Z</time>
      </trkpt>
      <trkpt lat="45.92627" lon="6.85865">
        <ele>1261</ele>
        <time>2026-08-04T11:01:18.132Z</time>
      </trkpt>
      <trkpt lat="45.92625" lon="6.85864">
        <ele>1261</ele>
        <time>2026-08-04T11:01:19.132Z</time>
      </trkpt>
      <trkpt lat="45.92625" lon="6.85862">
        <ele>1261</ele>
        <time>2026-08-04T11:01:20.132Z</time>
      </trkpt>
      <trkpt lat="45.92623" lon="6.8586">
        <ele>1261</ele>
        <time>2026-08-04T11:01:21.132Z</time>
      </trkpt>
      <trkpt lat="45.92622" lon="6.85859">
        <ele>1261</ele>
        <time>2026-08-04T11:01:22.132Z</time>
      </trkpt>
      <trkpt lat="45.92621" lon="6.85857">
        <ele>1261</ele>
        <time>2026-08-04T11:01:23.132Z</time>
      </trkpt>
      <trkpt lat="45.9262" lon="6.85856">
        <ele>1261</ele>
        <time>2026-08-04T11:01:24.132Z</time>
      </trkpt>
      <trkpt lat="45.92618" lon="6.85855">
        <ele>1262</ele>
        <time>2026-08-04T11:01:25.132Z</time>
      </trkpt>
      <trkpt lat="45.92616" lon="6.85854">
        <ele>1261</ele>
        <time>2026-08-04T11:01:26.132Z</time>
      </trkpt>
      <trkpt lat="45.92614" lon="6.85852">
        <ele>1261</ele>
        <time>2026-08-04T11:01:27.132Z</time>
      </trkpt>
      <trkpt lat="45.92612" lon="6.8585">
        <ele>1261</ele>
        <time>2026-08-04T11:01:28.132Z</time>
      </trkpt>
      <trkpt lat="45.9261" lon="6.85848">
        <ele>1260</ele>
        <time>2026-08-04T11:01:29.132Z</time>
      </trkpt>
      <trkpt lat="45.92608" lon="6.85846">
        <ele>1260</ele>
        <time>2026-08-04T11:01:30.132Z</time>
      </trkpt>
      <trkpt lat="45.92607" lon="6.85844">
        <ele>1259</ele>
        <time>2026-08-04T11:01:31.132Z</time>
      </trkpt>
      <trkpt lat="45.92605" lon="6.85841">
        <ele>1258</ele>
        <time>2026-08-04T11:01:32.132Z</time>
      </trkpt>
      <trkpt lat="45.92604" lon="6.85838">
        <ele>1258</ele>
        <time>2026-08-04T11:01:33.132Z</time>
      </trkpt>
      <trkpt lat="45.92602" lon="6.85835">
        <ele>1257</ele>
        <time>2026-08-04T11:01:34.132Z</time>
      </trkpt>
      <trkpt lat="45.92601" lon="6.85833">
        <ele>1256</ele>
        <time>2026-08-04T11:01:35.132Z</time>
      </trkpt>
      <trkpt lat="45.926" lon="6.85831">
        <ele>1256</ele>
        <time>2026-08-04T11:01:36.132Z</time>
      </trkpt>
      <trkpt lat="45.926" lon="6.85828">
        <ele>1255</ele>
        <time>2026-08-04T11:01:37.132Z</time>
      </trkpt>
      <trkpt lat="45.92599" lon="6.85825">
        <ele>1255</ele>
        <time>2026-08-04T11:01:38.132Z</time>
      </trkpt>
      <trkpt lat="45.92598" lon="6.85823">
        <ele>1255</ele>
        <time>2026-08-04T11:01:39.132Z</time>
      </trkpt>
      <trkpt lat="45.92597" lon="6.8582">
        <ele>1255</ele>
        <time>2026-08-04T11:01:40.132Z</time>
      </trkpt>
      <trkpt lat="45.92596" lon="6.85817">
        <ele>1255</ele>
        <time>2026-08-04T11:01:41.132Z</time>
      </trkpt>
      <trkpt lat="45.92596" lon="6.85813">
        <ele>1255</ele>
        <time>2026-08-04T11:01:42.132Z</time>
      </trkpt>
      <trkpt lat="45.92594" lon="6.85811">
        <ele>1255</ele>
        <time>2026-08-04T11:01:43.132Z</time>
      </trkpt>
      <trkpt lat="45.92592" lon="6.85809">
        <ele>1255</ele>
        <time>2026-08-04T11:01:44.132Z</time>
      </trkpt>
      <trkpt lat="45.9259" lon="6.85808">
        <ele>1255</ele>
        <time>2026-08-04T11:01:45.132Z</time>
      </trkpt>
      <trkpt lat="45.92587" lon="6.85806">
        <ele>1255</ele>
        <time>2026-08-04T11:01:46.132Z</time>
      </trkpt>
      <trkpt lat="45.92583" lon="6.85806">
        <ele>1255</ele>
        <time>2026-08-04T11:01:47.132Z</time>
      </trkpt>
      <trkpt lat="45.92581" lon="6.85805">
        <ele>1255</ele>
        <time>2026-08-04T11:01:48.132Z</time>
      </trkpt>
      <trkpt lat="45.92578" lon="6.85804">
        <ele>1255</ele>
        <time>2026-08-04T11:01:49.132Z</time>
      </trkpt>
      <trkpt lat="45.92575" lon="6.85802">
        <ele>1255</ele>
        <time>2026-08-04T11:01:50.132Z</time>
      </trkpt>
      <trkpt lat="45.92574" lon="6.85798">
        <ele>1255</ele>
        <time>2026-08-04T11:01:51.132Z</time>
      </trkpt>
      <trkpt lat="45.92573" lon="6.85795">
        <ele>1255</ele>
        <time>2026-08-04T11:01:52.132Z</time>
      </trkpt>
      <trkpt lat="45.92572" lon="6.85792">
        <ele>1255</ele>
        <time>2026-08-04T11:01:53.132Z</time>
      </trkpt>
      <trkpt lat="45.92571" lon="6.85789">
        <ele>1255</ele>
        <time>2026-08-04T11:01:54.132Z</time>
      </trkpt>
      <trkpt lat="45.9257" lon="6.85785">
        <ele>1255</ele>
        <time>2026-08-04T11:01:55.132Z</time>
      </trkpt>
      <trkpt lat="45.92569" lon="6.85783">
        <ele>1254</ele>
        <time>2026-08-04T11:01:56.132Z</time>
      </trkpt>
      <trkpt lat="45.92568" lon="6.8578">
        <ele>1254</ele>
        <time>2026-08-04T11:01:57.132Z</time>
      </trkpt>
      <trkpt lat="45.92568" lon="6.85777">
        <ele>1253</ele>
        <time>2026-08-04T11:01:58.132Z</time>
      </trkpt>
      <trkpt lat="45.92567" lon="6.85774">
        <ele>1252</ele>
        <time>2026-08-04T11:01:59.132Z</time>
      </trkpt>
      <trkpt lat="45.92568" lon="6.85771">
        <ele>1252</ele>
        <time>2026-08-04T11:02:00.132Z</time>
      </trkpt>
      <trkpt lat="45.92568" lon="6.85768">
        <ele>1251</ele>
        <time>2026-08-04T11:02:01.132Z</time>
      </trkpt>
      <trkpt lat="45.92569" lon="6.85765">
        <ele>1250</ele>
        <time>2026-08-04T11:02:02.132Z</time>
      </trkpt>
      <trkpt lat="45.92569" lon="6.85762">
        <ele>1250</ele>
        <time>2026-08-04T11:02:03.132Z</time>
      </trkpt>
      <trkpt lat="45.9257" lon="6.85759">
        <ele>1250</ele>
        <time>2026-08-04T11:02:04.132Z</time>
      </trkpt>
      <trkpt lat="45.92571" lon="6.85756">
        <ele>1250</ele>
        <time>2026-08-04T11:02:05.132Z</time>
      </trkpt>
      <trkpt lat="45.92572" lon="6.85752">
        <ele>1250</ele>
        <time>2026-08-04T11:02:06.132Z</time>
      </trkpt>
      <trkpt lat="45.92573" lon="6.85748">
        <ele>1250</ele>
        <time>2026-08-04T11:02:07.132Z</time>
      </trkpt>
      <trkpt lat="45.92573" lon="6.85745">
        <ele>1250</ele>
        <time>2026-08-04T11:02:08.132Z</time>
      </trkpt>
      <trkpt lat="45.92574" lon="6.85741">
        <ele>1250</ele>
        <time>2026-08-04T11:02:09.132Z</time>
      </trkpt>
      <trkpt lat="45.92574" lon="6.85738">
        <ele>1250</ele>
        <time>2026-08-04T11:02:10.132Z</time>
      </trkpt>
      <trkpt lat="45.92574" lon="6.85735">
        <ele>1250</ele>
        <time>2026-08-04T11:02:11.132Z</time>
      </trkpt>
      <trkpt lat="45.92574" lon="6.85734">
        <ele>1250</ele>
        <time>2026-08-04T11:02:12.132Z</time>
      </trkpt>
      <trkpt lat="45.92573" lon="6.85734">
        <ele>1250</ele>
        <time>2026-08-04T11:02:13.132Z</time>
      </trkpt>
      <trkpt lat="45.92573" lon="6.85734">
        <ele>1250</ele>
        <time>2026-08-04T11:02:14.132Z</time>
      </trkpt>
      <trkpt lat="45.92573" lon="6.85732">
        <ele>1251</ele>
        <time>2026-08-04T11:02:15.132Z</time>
      </trkpt>
      <trkpt lat="45.92573" lon="6.8573">
        <ele>1251</ele>
        <time>2026-08-04T11:02:16.132Z</time>
      </trkpt>
      <trkpt lat="45.92573" lon="6.85729">
        <ele>1251</ele>
        <time>2026-08-04T11:02:17.132Z</time>
      </trkpt>
      <trkpt lat="45.92573" lon="6.85727">
        <ele>1252</ele>
        <time>2026-08-04T11:02:18.132Z</time>
      </trkpt>
      <trkpt lat="45.92573" lon="6.85725">
        <ele>1252</ele>
        <time>2026-08-04T11:02:19.132Z</time>
      </trkpt>
      <trkpt lat="45.92573" lon="6.85722">
        <ele>1252</ele>
        <time>2026-08-04T11:02:20.132Z</time>
      </trkpt>
      <trkpt lat="45.92573" lon="6.8572">
        <ele>1253</ele>
        <time>2026-08-04T11:02:21.132Z</time>
      </trkpt>
      <trkpt lat="45.92573" lon="6.85719">
        <ele>1253</ele>
        <time>2026-08-04T11:02:22.132Z</time>
      </trkpt>
      <trkpt lat="45.92573" lon="6.85718">
        <ele>1253</ele>
        <time>2026-08-04T11:02:23.132Z</time>
      </trkpt>
      <trkpt lat="45.92573" lon="6.85716">
        <ele>1253</ele>
        <time>2026-08-04T11:02:24.132Z</time>
      </trkpt>
      <trkpt lat="45.92573" lon="6.85714">
        <ele>1252</ele>
        <time>2026-08-04T11:02:25.132Z</time>
      </trkpt>
      <trkpt lat="45.92574" lon="6.85711">
        <ele>1252</ele>
        <time>2026-08-04T11:02:26.132Z</time>
      </trkpt>
      <trkpt lat="45.92574" lon="6.85709">
        <ele>1251</ele>
        <time>2026-08-04T11:02:27.132Z</time>
      </trkpt>
      <trkpt lat="45.92573" lon="6.85707">
        <ele>1250</ele>
        <time>2026-08-04T11:02:28.132Z</time>
      </trkpt>
      <trkpt lat="45.92573" lon="6.85705">
        <ele>1250</ele>
        <time>2026-08-04T11:02:29.132Z</time>
      </trkpt>
      <trkpt lat="45.92573" lon="6.85703">
        <ele>1249</ele>
        <time>2026-08-04T11:02:30.132Z</time>
      </trkpt>
      <trkpt lat="45.92573" lon="6.857">
        <ele>1249</ele>
        <time>2026-08-04T11:02:31.132Z</time>
      </trkpt>
      <trkpt lat="45.92573" lon="6.85699">
        <ele>1249</ele>
        <time>2026-08-04T11:02:32.132Z</time>
      </trkpt>
      <trkpt lat="45.92573" lon="6.85697">
        <ele>1248</ele>
        <time>2026-08-04T11:02:33.132Z</time>
      </trkpt>
      <trkpt lat="45.92572" lon="6.85696">
        <ele>1248</ele>
        <time>2026-08-04T11:02:34.132Z</time>
      </trkpt>
      <trkpt lat="45.92572" lon="6.85694">
        <ele>1248</ele>
        <time>2026-08-04T11:02:35.132Z</time>
      </trkpt>
      <trkpt lat="45.92571" lon="6.85693">
        <ele>1248</ele>
        <time>2026-08-04T11:02:36.132Z</time>
      </trkpt>
      <trkpt lat="45.92571" lon="6.85692">
        <ele>1248</ele>
        <time>2026-08-04T11:02:37.132Z</time>
      </trkpt>
      <trkpt lat="45.9257" lon="6.85691">
        <ele>1248</ele>
        <time>2026-08-04T11:02:38.132Z</time>
      </trkpt>
      <trkpt lat="45.9257" lon="6.85689">
        <ele>1248</ele>
        <time>2026-08-04T11:02:39.132Z</time>
      </trkpt>
      <trkpt lat="45.92569" lon="6.85689">
        <ele>1248</ele>
        <time>2026-08-04T11:02:40.132Z</time>
      </trkpt>
      <trkpt lat="45.92568" lon="6.85687">
        <ele>1248</ele>
        <time>2026-08-04T11:02:41.132Z</time>
      </trkpt>
      <trkpt lat="45.92567" lon="6.85687">
        <ele>1248</ele>
        <time>2026-08-04T11:02:42.132Z</time>
      </trkpt>
      <trkpt lat="45.92566" lon="6.85686">
        <ele>1248</ele>
        <time>2026-08-04T11:02:43.132Z</time>
      </trkpt>
      <trkpt lat="45.92565" lon="6.85684">
        <ele>1249</ele>
        <time>2026-08-04T11:02:44.132Z</time>
      </trkpt>
      <trkpt lat="45.92564" lon="6.85682">
        <ele>1249</ele>
        <time>2026-08-04T11:02:45.132Z</time>
      </trkpt>
      <trkpt lat="45.92564" lon="6.8568">
        <ele>1250</ele>
        <time>2026-08-04T11:02:46.132Z</time>
      </trkpt>
      <trkpt lat="45.92563" lon="6.85677">
        <ele>1250</ele>
        <time>2026-08-04T11:02:47.132Z</time>
      </trkpt>
      <trkpt lat="45.92562" lon="6.85675">
        <ele>1251</ele>
        <time>2026-08-04T11:02:48.132Z</time>
      </trkpt>
      <trkpt lat="45.92561" lon="6.85673">
        <ele>1251</ele>
        <time>2026-08-04T11:02:49.132Z</time>
      </trkpt>
      <trkpt lat="45.9256" lon="6.85672">
        <ele>1252</ele>
        <time>2026-08-04T11:02:50.132Z</time>
      </trkpt>
      <trkpt lat="45.9256" lon="6.8567">
        <ele>1252</ele>
        <time>2026-08-04T11:02:51.132Z</time>
      </trkpt>
      <trkpt lat="45.92559" lon="6.85669">
        <ele>1253</ele>
        <time>2026-08-04T11:02:52.133Z</time>
      </trkpt>
      <trkpt lat="45.92558" lon="6.85668">
        <ele>1253</ele>
        <time>2026-08-04T11:02:53.132Z</time>
      </trkpt>
      <trkpt lat="45.92557" lon="6.85667">
        <ele>1254</ele>
        <time>2026-08-04T11:02:54.132Z</time>
      </trkpt>
      <trkpt lat="45.92557" lon="6.85665">
        <ele>1254</ele>
        <time>2026-08-04T11:02:55.132Z</time>
      </trkpt>
      <trkpt lat="45.92556" lon="6.85663">
        <ele>1254</ele>
        <time>2026-08-04T11:02:56.132Z</time>
      </trkpt>
      <trkpt lat="45.92556" lon="6.85662">
        <ele>1254</ele>
        <time>2026-08-04T11:02:57.132Z</time>
      </trkpt>
      <trkpt lat="45.92556" lon="6.85661">
        <ele>1254</ele>
        <time>2026-08-04T11:02:58.132Z</time>
      </trkpt>
      <trkpt lat="45.92555" lon="6.85659">
        <ele>1254</ele>
        <time>2026-08-04T11:02:59.132Z</time>
      </trkpt>
      <trkpt lat="45.92556" lon="6.85657">
        <ele>1254</ele>
        <time>2026-08-04T11:03:00.132Z</time>
      </trkpt>
      <trkpt lat="45.92555" lon="6.85655">
        <ele>1254</ele>
        <time>2026-08-04T11:03:01.132Z</time>
      </trkpt>
      <trkpt lat="45.92555" lon="6.85653">
        <ele>1254</ele>
        <time>2026-08-04T11:03:02.132Z</time>
      </trkpt>
      <trkpt lat="45.92554" lon="6.85652">
        <ele>1255</ele>
        <time>2026-08-04T11:03:03.132Z</time>
      </trkpt>
      <trkpt lat="45.92553" lon="6.85651">
        <ele>1255</ele>
        <time>2026-08-04T11:03:04.132Z</time>
      </trkpt>
      <trkpt lat="45.92552" lon="6.8565">
        <ele>1255</ele>
        <time>2026-08-04T11:03:05.132Z</time>
      </trkpt>
      <trkpt lat="45.92552" lon="6.85648">
        <ele>1255</ele>
        <time>2026-08-04T11:03:06.132Z</time>
      </trkpt>
      <trkpt lat="45.92551" lon="6.85647">
        <ele>1255</ele>
        <time>2026-08-04T11:03:07.132Z</time>
      </trkpt>
      <trkpt lat="45.92551" lon="6.85644">
        <ele>1255</ele>
        <time>2026-08-04T11:03:08.132Z</time>
      </trkpt>
      <trkpt lat="45.92552" lon="6.85642">
        <ele>1255</ele>
        <time>2026-08-04T11:03:09.132Z</time>
      </trkpt>
      <trkpt lat="45.92553" lon="6.8564">
        <ele>1255</ele>
        <time>2026-08-04T11:03:10.132Z</time>
      </trkpt>
      <trkpt lat="45.92552" lon="6.85638">
        <ele>1255</ele>
        <time>2026-08-04T11:03:11.132Z</time>
      </trkpt>
      <trkpt lat="45.92552" lon="6.85636">
        <ele>1255</ele>
        <time>2026-08-04T11:03:12.132Z</time>
      </trkpt>
      <trkpt lat="45.92553" lon="6.85634">
        <ele>1256</ele>
        <time>2026-08-04T11:03:13.132Z</time>
      </trkpt>
      <trkpt lat="45.92553" lon="6.85632">
        <ele>1256</ele>
        <time>2026-08-04T11:03:14.132Z</time>
      </trkpt>
      <trkpt lat="45.92553" lon="6.85631">
        <ele>1257</ele>
        <time>2026-08-04T11:03:15.132Z</time>
      </trkpt>
      <trkpt lat="45.92552" lon="6.8563">
        <ele>1257</ele>
        <time>2026-08-04T11:03:16.132Z</time>
      </trkpt>
      <trkpt lat="45.92551" lon="6.8563">
        <ele>1258</ele>
        <time>2026-08-04T11:03:17.132Z</time>
      </trkpt>
      <trkpt lat="45.9255" lon="6.85628">
        <ele>1259</ele>
        <time>2026-08-04T11:03:18.132Z</time>
      </trkpt>
      <trkpt lat="45.92549" lon="6.85627">
        <ele>1259</ele>
        <time>2026-08-04T11:03:19.132Z</time>
      </trkpt>
      <trkpt lat="45.92549" lon="6.85626">
        <ele>1260</ele>
        <time>2026-08-04T11:03:20.132Z</time>
      </trkpt>
      <trkpt lat="45.92548" lon="6.85625">
        <ele>1260</ele>
        <time>2026-08-04T11:03:21.132Z</time>
      </trkpt>
      <trkpt lat="45.92547" lon="6.85623">
        <ele>1260</ele>
        <time>2026-08-04T11:03:22.132Z</time>
      </trkpt>
      <trkpt lat="45.92547" lon="6.85622">
        <ele>1261</ele>
        <time>2026-08-04T11:03:23.132Z</time>
      </trkpt>
      <trkpt lat="45.92545" lon="6.85621">
        <ele>1261</ele>
        <time>2026-08-04T11:03:24.132Z</time>
      </trkpt>
      <trkpt lat="45.92544" lon="6.8562">
        <ele>1261</ele>
        <time>2026-08-04T11:03:25.132Z</time>
      </trkpt>
      <trkpt lat="45.92544" lon="6.85618">
        <ele>1262</ele>
        <time>2026-08-04T11:03:26.132Z</time>
      </trkpt>
      <trkpt lat="45.92543" lon="6.85616">
        <ele>1262</ele>
        <time>2026-08-04T11:03:27.132Z</time>
      </trkpt>
      <trkpt lat="45.92542" lon="6.85615">
        <ele>1262</ele>
        <time>2026-08-04T11:03:28.132Z</time>
      </trkpt>
      <trkpt lat="45.92541" lon="6.85614">
        <ele>1263</ele>
        <time>2026-08-04T11:03:29.132Z</time>
      </trkpt>
      <trkpt lat="45.92539" lon="6.85613">
        <ele>1263</ele>
        <time>2026-08-04T11:03:30.132Z</time>
      </trkpt>
      <trkpt lat="45.92539" lon="6.85612">
        <ele>1263</ele>
        <time>2026-08-04T11:03:31.132Z</time>
      </trkpt>
      <trkpt lat="45.92538" lon="6.85611">
        <ele>1263</ele>
        <time>2026-08-04T11:03:32.132Z</time>
      </trkpt>
      <trkpt lat="45.92537" lon="6.8561">
        <ele>1264</ele>
        <time>2026-08-04T11:03:33.132Z</time>
      </trkpt>
      <trkpt lat="45.92536" lon="6.85608">
        <ele>1264</ele>
        <time>2026-08-04T11:03:34.132Z</time>
      </trkpt>
      <trkpt lat="45.92535" lon="6.85607">
        <ele>1264</ele>
        <time>2026-08-04T11:03:35.132Z</time>
      </trkpt>
      <trkpt lat="45.92535" lon="6.85605">
        <ele>1265</ele>
        <time>2026-08-04T11:03:36.132Z</time>
      </trkpt>
      <trkpt lat="45.92534" lon="6.85603">
        <ele>1265</ele>
        <time>2026-08-04T11:03:37.132Z</time>
      </trkpt>
      <trkpt lat="45.92534" lon="6.85602">
        <ele>1266</ele>
        <time>2026-08-04T11:03:38.132Z</time>
      </trkpt>
      <trkpt lat="45.92534" lon="6.85601">
        <ele>1266</ele>
        <time>2026-08-04T11:03:39.132Z</time>
      </trkpt>
      <trkpt lat="45.92534" lon="6.85601">
        <ele>1266</ele>
        <time>2026-08-04T11:03:40.132Z</time>
      </trkpt>
      <trkpt lat="45.92533" lon="6.856">
        <ele>1266</ele>
        <time>2026-08-04T11:03:41.132Z</time>
      </trkpt>
      <trkpt lat="45.92533" lon="6.85599">
        <ele>1267</ele>
        <time>2026-08-04T11:03:42.132Z</time>
      </trkpt>
      <trkpt lat="45.92532" lon="6.85598">
        <ele>1267</ele>
        <time>2026-08-04T11:03:43.132Z</time>
      </trkpt>
      <trkpt lat="45.92532" lon="6.85596">
        <ele>1267</ele>
        <time>2026-08-04T11:03:44.132Z</time>
      </trkpt>
      <trkpt lat="45.92531" lon="6.85595">
        <ele>1268</ele>
        <time>2026-08-04T11:03:45.132Z</time>
      </trkpt>
      <trkpt lat="45.92531" lon="6.85593">
        <ele>1268</ele>
        <time>2026-08-04T11:03:46.132Z</time>
      </trkpt>
      <trkpt lat="45.92531" lon="6.85591">
        <ele>1269</ele>
        <time>2026-08-04T11:03:47.132Z</time>
      </trkpt>
      <trkpt lat="45.9253" lon="6.8559">
        <ele>1270</ele>
        <time>2026-08-04T11:03:48.132Z</time>
      </trkpt>
      <trkpt lat="45.9253" lon="6.85589">
        <ele>1270</ele>
        <time>2026-08-04T11:03:49.132Z</time>
      </trkpt>
      <trkpt lat="45.9253" lon="6.85587">
        <ele>1270</ele>
        <time>2026-08-04T11:03:50.132Z</time>
      </trkpt>
      <trkpt lat="45.92529" lon="6.85585">
        <ele>1271</ele>
        <time>2026-08-04T11:03:51.132Z</time>
      </trkpt>
      <trkpt lat="45.92528" lon="6.85583">
        <ele>1271</ele>
        <time>2026-08-04T11:03:52.132Z</time>
      </trkpt>
      <trkpt lat="45.92528" lon="6.85581">
        <ele>1271</ele>
        <time>2026-08-04T11:03:53.132Z</time>
      </trkpt>
      <trkpt lat="45.92528" lon="6.85579">
        <ele>1271</ele>
        <time>2026-08-04T11:03:54.132Z</time>
      </trkpt>
      <trkpt lat="45.92528" lon="6.85577">
        <ele>1272</ele>
        <time>2026-08-04T11:03:55.132Z</time>
      </trkpt>
      <trkpt lat="45.92527" lon="6.85575">
        <ele>1272</ele>
        <time>2026-08-04T11:03:56.132Z</time>
      </trkpt>
      <trkpt lat="45.92526" lon="6.85574">
        <ele>1272</ele>
        <time>2026-08-04T11:03:57.132Z</time>
      </trkpt>
      <trkpt lat="45.92525" lon="6.85573">
        <ele>1272</ele>
        <time>2026-08-04T11:03:58.132Z</time>
      </trkpt>
      <trkpt lat="45.92525" lon="6.85571">
        <ele>1271</ele>
        <time>2026-08-04T11:03:59.132Z</time>
      </trkpt>
      <trkpt lat="45.92524" lon="6.85569">
        <ele>1271</ele>
        <time>2026-08-04T11:04:00.132Z</time>
      </trkpt>
      <trkpt lat="45.92524" lon="6.85567">
        <ele>1271</ele>
        <time>2026-08-04T11:04:01.132Z</time>
      </trkpt>
      <trkpt lat="45.92523" lon="6.85565">
        <ele>1271</ele>
        <time>2026-08-04T11:04:02.132Z</time>
      </trkpt>
      <trkpt lat="45.92523" lon="6.85564">
        <ele>1271</ele>
        <time>2026-08-04T11:04:03.132Z</time>
      </trkpt>
      <trkpt lat="45.92522" lon="6.85562">
        <ele>1271</ele>
        <time>2026-08-04T11:04:04.132Z</time>
      </trkpt>
      <trkpt lat="45.92522" lon="6.85559">
        <ele>1270</ele>
        <time>2026-08-04T11:04:05.132Z</time>
      </trkpt>
      <trkpt lat="45.92521" lon="6.85557">
        <ele>1270</ele>
        <time>2026-08-04T11:04:06.132Z</time>
      </trkpt>
      <trkpt lat="45.92519" lon="6.85556">
        <ele>1270</ele>
        <time>2026-08-04T11:04:07.132Z</time>
      </trkpt>
      <trkpt lat="45.92518" lon="6.85554">
        <ele>1270</ele>
        <time>2026-08-04T11:04:08.132Z</time>
      </trkpt>
      <trkpt lat="45.92518" lon="6.85552">
        <ele>1270</ele>
        <time>2026-08-04T11:04:09.132Z</time>
      </trkpt>
      <trkpt lat="45.92517" lon="6.8555">
        <ele>1270</ele>
        <time>2026-08-04T11:04:10.132Z</time>
      </trkpt>
      <trkpt lat="45.92514" lon="6.85548">
        <ele>1270</ele>
        <time>2026-08-04T11:04:11.132Z</time>
      </trkpt>
      <trkpt lat="45.92513" lon="6.85546">
        <ele>1270</ele>
        <time>2026-08-04T11:04:12.132Z</time>
      </trkpt>
      <trkpt lat="45.92511" lon="6.85544">
        <ele>1270</ele>
        <time>2026-08-04T11:04:13.132Z</time>
      </trkpt>
      <trkpt lat="45.9251" lon="6.85543">
        <ele>1270</ele>
        <time>2026-08-04T11:04:14.132Z</time>
      </trkpt>
      <trkpt lat="45.92509" lon="6.85541">
        <ele>1270</ele>
        <time>2026-08-04T11:04:15.132Z</time>
      </trkpt>
      <trkpt lat="45.92507" lon="6.8554">
        <ele>1270</ele>
        <time>2026-08-04T11:04:16.132Z</time>
      </trkpt>
      <trkpt lat="45.92505" lon="6.85538">
        <ele>1270</ele>
        <time>2026-08-04T11:04:17.132Z</time>
      </trkpt>
      <trkpt lat="45.92503" lon="6.85537">
        <ele>1270</ele>
        <time>2026-08-04T11:04:18.132Z</time>
      </trkpt>
      <trkpt lat="45.92502" lon="6.85535">
        <ele>1270</ele>
        <time>2026-08-04T11:04:19.132Z</time>
      </trkpt>
      <trkpt lat="45.925" lon="6.85534">
        <ele>1271</ele>
        <time>2026-08-04T11:04:20.132Z</time>
      </trkpt>
      <trkpt lat="45.92499" lon="6.85533">
        <ele>1271</ele>
        <time>2026-08-04T11:04:21.132Z</time>
      </trkpt>
      <trkpt lat="45.92496" lon="6.85531">
        <ele>1271</ele>
        <time>2026-08-04T11:04:22.132Z</time>
      </trkpt>
      <trkpt lat="45.92495" lon="6.85529">
        <ele>1271</ele>
        <time>2026-08-04T11:04:23.132Z</time>
      </trkpt>
      <trkpt lat="45.92495" lon="6.85527">
        <ele>1271</ele>
        <time>2026-08-04T11:04:24.132Z</time>
      </trkpt>
      <trkpt lat="45.92494" lon="6.85526">
        <ele>1271</ele>
        <time>2026-08-04T11:04:25.132Z</time>
      </trkpt>
      <trkpt lat="45.92493" lon="6.85524">
        <ele>1272</ele>
        <time>2026-08-04T11:04:26.132Z</time>
      </trkpt>
      <trkpt lat="45.92491" lon="6.85523">
        <ele>1272</ele>
        <time>2026-08-04T11:04:27.132Z</time>
      </trkpt>
      <trkpt lat="45.92489" lon="6.85522">
        <ele>1273</ele>
        <time>2026-08-04T11:04:28.132Z</time>
      </trkpt>
      <trkpt lat="45.92487" lon="6.85521">
        <ele>1273</ele>
        <time>2026-08-04T11:04:29.132Z</time>
      </trkpt>
      <trkpt lat="45.92485" lon="6.8552">
        <ele>1273</ele>
        <time>2026-08-04T11:04:30.132Z</time>
      </trkpt>
      <trkpt lat="45.92484" lon="6.85519">
        <ele>1273</ele>
        <time>2026-08-04T11:04:31.132Z</time>
      </trkpt>
      <trkpt lat="45.92481" lon="6.85519">
        <ele>1274</ele>
        <time>2026-08-04T11:04:32.132Z</time>
      </trkpt>
      <trkpt lat="45.92479" lon="6.85518">
        <ele>1274</ele>
        <time>2026-08-04T11:04:33.132Z</time>
      </trkpt>
      <trkpt lat="45.92477" lon="6.85516">
        <ele>1274</ele>
        <time>2026-08-04T11:04:34.132Z</time>
      </trkpt>
      <trkpt lat="45.92475" lon="6.85514">
        <ele>1275</ele>
        <time>2026-08-04T11:04:35.132Z</time>
      </trkpt>
      <trkpt lat="45.92474" lon="6.85511">
        <ele>1275</ele>
        <time>2026-08-04T11:04:36.132Z</time>
      </trkpt>
      <trkpt lat="45.92473" lon="6.8551">
        <ele>1275</ele>
        <time>2026-08-04T11:04:37.132Z</time>
      </trkpt>
      <trkpt lat="45.92473" lon="6.85508">
        <ele>1276</ele>
        <time>2026-08-04T11:04:38.132Z</time>
      </trkpt>
      <trkpt lat="45.92472" lon="6.85506">
        <ele>1276</ele>
        <time>2026-08-04T11:04:39.132Z</time>
      </trkpt>
      <trkpt lat="45.92473" lon="6.85505">
        <ele>1276</ele>
        <time>2026-08-04T11:04:40.132Z</time>
      </trkpt>
      <trkpt lat="45.92473" lon="6.85503">
        <ele>1276</ele>
        <time>2026-08-04T11:04:41.132Z</time>
      </trkpt>
      <trkpt lat="45.92472" lon="6.85502">
        <ele>1277</ele>
        <time>2026-08-04T11:04:42.132Z</time>
      </trkpt>
      <trkpt lat="45.92471" lon="6.85502">
        <ele>1277</ele>
        <time>2026-08-04T11:04:43.132Z</time>
      </trkpt>
      <trkpt lat="45.9247" lon="6.85502">
        <ele>1277</ele>
        <time>2026-08-04T11:04:44.132Z</time>
      </trkpt>
      <trkpt lat="45.9247" lon="6.85501">
        <ele>1278</ele>
        <time>2026-08-04T11:04:45.132Z</time>
      </trkpt>
      <trkpt lat="45.9247" lon="6.85499">
        <ele>1278</ele>
        <time>2026-08-04T11:04:46.132Z</time>
      </trkpt>
      <trkpt lat="45.9247" lon="6.85498">
        <ele>1278</ele>
        <time>2026-08-04T11:04:47.132Z</time>
      </trkpt>
      <trkpt lat="45.92469" lon="6.85497">
        <ele>1279</ele>
        <time>2026-08-04T11:04:48.132Z</time>
      </trkpt>
      <trkpt lat="45.92467" lon="6.85496">
        <ele>1279</ele>
        <time>2026-08-04T11:04:49.132Z</time>
      </trkpt>
      <trkpt lat="45.92466" lon="6.85495">
        <ele>1279</ele>
        <time>2026-08-04T11:04:50.132Z</time>
      </trkpt>
      <trkpt lat="45.92465" lon="6.85493">
        <ele>1280</ele>
        <time>2026-08-04T11:04:51.132Z</time>
      </trkpt>
      <trkpt lat="45.92464" lon="6.85492">
        <ele>1280</ele>
        <time>2026-08-04T11:04:52.132Z</time>
      </trkpt>
      <trkpt lat="45.92463" lon="6.8549">
        <ele>1280</ele>
        <time>2026-08-04T11:04:53.132Z</time>
      </trkpt>
      <trkpt lat="45.92461" lon="6.85488">
        <ele>1280</ele>
        <time>2026-08-04T11:04:54.132Z</time>
      </trkpt>
      <trkpt lat="45.92459" lon="6.85487">
        <ele>1280</ele>
        <time>2026-08-04T11:04:55.132Z</time>
      </trkpt>
      <trkpt lat="45.92457" lon="6.85485">
        <ele>1280</ele>
        <time>2026-08-04T11:04:56.132Z</time>
      </trkpt>
      <trkpt lat="45.92456" lon="6.85484">
        <ele>1280</ele>
        <time>2026-08-04T11:04:57.132Z</time>
      </trkpt>
      <trkpt lat="45.92455" lon="6.85483">
        <ele>1280</ele>
        <time>2026-08-04T11:04:58.132Z</time>
      </trkpt>
      <trkpt lat="45.92454" lon="6.85481">
        <ele>1279</ele>
        <time>2026-08-04T11:04:59.132Z</time>
      </trkpt>
      <trkpt lat="45.92453" lon="6.8548">
        <ele>1279</ele>
        <time>2026-08-04T11:05:00.132Z</time>
      </trkpt>
      <trkpt lat="45.92452" lon="6.85479">
        <ele>1279</ele>
        <time>2026-08-04T11:05:01.132Z</time>
      </trkpt>
      <trkpt lat="45.92451" lon="6.85479">
        <ele>1279</ele>
        <time>2026-08-04T11:05:02.132Z</time>
      </trkpt>
      <trkpt lat="45.92449" lon="6.85478">
        <ele>1279</ele>
        <time>2026-08-04T11:05:03.132Z</time>
      </trkpt>
      <trkpt lat="45.92448" lon="6.85477">
        <ele>1279</ele>
        <time>2026-08-04T11:05:04.132Z</time>
      </trkpt>
      <trkpt lat="45.92446" lon="6.85476">
        <ele>1279</ele>
        <time>2026-08-04T11:05:05.132Z</time>
      </trkpt>
      <trkpt lat="45.92444" lon="6.85475">
        <ele>1279</ele>
        <time>2026-08-04T11:05:06.132Z</time>
      </trkpt>
      <trkpt lat="45.92442" lon="6.85474">
        <ele>1279</ele>
        <time>2026-08-04T11:05:07.132Z</time>
      </trkpt>
      <trkpt lat="45.9244" lon="6.85473">
        <ele>1279</ele>
        <time>2026-08-04T11:05:08.132Z</time>
      </trkpt>
      <trkpt lat="45.92438" lon="6.85472">
        <ele>1280</ele>
        <time>2026-08-04T11:05:09.132Z</time>
      </trkpt>
      <trkpt lat="45.92435" lon="6.85472">
        <ele>1280</ele>
        <time>2026-08-04T11:05:10.132Z</time>
      </trkpt>
      <trkpt lat="45.92432" lon="6.85471">
        <ele>1280</ele>
        <time>2026-08-04T11:05:11.132Z</time>
      </trkpt>
      <trkpt lat="45.92428" lon="6.85471">
        <ele>1280</ele>
        <time>2026-08-04T11:05:12.132Z</time>
      </trkpt>
      <trkpt lat="45.92426" lon="6.85469">
        <ele>1280</ele>
        <time>2026-08-04T11:05:13.132Z</time>
      </trkpt>
      <trkpt lat="45.92424" lon="6.85467">
        <ele>1280</ele>
        <time>2026-08-04T11:05:14.132Z</time>
      </trkpt>
      <trkpt lat="45.92422" lon="6.85466">
        <ele>1279</ele>
        <time>2026-08-04T11:05:15.132Z</time>
      </trkpt>
      <trkpt lat="45.92419" lon="6.85464">
        <ele>1279</ele>
        <time>2026-08-04T11:05:16.132Z</time>
      </trkpt>
      <trkpt lat="45.92417" lon="6.85462">
        <ele>1278</ele>
        <time>2026-08-04T11:05:17.132Z</time>
      </trkpt>
      <trkpt lat="45.92416" lon="6.8546">
        <ele>1278</ele>
        <time>2026-08-04T11:05:18.132Z</time>
      </trkpt>
      <trkpt lat="45.92414" lon="6.85457">
        <ele>1278</ele>
        <time>2026-08-04T11:05:19.132Z</time>
      </trkpt>
      <trkpt lat="45.92413" lon="6.85454">
        <ele>1278</ele>
        <time>2026-08-04T11:05:20.132Z</time>
      </trkpt>
      <trkpt lat="45.92411" lon="6.85452">
        <ele>1278</ele>
        <time>2026-08-04T11:05:21.132Z</time>
      </trkpt>
      <trkpt lat="45.9241" lon="6.85449">
        <ele>1277</ele>
        <time>2026-08-04T11:05:22.132Z</time>
      </trkpt>
      <trkpt lat="45.9241" lon="6.85447">
        <ele>1277</ele>
        <time>2026-08-04T11:05:23.132Z</time>
      </trkpt>
      <trkpt lat="45.92408" lon="6.85444">
        <ele>1277</ele>
        <time>2026-08-04T11:05:24.132Z</time>
      </trkpt>
      <trkpt lat="45.92407" lon="6.85442">
        <ele>1277</ele>
        <time>2026-08-04T11:05:25.132Z</time>
      </trkpt>
      <trkpt lat="45.92406" lon="6.85439">
        <ele>1276</ele>
        <time>2026-08-04T11:05:26.132Z</time>
      </trkpt>
      <trkpt lat="45.92405" lon="6.85436">
        <ele>1276</ele>
        <time>2026-08-04T11:05:27.132Z</time>
      </trkpt>
      <trkpt lat="45.92405" lon="6.85433">
        <ele>1276</ele>
        <time>2026-08-04T11:05:28.132Z</time>
      </trkpt>
      <trkpt lat="45.92404" lon="6.8543">
        <ele>1276</ele>
        <time>2026-08-04T11:05:29.132Z</time>
      </trkpt>
      <trkpt lat="45.92404" lon="6.85427">
        <ele>1275</ele>
        <time>2026-08-04T11:05:30.132Z</time>
      </trkpt>
      <trkpt lat="45.92403" lon="6.85424">
        <ele>1275</ele>
        <time>2026-08-04T11:05:31.132Z</time>
      </trkpt>
      <trkpt lat="45.92402" lon="6.85421">
        <ele>1274</ele>
        <time>2026-08-04T11:05:32.132Z</time>
      </trkpt>
      <trkpt lat="45.92401" lon="6.85419">
        <ele>1274</ele>
        <time>2026-08-04T11:05:33.132Z</time>
      </trkpt>
      <trkpt lat="45.924" lon="6.85416">
        <ele>1273</ele>
        <time>2026-08-04T11:05:34.132Z</time>
      </trkpt>
      <trkpt lat="45.92399" lon="6.85414">
        <ele>1273</ele>
        <time>2026-08-04T11:05:35.132Z</time>
      </trkpt>
      <trkpt lat="45.924" lon="6.8541">
        <ele>1272</ele>
        <time>2026-08-04T11:05:36.132Z</time>
      </trkpt>
      <trkpt lat="45.924" lon="6.85406">
        <ele>1272</ele>
        <time>2026-08-04T11:05:37.132Z</time>
      </trkpt>
      <trkpt lat="45.92401" lon="6.85402">
        <ele>1272</ele>
        <time>2026-08-04T11:05:38.132Z</time>
      </trkpt>
      <trkpt lat="45.92402" lon="6.85398">
        <ele>1272</ele>
        <time>2026-08-04T11:05:39.132Z</time>
      </trkpt>
      <trkpt lat="45.92402" lon="6.85395">
        <ele>1272</ele>
        <time>2026-08-04T11:05:40.132Z</time>
      </trkpt>
      <trkpt lat="45.92402" lon="6.85392">
        <ele>1271</ele>
        <time>2026-08-04T11:05:41.132Z</time>
      </trkpt>
      <trkpt lat="45.92403" lon="6.85389">
        <ele>1271</ele>
        <time>2026-08-04T11:05:42.132Z</time>
      </trkpt>
      <trkpt lat="45.92403" lon="6.85387">
        <ele>1271</ele>
        <time>2026-08-04T11:05:43.132Z</time>
      </trkpt>
      <trkpt lat="45.92403" lon="6.85385">
        <ele>1271</ele>
        <time>2026-08-04T11:05:44.132Z</time>
      </trkpt>
      <trkpt lat="45.92402" lon="6.85383">
        <ele>1271</ele>
        <time>2026-08-04T11:05:45.132Z</time>
      </trkpt>
      <trkpt lat="45.924" lon="6.85381">
        <ele>1271</ele>
        <time>2026-08-04T11:05:46.132Z</time>
      </trkpt>
      <trkpt lat="45.92399" lon="6.85379">
        <ele>1271</ele>
        <time>2026-08-04T11:05:47.132Z</time>
      </trkpt>
      <trkpt lat="45.92397" lon="6.85378">
        <ele>1271</ele>
        <time>2026-08-04T11:05:48.132Z</time>
      </trkpt>
      <trkpt lat="45.92395" lon="6.85376">
        <ele>1271</ele>
        <time>2026-08-04T11:05:49.132Z</time>
      </trkpt>
      <trkpt lat="45.92395" lon="6.85374">
        <ele>1271</ele>
        <time>2026-08-04T11:05:50.132Z</time>
      </trkpt>
      <trkpt lat="45.92394" lon="6.85371">
        <ele>1272</ele>
        <time>2026-08-04T11:05:51.132Z</time>
      </trkpt>
      <trkpt lat="45.92393" lon="6.85369">
        <ele>1272</ele>
        <time>2026-08-04T11:05:52.132Z</time>
      </trkpt>
      <trkpt lat="45.92393" lon="6.85367">
        <ele>1272</ele>
        <time>2026-08-04T11:05:53.132Z</time>
      </trkpt>
      <trkpt lat="45.92392" lon="6.85366">
        <ele>1273</ele>
        <time>2026-08-04T11:05:54.132Z</time>
      </trkpt>
      <trkpt lat="45.92392" lon="6.85362">
        <ele>1273</ele>
        <time>2026-08-04T11:05:55.132Z</time>
      </trkpt>
      <trkpt lat="45.92392" lon="6.8536">
        <ele>1273</ele>
        <time>2026-08-04T11:05:56.132Z</time>
      </trkpt>
      <trkpt lat="45.92391" lon="6.85358">
        <ele>1273</ele>
        <time>2026-08-04T11:05:57.132Z</time>
      </trkpt>
      <trkpt lat="45.9239" lon="6.85357">
        <ele>1274</ele>
        <time>2026-08-04T11:05:58.132Z</time>
      </trkpt>
      <trkpt lat="45.9239" lon="6.85355">
        <ele>1274</ele>
        <time>2026-08-04T11:05:59.132Z</time>
      </trkpt>
      <trkpt lat="45.9239" lon="6.85352">
        <ele>1274</ele>
        <time>2026-08-04T11:06:00.132Z</time>
      </trkpt>
      <trkpt lat="45.92391" lon="6.85348">
        <ele>1273</ele>
        <time>2026-08-04T11:06:01.132Z</time>
      </trkpt>
      <trkpt lat="45.92388" lon="6.85344">
        <ele>1273</ele>
        <time>2026-08-04T11:06:02.132Z</time>
      </trkpt>
      <trkpt lat="45.92384" lon="6.8534">
        <ele>1273</ele>
        <time>2026-08-04T11:06:03.132Z</time>
      </trkpt>
      <trkpt lat="45.92382" lon="6.85338">
        <ele>1272</ele>
        <time>2026-08-04T11:06:04.132Z</time>
      </trkpt>
      <trkpt lat="45.92378" lon="6.85335">
        <ele>1271</ele>
        <time>2026-08-04T11:06:05.132Z</time>
      </trkpt>
      <trkpt lat="45.92376" lon="6.85332">
        <ele>1270</ele>
        <time>2026-08-04T11:06:06.132Z</time>
      </trkpt>
      <trkpt lat="45.92372" lon="6.85331">
        <ele>1269</ele>
        <time>2026-08-04T11:06:07.132Z</time>
      </trkpt>
      <trkpt lat="45.92368" lon="6.85328">
        <ele>1269</ele>
        <time>2026-08-04T11:06:08.132Z</time>
      </trkpt>
      <trkpt lat="45.92365" lon="6.85327">
        <ele>1268</ele>
        <time>2026-08-04T11:06:09.132Z</time>
      </trkpt>
      <trkpt lat="45.92361" lon="6.85328">
        <ele>1268</ele>
        <time>2026-08-04T11:06:10.132Z</time>
      </trkpt>
      <trkpt lat="45.92359" lon="6.85327">
        <ele>1267</ele>
        <time>2026-08-04T11:06:11.132Z</time>
      </trkpt>
      <trkpt lat="45.92356" lon="6.85328">
        <ele>1267</ele>
        <time>2026-08-04T11:06:12.132Z</time>
      </trkpt>
      <trkpt lat="45.92356" lon="6.85325">
        <ele>1267</ele>
        <time>2026-08-04T11:06:13.132Z</time>
      </trkpt>
      <trkpt lat="45.92356" lon="6.85324">
        <ele>1267</ele>
        <time>2026-08-04T11:06:14.132Z</time>
      </trkpt>
      <trkpt lat="45.92356" lon="6.85322">
        <ele>1267</ele>
        <time>2026-08-04T11:06:15.132Z</time>
      </trkpt>
      <trkpt lat="45.92356" lon="6.85319">
        <ele>1267</ele>
        <time>2026-08-04T11:06:16.132Z</time>
      </trkpt>
      <trkpt lat="45.92356" lon="6.85318">
        <ele>1267</ele>
        <time>2026-08-04T11:06:17.132Z</time>
      </trkpt>
      <trkpt lat="45.92355" lon="6.85317">
        <ele>1267</ele>
        <time>2026-08-04T11:06:18.132Z</time>
      </trkpt>
      <trkpt lat="45.92353" lon="6.85316">
        <ele>1267</ele>
        <time>2026-08-04T11:06:19.132Z</time>
      </trkpt>
      <trkpt lat="45.92351" lon="6.85315">
        <ele>1267</ele>
        <time>2026-08-04T11:06:20.132Z</time>
      </trkpt>
      <trkpt lat="45.92351" lon="6.85313">
        <ele>1266</ele>
        <time>2026-08-04T11:06:21.132Z</time>
      </trkpt>
      <trkpt lat="45.9235" lon="6.85311">
        <ele>1266</ele>
        <time>2026-08-04T11:06:22.132Z</time>
      </trkpt>
      <trkpt lat="45.92348" lon="6.85309">
        <ele>1265</ele>
        <time>2026-08-04T11:06:23.132Z</time>
      </trkpt>
      <trkpt lat="45.92346" lon="6.85308">
        <ele>1265</ele>
        <time>2026-08-04T11:06:24.132Z</time>
      </trkpt>
      <trkpt lat="45.92345" lon="6.85307">
        <ele>1265</ele>
        <time>2026-08-04T11:06:25.132Z</time>
      </trkpt>
      <trkpt lat="45.92343" lon="6.85307">
        <ele>1265</ele>
        <time>2026-08-04T11:06:26.132Z</time>
      </trkpt>
      <trkpt lat="45.92342" lon="6.85307">
        <ele>1265</ele>
        <time>2026-08-04T11:06:27.132Z</time>
      </trkpt>
      <trkpt lat="45.92339" lon="6.85308">
        <ele>1265</ele>
        <time>2026-08-04T11:06:28.132Z</time>
      </trkpt>
      <trkpt lat="45.92337" lon="6.85309">
        <ele>1265</ele>
        <time>2026-08-04T11:06:29.132Z</time>
      </trkpt>
      <trkpt lat="45.92334" lon="6.85308">
        <ele>1265</ele>
        <time>2026-08-04T11:06:30.132Z</time>
      </trkpt>
      <trkpt lat="45.92332" lon="6.85308">
        <ele>1265</ele>
        <time>2026-08-04T11:06:31.132Z</time>
      </trkpt>
      <trkpt lat="45.9233" lon="6.85308">
        <ele>1265</ele>
        <time>2026-08-04T11:06:32.132Z</time>
      </trkpt>
      <trkpt lat="45.9233" lon="6.85307">
        <ele>1265</ele>
        <time>2026-08-04T11:06:33.132Z</time>
      </trkpt>
      <trkpt lat="45.92328" lon="6.85307">
        <ele>1265</ele>
        <time>2026-08-04T11:06:34.132Z</time>
      </trkpt>
      <trkpt lat="45.92327" lon="6.85306">
        <ele>1265</ele>
        <time>2026-08-04T11:06:35.132Z</time>
      </trkpt>
      <trkpt lat="45.92325" lon="6.85305">
        <ele>1265</ele>
        <time>2026-08-04T11:06:36.132Z</time>
      </trkpt>
      <trkpt lat="45.92324" lon="6.85304">
        <ele>1265</ele>
        <time>2026-08-04T11:06:37.132Z</time>
      </trkpt>
      <trkpt lat="45.92322" lon="6.85304">
        <ele>1265</ele>
        <time>2026-08-04T11:06:38.132Z</time>
      </trkpt>
      <trkpt lat="45.9232" lon="6.85303">
        <ele>1264</ele>
        <time>2026-08-04T11:06:39.132Z</time>
      </trkpt>
      <trkpt lat="45.92317" lon="6.85303">
        <ele>1264</ele>
        <time>2026-08-04T11:06:40.132Z</time>
      </trkpt>
      <trkpt lat="45.92315" lon="6.85302">
        <ele>1264</ele>
        <time>2026-08-04T11:06:41.132Z</time>
      </trkpt>
      <trkpt lat="45.92313" lon="6.85302">
        <ele>1264</ele>
        <time>2026-08-04T11:06:42.132Z</time>
      </trkpt>
      <trkpt lat="45.92311" lon="6.85302">
        <ele>1264</ele>
        <time>2026-08-04T11:06:43.132Z</time>
      </trkpt>
      <trkpt lat="45.92309" lon="6.85302">
        <ele>1264</ele>
        <time>2026-08-04T11:06:44.132Z</time>
      </trkpt>
      <trkpt lat="45.92308" lon="6.85301">
        <ele>1264</ele>
        <time>2026-08-04T11:06:45.132Z</time>
      </trkpt>
      <trkpt lat="45.92306" lon="6.85301">
        <ele>1264</ele>
        <time>2026-08-04T11:06:46.132Z</time>
      </trkpt>
      <trkpt lat="45.92304" lon="6.85301">
        <ele>1263</ele>
        <time>2026-08-04T11:06:47.132Z</time>
      </trkpt>
      <trkpt lat="45.92302" lon="6.85301">
        <ele>1263</ele>
        <time>2026-08-04T11:06:48.132Z</time>
      </trkpt>
      <trkpt lat="45.92299" lon="6.85301">
        <ele>1263</ele>
        <time>2026-08-04T11:06:49.132Z</time>
      </trkpt>
      <trkpt lat="45.92298" lon="6.85301">
        <ele>1263</ele>
        <time>2026-08-04T11:06:50.132Z</time>
      </trkpt>
      <trkpt lat="45.92297" lon="6.85301">
        <ele>1263</ele>
        <time>2026-08-04T11:06:51.132Z</time>
      </trkpt>
      <trkpt lat="45.92296" lon="6.85302">
        <ele>1263</ele>
        <time>2026-08-04T11:06:52.132Z</time>
      </trkpt>
      <trkpt lat="45.92294" lon="6.85303">
        <ele>1263</ele>
        <time>2026-08-04T11:06:53.132Z</time>
      </trkpt>
      <trkpt lat="45.92293" lon="6.85303">
        <ele>1263</ele>
        <time>2026-08-04T11:06:54.132Z</time>
      </trkpt>
      <trkpt lat="45.92292" lon="6.85303">
        <ele>1263</ele>
        <time>2026-08-04T11:06:55.132Z</time>
      </trkpt>
      <trkpt lat="45.92291" lon="6.85303">
        <ele>1262</ele>
        <time>2026-08-04T11:06:56.132Z</time>
      </trkpt>
      <trkpt lat="45.92289" lon="6.85302">
        <ele>1262</ele>
        <time>2026-08-04T11:06:57.132Z</time>
      </trkpt>
      <trkpt lat="45.92288" lon="6.85302">
        <ele>1262</ele>
        <time>2026-08-04T11:06:58.132Z</time>
      </trkpt>
      <trkpt lat="45.92286" lon="6.85301">
        <ele>1261</ele>
        <time>2026-08-04T11:06:59.132Z</time>
      </trkpt>
      <trkpt lat="45.92283" lon="6.85299">
        <ele>1261</ele>
        <time>2026-08-04T11:07:00.132Z</time>
      </trkpt>
      <trkpt lat="45.92282" lon="6.85298">
        <ele>1260</ele>
        <time>2026-08-04T11:07:01.132Z</time>
      </trkpt>
      <trkpt lat="45.9228" lon="6.85296">
        <ele>1259</ele>
        <time>2026-08-04T11:07:02.132Z</time>
      </trkpt>
      <trkpt lat="45.92278" lon="6.85294">
        <ele>1259</ele>
        <time>2026-08-04T11:07:03.132Z</time>
      </trkpt>
      <trkpt lat="45.92277" lon="6.85292">
        <ele>1258</ele>
        <time>2026-08-04T11:07:04.132Z</time>
      </trkpt>
      <trkpt lat="45.92275" lon="6.8529">
        <ele>1258</ele>
        <time>2026-08-04T11:07:05.132Z</time>
      </trkpt>
      <trkpt lat="45.92273" lon="6.85288">
        <ele>1257</ele>
        <time>2026-08-04T11:07:06.132Z</time>
      </trkpt>
      <trkpt lat="45.92271" lon="6.85286">
        <ele>1256</ele>
        <time>2026-08-04T11:07:07.132Z</time>
      </trkpt>
      <trkpt lat="45.92268" lon="6.85284">
        <ele>1255</ele>
        <time>2026-08-04T11:07:08.132Z</time>
      </trkpt>
      <trkpt lat="45.92266" lon="6.85283">
        <ele>1254</ele>
        <time>2026-08-04T11:07:09.132Z</time>
      </trkpt>
      <trkpt lat="45.92265" lon="6.85282">
        <ele>1254</ele>
        <time>2026-08-04T11:07:10.132Z</time>
      </trkpt>
      <trkpt lat="45.92262" lon="6.85282">
        <ele>1253</ele>
        <time>2026-08-04T11:07:11.132Z</time>
      </trkpt>
      <trkpt lat="45.9226" lon="6.85281">
        <ele>1252</ele>
        <time>2026-08-04T11:07:12.132Z</time>
      </trkpt>
      <trkpt lat="45.92258" lon="6.85279">
        <ele>1252</ele>
        <time>2026-08-04T11:07:13.132Z</time>
      </trkpt>
      <trkpt lat="45.92256" lon="6.85277">
        <ele>1251</ele>
        <time>2026-08-04T11:07:14.132Z</time>
      </trkpt>
      <trkpt lat="45.92254" lon="6.85274">
        <ele>1250</ele>
        <time>2026-08-04T11:07:15.132Z</time>
      </trkpt>
      <trkpt lat="45.92253" lon="6.85271">
        <ele>1249</ele>
        <time>2026-08-04T11:07:16.132Z</time>
      </trkpt>
      <trkpt lat="45.92252" lon="6.85268">
        <ele>1248</ele>
        <time>2026-08-04T11:07:17.132Z</time>
      </trkpt>
      <trkpt lat="45.92251" lon="6.85265">
        <ele>1248</ele>
        <time>2026-08-04T11:07:18.132Z</time>
      </trkpt>
      <trkpt lat="45.9225" lon="6.85262">
        <ele>1247</ele>
        <time>2026-08-04T11:07:19.132Z</time>
      </trkpt>
      <trkpt lat="45.92249" lon="6.85259">
        <ele>1246</ele>
        <time>2026-08-04T11:07:20.132Z</time>
      </trkpt>
      <trkpt lat="45.92248" lon="6.85256">
        <ele>1245</ele>
        <time>2026-08-04T11:07:21.132Z</time>
      </trkpt>
      <trkpt lat="45.92248" lon="6.85252">
        <ele>1245</ele>
        <time>2026-08-04T11:07:22.132Z</time>
      </trkpt>
      <trkpt lat="45.92246" lon="6.85249">
        <ele>1244</ele>
        <time>2026-08-04T11:07:23.132Z</time>
      </trkpt>
      <trkpt lat="45.92245" lon="6.85247">
        <ele>1243</ele>
        <time>2026-08-04T11:07:24.132Z</time>
      </trkpt>
      <trkpt lat="45.92242" lon="6.85244">
        <ele>1242</ele>
        <time>2026-08-04T11:07:25.132Z</time>
      </trkpt>
      <trkpt lat="45.9224" lon="6.85243">
        <ele>1241</ele>
        <time>2026-08-04T11:07:26.132Z</time>
      </trkpt>
      <trkpt lat="45.92238" lon="6.85242">
        <ele>1241</ele>
        <time>2026-08-04T11:07:27.132Z</time>
      </trkpt>
      <trkpt lat="45.92236" lon="6.8524">
        <ele>1240</ele>
        <time>2026-08-04T11:07:28.132Z</time>
      </trkpt>
      <trkpt lat="45.92234" lon="6.85238">
        <ele>1240</ele>
        <time>2026-08-04T11:07:29.132Z</time>
      </trkpt>
      <trkpt lat="45.92232" lon="6.85237">
        <ele>1239</ele>
        <time>2026-08-04T11:07:30.132Z</time>
      </trkpt>
      <trkpt lat="45.92229" lon="6.85233">
        <ele>1238</ele>
        <time>2026-08-04T11:07:31.132Z</time>
      </trkpt>
      <trkpt lat="45.92228" lon="6.85231">
        <ele>1237</ele>
        <time>2026-08-04T11:07:32.132Z</time>
      </trkpt>
      <trkpt lat="45.92225" lon="6.85228">
        <ele>1236</ele>
        <time>2026-08-04T11:07:33.132Z</time>
      </trkpt>
      <trkpt lat="45.92224" lon="6.85227">
        <ele>1235</ele>
        <time>2026-08-04T11:07:34.132Z</time>
      </trkpt>
      <trkpt lat="45.92222" lon="6.85225">
        <ele>1235</ele>
        <time>2026-08-04T11:07:35.132Z</time>
      </trkpt>
      <trkpt lat="45.9222" lon="6.85223">
        <ele>1234</ele>
        <time>2026-08-04T11:07:36.132Z</time>
      </trkpt>
      <trkpt lat="45.92218" lon="6.85221">
        <ele>1233</ele>
        <time>2026-08-04T11:07:37.132Z</time>
      </trkpt>
      <trkpt lat="45.92217" lon="6.8522">
        <ele>1232</ele>
        <time>2026-08-04T11:07:38.132Z</time>
      </trkpt>
      <trkpt lat="45.92215" lon="6.85218">
        <ele>1231</ele>
        <time>2026-08-04T11:07:39.132Z</time>
      </trkpt>
      <trkpt lat="45.92214" lon="6.85216">
        <ele>1230</ele>
        <time>2026-08-04T11:07:40.132Z</time>
      </trkpt>
      <trkpt lat="45.92213" lon="6.85214">
        <ele>1229</ele>
        <time>2026-08-04T11:07:41.132Z</time>
      </trkpt>
      <trkpt lat="45.92212" lon="6.85213">
        <ele>1228</ele>
        <time>2026-08-04T11:07:42.132Z</time>
      </trkpt>
      <trkpt lat="45.92211" lon="6.85212">
        <ele>1227</ele>
        <time>2026-08-04T11:07:43.132Z</time>
      </trkpt>
      <trkpt lat="45.9221" lon="6.85211">
        <ele>1226</ele>
        <time>2026-08-04T11:07:44.132Z</time>
      </trkpt>
      <trkpt lat="45.92208" lon="6.8521">
        <ele>1226</ele>
        <time>2026-08-04T11:07:45.132Z</time>
      </trkpt>
      <trkpt lat="45.92207" lon="6.85208">
        <ele>1226</ele>
        <time>2026-08-04T11:07:46.132Z</time>
      </trkpt>
      <trkpt lat="45.92205" lon="6.85206">
        <ele>1226</ele>
        <time>2026-08-04T11:07:47.132Z</time>
      </trkpt>
      <trkpt lat="45.92204" lon="6.85205">
        <ele>1225</ele>
        <time>2026-08-04T11:07:48.132Z</time>
      </trkpt>
      <trkpt lat="45.92204" lon="6.85203">
        <ele>1225</ele>
        <time>2026-08-04T11:07:49.132Z</time>
      </trkpt>
      <trkpt lat="45.92203" lon="6.85201">
        <ele>1225</ele>
        <time>2026-08-04T11:07:50.132Z</time>
      </trkpt>
      <trkpt lat="45.92202" lon="6.85199">
        <ele>1225</ele>
        <time>2026-08-04T11:07:51.132Z</time>
      </trkpt>
      <trkpt lat="45.92201" lon="6.85196">
        <ele>1225</ele>
        <time>2026-08-04T11:07:52.132Z</time>
      </trkpt>
      <trkpt lat="45.92201" lon="6.85194">
        <ele>1225</ele>
        <time>2026-08-04T11:07:53.132Z</time>
      </trkpt>
      <trkpt lat="45.922" lon="6.85191">
        <ele>1225</ele>
        <time>2026-08-04T11:07:54.132Z</time>
      </trkpt>
      <trkpt lat="45.92198" lon="6.85188">
        <ele>1225</ele>
        <time>2026-08-04T11:07:55.132Z</time>
      </trkpt>
      <trkpt lat="45.92197" lon="6.85186">
        <ele>1225</ele>
        <time>2026-08-04T11:07:56.132Z</time>
      </trkpt>
      <trkpt lat="45.92196" lon="6.85182">
        <ele>1225</ele>
        <time>2026-08-04T11:07:57.132Z</time>
      </trkpt>
      <trkpt lat="45.92194" lon="6.85179">
        <ele>1225</ele>
        <time>2026-08-04T11:07:58.132Z</time>
      </trkpt>
      <trkpt lat="45.92193" lon="6.85176">
        <ele>1225</ele>
        <time>2026-08-04T11:07:59.132Z</time>
      </trkpt>
      <trkpt lat="45.92192" lon="6.85173">
        <ele>1225</ele>
        <time>2026-08-04T11:08:00.132Z</time>
      </trkpt>
      <trkpt lat="45.92191" lon="6.8517">
        <ele>1224</ele>
        <time>2026-08-04T11:08:01.132Z</time>
      </trkpt>
      <trkpt lat="45.92189" lon="6.85167">
        <ele>1224</ele>
        <time>2026-08-04T11:08:02.132Z</time>
      </trkpt>
      <trkpt lat="45.92187" lon="6.85163">
        <ele>1224</ele>
        <time>2026-08-04T11:08:03.132Z</time>
      </trkpt>
      <trkpt lat="45.92186" lon="6.85161">
        <ele>1224</ele>
        <time>2026-08-04T11:08:04.132Z</time>
      </trkpt>
      <trkpt lat="45.92186" lon="6.85157">
        <ele>1224</ele>
        <time>2026-08-04T11:08:05.132Z</time>
      </trkpt>
      <trkpt lat="45.92185" lon="6.85154">
        <ele>1224</ele>
        <time>2026-08-04T11:08:06.132Z</time>
      </trkpt>
      <trkpt lat="45.92184" lon="6.85153">
        <ele>1224</ele>
        <time>2026-08-04T11:08:07.132Z</time>
      </trkpt>
      <trkpt lat="45.92183" lon="6.85151">
        <ele>1224</ele>
        <time>2026-08-04T11:08:08.132Z</time>
      </trkpt>
      <trkpt lat="45.92183" lon="6.8515">
        <ele>1224</ele>
        <time>2026-08-04T11:08:09.132Z</time>
      </trkpt>
      <trkpt lat="45.92182" lon="6.85148">
        <ele>1224</ele>
        <time>2026-08-04T11:08:10.132Z</time>
      </trkpt>
      <trkpt lat="45.92181" lon="6.85146">
        <ele>1224</ele>
        <time>2026-08-04T11:08:11.132Z</time>
      </trkpt>
      <trkpt lat="45.9218" lon="6.85144">
        <ele>1224</ele>
        <time>2026-08-04T11:08:12.132Z</time>
      </trkpt>
      <trkpt lat="45.92179" lon="6.85142">
        <ele>1224</ele>
        <time>2026-08-04T11:08:13.132Z</time>
      </trkpt>
      <trkpt lat="45.92179" lon="6.85139">
        <ele>1224</ele>
        <time>2026-08-04T11:08:14.132Z</time>
      </trkpt>
      <trkpt lat="45.92178" lon="6.85136">
        <ele>1224</ele>
        <time>2026-08-04T11:08:15.132Z</time>
      </trkpt>
      <trkpt lat="45.92177" lon="6.85134">
        <ele>1224</ele>
        <time>2026-08-04T11:08:16.132Z</time>
      </trkpt>
      <trkpt lat="45.92176" lon="6.85132">
        <ele>1225</ele>
        <time>2026-08-04T11:08:17.132Z</time>
      </trkpt>
      <trkpt lat="45.92174" lon="6.85129">
        <ele>1225</ele>
        <time>2026-08-04T11:08:18.132Z</time>
      </trkpt>
      <trkpt lat="45.92173" lon="6.85127">
        <ele>1225</ele>
        <time>2026-08-04T11:08:19.132Z</time>
      </trkpt>
      <trkpt lat="45.92173" lon="6.85125">
        <ele>1226</ele>
        <time>2026-08-04T11:08:20.132Z</time>
      </trkpt>
      <trkpt lat="45.92173" lon="6.85124">
        <ele>1226</ele>
        <time>2026-08-04T11:08:21.132Z</time>
      </trkpt>
      <trkpt lat="45.92173" lon="6.85122">
        <ele>1226</ele>
        <time>2026-08-04T11:08:22.132Z</time>
      </trkpt>
      <trkpt lat="45.92172" lon="6.85121">
        <ele>1226</ele>
        <time>2026-08-04T11:08:23.132Z</time>
      </trkpt>
      <trkpt lat="45.92171" lon="6.8512">
        <ele>1226</ele>
        <time>2026-08-04T11:08:24.132Z</time>
      </trkpt>
      <trkpt lat="45.9217" lon="6.8512">
        <ele>1226</ele>
        <time>2026-08-04T11:08:25.132Z</time>
      </trkpt>
      <trkpt lat="45.92169" lon="6.85119">
        <ele>1226</ele>
        <time>2026-08-04T11:08:26.132Z</time>
      </trkpt>
      <trkpt lat="45.92168" lon="6.8512">
        <ele>1226</ele>
        <time>2026-08-04T11:08:27.132Z</time>
      </trkpt>
      <trkpt lat="45.92166" lon="6.8512">
        <ele>1226</ele>
        <time>2026-08-04T11:08:28.132Z</time>
      </trkpt>
      <trkpt lat="45.92165" lon="6.85121">
        <ele>1226</ele>
        <time>2026-08-04T11:08:29.132Z</time>
      </trkpt>
      <trkpt lat="45.92163" lon="6.85123">
        <ele>1226</ele>
        <time>2026-08-04T11:08:30.132Z</time>
      </trkpt>
      <trkpt lat="45.92161" lon="6.85124">
        <ele>1226</ele>
        <time>2026-08-04T11:08:31.132Z</time>
      </trkpt>
      <trkpt lat="45.92159" lon="6.85127">
        <ele>1226</ele>
        <time>2026-08-04T11:08:32.132Z</time>
      </trkpt>
      <trkpt lat="45.92157" lon="6.85129">
        <ele>1226</ele>
        <time>2026-08-04T11:08:33.132Z</time>
      </trkpt>
      <trkpt lat="45.92155" lon="6.85131">
        <ele>1226</ele>
        <time>2026-08-04T11:08:34.132Z</time>
      </trkpt>
      <trkpt lat="45.92153" lon="6.85132">
        <ele>1226</ele>
        <time>2026-08-04T11:08:35.132Z</time>
      </trkpt>
      <trkpt lat="45.92151" lon="6.85134">
        <ele>1226</ele>
        <time>2026-08-04T11:08:36.132Z</time>
      </trkpt>
      <trkpt lat="45.92149" lon="6.85136">
        <ele>1226</ele>
        <time>2026-08-04T11:08:37.132Z</time>
      </trkpt>
      <trkpt lat="45.92148" lon="6.85138">
        <ele>1226</ele>
        <time>2026-08-04T11:08:38.132Z</time>
      </trkpt>
      <trkpt lat="45.92146" lon="6.8514">
        <ele>1226</ele>
        <time>2026-08-04T11:08:39.132Z</time>
      </trkpt>
      <trkpt lat="45.92145" lon="6.85142">
        <ele>1226</ele>
        <time>2026-08-04T11:08:40.132Z</time>
      </trkpt>
      <trkpt lat="45.92143" lon="6.85144">
        <ele>1226</ele>
        <time>2026-08-04T11:08:41.132Z</time>
      </trkpt>
      <trkpt lat="45.92141" lon="6.85145">
        <ele>1226</ele>
        <time>2026-08-04T11:08:42.132Z</time>
      </trkpt>
      <trkpt lat="45.9214" lon="6.85146">
        <ele>1226</ele>
        <time>2026-08-04T11:08:43.132Z</time>
      </trkpt>
      <trkpt lat="45.92138" lon="6.85146">
        <ele>1227</ele>
        <time>2026-08-04T11:08:44.132Z</time>
      </trkpt>
      <trkpt lat="45.92136" lon="6.85145">
        <ele>1227</ele>
        <time>2026-08-04T11:08:45.132Z</time>
      </trkpt>
      <trkpt lat="45.92135" lon="6.85143">
        <ele>1228</ele>
        <time>2026-08-04T11:08:46.133Z</time>
      </trkpt>
      <trkpt lat="45.92133" lon="6.85142">
        <ele>1228</ele>
        <time>2026-08-04T11:08:47.132Z</time>
      </trkpt>
      <trkpt lat="45.92131" lon="6.85142">
        <ele>1228</ele>
        <time>2026-08-04T11:08:48.132Z</time>
      </trkpt>
      <trkpt lat="45.92129" lon="6.85141">
        <ele>1228</ele>
        <time>2026-08-04T11:08:49.132Z</time>
      </trkpt>
      <trkpt lat="45.92128" lon="6.85141">
        <ele>1228</ele>
        <time>2026-08-04T11:08:50.132Z</time>
      </trkpt>
      <trkpt lat="45.92126" lon="6.8514">
        <ele>1228</ele>
        <time>2026-08-04T11:08:51.132Z</time>
      </trkpt>
      <trkpt lat="45.92126" lon="6.85139">
        <ele>1229</ele>
        <time>2026-08-04T11:08:52.132Z</time>
      </trkpt>
      <trkpt lat="45.92125" lon="6.85138">
        <ele>1229</ele>
        <time>2026-08-04T11:08:53.132Z</time>
      </trkpt>
      <trkpt lat="45.92124" lon="6.85137">
        <ele>1229</ele>
        <time>2026-08-04T11:08:54.132Z</time>
      </trkpt>
      <trkpt lat="45.92122" lon="6.85137">
        <ele>1229</ele>
        <time>2026-08-04T11:08:55.132Z</time>
      </trkpt>
      <trkpt lat="45.92121" lon="6.85136">
        <ele>1230</ele>
        <time>2026-08-04T11:08:56.132Z</time>
      </trkpt>
      <trkpt lat="45.92119" lon="6.85135">
        <ele>1230</ele>
        <time>2026-08-04T11:08:57.132Z</time>
      </trkpt>
      <trkpt lat="45.92117" lon="6.85135">
        <ele>1230</ele>
        <time>2026-08-04T11:08:58.132Z</time>
      </trkpt>
      <trkpt lat="45.92115" lon="6.85134">
        <ele>1230</ele>
        <time>2026-08-04T11:08:59.132Z</time>
      </trkpt>
      <trkpt lat="45.92113" lon="6.85133">
        <ele>1231</ele>
        <time>2026-08-04T11:09:00.132Z</time>
      </trkpt>
      <trkpt lat="45.92112" lon="6.85133">
        <ele>1231</ele>
        <time>2026-08-04T11:09:01.132Z</time>
      </trkpt>
      <trkpt lat="45.9211" lon="6.85133">
        <ele>1232</ele>
        <time>2026-08-04T11:09:02.132Z</time>
      </trkpt>
      <trkpt lat="45.92109" lon="6.85133">
        <ele>1232</ele>
        <time>2026-08-04T11:09:03.132Z</time>
      </trkpt>
      <trkpt lat="45.92108" lon="6.85132">
        <ele>1233</ele>
        <time>2026-08-04T11:09:04.132Z</time>
      </trkpt>
      <trkpt lat="45.92108" lon="6.85131">
        <ele>1233</ele>
        <time>2026-08-04T11:09:05.132Z</time>
      </trkpt>
      <trkpt lat="45.92107" lon="6.8513">
        <ele>1234</ele>
        <time>2026-08-04T11:09:06.132Z</time>
      </trkpt>
      <trkpt lat="45.92107" lon="6.85129">
        <ele>1234</ele>
        <time>2026-08-04T11:09:07.132Z</time>
      </trkpt>
      <trkpt lat="45.92108" lon="6.85127">
        <ele>1235</ele>
        <time>2026-08-04T11:09:08.132Z</time>
      </trkpt>
      <trkpt lat="45.92107" lon="6.85127">
        <ele>1236</ele>
        <time>2026-08-04T11:09:09.132Z</time>
      </trkpt>
      <trkpt lat="45.92105" lon="6.85126">
        <ele>1236</ele>
        <time>2026-08-04T11:09:10.132Z</time>
      </trkpt>
      <trkpt lat="45.92103" lon="6.85125">
        <ele>1237</ele>
        <time>2026-08-04T11:09:11.132Z</time>
      </trkpt>
      <trkpt lat="45.92101" lon="6.85124">
        <ele>1237</ele>
        <time>2026-08-04T11:09:12.132Z</time>
      </trkpt>
      <trkpt lat="45.92098" lon="6.85123">
        <ele>1237</ele>
        <time>2026-08-04T11:09:13.132Z</time>
      </trkpt>
      <trkpt lat="45.92096" lon="6.8512">
        <ele>1237</ele>
        <time>2026-08-04T11:09:14.132Z</time>
      </trkpt>
      <trkpt lat="45.92094" lon="6.85118">
        <ele>1237</ele>
        <time>2026-08-04T11:09:15.132Z</time>
      </trkpt>
      <trkpt lat="45.92092" lon="6.85117">
        <ele>1237</ele>
        <time>2026-08-04T11:09:16.132Z</time>
      </trkpt>
      <trkpt lat="45.9209" lon="6.85115">
        <ele>1237</ele>
        <time>2026-08-04T11:09:17.132Z</time>
      </trkpt>
      <trkpt lat="45.92088" lon="6.85114">
        <ele>1237</ele>
        <time>2026-08-04T11:09:18.132Z</time>
      </trkpt>
      <trkpt lat="45.92086" lon="6.85113">
        <ele>1237</ele>
        <time>2026-08-04T11:09:19.132Z</time>
      </trkpt>
      <trkpt lat="45.92084" lon="6.85112">
        <ele>1237</ele>
        <time>2026-08-04T11:09:20.132Z</time>
      </trkpt>
      <trkpt lat="45.92082" lon="6.8511">
        <ele>1237</ele>
        <time>2026-08-04T11:09:21.132Z</time>
      </trkpt>
      <trkpt lat="45.92081" lon="6.85108">
        <ele>1237</ele>
        <time>2026-08-04T11:09:22.132Z</time>
      </trkpt>
      <trkpt lat="45.9208" lon="6.85106">
        <ele>1237</ele>
        <time>2026-08-04T11:09:23.132Z</time>
      </trkpt>
      <trkpt lat="45.92077" lon="6.85104">
        <ele>1236</ele>
        <time>2026-08-04T11:09:24.132Z</time>
      </trkpt>
      <trkpt lat="45.92075" lon="6.85102">
        <ele>1236</ele>
        <time>2026-08-04T11:09:25.132Z</time>
      </trkpt>
      <trkpt lat="45.92074" lon="6.851">
        <ele>1236</ele>
        <time>2026-08-04T11:09:26.132Z</time>
      </trkpt>
      <trkpt lat="45.92071" lon="6.85098">
        <ele>1236</ele>
        <time>2026-08-04T11:09:27.132Z</time>
      </trkpt>
      <trkpt lat="45.9207" lon="6.85097">
        <ele>1236</ele>
        <time>2026-08-04T11:09:28.132Z</time>
      </trkpt>
      <trkpt lat="45.92068" lon="6.85096">
        <ele>1236</ele>
        <time>2026-08-04T11:09:29.132Z</time>
      </trkpt>
      <trkpt lat="45.92067" lon="6.85096">
        <ele>1236</ele>
        <time>2026-08-04T11:09:30.132Z</time>
      </trkpt>
      <trkpt lat="45.92066" lon="6.85095">
        <ele>1236</ele>
        <time>2026-08-04T11:09:31.132Z</time>
      </trkpt>
      <trkpt lat="45.92065" lon="6.85094">
        <ele>1236</ele>
        <time>2026-08-04T11:09:32.132Z</time>
      </trkpt>
      <trkpt lat="45.92064" lon="6.85093">
        <ele>1236</ele>
        <time>2026-08-04T11:09:33.132Z</time>
      </trkpt>
      <trkpt lat="45.92063" lon="6.85092">
        <ele>1236</ele>
        <time>2026-08-04T11:09:34.132Z</time>
      </trkpt>
      <trkpt lat="45.92061" lon="6.85091">
        <ele>1237</ele>
        <time>2026-08-04T11:09:35.132Z</time>
      </trkpt>
      <trkpt lat="45.92058" lon="6.8509">
        <ele>1237</ele>
        <time>2026-08-04T11:09:36.132Z</time>
      </trkpt>
      <trkpt lat="45.92057" lon="6.85089">
        <ele>1237</ele>
        <time>2026-08-04T11:09:37.132Z</time>
      </trkpt>
      <trkpt lat="45.92055" lon="6.85088">
        <ele>1238</ele>
        <time>2026-08-04T11:09:38.132Z</time>
      </trkpt>
      <trkpt lat="45.92053" lon="6.85087">
        <ele>1238</ele>
        <time>2026-08-04T11:09:39.132Z</time>
      </trkpt>
      <trkpt lat="45.92051" lon="6.85086">
        <ele>1238</ele>
        <time>2026-08-04T11:09:40.132Z</time>
      </trkpt>
      <trkpt lat="45.92049" lon="6.85084">
        <ele>1239</ele>
        <time>2026-08-04T11:09:41.132Z</time>
      </trkpt>
      <trkpt lat="45.92048" lon="6.85082">
        <ele>1239</ele>
        <time>2026-08-04T11:09:42.132Z</time>
      </trkpt>
      <trkpt lat="45.92047" lon="6.85081">
        <ele>1239</ele>
        <time>2026-08-04T11:09:43.132Z</time>
      </trkpt>
      <trkpt lat="45.92046" lon="6.85078">
        <ele>1239</ele>
        <time>2026-08-04T11:09:44.132Z</time>
      </trkpt>
      <trkpt lat="45.92044" lon="6.85076">
        <ele>1239</ele>
        <time>2026-08-04T11:09:45.132Z</time>
      </trkpt>
      <trkpt lat="45.92042" lon="6.85074">
        <ele>1239</ele>
        <time>2026-08-04T11:09:46.132Z</time>
      </trkpt>
      <trkpt lat="45.9204" lon="6.85072">
        <ele>1239</ele>
        <time>2026-08-04T11:09:47.132Z</time>
      </trkpt>
      <trkpt lat="45.92038" lon="6.8507">
        <ele>1239</ele>
        <time>2026-08-04T11:09:48.132Z</time>
      </trkpt>
      <trkpt lat="45.92036" lon="6.85069">
        <ele>1239</ele>
        <time>2026-08-04T11:09:49.132Z</time>
      </trkpt>
      <trkpt lat="45.92035" lon="6.85068">
        <ele>1239</ele>
        <time>2026-08-04T11:09:50.132Z</time>
      </trkpt>
      <trkpt lat="45.92032" lon="6.85067">
        <ele>1239</ele>
        <time>2026-08-04T11:09:51.132Z</time>
      </trkpt>
      <trkpt lat="45.9203" lon="6.85065">
        <ele>1239</ele>
        <time>2026-08-04T11:09:52.132Z</time>
      </trkpt>
      <trkpt lat="45.92028" lon="6.85064">
        <ele>1239</ele>
        <time>2026-08-04T11:09:53.132Z</time>
      </trkpt>
      <trkpt lat="45.92028" lon="6.85063">
        <ele>1239</ele>
        <time>2026-08-04T11:09:54.132Z</time>
      </trkpt>
      <trkpt lat="45.92027" lon="6.85061">
        <ele>1239</ele>
        <time>2026-08-04T11:09:55.132Z</time>
      </trkpt>
      <trkpt lat="45.92026" lon="6.85059">
        <ele>1239</ele>
        <time>2026-08-04T11:09:56.132Z</time>
      </trkpt>
      <trkpt lat="45.92024" lon="6.85059">
        <ele>1238</ele>
        <time>2026-08-04T11:09:57.133Z</time>
      </trkpt>
      <trkpt lat="45.92024" lon="6.85058">
        <ele>1238</ele>
        <time>2026-08-04T11:09:58.132Z</time>
      </trkpt>
      <trkpt lat="45.92024" lon="6.85057">
        <ele>1239</ele>
        <time>2026-08-04T11:09:59.132Z</time>
      </trkpt>
      <trkpt lat="45.92022" lon="6.85058">
        <ele>1239</ele>
        <time>2026-08-04T11:10:00.132Z</time>
      </trkpt>
      <trkpt lat="45.9202" lon="6.85057">
        <ele>1239</ele>
        <time>2026-08-04T11:10:01.132Z</time>
      </trkpt>
      <trkpt lat="45.92018" lon="6.85056">
        <ele>1239</ele>
        <time>2026-08-04T11:10:02.132Z</time>
      </trkpt>
      <trkpt lat="45.92016" lon="6.85054">
        <ele>1239</ele>
        <time>2026-08-04T11:10:03.132Z</time>
      </trkpt>
      <trkpt lat="45.92014" lon="6.85052">
        <ele>1239</ele>
        <time>2026-08-04T11:10:04.132Z</time>
      </trkpt>
      <trkpt lat="45.92012" lon="6.8505">
        <ele>1239</ele>
        <time>2026-08-04T11:10:05.132Z</time>
      </trkpt>
      <trkpt lat="45.92011" lon="6.85048">
        <ele>1239</ele>
        <time>2026-08-04T11:10:06.132Z</time>
      </trkpt>
      <trkpt lat="45.92009" lon="6.85047">
        <ele>1239</ele>
        <time>2026-08-04T11:10:07.132Z</time>
      </trkpt>
      <trkpt lat="45.92007" lon="6.85045">
        <ele>1238</ele>
        <time>2026-08-04T11:10:08.132Z</time>
      </trkpt>
      <trkpt lat="45.92006" lon="6.85044">
        <ele>1238</ele>
        <time>2026-08-04T11:10:09.132Z</time>
      </trkpt>
      <trkpt lat="45.92003" lon="6.85042">
        <ele>1238</ele>
        <time>2026-08-04T11:10:10.132Z</time>
      </trkpt>
      <trkpt lat="45.92001" lon="6.85041">
        <ele>1239</ele>
        <time>2026-08-04T11:10:11.132Z</time>
      </trkpt>
      <trkpt lat="45.91998" lon="6.85041">
        <ele>1239</ele>
        <time>2026-08-04T11:10:12.132Z</time>
      </trkpt>
      <trkpt lat="45.91996" lon="6.85041">
        <ele>1239</ele>
        <time>2026-08-04T11:10:13.132Z</time>
      </trkpt>
      <trkpt lat="45.91994" lon="6.85041">
        <ele>1239</ele>
        <time>2026-08-04T11:10:14.132Z</time>
      </trkpt>
      <trkpt lat="45.91992" lon="6.85041">
        <ele>1239</ele>
        <time>2026-08-04T11:10:15.132Z</time>
      </trkpt>
      <trkpt lat="45.91991" lon="6.8504">
        <ele>1239</ele>
        <time>2026-08-04T11:10:16.132Z</time>
      </trkpt>
      <trkpt lat="45.9199" lon="6.85039">
        <ele>1239</ele>
        <time>2026-08-04T11:10:17.132Z</time>
      </trkpt>
      <trkpt lat="45.91988" lon="6.85038">
        <ele>1239</ele>
        <time>2026-08-04T11:10:18.132Z</time>
      </trkpt>
      <trkpt lat="45.91986" lon="6.85038">
        <ele>1239</ele>
        <time>2026-08-04T11:10:19.132Z</time>
      </trkpt>
      <trkpt lat="45.91985" lon="6.85038">
        <ele>1239</ele>
        <time>2026-08-04T11:10:20.132Z</time>
      </trkpt>
      <trkpt lat="45.91982" lon="6.85038">
        <ele>1239</ele>
        <time>2026-08-04T11:10:21.132Z</time>
      </trkpt>
      <trkpt lat="45.91979" lon="6.85037">
        <ele>1239</ele>
        <time>2026-08-04T11:10:22.132Z</time>
      </trkpt>
      <trkpt lat="45.91976" lon="6.85037">
        <ele>1239</ele>
        <time>2026-08-04T11:10:23.132Z</time>
      </trkpt>
      <trkpt lat="45.91974" lon="6.85036">
        <ele>1239</ele>
        <time>2026-08-04T11:10:24.132Z</time>
      </trkpt>
      <trkpt lat="45.91972" lon="6.85035">
        <ele>1239</ele>
        <time>2026-08-04T11:10:25.132Z</time>
      </trkpt>
      <trkpt lat="45.91969" lon="6.85035">
        <ele>1239</ele>
        <time>2026-08-04T11:10:26.132Z</time>
      </trkpt>
      <trkpt lat="45.91966" lon="6.85035">
        <ele>1239</ele>
        <time>2026-08-04T11:10:27.132Z</time>
      </trkpt>
      <trkpt lat="45.91963" lon="6.85035">
        <ele>1239</ele>
        <time>2026-08-04T11:10:28.132Z</time>
      </trkpt>
      <trkpt lat="45.9196" lon="6.85034">
        <ele>1238</ele>
        <time>2026-08-04T11:10:29.132Z</time>
      </trkpt>
      <trkpt lat="45.91957" lon="6.85034">
        <ele>1238</ele>
        <time>2026-08-04T11:10:30.132Z</time>
      </trkpt>
      <trkpt lat="45.91954" lon="6.85033">
        <ele>1238</ele>
        <time>2026-08-04T11:10:31.132Z</time>
      </trkpt>
      <trkpt lat="45.91953" lon="6.85032">
        <ele>1238</ele>
        <time>2026-08-04T11:10:32.132Z</time>
      </trkpt>
      <trkpt lat="45.91951" lon="6.85032">
        <ele>1237</ele>
        <time>2026-08-04T11:10:33.133Z</time>
      </trkpt>
      <trkpt lat="45.9195" lon="6.85031">
        <ele>1237</ele>
        <time>2026-08-04T11:10:34.132Z</time>
      </trkpt>
      <trkpt lat="45.91948" lon="6.85031">
        <ele>1237</ele>
        <time>2026-08-04T11:10:35.132Z</time>
      </trkpt>
      <trkpt lat="45.91947" lon="6.85029">
        <ele>1237</ele>
        <time>2026-08-04T11:10:36.132Z</time>
      </trkpt>
      <trkpt lat="45.91946" lon="6.85028">
        <ele>1237</ele>
        <time>2026-08-04T11:10:37.132Z</time>
      </trkpt>
      <trkpt lat="45.91944" lon="6.85026">
        <ele>1237</ele>
        <time>2026-08-04T11:10:38.132Z</time>
      </trkpt>
      <trkpt lat="45.91941" lon="6.85025">
        <ele>1237</ele>
        <time>2026-08-04T11:10:39.132Z</time>
      </trkpt>
      <trkpt lat="45.91938" lon="6.85023">
        <ele>1236</ele>
        <time>2026-08-04T11:10:40.132Z</time>
      </trkpt>
      <trkpt lat="45.91935" lon="6.85021">
        <ele>1236</ele>
        <time>2026-08-04T11:10:41.133Z</time>
      </trkpt>
      <trkpt lat="45.91932" lon="6.85019">
        <ele>1235</ele>
        <time>2026-08-04T11:10:42.132Z</time>
      </trkpt>
      <trkpt lat="45.91929" lon="6.85017">
        <ele>1234</ele>
        <time>2026-08-04T11:10:43.132Z</time>
      </trkpt>
      <trkpt lat="45.91927" lon="6.85014">
        <ele>1234</ele>
        <time>2026-08-04T11:10:44.132Z</time>
      </trkpt>
      <trkpt lat="45.91924" lon="6.85011">
        <ele>1233</ele>
        <time>2026-08-04T11:10:45.132Z</time>
      </trkpt>
      <trkpt lat="45.91922" lon="6.85007">
        <ele>1232</ele>
        <time>2026-08-04T11:10:46.132Z</time>
      </trkpt>
      <trkpt lat="45.9192" lon="6.85003">
        <ele>1231</ele>
        <time>2026-08-04T11:10:47.132Z</time>
      </trkpt>
      <trkpt lat="45.91916" lon="6.85">
        <ele>1230</ele>
        <time>2026-08-04T11:10:48.132Z</time>
      </trkpt>
      <trkpt lat="45.91914" lon="6.84997">
        <ele>1229</ele>
        <time>2026-08-04T11:10:49.132Z</time>
      </trkpt>
      <trkpt lat="45.91913" lon="6.84994">
        <ele>1228</ele>
        <time>2026-08-04T11:10:50.132Z</time>
      </trkpt>
      <trkpt lat="45.9191" lon="6.84991">
        <ele>1228</ele>
        <time>2026-08-04T11:10:51.132Z</time>
      </trkpt>
      <trkpt lat="45.91908" lon="6.84989">
        <ele>1227</ele>
        <time>2026-08-04T11:10:52.132Z</time>
      </trkpt>
      <trkpt lat="45.91907" lon="6.84986">
        <ele>1226</ele>
        <time>2026-08-04T11:10:53.132Z</time>
      </trkpt>
      <trkpt lat="45.91904" lon="6.84984">
        <ele>1225</ele>
        <time>2026-08-04T11:10:54.132Z</time>
      </trkpt>
      <trkpt lat="45.91902" lon="6.84982">
        <ele>1225</ele>
        <time>2026-08-04T11:10:55.132Z</time>
      </trkpt>
      <trkpt lat="45.91901" lon="6.84981">
        <ele>1224</ele>
        <time>2026-08-04T11:10:56.132Z</time>
      </trkpt>
      <trkpt lat="45.91899" lon="6.84978">
        <ele>1223</ele>
        <time>2026-08-04T11:10:57.132Z</time>
      </trkpt>
      <trkpt lat="45.91897" lon="6.84977">
        <ele>1223</ele>
        <time>2026-08-04T11:10:58.132Z</time>
      </trkpt>
      <trkpt lat="45.91895" lon="6.84975">
        <ele>1222</ele>
        <time>2026-08-04T11:10:59.132Z</time>
      </trkpt>
      <trkpt lat="45.91893" lon="6.84971">
        <ele>1222</ele>
        <time>2026-08-04T11:11:00.132Z</time>
      </trkpt>
      <trkpt lat="45.9189" lon="6.84968">
        <ele>1222</ele>
        <time>2026-08-04T11:11:01.132Z</time>
      </trkpt>
      <trkpt lat="45.91887" lon="6.84965">
        <ele>1221</ele>
        <time>2026-08-04T11:11:02.132Z</time>
      </trkpt>
      <trkpt lat="45.91886" lon="6.84962">
        <ele>1221</ele>
        <time>2026-08-04T11:11:03.132Z</time>
      </trkpt>
      <trkpt lat="45.91885" lon="6.8496">
        <ele>1221</ele>
        <time>2026-08-04T11:11:04.132Z</time>
      </trkpt>
      <trkpt lat="45.91882" lon="6.84961">
        <ele>1221</ele>
        <time>2026-08-04T11:11:05.132Z</time>
      </trkpt>
      <trkpt lat="45.9188" lon="6.84961">
        <ele>1220</ele>
        <time>2026-08-04T11:11:06.132Z</time>
      </trkpt>
      <trkpt lat="45.91879" lon="6.84958">
        <ele>1220</ele>
        <time>2026-08-04T11:11:07.132Z</time>
      </trkpt>
      <trkpt lat="45.91878" lon="6.84959">
        <ele>1220</ele>
        <time>2026-08-04T11:11:08.132Z</time>
      </trkpt>
      <trkpt lat="45.91877" lon="6.84956">
        <ele>1220</ele>
        <time>2026-08-04T11:11:09.132Z</time>
      </trkpt>
      <trkpt lat="45.91875" lon="6.84956">
        <ele>1220</ele>
        <time>2026-08-04T11:11:10.132Z</time>
      </trkpt>
      <trkpt lat="45.91873" lon="6.84955">
        <ele>1220</ele>
        <time>2026-08-04T11:11:11.132Z</time>
      </trkpt>
      <trkpt lat="45.91871" lon="6.84953">
        <ele>1220</ele>
        <time>2026-08-04T11:11:12.132Z</time>
      </trkpt>
      <trkpt lat="45.9187" lon="6.84953">
        <ele>1220</ele>
        <time>2026-08-04T11:11:13.132Z</time>
      </trkpt>
      <trkpt lat="45.91869" lon="6.84953">
        <ele>1220</ele>
        <time>2026-08-04T11:11:14.132Z</time>
      </trkpt>
      <trkpt lat="45.91867" lon="6.84952">
        <ele>1219</ele>
        <time>2026-08-04T11:11:15.132Z</time>
      </trkpt>
      <trkpt lat="45.91865" lon="6.84952">
        <ele>1219</ele>
        <time>2026-08-04T11:11:16.132Z</time>
      </trkpt>
      <trkpt lat="45.91863" lon="6.84951">
        <ele>1218</ele>
        <time>2026-08-04T11:11:17.132Z</time>
      </trkpt>
      <trkpt lat="45.91861" lon="6.84951">
        <ele>1218</ele>
        <time>2026-08-04T11:11:18.132Z</time>
      </trkpt>
      <trkpt lat="45.9186" lon="6.8495">
        <ele>1218</ele>
        <time>2026-08-04T11:11:19.132Z</time>
      </trkpt>
      <trkpt lat="45.91858" lon="6.8495">
        <ele>1218</ele>
        <time>2026-08-04T11:11:20.132Z</time>
      </trkpt>
      <trkpt lat="45.91857" lon="6.84949">
        <ele>1218</ele>
        <time>2026-08-04T11:11:21.132Z</time>
      </trkpt>
      <trkpt lat="45.91855" lon="6.84948">
        <ele>1218</ele>
        <time>2026-08-04T11:11:22.132Z</time>
      </trkpt>
      <trkpt lat="45.91853" lon="6.84948">
        <ele>1218</ele>
        <time>2026-08-04T11:11:23.132Z</time>
      </trkpt>
      <trkpt lat="45.91852" lon="6.84946">
        <ele>1217</ele>
        <time>2026-08-04T11:11:24.132Z</time>
      </trkpt>
      <trkpt lat="45.91852" lon="6.84945">
        <ele>1217</ele>
        <time>2026-08-04T11:11:25.132Z</time>
      </trkpt>
      <trkpt lat="45.91851" lon="6.84944">
        <ele>1217</ele>
        <time>2026-08-04T11:11:26.132Z</time>
      </trkpt>
      <trkpt lat="45.91849" lon="6.84943">
        <ele>1216</ele>
        <time>2026-08-04T11:11:27.132Z</time>
      </trkpt>
      <trkpt lat="45.91848" lon="6.84941">
        <ele>1216</ele>
        <time>2026-08-04T11:11:28.132Z</time>
      </trkpt>
      <trkpt lat="45.91846" lon="6.8494">
        <ele>1216</ele>
        <time>2026-08-04T11:11:29.132Z</time>
      </trkpt>
      <trkpt lat="45.91844" lon="6.84936">
        <ele>1216</ele>
        <time>2026-08-04T11:11:30.132Z</time>
      </trkpt>
      <trkpt lat="45.91842" lon="6.84934">
        <ele>1216</ele>
        <time>2026-08-04T11:11:31.132Z</time>
      </trkpt>
      <trkpt lat="45.91842" lon="6.8493">
        <ele>1216</ele>
        <time>2026-08-04T11:11:32.132Z</time>
      </trkpt>
      <trkpt lat="45.9184" lon="6.84928">
        <ele>1215</ele>
        <time>2026-08-04T11:11:33.132Z</time>
      </trkpt>
      <trkpt lat="45.91839" lon="6.84927">
        <ele>1215</ele>
        <time>2026-08-04T11:11:34.132Z</time>
      </trkpt>
      <trkpt lat="45.91837" lon="6.84925">
        <ele>1214</ele>
        <time>2026-08-04T11:11:35.132Z</time>
      </trkpt>
      <trkpt lat="45.91837" lon="6.84923">
        <ele>1214</ele>
        <time>2026-08-04T11:11:36.132Z</time>
      </trkpt>
      <trkpt lat="45.91835" lon="6.84922">
        <ele>1213</ele>
        <time>2026-08-04T11:11:37.132Z</time>
      </trkpt>
      <trkpt lat="45.91833" lon="6.84921">
        <ele>1212</ele>
        <time>2026-08-04T11:11:38.132Z</time>
      </trkpt>
      <trkpt lat="45.91831" lon="6.84919">
        <ele>1212</ele>
        <time>2026-08-04T11:11:39.132Z</time>
      </trkpt>
      <trkpt lat="45.91831" lon="6.84914">
        <ele>1212</ele>
        <time>2026-08-04T11:11:40.132Z</time>
      </trkpt>
      <trkpt lat="45.9183" lon="6.84911">
        <ele>1211</ele>
        <time>2026-08-04T11:11:41.132Z</time>
      </trkpt>
      <trkpt lat="45.91829" lon="6.84908">
        <ele>1211</ele>
        <time>2026-08-04T11:11:42.132Z</time>
      </trkpt>
      <trkpt lat="45.91827" lon="6.84906">
        <ele>1211</ele>
        <time>2026-08-04T11:11:43.132Z</time>
      </trkpt>
      <trkpt lat="45.91826" lon="6.84903">
        <ele>1211</ele>
        <time>2026-08-04T11:11:44.132Z</time>
      </trkpt>
      <trkpt lat="45.91825" lon="6.84901">
        <ele>1211</ele>
        <time>2026-08-04T11:11:45.132Z</time>
      </trkpt>
      <trkpt lat="45.91823" lon="6.84899">
        <ele>1211</ele>
        <time>2026-08-04T11:11:46.132Z</time>
      </trkpt>
      <trkpt lat="45.91824" lon="6.84897">
        <ele>1211</ele>
        <time>2026-08-04T11:11:47.132Z</time>
      </trkpt>
      <trkpt lat="45.91824" lon="6.84894">
        <ele>1211</ele>
        <time>2026-08-04T11:11:48.132Z</time>
      </trkpt>
      <trkpt lat="45.91824" lon="6.84891">
        <ele>1210</ele>
        <time>2026-08-04T11:11:49.132Z</time>
      </trkpt>
      <trkpt lat="45.91824" lon="6.84889">
        <ele>1210</ele>
        <time>2026-08-04T11:11:50.132Z</time>
      </trkpt>
      <trkpt lat="45.91823" lon="6.84886">
        <ele>1210</ele>
        <time>2026-08-04T11:11:51.132Z</time>
      </trkpt>
      <trkpt lat="45.91823" lon="6.84884">
        <ele>1209</ele>
        <time>2026-08-04T11:11:52.132Z</time>
      </trkpt>
      <trkpt lat="45.91822" lon="6.84881">
        <ele>1208</ele>
        <time>2026-08-04T11:11:53.132Z</time>
      </trkpt>
      <trkpt lat="45.91822" lon="6.84878">
        <ele>1208</ele>
        <time>2026-08-04T11:11:54.132Z</time>
      </trkpt>
      <trkpt lat="45.91821" lon="6.84876">
        <ele>1208</ele>
        <time>2026-08-04T11:11:55.132Z</time>
      </trkpt>
      <trkpt lat="45.91821" lon="6.84874">
        <ele>1207</ele>
        <time>2026-08-04T11:11:56.132Z</time>
      </trkpt>
      <trkpt lat="45.9182" lon="6.84871">
        <ele>1207</ele>
        <time>2026-08-04T11:11:57.132Z</time>
      </trkpt>
      <trkpt lat="45.91819" lon="6.84869">
        <ele>1207</ele>
        <time>2026-08-04T11:11:58.132Z</time>
      </trkpt>
      <trkpt lat="45.91817" lon="6.84867">
        <ele>1207</ele>
        <time>2026-08-04T11:11:59.132Z</time>
      </trkpt>
      <trkpt lat="45.91816" lon="6.84864">
        <ele>1207</ele>
        <time>2026-08-04T11:12:00.132Z</time>
      </trkpt>
      <trkpt lat="45.91815" lon="6.84861">
        <ele>1207</ele>
        <time>2026-08-04T11:12:01.132Z</time>
      </trkpt>
      <trkpt lat="45.91814" lon="6.84859">
        <ele>1207</ele>
        <time>2026-08-04T11:12:02.132Z</time>
      </trkpt>
      <trkpt lat="45.91813" lon="6.84858">
        <ele>1207</ele>
        <time>2026-08-04T11:12:03.132Z</time>
      </trkpt>
      <trkpt lat="45.91813" lon="6.84856">
        <ele>1207</ele>
        <time>2026-08-04T11:12:04.132Z</time>
      </trkpt>
      <trkpt lat="45.91811" lon="6.84853">
        <ele>1207</ele>
        <time>2026-08-04T11:12:05.132Z</time>
      </trkpt>
      <trkpt lat="45.9181" lon="6.84851">
        <ele>1207</ele>
        <time>2026-08-04T11:12:06.132Z</time>
      </trkpt>
      <trkpt lat="45.91809" lon="6.84848">
        <ele>1207</ele>
        <time>2026-08-04T11:12:07.132Z</time>
      </trkpt>
      <trkpt lat="45.91808" lon="6.84846">
        <ele>1208</ele>
        <time>2026-08-04T11:12:08.132Z</time>
      </trkpt>
      <trkpt lat="45.91807" lon="6.84844">
        <ele>1208</ele>
        <time>2026-08-04T11:12:09.132Z</time>
      </trkpt>
      <trkpt lat="45.91806" lon="6.84841">
        <ele>1208</ele>
        <time>2026-08-04T11:12:10.132Z</time>
      </trkpt>
      <trkpt lat="45.91805" lon="6.84838">
        <ele>1208</ele>
        <time>2026-08-04T11:12:11.132Z</time>
      </trkpt>
      <trkpt lat="45.91805" lon="6.84834">
        <ele>1208</ele>
        <time>2026-08-04T11:12:12.132Z</time>
      </trkpt>
      <trkpt lat="45.91804" lon="6.84833">
        <ele>1209</ele>
        <time>2026-08-04T11:12:13.132Z</time>
      </trkpt>
      <trkpt lat="45.91803" lon="6.84831">
        <ele>1209</ele>
        <time>2026-08-04T11:12:14.132Z</time>
      </trkpt>
      <trkpt lat="45.91802" lon="6.84828">
        <ele>1210</ele>
        <time>2026-08-04T11:12:15.132Z</time>
      </trkpt>
      <trkpt lat="45.91802" lon="6.84827">
        <ele>1210</ele>
        <time>2026-08-04T11:12:16.132Z</time>
      </trkpt>
      <trkpt lat="45.91802" lon="6.84825">
        <ele>1210</ele>
        <time>2026-08-04T11:12:17.132Z</time>
      </trkpt>
      <trkpt lat="45.91802" lon="6.84824">
        <ele>1211</ele>
        <time>2026-08-04T11:12:18.132Z</time>
      </trkpt>
      <trkpt lat="45.91801" lon="6.84823">
        <ele>1211</ele>
        <time>2026-08-04T11:12:19.132Z</time>
      </trkpt>
      <trkpt lat="45.918" lon="6.84824">
        <ele>1212</ele>
        <time>2026-08-04T11:12:20.132Z</time>
      </trkpt>
      <trkpt lat="45.91798" lon="6.84824">
        <ele>1212</ele>
        <time>2026-08-04T11:12:21.132Z</time>
      </trkpt>
      <trkpt lat="45.91797" lon="6.84824">
        <ele>1213</ele>
        <time>2026-08-04T11:12:22.132Z</time>
      </trkpt>
      <trkpt lat="45.91796" lon="6.84825">
        <ele>1213</ele>
        <time>2026-08-04T11:12:23.132Z</time>
      </trkpt>
      <trkpt lat="45.91795" lon="6.84827">
        <ele>1213</ele>
        <time>2026-08-04T11:12:24.132Z</time>
      </trkpt>
      <trkpt lat="45.91794" lon="6.84829">
        <ele>1213</ele>
        <time>2026-08-04T11:12:25.132Z</time>
      </trkpt>
      <trkpt lat="45.91794" lon="6.8483">
        <ele>1213</ele>
        <time>2026-08-04T11:12:26.132Z</time>
      </trkpt>
      <trkpt lat="45.91793" lon="6.84832">
        <ele>1213</ele>
        <time>2026-08-04T11:12:27.132Z</time>
      </trkpt>
      <trkpt lat="45.91792" lon="6.84834">
        <ele>1213</ele>
        <time>2026-08-04T11:12:28.132Z</time>
      </trkpt>
      <trkpt lat="45.91791" lon="6.84836">
        <ele>1214</ele>
        <time>2026-08-04T11:12:29.132Z</time>
      </trkpt>
      <trkpt lat="45.91789" lon="6.84838">
        <ele>1214</ele>
        <time>2026-08-04T11:12:30.132Z</time>
      </trkpt>
      <trkpt lat="45.91788" lon="6.8484">
        <ele>1214</ele>
        <time>2026-08-04T11:12:31.132Z</time>
      </trkpt>
      <trkpt lat="45.91787" lon="6.8484">
        <ele>1214</ele>
        <time>2026-08-04T11:12:32.132Z</time>
      </trkpt>
      <trkpt lat="45.91785" lon="6.8484">
        <ele>1214</ele>
        <time>2026-08-04T11:12:33.132Z</time>
      </trkpt>
      <trkpt lat="45.91785" lon="6.84838">
        <ele>1214</ele>
        <time>2026-08-04T11:12:34.132Z</time>
      </trkpt>
      <trkpt lat="45.91784" lon="6.84837">
        <ele>1213</ele>
        <time>2026-08-04T11:12:35.132Z</time>
      </trkpt>
      <trkpt lat="45.91783" lon="6.84834">
        <ele>1213</ele>
        <time>2026-08-04T11:12:36.132Z</time>
      </trkpt>
      <trkpt lat="45.91782" lon="6.84832">
        <ele>1212</ele>
        <time>2026-08-04T11:12:37.132Z</time>
      </trkpt>
      <trkpt lat="45.91782" lon="6.84829">
        <ele>1211</ele>
        <time>2026-08-04T11:12:38.132Z</time>
      </trkpt>
      <trkpt lat="45.91783" lon="6.84827">
        <ele>1211</ele>
        <time>2026-08-04T11:12:39.132Z</time>
      </trkpt>
      <trkpt lat="45.91783" lon="6.84824">
        <ele>1210</ele>
        <time>2026-08-04T11:12:40.132Z</time>
      </trkpt>
      <trkpt lat="45.91783" lon="6.84821">
        <ele>1210</ele>
        <time>2026-08-04T11:12:41.132Z</time>
      </trkpt>
      <trkpt lat="45.91783" lon="6.84818">
        <ele>1209</ele>
        <time>2026-08-04T11:12:42.132Z</time>
      </trkpt>
      <trkpt lat="45.91782" lon="6.84816">
        <ele>1208</ele>
        <time>2026-08-04T11:12:43.132Z</time>
      </trkpt>
      <trkpt lat="45.91782" lon="6.84813">
        <ele>1208</ele>
        <time>2026-08-04T11:12:44.132Z</time>
      </trkpt>
      <trkpt lat="45.91782" lon="6.8481">
        <ele>1207</ele>
        <time>2026-08-04T11:12:45.132Z</time>
      </trkpt>
      <trkpt lat="45.91782" lon="6.84808">
        <ele>1207</ele>
        <time>2026-08-04T11:12:46.132Z</time>
      </trkpt>
      <trkpt lat="45.91781" lon="6.84805">
        <ele>1206</ele>
        <time>2026-08-04T11:12:47.132Z</time>
      </trkpt>
      <trkpt lat="45.9178" lon="6.84803">
        <ele>1205</ele>
        <time>2026-08-04T11:12:48.132Z</time>
      </trkpt>
      <trkpt lat="45.91778" lon="6.84801">
        <ele>1205</ele>
        <time>2026-08-04T11:12:49.132Z</time>
      </trkpt>
      <trkpt lat="45.91775" lon="6.848">
        <ele>1204</ele>
        <time>2026-08-04T11:12:50.132Z</time>
      </trkpt>
      <trkpt lat="45.91776" lon="6.84796">
        <ele>1204</ele>
        <time>2026-08-04T11:12:51.132Z</time>
      </trkpt>
      <trkpt lat="45.91775" lon="6.84793">
        <ele>1203</ele>
        <time>2026-08-04T11:12:52.132Z</time>
      </trkpt>
      <trkpt lat="45.91774" lon="6.84792">
        <ele>1203</ele>
        <time>2026-08-04T11:12:53.132Z</time>
      </trkpt>
      <trkpt lat="45.91773" lon="6.8479">
        <ele>1202</ele>
        <time>2026-08-04T11:12:54.132Z</time>
      </trkpt>
      <trkpt lat="45.91771" lon="6.84788">
        <ele>1202</ele>
        <time>2026-08-04T11:12:55.132Z</time>
      </trkpt>
      <trkpt lat="45.9177" lon="6.84786">
        <ele>1202</ele>
        <time>2026-08-04T11:12:56.132Z</time>
      </trkpt>
      <trkpt lat="45.91768" lon="6.84784">
        <ele>1201</ele>
        <time>2026-08-04T11:12:57.132Z</time>
      </trkpt>
      <trkpt lat="45.91766" lon="6.84782">
        <ele>1201</ele>
        <time>2026-08-04T11:12:58.132Z</time>
      </trkpt>
      <trkpt lat="45.91765" lon="6.84779">
        <ele>1201</ele>
        <time>2026-08-04T11:12:59.132Z</time>
      </trkpt>
      <trkpt lat="45.91764" lon="6.84777">
        <ele>1201</ele>
        <time>2026-08-04T11:13:00.132Z</time>
      </trkpt>
      <trkpt lat="45.91762" lon="6.84775">
        <ele>1201</ele>
        <time>2026-08-04T11:13:01.132Z</time>
      </trkpt>
      <trkpt lat="45.9176" lon="6.84774">
        <ele>1201</ele>
        <time>2026-08-04T11:13:02.132Z</time>
      </trkpt>
      <trkpt lat="45.91758" lon="6.84773">
        <ele>1201</ele>
        <time>2026-08-04T11:13:03.132Z</time>
      </trkpt>
      <trkpt lat="45.91756" lon="6.84772">
        <ele>1201</ele>
        <time>2026-08-04T11:13:04.132Z</time>
      </trkpt>
      <trkpt lat="45.91756" lon="6.84772">
        <ele>1202</ele>
        <time>2026-08-04T11:13:05.132Z</time>
      </trkpt>
      <trkpt lat="45.91753" lon="6.84772">
        <ele>1202</ele>
        <time>2026-08-04T11:13:06.132Z</time>
      </trkpt>
      <trkpt lat="45.9175" lon="6.84772">
        <ele>1203</ele>
        <time>2026-08-04T11:13:07.132Z</time>
      </trkpt>
      <trkpt lat="45.91748" lon="6.84773">
        <ele>1204</ele>
        <time>2026-08-04T11:13:08.132Z</time>
      </trkpt>
      <trkpt lat="45.91748" lon="6.84773">
        <ele>1204</ele>
        <time>2026-08-04T11:13:09.132Z</time>
      </trkpt>
      <trkpt lat="45.91748" lon="6.84773">
        <ele>1205</ele>
        <time>2026-08-04T11:13:10.132Z</time>
      </trkpt>
      <trkpt lat="45.91747" lon="6.84773">
        <ele>1206</ele>
        <time>2026-08-04T11:13:11.132Z</time>
      </trkpt>
      <trkpt lat="45.91747" lon="6.84772">
        <ele>1206</ele>
        <time>2026-08-04T11:13:12.132Z</time>
      </trkpt>
      <trkpt lat="45.91747" lon="6.84772">
        <ele>1206</ele>
        <time>2026-08-04T11:13:13.132Z</time>
      </trkpt>
      <trkpt lat="45.91746" lon="6.84772">
        <ele>1207</ele>
        <time>2026-08-04T11:13:14.132Z</time>
      </trkpt>
      <trkpt lat="45.91745" lon="6.84771">
        <ele>1207</ele>
        <time>2026-08-04T11:13:15.132Z</time>
      </trkpt>
      <trkpt lat="45.91742" lon="6.84771">
        <ele>1207</ele>
        <time>2026-08-04T11:13:16.132Z</time>
      </trkpt>
      <trkpt lat="45.91741" lon="6.8477">
        <ele>1207</ele>
        <time>2026-08-04T11:13:17.132Z</time>
      </trkpt>
      <trkpt lat="45.91739" lon="6.84768">
        <ele>1207</ele>
        <time>2026-08-04T11:13:18.132Z</time>
      </trkpt>
      <trkpt lat="45.91736" lon="6.84767">
        <ele>1206</ele>
        <time>2026-08-04T11:13:19.132Z</time>
      </trkpt>
      <trkpt lat="45.91734" lon="6.84766">
        <ele>1206</ele>
        <time>2026-08-04T11:13:20.132Z</time>
      </trkpt>
      <trkpt lat="45.91731" lon="6.84766">
        <ele>1206</ele>
        <time>2026-08-04T11:13:21.132Z</time>
      </trkpt>
      <trkpt lat="45.91728" lon="6.84765">
        <ele>1205</ele>
        <time>2026-08-04T11:13:22.132Z</time>
      </trkpt>
      <trkpt lat="45.91725" lon="6.84764">
        <ele>1205</ele>
        <time>2026-08-04T11:13:23.132Z</time>
      </trkpt>
      <trkpt lat="45.91723" lon="6.84763">
        <ele>1204</ele>
        <time>2026-08-04T11:13:24.132Z</time>
      </trkpt>
      <trkpt lat="45.91721" lon="6.84761">
        <ele>1204</ele>
        <time>2026-08-04T11:13:25.132Z</time>
      </trkpt>
      <trkpt lat="45.9172" lon="6.84759">
        <ele>1203</ele>
        <time>2026-08-04T11:13:26.132Z</time>
      </trkpt>
      <trkpt lat="45.91718" lon="6.84756">
        <ele>1203</ele>
        <time>2026-08-04T11:13:27.132Z</time>
      </trkpt>
      <trkpt lat="45.91716" lon="6.84755">
        <ele>1202</ele>
        <time>2026-08-04T11:13:28.132Z</time>
      </trkpt>
      <trkpt lat="45.91715" lon="6.84753">
        <ele>1202</ele>
        <time>2026-08-04T11:13:29.132Z</time>
      </trkpt>
      <trkpt lat="45.91713" lon="6.84752">
        <ele>1201</ele>
        <time>2026-08-04T11:13:30.132Z</time>
      </trkpt>
      <trkpt lat="45.91711" lon="6.8475">
        <ele>1201</ele>
        <time>2026-08-04T11:13:31.132Z</time>
      </trkpt>
      <trkpt lat="45.9171" lon="6.84749">
        <ele>1200</ele>
        <time>2026-08-04T11:13:32.132Z</time>
      </trkpt>
      <trkpt lat="45.91709" lon="6.84748">
        <ele>1200</ele>
        <time>2026-08-04T11:13:33.132Z</time>
      </trkpt>
      <trkpt lat="45.91709" lon="6.84748">
        <ele>1199</ele>
        <time>2026-08-04T11:13:34.132Z</time>
      </trkpt>
      <trkpt lat="45.91709" lon="6.84748">
        <ele>1199</ele>
        <time>2026-08-04T11:13:35.132Z</time>
      </trkpt>
      <trkpt lat="45.91709" lon="6.84747">
        <ele>1198</ele>
        <time>2026-08-04T11:13:36.132Z</time>
      </trkpt>
      <trkpt lat="45.91709" lon="6.84747">
        <ele>1198</ele>
        <time>2026-08-04T11:13:37.132Z</time>
      </trkpt>
      <trkpt lat="45.91709" lon="6.84747">
        <ele>1198</ele>
        <time>2026-08-04T11:13:38.132Z</time>
      </trkpt>
      <trkpt lat="45.91709" lon="6.84747">
        <ele>1198</ele>
        <time>2026-08-04T11:13:39.132Z</time>
      </trkpt>
      <trkpt lat="45.91708" lon="6.84745">
        <ele>1198</ele>
        <time>2026-08-04T11:13:40.132Z</time>
      </trkpt>
      <trkpt lat="45.91708" lon="6.84743">
        <ele>1199</ele>
        <time>2026-08-04T11:13:41.132Z</time>
      </trkpt>
      <trkpt lat="45.91708" lon="6.84741">
        <ele>1198</ele>
        <time>2026-08-04T11:13:42.132Z</time>
      </trkpt>
      <trkpt lat="45.91707" lon="6.8474">
        <ele>1198</ele>
        <time>2026-08-04T11:13:43.132Z</time>
      </trkpt>
      <trkpt lat="45.91706" lon="6.84738">
        <ele>1198</ele>
        <time>2026-08-04T11:13:44.132Z</time>
      </trkpt>
      <trkpt lat="45.91705" lon="6.84737">
        <ele>1197</ele>
        <time>2026-08-04T11:13:45.132Z</time>
      </trkpt>
      <trkpt lat="45.91704" lon="6.84736">
        <ele>1197</ele>
        <time>2026-08-04T11:13:46.132Z</time>
      </trkpt>
      <trkpt lat="45.91703" lon="6.84734">
        <ele>1197</ele>
        <time>2026-08-04T11:13:47.132Z</time>
      </trkpt>
      <trkpt lat="45.91702" lon="6.84732">
        <ele>1196</ele>
        <time>2026-08-04T11:13:48.132Z</time>
      </trkpt>
      <trkpt lat="45.91702" lon="6.84728">
        <ele>1196</ele>
        <time>2026-08-04T11:13:49.132Z</time>
      </trkpt>
      <trkpt lat="45.91701" lon="6.84726">
        <ele>1196</ele>
        <time>2026-08-04T11:13:50.132Z</time>
      </trkpt>
      <trkpt lat="45.91699" lon="6.84724">
        <ele>1196</ele>
        <time>2026-08-04T11:13:51.132Z</time>
      </trkpt>
      <trkpt lat="45.91697" lon="6.84722">
        <ele>1196</ele>
        <time>2026-08-04T11:13:52.132Z</time>
      </trkpt>
      <trkpt lat="45.91696" lon="6.8472">
        <ele>1196</ele>
        <time>2026-08-04T11:13:53.132Z</time>
      </trkpt>
      <trkpt lat="45.91694" lon="6.84718">
        <ele>1196</ele>
        <time>2026-08-04T11:13:54.132Z</time>
      </trkpt>
      <trkpt lat="45.91692" lon="6.84715">
        <ele>1196</ele>
        <time>2026-08-04T11:13:55.132Z</time>
      </trkpt>
      <trkpt lat="45.9169" lon="6.84713">
        <ele>1196</ele>
        <time>2026-08-04T11:13:56.132Z</time>
      </trkpt>
      <trkpt lat="45.91689" lon="6.8471">
        <ele>1196</ele>
        <time>2026-08-04T11:13:57.133Z</time>
      </trkpt>
      <trkpt lat="45.91687" lon="6.84708">
        <ele>1196</ele>
        <time>2026-08-04T11:13:58.132Z</time>
      </trkpt>
      <trkpt lat="45.91685" lon="6.84705">
        <ele>1197</ele>
        <time>2026-08-04T11:13:59.132Z</time>
      </trkpt>
      <trkpt lat="45.91684" lon="6.84702">
        <ele>1197</ele>
        <time>2026-08-04T11:14:00.132Z</time>
      </trkpt>
      <trkpt lat="45.91682" lon="6.847">
        <ele>1197</ele>
        <time>2026-08-04T11:14:01.132Z</time>
      </trkpt>
      <trkpt lat="45.91681" lon="6.84698">
        <ele>1197</ele>
        <time>2026-08-04T11:14:02.132Z</time>
      </trkpt>
      <trkpt lat="45.91679" lon="6.84696">
        <ele>1197</ele>
        <time>2026-08-04T11:14:03.132Z</time>
      </trkpt>
      <trkpt lat="45.91678" lon="6.84694">
        <ele>1197</ele>
        <time>2026-08-04T11:14:04.132Z</time>
      </trkpt>
      <trkpt lat="45.91677" lon="6.84692">
        <ele>1198</ele>
        <time>2026-08-04T11:14:05.132Z</time>
      </trkpt>
      <trkpt lat="45.91676" lon="6.84689">
        <ele>1198</ele>
        <time>2026-08-04T11:14:06.132Z</time>
      </trkpt>
      <trkpt lat="45.91674" lon="6.84686">
        <ele>1198</ele>
        <time>2026-08-04T11:14:07.132Z</time>
      </trkpt>
      <trkpt lat="45.91673" lon="6.84683">
        <ele>1198</ele>
        <time>2026-08-04T11:14:08.132Z</time>
      </trkpt>
      <trkpt lat="45.91672" lon="6.84681">
        <ele>1198</ele>
        <time>2026-08-04T11:14:09.132Z</time>
      </trkpt>
      <trkpt lat="45.9167" lon="6.84678">
        <ele>1198</ele>
        <time>2026-08-04T11:14:10.132Z</time>
      </trkpt>
      <trkpt lat="45.91668" lon="6.84676">
        <ele>1198</ele>
        <time>2026-08-04T11:14:11.132Z</time>
      </trkpt>
      <trkpt lat="45.91666" lon="6.84674">
        <ele>1198</ele>
        <time>2026-08-04T11:14:12.132Z</time>
      </trkpt>
      <trkpt lat="45.91664" lon="6.84672">
        <ele>1197</ele>
        <time>2026-08-04T11:14:13.132Z</time>
      </trkpt>
      <trkpt lat="45.91663" lon="6.84669">
        <ele>1196</ele>
        <time>2026-08-04T11:14:14.132Z</time>
      </trkpt>
      <trkpt lat="45.91662" lon="6.84667">
        <ele>1196</ele>
        <time>2026-08-04T11:14:15.132Z</time>
      </trkpt>
      <trkpt lat="45.9166" lon="6.84665">
        <ele>1195</ele>
        <time>2026-08-04T11:14:16.132Z</time>
      </trkpt>
      <trkpt lat="45.91658" lon="6.84662">
        <ele>1195</ele>
        <time>2026-08-04T11:14:17.132Z</time>
      </trkpt>
      <trkpt lat="45.91657" lon="6.84657">
        <ele>1194</ele>
        <time>2026-08-04T11:14:18.132Z</time>
      </trkpt>
      <trkpt lat="45.91657" lon="6.84653">
        <ele>1194</ele>
        <time>2026-08-04T11:14:19.132Z</time>
      </trkpt>
      <trkpt lat="45.91656" lon="6.84648">
        <ele>1193</ele>
        <time>2026-08-04T11:14:20.132Z</time>
      </trkpt>
      <trkpt lat="45.91656" lon="6.84643">
        <ele>1192</ele>
        <time>2026-08-04T11:14:21.132Z</time>
      </trkpt>
      <trkpt lat="45.91656" lon="6.84639">
        <ele>1191</ele>
        <time>2026-08-04T11:14:22.132Z</time>
      </trkpt>
      <trkpt lat="45.91657" lon="6.84635">
        <ele>1191</ele>
        <time>2026-08-04T11:14:23.132Z</time>
      </trkpt>
      <trkpt lat="45.91657" lon="6.84631">
        <ele>1190</ele>
        <time>2026-08-04T11:14:24.132Z</time>
      </trkpt>
      <trkpt lat="45.91656" lon="6.84628">
        <ele>1189</ele>
        <time>2026-08-04T11:14:25.132Z</time>
      </trkpt>
      <trkpt lat="45.91655" lon="6.84625">
        <ele>1189</ele>
        <time>2026-08-04T11:14:26.132Z</time>
      </trkpt>
      <trkpt lat="45.91654" lon="6.84622">
        <ele>1188</ele>
        <time>2026-08-04T11:14:27.132Z</time>
      </trkpt>
      <trkpt lat="45.91653" lon="6.84619">
        <ele>1188</ele>
        <time>2026-08-04T11:14:28.132Z</time>
      </trkpt>
      <trkpt lat="45.91652" lon="6.84615">
        <ele>1187</ele>
        <time>2026-08-04T11:14:29.132Z</time>
      </trkpt>
      <trkpt lat="45.91651" lon="6.84613">
        <ele>1187</ele>
        <time>2026-08-04T11:14:30.132Z</time>
      </trkpt>
      <trkpt lat="45.9165" lon="6.84612">
        <ele>1187</ele>
        <time>2026-08-04T11:14:31.132Z</time>
      </trkpt>
      <trkpt lat="45.91648" lon="6.8461">
        <ele>1187</ele>
        <time>2026-08-04T11:14:32.132Z</time>
      </trkpt>
      <trkpt lat="45.91647" lon="6.84608">
        <ele>1188</ele>
        <time>2026-08-04T11:14:33.132Z</time>
      </trkpt>
      <trkpt lat="45.91645" lon="6.84606">
        <ele>1188</ele>
        <time>2026-08-04T11:14:34.132Z</time>
      </trkpt>
      <trkpt lat="45.91644" lon="6.84603">
        <ele>1188</ele>
        <time>2026-08-04T11:14:35.132Z</time>
      </trkpt>
      <trkpt lat="45.91644" lon="6.846">
        <ele>1188</ele>
        <time>2026-08-04T11:14:36.132Z</time>
      </trkpt>
      <trkpt lat="45.91642" lon="6.84597">
        <ele>1188</ele>
        <time>2026-08-04T11:14:37.132Z</time>
      </trkpt>
      <trkpt lat="45.91642" lon="6.84595">
        <ele>1188</ele>
        <time>2026-08-04T11:14:38.132Z</time>
      </trkpt>
      <trkpt lat="45.91641" lon="6.84592">
        <ele>1188</ele>
        <time>2026-08-04T11:14:39.132Z</time>
      </trkpt>
      <trkpt lat="45.91639" lon="6.8459">
        <ele>1188</ele>
        <time>2026-08-04T11:14:40.132Z</time>
      </trkpt>
      <trkpt lat="45.91636" lon="6.84589">
        <ele>1188</ele>
        <time>2026-08-04T11:14:41.132Z</time>
      </trkpt>
      <trkpt lat="45.91634" lon="6.84587">
        <ele>1188</ele>
        <time>2026-08-04T11:14:42.132Z</time>
      </trkpt>
      <trkpt lat="45.91634" lon="6.84583">
        <ele>1188</ele>
        <time>2026-08-04T11:14:43.132Z</time>
      </trkpt>
      <trkpt lat="45.91633" lon="6.84579">
        <ele>1188</ele>
        <time>2026-08-04T11:14:44.132Z</time>
      </trkpt>
      <trkpt lat="45.91633" lon="6.84575">
        <ele>1188</ele>
        <time>2026-08-04T11:14:45.132Z</time>
      </trkpt>
      <trkpt lat="45.91632" lon="6.84573">
        <ele>1188</ele>
        <time>2026-08-04T11:14:46.132Z</time>
      </trkpt>
      <trkpt lat="45.9163" lon="6.84571">
        <ele>1188</ele>
        <time>2026-08-04T11:14:47.132Z</time>
      </trkpt>
      <trkpt lat="45.91628" lon="6.84568">
        <ele>1189</ele>
        <time>2026-08-04T11:14:48.132Z</time>
      </trkpt>
      <trkpt lat="45.91626" lon="6.84566">
        <ele>1189</ele>
        <time>2026-08-04T11:14:49.132Z</time>
      </trkpt>
      <trkpt lat="45.91624" lon="6.84562">
        <ele>1189</ele>
        <time>2026-08-04T11:14:50.132Z</time>
      </trkpt>
      <trkpt lat="45.91622" lon="6.84561">
        <ele>1189</ele>
        <time>2026-08-04T11:14:51.132Z</time>
      </trkpt>
      <trkpt lat="45.9162" lon="6.84558">
        <ele>1190</ele>
        <time>2026-08-04T11:14:52.132Z</time>
      </trkpt>
      <trkpt lat="45.91619" lon="6.84554">
        <ele>1190</ele>
        <time>2026-08-04T11:14:53.132Z</time>
      </trkpt>
      <trkpt lat="45.91617" lon="6.84551">
        <ele>1191</ele>
        <time>2026-08-04T11:14:54.132Z</time>
      </trkpt>
      <trkpt lat="45.91616" lon="6.8455">
        <ele>1191</ele>
        <time>2026-08-04T11:14:55.132Z</time>
      </trkpt>
      <trkpt lat="45.91616" lon="6.84547">
        <ele>1192</ele>
        <time>2026-08-04T11:14:56.132Z</time>
      </trkpt>
      <trkpt lat="45.91616" lon="6.84544">
        <ele>1192</ele>
        <time>2026-08-04T11:14:57.132Z</time>
      </trkpt>
      <trkpt lat="45.91614" lon="6.84541">
        <ele>1193</ele>
        <time>2026-08-04T11:14:58.132Z</time>
      </trkpt>
      <trkpt lat="45.91613" lon="6.84539">
        <ele>1193</ele>
        <time>2026-08-04T11:14:59.132Z</time>
      </trkpt>
      <trkpt lat="45.91611" lon="6.84537">
        <ele>1193</ele>
        <time>2026-08-04T11:15:00.132Z</time>
      </trkpt>
      <trkpt lat="45.9161" lon="6.84534">
        <ele>1193</ele>
        <time>2026-08-04T11:15:01.132Z</time>
      </trkpt>
      <trkpt lat="45.91608" lon="6.84532">
        <ele>1194</ele>
        <time>2026-08-04T11:15:02.132Z</time>
      </trkpt>
      <trkpt lat="45.91606" lon="6.84531">
        <ele>1194</ele>
        <time>2026-08-04T11:15:03.132Z</time>
      </trkpt>
      <trkpt lat="45.91605" lon="6.84531">
        <ele>1194</ele>
        <time>2026-08-04T11:15:04.132Z</time>
      </trkpt>
      <trkpt lat="45.91603" lon="6.8453">
        <ele>1194</ele>
        <time>2026-08-04T11:15:05.132Z</time>
      </trkpt>
      <trkpt lat="45.91601" lon="6.84529">
        <ele>1194</ele>
        <time>2026-08-04T11:15:06.132Z</time>
      </trkpt>
      <trkpt lat="45.91599" lon="6.84528">
        <ele>1194</ele>
        <time>2026-08-04T11:15:07.132Z</time>
      </trkpt>
      <trkpt lat="45.91598" lon="6.84527">
        <ele>1194</ele>
        <time>2026-08-04T11:15:08.132Z</time>
      </trkpt>
      <trkpt lat="45.91598" lon="6.84526">
        <ele>1194</ele>
        <time>2026-08-04T11:15:09.132Z</time>
      </trkpt>
      <trkpt lat="45.91597" lon="6.84525">
        <ele>1194</ele>
        <time>2026-08-04T11:15:10.132Z</time>
      </trkpt>
      <trkpt lat="45.91598" lon="6.8452">
        <ele>1193</ele>
        <time>2026-08-04T11:15:11.132Z</time>
      </trkpt>
      <trkpt lat="45.91597" lon="6.84517">
        <ele>1193</ele>
        <time>2026-08-04T11:15:12.132Z</time>
      </trkpt>
      <trkpt lat="45.91596" lon="6.84515">
        <ele>1193</ele>
        <time>2026-08-04T11:15:13.132Z</time>
      </trkpt>
      <trkpt lat="45.91596" lon="6.84514">
        <ele>1193</ele>
        <time>2026-08-04T11:15:14.132Z</time>
      </trkpt>
      <trkpt lat="45.91598" lon="6.84514">
        <ele>1193</ele>
        <time>2026-08-04T11:15:15.132Z</time>
      </trkpt>
      <trkpt lat="45.91599" lon="6.84514">
        <ele>1193</ele>
        <time>2026-08-04T11:15:16.132Z</time>
      </trkpt>
      <trkpt lat="45.91599" lon="6.84514">
        <ele>1193</ele>
        <time>2026-08-04T11:15:17.132Z</time>
      </trkpt>
      <trkpt lat="45.91599" lon="6.84514">
        <ele>1193</ele>
        <time>2026-08-04T11:15:18.132Z</time>
      </trkpt>
      <trkpt lat="45.91599" lon="6.84513">
        <ele>1193</ele>
        <time>2026-08-04T11:15:19.132Z</time>
      </trkpt>
      <trkpt lat="45.91599" lon="6.8451">
        <ele>1193</ele>
        <time>2026-08-04T11:15:20.132Z</time>
      </trkpt>
      <trkpt lat="45.916" lon="6.84508">
        <ele>1192</ele>
        <time>2026-08-04T11:15:21.132Z</time>
      </trkpt>
      <trkpt lat="45.91602" lon="6.84508">
        <ele>1192</ele>
        <time>2026-08-04T11:15:22.132Z</time>
      </trkpt>
      <trkpt lat="45.91602" lon="6.84506">
        <ele>1192</ele>
        <time>2026-08-04T11:15:23.132Z</time>
      </trkpt>
      <trkpt lat="45.91602" lon="6.84504">
        <ele>1192</ele>
        <time>2026-08-04T11:15:24.132Z</time>
      </trkpt>
      <trkpt lat="45.91601" lon="6.84502">
        <ele>1192</ele>
        <time>2026-08-04T11:15:25.132Z</time>
      </trkpt>
      <trkpt lat="45.91602" lon="6.84501">
        <ele>1191</ele>
        <time>2026-08-04T11:15:26.132Z</time>
      </trkpt>
      <trkpt lat="45.91602" lon="6.845">
        <ele>1191</ele>
        <time>2026-08-04T11:15:27.132Z</time>
      </trkpt>
      <trkpt lat="45.91602" lon="6.84499">
        <ele>1191</ele>
        <time>2026-08-04T11:15:28.132Z</time>
      </trkpt>
      <trkpt lat="45.91602" lon="6.84498">
        <ele>1191</ele>
        <time>2026-08-04T11:15:29.132Z</time>
      </trkpt>
      <trkpt lat="45.916" lon="6.84497">
        <ele>1191</ele>
        <time>2026-08-04T11:15:30.132Z</time>
      </trkpt>
      <trkpt lat="45.91599" lon="6.84494">
        <ele>1191</ele>
        <time>2026-08-04T11:15:31.132Z</time>
      </trkpt>
      <trkpt lat="45.91598" lon="6.84493">
        <ele>1192</ele>
        <time>2026-08-04T11:15:32.132Z</time>
      </trkpt>
      <trkpt lat="45.91597" lon="6.84493">
        <ele>1192</ele>
        <time>2026-08-04T11:15:33.132Z</time>
      </trkpt>
      <trkpt lat="45.91596" lon="6.84493">
        <ele>1192</ele>
        <time>2026-08-04T11:15:34.132Z</time>
      </trkpt>
      <trkpt lat="45.91594" lon="6.84493">
        <ele>1193</ele>
        <time>2026-08-04T11:15:35.132Z</time>
      </trkpt>
      <trkpt lat="45.91593" lon="6.84492">
        <ele>1193</ele>
        <time>2026-08-04T11:15:36.132Z</time>
      </trkpt>
      <trkpt lat="45.91593" lon="6.8449">
        <ele>1193</ele>
        <time>2026-08-04T11:15:37.132Z</time>
      </trkpt>
      <trkpt lat="45.91592" lon="6.84488">
        <ele>1193</ele>
        <time>2026-08-04T11:15:38.132Z</time>
      </trkpt>
      <trkpt lat="45.9159" lon="6.84487">
        <ele>1194</ele>
        <time>2026-08-04T11:15:39.132Z</time>
      </trkpt>
      <trkpt lat="45.91588" lon="6.84486">
        <ele>1194</ele>
        <time>2026-08-04T11:15:40.132Z</time>
      </trkpt>
      <trkpt lat="45.91585" lon="6.84486">
        <ele>1194</ele>
        <time>2026-08-04T11:15:41.132Z</time>
      </trkpt>
      <trkpt lat="45.91584" lon="6.84485">
        <ele>1194</ele>
        <time>2026-08-04T11:15:42.132Z</time>
      </trkpt>
      <trkpt lat="45.91583" lon="6.84485">
        <ele>1194</ele>
        <time>2026-08-04T11:15:43.132Z</time>
      </trkpt>
      <trkpt lat="45.91582" lon="6.84485">
        <ele>1194</ele>
        <time>2026-08-04T11:15:44.132Z</time>
      </trkpt>
      <trkpt lat="45.91581" lon="6.84484">
        <ele>1194</ele>
        <time>2026-08-04T11:15:45.132Z</time>
      </trkpt>
      <trkpt lat="45.91581" lon="6.84483">
        <ele>1194</ele>
        <time>2026-08-04T11:15:46.132Z</time>
      </trkpt>
      <trkpt lat="45.91581" lon="6.84481">
        <ele>1194</ele>
        <time>2026-08-04T11:15:47.132Z</time>
      </trkpt>
      <trkpt lat="45.9158" lon="6.8448">
        <ele>1194</ele>
        <time>2026-08-04T11:15:48.132Z</time>
      </trkpt>
      <trkpt lat="45.9158" lon="6.84478">
        <ele>1194</ele>
        <time>2026-08-04T11:15:49.132Z</time>
      </trkpt>
      <trkpt lat="45.91579" lon="6.84476">
        <ele>1194</ele>
        <time>2026-08-04T11:15:50.132Z</time>
      </trkpt>
      <trkpt lat="45.91578" lon="6.84475">
        <ele>1193</ele>
        <time>2026-08-04T11:15:51.132Z</time>
      </trkpt>
      <trkpt lat="45.91577" lon="6.84474">
        <ele>1193</ele>
        <time>2026-08-04T11:15:52.132Z</time>
      </trkpt>
      <trkpt lat="45.91576" lon="6.84473">
        <ele>1193</ele>
        <time>2026-08-04T11:15:53.132Z</time>
      </trkpt>
      <trkpt lat="45.91576" lon="6.8447">
        <ele>1193</ele>
        <time>2026-08-04T11:15:54.132Z</time>
      </trkpt>
      <trkpt lat="45.91576" lon="6.84469">
        <ele>1193</ele>
        <time>2026-08-04T11:15:55.132Z</time>
      </trkpt>
      <trkpt lat="45.91576" lon="6.84467">
        <ele>1193</ele>
        <time>2026-08-04T11:15:56.132Z</time>
      </trkpt>
      <trkpt lat="45.91576" lon="6.84466">
        <ele>1192</ele>
        <time>2026-08-04T11:15:57.132Z</time>
      </trkpt>
      <trkpt lat="45.91575" lon="6.84464">
        <ele>1192</ele>
        <time>2026-08-04T11:15:58.132Z</time>
      </trkpt>
      <trkpt lat="45.91575" lon="6.84462">
        <ele>1192</ele>
        <time>2026-08-04T11:15:59.133Z</time>
      </trkpt>
      <trkpt lat="45.91575" lon="6.84461">
        <ele>1192</ele>
        <time>2026-08-04T11:16:00.132Z</time>
      </trkpt>
      <trkpt lat="45.91575" lon="6.8446">
        <ele>1192</ele>
        <time>2026-08-04T11:16:01.132Z</time>
      </trkpt>
      <trkpt lat="45.91575" lon="6.84458">
        <ele>1191</ele>
        <time>2026-08-04T11:16:02.132Z</time>
      </trkpt>
      <trkpt lat="45.91574" lon="6.84456">
        <ele>1191</ele>
        <time>2026-08-04T11:16:03.132Z</time>
      </trkpt>
      <trkpt lat="45.91574" lon="6.84455">
        <ele>1190</ele>
        <time>2026-08-04T11:16:04.132Z</time>
      </trkpt>
      <trkpt lat="45.91574" lon="6.84453">
        <ele>1190</ele>
        <time>2026-08-04T11:16:05.132Z</time>
      </trkpt>
      <trkpt lat="45.91574" lon="6.84451">
        <ele>1189</ele>
        <time>2026-08-04T11:16:06.132Z</time>
      </trkpt>
      <trkpt lat="45.91574" lon="6.84449">
        <ele>1189</ele>
        <time>2026-08-04T11:16:07.132Z</time>
      </trkpt>
      <trkpt lat="45.91573" lon="6.84447">
        <ele>1189</ele>
        <time>2026-08-04T11:16:08.132Z</time>
      </trkpt>
      <trkpt lat="45.91573" lon="6.84445">
        <ele>1189</ele>
        <time>2026-08-04T11:16:09.132Z</time>
      </trkpt>
      <trkpt lat="45.91571" lon="6.84445">
        <ele>1189</ele>
        <time>2026-08-04T11:16:10.132Z</time>
      </trkpt>
      <trkpt lat="45.91568" lon="6.84444">
        <ele>1189</ele>
        <time>2026-08-04T11:16:11.132Z</time>
      </trkpt>
      <trkpt lat="45.91568" lon="6.84444">
        <ele>1189</ele>
        <time>2026-08-04T11:16:12.132Z</time>
      </trkpt>
      <trkpt lat="45.91569" lon="6.84443">
        <ele>1189</ele>
        <time>2026-08-04T11:16:13.132Z</time>
      </trkpt>
      <trkpt lat="45.91572" lon="6.84442">
        <ele>1188</ele>
        <time>2026-08-04T11:16:14.132Z</time>
      </trkpt>
      <trkpt lat="45.91574" lon="6.84439">
        <ele>1188</ele>
        <time>2026-08-04T11:16:15.132Z</time>
      </trkpt>
      <trkpt lat="45.91576" lon="6.84441">
        <ele>1189</ele>
        <time>2026-08-04T11:16:16.132Z</time>
      </trkpt>
      <trkpt lat="45.91576" lon="6.84441">
        <ele>1189</ele>
        <time>2026-08-04T11:16:17.132Z</time>
      </trkpt>
      <trkpt lat="45.91577" lon="6.84442">
        <ele>1189</ele>
        <time>2026-08-04T11:16:18.132Z</time>
      </trkpt>
      <trkpt lat="45.91579" lon="6.84442">
        <ele>1189</ele>
        <time>2026-08-04T11:16:19.132Z</time>
      </trkpt>
      <trkpt lat="45.9158" lon="6.84442">
        <ele>1189</ele>
        <time>2026-08-04T11:16:20.132Z</time>
      </trkpt>
      <trkpt lat="45.91581" lon="6.84443">
        <ele>1190</ele>
        <time>2026-08-04T11:16:21.132Z</time>
      </trkpt>
      <trkpt lat="45.91583" lon="6.84444">
        <ele>1190</ele>
        <time>2026-08-04T11:16:22.132Z</time>
      </trkpt>
      <trkpt lat="45.91586" lon="6.84445">
        <ele>1190</ele>
        <time>2026-08-04T11:16:23.132Z</time>
      </trkpt>
      <trkpt lat="45.91587" lon="6.84447">
        <ele>1190</ele>
        <time>2026-08-04T11:16:24.132Z</time>
      </trkpt>
      <trkpt lat="45.91587" lon="6.84449">
        <ele>1190</ele>
        <time>2026-08-04T11:16:25.132Z</time>
      </trkpt>
      <trkpt lat="45.91587" lon="6.84451">
        <ele>1190</ele>
        <time>2026-08-04T11:16:26.132Z</time>
      </trkpt>
      <trkpt lat="45.91588" lon="6.84453">
        <ele>1191</ele>
        <time>2026-08-04T11:16:27.132Z</time>
      </trkpt>
      <trkpt lat="45.91588" lon="6.84454">
        <ele>1191</ele>
        <time>2026-08-04T11:16:28.132Z</time>
      </trkpt>
      <trkpt lat="45.91588" lon="6.84455">
        <ele>1192</ele>
        <time>2026-08-04T11:16:29.132Z</time>
      </trkpt>
      <trkpt lat="45.91589" lon="6.84455">
        <ele>1192</ele>
        <time>2026-08-04T11:16:30.132Z</time>
      </trkpt>
      <trkpt lat="45.91589" lon="6.84456">
        <ele>1192</ele>
        <time>2026-08-04T11:16:31.132Z</time>
      </trkpt>
      <trkpt lat="45.91589" lon="6.84457">
        <ele>1193</ele>
        <time>2026-08-04T11:16:32.132Z</time>
      </trkpt>
      <trkpt lat="45.91589" lon="6.84459">
        <ele>1193</ele>
        <time>2026-08-04T11:16:33.132Z</time>
      </trkpt>
      <trkpt lat="45.9159" lon="6.8446">
        <ele>1193</ele>
        <time>2026-08-04T11:16:34.132Z</time>
      </trkpt>
      <trkpt lat="45.91589" lon="6.8446">
        <ele>1193</ele>
        <time>2026-08-04T11:16:35.132Z</time>
      </trkpt>
      <trkpt lat="45.9159" lon="6.8446">
        <ele>1193</ele>
        <time>2026-08-04T11:16:36.132Z</time>
      </trkpt>
      <trkpt lat="45.91592" lon="6.8446">
        <ele>1193</ele>
        <time>2026-08-04T11:16:37.132Z</time>
      </trkpt>
      <trkpt lat="45.91594" lon="6.84461">
        <ele>1193</ele>
        <time>2026-08-04T11:16:38.132Z</time>
      </trkpt>
      <trkpt lat="45.91596" lon="6.84465">
        <ele>1193</ele>
        <time>2026-08-04T11:16:39.132Z</time>
      </trkpt>
      <trkpt lat="45.91597" lon="6.84466">
        <ele>1193</ele>
        <time>2026-08-04T11:16:40.132Z</time>
      </trkpt>
      <trkpt lat="45.91598" lon="6.84467">
        <ele>1193</ele>
        <time>2026-08-04T11:16:41.132Z</time>
      </trkpt>
      <trkpt lat="45.91598" lon="6.84467">
        <ele>1193</ele>
        <time>2026-08-04T11:16:42.132Z</time>
      </trkpt>
      <trkpt lat="45.91599" lon="6.84467">
        <ele>1193</ele>
        <time>2026-08-04T11:16:43.132Z</time>
      </trkpt>
      <trkpt lat="45.916" lon="6.84467">
        <ele>1193</ele>
        <time>2026-08-04T11:16:44.132Z</time>
      </trkpt>
      <trkpt lat="45.91601" lon="6.84467">
        <ele>1193</ele>
        <time>2026-08-04T11:16:45.132Z</time>
      </trkpt>
      <trkpt lat="45.91602" lon="6.84467">
        <ele>1193</ele>
        <time>2026-08-04T11:16:46.132Z</time>
      </trkpt>
      <trkpt lat="45.91604" lon="6.84467">
        <ele>1193</ele>
        <time>2026-08-04T11:16:47.132Z</time>
      </trkpt>
      <trkpt lat="45.91605" lon="6.84468">
        <ele>1193</ele>
        <time>2026-08-04T11:16:48.132Z</time>
      </trkpt>
      <trkpt lat="45.91606" lon="6.84468">
        <ele>1193</ele>
        <time>2026-08-04T11:16:49.132Z</time>
      </trkpt>
      <trkpt lat="45.91607" lon="6.84469">
        <ele>1193</ele>
        <time>2026-08-04T11:16:50.132Z</time>
      </trkpt>
      <trkpt lat="45.91608" lon="6.84469">
        <ele>1193</ele>
        <time>2026-08-04T11:16:51.132Z</time>
      </trkpt>
      <trkpt lat="45.91609" lon="6.8447">
        <ele>1193</ele>
        <time>2026-08-04T11:16:52.132Z</time>
      </trkpt>
      <trkpt lat="45.9161" lon="6.84472">
        <ele>1193</ele>
        <time>2026-08-04T11:16:53.132Z</time>
      </trkpt>
      <trkpt lat="45.91611" lon="6.84473">
        <ele>1193</ele>
        <time>2026-08-04T11:16:54.132Z</time>
      </trkpt>
      <trkpt lat="45.91612" lon="6.84473">
        <ele>1193</ele>
        <time>2026-08-04T11:16:55.132Z</time>
      </trkpt>
      <trkpt lat="45.91613" lon="6.84474">
        <ele>1193</ele>
        <time>2026-08-04T11:16:56.132Z</time>
      </trkpt>
      <trkpt lat="45.91613" lon="6.84475">
        <ele>1193</ele>
        <time>2026-08-04T11:16:57.132Z</time>
      </trkpt>
      <trkpt lat="45.91614" lon="6.84475">
        <ele>1194</ele>
        <time>2026-08-04T11:16:58.132Z</time>
      </trkpt>
      <trkpt lat="45.91615" lon="6.84474">
        <ele>1194</ele>
        <time>2026-08-04T11:16:59.132Z</time>
      </trkpt>
      <trkpt lat="45.91616" lon="6.84474">
        <ele>1195</ele>
        <time>2026-08-04T11:17:00.132Z</time>
      </trkpt>
      <trkpt lat="45.91616" lon="6.84474">
        <ele>1195</ele>
        <time>2026-08-04T11:17:01.132Z</time>
      </trkpt>
      <trkpt lat="45.91617" lon="6.84474">
        <ele>1195</ele>
        <time>2026-08-04T11:17:02.132Z</time>
      </trkpt>
      <trkpt lat="45.91617" lon="6.84475">
        <ele>1195</ele>
        <time>2026-08-04T11:17:03.132Z</time>
      </trkpt>
      <trkpt lat="45.91618" lon="6.84476">
        <ele>1195</ele>
        <time>2026-08-04T11:17:04.132Z</time>
      </trkpt>
      <trkpt lat="45.91619" lon="6.84477">
        <ele>1196</ele>
        <time>2026-08-04T11:17:05.132Z</time>
      </trkpt>
      <trkpt lat="45.9162" lon="6.84479">
        <ele>1196</ele>
        <time>2026-08-04T11:17:06.132Z</time>
      </trkpt>
      <trkpt lat="45.91621" lon="6.84479">
        <ele>1196</ele>
        <time>2026-08-04T11:17:07.132Z</time>
      </trkpt>
      <trkpt lat="45.91622" lon="6.8448">
        <ele>1196</ele>
        <time>2026-08-04T11:17:08.132Z</time>
      </trkpt>
      <trkpt lat="45.91622" lon="6.84481">
        <ele>1197</ele>
        <time>2026-08-04T11:17:09.132Z</time>
      </trkpt>
      <trkpt lat="45.91622" lon="6.84482">
        <ele>1197</ele>
        <time>2026-08-04T11:17:10.132Z</time>
      </trkpt>
      <trkpt lat="45.91623" lon="6.84482">
        <ele>1197</ele>
        <time>2026-08-04T11:17:11.132Z</time>
      </trkpt>
      <trkpt lat="45.91623" lon="6.84482">
        <ele>1197</ele>
        <time>2026-08-04T11:17:12.132Z</time>
      </trkpt>
      <trkpt lat="45.91623" lon="6.84482">
        <ele>1197</ele>
        <time>2026-08-04T11:17:13.132Z</time>
      </trkpt>
      <trkpt lat="45.91623" lon="6.84483">
        <ele>1197</ele>
        <time>2026-08-04T11:17:14.132Z</time>
      </trkpt>
      <trkpt lat="45.91623" lon="6.84483">
        <ele>1197</ele>
        <time>2026-08-04T11:17:15.132Z</time>
      </trkpt>
      <trkpt lat="45.91623" lon="6.84483">
        <ele>1198</ele>
        <time>2026-08-04T11:17:16.132Z</time>
      </trkpt>
      <trkpt lat="45.91623" lon="6.84483">
        <ele>1198</ele>
        <time>2026-08-04T11:17:17.132Z</time>
      </trkpt>
      <trkpt lat="45.91623" lon="6.84483">
        <ele>1199</ele>
        <time>2026-08-04T11:17:18.132Z</time>
      </trkpt>
      <trkpt lat="45.91623" lon="6.84484">
        <ele>1200</ele>
        <time>2026-08-04T11:17:19.132Z</time>
      </trkpt>
      <trkpt lat="45.91623" lon="6.84484">
        <ele>1200</ele>
        <time>2026-08-04T11:17:20.132Z</time>
      </trkpt>
      <trkpt lat="45.91623" lon="6.84484">
        <ele>1201</ele>
        <time>2026-08-04T11:17:21.132Z</time>
      </trkpt>
      <trkpt lat="45.91623" lon="6.84484">
        <ele>1201</ele>
        <time>2026-08-04T11:17:22.132Z</time>
      </trkpt>
      <trkpt lat="45.91622" lon="6.84485">
        <ele>1202</ele>
        <time>2026-08-04T11:17:23.132Z</time>
      </trkpt>
      <trkpt lat="45.91622" lon="6.84484">
        <ele>1202</ele>
        <time>2026-08-04T11:17:24.132Z</time>
      </trkpt>
      <trkpt lat="45.91622" lon="6.84484">
        <ele>1202</ele>
        <time>2026-08-04T11:17:25.132Z</time>
      </trkpt>
      <trkpt lat="45.91622" lon="6.84484">
        <ele>1203</ele>
        <time>2026-08-04T11:17:26.132Z</time>
      </trkpt>
      <trkpt lat="45.91622" lon="6.84484">
        <ele>1203</ele>
        <time>2026-08-04T11:17:27.132Z</time>
      </trkpt>
      <trkpt lat="45.91622" lon="6.84483">
        <ele>1203</ele>
        <time>2026-08-04T11:17:28.132Z</time>
      </trkpt>
      <trkpt lat="45.91623" lon="6.84483">
        <ele>1203</ele>
        <time>2026-08-04T11:17:29.132Z</time>
      </trkpt>
      <trkpt lat="45.91623" lon="6.84483">
        <ele>1203</ele>
        <time>2026-08-04T11:17:30.132Z</time>
      </trkpt>
      <trkpt lat="45.91623" lon="6.84483">
        <ele>1202</ele>
        <time>2026-08-04T11:17:31.132Z</time>
      </trkpt>
      <trkpt lat="45.91622" lon="6.84483">
        <ele>1202</ele>
        <time>2026-08-04T11:17:32.132Z</time>
      </trkpt>
      <trkpt lat="45.91622" lon="6.84484">
        <ele>1202</ele>
        <time>2026-08-04T11:17:33.132Z</time>
      </trkpt>
      <trkpt lat="45.91621" lon="6.84483">
        <ele>1202</ele>
        <time>2026-08-04T11:17:34.132Z</time>
      </trkpt>
      <trkpt lat="45.91621" lon="6.84483">
        <ele>1201</ele>
        <time>2026-08-04T11:17:35.132Z</time>
      </trkpt>
      <trkpt lat="45.9162" lon="6.84482">
        <ele>1201</ele>
        <time>2026-08-04T11:17:36.132Z</time>
      </trkpt>
      <trkpt lat="45.91619" lon="6.84482">
        <ele>1201</ele>
        <time>2026-08-04T11:17:37.132Z</time>
      </trkpt>
      <trkpt lat="45.91619" lon="6.84481">
        <ele>1201</ele>
        <time>2026-08-04T11:17:38.132Z</time>
      </trkpt>
      <trkpt lat="45.91618" lon="6.84482">
        <ele>1201</ele>
        <time>2026-08-04T11:17:39.132Z</time>
      </trkpt>
      <trkpt lat="45.91617" lon="6.84482">
        <ele>1201</ele>
        <time>2026-08-04T11:17:40.132Z</time>
      </trkpt>
      <trkpt lat="45.91616" lon="6.84481">
        <ele>1201</ele>
        <time>2026-08-04T11:17:41.132Z</time>
      </trkpt>
      <trkpt lat="45.91615" lon="6.8448">
        <ele>1201</ele>
        <time>2026-08-04T11:17:42.132Z</time>
      </trkpt>
      <trkpt lat="45.91614" lon="6.8448">
        <ele>1201</ele>
        <time>2026-08-04T11:17:43.132Z</time>
      </trkpt>
      <trkpt lat="45.91613" lon="6.84479">
        <ele>1202</ele>
        <time>2026-08-04T11:17:44.132Z</time>
      </trkpt>
      <trkpt lat="45.91611" lon="6.84479">
        <ele>1203</ele>
        <time>2026-08-04T11:17:45.132Z</time>
      </trkpt>
      <trkpt lat="45.9161" lon="6.84479">
        <ele>1204</ele>
        <time>2026-08-04T11:17:46.132Z</time>
      </trkpt>
      <trkpt lat="45.91609" lon="6.84478">
        <ele>1205</ele>
        <time>2026-08-04T11:17:47.132Z</time>
      </trkpt>
      <trkpt lat="45.91608" lon="6.84478">
        <ele>1206</ele>
        <time>2026-08-04T11:17:48.132Z</time>
      </trkpt>
      <trkpt lat="45.91607" lon="6.84477">
        <ele>1206</ele>
        <time>2026-08-04T11:17:49.132Z</time>
      </trkpt>
      <trkpt lat="45.91607" lon="6.84477">
        <ele>1207</ele>
        <time>2026-08-04T11:17:50.132Z</time>
      </trkpt>
      <trkpt lat="45.91606" lon="6.84477">
        <ele>1208</ele>
        <time>2026-08-04T11:17:51.132Z</time>
      </trkpt>
      <trkpt lat="45.91605" lon="6.84476">
        <ele>1208</ele>
        <time>2026-08-04T11:17:52.132Z</time>
      </trkpt>
      <trkpt lat="45.91605" lon="6.84475">
        <ele>1209</ele>
        <time>2026-08-04T11:17:53.132Z</time>
      </trkpt>
      <trkpt lat="45.91604" lon="6.84474">
        <ele>1209</ele>
        <time>2026-08-04T11:17:54.132Z</time>
      </trkpt>
      <trkpt lat="45.91602" lon="6.84473">
        <ele>1209</ele>
        <time>2026-08-04T11:17:55.132Z</time>
      </trkpt>
      <trkpt lat="45.91601" lon="6.84471">
        <ele>1210</ele>
        <time>2026-08-04T11:17:56.132Z</time>
      </trkpt>
      <trkpt lat="45.916" lon="6.8447">
        <ele>1210</ele>
        <time>2026-08-04T11:17:57.132Z</time>
      </trkpt>
      <trkpt lat="45.91599" lon="6.84469">
        <ele>1210</ele>
        <time>2026-08-04T11:17:58.132Z</time>
      </trkpt>
      <trkpt lat="45.91597" lon="6.84468">
        <ele>1210</ele>
        <time>2026-08-04T11:17:59.132Z</time>
      </trkpt>
      <trkpt lat="45.91595" lon="6.84467">
        <ele>1210</ele>
        <time>2026-08-04T11:18:00.132Z</time>
      </trkpt>
      <trkpt lat="45.91594" lon="6.84467">
        <ele>1210</ele>
        <time>2026-08-04T11:18:01.132Z</time>
      </trkpt>
      <trkpt lat="45.91593" lon="6.84466">
        <ele>1210</ele>
        <time>2026-08-04T11:18:02.132Z</time>
      </trkpt>
      <trkpt lat="45.91592" lon="6.84464">
        <ele>1210</ele>
        <time>2026-08-04T11:18:03.132Z</time>
      </trkpt>
      <trkpt lat="45.91591" lon="6.84463">
        <ele>1210</ele>
        <time>2026-08-04T11:18:04.132Z</time>
      </trkpt>
      <trkpt lat="45.91591" lon="6.84462">
        <ele>1210</ele>
        <time>2026-08-04T11:18:05.132Z</time>
      </trkpt>
      <trkpt lat="45.9159" lon="6.84461">
        <ele>1210</ele>
        <time>2026-08-04T11:18:06.132Z</time>
      </trkpt>
      <trkpt lat="45.91589" lon="6.8446">
        <ele>1210</ele>
        <time>2026-08-04T11:18:07.132Z</time>
      </trkpt>
      <trkpt lat="45.91589" lon="6.84458">
        <ele>1210</ele>
        <time>2026-08-04T11:18:08.132Z</time>
      </trkpt>
      <trkpt lat="45.9159" lon="6.84456">
        <ele>1210</ele>
        <time>2026-08-04T11:18:09.132Z</time>
      </trkpt>
      <trkpt lat="45.91591" lon="6.84453">
        <ele>1210</ele>
        <time>2026-08-04T11:18:10.132Z</time>
      </trkpt>
      <trkpt lat="45.91591" lon="6.84451">
        <ele>1210</ele>
        <time>2026-08-04T11:18:11.132Z</time>
      </trkpt>
      <trkpt lat="45.91592" lon="6.84448">
        <ele>1210</ele>
        <time>2026-08-04T11:18:12.132Z</time>
      </trkpt>
      <trkpt lat="45.91592" lon="6.84447">
        <ele>1210</ele>
        <time>2026-08-04T11:18:13.132Z</time>
      </trkpt>
      <trkpt lat="45.91592" lon="6.84445">
        <ele>1210</ele>
        <time>2026-08-04T11:18:14.132Z</time>
      </trkpt>
      <trkpt lat="45.91592" lon="6.84443">
        <ele>1210</ele>
        <time>2026-08-04T11:18:15.132Z</time>
      </trkpt>
      <trkpt lat="45.91593" lon="6.84441">
        <ele>1210</ele>
        <time>2026-08-04T11:18:16.132Z</time>
      </trkpt>
      <trkpt lat="45.91593" lon="6.8444">
        <ele>1210</ele>
        <time>2026-08-04T11:18:17.132Z</time>
      </trkpt>
      <trkpt lat="45.91593" lon="6.84439">
        <ele>1209</ele>
        <time>2026-08-04T11:18:18.132Z</time>
      </trkpt>
      <trkpt lat="45.91593" lon="6.84438">
        <ele>1209</ele>
        <time>2026-08-04T11:18:19.132Z</time>
      </trkpt>
      <trkpt lat="45.91593" lon="6.84437">
        <ele>1209</ele>
        <time>2026-08-04T11:18:20.132Z</time>
      </trkpt>
      <trkpt lat="45.91594" lon="6.84436">
        <ele>1208</ele>
        <time>2026-08-04T11:18:21.132Z</time>
      </trkpt>
      <trkpt lat="45.91595" lon="6.84434">
        <ele>1208</ele>
        <time>2026-08-04T11:18:22.132Z</time>
      </trkpt>
      <trkpt lat="45.91595" lon="6.84431">
        <ele>1208</ele>
        <time>2026-08-04T11:18:23.132Z</time>
      </trkpt>
      <trkpt lat="45.91595" lon="6.8443">
        <ele>1208</ele>
        <time>2026-08-04T11:18:24.132Z</time>
      </trkpt>
      <trkpt lat="45.91595" lon="6.84429">
        <ele>1208</ele>
        <time>2026-08-04T11:18:25.132Z</time>
      </trkpt>
      <trkpt lat="45.91595" lon="6.84427">
        <ele>1208</ele>
        <time>2026-08-04T11:18:26.132Z</time>
      </trkpt>
      <trkpt lat="45.91594" lon="6.84426">
        <ele>1208</ele>
        <time>2026-08-04T11:18:27.132Z</time>
      </trkpt>
      <trkpt lat="45.91594" lon="6.84424">
        <ele>1208</ele>
        <time>2026-08-04T11:18:28.132Z</time>
      </trkpt>
      <trkpt lat="45.91593" lon="6.84423">
        <ele>1208</ele>
        <time>2026-08-04T11:18:29.132Z</time>
      </trkpt>
      <trkpt lat="45.91593" lon="6.84421">
        <ele>1208</ele>
        <time>2026-08-04T11:18:30.132Z</time>
      </trkpt>
      <trkpt lat="45.91592" lon="6.84421">
        <ele>1208</ele>
        <time>2026-08-04T11:18:31.132Z</time>
      </trkpt>
      <trkpt lat="45.91591" lon="6.8442">
        <ele>1207</ele>
        <time>2026-08-04T11:18:32.132Z</time>
      </trkpt>
      <trkpt lat="45.91591" lon="6.84419">
        <ele>1207</ele>
        <time>2026-08-04T11:18:33.132Z</time>
      </trkpt>
      <trkpt lat="45.91591" lon="6.84418">
        <ele>1207</ele>
        <time>2026-08-04T11:18:34.132Z</time>
      </trkpt>
      <trkpt lat="45.9159" lon="6.84416">
        <ele>1207</ele>
        <time>2026-08-04T11:18:35.132Z</time>
      </trkpt>
      <trkpt lat="45.91589" lon="6.84415">
        <ele>1207</ele>
        <time>2026-08-04T11:18:36.132Z</time>
      </trkpt>
      <trkpt lat="45.91588" lon="6.84413">
        <ele>1207</ele>
        <time>2026-08-04T11:18:37.132Z</time>
      </trkpt>
      <trkpt lat="45.91587" lon="6.84411">
        <ele>1208</ele>
        <time>2026-08-04T11:18:38.132Z</time>
      </trkpt>
      <trkpt lat="45.91586" lon="6.8441">
        <ele>1208</ele>
        <time>2026-08-04T11:18:39.132Z</time>
      </trkpt>
      <trkpt lat="45.91585" lon="6.84409">
        <ele>1207</ele>
        <time>2026-08-04T11:18:40.132Z</time>
      </trkpt>
      <trkpt lat="45.91584" lon="6.84407">
        <ele>1207</ele>
        <time>2026-08-04T11:18:41.132Z</time>
      </trkpt>
      <trkpt lat="45.91583" lon="6.84406">
        <ele>1207</ele>
        <time>2026-08-04T11:18:42.132Z</time>
      </trkpt>
      <trkpt lat="45.91582" lon="6.84405">
        <ele>1207</ele>
        <time>2026-08-04T11:18:43.132Z</time>
      </trkpt>
      <trkpt lat="45.9158" lon="6.84403">
        <ele>1207</ele>
        <time>2026-08-04T11:18:44.132Z</time>
      </trkpt>
      <trkpt lat="45.91579" lon="6.84401">
        <ele>1207</ele>
        <time>2026-08-04T11:18:45.132Z</time>
      </trkpt>
      <trkpt lat="45.91578" lon="6.84399">
        <ele>1207</ele>
        <time>2026-08-04T11:18:46.132Z</time>
      </trkpt>
      <trkpt lat="45.91577" lon="6.84397">
        <ele>1207</ele>
        <time>2026-08-04T11:18:47.132Z</time>
      </trkpt>
      <trkpt lat="45.91576" lon="6.84395">
        <ele>1207</ele>
        <time>2026-08-04T11:18:48.132Z</time>
      </trkpt>
      <trkpt lat="45.91576" lon="6.84392">
        <ele>1208</ele>
        <time>2026-08-04T11:18:49.132Z</time>
      </trkpt>
      <trkpt lat="45.91574" lon="6.8439">
        <ele>1208</ele>
        <time>2026-08-04T11:18:50.132Z</time>
      </trkpt>
      <trkpt lat="45.91573" lon="6.84389">
        <ele>1208</ele>
        <time>2026-08-04T11:18:51.132Z</time>
      </trkpt>
      <trkpt lat="45.91573" lon="6.84387">
        <ele>1208</ele>
        <time>2026-08-04T11:18:52.132Z</time>
      </trkpt>
      <trkpt lat="45.91572" lon="6.84385">
        <ele>1208</ele>
        <time>2026-08-04T11:18:53.132Z</time>
      </trkpt>
      <trkpt lat="45.91572" lon="6.84383">
        <ele>1209</ele>
        <time>2026-08-04T11:18:54.132Z</time>
      </trkpt>
      <trkpt lat="45.91571" lon="6.84382">
        <ele>1209</ele>
        <time>2026-08-04T11:18:55.132Z</time>
      </trkpt>
      <trkpt lat="45.9157" lon="6.8438">
        <ele>1210</ele>
        <time>2026-08-04T11:18:56.132Z</time>
      </trkpt>
      <trkpt lat="45.91569" lon="6.84378">
        <ele>1210</ele>
        <time>2026-08-04T11:18:57.132Z</time>
      </trkpt>
      <trkpt lat="45.91569" lon="6.84377">
        <ele>1210</ele>
        <time>2026-08-04T11:18:58.132Z</time>
      </trkpt>
      <trkpt lat="45.91569" lon="6.84375">
        <ele>1210</ele>
        <time>2026-08-04T11:18:59.132Z</time>
      </trkpt>
      <trkpt lat="45.91569" lon="6.84373">
        <ele>1210</ele>
        <time>2026-08-04T11:19:00.132Z</time>
      </trkpt>
      <trkpt lat="45.91568" lon="6.8437">
        <ele>1210</ele>
        <time>2026-08-04T11:19:01.132Z</time>
      </trkpt>
      <trkpt lat="45.91569" lon="6.84368">
        <ele>1210</ele>
        <time>2026-08-04T11:19:02.132Z</time>
      </trkpt>
      <trkpt lat="45.91568" lon="6.84366">
        <ele>1210</ele>
        <time>2026-08-04T11:19:03.132Z</time>
      </trkpt>
      <trkpt lat="45.91568" lon="6.84363">
        <ele>1210</ele>
        <time>2026-08-04T11:19:04.132Z</time>
      </trkpt>
      <trkpt lat="45.91567" lon="6.84362">
        <ele>1210</ele>
        <time>2026-08-04T11:19:05.132Z</time>
      </trkpt>
      <trkpt lat="45.91567" lon="6.84361">
        <ele>1210</ele>
        <time>2026-08-04T11:19:06.132Z</time>
      </trkpt>
      <trkpt lat="45.91566" lon="6.84359">
        <ele>1210</ele>
        <time>2026-08-04T11:19:07.132Z</time>
      </trkpt>
      <trkpt lat="45.91565" lon="6.84358">
        <ele>1210</ele>
        <time>2026-08-04T11:19:08.132Z</time>
      </trkpt>
      <trkpt lat="45.91565" lon="6.84357">
        <ele>1210</ele>
        <time>2026-08-04T11:19:09.132Z</time>
      </trkpt>
      <trkpt lat="45.91565" lon="6.84356">
        <ele>1210</ele>
        <time>2026-08-04T11:19:10.132Z</time>
      </trkpt>
      <trkpt lat="45.91564" lon="6.84356">
        <ele>1210</ele>
        <time>2026-08-04T11:19:11.132Z</time>
      </trkpt>
      <trkpt lat="45.91563" lon="6.84355">
        <ele>1210</ele>
        <time>2026-08-04T11:19:12.132Z</time>
      </trkpt>
      <trkpt lat="45.91562" lon="6.84353">
        <ele>1210</ele>
        <time>2026-08-04T11:19:13.132Z</time>
      </trkpt>
      <trkpt lat="45.91562" lon="6.84352">
        <ele>1210</ele>
        <time>2026-08-04T11:19:14.132Z</time>
      </trkpt>
      <trkpt lat="45.91561" lon="6.84352">
        <ele>1210</ele>
        <time>2026-08-04T11:19:15.132Z</time>
      </trkpt>
      <trkpt lat="45.91561" lon="6.84351">
        <ele>1211</ele>
        <time>2026-08-04T11:19:16.132Z</time>
      </trkpt>
      <trkpt lat="45.9156" lon="6.8435">
        <ele>1211</ele>
        <time>2026-08-04T11:19:17.132Z</time>
      </trkpt>
      <trkpt lat="45.9156" lon="6.84349">
        <ele>1212</ele>
        <time>2026-08-04T11:19:18.132Z</time>
      </trkpt>
      <trkpt lat="45.91559" lon="6.84347">
        <ele>1212</ele>
        <time>2026-08-04T11:19:19.132Z</time>
      </trkpt>
      <trkpt lat="45.91558" lon="6.84346">
        <ele>1212</ele>
        <time>2026-08-04T11:19:20.132Z</time>
      </trkpt>
      <trkpt lat="45.91557" lon="6.84344">
        <ele>1213</ele>
        <time>2026-08-04T11:19:21.132Z</time>
      </trkpt>
      <trkpt lat="45.91556" lon="6.84342">
        <ele>1213</ele>
        <time>2026-08-04T11:19:22.132Z</time>
      </trkpt>
      <trkpt lat="45.91555" lon="6.8434">
        <ele>1213</ele>
        <time>2026-08-04T11:19:23.132Z</time>
      </trkpt>
      <trkpt lat="45.91554" lon="6.84339">
        <ele>1213</ele>
        <time>2026-08-04T11:19:24.132Z</time>
      </trkpt>
      <trkpt lat="45.91553" lon="6.84337">
        <ele>1213</ele>
        <time>2026-08-04T11:19:25.132Z</time>
      </trkpt>
      <trkpt lat="45.91552" lon="6.84336">
        <ele>1213</ele>
        <time>2026-08-04T11:19:26.132Z</time>
      </trkpt>
      <trkpt lat="45.91551" lon="6.84335">
        <ele>1213</ele>
        <time>2026-08-04T11:19:27.132Z</time>
      </trkpt>
      <trkpt lat="45.9155" lon="6.84333">
        <ele>1213</ele>
        <time>2026-08-04T11:19:28.132Z</time>
      </trkpt>
      <trkpt lat="45.91549" lon="6.84331">
        <ele>1213</ele>
        <time>2026-08-04T11:19:29.132Z</time>
      </trkpt>
      <trkpt lat="45.91547" lon="6.84328">
        <ele>1213</ele>
        <time>2026-08-04T11:19:30.132Z</time>
      </trkpt>
      <trkpt lat="45.91546" lon="6.84326">
        <ele>1213</ele>
        <time>2026-08-04T11:19:31.132Z</time>
      </trkpt>
      <trkpt lat="45.91544" lon="6.84325">
        <ele>1213</ele>
        <time>2026-08-04T11:19:32.132Z</time>
      </trkpt>
      <trkpt lat="45.91542" lon="6.84324">
        <ele>1213</ele>
        <time>2026-08-04T11:19:33.132Z</time>
      </trkpt>
      <trkpt lat="45.91541" lon="6.84323">
        <ele>1213</ele>
        <time>2026-08-04T11:19:34.132Z</time>
      </trkpt>
      <trkpt lat="45.9154" lon="6.84322">
        <ele>1213</ele>
        <time>2026-08-04T11:19:35.132Z</time>
      </trkpt>
      <trkpt lat="45.91539" lon="6.8432">
        <ele>1213</ele>
        <time>2026-08-04T11:19:36.132Z</time>
      </trkpt>
      <trkpt lat="45.91538" lon="6.84318">
        <ele>1213</ele>
        <time>2026-08-04T11:19:37.132Z</time>
      </trkpt>
      <trkpt lat="45.91537" lon="6.84316">
        <ele>1213</ele>
        <time>2026-08-04T11:19:38.132Z</time>
      </trkpt>
      <trkpt lat="45.91536" lon="6.84314">
        <ele>1212</ele>
        <time>2026-08-04T11:19:39.132Z</time>
      </trkpt>
      <trkpt lat="45.91534" lon="6.84312">
        <ele>1212</ele>
        <time>2026-08-04T11:19:40.132Z</time>
      </trkpt>
      <trkpt lat="45.91532" lon="6.8431">
        <ele>1212</ele>
        <time>2026-08-04T11:19:41.132Z</time>
      </trkpt>
      <trkpt lat="45.91531" lon="6.84308">
        <ele>1212</ele>
        <time>2026-08-04T11:19:42.132Z</time>
      </trkpt>
      <trkpt lat="45.9153" lon="6.84306">
        <ele>1211</ele>
        <time>2026-08-04T11:19:43.132Z</time>
      </trkpt>
      <trkpt lat="45.91529" lon="6.84304">
        <ele>1211</ele>
        <time>2026-08-04T11:19:44.132Z</time>
      </trkpt>
      <trkpt lat="45.91528" lon="6.84302">
        <ele>1210</ele>
        <time>2026-08-04T11:19:45.132Z</time>
      </trkpt>
      <trkpt lat="45.91527" lon="6.843">
        <ele>1210</ele>
        <time>2026-08-04T11:19:46.132Z</time>
      </trkpt>
      <trkpt lat="45.91526" lon="6.84298">
        <ele>1209</ele>
        <time>2026-08-04T11:19:47.132Z</time>
      </trkpt>
      <trkpt lat="45.91525" lon="6.84296">
        <ele>1209</ele>
        <time>2026-08-04T11:19:48.132Z</time>
      </trkpt>
      <trkpt lat="45.91525" lon="6.84295">
        <ele>1208</ele>
        <time>2026-08-04T11:19:49.132Z</time>
      </trkpt>
      <trkpt lat="45.91523" lon="6.84293">
        <ele>1208</ele>
        <time>2026-08-04T11:19:50.132Z</time>
      </trkpt>
      <trkpt lat="45.91522" lon="6.84291">
        <ele>1207</ele>
        <time>2026-08-04T11:19:51.132Z</time>
      </trkpt>
      <trkpt lat="45.91519" lon="6.84289">
        <ele>1207</ele>
        <time>2026-08-04T11:19:52.133Z</time>
      </trkpt>
      <trkpt lat="45.91518" lon="6.84286">
        <ele>1206</ele>
        <time>2026-08-04T11:19:53.132Z</time>
      </trkpt>
      <trkpt lat="45.91516" lon="6.84285">
        <ele>1206</ele>
        <time>2026-08-04T11:19:54.132Z</time>
      </trkpt>
      <trkpt lat="45.91515" lon="6.84283">
        <ele>1206</ele>
        <time>2026-08-04T11:19:55.132Z</time>
      </trkpt>
      <trkpt lat="45.91514" lon="6.84281">
        <ele>1206</ele>
        <time>2026-08-04T11:19:56.132Z</time>
      </trkpt>
      <trkpt lat="45.91513" lon="6.84278">
        <ele>1205</ele>
        <time>2026-08-04T11:19:57.132Z</time>
      </trkpt>
      <trkpt lat="45.91513" lon="6.84275">
        <ele>1205</ele>
        <time>2026-08-04T11:19:58.132Z</time>
      </trkpt>
      <trkpt lat="45.91512" lon="6.84273">
        <ele>1205</ele>
        <time>2026-08-04T11:19:59.132Z</time>
      </trkpt>
      <trkpt lat="45.91511" lon="6.84271">
        <ele>1204</ele>
        <time>2026-08-04T11:20:00.132Z</time>
      </trkpt>
      <trkpt lat="45.91509" lon="6.84269">
        <ele>1204</ele>
        <time>2026-08-04T11:20:01.132Z</time>
      </trkpt>
      <trkpt lat="45.91507" lon="6.84266">
        <ele>1204</ele>
        <time>2026-08-04T11:20:02.132Z</time>
      </trkpt>
      <trkpt lat="45.91506" lon="6.84263">
        <ele>1204</ele>
        <time>2026-08-04T11:20:03.132Z</time>
      </trkpt>
      <trkpt lat="45.91505" lon="6.84259">
        <ele>1204</ele>
        <time>2026-08-04T11:20:04.132Z</time>
      </trkpt>
      <trkpt lat="45.91504" lon="6.84257">
        <ele>1204</ele>
        <time>2026-08-04T11:20:05.132Z</time>
      </trkpt>
      <trkpt lat="45.91504" lon="6.84255">
        <ele>1204</ele>
        <time>2026-08-04T11:20:06.132Z</time>
      </trkpt>
      <trkpt lat="45.91503" lon="6.84252">
        <ele>1204</ele>
        <time>2026-08-04T11:20:07.132Z</time>
      </trkpt>
      <trkpt lat="45.91504" lon="6.84248">
        <ele>1204</ele>
        <time>2026-08-04T11:20:08.132Z</time>
      </trkpt>
      <trkpt lat="45.91504" lon="6.84245">
        <ele>1204</ele>
        <time>2026-08-04T11:20:09.132Z</time>
      </trkpt>
      <trkpt lat="45.91504" lon="6.84243">
        <ele>1204</ele>
        <time>2026-08-04T11:20:10.132Z</time>
      </trkpt>
      <trkpt lat="45.91503" lon="6.84238">
        <ele>1204</ele>
        <time>2026-08-04T11:20:11.132Z</time>
      </trkpt>
      <trkpt lat="45.91502" lon="6.84235">
        <ele>1204</ele>
        <time>2026-08-04T11:20:12.132Z</time>
      </trkpt>
      <trkpt lat="45.91502" lon="6.84232">
        <ele>1205</ele>
        <time>2026-08-04T11:20:13.132Z</time>
      </trkpt>
      <trkpt lat="45.91502" lon="6.8423">
        <ele>1205</ele>
        <time>2026-08-04T11:20:14.132Z</time>
      </trkpt>
      <trkpt lat="45.91502" lon="6.84228">
        <ele>1205</ele>
        <time>2026-08-04T11:20:15.132Z</time>
      </trkpt>
      <trkpt lat="45.91502" lon="6.84226">
        <ele>1205</ele>
        <time>2026-08-04T11:20:16.132Z</time>
      </trkpt>
      <trkpt lat="45.91503" lon="6.84224">
        <ele>1205</ele>
        <time>2026-08-04T11:20:17.132Z</time>
      </trkpt>
      <trkpt lat="45.91503" lon="6.84222">
        <ele>1205</ele>
        <time>2026-08-04T11:20:18.132Z</time>
      </trkpt>
      <trkpt lat="45.91503" lon="6.84219">
        <ele>1205</ele>
        <time>2026-08-04T11:20:19.132Z</time>
      </trkpt>
      <trkpt lat="45.91503" lon="6.84217">
        <ele>1205</ele>
        <time>2026-08-04T11:20:20.132Z</time>
      </trkpt>
      <trkpt lat="45.91503" lon="6.84214">
        <ele>1206</ele>
        <time>2026-08-04T11:20:21.132Z</time>
      </trkpt>
      <trkpt lat="45.91503" lon="6.84209">
        <ele>1206</ele>
        <time>2026-08-04T11:20:22.132Z</time>
      </trkpt>
      <trkpt lat="45.91504" lon="6.84206">
        <ele>1206</ele>
        <time>2026-08-04T11:20:23.132Z</time>
      </trkpt>
      <trkpt lat="45.91504" lon="6.84202">
        <ele>1206</ele>
        <time>2026-08-04T11:20:24.132Z</time>
      </trkpt>
      <trkpt lat="45.91503" lon="6.84199">
        <ele>1205</ele>
        <time>2026-08-04T11:20:25.132Z</time>
      </trkpt>
      <trkpt lat="45.91503" lon="6.84196">
        <ele>1205</ele>
        <time>2026-08-04T11:20:26.132Z</time>
      </trkpt>
      <trkpt lat="45.91503" lon="6.84192">
        <ele>1205</ele>
        <time>2026-08-04T11:20:27.132Z</time>
      </trkpt>
      <trkpt lat="45.91502" lon="6.84189">
        <ele>1205</ele>
        <time>2026-08-04T11:20:28.132Z</time>
      </trkpt>
      <trkpt lat="45.91502" lon="6.84186">
        <ele>1205</ele>
        <time>2026-08-04T11:20:29.132Z</time>
      </trkpt>
      <trkpt lat="45.91503" lon="6.84183">
        <ele>1205</ele>
        <time>2026-08-04T11:20:30.132Z</time>
      </trkpt>
      <trkpt lat="45.91503" lon="6.8418">
        <ele>1205</ele>
        <time>2026-08-04T11:20:31.132Z</time>
      </trkpt>
      <trkpt lat="45.91503" lon="6.84177">
        <ele>1205</ele>
        <time>2026-08-04T11:20:32.132Z</time>
      </trkpt>
      <trkpt lat="45.91503" lon="6.84173">
        <ele>1205</ele>
        <time>2026-08-04T11:20:33.132Z</time>
      </trkpt>
      <trkpt lat="45.91503" lon="6.8417">
        <ele>1205</ele>
        <time>2026-08-04T11:20:34.132Z</time>
      </trkpt>
      <trkpt lat="45.91504" lon="6.84167">
        <ele>1205</ele>
        <time>2026-08-04T11:20:35.132Z</time>
      </trkpt>
      <trkpt lat="45.91505" lon="6.84163">
        <ele>1205</ele>
        <time>2026-08-04T11:20:36.132Z</time>
      </trkpt>
      <trkpt lat="45.91506" lon="6.84161">
        <ele>1205</ele>
        <time>2026-08-04T11:20:37.132Z</time>
      </trkpt>
      <trkpt lat="45.91507" lon="6.84158">
        <ele>1205</ele>
        <time>2026-08-04T11:20:38.132Z</time>
      </trkpt>
      <trkpt lat="45.91508" lon="6.84156">
        <ele>1205</ele>
        <time>2026-08-04T11:20:39.132Z</time>
      </trkpt>
      <trkpt lat="45.91509" lon="6.84153">
        <ele>1205</ele>
        <time>2026-08-04T11:20:40.132Z</time>
      </trkpt>
      <trkpt lat="45.9151" lon="6.84151">
        <ele>1205</ele>
        <time>2026-08-04T11:20:41.132Z</time>
      </trkpt>
      <trkpt lat="45.91511" lon="6.84149">
        <ele>1206</ele>
        <time>2026-08-04T11:20:42.132Z</time>
      </trkpt>
      <trkpt lat="45.91511" lon="6.84146">
        <ele>1206</ele>
        <time>2026-08-04T11:20:43.132Z</time>
      </trkpt>
      <trkpt lat="45.91511" lon="6.84144">
        <ele>1206</ele>
        <time>2026-08-04T11:20:44.132Z</time>
      </trkpt>
      <trkpt lat="45.91511" lon="6.84142">
        <ele>1206</ele>
        <time>2026-08-04T11:20:45.132Z</time>
      </trkpt>
      <trkpt lat="45.91511" lon="6.84141">
        <ele>1207</ele>
        <time>2026-08-04T11:20:46.132Z</time>
      </trkpt>
      <trkpt lat="45.9151" lon="6.8414">
        <ele>1207</ele>
        <time>2026-08-04T11:20:47.132Z</time>
      </trkpt>
      <trkpt lat="45.91509" lon="6.8414">
        <ele>1208</ele>
        <time>2026-08-04T11:20:48.132Z</time>
      </trkpt>
      <trkpt lat="45.91508" lon="6.8414">
        <ele>1208</ele>
        <time>2026-08-04T11:20:49.132Z</time>
      </trkpt>
      <trkpt lat="45.91508" lon="6.84142">
        <ele>1209</ele>
        <time>2026-08-04T11:20:50.132Z</time>
      </trkpt>
      <trkpt lat="45.91506" lon="6.84143">
        <ele>1211</ele>
        <time>2026-08-04T11:20:51.132Z</time>
      </trkpt>
      <trkpt lat="45.91505" lon="6.84145">
        <ele>1212</ele>
        <time>2026-08-04T11:20:52.132Z</time>
      </trkpt>
      <trkpt lat="45.91503" lon="6.84146">
        <ele>1213</ele>
        <time>2026-08-04T11:20:53.132Z</time>
      </trkpt>
      <trkpt lat="45.91502" lon="6.84147">
        <ele>1215</ele>
        <time>2026-08-04T11:20:54.132Z</time>
      </trkpt>
      <trkpt lat="45.915" lon="6.84147">
        <ele>1216</ele>
        <time>2026-08-04T11:20:55.132Z</time>
      </trkpt>
      <trkpt lat="45.91498" lon="6.84146">
        <ele>1217</ele>
        <time>2026-08-04T11:20:56.132Z</time>
      </trkpt>
      <trkpt lat="45.91497" lon="6.84145">
        <ele>1218</ele>
        <time>2026-08-04T11:20:57.132Z</time>
      </trkpt>
      <trkpt lat="45.91496" lon="6.84143">
        <ele>1218</ele>
        <time>2026-08-04T11:20:58.132Z</time>
      </trkpt>
      <trkpt lat="45.91496" lon="6.84141">
        <ele>1218</ele>
        <time>2026-08-04T11:20:59.132Z</time>
      </trkpt>
      <trkpt lat="45.91495" lon="6.8414">
        <ele>1218</ele>
        <time>2026-08-04T11:21:00.132Z</time>
      </trkpt>
      <trkpt lat="45.91493" lon="6.84139">
        <ele>1218</ele>
        <time>2026-08-04T11:21:01.132Z</time>
      </trkpt>
      <trkpt lat="45.91492" lon="6.84137">
        <ele>1218</ele>
        <time>2026-08-04T11:21:02.132Z</time>
      </trkpt>
      <trkpt lat="45.91491" lon="6.84134">
        <ele>1217</ele>
        <time>2026-08-04T11:21:03.132Z</time>
      </trkpt>
      <trkpt lat="45.91489" lon="6.84131">
        <ele>1216</ele>
        <time>2026-08-04T11:21:04.132Z</time>
      </trkpt>
      <trkpt lat="45.91487" lon="6.84129">
        <ele>1215</ele>
        <time>2026-08-04T11:21:05.132Z</time>
      </trkpt>
      <trkpt lat="45.91486" lon="6.84127">
        <ele>1214</ele>
        <time>2026-08-04T11:21:06.132Z</time>
      </trkpt>
      <trkpt lat="45.91484" lon="6.84125">
        <ele>1214</ele>
        <time>2026-08-04T11:21:07.132Z</time>
      </trkpt>
      <trkpt lat="45.91483" lon="6.84122">
        <ele>1213</ele>
        <time>2026-08-04T11:21:08.132Z</time>
      </trkpt>
      <trkpt lat="45.91482" lon="6.8412">
        <ele>1212</ele>
        <time>2026-08-04T11:21:09.132Z</time>
      </trkpt>
      <trkpt lat="45.91482" lon="6.84116">
        <ele>1211</ele>
        <time>2026-08-04T11:21:10.132Z</time>
      </trkpt>
      <trkpt lat="45.91482" lon="6.84113">
        <ele>1210</ele>
        <time>2026-08-04T11:21:11.132Z</time>
      </trkpt>
      <trkpt lat="45.91481" lon="6.84111">
        <ele>1209</ele>
        <time>2026-08-04T11:21:12.132Z</time>
      </trkpt>
      <trkpt lat="45.9148" lon="6.84108">
        <ele>1209</ele>
        <time>2026-08-04T11:21:13.132Z</time>
      </trkpt>
      <trkpt lat="45.9148" lon="6.84106">
        <ele>1208</ele>
        <time>2026-08-04T11:21:14.132Z</time>
      </trkpt>
      <trkpt lat="45.91479" lon="6.84104">
        <ele>1207</ele>
        <time>2026-08-04T11:21:15.132Z</time>
      </trkpt>
      <trkpt lat="45.91478" lon="6.84102">
        <ele>1207</ele>
        <time>2026-08-04T11:21:16.132Z</time>
      </trkpt>
      <trkpt lat="45.91476" lon="6.84101">
        <ele>1206</ele>
        <time>2026-08-04T11:21:17.132Z</time>
      </trkpt>
      <trkpt lat="45.91475" lon="6.841">
        <ele>1205</ele>
        <time>2026-08-04T11:21:18.132Z</time>
      </trkpt>
      <trkpt lat="45.91475" lon="6.84098">
        <ele>1205</ele>
        <time>2026-08-04T11:21:19.132Z</time>
      </trkpt>
      <trkpt lat="45.91474" lon="6.84096">
        <ele>1204</ele>
        <time>2026-08-04T11:21:20.132Z</time>
      </trkpt>
      <trkpt lat="45.91474" lon="6.84094">
        <ele>1203</ele>
        <time>2026-08-04T11:21:21.132Z</time>
      </trkpt>
      <trkpt lat="45.91473" lon="6.84094">
        <ele>1203</ele>
        <time>2026-08-04T11:21:22.132Z</time>
      </trkpt>
      <trkpt lat="45.91473" lon="6.84094">
        <ele>1202</ele>
        <time>2026-08-04T11:21:23.132Z</time>
      </trkpt>
      <trkpt lat="45.91472" lon="6.84094">
        <ele>1202</ele>
        <time>2026-08-04T11:21:24.132Z</time>
      </trkpt>
      <trkpt lat="45.91472" lon="6.84093">
        <ele>1202</ele>
        <time>2026-08-04T11:21:25.132Z</time>
      </trkpt>
      <trkpt lat="45.91471" lon="6.84094">
        <ele>1202</ele>
        <time>2026-08-04T11:21:26.132Z</time>
      </trkpt>
      <trkpt lat="45.91471" lon="6.84094">
        <ele>1202</ele>
        <time>2026-08-04T11:21:27.132Z</time>
      </trkpt>
      <trkpt lat="45.91471" lon="6.84095">
        <ele>1202</ele>
        <time>2026-08-04T11:21:28.132Z</time>
      </trkpt>
      <trkpt lat="45.91471" lon="6.84095">
        <ele>1202</ele>
        <time>2026-08-04T11:21:29.132Z</time>
      </trkpt>
      <trkpt lat="45.91471" lon="6.84095">
        <ele>1202</ele>
        <time>2026-08-04T11:21:30.132Z</time>
      </trkpt>
      <trkpt lat="45.91471" lon="6.84096">
        <ele>1202</ele>
        <time>2026-08-04T11:21:31.132Z</time>
      </trkpt>
      <trkpt lat="45.91471" lon="6.84096">
        <ele>1201</ele>
        <time>2026-08-04T11:21:32.132Z</time>
      </trkpt>
      <trkpt lat="45.91471" lon="6.84098">
        <ele>1201</ele>
        <time>2026-08-04T11:21:33.132Z</time>
      </trkpt>
      <trkpt lat="45.91471" lon="6.84099">
        <ele>1201</ele>
        <time>2026-08-04T11:21:34.132Z</time>
      </trkpt>
      <trkpt lat="45.91471" lon="6.841">
        <ele>1202</ele>
        <time>2026-08-04T11:21:35.132Z</time>
      </trkpt>
      <trkpt lat="45.91471" lon="6.841">
        <ele>1202</ele>
        <time>2026-08-04T11:21:36.132Z</time>
      </trkpt>
      <trkpt lat="45.91472" lon="6.84101">
        <ele>1201</ele>
        <time>2026-08-04T11:21:37.132Z</time>
      </trkpt>
      <trkpt lat="45.91472" lon="6.84103">
        <ele>1201</ele>
        <time>2026-08-04T11:21:38.132Z</time>
      </trkpt>
      <trkpt lat="45.91473" lon="6.84104">
        <ele>1201</ele>
        <time>2026-08-04T11:21:39.132Z</time>
      </trkpt>
      <trkpt lat="45.91473" lon="6.84106">
        <ele>1201</ele>
        <time>2026-08-04T11:21:40.132Z</time>
      </trkpt>
      <trkpt lat="45.91473" lon="6.84107">
        <ele>1201</ele>
        <time>2026-08-04T11:21:41.132Z</time>
      </trkpt>
      <trkpt lat="45.91473" lon="6.84109">
        <ele>1200</ele>
        <time>2026-08-04T11:21:42.132Z</time>
      </trkpt>
      <trkpt lat="45.91473" lon="6.84111">
        <ele>1200</ele>
        <time>2026-08-04T11:21:43.132Z</time>
      </trkpt>
      <trkpt lat="45.91474" lon="6.84113">
        <ele>1200</ele>
        <time>2026-08-04T11:21:44.132Z</time>
      </trkpt>
      <trkpt lat="45.91475" lon="6.84115">
        <ele>1200</ele>
        <time>2026-08-04T11:21:45.132Z</time>
      </trkpt>
      <trkpt lat="45.91475" lon="6.84117">
        <ele>1200</ele>
        <time>2026-08-04T11:21:46.132Z</time>
      </trkpt>
      <trkpt lat="45.91476" lon="6.84119">
        <ele>1200</ele>
        <time>2026-08-04T11:21:47.132Z</time>
      </trkpt>
      <trkpt lat="45.91476" lon="6.84121">
        <ele>1200</ele>
        <time>2026-08-04T11:21:48.132Z</time>
      </trkpt>
      <trkpt lat="45.91476" lon="6.84122">
        <ele>1200</ele>
        <time>2026-08-04T11:21:49.132Z</time>
      </trkpt>
      <trkpt lat="45.91475" lon="6.84124">
        <ele>1199</ele>
        <time>2026-08-04T11:21:50.132Z</time>
      </trkpt>
      <trkpt lat="45.91475" lon="6.84125">
        <ele>1199</ele>
        <time>2026-08-04T11:21:51.132Z</time>
      </trkpt>
      <trkpt lat="45.91476" lon="6.84127">
        <ele>1198</ele>
        <time>2026-08-04T11:21:52.132Z</time>
      </trkpt>
      <trkpt lat="45.91476" lon="6.84128">
        <ele>1198</ele>
        <time>2026-08-04T11:21:53.132Z</time>
      </trkpt>
      <trkpt lat="45.91476" lon="6.84129">
        <ele>1198</ele>
        <time>2026-08-04T11:21:54.132Z</time>
      </trkpt>
      <trkpt lat="45.91477" lon="6.84131">
        <ele>1198</ele>
        <time>2026-08-04T11:21:55.132Z</time>
      </trkpt>
      <trkpt lat="45.91477" lon="6.84132">
        <ele>1198</ele>
        <time>2026-08-04T11:21:56.132Z</time>
      </trkpt>
      <trkpt lat="45.91477" lon="6.84133">
        <ele>1197</ele>
        <time>2026-08-04T11:21:57.132Z</time>
      </trkpt>
      <trkpt lat="45.91478" lon="6.84134">
        <ele>1197</ele>
        <time>2026-08-04T11:21:58.132Z</time>
      </trkpt>
      <trkpt lat="45.91478" lon="6.84135">
        <ele>1197</ele>
        <time>2026-08-04T11:21:59.132Z</time>
      </trkpt>
      <trkpt lat="45.91477" lon="6.84136">
        <ele>1196</ele>
        <time>2026-08-04T11:22:00.132Z</time>
      </trkpt>
      <trkpt lat="45.91477" lon="6.84137">
        <ele>1196</ele>
        <time>2026-08-04T11:22:01.132Z</time>
      </trkpt>
      <trkpt lat="45.91477" lon="6.84138">
        <ele>1196</ele>
        <time>2026-08-04T11:22:02.132Z</time>
      </trkpt>
      <trkpt lat="45.91476" lon="6.84139">
        <ele>1195</ele>
        <time>2026-08-04T11:22:03.132Z</time>
      </trkpt>
      <trkpt lat="45.91476" lon="6.84141">
        <ele>1195</ele>
        <time>2026-08-04T11:22:04.132Z</time>
      </trkpt>
      <trkpt lat="45.91475" lon="6.84142">
        <ele>1195</ele>
        <time>2026-08-04T11:22:05.132Z</time>
      </trkpt>
      <trkpt lat="45.91474" lon="6.84143">
        <ele>1194</ele>
        <time>2026-08-04T11:22:06.132Z</time>
      </trkpt>
      <trkpt lat="45.91474" lon="6.84143">
        <ele>1194</ele>
        <time>2026-08-04T11:22:07.132Z</time>
      </trkpt>
      <trkpt lat="45.91473" lon="6.84144">
        <ele>1194</ele>
        <time>2026-08-04T11:22:08.132Z</time>
      </trkpt>
      <trkpt lat="45.91473" lon="6.84144">
        <ele>1194</ele>
        <time>2026-08-04T11:22:09.132Z</time>
      </trkpt>
      <trkpt lat="45.91472" lon="6.84144">
        <ele>1193</ele>
        <time>2026-08-04T11:22:10.132Z</time>
      </trkpt>
      <trkpt lat="45.91471" lon="6.84143">
        <ele>1193</ele>
        <time>2026-08-04T11:22:11.132Z</time>
      </trkpt>
      <trkpt lat="45.91471" lon="6.84142">
        <ele>1193</ele>
        <time>2026-08-04T11:22:12.132Z</time>
      </trkpt>
      <trkpt lat="45.9147" lon="6.84141">
        <ele>1192</ele>
        <time>2026-08-04T11:22:13.132Z</time>
      </trkpt>
      <trkpt lat="45.91469" lon="6.8414">
        <ele>1191</ele>
        <time>2026-08-04T11:22:14.132Z</time>
      </trkpt>
      <trkpt lat="45.91469" lon="6.84139">
        <ele>1191</ele>
        <time>2026-08-04T11:22:15.132Z</time>
      </trkpt>
      <trkpt lat="45.91468" lon="6.84138">
        <ele>1191</ele>
        <time>2026-08-04T11:22:16.132Z</time>
      </trkpt>
      <trkpt lat="45.91466" lon="6.84138">
        <ele>1190</ele>
        <time>2026-08-04T11:22:17.132Z</time>
      </trkpt>
      <trkpt lat="45.91465" lon="6.84137">
        <ele>1190</ele>
        <time>2026-08-04T11:22:18.132Z</time>
      </trkpt>
      <trkpt lat="45.91463" lon="6.84135">
        <ele>1190</ele>
        <time>2026-08-04T11:22:19.132Z</time>
      </trkpt>
      <trkpt lat="45.91463" lon="6.84133">
        <ele>1189</ele>
        <time>2026-08-04T11:22:20.132Z</time>
      </trkpt>
      <trkpt lat="45.91461" lon="6.84132">
        <ele>1189</ele>
        <time>2026-08-04T11:22:21.132Z</time>
      </trkpt>
      <trkpt lat="45.91461" lon="6.8413">
        <ele>1188</ele>
        <time>2026-08-04T11:22:22.132Z</time>
      </trkpt>
      <trkpt lat="45.9146" lon="6.84129">
        <ele>1187</ele>
        <time>2026-08-04T11:22:23.132Z</time>
      </trkpt>
      <trkpt lat="45.91458" lon="6.84128">
        <ele>1187</ele>
        <time>2026-08-04T11:22:24.132Z</time>
      </trkpt>
      <trkpt lat="45.91457" lon="6.84126">
        <ele>1186</ele>
        <time>2026-08-04T11:22:25.132Z</time>
      </trkpt>
      <trkpt lat="45.91456" lon="6.84124">
        <ele>1186</ele>
        <time>2026-08-04T11:22:26.132Z</time>
      </trkpt>
      <trkpt lat="45.91454" lon="6.84123">
        <ele>1185</ele>
        <time>2026-08-04T11:22:27.132Z</time>
      </trkpt>
      <trkpt lat="45.91452" lon="6.84122">
        <ele>1185</ele>
        <time>2026-08-04T11:22:28.132Z</time>
      </trkpt>
      <trkpt lat="45.91451" lon="6.84121">
        <ele>1185</ele>
        <time>2026-08-04T11:22:29.132Z</time>
      </trkpt>
      <trkpt lat="45.9145" lon="6.84119">
        <ele>1185</ele>
        <time>2026-08-04T11:22:30.132Z</time>
      </trkpt>
      <trkpt lat="45.91449" lon="6.84117">
        <ele>1186</ele>
        <time>2026-08-04T11:22:31.132Z</time>
      </trkpt>
      <trkpt lat="45.91448" lon="6.84115">
        <ele>1186</ele>
        <time>2026-08-04T11:22:32.132Z</time>
      </trkpt>
      <trkpt lat="45.91448" lon="6.84113">
        <ele>1186</ele>
        <time>2026-08-04T11:22:33.132Z</time>
      </trkpt>
      <trkpt lat="45.91447" lon="6.84111">
        <ele>1186</ele>
        <time>2026-08-04T11:22:34.132Z</time>
      </trkpt>
      <trkpt lat="45.91446" lon="6.8411">
        <ele>1186</ele>
        <time>2026-08-04T11:22:35.132Z</time>
      </trkpt>
      <trkpt lat="45.91445" lon="6.84109">
        <ele>1185</ele>
        <time>2026-08-04T11:22:36.132Z</time>
      </trkpt>
      <trkpt lat="45.91444" lon="6.84108">
        <ele>1185</ele>
        <time>2026-08-04T11:22:37.132Z</time>
      </trkpt>
      <trkpt lat="45.91444" lon="6.84107">
        <ele>1185</ele>
        <time>2026-08-04T11:22:38.132Z</time>
      </trkpt>
      <trkpt lat="45.91443" lon="6.84106">
        <ele>1185</ele>
        <time>2026-08-04T11:22:39.132Z</time>
      </trkpt>
      <trkpt lat="45.91442" lon="6.84105">
        <ele>1185</ele>
        <time>2026-08-04T11:22:40.132Z</time>
      </trkpt>
      <trkpt lat="45.91441" lon="6.84105">
        <ele>1185</ele>
        <time>2026-08-04T11:22:41.132Z</time>
      </trkpt>
      <trkpt lat="45.91441" lon="6.84106">
        <ele>1184</ele>
        <time>2026-08-04T11:22:42.132Z</time>
      </trkpt>
      <trkpt lat="45.91441" lon="6.84106">
        <ele>1184</ele>
        <time>2026-08-04T11:22:43.132Z</time>
      </trkpt>
      <trkpt lat="45.91441" lon="6.84106">
        <ele>1184</ele>
        <time>2026-08-04T11:22:44.132Z</time>
      </trkpt>
      <trkpt lat="45.9144" lon="6.84107">
        <ele>1184</ele>
        <time>2026-08-04T11:22:45.132Z</time>
      </trkpt>
      <trkpt lat="45.91441" lon="6.84108">
        <ele>1184</ele>
        <time>2026-08-04T11:22:46.132Z</time>
      </trkpt>
      <trkpt lat="45.91441" lon="6.84108">
        <ele>1184</ele>
        <time>2026-08-04T11:22:47.132Z</time>
      </trkpt>
      <trkpt lat="45.91441" lon="6.84109">
        <ele>1184</ele>
        <time>2026-08-04T11:22:48.132Z</time>
      </trkpt>
      <trkpt lat="45.91441" lon="6.84109">
        <ele>1184</ele>
        <time>2026-08-04T11:22:49.132Z</time>
      </trkpt>
      <trkpt lat="45.91441" lon="6.8411">
        <ele>1184</ele>
        <time>2026-08-04T11:22:50.132Z</time>
      </trkpt>
      <trkpt lat="45.9144" lon="6.84111">
        <ele>1184</ele>
        <time>2026-08-04T11:22:51.132Z</time>
      </trkpt>
      <trkpt lat="45.9144" lon="6.84112">
        <ele>1183</ele>
        <time>2026-08-04T11:22:52.132Z</time>
      </trkpt>
      <trkpt lat="45.91439" lon="6.84112">
        <ele>1183</ele>
        <time>2026-08-04T11:22:53.132Z</time>
      </trkpt>
      <trkpt lat="45.91439" lon="6.84112">
        <ele>1183</ele>
        <time>2026-08-04T11:22:54.132Z</time>
      </trkpt>
      <trkpt lat="45.91439" lon="6.84113">
        <ele>1183</ele>
        <time>2026-08-04T11:22:55.132Z</time>
      </trkpt>
      <trkpt lat="45.91439" lon="6.84114">
        <ele>1182</ele>
        <time>2026-08-04T11:22:56.132Z</time>
      </trkpt>
      <trkpt lat="45.91439" lon="6.84115">
        <ele>1182</ele>
        <time>2026-08-04T11:22:57.132Z</time>
      </trkpt>
      <trkpt lat="45.9144" lon="6.84115">
        <ele>1182</ele>
        <time>2026-08-04T11:22:58.132Z</time>
      </trkpt>
      <trkpt lat="45.9144" lon="6.84116">
        <ele>1182</ele>
        <time>2026-08-04T11:22:59.132Z</time>
      </trkpt>
      <trkpt lat="45.9144" lon="6.84117">
        <ele>1181</ele>
        <time>2026-08-04T11:23:00.132Z</time>
      </trkpt>
      <trkpt lat="45.9144" lon="6.84118">
        <ele>1181</ele>
        <time>2026-08-04T11:23:01.132Z</time>
      </trkpt>
      <trkpt lat="45.9144" lon="6.84119">
        <ele>1180</ele>
        <time>2026-08-04T11:23:02.133Z</time>
      </trkpt>
      <trkpt lat="45.91441" lon="6.8412">
        <ele>1179</ele>
        <time>2026-08-04T11:23:03.132Z</time>
      </trkpt>
      <trkpt lat="45.91441" lon="6.84121">
        <ele>1179</ele>
        <time>2026-08-04T11:23:04.132Z</time>
      </trkpt>
      <trkpt lat="45.9144" lon="6.84123">
        <ele>1178</ele>
        <time>2026-08-04T11:23:05.132Z</time>
      </trkpt>
      <trkpt lat="45.91439" lon="6.84124">
        <ele>1177</ele>
        <time>2026-08-04T11:23:06.132Z</time>
      </trkpt>
      <trkpt lat="45.91439" lon="6.84126">
        <ele>1177</ele>
        <time>2026-08-04T11:23:07.132Z</time>
      </trkpt>
      <trkpt lat="45.91439" lon="6.84128">
        <ele>1176</ele>
        <time>2026-08-04T11:23:08.132Z</time>
      </trkpt>
      <trkpt lat="45.91438" lon="6.84129">
        <ele>1176</ele>
        <time>2026-08-04T11:23:09.132Z</time>
      </trkpt>
      <trkpt lat="45.91438" lon="6.8413">
        <ele>1175</ele>
        <time>2026-08-04T11:23:10.132Z</time>
      </trkpt>
      <trkpt lat="45.91438" lon="6.84132">
        <ele>1175</ele>
        <time>2026-08-04T11:23:11.132Z</time>
      </trkpt>
      <trkpt lat="45.91438" lon="6.84132">
        <ele>1174</ele>
        <time>2026-08-04T11:23:12.132Z</time>
      </trkpt>
      <trkpt lat="45.91438" lon="6.84134">
        <ele>1174</ele>
        <time>2026-08-04T11:23:13.132Z</time>
      </trkpt>
      <trkpt lat="45.91438" lon="6.84134">
        <ele>1174</ele>
        <time>2026-08-04T11:23:14.132Z</time>
      </trkpt>
      <trkpt lat="45.91439" lon="6.84135">
        <ele>1173</ele>
        <time>2026-08-04T11:23:15.132Z</time>
      </trkpt>
      <trkpt lat="45.91439" lon="6.84136">
        <ele>1173</ele>
        <time>2026-08-04T11:23:16.132Z</time>
      </trkpt>
      <trkpt lat="45.9144" lon="6.84137">
        <ele>1172</ele>
        <time>2026-08-04T11:23:17.132Z</time>
      </trkpt>
      <trkpt lat="45.91441" lon="6.84138">
        <ele>1172</ele>
        <time>2026-08-04T11:23:18.132Z</time>
      </trkpt>
      <trkpt lat="45.91441" lon="6.8414">
        <ele>1172</ele>
        <time>2026-08-04T11:23:19.132Z</time>
      </trkpt>
      <trkpt lat="45.91441" lon="6.84142">
        <ele>1172</ele>
        <time>2026-08-04T11:23:20.132Z</time>
      </trkpt>
      <trkpt lat="45.91441" lon="6.84143">
        <ele>1172</ele>
        <time>2026-08-04T11:23:21.132Z</time>
      </trkpt>
      <trkpt lat="45.91441" lon="6.84145">
        <ele>1172</ele>
        <time>2026-08-04T11:23:22.132Z</time>
      </trkpt>
      <trkpt lat="45.9144" lon="6.84146">
        <ele>1172</ele>
        <time>2026-08-04T11:23:23.132Z</time>
      </trkpt>
      <trkpt lat="45.9144" lon="6.84147">
        <ele>1172</ele>
        <time>2026-08-04T11:23:24.132Z</time>
      </trkpt>
      <trkpt lat="45.9144" lon="6.84149">
        <ele>1172</ele>
        <time>2026-08-04T11:23:25.132Z</time>
      </trkpt>
      <trkpt lat="45.9144" lon="6.8415">
        <ele>1171</ele>
        <time>2026-08-04T11:23:26.132Z</time>
      </trkpt>
      <trkpt lat="45.91439" lon="6.84152">
        <ele>1171</ele>
        <time>2026-08-04T11:23:27.132Z</time>
      </trkpt>
      <trkpt lat="45.91439" lon="6.84152">
        <ele>1171</ele>
        <time>2026-08-04T11:23:28.132Z</time>
      </trkpt>
      <trkpt lat="45.9144" lon="6.84153">
        <ele>1171</ele>
        <time>2026-08-04T11:23:29.132Z</time>
      </trkpt>
      <trkpt lat="45.9144" lon="6.84154">
        <ele>1170</ele>
        <time>2026-08-04T11:23:30.132Z</time>
      </trkpt>
      <trkpt lat="45.9144" lon="6.84155">
        <ele>1170</ele>
        <time>2026-08-04T11:23:31.132Z</time>
      </trkpt>
      <trkpt lat="45.91439" lon="6.84156">
        <ele>1169</ele>
        <time>2026-08-04T11:23:32.132Z</time>
      </trkpt>
      <trkpt lat="45.91437" lon="6.84157">
        <ele>1169</ele>
        <time>2026-08-04T11:23:33.132Z</time>
      </trkpt>
      <trkpt lat="45.91436" lon="6.84157">
        <ele>1168</ele>
        <time>2026-08-04T11:23:34.132Z</time>
      </trkpt>
      <trkpt lat="45.91435" lon="6.84156">
        <ele>1168</ele>
        <time>2026-08-04T11:23:35.132Z</time>
      </trkpt>
      <trkpt lat="45.91434" lon="6.84155">
        <ele>1168</ele>
        <time>2026-08-04T11:23:36.132Z</time>
      </trkpt>
      <trkpt lat="45.91433" lon="6.84153">
        <ele>1168</ele>
        <time>2026-08-04T11:23:37.132Z</time>
      </trkpt>
      <trkpt lat="45.91433" lon="6.84152">
        <ele>1168</ele>
        <time>2026-08-04T11:23:38.132Z</time>
      </trkpt>
      <trkpt lat="45.91432" lon="6.84151">
        <ele>1168</ele>
        <time>2026-08-04T11:23:39.132Z</time>
      </trkpt>
      <trkpt lat="45.91432" lon="6.84149">
        <ele>1168</ele>
        <time>2026-08-04T11:23:40.132Z</time>
      </trkpt>
      <trkpt lat="45.91431" lon="6.84149">
        <ele>1168</ele>
        <time>2026-08-04T11:23:41.132Z</time>
      </trkpt>
      <trkpt lat="45.9143" lon="6.84149">
        <ele>1168</ele>
        <time>2026-08-04T11:23:42.132Z</time>
      </trkpt>
      <trkpt lat="45.91429" lon="6.84149">
        <ele>1168</ele>
        <time>2026-08-04T11:23:43.132Z</time>
      </trkpt>
      <trkpt lat="45.91429" lon="6.8415">
        <ele>1168</ele>
        <time>2026-08-04T11:23:44.132Z</time>
      </trkpt>
      <trkpt lat="45.91429" lon="6.84151">
        <ele>1168</ele>
        <time>2026-08-04T11:23:45.132Z</time>
      </trkpt>
      <trkpt lat="45.91429" lon="6.84152">
        <ele>1168</ele>
        <time>2026-08-04T11:23:46.132Z</time>
      </trkpt>
      <trkpt lat="45.91429" lon="6.84153">
        <ele>1168</ele>
        <time>2026-08-04T11:23:47.132Z</time>
      </trkpt>
      <trkpt lat="45.9143" lon="6.84153">
        <ele>1168</ele>
        <time>2026-08-04T11:23:48.132Z</time>
      </trkpt>
      <trkpt lat="45.91429" lon="6.84154">
        <ele>1167</ele>
        <time>2026-08-04T11:23:49.132Z</time>
      </trkpt>
      <trkpt lat="45.91428" lon="6.84155">
        <ele>1167</ele>
        <time>2026-08-04T11:23:50.132Z</time>
      </trkpt>
      <trkpt lat="45.91427" lon="6.84156">
        <ele>1167</ele>
        <time>2026-08-04T11:23:51.132Z</time>
      </trkpt>
      <trkpt lat="45.91427" lon="6.84158">
        <ele>1166</ele>
        <time>2026-08-04T11:23:52.132Z</time>
      </trkpt>
      <trkpt lat="45.91427" lon="6.8416">
        <ele>1165</ele>
        <time>2026-08-04T11:23:53.132Z</time>
      </trkpt>
      <trkpt lat="45.91427" lon="6.84161">
        <ele>1165</ele>
        <time>2026-08-04T11:23:54.132Z</time>
      </trkpt>
      <trkpt lat="45.91427" lon="6.84163">
        <ele>1164</ele>
        <time>2026-08-04T11:23:55.132Z</time>
      </trkpt>
      <trkpt lat="45.91428" lon="6.84164">
        <ele>1164</ele>
        <time>2026-08-04T11:23:56.132Z</time>
      </trkpt>
      <trkpt lat="45.91429" lon="6.84165">
        <ele>1163</ele>
        <time>2026-08-04T11:23:57.132Z</time>
      </trkpt>
      <trkpt lat="45.9143" lon="6.84166">
        <ele>1163</ele>
        <time>2026-08-04T11:23:58.132Z</time>
      </trkpt>
      <trkpt lat="45.91432" lon="6.84167">
        <ele>1162</ele>
        <time>2026-08-04T11:23:59.132Z</time>
      </trkpt>
      <trkpt lat="45.91433" lon="6.84168">
        <ele>1161</ele>
        <time>2026-08-04T11:24:00.132Z</time>
      </trkpt>
      <trkpt lat="45.91434" lon="6.8417">
        <ele>1161</ele>
        <time>2026-08-04T11:24:01.132Z</time>
      </trkpt>
      <trkpt lat="45.91434" lon="6.84171">
        <ele>1160</ele>
        <time>2026-08-04T11:24:02.132Z</time>
      </trkpt>
      <trkpt lat="45.91434" lon="6.84172">
        <ele>1160</ele>
        <time>2026-08-04T11:24:03.132Z</time>
      </trkpt>
      <trkpt lat="45.91434" lon="6.84173">
        <ele>1160</ele>
        <time>2026-08-04T11:24:04.132Z</time>
      </trkpt>
      <trkpt lat="45.91433" lon="6.84174">
        <ele>1160</ele>
        <time>2026-08-04T11:24:05.132Z</time>
      </trkpt>
      <trkpt lat="45.91432" lon="6.84175">
        <ele>1160</ele>
        <time>2026-08-04T11:24:06.132Z</time>
      </trkpt>
      <trkpt lat="45.91431" lon="6.84176">
        <ele>1160</ele>
        <time>2026-08-04T11:24:07.132Z</time>
      </trkpt>
      <trkpt lat="45.9143" lon="6.84176">
        <ele>1161</ele>
        <time>2026-08-04T11:24:08.132Z</time>
      </trkpt>
      <trkpt lat="45.91428" lon="6.84176">
        <ele>1161</ele>
        <time>2026-08-04T11:24:09.132Z</time>
      </trkpt>
      <trkpt lat="45.91426" lon="6.84176">
        <ele>1162</ele>
        <time>2026-08-04T11:24:10.132Z</time>
      </trkpt>
      <trkpt lat="45.91425" lon="6.84176">
        <ele>1162</ele>
        <time>2026-08-04T11:24:11.132Z</time>
      </trkpt>
      <trkpt lat="45.91425" lon="6.84175">
        <ele>1162</ele>
        <time>2026-08-04T11:24:12.132Z</time>
      </trkpt>
      <trkpt lat="45.91424" lon="6.84175">
        <ele>1163</ele>
        <time>2026-08-04T11:24:13.132Z</time>
      </trkpt>
      <trkpt lat="45.91424" lon="6.84174">
        <ele>1163</ele>
        <time>2026-08-04T11:24:14.132Z</time>
      </trkpt>
      <trkpt lat="45.91423" lon="6.84174">
        <ele>1163</ele>
        <time>2026-08-04T11:24:15.132Z</time>
      </trkpt>
      <trkpt lat="45.91422" lon="6.84173">
        <ele>1163</ele>
        <time>2026-08-04T11:24:16.132Z</time>
      </trkpt>
      <trkpt lat="45.91422" lon="6.84173">
        <ele>1163</ele>
        <time>2026-08-04T11:24:17.132Z</time>
      </trkpt>
      <trkpt lat="45.91421" lon="6.84172">
        <ele>1163</ele>
        <time>2026-08-04T11:24:18.132Z</time>
      </trkpt>
      <trkpt lat="45.9142" lon="6.84172">
        <ele>1163</ele>
        <time>2026-08-04T11:24:19.132Z</time>
      </trkpt>
      <trkpt lat="45.91419" lon="6.84171">
        <ele>1163</ele>
        <time>2026-08-04T11:24:20.132Z</time>
      </trkpt>
      <trkpt lat="45.91417" lon="6.8417">
        <ele>1163</ele>
        <time>2026-08-04T11:24:21.132Z</time>
      </trkpt>
      <trkpt lat="45.91416" lon="6.84169">
        <ele>1163</ele>
        <time>2026-08-04T11:24:22.132Z</time>
      </trkpt>
      <trkpt lat="45.91414" lon="6.84167">
        <ele>1163</ele>
        <time>2026-08-04T11:24:23.132Z</time>
      </trkpt>
      <trkpt lat="45.91412" lon="6.84166">
        <ele>1163</ele>
        <time>2026-08-04T11:24:24.132Z</time>
      </trkpt>
      <trkpt lat="45.91411" lon="6.84164">
        <ele>1163</ele>
        <time>2026-08-04T11:24:25.132Z</time>
      </trkpt>
      <trkpt lat="45.91409" lon="6.84163">
        <ele>1163</ele>
        <time>2026-08-04T11:24:26.132Z</time>
      </trkpt>
      <trkpt lat="45.91407" lon="6.84163">
        <ele>1163</ele>
        <time>2026-08-04T11:24:27.132Z</time>
      </trkpt>
      <trkpt lat="45.91408" lon="6.84162">
        <ele>1162</ele>
        <time>2026-08-04T11:24:28.132Z</time>
      </trkpt>
      <trkpt lat="45.91409" lon="6.8416">
        <ele>1162</ele>
        <time>2026-08-04T11:24:29.132Z</time>
      </trkpt>
      <trkpt lat="45.91409" lon="6.8416">
        <ele>1161</ele>
        <time>2026-08-04T11:24:30.133Z</time>
      </trkpt>
      <trkpt lat="45.91409" lon="6.8416">
        <ele>1160</ele>
        <time>2026-08-04T11:24:31.132Z</time>
      </trkpt>
      <trkpt lat="45.91409" lon="6.8416">
        <ele>1160</ele>
        <time>2026-08-04T11:24:32.132Z</time>
      </trkpt>
      <trkpt lat="45.91407" lon="6.8416">
        <ele>1159</ele>
        <time>2026-08-04T11:24:33.132Z</time>
      </trkpt>
      <trkpt lat="45.91406" lon="6.8416">
        <ele>1159</ele>
        <time>2026-08-04T11:24:34.132Z</time>
      </trkpt>
      <trkpt lat="45.91406" lon="6.8416">
        <ele>1158</ele>
        <time>2026-08-04T11:24:35.132Z</time>
      </trkpt>
      <trkpt lat="45.91406" lon="6.84159">
        <ele>1158</ele>
        <time>2026-08-04T11:24:36.132Z</time>
      </trkpt>
      <trkpt lat="45.91406" lon="6.84159">
        <ele>1158</ele>
        <time>2026-08-04T11:24:37.132Z</time>
      </trkpt>
      <trkpt lat="45.91406" lon="6.84159">
        <ele>1157</ele>
        <time>2026-08-04T11:24:38.132Z</time>
      </trkpt>
      <trkpt lat="45.91406" lon="6.84159">
        <ele>1156</ele>
        <time>2026-08-04T11:24:39.132Z</time>
      </trkpt>
      <trkpt lat="45.91406" lon="6.84159">
        <ele>1156</ele>
        <time>2026-08-04T11:24:40.132Z</time>
      </trkpt>
      <trkpt lat="45.91406" lon="6.84159">
        <ele>1155</ele>
        <time>2026-08-04T11:24:41.132Z</time>
      </trkpt>
      <trkpt lat="45.91406" lon="6.8416">
        <ele>1155</ele>
        <time>2026-08-04T11:24:42.132Z</time>
      </trkpt>
      <trkpt lat="45.91406" lon="6.8416">
        <ele>1154</ele>
        <time>2026-08-04T11:24:43.132Z</time>
      </trkpt>
      <trkpt lat="45.91406" lon="6.8416">
        <ele>1154</ele>
        <time>2026-08-04T11:24:44.132Z</time>
      </trkpt>
      <trkpt lat="45.91406" lon="6.8416">
        <ele>1154</ele>
        <time>2026-08-04T11:24:45.132Z</time>
      </trkpt>
      <trkpt lat="45.91406" lon="6.8416">
        <ele>1153</ele>
        <time>2026-08-04T11:24:46.132Z</time>
      </trkpt>
      <trkpt lat="45.91406" lon="6.8416">
        <ele>1153</ele>
        <time>2026-08-04T11:24:47.132Z</time>
      </trkpt>
      <trkpt lat="45.91406" lon="6.84161">
        <ele>1153</ele>
        <time>2026-08-04T11:24:48.132Z</time>
      </trkpt>
      <trkpt lat="45.91406" lon="6.84161">
        <ele>1153</ele>
        <time>2026-08-04T11:24:49.132Z</time>
      </trkpt>
      <trkpt lat="45.91406" lon="6.84162">
        <ele>1153</ele>
        <time>2026-08-04T11:24:50.132Z</time>
      </trkpt>
      <trkpt lat="45.91406" lon="6.84162">
        <ele>1153</ele>
        <time>2026-08-04T11:24:51.132Z</time>
      </trkpt>
      <trkpt lat="45.91406" lon="6.84162">
        <ele>1153</ele>
        <time>2026-08-04T11:24:52.132Z</time>
      </trkpt>
      <trkpt lat="45.91404" lon="6.84163">
        <ele>1153</ele>
        <time>2026-08-04T11:24:53.132Z</time>
      </trkpt>
      <trkpt lat="45.91403" lon="6.84164">
        <ele>1153</ele>
        <time>2026-08-04T11:24:54.132Z</time>
      </trkpt>
      <trkpt lat="45.91402" lon="6.84166">
        <ele>1152</ele>
        <time>2026-08-04T11:24:55.132Z</time>
      </trkpt>
      <trkpt lat="45.91402" lon="6.84168">
        <ele>1152</ele>
        <time>2026-08-04T11:24:56.132Z</time>
      </trkpt>
      <trkpt lat="45.91401" lon="6.84169">
        <ele>1152</ele>
        <time>2026-08-04T11:24:57.132Z</time>
      </trkpt>
      <trkpt lat="45.91401" lon="6.8417">
        <ele>1151</ele>
        <time>2026-08-04T11:24:58.132Z</time>
      </trkpt>
      <trkpt lat="45.91401" lon="6.84171">
        <ele>1151</ele>
        <time>2026-08-04T11:24:59.132Z</time>
      </trkpt>
      <trkpt lat="45.91402" lon="6.84172">
        <ele>1151</ele>
        <time>2026-08-04T11:25:00.132Z</time>
      </trkpt>
      <trkpt lat="45.91402" lon="6.84173">
        <ele>1151</ele>
        <time>2026-08-04T11:25:01.132Z</time>
      </trkpt>
      <trkpt lat="45.91402" lon="6.84174">
        <ele>1151</ele>
        <time>2026-08-04T11:25:02.132Z</time>
      </trkpt>
      <trkpt lat="45.91402" lon="6.84175">
        <ele>1151</ele>
        <time>2026-08-04T11:25:03.132Z</time>
      </trkpt>
      <trkpt lat="45.91403" lon="6.84176">
        <ele>1150</ele>
        <time>2026-08-04T11:25:04.132Z</time>
      </trkpt>
      <trkpt lat="45.91403" lon="6.84176">
        <ele>1150</ele>
        <time>2026-08-04T11:25:05.132Z</time>
      </trkpt>
      <trkpt lat="45.91404" lon="6.84177">
        <ele>1150</ele>
        <time>2026-08-04T11:25:06.132Z</time>
      </trkpt>
      <trkpt lat="45.91404" lon="6.84177">
        <ele>1149</ele>
        <time>2026-08-04T11:25:07.132Z</time>
      </trkpt>
      <trkpt lat="45.91404" lon="6.84178">
        <ele>1148</ele>
        <time>2026-08-04T11:25:08.132Z</time>
      </trkpt>
      <trkpt lat="45.91404" lon="6.8418">
        <ele>1147</ele>
        <time>2026-08-04T11:25:09.132Z</time>
      </trkpt>
      <trkpt lat="45.91404" lon="6.84181">
        <ele>1147</ele>
        <time>2026-08-04T11:25:10.132Z</time>
      </trkpt>
      <trkpt lat="45.91403" lon="6.84183">
        <ele>1146</ele>
        <time>2026-08-04T11:25:11.132Z</time>
      </trkpt>
      <trkpt lat="45.91403" lon="6.84184">
        <ele>1146</ele>
        <time>2026-08-04T11:25:12.132Z</time>
      </trkpt>
      <trkpt lat="45.91403" lon="6.84186">
        <ele>1146</ele>
        <time>2026-08-04T11:25:13.132Z</time>
      </trkpt>
      <trkpt lat="45.91402" lon="6.84187">
        <ele>1146</ele>
        <time>2026-08-04T11:25:14.132Z</time>
      </trkpt>
      <trkpt lat="45.91402" lon="6.84188">
        <ele>1146</ele>
        <time>2026-08-04T11:25:15.132Z</time>
      </trkpt>
      <trkpt lat="45.91402" lon="6.84189">
        <ele>1146</ele>
        <time>2026-08-04T11:25:16.132Z</time>
      </trkpt>
      <trkpt lat="45.91402" lon="6.8419">
        <ele>1146</ele>
        <time>2026-08-04T11:25:17.132Z</time>
      </trkpt>
      <trkpt lat="45.91402" lon="6.84191">
        <ele>1145</ele>
        <time>2026-08-04T11:25:18.132Z</time>
      </trkpt>
      <trkpt lat="45.91402" lon="6.84191">
        <ele>1145</ele>
        <time>2026-08-04T11:25:19.132Z</time>
      </trkpt>
      <trkpt lat="45.91401" lon="6.84193">
        <ele>1145</ele>
        <time>2026-08-04T11:25:20.132Z</time>
      </trkpt>
      <trkpt lat="45.91401" lon="6.84194">
        <ele>1145</ele>
        <time>2026-08-04T11:25:21.132Z</time>
      </trkpt>
      <trkpt lat="45.91401" lon="6.84195">
        <ele>1145</ele>
        <time>2026-08-04T11:25:22.132Z</time>
      </trkpt>
      <trkpt lat="45.914" lon="6.84197">
        <ele>1145</ele>
        <time>2026-08-04T11:25:23.132Z</time>
      </trkpt>
      <trkpt lat="45.91401" lon="6.84198">
        <ele>1144</ele>
        <time>2026-08-04T11:25:24.132Z</time>
      </trkpt>
      <trkpt lat="45.91401" lon="6.84199">
        <ele>1144</ele>
        <time>2026-08-04T11:25:25.132Z</time>
      </trkpt>
      <trkpt lat="45.91401" lon="6.842">
        <ele>1144</ele>
        <time>2026-08-04T11:25:26.132Z</time>
      </trkpt>
      <trkpt lat="45.91401" lon="6.84202">
        <ele>1145</ele>
        <time>2026-08-04T11:25:27.132Z</time>
      </trkpt>
      <trkpt lat="45.914" lon="6.84204">
        <ele>1145</ele>
        <time>2026-08-04T11:25:28.132Z</time>
      </trkpt>
      <trkpt lat="45.914" lon="6.84205">
        <ele>1144</ele>
        <time>2026-08-04T11:25:29.132Z</time>
      </trkpt>
      <trkpt lat="45.914" lon="6.84206">
        <ele>1143</ele>
        <time>2026-08-04T11:25:30.132Z</time>
      </trkpt>
      <trkpt lat="45.91399" lon="6.84207">
        <ele>1142</ele>
        <time>2026-08-04T11:25:31.132Z</time>
      </trkpt>
      <trkpt lat="45.91397" lon="6.84208">
        <ele>1142</ele>
        <time>2026-08-04T11:25:32.132Z</time>
      </trkpt>
      <trkpt lat="45.91395" lon="6.84208">
        <ele>1141</ele>
        <time>2026-08-04T11:25:33.132Z</time>
      </trkpt>
      <trkpt lat="45.91394" lon="6.84206">
        <ele>1140</ele>
        <time>2026-08-04T11:25:34.132Z</time>
      </trkpt>
      <trkpt lat="45.91392" lon="6.84204">
        <ele>1140</ele>
        <time>2026-08-04T11:25:35.132Z</time>
      </trkpt>
      <trkpt lat="45.91391" lon="6.84201">
        <ele>1139</ele>
        <time>2026-08-04T11:25:36.132Z</time>
      </trkpt>
      <trkpt lat="45.91391" lon="6.84199">
        <ele>1139</ele>
        <time>2026-08-04T11:25:37.132Z</time>
      </trkpt>
      <trkpt lat="45.9139" lon="6.84196">
        <ele>1138</ele>
        <time>2026-08-04T11:25:38.132Z</time>
      </trkpt>
      <trkpt lat="45.91389" lon="6.84194">
        <ele>1138</ele>
        <time>2026-08-04T11:25:39.132Z</time>
      </trkpt>
      <trkpt lat="45.91388" lon="6.84192">
        <ele>1137</ele>
        <time>2026-08-04T11:25:40.132Z</time>
      </trkpt>
      <trkpt lat="45.91386" lon="6.8419">
        <ele>1137</ele>
        <time>2026-08-04T11:25:41.132Z</time>
      </trkpt>
      <trkpt lat="45.91385" lon="6.84188">
        <ele>1136</ele>
        <time>2026-08-04T11:25:42.132Z</time>
      </trkpt>
      <trkpt lat="45.91384" lon="6.84187">
        <ele>1136</ele>
        <time>2026-08-04T11:25:43.132Z</time>
      </trkpt>
      <trkpt lat="45.91383" lon="6.84186">
        <ele>1136</ele>
        <time>2026-08-04T11:25:44.132Z</time>
      </trkpt>
      <trkpt lat="45.91382" lon="6.84185">
        <ele>1136</ele>
        <time>2026-08-04T11:25:45.132Z</time>
      </trkpt>
      <trkpt lat="45.91381" lon="6.84182">
        <ele>1136</ele>
        <time>2026-08-04T11:25:46.132Z</time>
      </trkpt>
      <trkpt lat="45.9138" lon="6.8418">
        <ele>1136</ele>
        <time>2026-08-04T11:25:47.132Z</time>
      </trkpt>
      <trkpt lat="45.91379" lon="6.84178">
        <ele>1135</ele>
        <time>2026-08-04T11:25:48.132Z</time>
      </trkpt>
      <trkpt lat="45.91378" lon="6.84177">
        <ele>1135</ele>
        <time>2026-08-04T11:25:49.132Z</time>
      </trkpt>
      <trkpt lat="45.91377" lon="6.84175">
        <ele>1135</ele>
        <time>2026-08-04T11:25:50.132Z</time>
      </trkpt>
      <trkpt lat="45.91376" lon="6.84173">
        <ele>1135</ele>
        <time>2026-08-04T11:25:51.132Z</time>
      </trkpt>
      <trkpt lat="45.91374" lon="6.84172">
        <ele>1135</ele>
        <time>2026-08-04T11:25:52.132Z</time>
      </trkpt>
      <trkpt lat="45.91373" lon="6.84171">
        <ele>1134</ele>
        <time>2026-08-04T11:25:53.132Z</time>
      </trkpt>
      <trkpt lat="45.91372" lon="6.84169">
        <ele>1134</ele>
        <time>2026-08-04T11:25:54.132Z</time>
      </trkpt>
      <trkpt lat="45.91372" lon="6.84168">
        <ele>1135</ele>
        <time>2026-08-04T11:25:55.132Z</time>
      </trkpt>
      <trkpt lat="45.9137" lon="6.84166">
        <ele>1135</ele>
        <time>2026-08-04T11:25:56.132Z</time>
      </trkpt>
      <trkpt lat="45.91368" lon="6.84165">
        <ele>1135</ele>
        <time>2026-08-04T11:25:57.132Z</time>
      </trkpt>
      <trkpt lat="45.91367" lon="6.84164">
        <ele>1135</ele>
        <time>2026-08-04T11:25:58.132Z</time>
      </trkpt>
      <trkpt lat="45.91366" lon="6.84162">
        <ele>1135</ele>
        <time>2026-08-04T11:25:59.132Z</time>
      </trkpt>
      <trkpt lat="45.91366" lon="6.84159">
        <ele>1135</ele>
        <time>2026-08-04T11:26:00.132Z</time>
      </trkpt>
      <trkpt lat="45.91366" lon="6.84157">
        <ele>1134</ele>
        <time>2026-08-04T11:26:01.132Z</time>
      </trkpt>
      <trkpt lat="45.91366" lon="6.84155">
        <ele>1134</ele>
        <time>2026-08-04T11:26:02.132Z</time>
      </trkpt>
      <trkpt lat="45.91365" lon="6.84153">
        <ele>1134</ele>
        <time>2026-08-04T11:26:03.132Z</time>
      </trkpt>
      <trkpt lat="45.91365" lon="6.84151">
        <ele>1134</ele>
        <time>2026-08-04T11:26:04.132Z</time>
      </trkpt>
      <trkpt lat="45.91364" lon="6.84149">
        <ele>1134</ele>
        <time>2026-08-04T11:26:05.132Z</time>
      </trkpt>
      <trkpt lat="45.91364" lon="6.84147">
        <ele>1134</ele>
        <time>2026-08-04T11:26:06.132Z</time>
      </trkpt>
      <trkpt lat="45.91363" lon="6.84146">
        <ele>1134</ele>
        <time>2026-08-04T11:26:07.132Z</time>
      </trkpt>
      <trkpt lat="45.91363" lon="6.84146">
        <ele>1135</ele>
        <time>2026-08-04T11:26:08.132Z</time>
      </trkpt>
      <trkpt lat="45.91362" lon="6.84145">
        <ele>1136</ele>
        <time>2026-08-04T11:26:09.132Z</time>
      </trkpt>
      <trkpt lat="45.91361" lon="6.84143">
        <ele>1136</ele>
        <time>2026-08-04T11:26:10.132Z</time>
      </trkpt>
      <trkpt lat="45.9136" lon="6.84143">
        <ele>1136</ele>
        <time>2026-08-04T11:26:11.132Z</time>
      </trkpt>
      <trkpt lat="45.91358" lon="6.84142">
        <ele>1136</ele>
        <time>2026-08-04T11:26:12.132Z</time>
      </trkpt>
      <trkpt lat="45.91357" lon="6.84142">
        <ele>1136</ele>
        <time>2026-08-04T11:26:13.132Z</time>
      </trkpt>
      <trkpt lat="45.91356" lon="6.84141">
        <ele>1136</ele>
        <time>2026-08-04T11:26:14.132Z</time>
      </trkpt>
      <trkpt lat="45.91356" lon="6.8414">
        <ele>1135</ele>
        <time>2026-08-04T11:26:15.132Z</time>
      </trkpt>
      <trkpt lat="45.91355" lon="6.8414">
        <ele>1134</ele>
        <time>2026-08-04T11:26:16.132Z</time>
      </trkpt>
      <trkpt lat="45.91353" lon="6.8414">
        <ele>1133</ele>
        <time>2026-08-04T11:26:17.132Z</time>
      </trkpt>
      <trkpt lat="45.91352" lon="6.8414">
        <ele>1133</ele>
        <time>2026-08-04T11:26:18.132Z</time>
      </trkpt>
      <trkpt lat="45.91351" lon="6.8414">
        <ele>1132</ele>
        <time>2026-08-04T11:26:19.132Z</time>
      </trkpt>
      <trkpt lat="45.9135" lon="6.8414">
        <ele>1132</ele>
        <time>2026-08-04T11:26:20.132Z</time>
      </trkpt>
      <trkpt lat="45.91349" lon="6.84141">
        <ele>1132</ele>
        <time>2026-08-04T11:26:21.132Z</time>
      </trkpt>
      <trkpt lat="45.91348" lon="6.84141">
        <ele>1131</ele>
        <time>2026-08-04T11:26:22.132Z</time>
      </trkpt>
      <trkpt lat="45.91347" lon="6.84141">
        <ele>1131</ele>
        <time>2026-08-04T11:26:23.132Z</time>
      </trkpt>
      <trkpt lat="45.91346" lon="6.84141">
        <ele>1131</ele>
        <time>2026-08-04T11:26:24.132Z</time>
      </trkpt>
      <trkpt lat="45.91345" lon="6.84141">
        <ele>1130</ele>
        <time>2026-08-04T11:26:25.132Z</time>
      </trkpt>
      <trkpt lat="45.91345" lon="6.84142">
        <ele>1130</ele>
        <time>2026-08-04T11:26:26.132Z</time>
      </trkpt>
      <trkpt lat="45.91343" lon="6.84142">
        <ele>1130</ele>
        <time>2026-08-04T11:26:27.132Z</time>
      </trkpt>
      <trkpt lat="45.91343" lon="6.84143">
        <ele>1130</ele>
        <time>2026-08-04T11:26:28.132Z</time>
      </trkpt>
      <trkpt lat="45.91342" lon="6.84144">
        <ele>1130</ele>
        <time>2026-08-04T11:26:29.132Z</time>
      </trkpt>
      <trkpt lat="45.91341" lon="6.84144">
        <ele>1130</ele>
        <time>2026-08-04T11:26:30.132Z</time>
      </trkpt>
      <trkpt lat="45.91339" lon="6.84145">
        <ele>1130</ele>
        <time>2026-08-04T11:26:31.132Z</time>
      </trkpt>
      <trkpt lat="45.91338" lon="6.84145">
        <ele>1130</ele>
        <time>2026-08-04T11:26:32.132Z</time>
      </trkpt>
      <trkpt lat="45.91338" lon="6.84146">
        <ele>1130</ele>
        <time>2026-08-04T11:26:33.132Z</time>
      </trkpt>
      <trkpt lat="45.91337" lon="6.84146">
        <ele>1130</ele>
        <time>2026-08-04T11:26:34.132Z</time>
      </trkpt>
      <trkpt lat="45.91335" lon="6.84147">
        <ele>1129</ele>
        <time>2026-08-04T11:26:35.132Z</time>
      </trkpt>
      <trkpt lat="45.91334" lon="6.84147">
        <ele>1129</ele>
        <time>2026-08-04T11:26:36.132Z</time>
      </trkpt>
      <trkpt lat="45.91332" lon="6.84146">
        <ele>1129</ele>
        <time>2026-08-04T11:26:37.132Z</time>
      </trkpt>
      <trkpt lat="45.91331" lon="6.84145">
        <ele>1129</ele>
        <time>2026-08-04T11:26:38.132Z</time>
      </trkpt>
      <trkpt lat="45.91329" lon="6.84145">
        <ele>1129</ele>
        <time>2026-08-04T11:26:39.132Z</time>
      </trkpt>
      <trkpt lat="45.91327" lon="6.84144">
        <ele>1129</ele>
        <time>2026-08-04T11:26:40.132Z</time>
      </trkpt>
      <trkpt lat="45.91325" lon="6.84144">
        <ele>1129</ele>
        <time>2026-08-04T11:26:41.132Z</time>
      </trkpt>
      <trkpt lat="45.91324" lon="6.84143">
        <ele>1128</ele>
        <time>2026-08-04T11:26:42.132Z</time>
      </trkpt>
      <trkpt lat="45.91322" lon="6.84142">
        <ele>1128</ele>
        <time>2026-08-04T11:26:43.132Z</time>
      </trkpt>
      <trkpt lat="45.9132" lon="6.84141">
        <ele>1128</ele>
        <time>2026-08-04T11:26:44.132Z</time>
      </trkpt>
      <trkpt lat="45.91318" lon="6.8414">
        <ele>1128</ele>
        <time>2026-08-04T11:26:45.132Z</time>
      </trkpt>
      <trkpt lat="45.91315" lon="6.84138">
        <ele>1128</ele>
        <time>2026-08-04T11:26:46.132Z</time>
      </trkpt>
      <trkpt lat="45.91314" lon="6.84137">
        <ele>1128</ele>
        <time>2026-08-04T11:26:47.132Z</time>
      </trkpt>
      <trkpt lat="45.91312" lon="6.84136">
        <ele>1129</ele>
        <time>2026-08-04T11:26:48.132Z</time>
      </trkpt>
      <trkpt lat="45.9131" lon="6.84135">
        <ele>1129</ele>
        <time>2026-08-04T11:26:49.132Z</time>
      </trkpt>
      <trkpt lat="45.91307" lon="6.84134">
        <ele>1129</ele>
        <time>2026-08-04T11:26:50.132Z</time>
      </trkpt>
      <trkpt lat="45.91305" lon="6.84131">
        <ele>1129</ele>
        <time>2026-08-04T11:26:51.132Z</time>
      </trkpt>
      <trkpt lat="45.91303" lon="6.84128">
        <ele>1129</ele>
        <time>2026-08-04T11:26:52.132Z</time>
      </trkpt>
      <trkpt lat="45.91301" lon="6.84127">
        <ele>1129</ele>
        <time>2026-08-04T11:26:53.132Z</time>
      </trkpt>
      <trkpt lat="45.913" lon="6.84125">
        <ele>1128</ele>
        <time>2026-08-04T11:26:54.132Z</time>
      </trkpt>
      <trkpt lat="45.91299" lon="6.84123">
        <ele>1128</ele>
        <time>2026-08-04T11:26:55.132Z</time>
      </trkpt>
      <trkpt lat="45.91299" lon="6.84122">
        <ele>1129</ele>
        <time>2026-08-04T11:26:56.132Z</time>
      </trkpt>
      <trkpt lat="45.91299" lon="6.84121">
        <ele>1129</ele>
        <time>2026-08-04T11:26:57.132Z</time>
      </trkpt>
      <trkpt lat="45.91299" lon="6.8412">
        <ele>1129</ele>
        <time>2026-08-04T11:26:58.132Z</time>
      </trkpt>
      <trkpt lat="45.91299" lon="6.8412">
        <ele>1129</ele>
        <time>2026-08-04T11:26:59.132Z</time>
      </trkpt>
      <trkpt lat="45.91299" lon="6.84119">
        <ele>1129</ele>
        <time>2026-08-04T11:27:00.132Z</time>
      </trkpt>
      <trkpt lat="45.91299" lon="6.84119">
        <ele>1129</ele>
        <time>2026-08-04T11:27:01.132Z</time>
      </trkpt>
      <trkpt lat="45.91298" lon="6.84118">
        <ele>1129</ele>
        <time>2026-08-04T11:27:02.132Z</time>
      </trkpt>
      <trkpt lat="45.91298" lon="6.84118">
        <ele>1130</ele>
        <time>2026-08-04T11:27:03.132Z</time>
      </trkpt>
      <trkpt lat="45.91298" lon="6.84117">
        <ele>1130</ele>
        <time>2026-08-04T11:27:04.132Z</time>
      </trkpt>
      <trkpt lat="45.91298" lon="6.84117">
        <ele>1130</ele>
        <time>2026-08-04T11:27:05.132Z</time>
      </trkpt>
      <trkpt lat="45.91297" lon="6.84116">
        <ele>1130</ele>
        <time>2026-08-04T11:27:06.132Z</time>
      </trkpt>
      <trkpt lat="45.91296" lon="6.84115">
        <ele>1130</ele>
        <time>2026-08-04T11:27:07.132Z</time>
      </trkpt>
      <trkpt lat="45.91295" lon="6.84115">
        <ele>1130</ele>
        <time>2026-08-04T11:27:08.132Z</time>
      </trkpt>
      <trkpt lat="45.91294" lon="6.84114">
        <ele>1130</ele>
        <time>2026-08-04T11:27:09.132Z</time>
      </trkpt>
      <trkpt lat="45.91293" lon="6.84114">
        <ele>1130</ele>
        <time>2026-08-04T11:27:10.132Z</time>
      </trkpt>
      <trkpt lat="45.91291" lon="6.84114">
        <ele>1130</ele>
        <time>2026-08-04T11:27:11.132Z</time>
      </trkpt>
      <trkpt lat="45.91289" lon="6.84113">
        <ele>1130</ele>
        <time>2026-08-04T11:27:12.132Z</time>
      </trkpt>
      <trkpt lat="45.91287" lon="6.84112">
        <ele>1130</ele>
        <time>2026-08-04T11:27:13.132Z</time>
      </trkpt>
      <trkpt lat="45.91286" lon="6.84112">
        <ele>1130</ele>
        <time>2026-08-04T11:27:14.132Z</time>
      </trkpt>
      <trkpt lat="45.91285" lon="6.84111">
        <ele>1130</ele>
        <time>2026-08-04T11:27:15.132Z</time>
      </trkpt>
      <trkpt lat="45.91284" lon="6.84109">
        <ele>1130</ele>
        <time>2026-08-04T11:27:16.132Z</time>
      </trkpt>
      <trkpt lat="45.91284" lon="6.84109">
        <ele>1130</ele>
        <time>2026-08-04T11:27:17.132Z</time>
      </trkpt>
      <trkpt lat="45.91284" lon="6.84109">
        <ele>1130</ele>
        <time>2026-08-04T11:27:18.132Z</time>
      </trkpt>
      <trkpt lat="45.91283" lon="6.84108">
        <ele>1130</ele>
        <time>2026-08-04T11:27:19.132Z</time>
      </trkpt>
      <trkpt lat="45.91282" lon="6.84108">
        <ele>1131</ele>
        <time>2026-08-04T11:27:20.132Z</time>
      </trkpt>
      <trkpt lat="45.91281" lon="6.84108">
        <ele>1131</ele>
        <time>2026-08-04T11:27:21.132Z</time>
      </trkpt>
      <trkpt lat="45.9128" lon="6.84107">
        <ele>1131</ele>
        <time>2026-08-04T11:27:22.132Z</time>
      </trkpt>
      <trkpt lat="45.9128" lon="6.84106">
        <ele>1132</ele>
        <time>2026-08-04T11:27:23.132Z</time>
      </trkpt>
      <trkpt lat="45.9128" lon="6.84105">
        <ele>1132</ele>
        <time>2026-08-04T11:27:24.132Z</time>
      </trkpt>
      <trkpt lat="45.9128" lon="6.84104">
        <ele>1133</ele>
        <time>2026-08-04T11:27:25.132Z</time>
      </trkpt>
      <trkpt lat="45.9128" lon="6.84102">
        <ele>1133</ele>
        <time>2026-08-04T11:27:26.132Z</time>
      </trkpt>
      <trkpt lat="45.9128" lon="6.84101">
        <ele>1133</ele>
        <time>2026-08-04T11:27:27.132Z</time>
      </trkpt>
      <trkpt lat="45.91281" lon="6.84101">
        <ele>1134</ele>
        <time>2026-08-04T11:27:28.132Z</time>
      </trkpt>
      <trkpt lat="45.91281" lon="6.841">
        <ele>1134</ele>
        <time>2026-08-04T11:27:29.132Z</time>
      </trkpt>
      <trkpt lat="45.91281" lon="6.841">
        <ele>1134</ele>
        <time>2026-08-04T11:27:30.132Z</time>
      </trkpt>
      <trkpt lat="45.91281" lon="6.84099">
        <ele>1134</ele>
        <time>2026-08-04T11:27:31.132Z</time>
      </trkpt>
      <trkpt lat="45.91282" lon="6.84098">
        <ele>1134</ele>
        <time>2026-08-04T11:27:32.132Z</time>
      </trkpt>
      <trkpt lat="45.91282" lon="6.84098">
        <ele>1135</ele>
        <time>2026-08-04T11:27:33.132Z</time>
      </trkpt>
      <trkpt lat="45.91282" lon="6.84097">
        <ele>1135</ele>
        <time>2026-08-04T11:27:34.132Z</time>
      </trkpt>
      <trkpt lat="45.91282" lon="6.84095">
        <ele>1135</ele>
        <time>2026-08-04T11:27:35.132Z</time>
      </trkpt>
      <trkpt lat="45.91283" lon="6.84094">
        <ele>1135</ele>
        <time>2026-08-04T11:27:36.132Z</time>
      </trkpt>
      <trkpt lat="45.91283" lon="6.84094">
        <ele>1135</ele>
        <time>2026-08-04T11:27:37.132Z</time>
      </trkpt>
      <trkpt lat="45.91283" lon="6.84093">
        <ele>1135</ele>
        <time>2026-08-04T11:27:38.132Z</time>
      </trkpt>
      <trkpt lat="45.91283" lon="6.84093">
        <ele>1135</ele>
        <time>2026-08-04T11:27:39.132Z</time>
      </trkpt>
      <trkpt lat="45.91283" lon="6.84093">
        <ele>1135</ele>
        <time>2026-08-04T11:27:40.132Z</time>
      </trkpt>
      <trkpt lat="45.91284" lon="6.84092">
        <ele>1135</ele>
        <time>2026-08-04T11:27:41.132Z</time>
      </trkpt>
      <trkpt lat="45.91285" lon="6.84091">
        <ele>1134</ele>
        <time>2026-08-04T11:27:42.132Z</time>
      </trkpt>
      <trkpt lat="45.91286" lon="6.84091">
        <ele>1134</ele>
        <time>2026-08-04T11:27:43.132Z</time>
      </trkpt>
      <trkpt lat="45.91286" lon="6.84091">
        <ele>1134</ele>
        <time>2026-08-04T11:27:44.132Z</time>
      </trkpt>
      <trkpt lat="45.91287" lon="6.8409">
        <ele>1133</ele>
        <time>2026-08-04T11:27:45.132Z</time>
      </trkpt>
      <trkpt lat="45.91287" lon="6.8409">
        <ele>1133</ele>
        <time>2026-08-04T11:27:46.132Z</time>
      </trkpt>
      <trkpt lat="45.91287" lon="6.8409">
        <ele>1133</ele>
        <time>2026-08-04T11:27:47.132Z</time>
      </trkpt>
      <trkpt lat="45.91288" lon="6.8409">
        <ele>1132</ele>
        <time>2026-08-04T11:27:48.132Z</time>
      </trkpt>
      <trkpt lat="45.91288" lon="6.8409">
        <ele>1132</ele>
        <time>2026-08-04T11:27:49.132Z</time>
      </trkpt>
      <trkpt lat="45.91289" lon="6.84089">
        <ele>1132</ele>
        <time>2026-08-04T11:27:50.132Z</time>
      </trkpt>
      <trkpt lat="45.9129" lon="6.84089">
        <ele>1131</ele>
        <time>2026-08-04T11:27:51.132Z</time>
      </trkpt>
      <trkpt lat="45.91291" lon="6.84088">
        <ele>1131</ele>
        <time>2026-08-04T11:27:52.132Z</time>
      </trkpt>
      <trkpt lat="45.91292" lon="6.84087">
        <ele>1131</ele>
        <time>2026-08-04T11:27:53.132Z</time>
      </trkpt>
      <trkpt lat="45.91292" lon="6.84087">
        <ele>1131</ele>
        <time>2026-08-04T11:27:54.132Z</time>
      </trkpt>
      <trkpt lat="45.91292" lon="6.84087">
        <ele>1131</ele>
        <time>2026-08-04T11:27:55.132Z</time>
      </trkpt>
      <trkpt lat="45.91293" lon="6.84086">
        <ele>1131</ele>
        <time>2026-08-04T11:27:56.132Z</time>
      </trkpt>
      <trkpt lat="45.91294" lon="6.84086">
        <ele>1131</ele>
        <time>2026-08-04T11:27:57.132Z</time>
      </trkpt>
      <trkpt lat="45.91295" lon="6.84085">
        <ele>1131</ele>
        <time>2026-08-04T11:27:58.132Z</time>
      </trkpt>
      <trkpt lat="45.91296" lon="6.84084">
        <ele>1131</ele>
        <time>2026-08-04T11:27:59.132Z</time>
      </trkpt>
      <trkpt lat="45.91297" lon="6.84083">
        <ele>1132</ele>
        <time>2026-08-04T11:28:00.132Z</time>
      </trkpt>
      <trkpt lat="45.91298" lon="6.84083">
        <ele>1131</ele>
        <time>2026-08-04T11:28:01.132Z</time>
      </trkpt>
      <trkpt lat="45.91299" lon="6.84082">
        <ele>1131</ele>
        <time>2026-08-04T11:28:02.132Z</time>
      </trkpt>
      <trkpt lat="45.91299" lon="6.84081">
        <ele>1131</ele>
        <time>2026-08-04T11:28:03.132Z</time>
      </trkpt>
      <trkpt lat="45.913" lon="6.84081">
        <ele>1131</ele>
        <time>2026-08-04T11:28:04.132Z</time>
      </trkpt>
      <trkpt lat="45.913" lon="6.8408">
        <ele>1131</ele>
        <time>2026-08-04T11:28:05.132Z</time>
      </trkpt>
      <trkpt lat="45.91299" lon="6.8408">
        <ele>1132</ele>
        <time>2026-08-04T11:28:06.132Z</time>
      </trkpt>
      <trkpt lat="45.91299" lon="6.8408">
        <ele>1132</ele>
        <time>2026-08-04T11:28:07.132Z</time>
      </trkpt>
      <trkpt lat="45.913" lon="6.8408">
        <ele>1132</ele>
        <time>2026-08-04T11:28:08.132Z</time>
      </trkpt>
      <trkpt lat="45.913" lon="6.8408">
        <ele>1132</ele>
        <time>2026-08-04T11:28:09.132Z</time>
      </trkpt>
      <trkpt lat="45.913" lon="6.84079">
        <ele>1132</ele>
        <time>2026-08-04T11:28:10.132Z</time>
      </trkpt>
      <trkpt lat="45.91301" lon="6.84078">
        <ele>1133</ele>
        <time>2026-08-04T11:28:11.132Z</time>
      </trkpt>
      <trkpt lat="45.91302" lon="6.84078">
        <ele>1133</ele>
        <time>2026-08-04T11:28:12.132Z</time>
      </trkpt>
      <trkpt lat="45.91303" lon="6.84077">
        <ele>1133</ele>
        <time>2026-08-04T11:28:13.132Z</time>
      </trkpt>
      <trkpt lat="45.91304" lon="6.84076">
        <ele>1133</ele>
        <time>2026-08-04T11:28:14.132Z</time>
      </trkpt>
      <trkpt lat="45.91305" lon="6.84076">
        <ele>1133</ele>
        <time>2026-08-04T11:28:15.132Z</time>
      </trkpt>
      <trkpt lat="45.91305" lon="6.84075">
        <ele>1134</ele>
        <time>2026-08-04T11:28:16.132Z</time>
      </trkpt>
      <trkpt lat="45.91306" lon="6.84074">
        <ele>1134</ele>
        <time>2026-08-04T11:28:17.132Z</time>
      </trkpt>
      <trkpt lat="45.91306" lon="6.84073">
        <ele>1134</ele>
        <time>2026-08-04T11:28:18.132Z</time>
      </trkpt>
      <trkpt lat="45.91305" lon="6.84073">
        <ele>1134</ele>
        <time>2026-08-04T11:28:19.132Z</time>
      </trkpt>
      <trkpt lat="45.91304" lon="6.84073">
        <ele>1135</ele>
        <time>2026-08-04T11:28:20.132Z</time>
      </trkpt>
      <trkpt lat="45.91303" lon="6.84073">
        <ele>1135</ele>
        <time>2026-08-04T11:28:21.132Z</time>
      </trkpt>
      <trkpt lat="45.91303" lon="6.84072">
        <ele>1135</ele>
        <time>2026-08-04T11:28:22.132Z</time>
      </trkpt>
      <trkpt lat="45.91303" lon="6.84072">
        <ele>1135</ele>
        <time>2026-08-04T11:28:23.132Z</time>
      </trkpt>
      <trkpt lat="45.91302" lon="6.84072">
        <ele>1135</ele>
        <time>2026-08-04T11:28:24.132Z</time>
      </trkpt>
      <trkpt lat="45.91302" lon="6.84072">
        <ele>1136</ele>
        <time>2026-08-04T11:28:25.132Z</time>
      </trkpt>
      <trkpt lat="45.91301" lon="6.84071">
        <ele>1136</ele>
        <time>2026-08-04T11:28:26.132Z</time>
      </trkpt>
      <trkpt lat="45.913" lon="6.84071">
        <ele>1136</ele>
        <time>2026-08-04T11:28:27.132Z</time>
      </trkpt>
      <trkpt lat="45.91299" lon="6.8407">
        <ele>1136</ele>
        <time>2026-08-04T11:28:28.132Z</time>
      </trkpt>
      <trkpt lat="45.91297" lon="6.8407">
        <ele>1137</ele>
        <time>2026-08-04T11:28:29.132Z</time>
      </trkpt>
      <trkpt lat="45.91294" lon="6.8407">
        <ele>1137</ele>
        <time>2026-08-04T11:28:30.132Z</time>
      </trkpt>
      <trkpt lat="45.91292" lon="6.84069">
        <ele>1138</ele>
        <time>2026-08-04T11:28:31.132Z</time>
      </trkpt>
      <trkpt lat="45.91292" lon="6.84069">
        <ele>1138</ele>
        <time>2026-08-04T11:28:32.132Z</time>
      </trkpt>
      <trkpt lat="45.91291" lon="6.84068">
        <ele>1138</ele>
        <time>2026-08-04T11:28:33.132Z</time>
      </trkpt>
      <trkpt lat="45.91291" lon="6.84067">
        <ele>1139</ele>
        <time>2026-08-04T11:28:34.132Z</time>
      </trkpt>
      <trkpt lat="45.91291" lon="6.84066">
        <ele>1139</ele>
        <time>2026-08-04T11:28:35.132Z</time>
      </trkpt>
      <trkpt lat="45.91291" lon="6.84065">
        <ele>1139</ele>
        <time>2026-08-04T11:28:36.132Z</time>
      </trkpt>
      <trkpt lat="45.91289" lon="6.84065">
        <ele>1139</ele>
        <time>2026-08-04T11:28:37.132Z</time>
      </trkpt>
      <trkpt lat="45.91288" lon="6.84065">
        <ele>1139</ele>
        <time>2026-08-04T11:28:38.132Z</time>
      </trkpt>
      <trkpt lat="45.91288" lon="6.84064">
        <ele>1140</ele>
        <time>2026-08-04T11:28:39.132Z</time>
      </trkpt>
      <trkpt lat="45.91287" lon="6.84064">
        <ele>1140</ele>
        <time>2026-08-04T11:28:40.132Z</time>
      </trkpt>
      <trkpt lat="45.91287" lon="6.84064">
        <ele>1140</ele>
        <time>2026-08-04T11:28:41.132Z</time>
      </trkpt>
      <trkpt lat="45.91287" lon="6.84064">
        <ele>1140</ele>
        <time>2026-08-04T11:28:42.132Z</time>
      </trkpt>
      <trkpt lat="45.91287" lon="6.84063">
        <ele>1140</ele>
        <time>2026-08-04T11:28:43.132Z</time>
      </trkpt>
      <trkpt lat="45.91285" lon="6.84061">
        <ele>1140</ele>
        <time>2026-08-04T11:28:44.132Z</time>
      </trkpt>
      <trkpt lat="45.91284" lon="6.8406">
        <ele>1140</ele>
        <time>2026-08-04T11:28:45.132Z</time>
      </trkpt>
      <trkpt lat="45.91284" lon="6.8406">
        <ele>1140</ele>
        <time>2026-08-04T11:28:46.132Z</time>
      </trkpt>
      <trkpt lat="45.91284" lon="6.84059">
        <ele>1140</ele>
        <time>2026-08-04T11:28:47.132Z</time>
      </trkpt>
      <trkpt lat="45.91284" lon="6.84058">
        <ele>1140</ele>
        <time>2026-08-04T11:28:48.132Z</time>
      </trkpt>
      <trkpt lat="45.91284" lon="6.84057">
        <ele>1140</ele>
        <time>2026-08-04T11:28:49.132Z</time>
      </trkpt>
      <trkpt lat="45.91283" lon="6.84056">
        <ele>1141</ele>
        <time>2026-08-04T11:28:50.132Z</time>
      </trkpt>
      <trkpt lat="45.91281" lon="6.84055">
        <ele>1141</ele>
        <time>2026-08-04T11:28:51.132Z</time>
      </trkpt>
      <trkpt lat="45.91279" lon="6.84055">
        <ele>1141</ele>
        <time>2026-08-04T11:28:52.132Z</time>
      </trkpt>
      <trkpt lat="45.91278" lon="6.84054">
        <ele>1141</ele>
        <time>2026-08-04T11:28:53.132Z</time>
      </trkpt>
      <trkpt lat="45.91277" lon="6.84053">
        <ele>1142</ele>
        <time>2026-08-04T11:28:54.132Z</time>
      </trkpt>
      <trkpt lat="45.91277" lon="6.84052">
        <ele>1142</ele>
        <time>2026-08-04T11:28:55.132Z</time>
      </trkpt>
      <trkpt lat="45.91276" lon="6.8405">
        <ele>1142</ele>
        <time>2026-08-04T11:28:56.132Z</time>
      </trkpt>
      <trkpt lat="45.91276" lon="6.84049">
        <ele>1142</ele>
        <time>2026-08-04T11:28:57.132Z</time>
      </trkpt>
      <trkpt lat="45.91275" lon="6.84048">
        <ele>1143</ele>
        <time>2026-08-04T11:28:58.132Z</time>
      </trkpt>
      <trkpt lat="45.91275" lon="6.84047">
        <ele>1143</ele>
        <time>2026-08-04T11:28:59.132Z</time>
      </trkpt>
      <trkpt lat="45.91274" lon="6.84046">
        <ele>1143</ele>
        <time>2026-08-04T11:29:00.132Z</time>
      </trkpt>
      <trkpt lat="45.91274" lon="6.84045">
        <ele>1144</ele>
        <time>2026-08-04T11:29:01.132Z</time>
      </trkpt>
      <trkpt lat="45.91274" lon="6.84043">
        <ele>1144</ele>
        <time>2026-08-04T11:29:02.132Z</time>
      </trkpt>
      <trkpt lat="45.91273" lon="6.84042">
        <ele>1144</ele>
        <time>2026-08-04T11:29:03.132Z</time>
      </trkpt>
      <trkpt lat="45.91273" lon="6.8404">
        <ele>1144</ele>
        <time>2026-08-04T11:29:04.132Z</time>
      </trkpt>
      <trkpt lat="45.91274" lon="6.84038">
        <ele>1145</ele>
        <time>2026-08-04T11:29:05.132Z</time>
      </trkpt>
      <trkpt lat="45.91275" lon="6.84036">
        <ele>1145</ele>
        <time>2026-08-04T11:29:06.132Z</time>
      </trkpt>
      <trkpt lat="45.91276" lon="6.84035">
        <ele>1144</ele>
        <time>2026-08-04T11:29:07.132Z</time>
      </trkpt>
      <trkpt lat="45.91276" lon="6.84033">
        <ele>1144</ele>
        <time>2026-08-04T11:29:08.132Z</time>
      </trkpt>
      <trkpt lat="45.91277" lon="6.84032">
        <ele>1144</ele>
        <time>2026-08-04T11:29:09.132Z</time>
      </trkpt>
      <trkpt lat="45.91277" lon="6.84031">
        <ele>1144</ele>
        <time>2026-08-04T11:29:10.132Z</time>
      </trkpt>
      <trkpt lat="45.91277" lon="6.8403">
        <ele>1144</ele>
        <time>2026-08-04T11:29:11.132Z</time>
      </trkpt>
      <trkpt lat="45.91277" lon="6.84028">
        <ele>1144</ele>
        <time>2026-08-04T11:29:12.132Z</time>
      </trkpt>
      <trkpt lat="45.91277" lon="6.84027">
        <ele>1144</ele>
        <time>2026-08-04T11:29:13.132Z</time>
      </trkpt>
      <trkpt lat="45.91276" lon="6.84024">
        <ele>1144</ele>
        <time>2026-08-04T11:29:14.132Z</time>
      </trkpt>
      <trkpt lat="45.91276" lon="6.84024">
        <ele>1144</ele>
        <time>2026-08-04T11:29:15.132Z</time>
      </trkpt>
      <trkpt lat="45.91276" lon="6.84023">
        <ele>1144</ele>
        <time>2026-08-04T11:29:16.132Z</time>
      </trkpt>
      <trkpt lat="45.91275" lon="6.84023">
        <ele>1144</ele>
        <time>2026-08-04T11:29:17.132Z</time>
      </trkpt>
      <trkpt lat="45.91275" lon="6.84022">
        <ele>1144</ele>
        <time>2026-08-04T11:29:18.132Z</time>
      </trkpt>
      <trkpt lat="45.91274" lon="6.84021">
        <ele>1144</ele>
        <time>2026-08-04T11:29:19.132Z</time>
      </trkpt>
      <trkpt lat="45.91273" lon="6.84021">
        <ele>1144</ele>
        <time>2026-08-04T11:29:20.132Z</time>
      </trkpt>
      <trkpt lat="45.91273" lon="6.8402">
        <ele>1144</ele>
        <time>2026-08-04T11:29:21.132Z</time>
      </trkpt>
      <trkpt lat="45.91272" lon="6.84019">
        <ele>1145</ele>
        <time>2026-08-04T11:29:22.132Z</time>
      </trkpt>
      <trkpt lat="45.91271" lon="6.84018">
        <ele>1145</ele>
        <time>2026-08-04T11:29:23.132Z</time>
      </trkpt>
      <trkpt lat="45.91271" lon="6.84017">
        <ele>1145</ele>
        <time>2026-08-04T11:29:24.132Z</time>
      </trkpt>
      <trkpt lat="45.9127" lon="6.84017">
        <ele>1145</ele>
        <time>2026-08-04T11:29:25.132Z</time>
      </trkpt>
      <trkpt lat="45.91269" lon="6.84017">
        <ele>1146</ele>
        <time>2026-08-04T11:29:26.132Z</time>
      </trkpt>
      <trkpt lat="45.91268" lon="6.84016">
        <ele>1147</ele>
        <time>2026-08-04T11:29:27.132Z</time>
      </trkpt>
      <trkpt lat="45.91268" lon="6.84015">
        <ele>1147</ele>
        <time>2026-08-04T11:29:28.132Z</time>
      </trkpt>
      <trkpt lat="45.91267" lon="6.84013">
        <ele>1148</ele>
        <time>2026-08-04T11:29:29.132Z</time>
      </trkpt>
      <trkpt lat="45.91267" lon="6.84012">
        <ele>1148</ele>
        <time>2026-08-04T11:29:30.132Z</time>
      </trkpt>
      <trkpt lat="45.91267" lon="6.8401">
        <ele>1148</ele>
        <time>2026-08-04T11:29:31.132Z</time>
      </trkpt>
      <trkpt lat="45.91266" lon="6.84009">
        <ele>1148</ele>
        <time>2026-08-04T11:29:32.132Z</time>
      </trkpt>
      <trkpt lat="45.91266" lon="6.84008">
        <ele>1148</ele>
        <time>2026-08-04T11:29:33.132Z</time>
      </trkpt>
      <trkpt lat="45.91265" lon="6.84007">
        <ele>1148</ele>
        <time>2026-08-04T11:29:34.132Z</time>
      </trkpt>
      <trkpt lat="45.91265" lon="6.84006">
        <ele>1148</ele>
        <time>2026-08-04T11:29:35.132Z</time>
      </trkpt>
      <trkpt lat="45.91264" lon="6.84004">
        <ele>1148</ele>
        <time>2026-08-04T11:29:36.132Z</time>
      </trkpt>
      <trkpt lat="45.91264" lon="6.84004">
        <ele>1148</ele>
        <time>2026-08-04T11:29:37.132Z</time>
      </trkpt>
      <trkpt lat="45.91264" lon="6.84003">
        <ele>1148</ele>
        <time>2026-08-04T11:29:38.132Z</time>
      </trkpt>
      <trkpt lat="45.91263" lon="6.84002">
        <ele>1148</ele>
        <time>2026-08-04T11:29:39.132Z</time>
      </trkpt>
      <trkpt lat="45.91262" lon="6.84001">
        <ele>1148</ele>
        <time>2026-08-04T11:29:40.132Z</time>
      </trkpt>
      <trkpt lat="45.91261" lon="6.84001">
        <ele>1148</ele>
        <time>2026-08-04T11:29:41.132Z</time>
      </trkpt>
      <trkpt lat="45.91261" lon="6.84">
        <ele>1148</ele>
        <time>2026-08-04T11:29:42.132Z</time>
      </trkpt>
      <trkpt lat="45.91261" lon="6.84">
        <ele>1148</ele>
        <time>2026-08-04T11:29:43.132Z</time>
      </trkpt>
      <trkpt lat="45.91261" lon="6.83999">
        <ele>1148</ele>
        <time>2026-08-04T11:29:44.132Z</time>
      </trkpt>
      <trkpt lat="45.91261" lon="6.83999">
        <ele>1149</ele>
        <time>2026-08-04T11:29:45.132Z</time>
      </trkpt>
      <trkpt lat="45.91261" lon="6.83999">
        <ele>1149</ele>
        <time>2026-08-04T11:29:46.132Z</time>
      </trkpt>
      <trkpt lat="45.9126" lon="6.83999">
        <ele>1149</ele>
        <time>2026-08-04T11:29:47.132Z</time>
      </trkpt>
      <trkpt lat="45.91259" lon="6.83998">
        <ele>1149</ele>
        <time>2026-08-04T11:29:48.132Z</time>
      </trkpt>
      <trkpt lat="45.91258" lon="6.83998">
        <ele>1149</ele>
        <time>2026-08-04T11:29:49.132Z</time>
      </trkpt>
      <trkpt lat="45.91258" lon="6.83997">
        <ele>1149</ele>
        <time>2026-08-04T11:29:50.132Z</time>
      </trkpt>
      <trkpt lat="45.91258" lon="6.83996">
        <ele>1149</ele>
        <time>2026-08-04T11:29:51.132Z</time>
      </trkpt>
      <trkpt lat="45.91258" lon="6.83995">
        <ele>1149</ele>
        <time>2026-08-04T11:29:52.132Z</time>
      </trkpt>
      <trkpt lat="45.91258" lon="6.83993">
        <ele>1149</ele>
        <time>2026-08-04T11:29:53.132Z</time>
      </trkpt>
      <trkpt lat="45.91258" lon="6.83992">
        <ele>1149</ele>
        <time>2026-08-04T11:29:54.132Z</time>
      </trkpt>
      <trkpt lat="45.91258" lon="6.83992">
        <ele>1149</ele>
        <time>2026-08-04T11:29:55.132Z</time>
      </trkpt>
      <trkpt lat="45.91257" lon="6.83991">
        <ele>1149</ele>
        <time>2026-08-04T11:29:56.132Z</time>
      </trkpt>
      <trkpt lat="45.91257" lon="6.8399">
        <ele>1149</ele>
        <time>2026-08-04T11:29:57.132Z</time>
      </trkpt>
      <trkpt lat="45.91257" lon="6.83989">
        <ele>1149</ele>
        <time>2026-08-04T11:29:58.132Z</time>
      </trkpt>
      <trkpt lat="45.91256" lon="6.83988">
        <ele>1148</ele>
        <time>2026-08-04T11:29:59.132Z</time>
      </trkpt>
      <trkpt lat="45.91256" lon="6.83987">
        <ele>1148</ele>
        <time>2026-08-04T11:30:00.132Z</time>
      </trkpt>
      <trkpt lat="45.91255" lon="6.83987">
        <ele>1148</ele>
        <time>2026-08-04T11:30:01.132Z</time>
      </trkpt>
      <trkpt lat="45.91255" lon="6.83987">
        <ele>1148</ele>
        <time>2026-08-04T11:30:02.132Z</time>
      </trkpt>
      <trkpt lat="45.91254" lon="6.83986">
        <ele>1148</ele>
        <time>2026-08-04T11:30:03.132Z</time>
      </trkpt>
      <trkpt lat="45.91255" lon="6.83985">
        <ele>1148</ele>
        <time>2026-08-04T11:30:04.132Z</time>
      </trkpt>
      <trkpt lat="45.91254" lon="6.83985">
        <ele>1148</ele>
        <time>2026-08-04T11:30:05.132Z</time>
      </trkpt>
      <trkpt lat="45.91254" lon="6.83984">
        <ele>1148</ele>
        <time>2026-08-04T11:30:06.132Z</time>
      </trkpt>
      <trkpt lat="45.91252" lon="6.83983">
        <ele>1149</ele>
        <time>2026-08-04T11:30:07.132Z</time>
      </trkpt>
      <trkpt lat="45.91251" lon="6.83982">
        <ele>1149</ele>
        <time>2026-08-04T11:30:08.132Z</time>
      </trkpt>
      <trkpt lat="45.9125" lon="6.83981">
        <ele>1149</ele>
        <time>2026-08-04T11:30:09.132Z</time>
      </trkpt>
      <trkpt lat="45.91248" lon="6.8398">
        <ele>1149</ele>
        <time>2026-08-04T11:30:10.132Z</time>
      </trkpt>
      <trkpt lat="45.91247" lon="6.83979">
        <ele>1150</ele>
        <time>2026-08-04T11:30:11.132Z</time>
      </trkpt>
      <trkpt lat="45.91246" lon="6.83978">
        <ele>1150</ele>
        <time>2026-08-04T11:30:12.132Z</time>
      </trkpt>
      <trkpt lat="45.91246" lon="6.83977">
        <ele>1151</ele>
        <time>2026-08-04T11:30:13.132Z</time>
      </trkpt>
      <trkpt lat="45.91246" lon="6.83976">
        <ele>1151</ele>
        <time>2026-08-04T11:30:14.132Z</time>
      </trkpt>
      <trkpt lat="45.91246" lon="6.83975">
        <ele>1152</ele>
        <time>2026-08-04T11:30:15.132Z</time>
      </trkpt>
      <trkpt lat="45.91245" lon="6.83974">
        <ele>1152</ele>
        <time>2026-08-04T11:30:16.132Z</time>
      </trkpt>
      <trkpt lat="45.91244" lon="6.83973">
        <ele>1152</ele>
        <time>2026-08-04T11:30:17.132Z</time>
      </trkpt>
      <trkpt lat="45.91242" lon="6.83972">
        <ele>1153</ele>
        <time>2026-08-04T11:30:18.132Z</time>
      </trkpt>
      <trkpt lat="45.91241" lon="6.83971">
        <ele>1153</ele>
        <time>2026-08-04T11:30:19.132Z</time>
      </trkpt>
      <trkpt lat="45.91239" lon="6.83969">
        <ele>1153</ele>
        <time>2026-08-04T11:30:20.132Z</time>
      </trkpt>
      <trkpt lat="45.91238" lon="6.83967">
        <ele>1154</ele>
        <time>2026-08-04T11:30:21.132Z</time>
      </trkpt>
      <trkpt lat="45.91237" lon="6.83966">
        <ele>1154</ele>
        <time>2026-08-04T11:30:22.132Z</time>
      </trkpt>
      <trkpt lat="45.91236" lon="6.83964">
        <ele>1154</ele>
        <time>2026-08-04T11:30:23.132Z</time>
      </trkpt>
      <trkpt lat="45.91235" lon="6.83962">
        <ele>1154</ele>
        <time>2026-08-04T11:30:24.132Z</time>
      </trkpt>
      <trkpt lat="45.91235" lon="6.8396">
        <ele>1154</ele>
        <time>2026-08-04T11:30:25.132Z</time>
      </trkpt>
      <trkpt lat="45.91235" lon="6.83957">
        <ele>1154</ele>
        <time>2026-08-04T11:30:26.132Z</time>
      </trkpt>
      <trkpt lat="45.91234" lon="6.83956">
        <ele>1154</ele>
        <time>2026-08-04T11:30:27.132Z</time>
      </trkpt>
      <trkpt lat="45.91234" lon="6.83955">
        <ele>1154</ele>
        <time>2026-08-04T11:30:28.132Z</time>
      </trkpt>
      <trkpt lat="45.91233" lon="6.83955">
        <ele>1154</ele>
        <time>2026-08-04T11:30:29.132Z</time>
      </trkpt>
      <trkpt lat="45.91232" lon="6.83953">
        <ele>1154</ele>
        <time>2026-08-04T11:30:30.132Z</time>
      </trkpt>
      <trkpt lat="45.91231" lon="6.83952">
        <ele>1154</ele>
        <time>2026-08-04T11:30:31.132Z</time>
      </trkpt>
      <trkpt lat="45.91231" lon="6.83951">
        <ele>1154</ele>
        <time>2026-08-04T11:30:32.132Z</time>
      </trkpt>
      <trkpt lat="45.9123" lon="6.83949">
        <ele>1154</ele>
        <time>2026-08-04T11:30:33.132Z</time>
      </trkpt>
      <trkpt lat="45.9123" lon="6.83949">
        <ele>1154</ele>
        <time>2026-08-04T11:30:34.132Z</time>
      </trkpt>
      <trkpt lat="45.91229" lon="6.83948">
        <ele>1155</ele>
        <time>2026-08-04T11:30:35.132Z</time>
      </trkpt>
      <trkpt lat="45.91229" lon="6.83946">
        <ele>1155</ele>
        <time>2026-08-04T11:30:36.132Z</time>
      </trkpt>
      <trkpt lat="45.91229" lon="6.83946">
        <ele>1155</ele>
        <time>2026-08-04T11:30:37.132Z</time>
      </trkpt>
      <trkpt lat="45.9123" lon="6.83944">
        <ele>1155</ele>
        <time>2026-08-04T11:30:38.132Z</time>
      </trkpt>
      <trkpt lat="45.9123" lon="6.83943">
        <ele>1155</ele>
        <time>2026-08-04T11:30:39.132Z</time>
      </trkpt>
      <trkpt lat="45.91231" lon="6.83941">
        <ele>1155</ele>
        <time>2026-08-04T11:30:40.132Z</time>
      </trkpt>
      <trkpt lat="45.91232" lon="6.83939">
        <ele>1155</ele>
        <time>2026-08-04T11:30:41.132Z</time>
      </trkpt>
      <trkpt lat="45.91232" lon="6.83938">
        <ele>1155</ele>
        <time>2026-08-04T11:30:42.132Z</time>
      </trkpt>
      <trkpt lat="45.91232" lon="6.83937">
        <ele>1156</ele>
        <time>2026-08-04T11:30:43.132Z</time>
      </trkpt>
      <trkpt lat="45.91232" lon="6.83937">
        <ele>1156</ele>
        <time>2026-08-04T11:30:44.132Z</time>
      </trkpt>
      <trkpt lat="45.91231" lon="6.83936">
        <ele>1156</ele>
        <time>2026-08-04T11:30:45.132Z</time>
      </trkpt>
      <trkpt lat="45.91231" lon="6.83936">
        <ele>1156</ele>
        <time>2026-08-04T11:30:46.132Z</time>
      </trkpt>
      <trkpt lat="45.91231" lon="6.83935">
        <ele>1156</ele>
        <time>2026-08-04T11:30:47.132Z</time>
      </trkpt>
      <trkpt lat="45.91231" lon="6.83934">
        <ele>1156</ele>
        <time>2026-08-04T11:30:48.132Z</time>
      </trkpt>
      <trkpt lat="45.91231" lon="6.83933">
        <ele>1156</ele>
        <time>2026-08-04T11:30:49.132Z</time>
      </trkpt>
      <trkpt lat="45.91231" lon="6.83931">
        <ele>1156</ele>
        <time>2026-08-04T11:30:50.132Z</time>
      </trkpt>
      <trkpt lat="45.91231" lon="6.8393">
        <ele>1156</ele>
        <time>2026-08-04T11:30:51.132Z</time>
      </trkpt>
      <trkpt lat="45.91231" lon="6.83929">
        <ele>1155</ele>
        <time>2026-08-04T11:30:52.132Z</time>
      </trkpt>
      <trkpt lat="45.91231" lon="6.83927">
        <ele>1155</ele>
        <time>2026-08-04T11:30:53.132Z</time>
      </trkpt>
      <trkpt lat="45.91231" lon="6.83926">
        <ele>1155</ele>
        <time>2026-08-04T11:30:54.132Z</time>
      </trkpt>
      <trkpt lat="45.91231" lon="6.83924">
        <ele>1155</ele>
        <time>2026-08-04T11:30:55.132Z</time>
      </trkpt>
      <trkpt lat="45.91232" lon="6.83923">
        <ele>1154</ele>
        <time>2026-08-04T11:30:56.132Z</time>
      </trkpt>
      <trkpt lat="45.91232" lon="6.83921">
        <ele>1154</ele>
        <time>2026-08-04T11:30:57.132Z</time>
      </trkpt>
      <trkpt lat="45.91232" lon="6.8392">
        <ele>1154</ele>
        <time>2026-08-04T11:30:58.132Z</time>
      </trkpt>
      <trkpt lat="45.91231" lon="6.83918">
        <ele>1153</ele>
        <time>2026-08-04T11:30:59.132Z</time>
      </trkpt>
      <trkpt lat="45.91231" lon="6.83917">
        <ele>1153</ele>
        <time>2026-08-04T11:31:00.132Z</time>
      </trkpt>
      <trkpt lat="45.91231" lon="6.83916">
        <ele>1153</ele>
        <time>2026-08-04T11:31:01.132Z</time>
      </trkpt>
      <trkpt lat="45.9123" lon="6.83915">
        <ele>1153</ele>
        <time>2026-08-04T11:31:02.132Z</time>
      </trkpt>
      <trkpt lat="45.9123" lon="6.83914">
        <ele>1153</ele>
        <time>2026-08-04T11:31:03.132Z</time>
      </trkpt>
      <trkpt lat="45.91229" lon="6.83913">
        <ele>1153</ele>
        <time>2026-08-04T11:31:04.132Z</time>
      </trkpt>
      <trkpt lat="45.91229" lon="6.83912">
        <ele>1153</ele>
        <time>2026-08-04T11:31:05.132Z</time>
      </trkpt>
      <trkpt lat="45.91229" lon="6.8391">
        <ele>1153</ele>
        <time>2026-08-04T11:31:06.132Z</time>
      </trkpt>
      <trkpt lat="45.91229" lon="6.83909">
        <ele>1153</ele>
        <time>2026-08-04T11:31:07.132Z</time>
      </trkpt>
      <trkpt lat="45.91229" lon="6.83909">
        <ele>1152</ele>
        <time>2026-08-04T11:31:08.132Z</time>
      </trkpt>
      <trkpt lat="45.91229" lon="6.83907">
        <ele>1152</ele>
        <time>2026-08-04T11:31:09.132Z</time>
      </trkpt>
      <trkpt lat="45.91228" lon="6.83906">
        <ele>1152</ele>
        <time>2026-08-04T11:31:10.132Z</time>
      </trkpt>
      <trkpt lat="45.91228" lon="6.83905">
        <ele>1152</ele>
        <time>2026-08-04T11:31:11.132Z</time>
      </trkpt>
      <trkpt lat="45.91228" lon="6.83904">
        <ele>1153</ele>
        <time>2026-08-04T11:31:12.132Z</time>
      </trkpt>
      <trkpt lat="45.91228" lon="6.83903">
        <ele>1152</ele>
        <time>2026-08-04T11:31:13.132Z</time>
      </trkpt>
      <trkpt lat="45.91228" lon="6.83902">
        <ele>1152</ele>
        <time>2026-08-04T11:31:14.132Z</time>
      </trkpt>
      <trkpt lat="45.91228" lon="6.83901">
        <ele>1152</ele>
        <time>2026-08-04T11:31:15.132Z</time>
      </trkpt>
      <trkpt lat="45.91228" lon="6.839">
        <ele>1152</ele>
        <time>2026-08-04T11:31:16.132Z</time>
      </trkpt>
      <trkpt lat="45.91228" lon="6.83899">
        <ele>1152</ele>
        <time>2026-08-04T11:31:17.132Z</time>
      </trkpt>
      <trkpt lat="45.91228" lon="6.83898">
        <ele>1152</ele>
        <time>2026-08-04T11:31:18.132Z</time>
      </trkpt>
      <trkpt lat="45.91228" lon="6.83897">
        <ele>1152</ele>
        <time>2026-08-04T11:31:19.132Z</time>
      </trkpt>
      <trkpt lat="45.91228" lon="6.83896">
        <ele>1152</ele>
        <time>2026-08-04T11:31:20.132Z</time>
      </trkpt>
      <trkpt lat="45.91228" lon="6.83895">
        <ele>1152</ele>
        <time>2026-08-04T11:31:21.132Z</time>
      </trkpt>
      <trkpt lat="45.91228" lon="6.83895">
        <ele>1152</ele>
        <time>2026-08-04T11:31:22.132Z</time>
      </trkpt>
      <trkpt lat="45.91228" lon="6.83894">
        <ele>1152</ele>
        <time>2026-08-04T11:31:23.132Z</time>
      </trkpt>
      <trkpt lat="45.91228" lon="6.83894">
        <ele>1152</ele>
        <time>2026-08-04T11:31:24.132Z</time>
      </trkpt>
      <trkpt lat="45.91228" lon="6.83893">
        <ele>1152</ele>
        <time>2026-08-04T11:31:25.132Z</time>
      </trkpt>
      <trkpt lat="45.91228" lon="6.83893">
        <ele>1152</ele>
        <time>2026-08-04T11:31:26.132Z</time>
      </trkpt>
      <trkpt lat="45.91229" lon="6.83893">
        <ele>1152</ele>
        <time>2026-08-04T11:31:27.132Z</time>
      </trkpt>
      <trkpt lat="45.91229" lon="6.83892">
        <ele>1152</ele>
        <time>2026-08-04T11:31:28.132Z</time>
      </trkpt>
      <trkpt lat="45.91229" lon="6.8389">
        <ele>1152</ele>
        <time>2026-08-04T11:31:29.132Z</time>
      </trkpt>
      <trkpt lat="45.9123" lon="6.83889">
        <ele>1152</ele>
        <time>2026-08-04T11:31:30.132Z</time>
      </trkpt>
      <trkpt lat="45.91231" lon="6.83888">
        <ele>1152</ele>
        <time>2026-08-04T11:31:31.132Z</time>
      </trkpt>
      <trkpt lat="45.91231" lon="6.83886">
        <ele>1153</ele>
        <time>2026-08-04T11:31:32.132Z</time>
      </trkpt>
      <trkpt lat="45.91231" lon="6.83884">
        <ele>1153</ele>
        <time>2026-08-04T11:31:33.132Z</time>
      </trkpt>
      <trkpt lat="45.91231" lon="6.83882">
        <ele>1153</ele>
        <time>2026-08-04T11:31:34.132Z</time>
      </trkpt>
      <trkpt lat="45.9123" lon="6.83881">
        <ele>1153</ele>
        <time>2026-08-04T11:31:35.132Z</time>
      </trkpt>
      <trkpt lat="45.91229" lon="6.8388">
        <ele>1154</ele>
        <time>2026-08-04T11:31:36.132Z</time>
      </trkpt>
      <trkpt lat="45.91228" lon="6.83879">
        <ele>1154</ele>
        <time>2026-08-04T11:31:37.132Z</time>
      </trkpt>
      <trkpt lat="45.91227" lon="6.83879">
        <ele>1154</ele>
        <time>2026-08-04T11:31:38.132Z</time>
      </trkpt>
      <trkpt lat="45.91225" lon="6.83879">
        <ele>1155</ele>
        <time>2026-08-04T11:31:39.132Z</time>
      </trkpt>
      <trkpt lat="45.91224" lon="6.83878">
        <ele>1156</ele>
        <time>2026-08-04T11:31:40.132Z</time>
      </trkpt>
      <trkpt lat="45.91223" lon="6.83879">
        <ele>1156</ele>
        <time>2026-08-04T11:31:41.132Z</time>
      </trkpt>
      <trkpt lat="45.91222" lon="6.83879">
        <ele>1157</ele>
        <time>2026-08-04T11:31:42.132Z</time>
      </trkpt>
      <trkpt lat="45.91221" lon="6.83879">
        <ele>1158</ele>
        <time>2026-08-04T11:31:43.132Z</time>
      </trkpt>
      <trkpt lat="45.9122" lon="6.83878">
        <ele>1158</ele>
        <time>2026-08-04T11:31:44.132Z</time>
      </trkpt>
      <trkpt lat="45.91219" lon="6.83877">
        <ele>1158</ele>
        <time>2026-08-04T11:31:45.132Z</time>
      </trkpt>
      <trkpt lat="45.91219" lon="6.83876">
        <ele>1159</ele>
        <time>2026-08-04T11:31:46.132Z</time>
      </trkpt>
      <trkpt lat="45.91218" lon="6.83875">
        <ele>1159</ele>
        <time>2026-08-04T11:31:47.132Z</time>
      </trkpt>
      <trkpt lat="45.91217" lon="6.83874">
        <ele>1159</ele>
        <time>2026-08-04T11:31:48.132Z</time>
      </trkpt>
      <trkpt lat="45.91217" lon="6.83873">
        <ele>1159</ele>
        <time>2026-08-04T11:31:49.132Z</time>
      </trkpt>
      <trkpt lat="45.91216" lon="6.83871">
        <ele>1159</ele>
        <time>2026-08-04T11:31:50.132Z</time>
      </trkpt>
      <trkpt lat="45.91216" lon="6.8387">
        <ele>1159</ele>
        <time>2026-08-04T11:31:51.132Z</time>
      </trkpt>
      <trkpt lat="45.91215" lon="6.83869">
        <ele>1159</ele>
        <time>2026-08-04T11:31:52.132Z</time>
      </trkpt>
      <trkpt lat="45.91215" lon="6.83867">
        <ele>1158</ele>
        <time>2026-08-04T11:31:53.132Z</time>
      </trkpt>
      <trkpt lat="45.91214" lon="6.83866">
        <ele>1158</ele>
        <time>2026-08-04T11:31:54.132Z</time>
      </trkpt>
      <trkpt lat="45.91213" lon="6.83864">
        <ele>1157</ele>
        <time>2026-08-04T11:31:55.132Z</time>
      </trkpt>
      <trkpt lat="45.91213" lon="6.83863">
        <ele>1157</ele>
        <time>2026-08-04T11:31:56.132Z</time>
      </trkpt>
      <trkpt lat="45.91212" lon="6.83861">
        <ele>1156</ele>
        <time>2026-08-04T11:31:57.132Z</time>
      </trkpt>
      <trkpt lat="45.91211" lon="6.8386">
        <ele>1156</ele>
        <time>2026-08-04T11:31:58.132Z</time>
      </trkpt>
      <trkpt lat="45.9121" lon="6.83859">
        <ele>1156</ele>
        <time>2026-08-04T11:31:59.132Z</time>
      </trkpt>
      <trkpt lat="45.91209" lon="6.83858">
        <ele>1156</ele>
        <time>2026-08-04T11:32:00.132Z</time>
      </trkpt>
      <trkpt lat="45.91208" lon="6.83857">
        <ele>1156</ele>
        <time>2026-08-04T11:32:01.132Z</time>
      </trkpt>
      <trkpt lat="45.91207" lon="6.83856">
        <ele>1156</ele>
        <time>2026-08-04T11:32:02.132Z</time>
      </trkpt>
      <trkpt lat="45.91205" lon="6.83854">
        <ele>1156</ele>
        <time>2026-08-04T11:32:03.132Z</time>
      </trkpt>
      <trkpt lat="45.91204" lon="6.83853">
        <ele>1156</ele>
        <time>2026-08-04T11:32:04.132Z</time>
      </trkpt>
      <trkpt lat="45.91204" lon="6.83851">
        <ele>1156</ele>
        <time>2026-08-04T11:32:05.132Z</time>
      </trkpt>
      <trkpt lat="45.91203" lon="6.83849">
        <ele>1156</ele>
        <time>2026-08-04T11:32:06.132Z</time>
      </trkpt>
      <trkpt lat="45.91203" lon="6.83847">
        <ele>1157</ele>
        <time>2026-08-04T11:32:07.132Z</time>
      </trkpt>
      <trkpt lat="45.91202" lon="6.83845">
        <ele>1157</ele>
        <time>2026-08-04T11:32:08.132Z</time>
      </trkpt>
      <trkpt lat="45.91201" lon="6.83844">
        <ele>1157</ele>
        <time>2026-08-04T11:32:09.132Z</time>
      </trkpt>
      <trkpt lat="45.91201" lon="6.83842">
        <ele>1157</ele>
        <time>2026-08-04T11:32:10.132Z</time>
      </trkpt>
      <trkpt lat="45.912" lon="6.83842">
        <ele>1158</ele>
        <time>2026-08-04T11:32:11.132Z</time>
      </trkpt>
      <trkpt lat="45.91199" lon="6.83842">
        <ele>1158</ele>
        <time>2026-08-04T11:32:12.132Z</time>
      </trkpt>
      <trkpt lat="45.91198" lon="6.83842">
        <ele>1158</ele>
        <time>2026-08-04T11:32:13.132Z</time>
      </trkpt>
      <trkpt lat="45.91197" lon="6.83842">
        <ele>1158</ele>
        <time>2026-08-04T11:32:14.132Z</time>
      </trkpt>
      <trkpt lat="45.91196" lon="6.83842">
        <ele>1159</ele>
        <time>2026-08-04T11:32:15.132Z</time>
      </trkpt>
      <trkpt lat="45.91196" lon="6.83843">
        <ele>1159</ele>
        <time>2026-08-04T11:32:16.132Z</time>
      </trkpt>
      <trkpt lat="45.91195" lon="6.83844">
        <ele>1159</ele>
        <time>2026-08-04T11:32:17.132Z</time>
      </trkpt>
      <trkpt lat="45.91195" lon="6.83844">
        <ele>1158</ele>
        <time>2026-08-04T11:32:18.132Z</time>
      </trkpt>
      <trkpt lat="45.91195" lon="6.83845">
        <ele>1158</ele>
        <time>2026-08-04T11:32:19.132Z</time>
      </trkpt>
      <trkpt lat="45.91195" lon="6.83846">
        <ele>1158</ele>
        <time>2026-08-04T11:32:20.132Z</time>
      </trkpt>
      <trkpt lat="45.91195" lon="6.83848">
        <ele>1158</ele>
        <time>2026-08-04T11:32:21.132Z</time>
      </trkpt>
      <trkpt lat="45.91195" lon="6.83851">
        <ele>1157</ele>
        <time>2026-08-04T11:32:22.132Z</time>
      </trkpt>
      <trkpt lat="45.91194" lon="6.83854">
        <ele>1157</ele>
        <time>2026-08-04T11:32:23.132Z</time>
      </trkpt>
      <trkpt lat="45.91194" lon="6.83856">
        <ele>1157</ele>
        <time>2026-08-04T11:32:24.132Z</time>
      </trkpt>
      <trkpt lat="45.91193" lon="6.83858">
        <ele>1156</ele>
        <time>2026-08-04T11:32:25.132Z</time>
      </trkpt>
      <trkpt lat="45.91193" lon="6.83859">
        <ele>1156</ele>
        <time>2026-08-04T11:32:26.132Z</time>
      </trkpt>
      <trkpt lat="45.91192" lon="6.83861">
        <ele>1155</ele>
        <time>2026-08-04T11:32:27.132Z</time>
      </trkpt>
      <trkpt lat="45.91192" lon="6.83863">
        <ele>1155</ele>
        <time>2026-08-04T11:32:28.132Z</time>
      </trkpt>
      <trkpt lat="45.91191" lon="6.83865">
        <ele>1155</ele>
        <time>2026-08-04T11:32:29.132Z</time>
      </trkpt>
      <trkpt lat="45.91192" lon="6.83867">
        <ele>1155</ele>
        <time>2026-08-04T11:32:30.132Z</time>
      </trkpt>
      <trkpt lat="45.91193" lon="6.83868">
        <ele>1154</ele>
        <time>2026-08-04T11:32:31.132Z</time>
      </trkpt>
      <trkpt lat="45.91192" lon="6.83869">
        <ele>1154</ele>
        <time>2026-08-04T11:32:32.132Z</time>
      </trkpt>
      <trkpt lat="45.91192" lon="6.83871">
        <ele>1153</ele>
        <time>2026-08-04T11:32:33.132Z</time>
      </trkpt>
      <trkpt lat="45.9119" lon="6.83872">
        <ele>1153</ele>
        <time>2026-08-04T11:32:34.132Z</time>
      </trkpt>
      <trkpt lat="45.91189" lon="6.83872">
        <ele>1153</ele>
        <time>2026-08-04T11:32:35.132Z</time>
      </trkpt>
      <trkpt lat="45.91187" lon="6.83871">
        <ele>1152</ele>
        <time>2026-08-04T11:32:36.132Z</time>
      </trkpt>
      <trkpt lat="45.91186" lon="6.83871">
        <ele>1152</ele>
        <time>2026-08-04T11:32:37.132Z</time>
      </trkpt>
      <trkpt lat="45.91185" lon="6.83871">
        <ele>1151</ele>
        <time>2026-08-04T11:32:38.132Z</time>
      </trkpt>
      <trkpt lat="45.91184" lon="6.8387">
        <ele>1151</ele>
        <time>2026-08-04T11:32:39.132Z</time>
      </trkpt>
      <trkpt lat="45.91183" lon="6.8387">
        <ele>1150</ele>
        <time>2026-08-04T11:32:40.132Z</time>
      </trkpt>
      <trkpt lat="45.91182" lon="6.83869">
        <ele>1149</ele>
        <time>2026-08-04T11:32:41.132Z</time>
      </trkpt>
      <trkpt lat="45.91181" lon="6.83868">
        <ele>1149</ele>
        <time>2026-08-04T11:32:42.132Z</time>
      </trkpt>
      <trkpt lat="45.9118" lon="6.83867">
        <ele>1148</ele>
        <time>2026-08-04T11:32:43.132Z</time>
      </trkpt>
      <trkpt lat="45.91179" lon="6.83866">
        <ele>1148</ele>
        <time>2026-08-04T11:32:44.132Z</time>
      </trkpt>
      <trkpt lat="45.91178" lon="6.83866">
        <ele>1148</ele>
        <time>2026-08-04T11:32:45.132Z</time>
      </trkpt>
      <trkpt lat="45.91178" lon="6.83866">
        <ele>1148</ele>
        <time>2026-08-04T11:32:46.132Z</time>
      </trkpt>
      <trkpt lat="45.91177" lon="6.83865">
        <ele>1147</ele>
        <time>2026-08-04T11:32:47.132Z</time>
      </trkpt>
      <trkpt lat="45.91176" lon="6.83865">
        <ele>1147</ele>
        <time>2026-08-04T11:32:48.132Z</time>
      </trkpt>
      <trkpt lat="45.91175" lon="6.83864">
        <ele>1147</ele>
        <time>2026-08-04T11:32:49.132Z</time>
      </trkpt>
      <trkpt lat="45.91174" lon="6.83865">
        <ele>1147</ele>
        <time>2026-08-04T11:32:50.132Z</time>
      </trkpt>
      <trkpt lat="45.91173" lon="6.83865">
        <ele>1147</ele>
        <time>2026-08-04T11:32:51.132Z</time>
      </trkpt>
      <trkpt lat="45.91172" lon="6.83865">
        <ele>1147</ele>
        <time>2026-08-04T11:32:52.132Z</time>
      </trkpt>
      <trkpt lat="45.91171" lon="6.83864">
        <ele>1147</ele>
        <time>2026-08-04T11:32:53.132Z</time>
      </trkpt>
      <trkpt lat="45.91169" lon="6.83863">
        <ele>1147</ele>
        <time>2026-08-04T11:32:54.132Z</time>
      </trkpt>
      <trkpt lat="45.91168" lon="6.83862">
        <ele>1148</ele>
        <time>2026-08-04T11:32:55.132Z</time>
      </trkpt>
      <trkpt lat="45.91166" lon="6.83861">
        <ele>1148</ele>
        <time>2026-08-04T11:32:56.132Z</time>
      </trkpt>
      <trkpt lat="45.91165" lon="6.83861">
        <ele>1148</ele>
        <time>2026-08-04T11:32:57.132Z</time>
      </trkpt>
      <trkpt lat="45.91165" lon="6.8386">
        <ele>1148</ele>
        <time>2026-08-04T11:32:58.132Z</time>
      </trkpt>
      <trkpt lat="45.91164" lon="6.8386">
        <ele>1148</ele>
        <time>2026-08-04T11:32:59.132Z</time>
      </trkpt>
      <trkpt lat="45.91164" lon="6.83859">
        <ele>1148</ele>
        <time>2026-08-04T11:33:00.132Z</time>
      </trkpt>
      <trkpt lat="45.91162" lon="6.83858">
        <ele>1148</ele>
        <time>2026-08-04T11:33:01.132Z</time>
      </trkpt>
      <trkpt lat="45.91161" lon="6.83858">
        <ele>1148</ele>
        <time>2026-08-04T11:33:02.132Z</time>
      </trkpt>
      <trkpt lat="45.91159" lon="6.83857">
        <ele>1148</ele>
        <time>2026-08-04T11:33:03.132Z</time>
      </trkpt>
      <trkpt lat="45.91159" lon="6.83857">
        <ele>1149</ele>
        <time>2026-08-04T11:33:04.132Z</time>
      </trkpt>
      <trkpt lat="45.91157" lon="6.83855">
        <ele>1149</ele>
        <time>2026-08-04T11:33:05.132Z</time>
      </trkpt>
      <trkpt lat="45.91156" lon="6.83854">
        <ele>1149</ele>
        <time>2026-08-04T11:33:06.132Z</time>
      </trkpt>
      <trkpt lat="45.91155" lon="6.83854">
        <ele>1149</ele>
        <time>2026-08-04T11:33:07.132Z</time>
      </trkpt>
      <trkpt lat="45.91154" lon="6.83854">
        <ele>1149</ele>
        <time>2026-08-04T11:33:08.132Z</time>
      </trkpt>
      <trkpt lat="45.91154" lon="6.83854">
        <ele>1150</ele>
        <time>2026-08-04T11:33:09.132Z</time>
      </trkpt>
      <trkpt lat="45.91154" lon="6.83855">
        <ele>1149</ele>
        <time>2026-08-04T11:33:10.132Z</time>
      </trkpt>
      <trkpt lat="45.91154" lon="6.83856">
        <ele>1149</ele>
        <time>2026-08-04T11:33:11.132Z</time>
      </trkpt>
      <trkpt lat="45.91154" lon="6.83856">
        <ele>1149</ele>
        <time>2026-08-04T11:33:12.132Z</time>
      </trkpt>
      <trkpt lat="45.91155" lon="6.83857">
        <ele>1149</ele>
        <time>2026-08-04T11:33:13.132Z</time>
      </trkpt>
      <trkpt lat="45.91156" lon="6.83857">
        <ele>1148</ele>
        <time>2026-08-04T11:33:14.132Z</time>
      </trkpt>
      <trkpt lat="45.91156" lon="6.83858">
        <ele>1147</ele>
        <time>2026-08-04T11:33:15.132Z</time>
      </trkpt>
      <trkpt lat="45.91157" lon="6.83859">
        <ele>1146</ele>
        <time>2026-08-04T11:33:16.132Z</time>
      </trkpt>
      <trkpt lat="45.91157" lon="6.8386">
        <ele>1145</ele>
        <time>2026-08-04T11:33:17.132Z</time>
      </trkpt>
      <trkpt lat="45.91158" lon="6.83861">
        <ele>1144</ele>
        <time>2026-08-04T11:33:18.132Z</time>
      </trkpt>
      <trkpt lat="45.91158" lon="6.83863">
        <ele>1143</ele>
        <time>2026-08-04T11:33:19.132Z</time>
      </trkpt>
      <trkpt lat="45.91158" lon="6.83865">
        <ele>1142</ele>
        <time>2026-08-04T11:33:20.132Z</time>
      </trkpt>
      <trkpt lat="45.91159" lon="6.83866">
        <ele>1141</ele>
        <time>2026-08-04T11:33:21.132Z</time>
      </trkpt>
      <trkpt lat="45.91159" lon="6.83868">
        <ele>1140</ele>
        <time>2026-08-04T11:33:22.132Z</time>
      </trkpt>
      <trkpt lat="45.91158" lon="6.83869">
        <ele>1139</ele>
        <time>2026-08-04T11:33:23.132Z</time>
      </trkpt>
      <trkpt lat="45.91157" lon="6.83869">
        <ele>1138</ele>
        <time>2026-08-04T11:33:24.132Z</time>
      </trkpt>
      <trkpt lat="45.91155" lon="6.83869">
        <ele>1137</ele>
        <time>2026-08-04T11:33:25.132Z</time>
      </trkpt>
      <trkpt lat="45.91154" lon="6.83868">
        <ele>1136</ele>
        <time>2026-08-04T11:33:26.132Z</time>
      </trkpt>
      <trkpt lat="45.91153" lon="6.83866">
        <ele>1135</ele>
        <time>2026-08-04T11:33:27.132Z</time>
      </trkpt>
      <trkpt lat="45.91152" lon="6.83865">
        <ele>1134</ele>
        <time>2026-08-04T11:33:28.132Z</time>
      </trkpt>
      <trkpt lat="45.91151" lon="6.83865">
        <ele>1133</ele>
        <time>2026-08-04T11:33:29.132Z</time>
      </trkpt>
      <trkpt lat="45.91149" lon="6.83864">
        <ele>1133</ele>
        <time>2026-08-04T11:33:30.132Z</time>
      </trkpt>
      <trkpt lat="45.91148" lon="6.83863">
        <ele>1132</ele>
        <time>2026-08-04T11:33:31.132Z</time>
      </trkpt>
      <trkpt lat="45.91147" lon="6.83862">
        <ele>1131</ele>
        <time>2026-08-04T11:33:32.132Z</time>
      </trkpt>
      <trkpt lat="45.91146" lon="6.83861">
        <ele>1131</ele>
        <time>2026-08-04T11:33:33.132Z</time>
      </trkpt>
      <trkpt lat="45.91145" lon="6.83861">
        <ele>1130</ele>
        <time>2026-08-04T11:33:34.132Z</time>
      </trkpt>
      <trkpt lat="45.91144" lon="6.8386">
        <ele>1130</ele>
        <time>2026-08-04T11:33:35.132Z</time>
      </trkpt>
      <trkpt lat="45.91143" lon="6.8386">
        <ele>1130</ele>
        <time>2026-08-04T11:33:36.132Z</time>
      </trkpt>
      <trkpt lat="45.91142" lon="6.83859">
        <ele>1131</ele>
        <time>2026-08-04T11:33:37.132Z</time>
      </trkpt>
      <trkpt lat="45.91141" lon="6.83859">
        <ele>1131</ele>
        <time>2026-08-04T11:33:38.132Z</time>
      </trkpt>
      <trkpt lat="45.9114" lon="6.8386">
        <ele>1131</ele>
        <time>2026-08-04T11:33:39.132Z</time>
      </trkpt>
      <trkpt lat="45.91139" lon="6.83859">
        <ele>1131</ele>
        <time>2026-08-04T11:33:40.132Z</time>
      </trkpt>
      <trkpt lat="45.91138" lon="6.83859">
        <ele>1131</ele>
        <time>2026-08-04T11:33:41.132Z</time>
      </trkpt>
      <trkpt lat="45.91137" lon="6.83858">
        <ele>1131</ele>
        <time>2026-08-04T11:33:42.132Z</time>
      </trkpt>
      <trkpt lat="45.91136" lon="6.83857">
        <ele>1131</ele>
        <time>2026-08-04T11:33:43.132Z</time>
      </trkpt>
      <trkpt lat="45.91134" lon="6.83857">
        <ele>1130</ele>
        <time>2026-08-04T11:33:44.132Z</time>
      </trkpt>
      <trkpt lat="45.91133" lon="6.83858">
        <ele>1130</ele>
        <time>2026-08-04T11:33:45.132Z</time>
      </trkpt>
      <trkpt lat="45.91132" lon="6.83858">
        <ele>1130</ele>
        <time>2026-08-04T11:33:46.132Z</time>
      </trkpt>
      <trkpt lat="45.91132" lon="6.8386">
        <ele>1130</ele>
        <time>2026-08-04T11:33:47.132Z</time>
      </trkpt>
      <trkpt lat="45.91133" lon="6.83861">
        <ele>1130</ele>
        <time>2026-08-04T11:33:48.132Z</time>
      </trkpt>
      <trkpt lat="45.91134" lon="6.83862">
        <ele>1130</ele>
        <time>2026-08-04T11:33:49.132Z</time>
      </trkpt>
      <trkpt lat="45.91135" lon="6.83863">
        <ele>1130</ele>
        <time>2026-08-04T11:33:50.132Z</time>
      </trkpt>
      <trkpt lat="45.91136" lon="6.83864">
        <ele>1130</ele>
        <time>2026-08-04T11:33:51.132Z</time>
      </trkpt>
      <trkpt lat="45.91136" lon="6.83866">
        <ele>1131</ele>
        <time>2026-08-04T11:33:52.132Z</time>
      </trkpt>
      <trkpt lat="45.91136" lon="6.83868">
        <ele>1131</ele>
        <time>2026-08-04T11:33:53.132Z</time>
      </trkpt>
      <trkpt lat="45.91136" lon="6.83869">
        <ele>1131</ele>
        <time>2026-08-04T11:33:54.132Z</time>
      </trkpt>
      <trkpt lat="45.91135" lon="6.8387">
        <ele>1131</ele>
        <time>2026-08-04T11:33:55.132Z</time>
      </trkpt>
      <trkpt lat="45.91134" lon="6.8387">
        <ele>1130</ele>
        <time>2026-08-04T11:33:56.132Z</time>
      </trkpt>
      <trkpt lat="45.91132" lon="6.8387">
        <ele>1130</ele>
        <time>2026-08-04T11:33:57.132Z</time>
      </trkpt>
      <trkpt lat="45.9113" lon="6.8387">
        <ele>1130</ele>
        <time>2026-08-04T11:33:58.132Z</time>
      </trkpt>
      <trkpt lat="45.91128" lon="6.83869">
        <ele>1131</ele>
        <time>2026-08-04T11:33:59.132Z</time>
      </trkpt>
      <trkpt lat="45.91127" lon="6.83868">
        <ele>1131</ele>
        <time>2026-08-04T11:34:00.132Z</time>
      </trkpt>
      <trkpt lat="45.91125" lon="6.83866">
        <ele>1131</ele>
        <time>2026-08-04T11:34:01.132Z</time>
      </trkpt>
      <trkpt lat="45.91123" lon="6.83865">
        <ele>1131</ele>
        <time>2026-08-04T11:34:02.132Z</time>
      </trkpt>
      <trkpt lat="45.91121" lon="6.83865">
        <ele>1132</ele>
        <time>2026-08-04T11:34:03.132Z</time>
      </trkpt>
      <trkpt lat="45.91119" lon="6.83864">
        <ele>1132</ele>
        <time>2026-08-04T11:34:04.132Z</time>
      </trkpt>
      <trkpt lat="45.91118" lon="6.83863">
        <ele>1132</ele>
        <time>2026-08-04T11:34:05.132Z</time>
      </trkpt>
      <trkpt lat="45.91116" lon="6.83862">
        <ele>1132</ele>
        <time>2026-08-04T11:34:06.132Z</time>
      </trkpt>
      <trkpt lat="45.91114" lon="6.8386">
        <ele>1133</ele>
        <time>2026-08-04T11:34:07.132Z</time>
      </trkpt>
      <trkpt lat="45.91112" lon="6.83859">
        <ele>1133</ele>
        <time>2026-08-04T11:34:08.132Z</time>
      </trkpt>
      <trkpt lat="45.91111" lon="6.83859">
        <ele>1134</ele>
        <time>2026-08-04T11:34:09.132Z</time>
      </trkpt>
      <trkpt lat="45.91109" lon="6.83858">
        <ele>1133</ele>
        <time>2026-08-04T11:34:10.132Z</time>
      </trkpt>
      <trkpt lat="45.91107" lon="6.83858">
        <ele>1133</ele>
        <time>2026-08-04T11:34:11.132Z</time>
      </trkpt>
      <trkpt lat="45.91105" lon="6.83857">
        <ele>1133</ele>
        <time>2026-08-04T11:34:12.132Z</time>
      </trkpt>
      <trkpt lat="45.91104" lon="6.83856">
        <ele>1133</ele>
        <time>2026-08-04T11:34:13.132Z</time>
      </trkpt>
      <trkpt lat="45.91103" lon="6.83855">
        <ele>1132</ele>
        <time>2026-08-04T11:34:14.132Z</time>
      </trkpt>
      <trkpt lat="45.91103" lon="6.83854">
        <ele>1131</ele>
        <time>2026-08-04T11:34:15.132Z</time>
      </trkpt>
      <trkpt lat="45.91102" lon="6.83853">
        <ele>1130</ele>
        <time>2026-08-04T11:34:16.132Z</time>
      </trkpt>
      <trkpt lat="45.91101" lon="6.83852">
        <ele>1130</ele>
        <time>2026-08-04T11:34:17.132Z</time>
      </trkpt>
      <trkpt lat="45.911" lon="6.83852">
        <ele>1129</ele>
        <time>2026-08-04T11:34:18.132Z</time>
      </trkpt>
      <trkpt lat="45.91098" lon="6.83852">
        <ele>1129</ele>
        <time>2026-08-04T11:34:19.132Z</time>
      </trkpt>
      <trkpt lat="45.91097" lon="6.83851">
        <ele>1128</ele>
        <time>2026-08-04T11:34:20.132Z</time>
      </trkpt>
      <trkpt lat="45.91095" lon="6.83852">
        <ele>1127</ele>
        <time>2026-08-04T11:34:21.132Z</time>
      </trkpt>
      <trkpt lat="45.91093" lon="6.83852">
        <ele>1126</ele>
        <time>2026-08-04T11:34:22.132Z</time>
      </trkpt>
      <trkpt lat="45.91091" lon="6.83851">
        <ele>1126</ele>
        <time>2026-08-04T11:34:23.132Z</time>
      </trkpt>
      <trkpt lat="45.91089" lon="6.83851">
        <ele>1125</ele>
        <time>2026-08-04T11:34:24.132Z</time>
      </trkpt>
      <trkpt lat="45.91087" lon="6.8385">
        <ele>1125</ele>
        <time>2026-08-04T11:34:25.132Z</time>
      </trkpt>
      <trkpt lat="45.91086" lon="6.8385">
        <ele>1125</ele>
        <time>2026-08-04T11:34:26.132Z</time>
      </trkpt>
      <trkpt lat="45.91084" lon="6.8385">
        <ele>1124</ele>
        <time>2026-08-04T11:34:27.132Z</time>
      </trkpt>
      <trkpt lat="45.91083" lon="6.83849">
        <ele>1124</ele>
        <time>2026-08-04T11:34:28.132Z</time>
      </trkpt>
      <trkpt lat="45.91082" lon="6.83849">
        <ele>1123</ele>
        <time>2026-08-04T11:34:29.132Z</time>
      </trkpt>
      <trkpt lat="45.9108" lon="6.8385">
        <ele>1123</ele>
        <time>2026-08-04T11:34:30.132Z</time>
      </trkpt>
      <trkpt lat="45.91079" lon="6.8385">
        <ele>1122</ele>
        <time>2026-08-04T11:34:31.132Z</time>
      </trkpt>
      <trkpt lat="45.91078" lon="6.8385">
        <ele>1122</ele>
        <time>2026-08-04T11:34:32.132Z</time>
      </trkpt>
      <trkpt lat="45.91075" lon="6.8385">
        <ele>1121</ele>
        <time>2026-08-04T11:34:33.132Z</time>
      </trkpt>
      <trkpt lat="45.91073" lon="6.83849">
        <ele>1120</ele>
        <time>2026-08-04T11:34:34.132Z</time>
      </trkpt>
      <trkpt lat="45.91072" lon="6.83848">
        <ele>1120</ele>
        <time>2026-08-04T11:34:35.132Z</time>
      </trkpt>
      <trkpt lat="45.91071" lon="6.83847">
        <ele>1119</ele>
        <time>2026-08-04T11:34:36.132Z</time>
      </trkpt>
      <trkpt lat="45.9107" lon="6.83846">
        <ele>1119</ele>
        <time>2026-08-04T11:34:37.132Z</time>
      </trkpt>
      <trkpt lat="45.91069" lon="6.83845">
        <ele>1118</ele>
        <time>2026-08-04T11:34:38.132Z</time>
      </trkpt>
      <trkpt lat="45.91068" lon="6.83843">
        <ele>1117</ele>
        <time>2026-08-04T11:34:39.132Z</time>
      </trkpt>
      <trkpt lat="45.91067" lon="6.83841">
        <ele>1116</ele>
        <time>2026-08-04T11:34:40.132Z</time>
      </trkpt>
      <trkpt lat="45.91066" lon="6.83839">
        <ele>1115</ele>
        <time>2026-08-04T11:34:41.132Z</time>
      </trkpt>
      <trkpt lat="45.91065" lon="6.83837">
        <ele>1115</ele>
        <time>2026-08-04T11:34:42.132Z</time>
      </trkpt>
      <trkpt lat="45.91064" lon="6.83835">
        <ele>1114</ele>
        <time>2026-08-04T11:34:43.132Z</time>
      </trkpt>
      <trkpt lat="45.91064" lon="6.83833">
        <ele>1114</ele>
        <time>2026-08-04T11:34:44.132Z</time>
      </trkpt>
      <trkpt lat="45.91063" lon="6.83832">
        <ele>1113</ele>
        <time>2026-08-04T11:34:45.132Z</time>
      </trkpt>
      <trkpt lat="45.91061" lon="6.8383">
        <ele>1113</ele>
        <time>2026-08-04T11:34:46.132Z</time>
      </trkpt>
      <trkpt lat="45.9106" lon="6.83828">
        <ele>1113</ele>
        <time>2026-08-04T11:34:47.132Z</time>
      </trkpt>
      <trkpt lat="45.91059" lon="6.83825">
        <ele>1112</ele>
        <time>2026-08-04T11:34:48.132Z</time>
      </trkpt>
      <trkpt lat="45.91058" lon="6.83824">
        <ele>1111</ele>
        <time>2026-08-04T11:34:49.132Z</time>
      </trkpt>
      <trkpt lat="45.91058" lon="6.83822">
        <ele>1110</ele>
        <time>2026-08-04T11:34:50.132Z</time>
      </trkpt>
      <trkpt lat="45.91057" lon="6.8382">
        <ele>1110</ele>
        <time>2026-08-04T11:34:51.132Z</time>
      </trkpt>
      <trkpt lat="45.91056" lon="6.83818">
        <ele>1109</ele>
        <time>2026-08-04T11:34:52.132Z</time>
      </trkpt>
      <trkpt lat="45.91055" lon="6.83816">
        <ele>1108</ele>
        <time>2026-08-04T11:34:53.132Z</time>
      </trkpt>
      <trkpt lat="45.91054" lon="6.83815">
        <ele>1107</ele>
        <time>2026-08-04T11:34:54.132Z</time>
      </trkpt>
      <trkpt lat="45.91052" lon="6.83815">
        <ele>1107</ele>
        <time>2026-08-04T11:34:55.132Z</time>
      </trkpt>
      <trkpt lat="45.91051" lon="6.83814">
        <ele>1106</ele>
        <time>2026-08-04T11:34:56.132Z</time>
      </trkpt>
      <trkpt lat="45.9105" lon="6.83813">
        <ele>1106</ele>
        <time>2026-08-04T11:34:57.132Z</time>
      </trkpt>
      <trkpt lat="45.91049" lon="6.83812">
        <ele>1106</ele>
        <time>2026-08-04T11:34:58.132Z</time>
      </trkpt>
      <trkpt lat="45.91048" lon="6.83811">
        <ele>1106</ele>
        <time>2026-08-04T11:34:59.132Z</time>
      </trkpt>
      <trkpt lat="45.91046" lon="6.8381">
        <ele>1105</ele>
        <time>2026-08-04T11:35:00.132Z</time>
      </trkpt>
      <trkpt lat="45.91044" lon="6.8381">
        <ele>1105</ele>
        <time>2026-08-04T11:35:01.132Z</time>
      </trkpt>
      <trkpt lat="45.91043" lon="6.83809">
        <ele>1105</ele>
        <time>2026-08-04T11:35:02.132Z</time>
      </trkpt>
      <trkpt lat="45.91041" lon="6.83808">
        <ele>1105</ele>
        <time>2026-08-04T11:35:03.132Z</time>
      </trkpt>
      <trkpt lat="45.9104" lon="6.83807">
        <ele>1104</ele>
        <time>2026-08-04T11:35:04.132Z</time>
      </trkpt>
      <trkpt lat="45.91039" lon="6.83806">
        <ele>1104</ele>
        <time>2026-08-04T11:35:05.132Z</time>
      </trkpt>
      <trkpt lat="45.91038" lon="6.83805">
        <ele>1103</ele>
        <time>2026-08-04T11:35:06.132Z</time>
      </trkpt>
      <trkpt lat="45.91038" lon="6.83804">
        <ele>1102</ele>
        <time>2026-08-04T11:35:07.132Z</time>
      </trkpt>
      <trkpt lat="45.91037" lon="6.83803">
        <ele>1102</ele>
        <time>2026-08-04T11:35:08.132Z</time>
      </trkpt>
      <trkpt lat="45.91036" lon="6.83801">
        <ele>1101</ele>
        <time>2026-08-04T11:35:09.132Z</time>
      </trkpt>
      <trkpt lat="45.91035" lon="6.838">
        <ele>1101</ele>
        <time>2026-08-04T11:35:10.132Z</time>
      </trkpt>
      <trkpt lat="45.91034" lon="6.83798">
        <ele>1100</ele>
        <time>2026-08-04T11:35:11.132Z</time>
      </trkpt>
      <trkpt lat="45.91033" lon="6.83796">
        <ele>1100</ele>
        <time>2026-08-04T11:35:12.132Z</time>
      </trkpt>
      <trkpt lat="45.91032" lon="6.83794">
        <ele>1100</ele>
        <time>2026-08-04T11:35:13.132Z</time>
      </trkpt>
      <trkpt lat="45.91031" lon="6.83792">
        <ele>1099</ele>
        <time>2026-08-04T11:35:14.132Z</time>
      </trkpt>
      <trkpt lat="45.9103" lon="6.8379">
        <ele>1099</ele>
        <time>2026-08-04T11:35:15.132Z</time>
      </trkpt>
      <trkpt lat="45.91029" lon="6.83788">
        <ele>1099</ele>
        <time>2026-08-04T11:35:16.132Z</time>
      </trkpt>
      <trkpt lat="45.91028" lon="6.83787">
        <ele>1099</ele>
        <time>2026-08-04T11:35:17.132Z</time>
      </trkpt>
      <trkpt lat="45.91027" lon="6.83786">
        <ele>1099</ele>
        <time>2026-08-04T11:35:18.132Z</time>
      </trkpt>
      <trkpt lat="45.91026" lon="6.83786">
        <ele>1099</ele>
        <time>2026-08-04T11:35:19.132Z</time>
      </trkpt>
      <trkpt lat="45.91024" lon="6.83784">
        <ele>1099</ele>
        <time>2026-08-04T11:35:20.132Z</time>
      </trkpt>
      <trkpt lat="45.91023" lon="6.83783">
        <ele>1099</ele>
        <time>2026-08-04T11:35:21.132Z</time>
      </trkpt>
      <trkpt lat="45.91022" lon="6.83781">
        <ele>1098</ele>
        <time>2026-08-04T11:35:22.132Z</time>
      </trkpt>
      <trkpt lat="45.91021" lon="6.83779">
        <ele>1098</ele>
        <time>2026-08-04T11:35:23.132Z</time>
      </trkpt>
      <trkpt lat="45.9102" lon="6.83777">
        <ele>1097</ele>
        <time>2026-08-04T11:35:24.132Z</time>
      </trkpt>
      <trkpt lat="45.9102" lon="6.83775">
        <ele>1097</ele>
        <time>2026-08-04T11:35:25.132Z</time>
      </trkpt>
      <trkpt lat="45.91019" lon="6.83772">
        <ele>1097</ele>
        <time>2026-08-04T11:35:26.132Z</time>
      </trkpt>
      <trkpt lat="45.91019" lon="6.8377">
        <ele>1096</ele>
        <time>2026-08-04T11:35:27.132Z</time>
      </trkpt>
      <trkpt lat="45.91018" lon="6.83767">
        <ele>1096</ele>
        <time>2026-08-04T11:35:28.132Z</time>
      </trkpt>
      <trkpt lat="45.91017" lon="6.83765">
        <ele>1096</ele>
        <time>2026-08-04T11:35:29.132Z</time>
      </trkpt>
      <trkpt lat="45.91016" lon="6.83764">
        <ele>1095</ele>
        <time>2026-08-04T11:35:30.132Z</time>
      </trkpt>
      <trkpt lat="45.91015" lon="6.83762">
        <ele>1095</ele>
        <time>2026-08-04T11:35:31.132Z</time>
      </trkpt>
      <trkpt lat="45.91014" lon="6.8376">
        <ele>1094</ele>
        <time>2026-08-04T11:35:32.132Z</time>
      </trkpt>
      <trkpt lat="45.91014" lon="6.83759">
        <ele>1093</ele>
        <time>2026-08-04T11:35:33.132Z</time>
      </trkpt>
      <trkpt lat="45.91013" lon="6.83758">
        <ele>1093</ele>
        <time>2026-08-04T11:35:34.132Z</time>
      </trkpt>
      <trkpt lat="45.91013" lon="6.83758">
        <ele>1092</ele>
        <time>2026-08-04T11:35:35.132Z</time>
      </trkpt>
      <trkpt lat="45.91012" lon="6.83758">
        <ele>1091</ele>
        <time>2026-08-04T11:35:36.132Z</time>
      </trkpt>
      <trkpt lat="45.91011" lon="6.83759">
        <ele>1090</ele>
        <time>2026-08-04T11:35:37.132Z</time>
      </trkpt>
      <trkpt lat="45.91011" lon="6.8376">
        <ele>1090</ele>
        <time>2026-08-04T11:35:38.132Z</time>
      </trkpt>
      <trkpt lat="45.91011" lon="6.83761">
        <ele>1089</ele>
        <time>2026-08-04T11:35:39.132Z</time>
      </trkpt>
      <trkpt lat="45.9101" lon="6.83763">
        <ele>1088</ele>
        <time>2026-08-04T11:35:40.132Z</time>
      </trkpt>
      <trkpt lat="45.9101" lon="6.83764">
        <ele>1087</ele>
        <time>2026-08-04T11:35:41.132Z</time>
      </trkpt>
      <trkpt lat="45.9101" lon="6.83766">
        <ele>1087</ele>
        <time>2026-08-04T11:35:42.132Z</time>
      </trkpt>
      <trkpt lat="45.9101" lon="6.83768">
        <ele>1087</ele>
        <time>2026-08-04T11:35:43.132Z</time>
      </trkpt>
      <trkpt lat="45.9101" lon="6.8377">
        <ele>1086</ele>
        <time>2026-08-04T11:35:44.132Z</time>
      </trkpt>
      <trkpt lat="45.91009" lon="6.83771">
        <ele>1086</ele>
        <time>2026-08-04T11:35:45.132Z</time>
      </trkpt>
      <trkpt lat="45.91008" lon="6.83773">
        <ele>1086</ele>
        <time>2026-08-04T11:35:46.132Z</time>
      </trkpt>
      <trkpt lat="45.91008" lon="6.83774">
        <ele>1086</ele>
        <time>2026-08-04T11:35:47.132Z</time>
      </trkpt>
      <trkpt lat="45.91008" lon="6.83776">
        <ele>1086</ele>
        <time>2026-08-04T11:35:48.132Z</time>
      </trkpt>
      <trkpt lat="45.91008" lon="6.83778">
        <ele>1085</ele>
        <time>2026-08-04T11:35:49.132Z</time>
      </trkpt>
      <trkpt lat="45.91008" lon="6.8378">
        <ele>1085</ele>
        <time>2026-08-04T11:35:50.132Z</time>
      </trkpt>
      <trkpt lat="45.91007" lon="6.83781">
        <ele>1085</ele>
        <time>2026-08-04T11:35:51.132Z</time>
      </trkpt>
      <trkpt lat="45.91007" lon="6.83783">
        <ele>1085</ele>
        <time>2026-08-04T11:35:52.132Z</time>
      </trkpt>
      <trkpt lat="45.91007" lon="6.83784">
        <ele>1085</ele>
        <time>2026-08-04T11:35:53.132Z</time>
      </trkpt>
      <trkpt lat="45.91007" lon="6.83786">
        <ele>1084</ele>
        <time>2026-08-04T11:35:54.132Z</time>
      </trkpt>
      <trkpt lat="45.91006" lon="6.83787">
        <ele>1084</ele>
        <time>2026-08-04T11:35:55.132Z</time>
      </trkpt>
      <trkpt lat="45.91005" lon="6.83787">
        <ele>1084</ele>
        <time>2026-08-04T11:35:56.132Z</time>
      </trkpt>
      <trkpt lat="45.91005" lon="6.83788">
        <ele>1084</ele>
        <time>2026-08-04T11:35:57.132Z</time>
      </trkpt>
      <trkpt lat="45.91004" lon="6.83787">
        <ele>1084</ele>
        <time>2026-08-04T11:35:58.132Z</time>
      </trkpt>
      <trkpt lat="45.91003" lon="6.83786">
        <ele>1084</ele>
        <time>2026-08-04T11:35:59.132Z</time>
      </trkpt>
      <trkpt lat="45.91003" lon="6.83784">
        <ele>1084</ele>
        <time>2026-08-04T11:36:00.132Z</time>
      </trkpt>
      <trkpt lat="45.91002" lon="6.83783">
        <ele>1085</ele>
        <time>2026-08-04T11:36:01.132Z</time>
      </trkpt>
      <trkpt lat="45.91002" lon="6.83782">
        <ele>1085</ele>
        <time>2026-08-04T11:36:02.132Z</time>
      </trkpt>
      <trkpt lat="45.91001" lon="6.83781">
        <ele>1085</ele>
        <time>2026-08-04T11:36:03.132Z</time>
      </trkpt>
      <trkpt lat="45.91" lon="6.83779">
        <ele>1085</ele>
        <time>2026-08-04T11:36:04.132Z</time>
      </trkpt>
      <trkpt lat="45.91" lon="6.83778">
        <ele>1085</ele>
        <time>2026-08-04T11:36:05.132Z</time>
      </trkpt>
      <trkpt lat="45.90999" lon="6.83777">
        <ele>1085</ele>
        <time>2026-08-04T11:36:06.132Z</time>
      </trkpt>
      <trkpt lat="45.90998" lon="6.83776">
        <ele>1085</ele>
        <time>2026-08-04T11:36:07.132Z</time>
      </trkpt>
      <trkpt lat="45.90997" lon="6.83775">
        <ele>1086</ele>
        <time>2026-08-04T11:36:08.132Z</time>
      </trkpt>
      <trkpt lat="45.90996" lon="6.83774">
        <ele>1086</ele>
        <time>2026-08-04T11:36:09.132Z</time>
      </trkpt>
      <trkpt lat="45.90995" lon="6.83773">
        <ele>1086</ele>
        <time>2026-08-04T11:36:10.132Z</time>
      </trkpt>
      <trkpt lat="45.90994" lon="6.83772">
        <ele>1087</ele>
        <time>2026-08-04T11:36:11.132Z</time>
      </trkpt>
      <trkpt lat="45.90993" lon="6.83771">
        <ele>1087</ele>
        <time>2026-08-04T11:36:12.132Z</time>
      </trkpt>
      <trkpt lat="45.90992" lon="6.8377">
        <ele>1088</ele>
        <time>2026-08-04T11:36:13.132Z</time>
      </trkpt>
      <trkpt lat="45.90991" lon="6.83769">
        <ele>1088</ele>
        <time>2026-08-04T11:36:14.132Z</time>
      </trkpt>
      <trkpt lat="45.90991" lon="6.83769">
        <ele>1088</ele>
        <time>2026-08-04T11:36:15.132Z</time>
      </trkpt>
      <trkpt lat="45.9099" lon="6.83769">
        <ele>1089</ele>
        <time>2026-08-04T11:36:16.132Z</time>
      </trkpt>
      <trkpt lat="45.90989" lon="6.8377">
        <ele>1089</ele>
        <time>2026-08-04T11:36:17.132Z</time>
      </trkpt>
      <trkpt lat="45.90988" lon="6.8377">
        <ele>1089</ele>
        <time>2026-08-04T11:36:18.132Z</time>
      </trkpt>
      <trkpt lat="45.90987" lon="6.8377">
        <ele>1090</ele>
        <time>2026-08-04T11:36:19.132Z</time>
      </trkpt>
      <trkpt lat="45.90986" lon="6.83769">
        <ele>1090</ele>
        <time>2026-08-04T11:36:20.132Z</time>
      </trkpt>
      <trkpt lat="45.90985" lon="6.8377">
        <ele>1090</ele>
        <time>2026-08-04T11:36:21.132Z</time>
      </trkpt>
      <trkpt lat="45.90984" lon="6.83771">
        <ele>1090</ele>
        <time>2026-08-04T11:36:22.132Z</time>
      </trkpt>
      <trkpt lat="45.90983" lon="6.8377">
        <ele>1091</ele>
        <time>2026-08-04T11:36:23.132Z</time>
      </trkpt>
      <trkpt lat="45.90982" lon="6.83771">
        <ele>1091</ele>
        <time>2026-08-04T11:36:24.132Z</time>
      </trkpt>
      <trkpt lat="45.90981" lon="6.8377">
        <ele>1091</ele>
        <time>2026-08-04T11:36:25.132Z</time>
      </trkpt>
      <trkpt lat="45.9098" lon="6.83769">
        <ele>1091</ele>
        <time>2026-08-04T11:36:26.132Z</time>
      </trkpt>
      <trkpt lat="45.9098" lon="6.83768">
        <ele>1090</ele>
        <time>2026-08-04T11:36:27.132Z</time>
      </trkpt>
      <trkpt lat="45.90979" lon="6.83768">
        <ele>1090</ele>
        <time>2026-08-04T11:36:28.132Z</time>
      </trkpt>
      <trkpt lat="45.90978" lon="6.83766">
        <ele>1089</ele>
        <time>2026-08-04T11:36:29.132Z</time>
      </trkpt>
      <trkpt lat="45.90977" lon="6.83765">
        <ele>1089</ele>
        <time>2026-08-04T11:36:30.132Z</time>
      </trkpt>
      <trkpt lat="45.90976" lon="6.83765">
        <ele>1089</ele>
        <time>2026-08-04T11:36:31.132Z</time>
      </trkpt>
      <trkpt lat="45.90974" lon="6.83764">
        <ele>1089</ele>
        <time>2026-08-04T11:36:32.132Z</time>
      </trkpt>
      <trkpt lat="45.90973" lon="6.83765">
        <ele>1088</ele>
        <time>2026-08-04T11:36:33.132Z</time>
      </trkpt>
      <trkpt lat="45.90971" lon="6.83765">
        <ele>1088</ele>
        <time>2026-08-04T11:36:34.132Z</time>
      </trkpt>
      <trkpt lat="45.9097" lon="6.83766">
        <ele>1087</ele>
        <time>2026-08-04T11:36:35.132Z</time>
      </trkpt>
      <trkpt lat="45.90969" lon="6.83766">
        <ele>1087</ele>
        <time>2026-08-04T11:36:36.132Z</time>
      </trkpt>
      <trkpt lat="45.90968" lon="6.83767">
        <ele>1087</ele>
        <time>2026-08-04T11:36:37.132Z</time>
      </trkpt>
      <trkpt lat="45.90967" lon="6.83767">
        <ele>1086</ele>
        <time>2026-08-04T11:36:38.132Z</time>
      </trkpt>
      <trkpt lat="45.90966" lon="6.83767">
        <ele>1085</ele>
        <time>2026-08-04T11:36:39.132Z</time>
      </trkpt>
      <trkpt lat="45.90965" lon="6.83768">
        <ele>1085</ele>
        <time>2026-08-04T11:36:40.132Z</time>
      </trkpt>
      <trkpt lat="45.90965" lon="6.83767">
        <ele>1084</ele>
        <time>2026-08-04T11:36:41.132Z</time>
      </trkpt>
      <trkpt lat="45.90964" lon="6.83767">
        <ele>1084</ele>
        <time>2026-08-04T11:36:42.132Z</time>
      </trkpt>
      <trkpt lat="45.90963" lon="6.83767">
        <ele>1084</ele>
        <time>2026-08-04T11:36:43.132Z</time>
      </trkpt>
      <trkpt lat="45.90962" lon="6.83766">
        <ele>1084</ele>
        <time>2026-08-04T11:36:44.132Z</time>
      </trkpt>
      <trkpt lat="45.90961" lon="6.83766">
        <ele>1084</ele>
        <time>2026-08-04T11:36:45.132Z</time>
      </trkpt>
      <trkpt lat="45.9096" lon="6.83765">
        <ele>1083</ele>
        <time>2026-08-04T11:36:46.132Z</time>
      </trkpt>
      <trkpt lat="45.9096" lon="6.83765">
        <ele>1084</ele>
        <time>2026-08-04T11:36:47.132Z</time>
      </trkpt>
      <trkpt lat="45.90959" lon="6.83766">
        <ele>1084</ele>
        <time>2026-08-04T11:36:48.132Z</time>
      </trkpt>
      <trkpt lat="45.90958" lon="6.83766">
        <ele>1084</ele>
        <time>2026-08-04T11:36:49.132Z</time>
      </trkpt>
      <trkpt lat="45.90957" lon="6.83766">
        <ele>1084</ele>
        <time>2026-08-04T11:36:50.132Z</time>
      </trkpt>
      <trkpt lat="45.90956" lon="6.83766">
        <ele>1084</ele>
        <time>2026-08-04T11:36:51.132Z</time>
      </trkpt>
      <trkpt lat="45.90955" lon="6.83766">
        <ele>1083</ele>
        <time>2026-08-04T11:36:52.132Z</time>
      </trkpt>
      <trkpt lat="45.90954" lon="6.83766">
        <ele>1083</ele>
        <time>2026-08-04T11:36:53.132Z</time>
      </trkpt>
      <trkpt lat="45.90953" lon="6.83766">
        <ele>1083</ele>
        <time>2026-08-04T11:36:54.132Z</time>
      </trkpt>
      <trkpt lat="45.90951" lon="6.83766">
        <ele>1082</ele>
        <time>2026-08-04T11:36:55.132Z</time>
      </trkpt>
      <trkpt lat="45.9095" lon="6.83767">
        <ele>1082</ele>
        <time>2026-08-04T11:36:56.132Z</time>
      </trkpt>
      <trkpt lat="45.90949" lon="6.83767">
        <ele>1082</ele>
        <time>2026-08-04T11:36:57.132Z</time>
      </trkpt>
      <trkpt lat="45.90948" lon="6.83766">
        <ele>1082</ele>
        <time>2026-08-04T11:36:58.132Z</time>
      </trkpt>
      <trkpt lat="45.90948" lon="6.83765">
        <ele>1081</ele>
        <time>2026-08-04T11:36:59.132Z</time>
      </trkpt>
      <trkpt lat="45.90947" lon="6.83764">
        <ele>1080</ele>
        <time>2026-08-04T11:37:00.132Z</time>
      </trkpt>
      <trkpt lat="45.90946" lon="6.83763">
        <ele>1079</ele>
        <time>2026-08-04T11:37:01.132Z</time>
      </trkpt>
      <trkpt lat="45.90946" lon="6.83762">
        <ele>1078</ele>
        <time>2026-08-04T11:37:02.132Z</time>
      </trkpt>
      <trkpt lat="45.90945" lon="6.83762">
        <ele>1078</ele>
        <time>2026-08-04T11:37:03.132Z</time>
      </trkpt>
      <trkpt lat="45.90943" lon="6.83761">
        <ele>1077</ele>
        <time>2026-08-04T11:37:04.132Z</time>
      </trkpt>
      <trkpt lat="45.90942" lon="6.83761">
        <ele>1076</ele>
        <time>2026-08-04T11:37:05.132Z</time>
      </trkpt>
      <trkpt lat="45.90941" lon="6.83761">
        <ele>1076</ele>
        <time>2026-08-04T11:37:06.132Z</time>
      </trkpt>
      <trkpt lat="45.9094" lon="6.8376">
        <ele>1076</ele>
        <time>2026-08-04T11:37:07.132Z</time>
      </trkpt>
      <trkpt lat="45.90939" lon="6.83759">
        <ele>1075</ele>
        <time>2026-08-04T11:37:08.132Z</time>
      </trkpt>
      <trkpt lat="45.90938" lon="6.83758">
        <ele>1075</ele>
        <time>2026-08-04T11:37:09.132Z</time>
      </trkpt>
      <trkpt lat="45.90936" lon="6.83757">
        <ele>1074</ele>
        <time>2026-08-04T11:37:10.132Z</time>
      </trkpt>
      <trkpt lat="45.90934" lon="6.83756">
        <ele>1074</ele>
        <time>2026-08-04T11:37:11.132Z</time>
      </trkpt>
      <trkpt lat="45.90933" lon="6.83756">
        <ele>1074</ele>
        <time>2026-08-04T11:37:12.132Z</time>
      </trkpt>
      <trkpt lat="45.90931" lon="6.83756">
        <ele>1074</ele>
        <time>2026-08-04T11:37:13.132Z</time>
      </trkpt>
      <trkpt lat="45.9093" lon="6.83756">
        <ele>1073</ele>
        <time>2026-08-04T11:37:14.132Z</time>
      </trkpt>
      <trkpt lat="45.90928" lon="6.83755">
        <ele>1073</ele>
        <time>2026-08-04T11:37:15.132Z</time>
      </trkpt>
      <trkpt lat="45.90927" lon="6.83754">
        <ele>1072</ele>
        <time>2026-08-04T11:37:16.132Z</time>
      </trkpt>
      <trkpt lat="45.90926" lon="6.83753">
        <ele>1071</ele>
        <time>2026-08-04T11:37:17.132Z</time>
      </trkpt>
      <trkpt lat="45.90925" lon="6.83752">
        <ele>1071</ele>
        <time>2026-08-04T11:37:18.132Z</time>
      </trkpt>
      <trkpt lat="45.90925" lon="6.83751">
        <ele>1070</ele>
        <time>2026-08-04T11:37:19.132Z</time>
      </trkpt>
      <trkpt lat="45.90925" lon="6.83751">
        <ele>1069</ele>
        <time>2026-08-04T11:37:20.132Z</time>
      </trkpt>
      <trkpt lat="45.90924" lon="6.83751">
        <ele>1069</ele>
        <time>2026-08-04T11:37:21.132Z</time>
      </trkpt>
      <trkpt lat="45.90923" lon="6.83751">
        <ele>1068</ele>
        <time>2026-08-04T11:37:22.132Z</time>
      </trkpt>
      <trkpt lat="45.90922" lon="6.83751">
        <ele>1068</ele>
        <time>2026-08-04T11:37:23.132Z</time>
      </trkpt>
      <trkpt lat="45.90921" lon="6.83751">
        <ele>1068</ele>
        <time>2026-08-04T11:37:24.132Z</time>
      </trkpt>
      <trkpt lat="45.9092" lon="6.8375">
        <ele>1068</ele>
        <time>2026-08-04T11:37:25.132Z</time>
      </trkpt>
      <trkpt lat="45.90919" lon="6.83749">
        <ele>1067</ele>
        <time>2026-08-04T11:37:26.132Z</time>
      </trkpt>
      <trkpt lat="45.90918" lon="6.83749">
        <ele>1067</ele>
        <time>2026-08-04T11:37:27.132Z</time>
      </trkpt>
      <trkpt lat="45.90918" lon="6.83748">
        <ele>1067</ele>
        <time>2026-08-04T11:37:28.132Z</time>
      </trkpt>
      <trkpt lat="45.90917" lon="6.83747">
        <ele>1066</ele>
        <time>2026-08-04T11:37:29.132Z</time>
      </trkpt>
      <trkpt lat="45.90916" lon="6.83747">
        <ele>1066</ele>
        <time>2026-08-04T11:37:30.132Z</time>
      </trkpt>
      <trkpt lat="45.90916" lon="6.83747">
        <ele>1065</ele>
        <time>2026-08-04T11:37:31.132Z</time>
      </trkpt>
      <trkpt lat="45.90915" lon="6.83747">
        <ele>1064</ele>
        <time>2026-08-04T11:37:32.132Z</time>
      </trkpt>
      <trkpt lat="45.90914" lon="6.83747">
        <ele>1064</ele>
        <time>2026-08-04T11:37:33.132Z</time>
      </trkpt>
      <trkpt lat="45.90913" lon="6.83748">
        <ele>1063</ele>
        <time>2026-08-04T11:37:34.132Z</time>
      </trkpt>
      <trkpt lat="45.90912" lon="6.83747">
        <ele>1062</ele>
        <time>2026-08-04T11:37:35.132Z</time>
      </trkpt>
      <trkpt lat="45.90912" lon="6.83747">
        <ele>1062</ele>
        <time>2026-08-04T11:37:36.132Z</time>
      </trkpt>
      <trkpt lat="45.90911" lon="6.83747">
        <ele>1061</ele>
        <time>2026-08-04T11:37:37.132Z</time>
      </trkpt>
      <trkpt lat="45.9091" lon="6.83747">
        <ele>1061</ele>
        <time>2026-08-04T11:37:38.132Z</time>
      </trkpt>
      <trkpt lat="45.90909" lon="6.83747">
        <ele>1060</ele>
        <time>2026-08-04T11:37:39.132Z</time>
      </trkpt>
      <trkpt lat="45.90908" lon="6.83747">
        <ele>1060</ele>
        <time>2026-08-04T11:37:40.132Z</time>
      </trkpt>
      <trkpt lat="45.90908" lon="6.83747">
        <ele>1060</ele>
        <time>2026-08-04T11:37:41.132Z</time>
      </trkpt>
      <trkpt lat="45.90907" lon="6.83747">
        <ele>1059</ele>
        <time>2026-08-04T11:37:42.132Z</time>
      </trkpt>
      <trkpt lat="45.90907" lon="6.83747">
        <ele>1058</ele>
        <time>2026-08-04T11:37:43.132Z</time>
      </trkpt>
      <trkpt lat="45.90906" lon="6.83747">
        <ele>1058</ele>
        <time>2026-08-04T11:37:44.132Z</time>
      </trkpt>
      <trkpt lat="45.90905" lon="6.83747">
        <ele>1058</ele>
        <time>2026-08-04T11:37:45.132Z</time>
      </trkpt>
      <trkpt lat="45.90904" lon="6.83748">
        <ele>1058</ele>
        <time>2026-08-04T11:37:46.132Z</time>
      </trkpt>
      <trkpt lat="45.90903" lon="6.83749">
        <ele>1058</ele>
        <time>2026-08-04T11:37:47.132Z</time>
      </trkpt>
      <trkpt lat="45.90902" lon="6.8375">
        <ele>1058</ele>
        <time>2026-08-04T11:37:48.132Z</time>
      </trkpt>
      <trkpt lat="45.90902" lon="6.83751">
        <ele>1058</ele>
        <time>2026-08-04T11:37:49.132Z</time>
      </trkpt>
      <trkpt lat="45.90901" lon="6.83752">
        <ele>1059</ele>
        <time>2026-08-04T11:37:50.132Z</time>
      </trkpt>
      <trkpt lat="45.909" lon="6.83752">
        <ele>1059</ele>
        <time>2026-08-04T11:37:51.132Z</time>
      </trkpt>
      <trkpt lat="45.90899" lon="6.83752">
        <ele>1059</ele>
        <time>2026-08-04T11:37:52.132Z</time>
      </trkpt>
      <trkpt lat="45.90898" lon="6.83752">
        <ele>1058</ele>
        <time>2026-08-04T11:37:53.132Z</time>
      </trkpt>
      <trkpt lat="45.90897" lon="6.83752">
        <ele>1058</ele>
        <time>2026-08-04T11:37:54.132Z</time>
      </trkpt>
      <trkpt lat="45.90896" lon="6.83752">
        <ele>1057</ele>
        <time>2026-08-04T11:37:55.132Z</time>
      </trkpt>
      <trkpt lat="45.90895" lon="6.83752">
        <ele>1057</ele>
        <time>2026-08-04T11:37:56.132Z</time>
      </trkpt>
      <trkpt lat="45.90894" lon="6.83752">
        <ele>1056</ele>
        <time>2026-08-04T11:37:57.132Z</time>
      </trkpt>
      <trkpt lat="45.90894" lon="6.83752">
        <ele>1056</ele>
        <time>2026-08-04T11:37:58.132Z</time>
      </trkpt>
      <trkpt lat="45.90894" lon="6.83752">
        <ele>1056</ele>
        <time>2026-08-04T11:37:59.132Z</time>
      </trkpt>
      <trkpt lat="45.90894" lon="6.83752">
        <ele>1055</ele>
        <time>2026-08-04T11:38:00.132Z</time>
      </trkpt>
      <trkpt lat="45.90894" lon="6.83752">
        <ele>1055</ele>
        <time>2026-08-04T11:38:01.132Z</time>
      </trkpt>
      <trkpt lat="45.90895" lon="6.83753">
        <ele>1055</ele>
        <time>2026-08-04T11:38:02.132Z</time>
      </trkpt>
      <trkpt lat="45.90897" lon="6.83753">
        <ele>1054</ele>
        <time>2026-08-04T11:38:03.132Z</time>
      </trkpt>
      <trkpt lat="45.90895" lon="6.83753">
        <ele>1054</ele>
        <time>2026-08-04T11:38:04.132Z</time>
      </trkpt>
      <trkpt lat="45.90894" lon="6.83754">
        <ele>1054</ele>
        <time>2026-08-04T11:38:05.132Z</time>
      </trkpt>
      <trkpt lat="45.90892" lon="6.83754">
        <ele>1054</ele>
        <time>2026-08-04T11:38:06.132Z</time>
      </trkpt>
      <trkpt lat="45.9089" lon="6.83755">
        <ele>1054</ele>
        <time>2026-08-04T11:38:07.132Z</time>
      </trkpt>
      <trkpt lat="45.90889" lon="6.83755">
        <ele>1053</ele>
        <time>2026-08-04T11:38:08.132Z</time>
      </trkpt>
      <trkpt lat="45.90888" lon="6.83755">
        <ele>1053</ele>
        <time>2026-08-04T11:38:09.132Z</time>
      </trkpt>
      <trkpt lat="45.90887" lon="6.83756">
        <ele>1053</ele>
        <time>2026-08-04T11:38:10.132Z</time>
      </trkpt>
      <trkpt lat="45.90886" lon="6.83756">
        <ele>1053</ele>
        <time>2026-08-04T11:38:11.132Z</time>
      </trkpt>
      <trkpt lat="45.90885" lon="6.83757">
        <ele>1052</ele>
        <time>2026-08-04T11:38:12.132Z</time>
      </trkpt>
      <trkpt lat="45.90884" lon="6.83757">
        <ele>1052</ele>
        <time>2026-08-04T11:38:13.132Z</time>
      </trkpt>
      <trkpt lat="45.90883" lon="6.83757">
        <ele>1052</ele>
        <time>2026-08-04T11:38:14.132Z</time>
      </trkpt>
      <trkpt lat="45.90883" lon="6.83757">
        <ele>1051</ele>
        <time>2026-08-04T11:38:15.132Z</time>
      </trkpt>
      <trkpt lat="45.90882" lon="6.83758">
        <ele>1051</ele>
        <time>2026-08-04T11:38:16.132Z</time>
      </trkpt>
      <trkpt lat="45.90881" lon="6.83758">
        <ele>1050</ele>
        <time>2026-08-04T11:38:17.132Z</time>
      </trkpt>
      <trkpt lat="45.90881" lon="6.83758">
        <ele>1050</ele>
        <time>2026-08-04T11:38:18.132Z</time>
      </trkpt>
      <trkpt lat="45.9088" lon="6.83759">
        <ele>1050</ele>
        <time>2026-08-04T11:38:19.132Z</time>
      </trkpt>
      <trkpt lat="45.90879" lon="6.83759">
        <ele>1049</ele>
        <time>2026-08-04T11:38:20.132Z</time>
      </trkpt>
      <trkpt lat="45.90879" lon="6.83759">
        <ele>1049</ele>
        <time>2026-08-04T11:38:21.132Z</time>
      </trkpt>
      <trkpt lat="45.90879" lon="6.83759">
        <ele>1048</ele>
        <time>2026-08-04T11:38:22.132Z</time>
      </trkpt>
      <trkpt lat="45.90878" lon="6.83759">
        <ele>1048</ele>
        <time>2026-08-04T11:38:23.132Z</time>
      </trkpt>
      <trkpt lat="45.90878" lon="6.8376">
        <ele>1047</ele>
        <time>2026-08-04T11:38:24.132Z</time>
      </trkpt>
      <trkpt lat="45.90877" lon="6.8376">
        <ele>1047</ele>
        <time>2026-08-04T11:38:25.132Z</time>
      </trkpt>
      <trkpt lat="45.90877" lon="6.83761">
        <ele>1047</ele>
        <time>2026-08-04T11:38:26.132Z</time>
      </trkpt>
      <trkpt lat="45.90876" lon="6.83761">
        <ele>1046</ele>
        <time>2026-08-04T11:38:27.132Z</time>
      </trkpt>
      <trkpt lat="45.90876" lon="6.83762">
        <ele>1046</ele>
        <time>2026-08-04T11:38:28.132Z</time>
      </trkpt>
      <trkpt lat="45.90875" lon="6.83762">
        <ele>1046</ele>
        <time>2026-08-04T11:38:29.132Z</time>
      </trkpt>
      <trkpt lat="45.90875" lon="6.83762">
        <ele>1045</ele>
        <time>2026-08-04T11:38:30.132Z</time>
      </trkpt>
      <trkpt lat="45.90874" lon="6.83762">
        <ele>1045</ele>
        <time>2026-08-04T11:38:31.132Z</time>
      </trkpt>
      <trkpt lat="45.90874" lon="6.83763">
        <ele>1045</ele>
        <time>2026-08-04T11:38:32.132Z</time>
      </trkpt>
      <trkpt lat="45.90873" lon="6.83763">
        <ele>1044</ele>
        <time>2026-08-04T11:38:33.132Z</time>
      </trkpt>
      <trkpt lat="45.90872" lon="6.83763">
        <ele>1044</ele>
        <time>2026-08-04T11:38:34.132Z</time>
      </trkpt>
      <trkpt lat="45.90872" lon="6.83763">
        <ele>1044</ele>
        <time>2026-08-04T11:38:35.132Z</time>
      </trkpt>
      <trkpt lat="45.90871" lon="6.83764">
        <ele>1044</ele>
        <time>2026-08-04T11:38:36.132Z</time>
      </trkpt>
      <trkpt lat="45.9087" lon="6.83764">
        <ele>1044</ele>
        <time>2026-08-04T11:38:37.132Z</time>
      </trkpt>
      <trkpt lat="45.9087" lon="6.83763">
        <ele>1044</ele>
        <time>2026-08-04T11:38:38.132Z</time>
      </trkpt>
      <trkpt lat="45.90869" lon="6.83763">
        <ele>1044</ele>
        <time>2026-08-04T11:38:39.132Z</time>
      </trkpt>
      <trkpt lat="45.90869" lon="6.83763">
        <ele>1043</ele>
        <time>2026-08-04T11:38:40.132Z</time>
      </trkpt>
      <trkpt lat="45.90869" lon="6.83763">
        <ele>1043</ele>
        <time>2026-08-04T11:38:41.132Z</time>
      </trkpt>
      <trkpt lat="45.90868" lon="6.83763">
        <ele>1042</ele>
        <time>2026-08-04T11:38:42.132Z</time>
      </trkpt>
      <trkpt lat="45.90868" lon="6.83763">
        <ele>1042</ele>
        <time>2026-08-04T11:38:43.132Z</time>
      </trkpt>
      <trkpt lat="45.90867" lon="6.83763">
        <ele>1042</ele>
        <time>2026-08-04T11:38:44.132Z</time>
      </trkpt>
      <trkpt lat="45.90867" lon="6.83763">
        <ele>1041</ele>
        <time>2026-08-04T11:38:45.132Z</time>
      </trkpt>
      <trkpt lat="45.90866" lon="6.83763">
        <ele>1041</ele>
        <time>2026-08-04T11:38:46.132Z</time>
      </trkpt>
      <trkpt lat="45.90865" lon="6.83763">
        <ele>1040</ele>
        <time>2026-08-04T11:38:47.132Z</time>
      </trkpt>
      <trkpt lat="45.90864" lon="6.83763">
        <ele>1040</ele>
        <time>2026-08-04T11:38:48.132Z</time>
      </trkpt>
      <trkpt lat="45.90863" lon="6.83763">
        <ele>1039</ele>
        <time>2026-08-04T11:38:49.132Z</time>
      </trkpt>
      <trkpt lat="45.90863" lon="6.83763">
        <ele>1038</ele>
        <time>2026-08-04T11:38:50.132Z</time>
      </trkpt>
      <trkpt lat="45.90862" lon="6.83763">
        <ele>1037</ele>
        <time>2026-08-04T11:38:51.132Z</time>
      </trkpt>
      <trkpt lat="45.90861" lon="6.83763">
        <ele>1036</ele>
        <time>2026-08-04T11:38:52.132Z</time>
      </trkpt>
      <trkpt lat="45.90861" lon="6.83763">
        <ele>1036</ele>
        <time>2026-08-04T11:38:53.132Z</time>
      </trkpt>
      <trkpt lat="45.9086" lon="6.83763">
        <ele>1035</ele>
        <time>2026-08-04T11:38:54.132Z</time>
      </trkpt>
      <trkpt lat="45.9086" lon="6.83763">
        <ele>1035</ele>
        <time>2026-08-04T11:38:55.132Z</time>
      </trkpt>
      <trkpt lat="45.90859" lon="6.83763">
        <ele>1034</ele>
        <time>2026-08-04T11:38:56.132Z</time>
      </trkpt>
      <trkpt lat="45.90858" lon="6.83764">
        <ele>1034</ele>
        <time>2026-08-04T11:38:57.132Z</time>
      </trkpt>
      <trkpt lat="45.90857" lon="6.83764">
        <ele>1034</ele>
        <time>2026-08-04T11:38:58.132Z</time>
      </trkpt>
      <trkpt lat="45.90857" lon="6.83763">
        <ele>1034</ele>
        <time>2026-08-04T11:38:59.132Z</time>
      </trkpt>
      <trkpt lat="45.90857" lon="6.83763">
        <ele>1034</ele>
        <time>2026-08-04T11:39:00.132Z</time>
      </trkpt>
      <trkpt lat="45.90857" lon="6.83763">
        <ele>1034</ele>
        <time>2026-08-04T11:39:01.132Z</time>
      </trkpt>
      <trkpt lat="45.90856" lon="6.83763">
        <ele>1034</ele>
        <time>2026-08-04T11:39:02.132Z</time>
      </trkpt>
      <trkpt lat="45.90855" lon="6.83764">
        <ele>1033</ele>
        <time>2026-08-04T11:39:03.132Z</time>
      </trkpt>
      <trkpt lat="45.90854" lon="6.83764">
        <ele>1033</ele>
        <time>2026-08-04T11:39:04.132Z</time>
      </trkpt>
      <trkpt lat="45.90853" lon="6.83764">
        <ele>1033</ele>
        <time>2026-08-04T11:39:05.132Z</time>
      </trkpt>
      <trkpt lat="45.90852" lon="6.83764">
        <ele>1032</ele>
        <time>2026-08-04T11:39:06.132Z</time>
      </trkpt>
      <trkpt lat="45.90852" lon="6.83763">
        <ele>1032</ele>
        <time>2026-08-04T11:39:07.132Z</time>
      </trkpt>
      <trkpt lat="45.90851" lon="6.83763">
        <ele>1032</ele>
        <time>2026-08-04T11:39:08.132Z</time>
      </trkpt>
      <trkpt lat="45.90851" lon="6.83763">
        <ele>1031</ele>
        <time>2026-08-04T11:39:09.132Z</time>
      </trkpt>
      <trkpt lat="45.9085" lon="6.83762">
        <ele>1031</ele>
        <time>2026-08-04T11:39:10.132Z</time>
      </trkpt>
      <trkpt lat="45.90849" lon="6.83762">
        <ele>1031</ele>
        <time>2026-08-04T11:39:11.132Z</time>
      </trkpt>
      <trkpt lat="45.90849" lon="6.83762">
        <ele>1031</ele>
        <time>2026-08-04T11:39:12.132Z</time>
      </trkpt>
      <trkpt lat="45.90848" lon="6.83762">
        <ele>1031</ele>
        <time>2026-08-04T11:39:13.132Z</time>
      </trkpt>
      <trkpt lat="45.90848" lon="6.83762">
        <ele>1031</ele>
        <time>2026-08-04T11:39:14.132Z</time>
      </trkpt>
      <trkpt lat="45.90847" lon="6.83762">
        <ele>1031</ele>
        <time>2026-08-04T11:39:15.132Z</time>
      </trkpt>
      <trkpt lat="45.90847" lon="6.83762">
        <ele>1031</ele>
        <time>2026-08-04T11:39:16.132Z</time>
      </trkpt>
      <trkpt lat="45.90847" lon="6.83762">
        <ele>1031</ele>
        <time>2026-08-04T11:39:17.132Z</time>
      </trkpt>
      <trkpt lat="45.90846" lon="6.83762">
        <ele>1030</ele>
        <time>2026-08-04T11:39:18.132Z</time>
      </trkpt>
      <trkpt lat="45.90845" lon="6.83762">
        <ele>1030</ele>
        <time>2026-08-04T11:39:19.132Z</time>
      </trkpt>
      <trkpt lat="45.90844" lon="6.83762">
        <ele>1029</ele>
        <time>2026-08-04T11:39:20.132Z</time>
      </trkpt>
      <trkpt lat="45.90843" lon="6.83762">
        <ele>1029</ele>
        <time>2026-08-04T11:39:21.132Z</time>
      </trkpt>
      <trkpt lat="45.90841" lon="6.83762">
        <ele>1029</ele>
        <time>2026-08-04T11:39:22.132Z</time>
      </trkpt>
      <trkpt lat="45.90839" lon="6.83762">
        <ele>1029</ele>
        <time>2026-08-04T11:39:23.132Z</time>
      </trkpt>
      <trkpt lat="45.90838" lon="6.83763">
        <ele>1028</ele>
        <time>2026-08-04T11:39:24.132Z</time>
      </trkpt>
      <trkpt lat="45.90837" lon="6.83762">
        <ele>1028</ele>
        <time>2026-08-04T11:39:25.132Z</time>
      </trkpt>
      <trkpt lat="45.90836" lon="6.83762">
        <ele>1028</ele>
        <time>2026-08-04T11:39:26.132Z</time>
      </trkpt>
      <trkpt lat="45.90835" lon="6.83762">
        <ele>1028</ele>
        <time>2026-08-04T11:39:27.132Z</time>
      </trkpt>
      <trkpt lat="45.90835" lon="6.83763">
        <ele>1027</ele>
        <time>2026-08-04T11:39:28.132Z</time>
      </trkpt>
      <trkpt lat="45.90834" lon="6.83763">
        <ele>1028</ele>
        <time>2026-08-04T11:39:29.132Z</time>
      </trkpt>
      <trkpt lat="45.90833" lon="6.83763">
        <ele>1028</ele>
        <time>2026-08-04T11:39:30.132Z</time>
      </trkpt>
      <trkpt lat="45.90832" lon="6.83763">
        <ele>1028</ele>
        <time>2026-08-04T11:39:31.132Z</time>
      </trkpt>
      <trkpt lat="45.9083" lon="6.83762">
        <ele>1028</ele>
        <time>2026-08-04T11:39:32.132Z</time>
      </trkpt>
      <trkpt lat="45.90829" lon="6.83762">
        <ele>1028</ele>
        <time>2026-08-04T11:39:33.132Z</time>
      </trkpt>
      <trkpt lat="45.90829" lon="6.83762">
        <ele>1028</ele>
        <time>2026-08-04T11:39:34.132Z</time>
      </trkpt>
      <trkpt lat="45.90828" lon="6.83762">
        <ele>1028</ele>
        <time>2026-08-04T11:39:35.132Z</time>
      </trkpt>
      <trkpt lat="45.90827" lon="6.83762">
        <ele>1029</ele>
        <time>2026-08-04T11:39:36.132Z</time>
      </trkpt>
      <trkpt lat="45.90826" lon="6.83762">
        <ele>1029</ele>
        <time>2026-08-04T11:39:37.132Z</time>
      </trkpt>
      <trkpt lat="45.90825" lon="6.83762">
        <ele>1029</ele>
        <time>2026-08-04T11:39:38.132Z</time>
      </trkpt>
      <trkpt lat="45.90824" lon="6.83762">
        <ele>1029</ele>
        <time>2026-08-04T11:39:39.132Z</time>
      </trkpt>
      <trkpt lat="45.90823" lon="6.83762">
        <ele>1029</ele>
        <time>2026-08-04T11:39:40.132Z</time>
      </trkpt>
      <trkpt lat="45.90821" lon="6.83762">
        <ele>1030</ele>
        <time>2026-08-04T11:39:41.132Z</time>
      </trkpt>
      <trkpt lat="45.90819" lon="6.83762">
        <ele>1030</ele>
        <time>2026-08-04T11:39:42.132Z</time>
      </trkpt>
      <trkpt lat="45.90817" lon="6.83763">
        <ele>1030</ele>
        <time>2026-08-04T11:39:43.132Z</time>
      </trkpt>
      <trkpt lat="45.90816" lon="6.83763">
        <ele>1030</ele>
        <time>2026-08-04T11:39:44.132Z</time>
      </trkpt>
      <trkpt lat="45.90814" lon="6.83761">
        <ele>1030</ele>
        <time>2026-08-04T11:39:45.132Z</time>
      </trkpt>
      <trkpt lat="45.90813" lon="6.83761">
        <ele>1030</ele>
        <time>2026-08-04T11:39:46.132Z</time>
      </trkpt>
      <trkpt lat="45.90812" lon="6.83761">
        <ele>1029</ele>
        <time>2026-08-04T11:39:47.132Z</time>
      </trkpt>
      <trkpt lat="45.90811" lon="6.83762">
        <ele>1029</ele>
        <time>2026-08-04T11:39:48.132Z</time>
      </trkpt>
      <trkpt lat="45.9081" lon="6.83762">
        <ele>1028</ele>
        <time>2026-08-04T11:39:49.132Z</time>
      </trkpt>
      <trkpt lat="45.90809" lon="6.83762">
        <ele>1027</ele>
        <time>2026-08-04T11:39:50.132Z</time>
      </trkpt>
      <trkpt lat="45.90808" lon="6.83762">
        <ele>1027</ele>
        <time>2026-08-04T11:39:51.132Z</time>
      </trkpt>
      <trkpt lat="45.90808" lon="6.83762">
        <ele>1027</ele>
        <time>2026-08-04T11:39:52.132Z</time>
      </trkpt>
      <trkpt lat="45.90808" lon="6.83762">
        <ele>1027</ele>
        <time>2026-08-04T11:39:53.132Z</time>
      </trkpt>
      <trkpt lat="45.90808" lon="6.83763">
        <ele>1027</ele>
        <time>2026-08-04T11:39:54.132Z</time>
      </trkpt>
      <trkpt lat="45.90808" lon="6.83763">
        <ele>1027</ele>
        <time>2026-08-04T11:39:55.132Z</time>
      </trkpt>
      <trkpt lat="45.90808" lon="6.83764">
        <ele>1027</ele>
        <time>2026-08-04T11:39:56.132Z</time>
      </trkpt>
      <trkpt lat="45.90807" lon="6.83764">
        <ele>1027</ele>
        <time>2026-08-04T11:39:57.132Z</time>
      </trkpt>
      <trkpt lat="45.90807" lon="6.83765">
        <ele>1027</ele>
        <time>2026-08-04T11:39:58.132Z</time>
      </trkpt>
      <trkpt lat="45.90806" lon="6.83766">
        <ele>1027</ele>
        <time>2026-08-04T11:39:59.132Z</time>
      </trkpt>
      <trkpt lat="45.90805" lon="6.83767">
        <ele>1028</ele>
        <time>2026-08-04T11:40:00.132Z</time>
      </trkpt>
      <trkpt lat="45.90805" lon="6.83767">
        <ele>1028</ele>
        <time>2026-08-04T11:40:01.132Z</time>
      </trkpt>
      <trkpt lat="45.90804" lon="6.83767">
        <ele>1028</ele>
        <time>2026-08-04T11:40:02.132Z</time>
      </trkpt>
      <trkpt lat="45.90803" lon="6.83768">
        <ele>1028</ele>
        <time>2026-08-04T11:40:03.132Z</time>
      </trkpt>
      <trkpt lat="45.90801" lon="6.83768">
        <ele>1028</ele>
        <time>2026-08-04T11:40:04.132Z</time>
      </trkpt>
      <trkpt lat="45.90801" lon="6.83769">
        <ele>1029</ele>
        <time>2026-08-04T11:40:05.132Z</time>
      </trkpt>
      <trkpt lat="45.908" lon="6.83769">
        <ele>1028</ele>
        <time>2026-08-04T11:40:06.132Z</time>
      </trkpt>
      <trkpt lat="45.90799" lon="6.83769">
        <ele>1028</ele>
        <time>2026-08-04T11:40:07.132Z</time>
      </trkpt>
      <trkpt lat="45.90798" lon="6.8377">
        <ele>1028</ele>
        <time>2026-08-04T11:40:08.132Z</time>
      </trkpt>
      <trkpt lat="45.90797" lon="6.8377">
        <ele>1027</ele>
        <time>2026-08-04T11:40:09.132Z</time>
      </trkpt>
      <trkpt lat="45.90796" lon="6.8377">
        <ele>1026</ele>
        <time>2026-08-04T11:40:10.132Z</time>
      </trkpt>
      <trkpt lat="45.90795" lon="6.8377">
        <ele>1024</ele>
        <time>2026-08-04T11:40:11.132Z</time>
      </trkpt>
      <trkpt lat="45.90794" lon="6.8377">
        <ele>1023</ele>
        <time>2026-08-04T11:40:12.132Z</time>
      </trkpt>
      <trkpt lat="45.90793" lon="6.83769">
        <ele>1022</ele>
        <time>2026-08-04T11:40:13.132Z</time>
      </trkpt>
      <trkpt lat="45.90792" lon="6.83769">
        <ele>1020</ele>
        <time>2026-08-04T11:40:14.132Z</time>
      </trkpt>
      <trkpt lat="45.90791" lon="6.83768">
        <ele>1019</ele>
        <time>2026-08-04T11:40:15.132Z</time>
      </trkpt>
      <trkpt lat="45.9079" lon="6.83767">
        <ele>1018</ele>
        <time>2026-08-04T11:40:16.132Z</time>
      </trkpt>
      <trkpt lat="45.90789" lon="6.83766">
        <ele>1017</ele>
        <time>2026-08-04T11:40:17.132Z</time>
      </trkpt>
      <trkpt lat="45.90788" lon="6.83766">
        <ele>1016</ele>
        <time>2026-08-04T11:40:18.132Z</time>
      </trkpt>
      <trkpt lat="45.90788" lon="6.83765">
        <ele>1016</ele>
        <time>2026-08-04T11:40:19.132Z</time>
      </trkpt>
      <trkpt lat="45.90786" lon="6.83765">
        <ele>1015</ele>
        <time>2026-08-04T11:40:20.132Z</time>
      </trkpt>
      <trkpt lat="45.90785" lon="6.83764">
        <ele>1014</ele>
        <time>2026-08-04T11:40:21.132Z</time>
      </trkpt>
      <trkpt lat="45.90784" lon="6.83763">
        <ele>1014</ele>
        <time>2026-08-04T11:40:22.132Z</time>
      </trkpt>
      <trkpt lat="45.90783" lon="6.83763">
        <ele>1014</ele>
        <time>2026-08-04T11:40:23.132Z</time>
      </trkpt>
      <trkpt lat="45.90782" lon="6.83762">
        <ele>1014</ele>
        <time>2026-08-04T11:40:24.132Z</time>
      </trkpt>
      <trkpt lat="45.90781" lon="6.83761">
        <ele>1013</ele>
        <time>2026-08-04T11:40:25.132Z</time>
      </trkpt>
      <trkpt lat="45.9078" lon="6.8376">
        <ele>1013</ele>
        <time>2026-08-04T11:40:26.132Z</time>
      </trkpt>
      <trkpt lat="45.90779" lon="6.8376">
        <ele>1013</ele>
        <time>2026-08-04T11:40:27.132Z</time>
      </trkpt>
      <trkpt lat="45.90778" lon="6.83759">
        <ele>1013</ele>
        <time>2026-08-04T11:40:28.132Z</time>
      </trkpt>
      <trkpt lat="45.90777" lon="6.83759">
        <ele>1013</ele>
        <time>2026-08-04T11:40:29.132Z</time>
      </trkpt>
      <trkpt lat="45.90777" lon="6.83758">
        <ele>1013</ele>
        <time>2026-08-04T11:40:30.132Z</time>
      </trkpt>
      <trkpt lat="45.90776" lon="6.83757">
        <ele>1013</ele>
        <time>2026-08-04T11:40:31.132Z</time>
      </trkpt>
      <trkpt lat="45.90776" lon="6.83756">
        <ele>1013</ele>
        <time>2026-08-04T11:40:32.132Z</time>
      </trkpt>
      <trkpt lat="45.90776" lon="6.83754">
        <ele>1013</ele>
        <time>2026-08-04T11:40:33.132Z</time>
      </trkpt>
      <trkpt lat="45.90776" lon="6.83752">
        <ele>1013</ele>
        <time>2026-08-04T11:40:34.132Z</time>
      </trkpt>
      <trkpt lat="45.90776" lon="6.8375">
        <ele>1012</ele>
        <time>2026-08-04T11:40:35.132Z</time>
      </trkpt>
      <trkpt lat="45.90775" lon="6.83748">
        <ele>1012</ele>
        <time>2026-08-04T11:40:36.132Z</time>
      </trkpt>
      <trkpt lat="45.90775" lon="6.83745">
        <ele>1012</ele>
        <time>2026-08-04T11:40:37.132Z</time>
      </trkpt>
      <trkpt lat="45.90775" lon="6.83743">
        <ele>1011</ele>
        <time>2026-08-04T11:40:38.132Z</time>
      </trkpt>
      <trkpt lat="45.90775" lon="6.8374">
        <ele>1011</ele>
        <time>2026-08-04T11:40:39.132Z</time>
      </trkpt>
      <trkpt lat="45.90775" lon="6.83737">
        <ele>1010</ele>
        <time>2026-08-04T11:40:40.132Z</time>
      </trkpt>
      <trkpt lat="45.90774" lon="6.83735">
        <ele>1010</ele>
        <time>2026-08-04T11:40:41.132Z</time>
      </trkpt>
      <trkpt lat="45.90773" lon="6.83732">
        <ele>1010</ele>
        <time>2026-08-04T11:40:42.132Z</time>
      </trkpt>
      <trkpt lat="45.90772" lon="6.83729">
        <ele>1011</ele>
        <time>2026-08-04T11:40:43.132Z</time>
      </trkpt>
      <trkpt lat="45.90772" lon="6.83726">
        <ele>1011</ele>
        <time>2026-08-04T11:40:44.132Z</time>
      </trkpt>
      <trkpt lat="45.90773" lon="6.83723">
        <ele>1011</ele>
        <time>2026-08-04T11:40:45.132Z</time>
      </trkpt>
      <trkpt lat="45.90773" lon="6.83719">
        <ele>1011</ele>
        <time>2026-08-04T11:40:46.132Z</time>
      </trkpt>
      <trkpt lat="45.90773" lon="6.83716">
        <ele>1011</ele>
        <time>2026-08-04T11:40:47.132Z</time>
      </trkpt>
      <trkpt lat="45.90773" lon="6.83712">
        <ele>1010</ele>
        <time>2026-08-04T11:40:48.132Z</time>
      </trkpt>
      <trkpt lat="45.90774" lon="6.83709">
        <ele>1010</ele>
        <time>2026-08-04T11:40:49.132Z</time>
      </trkpt>
      <trkpt lat="45.90775" lon="6.83707">
        <ele>1010</ele>
        <time>2026-08-04T11:40:50.132Z</time>
      </trkpt>
      <trkpt lat="45.90775" lon="6.83704">
        <ele>1010</ele>
        <time>2026-08-04T11:40:51.132Z</time>
      </trkpt>
      <trkpt lat="45.90775" lon="6.83701">
        <ele>1011</ele>
        <time>2026-08-04T11:40:52.132Z</time>
      </trkpt>
      <trkpt lat="45.90776" lon="6.83699">
        <ele>1011</ele>
        <time>2026-08-04T11:40:53.132Z</time>
      </trkpt>
      <trkpt lat="45.90776" lon="6.83696">
        <ele>1011</ele>
        <time>2026-08-04T11:40:54.132Z</time>
      </trkpt>
      <trkpt lat="45.90776" lon="6.83693">
        <ele>1011</ele>
        <time>2026-08-04T11:40:55.132Z</time>
      </trkpt>
      <trkpt lat="45.90777" lon="6.83691">
        <ele>1011</ele>
        <time>2026-08-04T11:40:56.132Z</time>
      </trkpt>
      <trkpt lat="45.90777" lon="6.83688">
        <ele>1011</ele>
        <time>2026-08-04T11:40:57.132Z</time>
      </trkpt>
      <trkpt lat="45.90777" lon="6.83685">
        <ele>1011</ele>
        <time>2026-08-04T11:40:58.132Z</time>
      </trkpt>
      <trkpt lat="45.90777" lon="6.83683">
        <ele>1011</ele>
        <time>2026-08-04T11:40:59.132Z</time>
      </trkpt>
      <trkpt lat="45.90777" lon="6.83681">
        <ele>1011</ele>
        <time>2026-08-04T11:41:00.132Z</time>
      </trkpt>
      <trkpt lat="45.90778" lon="6.83679">
        <ele>1012</ele>
        <time>2026-08-04T11:41:01.132Z</time>
      </trkpt>
      <trkpt lat="45.90778" lon="6.83677">
        <ele>1012</ele>
        <time>2026-08-04T11:41:02.132Z</time>
      </trkpt>
      <trkpt lat="45.90779" lon="6.83675">
        <ele>1012</ele>
        <time>2026-08-04T11:41:03.132Z</time>
      </trkpt>
      <trkpt lat="45.90779" lon="6.83673">
        <ele>1012</ele>
        <time>2026-08-04T11:41:04.132Z</time>
      </trkpt>
      <trkpt lat="45.90779" lon="6.83671">
        <ele>1011</ele>
        <time>2026-08-04T11:41:05.132Z</time>
      </trkpt>
      <trkpt lat="45.9078" lon="6.83668">
        <ele>1011</ele>
        <time>2026-08-04T11:41:06.132Z</time>
      </trkpt>
      <trkpt lat="45.9078" lon="6.83666">
        <ele>1012</ele>
        <time>2026-08-04T11:41:07.132Z</time>
      </trkpt>
      <trkpt lat="45.9078" lon="6.83664">
        <ele>1012</ele>
        <time>2026-08-04T11:41:08.132Z</time>
      </trkpt>
      <trkpt lat="45.90779" lon="6.83661">
        <ele>1013</ele>
        <time>2026-08-04T11:41:09.132Z</time>
      </trkpt>
      <trkpt lat="45.9078" lon="6.83658">
        <ele>1013</ele>
        <time>2026-08-04T11:41:10.132Z</time>
      </trkpt>
      <trkpt lat="45.90781" lon="6.83656">
        <ele>1013</ele>
        <time>2026-08-04T11:41:11.132Z</time>
      </trkpt>
      <trkpt lat="45.90783" lon="6.83653">
        <ele>1014</ele>
        <time>2026-08-04T11:41:12.132Z</time>
      </trkpt>
      <trkpt lat="45.90783" lon="6.83651">
        <ele>1014</ele>
        <time>2026-08-04T11:41:13.132Z</time>
      </trkpt>
      <trkpt lat="45.90783" lon="6.83648">
        <ele>1014</ele>
        <time>2026-08-04T11:41:14.132Z</time>
      </trkpt>
      <trkpt lat="45.90783" lon="6.83646">
        <ele>1015</ele>
        <time>2026-08-04T11:41:15.132Z</time>
      </trkpt>
      <trkpt lat="45.90783" lon="6.83644">
        <ele>1015</ele>
        <time>2026-08-04T11:41:16.132Z</time>
      </trkpt>
      <trkpt lat="45.90783" lon="6.83641">
        <ele>1016</ele>
        <time>2026-08-04T11:41:17.132Z</time>
      </trkpt>
      <trkpt lat="45.90783" lon="6.83639">
        <ele>1016</ele>
        <time>2026-08-04T11:41:18.132Z</time>
      </trkpt>
      <trkpt lat="45.90783" lon="6.83636">
        <ele>1016</ele>
        <time>2026-08-04T11:41:19.132Z</time>
      </trkpt>
      <trkpt lat="45.90782" lon="6.83633">
        <ele>1017</ele>
        <time>2026-08-04T11:41:20.132Z</time>
      </trkpt>
      <trkpt lat="45.90781" lon="6.8363">
        <ele>1017</ele>
        <time>2026-08-04T11:41:21.132Z</time>
      </trkpt>
      <trkpt lat="45.90781" lon="6.83629">
        <ele>1017</ele>
        <time>2026-08-04T11:41:22.132Z</time>
      </trkpt>
      <trkpt lat="45.9078" lon="6.83626">
        <ele>1018</ele>
        <time>2026-08-04T11:41:23.132Z</time>
      </trkpt>
      <trkpt lat="45.90779" lon="6.83623">
        <ele>1018</ele>
        <time>2026-08-04T11:41:24.132Z</time>
      </trkpt>
      <trkpt lat="45.90779" lon="6.83621">
        <ele>1019</ele>
        <time>2026-08-04T11:41:25.132Z</time>
      </trkpt>
      <trkpt lat="45.90778" lon="6.83618">
        <ele>1020</ele>
        <time>2026-08-04T11:41:26.132Z</time>
      </trkpt>
      <trkpt lat="45.90777" lon="6.83616">
        <ele>1020</ele>
        <time>2026-08-04T11:41:27.132Z</time>
      </trkpt>
      <trkpt lat="45.90776" lon="6.83614">
        <ele>1021</ele>
        <time>2026-08-04T11:41:28.132Z</time>
      </trkpt>
      <trkpt lat="45.90776" lon="6.83611">
        <ele>1021</ele>
        <time>2026-08-04T11:41:29.132Z</time>
      </trkpt>
      <trkpt lat="45.90775" lon="6.83609">
        <ele>1021</ele>
        <time>2026-08-04T11:41:30.132Z</time>
      </trkpt>
      <trkpt lat="45.90773" lon="6.83607">
        <ele>1022</ele>
        <time>2026-08-04T11:41:31.132Z</time>
      </trkpt>
      <trkpt lat="45.90772" lon="6.83606">
        <ele>1022</ele>
        <time>2026-08-04T11:41:32.132Z</time>
      </trkpt>
      <trkpt lat="45.9077" lon="6.83605">
        <ele>1022</ele>
        <time>2026-08-04T11:41:33.132Z</time>
      </trkpt>
      <trkpt lat="45.90768" lon="6.83604">
        <ele>1023</ele>
        <time>2026-08-04T11:41:34.132Z</time>
      </trkpt>
      <trkpt lat="45.90767" lon="6.83603">
        <ele>1024</ele>
        <time>2026-08-04T11:41:35.132Z</time>
      </trkpt>
      <trkpt lat="45.90766" lon="6.83602">
        <ele>1024</ele>
        <time>2026-08-04T11:41:36.132Z</time>
      </trkpt>
      <trkpt lat="45.90766" lon="6.83601">
        <ele>1025</ele>
        <time>2026-08-04T11:41:37.132Z</time>
      </trkpt>
      <trkpt lat="45.90766" lon="6.836">
        <ele>1025</ele>
        <time>2026-08-04T11:41:38.132Z</time>
      </trkpt>
      <trkpt lat="45.90766" lon="6.83599">
        <ele>1026</ele>
        <time>2026-08-04T11:41:39.132Z</time>
      </trkpt>
      <trkpt lat="45.90765" lon="6.83598">
        <ele>1026</ele>
        <time>2026-08-04T11:41:40.132Z</time>
      </trkpt>
      <trkpt lat="45.90763" lon="6.83596">
        <ele>1026</ele>
        <time>2026-08-04T11:41:41.132Z</time>
      </trkpt>
      <trkpt lat="45.90761" lon="6.83595">
        <ele>1026</ele>
        <time>2026-08-04T11:41:42.132Z</time>
      </trkpt>
      <trkpt lat="45.90759" lon="6.83594">
        <ele>1026</ele>
        <time>2026-08-04T11:41:43.132Z</time>
      </trkpt>
      <trkpt lat="45.90757" lon="6.83593">
        <ele>1026</ele>
        <time>2026-08-04T11:41:44.132Z</time>
      </trkpt>
      <trkpt lat="45.90754" lon="6.83592">
        <ele>1026</ele>
        <time>2026-08-04T11:41:45.132Z</time>
      </trkpt>
      <trkpt lat="45.90752" lon="6.83591">
        <ele>1026</ele>
        <time>2026-08-04T11:41:46.132Z</time>
      </trkpt>
      <trkpt lat="45.90751" lon="6.8359">
        <ele>1026</ele>
        <time>2026-08-04T11:41:47.132Z</time>
      </trkpt>
      <trkpt lat="45.90749" lon="6.83589">
        <ele>1026</ele>
        <time>2026-08-04T11:41:48.132Z</time>
      </trkpt>
      <trkpt lat="45.90749" lon="6.83588">
        <ele>1026</ele>
        <time>2026-08-04T11:41:49.132Z</time>
      </trkpt>
      <trkpt lat="45.90748" lon="6.83587">
        <ele>1026</ele>
        <time>2026-08-04T11:41:50.132Z</time>
      </trkpt>
      <trkpt lat="45.90747" lon="6.83586">
        <ele>1026</ele>
        <time>2026-08-04T11:41:51.132Z</time>
      </trkpt>
      <trkpt lat="45.90745" lon="6.83584">
        <ele>1026</ele>
        <time>2026-08-04T11:41:52.132Z</time>
      </trkpt>
      <trkpt lat="45.90744" lon="6.83583">
        <ele>1025</ele>
        <time>2026-08-04T11:41:53.132Z</time>
      </trkpt>
      <trkpt lat="45.90742" lon="6.83582">
        <ele>1025</ele>
        <time>2026-08-04T11:41:54.132Z</time>
      </trkpt>
      <trkpt lat="45.90741" lon="6.83581">
        <ele>1025</ele>
        <time>2026-08-04T11:41:55.132Z</time>
      </trkpt>
      <trkpt lat="45.90739" lon="6.83579">
        <ele>1025</ele>
        <time>2026-08-04T11:41:56.132Z</time>
      </trkpt>
      <trkpt lat="45.90739" lon="6.83577">
        <ele>1025</ele>
        <time>2026-08-04T11:41:57.132Z</time>
      </trkpt>
      <trkpt lat="45.90736" lon="6.83575">
        <ele>1025</ele>
        <time>2026-08-04T11:41:58.132Z</time>
      </trkpt>
      <trkpt lat="45.90734" lon="6.83572">
        <ele>1025</ele>
        <time>2026-08-04T11:41:59.132Z</time>
      </trkpt>
      <trkpt lat="45.90732" lon="6.8357">
        <ele>1025</ele>
        <time>2026-08-04T11:42:00.132Z</time>
      </trkpt>
      <trkpt lat="45.90729" lon="6.83568">
        <ele>1025</ele>
        <time>2026-08-04T11:42:01.132Z</time>
      </trkpt>
      <trkpt lat="45.90727" lon="6.83567">
        <ele>1025</ele>
        <time>2026-08-04T11:42:02.132Z</time>
      </trkpt>
      <trkpt lat="45.90725" lon="6.83565">
        <ele>1025</ele>
        <time>2026-08-04T11:42:03.132Z</time>
      </trkpt>
      <trkpt lat="45.90723" lon="6.83562">
        <ele>1025</ele>
        <time>2026-08-04T11:42:04.132Z</time>
      </trkpt>
      <trkpt lat="45.90721" lon="6.83559">
        <ele>1025</ele>
        <time>2026-08-04T11:42:05.132Z</time>
      </trkpt>
      <trkpt lat="45.90719" lon="6.83556">
        <ele>1025</ele>
        <time>2026-08-04T11:42:06.133Z</time>
      </trkpt>
      <trkpt lat="45.90718" lon="6.83554">
        <ele>1025</ele>
        <time>2026-08-04T11:42:07.132Z</time>
      </trkpt>
      <trkpt lat="45.90716" lon="6.83552">
        <ele>1025</ele>
        <time>2026-08-04T11:42:08.132Z</time>
      </trkpt>
      <trkpt lat="45.90715" lon="6.8355">
        <ele>1025</ele>
        <time>2026-08-04T11:42:09.132Z</time>
      </trkpt>
      <trkpt lat="45.90713" lon="6.83548">
        <ele>1025</ele>
        <time>2026-08-04T11:42:10.132Z</time>
      </trkpt>
      <trkpt lat="45.90711" lon="6.83545">
        <ele>1025</ele>
        <time>2026-08-04T11:42:11.132Z</time>
      </trkpt>
      <trkpt lat="45.9071" lon="6.83541">
        <ele>1025</ele>
        <time>2026-08-04T11:42:12.132Z</time>
      </trkpt>
      <trkpt lat="45.90708" lon="6.83539">
        <ele>1025</ele>
        <time>2026-08-04T11:42:13.132Z</time>
      </trkpt>
      <trkpt lat="45.90707" lon="6.83538">
        <ele>1026</ele>
        <time>2026-08-04T11:42:14.132Z</time>
      </trkpt>
      <trkpt lat="45.90705" lon="6.83536">
        <ele>1026</ele>
        <time>2026-08-04T11:42:15.132Z</time>
      </trkpt>
      <trkpt lat="45.90703" lon="6.83535">
        <ele>1026</ele>
        <time>2026-08-04T11:42:16.132Z</time>
      </trkpt>
      <trkpt lat="45.90701" lon="6.83534">
        <ele>1026</ele>
        <time>2026-08-04T11:42:17.132Z</time>
      </trkpt>
      <trkpt lat="45.90698" lon="6.83532">
        <ele>1026</ele>
        <time>2026-08-04T11:42:18.132Z</time>
      </trkpt>
      <trkpt lat="45.90696" lon="6.8353">
        <ele>1026</ele>
        <time>2026-08-04T11:42:19.132Z</time>
      </trkpt>
      <trkpt lat="45.90694" lon="6.83528">
        <ele>1026</ele>
        <time>2026-08-04T11:42:20.132Z</time>
      </trkpt>
      <trkpt lat="45.90692" lon="6.83526">
        <ele>1026</ele>
        <time>2026-08-04T11:42:21.132Z</time>
      </trkpt>
      <trkpt lat="45.9069" lon="6.83524">
        <ele>1026</ele>
        <time>2026-08-04T11:42:22.132Z</time>
      </trkpt>
      <trkpt lat="45.90688" lon="6.83523">
        <ele>1026</ele>
        <time>2026-08-04T11:42:23.132Z</time>
      </trkpt>
      <trkpt lat="45.90686" lon="6.83521">
        <ele>1026</ele>
        <time>2026-08-04T11:42:24.132Z</time>
      </trkpt>
      <trkpt lat="45.90685" lon="6.83519">
        <ele>1026</ele>
        <time>2026-08-04T11:42:25.132Z</time>
      </trkpt>
      <trkpt lat="45.90683" lon="6.83516">
        <ele>1026</ele>
        <time>2026-08-04T11:42:26.132Z</time>
      </trkpt>
      <trkpt lat="45.90681" lon="6.83513">
        <ele>1025</ele>
        <time>2026-08-04T11:42:27.132Z</time>
      </trkpt>
      <trkpt lat="45.9068" lon="6.83511">
        <ele>1023</ele>
        <time>2026-08-04T11:42:28.132Z</time>
      </trkpt>
      <trkpt lat="45.90678" lon="6.83509">
        <ele>1022</ele>
        <time>2026-08-04T11:42:29.132Z</time>
      </trkpt>
      <trkpt lat="45.90677" lon="6.83508">
        <ele>1021</ele>
        <time>2026-08-04T11:42:30.132Z</time>
      </trkpt>
      <trkpt lat="45.90675" lon="6.83506">
        <ele>1020</ele>
        <time>2026-08-04T11:42:31.132Z</time>
      </trkpt>
      <trkpt lat="45.90674" lon="6.83504">
        <ele>1020</ele>
        <time>2026-08-04T11:42:32.132Z</time>
      </trkpt>
      <trkpt lat="45.90672" lon="6.83502">
        <ele>1019</ele>
        <time>2026-08-04T11:42:33.132Z</time>
      </trkpt>
      <trkpt lat="45.90671" lon="6.83501">
        <ele>1019</ele>
        <time>2026-08-04T11:42:34.132Z</time>
      </trkpt>
      <trkpt lat="45.9067" lon="6.83499">
        <ele>1018</ele>
        <time>2026-08-04T11:42:35.132Z</time>
      </trkpt>
      <trkpt lat="45.90669" lon="6.83498">
        <ele>1018</ele>
        <time>2026-08-04T11:42:36.132Z</time>
      </trkpt>
      <trkpt lat="45.90668" lon="6.83497">
        <ele>1017</ele>
        <time>2026-08-04T11:42:37.132Z</time>
      </trkpt>
      <trkpt lat="45.90667" lon="6.83495">
        <ele>1017</ele>
        <time>2026-08-04T11:42:38.132Z</time>
      </trkpt>
      <trkpt lat="45.90666" lon="6.83493">
        <ele>1017</ele>
        <time>2026-08-04T11:42:39.132Z</time>
      </trkpt>
      <trkpt lat="45.90665" lon="6.8349">
        <ele>1016</ele>
        <time>2026-08-04T11:42:40.132Z</time>
      </trkpt>
      <trkpt lat="45.90665" lon="6.83486">
        <ele>1016</ele>
        <time>2026-08-04T11:42:41.132Z</time>
      </trkpt>
      <trkpt lat="45.90663" lon="6.83483">
        <ele>1015</ele>
        <time>2026-08-04T11:42:42.132Z</time>
      </trkpt>
      <trkpt lat="45.90663" lon="6.8348">
        <ele>1015</ele>
        <time>2026-08-04T11:42:43.132Z</time>
      </trkpt>
      <trkpt lat="45.90662" lon="6.83477">
        <ele>1014</ele>
        <time>2026-08-04T11:42:44.132Z</time>
      </trkpt>
      <trkpt lat="45.90661" lon="6.83475">
        <ele>1014</ele>
        <time>2026-08-04T11:42:45.132Z</time>
      </trkpt>
      <trkpt lat="45.9066" lon="6.83473">
        <ele>1014</ele>
        <time>2026-08-04T11:42:46.132Z</time>
      </trkpt>
      <trkpt lat="45.90659" lon="6.8347">
        <ele>1014</ele>
        <time>2026-08-04T11:42:47.132Z</time>
      </trkpt>
      <trkpt lat="45.90658" lon="6.83468">
        <ele>1014</ele>
        <time>2026-08-04T11:42:48.132Z</time>
      </trkpt>
      <trkpt lat="45.90657" lon="6.83466">
        <ele>1014</ele>
        <time>2026-08-04T11:42:49.132Z</time>
      </trkpt>
      <trkpt lat="45.90656" lon="6.83463">
        <ele>1014</ele>
        <time>2026-08-04T11:42:50.132Z</time>
      </trkpt>
      <trkpt lat="45.90656" lon="6.83461">
        <ele>1014</ele>
        <time>2026-08-04T11:42:51.132Z</time>
      </trkpt>
      <trkpt lat="45.90656" lon="6.83458">
        <ele>1014</ele>
        <time>2026-08-04T11:42:52.132Z</time>
      </trkpt>
      <trkpt lat="45.90655" lon="6.83455">
        <ele>1014</ele>
        <time>2026-08-04T11:42:53.132Z</time>
      </trkpt>
      <trkpt lat="45.90655" lon="6.83452">
        <ele>1014</ele>
        <time>2026-08-04T11:42:54.132Z</time>
      </trkpt>
      <trkpt lat="45.90654" lon="6.8345">
        <ele>1013</ele>
        <time>2026-08-04T11:42:55.132Z</time>
      </trkpt>
      <trkpt lat="45.90654" lon="6.83447">
        <ele>1013</ele>
        <time>2026-08-04T11:42:56.132Z</time>
      </trkpt>
      <trkpt lat="45.90654" lon="6.83444">
        <ele>1013</ele>
        <time>2026-08-04T11:42:57.132Z</time>
      </trkpt>
      <trkpt lat="45.90654" lon="6.83442">
        <ele>1013</ele>
        <time>2026-08-04T11:42:58.132Z</time>
      </trkpt>
      <trkpt lat="45.90654" lon="6.83439">
        <ele>1013</ele>
        <time>2026-08-04T11:42:59.132Z</time>
      </trkpt>
      <trkpt lat="45.90654" lon="6.83437">
        <ele>1013</ele>
        <time>2026-08-04T11:43:00.132Z</time>
      </trkpt>
      <trkpt lat="45.90654" lon="6.83435">
        <ele>1013</ele>
        <time>2026-08-04T11:43:01.132Z</time>
      </trkpt>
      <trkpt lat="45.90655" lon="6.83434">
        <ele>1013</ele>
        <time>2026-08-04T11:43:02.132Z</time>
      </trkpt>
      <trkpt lat="45.90655" lon="6.83432">
        <ele>1013</ele>
        <time>2026-08-04T11:43:03.132Z</time>
      </trkpt>
      <trkpt lat="45.90656" lon="6.8343">
        <ele>1013</ele>
        <time>2026-08-04T11:43:04.132Z</time>
      </trkpt>
      <trkpt lat="45.90656" lon="6.83428">
        <ele>1013</ele>
        <time>2026-08-04T11:43:05.132Z</time>
      </trkpt>
      <trkpt lat="45.90656" lon="6.83426">
        <ele>1013</ele>
        <time>2026-08-04T11:43:06.132Z</time>
      </trkpt>
      <trkpt lat="45.90656" lon="6.83424">
        <ele>1013</ele>
        <time>2026-08-04T11:43:07.132Z</time>
      </trkpt>
      <trkpt lat="45.90656" lon="6.83422">
        <ele>1014</ele>
        <time>2026-08-04T11:43:08.132Z</time>
      </trkpt>
      <trkpt lat="45.90657" lon="6.83419">
        <ele>1014</ele>
        <time>2026-08-04T11:43:09.132Z</time>
      </trkpt>
      <trkpt lat="45.90656" lon="6.83417">
        <ele>1014</ele>
        <time>2026-08-04T11:43:10.132Z</time>
      </trkpt>
      <trkpt lat="45.90656" lon="6.83415">
        <ele>1014</ele>
        <time>2026-08-04T11:43:11.132Z</time>
      </trkpt>
      <trkpt lat="45.90655" lon="6.83413">
        <ele>1014</ele>
        <time>2026-08-04T11:43:12.132Z</time>
      </trkpt>
      <trkpt lat="45.90655" lon="6.83411">
        <ele>1015</ele>
        <time>2026-08-04T11:43:13.132Z</time>
      </trkpt>
      <trkpt lat="45.90655" lon="6.8341">
        <ele>1015</ele>
        <time>2026-08-04T11:43:14.132Z</time>
      </trkpt>
      <trkpt lat="45.90655" lon="6.83408">
        <ele>1015</ele>
        <time>2026-08-04T11:43:15.132Z</time>
      </trkpt>
      <trkpt lat="45.90655" lon="6.83406">
        <ele>1015</ele>
        <time>2026-08-04T11:43:16.132Z</time>
      </trkpt>
      <trkpt lat="45.90656" lon="6.83404">
        <ele>1015</ele>
        <time>2026-08-04T11:43:17.132Z</time>
      </trkpt>
      <trkpt lat="45.90656" lon="6.83403">
        <ele>1015</ele>
        <time>2026-08-04T11:43:18.132Z</time>
      </trkpt>
      <trkpt lat="45.90656" lon="6.83401">
        <ele>1015</ele>
        <time>2026-08-04T11:43:19.132Z</time>
      </trkpt>
      <trkpt lat="45.90656" lon="6.834">
        <ele>1016</ele>
        <time>2026-08-04T11:43:20.132Z</time>
      </trkpt>
      <trkpt lat="45.90656" lon="6.83398">
        <ele>1016</ele>
        <time>2026-08-04T11:43:21.132Z</time>
      </trkpt>
      <trkpt lat="45.90656" lon="6.83396">
        <ele>1016</ele>
        <time>2026-08-04T11:43:22.132Z</time>
      </trkpt>
      <trkpt lat="45.90656" lon="6.83394">
        <ele>1017</ele>
        <time>2026-08-04T11:43:23.132Z</time>
      </trkpt>
      <trkpt lat="45.90655" lon="6.83392">
        <ele>1016</ele>
        <time>2026-08-04T11:43:24.132Z</time>
      </trkpt>
      <trkpt lat="45.90655" lon="6.8339">
        <ele>1016</ele>
        <time>2026-08-04T11:43:25.132Z</time>
      </trkpt>
      <trkpt lat="45.90655" lon="6.83389">
        <ele>1017</ele>
        <time>2026-08-04T11:43:26.132Z</time>
      </trkpt>
      <trkpt lat="45.90655" lon="6.83387">
        <ele>1017</ele>
        <time>2026-08-04T11:43:27.132Z</time>
      </trkpt>
      <trkpt lat="45.90655" lon="6.83386">
        <ele>1017</ele>
        <time>2026-08-04T11:43:28.132Z</time>
      </trkpt>
      <trkpt lat="45.90655" lon="6.83384">
        <ele>1017</ele>
        <time>2026-08-04T11:43:29.132Z</time>
      </trkpt>
      <trkpt lat="45.90654" lon="6.83382">
        <ele>1017</ele>
        <time>2026-08-04T11:43:30.132Z</time>
      </trkpt>
      <trkpt lat="45.90654" lon="6.8338">
        <ele>1017</ele>
        <time>2026-08-04T11:43:31.132Z</time>
      </trkpt>
      <trkpt lat="45.90654" lon="6.83378">
        <ele>1017</ele>
        <time>2026-08-04T11:43:32.132Z</time>
      </trkpt>
      <trkpt lat="45.90653" lon="6.83376">
        <ele>1017</ele>
        <time>2026-08-04T11:43:33.132Z</time>
      </trkpt>
      <trkpt lat="45.90653" lon="6.83375">
        <ele>1016</ele>
        <time>2026-08-04T11:43:34.132Z</time>
      </trkpt>
      <trkpt lat="45.90653" lon="6.83373">
        <ele>1016</ele>
        <time>2026-08-04T11:43:35.132Z</time>
      </trkpt>
      <trkpt lat="45.90652" lon="6.83372">
        <ele>1017</ele>
        <time>2026-08-04T11:43:36.132Z</time>
      </trkpt>
      <trkpt lat="45.90651" lon="6.8337">
        <ele>1017</ele>
        <time>2026-08-04T11:43:37.132Z</time>
      </trkpt>
      <trkpt lat="45.9065" lon="6.83369">
        <ele>1017</ele>
        <time>2026-08-04T11:43:38.132Z</time>
      </trkpt>
      <trkpt lat="45.90649" lon="6.83367">
        <ele>1017</ele>
        <time>2026-08-04T11:43:39.132Z</time>
      </trkpt>
      <trkpt lat="45.90648" lon="6.83366">
        <ele>1017</ele>
        <time>2026-08-04T11:43:40.132Z</time>
      </trkpt>
      <trkpt lat="45.90647" lon="6.83364">
        <ele>1017</ele>
        <time>2026-08-04T11:43:41.132Z</time>
      </trkpt>
      <trkpt lat="45.90646" lon="6.83363">
        <ele>1017</ele>
        <time>2026-08-04T11:43:42.132Z</time>
      </trkpt>
      <trkpt lat="45.90645" lon="6.83363">
        <ele>1018</ele>
        <time>2026-08-04T11:43:43.132Z</time>
      </trkpt>
      <trkpt lat="45.90644" lon="6.83362">
        <ele>1018</ele>
        <time>2026-08-04T11:43:44.132Z</time>
      </trkpt>
      <trkpt lat="45.90643" lon="6.83361">
        <ele>1019</ele>
        <time>2026-08-04T11:43:45.132Z</time>
      </trkpt>
      <trkpt lat="45.90642" lon="6.83361">
        <ele>1019</ele>
        <time>2026-08-04T11:43:46.132Z</time>
      </trkpt>
      <trkpt lat="45.9064" lon="6.8336">
        <ele>1020</ele>
        <time>2026-08-04T11:43:47.132Z</time>
      </trkpt>
      <trkpt lat="45.90638" lon="6.8336">
        <ele>1020</ele>
        <time>2026-08-04T11:43:48.132Z</time>
      </trkpt>
      <trkpt lat="45.90637" lon="6.83359">
        <ele>1021</ele>
        <time>2026-08-04T11:43:49.132Z</time>
      </trkpt>
      <trkpt lat="45.90635" lon="6.83358">
        <ele>1022</ele>
        <time>2026-08-04T11:43:50.132Z</time>
      </trkpt>
      <trkpt lat="45.90634" lon="6.83357">
        <ele>1022</ele>
        <time>2026-08-04T11:43:51.132Z</time>
      </trkpt>
      <trkpt lat="45.90632" lon="6.83356">
        <ele>1022</ele>
        <time>2026-08-04T11:43:52.132Z</time>
      </trkpt>
      <trkpt lat="45.90631" lon="6.83356">
        <ele>1022</ele>
        <time>2026-08-04T11:43:53.132Z</time>
      </trkpt>
      <trkpt lat="45.9063" lon="6.83355">
        <ele>1022</ele>
        <time>2026-08-04T11:43:54.132Z</time>
      </trkpt>
      <trkpt lat="45.90629" lon="6.83354">
        <ele>1022</ele>
        <time>2026-08-04T11:43:55.132Z</time>
      </trkpt>
      <trkpt lat="45.90627" lon="6.83354">
        <ele>1022</ele>
        <time>2026-08-04T11:43:56.132Z</time>
      </trkpt>
      <trkpt lat="45.90626" lon="6.83353">
        <ele>1022</ele>
        <time>2026-08-04T11:43:57.132Z</time>
      </trkpt>
      <trkpt lat="45.90625" lon="6.83353">
        <ele>1023</ele>
        <time>2026-08-04T11:43:58.132Z</time>
      </trkpt>
      <trkpt lat="45.90623" lon="6.83353">
        <ele>1023</ele>
        <time>2026-08-04T11:43:59.132Z</time>
      </trkpt>
      <trkpt lat="45.90622" lon="6.83352">
        <ele>1024</ele>
        <time>2026-08-04T11:44:00.132Z</time>
      </trkpt>
      <trkpt lat="45.9062" lon="6.83353">
        <ele>1024</ele>
        <time>2026-08-04T11:44:01.132Z</time>
      </trkpt>
      <trkpt lat="45.90618" lon="6.83352">
        <ele>1025</ele>
        <time>2026-08-04T11:44:02.132Z</time>
      </trkpt>
      <trkpt lat="45.90617" lon="6.83351">
        <ele>1025</ele>
        <time>2026-08-04T11:44:03.132Z</time>
      </trkpt>
      <trkpt lat="45.90616" lon="6.83349">
        <ele>1025</ele>
        <time>2026-08-04T11:44:04.132Z</time>
      </trkpt>
      <trkpt lat="45.90616" lon="6.83348">
        <ele>1025</ele>
        <time>2026-08-04T11:44:05.132Z</time>
      </trkpt>
      <trkpt lat="45.90615" lon="6.83345">
        <ele>1025</ele>
        <time>2026-08-04T11:44:06.132Z</time>
      </trkpt>
      <trkpt lat="45.90614" lon="6.83343">
        <ele>1025</ele>
        <time>2026-08-04T11:44:07.132Z</time>
      </trkpt>
      <trkpt lat="45.90613" lon="6.83341">
        <ele>1025</ele>
        <time>2026-08-04T11:44:08.132Z</time>
      </trkpt>
      <trkpt lat="45.90612" lon="6.8334">
        <ele>1025</ele>
        <time>2026-08-04T11:44:09.132Z</time>
      </trkpt>
      <trkpt lat="45.90612" lon="6.83338">
        <ele>1026</ele>
        <time>2026-08-04T11:44:10.132Z</time>
      </trkpt>
      <trkpt lat="45.90611" lon="6.83337">
        <ele>1026</ele>
        <time>2026-08-04T11:44:11.132Z</time>
      </trkpt>
      <trkpt lat="45.9061" lon="6.83336">
        <ele>1026</ele>
        <time>2026-08-04T11:44:12.132Z</time>
      </trkpt>
      <trkpt lat="45.90609" lon="6.83335">
        <ele>1027</ele>
        <time>2026-08-04T11:44:13.132Z</time>
      </trkpt>
      <trkpt lat="45.90608" lon="6.83334">
        <ele>1027</ele>
        <time>2026-08-04T11:44:14.132Z</time>
      </trkpt>
      <trkpt lat="45.90607" lon="6.83333">
        <ele>1027</ele>
        <time>2026-08-04T11:44:15.132Z</time>
      </trkpt>
      <trkpt lat="45.90606" lon="6.83332">
        <ele>1027</ele>
        <time>2026-08-04T11:44:16.132Z</time>
      </trkpt>
      <trkpt lat="45.90604" lon="6.8333">
        <ele>1027</ele>
        <time>2026-08-04T11:44:17.132Z</time>
      </trkpt>
      <trkpt lat="45.90602" lon="6.83329">
        <ele>1027</ele>
        <time>2026-08-04T11:44:18.132Z</time>
      </trkpt>
      <trkpt lat="45.90601" lon="6.83328">
        <ele>1027</ele>
        <time>2026-08-04T11:44:19.132Z</time>
      </trkpt>
      <trkpt lat="45.90599" lon="6.83327">
        <ele>1027</ele>
        <time>2026-08-04T11:44:20.132Z</time>
      </trkpt>
      <trkpt lat="45.90597" lon="6.83325">
        <ele>1027</ele>
        <time>2026-08-04T11:44:21.132Z</time>
      </trkpt>
      <trkpt lat="45.90595" lon="6.83324">
        <ele>1027</ele>
        <time>2026-08-04T11:44:22.132Z</time>
      </trkpt>
      <trkpt lat="45.90593" lon="6.83323">
        <ele>1027</ele>
        <time>2026-08-04T11:44:23.132Z</time>
      </trkpt>
      <trkpt lat="45.90592" lon="6.83322">
        <ele>1028</ele>
        <time>2026-08-04T11:44:24.132Z</time>
      </trkpt>
      <trkpt lat="45.9059" lon="6.83321">
        <ele>1028</ele>
        <time>2026-08-04T11:44:25.132Z</time>
      </trkpt>
      <trkpt lat="45.90589" lon="6.83319">
        <ele>1027</ele>
        <time>2026-08-04T11:44:26.132Z</time>
      </trkpt>
      <trkpt lat="45.90588" lon="6.83318">
        <ele>1027</ele>
        <time>2026-08-04T11:44:27.132Z</time>
      </trkpt>
      <trkpt lat="45.90587" lon="6.83317">
        <ele>1027</ele>
        <time>2026-08-04T11:44:28.132Z</time>
      </trkpt>
      <trkpt lat="45.90585" lon="6.83316">
        <ele>1027</ele>
        <time>2026-08-04T11:44:29.132Z</time>
      </trkpt>
      <trkpt lat="45.90584" lon="6.83315">
        <ele>1027</ele>
        <time>2026-08-04T11:44:30.132Z</time>
      </trkpt>
      <trkpt lat="45.90582" lon="6.83314">
        <ele>1027</ele>
        <time>2026-08-04T11:44:31.132Z</time>
      </trkpt>
      <trkpt lat="45.90581" lon="6.83314">
        <ele>1027</ele>
        <time>2026-08-04T11:44:32.132Z</time>
      </trkpt>
      <trkpt lat="45.90579" lon="6.83313">
        <ele>1027</ele>
        <time>2026-08-04T11:44:33.132Z</time>
      </trkpt>
      <trkpt lat="45.90578" lon="6.83312">
        <ele>1026</ele>
        <time>2026-08-04T11:44:34.132Z</time>
      </trkpt>
      <trkpt lat="45.90576" lon="6.83311">
        <ele>1026</ele>
        <time>2026-08-04T11:44:35.132Z</time>
      </trkpt>
      <trkpt lat="45.90575" lon="6.8331">
        <ele>1026</ele>
        <time>2026-08-04T11:44:36.132Z</time>
      </trkpt>
      <trkpt lat="45.90573" lon="6.8331">
        <ele>1026</ele>
        <time>2026-08-04T11:44:37.132Z</time>
      </trkpt>
      <trkpt lat="45.90572" lon="6.83309">
        <ele>1026</ele>
        <time>2026-08-04T11:44:38.132Z</time>
      </trkpt>
      <trkpt lat="45.9057" lon="6.83307">
        <ele>1026</ele>
        <time>2026-08-04T11:44:39.132Z</time>
      </trkpt>
      <trkpt lat="45.90569" lon="6.83306">
        <ele>1026</ele>
        <time>2026-08-04T11:44:40.132Z</time>
      </trkpt>
      <trkpt lat="45.90567" lon="6.83305">
        <ele>1025</ele>
        <time>2026-08-04T11:44:41.132Z</time>
      </trkpt>
      <trkpt lat="45.90565" lon="6.83304">
        <ele>1025</ele>
        <time>2026-08-04T11:44:42.132Z</time>
      </trkpt>
      <trkpt lat="45.90564" lon="6.83303">
        <ele>1024</ele>
        <time>2026-08-04T11:44:43.132Z</time>
      </trkpt>
      <trkpt lat="45.90563" lon="6.83303">
        <ele>1024</ele>
        <time>2026-08-04T11:44:44.132Z</time>
      </trkpt>
      <trkpt lat="45.90562" lon="6.83302">
        <ele>1023</ele>
        <time>2026-08-04T11:44:45.132Z</time>
      </trkpt>
      <trkpt lat="45.90561" lon="6.83301">
        <ele>1023</ele>
        <time>2026-08-04T11:44:46.132Z</time>
      </trkpt>
      <trkpt lat="45.9056" lon="6.833">
        <ele>1022</ele>
        <time>2026-08-04T11:44:47.132Z</time>
      </trkpt>
      <trkpt lat="45.90559" lon="6.83299">
        <ele>1021</ele>
        <time>2026-08-04T11:44:48.132Z</time>
      </trkpt>
      <trkpt lat="45.90558" lon="6.83299">
        <ele>1021</ele>
        <time>2026-08-04T11:44:49.132Z</time>
      </trkpt>
      <trkpt lat="45.90557" lon="6.83298">
        <ele>1020</ele>
        <time>2026-08-04T11:44:50.132Z</time>
      </trkpt>
      <trkpt lat="45.90555" lon="6.83297">
        <ele>1020</ele>
        <time>2026-08-04T11:44:51.132Z</time>
      </trkpt>
      <trkpt lat="45.90554" lon="6.83296">
        <ele>1020</ele>
        <time>2026-08-04T11:44:52.132Z</time>
      </trkpt>
      <trkpt lat="45.90553" lon="6.83296">
        <ele>1020</ele>
        <time>2026-08-04T11:44:53.132Z</time>
      </trkpt>
      <trkpt lat="45.90551" lon="6.83294">
        <ele>1019</ele>
        <time>2026-08-04T11:44:54.132Z</time>
      </trkpt>
      <trkpt lat="45.90549" lon="6.83293">
        <ele>1019</ele>
        <time>2026-08-04T11:44:55.132Z</time>
      </trkpt>
      <trkpt lat="45.90548" lon="6.83292">
        <ele>1019</ele>
        <time>2026-08-04T11:44:56.132Z</time>
      </trkpt>
      <trkpt lat="45.90546" lon="6.83291">
        <ele>1019</ele>
        <time>2026-08-04T11:44:57.132Z</time>
      </trkpt>
      <trkpt lat="45.90545" lon="6.83289">
        <ele>1019</ele>
        <time>2026-08-04T11:44:58.132Z</time>
      </trkpt>
      <trkpt lat="45.90543" lon="6.83288">
        <ele>1019</ele>
        <time>2026-08-04T11:44:59.132Z</time>
      </trkpt>
      <trkpt lat="45.90541" lon="6.83286">
        <ele>1019</ele>
        <time>2026-08-04T11:45:00.132Z</time>
      </trkpt>
      <trkpt lat="45.9054" lon="6.83284">
        <ele>1019</ele>
        <time>2026-08-04T11:45:01.132Z</time>
      </trkpt>
      <trkpt lat="45.90538" lon="6.83282">
        <ele>1019</ele>
        <time>2026-08-04T11:45:02.132Z</time>
      </trkpt>
      <trkpt lat="45.90536" lon="6.83281">
        <ele>1019</ele>
        <time>2026-08-04T11:45:03.132Z</time>
      </trkpt>
      <trkpt lat="45.90534" lon="6.8328">
        <ele>1019</ele>
        <time>2026-08-04T11:45:04.132Z</time>
      </trkpt>
      <trkpt lat="45.90532" lon="6.83278">
        <ele>1019</ele>
        <time>2026-08-04T11:45:05.132Z</time>
      </trkpt>
      <trkpt lat="45.9053" lon="6.83277">
        <ele>1019</ele>
        <time>2026-08-04T11:45:06.132Z</time>
      </trkpt>
      <trkpt lat="45.90529" lon="6.83275">
        <ele>1019</ele>
        <time>2026-08-04T11:45:07.132Z</time>
      </trkpt>
      <trkpt lat="45.90528" lon="6.83272">
        <ele>1019</ele>
        <time>2026-08-04T11:45:08.132Z</time>
      </trkpt>
      <trkpt lat="45.90528" lon="6.8327">
        <ele>1018</ele>
        <time>2026-08-04T11:45:09.132Z</time>
      </trkpt>
      <trkpt lat="45.90527" lon="6.83268">
        <ele>1017</ele>
        <time>2026-08-04T11:45:10.132Z</time>
      </trkpt>
      <trkpt lat="45.90526" lon="6.83266">
        <ele>1016</ele>
        <time>2026-08-04T11:45:11.132Z</time>
      </trkpt>
      <trkpt lat="45.90525" lon="6.83265">
        <ele>1015</ele>
        <time>2026-08-04T11:45:12.132Z</time>
      </trkpt>
      <trkpt lat="45.90524" lon="6.83262">
        <ele>1014</ele>
        <time>2026-08-04T11:45:13.133Z</time>
      </trkpt>
      <trkpt lat="45.90524" lon="6.83259">
        <ele>1013</ele>
        <time>2026-08-04T11:45:14.132Z</time>
      </trkpt>
      <trkpt lat="45.90524" lon="6.83257">
        <ele>1012</ele>
        <time>2026-08-04T11:45:15.132Z</time>
      </trkpt>
      <trkpt lat="45.90523" lon="6.83255">
        <ele>1011</ele>
        <time>2026-08-04T11:45:16.132Z</time>
      </trkpt>
      <trkpt lat="45.90523" lon="6.83254">
        <ele>1011</ele>
        <time>2026-08-04T11:45:17.132Z</time>
      </trkpt>
      <trkpt lat="45.90522" lon="6.83252">
        <ele>1010</ele>
        <time>2026-08-04T11:45:18.132Z</time>
      </trkpt>
      <trkpt lat="45.90522" lon="6.8325">
        <ele>1009</ele>
        <time>2026-08-04T11:45:19.132Z</time>
      </trkpt>
      <trkpt lat="45.90522" lon="6.83249">
        <ele>1009</ele>
        <time>2026-08-04T11:45:20.132Z</time>
      </trkpt>
      <trkpt lat="45.90521" lon="6.83246">
        <ele>1009</ele>
        <time>2026-08-04T11:45:21.132Z</time>
      </trkpt>
      <trkpt lat="45.9052" lon="6.83244">
        <ele>1008</ele>
        <time>2026-08-04T11:45:22.132Z</time>
      </trkpt>
      <trkpt lat="45.9052" lon="6.83242">
        <ele>1008</ele>
        <time>2026-08-04T11:45:23.132Z</time>
      </trkpt>
      <trkpt lat="45.9052" lon="6.83241">
        <ele>1008</ele>
        <time>2026-08-04T11:45:24.132Z</time>
      </trkpt>
      <trkpt lat="45.9052" lon="6.8324">
        <ele>1008</ele>
        <time>2026-08-04T11:45:25.132Z</time>
      </trkpt>
      <trkpt lat="45.90519" lon="6.83239">
        <ele>1008</ele>
        <time>2026-08-04T11:45:26.132Z</time>
      </trkpt>
      <trkpt lat="45.90519" lon="6.83237">
        <ele>1008</ele>
        <time>2026-08-04T11:45:27.132Z</time>
      </trkpt>
      <trkpt lat="45.90518" lon="6.83236">
        <ele>1007</ele>
        <time>2026-08-04T11:45:28.132Z</time>
      </trkpt>
      <trkpt lat="45.90518" lon="6.83235">
        <ele>1007</ele>
        <time>2026-08-04T11:45:29.133Z</time>
      </trkpt>
      <trkpt lat="45.90518" lon="6.83234">
        <ele>1007</ele>
        <time>2026-08-04T11:45:30.132Z</time>
      </trkpt>
      <trkpt lat="45.90517" lon="6.83233">
        <ele>1007</ele>
        <time>2026-08-04T11:45:31.132Z</time>
      </trkpt>
      <trkpt lat="45.90517" lon="6.83232">
        <ele>1007</ele>
        <time>2026-08-04T11:45:32.132Z</time>
      </trkpt>
      <trkpt lat="45.90516" lon="6.83229">
        <ele>1008</ele>
        <time>2026-08-04T11:45:33.132Z</time>
      </trkpt>
      <trkpt lat="45.90515" lon="6.83228">
        <ele>1008</ele>
        <time>2026-08-04T11:45:34.132Z</time>
      </trkpt>
      <trkpt lat="45.90514" lon="6.83227">
        <ele>1009</ele>
        <time>2026-08-04T11:45:35.132Z</time>
      </trkpt>
      <trkpt lat="45.90513" lon="6.83225">
        <ele>1010</ele>
        <time>2026-08-04T11:45:36.132Z</time>
      </trkpt>
      <trkpt lat="45.90512" lon="6.83223">
        <ele>1011</ele>
        <time>2026-08-04T11:45:37.132Z</time>
      </trkpt>
      <trkpt lat="45.90511" lon="6.83221">
        <ele>1011</ele>
        <time>2026-08-04T11:45:38.132Z</time>
      </trkpt>
      <trkpt lat="45.9051" lon="6.83219">
        <ele>1012</ele>
        <time>2026-08-04T11:45:39.132Z</time>
      </trkpt>
      <trkpt lat="45.9051" lon="6.83218">
        <ele>1012</ele>
        <time>2026-08-04T11:45:40.132Z</time>
      </trkpt>
      <trkpt lat="45.90509" lon="6.83217">
        <ele>1013</ele>
        <time>2026-08-04T11:45:41.132Z</time>
      </trkpt>
      <trkpt lat="45.90508" lon="6.83216">
        <ele>1014</ele>
        <time>2026-08-04T11:45:42.132Z</time>
      </trkpt>
      <trkpt lat="45.90508" lon="6.83215">
        <ele>1015</ele>
        <time>2026-08-04T11:45:43.132Z</time>
      </trkpt>
      <trkpt lat="45.90507" lon="6.83214">
        <ele>1016</ele>
        <time>2026-08-04T11:45:44.132Z</time>
      </trkpt>
      <trkpt lat="45.90506" lon="6.83213">
        <ele>1016</ele>
        <time>2026-08-04T11:45:45.132Z</time>
      </trkpt>
      <trkpt lat="45.90505" lon="6.83212">
        <ele>1016</ele>
        <time>2026-08-04T11:45:46.132Z</time>
      </trkpt>
      <trkpt lat="45.90505" lon="6.8321">
        <ele>1016</ele>
        <time>2026-08-04T11:45:47.132Z</time>
      </trkpt>
      <trkpt lat="45.90504" lon="6.83209">
        <ele>1016</ele>
        <time>2026-08-04T11:45:48.132Z</time>
      </trkpt>
      <trkpt lat="45.90504" lon="6.83207">
        <ele>1016</ele>
        <time>2026-08-04T11:45:49.132Z</time>
      </trkpt>
      <trkpt lat="45.90503" lon="6.83205">
        <ele>1016</ele>
        <time>2026-08-04T11:45:50.132Z</time>
      </trkpt>
      <trkpt lat="45.90502" lon="6.83204">
        <ele>1017</ele>
        <time>2026-08-04T11:45:51.132Z</time>
      </trkpt>
      <trkpt lat="45.90501" lon="6.83202">
        <ele>1017</ele>
        <time>2026-08-04T11:45:52.132Z</time>
      </trkpt>
      <trkpt lat="45.905" lon="6.83201">
        <ele>1017</ele>
        <time>2026-08-04T11:45:53.132Z</time>
      </trkpt>
      <trkpt lat="45.905" lon="6.832">
        <ele>1018</ele>
        <time>2026-08-04T11:45:54.132Z</time>
      </trkpt>
      <trkpt lat="45.90499" lon="6.83199">
        <ele>1018</ele>
        <time>2026-08-04T11:45:55.132Z</time>
      </trkpt>
      <trkpt lat="45.90498" lon="6.83196">
        <ele>1019</ele>
        <time>2026-08-04T11:45:56.133Z</time>
      </trkpt>
      <trkpt lat="45.90497" lon="6.83195">
        <ele>1019</ele>
        <time>2026-08-04T11:45:57.132Z</time>
      </trkpt>
      <trkpt lat="45.90497" lon="6.83193">
        <ele>1020</ele>
        <time>2026-08-04T11:45:58.132Z</time>
      </trkpt>
      <trkpt lat="45.90496" lon="6.83192">
        <ele>1020</ele>
        <time>2026-08-04T11:45:59.132Z</time>
      </trkpt>
      <trkpt lat="45.90496" lon="6.83191">
        <ele>1021</ele>
        <time>2026-08-04T11:46:00.132Z</time>
      </trkpt>
      <trkpt lat="45.90495" lon="6.8319">
        <ele>1022</ele>
        <time>2026-08-04T11:46:01.132Z</time>
      </trkpt>
      <trkpt lat="45.90495" lon="6.83188">
        <ele>1023</ele>
        <time>2026-08-04T11:46:02.132Z</time>
      </trkpt>
      <trkpt lat="45.90496" lon="6.83187">
        <ele>1023</ele>
        <time>2026-08-04T11:46:03.132Z</time>
      </trkpt>
      <trkpt lat="45.90496" lon="6.83185">
        <ele>1024</ele>
        <time>2026-08-04T11:46:04.132Z</time>
      </trkpt>
      <trkpt lat="45.90495" lon="6.83183">
        <ele>1024</ele>
        <time>2026-08-04T11:46:05.132Z</time>
      </trkpt>
      <trkpt lat="45.90496" lon="6.8318">
        <ele>1025</ele>
        <time>2026-08-04T11:46:06.132Z</time>
      </trkpt>
      <trkpt lat="45.90496" lon="6.83178">
        <ele>1026</ele>
        <time>2026-08-04T11:46:07.132Z</time>
      </trkpt>
      <trkpt lat="45.90496" lon="6.83176">
        <ele>1026</ele>
        <time>2026-08-04T11:46:08.132Z</time>
      </trkpt>
      <trkpt lat="45.90496" lon="6.83174">
        <ele>1027</ele>
        <time>2026-08-04T11:46:09.132Z</time>
      </trkpt>
      <trkpt lat="45.90495" lon="6.83172">
        <ele>1027</ele>
        <time>2026-08-04T11:46:10.132Z</time>
      </trkpt>
      <trkpt lat="45.90496" lon="6.8317">
        <ele>1027</ele>
        <time>2026-08-04T11:46:11.132Z</time>
      </trkpt>
      <trkpt lat="45.90496" lon="6.83168">
        <ele>1027</ele>
        <time>2026-08-04T11:46:12.132Z</time>
      </trkpt>
      <trkpt lat="45.90495" lon="6.83166">
        <ele>1027</ele>
        <time>2026-08-04T11:46:13.132Z</time>
      </trkpt>
      <trkpt lat="45.90495" lon="6.83165">
        <ele>1027</ele>
        <time>2026-08-04T11:46:14.132Z</time>
      </trkpt>
      <trkpt lat="45.90495" lon="6.83164">
        <ele>1027</ele>
        <time>2026-08-04T11:46:15.132Z</time>
      </trkpt>
      <trkpt lat="45.90496" lon="6.83162">
        <ele>1027</ele>
        <time>2026-08-04T11:46:16.132Z</time>
      </trkpt>
      <trkpt lat="45.90497" lon="6.83161">
        <ele>1026</ele>
        <time>2026-08-04T11:46:17.132Z</time>
      </trkpt>
      <trkpt lat="45.90498" lon="6.8316">
        <ele>1026</ele>
        <time>2026-08-04T11:46:18.132Z</time>
      </trkpt>
      <trkpt lat="45.90498" lon="6.83159">
        <ele>1025</ele>
        <time>2026-08-04T11:46:19.132Z</time>
      </trkpt>
      <trkpt lat="45.90498" lon="6.83158">
        <ele>1025</ele>
        <time>2026-08-04T11:46:20.132Z</time>
      </trkpt>
      <trkpt lat="45.90498" lon="6.83159">
        <ele>1025</ele>
        <time>2026-08-04T11:46:21.132Z</time>
      </trkpt>
      <trkpt lat="45.90498" lon="6.83159">
        <ele>1024</ele>
        <time>2026-08-04T11:46:22.132Z</time>
      </trkpt>
      <trkpt lat="45.90498" lon="6.83159">
        <ele>1024</ele>
        <time>2026-08-04T11:46:23.132Z</time>
      </trkpt>
      <trkpt lat="45.90497" lon="6.83157">
        <ele>1023</ele>
        <time>2026-08-04T11:46:24.132Z</time>
      </trkpt>
      <trkpt lat="45.90496" lon="6.83156">
        <ele>1023</ele>
        <time>2026-08-04T11:46:25.132Z</time>
      </trkpt>
      <trkpt lat="45.90495" lon="6.83154">
        <ele>1023</ele>
        <time>2026-08-04T11:46:26.132Z</time>
      </trkpt>
      <trkpt lat="45.90494" lon="6.83153">
        <ele>1023</ele>
        <time>2026-08-04T11:46:27.132Z</time>
      </trkpt>
      <trkpt lat="45.90492" lon="6.8315">
        <ele>1023</ele>
        <time>2026-08-04T11:46:28.132Z</time>
      </trkpt>
      <trkpt lat="45.90491" lon="6.83148">
        <ele>1023</ele>
        <time>2026-08-04T11:46:29.132Z</time>
      </trkpt>
      <trkpt lat="45.9049" lon="6.83146">
        <ele>1022</ele>
        <time>2026-08-04T11:46:30.132Z</time>
      </trkpt>
      <trkpt lat="45.90489" lon="6.83144">
        <ele>1022</ele>
        <time>2026-08-04T11:46:31.132Z</time>
      </trkpt>
      <trkpt lat="45.90487" lon="6.83143">
        <ele>1022</ele>
        <time>2026-08-04T11:46:32.132Z</time>
      </trkpt>
      <trkpt lat="45.90485" lon="6.83141">
        <ele>1022</ele>
        <time>2026-08-04T11:46:33.132Z</time>
      </trkpt>
      <trkpt lat="45.90483" lon="6.8314">
        <ele>1022</ele>
        <time>2026-08-04T11:46:34.132Z</time>
      </trkpt>
      <trkpt lat="45.90482" lon="6.83138">
        <ele>1022</ele>
        <time>2026-08-04T11:46:35.132Z</time>
      </trkpt>
      <trkpt lat="45.9048" lon="6.83136">
        <ele>1022</ele>
        <time>2026-08-04T11:46:36.132Z</time>
      </trkpt>
      <trkpt lat="45.90478" lon="6.83135">
        <ele>1022</ele>
        <time>2026-08-04T11:46:37.132Z</time>
      </trkpt>
      <trkpt lat="45.90476" lon="6.83133">
        <ele>1022</ele>
        <time>2026-08-04T11:46:38.132Z</time>
      </trkpt>
      <trkpt lat="45.90474" lon="6.83132">
        <ele>1022</ele>
        <time>2026-08-04T11:46:39.132Z</time>
      </trkpt>
      <trkpt lat="45.90472" lon="6.8313">
        <ele>1022</ele>
        <time>2026-08-04T11:46:40.132Z</time>
      </trkpt>
      <trkpt lat="45.90471" lon="6.83128">
        <ele>1022</ele>
        <time>2026-08-04T11:46:41.132Z</time>
      </trkpt>
      <trkpt lat="45.90469" lon="6.83126">
        <ele>1022</ele>
        <time>2026-08-04T11:46:42.132Z</time>
      </trkpt>
      <trkpt lat="45.90467" lon="6.83124">
        <ele>1022</ele>
        <time>2026-08-04T11:46:43.132Z</time>
      </trkpt>
      <trkpt lat="45.90466" lon="6.83122">
        <ele>1022</ele>
        <time>2026-08-04T11:46:44.132Z</time>
      </trkpt>
      <trkpt lat="45.90464" lon="6.83119">
        <ele>1022</ele>
        <time>2026-08-04T11:46:45.132Z</time>
      </trkpt>
      <trkpt lat="45.90463" lon="6.83117">
        <ele>1022</ele>
        <time>2026-08-04T11:46:46.132Z</time>
      </trkpt>
      <trkpt lat="45.90462" lon="6.83115">
        <ele>1022</ele>
        <time>2026-08-04T11:46:47.132Z</time>
      </trkpt>
      <trkpt lat="45.9046" lon="6.83113">
        <ele>1021</ele>
        <time>2026-08-04T11:46:48.132Z</time>
      </trkpt>
      <trkpt lat="45.90458" lon="6.83111">
        <ele>1021</ele>
        <time>2026-08-04T11:46:49.132Z</time>
      </trkpt>
      <trkpt lat="45.90457" lon="6.83108">
        <ele>1021</ele>
        <time>2026-08-04T11:46:50.132Z</time>
      </trkpt>
      <trkpt lat="45.90455" lon="6.83106">
        <ele>1021</ele>
        <time>2026-08-04T11:46:51.132Z</time>
      </trkpt>
      <trkpt lat="45.90454" lon="6.83104">
        <ele>1021</ele>
        <time>2026-08-04T11:46:52.132Z</time>
      </trkpt>
      <trkpt lat="45.90452" lon="6.83101">
        <ele>1021</ele>
        <time>2026-08-04T11:46:53.132Z</time>
      </trkpt>
      <trkpt lat="45.90451" lon="6.83097">
        <ele>1022</ele>
        <time>2026-08-04T11:46:54.132Z</time>
      </trkpt>
      <trkpt lat="45.9045" lon="6.83094">
        <ele>1022</ele>
        <time>2026-08-04T11:46:55.132Z</time>
      </trkpt>
      <trkpt lat="45.90448" lon="6.83092">
        <ele>1022</ele>
        <time>2026-08-04T11:46:56.132Z</time>
      </trkpt>
      <trkpt lat="45.90446" lon="6.8309">
        <ele>1022</ele>
        <time>2026-08-04T11:46:57.132Z</time>
      </trkpt>
      <trkpt lat="45.90445" lon="6.83087">
        <ele>1022</ele>
        <time>2026-08-04T11:46:58.132Z</time>
      </trkpt>
      <trkpt lat="45.90444" lon="6.83083">
        <ele>1022</ele>
        <time>2026-08-04T11:46:59.132Z</time>
      </trkpt>
      <trkpt lat="45.90443" lon="6.83079">
        <ele>1022</ele>
        <time>2026-08-04T11:47:00.132Z</time>
      </trkpt>
      <trkpt lat="45.90442" lon="6.83076">
        <ele>1022</ele>
        <time>2026-08-04T11:47:01.132Z</time>
      </trkpt>
      <trkpt lat="45.9044" lon="6.83073">
        <ele>1022</ele>
        <time>2026-08-04T11:47:02.132Z</time>
      </trkpt>
      <trkpt lat="45.90439" lon="6.83069">
        <ele>1022</ele>
        <time>2026-08-04T11:47:03.132Z</time>
      </trkpt>
      <trkpt lat="45.90438" lon="6.83066">
        <ele>1022</ele>
        <time>2026-08-04T11:47:04.132Z</time>
      </trkpt>
      <trkpt lat="45.90436" lon="6.83063">
        <ele>1022</ele>
        <time>2026-08-04T11:47:05.132Z</time>
      </trkpt>
      <trkpt lat="45.90434" lon="6.83061">
        <ele>1022</ele>
        <time>2026-08-04T11:47:06.132Z</time>
      </trkpt>
      <trkpt lat="45.90432" lon="6.83059">
        <ele>1022</ele>
        <time>2026-08-04T11:47:07.132Z</time>
      </trkpt>
      <trkpt lat="45.90431" lon="6.83057">
        <ele>1022</ele>
        <time>2026-08-04T11:47:08.132Z</time>
      </trkpt>
      <trkpt lat="45.90429" lon="6.83055">
        <ele>1022</ele>
        <time>2026-08-04T11:47:09.132Z</time>
      </trkpt>
      <trkpt lat="45.90427" lon="6.83053">
        <ele>1021</ele>
        <time>2026-08-04T11:47:10.132Z</time>
      </trkpt>
      <trkpt lat="45.90426" lon="6.8305">
        <ele>1021</ele>
        <time>2026-08-04T11:47:11.132Z</time>
      </trkpt>
      <trkpt lat="45.90425" lon="6.83048">
        <ele>1021</ele>
        <time>2026-08-04T11:47:12.132Z</time>
      </trkpt>
      <trkpt lat="45.90423" lon="6.83046">
        <ele>1021</ele>
        <time>2026-08-04T11:47:13.132Z</time>
      </trkpt>
      <trkpt lat="45.90422" lon="6.83044">
        <ele>1021</ele>
        <time>2026-08-04T11:47:14.132Z</time>
      </trkpt>
      <trkpt lat="45.90421" lon="6.8304">
        <ele>1020</ele>
        <time>2026-08-04T11:47:15.132Z</time>
      </trkpt>
      <trkpt lat="45.9042" lon="6.83038">
        <ele>1020</ele>
        <time>2026-08-04T11:47:16.132Z</time>
      </trkpt>
      <trkpt lat="45.90418" lon="6.83036">
        <ele>1020</ele>
        <time>2026-08-04T11:47:17.132Z</time>
      </trkpt>
      <trkpt lat="45.90416" lon="6.83033">
        <ele>1020</ele>
        <time>2026-08-04T11:47:18.132Z</time>
      </trkpt>
      <trkpt lat="45.90415" lon="6.83032">
        <ele>1020</ele>
        <time>2026-08-04T11:47:19.132Z</time>
      </trkpt>
      <trkpt lat="45.90414" lon="6.8303">
        <ele>1020</ele>
        <time>2026-08-04T11:47:20.132Z</time>
      </trkpt>
      <trkpt lat="45.90413" lon="6.83029">
        <ele>1020</ele>
        <time>2026-08-04T11:47:21.132Z</time>
      </trkpt>
      <trkpt lat="45.90411" lon="6.83027">
        <ele>1020</ele>
        <time>2026-08-04T11:47:22.132Z</time>
      </trkpt>
      <trkpt lat="45.90409" lon="6.83025">
        <ele>1020</ele>
        <time>2026-08-04T11:47:23.132Z</time>
      </trkpt>
      <trkpt lat="45.90408" lon="6.83023">
        <ele>1020</ele>
        <time>2026-08-04T11:47:24.132Z</time>
      </trkpt>
      <trkpt lat="45.90406" lon="6.83021">
        <ele>1020</ele>
        <time>2026-08-04T11:47:25.132Z</time>
      </trkpt>
      <trkpt lat="45.90404" lon="6.83019">
        <ele>1021</ele>
        <time>2026-08-04T11:47:26.132Z</time>
      </trkpt>
      <trkpt lat="45.90402" lon="6.83017">
        <ele>1021</ele>
        <time>2026-08-04T11:47:27.132Z</time>
      </trkpt>
      <trkpt lat="45.90401" lon="6.83015">
        <ele>1022</ele>
        <time>2026-08-04T11:47:28.132Z</time>
      </trkpt>
      <trkpt lat="45.904" lon="6.83014">
        <ele>1022</ele>
        <time>2026-08-04T11:47:29.132Z</time>
      </trkpt>
      <trkpt lat="45.90399" lon="6.83013">
        <ele>1023</ele>
        <time>2026-08-04T11:47:30.132Z</time>
      </trkpt>
      <trkpt lat="45.90398" lon="6.83012">
        <ele>1023</ele>
        <time>2026-08-04T11:47:31.132Z</time>
      </trkpt>
      <trkpt lat="45.90397" lon="6.8301">
        <ele>1023</ele>
        <time>2026-08-04T11:47:32.132Z</time>
      </trkpt>
      <trkpt lat="45.90396" lon="6.83008">
        <ele>1023</ele>
        <time>2026-08-04T11:47:33.132Z</time>
      </trkpt>
      <trkpt lat="45.90395" lon="6.83006">
        <ele>1023</ele>
        <time>2026-08-04T11:47:34.132Z</time>
      </trkpt>
      <trkpt lat="45.90393" lon="6.83004">
        <ele>1023</ele>
        <time>2026-08-04T11:47:35.132Z</time>
      </trkpt>
      <trkpt lat="45.90392" lon="6.83003">
        <ele>1023</ele>
        <time>2026-08-04T11:47:36.132Z</time>
      </trkpt>
      <trkpt lat="45.9039" lon="6.83002">
        <ele>1023</ele>
        <time>2026-08-04T11:47:37.132Z</time>
      </trkpt>
      <trkpt lat="45.90388" lon="6.83001">
        <ele>1023</ele>
        <time>2026-08-04T11:47:38.132Z</time>
      </trkpt>
      <trkpt lat="45.90386" lon="6.83">
        <ele>1023</ele>
        <time>2026-08-04T11:47:39.132Z</time>
      </trkpt>
      <trkpt lat="45.90385" lon="6.82999">
        <ele>1023</ele>
        <time>2026-08-04T11:47:40.132Z</time>
      </trkpt>
      <trkpt lat="45.90383" lon="6.82997">
        <ele>1023</ele>
        <time>2026-08-04T11:47:41.132Z</time>
      </trkpt>
      <trkpt lat="45.90382" lon="6.82996">
        <ele>1023</ele>
        <time>2026-08-04T11:47:42.132Z</time>
      </trkpt>
      <trkpt lat="45.9038" lon="6.82995">
        <ele>1022</ele>
        <time>2026-08-04T11:47:43.132Z</time>
      </trkpt>
      <trkpt lat="45.90379" lon="6.82993">
        <ele>1022</ele>
        <time>2026-08-04T11:47:44.132Z</time>
      </trkpt>
      <trkpt lat="45.90377" lon="6.82992">
        <ele>1021</ele>
        <time>2026-08-04T11:47:45.132Z</time>
      </trkpt>
      <trkpt lat="45.90375" lon="6.8299">
        <ele>1021</ele>
        <time>2026-08-04T11:47:46.132Z</time>
      </trkpt>
      <trkpt lat="45.90374" lon="6.82989">
        <ele>1021</ele>
        <time>2026-08-04T11:47:47.132Z</time>
      </trkpt>
      <trkpt lat="45.90372" lon="6.82987">
        <ele>1021</ele>
        <time>2026-08-04T11:47:48.132Z</time>
      </trkpt>
      <trkpt lat="45.9037" lon="6.82986">
        <ele>1020</ele>
        <time>2026-08-04T11:47:49.132Z</time>
      </trkpt>
      <trkpt lat="45.90368" lon="6.82983">
        <ele>1020</ele>
        <time>2026-08-04T11:47:50.132Z</time>
      </trkpt>
      <trkpt lat="45.90366" lon="6.82981">
        <ele>1020</ele>
        <time>2026-08-04T11:47:51.132Z</time>
      </trkpt>
      <trkpt lat="45.90365" lon="6.82979">
        <ele>1020</ele>
        <time>2026-08-04T11:47:52.132Z</time>
      </trkpt>
      <trkpt lat="45.90363" lon="6.82978">
        <ele>1020</ele>
        <time>2026-08-04T11:47:53.132Z</time>
      </trkpt>
      <trkpt lat="45.90361" lon="6.82976">
        <ele>1021</ele>
        <time>2026-08-04T11:47:54.132Z</time>
      </trkpt>
      <trkpt lat="45.90359" lon="6.82975">
        <ele>1021</ele>
        <time>2026-08-04T11:47:55.132Z</time>
      </trkpt>
      <trkpt lat="45.90357" lon="6.82974">
        <ele>1021</ele>
        <time>2026-08-04T11:47:56.132Z</time>
      </trkpt>
      <trkpt lat="45.90355" lon="6.82972">
        <ele>1021</ele>
        <time>2026-08-04T11:47:57.132Z</time>
      </trkpt>
      <trkpt lat="45.90353" lon="6.8297">
        <ele>1021</ele>
        <time>2026-08-04T11:47:58.132Z</time>
      </trkpt>
      <trkpt lat="45.90352" lon="6.82968">
        <ele>1020</ele>
        <time>2026-08-04T11:47:59.132Z</time>
      </trkpt>
      <trkpt lat="45.9035" lon="6.82965">
        <ele>1020</ele>
        <time>2026-08-04T11:48:00.132Z</time>
      </trkpt>
      <trkpt lat="45.90348" lon="6.82964">
        <ele>1020</ele>
        <time>2026-08-04T11:48:01.132Z</time>
      </trkpt>
      <trkpt lat="45.90347" lon="6.82962">
        <ele>1020</ele>
        <time>2026-08-04T11:48:02.132Z</time>
      </trkpt>
      <trkpt lat="45.90345" lon="6.8296">
        <ele>1019</ele>
        <time>2026-08-04T11:48:03.132Z</time>
      </trkpt>
      <trkpt lat="45.90343" lon="6.82959">
        <ele>1019</ele>
        <time>2026-08-04T11:48:04.132Z</time>
      </trkpt>
      <trkpt lat="45.90342" lon="6.82957">
        <ele>1019</ele>
        <time>2026-08-04T11:48:05.132Z</time>
      </trkpt>
      <trkpt lat="45.9034" lon="6.82955">
        <ele>1019</ele>
        <time>2026-08-04T11:48:06.132Z</time>
      </trkpt>
      <trkpt lat="45.90339" lon="6.82954">
        <ele>1018</ele>
        <time>2026-08-04T11:48:07.132Z</time>
      </trkpt>
      <trkpt lat="45.90337" lon="6.82953">
        <ele>1019</ele>
        <time>2026-08-04T11:48:08.132Z</time>
      </trkpt>
      <trkpt lat="45.90335" lon="6.82952">
        <ele>1019</ele>
        <time>2026-08-04T11:48:09.132Z</time>
      </trkpt>
      <trkpt lat="45.90334" lon="6.82951">
        <ele>1019</ele>
        <time>2026-08-04T11:48:10.132Z</time>
      </trkpt>
      <trkpt lat="45.90332" lon="6.8295">
        <ele>1019</ele>
        <time>2026-08-04T11:48:11.132Z</time>
      </trkpt>
      <trkpt lat="45.90331" lon="6.82948">
        <ele>1019</ele>
        <time>2026-08-04T11:48:12.132Z</time>
      </trkpt>
      <trkpt lat="45.90329" lon="6.82947">
        <ele>1019</ele>
        <time>2026-08-04T11:48:13.132Z</time>
      </trkpt>
      <trkpt lat="45.90328" lon="6.82946">
        <ele>1019</ele>
        <time>2026-08-04T11:48:14.132Z</time>
      </trkpt>
      <trkpt lat="45.90326" lon="6.82944">
        <ele>1019</ele>
        <time>2026-08-04T11:48:15.132Z</time>
      </trkpt>
      <trkpt lat="45.90325" lon="6.82943">
        <ele>1019</ele>
        <time>2026-08-04T11:48:16.132Z</time>
      </trkpt>
      <trkpt lat="45.90323" lon="6.82942">
        <ele>1019</ele>
        <time>2026-08-04T11:48:17.132Z</time>
      </trkpt>
      <trkpt lat="45.90322" lon="6.8294">
        <ele>1019</ele>
        <time>2026-08-04T11:48:18.132Z</time>
      </trkpt>
      <trkpt lat="45.90321" lon="6.82939">
        <ele>1019</ele>
        <time>2026-08-04T11:48:19.132Z</time>
      </trkpt>
      <trkpt lat="45.90319" lon="6.82938">
        <ele>1020</ele>
        <time>2026-08-04T11:48:20.132Z</time>
      </trkpt>
      <trkpt lat="45.90317" lon="6.82938">
        <ele>1020</ele>
        <time>2026-08-04T11:48:21.132Z</time>
      </trkpt>
      <trkpt lat="45.90315" lon="6.82938">
        <ele>1020</ele>
        <time>2026-08-04T11:48:22.132Z</time>
      </trkpt>
      <trkpt lat="45.90313" lon="6.82937">
        <ele>1020</ele>
        <time>2026-08-04T11:48:23.132Z</time>
      </trkpt>
      <trkpt lat="45.90311" lon="6.82937">
        <ele>1020</ele>
        <time>2026-08-04T11:48:24.132Z</time>
      </trkpt>
      <trkpt lat="45.90309" lon="6.82937">
        <ele>1020</ele>
        <time>2026-08-04T11:48:25.132Z</time>
      </trkpt>
      <trkpt lat="45.90307" lon="6.82936">
        <ele>1020</ele>
        <time>2026-08-04T11:48:26.132Z</time>
      </trkpt>
      <trkpt lat="45.90304" lon="6.82935">
        <ele>1020</ele>
        <time>2026-08-04T11:48:27.132Z</time>
      </trkpt>
      <trkpt lat="45.90301" lon="6.82934">
        <ele>1020</ele>
        <time>2026-08-04T11:48:28.132Z</time>
      </trkpt>
      <trkpt lat="45.90299" lon="6.82933">
        <ele>1020</ele>
        <time>2026-08-04T11:48:29.132Z</time>
      </trkpt>
      <trkpt lat="45.90296" lon="6.82932">
        <ele>1021</ele>
        <time>2026-08-04T11:48:30.132Z</time>
      </trkpt>
      <trkpt lat="45.90293" lon="6.82932">
        <ele>1021</ele>
        <time>2026-08-04T11:48:31.132Z</time>
      </trkpt>
      <trkpt lat="45.9029" lon="6.8293">
        <ele>1021</ele>
        <time>2026-08-04T11:48:32.132Z</time>
      </trkpt>
      <trkpt lat="45.90289" lon="6.82929">
        <ele>1022</ele>
        <time>2026-08-04T11:48:33.132Z</time>
      </trkpt>
      <trkpt lat="45.90287" lon="6.82927">
        <ele>1022</ele>
        <time>2026-08-04T11:48:34.132Z</time>
      </trkpt>
      <trkpt lat="45.90285" lon="6.82924">
        <ele>1022</ele>
        <time>2026-08-04T11:48:35.132Z</time>
      </trkpt>
      <trkpt lat="45.90283" lon="6.82922">
        <ele>1022</ele>
        <time>2026-08-04T11:48:36.132Z</time>
      </trkpt>
      <trkpt lat="45.90281" lon="6.8292">
        <ele>1023</ele>
        <time>2026-08-04T11:48:37.132Z</time>
      </trkpt>
      <trkpt lat="45.90279" lon="6.82918">
        <ele>1023</ele>
        <time>2026-08-04T11:48:38.132Z</time>
      </trkpt>
      <trkpt lat="45.90277" lon="6.82916">
        <ele>1023</ele>
        <time>2026-08-04T11:48:39.132Z</time>
      </trkpt>
      <trkpt lat="45.90275" lon="6.82914">
        <ele>1023</ele>
        <time>2026-08-04T11:48:40.132Z</time>
      </trkpt>
      <trkpt lat="45.90274" lon="6.82912">
        <ele>1023</ele>
        <time>2026-08-04T11:48:41.132Z</time>
      </trkpt>
      <trkpt lat="45.90272" lon="6.8291">
        <ele>1023</ele>
        <time>2026-08-04T11:48:42.132Z</time>
      </trkpt>
      <trkpt lat="45.9027" lon="6.82907">
        <ele>1024</ele>
        <time>2026-08-04T11:48:43.132Z</time>
      </trkpt>
      <trkpt lat="45.90269" lon="6.82905">
        <ele>1024</ele>
        <time>2026-08-04T11:48:44.132Z</time>
      </trkpt>
      <trkpt lat="45.90267" lon="6.82903">
        <ele>1024</ele>
        <time>2026-08-04T11:48:45.132Z</time>
      </trkpt>
      <trkpt lat="45.90265" lon="6.82901">
        <ele>1025</ele>
        <time>2026-08-04T11:48:46.132Z</time>
      </trkpt>
      <trkpt lat="45.90263" lon="6.82898">
        <ele>1025</ele>
        <time>2026-08-04T11:48:47.132Z</time>
      </trkpt>
      <trkpt lat="45.90262" lon="6.82894">
        <ele>1025</ele>
        <time>2026-08-04T11:48:48.132Z</time>
      </trkpt>
      <trkpt lat="45.90261" lon="6.8289">
        <ele>1024</ele>
        <time>2026-08-04T11:48:49.132Z</time>
      </trkpt>
      <trkpt lat="45.9026" lon="6.82886">
        <ele>1024</ele>
        <time>2026-08-04T11:48:50.132Z</time>
      </trkpt>
      <trkpt lat="45.90258" lon="6.82882">
        <ele>1023</ele>
        <time>2026-08-04T11:48:51.132Z</time>
      </trkpt>
      <trkpt lat="45.90256" lon="6.82878">
        <ele>1022</ele>
        <time>2026-08-04T11:48:52.132Z</time>
      </trkpt>
      <trkpt lat="45.90255" lon="6.82875">
        <ele>1022</ele>
        <time>2026-08-04T11:48:53.132Z</time>
      </trkpt>
      <trkpt lat="45.90253" lon="6.82872">
        <ele>1021</ele>
        <time>2026-08-04T11:48:54.132Z</time>
      </trkpt>
      <trkpt lat="45.90252" lon="6.82869">
        <ele>1020</ele>
        <time>2026-08-04T11:48:55.132Z</time>
      </trkpt>
      <trkpt lat="45.9025" lon="6.82866">
        <ele>1020</ele>
        <time>2026-08-04T11:48:56.132Z</time>
      </trkpt>
      <trkpt lat="45.90249" lon="6.82863">
        <ele>1020</ele>
        <time>2026-08-04T11:48:57.132Z</time>
      </trkpt>
      <trkpt lat="45.90248" lon="6.8286">
        <ele>1019</ele>
        <time>2026-08-04T11:48:58.132Z</time>
      </trkpt>
      <trkpt lat="45.90247" lon="6.82856">
        <ele>1019</ele>
        <time>2026-08-04T11:48:59.132Z</time>
      </trkpt>
      <trkpt lat="45.90246" lon="6.82852">
        <ele>1019</ele>
        <time>2026-08-04T11:49:00.132Z</time>
      </trkpt>
      <trkpt lat="45.90246" lon="6.82848">
        <ele>1019</ele>
        <time>2026-08-04T11:49:01.132Z</time>
      </trkpt>
      <trkpt lat="45.90245" lon="6.82844">
        <ele>1018</ele>
        <time>2026-08-04T11:49:02.132Z</time>
      </trkpt>
      <trkpt lat="45.90245" lon="6.8284">
        <ele>1018</ele>
        <time>2026-08-04T11:49:03.132Z</time>
      </trkpt>
      <trkpt lat="45.90245" lon="6.82836">
        <ele>1017</ele>
        <time>2026-08-04T11:49:04.132Z</time>
      </trkpt>
      <trkpt lat="45.90244" lon="6.82832">
        <ele>1016</ele>
        <time>2026-08-04T11:49:05.132Z</time>
      </trkpt>
      <trkpt lat="45.90244" lon="6.82828">
        <ele>1016</ele>
        <time>2026-08-04T11:49:06.132Z</time>
      </trkpt>
      <trkpt lat="45.90245" lon="6.82824">
        <ele>1016</ele>
        <time>2026-08-04T11:49:07.132Z</time>
      </trkpt>
      <trkpt lat="45.90246" lon="6.82819">
        <ele>1016</ele>
        <time>2026-08-04T11:49:08.132Z</time>
      </trkpt>
      <trkpt lat="45.90247" lon="6.82815">
        <ele>1015</ele>
        <time>2026-08-04T11:49:09.132Z</time>
      </trkpt>
      <trkpt lat="45.90248" lon="6.82812">
        <ele>1015</ele>
        <time>2026-08-04T11:49:10.132Z</time>
      </trkpt>
      <trkpt lat="45.90249" lon="6.82808">
        <ele>1014</ele>
        <time>2026-08-04T11:49:11.132Z</time>
      </trkpt>
      <trkpt lat="45.9025" lon="6.82804">
        <ele>1014</ele>
        <time>2026-08-04T11:49:12.132Z</time>
      </trkpt>
      <trkpt lat="45.90252" lon="6.82799">
        <ele>1014</ele>
        <time>2026-08-04T11:49:13.132Z</time>
      </trkpt>
      <trkpt lat="45.90253" lon="6.82796">
        <ele>1013</ele>
        <time>2026-08-04T11:49:14.132Z</time>
      </trkpt>
      <trkpt lat="45.90254" lon="6.82793">
        <ele>1013</ele>
        <time>2026-08-04T11:49:15.132Z</time>
      </trkpt>
      <trkpt lat="45.90254" lon="6.8279">
        <ele>1013</ele>
        <time>2026-08-04T11:49:16.132Z</time>
      </trkpt>
      <trkpt lat="45.90255" lon="6.82786">
        <ele>1013</ele>
        <time>2026-08-04T11:49:17.132Z</time>
      </trkpt>
      <trkpt lat="45.90256" lon="6.82784">
        <ele>1014</ele>
        <time>2026-08-04T11:49:18.132Z</time>
      </trkpt>
      <trkpt lat="45.90258" lon="6.82781">
        <ele>1014</ele>
        <time>2026-08-04T11:49:19.132Z</time>
      </trkpt>
      <trkpt lat="45.90259" lon="6.82778">
        <ele>1014</ele>
        <time>2026-08-04T11:49:20.132Z</time>
      </trkpt>
      <trkpt lat="45.9026" lon="6.82776">
        <ele>1014</ele>
        <time>2026-08-04T11:49:21.132Z</time>
      </trkpt>
      <trkpt lat="45.90261" lon="6.82773">
        <ele>1014</ele>
        <time>2026-08-04T11:49:22.132Z</time>
      </trkpt>
      <trkpt lat="45.90262" lon="6.82771">
        <ele>1014</ele>
        <time>2026-08-04T11:49:23.132Z</time>
      </trkpt>
      <trkpt lat="45.90263" lon="6.82766">
        <ele>1014</ele>
        <time>2026-08-04T11:49:24.132Z</time>
      </trkpt>
      <trkpt lat="45.90265" lon="6.82762">
        <ele>1014</ele>
        <time>2026-08-04T11:49:25.132Z</time>
      </trkpt>
      <trkpt lat="45.90266" lon="6.8276">
        <ele>1013</ele>
        <time>2026-08-04T11:49:26.132Z</time>
      </trkpt>
      <trkpt lat="45.90267" lon="6.82757">
        <ele>1013</ele>
        <time>2026-08-04T11:49:27.132Z</time>
      </trkpt>
      <trkpt lat="45.90267" lon="6.82754">
        <ele>1013</ele>
        <time>2026-08-04T11:49:28.132Z</time>
      </trkpt>
      <trkpt lat="45.90268" lon="6.82752">
        <ele>1013</ele>
        <time>2026-08-04T11:49:29.132Z</time>
      </trkpt>
      <trkpt lat="45.90268" lon="6.82749">
        <ele>1012</ele>
        <time>2026-08-04T11:49:30.132Z</time>
      </trkpt>
      <trkpt lat="45.90267" lon="6.82746">
        <ele>1012</ele>
        <time>2026-08-04T11:49:31.132Z</time>
      </trkpt>
      <trkpt lat="45.90267" lon="6.82744">
        <ele>1012</ele>
        <time>2026-08-04T11:49:32.132Z</time>
      </trkpt>
      <trkpt lat="45.90266" lon="6.82742">
        <ele>1011</ele>
        <time>2026-08-04T11:49:33.132Z</time>
      </trkpt>
      <trkpt lat="45.90265" lon="6.8274">
        <ele>1011</ele>
        <time>2026-08-04T11:49:34.132Z</time>
      </trkpt>
      <trkpt lat="45.90263" lon="6.82737">
        <ele>1011</ele>
        <time>2026-08-04T11:49:35.132Z</time>
      </trkpt>
      <trkpt lat="45.90262" lon="6.82735">
        <ele>1011</ele>
        <time>2026-08-04T11:49:36.132Z</time>
      </trkpt>
      <trkpt lat="45.9026" lon="6.82733">
        <ele>1010</ele>
        <time>2026-08-04T11:49:37.132Z</time>
      </trkpt>
      <trkpt lat="45.90258" lon="6.82732">
        <ele>1010</ele>
        <time>2026-08-04T11:49:38.132Z</time>
      </trkpt>
      <trkpt lat="45.90256" lon="6.8273">
        <ele>1010</ele>
        <time>2026-08-04T11:49:39.132Z</time>
      </trkpt>
      <trkpt lat="45.90255" lon="6.82729">
        <ele>1010</ele>
        <time>2026-08-04T11:49:40.132Z</time>
      </trkpt>
      <trkpt lat="45.90254" lon="6.82727">
        <ele>1010</ele>
        <time>2026-08-04T11:49:41.132Z</time>
      </trkpt>
      <trkpt lat="45.90253" lon="6.82726">
        <ele>1009</ele>
        <time>2026-08-04T11:49:42.132Z</time>
      </trkpt>
      <trkpt lat="45.90252" lon="6.82724">
        <ele>1009</ele>
        <time>2026-08-04T11:49:43.132Z</time>
      </trkpt>
      <trkpt lat="45.90251" lon="6.82722">
        <ele>1009</ele>
        <time>2026-08-04T11:49:44.132Z</time>
      </trkpt>
      <trkpt lat="45.90249" lon="6.82721">
        <ele>1009</ele>
        <time>2026-08-04T11:49:45.132Z</time>
      </trkpt>
      <trkpt lat="45.90247" lon="6.8272">
        <ele>1009</ele>
        <time>2026-08-04T11:49:46.132Z</time>
      </trkpt>
      <trkpt lat="45.90245" lon="6.82718">
        <ele>1008</ele>
        <time>2026-08-04T11:49:47.132Z</time>
      </trkpt>
      <trkpt lat="45.90244" lon="6.82718">
        <ele>1009</ele>
        <time>2026-08-04T11:49:48.132Z</time>
      </trkpt>
      <trkpt lat="45.90241" lon="6.82718">
        <ele>1009</ele>
        <time>2026-08-04T11:49:49.132Z</time>
      </trkpt>
      <trkpt lat="45.90239" lon="6.82717">
        <ele>1009</ele>
        <time>2026-08-04T11:49:50.132Z</time>
      </trkpt>
      <trkpt lat="45.90238" lon="6.82716">
        <ele>1009</ele>
        <time>2026-08-04T11:49:51.132Z</time>
      </trkpt>
      <trkpt lat="45.90236" lon="6.82714">
        <ele>1009</ele>
        <time>2026-08-04T11:49:52.132Z</time>
      </trkpt>
      <trkpt lat="45.90235" lon="6.82713">
        <ele>1009</ele>
        <time>2026-08-04T11:49:53.132Z</time>
      </trkpt>
      <trkpt lat="45.90233" lon="6.82712">
        <ele>1009</ele>
        <time>2026-08-04T11:49:54.132Z</time>
      </trkpt>
      <trkpt lat="45.90231" lon="6.8271">
        <ele>1009</ele>
        <time>2026-08-04T11:49:55.132Z</time>
      </trkpt>
      <trkpt lat="45.90229" lon="6.82709">
        <ele>1009</ele>
        <time>2026-08-04T11:49:56.132Z</time>
      </trkpt>
      <trkpt lat="45.90227" lon="6.82709">
        <ele>1009</ele>
        <time>2026-08-04T11:49:57.132Z</time>
      </trkpt>
      <trkpt lat="45.90225" lon="6.82709">
        <ele>1008</ele>
        <time>2026-08-04T11:49:58.132Z</time>
      </trkpt>
      <trkpt lat="45.90223" lon="6.82708">
        <ele>1008</ele>
        <time>2026-08-04T11:49:59.132Z</time>
      </trkpt>
      <trkpt lat="45.9022" lon="6.82708">
        <ele>1007</ele>
        <time>2026-08-04T11:50:00.132Z</time>
      </trkpt>
      <trkpt lat="45.90218" lon="6.82707">
        <ele>1007</ele>
        <time>2026-08-04T11:50:01.132Z</time>
      </trkpt>
      <trkpt lat="45.90216" lon="6.82705">
        <ele>1007</ele>
        <time>2026-08-04T11:50:02.132Z</time>
      </trkpt>
      <trkpt lat="45.90215" lon="6.82702">
        <ele>1006</ele>
        <time>2026-08-04T11:50:03.132Z</time>
      </trkpt>
      <trkpt lat="45.90213" lon="6.827">
        <ele>1006</ele>
        <time>2026-08-04T11:50:04.132Z</time>
      </trkpt>
      <trkpt lat="45.90211" lon="6.82697">
        <ele>1006</ele>
        <time>2026-08-04T11:50:05.132Z</time>
      </trkpt>
      <trkpt lat="45.9021" lon="6.82696">
        <ele>1005</ele>
        <time>2026-08-04T11:50:06.132Z</time>
      </trkpt>
      <trkpt lat="45.90208" lon="6.82694">
        <ele>1005</ele>
        <time>2026-08-04T11:50:07.132Z</time>
      </trkpt>
      <trkpt lat="45.90207" lon="6.82693">
        <ele>1006</ele>
        <time>2026-08-04T11:50:08.132Z</time>
      </trkpt>
      <trkpt lat="45.90205" lon="6.82692">
        <ele>1006</ele>
        <time>2026-08-04T11:50:09.132Z</time>
      </trkpt>
      <trkpt lat="45.90203" lon="6.82691">
        <ele>1006</ele>
        <time>2026-08-04T11:50:10.132Z</time>
      </trkpt>
      <trkpt lat="45.90201" lon="6.82691">
        <ele>1006</ele>
        <time>2026-08-04T11:50:11.132Z</time>
      </trkpt>
      <trkpt lat="45.902" lon="6.8269">
        <ele>1006</ele>
        <time>2026-08-04T11:50:12.132Z</time>
      </trkpt>
      <trkpt lat="45.90197" lon="6.82689">
        <ele>1006</ele>
        <time>2026-08-04T11:50:13.132Z</time>
      </trkpt>
      <trkpt lat="45.90195" lon="6.82689">
        <ele>1006</ele>
        <time>2026-08-04T11:50:14.132Z</time>
      </trkpt>
      <trkpt lat="45.90193" lon="6.82687">
        <ele>1006</ele>
        <time>2026-08-04T11:50:15.132Z</time>
      </trkpt>
      <trkpt lat="45.90191" lon="6.82686">
        <ele>1006</ele>
        <time>2026-08-04T11:50:16.132Z</time>
      </trkpt>
      <trkpt lat="45.90188" lon="6.82685">
        <ele>1006</ele>
        <time>2026-08-04T11:50:17.132Z</time>
      </trkpt>
      <trkpt lat="45.90186" lon="6.82684">
        <ele>1007</ele>
        <time>2026-08-04T11:50:18.132Z</time>
      </trkpt>
      <trkpt lat="45.90184" lon="6.82683">
        <ele>1007</ele>
        <time>2026-08-04T11:50:19.132Z</time>
      </trkpt>
      <trkpt lat="45.90183" lon="6.82682">
        <ele>1007</ele>
        <time>2026-08-04T11:50:20.132Z</time>
      </trkpt>
      <trkpt lat="45.90181" lon="6.8268">
        <ele>1008</ele>
        <time>2026-08-04T11:50:21.132Z</time>
      </trkpt>
      <trkpt lat="45.90179" lon="6.82678">
        <ele>1007</ele>
        <time>2026-08-04T11:50:22.132Z</time>
      </trkpt>
      <trkpt lat="45.90176" lon="6.82676">
        <ele>1007</ele>
        <time>2026-08-04T11:50:23.132Z</time>
      </trkpt>
      <trkpt lat="45.90174" lon="6.82674">
        <ele>1007</ele>
        <time>2026-08-04T11:50:24.132Z</time>
      </trkpt>
      <trkpt lat="45.90172" lon="6.82673">
        <ele>1007</ele>
        <time>2026-08-04T11:50:25.132Z</time>
      </trkpt>
      <trkpt lat="45.9017" lon="6.82671">
        <ele>1007</ele>
        <time>2026-08-04T11:50:26.132Z</time>
      </trkpt>
      <trkpt lat="45.90169" lon="6.8267">
        <ele>1007</ele>
        <time>2026-08-04T11:50:27.132Z</time>
      </trkpt>
      <trkpt lat="45.90168" lon="6.82668">
        <ele>1007</ele>
        <time>2026-08-04T11:50:28.132Z</time>
      </trkpt>
      <trkpt lat="45.90166" lon="6.82667">
        <ele>1007</ele>
        <time>2026-08-04T11:50:29.132Z</time>
      </trkpt>
      <trkpt lat="45.90164" lon="6.82665">
        <ele>1007</ele>
        <time>2026-08-04T11:50:30.132Z</time>
      </trkpt>
      <trkpt lat="45.90163" lon="6.82662">
        <ele>1007</ele>
        <time>2026-08-04T11:50:31.132Z</time>
      </trkpt>
      <trkpt lat="45.9016" lon="6.82659">
        <ele>1007</ele>
        <time>2026-08-04T11:50:32.132Z</time>
      </trkpt>
      <trkpt lat="45.90158" lon="6.82657">
        <ele>1008</ele>
        <time>2026-08-04T11:50:33.132Z</time>
      </trkpt>
      <trkpt lat="45.90156" lon="6.82654">
        <ele>1008</ele>
        <time>2026-08-04T11:50:34.132Z</time>
      </trkpt>
      <trkpt lat="45.90154" lon="6.82652">
        <ele>1008</ele>
        <time>2026-08-04T11:50:35.132Z</time>
      </trkpt>
      <trkpt lat="45.90153" lon="6.8265">
        <ele>1008</ele>
        <time>2026-08-04T11:50:36.132Z</time>
      </trkpt>
      <trkpt lat="45.90151" lon="6.82648">
        <ele>1008</ele>
        <time>2026-08-04T11:50:37.133Z</time>
      </trkpt>
      <trkpt lat="45.90149" lon="6.82646">
        <ele>1008</ele>
        <time>2026-08-04T11:50:38.132Z</time>
      </trkpt>
      <trkpt lat="45.90148" lon="6.82644">
        <ele>1008</ele>
        <time>2026-08-04T11:50:39.132Z</time>
      </trkpt>
      <trkpt lat="45.90146" lon="6.82642">
        <ele>1007</ele>
        <time>2026-08-04T11:50:40.132Z</time>
      </trkpt>
      <trkpt lat="45.90145" lon="6.82639">
        <ele>1007</ele>
        <time>2026-08-04T11:50:41.132Z</time>
      </trkpt>
      <trkpt lat="45.90146" lon="6.82636">
        <ele>1006</ele>
        <time>2026-08-04T11:50:42.132Z</time>
      </trkpt>
      <trkpt lat="45.90146" lon="6.82633">
        <ele>1006</ele>
        <time>2026-08-04T11:50:43.132Z</time>
      </trkpt>
      <trkpt lat="45.90147" lon="6.8263">
        <ele>1006</ele>
        <time>2026-08-04T11:50:44.132Z</time>
      </trkpt>
      <trkpt lat="45.90148" lon="6.82626">
        <ele>1005</ele>
        <time>2026-08-04T11:50:45.132Z</time>
      </trkpt>
      <trkpt lat="45.90149" lon="6.82623">
        <ele>1005</ele>
        <time>2026-08-04T11:50:46.132Z</time>
      </trkpt>
      <trkpt lat="45.9015" lon="6.8262">
        <ele>1005</ele>
        <time>2026-08-04T11:50:47.132Z</time>
      </trkpt>
      <trkpt lat="45.9015" lon="6.82616">
        <ele>1005</ele>
        <time>2026-08-04T11:50:48.132Z</time>
      </trkpt>
      <trkpt lat="45.90151" lon="6.82613">
        <ele>1005</ele>
        <time>2026-08-04T11:50:49.132Z</time>
      </trkpt>
      <trkpt lat="45.90152" lon="6.8261">
        <ele>1006</ele>
        <time>2026-08-04T11:50:50.132Z</time>
      </trkpt>
      <trkpt lat="45.90153" lon="6.82607">
        <ele>1005</ele>
        <time>2026-08-04T11:50:51.132Z</time>
      </trkpt>
      <trkpt lat="45.90154" lon="6.82604">
        <ele>1005</ele>
        <time>2026-08-04T11:50:52.132Z</time>
      </trkpt>
      <trkpt lat="45.90154" lon="6.826">
        <ele>1005</ele>
        <time>2026-08-04T11:50:53.132Z</time>
      </trkpt>
      <trkpt lat="45.90154" lon="6.82597">
        <ele>1005</ele>
        <time>2026-08-04T11:50:54.132Z</time>
      </trkpt>
      <trkpt lat="45.90154" lon="6.82594">
        <ele>1005</ele>
        <time>2026-08-04T11:50:55.132Z</time>
      </trkpt>
      <trkpt lat="45.90154" lon="6.82591">
        <ele>1005</ele>
        <time>2026-08-04T11:50:56.132Z</time>
      </trkpt>
      <trkpt lat="45.90154" lon="6.82587">
        <ele>1004</ele>
        <time>2026-08-04T11:50:57.132Z</time>
      </trkpt>
      <trkpt lat="45.90153" lon="6.82584">
        <ele>1004</ele>
        <time>2026-08-04T11:50:58.132Z</time>
      </trkpt>
      <trkpt lat="45.90153" lon="6.82582">
        <ele>1004</ele>
        <time>2026-08-04T11:50:59.132Z</time>
      </trkpt>
      <trkpt lat="45.90153" lon="6.82579">
        <ele>1003</ele>
        <time>2026-08-04T11:51:00.132Z</time>
      </trkpt>
      <trkpt lat="45.90151" lon="6.82576">
        <ele>1003</ele>
        <time>2026-08-04T11:51:01.132Z</time>
      </trkpt>
      <trkpt lat="45.9015" lon="6.82574">
        <ele>1003</ele>
        <time>2026-08-04T11:51:02.132Z</time>
      </trkpt>
      <trkpt lat="45.90149" lon="6.82571">
        <ele>1003</ele>
        <time>2026-08-04T11:51:03.132Z</time>
      </trkpt>
      <trkpt lat="45.90148" lon="6.82569">
        <ele>1003</ele>
        <time>2026-08-04T11:51:04.132Z</time>
      </trkpt>
      <trkpt lat="45.90147" lon="6.82566">
        <ele>1003</ele>
        <time>2026-08-04T11:51:05.132Z</time>
      </trkpt>
      <trkpt lat="45.90146" lon="6.82564">
        <ele>1003</ele>
        <time>2026-08-04T11:51:06.132Z</time>
      </trkpt>
      <trkpt lat="45.90145" lon="6.82563">
        <ele>1003</ele>
        <time>2026-08-04T11:51:07.132Z</time>
      </trkpt>
      <trkpt lat="45.90143" lon="6.8256">
        <ele>1003</ele>
        <time>2026-08-04T11:51:08.132Z</time>
      </trkpt>
      <trkpt lat="45.90142" lon="6.82558">
        <ele>1003</ele>
        <time>2026-08-04T11:51:09.132Z</time>
      </trkpt>
      <trkpt lat="45.90141" lon="6.82556">
        <ele>1003</ele>
        <time>2026-08-04T11:51:10.132Z</time>
      </trkpt>
      <trkpt lat="45.9014" lon="6.82553">
        <ele>1004</ele>
        <time>2026-08-04T11:51:11.132Z</time>
      </trkpt>
      <trkpt lat="45.90138" lon="6.82551">
        <ele>1004</ele>
        <time>2026-08-04T11:51:12.132Z</time>
      </trkpt>
      <trkpt lat="45.90137" lon="6.82549">
        <ele>1004</ele>
        <time>2026-08-04T11:51:13.132Z</time>
      </trkpt>
      <trkpt lat="45.90136" lon="6.82547">
        <ele>1004</ele>
        <time>2026-08-04T11:51:14.132Z</time>
      </trkpt>
      <trkpt lat="45.90134" lon="6.82545">
        <ele>1004</ele>
        <time>2026-08-04T11:51:15.132Z</time>
      </trkpt>
      <trkpt lat="45.90133" lon="6.82544">
        <ele>1005</ele>
        <time>2026-08-04T11:51:16.132Z</time>
      </trkpt>
      <trkpt lat="45.90132" lon="6.82542">
        <ele>1005</ele>
        <time>2026-08-04T11:51:17.132Z</time>
      </trkpt>
      <trkpt lat="45.9013" lon="6.82541">
        <ele>1005</ele>
        <time>2026-08-04T11:51:18.132Z</time>
      </trkpt>
      <trkpt lat="45.90128" lon="6.8254">
        <ele>1006</ele>
        <time>2026-08-04T11:51:19.132Z</time>
      </trkpt>
      <trkpt lat="45.90126" lon="6.82539">
        <ele>1006</ele>
        <time>2026-08-04T11:51:20.132Z</time>
      </trkpt>
      <trkpt lat="45.90125" lon="6.82538">
        <ele>1006</ele>
        <time>2026-08-04T11:51:21.132Z</time>
      </trkpt>
      <trkpt lat="45.90123" lon="6.82535">
        <ele>1006</ele>
        <time>2026-08-04T11:51:22.132Z</time>
      </trkpt>
      <trkpt lat="45.90122" lon="6.82533">
        <ele>1006</ele>
        <time>2026-08-04T11:51:23.132Z</time>
      </trkpt>
      <trkpt lat="45.9012" lon="6.82531">
        <ele>1006</ele>
        <time>2026-08-04T11:51:24.132Z</time>
      </trkpt>
      <trkpt lat="45.90119" lon="6.8253">
        <ele>1005</ele>
        <time>2026-08-04T11:51:25.132Z</time>
      </trkpt>
      <trkpt lat="45.90119" lon="6.82529">
        <ele>1005</ele>
        <time>2026-08-04T11:51:26.132Z</time>
      </trkpt>
      <trkpt lat="45.90117" lon="6.82528">
        <ele>1005</ele>
        <time>2026-08-04T11:51:27.132Z</time>
      </trkpt>
      <trkpt lat="45.90117" lon="6.82528">
        <ele>1005</ele>
        <time>2026-08-04T11:51:28.132Z</time>
      </trkpt>
      <trkpt lat="45.90116" lon="6.82527">
        <ele>1005</ele>
        <time>2026-08-04T11:51:29.132Z</time>
      </trkpt>
      <trkpt lat="45.90115" lon="6.82526">
        <ele>1005</ele>
        <time>2026-08-04T11:51:30.132Z</time>
      </trkpt>
      <trkpt lat="45.90114" lon="6.82526">
        <ele>1004</ele>
        <time>2026-08-04T11:51:31.132Z</time>
      </trkpt>
      <trkpt lat="45.90113" lon="6.82525">
        <ele>1004</ele>
        <time>2026-08-04T11:51:32.132Z</time>
      </trkpt>
      <trkpt lat="45.90113" lon="6.82525">
        <ele>1003</ele>
        <time>2026-08-04T11:51:33.132Z</time>
      </trkpt>
      <trkpt lat="45.90112" lon="6.82525">
        <ele>1003</ele>
        <time>2026-08-04T11:51:34.132Z</time>
      </trkpt>
      <trkpt lat="45.90111" lon="6.82524">
        <ele>1002</ele>
        <time>2026-08-04T11:51:35.132Z</time>
      </trkpt>
      <trkpt lat="45.9011" lon="6.82523">
        <ele>1002</ele>
        <time>2026-08-04T11:51:36.132Z</time>
      </trkpt>
      <trkpt lat="45.90109" lon="6.82523">
        <ele>1002</ele>
        <time>2026-08-04T11:51:37.132Z</time>
      </trkpt>
      <trkpt lat="45.90108" lon="6.82522">
        <ele>1002</ele>
        <time>2026-08-04T11:51:38.132Z</time>
      </trkpt>
      <trkpt lat="45.90107" lon="6.82522">
        <ele>1002</ele>
        <time>2026-08-04T11:51:39.132Z</time>
      </trkpt>
      <trkpt lat="45.90107" lon="6.82521">
        <ele>1001</ele>
        <time>2026-08-04T11:51:40.132Z</time>
      </trkpt>
      <trkpt lat="45.90107" lon="6.82521">
        <ele>1001</ele>
        <time>2026-08-04T11:51:41.132Z</time>
      </trkpt>
      <trkpt lat="45.90106" lon="6.82518">
        <ele>1001</ele>
        <time>2026-08-04T11:51:42.132Z</time>
      </trkpt>
      <trkpt lat="45.90106" lon="6.82517">
        <ele>1000</ele>
        <time>2026-08-04T11:51:43.132Z</time>
      </trkpt>
      <trkpt lat="45.90106" lon="6.82516">
        <ele>1000</ele>
        <time>2026-08-04T11:51:44.132Z</time>
      </trkpt>
      <trkpt lat="45.90105" lon="6.82515">
        <ele>999</ele>
        <time>2026-08-04T11:51:45.132Z</time>
      </trkpt>
      <trkpt lat="45.90105" lon="6.82515">
        <ele>999</ele>
        <time>2026-08-04T11:51:46.132Z</time>
      </trkpt>
      <trkpt lat="45.90105" lon="6.82515">
        <ele>999</ele>
        <time>2026-08-04T11:51:47.132Z</time>
      </trkpt>
      <trkpt lat="45.90106" lon="6.82515">
        <ele>999</ele>
        <time>2026-08-04T11:51:48.132Z</time>
      </trkpt>
      <trkpt lat="45.90106" lon="6.82515">
        <ele>999</ele>
        <time>2026-08-04T11:51:49.132Z</time>
      </trkpt>
      <trkpt lat="45.90107" lon="6.82515">
        <ele>999</ele>
        <time>2026-08-04T11:51:50.132Z</time>
      </trkpt>
      <trkpt lat="45.90107" lon="6.82515">
        <ele>1000</ele>
        <time>2026-08-04T11:51:51.132Z</time>
      </trkpt>
      <trkpt lat="45.90108" lon="6.82515">
        <ele>1000</ele>
        <time>2026-08-04T11:51:52.132Z</time>
      </trkpt>
      <trkpt lat="45.90108" lon="6.82515">
        <ele>1000</ele>
        <time>2026-08-04T11:51:53.132Z</time>
      </trkpt>
      <trkpt lat="45.90109" lon="6.82515">
        <ele>1000</ele>
        <time>2026-08-04T11:51:54.132Z</time>
      </trkpt>
      <trkpt lat="45.9011" lon="6.82515">
        <ele>1000</ele>
        <time>2026-08-04T11:51:55.132Z</time>
      </trkpt>
      <trkpt lat="45.90111" lon="6.82515">
        <ele>1000</ele>
        <time>2026-08-04T11:51:56.132Z</time>
      </trkpt>
      <trkpt lat="45.90112" lon="6.82514">
        <ele>1000</ele>
        <time>2026-08-04T11:51:57.132Z</time>
      </trkpt>
      <trkpt lat="45.90113" lon="6.82514">
        <ele>1000</ele>
        <time>2026-08-04T11:51:58.132Z</time>
      </trkpt>
      <trkpt lat="45.90115" lon="6.82513">
        <ele>1000</ele>
        <time>2026-08-04T11:51:59.132Z</time>
      </trkpt>
      <trkpt lat="45.90117" lon="6.8251">
        <ele>1000</ele>
        <time>2026-08-04T11:52:00.132Z</time>
      </trkpt>
      <trkpt lat="45.90118" lon="6.82509">
        <ele>1000</ele>
        <time>2026-08-04T11:52:01.132Z</time>
      </trkpt>
      <trkpt lat="45.90119" lon="6.82509">
        <ele>1000</ele>
        <time>2026-08-04T11:52:02.132Z</time>
      </trkpt>
      <trkpt lat="45.9012" lon="6.82508">
        <ele>999</ele>
        <time>2026-08-04T11:52:03.132Z</time>
      </trkpt>
      <trkpt lat="45.9012" lon="6.82507">
        <ele>999</ele>
        <time>2026-08-04T11:52:04.132Z</time>
      </trkpt>
      <trkpt lat="45.9012" lon="6.82506">
        <ele>999</ele>
        <time>2026-08-04T11:52:05.132Z</time>
      </trkpt>
      <trkpt lat="45.9012" lon="6.82504">
        <ele>1000</ele>
        <time>2026-08-04T11:52:06.132Z</time>
      </trkpt>
      <trkpt lat="45.9012" lon="6.82503">
        <ele>1000</ele>
        <time>2026-08-04T11:52:07.132Z</time>
      </trkpt>
      <trkpt lat="45.9012" lon="6.82502">
        <ele>1000</ele>
        <time>2026-08-04T11:52:08.132Z</time>
      </trkpt>
      <trkpt lat="45.9012" lon="6.82501">
        <ele>1001</ele>
        <time>2026-08-04T11:52:09.132Z</time>
      </trkpt>
      <trkpt lat="45.90119" lon="6.82499">
        <ele>1001</ele>
        <time>2026-08-04T11:52:10.132Z</time>
      </trkpt>
      <trkpt lat="45.90119" lon="6.82497">
        <ele>1001</ele>
        <time>2026-08-04T11:52:11.132Z</time>
      </trkpt>
      <trkpt lat="45.90118" lon="6.82496">
        <ele>1001</ele>
        <time>2026-08-04T11:52:12.132Z</time>
      </trkpt>
      <trkpt lat="45.90117" lon="6.82496">
        <ele>1001</ele>
        <time>2026-08-04T11:52:13.132Z</time>
      </trkpt>
      <trkpt lat="45.90116" lon="6.82495">
        <ele>1001</ele>
        <time>2026-08-04T11:52:14.132Z</time>
      </trkpt>
      <trkpt lat="45.90116" lon="6.82494">
        <ele>1001</ele>
        <time>2026-08-04T11:52:15.132Z</time>
      </trkpt>
      <trkpt lat="45.90116" lon="6.82492">
        <ele>1001</ele>
        <time>2026-08-04T11:52:16.132Z</time>
      </trkpt>
      <trkpt lat="45.90115" lon="6.82491">
        <ele>1002</ele>
        <time>2026-08-04T11:52:17.132Z</time>
      </trkpt>
      <trkpt lat="45.90114" lon="6.82488">
        <ele>1002</ele>
        <time>2026-08-04T11:52:18.132Z</time>
      </trkpt>
      <trkpt lat="45.90113" lon="6.82485">
        <ele>1002</ele>
        <time>2026-08-04T11:52:19.132Z</time>
      </trkpt>
      <trkpt lat="45.90112" lon="6.82483">
        <ele>1003</ele>
        <time>2026-08-04T11:52:20.132Z</time>
      </trkpt>
      <trkpt lat="45.90111" lon="6.8248">
        <ele>1003</ele>
        <time>2026-08-04T11:52:21.132Z</time>
      </trkpt>
      <trkpt lat="45.9011" lon="6.82478">
        <ele>1004</ele>
        <time>2026-08-04T11:52:22.132Z</time>
      </trkpt>
      <trkpt lat="45.90108" lon="6.82475">
        <ele>1004</ele>
        <time>2026-08-04T11:52:23.132Z</time>
      </trkpt>
      <trkpt lat="45.90107" lon="6.82473">
        <ele>1005</ele>
        <time>2026-08-04T11:52:24.132Z</time>
      </trkpt>
      <trkpt lat="45.90106" lon="6.82471">
        <ele>1006</ele>
        <time>2026-08-04T11:52:25.132Z</time>
      </trkpt>
      <trkpt lat="45.90105" lon="6.82469">
        <ele>1006</ele>
        <time>2026-08-04T11:52:26.132Z</time>
      </trkpt>
      <trkpt lat="45.90104" lon="6.82467">
        <ele>1007</ele>
        <time>2026-08-04T11:52:27.132Z</time>
      </trkpt>
      <trkpt lat="45.90104" lon="6.82464">
        <ele>1007</ele>
        <time>2026-08-04T11:52:28.132Z</time>
      </trkpt>
      <trkpt lat="45.90103" lon="6.82462">
        <ele>1007</ele>
        <time>2026-08-04T11:52:29.132Z</time>
      </trkpt>
      <trkpt lat="45.90102" lon="6.82459">
        <ele>1007</ele>
        <time>2026-08-04T11:52:30.132Z</time>
      </trkpt>
      <trkpt lat="45.90101" lon="6.82456">
        <ele>1007</ele>
        <time>2026-08-04T11:52:31.132Z</time>
      </trkpt>
      <trkpt lat="45.90101" lon="6.82453">
        <ele>1007</ele>
        <time>2026-08-04T11:52:32.132Z</time>
      </trkpt>
      <trkpt lat="45.901" lon="6.82449">
        <ele>1007</ele>
        <time>2026-08-04T11:52:33.132Z</time>
      </trkpt>
      <trkpt lat="45.901" lon="6.82445">
        <ele>1007</ele>
        <time>2026-08-04T11:52:34.132Z</time>
      </trkpt>
      <trkpt lat="45.901" lon="6.8244">
        <ele>1007</ele>
        <time>2026-08-04T11:52:35.132Z</time>
      </trkpt>
      <trkpt lat="45.901" lon="6.82437">
        <ele>1007</ele>
        <time>2026-08-04T11:52:36.132Z</time>
      </trkpt>
      <trkpt lat="45.901" lon="6.82433">
        <ele>1006</ele>
        <time>2026-08-04T11:52:37.132Z</time>
      </trkpt>
      <trkpt lat="45.90099" lon="6.82431">
        <ele>1007</ele>
        <time>2026-08-04T11:52:38.132Z</time>
      </trkpt>
      <trkpt lat="45.90099" lon="6.82428">
        <ele>1007</ele>
        <time>2026-08-04T11:52:39.132Z</time>
      </trkpt>
      <trkpt lat="45.90098" lon="6.82425">
        <ele>1007</ele>
        <time>2026-08-04T11:52:40.132Z</time>
      </trkpt>
      <trkpt lat="45.90097" lon="6.82422">
        <ele>1007</ele>
        <time>2026-08-04T11:52:41.132Z</time>
      </trkpt>
      <trkpt lat="45.90096" lon="6.8242">
        <ele>1008</ele>
        <time>2026-08-04T11:52:42.132Z</time>
      </trkpt>
      <trkpt lat="45.90096" lon="6.82416">
        <ele>1008</ele>
        <time>2026-08-04T11:52:43.132Z</time>
      </trkpt>
      <trkpt lat="45.90095" lon="6.82413">
        <ele>1008</ele>
        <time>2026-08-04T11:52:44.132Z</time>
      </trkpt>
      <trkpt lat="45.90094" lon="6.8241">
        <ele>1009</ele>
        <time>2026-08-04T11:52:45.132Z</time>
      </trkpt>
      <trkpt lat="45.90094" lon="6.82406">
        <ele>1009</ele>
        <time>2026-08-04T11:52:46.132Z</time>
      </trkpt>
      <trkpt lat="45.90094" lon="6.82402">
        <ele>1009</ele>
        <time>2026-08-04T11:52:47.132Z</time>
      </trkpt>
      <trkpt lat="45.90094" lon="6.82399">
        <ele>1009</ele>
        <time>2026-08-04T11:52:48.132Z</time>
      </trkpt>
      <trkpt lat="45.90093" lon="6.82395">
        <ele>1009</ele>
        <time>2026-08-04T11:52:49.132Z</time>
      </trkpt>
      <trkpt lat="45.90093" lon="6.82392">
        <ele>1008</ele>
        <time>2026-08-04T11:52:50.133Z</time>
      </trkpt>
      <trkpt lat="45.90092" lon="6.8239">
        <ele>1008</ele>
        <time>2026-08-04T11:52:51.132Z</time>
      </trkpt>
      <trkpt lat="45.90092" lon="6.82387">
        <ele>1008</ele>
        <time>2026-08-04T11:52:52.132Z</time>
      </trkpt>
      <trkpt lat="45.90092" lon="6.82385">
        <ele>1008</ele>
        <time>2026-08-04T11:52:53.132Z</time>
      </trkpt>
      <trkpt lat="45.90092" lon="6.82382">
        <ele>1007</ele>
        <time>2026-08-04T11:52:54.132Z</time>
      </trkpt>
      <trkpt lat="45.90092" lon="6.82379">
        <ele>1007</ele>
        <time>2026-08-04T11:52:55.132Z</time>
      </trkpt>
      <trkpt lat="45.90091" lon="6.82376">
        <ele>1007</ele>
        <time>2026-08-04T11:52:56.132Z</time>
      </trkpt>
      <trkpt lat="45.90091" lon="6.82373">
        <ele>1006</ele>
        <time>2026-08-04T11:52:57.132Z</time>
      </trkpt>
      <trkpt lat="45.9009" lon="6.82371">
        <ele>1006</ele>
        <time>2026-08-04T11:52:58.132Z</time>
      </trkpt>
      <trkpt lat="45.9009" lon="6.82368">
        <ele>1006</ele>
        <time>2026-08-04T11:52:59.132Z</time>
      </trkpt>
      <trkpt lat="45.9009" lon="6.82366">
        <ele>1005</ele>
        <time>2026-08-04T11:53:00.132Z</time>
      </trkpt>
      <trkpt lat="45.90089" lon="6.82363">
        <ele>1005</ele>
        <time>2026-08-04T11:53:01.132Z</time>
      </trkpt>
      <trkpt lat="45.90088" lon="6.82362">
        <ele>1005</ele>
        <time>2026-08-04T11:53:02.132Z</time>
      </trkpt>
      <trkpt lat="45.90086" lon="6.82361">
        <ele>1005</ele>
        <time>2026-08-04T11:53:03.132Z</time>
      </trkpt>
      <trkpt lat="45.90085" lon="6.8236">
        <ele>1005</ele>
        <time>2026-08-04T11:53:04.132Z</time>
      </trkpt>
      <trkpt lat="45.90083" lon="6.82358">
        <ele>1005</ele>
        <time>2026-08-04T11:53:05.132Z</time>
      </trkpt>
      <trkpt lat="45.90082" lon="6.82354">
        <ele>1005</ele>
        <time>2026-08-04T11:53:06.132Z</time>
      </trkpt>
      <trkpt lat="45.90081" lon="6.82351">
        <ele>1005</ele>
        <time>2026-08-04T11:53:07.132Z</time>
      </trkpt>
      <trkpt lat="45.90081" lon="6.82346">
        <ele>1005</ele>
        <time>2026-08-04T11:53:08.132Z</time>
      </trkpt>
      <trkpt lat="45.9008" lon="6.82342">
        <ele>1005</ele>
        <time>2026-08-04T11:53:09.132Z</time>
      </trkpt>
      <trkpt lat="45.90079" lon="6.82339">
        <ele>1005</ele>
        <time>2026-08-04T11:53:10.132Z</time>
      </trkpt>
      <trkpt lat="45.90079" lon="6.82336">
        <ele>1005</ele>
        <time>2026-08-04T11:53:11.132Z</time>
      </trkpt>
      <trkpt lat="45.90079" lon="6.82334">
        <ele>1004</ele>
        <time>2026-08-04T11:53:12.132Z</time>
      </trkpt>
      <trkpt lat="45.90078" lon="6.82331">
        <ele>1004</ele>
        <time>2026-08-04T11:53:13.132Z</time>
      </trkpt>
      <trkpt lat="45.90077" lon="6.82329">
        <ele>1004</ele>
        <time>2026-08-04T11:53:14.132Z</time>
      </trkpt>
      <trkpt lat="45.90076" lon="6.82326">
        <ele>1004</ele>
        <time>2026-08-04T11:53:15.132Z</time>
      </trkpt>
      <trkpt lat="45.90075" lon="6.82324">
        <ele>1004</ele>
        <time>2026-08-04T11:53:16.132Z</time>
      </trkpt>
      <trkpt lat="45.90074" lon="6.82322">
        <ele>1005</ele>
        <time>2026-08-04T11:53:17.132Z</time>
      </trkpt>
      <trkpt lat="45.90073" lon="6.8232">
        <ele>1005</ele>
        <time>2026-08-04T11:53:18.132Z</time>
      </trkpt>
      <trkpt lat="45.90072" lon="6.82318">
        <ele>1005</ele>
        <time>2026-08-04T11:53:19.132Z</time>
      </trkpt>
      <trkpt lat="45.90071" lon="6.82316">
        <ele>1005</ele>
        <time>2026-08-04T11:53:20.132Z</time>
      </trkpt>
      <trkpt lat="45.90071" lon="6.82314">
        <ele>1006</ele>
        <time>2026-08-04T11:53:21.132Z</time>
      </trkpt>
      <trkpt lat="45.90069" lon="6.82311">
        <ele>1007</ele>
        <time>2026-08-04T11:53:22.132Z</time>
      </trkpt>
      <trkpt lat="45.90068" lon="6.82308">
        <ele>1007</ele>
        <time>2026-08-04T11:53:23.132Z</time>
      </trkpt>
      <trkpt lat="45.90067" lon="6.82305">
        <ele>1008</ele>
        <time>2026-08-04T11:53:24.132Z</time>
      </trkpt>
      <trkpt lat="45.90066" lon="6.82302">
        <ele>1008</ele>
        <time>2026-08-04T11:53:25.132Z</time>
      </trkpt>
      <trkpt lat="45.90066" lon="6.82299">
        <ele>1008</ele>
        <time>2026-08-04T11:53:26.132Z</time>
      </trkpt>
      <trkpt lat="45.90066" lon="6.82295">
        <ele>1008</ele>
        <time>2026-08-04T11:53:27.132Z</time>
      </trkpt>
      <trkpt lat="45.90066" lon="6.82292">
        <ele>1008</ele>
        <time>2026-08-04T11:53:28.132Z</time>
      </trkpt>
      <trkpt lat="45.90067" lon="6.82289">
        <ele>1008</ele>
        <time>2026-08-04T11:53:29.132Z</time>
      </trkpt>
      <trkpt lat="45.90067" lon="6.82287">
        <ele>1008</ele>
        <time>2026-08-04T11:53:30.132Z</time>
      </trkpt>
      <trkpt lat="45.90067" lon="6.82285">
        <ele>1008</ele>
        <time>2026-08-04T11:53:31.132Z</time>
      </trkpt>
      <trkpt lat="45.90067" lon="6.82283">
        <ele>1008</ele>
        <time>2026-08-04T11:53:32.132Z</time>
      </trkpt>
      <trkpt lat="45.90067" lon="6.8228">
        <ele>1008</ele>
        <time>2026-08-04T11:53:33.132Z</time>
      </trkpt>
      <trkpt lat="45.90068" lon="6.82277">
        <ele>1008</ele>
        <time>2026-08-04T11:53:34.132Z</time>
      </trkpt>
      <trkpt lat="45.90068" lon="6.82274">
        <ele>1008</ele>
        <time>2026-08-04T11:53:35.132Z</time>
      </trkpt>
      <trkpt lat="45.90069" lon="6.82271">
        <ele>1008</ele>
        <time>2026-08-04T11:53:36.132Z</time>
      </trkpt>
      <trkpt lat="45.90069" lon="6.82267">
        <ele>1008</ele>
        <time>2026-08-04T11:53:37.132Z</time>
      </trkpt>
      <trkpt lat="45.90069" lon="6.82264">
        <ele>1008</ele>
        <time>2026-08-04T11:53:38.132Z</time>
      </trkpt>
      <trkpt lat="45.90069" lon="6.8226">
        <ele>1008</ele>
        <time>2026-08-04T11:53:39.132Z</time>
      </trkpt>
      <trkpt lat="45.90069" lon="6.82257">
        <ele>1009</ele>
        <time>2026-08-04T11:53:40.132Z</time>
      </trkpt>
      <trkpt lat="45.90069" lon="6.82253">
        <ele>1009</ele>
        <time>2026-08-04T11:53:41.132Z</time>
      </trkpt>
      <trkpt lat="45.90069" lon="6.82249">
        <ele>1009</ele>
        <time>2026-08-04T11:53:42.132Z</time>
      </trkpt>
      <trkpt lat="45.90069" lon="6.82246">
        <ele>1009</ele>
        <time>2026-08-04T11:53:43.132Z</time>
      </trkpt>
      <trkpt lat="45.90069" lon="6.82242">
        <ele>1010</ele>
        <time>2026-08-04T11:53:44.132Z</time>
      </trkpt>
      <trkpt lat="45.90068" lon="6.82238">
        <ele>1010</ele>
        <time>2026-08-04T11:53:45.132Z</time>
      </trkpt>
      <trkpt lat="45.90068" lon="6.82235">
        <ele>1010</ele>
        <time>2026-08-04T11:53:46.132Z</time>
      </trkpt>
      <trkpt lat="45.90067" lon="6.82232">
        <ele>1010</ele>
        <time>2026-08-04T11:53:47.132Z</time>
      </trkpt>
      <trkpt lat="45.90067" lon="6.82229">
        <ele>1010</ele>
        <time>2026-08-04T11:53:48.132Z</time>
      </trkpt>
      <trkpt lat="45.90067" lon="6.82226">
        <ele>1010</ele>
        <time>2026-08-04T11:53:49.132Z</time>
      </trkpt>
      <trkpt lat="45.90067" lon="6.82223">
        <ele>1010</ele>
        <time>2026-08-04T11:53:50.132Z</time>
      </trkpt>
      <trkpt lat="45.90067" lon="6.8222">
        <ele>1010</ele>
        <time>2026-08-04T11:53:51.132Z</time>
      </trkpt>
      <trkpt lat="45.90067" lon="6.82216">
        <ele>1010</ele>
        <time>2026-08-04T11:53:52.132Z</time>
      </trkpt>
      <trkpt lat="45.90066" lon="6.82214">
        <ele>1009</ele>
        <time>2026-08-04T11:53:53.132Z</time>
      </trkpt>
      <trkpt lat="45.90066" lon="6.82211">
        <ele>1009</ele>
        <time>2026-08-04T11:53:54.132Z</time>
      </trkpt>
      <trkpt lat="45.90065" lon="6.82209">
        <ele>1009</ele>
        <time>2026-08-04T11:53:55.132Z</time>
      </trkpt>
      <trkpt lat="45.90064" lon="6.82206">
        <ele>1009</ele>
        <time>2026-08-04T11:53:56.132Z</time>
      </trkpt>
      <trkpt lat="45.90063" lon="6.82203">
        <ele>1008</ele>
        <time>2026-08-04T11:53:57.132Z</time>
      </trkpt>
      <trkpt lat="45.90062" lon="6.82201">
        <ele>1008</ele>
        <time>2026-08-04T11:53:58.132Z</time>
      </trkpt>
      <trkpt lat="45.90061" lon="6.82198">
        <ele>1007</ele>
        <time>2026-08-04T11:53:59.132Z</time>
      </trkpt>
      <trkpt lat="45.9006" lon="6.82196">
        <ele>1007</ele>
        <time>2026-08-04T11:54:00.132Z</time>
      </trkpt>
      <trkpt lat="45.90059" lon="6.82194">
        <ele>1006</ele>
        <time>2026-08-04T11:54:01.132Z</time>
      </trkpt>
      <trkpt lat="45.90057" lon="6.82192">
        <ele>1006</ele>
        <time>2026-08-04T11:54:02.132Z</time>
      </trkpt>
      <trkpt lat="45.90056" lon="6.8219">
        <ele>1006</ele>
        <time>2026-08-04T11:54:03.132Z</time>
      </trkpt>
      <trkpt lat="45.90055" lon="6.82188">
        <ele>1005</ele>
        <time>2026-08-04T11:54:04.132Z</time>
      </trkpt>
      <trkpt lat="45.90053" lon="6.82186">
        <ele>1005</ele>
        <time>2026-08-04T11:54:05.132Z</time>
      </trkpt>
      <trkpt lat="45.90052" lon="6.82184">
        <ele>1005</ele>
        <time>2026-08-04T11:54:06.132Z</time>
      </trkpt>
      <trkpt lat="45.90051" lon="6.82182">
        <ele>1006</ele>
        <time>2026-08-04T11:54:07.132Z</time>
      </trkpt>
      <trkpt lat="45.9005" lon="6.8218">
        <ele>1006</ele>
        <time>2026-08-04T11:54:08.132Z</time>
      </trkpt>
      <trkpt lat="45.90049" lon="6.82178">
        <ele>1006</ele>
        <time>2026-08-04T11:54:09.132Z</time>
      </trkpt>
      <trkpt lat="45.90048" lon="6.82175">
        <ele>1006</ele>
        <time>2026-08-04T11:54:10.132Z</time>
      </trkpt>
      <trkpt lat="45.90048" lon="6.82172">
        <ele>1006</ele>
        <time>2026-08-04T11:54:11.132Z</time>
      </trkpt>
      <trkpt lat="45.90048" lon="6.82169">
        <ele>1006</ele>
        <time>2026-08-04T11:54:12.132Z</time>
      </trkpt>
      <trkpt lat="45.90048" lon="6.82166">
        <ele>1005</ele>
        <time>2026-08-04T11:54:13.132Z</time>
      </trkpt>
      <trkpt lat="45.90048" lon="6.82162">
        <ele>1005</ele>
        <time>2026-08-04T11:54:14.132Z</time>
      </trkpt>
      <trkpt lat="45.90048" lon="6.82158">
        <ele>1005</ele>
        <time>2026-08-04T11:54:15.132Z</time>
      </trkpt>
      <trkpt lat="45.90049" lon="6.82152">
        <ele>1004</ele>
        <time>2026-08-04T11:54:16.132Z</time>
      </trkpt>
      <trkpt lat="45.9005" lon="6.82147">
        <ele>1004</ele>
        <time>2026-08-04T11:54:17.132Z</time>
      </trkpt>
      <trkpt lat="45.90051" lon="6.82143">
        <ele>1004</ele>
        <time>2026-08-04T11:54:18.132Z</time>
      </trkpt>
      <trkpt lat="45.90051" lon="6.8214">
        <ele>1003</ele>
        <time>2026-08-04T11:54:19.132Z</time>
      </trkpt>
      <trkpt lat="45.90051" lon="6.82137">
        <ele>1003</ele>
        <time>2026-08-04T11:54:20.132Z</time>
      </trkpt>
      <trkpt lat="45.90051" lon="6.82135">
        <ele>1003</ele>
        <time>2026-08-04T11:54:21.132Z</time>
      </trkpt>
      <trkpt lat="45.90051" lon="6.82132">
        <ele>1003</ele>
        <time>2026-08-04T11:54:22.132Z</time>
      </trkpt>
      <trkpt lat="45.90052" lon="6.82129">
        <ele>1003</ele>
        <time>2026-08-04T11:54:23.132Z</time>
      </trkpt>
      <trkpt lat="45.90052" lon="6.82127">
        <ele>1004</ele>
        <time>2026-08-04T11:54:24.132Z</time>
      </trkpt>
      <trkpt lat="45.90052" lon="6.82124">
        <ele>1004</ele>
        <time>2026-08-04T11:54:25.132Z</time>
      </trkpt>
      <trkpt lat="45.90053" lon="6.82121">
        <ele>1004</ele>
        <time>2026-08-04T11:54:26.132Z</time>
      </trkpt>
      <trkpt lat="45.90053" lon="6.82119">
        <ele>1005</ele>
        <time>2026-08-04T11:54:27.132Z</time>
      </trkpt>
      <trkpt lat="45.90053" lon="6.82117">
        <ele>1005</ele>
        <time>2026-08-04T11:54:28.132Z</time>
      </trkpt>
      <trkpt lat="45.90053" lon="6.82114">
        <ele>1006</ele>
        <time>2026-08-04T11:54:29.132Z</time>
      </trkpt>
      <trkpt lat="45.90053" lon="6.82112">
        <ele>1007</ele>
        <time>2026-08-04T11:54:30.132Z</time>
      </trkpt>
      <trkpt lat="45.90053" lon="6.82109">
        <ele>1007</ele>
        <time>2026-08-04T11:54:31.132Z</time>
      </trkpt>
      <trkpt lat="45.90053" lon="6.82107">
        <ele>1007</ele>
        <time>2026-08-04T11:54:32.132Z</time>
      </trkpt>
      <trkpt lat="45.90053" lon="6.82105">
        <ele>1008</ele>
        <time>2026-08-04T11:54:33.132Z</time>
      </trkpt>
      <trkpt lat="45.90053" lon="6.82103">
        <ele>1008</ele>
        <time>2026-08-04T11:54:34.132Z</time>
      </trkpt>
      <trkpt lat="45.90053" lon="6.82102">
        <ele>1009</ele>
        <time>2026-08-04T11:54:35.132Z</time>
      </trkpt>
      <trkpt lat="45.90053" lon="6.821">
        <ele>1009</ele>
        <time>2026-08-04T11:54:36.132Z</time>
      </trkpt>
      <trkpt lat="45.90054" lon="6.82099">
        <ele>1009</ele>
        <time>2026-08-04T11:54:37.132Z</time>
      </trkpt>
      <trkpt lat="45.90055" lon="6.82098">
        <ele>1009</ele>
        <time>2026-08-04T11:54:38.132Z</time>
      </trkpt>
      <trkpt lat="45.90057" lon="6.82098">
        <ele>1008</ele>
        <time>2026-08-04T11:54:39.132Z</time>
      </trkpt>
      <trkpt lat="45.9006" lon="6.82097">
        <ele>1008</ele>
        <time>2026-08-04T11:54:40.132Z</time>
      </trkpt>
      <trkpt lat="45.90061" lon="6.82095">
        <ele>1007</ele>
        <time>2026-08-04T11:54:41.132Z</time>
      </trkpt>
      <trkpt lat="45.90062" lon="6.82093">
        <ele>1006</ele>
        <time>2026-08-04T11:54:42.132Z</time>
      </trkpt>
      <trkpt lat="45.90061" lon="6.82091">
        <ele>1006</ele>
        <time>2026-08-04T11:54:43.132Z</time>
      </trkpt>
      <trkpt lat="45.90061" lon="6.82088">
        <ele>1006</ele>
        <time>2026-08-04T11:54:44.132Z</time>
      </trkpt>
      <trkpt lat="45.90061" lon="6.82086">
        <ele>1006</ele>
        <time>2026-08-04T11:54:45.132Z</time>
      </trkpt>
      <trkpt lat="45.90061" lon="6.82084">
        <ele>1006</ele>
        <time>2026-08-04T11:54:46.132Z</time>
      </trkpt>
      <trkpt lat="45.90061" lon="6.82082">
        <ele>1006</ele>
        <time>2026-08-04T11:54:47.132Z</time>
      </trkpt>
      <trkpt lat="45.90061" lon="6.82079">
        <ele>1006</ele>
        <time>2026-08-04T11:54:48.132Z</time>
      </trkpt>
      <trkpt lat="45.90061" lon="6.82077">
        <ele>1006</ele>
        <time>2026-08-04T11:54:49.132Z</time>
      </trkpt>
      <trkpt lat="45.90062" lon="6.82075">
        <ele>1007</ele>
        <time>2026-08-04T11:54:50.132Z</time>
      </trkpt>
      <trkpt lat="45.90062" lon="6.82073">
        <ele>1007</ele>
        <time>2026-08-04T11:54:51.132Z</time>
      </trkpt>
      <trkpt lat="45.90061" lon="6.82072">
        <ele>1007</ele>
        <time>2026-08-04T11:54:52.132Z</time>
      </trkpt>
      <trkpt lat="45.90061" lon="6.82071">
        <ele>1007</ele>
        <time>2026-08-04T11:54:53.132Z</time>
      </trkpt>
      <trkpt lat="45.90061" lon="6.8207">
        <ele>1007</ele>
        <time>2026-08-04T11:54:54.132Z</time>
      </trkpt>
      <trkpt lat="45.90061" lon="6.82067">
        <ele>1008</ele>
        <time>2026-08-04T11:54:55.132Z</time>
      </trkpt>
      <trkpt lat="45.90059" lon="6.82065">
        <ele>1008</ele>
        <time>2026-08-04T11:54:56.132Z</time>
      </trkpt>
      <trkpt lat="45.90059" lon="6.82062">
        <ele>1008</ele>
        <time>2026-08-04T11:54:57.132Z</time>
      </trkpt>
      <trkpt lat="45.90059" lon="6.8206">
        <ele>1009</ele>
        <time>2026-08-04T11:54:58.132Z</time>
      </trkpt>
      <trkpt lat="45.90059" lon="6.82059">
        <ele>1009</ele>
        <time>2026-08-04T11:54:59.132Z</time>
      </trkpt>
      <trkpt lat="45.9006" lon="6.82059">
        <ele>1009</ele>
        <time>2026-08-04T11:55:00.132Z</time>
      </trkpt>
      <trkpt lat="45.90061" lon="6.82058">
        <ele>1010</ele>
        <time>2026-08-04T11:55:01.132Z</time>
      </trkpt>
      <trkpt lat="45.90062" lon="6.82058">
        <ele>1010</ele>
        <time>2026-08-04T11:55:02.132Z</time>
      </trkpt>
      <trkpt lat="45.90062" lon="6.82057">
        <ele>1010</ele>
        <time>2026-08-04T11:55:03.132Z</time>
      </trkpt>
      <trkpt lat="45.90064" lon="6.82057">
        <ele>1010</ele>
        <time>2026-08-04T11:55:04.132Z</time>
      </trkpt>
      <trkpt lat="45.90065" lon="6.82056">
        <ele>1009</ele>
        <time>2026-08-04T11:55:05.132Z</time>
      </trkpt>
      <trkpt lat="45.90066" lon="6.82056">
        <ele>1009</ele>
        <time>2026-08-04T11:55:06.132Z</time>
      </trkpt>
      <trkpt lat="45.90067" lon="6.82055">
        <ele>1009</ele>
        <time>2026-08-04T11:55:07.132Z</time>
      </trkpt>
      <trkpt lat="45.90067" lon="6.82053">
        <ele>1008</ele>
        <time>2026-08-04T11:55:08.132Z</time>
      </trkpt>
      <trkpt lat="45.90068" lon="6.82052">
        <ele>1008</ele>
        <time>2026-08-04T11:55:09.132Z</time>
      </trkpt>
      <trkpt lat="45.90068" lon="6.8205">
        <ele>1009</ele>
        <time>2026-08-04T11:55:10.132Z</time>
      </trkpt>
      <trkpt lat="45.90067" lon="6.82048">
        <ele>1009</ele>
        <time>2026-08-04T11:55:11.132Z</time>
      </trkpt>
      <trkpt lat="45.90067" lon="6.82047">
        <ele>1009</ele>
        <time>2026-08-04T11:55:12.132Z</time>
      </trkpt>
      <trkpt lat="45.90068" lon="6.82047">
        <ele>1009</ele>
        <time>2026-08-04T11:55:13.132Z</time>
      </trkpt>
      <trkpt lat="45.90069" lon="6.82046">
        <ele>1010</ele>
        <time>2026-08-04T11:55:14.132Z</time>
      </trkpt>
      <trkpt lat="45.9007" lon="6.82045">
        <ele>1010</ele>
        <time>2026-08-04T11:55:15.132Z</time>
      </trkpt>
      <trkpt lat="45.90071" lon="6.82043">
        <ele>1010</ele>
        <time>2026-08-04T11:55:16.132Z</time>
      </trkpt>
      <trkpt lat="45.90071" lon="6.82041">
        <ele>1010</ele>
        <time>2026-08-04T11:55:17.132Z</time>
      </trkpt>
      <trkpt lat="45.90072" lon="6.8204">
        <ele>1011</ele>
        <time>2026-08-04T11:55:18.132Z</time>
      </trkpt>
      <trkpt lat="45.90073" lon="6.82039">
        <ele>1011</ele>
        <time>2026-08-04T11:55:19.132Z</time>
      </trkpt>
      <trkpt lat="45.90074" lon="6.82037">
        <ele>1012</ele>
        <time>2026-08-04T11:55:20.132Z</time>
      </trkpt>
      <trkpt lat="45.90074" lon="6.82036">
        <ele>1012</ele>
        <time>2026-08-04T11:55:21.132Z</time>
      </trkpt>
      <trkpt lat="45.90074" lon="6.82034">
        <ele>1013</ele>
        <time>2026-08-04T11:55:22.132Z</time>
      </trkpt>
      <trkpt lat="45.90075" lon="6.82033">
        <ele>1013</ele>
        <time>2026-08-04T11:55:23.132Z</time>
      </trkpt>
      <trkpt lat="45.90075" lon="6.82032">
        <ele>1014</ele>
        <time>2026-08-04T11:55:24.132Z</time>
      </trkpt>
      <trkpt lat="45.90076" lon="6.8203">
        <ele>1014</ele>
        <time>2026-08-04T11:55:25.132Z</time>
      </trkpt>
      <trkpt lat="45.90077" lon="6.82029">
        <ele>1015</ele>
        <time>2026-08-04T11:55:26.132Z</time>
      </trkpt>
      <trkpt lat="45.90078" lon="6.82028">
        <ele>1015</ele>
        <time>2026-08-04T11:55:27.132Z</time>
      </trkpt>
      <trkpt lat="45.90079" lon="6.82027">
        <ele>1015</ele>
        <time>2026-08-04T11:55:28.132Z</time>
      </trkpt>
      <trkpt lat="45.9008" lon="6.82026">
        <ele>1015</ele>
        <time>2026-08-04T11:55:29.132Z</time>
      </trkpt>
      <trkpt lat="45.9008" lon="6.82024">
        <ele>1015</ele>
        <time>2026-08-04T11:55:30.132Z</time>
      </trkpt>
      <trkpt lat="45.9008" lon="6.82022">
        <ele>1014</ele>
        <time>2026-08-04T11:55:31.132Z</time>
      </trkpt>
      <trkpt lat="45.9008" lon="6.8202">
        <ele>1014</ele>
        <time>2026-08-04T11:55:32.132Z</time>
      </trkpt>
      <trkpt lat="45.9008" lon="6.82019">
        <ele>1014</ele>
        <time>2026-08-04T11:55:33.132Z</time>
      </trkpt>
      <trkpt lat="45.90079" lon="6.82018">
        <ele>1014</ele>
        <time>2026-08-04T11:55:34.132Z</time>
      </trkpt>
      <trkpt lat="45.9008" lon="6.82016">
        <ele>1015</ele>
        <time>2026-08-04T11:55:35.132Z</time>
      </trkpt>
      <trkpt lat="45.90081" lon="6.82014">
        <ele>1015</ele>
        <time>2026-08-04T11:55:36.132Z</time>
      </trkpt>
      <trkpt lat="45.90081" lon="6.82013">
        <ele>1015</ele>
        <time>2026-08-04T11:55:37.132Z</time>
      </trkpt>
      <trkpt lat="45.90082" lon="6.82011">
        <ele>1015</ele>
        <time>2026-08-04T11:55:38.132Z</time>
      </trkpt>
      <trkpt lat="45.90082" lon="6.82009">
        <ele>1015</ele>
        <time>2026-08-04T11:55:39.133Z</time>
      </trkpt>
      <trkpt lat="45.90082" lon="6.82009">
        <ele>1015</ele>
        <time>2026-08-04T11:55:40.132Z</time>
      </trkpt>
      <trkpt lat="45.90082" lon="6.82008">
        <ele>1015</ele>
        <time>2026-08-04T11:55:41.132Z</time>
      </trkpt>
      <trkpt lat="45.90083" lon="6.82007">
        <ele>1015</ele>
        <time>2026-08-04T11:55:42.132Z</time>
      </trkpt>
      <trkpt lat="45.90083" lon="6.82006">
        <ele>1014</ele>
        <time>2026-08-04T11:55:43.132Z</time>
      </trkpt>
      <trkpt lat="45.90083" lon="6.82005">
        <ele>1014</ele>
        <time>2026-08-04T11:55:44.132Z</time>
      </trkpt>
      <trkpt lat="45.90084" lon="6.82003">
        <ele>1014</ele>
        <time>2026-08-04T11:55:45.132Z</time>
      </trkpt>
      <trkpt lat="45.90084" lon="6.82002">
        <ele>1014</ele>
        <time>2026-08-04T11:55:46.132Z</time>
      </trkpt>
      <trkpt lat="45.90083" lon="6.82001">
        <ele>1013</ele>
        <time>2026-08-04T11:55:47.132Z</time>
      </trkpt>
      <trkpt lat="45.90083" lon="6.82">
        <ele>1013</ele>
        <time>2026-08-04T11:55:48.132Z</time>
      </trkpt>
      <trkpt lat="45.90082" lon="6.81999">
        <ele>1013</ele>
        <time>2026-08-04T11:55:49.132Z</time>
      </trkpt>
      <trkpt lat="45.90082" lon="6.81997">
        <ele>1013</ele>
        <time>2026-08-04T11:55:50.132Z</time>
      </trkpt>
      <trkpt lat="45.90081" lon="6.81996">
        <ele>1012</ele>
        <time>2026-08-04T11:55:51.132Z</time>
      </trkpt>
      <trkpt lat="45.90081" lon="6.81995">
        <ele>1012</ele>
        <time>2026-08-04T11:55:52.132Z</time>
      </trkpt>
      <trkpt lat="45.90081" lon="6.81994">
        <ele>1011</ele>
        <time>2026-08-04T11:55:53.132Z</time>
      </trkpt>
      <trkpt lat="45.90081" lon="6.81993">
        <ele>1011</ele>
        <time>2026-08-04T11:55:54.132Z</time>
      </trkpt>
      <trkpt lat="45.9008" lon="6.81992">
        <ele>1011</ele>
        <time>2026-08-04T11:55:55.132Z</time>
      </trkpt>
      <trkpt lat="45.9008" lon="6.81991">
        <ele>1012</ele>
        <time>2026-08-04T11:55:56.132Z</time>
      </trkpt>
      <trkpt lat="45.9008" lon="6.81991">
        <ele>1012</ele>
        <time>2026-08-04T11:55:57.132Z</time>
      </trkpt>
      <trkpt lat="45.90079" lon="6.8199">
        <ele>1013</ele>
        <time>2026-08-04T11:55:58.132Z</time>
      </trkpt>
      <trkpt lat="45.90079" lon="6.81989">
        <ele>1013</ele>
        <time>2026-08-04T11:55:59.132Z</time>
      </trkpt>
      <trkpt lat="45.90079" lon="6.81987">
        <ele>1013</ele>
        <time>2026-08-04T11:56:00.132Z</time>
      </trkpt>
      <trkpt lat="45.90079" lon="6.81986">
        <ele>1014</ele>
        <time>2026-08-04T11:56:01.132Z</time>
      </trkpt>
      <trkpt lat="45.90079" lon="6.81985">
        <ele>1014</ele>
        <time>2026-08-04T11:56:02.132Z</time>
      </trkpt>
      <trkpt lat="45.90079" lon="6.81984">
        <ele>1014</ele>
        <time>2026-08-04T11:56:03.132Z</time>
      </trkpt>
      <trkpt lat="45.90079" lon="6.81983">
        <ele>1015</ele>
        <time>2026-08-04T11:56:04.132Z</time>
      </trkpt>
      <trkpt lat="45.90079" lon="6.81982">
        <ele>1015</ele>
        <time>2026-08-04T11:56:05.132Z</time>
      </trkpt>
      <trkpt lat="45.90079" lon="6.8198">
        <ele>1015</ele>
        <time>2026-08-04T11:56:06.132Z</time>
      </trkpt>
      <trkpt lat="45.90079" lon="6.81979">
        <ele>1015</ele>
        <time>2026-08-04T11:56:07.132Z</time>
      </trkpt>
      <trkpt lat="45.90078" lon="6.81977">
        <ele>1016</ele>
        <time>2026-08-04T11:56:08.132Z</time>
      </trkpt>
      <trkpt lat="45.90078" lon="6.81976">
        <ele>1016</ele>
        <time>2026-08-04T11:56:09.132Z</time>
      </trkpt>
      <trkpt lat="45.90078" lon="6.81974">
        <ele>1016</ele>
        <time>2026-08-04T11:56:10.132Z</time>
      </trkpt>
      <trkpt lat="45.90078" lon="6.81973">
        <ele>1016</ele>
        <time>2026-08-04T11:56:11.132Z</time>
      </trkpt>
      <trkpt lat="45.90078" lon="6.81972">
        <ele>1017</ele>
        <time>2026-08-04T11:56:12.132Z</time>
      </trkpt>
      <trkpt lat="45.90078" lon="6.81972">
        <ele>1017</ele>
        <time>2026-08-04T11:56:13.132Z</time>
      </trkpt>
      <trkpt lat="45.90077" lon="6.81971">
        <ele>1017</ele>
        <time>2026-08-04T11:56:14.132Z</time>
      </trkpt>
      <trkpt lat="45.90077" lon="6.8197">
        <ele>1017</ele>
        <time>2026-08-04T11:56:15.132Z</time>
      </trkpt>
      <trkpt lat="45.90078" lon="6.8197">
        <ele>1018</ele>
        <time>2026-08-04T11:56:16.132Z</time>
      </trkpt>
      <trkpt lat="45.90077" lon="6.81969">
        <ele>1018</ele>
        <time>2026-08-04T11:56:17.132Z</time>
      </trkpt>
      <trkpt lat="45.90077" lon="6.81968">
        <ele>1019</ele>
        <time>2026-08-04T11:56:18.132Z</time>
      </trkpt>
      <trkpt lat="45.90077" lon="6.81967">
        <ele>1019</ele>
        <time>2026-08-04T11:56:19.132Z</time>
      </trkpt>
      <trkpt lat="45.90077" lon="6.81966">
        <ele>1020</ele>
        <time>2026-08-04T11:56:20.132Z</time>
      </trkpt>
      <trkpt lat="45.90077" lon="6.81964">
        <ele>1020</ele>
        <time>2026-08-04T11:56:21.132Z</time>
      </trkpt>
      <trkpt lat="45.90078" lon="6.81964">
        <ele>1020</ele>
        <time>2026-08-04T11:56:22.132Z</time>
      </trkpt>
      <trkpt lat="45.90077" lon="6.81963">
        <ele>1021</ele>
        <time>2026-08-04T11:56:23.132Z</time>
      </trkpt>
      <trkpt lat="45.90077" lon="6.81961">
        <ele>1021</ele>
        <time>2026-08-04T11:56:24.132Z</time>
      </trkpt>
      <trkpt lat="45.90078" lon="6.8196">
        <ele>1021</ele>
        <time>2026-08-04T11:56:25.132Z</time>
      </trkpt>
      <trkpt lat="45.90078" lon="6.81959">
        <ele>1021</ele>
        <time>2026-08-04T11:56:26.132Z</time>
      </trkpt>
      <trkpt lat="45.90077" lon="6.81958">
        <ele>1022</ele>
        <time>2026-08-04T11:56:27.132Z</time>
      </trkpt>
      <trkpt lat="45.90076" lon="6.81956">
        <ele>1022</ele>
        <time>2026-08-04T11:56:28.132Z</time>
      </trkpt>
      <trkpt lat="45.90076" lon="6.81955">
        <ele>1022</ele>
        <time>2026-08-04T11:56:29.132Z</time>
      </trkpt>
      <trkpt lat="45.90075" lon="6.81954">
        <ele>1023</ele>
        <time>2026-08-04T11:56:30.132Z</time>
      </trkpt>
      <trkpt lat="45.90075" lon="6.81953">
        <ele>1023</ele>
        <time>2026-08-04T11:56:31.132Z</time>
      </trkpt>
      <trkpt lat="45.90075" lon="6.81952">
        <ele>1024</ele>
        <time>2026-08-04T11:56:32.132Z</time>
      </trkpt>
      <trkpt lat="45.90075" lon="6.81949">
        <ele>1025</ele>
        <time>2026-08-04T11:56:33.132Z</time>
      </trkpt>
      <trkpt lat="45.90074" lon="6.81947">
        <ele>1025</ele>
        <time>2026-08-04T11:56:34.132Z</time>
      </trkpt>
      <trkpt lat="45.90073" lon="6.81945">
        <ele>1026</ele>
        <time>2026-08-04T11:56:35.132Z</time>
      </trkpt>
      <trkpt lat="45.90072" lon="6.81944">
        <ele>1027</ele>
        <time>2026-08-04T11:56:36.132Z</time>
      </trkpt>
      <trkpt lat="45.90072" lon="6.81942">
        <ele>1028</ele>
        <time>2026-08-04T11:56:37.132Z</time>
      </trkpt>
      <trkpt lat="45.90072" lon="6.81941">
        <ele>1029</ele>
        <time>2026-08-04T11:56:38.132Z</time>
      </trkpt>
      <trkpt lat="45.90072" lon="6.81939">
        <ele>1029</ele>
        <time>2026-08-04T11:56:39.132Z</time>
      </trkpt>
      <trkpt lat="45.90072" lon="6.81938">
        <ele>1029</ele>
        <time>2026-08-04T11:56:40.132Z</time>
      </trkpt>
      <trkpt lat="45.90071" lon="6.81936">
        <ele>1030</ele>
        <time>2026-08-04T11:56:41.132Z</time>
      </trkpt>
      <trkpt lat="45.90071" lon="6.81935">
        <ele>1030</ele>
        <time>2026-08-04T11:56:42.132Z</time>
      </trkpt>
      <trkpt lat="45.90071" lon="6.81934">
        <ele>1030</ele>
        <time>2026-08-04T11:56:43.132Z</time>
      </trkpt>
      <trkpt lat="45.90071" lon="6.81933">
        <ele>1030</ele>
        <time>2026-08-04T11:56:44.132Z</time>
      </trkpt>
      <trkpt lat="45.90072" lon="6.81932">
        <ele>1030</ele>
        <time>2026-08-04T11:56:45.132Z</time>
      </trkpt>
      <trkpt lat="45.90072" lon="6.81931">
        <ele>1030</ele>
        <time>2026-08-04T11:56:46.132Z</time>
      </trkpt>
      <trkpt lat="45.90072" lon="6.8193">
        <ele>1030</ele>
        <time>2026-08-04T11:56:47.132Z</time>
      </trkpt>
      <trkpt lat="45.90073" lon="6.81928">
        <ele>1030</ele>
        <time>2026-08-04T11:56:48.132Z</time>
      </trkpt>
      <trkpt lat="45.90073" lon="6.81927">
        <ele>1031</ele>
        <time>2026-08-04T11:56:49.132Z</time>
      </trkpt>
      <trkpt lat="45.90073" lon="6.81925">
        <ele>1031</ele>
        <time>2026-08-04T11:56:50.132Z</time>
      </trkpt>
      <trkpt lat="45.90073" lon="6.81923">
        <ele>1031</ele>
        <time>2026-08-04T11:56:51.132Z</time>
      </trkpt>
      <trkpt lat="45.90072" lon="6.81922">
        <ele>1031</ele>
        <time>2026-08-04T11:56:52.132Z</time>
      </trkpt>
      <trkpt lat="45.90072" lon="6.8192">
        <ele>1031</ele>
        <time>2026-08-04T11:56:53.132Z</time>
      </trkpt>
      <trkpt lat="45.90072" lon="6.81918">
        <ele>1031</ele>
        <time>2026-08-04T11:56:54.132Z</time>
      </trkpt>
      <trkpt lat="45.90071" lon="6.81916">
        <ele>1031</ele>
        <time>2026-08-04T11:56:55.132Z</time>
      </trkpt>
      <trkpt lat="45.90071" lon="6.81914">
        <ele>1031</ele>
        <time>2026-08-04T11:56:56.132Z</time>
      </trkpt>
      <trkpt lat="45.90071" lon="6.81912">
        <ele>1032</ele>
        <time>2026-08-04T11:56:57.132Z</time>
      </trkpt>
      <trkpt lat="45.90071" lon="6.8191">
        <ele>1032</ele>
        <time>2026-08-04T11:56:58.132Z</time>
      </trkpt>
      <trkpt lat="45.90071" lon="6.81909">
        <ele>1032</ele>
        <time>2026-08-04T11:56:59.132Z</time>
      </trkpt>
      <trkpt lat="45.90071" lon="6.81907">
        <ele>1033</ele>
        <time>2026-08-04T11:57:00.132Z</time>
      </trkpt>
      <trkpt lat="45.90072" lon="6.81906">
        <ele>1033</ele>
        <time>2026-08-04T11:57:01.132Z</time>
      </trkpt>
      <trkpt lat="45.90073" lon="6.81904">
        <ele>1032</ele>
        <time>2026-08-04T11:57:02.132Z</time>
      </trkpt>
      <trkpt lat="45.90073" lon="6.81903">
        <ele>1032</ele>
        <time>2026-08-04T11:57:03.132Z</time>
      </trkpt>
      <trkpt lat="45.90074" lon="6.81901">
        <ele>1032</ele>
        <time>2026-08-04T11:57:04.132Z</time>
      </trkpt>
      <trkpt lat="45.90074" lon="6.81899">
        <ele>1032</ele>
        <time>2026-08-04T11:57:05.132Z</time>
      </trkpt>
      <trkpt lat="45.90075" lon="6.81898">
        <ele>1032</ele>
        <time>2026-08-04T11:57:06.132Z</time>
      </trkpt>
      <trkpt lat="45.90075" lon="6.81897">
        <ele>1032</ele>
        <time>2026-08-04T11:57:07.132Z</time>
      </trkpt>
      <trkpt lat="45.90076" lon="6.81897">
        <ele>1032</ele>
        <time>2026-08-04T11:57:08.132Z</time>
      </trkpt>
      <trkpt lat="45.90075" lon="6.81896">
        <ele>1032</ele>
        <time>2026-08-04T11:57:09.132Z</time>
      </trkpt>
      <trkpt lat="45.90076" lon="6.81895">
        <ele>1033</ele>
        <time>2026-08-04T11:57:10.132Z</time>
      </trkpt>
      <trkpt lat="45.90076" lon="6.81893">
        <ele>1033</ele>
        <time>2026-08-04T11:57:11.132Z</time>
      </trkpt>
      <trkpt lat="45.90076" lon="6.81892">
        <ele>1033</ele>
        <time>2026-08-04T11:57:12.132Z</time>
      </trkpt>
      <trkpt lat="45.90076" lon="6.81892">
        <ele>1034</ele>
        <time>2026-08-04T11:57:13.132Z</time>
      </trkpt>
      <trkpt lat="45.90077" lon="6.81891">
        <ele>1034</ele>
        <time>2026-08-04T11:57:14.132Z</time>
      </trkpt>
      <trkpt lat="45.90078" lon="6.8189">
        <ele>1034</ele>
        <time>2026-08-04T11:57:15.132Z</time>
      </trkpt>
      <trkpt lat="45.90079" lon="6.81888">
        <ele>1034</ele>
        <time>2026-08-04T11:57:16.132Z</time>
      </trkpt>
      <trkpt lat="45.90079" lon="6.81887">
        <ele>1033</ele>
        <time>2026-08-04T11:57:17.132Z</time>
      </trkpt>
      <trkpt lat="45.9008" lon="6.81885">
        <ele>1034</ele>
        <time>2026-08-04T11:57:18.132Z</time>
      </trkpt>
      <trkpt lat="45.9008" lon="6.81884">
        <ele>1034</ele>
        <time>2026-08-04T11:57:19.132Z</time>
      </trkpt>
      <trkpt lat="45.9008" lon="6.81883">
        <ele>1034</ele>
        <time>2026-08-04T11:57:20.132Z</time>
      </trkpt>
      <trkpt lat="45.90081" lon="6.81881">
        <ele>1033</ele>
        <time>2026-08-04T11:57:21.132Z</time>
      </trkpt>
      <trkpt lat="45.90081" lon="6.8188">
        <ele>1033</ele>
        <time>2026-08-04T11:57:22.132Z</time>
      </trkpt>
      <trkpt lat="45.90081" lon="6.81878">
        <ele>1033</ele>
        <time>2026-08-04T11:57:23.132Z</time>
      </trkpt>
      <trkpt lat="45.90081" lon="6.81877">
        <ele>1033</ele>
        <time>2026-08-04T11:57:24.132Z</time>
      </trkpt>
      <trkpt lat="45.90081" lon="6.81876">
        <ele>1033</ele>
        <time>2026-08-04T11:57:25.132Z</time>
      </trkpt>
      <trkpt lat="45.90081" lon="6.81875">
        <ele>1034</ele>
        <time>2026-08-04T11:57:26.132Z</time>
      </trkpt>
      <trkpt lat="45.90082" lon="6.81874">
        <ele>1034</ele>
        <time>2026-08-04T11:57:27.132Z</time>
      </trkpt>
      <trkpt lat="45.90082" lon="6.81872">
        <ele>1034</ele>
        <time>2026-08-04T11:57:28.132Z</time>
      </trkpt>
      <trkpt lat="45.90083" lon="6.81871">
        <ele>1034</ele>
        <time>2026-08-04T11:57:29.132Z</time>
      </trkpt>
      <trkpt lat="45.90083" lon="6.8187">
        <ele>1035</ele>
        <time>2026-08-04T11:57:30.132Z</time>
      </trkpt>
      <trkpt lat="45.90083" lon="6.81868">
        <ele>1035</ele>
        <time>2026-08-04T11:57:31.132Z</time>
      </trkpt>
      <trkpt lat="45.90084" lon="6.81867">
        <ele>1035</ele>
        <time>2026-08-04T11:57:32.132Z</time>
      </trkpt>
      <trkpt lat="45.90085" lon="6.81866">
        <ele>1035</ele>
        <time>2026-08-04T11:57:33.132Z</time>
      </trkpt>
      <trkpt lat="45.90085" lon="6.81865">
        <ele>1035</ele>
        <time>2026-08-04T11:57:34.132Z</time>
      </trkpt>
      <trkpt lat="45.90086" lon="6.81864">
        <ele>1035</ele>
        <time>2026-08-04T11:57:35.132Z</time>
      </trkpt>
      <trkpt lat="45.90086" lon="6.81863">
        <ele>1035</ele>
        <time>2026-08-04T11:57:36.132Z</time>
      </trkpt>
      <trkpt lat="45.90087" lon="6.81862">
        <ele>1035</ele>
        <time>2026-08-04T11:57:37.132Z</time>
      </trkpt>
      <trkpt lat="45.90087" lon="6.81861">
        <ele>1035</ele>
        <time>2026-08-04T11:57:38.132Z</time>
      </trkpt>
      <trkpt lat="45.90087" lon="6.8186">
        <ele>1035</ele>
        <time>2026-08-04T11:57:39.132Z</time>
      </trkpt>
      <trkpt lat="45.90087" lon="6.81859">
        <ele>1035</ele>
        <time>2026-08-04T11:57:40.132Z</time>
      </trkpt>
      <trkpt lat="45.90087" lon="6.81858">
        <ele>1035</ele>
        <time>2026-08-04T11:57:41.132Z</time>
      </trkpt>
      <trkpt lat="45.90088" lon="6.81858">
        <ele>1035</ele>
        <time>2026-08-04T11:57:42.132Z</time>
      </trkpt>
      <trkpt lat="45.90088" lon="6.81857">
        <ele>1035</ele>
        <time>2026-08-04T11:57:43.132Z</time>
      </trkpt>
      <trkpt lat="45.90088" lon="6.81858">
        <ele>1035</ele>
        <time>2026-08-04T11:57:44.132Z</time>
      </trkpt>
      <trkpt lat="45.90088" lon="6.81858">
        <ele>1035</ele>
        <time>2026-08-04T11:57:45.132Z</time>
      </trkpt>
      <trkpt lat="45.90088" lon="6.81858">
        <ele>1035</ele>
        <time>2026-08-04T11:57:46.132Z</time>
      </trkpt>
      <trkpt lat="45.90088" lon="6.81858">
        <ele>1035</ele>
        <time>2026-08-04T11:57:47.132Z</time>
      </trkpt>
      <trkpt lat="45.90089" lon="6.81858">
        <ele>1036</ele>
        <time>2026-08-04T11:57:48.132Z</time>
      </trkpt>
      <trkpt lat="45.90087" lon="6.81857">
        <ele>1035</ele>
        <time>2026-08-04T11:57:49.132Z</time>
      </trkpt>
      <trkpt lat="45.90086" lon="6.81856">
        <ele>1036</ele>
        <time>2026-08-04T11:57:50.132Z</time>
      </trkpt>
      <trkpt lat="45.90085" lon="6.81856">
        <ele>1036</ele>
        <time>2026-08-04T11:57:51.132Z</time>
      </trkpt>
      <trkpt lat="45.90083" lon="6.81856">
        <ele>1036</ele>
        <time>2026-08-04T11:57:52.132Z</time>
      </trkpt>
      <trkpt lat="45.90082" lon="6.81855">
        <ele>1036</ele>
        <time>2026-08-04T11:57:53.132Z</time>
      </trkpt>
      <trkpt lat="45.90081" lon="6.81855">
        <ele>1036</ele>
        <time>2026-08-04T11:57:54.132Z</time>
      </trkpt>
      <trkpt lat="45.90081" lon="6.81853">
        <ele>1036</ele>
        <time>2026-08-04T11:57:55.132Z</time>
      </trkpt>
      <trkpt lat="45.9008" lon="6.81852">
        <ele>1035</ele>
        <time>2026-08-04T11:57:56.132Z</time>
      </trkpt>
      <trkpt lat="45.90079" lon="6.8185">
        <ele>1035</ele>
        <time>2026-08-04T11:57:57.132Z</time>
      </trkpt>
      <trkpt lat="45.90079" lon="6.81849">
        <ele>1035</ele>
        <time>2026-08-04T11:57:58.132Z</time>
      </trkpt>
      <trkpt lat="45.90079" lon="6.81847">
        <ele>1035</ele>
        <time>2026-08-04T11:57:59.132Z</time>
      </trkpt>
      <trkpt lat="45.90079" lon="6.81845">
        <ele>1035</ele>
        <time>2026-08-04T11:58:00.132Z</time>
      </trkpt>
      <trkpt lat="45.90079" lon="6.81843">
        <ele>1035</ele>
        <time>2026-08-04T11:58:01.132Z</time>
      </trkpt>
      <trkpt lat="45.90078" lon="6.81842">
        <ele>1035</ele>
        <time>2026-08-04T11:58:02.132Z</time>
      </trkpt>
      <trkpt lat="45.90078" lon="6.8184">
        <ele>1035</ele>
        <time>2026-08-04T11:58:03.132Z</time>
      </trkpt>
      <trkpt lat="45.90079" lon="6.81838">
        <ele>1035</ele>
        <time>2026-08-04T11:58:04.132Z</time>
      </trkpt>
      <trkpt lat="45.9008" lon="6.81836">
        <ele>1035</ele>
        <time>2026-08-04T11:58:05.132Z</time>
      </trkpt>
      <trkpt lat="45.9008" lon="6.81834">
        <ele>1034</ele>
        <time>2026-08-04T11:58:06.132Z</time>
      </trkpt>
      <trkpt lat="45.90081" lon="6.81832">
        <ele>1034</ele>
        <time>2026-08-04T11:58:07.132Z</time>
      </trkpt>
      <trkpt lat="45.90082" lon="6.81829">
        <ele>1034</ele>
        <time>2026-08-04T11:58:08.132Z</time>
      </trkpt>
      <trkpt lat="45.90082" lon="6.81827">
        <ele>1035</ele>
        <time>2026-08-04T11:58:09.132Z</time>
      </trkpt>
      <trkpt lat="45.90083" lon="6.81825">
        <ele>1035</ele>
        <time>2026-08-04T11:58:10.132Z</time>
      </trkpt>
      <trkpt lat="45.90083" lon="6.81821">
        <ele>1036</ele>
        <time>2026-08-04T11:58:11.132Z</time>
      </trkpt>
      <trkpt lat="45.90084" lon="6.81818">
        <ele>1036</ele>
        <time>2026-08-04T11:58:12.132Z</time>
      </trkpt>
      <trkpt lat="45.90085" lon="6.81815">
        <ele>1037</ele>
        <time>2026-08-04T11:58:13.132Z</time>
      </trkpt>
      <trkpt lat="45.90086" lon="6.81813">
        <ele>1037</ele>
        <time>2026-08-04T11:58:14.132Z</time>
      </trkpt>
      <trkpt lat="45.90088" lon="6.81811">
        <ele>1037</ele>
        <time>2026-08-04T11:58:15.132Z</time>
      </trkpt>
      <trkpt lat="45.90089" lon="6.81808">
        <ele>1038</ele>
        <time>2026-08-04T11:58:16.132Z</time>
      </trkpt>
      <trkpt lat="45.90091" lon="6.81806">
        <ele>1038</ele>
        <time>2026-08-04T11:58:17.132Z</time>
      </trkpt>
      <trkpt lat="45.90092" lon="6.81803">
        <ele>1038</ele>
        <time>2026-08-04T11:58:18.132Z</time>
      </trkpt>
      <trkpt lat="45.90093" lon="6.818">
        <ele>1038</ele>
        <time>2026-08-04T11:58:19.132Z</time>
      </trkpt>
      <trkpt lat="45.90095" lon="6.81798">
        <ele>1039</ele>
        <time>2026-08-04T11:58:20.132Z</time>
      </trkpt>
      <trkpt lat="45.90096" lon="6.81795">
        <ele>1039</ele>
        <time>2026-08-04T11:58:21.132Z</time>
      </trkpt>
      <trkpt lat="45.90098" lon="6.81794">
        <ele>1039</ele>
        <time>2026-08-04T11:58:22.132Z</time>
      </trkpt>
      <trkpt lat="45.901" lon="6.81792">
        <ele>1039</ele>
        <time>2026-08-04T11:58:23.132Z</time>
      </trkpt>
      <trkpt lat="45.90101" lon="6.81789">
        <ele>1039</ele>
        <time>2026-08-04T11:58:24.132Z</time>
      </trkpt>
      <trkpt lat="45.90101" lon="6.81785">
        <ele>1039</ele>
        <time>2026-08-04T11:58:25.132Z</time>
      </trkpt>
      <trkpt lat="45.90103" lon="6.81783">
        <ele>1038</ele>
        <time>2026-08-04T11:58:26.132Z</time>
      </trkpt>
      <trkpt lat="45.90104" lon="6.81781">
        <ele>1038</ele>
        <time>2026-08-04T11:58:27.132Z</time>
      </trkpt>
      <trkpt lat="45.90105" lon="6.8178">
        <ele>1038</ele>
        <time>2026-08-04T11:58:28.132Z</time>
      </trkpt>
      <trkpt lat="45.90106" lon="6.81779">
        <ele>1038</ele>
        <time>2026-08-04T11:58:29.132Z</time>
      </trkpt>
      <trkpt lat="45.90108" lon="6.81777">
        <ele>1038</ele>
        <time>2026-08-04T11:58:30.132Z</time>
      </trkpt>
      <trkpt lat="45.90109" lon="6.81774">
        <ele>1038</ele>
        <time>2026-08-04T11:58:31.132Z</time>
      </trkpt>
      <trkpt lat="45.9011" lon="6.81772">
        <ele>1038</ele>
        <time>2026-08-04T11:58:32.132Z</time>
      </trkpt>
      <trkpt lat="45.90111" lon="6.8177">
        <ele>1038</ele>
        <time>2026-08-04T11:58:33.132Z</time>
      </trkpt>
      <trkpt lat="45.90112" lon="6.81768">
        <ele>1039</ele>
        <time>2026-08-04T11:58:34.132Z</time>
      </trkpt>
      <trkpt lat="45.90113" lon="6.81766">
        <ele>1039</ele>
        <time>2026-08-04T11:58:35.132Z</time>
      </trkpt>
      <trkpt lat="45.90113" lon="6.81764">
        <ele>1040</ele>
        <time>2026-08-04T11:58:36.132Z</time>
      </trkpt>
      <trkpt lat="45.90114" lon="6.81761">
        <ele>1040</ele>
        <time>2026-08-04T11:58:37.132Z</time>
      </trkpt>
      <trkpt lat="45.90114" lon="6.81758">
        <ele>1040</ele>
        <time>2026-08-04T11:58:38.132Z</time>
      </trkpt>
      <trkpt lat="45.90115" lon="6.81756">
        <ele>1040</ele>
        <time>2026-08-04T11:58:39.132Z</time>
      </trkpt>
      <trkpt lat="45.90115" lon="6.81753">
        <ele>1040</ele>
        <time>2026-08-04T11:58:40.132Z</time>
      </trkpt>
      <trkpt lat="45.90116" lon="6.81751">
        <ele>1040</ele>
        <time>2026-08-04T11:58:41.132Z</time>
      </trkpt>
      <trkpt lat="45.90117" lon="6.81748">
        <ele>1040</ele>
        <time>2026-08-04T11:58:42.132Z</time>
      </trkpt>
      <trkpt lat="45.90117" lon="6.81746">
        <ele>1040</ele>
        <time>2026-08-04T11:58:43.132Z</time>
      </trkpt>
      <trkpt lat="45.90118" lon="6.81743">
        <ele>1040</ele>
        <time>2026-08-04T11:58:44.132Z</time>
      </trkpt>
      <trkpt lat="45.90118" lon="6.81741">
        <ele>1040</ele>
        <time>2026-08-04T11:58:45.132Z</time>
      </trkpt>
      <trkpt lat="45.90118" lon="6.81738">
        <ele>1040</ele>
        <time>2026-08-04T11:58:46.132Z</time>
      </trkpt>
      <trkpt lat="45.90119" lon="6.81736">
        <ele>1040</ele>
        <time>2026-08-04T11:58:47.132Z</time>
      </trkpt>
      <trkpt lat="45.9012" lon="6.81734">
        <ele>1041</ele>
        <time>2026-08-04T11:58:48.132Z</time>
      </trkpt>
      <trkpt lat="45.9012" lon="6.81731">
        <ele>1041</ele>
        <time>2026-08-04T11:58:49.132Z</time>
      </trkpt>
      <trkpt lat="45.90121" lon="6.81729">
        <ele>1041</ele>
        <time>2026-08-04T11:58:50.132Z</time>
      </trkpt>
      <trkpt lat="45.90121" lon="6.81726">
        <ele>1041</ele>
        <time>2026-08-04T11:58:51.132Z</time>
      </trkpt>
      <trkpt lat="45.90122" lon="6.81724">
        <ele>1041</ele>
        <time>2026-08-04T11:58:52.132Z</time>
      </trkpt>
      <trkpt lat="45.90122" lon="6.81721">
        <ele>1041</ele>
        <time>2026-08-04T11:58:53.132Z</time>
      </trkpt>
      <trkpt lat="45.90123" lon="6.81719">
        <ele>1041</ele>
        <time>2026-08-04T11:58:54.132Z</time>
      </trkpt>
      <trkpt lat="45.90124" lon="6.81716">
        <ele>1041</ele>
        <time>2026-08-04T11:58:55.132Z</time>
      </trkpt>
      <trkpt lat="45.90124" lon="6.81714">
        <ele>1041</ele>
        <time>2026-08-04T11:58:56.133Z</time>
      </trkpt>
      <trkpt lat="45.90124" lon="6.81712">
        <ele>1040</ele>
        <time>2026-08-04T11:58:57.132Z</time>
      </trkpt>
      <trkpt lat="45.90125" lon="6.8171">
        <ele>1040</ele>
        <time>2026-08-04T11:58:58.132Z</time>
      </trkpt>
      <trkpt lat="45.90126" lon="6.81708">
        <ele>1041</ele>
        <time>2026-08-04T11:58:59.132Z</time>
      </trkpt>
      <trkpt lat="45.90126" lon="6.81706">
        <ele>1041</ele>
        <time>2026-08-04T11:59:00.132Z</time>
      </trkpt>
      <trkpt lat="45.90126" lon="6.81704">
        <ele>1041</ele>
        <time>2026-08-04T11:59:01.132Z</time>
      </trkpt>
      <trkpt lat="45.90127" lon="6.81702">
        <ele>1041</ele>
        <time>2026-08-04T11:59:02.132Z</time>
      </trkpt>
      <trkpt lat="45.90127" lon="6.81699">
        <ele>1040</ele>
        <time>2026-08-04T11:59:03.132Z</time>
      </trkpt>
      <trkpt lat="45.90128" lon="6.81697">
        <ele>1041</ele>
        <time>2026-08-04T11:59:04.132Z</time>
      </trkpt>
      <trkpt lat="45.90128" lon="6.81694">
        <ele>1041</ele>
        <time>2026-08-04T11:59:05.132Z</time>
      </trkpt>
      <trkpt lat="45.90129" lon="6.81692">
        <ele>1041</ele>
        <time>2026-08-04T11:59:06.132Z</time>
      </trkpt>
      <trkpt lat="45.9013" lon="6.81689">
        <ele>1041</ele>
        <time>2026-08-04T11:59:07.132Z</time>
      </trkpt>
      <trkpt lat="45.9013" lon="6.81686">
        <ele>1041</ele>
        <time>2026-08-04T11:59:08.132Z</time>
      </trkpt>
      <trkpt lat="45.90131" lon="6.81683">
        <ele>1041</ele>
        <time>2026-08-04T11:59:09.132Z</time>
      </trkpt>
      <trkpt lat="45.90132" lon="6.81681">
        <ele>1041</ele>
        <time>2026-08-04T11:59:10.132Z</time>
      </trkpt>
      <trkpt lat="45.90132" lon="6.81678">
        <ele>1041</ele>
        <time>2026-08-04T11:59:11.132Z</time>
      </trkpt>
      <trkpt lat="45.90133" lon="6.81676">
        <ele>1042</ele>
        <time>2026-08-04T11:59:12.132Z</time>
      </trkpt>
      <trkpt lat="45.90133" lon="6.81673">
        <ele>1042</ele>
        <time>2026-08-04T11:59:13.132Z</time>
      </trkpt>
      <trkpt lat="45.90134" lon="6.8167">
        <ele>1042</ele>
        <time>2026-08-04T11:59:14.132Z</time>
      </trkpt>
      <trkpt lat="45.90135" lon="6.81668">
        <ele>1042</ele>
        <time>2026-08-04T11:59:15.132Z</time>
      </trkpt>
      <trkpt lat="45.90136" lon="6.81666">
        <ele>1042</ele>
        <time>2026-08-04T11:59:16.132Z</time>
      </trkpt>
      <trkpt lat="45.90136" lon="6.81663">
        <ele>1042</ele>
        <time>2026-08-04T11:59:17.132Z</time>
      </trkpt>
      <trkpt lat="45.90136" lon="6.81661">
        <ele>1042</ele>
        <time>2026-08-04T11:59:18.132Z</time>
      </trkpt>
      <trkpt lat="45.90136" lon="6.8166">
        <ele>1042</ele>
        <time>2026-08-04T11:59:19.132Z</time>
      </trkpt>
      <trkpt lat="45.90137" lon="6.81658">
        <ele>1042</ele>
        <time>2026-08-04T11:59:20.132Z</time>
      </trkpt>
      <trkpt lat="45.90139" lon="6.81656">
        <ele>1042</ele>
        <time>2026-08-04T11:59:21.132Z</time>
      </trkpt>
      <trkpt lat="45.9014" lon="6.81654">
        <ele>1042</ele>
        <time>2026-08-04T11:59:22.132Z</time>
      </trkpt>
      <trkpt lat="45.90141" lon="6.81652">
        <ele>1042</ele>
        <time>2026-08-04T11:59:23.132Z</time>
      </trkpt>
      <trkpt lat="45.90142" lon="6.81649">
        <ele>1042</ele>
        <time>2026-08-04T11:59:24.132Z</time>
      </trkpt>
      <trkpt lat="45.90143" lon="6.81646">
        <ele>1042</ele>
        <time>2026-08-04T11:59:25.132Z</time>
      </trkpt>
      <trkpt lat="45.90143" lon="6.81644">
        <ele>1042</ele>
        <time>2026-08-04T11:59:26.132Z</time>
      </trkpt>
      <trkpt lat="45.90144" lon="6.81641">
        <ele>1042</ele>
        <time>2026-08-04T11:59:27.132Z</time>
      </trkpt>
      <trkpt lat="45.90145" lon="6.81639">
        <ele>1042</ele>
        <time>2026-08-04T11:59:28.132Z</time>
      </trkpt>
      <trkpt lat="45.90146" lon="6.81636">
        <ele>1042</ele>
        <time>2026-08-04T11:59:29.132Z</time>
      </trkpt>
      <trkpt lat="45.90146" lon="6.81635">
        <ele>1042</ele>
        <time>2026-08-04T11:59:30.132Z</time>
      </trkpt>
      <trkpt lat="45.90147" lon="6.81633">
        <ele>1042</ele>
        <time>2026-08-04T11:59:31.132Z</time>
      </trkpt>
      <trkpt lat="45.90148" lon="6.81631">
        <ele>1042</ele>
        <time>2026-08-04T11:59:32.132Z</time>
      </trkpt>
      <trkpt lat="45.90149" lon="6.81629">
        <ele>1042</ele>
        <time>2026-08-04T11:59:33.132Z</time>
      </trkpt>
      <trkpt lat="45.90149" lon="6.81626">
        <ele>1042</ele>
        <time>2026-08-04T11:59:34.132Z</time>
      </trkpt>
      <trkpt lat="45.90149" lon="6.81623">
        <ele>1042</ele>
        <time>2026-08-04T11:59:35.132Z</time>
      </trkpt>
      <trkpt lat="45.90149" lon="6.8162">
        <ele>1042</ele>
        <time>2026-08-04T11:59:36.132Z</time>
      </trkpt>
      <trkpt lat="45.90149" lon="6.81617">
        <ele>1043</ele>
        <time>2026-08-04T11:59:37.132Z</time>
      </trkpt>
      <trkpt lat="45.9015" lon="6.81615">
        <ele>1043</ele>
        <time>2026-08-04T11:59:38.132Z</time>
      </trkpt>
      <trkpt lat="45.9015" lon="6.81612">
        <ele>1043</ele>
        <time>2026-08-04T11:59:39.132Z</time>
      </trkpt>
      <trkpt lat="45.90151" lon="6.81609">
        <ele>1043</ele>
        <time>2026-08-04T11:59:40.132Z</time>
      </trkpt>
      <trkpt lat="45.90152" lon="6.81606">
        <ele>1043</ele>
        <time>2026-08-04T11:59:41.132Z</time>
      </trkpt>
      <trkpt lat="45.90152" lon="6.81604">
        <ele>1043</ele>
        <time>2026-08-04T11:59:42.132Z</time>
      </trkpt>
      <trkpt lat="45.90153" lon="6.81601">
        <ele>1043</ele>
        <time>2026-08-04T11:59:43.132Z</time>
      </trkpt>
      <trkpt lat="45.90154" lon="6.81599">
        <ele>1042</ele>
        <time>2026-08-04T11:59:44.132Z</time>
      </trkpt>
      <trkpt lat="45.90155" lon="6.81597">
        <ele>1042</ele>
        <time>2026-08-04T11:59:45.132Z</time>
      </trkpt>
      <trkpt lat="45.90156" lon="6.81594">
        <ele>1042</ele>
        <time>2026-08-04T11:59:46.132Z</time>
      </trkpt>
      <trkpt lat="45.90157" lon="6.81591">
        <ele>1042</ele>
        <time>2026-08-04T11:59:47.132Z</time>
      </trkpt>
      <trkpt lat="45.90158" lon="6.81588">
        <ele>1042</ele>
        <time>2026-08-04T11:59:48.132Z</time>
      </trkpt>
      <trkpt lat="45.9016" lon="6.81586">
        <ele>1042</ele>
        <time>2026-08-04T11:59:49.132Z</time>
      </trkpt>
      <trkpt lat="45.90161" lon="6.81583">
        <ele>1042</ele>
        <time>2026-08-04T11:59:50.132Z</time>
      </trkpt>
      <trkpt lat="45.90163" lon="6.81581">
        <ele>1042</ele>
        <time>2026-08-04T11:59:51.132Z</time>
      </trkpt>
      <trkpt lat="45.90164" lon="6.81579">
        <ele>1041</ele>
        <time>2026-08-04T11:59:52.132Z</time>
      </trkpt>
      <trkpt lat="45.90166" lon="6.81577">
        <ele>1041</ele>
        <time>2026-08-04T11:59:53.132Z</time>
      </trkpt>
      <trkpt lat="45.90167" lon="6.81574">
        <ele>1040</ele>
        <time>2026-08-04T11:59:54.132Z</time>
      </trkpt>
      <trkpt lat="45.90168" lon="6.81572">
        <ele>1040</ele>
        <time>2026-08-04T11:59:55.132Z</time>
      </trkpt>
      <trkpt lat="45.90169" lon="6.81569">
        <ele>1040</ele>
        <time>2026-08-04T11:59:56.132Z</time>
      </trkpt>
      <trkpt lat="45.9017" lon="6.81566">
        <ele>1040</ele>
        <time>2026-08-04T11:59:57.132Z</time>
      </trkpt>
      <trkpt lat="45.90171" lon="6.81563">
        <ele>1040</ele>
        <time>2026-08-04T11:59:58.132Z</time>
      </trkpt>
      <trkpt lat="45.90172" lon="6.81561">
        <ele>1040</ele>
        <time>2026-08-04T11:59:59.132Z</time>
      </trkpt>
      <trkpt lat="45.90173" lon="6.81558">
        <ele>1040</ele>
        <time>2026-08-04T12:00:00.132Z</time>
      </trkpt>
      <trkpt lat="45.90173" lon="6.81556">
        <ele>1040</ele>
        <time>2026-08-04T12:00:01.132Z</time>
      </trkpt>
      <trkpt lat="45.90174" lon="6.81553">
        <ele>1040</ele>
        <time>2026-08-04T12:00:02.132Z</time>
      </trkpt>
      <trkpt lat="45.90174" lon="6.8155">
        <ele>1040</ele>
        <time>2026-08-04T12:00:03.132Z</time>
      </trkpt>
      <trkpt lat="45.90175" lon="6.81548">
        <ele>1039</ele>
        <time>2026-08-04T12:00:04.132Z</time>
      </trkpt>
      <trkpt lat="45.90175" lon="6.81545">
        <ele>1039</ele>
        <time>2026-08-04T12:00:05.132Z</time>
      </trkpt>
      <trkpt lat="45.90176" lon="6.81543">
        <ele>1038</ele>
        <time>2026-08-04T12:00:06.132Z</time>
      </trkpt>
      <trkpt lat="45.90176" lon="6.81541">
        <ele>1038</ele>
        <time>2026-08-04T12:00:07.132Z</time>
      </trkpt>
      <trkpt lat="45.90176" lon="6.8154">
        <ele>1038</ele>
        <time>2026-08-04T12:00:08.132Z</time>
      </trkpt>
      <trkpt lat="45.90177" lon="6.81537">
        <ele>1038</ele>
        <time>2026-08-04T12:00:09.132Z</time>
      </trkpt>
      <trkpt lat="45.90177" lon="6.81534">
        <ele>1038</ele>
        <time>2026-08-04T12:00:10.132Z</time>
      </trkpt>
      <trkpt lat="45.90178" lon="6.81532">
        <ele>1038</ele>
        <time>2026-08-04T12:00:11.132Z</time>
      </trkpt>
      <trkpt lat="45.90178" lon="6.8153">
        <ele>1038</ele>
        <time>2026-08-04T12:00:12.132Z</time>
      </trkpt>
      <trkpt lat="45.90178" lon="6.81527">
        <ele>1038</ele>
        <time>2026-08-04T12:00:13.132Z</time>
      </trkpt>
      <trkpt lat="45.90178" lon="6.81524">
        <ele>1038</ele>
        <time>2026-08-04T12:00:14.132Z</time>
      </trkpt>
      <trkpt lat="45.90178" lon="6.81521">
        <ele>1037</ele>
        <time>2026-08-04T12:00:15.132Z</time>
      </trkpt>
      <trkpt lat="45.90178" lon="6.81518">
        <ele>1037</ele>
        <time>2026-08-04T12:00:16.132Z</time>
      </trkpt>
      <trkpt lat="45.90179" lon="6.81515">
        <ele>1037</ele>
        <time>2026-08-04T12:00:17.132Z</time>
      </trkpt>
      <trkpt lat="45.90179" lon="6.81513">
        <ele>1037</ele>
        <time>2026-08-04T12:00:18.132Z</time>
      </trkpt>
      <trkpt lat="45.90179" lon="6.8151">
        <ele>1036</ele>
        <time>2026-08-04T12:00:19.132Z</time>
      </trkpt>
      <trkpt lat="45.90179" lon="6.81508">
        <ele>1036</ele>
        <time>2026-08-04T12:00:20.132Z</time>
      </trkpt>
      <trkpt lat="45.90179" lon="6.81506">
        <ele>1036</ele>
        <time>2026-08-04T12:00:21.132Z</time>
      </trkpt>
      <trkpt lat="45.90179" lon="6.81504">
        <ele>1035</ele>
        <time>2026-08-04T12:00:22.132Z</time>
      </trkpt>
      <trkpt lat="45.90179" lon="6.81502">
        <ele>1035</ele>
        <time>2026-08-04T12:00:23.132Z</time>
      </trkpt>
      <trkpt lat="45.90179" lon="6.81499">
        <ele>1034</ele>
        <time>2026-08-04T12:00:24.132Z</time>
      </trkpt>
      <trkpt lat="45.90179" lon="6.81497">
        <ele>1034</ele>
        <time>2026-08-04T12:00:25.132Z</time>
      </trkpt>
      <trkpt lat="45.90179" lon="6.81494">
        <ele>1034</ele>
        <time>2026-08-04T12:00:26.132Z</time>
      </trkpt>
      <trkpt lat="45.90179" lon="6.81492">
        <ele>1034</ele>
        <time>2026-08-04T12:00:27.132Z</time>
      </trkpt>
      <trkpt lat="45.90179" lon="6.81489">
        <ele>1034</ele>
        <time>2026-08-04T12:00:28.132Z</time>
      </trkpt>
      <trkpt lat="45.90179" lon="6.81487">
        <ele>1034</ele>
        <time>2026-08-04T12:00:29.132Z</time>
      </trkpt>
      <trkpt lat="45.90179" lon="6.81485">
        <ele>1034</ele>
        <time>2026-08-04T12:00:30.132Z</time>
      </trkpt>
      <trkpt lat="45.90178" lon="6.81482">
        <ele>1034</ele>
        <time>2026-08-04T12:00:31.132Z</time>
      </trkpt>
      <trkpt lat="45.90178" lon="6.81479">
        <ele>1034</ele>
        <time>2026-08-04T12:00:32.132Z</time>
      </trkpt>
      <trkpt lat="45.90178" lon="6.81476">
        <ele>1034</ele>
        <time>2026-08-04T12:00:33.132Z</time>
      </trkpt>
      <trkpt lat="45.90178" lon="6.81473">
        <ele>1034</ele>
        <time>2026-08-04T12:00:34.132Z</time>
      </trkpt>
      <trkpt lat="45.90178" lon="6.81471">
        <ele>1034</ele>
        <time>2026-08-04T12:00:35.132Z</time>
      </trkpt>
      <trkpt lat="45.90178" lon="6.81468">
        <ele>1034</ele>
        <time>2026-08-04T12:00:36.132Z</time>
      </trkpt>
      <trkpt lat="45.90178" lon="6.81465">
        <ele>1033</ele>
        <time>2026-08-04T12:00:37.132Z</time>
      </trkpt>
      <trkpt lat="45.90178" lon="6.81462">
        <ele>1033</ele>
        <time>2026-08-04T12:00:38.132Z</time>
      </trkpt>
      <trkpt lat="45.90178" lon="6.8146">
        <ele>1034</ele>
        <time>2026-08-04T12:00:39.132Z</time>
      </trkpt>
      <trkpt lat="45.90178" lon="6.81457">
        <ele>1034</ele>
        <time>2026-08-04T12:00:40.132Z</time>
      </trkpt>
      <trkpt lat="45.90178" lon="6.81455">
        <ele>1034</ele>
        <time>2026-08-04T12:00:41.132Z</time>
      </trkpt>
      <trkpt lat="45.90177" lon="6.81452">
        <ele>1034</ele>
        <time>2026-08-04T12:00:42.132Z</time>
      </trkpt>
      <trkpt lat="45.90177" lon="6.81449">
        <ele>1034</ele>
        <time>2026-08-04T12:00:43.132Z</time>
      </trkpt>
      <trkpt lat="45.90176" lon="6.81447">
        <ele>1034</ele>
        <time>2026-08-04T12:00:44.132Z</time>
      </trkpt>
      <trkpt lat="45.90176" lon="6.81443">
        <ele>1034</ele>
        <time>2026-08-04T12:00:45.132Z</time>
      </trkpt>
      <trkpt lat="45.90175" lon="6.81441">
        <ele>1033</ele>
        <time>2026-08-04T12:00:46.132Z</time>
      </trkpt>
      <trkpt lat="45.90176" lon="6.81438">
        <ele>1033</ele>
        <time>2026-08-04T12:00:47.132Z</time>
      </trkpt>
      <trkpt lat="45.90176" lon="6.81435">
        <ele>1033</ele>
        <time>2026-08-04T12:00:48.132Z</time>
      </trkpt>
      <trkpt lat="45.90176" lon="6.81432">
        <ele>1033</ele>
        <time>2026-08-04T12:00:49.132Z</time>
      </trkpt>
      <trkpt lat="45.90176" lon="6.8143">
        <ele>1033</ele>
        <time>2026-08-04T12:00:50.132Z</time>
      </trkpt>
      <trkpt lat="45.90176" lon="6.81428">
        <ele>1033</ele>
        <time>2026-08-04T12:00:51.132Z</time>
      </trkpt>
      <trkpt lat="45.90176" lon="6.81425">
        <ele>1033</ele>
        <time>2026-08-04T12:00:52.132Z</time>
      </trkpt>
      <trkpt lat="45.90176" lon="6.81422">
        <ele>1033</ele>
        <time>2026-08-04T12:00:53.132Z</time>
      </trkpt>
      <trkpt lat="45.90176" lon="6.81419">
        <ele>1034</ele>
        <time>2026-08-04T12:00:54.132Z</time>
      </trkpt>
      <trkpt lat="45.90177" lon="6.81416">
        <ele>1034</ele>
        <time>2026-08-04T12:00:55.132Z</time>
      </trkpt>
      <trkpt lat="45.90177" lon="6.81413">
        <ele>1034</ele>
        <time>2026-08-04T12:00:56.132Z</time>
      </trkpt>
      <trkpt lat="45.90177" lon="6.81411">
        <ele>1034</ele>
        <time>2026-08-04T12:00:57.132Z</time>
      </trkpt>
      <trkpt lat="45.90177" lon="6.81408">
        <ele>1034</ele>
        <time>2026-08-04T12:00:58.132Z</time>
      </trkpt>
      <trkpt lat="45.90177" lon="6.81405">
        <ele>1034</ele>
        <time>2026-08-04T12:00:59.132Z</time>
      </trkpt>
      <trkpt lat="45.90177" lon="6.81402">
        <ele>1035</ele>
        <time>2026-08-04T12:01:00.132Z</time>
      </trkpt>
      <trkpt lat="45.90177" lon="6.814">
        <ele>1035</ele>
        <time>2026-08-04T12:01:01.132Z</time>
      </trkpt>
      <trkpt lat="45.90177" lon="6.81398">
        <ele>1035</ele>
        <time>2026-08-04T12:01:02.132Z</time>
      </trkpt>
      <trkpt lat="45.90177" lon="6.81394">
        <ele>1035</ele>
        <time>2026-08-04T12:01:03.132Z</time>
      </trkpt>
      <trkpt lat="45.90177" lon="6.81392">
        <ele>1035</ele>
        <time>2026-08-04T12:01:04.132Z</time>
      </trkpt>
      <trkpt lat="45.90177" lon="6.81389">
        <ele>1035</ele>
        <time>2026-08-04T12:01:05.132Z</time>
      </trkpt>
      <trkpt lat="45.90177" lon="6.81387">
        <ele>1036</ele>
        <time>2026-08-04T12:01:06.132Z</time>
      </trkpt>
      <trkpt lat="45.90177" lon="6.81384">
        <ele>1036</ele>
        <time>2026-08-04T12:01:07.132Z</time>
      </trkpt>
      <trkpt lat="45.90177" lon="6.8138">
        <ele>1036</ele>
        <time>2026-08-04T12:01:08.132Z</time>
      </trkpt>
      <trkpt lat="45.90177" lon="6.81377">
        <ele>1036</ele>
        <time>2026-08-04T12:01:09.132Z</time>
      </trkpt>
      <trkpt lat="45.90177" lon="6.81375">
        <ele>1036</ele>
        <time>2026-08-04T12:01:10.132Z</time>
      </trkpt>
      <trkpt lat="45.90177" lon="6.81372">
        <ele>1036</ele>
        <time>2026-08-04T12:01:11.132Z</time>
      </trkpt>
      <trkpt lat="45.90177" lon="6.81369">
        <ele>1037</ele>
        <time>2026-08-04T12:01:12.132Z</time>
      </trkpt>
      <trkpt lat="45.90177" lon="6.81366">
        <ele>1037</ele>
        <time>2026-08-04T12:01:13.132Z</time>
      </trkpt>
      <trkpt lat="45.90177" lon="6.81364">
        <ele>1037</ele>
        <time>2026-08-04T12:01:14.132Z</time>
      </trkpt>
      <trkpt lat="45.90177" lon="6.81361">
        <ele>1038</ele>
        <time>2026-08-04T12:01:15.132Z</time>
      </trkpt>
      <trkpt lat="45.90177" lon="6.81359">
        <ele>1038</ele>
        <time>2026-08-04T12:01:16.132Z</time>
      </trkpt>
      <trkpt lat="45.90177" lon="6.81356">
        <ele>1038</ele>
        <time>2026-08-04T12:01:17.132Z</time>
      </trkpt>
      <trkpt lat="45.90177" lon="6.81353">
        <ele>1038</ele>
        <time>2026-08-04T12:01:18.132Z</time>
      </trkpt>
      <trkpt lat="45.90176" lon="6.8135">
        <ele>1038</ele>
        <time>2026-08-04T12:01:19.132Z</time>
      </trkpt>
      <trkpt lat="45.90177" lon="6.81348">
        <ele>1038</ele>
        <time>2026-08-04T12:01:20.132Z</time>
      </trkpt>
      <trkpt lat="45.90177" lon="6.81345">
        <ele>1038</ele>
        <time>2026-08-04T12:01:21.132Z</time>
      </trkpt>
      <trkpt lat="45.90177" lon="6.81342">
        <ele>1038</ele>
        <time>2026-08-04T12:01:22.132Z</time>
      </trkpt>
      <trkpt lat="45.90177" lon="6.81339">
        <ele>1038</ele>
        <time>2026-08-04T12:01:23.132Z</time>
      </trkpt>
      <trkpt lat="45.90177" lon="6.81337">
        <ele>1038</ele>
        <time>2026-08-04T12:01:24.132Z</time>
      </trkpt>
      <trkpt lat="45.90177" lon="6.81334">
        <ele>1037</ele>
        <time>2026-08-04T12:01:25.132Z</time>
      </trkpt>
      <trkpt lat="45.90177" lon="6.81331">
        <ele>1037</ele>
        <time>2026-08-04T12:01:26.132Z</time>
      </trkpt>
      <trkpt lat="45.90177" lon="6.81328">
        <ele>1037</ele>
        <time>2026-08-04T12:01:27.132Z</time>
      </trkpt>
      <trkpt lat="45.90177" lon="6.81325">
        <ele>1037</ele>
        <time>2026-08-04T12:01:28.132Z</time>
      </trkpt>
      <trkpt lat="45.90176" lon="6.81322">
        <ele>1036</ele>
        <time>2026-08-04T12:01:29.132Z</time>
      </trkpt>
      <trkpt lat="45.90176" lon="6.81319">
        <ele>1036</ele>
        <time>2026-08-04T12:01:30.132Z</time>
      </trkpt>
      <trkpt lat="45.90176" lon="6.81316">
        <ele>1036</ele>
        <time>2026-08-04T12:01:31.132Z</time>
      </trkpt>
      <trkpt lat="45.90175" lon="6.81313">
        <ele>1036</ele>
        <time>2026-08-04T12:01:32.132Z</time>
      </trkpt>
      <trkpt lat="45.90175" lon="6.81309">
        <ele>1036</ele>
        <time>2026-08-04T12:01:33.132Z</time>
      </trkpt>
      <trkpt lat="45.90175" lon="6.81306">
        <ele>1036</ele>
        <time>2026-08-04T12:01:34.132Z</time>
      </trkpt>
      <trkpt lat="45.90174" lon="6.81304">
        <ele>1036</ele>
        <time>2026-08-04T12:01:35.132Z</time>
      </trkpt>
      <trkpt lat="45.90174" lon="6.81301">
        <ele>1036</ele>
        <time>2026-08-04T12:01:36.132Z</time>
      </trkpt>
      <trkpt lat="45.90174" lon="6.81298">
        <ele>1036</ele>
        <time>2026-08-04T12:01:37.132Z</time>
      </trkpt>
      <trkpt lat="45.90174" lon="6.81295">
        <ele>1036</ele>
        <time>2026-08-04T12:01:38.132Z</time>
      </trkpt>
      <trkpt lat="45.90173" lon="6.81293">
        <ele>1036</ele>
        <time>2026-08-04T12:01:39.132Z</time>
      </trkpt>
      <trkpt lat="45.90173" lon="6.8129">
        <ele>1036</ele>
        <time>2026-08-04T12:01:40.132Z</time>
      </trkpt>
      <trkpt lat="45.90173" lon="6.81287">
        <ele>1035</ele>
        <time>2026-08-04T12:01:41.132Z</time>
      </trkpt>
      <trkpt lat="45.90173" lon="6.81285">
        <ele>1035</ele>
        <time>2026-08-04T12:01:42.132Z</time>
      </trkpt>
      <trkpt lat="45.90172" lon="6.81282">
        <ele>1035</ele>
        <time>2026-08-04T12:01:43.132Z</time>
      </trkpt>
      <trkpt lat="45.90172" lon="6.81279">
        <ele>1035</ele>
        <time>2026-08-04T12:01:44.132Z</time>
      </trkpt>
      <trkpt lat="45.90172" lon="6.81277">
        <ele>1036</ele>
        <time>2026-08-04T12:01:45.132Z</time>
      </trkpt>
      <trkpt lat="45.90171" lon="6.81274">
        <ele>1036</ele>
        <time>2026-08-04T12:01:46.132Z</time>
      </trkpt>
      <trkpt lat="45.90171" lon="6.81271">
        <ele>1036</ele>
        <time>2026-08-04T12:01:47.132Z</time>
      </trkpt>
      <trkpt lat="45.90171" lon="6.81268">
        <ele>1036</ele>
        <time>2026-08-04T12:01:48.132Z</time>
      </trkpt>
      <trkpt lat="45.90171" lon="6.81266">
        <ele>1036</ele>
        <time>2026-08-04T12:01:49.132Z</time>
      </trkpt>
      <trkpt lat="45.90172" lon="6.81264">
        <ele>1036</ele>
        <time>2026-08-04T12:01:50.132Z</time>
      </trkpt>
      <trkpt lat="45.90172" lon="6.8126">
        <ele>1036</ele>
        <time>2026-08-04T12:01:51.132Z</time>
      </trkpt>
      <trkpt lat="45.90171" lon="6.81257">
        <ele>1036</ele>
        <time>2026-08-04T12:01:52.132Z</time>
      </trkpt>
      <trkpt lat="45.90171" lon="6.81254">
        <ele>1036</ele>
        <time>2026-08-04T12:01:53.132Z</time>
      </trkpt>
      <trkpt lat="45.90171" lon="6.81252">
        <ele>1036</ele>
        <time>2026-08-04T12:01:54.132Z</time>
      </trkpt>
      <trkpt lat="45.9017" lon="6.81249">
        <ele>1036</ele>
        <time>2026-08-04T12:01:55.132Z</time>
      </trkpt>
      <trkpt lat="45.9017" lon="6.81246">
        <ele>1036</ele>
        <time>2026-08-04T12:01:56.132Z</time>
      </trkpt>
      <trkpt lat="45.9017" lon="6.81244">
        <ele>1036</ele>
        <time>2026-08-04T12:01:57.132Z</time>
      </trkpt>
      <trkpt lat="45.9017" lon="6.8124">
        <ele>1036</ele>
        <time>2026-08-04T12:01:58.132Z</time>
      </trkpt>
      <trkpt lat="45.9017" lon="6.81237">
        <ele>1036</ele>
        <time>2026-08-04T12:01:59.132Z</time>
      </trkpt>
      <trkpt lat="45.9017" lon="6.81234">
        <ele>1036</ele>
        <time>2026-08-04T12:02:00.132Z</time>
      </trkpt>
      <trkpt lat="45.9017" lon="6.81231">
        <ele>1035</ele>
        <time>2026-08-04T12:02:01.132Z</time>
      </trkpt>
      <trkpt lat="45.9017" lon="6.81229">
        <ele>1035</ele>
        <time>2026-08-04T12:02:02.132Z</time>
      </trkpt>
      <trkpt lat="45.90169" lon="6.81226">
        <ele>1035</ele>
        <time>2026-08-04T12:02:03.132Z</time>
      </trkpt>
      <trkpt lat="45.90169" lon="6.81223">
        <ele>1035</ele>
        <time>2026-08-04T12:02:04.132Z</time>
      </trkpt>
      <trkpt lat="45.90168" lon="6.81221">
        <ele>1035</ele>
        <time>2026-08-04T12:02:05.132Z</time>
      </trkpt>
      <trkpt lat="45.90168" lon="6.81218">
        <ele>1035</ele>
        <time>2026-08-04T12:02:06.132Z</time>
      </trkpt>
      <trkpt lat="45.90167" lon="6.81216">
        <ele>1035</ele>
        <time>2026-08-04T12:02:07.132Z</time>
      </trkpt>
      <trkpt lat="45.90166" lon="6.81214">
        <ele>1035</ele>
        <time>2026-08-04T12:02:08.132Z</time>
      </trkpt>
      <trkpt lat="45.90166" lon="6.81213">
        <ele>1035</ele>
        <time>2026-08-04T12:02:09.132Z</time>
      </trkpt>
      <trkpt lat="45.90166" lon="6.81212">
        <ele>1035</ele>
        <time>2026-08-04T12:02:10.132Z</time>
      </trkpt>
      <trkpt lat="45.90165" lon="6.81211">
        <ele>1036</ele>
        <time>2026-08-04T12:02:11.132Z</time>
      </trkpt>
      <trkpt lat="45.90165" lon="6.81211">
        <ele>1036</ele>
        <time>2026-08-04T12:02:12.132Z</time>
      </trkpt>
      <trkpt lat="45.90165" lon="6.8121">
        <ele>1036</ele>
        <time>2026-08-04T12:02:13.132Z</time>
      </trkpt>
      <trkpt lat="45.90165" lon="6.81209">
        <ele>1036</ele>
        <time>2026-08-04T12:02:14.132Z</time>
      </trkpt>
      <trkpt lat="45.90164" lon="6.81208">
        <ele>1037</ele>
        <time>2026-08-04T12:02:15.132Z</time>
      </trkpt>
      <trkpt lat="45.90164" lon="6.81207">
        <ele>1037</ele>
        <time>2026-08-04T12:02:16.132Z</time>
      </trkpt>
      <trkpt lat="45.90164" lon="6.81205">
        <ele>1038</ele>
        <time>2026-08-04T12:02:17.132Z</time>
      </trkpt>
      <trkpt lat="45.90164" lon="6.81204">
        <ele>1038</ele>
        <time>2026-08-04T12:02:18.132Z</time>
      </trkpt>
      <trkpt lat="45.90164" lon="6.81202">
        <ele>1038</ele>
        <time>2026-08-04T12:02:19.132Z</time>
      </trkpt>
      <trkpt lat="45.90165" lon="6.812">
        <ele>1038</ele>
        <time>2026-08-04T12:02:20.132Z</time>
      </trkpt>
      <trkpt lat="45.90165" lon="6.81198">
        <ele>1038</ele>
        <time>2026-08-04T12:02:21.132Z</time>
      </trkpt>
      <trkpt lat="45.90166" lon="6.81196">
        <ele>1038</ele>
        <time>2026-08-04T12:02:22.132Z</time>
      </trkpt>
      <trkpt lat="45.90166" lon="6.81194">
        <ele>1038</ele>
        <time>2026-08-04T12:02:23.132Z</time>
      </trkpt>
      <trkpt lat="45.90166" lon="6.81192">
        <ele>1038</ele>
        <time>2026-08-04T12:02:24.132Z</time>
      </trkpt>
      <trkpt lat="45.90166" lon="6.81191">
        <ele>1039</ele>
        <time>2026-08-04T12:02:25.132Z</time>
      </trkpt>
      <trkpt lat="45.90166" lon="6.81189">
        <ele>1039</ele>
        <time>2026-08-04T12:02:26.132Z</time>
      </trkpt>
      <trkpt lat="45.90166" lon="6.81187">
        <ele>1039</ele>
        <time>2026-08-04T12:02:27.132Z</time>
      </trkpt>
      <trkpt lat="45.90166" lon="6.81185">
        <ele>1040</ele>
        <time>2026-08-04T12:02:28.132Z</time>
      </trkpt>
      <trkpt lat="45.90166" lon="6.81183">
        <ele>1040</ele>
        <time>2026-08-04T12:02:29.132Z</time>
      </trkpt>
      <trkpt lat="45.90165" lon="6.81181">
        <ele>1041</ele>
        <time>2026-08-04T12:02:30.132Z</time>
      </trkpt>
      <trkpt lat="45.90165" lon="6.8118">
        <ele>1041</ele>
        <time>2026-08-04T12:02:31.132Z</time>
      </trkpt>
      <trkpt lat="45.90165" lon="6.81178">
        <ele>1042</ele>
        <time>2026-08-04T12:02:32.132Z</time>
      </trkpt>
      <trkpt lat="45.90164" lon="6.81175">
        <ele>1042</ele>
        <time>2026-08-04T12:02:33.132Z</time>
      </trkpt>
      <trkpt lat="45.90164" lon="6.81173">
        <ele>1042</ele>
        <time>2026-08-04T12:02:34.132Z</time>
      </trkpt>
      <trkpt lat="45.90164" lon="6.8117">
        <ele>1041</ele>
        <time>2026-08-04T12:02:35.132Z</time>
      </trkpt>
      <trkpt lat="45.90163" lon="6.81166">
        <ele>1042</ele>
        <time>2026-08-04T12:02:36.132Z</time>
      </trkpt>
      <trkpt lat="45.90163" lon="6.81163">
        <ele>1042</ele>
        <time>2026-08-04T12:02:37.132Z</time>
      </trkpt>
      <trkpt lat="45.90162" lon="6.8116">
        <ele>1042</ele>
        <time>2026-08-04T12:02:38.132Z</time>
      </trkpt>
      <trkpt lat="45.90162" lon="6.81157">
        <ele>1042</ele>
        <time>2026-08-04T12:02:39.132Z</time>
      </trkpt>
      <trkpt lat="45.90161" lon="6.81154">
        <ele>1042</ele>
        <time>2026-08-04T12:02:40.132Z</time>
      </trkpt>
      <trkpt lat="45.90161" lon="6.81151">
        <ele>1042</ele>
        <time>2026-08-04T12:02:41.132Z</time>
      </trkpt>
      <trkpt lat="45.9016" lon="6.81148">
        <ele>1041</ele>
        <time>2026-08-04T12:02:42.132Z</time>
      </trkpt>
      <trkpt lat="45.9016" lon="6.81144">
        <ele>1041</ele>
        <time>2026-08-04T12:02:43.132Z</time>
      </trkpt>
      <trkpt lat="45.9016" lon="6.81142">
        <ele>1042</ele>
        <time>2026-08-04T12:02:44.132Z</time>
      </trkpt>
      <trkpt lat="45.90159" lon="6.81138">
        <ele>1042</ele>
        <time>2026-08-04T12:02:45.132Z</time>
      </trkpt>
      <trkpt lat="45.90159" lon="6.81135">
        <ele>1042</ele>
        <time>2026-08-04T12:02:46.132Z</time>
      </trkpt>
      <trkpt lat="45.90158" lon="6.81132">
        <ele>1042</ele>
        <time>2026-08-04T12:02:47.132Z</time>
      </trkpt>
      <trkpt lat="45.90158" lon="6.8113">
        <ele>1042</ele>
        <time>2026-08-04T12:02:48.132Z</time>
      </trkpt>
      <trkpt lat="45.90157" lon="6.81126">
        <ele>1042</ele>
        <time>2026-08-04T12:02:49.132Z</time>
      </trkpt>
      <trkpt lat="45.90157" lon="6.81123">
        <ele>1042</ele>
        <time>2026-08-04T12:02:50.132Z</time>
      </trkpt>
      <trkpt lat="45.90156" lon="6.81121">
        <ele>1042</ele>
        <time>2026-08-04T12:02:51.132Z</time>
      </trkpt>
      <trkpt lat="45.90156" lon="6.81118">
        <ele>1042</ele>
        <time>2026-08-04T12:02:52.132Z</time>
      </trkpt>
      <trkpt lat="45.90155" lon="6.81115">
        <ele>1042</ele>
        <time>2026-08-04T12:02:53.132Z</time>
      </trkpt>
      <trkpt lat="45.90155" lon="6.81112">
        <ele>1041</ele>
        <time>2026-08-04T12:02:54.132Z</time>
      </trkpt>
      <trkpt lat="45.90155" lon="6.81108">
        <ele>1041</ele>
        <time>2026-08-04T12:02:55.132Z</time>
      </trkpt>
      <trkpt lat="45.90154" lon="6.81105">
        <ele>1041</ele>
        <time>2026-08-04T12:02:56.132Z</time>
      </trkpt>
      <trkpt lat="45.90153" lon="6.81103">
        <ele>1041</ele>
        <time>2026-08-04T12:02:57.132Z</time>
      </trkpt>
      <trkpt lat="45.90153" lon="6.811">
        <ele>1041</ele>
        <time>2026-08-04T12:02:58.132Z</time>
      </trkpt>
      <trkpt lat="45.90152" lon="6.81097">
        <ele>1041</ele>
        <time>2026-08-04T12:02:59.132Z</time>
      </trkpt>
      <trkpt lat="45.90151" lon="6.81094">
        <ele>1041</ele>
        <time>2026-08-04T12:03:00.132Z</time>
      </trkpt>
      <trkpt lat="45.90151" lon="6.8109">
        <ele>1041</ele>
        <time>2026-08-04T12:03:01.133Z</time>
      </trkpt>
      <trkpt lat="45.9015" lon="6.81088">
        <ele>1040</ele>
        <time>2026-08-04T12:03:02.132Z</time>
      </trkpt>
      <trkpt lat="45.90149" lon="6.81086">
        <ele>1040</ele>
        <time>2026-08-04T12:03:03.132Z</time>
      </trkpt>
      <trkpt lat="45.90148" lon="6.81083">
        <ele>1040</ele>
        <time>2026-08-04T12:03:04.132Z</time>
      </trkpt>
      <trkpt lat="45.90147" lon="6.81081">
        <ele>1040</ele>
        <time>2026-08-04T12:03:05.132Z</time>
      </trkpt>
      <trkpt lat="45.90146" lon="6.81078">
        <ele>1040</ele>
        <time>2026-08-04T12:03:06.132Z</time>
      </trkpt>
      <trkpt lat="45.90145" lon="6.81076">
        <ele>1040</ele>
        <time>2026-08-04T12:03:07.132Z</time>
      </trkpt>
      <trkpt lat="45.90143" lon="6.81073">
        <ele>1040</ele>
        <time>2026-08-04T12:03:08.132Z</time>
      </trkpt>
      <trkpt lat="45.90142" lon="6.8107">
        <ele>1040</ele>
        <time>2026-08-04T12:03:09.132Z</time>
      </trkpt>
      <trkpt lat="45.90141" lon="6.81067">
        <ele>1040</ele>
        <time>2026-08-04T12:03:10.132Z</time>
      </trkpt>
      <trkpt lat="45.9014" lon="6.81065">
        <ele>1041</ele>
        <time>2026-08-04T12:03:11.132Z</time>
      </trkpt>
      <trkpt lat="45.9014" lon="6.81063">
        <ele>1041</ele>
        <time>2026-08-04T12:03:12.132Z</time>
      </trkpt>
      <trkpt lat="45.90139" lon="6.81062">
        <ele>1041</ele>
        <time>2026-08-04T12:03:13.132Z</time>
      </trkpt>
      <trkpt lat="45.90138" lon="6.8106">
        <ele>1041</ele>
        <time>2026-08-04T12:03:14.132Z</time>
      </trkpt>
      <trkpt lat="45.90138" lon="6.81059">
        <ele>1041</ele>
        <time>2026-08-04T12:03:15.132Z</time>
      </trkpt>
      <trkpt lat="45.90137" lon="6.81056">
        <ele>1041</ele>
        <time>2026-08-04T12:03:16.132Z</time>
      </trkpt>
      <trkpt lat="45.90137" lon="6.81054">
        <ele>1040</ele>
        <time>2026-08-04T12:03:17.132Z</time>
      </trkpt>
      <trkpt lat="45.90136" lon="6.81051">
        <ele>1040</ele>
        <time>2026-08-04T12:03:18.132Z</time>
      </trkpt>
      <trkpt lat="45.90136" lon="6.81049">
        <ele>1040</ele>
        <time>2026-08-04T12:03:19.132Z</time>
      </trkpt>
      <trkpt lat="45.90135" lon="6.81046">
        <ele>1039</ele>
        <time>2026-08-04T12:03:20.132Z</time>
      </trkpt>
      <trkpt lat="45.90134" lon="6.81042">
        <ele>1039</ele>
        <time>2026-08-04T12:03:21.132Z</time>
      </trkpt>
      <trkpt lat="45.90133" lon="6.81039">
        <ele>1038</ele>
        <time>2026-08-04T12:03:22.132Z</time>
      </trkpt>
      <trkpt lat="45.90133" lon="6.81036">
        <ele>1037</ele>
        <time>2026-08-04T12:03:23.132Z</time>
      </trkpt>
      <trkpt lat="45.90132" lon="6.81034">
        <ele>1037</ele>
        <time>2026-08-04T12:03:24.132Z</time>
      </trkpt>
      <trkpt lat="45.90132" lon="6.8103">
        <ele>1037</ele>
        <time>2026-08-04T12:03:25.132Z</time>
      </trkpt>
      <trkpt lat="45.90131" lon="6.81026">
        <ele>1037</ele>
        <time>2026-08-04T12:03:26.132Z</time>
      </trkpt>
      <trkpt lat="45.90131" lon="6.81023">
        <ele>1037</ele>
        <time>2026-08-04T12:03:27.132Z</time>
      </trkpt>
      <trkpt lat="45.9013" lon="6.8102">
        <ele>1037</ele>
        <time>2026-08-04T12:03:28.132Z</time>
      </trkpt>
      <trkpt lat="45.9013" lon="6.81017">
        <ele>1037</ele>
        <time>2026-08-04T12:03:29.132Z</time>
      </trkpt>
      <trkpt lat="45.90129" lon="6.81014">
        <ele>1037</ele>
        <time>2026-08-04T12:03:30.132Z</time>
      </trkpt>
      <trkpt lat="45.90129" lon="6.81011">
        <ele>1037</ele>
        <time>2026-08-04T12:03:31.132Z</time>
      </trkpt>
      <trkpt lat="45.90128" lon="6.81007">
        <ele>1037</ele>
        <time>2026-08-04T12:03:32.132Z</time>
      </trkpt>
      <trkpt lat="45.90128" lon="6.81004">
        <ele>1037</ele>
        <time>2026-08-04T12:03:33.132Z</time>
      </trkpt>
      <trkpt lat="45.90127" lon="6.81">
        <ele>1037</ele>
        <time>2026-08-04T12:03:34.132Z</time>
      </trkpt>
      <trkpt lat="45.90127" lon="6.80997">
        <ele>1037</ele>
        <time>2026-08-04T12:03:35.132Z</time>
      </trkpt>
      <trkpt lat="45.90126" lon="6.80993">
        <ele>1036</ele>
        <time>2026-08-04T12:03:36.132Z</time>
      </trkpt>
      <trkpt lat="45.90126" lon="6.8099">
        <ele>1036</ele>
        <time>2026-08-04T12:03:37.132Z</time>
      </trkpt>
      <trkpt lat="45.90125" lon="6.80987">
        <ele>1036</ele>
        <time>2026-08-04T12:03:38.132Z</time>
      </trkpt>
      <trkpt lat="45.90125" lon="6.80984">
        <ele>1035</ele>
        <time>2026-08-04T12:03:39.132Z</time>
      </trkpt>
      <trkpt lat="45.90124" lon="6.80981">
        <ele>1035</ele>
        <time>2026-08-04T12:03:40.132Z</time>
      </trkpt>
      <trkpt lat="45.90123" lon="6.80978">
        <ele>1035</ele>
        <time>2026-08-04T12:03:41.132Z</time>
      </trkpt>
      <trkpt lat="45.90123" lon="6.80976">
        <ele>1034</ele>
        <time>2026-08-04T12:03:42.132Z</time>
      </trkpt>
      <trkpt lat="45.90122" lon="6.80972">
        <ele>1034</ele>
        <time>2026-08-04T12:03:43.132Z</time>
      </trkpt>
      <trkpt lat="45.90121" lon="6.8097">
        <ele>1034</ele>
        <time>2026-08-04T12:03:44.132Z</time>
      </trkpt>
      <trkpt lat="45.9012" lon="6.80967">
        <ele>1033</ele>
        <time>2026-08-04T12:03:45.132Z</time>
      </trkpt>
      <trkpt lat="45.90119" lon="6.80963">
        <ele>1033</ele>
        <time>2026-08-04T12:03:46.132Z</time>
      </trkpt>
      <trkpt lat="45.90118" lon="6.80959">
        <ele>1033</ele>
        <time>2026-08-04T12:03:47.132Z</time>
      </trkpt>
      <trkpt lat="45.90117" lon="6.80956">
        <ele>1033</ele>
        <time>2026-08-04T12:03:48.132Z</time>
      </trkpt>
      <trkpt lat="45.90116" lon="6.80953">
        <ele>1033</ele>
        <time>2026-08-04T12:03:49.132Z</time>
      </trkpt>
      <trkpt lat="45.90114" lon="6.8095">
        <ele>1033</ele>
        <time>2026-08-04T12:03:50.132Z</time>
      </trkpt>
      <trkpt lat="45.90113" lon="6.80948">
        <ele>1033</ele>
        <time>2026-08-04T12:03:51.132Z</time>
      </trkpt>
      <trkpt lat="45.90112" lon="6.80946">
        <ele>1033</ele>
        <time>2026-08-04T12:03:52.132Z</time>
      </trkpt>
      <trkpt lat="45.90111" lon="6.80943">
        <ele>1033</ele>
        <time>2026-08-04T12:03:53.132Z</time>
      </trkpt>
      <trkpt lat="45.9011" lon="6.8094">
        <ele>1033</ele>
        <time>2026-08-04T12:03:54.132Z</time>
      </trkpt>
      <trkpt lat="45.90108" lon="6.80937">
        <ele>1033</ele>
        <time>2026-08-04T12:03:55.132Z</time>
      </trkpt>
      <trkpt lat="45.90106" lon="6.80934">
        <ele>1032</ele>
        <time>2026-08-04T12:03:56.132Z</time>
      </trkpt>
      <trkpt lat="45.90104" lon="6.80932">
        <ele>1032</ele>
        <time>2026-08-04T12:03:57.132Z</time>
      </trkpt>
      <trkpt lat="45.90102" lon="6.8093">
        <ele>1032</ele>
        <time>2026-08-04T12:03:58.132Z</time>
      </trkpt>
      <trkpt lat="45.901" lon="6.80927">
        <ele>1031</ele>
        <time>2026-08-04T12:03:59.132Z</time>
      </trkpt>
      <trkpt lat="45.901" lon="6.80925">
        <ele>1031</ele>
        <time>2026-08-04T12:04:00.132Z</time>
      </trkpt>
      <trkpt lat="45.90099" lon="6.80924">
        <ele>1031</ele>
        <time>2026-08-04T12:04:01.132Z</time>
      </trkpt>
      <trkpt lat="45.90098" lon="6.80924">
        <ele>1030</ele>
        <time>2026-08-04T12:04:02.132Z</time>
      </trkpt>
      <trkpt lat="45.90098" lon="6.80923">
        <ele>1030</ele>
        <time>2026-08-04T12:04:03.132Z</time>
      </trkpt>
      <trkpt lat="45.90097" lon="6.80923">
        <ele>1030</ele>
        <time>2026-08-04T12:04:04.132Z</time>
      </trkpt>
      <trkpt lat="45.90097" lon="6.80923">
        <ele>1029</ele>
        <time>2026-08-04T12:04:05.132Z</time>
      </trkpt>
      <trkpt lat="45.90096" lon="6.80922">
        <ele>1028</ele>
        <time>2026-08-04T12:04:06.132Z</time>
      </trkpt>
      <trkpt lat="45.90096" lon="6.80921">
        <ele>1027</ele>
        <time>2026-08-04T12:04:07.132Z</time>
      </trkpt>
      <trkpt lat="45.90096" lon="6.8092">
        <ele>1027</ele>
        <time>2026-08-04T12:04:08.132Z</time>
      </trkpt>
      <trkpt lat="45.90095" lon="6.80919">
        <ele>1027</ele>
        <time>2026-08-04T12:04:09.132Z</time>
      </trkpt>
      <trkpt lat="45.90096" lon="6.80918">
        <ele>1027</ele>
        <time>2026-08-04T12:04:10.132Z</time>
      </trkpt>
      <trkpt lat="45.90096" lon="6.80917">
        <ele>1027</ele>
        <time>2026-08-04T12:04:11.132Z</time>
      </trkpt>
      <trkpt lat="45.90095" lon="6.80916">
        <ele>1027</ele>
        <time>2026-08-04T12:04:12.132Z</time>
      </trkpt>
      <trkpt lat="45.90095" lon="6.80914">
        <ele>1026</ele>
        <time>2026-08-04T12:04:13.132Z</time>
      </trkpt>
      <trkpt lat="45.90094" lon="6.80912">
        <ele>1026</ele>
        <time>2026-08-04T12:04:14.132Z</time>
      </trkpt>
      <trkpt lat="45.90093" lon="6.80909">
        <ele>1026</ele>
        <time>2026-08-04T12:04:15.132Z</time>
      </trkpt>
      <trkpt lat="45.90093" lon="6.80906">
        <ele>1026</ele>
        <time>2026-08-04T12:04:16.132Z</time>
      </trkpt>
      <trkpt lat="45.90092" lon="6.80902">
        <ele>1026</ele>
        <time>2026-08-04T12:04:17.132Z</time>
      </trkpt>
      <trkpt lat="45.90092" lon="6.80899">
        <ele>1026</ele>
        <time>2026-08-04T12:04:18.132Z</time>
      </trkpt>
      <trkpt lat="45.90093" lon="6.80896">
        <ele>1025</ele>
        <time>2026-08-04T12:04:19.132Z</time>
      </trkpt>
      <trkpt lat="45.90093" lon="6.80892">
        <ele>1025</ele>
        <time>2026-08-04T12:04:20.132Z</time>
      </trkpt>
      <trkpt lat="45.90094" lon="6.80889">
        <ele>1025</ele>
        <time>2026-08-04T12:04:21.132Z</time>
      </trkpt>
      <trkpt lat="45.90094" lon="6.80886">
        <ele>1025</ele>
        <time>2026-08-04T12:04:22.132Z</time>
      </trkpt>
      <trkpt lat="45.90094" lon="6.80884">
        <ele>1025</ele>
        <time>2026-08-04T12:04:23.132Z</time>
      </trkpt>
      <trkpt lat="45.90095" lon="6.80881">
        <ele>1025</ele>
        <time>2026-08-04T12:04:24.132Z</time>
      </trkpt>
      <trkpt lat="45.90096" lon="6.80878">
        <ele>1025</ele>
        <time>2026-08-04T12:04:25.132Z</time>
      </trkpt>
      <trkpt lat="45.90096" lon="6.80875">
        <ele>1025</ele>
        <time>2026-08-04T12:04:26.132Z</time>
      </trkpt>
      <trkpt lat="45.90096" lon="6.80872">
        <ele>1025</ele>
        <time>2026-08-04T12:04:27.132Z</time>
      </trkpt>
      <trkpt lat="45.90096" lon="6.8087">
        <ele>1025</ele>
        <time>2026-08-04T12:04:28.132Z</time>
      </trkpt>
      <trkpt lat="45.90096" lon="6.80867">
        <ele>1025</ele>
        <time>2026-08-04T12:04:29.132Z</time>
      </trkpt>
      <trkpt lat="45.90095" lon="6.80864">
        <ele>1026</ele>
        <time>2026-08-04T12:04:30.132Z</time>
      </trkpt>
      <trkpt lat="45.90095" lon="6.80861">
        <ele>1026</ele>
        <time>2026-08-04T12:04:31.132Z</time>
      </trkpt>
      <trkpt lat="45.90095" lon="6.80859">
        <ele>1026</ele>
        <time>2026-08-04T12:04:32.132Z</time>
      </trkpt>
      <trkpt lat="45.90094" lon="6.80856">
        <ele>1026</ele>
        <time>2026-08-04T12:04:33.132Z</time>
      </trkpt>
      <trkpt lat="45.90094" lon="6.80852">
        <ele>1025</ele>
        <time>2026-08-04T12:04:34.132Z</time>
      </trkpt>
      <trkpt lat="45.90093" lon="6.80849">
        <ele>1025</ele>
        <time>2026-08-04T12:04:35.132Z</time>
      </trkpt>
      <trkpt lat="45.90093" lon="6.80845">
        <ele>1025</ele>
        <time>2026-08-04T12:04:36.132Z</time>
      </trkpt>
      <trkpt lat="45.90092" lon="6.80843">
        <ele>1024</ele>
        <time>2026-08-04T12:04:37.132Z</time>
      </trkpt>
      <trkpt lat="45.90091" lon="6.8084">
        <ele>1024</ele>
        <time>2026-08-04T12:04:38.132Z</time>
      </trkpt>
      <trkpt lat="45.9009" lon="6.80837">
        <ele>1024</ele>
        <time>2026-08-04T12:04:39.132Z</time>
      </trkpt>
      <trkpt lat="45.90088" lon="6.80834">
        <ele>1024</ele>
        <time>2026-08-04T12:04:40.132Z</time>
      </trkpt>
      <trkpt lat="45.90087" lon="6.80831">
        <ele>1024</ele>
        <time>2026-08-04T12:04:41.132Z</time>
      </trkpt>
      <trkpt lat="45.90085" lon="6.80827">
        <ele>1024</ele>
        <time>2026-08-04T12:04:42.132Z</time>
      </trkpt>
      <trkpt lat="45.90083" lon="6.80824">
        <ele>1024</ele>
        <time>2026-08-04T12:04:43.132Z</time>
      </trkpt>
      <trkpt lat="45.90081" lon="6.80821">
        <ele>1024</ele>
        <time>2026-08-04T12:04:44.132Z</time>
      </trkpt>
      <trkpt lat="45.90079" lon="6.80819">
        <ele>1024</ele>
        <time>2026-08-04T12:04:45.132Z</time>
      </trkpt>
      <trkpt lat="45.90078" lon="6.80816">
        <ele>1024</ele>
        <time>2026-08-04T12:04:46.132Z</time>
      </trkpt>
      <trkpt lat="45.90077" lon="6.80813">
        <ele>1024</ele>
        <time>2026-08-04T12:04:47.132Z</time>
      </trkpt>
      <trkpt lat="45.90076" lon="6.8081">
        <ele>1024</ele>
        <time>2026-08-04T12:04:48.132Z</time>
      </trkpt>
      <trkpt lat="45.90075" lon="6.80807">
        <ele>1024</ele>
        <time>2026-08-04T12:04:49.132Z</time>
      </trkpt>
      <trkpt lat="45.90074" lon="6.80804">
        <ele>1025</ele>
        <time>2026-08-04T12:04:50.132Z</time>
      </trkpt>
      <trkpt lat="45.90073" lon="6.80801">
        <ele>1025</ele>
        <time>2026-08-04T12:04:51.132Z</time>
      </trkpt>
      <trkpt lat="45.90071" lon="6.80798">
        <ele>1025</ele>
        <time>2026-08-04T12:04:52.132Z</time>
      </trkpt>
      <trkpt lat="45.90071" lon="6.80795">
        <ele>1025</ele>
        <time>2026-08-04T12:04:53.132Z</time>
      </trkpt>
      <trkpt lat="45.9007" lon="6.80792">
        <ele>1025</ele>
        <time>2026-08-04T12:04:54.132Z</time>
      </trkpt>
      <trkpt lat="45.90069" lon="6.80789">
        <ele>1025</ele>
        <time>2026-08-04T12:04:55.132Z</time>
      </trkpt>
      <trkpt lat="45.90068" lon="6.80786">
        <ele>1024</ele>
        <time>2026-08-04T12:04:56.132Z</time>
      </trkpt>
      <trkpt lat="45.90067" lon="6.80783">
        <ele>1024</ele>
        <time>2026-08-04T12:04:57.132Z</time>
      </trkpt>
      <trkpt lat="45.90066" lon="6.80781">
        <ele>1024</ele>
        <time>2026-08-04T12:04:58.132Z</time>
      </trkpt>
      <trkpt lat="45.90065" lon="6.80778">
        <ele>1023</ele>
        <time>2026-08-04T12:04:59.132Z</time>
      </trkpt>
      <trkpt lat="45.90064" lon="6.80775">
        <ele>1023</ele>
        <time>2026-08-04T12:05:00.132Z</time>
      </trkpt>
      <trkpt lat="45.90064" lon="6.80772">
        <ele>1023</ele>
        <time>2026-08-04T12:05:01.132Z</time>
      </trkpt>
      <trkpt lat="45.90063" lon="6.80769">
        <ele>1023</ele>
        <time>2026-08-04T12:05:02.132Z</time>
      </trkpt>
      <trkpt lat="45.90062" lon="6.80767">
        <ele>1024</ele>
        <time>2026-08-04T12:05:03.132Z</time>
      </trkpt>
      <trkpt lat="45.90061" lon="6.80764">
        <ele>1024</ele>
        <time>2026-08-04T12:05:04.132Z</time>
      </trkpt>
      <trkpt lat="45.90061" lon="6.80761">
        <ele>1024</ele>
        <time>2026-08-04T12:05:05.132Z</time>
      </trkpt>
      <trkpt lat="45.9006" lon="6.80758">
        <ele>1023</ele>
        <time>2026-08-04T12:05:06.133Z</time>
      </trkpt>
      <trkpt lat="45.90059" lon="6.80754">
        <ele>1023</ele>
        <time>2026-08-04T12:05:07.132Z</time>
      </trkpt>
      <trkpt lat="45.90058" lon="6.80751">
        <ele>1023</ele>
        <time>2026-08-04T12:05:08.132Z</time>
      </trkpt>
      <trkpt lat="45.90057" lon="6.80748">
        <ele>1023</ele>
        <time>2026-08-04T12:05:09.132Z</time>
      </trkpt>
      <trkpt lat="45.90056" lon="6.80745">
        <ele>1023</ele>
        <time>2026-08-04T12:05:10.132Z</time>
      </trkpt>
      <trkpt lat="45.90054" lon="6.80742">
        <ele>1023</ele>
        <time>2026-08-04T12:05:11.132Z</time>
      </trkpt>
      <trkpt lat="45.90053" lon="6.80739">
        <ele>1024</ele>
        <time>2026-08-04T12:05:12.132Z</time>
      </trkpt>
      <trkpt lat="45.90051" lon="6.80737">
        <ele>1024</ele>
        <time>2026-08-04T12:05:13.132Z</time>
      </trkpt>
      <trkpt lat="45.9005" lon="6.80736">
        <ele>1024</ele>
        <time>2026-08-04T12:05:14.132Z</time>
      </trkpt>
      <trkpt lat="45.90048" lon="6.80735">
        <ele>1025</ele>
        <time>2026-08-04T12:05:15.132Z</time>
      </trkpt>
      <trkpt lat="45.90046" lon="6.80732">
        <ele>1025</ele>
        <time>2026-08-04T12:05:16.132Z</time>
      </trkpt>
      <trkpt lat="45.90044" lon="6.80731">
        <ele>1025</ele>
        <time>2026-08-04T12:05:17.132Z</time>
      </trkpt>
      <trkpt lat="45.90043" lon="6.80728">
        <ele>1025</ele>
        <time>2026-08-04T12:05:18.132Z</time>
      </trkpt>
      <trkpt lat="45.90041" lon="6.80727">
        <ele>1026</ele>
        <time>2026-08-04T12:05:19.132Z</time>
      </trkpt>
      <trkpt lat="45.9004" lon="6.80725">
        <ele>1026</ele>
        <time>2026-08-04T12:05:20.132Z</time>
      </trkpt>
      <trkpt lat="45.90038" lon="6.80723">
        <ele>1025</ele>
        <time>2026-08-04T12:05:21.132Z</time>
      </trkpt>
      <trkpt lat="45.90037" lon="6.8072">
        <ele>1025</ele>
        <time>2026-08-04T12:05:22.132Z</time>
      </trkpt>
      <trkpt lat="45.90035" lon="6.80717">
        <ele>1025</ele>
        <time>2026-08-04T12:05:23.132Z</time>
      </trkpt>
      <trkpt lat="45.90033" lon="6.80714">
        <ele>1025</ele>
        <time>2026-08-04T12:05:24.132Z</time>
      </trkpt>
      <trkpt lat="45.90031" lon="6.80711">
        <ele>1025</ele>
        <time>2026-08-04T12:05:25.132Z</time>
      </trkpt>
      <trkpt lat="45.9003" lon="6.80707">
        <ele>1024</ele>
        <time>2026-08-04T12:05:26.132Z</time>
      </trkpt>
      <trkpt lat="45.90029" lon="6.80702">
        <ele>1024</ele>
        <time>2026-08-04T12:05:27.132Z</time>
      </trkpt>
      <trkpt lat="45.90028" lon="6.80699">
        <ele>1023</ele>
        <time>2026-08-04T12:05:28.132Z</time>
      </trkpt>
      <trkpt lat="45.90027" lon="6.80695">
        <ele>1023</ele>
        <time>2026-08-04T12:05:29.132Z</time>
      </trkpt>
      <trkpt lat="45.90025" lon="6.80693">
        <ele>1022</ele>
        <time>2026-08-04T12:05:30.132Z</time>
      </trkpt>
      <trkpt lat="45.90024" lon="6.80691">
        <ele>1022</ele>
        <time>2026-08-04T12:05:31.132Z</time>
      </trkpt>
      <trkpt lat="45.90023" lon="6.80689">
        <ele>1022</ele>
        <time>2026-08-04T12:05:32.132Z</time>
      </trkpt>
      <trkpt lat="45.90022" lon="6.80686">
        <ele>1021</ele>
        <time>2026-08-04T12:05:33.132Z</time>
      </trkpt>
      <trkpt lat="45.90021" lon="6.80684">
        <ele>1021</ele>
        <time>2026-08-04T12:05:34.132Z</time>
      </trkpt>
      <trkpt lat="45.9002" lon="6.80681">
        <ele>1021</ele>
        <time>2026-08-04T12:05:35.132Z</time>
      </trkpt>
      <trkpt lat="45.90019" lon="6.80677">
        <ele>1021</ele>
        <time>2026-08-04T12:05:36.132Z</time>
      </trkpt>
      <trkpt lat="45.90019" lon="6.80673">
        <ele>1021</ele>
        <time>2026-08-04T12:05:37.132Z</time>
      </trkpt>
      <trkpt lat="45.90018" lon="6.8067">
        <ele>1021</ele>
        <time>2026-08-04T12:05:38.132Z</time>
      </trkpt>
      <trkpt lat="45.90017" lon="6.80666">
        <ele>1020</ele>
        <time>2026-08-04T12:05:39.132Z</time>
      </trkpt>
      <trkpt lat="45.90016" lon="6.80664">
        <ele>1020</ele>
        <time>2026-08-04T12:05:40.132Z</time>
      </trkpt>
      <trkpt lat="45.90015" lon="6.80661">
        <ele>1020</ele>
        <time>2026-08-04T12:05:41.132Z</time>
      </trkpt>
      <trkpt lat="45.90014" lon="6.80658">
        <ele>1020</ele>
        <time>2026-08-04T12:05:42.132Z</time>
      </trkpt>
      <trkpt lat="45.90013" lon="6.80655">
        <ele>1020</ele>
        <time>2026-08-04T12:05:43.132Z</time>
      </trkpt>
      <trkpt lat="45.90013" lon="6.80652">
        <ele>1020</ele>
        <time>2026-08-04T12:05:44.132Z</time>
      </trkpt>
      <trkpt lat="45.90012" lon="6.80649">
        <ele>1019</ele>
        <time>2026-08-04T12:05:45.132Z</time>
      </trkpt>
      <trkpt lat="45.90011" lon="6.80646">
        <ele>1018</ele>
        <time>2026-08-04T12:05:46.132Z</time>
      </trkpt>
      <trkpt lat="45.90011" lon="6.80643">
        <ele>1017</ele>
        <time>2026-08-04T12:05:47.132Z</time>
      </trkpt>
      <trkpt lat="45.9001" lon="6.8064">
        <ele>1017</ele>
        <time>2026-08-04T12:05:48.132Z</time>
      </trkpt>
      <trkpt lat="45.9001" lon="6.80636">
        <ele>1016</ele>
        <time>2026-08-04T12:05:49.132Z</time>
      </trkpt>
      <trkpt lat="45.90009" lon="6.80632">
        <ele>1016</ele>
        <time>2026-08-04T12:05:50.132Z</time>
      </trkpt>
      <trkpt lat="45.90009" lon="6.80627">
        <ele>1015</ele>
        <time>2026-08-04T12:05:51.132Z</time>
      </trkpt>
      <trkpt lat="45.90008" lon="6.80624">
        <ele>1015</ele>
        <time>2026-08-04T12:05:52.132Z</time>
      </trkpt>
      <trkpt lat="45.90007" lon="6.80621">
        <ele>1015</ele>
        <time>2026-08-04T12:05:53.132Z</time>
      </trkpt>
      <trkpt lat="45.90006" lon="6.80617">
        <ele>1014</ele>
        <time>2026-08-04T12:05:54.132Z</time>
      </trkpt>
      <trkpt lat="45.90005" lon="6.80614">
        <ele>1014</ele>
        <time>2026-08-04T12:05:55.132Z</time>
      </trkpt>
      <trkpt lat="45.90004" lon="6.8061">
        <ele>1013</ele>
        <time>2026-08-04T12:05:56.132Z</time>
      </trkpt>
      <trkpt lat="45.90004" lon="6.80607">
        <ele>1012</ele>
        <time>2026-08-04T12:05:57.132Z</time>
      </trkpt>
      <trkpt lat="45.90003" lon="6.80604">
        <ele>1012</ele>
        <time>2026-08-04T12:05:58.132Z</time>
      </trkpt>
      <trkpt lat="45.90001" lon="6.80602">
        <ele>1011</ele>
        <time>2026-08-04T12:05:59.132Z</time>
      </trkpt>
      <trkpt lat="45.9" lon="6.80599">
        <ele>1010</ele>
        <time>2026-08-04T12:06:00.132Z</time>
      </trkpt>
      <trkpt lat="45.89999" lon="6.80597">
        <ele>1010</ele>
        <time>2026-08-04T12:06:01.132Z</time>
      </trkpt>
      <trkpt lat="45.89998" lon="6.80595">
        <ele>1010</ele>
        <time>2026-08-04T12:06:02.132Z</time>
      </trkpt>
      <trkpt lat="45.89996" lon="6.80593">
        <ele>1009</ele>
        <time>2026-08-04T12:06:03.132Z</time>
      </trkpt>
      <trkpt lat="45.89994" lon="6.80591">
        <ele>1009</ele>
        <time>2026-08-04T12:06:04.132Z</time>
      </trkpt>
      <trkpt lat="45.89992" lon="6.80588">
        <ele>1009</ele>
        <time>2026-08-04T12:06:05.132Z</time>
      </trkpt>
      <trkpt lat="45.89991" lon="6.80586">
        <ele>1009</ele>
        <time>2026-08-04T12:06:06.132Z</time>
      </trkpt>
      <trkpt lat="45.8999" lon="6.80584">
        <ele>1009</ele>
        <time>2026-08-04T12:06:07.132Z</time>
      </trkpt>
      <trkpt lat="45.89988" lon="6.80583">
        <ele>1009</ele>
        <time>2026-08-04T12:06:08.132Z</time>
      </trkpt>
      <trkpt lat="45.89987" lon="6.80581">
        <ele>1009</ele>
        <time>2026-08-04T12:06:09.132Z</time>
      </trkpt>
      <trkpt lat="45.89986" lon="6.80579">
        <ele>1009</ele>
        <time>2026-08-04T12:06:10.132Z</time>
      </trkpt>
      <trkpt lat="45.89986" lon="6.80577">
        <ele>1009</ele>
        <time>2026-08-04T12:06:11.132Z</time>
      </trkpt>
      <trkpt lat="45.89985" lon="6.80573">
        <ele>1009</ele>
        <time>2026-08-04T12:06:12.132Z</time>
      </trkpt>
      <trkpt lat="45.89984" lon="6.8057">
        <ele>1010</ele>
        <time>2026-08-04T12:06:13.132Z</time>
      </trkpt>
      <trkpt lat="45.89983" lon="6.80568">
        <ele>1010</ele>
        <time>2026-08-04T12:06:14.132Z</time>
      </trkpt>
      <trkpt lat="45.89982" lon="6.80565">
        <ele>1010</ele>
        <time>2026-08-04T12:06:15.132Z</time>
      </trkpt>
      <trkpt lat="45.8998" lon="6.80562">
        <ele>1010</ele>
        <time>2026-08-04T12:06:16.132Z</time>
      </trkpt>
      <trkpt lat="45.89979" lon="6.8056">
        <ele>1011</ele>
        <time>2026-08-04T12:06:17.132Z</time>
      </trkpt>
      <trkpt lat="45.89977" lon="6.80558">
        <ele>1011</ele>
        <time>2026-08-04T12:06:18.132Z</time>
      </trkpt>
      <trkpt lat="45.89976" lon="6.80557">
        <ele>1012</ele>
        <time>2026-08-04T12:06:19.132Z</time>
      </trkpt>
      <trkpt lat="45.89974" lon="6.80556">
        <ele>1013</ele>
        <time>2026-08-04T12:06:20.132Z</time>
      </trkpt>
      <trkpt lat="45.89972" lon="6.80555">
        <ele>1013</ele>
        <time>2026-08-04T12:06:21.132Z</time>
      </trkpt>
      <trkpt lat="45.8997" lon="6.80553">
        <ele>1014</ele>
        <time>2026-08-04T12:06:22.132Z</time>
      </trkpt>
      <trkpt lat="45.89968" lon="6.80551">
        <ele>1015</ele>
        <time>2026-08-04T12:06:23.132Z</time>
      </trkpt>
      <trkpt lat="45.89965" lon="6.8055">
        <ele>1016</ele>
        <time>2026-08-04T12:06:24.132Z</time>
      </trkpt>
      <trkpt lat="45.89963" lon="6.80549">
        <ele>1017</ele>
        <time>2026-08-04T12:06:25.132Z</time>
      </trkpt>
      <trkpt lat="45.89961" lon="6.80547">
        <ele>1018</ele>
        <time>2026-08-04T12:06:26.132Z</time>
      </trkpt>
      <trkpt lat="45.89959" lon="6.80544">
        <ele>1019</ele>
        <time>2026-08-04T12:06:27.132Z</time>
      </trkpt>
      <trkpt lat="45.89957" lon="6.80542">
        <ele>1020</ele>
        <time>2026-08-04T12:06:28.132Z</time>
      </trkpt>
      <trkpt lat="45.89956" lon="6.8054">
        <ele>1021</ele>
        <time>2026-08-04T12:06:29.132Z</time>
      </trkpt>
      <trkpt lat="45.89955" lon="6.80538">
        <ele>1022</ele>
        <time>2026-08-04T12:06:30.132Z</time>
      </trkpt>
      <trkpt lat="45.89954" lon="6.80535">
        <ele>1023</ele>
        <time>2026-08-04T12:06:31.132Z</time>
      </trkpt>
      <trkpt lat="45.89953" lon="6.80531">
        <ele>1023</ele>
        <time>2026-08-04T12:06:32.132Z</time>
      </trkpt>
      <trkpt lat="45.89952" lon="6.80528">
        <ele>1024</ele>
        <time>2026-08-04T12:06:33.132Z</time>
      </trkpt>
      <trkpt lat="45.8995" lon="6.80525">
        <ele>1024</ele>
        <time>2026-08-04T12:06:34.132Z</time>
      </trkpt>
      <trkpt lat="45.8995" lon="6.80522">
        <ele>1023</ele>
        <time>2026-08-04T12:06:35.132Z</time>
      </trkpt>
      <trkpt lat="45.89949" lon="6.80519">
        <ele>1023</ele>
        <time>2026-08-04T12:06:36.132Z</time>
      </trkpt>
      <trkpt lat="45.89947" lon="6.80517">
        <ele>1023</ele>
        <time>2026-08-04T12:06:37.132Z</time>
      </trkpt>
      <trkpt lat="45.89946" lon="6.80515">
        <ele>1023</ele>
        <time>2026-08-04T12:06:38.132Z</time>
      </trkpt>
      <trkpt lat="45.89945" lon="6.80512">
        <ele>1023</ele>
        <time>2026-08-04T12:06:39.132Z</time>
      </trkpt>
      <trkpt lat="45.89945" lon="6.80508">
        <ele>1022</ele>
        <time>2026-08-04T12:06:40.132Z</time>
      </trkpt>
      <trkpt lat="45.89944" lon="6.80506">
        <ele>1022</ele>
        <time>2026-08-04T12:06:41.132Z</time>
      </trkpt>
      <trkpt lat="45.89942" lon="6.80503">
        <ele>1021</ele>
        <time>2026-08-04T12:06:42.132Z</time>
      </trkpt>
      <trkpt lat="45.89941" lon="6.805">
        <ele>1020</ele>
        <time>2026-08-04T12:06:43.132Z</time>
      </trkpt>
      <trkpt lat="45.89939" lon="6.80498">
        <ele>1020</ele>
        <time>2026-08-04T12:06:44.132Z</time>
      </trkpt>
      <trkpt lat="45.89939" lon="6.80496">
        <ele>1020</ele>
        <time>2026-08-04T12:06:45.132Z</time>
      </trkpt>
      <trkpt lat="45.89938" lon="6.80493">
        <ele>1019</ele>
        <time>2026-08-04T12:06:46.132Z</time>
      </trkpt>
      <trkpt lat="45.89937" lon="6.8049">
        <ele>1018</ele>
        <time>2026-08-04T12:06:47.132Z</time>
      </trkpt>
      <trkpt lat="45.89936" lon="6.80488">
        <ele>1016</ele>
        <time>2026-08-04T12:06:48.132Z</time>
      </trkpt>
      <trkpt lat="45.89935" lon="6.80485">
        <ele>1015</ele>
        <time>2026-08-04T12:06:49.132Z</time>
      </trkpt>
      <trkpt lat="45.89934" lon="6.80483">
        <ele>1014</ele>
        <time>2026-08-04T12:06:50.132Z</time>
      </trkpt>
      <trkpt lat="45.89934" lon="6.8048">
        <ele>1013</ele>
        <time>2026-08-04T12:06:51.132Z</time>
      </trkpt>
      <trkpt lat="45.89934" lon="6.80479">
        <ele>1012</ele>
        <time>2026-08-04T12:06:52.132Z</time>
      </trkpt>
      <trkpt lat="45.89934" lon="6.80478">
        <ele>1011</ele>
        <time>2026-08-04T12:06:53.132Z</time>
      </trkpt>
      <trkpt lat="45.89932" lon="6.80478">
        <ele>1010</ele>
        <time>2026-08-04T12:06:54.132Z</time>
      </trkpt>
      <trkpt lat="45.89931" lon="6.80478">
        <ele>1009</ele>
        <time>2026-08-04T12:06:55.132Z</time>
      </trkpt>
      <trkpt lat="45.8993" lon="6.80478">
        <ele>1009</ele>
        <time>2026-08-04T12:06:56.132Z</time>
      </trkpt>
      <trkpt lat="45.89929" lon="6.80477">
        <ele>1008</ele>
        <time>2026-08-04T12:06:57.132Z</time>
      </trkpt>
      <trkpt lat="45.89927" lon="6.80476">
        <ele>1007</ele>
        <time>2026-08-04T12:06:58.132Z</time>
      </trkpt>
      <trkpt lat="45.89926" lon="6.80475">
        <ele>1007</ele>
        <time>2026-08-04T12:06:59.132Z</time>
      </trkpt>
      <trkpt lat="45.89925" lon="6.80475">
        <ele>1006</ele>
        <time>2026-08-04T12:07:00.132Z</time>
      </trkpt>
      <trkpt lat="45.89924" lon="6.80474">
        <ele>1006</ele>
        <time>2026-08-04T12:07:01.132Z</time>
      </trkpt>
      <trkpt lat="45.89923" lon="6.80474">
        <ele>1005</ele>
        <time>2026-08-04T12:07:02.132Z</time>
      </trkpt>
      <trkpt lat="45.89921" lon="6.80474">
        <ele>1005</ele>
        <time>2026-08-04T12:07:03.132Z</time>
      </trkpt>
      <trkpt lat="45.8992" lon="6.80474">
        <ele>1005</ele>
        <time>2026-08-04T12:07:04.132Z</time>
      </trkpt>
      <trkpt lat="45.89919" lon="6.80473">
        <ele>1005</ele>
        <time>2026-08-04T12:07:05.132Z</time>
      </trkpt>
      <trkpt lat="45.89918" lon="6.80472">
        <ele>1005</ele>
        <time>2026-08-04T12:07:06.132Z</time>
      </trkpt>
      <trkpt lat="45.89917" lon="6.80469">
        <ele>1005</ele>
        <time>2026-08-04T12:07:07.132Z</time>
      </trkpt>
      <trkpt lat="45.89916" lon="6.80466">
        <ele>1004</ele>
        <time>2026-08-04T12:07:08.132Z</time>
      </trkpt>
      <trkpt lat="45.89915" lon="6.80464">
        <ele>1004</ele>
        <time>2026-08-04T12:07:09.132Z</time>
      </trkpt>
      <trkpt lat="45.89914" lon="6.80462">
        <ele>1003</ele>
        <time>2026-08-04T12:07:10.132Z</time>
      </trkpt>
      <trkpt lat="45.89913" lon="6.80459">
        <ele>1003</ele>
        <time>2026-08-04T12:07:11.132Z</time>
      </trkpt>
      <trkpt lat="45.89911" lon="6.80458">
        <ele>1002</ele>
        <time>2026-08-04T12:07:12.132Z</time>
      </trkpt>
      <trkpt lat="45.8991" lon="6.80456">
        <ele>1002</ele>
        <time>2026-08-04T12:07:13.132Z</time>
      </trkpt>
      <trkpt lat="45.89908" lon="6.80454">
        <ele>1002</ele>
        <time>2026-08-04T12:07:14.132Z</time>
      </trkpt>
      <trkpt lat="45.89907" lon="6.80452">
        <ele>1001</ele>
        <time>2026-08-04T12:07:15.132Z</time>
      </trkpt>
      <trkpt lat="45.89905" lon="6.80449">
        <ele>1001</ele>
        <time>2026-08-04T12:07:16.132Z</time>
      </trkpt>
      <trkpt lat="45.89904" lon="6.80446">
        <ele>1001</ele>
        <time>2026-08-04T12:07:17.132Z</time>
      </trkpt>
      <trkpt lat="45.89902" lon="6.80444">
        <ele>1001</ele>
        <time>2026-08-04T12:07:18.132Z</time>
      </trkpt>
      <trkpt lat="45.89901" lon="6.80441">
        <ele>1001</ele>
        <time>2026-08-04T12:07:19.132Z</time>
      </trkpt>
      <trkpt lat="45.899" lon="6.80439">
        <ele>1002</ele>
        <time>2026-08-04T12:07:20.132Z</time>
      </trkpt>
      <trkpt lat="45.89899" lon="6.80437">
        <ele>1002</ele>
        <time>2026-08-04T12:07:21.132Z</time>
      </trkpt>
      <trkpt lat="45.89897" lon="6.80434">
        <ele>1002</ele>
        <time>2026-08-04T12:07:22.132Z</time>
      </trkpt>
      <trkpt lat="45.89896" lon="6.80431">
        <ele>1002</ele>
        <time>2026-08-04T12:07:23.132Z</time>
      </trkpt>
      <trkpt lat="45.89895" lon="6.80428">
        <ele>1002</ele>
        <time>2026-08-04T12:07:24.132Z</time>
      </trkpt>
      <trkpt lat="45.89894" lon="6.80426">
        <ele>1002</ele>
        <time>2026-08-04T12:07:25.132Z</time>
      </trkpt>
      <trkpt lat="45.89893" lon="6.80423">
        <ele>1002</ele>
        <time>2026-08-04T12:07:26.132Z</time>
      </trkpt>
      <trkpt lat="45.89893" lon="6.80421">
        <ele>1002</ele>
        <time>2026-08-04T12:07:27.132Z</time>
      </trkpt>
      <trkpt lat="45.89892" lon="6.80418">
        <ele>1002</ele>
        <time>2026-08-04T12:07:28.132Z</time>
      </trkpt>
      <trkpt lat="45.89891" lon="6.80414">
        <ele>1002</ele>
        <time>2026-08-04T12:07:29.132Z</time>
      </trkpt>
      <trkpt lat="45.8989" lon="6.80411">
        <ele>1002</ele>
        <time>2026-08-04T12:07:30.132Z</time>
      </trkpt>
      <trkpt lat="45.89889" lon="6.80409">
        <ele>1002</ele>
        <time>2026-08-04T12:07:31.132Z</time>
      </trkpt>
      <trkpt lat="45.89888" lon="6.80407">
        <ele>1001</ele>
        <time>2026-08-04T12:07:32.132Z</time>
      </trkpt>
      <trkpt lat="45.89887" lon="6.80405">
        <ele>1001</ele>
        <time>2026-08-04T12:07:33.132Z</time>
      </trkpt>
      <trkpt lat="45.89885" lon="6.80403">
        <ele>1001</ele>
        <time>2026-08-04T12:07:34.132Z</time>
      </trkpt>
      <trkpt lat="45.89884" lon="6.80401">
        <ele>1001</ele>
        <time>2026-08-04T12:07:35.132Z</time>
      </trkpt>
      <trkpt lat="45.89882" lon="6.80399">
        <ele>1000</ele>
        <time>2026-08-04T12:07:36.132Z</time>
      </trkpt>
      <trkpt lat="45.89881" lon="6.80398">
        <ele>1000</ele>
        <time>2026-08-04T12:07:37.132Z</time>
      </trkpt>
      <trkpt lat="45.8988" lon="6.80396">
        <ele>1000</ele>
        <time>2026-08-04T12:07:38.132Z</time>
      </trkpt>
      <trkpt lat="45.89879" lon="6.80395">
        <ele>1000</ele>
        <time>2026-08-04T12:07:39.132Z</time>
      </trkpt>
      <trkpt lat="45.89877" lon="6.80393">
        <ele>1000</ele>
        <time>2026-08-04T12:07:40.132Z</time>
      </trkpt>
      <trkpt lat="45.89875" lon="6.80392">
        <ele>1000</ele>
        <time>2026-08-04T12:07:41.132Z</time>
      </trkpt>
      <trkpt lat="45.89874" lon="6.80391">
        <ele>1000</ele>
        <time>2026-08-04T12:07:42.132Z</time>
      </trkpt>
      <trkpt lat="45.89872" lon="6.80389">
        <ele>1000</ele>
        <time>2026-08-04T12:07:43.132Z</time>
      </trkpt>
      <trkpt lat="45.89871" lon="6.80388">
        <ele>1000</ele>
        <time>2026-08-04T12:07:44.132Z</time>
      </trkpt>
      <trkpt lat="45.8987" lon="6.80386">
        <ele>1001</ele>
        <time>2026-08-04T12:07:45.132Z</time>
      </trkpt>
      <trkpt lat="45.89869" lon="6.80384">
        <ele>1001</ele>
        <time>2026-08-04T12:07:46.132Z</time>
      </trkpt>
      <trkpt lat="45.89868" lon="6.80382">
        <ele>1001</ele>
        <time>2026-08-04T12:07:47.132Z</time>
      </trkpt>
      <trkpt lat="45.89867" lon="6.8038">
        <ele>1001</ele>
        <time>2026-08-04T12:07:48.132Z</time>
      </trkpt>
      <trkpt lat="45.89865" lon="6.80378">
        <ele>1001</ele>
        <time>2026-08-04T12:07:49.132Z</time>
      </trkpt>
      <trkpt lat="45.89864" lon="6.80376">
        <ele>1002</ele>
        <time>2026-08-04T12:07:50.132Z</time>
      </trkpt>
      <trkpt lat="45.89863" lon="6.80373">
        <ele>1002</ele>
        <time>2026-08-04T12:07:51.132Z</time>
      </trkpt>
      <trkpt lat="45.89862" lon="6.80371">
        <ele>1003</ele>
        <time>2026-08-04T12:07:52.132Z</time>
      </trkpt>
      <trkpt lat="45.89861" lon="6.80368">
        <ele>1004</ele>
        <time>2026-08-04T12:07:53.132Z</time>
      </trkpt>
      <trkpt lat="45.8986" lon="6.80366">
        <ele>1004</ele>
        <time>2026-08-04T12:07:54.132Z</time>
      </trkpt>
      <trkpt lat="45.89858" lon="6.80364">
        <ele>1005</ele>
        <time>2026-08-04T12:07:55.132Z</time>
      </trkpt>
      <trkpt lat="45.89858" lon="6.80363">
        <ele>1005</ele>
        <time>2026-08-04T12:07:56.132Z</time>
      </trkpt>
      <trkpt lat="45.89857" lon="6.80361">
        <ele>1006</ele>
        <time>2026-08-04T12:07:57.132Z</time>
      </trkpt>
      <trkpt lat="45.89856" lon="6.80359">
        <ele>1006</ele>
        <time>2026-08-04T12:07:58.132Z</time>
      </trkpt>
      <trkpt lat="45.89855" lon="6.80357">
        <ele>1006</ele>
        <time>2026-08-04T12:07:59.132Z</time>
      </trkpt>
      <trkpt lat="45.89854" lon="6.80355">
        <ele>1006</ele>
        <time>2026-08-04T12:08:00.132Z</time>
      </trkpt>
      <trkpt lat="45.89853" lon="6.80353">
        <ele>1005</ele>
        <time>2026-08-04T12:08:01.132Z</time>
      </trkpt>
      <trkpt lat="45.89852" lon="6.8035">
        <ele>1005</ele>
        <time>2026-08-04T12:08:02.132Z</time>
      </trkpt>
      <trkpt lat="45.89851" lon="6.80348">
        <ele>1005</ele>
        <time>2026-08-04T12:08:03.132Z</time>
      </trkpt>
      <trkpt lat="45.8985" lon="6.80346">
        <ele>1005</ele>
        <time>2026-08-04T12:08:04.132Z</time>
      </trkpt>
      <trkpt lat="45.89849" lon="6.80343">
        <ele>1006</ele>
        <time>2026-08-04T12:08:05.132Z</time>
      </trkpt>
      <trkpt lat="45.89849" lon="6.8034">
        <ele>1006</ele>
        <time>2026-08-04T12:08:06.132Z</time>
      </trkpt>
      <trkpt lat="45.89848" lon="6.80338">
        <ele>1006</ele>
        <time>2026-08-04T12:08:07.132Z</time>
      </trkpt>
      <trkpt lat="45.89847" lon="6.80335">
        <ele>1006</ele>
        <time>2026-08-04T12:08:08.132Z</time>
      </trkpt>
      <trkpt lat="45.89846" lon="6.80332">
        <ele>1006</ele>
        <time>2026-08-04T12:08:09.132Z</time>
      </trkpt>
      <trkpt lat="45.89845" lon="6.8033">
        <ele>1005</ele>
        <time>2026-08-04T12:08:10.132Z</time>
      </trkpt>
      <trkpt lat="45.89844" lon="6.80327">
        <ele>1005</ele>
        <time>2026-08-04T12:08:11.132Z</time>
      </trkpt>
      <trkpt lat="45.89843" lon="6.80325">
        <ele>1005</ele>
        <time>2026-08-04T12:08:12.132Z</time>
      </trkpt>
      <trkpt lat="45.89842" lon="6.80323">
        <ele>1004</ele>
        <time>2026-08-04T12:08:13.132Z</time>
      </trkpt>
      <trkpt lat="45.89841" lon="6.8032">
        <ele>1004</ele>
        <time>2026-08-04T12:08:14.132Z</time>
      </trkpt>
      <trkpt lat="45.8984" lon="6.80317">
        <ele>1004</ele>
        <time>2026-08-04T12:08:15.132Z</time>
      </trkpt>
      <trkpt lat="45.89839" lon="6.80315">
        <ele>1004</ele>
        <time>2026-08-04T12:08:16.132Z</time>
      </trkpt>
      <trkpt lat="45.89838" lon="6.80314">
        <ele>1004</ele>
        <time>2026-08-04T12:08:17.132Z</time>
      </trkpt>
      <trkpt lat="45.89836" lon="6.80313">
        <ele>1004</ele>
        <time>2026-08-04T12:08:18.132Z</time>
      </trkpt>
      <trkpt lat="45.89834" lon="6.80312">
        <ele>1005</ele>
        <time>2026-08-04T12:08:19.132Z</time>
      </trkpt>
      <trkpt lat="45.89833" lon="6.80311">
        <ele>1005</ele>
        <time>2026-08-04T12:08:20.132Z</time>
      </trkpt>
      <trkpt lat="45.89831" lon="6.80309">
        <ele>1006</ele>
        <time>2026-08-04T12:08:21.132Z</time>
      </trkpt>
      <trkpt lat="45.8983" lon="6.80308">
        <ele>1006</ele>
        <time>2026-08-04T12:08:22.132Z</time>
      </trkpt>
      <trkpt lat="45.89828" lon="6.80306">
        <ele>1006</ele>
        <time>2026-08-04T12:08:23.132Z</time>
      </trkpt>
      <trkpt lat="45.89827" lon="6.80305">
        <ele>1006</ele>
        <time>2026-08-04T12:08:24.132Z</time>
      </trkpt>
      <trkpt lat="45.89825" lon="6.80304">
        <ele>1007</ele>
        <time>2026-08-04T12:08:25.132Z</time>
      </trkpt>
      <trkpt lat="45.89823" lon="6.80304">
        <ele>1007</ele>
        <time>2026-08-04T12:08:26.132Z</time>
      </trkpt>
      <trkpt lat="45.89821" lon="6.80305">
        <ele>1007</ele>
        <time>2026-08-04T12:08:27.132Z</time>
      </trkpt>
      <trkpt lat="45.89819" lon="6.80303">
        <ele>1008</ele>
        <time>2026-08-04T12:08:28.132Z</time>
      </trkpt>
      <trkpt lat="45.89819" lon="6.80302">
        <ele>1008</ele>
        <time>2026-08-04T12:08:29.132Z</time>
      </trkpt>
      <trkpt lat="45.89817" lon="6.80301">
        <ele>1008</ele>
        <time>2026-08-04T12:08:30.132Z</time>
      </trkpt>
      <trkpt lat="45.89816" lon="6.80301">
        <ele>1009</ele>
        <time>2026-08-04T12:08:31.132Z</time>
      </trkpt>
      <trkpt lat="45.89814" lon="6.803">
        <ele>1009</ele>
        <time>2026-08-04T12:08:32.132Z</time>
      </trkpt>
      <trkpt lat="45.89813" lon="6.80299">
        <ele>1009</ele>
        <time>2026-08-04T12:08:33.132Z</time>
      </trkpt>
      <trkpt lat="45.89811" lon="6.80298">
        <ele>1010</ele>
        <time>2026-08-04T12:08:34.132Z</time>
      </trkpt>
      <trkpt lat="45.8981" lon="6.80297">
        <ele>1011</ele>
        <time>2026-08-04T12:08:35.132Z</time>
      </trkpt>
      <trkpt lat="45.89808" lon="6.80295">
        <ele>1011</ele>
        <time>2026-08-04T12:08:36.132Z</time>
      </trkpt>
      <trkpt lat="45.89807" lon="6.80292">
        <ele>1011</ele>
        <time>2026-08-04T12:08:37.132Z</time>
      </trkpt>
      <trkpt lat="45.89806" lon="6.8029">
        <ele>1011</ele>
        <time>2026-08-04T12:08:38.132Z</time>
      </trkpt>
      <trkpt lat="45.89805" lon="6.80288">
        <ele>1012</ele>
        <time>2026-08-04T12:08:39.132Z</time>
      </trkpt>
      <trkpt lat="45.89804" lon="6.80286">
        <ele>1012</ele>
        <time>2026-08-04T12:08:40.132Z</time>
      </trkpt>
      <trkpt lat="45.89802" lon="6.80284">
        <ele>1012</ele>
        <time>2026-08-04T12:08:41.132Z</time>
      </trkpt>
      <trkpt lat="45.89801" lon="6.80281">
        <ele>1012</ele>
        <time>2026-08-04T12:08:42.132Z</time>
      </trkpt>
      <trkpt lat="45.89799" lon="6.80279">
        <ele>1012</ele>
        <time>2026-08-04T12:08:43.132Z</time>
      </trkpt>
      <trkpt lat="45.89798" lon="6.80278">
        <ele>1012</ele>
        <time>2026-08-04T12:08:44.132Z</time>
      </trkpt>
      <trkpt lat="45.89797" lon="6.80276">
        <ele>1012</ele>
        <time>2026-08-04T12:08:45.132Z</time>
      </trkpt>
      <trkpt lat="45.89796" lon="6.80274">
        <ele>1012</ele>
        <time>2026-08-04T12:08:46.132Z</time>
      </trkpt>
      <trkpt lat="45.89795" lon="6.8027">
        <ele>1012</ele>
        <time>2026-08-04T12:08:47.132Z</time>
      </trkpt>
      <trkpt lat="45.89794" lon="6.80267">
        <ele>1011</ele>
        <time>2026-08-04T12:08:48.132Z</time>
      </trkpt>
      <trkpt lat="45.89793" lon="6.80265">
        <ele>1011</ele>
        <time>2026-08-04T12:08:49.132Z</time>
      </trkpt>
      <trkpt lat="45.89793" lon="6.80263">
        <ele>1010</ele>
        <time>2026-08-04T12:08:50.132Z</time>
      </trkpt>
      <trkpt lat="45.89792" lon="6.80261">
        <ele>1010</ele>
        <time>2026-08-04T12:08:51.132Z</time>
      </trkpt>
      <trkpt lat="45.89791" lon="6.8026">
        <ele>1010</ele>
        <time>2026-08-04T12:08:52.132Z</time>
      </trkpt>
      <trkpt lat="45.8979" lon="6.80259">
        <ele>1009</ele>
        <time>2026-08-04T12:08:53.132Z</time>
      </trkpt>
      <trkpt lat="45.89789" lon="6.80257">
        <ele>1010</ele>
        <time>2026-08-04T12:08:54.132Z</time>
      </trkpt>
      <trkpt lat="45.89789" lon="6.80256">
        <ele>1010</ele>
        <time>2026-08-04T12:08:55.132Z</time>
      </trkpt>
      <trkpt lat="45.89788" lon="6.80255">
        <ele>1010</ele>
        <time>2026-08-04T12:08:56.132Z</time>
      </trkpt>
      <trkpt lat="45.89787" lon="6.80254">
        <ele>1010</ele>
        <time>2026-08-04T12:08:57.132Z</time>
      </trkpt>
      <trkpt lat="45.89786" lon="6.80254">
        <ele>1010</ele>
        <time>2026-08-04T12:08:58.132Z</time>
      </trkpt>
      <trkpt lat="45.89785" lon="6.80253">
        <ele>1010</ele>
        <time>2026-08-04T12:08:59.132Z</time>
      </trkpt>
      <trkpt lat="45.89784" lon="6.80253">
        <ele>1010</ele>
        <time>2026-08-04T12:09:00.132Z</time>
      </trkpt>
      <trkpt lat="45.89783" lon="6.80252">
        <ele>1011</ele>
        <time>2026-08-04T12:09:01.132Z</time>
      </trkpt>
      <trkpt lat="45.89783" lon="6.80252">
        <ele>1011</ele>
        <time>2026-08-04T12:09:02.132Z</time>
      </trkpt>
      <trkpt lat="45.89782" lon="6.80251">
        <ele>1010</ele>
        <time>2026-08-04T12:09:03.132Z</time>
      </trkpt>
      <trkpt lat="45.89781" lon="6.80251">
        <ele>1010</ele>
        <time>2026-08-04T12:09:04.132Z</time>
      </trkpt>
      <trkpt lat="45.8978" lon="6.8025">
        <ele>1010</ele>
        <time>2026-08-04T12:09:05.132Z</time>
      </trkpt>
      <trkpt lat="45.89779" lon="6.80249">
        <ele>1010</ele>
        <time>2026-08-04T12:09:06.132Z</time>
      </trkpt>
      <trkpt lat="45.89779" lon="6.80248">
        <ele>1009</ele>
        <time>2026-08-04T12:09:07.132Z</time>
      </trkpt>
      <trkpt lat="45.89778" lon="6.80248">
        <ele>1009</ele>
        <time>2026-08-04T12:09:08.132Z</time>
      </trkpt>
      <trkpt lat="45.89777" lon="6.80247">
        <ele>1008</ele>
        <time>2026-08-04T12:09:09.132Z</time>
      </trkpt>
      <trkpt lat="45.89776" lon="6.80246">
        <ele>1008</ele>
        <time>2026-08-04T12:09:10.132Z</time>
      </trkpt>
      <trkpt lat="45.89775" lon="6.80245">
        <ele>1007</ele>
        <time>2026-08-04T12:09:11.132Z</time>
      </trkpt>
      <trkpt lat="45.89774" lon="6.80243">
        <ele>1007</ele>
        <time>2026-08-04T12:09:12.132Z</time>
      </trkpt>
    </trkseg>
  </trk>
</gpx>